<?xml version="1.0" encoding="UTF-8" standalone="no" ?>
<gpx xmlns="http://www.topografix.com/GPX/1/1" xmlns:xsi="http://www.w3.org/2001/XMLSchema-instance" xsi:schemaLocation="http://www.topografix.com/GPX/1/1 http://www.topografix.com/GPX/1/1/gpx.xsd" version="1.1" creator="VisuGPX - https://www.visugpx.com">
  <metadata>
    <name>ski rando Tour du BACHEUX</name>
  </metadata>
  <trk>
    <name><![CDATA[ski rando Tour du BACHEUX]]></name>
    <trkseg>
      <trkpt lat="45.31615" lon="6.25065">
        <ele>1077.4000244141</ele>
        <time>2014-03-02T07:10:00.000Z</time>
      </trkpt>
      <trkpt lat="45.31616" lon="6.25066">
        <ele>1077.5999755859</ele>
        <time>2014-03-02T07:10:05.000Z</time>
      </trkpt>
      <trkpt lat="45.31616" lon="6.25066">
        <ele>1077.5999755859</ele>
        <time>2014-03-02T07:10:06.000Z</time>
      </trkpt>
      <trkpt lat="45.31616" lon="6.25066">
        <ele>1077.5999755859</ele>
        <time>2014-03-02T07:10:07.000Z</time>
      </trkpt>
      <trkpt lat="45.31616" lon="6.25066">
        <ele>1077.5999755859</ele>
        <time>2014-03-02T07:10:08.000Z</time>
      </trkpt>
      <trkpt lat="45.31616" lon="6.25066">
        <ele>1077.5999755859</ele>
        <time>2014-03-02T07:10:09.000Z</time>
      </trkpt>
      <trkpt lat="45.31616" lon="6.25066">
        <ele>1077.5999755859</ele>
        <time>2014-03-02T07:10:11.000Z</time>
      </trkpt>
      <trkpt lat="45.31616" lon="6.25066">
        <ele>1077.5999755859</ele>
        <time>2014-03-02T07:10:12.000Z</time>
      </trkpt>
      <trkpt lat="45.31616" lon="6.25066">
        <ele>1077.5999755859</ele>
        <time>2014-03-02T07:10:13.000Z</time>
      </trkpt>
      <trkpt lat="45.31616" lon="6.25066">
        <ele>1077.5999755859</ele>
        <time>2014-03-02T07:10:14.000Z</time>
      </trkpt>
      <trkpt lat="45.31616" lon="6.25066">
        <ele>1077.5999755859</ele>
        <time>2014-03-02T07:10:15.000Z</time>
      </trkpt>
      <trkpt lat="45.31616" lon="6.25066">
        <ele>1077.5999755859</ele>
        <time>2014-03-02T07:10:19.000Z</time>
      </trkpt>
      <trkpt lat="45.31616" lon="6.25066">
        <ele>1077.5999755859</ele>
        <time>2014-03-02T07:10:20.000Z</time>
      </trkpt>
      <trkpt lat="45.31616" lon="6.25066">
        <ele>1077.5999755859</ele>
        <time>2014-03-02T07:10:21.000Z</time>
      </trkpt>
      <trkpt lat="45.31616" lon="6.25066">
        <ele>1077.5999755859</ele>
        <time>2014-03-02T07:10:22.000Z</time>
      </trkpt>
      <trkpt lat="45.31616" lon="6.25066">
        <ele>1077.5999755859</ele>
        <time>2014-03-02T07:10:23.000Z</time>
      </trkpt>
      <trkpt lat="45.31616" lon="6.25066">
        <ele>1077.5999755859</ele>
        <time>2014-03-02T07:10:24.000Z</time>
      </trkpt>
      <trkpt lat="45.31616" lon="6.25066">
        <ele>1077.5999755859</ele>
        <time>2014-03-02T07:10:25.000Z</time>
      </trkpt>
      <trkpt lat="45.31616" lon="6.25066">
        <ele>1077.5999755859</ele>
        <time>2014-03-02T07:10:26.000Z</time>
      </trkpt>
      <trkpt lat="45.31616" lon="6.25066">
        <ele>1077.5999755859</ele>
        <time>2014-03-02T07:10:27.000Z</time>
      </trkpt>
      <trkpt lat="45.31616" lon="6.25066">
        <ele>1077.5999755859</ele>
        <time>2014-03-02T07:10:28.000Z</time>
      </trkpt>
      <trkpt lat="45.31616" lon="6.25066">
        <ele>1077.5999755859</ele>
        <time>2014-03-02T07:10:29.000Z</time>
      </trkpt>
      <trkpt lat="45.31616" lon="6.25066">
        <ele>1077.5999755859</ele>
        <time>2014-03-02T07:10:30.000Z</time>
      </trkpt>
      <trkpt lat="45.31616" lon="6.25066">
        <ele>1077.5999755859</ele>
        <time>2014-03-02T07:10:31.000Z</time>
      </trkpt>
      <trkpt lat="45.31616" lon="6.25066">
        <ele>1077.5999755859</ele>
        <time>2014-03-02T07:10:32.000Z</time>
      </trkpt>
      <trkpt lat="45.31616" lon="6.25066">
        <ele>1077.5999755859</ele>
        <time>2014-03-02T07:10:33.000Z</time>
      </trkpt>
      <trkpt lat="45.31616" lon="6.25066">
        <ele>1077.5999755859</ele>
        <time>2014-03-02T07:10:34.000Z</time>
      </trkpt>
      <trkpt lat="45.31616" lon="6.25066">
        <ele>1077.5999755859</ele>
        <time>2014-03-02T07:10:35.000Z</time>
      </trkpt>
      <trkpt lat="45.31616" lon="6.25066">
        <ele>1077.5999755859</ele>
        <time>2014-03-02T07:10:36.000Z</time>
      </trkpt>
      <trkpt lat="45.31616" lon="6.25066">
        <ele>1077.5999755859</ele>
        <time>2014-03-02T07:10:37.000Z</time>
      </trkpt>
      <trkpt lat="45.31616" lon="6.25066">
        <ele>1077.5999755859</ele>
        <time>2014-03-02T07:10:39.000Z</time>
      </trkpt>
      <trkpt lat="45.31616" lon="6.25066">
        <ele>1077.5999755859</ele>
        <time>2014-03-02T07:10:40.000Z</time>
      </trkpt>
      <trkpt lat="45.31616" lon="6.25066">
        <ele>1077.5999755859</ele>
        <time>2014-03-02T07:10:41.000Z</time>
      </trkpt>
      <trkpt lat="45.31616" lon="6.25066">
        <ele>1077.5999755859</ele>
        <time>2014-03-02T07:10:43.000Z</time>
      </trkpt>
      <trkpt lat="45.31616" lon="6.25066">
        <ele>1077.5999755859</ele>
        <time>2014-03-02T07:10:45.000Z</time>
      </trkpt>
      <trkpt lat="45.31616" lon="6.25066">
        <ele>1077.5999755859</ele>
        <time>2014-03-02T07:10:46.000Z</time>
      </trkpt>
      <trkpt lat="45.31616" lon="6.25066">
        <ele>1077.5999755859</ele>
        <time>2014-03-02T07:10:47.000Z</time>
      </trkpt>
      <trkpt lat="45.31616" lon="6.25066">
        <ele>1077.5999755859</ele>
        <time>2014-03-02T07:10:48.000Z</time>
      </trkpt>
      <trkpt lat="45.31616" lon="6.25066">
        <ele>1077.5999755859</ele>
        <time>2014-03-02T07:10:49.000Z</time>
      </trkpt>
      <trkpt lat="45.31616" lon="6.25066">
        <ele>1077.5999755859</ele>
        <time>2014-03-02T07:10:50.000Z</time>
      </trkpt>
      <trkpt lat="45.31616" lon="6.25066">
        <ele>1077.5999755859</ele>
        <time>2014-03-02T07:10:51.000Z</time>
      </trkpt>
      <trkpt lat="45.31616" lon="6.25066">
        <ele>1077.5999755859</ele>
        <time>2014-03-02T07:10:52.000Z</time>
      </trkpt>
      <trkpt lat="45.31616" lon="6.25066">
        <ele>1077.5999755859</ele>
        <time>2014-03-02T07:10:53.000Z</time>
      </trkpt>
      <trkpt lat="45.31616" lon="6.25066">
        <ele>1077.5999755859</ele>
        <time>2014-03-02T07:10:54.000Z</time>
      </trkpt>
      <trkpt lat="45.31616" lon="6.25066">
        <ele>1077.5999755859</ele>
        <time>2014-03-02T07:10:55.000Z</time>
      </trkpt>
      <trkpt lat="45.31616" lon="6.25066">
        <ele>1077.5999755859</ele>
        <time>2014-03-02T07:10:56.000Z</time>
      </trkpt>
      <trkpt lat="45.31616" lon="6.25065">
        <ele>1077.5999755859</ele>
        <time>2014-03-02T07:10:58.000Z</time>
      </trkpt>
      <trkpt lat="45.31616" lon="6.25065">
        <ele>1077.5999755859</ele>
        <time>2014-03-02T07:10:59.000Z</time>
      </trkpt>
      <trkpt lat="45.31616" lon="6.25065">
        <ele>1077.5999755859</ele>
        <time>2014-03-02T07:11:00.000Z</time>
      </trkpt>
      <trkpt lat="45.31616" lon="6.25065">
        <ele>1077.5999755859</ele>
        <time>2014-03-02T07:11:01.000Z</time>
      </trkpt>
      <trkpt lat="45.31616" lon="6.25065">
        <ele>1077.5999755859</ele>
        <time>2014-03-02T07:11:02.000Z</time>
      </trkpt>
      <trkpt lat="45.31616" lon="6.25065">
        <ele>1077.5999755859</ele>
        <time>2014-03-02T07:11:03.000Z</time>
      </trkpt>
      <trkpt lat="45.31616" lon="6.25065">
        <ele>1077.5999755859</ele>
        <time>2014-03-02T07:11:04.000Z</time>
      </trkpt>
      <trkpt lat="45.31616" lon="6.25065">
        <ele>1077.5999755859</ele>
        <time>2014-03-02T07:11:06.000Z</time>
      </trkpt>
      <trkpt lat="45.31616" lon="6.25065">
        <ele>1077.5999755859</ele>
        <time>2014-03-02T07:11:07.000Z</time>
      </trkpt>
      <trkpt lat="45.31616" lon="6.25065">
        <ele>1077.5999755859</ele>
        <time>2014-03-02T07:11:08.000Z</time>
      </trkpt>
      <trkpt lat="45.31616" lon="6.25065">
        <ele>1077.5999755859</ele>
        <time>2014-03-02T07:11:09.000Z</time>
      </trkpt>
      <trkpt lat="45.31616" lon="6.25065">
        <ele>1077.5999755859</ele>
        <time>2014-03-02T07:11:10.000Z</time>
      </trkpt>
      <trkpt lat="45.31616" lon="6.25065">
        <ele>1077.5999755859</ele>
        <time>2014-03-02T07:11:11.000Z</time>
      </trkpt>
      <trkpt lat="45.31616" lon="6.25065">
        <ele>1077.5999755859</ele>
        <time>2014-03-02T07:11:12.000Z</time>
      </trkpt>
      <trkpt lat="45.31616" lon="6.25065">
        <ele>1077.5999755859</ele>
        <time>2014-03-02T07:11:13.000Z</time>
      </trkpt>
      <trkpt lat="45.31616" lon="6.25065">
        <ele>1077.5999755859</ele>
        <time>2014-03-02T07:11:15.000Z</time>
      </trkpt>
      <trkpt lat="45.31616" lon="6.25065">
        <ele>1077.5999755859</ele>
        <time>2014-03-02T07:11:16.000Z</time>
      </trkpt>
      <trkpt lat="45.31616" lon="6.25065">
        <ele>1077.5999755859</ele>
        <time>2014-03-02T07:11:17.000Z</time>
      </trkpt>
      <trkpt lat="45.31615" lon="6.25066">
        <ele>1077.5999755859</ele>
        <time>2014-03-02T07:11:20.000Z</time>
      </trkpt>
      <trkpt lat="45.31615" lon="6.25066">
        <ele>1077.4000244141</ele>
        <time>2014-03-02T07:11:21.000Z</time>
      </trkpt>
      <trkpt lat="45.31614" lon="6.25066">
        <ele>1077.4000244141</ele>
        <time>2014-03-02T07:11:22.000Z</time>
      </trkpt>
      <trkpt lat="45.31614" lon="6.25067">
        <ele>1077.4000244141</ele>
        <time>2014-03-02T07:11:23.000Z</time>
      </trkpt>
      <trkpt lat="45.31614" lon="6.25067">
        <ele>1077.4000244141</ele>
        <time>2014-03-02T07:11:24.000Z</time>
      </trkpt>
      <trkpt lat="45.31614" lon="6.25067">
        <ele>1077.4000244141</ele>
        <time>2014-03-02T07:11:25.000Z</time>
      </trkpt>
      <trkpt lat="45.31614" lon="6.25067">
        <ele>1077.4000244141</ele>
        <time>2014-03-02T07:11:26.000Z</time>
      </trkpt>
      <trkpt lat="45.31614" lon="6.25067">
        <ele>1077.4000244141</ele>
        <time>2014-03-02T07:11:27.000Z</time>
      </trkpt>
      <trkpt lat="45.31614" lon="6.25067">
        <ele>1077.4000244141</ele>
        <time>2014-03-02T07:11:28.000Z</time>
      </trkpt>
      <trkpt lat="45.31615" lon="6.25067">
        <ele>1077.4000244141</ele>
        <time>2014-03-02T07:11:30.000Z</time>
      </trkpt>
      <trkpt lat="45.31615" lon="6.25066">
        <ele>1077.5999755859</ele>
        <time>2014-03-02T07:11:31.000Z</time>
      </trkpt>
      <trkpt lat="45.31615" lon="6.25066">
        <ele>1077.5999755859</ele>
        <time>2014-03-02T07:11:32.000Z</time>
      </trkpt>
      <trkpt lat="45.31615" lon="6.25066">
        <ele>1077.5999755859</ele>
        <time>2014-03-02T07:11:33.000Z</time>
      </trkpt>
      <trkpt lat="45.31615" lon="6.25066">
        <ele>1077.5999755859</ele>
        <time>2014-03-02T07:11:34.000Z</time>
      </trkpt>
      <trkpt lat="45.31615" lon="6.25066">
        <ele>1077.5999755859</ele>
        <time>2014-03-02T07:11:35.000Z</time>
      </trkpt>
      <trkpt lat="45.31615" lon="6.25066">
        <ele>1077.5999755859</ele>
        <time>2014-03-02T07:11:36.000Z</time>
      </trkpt>
      <trkpt lat="45.31615" lon="6.25066">
        <ele>1077.5999755859</ele>
        <time>2014-03-02T07:11:37.000Z</time>
      </trkpt>
      <trkpt lat="45.31615" lon="6.25066">
        <ele>1077.5999755859</ele>
        <time>2014-03-02T07:11:38.000Z</time>
      </trkpt>
      <trkpt lat="45.31615" lon="6.25066">
        <ele>1077.5999755859</ele>
        <time>2014-03-02T07:11:39.000Z</time>
      </trkpt>
      <trkpt lat="45.31615" lon="6.25066">
        <ele>1077.5999755859</ele>
        <time>2014-03-02T07:11:40.000Z</time>
      </trkpt>
      <trkpt lat="45.31615" lon="6.25066">
        <ele>1077.5999755859</ele>
        <time>2014-03-02T07:11:41.000Z</time>
      </trkpt>
      <trkpt lat="45.31615" lon="6.25066">
        <ele>1077.5999755859</ele>
        <time>2014-03-02T07:11:42.000Z</time>
      </trkpt>
      <trkpt lat="45.31615" lon="6.25066">
        <ele>1077.5999755859</ele>
        <time>2014-03-02T07:11:43.000Z</time>
      </trkpt>
      <trkpt lat="45.31615" lon="6.25066">
        <ele>1077.5999755859</ele>
        <time>2014-03-02T07:11:44.000Z</time>
      </trkpt>
      <trkpt lat="45.31615" lon="6.25066">
        <ele>1077.5999755859</ele>
        <time>2014-03-02T07:11:45.000Z</time>
      </trkpt>
      <trkpt lat="45.31615" lon="6.25066">
        <ele>1077.5999755859</ele>
        <time>2014-03-02T07:11:46.000Z</time>
      </trkpt>
      <trkpt lat="45.31615" lon="6.25066">
        <ele>1077.5999755859</ele>
        <time>2014-03-02T07:11:47.000Z</time>
      </trkpt>
      <trkpt lat="45.31615" lon="6.25066">
        <ele>1077.5999755859</ele>
        <time>2014-03-02T07:11:48.000Z</time>
      </trkpt>
      <trkpt lat="45.31615" lon="6.25066">
        <ele>1077.5999755859</ele>
        <time>2014-03-02T07:11:49.000Z</time>
      </trkpt>
      <trkpt lat="45.31615" lon="6.25066">
        <ele>1077.5999755859</ele>
        <time>2014-03-02T07:11:50.000Z</time>
      </trkpt>
      <trkpt lat="45.31615" lon="6.25066">
        <ele>1077.5999755859</ele>
        <time>2014-03-02T07:11:51.000Z</time>
      </trkpt>
      <trkpt lat="45.31615" lon="6.25066">
        <ele>1077.5999755859</ele>
        <time>2014-03-02T07:11:52.000Z</time>
      </trkpt>
      <trkpt lat="45.31615" lon="6.25066">
        <ele>1077.5999755859</ele>
        <time>2014-03-02T07:11:53.000Z</time>
      </trkpt>
      <trkpt lat="45.31615" lon="6.25066">
        <ele>1077.5999755859</ele>
        <time>2014-03-02T07:11:54.000Z</time>
      </trkpt>
      <trkpt lat="45.31615" lon="6.25066">
        <ele>1077.5999755859</ele>
        <time>2014-03-02T07:11:55.000Z</time>
      </trkpt>
      <trkpt lat="45.31615" lon="6.25066">
        <ele>1077.5999755859</ele>
        <time>2014-03-02T07:11:56.000Z</time>
      </trkpt>
      <trkpt lat="45.31615" lon="6.25066">
        <ele>1077.5999755859</ele>
        <time>2014-03-02T07:11:57.000Z</time>
      </trkpt>
      <trkpt lat="45.31615" lon="6.25066">
        <ele>1077.5999755859</ele>
        <time>2014-03-02T07:11:59.000Z</time>
      </trkpt>
      <trkpt lat="45.31615" lon="6.25066">
        <ele>1077.5999755859</ele>
        <time>2014-03-02T07:12:00.000Z</time>
      </trkpt>
      <trkpt lat="45.31615" lon="6.25066">
        <ele>1077.5999755859</ele>
        <time>2014-03-02T07:12:01.000Z</time>
      </trkpt>
      <trkpt lat="45.31615" lon="6.25067">
        <ele>1077.5999755859</ele>
        <time>2014-03-02T07:12:02.000Z</time>
      </trkpt>
      <trkpt lat="45.31615" lon="6.25067">
        <ele>1077.5999755859</ele>
        <time>2014-03-02T07:12:03.000Z</time>
      </trkpt>
      <trkpt lat="45.31615" lon="6.25067">
        <ele>1077.5999755859</ele>
        <time>2014-03-02T07:12:04.000Z</time>
      </trkpt>
      <trkpt lat="45.31615" lon="6.25067">
        <ele>1077.5999755859</ele>
        <time>2014-03-02T07:12:05.000Z</time>
      </trkpt>
      <trkpt lat="45.31615" lon="6.25067">
        <ele>1077.5999755859</ele>
        <time>2014-03-02T07:12:06.000Z</time>
      </trkpt>
      <trkpt lat="45.31615" lon="6.25067">
        <ele>1077.5999755859</ele>
        <time>2014-03-02T07:12:07.000Z</time>
      </trkpt>
      <trkpt lat="45.31615" lon="6.25067">
        <ele>1077.5999755859</ele>
        <time>2014-03-02T07:12:08.000Z</time>
      </trkpt>
      <trkpt lat="45.31616" lon="6.25066">
        <ele>1077.5999755859</ele>
        <time>2014-03-02T07:12:09.000Z</time>
      </trkpt>
      <trkpt lat="45.31616" lon="6.25066">
        <ele>1077.5999755859</ele>
        <time>2014-03-02T07:12:10.000Z</time>
      </trkpt>
      <trkpt lat="45.31616" lon="6.25065">
        <ele>1077.5999755859</ele>
        <time>2014-03-02T07:12:11.000Z</time>
      </trkpt>
      <trkpt lat="45.31616" lon="6.25065">
        <ele>1077.5999755859</ele>
        <time>2014-03-02T07:12:12.000Z</time>
      </trkpt>
      <trkpt lat="45.31616" lon="6.25065">
        <ele>1077.5999755859</ele>
        <time>2014-03-02T07:12:13.000Z</time>
      </trkpt>
      <trkpt lat="45.31616" lon="6.25065">
        <ele>1077.5999755859</ele>
        <time>2014-03-02T07:12:14.000Z</time>
      </trkpt>
      <trkpt lat="45.31616" lon="6.25065">
        <ele>1077.5999755859</ele>
        <time>2014-03-02T07:12:15.000Z</time>
      </trkpt>
      <trkpt lat="45.31616" lon="6.25065">
        <ele>1077.5999755859</ele>
        <time>2014-03-02T07:12:16.000Z</time>
      </trkpt>
      <trkpt lat="45.31616" lon="6.25065">
        <ele>1077.5999755859</ele>
        <time>2014-03-02T07:12:17.000Z</time>
      </trkpt>
      <trkpt lat="45.31616" lon="6.25065">
        <ele>1077.5999755859</ele>
        <time>2014-03-02T07:12:18.000Z</time>
      </trkpt>
      <trkpt lat="45.31616" lon="6.25065">
        <ele>1077.5999755859</ele>
        <time>2014-03-02T07:12:19.000Z</time>
      </trkpt>
      <trkpt lat="45.31616" lon="6.25065">
        <ele>1077.5999755859</ele>
        <time>2014-03-02T07:12:20.000Z</time>
      </trkpt>
      <trkpt lat="45.31616" lon="6.25065">
        <ele>1077.5999755859</ele>
        <time>2014-03-02T07:12:23.000Z</time>
      </trkpt>
      <trkpt lat="45.31616" lon="6.25065">
        <ele>1077.5999755859</ele>
        <time>2014-03-02T07:12:24.000Z</time>
      </trkpt>
      <trkpt lat="45.31616" lon="6.25065">
        <ele>1077.5999755859</ele>
        <time>2014-03-02T07:12:25.000Z</time>
      </trkpt>
      <trkpt lat="45.31616" lon="6.25065">
        <ele>1077.5999755859</ele>
        <time>2014-03-02T07:12:26.000Z</time>
      </trkpt>
      <trkpt lat="45.31617" lon="6.25065">
        <ele>1077.8000488281</ele>
        <time>2014-03-02T07:12:27.000Z</time>
      </trkpt>
      <trkpt lat="45.31617" lon="6.25065">
        <ele>1077.8000488281</ele>
        <time>2014-03-02T07:12:28.000Z</time>
      </trkpt>
      <trkpt lat="45.31618" lon="6.25066">
        <ele>1078.1999511719</ele>
        <time>2014-03-02T07:12:29.000Z</time>
      </trkpt>
      <trkpt lat="45.31618" lon="6.25066">
        <ele>1078.1999511719</ele>
        <time>2014-03-02T07:12:30.000Z</time>
      </trkpt>
      <trkpt lat="45.31618" lon="6.25066">
        <ele>1078.1999511719</ele>
        <time>2014-03-02T07:12:31.000Z</time>
      </trkpt>
      <trkpt lat="45.31618" lon="6.25066">
        <ele>1078.1999511719</ele>
        <time>2014-03-02T07:12:32.000Z</time>
      </trkpt>
      <trkpt lat="45.31618" lon="6.25066">
        <ele>1078.1999511719</ele>
        <time>2014-03-02T07:12:34.000Z</time>
      </trkpt>
      <trkpt lat="45.31618" lon="6.25066">
        <ele>1078.1999511719</ele>
        <time>2014-03-02T07:12:35.000Z</time>
      </trkpt>
      <trkpt lat="45.31618" lon="6.25066">
        <ele>1078.1999511719</ele>
        <time>2014-03-02T07:12:36.000Z</time>
      </trkpt>
      <trkpt lat="45.31619" lon="6.25065">
        <ele>1078.4000244141</ele>
        <time>2014-03-02T07:12:37.000Z</time>
      </trkpt>
      <trkpt lat="45.31619" lon="6.25063">
        <ele>1078.1999511719</ele>
        <time>2014-03-02T07:12:38.000Z</time>
      </trkpt>
      <trkpt lat="45.31619" lon="6.25063">
        <ele>1078.1999511719</ele>
        <time>2014-03-02T07:12:39.000Z</time>
      </trkpt>
      <trkpt lat="45.31619" lon="6.25063">
        <ele>1078.1999511719</ele>
        <time>2014-03-02T07:12:40.000Z</time>
      </trkpt>
      <trkpt lat="45.31619" lon="6.25063">
        <ele>1078.1999511719</ele>
        <time>2014-03-02T07:12:41.000Z</time>
      </trkpt>
      <trkpt lat="45.31619" lon="6.25063">
        <ele>1078.1999511719</ele>
        <time>2014-03-02T07:12:42.000Z</time>
      </trkpt>
      <trkpt lat="45.31619" lon="6.25063">
        <ele>1078.1999511719</ele>
        <time>2014-03-02T07:12:43.000Z</time>
      </trkpt>
      <trkpt lat="45.31619" lon="6.25063">
        <ele>1078.1999511719</ele>
        <time>2014-03-02T07:12:44.000Z</time>
      </trkpt>
      <trkpt lat="45.31619" lon="6.25063">
        <ele>1078.1999511719</ele>
        <time>2014-03-02T07:12:45.000Z</time>
      </trkpt>
      <trkpt lat="45.31619" lon="6.25063">
        <ele>1078.1999511719</ele>
        <time>2014-03-02T07:12:46.000Z</time>
      </trkpt>
      <trkpt lat="45.31619" lon="6.25063">
        <ele>1078.1999511719</ele>
        <time>2014-03-02T07:12:47.000Z</time>
      </trkpt>
      <trkpt lat="45.31619" lon="6.25063">
        <ele>1078.1999511719</ele>
        <time>2014-03-02T07:12:48.000Z</time>
      </trkpt>
      <trkpt lat="45.31619" lon="6.25063">
        <ele>1078.1999511719</ele>
        <time>2014-03-02T07:12:49.000Z</time>
      </trkpt>
      <trkpt lat="45.31619" lon="6.25063">
        <ele>1078.1999511719</ele>
        <time>2014-03-02T07:12:50.000Z</time>
      </trkpt>
      <trkpt lat="45.31619" lon="6.25063">
        <ele>1078.1999511719</ele>
        <time>2014-03-02T07:12:51.000Z</time>
      </trkpt>
      <trkpt lat="45.31619" lon="6.25063">
        <ele>1078.1999511719</ele>
        <time>2014-03-02T07:12:52.000Z</time>
      </trkpt>
      <trkpt lat="45.31619" lon="6.25063">
        <ele>1078.1999511719</ele>
        <time>2014-03-02T07:12:53.000Z</time>
      </trkpt>
      <trkpt lat="45.31619" lon="6.25063">
        <ele>1078.1999511719</ele>
        <time>2014-03-02T07:12:54.000Z</time>
      </trkpt>
      <trkpt lat="45.31619" lon="6.25063">
        <ele>1078.1999511719</ele>
        <time>2014-03-02T07:12:55.000Z</time>
      </trkpt>
      <trkpt lat="45.31619" lon="6.25063">
        <ele>1078.1999511719</ele>
        <time>2014-03-02T07:12:56.000Z</time>
      </trkpt>
      <trkpt lat="45.31619" lon="6.25063">
        <ele>1078.1999511719</ele>
        <time>2014-03-02T07:12:57.000Z</time>
      </trkpt>
      <trkpt lat="45.31619" lon="6.25063">
        <ele>1078.1999511719</ele>
        <time>2014-03-02T07:12:58.000Z</time>
      </trkpt>
      <trkpt lat="45.31619" lon="6.25063">
        <ele>1078.1999511719</ele>
        <time>2014-03-02T07:13:00.000Z</time>
      </trkpt>
      <trkpt lat="45.31619" lon="6.25063">
        <ele>1078.1999511719</ele>
        <time>2014-03-02T07:13:04.000Z</time>
      </trkpt>
      <trkpt lat="45.31619" lon="6.25063">
        <ele>1078.1999511719</ele>
        <time>2014-03-02T07:13:08.000Z</time>
      </trkpt>
      <trkpt lat="45.31619" lon="6.25063">
        <ele>1078.1999511719</ele>
        <time>2014-03-02T07:13:09.000Z</time>
      </trkpt>
      <trkpt lat="45.31619" lon="6.25063">
        <ele>1078.1999511719</ele>
        <time>2014-03-02T07:13:10.000Z</time>
      </trkpt>
      <trkpt lat="45.31619" lon="6.25063">
        <ele>1078.1999511719</ele>
        <time>2014-03-02T07:13:11.000Z</time>
      </trkpt>
      <trkpt lat="45.31619" lon="6.25063">
        <ele>1078.1999511719</ele>
        <time>2014-03-02T07:13:12.000Z</time>
      </trkpt>
      <trkpt lat="45.31619" lon="6.25063">
        <ele>1078.1999511719</ele>
        <time>2014-03-02T07:13:13.000Z</time>
      </trkpt>
      <trkpt lat="45.31619" lon="6.25064">
        <ele>1078.4000244141</ele>
        <time>2014-03-02T07:13:15.000Z</time>
      </trkpt>
      <trkpt lat="45.31619" lon="6.25064">
        <ele>1078.4000244141</ele>
        <time>2014-03-02T07:13:18.000Z</time>
      </trkpt>
      <trkpt lat="45.31619" lon="6.25064">
        <ele>1078.4000244141</ele>
        <time>2014-03-02T07:13:19.000Z</time>
      </trkpt>
      <trkpt lat="45.3162" lon="6.25065">
        <ele>1078.5999755859</ele>
        <time>2014-03-02T07:13:20.000Z</time>
      </trkpt>
      <trkpt lat="45.3162" lon="6.25065">
        <ele>1078.5999755859</ele>
        <time>2014-03-02T07:13:21.000Z</time>
      </trkpt>
      <trkpt lat="45.3162" lon="6.25065">
        <ele>1078.5999755859</ele>
        <time>2014-03-02T07:13:22.000Z</time>
      </trkpt>
      <trkpt lat="45.3162" lon="6.25065">
        <ele>1078.5999755859</ele>
        <time>2014-03-02T07:13:23.000Z</time>
      </trkpt>
      <trkpt lat="45.3162" lon="6.25065">
        <ele>1078.5999755859</ele>
        <time>2014-03-02T07:13:24.000Z</time>
      </trkpt>
      <trkpt lat="45.3162" lon="6.25065">
        <ele>1078.5999755859</ele>
        <time>2014-03-02T07:13:25.000Z</time>
      </trkpt>
      <trkpt lat="45.3162" lon="6.25065">
        <ele>1078.5999755859</ele>
        <time>2014-03-02T07:13:26.000Z</time>
      </trkpt>
      <trkpt lat="45.3162" lon="6.25065">
        <ele>1078.5999755859</ele>
        <time>2014-03-02T07:13:27.000Z</time>
      </trkpt>
      <trkpt lat="45.3162" lon="6.25065">
        <ele>1078.5999755859</ele>
        <time>2014-03-02T07:13:29.000Z</time>
      </trkpt>
      <trkpt lat="45.3162" lon="6.25066">
        <ele>1078.8000488281</ele>
        <time>2014-03-02T07:13:30.000Z</time>
      </trkpt>
      <trkpt lat="45.31621" lon="6.25068">
        <ele>1079</ele>
        <time>2014-03-02T07:13:31.000Z</time>
      </trkpt>
      <trkpt lat="45.31621" lon="6.25069">
        <ele>1079</ele>
        <time>2014-03-02T07:13:32.000Z</time>
      </trkpt>
      <trkpt lat="45.31621" lon="6.25071">
        <ele>1079.1999511719</ele>
        <time>2014-03-02T07:13:33.000Z</time>
      </trkpt>
      <trkpt lat="45.3162" lon="6.25073">
        <ele>1079.1999511719</ele>
        <time>2014-03-02T07:13:34.000Z</time>
      </trkpt>
      <trkpt lat="45.3162" lon="6.25075">
        <ele>1079.4000244141</ele>
        <time>2014-03-02T07:13:35.000Z</time>
      </trkpt>
      <trkpt lat="45.31621" lon="6.25076">
        <ele>1079.4000244141</ele>
        <time>2014-03-02T07:13:36.000Z</time>
      </trkpt>
      <trkpt lat="45.3162" lon="6.25077">
        <ele>1079.4000244141</ele>
        <time>2014-03-02T07:13:37.000Z</time>
      </trkpt>
      <trkpt lat="45.31621" lon="6.25079">
        <ele>1079.8000488281</ele>
        <time>2014-03-02T07:13:38.000Z</time>
      </trkpt>
      <trkpt lat="45.31621" lon="6.2508">
        <ele>1080</ele>
        <time>2014-03-02T07:13:39.000Z</time>
      </trkpt>
      <trkpt lat="45.31621" lon="6.25081">
        <ele>1080</ele>
        <time>2014-03-02T07:13:40.000Z</time>
      </trkpt>
      <trkpt lat="45.31622" lon="6.25081">
        <ele>1080.1999511719</ele>
        <time>2014-03-02T07:13:41.000Z</time>
      </trkpt>
      <trkpt lat="45.31623" lon="6.25083">
        <ele>1080.5999755859</ele>
        <time>2014-03-02T07:13:42.000Z</time>
      </trkpt>
      <trkpt lat="45.31625" lon="6.25084">
        <ele>1080.8000488281</ele>
        <time>2014-03-02T07:13:43.000Z</time>
      </trkpt>
      <trkpt lat="45.31624" lon="6.25084">
        <ele>1080.8000488281</ele>
        <time>2014-03-02T07:13:44.000Z</time>
      </trkpt>
      <trkpt lat="45.31624" lon="6.25086">
        <ele>1081</ele>
        <time>2014-03-02T07:13:45.000Z</time>
      </trkpt>
      <trkpt lat="45.31624" lon="6.25088">
        <ele>1081</ele>
        <time>2014-03-02T07:13:46.000Z</time>
      </trkpt>
      <trkpt lat="45.31624" lon="6.25089">
        <ele>1081</ele>
        <time>2014-03-02T07:13:47.000Z</time>
      </trkpt>
      <trkpt lat="45.31624" lon="6.25089">
        <ele>1081</ele>
        <time>2014-03-02T07:13:48.000Z</time>
      </trkpt>
      <trkpt lat="45.31624" lon="6.25091">
        <ele>1081.1999511719</ele>
        <time>2014-03-02T07:13:49.000Z</time>
      </trkpt>
      <trkpt lat="45.31624" lon="6.25092">
        <ele>1081.1999511719</ele>
        <time>2014-03-02T07:13:50.000Z</time>
      </trkpt>
      <trkpt lat="45.31624" lon="6.25094">
        <ele>1081.4000244141</ele>
        <time>2014-03-02T07:13:51.000Z</time>
      </trkpt>
      <trkpt lat="45.31624" lon="6.25094">
        <ele>1081.4000244141</ele>
        <time>2014-03-02T07:13:52.000Z</time>
      </trkpt>
      <trkpt lat="45.31624" lon="6.25096">
        <ele>1081.5999755859</ele>
        <time>2014-03-02T07:13:53.000Z</time>
      </trkpt>
      <trkpt lat="45.31624" lon="6.25098">
        <ele>1081.5999755859</ele>
        <time>2014-03-02T07:13:54.000Z</time>
      </trkpt>
      <trkpt lat="45.31624" lon="6.251">
        <ele>1081.8000488281</ele>
        <time>2014-03-02T07:13:55.000Z</time>
      </trkpt>
      <trkpt lat="45.31624" lon="6.251">
        <ele>1081.8000488281</ele>
        <time>2014-03-02T07:13:56.000Z</time>
      </trkpt>
      <trkpt lat="45.31624" lon="6.25103">
        <ele>1081.8000488281</ele>
        <time>2014-03-02T07:13:57.000Z</time>
      </trkpt>
      <trkpt lat="45.31624" lon="6.25105">
        <ele>1082</ele>
        <time>2014-03-02T07:13:58.000Z</time>
      </trkpt>
      <trkpt lat="45.31624" lon="6.25106">
        <ele>1082</ele>
        <time>2014-03-02T07:13:59.000Z</time>
      </trkpt>
      <trkpt lat="45.31624" lon="6.25108">
        <ele>1082.1999511719</ele>
        <time>2014-03-02T07:14:00.000Z</time>
      </trkpt>
      <trkpt lat="45.31624" lon="6.25108">
        <ele>1082.1999511719</ele>
        <time>2014-03-02T07:14:01.000Z</time>
      </trkpt>
      <trkpt lat="45.31625" lon="6.25108">
        <ele>1082.4000244141</ele>
        <time>2014-03-02T07:14:02.000Z</time>
      </trkpt>
      <trkpt lat="45.31626" lon="6.25108">
        <ele>1082.5999755859</ele>
        <time>2014-03-02T07:14:03.000Z</time>
      </trkpt>
      <trkpt lat="45.31627" lon="6.25108">
        <ele>1082.8000488281</ele>
        <time>2014-03-02T07:14:04.000Z</time>
      </trkpt>
      <trkpt lat="45.31628" lon="6.25107">
        <ele>1083</ele>
        <time>2014-03-02T07:14:05.000Z</time>
      </trkpt>
      <trkpt lat="45.31629" lon="6.25104">
        <ele>1083</ele>
        <time>2014-03-02T07:14:06.000Z</time>
      </trkpt>
      <trkpt lat="45.31629" lon="6.25104">
        <ele>1083.1999511719</ele>
        <time>2014-03-02T07:14:07.000Z</time>
      </trkpt>
      <trkpt lat="45.31629" lon="6.25102">
        <ele>1083.1999511719</ele>
        <time>2014-03-02T07:14:08.000Z</time>
      </trkpt>
      <trkpt lat="45.3163" lon="6.251">
        <ele>1083.1999511719</ele>
        <time>2014-03-02T07:14:09.000Z</time>
      </trkpt>
      <trkpt lat="45.31631" lon="6.25097">
        <ele>1083.4000244141</ele>
        <time>2014-03-02T07:14:10.000Z</time>
      </trkpt>
      <trkpt lat="45.31631" lon="6.25095">
        <ele>1083.5999755859</ele>
        <time>2014-03-02T07:14:11.000Z</time>
      </trkpt>
      <trkpt lat="45.31631" lon="6.25095">
        <ele>1083.5999755859</ele>
        <time>2014-03-02T07:14:12.000Z</time>
      </trkpt>
      <trkpt lat="45.31631" lon="6.25094">
        <ele>1083.8000488281</ele>
        <time>2014-03-02T07:14:13.000Z</time>
      </trkpt>
      <trkpt lat="45.31632" lon="6.25091">
        <ele>1083.8000488281</ele>
        <time>2014-03-02T07:14:14.000Z</time>
      </trkpt>
      <trkpt lat="45.31632" lon="6.2509">
        <ele>1083.8000488281</ele>
        <time>2014-03-02T07:14:15.000Z</time>
      </trkpt>
      <trkpt lat="45.31632" lon="6.2509">
        <ele>1084</ele>
        <time>2014-03-02T07:14:16.000Z</time>
      </trkpt>
      <trkpt lat="45.31632" lon="6.25088">
        <ele>1084</ele>
        <time>2014-03-02T07:14:17.000Z</time>
      </trkpt>
      <trkpt lat="45.31633" lon="6.25086">
        <ele>1084.4000244141</ele>
        <time>2014-03-02T07:14:18.000Z</time>
      </trkpt>
      <trkpt lat="45.31634" lon="6.25085">
        <ele>1085</ele>
        <time>2014-03-02T07:14:19.000Z</time>
      </trkpt>
      <trkpt lat="45.31634" lon="6.25085">
        <ele>1085.1999511719</ele>
        <time>2014-03-02T07:14:20.000Z</time>
      </trkpt>
      <trkpt lat="45.31634" lon="6.25084">
        <ele>1085.4000244141</ele>
        <time>2014-03-02T07:14:21.000Z</time>
      </trkpt>
      <trkpt lat="45.31635" lon="6.25083">
        <ele>1085.4000244141</ele>
        <time>2014-03-02T07:14:22.000Z</time>
      </trkpt>
      <trkpt lat="45.31635" lon="6.25083">
        <ele>1085.4000244141</ele>
        <time>2014-03-02T07:14:23.000Z</time>
      </trkpt>
      <trkpt lat="45.31635" lon="6.25083">
        <ele>1085.4000244141</ele>
        <time>2014-03-02T07:14:24.000Z</time>
      </trkpt>
      <trkpt lat="45.31635" lon="6.25083">
        <ele>1085.4000244141</ele>
        <time>2014-03-02T07:14:25.000Z</time>
      </trkpt>
      <trkpt lat="45.31635" lon="6.25083">
        <ele>1085.4000244141</ele>
        <time>2014-03-02T07:14:26.000Z</time>
      </trkpt>
      <trkpt lat="45.31635" lon="6.25083">
        <ele>1085.4000244141</ele>
        <time>2014-03-02T07:14:27.000Z</time>
      </trkpt>
      <trkpt lat="45.31635" lon="6.25083">
        <ele>1085.4000244141</ele>
        <time>2014-03-02T07:14:28.000Z</time>
      </trkpt>
      <trkpt lat="45.31635" lon="6.25083">
        <ele>1085.4000244141</ele>
        <time>2014-03-02T07:14:29.000Z</time>
      </trkpt>
      <trkpt lat="45.31635" lon="6.25083">
        <ele>1085.4000244141</ele>
        <time>2014-03-02T07:14:30.000Z</time>
      </trkpt>
      <trkpt lat="45.31635" lon="6.25083">
        <ele>1085.4000244141</ele>
        <time>2014-03-02T07:14:31.000Z</time>
      </trkpt>
      <trkpt lat="45.31635" lon="6.25083">
        <ele>1085.4000244141</ele>
        <time>2014-03-02T07:14:33.000Z</time>
      </trkpt>
      <trkpt lat="45.31635" lon="6.25083">
        <ele>1085.4000244141</ele>
        <time>2014-03-02T07:14:34.000Z</time>
      </trkpt>
      <trkpt lat="45.31635" lon="6.25083">
        <ele>1085.4000244141</ele>
        <time>2014-03-02T07:14:35.000Z</time>
      </trkpt>
      <trkpt lat="45.31635" lon="6.25083">
        <ele>1085.4000244141</ele>
        <time>2014-03-02T07:14:36.000Z</time>
      </trkpt>
      <trkpt lat="45.31635" lon="6.25083">
        <ele>1085.4000244141</ele>
        <time>2014-03-02T07:14:37.000Z</time>
      </trkpt>
      <trkpt lat="45.31635" lon="6.25083">
        <ele>1085.4000244141</ele>
        <time>2014-03-02T07:14:38.000Z</time>
      </trkpt>
      <trkpt lat="45.31635" lon="6.25083">
        <ele>1085.4000244141</ele>
        <time>2014-03-02T07:14:39.000Z</time>
      </trkpt>
      <trkpt lat="45.31635" lon="6.25083">
        <ele>1085.4000244141</ele>
        <time>2014-03-02T07:14:40.000Z</time>
      </trkpt>
      <trkpt lat="45.31635" lon="6.25083">
        <ele>1085.4000244141</ele>
        <time>2014-03-02T07:14:41.000Z</time>
      </trkpt>
      <trkpt lat="45.31635" lon="6.25083">
        <ele>1085.4000244141</ele>
        <time>2014-03-02T07:14:42.000Z</time>
      </trkpt>
      <trkpt lat="45.31635" lon="6.25083">
        <ele>1085.4000244141</ele>
        <time>2014-03-02T07:14:43.000Z</time>
      </trkpt>
      <trkpt lat="45.31635" lon="6.25083">
        <ele>1085.4000244141</ele>
        <time>2014-03-02T07:14:44.000Z</time>
      </trkpt>
      <trkpt lat="45.31635" lon="6.25083">
        <ele>1085.4000244141</ele>
        <time>2014-03-02T07:14:45.000Z</time>
      </trkpt>
      <trkpt lat="45.31635" lon="6.25083">
        <ele>1085.4000244141</ele>
        <time>2014-03-02T07:14:46.000Z</time>
      </trkpt>
      <trkpt lat="45.31635" lon="6.25083">
        <ele>1085.4000244141</ele>
        <time>2014-03-02T07:14:47.000Z</time>
      </trkpt>
      <trkpt lat="45.31635" lon="6.25083">
        <ele>1085.4000244141</ele>
        <time>2014-03-02T07:14:48.000Z</time>
      </trkpt>
      <trkpt lat="45.31635" lon="6.25083">
        <ele>1085.4000244141</ele>
        <time>2014-03-02T07:14:49.000Z</time>
      </trkpt>
      <trkpt lat="45.31635" lon="6.25083">
        <ele>1085.4000244141</ele>
        <time>2014-03-02T07:14:50.000Z</time>
      </trkpt>
      <trkpt lat="45.31635" lon="6.25083">
        <ele>1085.4000244141</ele>
        <time>2014-03-02T07:14:51.000Z</time>
      </trkpt>
      <trkpt lat="45.31635" lon="6.25083">
        <ele>1085.4000244141</ele>
        <time>2014-03-02T07:14:52.000Z</time>
      </trkpt>
      <trkpt lat="45.31635" lon="6.25083">
        <ele>1085.4000244141</ele>
        <time>2014-03-02T07:14:54.000Z</time>
      </trkpt>
      <trkpt lat="45.31635" lon="6.25083">
        <ele>1085.4000244141</ele>
        <time>2014-03-02T07:14:55.000Z</time>
      </trkpt>
      <trkpt lat="45.31635" lon="6.25083">
        <ele>1085.4000244141</ele>
        <time>2014-03-02T07:14:56.000Z</time>
      </trkpt>
      <trkpt lat="45.31635" lon="6.25083">
        <ele>1085.4000244141</ele>
        <time>2014-03-02T07:14:58.000Z</time>
      </trkpt>
      <trkpt lat="45.31635" lon="6.25083">
        <ele>1085.4000244141</ele>
        <time>2014-03-02T07:14:59.000Z</time>
      </trkpt>
      <trkpt lat="45.31635" lon="6.25083">
        <ele>1085.4000244141</ele>
        <time>2014-03-02T07:15:00.000Z</time>
      </trkpt>
      <trkpt lat="45.31635" lon="6.25083">
        <ele>1085.4000244141</ele>
        <time>2014-03-02T07:15:01.000Z</time>
      </trkpt>
      <trkpt lat="45.31635" lon="6.25082">
        <ele>1085.8000488281</ele>
        <time>2014-03-02T07:15:02.000Z</time>
      </trkpt>
      <trkpt lat="45.31635" lon="6.25082">
        <ele>1085.8000488281</ele>
        <time>2014-03-02T07:15:04.000Z</time>
      </trkpt>
      <trkpt lat="45.31635" lon="6.25082">
        <ele>1085.8000488281</ele>
        <time>2014-03-02T07:15:05.000Z</time>
      </trkpt>
      <trkpt lat="45.31635" lon="6.25082">
        <ele>1085.8000488281</ele>
        <time>2014-03-02T07:15:06.000Z</time>
      </trkpt>
      <trkpt lat="45.31635" lon="6.25082">
        <ele>1085.8000488281</ele>
        <time>2014-03-02T07:15:07.000Z</time>
      </trkpt>
      <trkpt lat="45.31635" lon="6.25082">
        <ele>1085.8000488281</ele>
        <time>2014-03-02T07:15:08.000Z</time>
      </trkpt>
      <trkpt lat="45.31635" lon="6.25082">
        <ele>1085.8000488281</ele>
        <time>2014-03-02T07:15:09.000Z</time>
      </trkpt>
      <trkpt lat="45.31635" lon="6.25082">
        <ele>1085.8000488281</ele>
        <time>2014-03-02T07:15:10.000Z</time>
      </trkpt>
      <trkpt lat="45.31635" lon="6.25082">
        <ele>1085.8000488281</ele>
        <time>2014-03-02T07:15:11.000Z</time>
      </trkpt>
      <trkpt lat="45.31636" lon="6.25081">
        <ele>1086.1999511719</ele>
        <time>2014-03-02T07:15:12.000Z</time>
      </trkpt>
      <trkpt lat="45.31636" lon="6.25081">
        <ele>1086.1999511719</ele>
        <time>2014-03-02T07:15:13.000Z</time>
      </trkpt>
      <trkpt lat="45.31636" lon="6.25081">
        <ele>1086.1999511719</ele>
        <time>2014-03-02T07:15:14.000Z</time>
      </trkpt>
      <trkpt lat="45.31636" lon="6.25081">
        <ele>1086.1999511719</ele>
        <time>2014-03-02T07:15:15.000Z</time>
      </trkpt>
      <trkpt lat="45.31636" lon="6.25081">
        <ele>1086.1999511719</ele>
        <time>2014-03-02T07:15:16.000Z</time>
      </trkpt>
      <trkpt lat="45.31636" lon="6.25081">
        <ele>1086.1999511719</ele>
        <time>2014-03-02T07:15:17.000Z</time>
      </trkpt>
      <trkpt lat="45.31636" lon="6.25081">
        <ele>1086.1999511719</ele>
        <time>2014-03-02T07:15:18.000Z</time>
      </trkpt>
      <trkpt lat="45.31636" lon="6.25081">
        <ele>1086.1999511719</ele>
        <time>2014-03-02T07:15:19.000Z</time>
      </trkpt>
      <trkpt lat="45.31636" lon="6.25081">
        <ele>1086.1999511719</ele>
        <time>2014-03-02T07:15:20.000Z</time>
      </trkpt>
      <trkpt lat="45.31636" lon="6.25081">
        <ele>1086.1999511719</ele>
        <time>2014-03-02T07:15:21.000Z</time>
      </trkpt>
      <trkpt lat="45.31636" lon="6.25081">
        <ele>1086.1999511719</ele>
        <time>2014-03-02T07:15:22.000Z</time>
      </trkpt>
      <trkpt lat="45.31636" lon="6.25081">
        <ele>1086.1999511719</ele>
        <time>2014-03-02T07:15:23.000Z</time>
      </trkpt>
      <trkpt lat="45.31636" lon="6.25081">
        <ele>1086.1999511719</ele>
        <time>2014-03-02T07:15:24.000Z</time>
      </trkpt>
      <trkpt lat="45.31636" lon="6.25081">
        <ele>1086.1999511719</ele>
        <time>2014-03-02T07:15:25.000Z</time>
      </trkpt>
      <trkpt lat="45.31636" lon="6.25081">
        <ele>1086.1999511719</ele>
        <time>2014-03-02T07:15:26.000Z</time>
      </trkpt>
      <trkpt lat="45.31636" lon="6.25081">
        <ele>1086.1999511719</ele>
        <time>2014-03-02T07:15:27.000Z</time>
      </trkpt>
      <trkpt lat="45.31636" lon="6.25081">
        <ele>1086.1999511719</ele>
        <time>2014-03-02T07:15:28.000Z</time>
      </trkpt>
      <trkpt lat="45.31636" lon="6.25081">
        <ele>1086.1999511719</ele>
        <time>2014-03-02T07:15:29.000Z</time>
      </trkpt>
      <trkpt lat="45.31636" lon="6.25081">
        <ele>1086.1999511719</ele>
        <time>2014-03-02T07:15:31.000Z</time>
      </trkpt>
      <trkpt lat="45.31636" lon="6.25081">
        <ele>1086.1999511719</ele>
        <time>2014-03-02T07:15:32.000Z</time>
      </trkpt>
      <trkpt lat="45.31636" lon="6.25081">
        <ele>1086.1999511719</ele>
        <time>2014-03-02T07:15:33.000Z</time>
      </trkpt>
      <trkpt lat="45.31636" lon="6.25081">
        <ele>1086.1999511719</ele>
        <time>2014-03-02T07:15:34.000Z</time>
      </trkpt>
      <trkpt lat="45.31636" lon="6.25081">
        <ele>1086.1999511719</ele>
        <time>2014-03-02T07:15:35.000Z</time>
      </trkpt>
      <trkpt lat="45.31636" lon="6.25081">
        <ele>1086.1999511719</ele>
        <time>2014-03-02T07:15:36.000Z</time>
      </trkpt>
      <trkpt lat="45.31636" lon="6.25081">
        <ele>1086.1999511719</ele>
        <time>2014-03-02T07:15:37.000Z</time>
      </trkpt>
      <trkpt lat="45.31636" lon="6.25081">
        <ele>1086.1999511719</ele>
        <time>2014-03-02T07:15:38.000Z</time>
      </trkpt>
      <trkpt lat="45.31636" lon="6.25081">
        <ele>1086.1999511719</ele>
        <time>2014-03-02T07:15:40.000Z</time>
      </trkpt>
      <trkpt lat="45.31636" lon="6.25081">
        <ele>1086.1999511719</ele>
        <time>2014-03-02T07:15:41.000Z</time>
      </trkpt>
      <trkpt lat="45.31636" lon="6.25081">
        <ele>1086.1999511719</ele>
        <time>2014-03-02T07:15:42.000Z</time>
      </trkpt>
      <trkpt lat="45.31636" lon="6.25081">
        <ele>1086.1999511719</ele>
        <time>2014-03-02T07:15:43.000Z</time>
      </trkpt>
      <trkpt lat="45.31636" lon="6.25081">
        <ele>1086.1999511719</ele>
        <time>2014-03-02T07:15:44.000Z</time>
      </trkpt>
      <trkpt lat="45.31636" lon="6.25081">
        <ele>1086.1999511719</ele>
        <time>2014-03-02T07:15:45.000Z</time>
      </trkpt>
      <trkpt lat="45.31636" lon="6.25081">
        <ele>1086.1999511719</ele>
        <time>2014-03-02T07:15:48.000Z</time>
      </trkpt>
      <trkpt lat="45.31636" lon="6.25081">
        <ele>1086.1999511719</ele>
        <time>2014-03-02T07:15:49.000Z</time>
      </trkpt>
      <trkpt lat="45.31636" lon="6.25081">
        <ele>1086.1999511719</ele>
        <time>2014-03-02T07:15:50.000Z</time>
      </trkpt>
      <trkpt lat="45.31636" lon="6.25081">
        <ele>1086.4000244141</ele>
        <time>2014-03-02T07:15:53.000Z</time>
      </trkpt>
      <trkpt lat="45.31636" lon="6.25081">
        <ele>1086.4000244141</ele>
        <time>2014-03-02T07:15:54.000Z</time>
      </trkpt>
      <trkpt lat="45.31636" lon="6.25081">
        <ele>1086.4000244141</ele>
        <time>2014-03-02T07:15:55.000Z</time>
      </trkpt>
      <trkpt lat="45.31636" lon="6.25081">
        <ele>1086.4000244141</ele>
        <time>2014-03-02T07:15:56.000Z</time>
      </trkpt>
      <trkpt lat="45.31636" lon="6.25081">
        <ele>1086.4000244141</ele>
        <time>2014-03-02T07:15:57.000Z</time>
      </trkpt>
      <trkpt lat="45.31636" lon="6.25081">
        <ele>1086.4000244141</ele>
        <time>2014-03-02T07:15:58.000Z</time>
      </trkpt>
      <trkpt lat="45.31636" lon="6.25081">
        <ele>1086.4000244141</ele>
        <time>2014-03-02T07:16:00.000Z</time>
      </trkpt>
      <trkpt lat="45.31636" lon="6.25081">
        <ele>1086.4000244141</ele>
        <time>2014-03-02T07:16:01.000Z</time>
      </trkpt>
      <trkpt lat="45.31636" lon="6.25081">
        <ele>1086.4000244141</ele>
        <time>2014-03-02T07:16:02.000Z</time>
      </trkpt>
      <trkpt lat="45.31636" lon="6.25081">
        <ele>1086.4000244141</ele>
        <time>2014-03-02T07:16:03.000Z</time>
      </trkpt>
      <trkpt lat="45.31636" lon="6.25081">
        <ele>1086.4000244141</ele>
        <time>2014-03-02T07:16:04.000Z</time>
      </trkpt>
      <trkpt lat="45.31636" lon="6.25081">
        <ele>1086.4000244141</ele>
        <time>2014-03-02T07:16:05.000Z</time>
      </trkpt>
      <trkpt lat="45.31636" lon="6.25081">
        <ele>1086.4000244141</ele>
        <time>2014-03-02T07:16:06.000Z</time>
      </trkpt>
      <trkpt lat="45.31636" lon="6.25081">
        <ele>1086.4000244141</ele>
        <time>2014-03-02T07:16:07.000Z</time>
      </trkpt>
      <trkpt lat="45.31636" lon="6.25081">
        <ele>1086.4000244141</ele>
        <time>2014-03-02T07:16:08.000Z</time>
      </trkpt>
      <trkpt lat="45.31636" lon="6.25081">
        <ele>1086.4000244141</ele>
        <time>2014-03-02T07:16:09.000Z</time>
      </trkpt>
      <trkpt lat="45.31636" lon="6.25081">
        <ele>1086.4000244141</ele>
        <time>2014-03-02T07:16:10.000Z</time>
      </trkpt>
      <trkpt lat="45.31636" lon="6.25081">
        <ele>1086.4000244141</ele>
        <time>2014-03-02T07:16:11.000Z</time>
      </trkpt>
      <trkpt lat="45.31636" lon="6.25081">
        <ele>1086.4000244141</ele>
        <time>2014-03-02T07:16:12.000Z</time>
      </trkpt>
      <trkpt lat="45.31636" lon="6.25081">
        <ele>1086.4000244141</ele>
        <time>2014-03-02T07:16:13.000Z</time>
      </trkpt>
      <trkpt lat="45.31636" lon="6.25081">
        <ele>1086.4000244141</ele>
        <time>2014-03-02T07:16:16.000Z</time>
      </trkpt>
      <trkpt lat="45.31636" lon="6.25081">
        <ele>1086.4000244141</ele>
        <time>2014-03-02T07:16:17.000Z</time>
      </trkpt>
      <trkpt lat="45.31636" lon="6.25081">
        <ele>1086.4000244141</ele>
        <time>2014-03-02T07:16:18.000Z</time>
      </trkpt>
      <trkpt lat="45.31636" lon="6.25081">
        <ele>1086.4000244141</ele>
        <time>2014-03-02T07:16:19.000Z</time>
      </trkpt>
      <trkpt lat="45.31636" lon="6.25081">
        <ele>1086.4000244141</ele>
        <time>2014-03-02T07:16:20.000Z</time>
      </trkpt>
      <trkpt lat="45.31636" lon="6.25081">
        <ele>1086.4000244141</ele>
        <time>2014-03-02T07:16:21.000Z</time>
      </trkpt>
      <trkpt lat="45.31636" lon="6.25081">
        <ele>1086.4000244141</ele>
        <time>2014-03-02T07:16:22.000Z</time>
      </trkpt>
      <trkpt lat="45.31636" lon="6.25081">
        <ele>1086.4000244141</ele>
        <time>2014-03-02T07:16:24.000Z</time>
      </trkpt>
      <trkpt lat="45.31636" lon="6.25081">
        <ele>1086.4000244141</ele>
        <time>2014-03-02T07:16:25.000Z</time>
      </trkpt>
      <trkpt lat="45.31636" lon="6.25081">
        <ele>1086.4000244141</ele>
        <time>2014-03-02T07:16:26.000Z</time>
      </trkpt>
      <trkpt lat="45.31636" lon="6.25081">
        <ele>1086.4000244141</ele>
        <time>2014-03-02T07:16:27.000Z</time>
      </trkpt>
      <trkpt lat="45.31636" lon="6.25081">
        <ele>1086.4000244141</ele>
        <time>2014-03-02T07:16:28.000Z</time>
      </trkpt>
      <trkpt lat="45.31636" lon="6.25081">
        <ele>1086.4000244141</ele>
        <time>2014-03-02T07:16:29.000Z</time>
      </trkpt>
      <trkpt lat="45.31636" lon="6.25081">
        <ele>1086.4000244141</ele>
        <time>2014-03-02T07:16:30.000Z</time>
      </trkpt>
      <trkpt lat="45.31636" lon="6.25081">
        <ele>1086.4000244141</ele>
        <time>2014-03-02T07:16:31.000Z</time>
      </trkpt>
      <trkpt lat="45.31636" lon="6.25081">
        <ele>1086.4000244141</ele>
        <time>2014-03-02T07:16:32.000Z</time>
      </trkpt>
      <trkpt lat="45.31636" lon="6.25081">
        <ele>1086.4000244141</ele>
        <time>2014-03-02T07:16:33.000Z</time>
      </trkpt>
      <trkpt lat="45.31636" lon="6.25081">
        <ele>1086.4000244141</ele>
        <time>2014-03-02T07:16:34.000Z</time>
      </trkpt>
      <trkpt lat="45.31636" lon="6.25081">
        <ele>1086.4000244141</ele>
        <time>2014-03-02T07:16:35.000Z</time>
      </trkpt>
      <trkpt lat="45.31636" lon="6.25081">
        <ele>1086.4000244141</ele>
        <time>2014-03-02T07:16:36.000Z</time>
      </trkpt>
      <trkpt lat="45.31636" lon="6.25081">
        <ele>1086.4000244141</ele>
        <time>2014-03-02T07:16:37.000Z</time>
      </trkpt>
      <trkpt lat="45.31636" lon="6.25081">
        <ele>1086.4000244141</ele>
        <time>2014-03-02T07:16:38.000Z</time>
      </trkpt>
      <trkpt lat="45.31636" lon="6.25081">
        <ele>1086.4000244141</ele>
        <time>2014-03-02T07:16:39.000Z</time>
      </trkpt>
      <trkpt lat="45.31636" lon="6.25081">
        <ele>1086.4000244141</ele>
        <time>2014-03-02T07:16:40.000Z</time>
      </trkpt>
      <trkpt lat="45.31636" lon="6.25081">
        <ele>1086.4000244141</ele>
        <time>2014-03-02T07:16:41.000Z</time>
      </trkpt>
      <trkpt lat="45.31636" lon="6.25081">
        <ele>1086.4000244141</ele>
        <time>2014-03-02T07:16:42.000Z</time>
      </trkpt>
      <trkpt lat="45.31636" lon="6.25081">
        <ele>1086.4000244141</ele>
        <time>2014-03-02T07:16:43.000Z</time>
      </trkpt>
      <trkpt lat="45.31636" lon="6.25081">
        <ele>1086.4000244141</ele>
        <time>2014-03-02T07:16:45.000Z</time>
      </trkpt>
      <trkpt lat="45.31636" lon="6.25081">
        <ele>1086.4000244141</ele>
        <time>2014-03-02T07:16:46.000Z</time>
      </trkpt>
      <trkpt lat="45.31636" lon="6.25081">
        <ele>1086.4000244141</ele>
        <time>2014-03-02T07:16:47.000Z</time>
      </trkpt>
      <trkpt lat="45.31636" lon="6.25081">
        <ele>1086.4000244141</ele>
        <time>2014-03-02T07:16:49.000Z</time>
      </trkpt>
      <trkpt lat="45.31636" lon="6.25081">
        <ele>1086.4000244141</ele>
        <time>2014-03-02T07:16:50.000Z</time>
      </trkpt>
      <trkpt lat="45.31636" lon="6.25081">
        <ele>1086.4000244141</ele>
        <time>2014-03-02T07:16:51.000Z</time>
      </trkpt>
      <trkpt lat="45.31636" lon="6.25081">
        <ele>1086.4000244141</ele>
        <time>2014-03-02T07:16:52.000Z</time>
      </trkpt>
      <trkpt lat="45.31636" lon="6.25081">
        <ele>1086.4000244141</ele>
        <time>2014-03-02T07:16:53.000Z</time>
      </trkpt>
      <trkpt lat="45.31636" lon="6.25081">
        <ele>1086.4000244141</ele>
        <time>2014-03-02T07:16:54.000Z</time>
      </trkpt>
      <trkpt lat="45.31636" lon="6.25081">
        <ele>1086.4000244141</ele>
        <time>2014-03-02T07:16:55.000Z</time>
      </trkpt>
      <trkpt lat="45.31636" lon="6.25081">
        <ele>1086.4000244141</ele>
        <time>2014-03-02T07:16:56.000Z</time>
      </trkpt>
      <trkpt lat="45.31636" lon="6.25081">
        <ele>1086.4000244141</ele>
        <time>2014-03-02T07:16:58.000Z</time>
      </trkpt>
      <trkpt lat="45.31636" lon="6.25081">
        <ele>1086.4000244141</ele>
        <time>2014-03-02T07:16:59.000Z</time>
      </trkpt>
      <trkpt lat="45.31636" lon="6.25081">
        <ele>1086.4000244141</ele>
        <time>2014-03-02T07:17:00.000Z</time>
      </trkpt>
      <trkpt lat="45.31636" lon="6.25081">
        <ele>1086.4000244141</ele>
        <time>2014-03-02T07:17:01.000Z</time>
      </trkpt>
      <trkpt lat="45.31636" lon="6.25081">
        <ele>1086.4000244141</ele>
        <time>2014-03-02T07:17:02.000Z</time>
      </trkpt>
      <trkpt lat="45.31636" lon="6.25081">
        <ele>1086.4000244141</ele>
        <time>2014-03-02T07:17:03.000Z</time>
      </trkpt>
      <trkpt lat="45.31636" lon="6.25081">
        <ele>1086.4000244141</ele>
        <time>2014-03-02T07:17:04.000Z</time>
      </trkpt>
      <trkpt lat="45.31636" lon="6.25081">
        <ele>1086.4000244141</ele>
        <time>2014-03-02T07:17:07.000Z</time>
      </trkpt>
      <trkpt lat="45.31636" lon="6.25081">
        <ele>1086.4000244141</ele>
        <time>2014-03-02T07:17:08.000Z</time>
      </trkpt>
      <trkpt lat="45.31636" lon="6.25081">
        <ele>1086.4000244141</ele>
        <time>2014-03-02T07:17:09.000Z</time>
      </trkpt>
      <trkpt lat="45.31636" lon="6.25079">
        <ele>1086.5999755859</ele>
        <time>2014-03-02T07:17:10.000Z</time>
      </trkpt>
      <trkpt lat="45.31637" lon="6.25077">
        <ele>1086.8000488281</ele>
        <time>2014-03-02T07:17:11.000Z</time>
      </trkpt>
      <trkpt lat="45.31637" lon="6.25074">
        <ele>1087</ele>
        <time>2014-03-02T07:17:12.000Z</time>
      </trkpt>
      <trkpt lat="45.31638" lon="6.25074">
        <ele>1087.1999511719</ele>
        <time>2014-03-02T07:17:13.000Z</time>
      </trkpt>
      <trkpt lat="45.31638" lon="6.25073">
        <ele>1087.1999511719</ele>
        <time>2014-03-02T07:17:14.000Z</time>
      </trkpt>
      <trkpt lat="45.31638" lon="6.25073">
        <ele>1087.4000244141</ele>
        <time>2014-03-02T07:17:15.000Z</time>
      </trkpt>
      <trkpt lat="45.31638" lon="6.25071">
        <ele>1087.5999755859</ele>
        <time>2014-03-02T07:17:16.000Z</time>
      </trkpt>
      <trkpt lat="45.31639" lon="6.2507">
        <ele>1087.8000488281</ele>
        <time>2014-03-02T07:17:17.000Z</time>
      </trkpt>
      <trkpt lat="45.31639" lon="6.25069">
        <ele>1088</ele>
        <time>2014-03-02T07:17:18.000Z</time>
      </trkpt>
      <trkpt lat="45.3164" lon="6.25069">
        <ele>1088.1999511719</ele>
        <time>2014-03-02T07:17:19.000Z</time>
      </trkpt>
      <trkpt lat="45.3164" lon="6.25069">
        <ele>1088.1999511719</ele>
        <time>2014-03-02T07:17:20.000Z</time>
      </trkpt>
      <trkpt lat="45.3164" lon="6.25068">
        <ele>1088.4000244141</ele>
        <time>2014-03-02T07:17:21.000Z</time>
      </trkpt>
      <trkpt lat="45.3164" lon="6.25067">
        <ele>1088.4000244141</ele>
        <time>2014-03-02T07:17:22.000Z</time>
      </trkpt>
      <trkpt lat="45.3164" lon="6.25064">
        <ele>1088</ele>
        <time>2014-03-02T07:17:23.000Z</time>
      </trkpt>
      <trkpt lat="45.31641" lon="6.25063">
        <ele>1088.1999511719</ele>
        <time>2014-03-02T07:17:24.000Z</time>
      </trkpt>
      <trkpt lat="45.31641" lon="6.25062">
        <ele>1088</ele>
        <time>2014-03-02T07:17:25.000Z</time>
      </trkpt>
      <trkpt lat="45.31641" lon="6.25062">
        <ele>1088.1999511719</ele>
        <time>2014-03-02T07:17:26.000Z</time>
      </trkpt>
      <trkpt lat="45.31641" lon="6.25061">
        <ele>1088</ele>
        <time>2014-03-02T07:17:27.000Z</time>
      </trkpt>
      <trkpt lat="45.31641" lon="6.25059">
        <ele>1088.4000244141</ele>
        <time>2014-03-02T07:17:28.000Z</time>
      </trkpt>
      <trkpt lat="45.31641" lon="6.25057">
        <ele>1088.4000244141</ele>
        <time>2014-03-02T07:17:29.000Z</time>
      </trkpt>
      <trkpt lat="45.31642" lon="6.25058">
        <ele>1088.8000488281</ele>
        <time>2014-03-02T07:17:30.000Z</time>
      </trkpt>
      <trkpt lat="45.31643" lon="6.25055">
        <ele>1089.1999511719</ele>
        <time>2014-03-02T07:17:31.000Z</time>
      </trkpt>
      <trkpt lat="45.31644" lon="6.25053">
        <ele>1090</ele>
        <time>2014-03-02T07:17:32.000Z</time>
      </trkpt>
      <trkpt lat="45.31644" lon="6.25052">
        <ele>1090</ele>
        <time>2014-03-02T07:17:33.000Z</time>
      </trkpt>
      <trkpt lat="45.31645" lon="6.25052">
        <ele>1090.4000244141</ele>
        <time>2014-03-02T07:17:34.000Z</time>
      </trkpt>
      <trkpt lat="45.31645" lon="6.2505">
        <ele>1090.1999511719</ele>
        <time>2014-03-02T07:17:35.000Z</time>
      </trkpt>
      <trkpt lat="45.31645" lon="6.25048">
        <ele>1090.8000488281</ele>
        <time>2014-03-02T07:17:36.000Z</time>
      </trkpt>
      <trkpt lat="45.31646" lon="6.25046">
        <ele>1091</ele>
        <time>2014-03-02T07:17:37.000Z</time>
      </trkpt>
      <trkpt lat="45.31646" lon="6.25046">
        <ele>1091</ele>
        <time>2014-03-02T07:17:38.000Z</time>
      </trkpt>
      <trkpt lat="45.31646" lon="6.25043">
        <ele>1090.5999755859</ele>
        <time>2014-03-02T07:17:39.000Z</time>
      </trkpt>
      <trkpt lat="45.31645" lon="6.25041">
        <ele>1090.5999755859</ele>
        <time>2014-03-02T07:17:40.000Z</time>
      </trkpt>
      <trkpt lat="45.31645" lon="6.2504">
        <ele>1090.1999511719</ele>
        <time>2014-03-02T07:17:41.000Z</time>
      </trkpt>
      <trkpt lat="45.31645" lon="6.2504">
        <ele>1090.1999511719</ele>
        <time>2014-03-02T07:17:42.000Z</time>
      </trkpt>
      <trkpt lat="45.31645" lon="6.25038">
        <ele>1090</ele>
        <time>2014-03-02T07:17:43.000Z</time>
      </trkpt>
      <trkpt lat="45.31645" lon="6.25036">
        <ele>1090</ele>
        <time>2014-03-02T07:17:44.000Z</time>
      </trkpt>
      <trkpt lat="45.31646" lon="6.25035">
        <ele>1090.1999511719</ele>
        <time>2014-03-02T07:17:45.000Z</time>
      </trkpt>
      <trkpt lat="45.31646" lon="6.25034">
        <ele>1090.5999755859</ele>
        <time>2014-03-02T07:17:46.000Z</time>
      </trkpt>
      <trkpt lat="45.31647" lon="6.25033">
        <ele>1091</ele>
        <time>2014-03-02T07:17:47.000Z</time>
      </trkpt>
      <trkpt lat="45.31648" lon="6.25031">
        <ele>1091.5999755859</ele>
        <time>2014-03-02T07:17:48.000Z</time>
      </trkpt>
      <trkpt lat="45.31649" lon="6.25029">
        <ele>1092.1999511719</ele>
        <time>2014-03-02T07:17:49.000Z</time>
      </trkpt>
      <trkpt lat="45.3165" lon="6.25028">
        <ele>1092.5999755859</ele>
        <time>2014-03-02T07:17:50.000Z</time>
      </trkpt>
      <trkpt lat="45.3165" lon="6.25027">
        <ele>1092.8000488281</ele>
        <time>2014-03-02T07:17:51.000Z</time>
      </trkpt>
      <trkpt lat="45.3165" lon="6.25025">
        <ele>1093</ele>
        <time>2014-03-02T07:17:52.000Z</time>
      </trkpt>
      <trkpt lat="45.31651" lon="6.25023">
        <ele>1093.1999511719</ele>
        <time>2014-03-02T07:17:53.000Z</time>
      </trkpt>
      <trkpt lat="45.31651" lon="6.25021">
        <ele>1093.4000244141</ele>
        <time>2014-03-02T07:17:54.000Z</time>
      </trkpt>
      <trkpt lat="45.31652" lon="6.2502">
        <ele>1093.5999755859</ele>
        <time>2014-03-02T07:17:55.000Z</time>
      </trkpt>
      <trkpt lat="45.31652" lon="6.25018">
        <ele>1093.5999755859</ele>
        <time>2014-03-02T07:17:56.000Z</time>
      </trkpt>
      <trkpt lat="45.31652" lon="6.25016">
        <ele>1094</ele>
        <time>2014-03-02T07:17:57.000Z</time>
      </trkpt>
      <trkpt lat="45.31653" lon="6.25014">
        <ele>1094.4000244141</ele>
        <time>2014-03-02T07:17:58.000Z</time>
      </trkpt>
      <trkpt lat="45.31653" lon="6.25012">
        <ele>1094.4000244141</ele>
        <time>2014-03-02T07:17:59.000Z</time>
      </trkpt>
      <trkpt lat="45.31653" lon="6.2501">
        <ele>1094.1999511719</ele>
        <time>2014-03-02T07:18:00.000Z</time>
      </trkpt>
      <trkpt lat="45.31653" lon="6.25008">
        <ele>1094.4000244141</ele>
        <time>2014-03-02T07:18:01.000Z</time>
      </trkpt>
      <trkpt lat="45.31654" lon="6.25007">
        <ele>1095</ele>
        <time>2014-03-02T07:18:02.000Z</time>
      </trkpt>
      <trkpt lat="45.31655" lon="6.25007">
        <ele>1095.1999511719</ele>
        <time>2014-03-02T07:18:03.000Z</time>
      </trkpt>
      <trkpt lat="45.31655" lon="6.25005">
        <ele>1095.5999755859</ele>
        <time>2014-03-02T07:18:04.000Z</time>
      </trkpt>
      <trkpt lat="45.31656" lon="6.25004">
        <ele>1096</ele>
        <time>2014-03-02T07:18:05.000Z</time>
      </trkpt>
      <trkpt lat="45.31658" lon="6.25002">
        <ele>1096.4000244141</ele>
        <time>2014-03-02T07:18:06.000Z</time>
      </trkpt>
      <trkpt lat="45.31658" lon="6.25002">
        <ele>1096.5999755859</ele>
        <time>2014-03-02T07:18:07.000Z</time>
      </trkpt>
      <trkpt lat="45.31658" lon="6.24999">
        <ele>1096.4000244141</ele>
        <time>2014-03-02T07:18:08.000Z</time>
      </trkpt>
      <trkpt lat="45.31659" lon="6.24998">
        <ele>1096.1999511719</ele>
        <time>2014-03-02T07:18:09.000Z</time>
      </trkpt>
      <trkpt lat="45.31659" lon="6.24998">
        <ele>1096.1999511719</ele>
        <time>2014-03-02T07:18:10.000Z</time>
      </trkpt>
      <trkpt lat="45.31658" lon="6.24995">
        <ele>1095.5999755859</ele>
        <time>2014-03-02T07:18:11.000Z</time>
      </trkpt>
      <trkpt lat="45.31659" lon="6.24993">
        <ele>1095.5999755859</ele>
        <time>2014-03-02T07:18:12.000Z</time>
      </trkpt>
      <trkpt lat="45.31659" lon="6.24993">
        <ele>1095.8000488281</ele>
        <time>2014-03-02T07:18:13.000Z</time>
      </trkpt>
      <trkpt lat="45.3166" lon="6.24993">
        <ele>1096</ele>
        <time>2014-03-02T07:18:14.000Z</time>
      </trkpt>
      <trkpt lat="45.3166" lon="6.24991">
        <ele>1095.8000488281</ele>
        <time>2014-03-02T07:18:15.000Z</time>
      </trkpt>
      <trkpt lat="45.3166" lon="6.24989">
        <ele>1095.4000244141</ele>
        <time>2014-03-02T07:18:16.000Z</time>
      </trkpt>
      <trkpt lat="45.3166" lon="6.24988">
        <ele>1095</ele>
        <time>2014-03-02T07:18:17.000Z</time>
      </trkpt>
      <trkpt lat="45.3166" lon="6.24988">
        <ele>1095</ele>
        <time>2014-03-02T07:18:18.000Z</time>
      </trkpt>
      <trkpt lat="45.3166" lon="6.24985">
        <ele>1094.8000488281</ele>
        <time>2014-03-02T07:18:19.000Z</time>
      </trkpt>
      <trkpt lat="45.31661" lon="6.24983">
        <ele>1094.8000488281</ele>
        <time>2014-03-02T07:18:20.000Z</time>
      </trkpt>
      <trkpt lat="45.31661" lon="6.24981">
        <ele>1094.8000488281</ele>
        <time>2014-03-02T07:18:21.000Z</time>
      </trkpt>
      <trkpt lat="45.31662" lon="6.24981">
        <ele>1095.1999511719</ele>
        <time>2014-03-02T07:18:22.000Z</time>
      </trkpt>
      <trkpt lat="45.31663" lon="6.24979">
        <ele>1095.1999511719</ele>
        <time>2014-03-02T07:18:23.000Z</time>
      </trkpt>
      <trkpt lat="45.31663" lon="6.24977">
        <ele>1095.8000488281</ele>
        <time>2014-03-02T07:18:24.000Z</time>
      </trkpt>
      <trkpt lat="45.31664" lon="6.24976">
        <ele>1096.4000244141</ele>
        <time>2014-03-02T07:18:25.000Z</time>
      </trkpt>
      <trkpt lat="45.31664" lon="6.24975">
        <ele>1096.1999511719</ele>
        <time>2014-03-02T07:18:26.000Z</time>
      </trkpt>
      <trkpt lat="45.31664" lon="6.24974">
        <ele>1096.5999755859</ele>
        <time>2014-03-02T07:18:27.000Z</time>
      </trkpt>
      <trkpt lat="45.31664" lon="6.24972">
        <ele>1097</ele>
        <time>2014-03-02T07:18:28.000Z</time>
      </trkpt>
      <trkpt lat="45.31665" lon="6.24972">
        <ele>1097.4000244141</ele>
        <time>2014-03-02T07:18:29.000Z</time>
      </trkpt>
      <trkpt lat="45.31666" lon="6.24971">
        <ele>1097.8000488281</ele>
        <time>2014-03-02T07:18:30.000Z</time>
      </trkpt>
      <trkpt lat="45.31666" lon="6.24968">
        <ele>1098.4000244141</ele>
        <time>2014-03-02T07:18:31.000Z</time>
      </trkpt>
      <trkpt lat="45.31667" lon="6.24966">
        <ele>1098.8000488281</ele>
        <time>2014-03-02T07:18:32.000Z</time>
      </trkpt>
      <trkpt lat="45.31667" lon="6.24966">
        <ele>1099</ele>
        <time>2014-03-02T07:18:33.000Z</time>
      </trkpt>
      <trkpt lat="45.31667" lon="6.24965">
        <ele>1099.4000244141</ele>
        <time>2014-03-02T07:18:34.000Z</time>
      </trkpt>
      <trkpt lat="45.31668" lon="6.24962">
        <ele>1100.4000244141</ele>
        <time>2014-03-02T07:18:35.000Z</time>
      </trkpt>
      <trkpt lat="45.31669" lon="6.24961">
        <ele>1100.5999755859</ele>
        <time>2014-03-02T07:18:36.000Z</time>
      </trkpt>
      <trkpt lat="45.31669" lon="6.24961">
        <ele>1101</ele>
        <time>2014-03-02T07:18:37.000Z</time>
      </trkpt>
      <trkpt lat="45.3167" lon="6.24959">
        <ele>1101.4000244141</ele>
        <time>2014-03-02T07:18:38.000Z</time>
      </trkpt>
      <trkpt lat="45.3167" lon="6.24957">
        <ele>1102</ele>
        <time>2014-03-02T07:18:39.000Z</time>
      </trkpt>
      <trkpt lat="45.31671" lon="6.24955">
        <ele>1102.4000244141</ele>
        <time>2014-03-02T07:18:40.000Z</time>
      </trkpt>
      <trkpt lat="45.31672" lon="6.24953">
        <ele>1103</ele>
        <time>2014-03-02T07:18:41.000Z</time>
      </trkpt>
      <trkpt lat="45.31672" lon="6.24952">
        <ele>1103.1999511719</ele>
        <time>2014-03-02T07:18:42.000Z</time>
      </trkpt>
      <trkpt lat="45.31673" lon="6.24949">
        <ele>1104</ele>
        <time>2014-03-02T07:18:43.000Z</time>
      </trkpt>
      <trkpt lat="45.31673" lon="6.24947">
        <ele>1104.8000488281</ele>
        <time>2014-03-02T07:18:44.000Z</time>
      </trkpt>
      <trkpt lat="45.31674" lon="6.24947">
        <ele>1105</ele>
        <time>2014-03-02T07:18:45.000Z</time>
      </trkpt>
      <trkpt lat="45.31675" lon="6.24944">
        <ele>1105.8000488281</ele>
        <time>2014-03-02T07:18:46.000Z</time>
      </trkpt>
      <trkpt lat="45.31675" lon="6.24942">
        <ele>1106</ele>
        <time>2014-03-02T07:18:47.000Z</time>
      </trkpt>
      <trkpt lat="45.31675" lon="6.24941">
        <ele>1106.1999511719</ele>
        <time>2014-03-02T07:18:48.000Z</time>
      </trkpt>
      <trkpt lat="45.31675" lon="6.24941">
        <ele>1106.4000244141</ele>
        <time>2014-03-02T07:18:49.000Z</time>
      </trkpt>
      <trkpt lat="45.31675" lon="6.24938">
        <ele>1106.1999511719</ele>
        <time>2014-03-02T07:18:50.000Z</time>
      </trkpt>
      <trkpt lat="45.31676" lon="6.24936">
        <ele>1106.1999511719</ele>
        <time>2014-03-02T07:18:51.000Z</time>
      </trkpt>
      <trkpt lat="45.31676" lon="6.24934">
        <ele>1106</ele>
        <time>2014-03-02T07:18:52.000Z</time>
      </trkpt>
      <trkpt lat="45.31676" lon="6.24932">
        <ele>1106</ele>
        <time>2014-03-02T07:18:53.000Z</time>
      </trkpt>
      <trkpt lat="45.31677" lon="6.24931">
        <ele>1106</ele>
        <time>2014-03-02T07:18:54.000Z</time>
      </trkpt>
      <trkpt lat="45.31677" lon="6.24929">
        <ele>1106</ele>
        <time>2014-03-02T07:18:55.000Z</time>
      </trkpt>
      <trkpt lat="45.31678" lon="6.24927">
        <ele>1106.4000244141</ele>
        <time>2014-03-02T07:18:56.000Z</time>
      </trkpt>
      <trkpt lat="45.31679" lon="6.24927">
        <ele>1106.5999755859</ele>
        <time>2014-03-02T07:18:57.000Z</time>
      </trkpt>
      <trkpt lat="45.3168" lon="6.24925">
        <ele>1106.5999755859</ele>
        <time>2014-03-02T07:18:58.000Z</time>
      </trkpt>
      <trkpt lat="45.3168" lon="6.24923">
        <ele>1106.5999755859</ele>
        <time>2014-03-02T07:18:59.000Z</time>
      </trkpt>
      <trkpt lat="45.3168" lon="6.24922">
        <ele>1106.4000244141</ele>
        <time>2014-03-02T07:19:00.000Z</time>
      </trkpt>
      <trkpt lat="45.31681" lon="6.24921">
        <ele>1106.5999755859</ele>
        <time>2014-03-02T07:19:01.000Z</time>
      </trkpt>
      <trkpt lat="45.31681" lon="6.24921">
        <ele>1106.5999755859</ele>
        <time>2014-03-02T07:19:02.000Z</time>
      </trkpt>
      <trkpt lat="45.31682" lon="6.24918">
        <ele>1106.5999755859</ele>
        <time>2014-03-02T07:19:03.000Z</time>
      </trkpt>
      <trkpt lat="45.31682" lon="6.24916">
        <ele>1106.5999755859</ele>
        <time>2014-03-02T07:19:04.000Z</time>
      </trkpt>
      <trkpt lat="45.31683" lon="6.24917">
        <ele>1106.8000488281</ele>
        <time>2014-03-02T07:19:05.000Z</time>
      </trkpt>
      <trkpt lat="45.31683" lon="6.24915">
        <ele>1107</ele>
        <time>2014-03-02T07:19:06.000Z</time>
      </trkpt>
      <trkpt lat="45.31684" lon="6.24913">
        <ele>1107</ele>
        <time>2014-03-02T07:19:07.000Z</time>
      </trkpt>
      <trkpt lat="45.31685" lon="6.24912">
        <ele>1107.4000244141</ele>
        <time>2014-03-02T07:19:08.000Z</time>
      </trkpt>
      <trkpt lat="45.31686" lon="6.24911">
        <ele>1107.4000244141</ele>
        <time>2014-03-02T07:19:09.000Z</time>
      </trkpt>
      <trkpt lat="45.31687" lon="6.2491">
        <ele>1107.5999755859</ele>
        <time>2014-03-02T07:19:10.000Z</time>
      </trkpt>
      <trkpt lat="45.31688" lon="6.24908">
        <ele>1107.8000488281</ele>
        <time>2014-03-02T07:19:11.000Z</time>
      </trkpt>
      <trkpt lat="45.31688" lon="6.24908">
        <ele>1108</ele>
        <time>2014-03-02T07:19:12.000Z</time>
      </trkpt>
      <trkpt lat="45.31688" lon="6.24907">
        <ele>1108</ele>
        <time>2014-03-02T07:19:13.000Z</time>
      </trkpt>
      <trkpt lat="45.31689" lon="6.24905">
        <ele>1108</ele>
        <time>2014-03-02T07:19:14.000Z</time>
      </trkpt>
      <trkpt lat="45.3169" lon="6.24902">
        <ele>1108</ele>
        <time>2014-03-02T07:19:15.000Z</time>
      </trkpt>
      <trkpt lat="45.31691" lon="6.24901">
        <ele>1108.1999511719</ele>
        <time>2014-03-02T07:19:16.000Z</time>
      </trkpt>
      <trkpt lat="45.3169" lon="6.24901">
        <ele>1108</ele>
        <time>2014-03-02T07:19:17.000Z</time>
      </trkpt>
      <trkpt lat="45.31691" lon="6.24898">
        <ele>1108</ele>
        <time>2014-03-02T07:19:18.000Z</time>
      </trkpt>
      <trkpt lat="45.31692" lon="6.24896">
        <ele>1108.1999511719</ele>
        <time>2014-03-02T07:19:19.000Z</time>
      </trkpt>
      <trkpt lat="45.31692" lon="6.24896">
        <ele>1108.4000244141</ele>
        <time>2014-03-02T07:19:20.000Z</time>
      </trkpt>
      <trkpt lat="45.31693" lon="6.24894">
        <ele>1108.8000488281</ele>
        <time>2014-03-02T07:19:21.000Z</time>
      </trkpt>
      <trkpt lat="45.31693" lon="6.24892">
        <ele>1109.1999511719</ele>
        <time>2014-03-02T07:19:22.000Z</time>
      </trkpt>
      <trkpt lat="45.31694" lon="6.2489">
        <ele>1109.4000244141</ele>
        <time>2014-03-02T07:19:23.000Z</time>
      </trkpt>
      <trkpt lat="45.31694" lon="6.2489">
        <ele>1109.4000244141</ele>
        <time>2014-03-02T07:19:24.000Z</time>
      </trkpt>
      <trkpt lat="45.31694" lon="6.24888">
        <ele>1110</ele>
        <time>2014-03-02T07:19:25.000Z</time>
      </trkpt>
      <trkpt lat="45.31694" lon="6.24888">
        <ele>1109.8000488281</ele>
        <time>2014-03-02T07:19:26.000Z</time>
      </trkpt>
      <trkpt lat="45.31694" lon="6.24887">
        <ele>1110</ele>
        <time>2014-03-02T07:19:27.000Z</time>
      </trkpt>
      <trkpt lat="45.31695" lon="6.24885">
        <ele>1110.5999755859</ele>
        <time>2014-03-02T07:19:28.000Z</time>
      </trkpt>
      <trkpt lat="45.31695" lon="6.24884">
        <ele>1110.8000488281</ele>
        <time>2014-03-02T07:19:29.000Z</time>
      </trkpt>
      <trkpt lat="45.31695" lon="6.24884">
        <ele>1110.8000488281</ele>
        <time>2014-03-02T07:19:30.000Z</time>
      </trkpt>
      <trkpt lat="45.31695" lon="6.24882">
        <ele>1111</ele>
        <time>2014-03-02T07:19:31.000Z</time>
      </trkpt>
      <trkpt lat="45.31695" lon="6.24881">
        <ele>1111.1999511719</ele>
        <time>2014-03-02T07:19:32.000Z</time>
      </trkpt>
      <trkpt lat="45.31695" lon="6.2488">
        <ele>1111.4000244141</ele>
        <time>2014-03-02T07:19:33.000Z</time>
      </trkpt>
      <trkpt lat="45.31695" lon="6.24878">
        <ele>1111.4000244141</ele>
        <time>2014-03-02T07:19:34.000Z</time>
      </trkpt>
      <trkpt lat="45.31696" lon="6.24875">
        <ele>1111.8000488281</ele>
        <time>2014-03-02T07:19:35.000Z</time>
      </trkpt>
      <trkpt lat="45.31696" lon="6.24875">
        <ele>1111.8000488281</ele>
        <time>2014-03-02T07:19:36.000Z</time>
      </trkpt>
      <trkpt lat="45.31696" lon="6.24873">
        <ele>1111.8000488281</ele>
        <time>2014-03-02T07:19:37.000Z</time>
      </trkpt>
      <trkpt lat="45.31696" lon="6.24872">
        <ele>1112</ele>
        <time>2014-03-02T07:19:38.000Z</time>
      </trkpt>
      <trkpt lat="45.31697" lon="6.24869">
        <ele>1112.1999511719</ele>
        <time>2014-03-02T07:19:39.000Z</time>
      </trkpt>
      <trkpt lat="45.31697" lon="6.24869">
        <ele>1112.1999511719</ele>
        <time>2014-03-02T07:19:40.000Z</time>
      </trkpt>
      <trkpt lat="45.31697" lon="6.24867">
        <ele>1112.1999511719</ele>
        <time>2014-03-02T07:19:41.000Z</time>
      </trkpt>
      <trkpt lat="45.31698" lon="6.24864">
        <ele>1112.4000244141</ele>
        <time>2014-03-02T07:19:42.000Z</time>
      </trkpt>
      <trkpt lat="45.31698" lon="6.24863">
        <ele>1112.4000244141</ele>
        <time>2014-03-02T07:19:43.000Z</time>
      </trkpt>
      <trkpt lat="45.31698" lon="6.24862">
        <ele>1112.4000244141</ele>
        <time>2014-03-02T07:19:44.000Z</time>
      </trkpt>
      <trkpt lat="45.31698" lon="6.2486">
        <ele>1112.5999755859</ele>
        <time>2014-03-02T07:19:45.000Z</time>
      </trkpt>
      <trkpt lat="45.31699" lon="6.24858">
        <ele>1112.5999755859</ele>
        <time>2014-03-02T07:19:46.000Z</time>
      </trkpt>
      <trkpt lat="45.31699" lon="6.24858">
        <ele>1112.5999755859</ele>
        <time>2014-03-02T07:19:47.000Z</time>
      </trkpt>
      <trkpt lat="45.31699" lon="6.24856">
        <ele>1112.8000488281</ele>
        <time>2014-03-02T07:19:48.000Z</time>
      </trkpt>
      <trkpt lat="45.31699" lon="6.24855">
        <ele>1112.8000488281</ele>
        <time>2014-03-02T07:19:49.000Z</time>
      </trkpt>
      <trkpt lat="45.31699" lon="6.24853">
        <ele>1112.8000488281</ele>
        <time>2014-03-02T07:19:50.000Z</time>
      </trkpt>
      <trkpt lat="45.31699" lon="6.24853">
        <ele>1113</ele>
        <time>2014-03-02T07:19:51.000Z</time>
      </trkpt>
      <trkpt lat="45.317" lon="6.2485">
        <ele>1113.1999511719</ele>
        <time>2014-03-02T07:19:52.000Z</time>
      </trkpt>
      <trkpt lat="45.31701" lon="6.24849">
        <ele>1113.4000244141</ele>
        <time>2014-03-02T07:19:53.000Z</time>
      </trkpt>
      <trkpt lat="45.31701" lon="6.24848">
        <ele>1113.4000244141</ele>
        <time>2014-03-02T07:19:54.000Z</time>
      </trkpt>
      <trkpt lat="45.31702" lon="6.24846">
        <ele>1113.5999755859</ele>
        <time>2014-03-02T07:19:55.000Z</time>
      </trkpt>
      <trkpt lat="45.31702" lon="6.24844">
        <ele>1113.8000488281</ele>
        <time>2014-03-02T07:19:56.000Z</time>
      </trkpt>
      <trkpt lat="45.31703" lon="6.24843">
        <ele>1113.8000488281</ele>
        <time>2014-03-02T07:19:57.000Z</time>
      </trkpt>
      <trkpt lat="45.31702" lon="6.24842">
        <ele>1113.8000488281</ele>
        <time>2014-03-02T07:19:58.000Z</time>
      </trkpt>
      <trkpt lat="45.31703" lon="6.24841">
        <ele>1113.8000488281</ele>
        <time>2014-03-02T07:19:59.000Z</time>
      </trkpt>
      <trkpt lat="45.31703" lon="6.24839">
        <ele>1113.8000488281</ele>
        <time>2014-03-02T07:20:00.000Z</time>
      </trkpt>
      <trkpt lat="45.31703" lon="6.24839">
        <ele>1114</ele>
        <time>2014-03-02T07:20:01.000Z</time>
      </trkpt>
      <trkpt lat="45.31703" lon="6.24838">
        <ele>1114</ele>
        <time>2014-03-02T07:20:02.000Z</time>
      </trkpt>
      <trkpt lat="45.31703" lon="6.24836">
        <ele>1114</ele>
        <time>2014-03-02T07:20:03.000Z</time>
      </trkpt>
      <trkpt lat="45.31703" lon="6.24836">
        <ele>1114</ele>
        <time>2014-03-02T07:20:04.000Z</time>
      </trkpt>
      <trkpt lat="45.31704" lon="6.24834">
        <ele>1114.1999511719</ele>
        <time>2014-03-02T07:20:05.000Z</time>
      </trkpt>
      <trkpt lat="45.31704" lon="6.24832">
        <ele>1114.1999511719</ele>
        <time>2014-03-02T07:20:06.000Z</time>
      </trkpt>
      <trkpt lat="45.31704" lon="6.24831">
        <ele>1114.4000244141</ele>
        <time>2014-03-02T07:20:07.000Z</time>
      </trkpt>
      <trkpt lat="45.31705" lon="6.2483">
        <ele>1114.4000244141</ele>
        <time>2014-03-02T07:20:08.000Z</time>
      </trkpt>
      <trkpt lat="45.31705" lon="6.24829">
        <ele>1114.5999755859</ele>
        <time>2014-03-02T07:20:09.000Z</time>
      </trkpt>
      <trkpt lat="45.31706" lon="6.24826">
        <ele>1114.8000488281</ele>
        <time>2014-03-02T07:20:10.000Z</time>
      </trkpt>
      <trkpt lat="45.31706" lon="6.24826">
        <ele>1114.8000488281</ele>
        <time>2014-03-02T07:20:11.000Z</time>
      </trkpt>
      <trkpt lat="45.31706" lon="6.24825">
        <ele>1115</ele>
        <time>2014-03-02T07:20:12.000Z</time>
      </trkpt>
      <trkpt lat="45.31707" lon="6.24822">
        <ele>1115</ele>
        <time>2014-03-02T07:20:13.000Z</time>
      </trkpt>
      <trkpt lat="45.31707" lon="6.24822">
        <ele>1115.1999511719</ele>
        <time>2014-03-02T07:20:14.000Z</time>
      </trkpt>
      <trkpt lat="45.31707" lon="6.24821">
        <ele>1115.1999511719</ele>
        <time>2014-03-02T07:20:15.000Z</time>
      </trkpt>
      <trkpt lat="45.31707" lon="6.2482">
        <ele>1115.1999511719</ele>
        <time>2014-03-02T07:20:16.000Z</time>
      </trkpt>
      <trkpt lat="45.31707" lon="6.24818">
        <ele>1115.1999511719</ele>
        <time>2014-03-02T07:20:17.000Z</time>
      </trkpt>
      <trkpt lat="45.31707" lon="6.24817">
        <ele>1115.1999511719</ele>
        <time>2014-03-02T07:20:18.000Z</time>
      </trkpt>
      <trkpt lat="45.31707" lon="6.24817">
        <ele>1115.1999511719</ele>
        <time>2014-03-02T07:20:19.000Z</time>
      </trkpt>
      <trkpt lat="45.31707" lon="6.24814">
        <ele>1115.1999511719</ele>
        <time>2014-03-02T07:20:20.000Z</time>
      </trkpt>
      <trkpt lat="45.31707" lon="6.24814">
        <ele>1115.4000244141</ele>
        <time>2014-03-02T07:20:21.000Z</time>
      </trkpt>
      <trkpt lat="45.31707" lon="6.24813">
        <ele>1115.4000244141</ele>
        <time>2014-03-02T07:20:22.000Z</time>
      </trkpt>
      <trkpt lat="45.31708" lon="6.24812">
        <ele>1115.5999755859</ele>
        <time>2014-03-02T07:20:23.000Z</time>
      </trkpt>
      <trkpt lat="45.31708" lon="6.2481">
        <ele>1116.1999511719</ele>
        <time>2014-03-02T07:20:24.000Z</time>
      </trkpt>
      <trkpt lat="45.31708" lon="6.24809">
        <ele>1116.5999755859</ele>
        <time>2014-03-02T07:20:25.000Z</time>
      </trkpt>
      <trkpt lat="45.31709" lon="6.24806">
        <ele>1117</ele>
        <time>2014-03-02T07:20:26.000Z</time>
      </trkpt>
      <trkpt lat="45.31709" lon="6.24805">
        <ele>1117.1999511719</ele>
        <time>2014-03-02T07:20:27.000Z</time>
      </trkpt>
      <trkpt lat="45.31709" lon="6.24804">
        <ele>1117.4000244141</ele>
        <time>2014-03-02T07:20:28.000Z</time>
      </trkpt>
      <trkpt lat="45.3171" lon="6.24803">
        <ele>1117.5999755859</ele>
        <time>2014-03-02T07:20:29.000Z</time>
      </trkpt>
      <trkpt lat="45.3171" lon="6.24801">
        <ele>1117.8000488281</ele>
        <time>2014-03-02T07:20:30.000Z</time>
      </trkpt>
      <trkpt lat="45.31711" lon="6.248">
        <ele>1118</ele>
        <time>2014-03-02T07:20:31.000Z</time>
      </trkpt>
      <trkpt lat="45.31711" lon="6.24799">
        <ele>1118.1999511719</ele>
        <time>2014-03-02T07:20:32.000Z</time>
      </trkpt>
      <trkpt lat="45.31711" lon="6.24798">
        <ele>1118.4000244141</ele>
        <time>2014-03-02T07:20:33.000Z</time>
      </trkpt>
      <trkpt lat="45.31712" lon="6.24797">
        <ele>1118.5999755859</ele>
        <time>2014-03-02T07:20:34.000Z</time>
      </trkpt>
      <trkpt lat="45.31712" lon="6.24796">
        <ele>1118.8000488281</ele>
        <time>2014-03-02T07:20:35.000Z</time>
      </trkpt>
      <trkpt lat="45.31712" lon="6.24795">
        <ele>1118.8000488281</ele>
        <time>2014-03-02T07:20:36.000Z</time>
      </trkpt>
      <trkpt lat="45.31712" lon="6.24793">
        <ele>1119</ele>
        <time>2014-03-02T07:20:37.000Z</time>
      </trkpt>
      <trkpt lat="45.31712" lon="6.24792">
        <ele>1119.1999511719</ele>
        <time>2014-03-02T07:20:38.000Z</time>
      </trkpt>
      <trkpt lat="45.31712" lon="6.2479">
        <ele>1119.4000244141</ele>
        <time>2014-03-02T07:20:39.000Z</time>
      </trkpt>
      <trkpt lat="45.31713" lon="6.24789">
        <ele>1119.8000488281</ele>
        <time>2014-03-02T07:20:40.000Z</time>
      </trkpt>
      <trkpt lat="45.31713" lon="6.24787">
        <ele>1120</ele>
        <time>2014-03-02T07:20:41.000Z</time>
      </trkpt>
      <trkpt lat="45.31713" lon="6.24786">
        <ele>1120.1999511719</ele>
        <time>2014-03-02T07:20:42.000Z</time>
      </trkpt>
      <trkpt lat="45.31714" lon="6.24785">
        <ele>1120.1999511719</ele>
        <time>2014-03-02T07:20:43.000Z</time>
      </trkpt>
      <trkpt lat="45.31714" lon="6.24784">
        <ele>1120.5999755859</ele>
        <time>2014-03-02T07:20:44.000Z</time>
      </trkpt>
      <trkpt lat="45.31714" lon="6.24783">
        <ele>1121</ele>
        <time>2014-03-02T07:20:45.000Z</time>
      </trkpt>
      <trkpt lat="45.31715" lon="6.24782">
        <ele>1121.1999511719</ele>
        <time>2014-03-02T07:20:46.000Z</time>
      </trkpt>
      <trkpt lat="45.31715" lon="6.2478">
        <ele>1121.5999755859</ele>
        <time>2014-03-02T07:20:47.000Z</time>
      </trkpt>
      <trkpt lat="45.31715" lon="6.24779">
        <ele>1122</ele>
        <time>2014-03-02T07:20:48.000Z</time>
      </trkpt>
      <trkpt lat="45.31716" lon="6.24778">
        <ele>1122.4000244141</ele>
        <time>2014-03-02T07:20:49.000Z</time>
      </trkpt>
      <trkpt lat="45.31717" lon="6.24777">
        <ele>1122.8000488281</ele>
        <time>2014-03-02T07:20:50.000Z</time>
      </trkpt>
      <trkpt lat="45.31717" lon="6.24777">
        <ele>1123.4000244141</ele>
        <time>2014-03-02T07:20:51.000Z</time>
      </trkpt>
      <trkpt lat="45.31718" lon="6.24776">
        <ele>1123.5999755859</ele>
        <time>2014-03-02T07:20:52.000Z</time>
      </trkpt>
      <trkpt lat="45.31718" lon="6.24775">
        <ele>1124</ele>
        <time>2014-03-02T07:20:53.000Z</time>
      </trkpt>
      <trkpt lat="45.31718" lon="6.24775">
        <ele>1124</ele>
        <time>2014-03-02T07:20:54.000Z</time>
      </trkpt>
      <trkpt lat="45.31718" lon="6.24775">
        <ele>1124.1999511719</ele>
        <time>2014-03-02T07:20:55.000Z</time>
      </trkpt>
      <trkpt lat="45.31719" lon="6.24773">
        <ele>1124.5999755859</ele>
        <time>2014-03-02T07:20:56.000Z</time>
      </trkpt>
      <trkpt lat="45.31719" lon="6.24772">
        <ele>1124.8000488281</ele>
        <time>2014-03-02T07:20:57.000Z</time>
      </trkpt>
      <trkpt lat="45.31719" lon="6.24771">
        <ele>1125</ele>
        <time>2014-03-02T07:20:58.000Z</time>
      </trkpt>
      <trkpt lat="45.31719" lon="6.2477">
        <ele>1125.4000244141</ele>
        <time>2014-03-02T07:20:59.000Z</time>
      </trkpt>
      <trkpt lat="45.3172" lon="6.24768">
        <ele>1125.8000488281</ele>
        <time>2014-03-02T07:21:00.000Z</time>
      </trkpt>
      <trkpt lat="45.3172" lon="6.24767">
        <ele>1126.1999511719</ele>
        <time>2014-03-02T07:21:01.000Z</time>
      </trkpt>
      <trkpt lat="45.31721" lon="6.24765">
        <ele>1126.5999755859</ele>
        <time>2014-03-02T07:21:02.000Z</time>
      </trkpt>
      <trkpt lat="45.31722" lon="6.24764">
        <ele>1127.4000244141</ele>
        <time>2014-03-02T07:21:03.000Z</time>
      </trkpt>
      <trkpt lat="45.31722" lon="6.24761">
        <ele>1127.8000488281</ele>
        <time>2014-03-02T07:21:04.000Z</time>
      </trkpt>
      <trkpt lat="45.31722" lon="6.2476">
        <ele>1128.1999511719</ele>
        <time>2014-03-02T07:21:05.000Z</time>
      </trkpt>
      <trkpt lat="45.31722" lon="6.2476">
        <ele>1128.1999511719</ele>
        <time>2014-03-02T07:21:06.000Z</time>
      </trkpt>
      <trkpt lat="45.31722" lon="6.2476">
        <ele>1128.1999511719</ele>
        <time>2014-03-02T07:21:07.000Z</time>
      </trkpt>
      <trkpt lat="45.31723" lon="6.24759">
        <ele>1128.5999755859</ele>
        <time>2014-03-02T07:21:08.000Z</time>
      </trkpt>
      <trkpt lat="45.31723" lon="6.24759">
        <ele>1128.5999755859</ele>
        <time>2014-03-02T07:21:09.000Z</time>
      </trkpt>
      <trkpt lat="45.31723" lon="6.24757">
        <ele>1129.1999511719</ele>
        <time>2014-03-02T07:21:10.000Z</time>
      </trkpt>
      <trkpt lat="45.31724" lon="6.24756">
        <ele>1129.4000244141</ele>
        <time>2014-03-02T07:21:11.000Z</time>
      </trkpt>
      <trkpt lat="45.31724" lon="6.24756">
        <ele>1129.4000244141</ele>
        <time>2014-03-02T07:21:12.000Z</time>
      </trkpt>
      <trkpt lat="45.31724" lon="6.24756">
        <ele>1129.4000244141</ele>
        <time>2014-03-02T07:21:13.000Z</time>
      </trkpt>
      <trkpt lat="45.31724" lon="6.24756">
        <ele>1129.4000244141</ele>
        <time>2014-03-02T07:21:14.000Z</time>
      </trkpt>
      <trkpt lat="45.31724" lon="6.24755">
        <ele>1129.8000488281</ele>
        <time>2014-03-02T07:21:15.000Z</time>
      </trkpt>
      <trkpt lat="45.31724" lon="6.24754">
        <ele>1130</ele>
        <time>2014-03-02T07:21:16.000Z</time>
      </trkpt>
      <trkpt lat="45.31725" lon="6.24753">
        <ele>1130.5999755859</ele>
        <time>2014-03-02T07:21:17.000Z</time>
      </trkpt>
      <trkpt lat="45.31725" lon="6.24752">
        <ele>1130.8000488281</ele>
        <time>2014-03-02T07:21:18.000Z</time>
      </trkpt>
      <trkpt lat="45.31725" lon="6.2475">
        <ele>1131.1999511719</ele>
        <time>2014-03-02T07:21:19.000Z</time>
      </trkpt>
      <trkpt lat="45.31726" lon="6.24749">
        <ele>1131.5999755859</ele>
        <time>2014-03-02T07:21:20.000Z</time>
      </trkpt>
      <trkpt lat="45.31727" lon="6.24748">
        <ele>1132.4000244141</ele>
        <time>2014-03-02T07:21:21.000Z</time>
      </trkpt>
      <trkpt lat="45.31727" lon="6.24746">
        <ele>1132.8000488281</ele>
        <time>2014-03-02T07:21:22.000Z</time>
      </trkpt>
      <trkpt lat="45.31728" lon="6.24745">
        <ele>1133.4000244141</ele>
        <time>2014-03-02T07:21:23.000Z</time>
      </trkpt>
      <trkpt lat="45.31729" lon="6.24744">
        <ele>1133.8000488281</ele>
        <time>2014-03-02T07:21:24.000Z</time>
      </trkpt>
      <trkpt lat="45.31729" lon="6.24743">
        <ele>1134.1999511719</ele>
        <time>2014-03-02T07:21:25.000Z</time>
      </trkpt>
      <trkpt lat="45.31729" lon="6.24742">
        <ele>1134.1999511719</ele>
        <time>2014-03-02T07:21:26.000Z</time>
      </trkpt>
      <trkpt lat="45.31729" lon="6.24741">
        <ele>1134.1999511719</ele>
        <time>2014-03-02T07:21:27.000Z</time>
      </trkpt>
      <trkpt lat="45.31729" lon="6.2474">
        <ele>1134.4000244141</ele>
        <time>2014-03-02T07:21:28.000Z</time>
      </trkpt>
      <trkpt lat="45.3173" lon="6.24739">
        <ele>1134.5999755859</ele>
        <time>2014-03-02T07:21:29.000Z</time>
      </trkpt>
      <trkpt lat="45.3173" lon="6.24739">
        <ele>1134.5999755859</ele>
        <time>2014-03-02T07:21:30.000Z</time>
      </trkpt>
      <trkpt lat="45.3173" lon="6.24738">
        <ele>1134.8000488281</ele>
        <time>2014-03-02T07:21:31.000Z</time>
      </trkpt>
      <trkpt lat="45.3173" lon="6.24737">
        <ele>1134.8000488281</ele>
        <time>2014-03-02T07:21:32.000Z</time>
      </trkpt>
      <trkpt lat="45.31731" lon="6.24735">
        <ele>1135.1999511719</ele>
        <time>2014-03-02T07:21:33.000Z</time>
      </trkpt>
      <trkpt lat="45.31731" lon="6.24734">
        <ele>1135.4000244141</ele>
        <time>2014-03-02T07:21:34.000Z</time>
      </trkpt>
      <trkpt lat="45.31731" lon="6.24732">
        <ele>1135.4000244141</ele>
        <time>2014-03-02T07:21:35.000Z</time>
      </trkpt>
      <trkpt lat="45.31731" lon="6.2473">
        <ele>1135.5999755859</ele>
        <time>2014-03-02T07:21:36.000Z</time>
      </trkpt>
      <trkpt lat="45.31731" lon="6.24729">
        <ele>1135.8000488281</ele>
        <time>2014-03-02T07:21:37.000Z</time>
      </trkpt>
      <trkpt lat="45.31732" lon="6.24727">
        <ele>1136.4000244141</ele>
        <time>2014-03-02T07:21:38.000Z</time>
      </trkpt>
      <trkpt lat="45.31732" lon="6.24727">
        <ele>1136.5999755859</ele>
        <time>2014-03-02T07:21:39.000Z</time>
      </trkpt>
      <trkpt lat="45.31733" lon="6.24726">
        <ele>1137</ele>
        <time>2014-03-02T07:21:40.000Z</time>
      </trkpt>
      <trkpt lat="45.31733" lon="6.24725">
        <ele>1137.4000244141</ele>
        <time>2014-03-02T07:21:41.000Z</time>
      </trkpt>
      <trkpt lat="45.31734" lon="6.24724">
        <ele>1137.8000488281</ele>
        <time>2014-03-02T07:21:42.000Z</time>
      </trkpt>
      <trkpt lat="45.31734" lon="6.24723">
        <ele>1138</ele>
        <time>2014-03-02T07:21:43.000Z</time>
      </trkpt>
      <trkpt lat="45.31735" lon="6.24721">
        <ele>1138.4000244141</ele>
        <time>2014-03-02T07:21:44.000Z</time>
      </trkpt>
      <trkpt lat="45.31735" lon="6.2472">
        <ele>1138.8000488281</ele>
        <time>2014-03-02T07:21:45.000Z</time>
      </trkpt>
      <trkpt lat="45.31736" lon="6.24719">
        <ele>1139.1999511719</ele>
        <time>2014-03-02T07:21:46.000Z</time>
      </trkpt>
      <trkpt lat="45.31736" lon="6.24717">
        <ele>1139.5999755859</ele>
        <time>2014-03-02T07:21:47.000Z</time>
      </trkpt>
      <trkpt lat="45.31737" lon="6.24717">
        <ele>1139.8000488281</ele>
        <time>2014-03-02T07:21:48.000Z</time>
      </trkpt>
      <trkpt lat="45.31737" lon="6.24716">
        <ele>1140.1999511719</ele>
        <time>2014-03-02T07:21:49.000Z</time>
      </trkpt>
      <trkpt lat="45.31737" lon="6.24716">
        <ele>1140.1999511719</ele>
        <time>2014-03-02T07:21:50.000Z</time>
      </trkpt>
      <trkpt lat="45.31738" lon="6.24715">
        <ele>1140.4000244141</ele>
        <time>2014-03-02T07:21:51.000Z</time>
      </trkpt>
      <trkpt lat="45.31738" lon="6.24714">
        <ele>1140.8000488281</ele>
        <time>2014-03-02T07:21:52.000Z</time>
      </trkpt>
      <trkpt lat="45.31738" lon="6.24713">
        <ele>1141</ele>
        <time>2014-03-02T07:21:53.000Z</time>
      </trkpt>
      <trkpt lat="45.31739" lon="6.24711">
        <ele>1141.5999755859</ele>
        <time>2014-03-02T07:21:54.000Z</time>
      </trkpt>
      <trkpt lat="45.31739" lon="6.2471">
        <ele>1141.8000488281</ele>
        <time>2014-03-02T07:21:55.000Z</time>
      </trkpt>
      <trkpt lat="45.31739" lon="6.24708">
        <ele>1142</ele>
        <time>2014-03-02T07:21:56.000Z</time>
      </trkpt>
      <trkpt lat="45.3174" lon="6.24707">
        <ele>1142.1999511719</ele>
        <time>2014-03-02T07:21:57.000Z</time>
      </trkpt>
      <trkpt lat="45.3174" lon="6.24706">
        <ele>1142.5999755859</ele>
        <time>2014-03-02T07:21:58.000Z</time>
      </trkpt>
      <trkpt lat="45.3174" lon="6.24705">
        <ele>1142.5999755859</ele>
        <time>2014-03-02T07:21:59.000Z</time>
      </trkpt>
      <trkpt lat="45.31741" lon="6.24704">
        <ele>1143</ele>
        <time>2014-03-02T07:22:00.000Z</time>
      </trkpt>
      <trkpt lat="45.31741" lon="6.24703">
        <ele>1143.1999511719</ele>
        <time>2014-03-02T07:22:01.000Z</time>
      </trkpt>
      <trkpt lat="45.31741" lon="6.24701">
        <ele>1143.4000244141</ele>
        <time>2014-03-02T07:22:02.000Z</time>
      </trkpt>
      <trkpt lat="45.31741" lon="6.247">
        <ele>1143.5999755859</ele>
        <time>2014-03-02T07:22:03.000Z</time>
      </trkpt>
      <trkpt lat="45.31742" lon="6.24699">
        <ele>1144</ele>
        <time>2014-03-02T07:22:04.000Z</time>
      </trkpt>
      <trkpt lat="45.31742" lon="6.24697">
        <ele>1144.4000244141</ele>
        <time>2014-03-02T07:22:05.000Z</time>
      </trkpt>
      <trkpt lat="45.31743" lon="6.24696">
        <ele>1144.8000488281</ele>
        <time>2014-03-02T07:22:06.000Z</time>
      </trkpt>
      <trkpt lat="45.31743" lon="6.24695">
        <ele>1145</ele>
        <time>2014-03-02T07:22:07.000Z</time>
      </trkpt>
      <trkpt lat="45.31743" lon="6.24693">
        <ele>1145.1999511719</ele>
        <time>2014-03-02T07:22:08.000Z</time>
      </trkpt>
      <trkpt lat="45.31744" lon="6.24691">
        <ele>1145.8000488281</ele>
        <time>2014-03-02T07:22:09.000Z</time>
      </trkpt>
      <trkpt lat="45.31744" lon="6.24691">
        <ele>1146</ele>
        <time>2014-03-02T07:22:10.000Z</time>
      </trkpt>
      <trkpt lat="45.31745" lon="6.24689">
        <ele>1146.5999755859</ele>
        <time>2014-03-02T07:22:11.000Z</time>
      </trkpt>
      <trkpt lat="45.31746" lon="6.24687">
        <ele>1147</ele>
        <time>2014-03-02T07:22:12.000Z</time>
      </trkpt>
      <trkpt lat="45.31746" lon="6.24687">
        <ele>1147</ele>
        <time>2014-03-02T07:22:13.000Z</time>
      </trkpt>
      <trkpt lat="45.31746" lon="6.24687">
        <ele>1147.5999755859</ele>
        <time>2014-03-02T07:22:14.000Z</time>
      </trkpt>
      <trkpt lat="45.31747" lon="6.24685">
        <ele>1148.1999511719</ele>
        <time>2014-03-02T07:22:15.000Z</time>
      </trkpt>
      <trkpt lat="45.31748" lon="6.24684">
        <ele>1148.4000244141</ele>
        <time>2014-03-02T07:22:16.000Z</time>
      </trkpt>
      <trkpt lat="45.31748" lon="6.24683">
        <ele>1148.5999755859</ele>
        <time>2014-03-02T07:22:17.000Z</time>
      </trkpt>
      <trkpt lat="45.31749" lon="6.24682">
        <ele>1149.1999511719</ele>
        <time>2014-03-02T07:22:18.000Z</time>
      </trkpt>
      <trkpt lat="45.31749" lon="6.24681">
        <ele>1149.5999755859</ele>
        <time>2014-03-02T07:22:19.000Z</time>
      </trkpt>
      <trkpt lat="45.3175" lon="6.24681">
        <ele>1149.8000488281</ele>
        <time>2014-03-02T07:22:20.000Z</time>
      </trkpt>
      <trkpt lat="45.31751" lon="6.2468">
        <ele>1150.1999511719</ele>
        <time>2014-03-02T07:22:21.000Z</time>
      </trkpt>
      <trkpt lat="45.31752" lon="6.24679">
        <ele>1150.5999755859</ele>
        <time>2014-03-02T07:22:22.000Z</time>
      </trkpt>
      <trkpt lat="45.31753" lon="6.24678">
        <ele>1151</ele>
        <time>2014-03-02T07:22:23.000Z</time>
      </trkpt>
      <trkpt lat="45.31754" lon="6.24677">
        <ele>1151.1999511719</ele>
        <time>2014-03-02T07:22:24.000Z</time>
      </trkpt>
      <trkpt lat="45.31754" lon="6.24675">
        <ele>1151.4000244141</ele>
        <time>2014-03-02T07:22:25.000Z</time>
      </trkpt>
      <trkpt lat="45.31755" lon="6.24673">
        <ele>1151.8000488281</ele>
        <time>2014-03-02T07:22:26.000Z</time>
      </trkpt>
      <trkpt lat="45.31755" lon="6.24673">
        <ele>1152</ele>
        <time>2014-03-02T07:22:27.000Z</time>
      </trkpt>
      <trkpt lat="45.31756" lon="6.24671">
        <ele>1152.1999511719</ele>
        <time>2014-03-02T07:22:28.000Z</time>
      </trkpt>
      <trkpt lat="45.31756" lon="6.24671">
        <ele>1152.4000244141</ele>
        <time>2014-03-02T07:22:29.000Z</time>
      </trkpt>
      <trkpt lat="45.31758" lon="6.24671">
        <ele>1152.8000488281</ele>
        <time>2014-03-02T07:22:30.000Z</time>
      </trkpt>
      <trkpt lat="45.31758" lon="6.2467">
        <ele>1153.1999511719</ele>
        <time>2014-03-02T07:22:31.000Z</time>
      </trkpt>
      <trkpt lat="45.31759" lon="6.24669">
        <ele>1153.4000244141</ele>
        <time>2014-03-02T07:22:32.000Z</time>
      </trkpt>
      <trkpt lat="45.31759" lon="6.24669">
        <ele>1153.5999755859</ele>
        <time>2014-03-02T07:22:33.000Z</time>
      </trkpt>
      <trkpt lat="45.3176" lon="6.24668">
        <ele>1153.8000488281</ele>
        <time>2014-03-02T07:22:34.000Z</time>
      </trkpt>
      <trkpt lat="45.3176" lon="6.24668">
        <ele>1154</ele>
        <time>2014-03-02T07:22:35.000Z</time>
      </trkpt>
      <trkpt lat="45.3176" lon="6.24668">
        <ele>1154</ele>
        <time>2014-03-02T07:22:36.000Z</time>
      </trkpt>
      <trkpt lat="45.31761" lon="6.24668">
        <ele>1154.4000244141</ele>
        <time>2014-03-02T07:22:37.000Z</time>
      </trkpt>
      <trkpt lat="45.31762" lon="6.24667">
        <ele>1154.5999755859</ele>
        <time>2014-03-02T07:22:38.000Z</time>
      </trkpt>
      <trkpt lat="45.31762" lon="6.24667">
        <ele>1154.5999755859</ele>
        <time>2014-03-02T07:22:39.000Z</time>
      </trkpt>
      <trkpt lat="45.31763" lon="6.24666">
        <ele>1155</ele>
        <time>2014-03-02T07:22:40.000Z</time>
      </trkpt>
      <trkpt lat="45.31764" lon="6.24665">
        <ele>1155.4000244141</ele>
        <time>2014-03-02T07:22:41.000Z</time>
      </trkpt>
      <trkpt lat="45.31764" lon="6.24664">
        <ele>1155.5999755859</ele>
        <time>2014-03-02T07:22:42.000Z</time>
      </trkpt>
      <trkpt lat="45.31765" lon="6.24664">
        <ele>1156</ele>
        <time>2014-03-02T07:22:43.000Z</time>
      </trkpt>
      <trkpt lat="45.31765" lon="6.24664">
        <ele>1156</ele>
        <time>2014-03-02T07:22:44.000Z</time>
      </trkpt>
      <trkpt lat="45.31766" lon="6.24662">
        <ele>1156.4000244141</ele>
        <time>2014-03-02T07:22:45.000Z</time>
      </trkpt>
      <trkpt lat="45.31768" lon="6.24661">
        <ele>1157</ele>
        <time>2014-03-02T07:22:46.000Z</time>
      </trkpt>
      <trkpt lat="45.31768" lon="6.2466">
        <ele>1157.1999511719</ele>
        <time>2014-03-02T07:22:47.000Z</time>
      </trkpt>
      <trkpt lat="45.31769" lon="6.2466">
        <ele>1157.4000244141</ele>
        <time>2014-03-02T07:22:48.000Z</time>
      </trkpt>
      <trkpt lat="45.31769" lon="6.24659">
        <ele>1157.5999755859</ele>
        <time>2014-03-02T07:22:49.000Z</time>
      </trkpt>
      <trkpt lat="45.31769" lon="6.24658">
        <ele>1157.8000488281</ele>
        <time>2014-03-02T07:22:50.000Z</time>
      </trkpt>
      <trkpt lat="45.3177" lon="6.24657">
        <ele>1158</ele>
        <time>2014-03-02T07:22:51.000Z</time>
      </trkpt>
      <trkpt lat="45.3177" lon="6.24656">
        <ele>1158.1999511719</ele>
        <time>2014-03-02T07:22:52.000Z</time>
      </trkpt>
      <trkpt lat="45.31771" lon="6.24656">
        <ele>1158.4000244141</ele>
        <time>2014-03-02T07:22:53.000Z</time>
      </trkpt>
      <trkpt lat="45.31772" lon="6.24655">
        <ele>1158.5999755859</ele>
        <time>2014-03-02T07:22:54.000Z</time>
      </trkpt>
      <trkpt lat="45.31772" lon="6.24654">
        <ele>1158.8000488281</ele>
        <time>2014-03-02T07:22:55.000Z</time>
      </trkpt>
      <trkpt lat="45.31773" lon="6.24653">
        <ele>1159</ele>
        <time>2014-03-02T07:22:56.000Z</time>
      </trkpt>
      <trkpt lat="45.31773" lon="6.24652">
        <ele>1159.1999511719</ele>
        <time>2014-03-02T07:22:57.000Z</time>
      </trkpt>
      <trkpt lat="45.31774" lon="6.2465">
        <ele>1159.4000244141</ele>
        <time>2014-03-02T07:22:58.000Z</time>
      </trkpt>
      <trkpt lat="45.31774" lon="6.24649">
        <ele>1159.5999755859</ele>
        <time>2014-03-02T07:22:59.000Z</time>
      </trkpt>
      <trkpt lat="45.31774" lon="6.24649">
        <ele>1159.5999755859</ele>
        <time>2014-03-02T07:23:00.000Z</time>
      </trkpt>
      <trkpt lat="45.31775" lon="6.24648">
        <ele>1160</ele>
        <time>2014-03-02T07:23:01.000Z</time>
      </trkpt>
      <trkpt lat="45.31776" lon="6.24648">
        <ele>1160.1999511719</ele>
        <time>2014-03-02T07:23:02.000Z</time>
      </trkpt>
      <trkpt lat="45.31776" lon="6.24647">
        <ele>1160.4000244141</ele>
        <time>2014-03-02T07:23:03.000Z</time>
      </trkpt>
      <trkpt lat="45.31777" lon="6.24646">
        <ele>1160.5999755859</ele>
        <time>2014-03-02T07:23:04.000Z</time>
      </trkpt>
      <trkpt lat="45.31777" lon="6.24646">
        <ele>1161</ele>
        <time>2014-03-02T07:23:05.000Z</time>
      </trkpt>
      <trkpt lat="45.31778" lon="6.24645">
        <ele>1161.4000244141</ele>
        <time>2014-03-02T07:23:06.000Z</time>
      </trkpt>
      <trkpt lat="45.31779" lon="6.24645">
        <ele>1161.5999755859</ele>
        <time>2014-03-02T07:23:07.000Z</time>
      </trkpt>
      <trkpt lat="45.31779" lon="6.24644">
        <ele>1162</ele>
        <time>2014-03-02T07:23:08.000Z</time>
      </trkpt>
      <trkpt lat="45.3178" lon="6.24644">
        <ele>1162.1999511719</ele>
        <time>2014-03-02T07:23:09.000Z</time>
      </trkpt>
      <trkpt lat="45.3178" lon="6.24644">
        <ele>1162.1999511719</ele>
        <time>2014-03-02T07:23:10.000Z</time>
      </trkpt>
      <trkpt lat="45.31781" lon="6.24643">
        <ele>1162.5999755859</ele>
        <time>2014-03-02T07:23:11.000Z</time>
      </trkpt>
      <trkpt lat="45.31781" lon="6.24642">
        <ele>1163</ele>
        <time>2014-03-02T07:23:12.000Z</time>
      </trkpt>
      <trkpt lat="45.31781" lon="6.24642">
        <ele>1163</ele>
        <time>2014-03-02T07:23:13.000Z</time>
      </trkpt>
      <trkpt lat="45.31782" lon="6.24642">
        <ele>1163.5999755859</ele>
        <time>2014-03-02T07:23:14.000Z</time>
      </trkpt>
      <trkpt lat="45.31784" lon="6.2464">
        <ele>1164.1999511719</ele>
        <time>2014-03-02T07:23:15.000Z</time>
      </trkpt>
      <trkpt lat="45.31784" lon="6.24639">
        <ele>1164.8000488281</ele>
        <time>2014-03-02T07:23:16.000Z</time>
      </trkpt>
      <trkpt lat="45.31786" lon="6.24638">
        <ele>1165.4000244141</ele>
        <time>2014-03-02T07:23:17.000Z</time>
      </trkpt>
      <trkpt lat="45.31786" lon="6.24637">
        <ele>1165.8000488281</ele>
        <time>2014-03-02T07:23:18.000Z</time>
      </trkpt>
      <trkpt lat="45.31787" lon="6.24636">
        <ele>1166</ele>
        <time>2014-03-02T07:23:19.000Z</time>
      </trkpt>
      <trkpt lat="45.31787" lon="6.24635">
        <ele>1166.4000244141</ele>
        <time>2014-03-02T07:23:20.000Z</time>
      </trkpt>
      <trkpt lat="45.31788" lon="6.24633">
        <ele>1166.4000244141</ele>
        <time>2014-03-02T07:23:21.000Z</time>
      </trkpt>
      <trkpt lat="45.31788" lon="6.24633">
        <ele>1166.5999755859</ele>
        <time>2014-03-02T07:23:22.000Z</time>
      </trkpt>
      <trkpt lat="45.31789" lon="6.24632">
        <ele>1166.5999755859</ele>
        <time>2014-03-02T07:23:23.000Z</time>
      </trkpt>
      <trkpt lat="45.31789" lon="6.24632">
        <ele>1166.5999755859</ele>
        <time>2014-03-02T07:23:24.000Z</time>
      </trkpt>
      <trkpt lat="45.31789" lon="6.24631">
        <ele>1166.5999755859</ele>
        <time>2014-03-02T07:23:25.000Z</time>
      </trkpt>
      <trkpt lat="45.3179" lon="6.2463">
        <ele>1166.8000488281</ele>
        <time>2014-03-02T07:23:26.000Z</time>
      </trkpt>
      <trkpt lat="45.31791" lon="6.24629">
        <ele>1167</ele>
        <time>2014-03-02T07:23:27.000Z</time>
      </trkpt>
      <trkpt lat="45.31791" lon="6.24627">
        <ele>1167.1999511719</ele>
        <time>2014-03-02T07:23:28.000Z</time>
      </trkpt>
      <trkpt lat="45.31793" lon="6.24625">
        <ele>1167.4000244141</ele>
        <time>2014-03-02T07:23:29.000Z</time>
      </trkpt>
      <trkpt lat="45.31793" lon="6.24625">
        <ele>1167.4000244141</ele>
        <time>2014-03-02T07:23:30.000Z</time>
      </trkpt>
      <trkpt lat="45.31793" lon="6.24624">
        <ele>1167.5999755859</ele>
        <time>2014-03-02T07:23:31.000Z</time>
      </trkpt>
      <trkpt lat="45.31794" lon="6.24623">
        <ele>1167.5999755859</ele>
        <time>2014-03-02T07:23:32.000Z</time>
      </trkpt>
      <trkpt lat="45.31794" lon="6.24622">
        <ele>1167.5999755859</ele>
        <time>2014-03-02T07:23:33.000Z</time>
      </trkpt>
      <trkpt lat="45.31795" lon="6.24621">
        <ele>1167.8000488281</ele>
        <time>2014-03-02T07:23:34.000Z</time>
      </trkpt>
      <trkpt lat="45.31795" lon="6.24619">
        <ele>1167.8000488281</ele>
        <time>2014-03-02T07:23:35.000Z</time>
      </trkpt>
      <trkpt lat="45.31795" lon="6.24619">
        <ele>1168</ele>
        <time>2014-03-02T07:23:36.000Z</time>
      </trkpt>
      <trkpt lat="45.31796" lon="6.24618">
        <ele>1168</ele>
        <time>2014-03-02T07:23:37.000Z</time>
      </trkpt>
      <trkpt lat="45.31796" lon="6.24618">
        <ele>1168</ele>
        <time>2014-03-02T07:23:38.000Z</time>
      </trkpt>
      <trkpt lat="45.31796" lon="6.24618">
        <ele>1168.1999511719</ele>
        <time>2014-03-02T07:23:39.000Z</time>
      </trkpt>
      <trkpt lat="45.31797" lon="6.24617">
        <ele>1168.1999511719</ele>
        <time>2014-03-02T07:23:40.000Z</time>
      </trkpt>
      <trkpt lat="45.31797" lon="6.24616">
        <ele>1168.1999511719</ele>
        <time>2014-03-02T07:23:41.000Z</time>
      </trkpt>
      <trkpt lat="45.31797" lon="6.24615">
        <ele>1168.4000244141</ele>
        <time>2014-03-02T07:23:42.000Z</time>
      </trkpt>
      <trkpt lat="45.31797" lon="6.24614">
        <ele>1168.4000244141</ele>
        <time>2014-03-02T07:23:43.000Z</time>
      </trkpt>
      <trkpt lat="45.31797" lon="6.24612">
        <ele>1168.4000244141</ele>
        <time>2014-03-02T07:23:44.000Z</time>
      </trkpt>
      <trkpt lat="45.31797" lon="6.24612">
        <ele>1168.4000244141</ele>
        <time>2014-03-02T07:23:45.000Z</time>
      </trkpt>
      <trkpt lat="45.31797" lon="6.24611">
        <ele>1168.1999511719</ele>
        <time>2014-03-02T07:23:46.000Z</time>
      </trkpt>
      <trkpt lat="45.31797" lon="6.2461">
        <ele>1168.1999511719</ele>
        <time>2014-03-02T07:23:47.000Z</time>
      </trkpt>
      <trkpt lat="45.31798" lon="6.24608">
        <ele>1168.4000244141</ele>
        <time>2014-03-02T07:23:48.000Z</time>
      </trkpt>
      <trkpt lat="45.31798" lon="6.24606">
        <ele>1168.4000244141</ele>
        <time>2014-03-02T07:23:49.000Z</time>
      </trkpt>
      <trkpt lat="45.31798" lon="6.24605">
        <ele>1168.5999755859</ele>
        <time>2014-03-02T07:23:50.000Z</time>
      </trkpt>
      <trkpt lat="45.31798" lon="6.24604">
        <ele>1168.8000488281</ele>
        <time>2014-03-02T07:23:51.000Z</time>
      </trkpt>
      <trkpt lat="45.31798" lon="6.24603">
        <ele>1168.5999755859</ele>
        <time>2014-03-02T07:23:52.000Z</time>
      </trkpt>
      <trkpt lat="45.31798" lon="6.24601">
        <ele>1168.8000488281</ele>
        <time>2014-03-02T07:23:53.000Z</time>
      </trkpt>
      <trkpt lat="45.31798" lon="6.246">
        <ele>1168.5999755859</ele>
        <time>2014-03-02T07:23:54.000Z</time>
      </trkpt>
      <trkpt lat="45.31798" lon="6.24598">
        <ele>1168.5999755859</ele>
        <time>2014-03-02T07:23:55.000Z</time>
      </trkpt>
      <trkpt lat="45.31798" lon="6.24597">
        <ele>1168.4000244141</ele>
        <time>2014-03-02T07:23:56.000Z</time>
      </trkpt>
      <trkpt lat="45.31798" lon="6.24597">
        <ele>1168.4000244141</ele>
        <time>2014-03-02T07:23:57.000Z</time>
      </trkpt>
      <trkpt lat="45.31798" lon="6.24595">
        <ele>1168.4000244141</ele>
        <time>2014-03-02T07:23:58.000Z</time>
      </trkpt>
      <trkpt lat="45.31798" lon="6.24594">
        <ele>1168.4000244141</ele>
        <time>2014-03-02T07:23:59.000Z</time>
      </trkpt>
      <trkpt lat="45.31798" lon="6.24592">
        <ele>1168.4000244141</ele>
        <time>2014-03-02T07:24:00.000Z</time>
      </trkpt>
      <trkpt lat="45.31799" lon="6.24591">
        <ele>1168.8000488281</ele>
        <time>2014-03-02T07:24:01.000Z</time>
      </trkpt>
      <trkpt lat="45.31799" lon="6.24589">
        <ele>1169</ele>
        <time>2014-03-02T07:24:02.000Z</time>
      </trkpt>
      <trkpt lat="45.31799" lon="6.24588">
        <ele>1169</ele>
        <time>2014-03-02T07:24:03.000Z</time>
      </trkpt>
      <trkpt lat="45.31799" lon="6.24586">
        <ele>1169</ele>
        <time>2014-03-02T07:24:04.000Z</time>
      </trkpt>
      <trkpt lat="45.31799" lon="6.24586">
        <ele>1169</ele>
        <time>2014-03-02T07:24:05.000Z</time>
      </trkpt>
      <trkpt lat="45.31799" lon="6.24585">
        <ele>1168.8000488281</ele>
        <time>2014-03-02T07:24:06.000Z</time>
      </trkpt>
      <trkpt lat="45.31799" lon="6.24584">
        <ele>1169</ele>
        <time>2014-03-02T07:24:07.000Z</time>
      </trkpt>
      <trkpt lat="45.318" lon="6.24583">
        <ele>1169</ele>
        <time>2014-03-02T07:24:08.000Z</time>
      </trkpt>
      <trkpt lat="45.318" lon="6.24581">
        <ele>1169.4000244141</ele>
        <time>2014-03-02T07:24:09.000Z</time>
      </trkpt>
      <trkpt lat="45.318" lon="6.2458">
        <ele>1169.5999755859</ele>
        <time>2014-03-02T07:24:10.000Z</time>
      </trkpt>
      <trkpt lat="45.31801" lon="6.24579">
        <ele>1169.8000488281</ele>
        <time>2014-03-02T07:24:11.000Z</time>
      </trkpt>
      <trkpt lat="45.31801" lon="6.24578">
        <ele>1170.1999511719</ele>
        <time>2014-03-02T07:24:12.000Z</time>
      </trkpt>
      <trkpt lat="45.31802" lon="6.24578">
        <ele>1170.1999511719</ele>
        <time>2014-03-02T07:24:13.000Z</time>
      </trkpt>
      <trkpt lat="45.31802" lon="6.24577">
        <ele>1170.4000244141</ele>
        <time>2014-03-02T07:24:14.000Z</time>
      </trkpt>
      <trkpt lat="45.31802" lon="6.24576">
        <ele>1170.4000244141</ele>
        <time>2014-03-02T07:24:15.000Z</time>
      </trkpt>
      <trkpt lat="45.31802" lon="6.24575">
        <ele>1170.5999755859</ele>
        <time>2014-03-02T07:24:16.000Z</time>
      </trkpt>
      <trkpt lat="45.31802" lon="6.24574">
        <ele>1170.5999755859</ele>
        <time>2014-03-02T07:24:17.000Z</time>
      </trkpt>
      <trkpt lat="45.31803" lon="6.24573">
        <ele>1170.8000488281</ele>
        <time>2014-03-02T07:24:18.000Z</time>
      </trkpt>
      <trkpt lat="45.31803" lon="6.24572">
        <ele>1170.8000488281</ele>
        <time>2014-03-02T07:24:19.000Z</time>
      </trkpt>
      <trkpt lat="45.31803" lon="6.24571">
        <ele>1171</ele>
        <time>2014-03-02T07:24:20.000Z</time>
      </trkpt>
      <trkpt lat="45.31803" lon="6.2457">
        <ele>1171.1999511719</ele>
        <time>2014-03-02T07:24:21.000Z</time>
      </trkpt>
      <trkpt lat="45.31803" lon="6.2457">
        <ele>1171.1999511719</ele>
        <time>2014-03-02T07:24:22.000Z</time>
      </trkpt>
      <trkpt lat="45.31804" lon="6.24569">
        <ele>1171.4000244141</ele>
        <time>2014-03-02T07:24:23.000Z</time>
      </trkpt>
      <trkpt lat="45.31804" lon="6.24568">
        <ele>1171.5999755859</ele>
        <time>2014-03-02T07:24:24.000Z</time>
      </trkpt>
      <trkpt lat="45.31805" lon="6.24567">
        <ele>1172</ele>
        <time>2014-03-02T07:24:25.000Z</time>
      </trkpt>
      <trkpt lat="45.31805" lon="6.24566">
        <ele>1172.4000244141</ele>
        <time>2014-03-02T07:24:26.000Z</time>
      </trkpt>
      <trkpt lat="45.31806" lon="6.24564">
        <ele>1173</ele>
        <time>2014-03-02T07:24:27.000Z</time>
      </trkpt>
      <trkpt lat="45.31806" lon="6.24564">
        <ele>1173</ele>
        <time>2014-03-02T07:24:28.000Z</time>
      </trkpt>
      <trkpt lat="45.31808" lon="6.24562">
        <ele>1174</ele>
        <time>2014-03-02T07:24:29.000Z</time>
      </trkpt>
      <trkpt lat="45.31808" lon="6.24562">
        <ele>1174.1999511719</ele>
        <time>2014-03-02T07:24:30.000Z</time>
      </trkpt>
      <trkpt lat="45.31809" lon="6.24562">
        <ele>1174.5999755859</ele>
        <time>2014-03-02T07:24:31.000Z</time>
      </trkpt>
      <trkpt lat="45.31809" lon="6.24562">
        <ele>1175</ele>
        <time>2014-03-02T07:24:32.000Z</time>
      </trkpt>
      <trkpt lat="45.3181" lon="6.24561">
        <ele>1175.4000244141</ele>
        <time>2014-03-02T07:24:33.000Z</time>
      </trkpt>
      <trkpt lat="45.3181" lon="6.2456">
        <ele>1175.5999755859</ele>
        <time>2014-03-02T07:24:34.000Z</time>
      </trkpt>
      <trkpt lat="45.3181" lon="6.24559">
        <ele>1175.5999755859</ele>
        <time>2014-03-02T07:24:35.000Z</time>
      </trkpt>
      <trkpt lat="45.3181" lon="6.24556">
        <ele>1176</ele>
        <time>2014-03-02T07:24:36.000Z</time>
      </trkpt>
      <trkpt lat="45.31811" lon="6.24556">
        <ele>1176.1999511719</ele>
        <time>2014-03-02T07:24:37.000Z</time>
      </trkpt>
      <trkpt lat="45.31811" lon="6.24556">
        <ele>1176.4000244141</ele>
        <time>2014-03-02T07:24:38.000Z</time>
      </trkpt>
      <trkpt lat="45.31812" lon="6.24555">
        <ele>1176.8000488281</ele>
        <time>2014-03-02T07:24:39.000Z</time>
      </trkpt>
      <trkpt lat="45.31812" lon="6.24554">
        <ele>1177</ele>
        <time>2014-03-02T07:24:40.000Z</time>
      </trkpt>
      <trkpt lat="45.31812" lon="6.24553">
        <ele>1177</ele>
        <time>2014-03-02T07:24:41.000Z</time>
      </trkpt>
      <trkpt lat="45.31812" lon="6.24552">
        <ele>1177.1999511719</ele>
        <time>2014-03-02T07:24:42.000Z</time>
      </trkpt>
      <trkpt lat="45.31813" lon="6.2455">
        <ele>1177.8000488281</ele>
        <time>2014-03-02T07:24:43.000Z</time>
      </trkpt>
      <trkpt lat="45.31814" lon="6.24548">
        <ele>1178.1999511719</ele>
        <time>2014-03-02T07:24:44.000Z</time>
      </trkpt>
      <trkpt lat="45.31814" lon="6.24548">
        <ele>1178.1999511719</ele>
        <time>2014-03-02T07:24:45.000Z</time>
      </trkpt>
      <trkpt lat="45.31814" lon="6.24547">
        <ele>1178.4000244141</ele>
        <time>2014-03-02T07:24:46.000Z</time>
      </trkpt>
      <trkpt lat="45.31814" lon="6.24547">
        <ele>1178.4000244141</ele>
        <time>2014-03-02T07:24:47.000Z</time>
      </trkpt>
      <trkpt lat="45.31814" lon="6.24547">
        <ele>1178.4000244141</ele>
        <time>2014-03-02T07:24:48.000Z</time>
      </trkpt>
      <trkpt lat="45.31814" lon="6.24547">
        <ele>1178.4000244141</ele>
        <time>2014-03-02T07:24:49.000Z</time>
      </trkpt>
      <trkpt lat="45.31814" lon="6.24547">
        <ele>1178.4000244141</ele>
        <time>2014-03-02T07:24:50.000Z</time>
      </trkpt>
      <trkpt lat="45.31814" lon="6.24547">
        <ele>1178.4000244141</ele>
        <time>2014-03-02T07:24:51.000Z</time>
      </trkpt>
      <trkpt lat="45.31814" lon="6.24547">
        <ele>1178.4000244141</ele>
        <time>2014-03-02T07:24:52.000Z</time>
      </trkpt>
      <trkpt lat="45.31814" lon="6.24546">
        <ele>1178.5999755859</ele>
        <time>2014-03-02T07:24:54.000Z</time>
      </trkpt>
      <trkpt lat="45.31814" lon="6.24546">
        <ele>1178.5999755859</ele>
        <time>2014-03-02T07:24:55.000Z</time>
      </trkpt>
      <trkpt lat="45.31815" lon="6.24545">
        <ele>1179.1999511719</ele>
        <time>2014-03-02T07:24:56.000Z</time>
      </trkpt>
      <trkpt lat="45.31816" lon="6.24544">
        <ele>1179.8000488281</ele>
        <time>2014-03-02T07:24:57.000Z</time>
      </trkpt>
      <trkpt lat="45.31816" lon="6.24544">
        <ele>1179.8000488281</ele>
        <time>2014-03-02T07:24:58.000Z</time>
      </trkpt>
      <trkpt lat="45.31817" lon="6.24542">
        <ele>1180.8000488281</ele>
        <time>2014-03-02T07:24:59.000Z</time>
      </trkpt>
      <trkpt lat="45.31817" lon="6.24542">
        <ele>1180.8000488281</ele>
        <time>2014-03-02T07:25:00.000Z</time>
      </trkpt>
      <trkpt lat="45.31818" lon="6.24541">
        <ele>1181</ele>
        <time>2014-03-02T07:25:01.000Z</time>
      </trkpt>
      <trkpt lat="45.31818" lon="6.2454">
        <ele>1181.1999511719</ele>
        <time>2014-03-02T07:25:02.000Z</time>
      </trkpt>
      <trkpt lat="45.31818" lon="6.24539">
        <ele>1181.4000244141</ele>
        <time>2014-03-02T07:25:03.000Z</time>
      </trkpt>
      <trkpt lat="45.31819" lon="6.24536">
        <ele>1181.5999755859</ele>
        <time>2014-03-02T07:25:04.000Z</time>
      </trkpt>
      <trkpt lat="45.31819" lon="6.24536">
        <ele>1181.5999755859</ele>
        <time>2014-03-02T07:25:05.000Z</time>
      </trkpt>
      <trkpt lat="45.31819" lon="6.24533">
        <ele>1182.1999511719</ele>
        <time>2014-03-02T07:25:06.000Z</time>
      </trkpt>
      <trkpt lat="45.3182" lon="6.24533">
        <ele>1182.1999511719</ele>
        <time>2014-03-02T07:25:07.000Z</time>
      </trkpt>
      <trkpt lat="45.3182" lon="6.24532">
        <ele>1182.5999755859</ele>
        <time>2014-03-02T07:25:08.000Z</time>
      </trkpt>
      <trkpt lat="45.31821" lon="6.24531">
        <ele>1182.8000488281</ele>
        <time>2014-03-02T07:25:09.000Z</time>
      </trkpt>
      <trkpt lat="45.31821" lon="6.2453">
        <ele>1183.1999511719</ele>
        <time>2014-03-02T07:25:10.000Z</time>
      </trkpt>
      <trkpt lat="45.31822" lon="6.24529">
        <ele>1183.5999755859</ele>
        <time>2014-03-02T07:25:11.000Z</time>
      </trkpt>
      <trkpt lat="45.31822" lon="6.24528">
        <ele>1183.8000488281</ele>
        <time>2014-03-02T07:25:12.000Z</time>
      </trkpt>
      <trkpt lat="45.31822" lon="6.24526">
        <ele>1184.1999511719</ele>
        <time>2014-03-02T07:25:13.000Z</time>
      </trkpt>
      <trkpt lat="45.31822" lon="6.24526">
        <ele>1184.1999511719</ele>
        <time>2014-03-02T07:25:14.000Z</time>
      </trkpt>
      <trkpt lat="45.31823" lon="6.24525">
        <ele>1184.5999755859</ele>
        <time>2014-03-02T07:25:15.000Z</time>
      </trkpt>
      <trkpt lat="45.31824" lon="6.24524">
        <ele>1185</ele>
        <time>2014-03-02T07:25:16.000Z</time>
      </trkpt>
      <trkpt lat="45.31824" lon="6.24523">
        <ele>1185.4000244141</ele>
        <time>2014-03-02T07:25:17.000Z</time>
      </trkpt>
      <trkpt lat="45.31825" lon="6.24522">
        <ele>1185.5999755859</ele>
        <time>2014-03-02T07:25:18.000Z</time>
      </trkpt>
      <trkpt lat="45.31825" lon="6.24521">
        <ele>1186.1999511719</ele>
        <time>2014-03-02T07:25:19.000Z</time>
      </trkpt>
      <trkpt lat="45.31826" lon="6.2452">
        <ele>1186.5999755859</ele>
        <time>2014-03-02T07:25:20.000Z</time>
      </trkpt>
      <trkpt lat="45.31826" lon="6.24519">
        <ele>1186.8000488281</ele>
        <time>2014-03-02T07:25:21.000Z</time>
      </trkpt>
      <trkpt lat="45.31826" lon="6.24519">
        <ele>1186.8000488281</ele>
        <time>2014-03-02T07:25:22.000Z</time>
      </trkpt>
      <trkpt lat="45.31827" lon="6.24518">
        <ele>1187</ele>
        <time>2014-03-02T07:25:23.000Z</time>
      </trkpt>
      <trkpt lat="45.31827" lon="6.24518">
        <ele>1187</ele>
        <time>2014-03-02T07:25:24.000Z</time>
      </trkpt>
      <trkpt lat="45.31827" lon="6.24517">
        <ele>1187.4000244141</ele>
        <time>2014-03-02T07:25:25.000Z</time>
      </trkpt>
      <trkpt lat="45.31827" lon="6.24516">
        <ele>1187.5999755859</ele>
        <time>2014-03-02T07:25:26.000Z</time>
      </trkpt>
      <trkpt lat="45.31827" lon="6.24516">
        <ele>1187.5999755859</ele>
        <time>2014-03-02T07:25:27.000Z</time>
      </trkpt>
      <trkpt lat="45.31827" lon="6.24516">
        <ele>1187.5999755859</ele>
        <time>2014-03-02T07:25:28.000Z</time>
      </trkpt>
      <trkpt lat="45.31828" lon="6.24515">
        <ele>1187.8000488281</ele>
        <time>2014-03-02T07:25:29.000Z</time>
      </trkpt>
      <trkpt lat="45.31828" lon="6.24515">
        <ele>1187.8000488281</ele>
        <time>2014-03-02T07:25:30.000Z</time>
      </trkpt>
      <trkpt lat="45.31828" lon="6.24514">
        <ele>1188.4000244141</ele>
        <time>2014-03-02T07:25:31.000Z</time>
      </trkpt>
      <trkpt lat="45.31828" lon="6.24514">
        <ele>1188.4000244141</ele>
        <time>2014-03-02T07:25:32.000Z</time>
      </trkpt>
      <trkpt lat="45.31829" lon="6.24514">
        <ele>1188.8000488281</ele>
        <time>2014-03-02T07:25:33.000Z</time>
      </trkpt>
      <trkpt lat="45.3183" lon="6.24514">
        <ele>1189.4000244141</ele>
        <time>2014-03-02T07:25:34.000Z</time>
      </trkpt>
      <trkpt lat="45.31831" lon="6.24513">
        <ele>1189.8000488281</ele>
        <time>2014-03-02T07:25:35.000Z</time>
      </trkpt>
      <trkpt lat="45.31831" lon="6.24511">
        <ele>1189.8000488281</ele>
        <time>2014-03-02T07:25:36.000Z</time>
      </trkpt>
      <trkpt lat="45.31832" lon="6.2451">
        <ele>1190</ele>
        <time>2014-03-02T07:25:37.000Z</time>
      </trkpt>
      <trkpt lat="45.31832" lon="6.24509">
        <ele>1190</ele>
        <time>2014-03-02T07:25:38.000Z</time>
      </trkpt>
      <trkpt lat="45.31832" lon="6.24507">
        <ele>1189.8000488281</ele>
        <time>2014-03-02T07:25:39.000Z</time>
      </trkpt>
      <trkpt lat="45.31832" lon="6.24504">
        <ele>1189.4000244141</ele>
        <time>2014-03-02T07:25:40.000Z</time>
      </trkpt>
      <trkpt lat="45.31833" lon="6.24503">
        <ele>1189.5999755859</ele>
        <time>2014-03-02T07:25:41.000Z</time>
      </trkpt>
      <trkpt lat="45.31833" lon="6.24502">
        <ele>1189.5999755859</ele>
        <time>2014-03-02T07:25:42.000Z</time>
      </trkpt>
      <trkpt lat="45.31833" lon="6.24502">
        <ele>1189.5999755859</ele>
        <time>2014-03-02T07:25:43.000Z</time>
      </trkpt>
      <trkpt lat="45.31833" lon="6.24502">
        <ele>1189.5999755859</ele>
        <time>2014-03-02T07:25:44.000Z</time>
      </trkpt>
      <trkpt lat="45.31834" lon="6.24499">
        <ele>1190</ele>
        <time>2014-03-02T07:25:45.000Z</time>
      </trkpt>
      <trkpt lat="45.31835" lon="6.24498">
        <ele>1190.1999511719</ele>
        <time>2014-03-02T07:25:46.000Z</time>
      </trkpt>
      <trkpt lat="45.31835" lon="6.24498">
        <ele>1190.1999511719</ele>
        <time>2014-03-02T07:25:47.000Z</time>
      </trkpt>
      <trkpt lat="45.31836" lon="6.24496">
        <ele>1190.4000244141</ele>
        <time>2014-03-02T07:25:48.000Z</time>
      </trkpt>
      <trkpt lat="45.31836" lon="6.24496">
        <ele>1190.4000244141</ele>
        <time>2014-03-02T07:25:49.000Z</time>
      </trkpt>
      <trkpt lat="45.31837" lon="6.24495">
        <ele>1190.5999755859</ele>
        <time>2014-03-02T07:25:50.000Z</time>
      </trkpt>
      <trkpt lat="45.31838" lon="6.24494">
        <ele>1191</ele>
        <time>2014-03-02T07:25:51.000Z</time>
      </trkpt>
      <trkpt lat="45.31839" lon="6.24492">
        <ele>1191.4000244141</ele>
        <time>2014-03-02T07:25:52.000Z</time>
      </trkpt>
      <trkpt lat="45.31839" lon="6.24492">
        <ele>1191.4000244141</ele>
        <time>2014-03-02T07:25:53.000Z</time>
      </trkpt>
      <trkpt lat="45.31839" lon="6.24492">
        <ele>1191.4000244141</ele>
        <time>2014-03-02T07:25:54.000Z</time>
      </trkpt>
      <trkpt lat="45.3184" lon="6.24492">
        <ele>1191.5999755859</ele>
        <time>2014-03-02T07:25:55.000Z</time>
      </trkpt>
      <trkpt lat="45.3184" lon="6.2449">
        <ele>1191.4000244141</ele>
        <time>2014-03-02T07:25:56.000Z</time>
      </trkpt>
      <trkpt lat="45.3184" lon="6.24489">
        <ele>1191.4000244141</ele>
        <time>2014-03-02T07:25:57.000Z</time>
      </trkpt>
      <trkpt lat="45.3184" lon="6.24489">
        <ele>1191.4000244141</ele>
        <time>2014-03-02T07:25:58.000Z</time>
      </trkpt>
      <trkpt lat="45.3184" lon="6.24487">
        <ele>1191.4000244141</ele>
        <time>2014-03-02T07:25:59.000Z</time>
      </trkpt>
      <trkpt lat="45.3184" lon="6.24487">
        <ele>1191.4000244141</ele>
        <time>2014-03-02T07:26:00.000Z</time>
      </trkpt>
      <trkpt lat="45.31841" lon="6.24486">
        <ele>1191.4000244141</ele>
        <time>2014-03-02T07:26:01.000Z</time>
      </trkpt>
      <trkpt lat="45.31841" lon="6.24485">
        <ele>1191.5999755859</ele>
        <time>2014-03-02T07:26:02.000Z</time>
      </trkpt>
      <trkpt lat="45.31841" lon="6.24485">
        <ele>1191.5999755859</ele>
        <time>2014-03-02T07:26:03.000Z</time>
      </trkpt>
      <trkpt lat="45.31841" lon="6.24484">
        <ele>1191.4000244141</ele>
        <time>2014-03-02T07:26:04.000Z</time>
      </trkpt>
      <trkpt lat="45.31842" lon="6.24484">
        <ele>1191.5999755859</ele>
        <time>2014-03-02T07:26:05.000Z</time>
      </trkpt>
      <trkpt lat="45.31842" lon="6.24484">
        <ele>1191.5999755859</ele>
        <time>2014-03-02T07:26:06.000Z</time>
      </trkpt>
      <trkpt lat="45.31842" lon="6.24482">
        <ele>1191.8000488281</ele>
        <time>2014-03-02T07:26:07.000Z</time>
      </trkpt>
      <trkpt lat="45.31843" lon="6.24482">
        <ele>1192</ele>
        <time>2014-03-02T07:26:08.000Z</time>
      </trkpt>
      <trkpt lat="45.31843" lon="6.24481">
        <ele>1192.1999511719</ele>
        <time>2014-03-02T07:26:09.000Z</time>
      </trkpt>
      <trkpt lat="45.31843" lon="6.24481">
        <ele>1192.1999511719</ele>
        <time>2014-03-02T07:26:10.000Z</time>
      </trkpt>
      <trkpt lat="45.31843" lon="6.24481">
        <ele>1192.1999511719</ele>
        <time>2014-03-02T07:26:11.000Z</time>
      </trkpt>
      <trkpt lat="45.31844" lon="6.2448">
        <ele>1192.4000244141</ele>
        <time>2014-03-02T07:26:12.000Z</time>
      </trkpt>
      <trkpt lat="45.31844" lon="6.2448">
        <ele>1192.4000244141</ele>
        <time>2014-03-02T07:26:13.000Z</time>
      </trkpt>
      <trkpt lat="45.31845" lon="6.24479">
        <ele>1192.8000488281</ele>
        <time>2014-03-02T07:26:14.000Z</time>
      </trkpt>
      <trkpt lat="45.31845" lon="6.24479">
        <ele>1192.8000488281</ele>
        <time>2014-03-02T07:26:15.000Z</time>
      </trkpt>
      <trkpt lat="45.31847" lon="6.24477">
        <ele>1194</ele>
        <time>2014-03-02T07:26:16.000Z</time>
      </trkpt>
      <trkpt lat="45.31847" lon="6.24477">
        <ele>1194</ele>
        <time>2014-03-02T07:26:17.000Z</time>
      </trkpt>
      <trkpt lat="45.31849" lon="6.24474">
        <ele>1195.1999511719</ele>
        <time>2014-03-02T07:26:18.000Z</time>
      </trkpt>
      <trkpt lat="45.31849" lon="6.24473">
        <ele>1195.8000488281</ele>
        <time>2014-03-02T07:26:19.000Z</time>
      </trkpt>
      <trkpt lat="45.31849" lon="6.24473">
        <ele>1195.8000488281</ele>
        <time>2014-03-02T07:26:20.000Z</time>
      </trkpt>
      <trkpt lat="45.3185" lon="6.24472">
        <ele>1196.1999511719</ele>
        <time>2014-03-02T07:26:21.000Z</time>
      </trkpt>
      <trkpt lat="45.31851" lon="6.24471">
        <ele>1197</ele>
        <time>2014-03-02T07:26:22.000Z</time>
      </trkpt>
      <trkpt lat="45.31852" lon="6.24469">
        <ele>1197.4000244141</ele>
        <time>2014-03-02T07:26:23.000Z</time>
      </trkpt>
      <trkpt lat="45.31852" lon="6.24467">
        <ele>1198</ele>
        <time>2014-03-02T07:26:24.000Z</time>
      </trkpt>
      <trkpt lat="45.31853" lon="6.24467">
        <ele>1198.4000244141</ele>
        <time>2014-03-02T07:26:25.000Z</time>
      </trkpt>
      <trkpt lat="45.31853" lon="6.24466">
        <ele>1198.5999755859</ele>
        <time>2014-03-02T07:26:26.000Z</time>
      </trkpt>
      <trkpt lat="45.31854" lon="6.24466">
        <ele>1199</ele>
        <time>2014-03-02T07:26:27.000Z</time>
      </trkpt>
      <trkpt lat="45.31855" lon="6.24465">
        <ele>1199.4000244141</ele>
        <time>2014-03-02T07:26:28.000Z</time>
      </trkpt>
      <trkpt lat="45.31855" lon="6.24464">
        <ele>1199.8000488281</ele>
        <time>2014-03-02T07:26:29.000Z</time>
      </trkpt>
      <trkpt lat="45.31856" lon="6.24463">
        <ele>1200.4000244141</ele>
        <time>2014-03-02T07:26:30.000Z</time>
      </trkpt>
      <trkpt lat="45.31856" lon="6.24463">
        <ele>1200.4000244141</ele>
        <time>2014-03-02T07:26:31.000Z</time>
      </trkpt>
      <trkpt lat="45.31857" lon="6.24462">
        <ele>1201</ele>
        <time>2014-03-02T07:26:32.000Z</time>
      </trkpt>
      <trkpt lat="45.31858" lon="6.24461">
        <ele>1201.4000244141</ele>
        <time>2014-03-02T07:26:33.000Z</time>
      </trkpt>
      <trkpt lat="45.31859" lon="6.2446">
        <ele>1202.4000244141</ele>
        <time>2014-03-02T07:26:34.000Z</time>
      </trkpt>
      <trkpt lat="45.31859" lon="6.2446">
        <ele>1202.4000244141</ele>
        <time>2014-03-02T07:26:35.000Z</time>
      </trkpt>
      <trkpt lat="45.3186" lon="6.24459">
        <ele>1202.8000488281</ele>
        <time>2014-03-02T07:26:36.000Z</time>
      </trkpt>
      <trkpt lat="45.3186" lon="6.24459">
        <ele>1202.8000488281</ele>
        <time>2014-03-02T07:26:37.000Z</time>
      </trkpt>
      <trkpt lat="45.3186" lon="6.24459">
        <ele>1202.8000488281</ele>
        <time>2014-03-02T07:26:38.000Z</time>
      </trkpt>
      <trkpt lat="45.3186" lon="6.24459">
        <ele>1202.8000488281</ele>
        <time>2014-03-02T07:26:39.000Z</time>
      </trkpt>
      <trkpt lat="45.3186" lon="6.24459">
        <ele>1202.8000488281</ele>
        <time>2014-03-02T07:26:40.000Z</time>
      </trkpt>
      <trkpt lat="45.3186" lon="6.24459">
        <ele>1202.8000488281</ele>
        <time>2014-03-02T07:26:41.000Z</time>
      </trkpt>
      <trkpt lat="45.3186" lon="6.24459">
        <ele>1202.8000488281</ele>
        <time>2014-03-02T07:26:42.000Z</time>
      </trkpt>
      <trkpt lat="45.3186" lon="6.24459">
        <ele>1202.8000488281</ele>
        <time>2014-03-02T07:26:43.000Z</time>
      </trkpt>
      <trkpt lat="45.3186" lon="6.24459">
        <ele>1202.8000488281</ele>
        <time>2014-03-02T07:26:44.000Z</time>
      </trkpt>
      <trkpt lat="45.3186" lon="6.24457">
        <ele>1202.8000488281</ele>
        <time>2014-03-02T07:26:45.000Z</time>
      </trkpt>
      <trkpt lat="45.31861" lon="6.24456">
        <ele>1202.8000488281</ele>
        <time>2014-03-02T07:26:46.000Z</time>
      </trkpt>
      <trkpt lat="45.31862" lon="6.24454">
        <ele>1203</ele>
        <time>2014-03-02T07:26:47.000Z</time>
      </trkpt>
      <trkpt lat="45.31862" lon="6.24454">
        <ele>1203</ele>
        <time>2014-03-02T07:26:48.000Z</time>
      </trkpt>
      <trkpt lat="45.31862" lon="6.24453">
        <ele>1203</ele>
        <time>2014-03-02T07:26:49.000Z</time>
      </trkpt>
      <trkpt lat="45.31863" lon="6.24452">
        <ele>1203.1999511719</ele>
        <time>2014-03-02T07:26:50.000Z</time>
      </trkpt>
      <trkpt lat="45.31863" lon="6.24452">
        <ele>1203.1999511719</ele>
        <time>2014-03-02T07:26:51.000Z</time>
      </trkpt>
      <trkpt lat="45.31864" lon="6.24451">
        <ele>1203.1999511719</ele>
        <time>2014-03-02T07:26:52.000Z</time>
      </trkpt>
      <trkpt lat="45.31865" lon="6.24449">
        <ele>1203.1999511719</ele>
        <time>2014-03-02T07:26:53.000Z</time>
      </trkpt>
      <trkpt lat="45.31866" lon="6.24448">
        <ele>1203.4000244141</ele>
        <time>2014-03-02T07:26:54.000Z</time>
      </trkpt>
      <trkpt lat="45.31866" lon="6.24448">
        <ele>1203.4000244141</ele>
        <time>2014-03-02T07:26:55.000Z</time>
      </trkpt>
      <trkpt lat="45.31866" lon="6.24447">
        <ele>1203.4000244141</ele>
        <time>2014-03-02T07:26:56.000Z</time>
      </trkpt>
      <trkpt lat="45.31867" lon="6.24446">
        <ele>1203.5999755859</ele>
        <time>2014-03-02T07:26:57.000Z</time>
      </trkpt>
      <trkpt lat="45.31867" lon="6.24446">
        <ele>1203.5999755859</ele>
        <time>2014-03-02T07:26:58.000Z</time>
      </trkpt>
      <trkpt lat="45.31867" lon="6.24446">
        <ele>1203.5999755859</ele>
        <time>2014-03-02T07:26:59.000Z</time>
      </trkpt>
      <trkpt lat="45.31867" lon="6.24446">
        <ele>1203.5999755859</ele>
        <time>2014-03-02T07:27:00.000Z</time>
      </trkpt>
      <trkpt lat="45.31868" lon="6.24445">
        <ele>1203.8000488281</ele>
        <time>2014-03-02T07:27:01.000Z</time>
      </trkpt>
      <trkpt lat="45.31869" lon="6.24445">
        <ele>1204</ele>
        <time>2014-03-02T07:27:02.000Z</time>
      </trkpt>
      <trkpt lat="45.31869" lon="6.24445">
        <ele>1204</ele>
        <time>2014-03-02T07:27:03.000Z</time>
      </trkpt>
      <trkpt lat="45.31869" lon="6.24445">
        <ele>1204</ele>
        <time>2014-03-02T07:27:04.000Z</time>
      </trkpt>
      <trkpt lat="45.31871" lon="6.24443">
        <ele>1204.4000244141</ele>
        <time>2014-03-02T07:27:05.000Z</time>
      </trkpt>
      <trkpt lat="45.31871" lon="6.24443">
        <ele>1204.4000244141</ele>
        <time>2014-03-02T07:27:06.000Z</time>
      </trkpt>
      <trkpt lat="45.31871" lon="6.24442">
        <ele>1204.4000244141</ele>
        <time>2014-03-02T07:27:07.000Z</time>
      </trkpt>
      <trkpt lat="45.31871" lon="6.24442">
        <ele>1204.4000244141</ele>
        <time>2014-03-02T07:27:08.000Z</time>
      </trkpt>
      <trkpt lat="45.31872" lon="6.2444">
        <ele>1204.4000244141</ele>
        <time>2014-03-02T07:27:09.000Z</time>
      </trkpt>
      <trkpt lat="45.31872" lon="6.24438">
        <ele>1204.1999511719</ele>
        <time>2014-03-02T07:27:10.000Z</time>
      </trkpt>
      <trkpt lat="45.31873" lon="6.24437">
        <ele>1204.1999511719</ele>
        <time>2014-03-02T07:27:11.000Z</time>
      </trkpt>
      <trkpt lat="45.31873" lon="6.24436">
        <ele>1204.1999511719</ele>
        <time>2014-03-02T07:27:12.000Z</time>
      </trkpt>
      <trkpt lat="45.31874" lon="6.24435">
        <ele>1204.1999511719</ele>
        <time>2014-03-02T07:27:13.000Z</time>
      </trkpt>
      <trkpt lat="45.31874" lon="6.24435">
        <ele>1204.1999511719</ele>
        <time>2014-03-02T07:27:14.000Z</time>
      </trkpt>
      <trkpt lat="45.31874" lon="6.24434">
        <ele>1204.4000244141</ele>
        <time>2014-03-02T07:27:15.000Z</time>
      </trkpt>
      <trkpt lat="45.31874" lon="6.24434">
        <ele>1204.4000244141</ele>
        <time>2014-03-02T07:27:16.000Z</time>
      </trkpt>
      <trkpt lat="45.31874" lon="6.24434">
        <ele>1204.4000244141</ele>
        <time>2014-03-02T07:27:17.000Z</time>
      </trkpt>
      <trkpt lat="45.31874" lon="6.24434">
        <ele>1204.4000244141</ele>
        <time>2014-03-02T07:27:18.000Z</time>
      </trkpt>
      <trkpt lat="45.31875" lon="6.24432">
        <ele>1204.4000244141</ele>
        <time>2014-03-02T07:27:19.000Z</time>
      </trkpt>
      <trkpt lat="45.31875" lon="6.24432">
        <ele>1204.4000244141</ele>
        <time>2014-03-02T07:27:20.000Z</time>
      </trkpt>
      <trkpt lat="45.31876" lon="6.2443">
        <ele>1204.4000244141</ele>
        <time>2014-03-02T07:27:21.000Z</time>
      </trkpt>
      <trkpt lat="45.31878" lon="6.24428">
        <ele>1204.8000488281</ele>
        <time>2014-03-02T07:27:22.000Z</time>
      </trkpt>
      <trkpt lat="45.31879" lon="6.24427">
        <ele>1205</ele>
        <time>2014-03-02T07:27:23.000Z</time>
      </trkpt>
      <trkpt lat="45.31879" lon="6.24427">
        <ele>1205</ele>
        <time>2014-03-02T07:27:24.000Z</time>
      </trkpt>
      <trkpt lat="45.31879" lon="6.24427">
        <ele>1205</ele>
        <time>2014-03-02T07:27:25.000Z</time>
      </trkpt>
      <trkpt lat="45.31879" lon="6.24427">
        <ele>1205</ele>
        <time>2014-03-02T07:27:26.000Z</time>
      </trkpt>
      <trkpt lat="45.31879" lon="6.24427">
        <ele>1205</ele>
        <time>2014-03-02T07:27:27.000Z</time>
      </trkpt>
      <trkpt lat="45.3188" lon="6.24426">
        <ele>1205</ele>
        <time>2014-03-02T07:27:28.000Z</time>
      </trkpt>
      <trkpt lat="45.3188" lon="6.24424">
        <ele>1205</ele>
        <time>2014-03-02T07:27:29.000Z</time>
      </trkpt>
      <trkpt lat="45.31881" lon="6.24423">
        <ele>1205.4000244141</ele>
        <time>2014-03-02T07:27:30.000Z</time>
      </trkpt>
      <trkpt lat="45.31882" lon="6.24422">
        <ele>1206</ele>
        <time>2014-03-02T07:27:31.000Z</time>
      </trkpt>
      <trkpt lat="45.31884" lon="6.24421">
        <ele>1206.5999755859</ele>
        <time>2014-03-02T07:27:32.000Z</time>
      </trkpt>
      <trkpt lat="45.31885" lon="6.24419">
        <ele>1207.1999511719</ele>
        <time>2014-03-02T07:27:33.000Z</time>
      </trkpt>
      <trkpt lat="45.31886" lon="6.24418">
        <ele>1207.8000488281</ele>
        <time>2014-03-02T07:27:34.000Z</time>
      </trkpt>
      <trkpt lat="45.31886" lon="6.24417">
        <ele>1208</ele>
        <time>2014-03-02T07:27:35.000Z</time>
      </trkpt>
      <trkpt lat="45.31886" lon="6.24417">
        <ele>1208</ele>
        <time>2014-03-02T07:27:36.000Z</time>
      </trkpt>
      <trkpt lat="45.31886" lon="6.24417">
        <ele>1208</ele>
        <time>2014-03-02T07:27:37.000Z</time>
      </trkpt>
      <trkpt lat="45.31886" lon="6.24417">
        <ele>1208</ele>
        <time>2014-03-02T07:27:38.000Z</time>
      </trkpt>
      <trkpt lat="45.31886" lon="6.24417">
        <ele>1208</ele>
        <time>2014-03-02T07:27:39.000Z</time>
      </trkpt>
      <trkpt lat="45.31887" lon="6.24416">
        <ele>1208.4000244141</ele>
        <time>2014-03-02T07:27:40.000Z</time>
      </trkpt>
      <trkpt lat="45.31888" lon="6.24415">
        <ele>1208.8000488281</ele>
        <time>2014-03-02T07:27:41.000Z</time>
      </trkpt>
      <trkpt lat="45.31888" lon="6.24415">
        <ele>1208.8000488281</ele>
        <time>2014-03-02T07:27:42.000Z</time>
      </trkpt>
      <trkpt lat="45.31889" lon="6.24414">
        <ele>1209.4000244141</ele>
        <time>2014-03-02T07:27:43.000Z</time>
      </trkpt>
      <trkpt lat="45.31889" lon="6.24414">
        <ele>1209.4000244141</ele>
        <time>2014-03-02T07:27:44.000Z</time>
      </trkpt>
      <trkpt lat="45.31889" lon="6.24414">
        <ele>1209.4000244141</ele>
        <time>2014-03-02T07:27:45.000Z</time>
      </trkpt>
      <trkpt lat="45.31889" lon="6.24414">
        <ele>1209.4000244141</ele>
        <time>2014-03-02T07:27:46.000Z</time>
      </trkpt>
      <trkpt lat="45.31889" lon="6.24414">
        <ele>1209.4000244141</ele>
        <time>2014-03-02T07:27:47.000Z</time>
      </trkpt>
      <trkpt lat="45.3189" lon="6.24414">
        <ele>1210</ele>
        <time>2014-03-02T07:27:48.000Z</time>
      </trkpt>
      <trkpt lat="45.31891" lon="6.24413">
        <ele>1210.8000488281</ele>
        <time>2014-03-02T07:27:49.000Z</time>
      </trkpt>
      <trkpt lat="45.31893" lon="6.24413">
        <ele>1211.5999755859</ele>
        <time>2014-03-02T07:27:50.000Z</time>
      </trkpt>
      <trkpt lat="45.31894" lon="6.24412">
        <ele>1212.1999511719</ele>
        <time>2014-03-02T07:27:51.000Z</time>
      </trkpt>
      <trkpt lat="45.31895" lon="6.24412">
        <ele>1212.5999755859</ele>
        <time>2014-03-02T07:27:52.000Z</time>
      </trkpt>
      <trkpt lat="45.31896" lon="6.24411">
        <ele>1213.1999511719</ele>
        <time>2014-03-02T07:27:53.000Z</time>
      </trkpt>
      <trkpt lat="45.31896" lon="6.2441">
        <ele>1213.5999755859</ele>
        <time>2014-03-02T07:27:54.000Z</time>
      </trkpt>
      <trkpt lat="45.31898" lon="6.24409">
        <ele>1214.1999511719</ele>
        <time>2014-03-02T07:27:55.000Z</time>
      </trkpt>
      <trkpt lat="45.31899" lon="6.24408">
        <ele>1214.5999755859</ele>
        <time>2014-03-02T07:27:56.000Z</time>
      </trkpt>
      <trkpt lat="45.31899" lon="6.24408">
        <ele>1214.5999755859</ele>
        <time>2014-03-02T07:27:57.000Z</time>
      </trkpt>
      <trkpt lat="45.319" lon="6.24406">
        <ele>1214.5999755859</ele>
        <time>2014-03-02T07:27:58.000Z</time>
      </trkpt>
      <trkpt lat="45.319" lon="6.24404">
        <ele>1214.8000488281</ele>
        <time>2014-03-02T07:27:59.000Z</time>
      </trkpt>
      <trkpt lat="45.31901" lon="6.24403">
        <ele>1214.8000488281</ele>
        <time>2014-03-02T07:28:00.000Z</time>
      </trkpt>
      <trkpt lat="45.31901" lon="6.24403">
        <ele>1214.8000488281</ele>
        <time>2014-03-02T07:28:01.000Z</time>
      </trkpt>
      <trkpt lat="45.31901" lon="6.24403">
        <ele>1214.8000488281</ele>
        <time>2014-03-02T07:28:02.000Z</time>
      </trkpt>
      <trkpt lat="45.31902" lon="6.24403">
        <ele>1215.1999511719</ele>
        <time>2014-03-02T07:28:03.000Z</time>
      </trkpt>
      <trkpt lat="45.31902" lon="6.24402">
        <ele>1215.4000244141</ele>
        <time>2014-03-02T07:28:04.000Z</time>
      </trkpt>
      <trkpt lat="45.31903" lon="6.24401">
        <ele>1215.5999755859</ele>
        <time>2014-03-02T07:28:05.000Z</time>
      </trkpt>
      <trkpt lat="45.31904" lon="6.24401">
        <ele>1216</ele>
        <time>2014-03-02T07:28:06.000Z</time>
      </trkpt>
      <trkpt lat="45.31904" lon="6.24401">
        <ele>1216</ele>
        <time>2014-03-02T07:28:07.000Z</time>
      </trkpt>
      <trkpt lat="45.31905" lon="6.24399">
        <ele>1216.4000244141</ele>
        <time>2014-03-02T07:28:08.000Z</time>
      </trkpt>
      <trkpt lat="45.31906" lon="6.24398">
        <ele>1216.5999755859</ele>
        <time>2014-03-02T07:28:09.000Z</time>
      </trkpt>
      <trkpt lat="45.31906" lon="6.24397">
        <ele>1216.8000488281</ele>
        <time>2014-03-02T07:28:10.000Z</time>
      </trkpt>
      <trkpt lat="45.31907" lon="6.24396">
        <ele>1217</ele>
        <time>2014-03-02T07:28:11.000Z</time>
      </trkpt>
      <trkpt lat="45.31907" lon="6.24395">
        <ele>1217.1999511719</ele>
        <time>2014-03-02T07:28:12.000Z</time>
      </trkpt>
      <trkpt lat="45.31908" lon="6.24394">
        <ele>1217.5999755859</ele>
        <time>2014-03-02T07:28:13.000Z</time>
      </trkpt>
      <trkpt lat="45.31908" lon="6.24392">
        <ele>1217.8000488281</ele>
        <time>2014-03-02T07:28:14.000Z</time>
      </trkpt>
      <trkpt lat="45.31909" lon="6.24391">
        <ele>1218.4000244141</ele>
        <time>2014-03-02T07:28:15.000Z</time>
      </trkpt>
      <trkpt lat="45.31909" lon="6.24389">
        <ele>1218.5999755859</ele>
        <time>2014-03-02T07:28:16.000Z</time>
      </trkpt>
      <trkpt lat="45.3191" lon="6.24388">
        <ele>1219</ele>
        <time>2014-03-02T07:28:17.000Z</time>
      </trkpt>
      <trkpt lat="45.3191" lon="6.24387">
        <ele>1219.4000244141</ele>
        <time>2014-03-02T07:28:18.000Z</time>
      </trkpt>
      <trkpt lat="45.31911" lon="6.24386">
        <ele>1220</ele>
        <time>2014-03-02T07:28:19.000Z</time>
      </trkpt>
      <trkpt lat="45.31912" lon="6.24386">
        <ele>1220.5999755859</ele>
        <time>2014-03-02T07:28:20.000Z</time>
      </trkpt>
      <trkpt lat="45.31913" lon="6.24384">
        <ele>1221.1999511719</ele>
        <time>2014-03-02T07:28:21.000Z</time>
      </trkpt>
      <trkpt lat="45.31913" lon="6.24383">
        <ele>1221.4000244141</ele>
        <time>2014-03-02T07:28:22.000Z</time>
      </trkpt>
      <trkpt lat="45.31914" lon="6.24382">
        <ele>1221.8000488281</ele>
        <time>2014-03-02T07:28:23.000Z</time>
      </trkpt>
      <trkpt lat="45.31915" lon="6.24381">
        <ele>1222.1999511719</ele>
        <time>2014-03-02T07:28:24.000Z</time>
      </trkpt>
      <trkpt lat="45.31915" lon="6.24381">
        <ele>1222.4000244141</ele>
        <time>2014-03-02T07:28:25.000Z</time>
      </trkpt>
      <trkpt lat="45.31915" lon="6.24381">
        <ele>1222.4000244141</ele>
        <time>2014-03-02T07:28:26.000Z</time>
      </trkpt>
      <trkpt lat="45.31915" lon="6.24381">
        <ele>1222.4000244141</ele>
        <time>2014-03-02T07:28:27.000Z</time>
      </trkpt>
      <trkpt lat="45.31916" lon="6.2438">
        <ele>1222.8000488281</ele>
        <time>2014-03-02T07:28:28.000Z</time>
      </trkpt>
      <trkpt lat="45.31916" lon="6.24378">
        <ele>1223</ele>
        <time>2014-03-02T07:28:29.000Z</time>
      </trkpt>
      <trkpt lat="45.31916" lon="6.24377">
        <ele>1223.1999511719</ele>
        <time>2014-03-02T07:28:30.000Z</time>
      </trkpt>
      <trkpt lat="45.31917" lon="6.24376">
        <ele>1223.5999755859</ele>
        <time>2014-03-02T07:28:31.000Z</time>
      </trkpt>
      <trkpt lat="45.31917" lon="6.24375">
        <ele>1223.5999755859</ele>
        <time>2014-03-02T07:28:32.000Z</time>
      </trkpt>
      <trkpt lat="45.31917" lon="6.24374">
        <ele>1223.8000488281</ele>
        <time>2014-03-02T07:28:33.000Z</time>
      </trkpt>
      <trkpt lat="45.31917" lon="6.24373">
        <ele>1224.1999511719</ele>
        <time>2014-03-02T07:28:34.000Z</time>
      </trkpt>
      <trkpt lat="45.31918" lon="6.24373">
        <ele>1224.4000244141</ele>
        <time>2014-03-02T07:28:35.000Z</time>
      </trkpt>
      <trkpt lat="45.31918" lon="6.24371">
        <ele>1224.8000488281</ele>
        <time>2014-03-02T07:28:36.000Z</time>
      </trkpt>
      <trkpt lat="45.31919" lon="6.24371">
        <ele>1225.4000244141</ele>
        <time>2014-03-02T07:28:37.000Z</time>
      </trkpt>
      <trkpt lat="45.31919" lon="6.2437">
        <ele>1225.5999755859</ele>
        <time>2014-03-02T07:28:38.000Z</time>
      </trkpt>
      <trkpt lat="45.31919" lon="6.2437">
        <ele>1225.5999755859</ele>
        <time>2014-03-02T07:28:39.000Z</time>
      </trkpt>
      <trkpt lat="45.3192" lon="6.24369">
        <ele>1225.8000488281</ele>
        <time>2014-03-02T07:28:40.000Z</time>
      </trkpt>
      <trkpt lat="45.3192" lon="6.24368">
        <ele>1226</ele>
        <time>2014-03-02T07:28:41.000Z</time>
      </trkpt>
      <trkpt lat="45.31921" lon="6.24366">
        <ele>1226.5999755859</ele>
        <time>2014-03-02T07:28:42.000Z</time>
      </trkpt>
      <trkpt lat="45.31922" lon="6.24365">
        <ele>1227</ele>
        <time>2014-03-02T07:28:43.000Z</time>
      </trkpt>
      <trkpt lat="45.31922" lon="6.24365">
        <ele>1227</ele>
        <time>2014-03-02T07:28:44.000Z</time>
      </trkpt>
      <trkpt lat="45.31923" lon="6.24364">
        <ele>1227.8000488281</ele>
        <time>2014-03-02T07:28:45.000Z</time>
      </trkpt>
      <trkpt lat="45.31924" lon="6.24363">
        <ele>1228.1999511719</ele>
        <time>2014-03-02T07:28:46.000Z</time>
      </trkpt>
      <trkpt lat="45.31924" lon="6.24362">
        <ele>1228.8000488281</ele>
        <time>2014-03-02T07:28:47.000Z</time>
      </trkpt>
      <trkpt lat="45.31925" lon="6.24361">
        <ele>1229.1999511719</ele>
        <time>2014-03-02T07:28:48.000Z</time>
      </trkpt>
      <trkpt lat="45.31925" lon="6.2436">
        <ele>1229.5999755859</ele>
        <time>2014-03-02T07:28:49.000Z</time>
      </trkpt>
      <trkpt lat="45.31926" lon="6.24359">
        <ele>1230</ele>
        <time>2014-03-02T07:28:50.000Z</time>
      </trkpt>
      <trkpt lat="45.31927" lon="6.24358">
        <ele>1230.1999511719</ele>
        <time>2014-03-02T07:28:51.000Z</time>
      </trkpt>
      <trkpt lat="45.31927" lon="6.24357">
        <ele>1230.1999511719</ele>
        <time>2014-03-02T07:28:52.000Z</time>
      </trkpt>
      <trkpt lat="45.31928" lon="6.24356">
        <ele>1230.1999511719</ele>
        <time>2014-03-02T07:28:53.000Z</time>
      </trkpt>
      <trkpt lat="45.31928" lon="6.24355">
        <ele>1230.4000244141</ele>
        <time>2014-03-02T07:28:54.000Z</time>
      </trkpt>
      <trkpt lat="45.31929" lon="6.24354">
        <ele>1230.4000244141</ele>
        <time>2014-03-02T07:28:55.000Z</time>
      </trkpt>
      <trkpt lat="45.3193" lon="6.24353">
        <ele>1230.4000244141</ele>
        <time>2014-03-02T07:28:56.000Z</time>
      </trkpt>
      <trkpt lat="45.3193" lon="6.24352">
        <ele>1230.4000244141</ele>
        <time>2014-03-02T07:28:57.000Z</time>
      </trkpt>
      <trkpt lat="45.31931" lon="6.24351">
        <ele>1230.4000244141</ele>
        <time>2014-03-02T07:28:58.000Z</time>
      </trkpt>
      <trkpt lat="45.31932" lon="6.2435">
        <ele>1230.5999755859</ele>
        <time>2014-03-02T07:28:59.000Z</time>
      </trkpt>
      <trkpt lat="45.31932" lon="6.24349">
        <ele>1230.5999755859</ele>
        <time>2014-03-02T07:29:00.000Z</time>
      </trkpt>
      <trkpt lat="45.31933" lon="6.24347">
        <ele>1230.5999755859</ele>
        <time>2014-03-02T07:29:01.000Z</time>
      </trkpt>
      <trkpt lat="45.31933" lon="6.24345">
        <ele>1230.5999755859</ele>
        <time>2014-03-02T07:29:02.000Z</time>
      </trkpt>
      <trkpt lat="45.31934" lon="6.24344">
        <ele>1230.4000244141</ele>
        <time>2014-03-02T07:29:03.000Z</time>
      </trkpt>
      <trkpt lat="45.31934" lon="6.24343">
        <ele>1230.1999511719</ele>
        <time>2014-03-02T07:29:04.000Z</time>
      </trkpt>
      <trkpt lat="45.31934" lon="6.24341">
        <ele>1230</ele>
        <time>2014-03-02T07:29:05.000Z</time>
      </trkpt>
      <trkpt lat="45.31934" lon="6.2434">
        <ele>1229.8000488281</ele>
        <time>2014-03-02T07:29:06.000Z</time>
      </trkpt>
      <trkpt lat="45.31934" lon="6.24339">
        <ele>1229.8000488281</ele>
        <time>2014-03-02T07:29:07.000Z</time>
      </trkpt>
      <trkpt lat="45.31934" lon="6.24338">
        <ele>1229.5999755859</ele>
        <time>2014-03-02T07:29:08.000Z</time>
      </trkpt>
      <trkpt lat="45.31934" lon="6.24337">
        <ele>1229.5999755859</ele>
        <time>2014-03-02T07:29:09.000Z</time>
      </trkpt>
      <trkpt lat="45.31935" lon="6.24336">
        <ele>1229.5999755859</ele>
        <time>2014-03-02T07:29:10.000Z</time>
      </trkpt>
      <trkpt lat="45.31935" lon="6.24335">
        <ele>1229.5999755859</ele>
        <time>2014-03-02T07:29:11.000Z</time>
      </trkpt>
      <trkpt lat="45.31935" lon="6.24335">
        <ele>1229.4000244141</ele>
        <time>2014-03-02T07:29:12.000Z</time>
      </trkpt>
      <trkpt lat="45.31935" lon="6.24334">
        <ele>1229.4000244141</ele>
        <time>2014-03-02T07:29:13.000Z</time>
      </trkpt>
      <trkpt lat="45.31935" lon="6.24332">
        <ele>1229.1999511719</ele>
        <time>2014-03-02T07:29:14.000Z</time>
      </trkpt>
      <trkpt lat="45.31935" lon="6.24331">
        <ele>1229</ele>
        <time>2014-03-02T07:29:15.000Z</time>
      </trkpt>
      <trkpt lat="45.31935" lon="6.24331">
        <ele>1229</ele>
        <time>2014-03-02T07:29:16.000Z</time>
      </trkpt>
      <trkpt lat="45.31936" lon="6.24329">
        <ele>1228.8000488281</ele>
        <time>2014-03-02T07:29:17.000Z</time>
      </trkpt>
      <trkpt lat="45.31935" lon="6.24328">
        <ele>1228.5999755859</ele>
        <time>2014-03-02T07:29:18.000Z</time>
      </trkpt>
      <trkpt lat="45.31935" lon="6.24327">
        <ele>1228.4000244141</ele>
        <time>2014-03-02T07:29:19.000Z</time>
      </trkpt>
      <trkpt lat="45.31936" lon="6.24326">
        <ele>1228.4000244141</ele>
        <time>2014-03-02T07:29:20.000Z</time>
      </trkpt>
      <trkpt lat="45.31936" lon="6.24326">
        <ele>1228.4000244141</ele>
        <time>2014-03-02T07:29:21.000Z</time>
      </trkpt>
      <trkpt lat="45.31937" lon="6.24325">
        <ele>1228.5999755859</ele>
        <time>2014-03-02T07:29:22.000Z</time>
      </trkpt>
      <trkpt lat="45.31937" lon="6.24324">
        <ele>1228.5999755859</ele>
        <time>2014-03-02T07:29:23.000Z</time>
      </trkpt>
      <trkpt lat="45.31937" lon="6.24324">
        <ele>1228.5999755859</ele>
        <time>2014-03-02T07:29:24.000Z</time>
      </trkpt>
      <trkpt lat="45.31938" lon="6.24324">
        <ele>1228.5999755859</ele>
        <time>2014-03-02T07:29:25.000Z</time>
      </trkpt>
      <trkpt lat="45.31938" lon="6.24323">
        <ele>1228.5999755859</ele>
        <time>2014-03-02T07:29:26.000Z</time>
      </trkpt>
      <trkpt lat="45.31939" lon="6.24321">
        <ele>1228.8000488281</ele>
        <time>2014-03-02T07:29:27.000Z</time>
      </trkpt>
      <trkpt lat="45.31939" lon="6.24321">
        <ele>1228.8000488281</ele>
        <time>2014-03-02T07:29:28.000Z</time>
      </trkpt>
      <trkpt lat="45.31939" lon="6.24321">
        <ele>1228.8000488281</ele>
        <time>2014-03-02T07:29:29.000Z</time>
      </trkpt>
      <trkpt lat="45.3194" lon="6.24319">
        <ele>1228.8000488281</ele>
        <time>2014-03-02T07:29:30.000Z</time>
      </trkpt>
      <trkpt lat="45.31941" lon="6.24318">
        <ele>1229</ele>
        <time>2014-03-02T07:29:31.000Z</time>
      </trkpt>
      <trkpt lat="45.31942" lon="6.24318">
        <ele>1229.1999511719</ele>
        <time>2014-03-02T07:29:32.000Z</time>
      </trkpt>
      <trkpt lat="45.31942" lon="6.24317">
        <ele>1229.1999511719</ele>
        <time>2014-03-02T07:29:33.000Z</time>
      </trkpt>
      <trkpt lat="45.31943" lon="6.24316">
        <ele>1229.1999511719</ele>
        <time>2014-03-02T07:29:34.000Z</time>
      </trkpt>
      <trkpt lat="45.31943" lon="6.24315">
        <ele>1229.1999511719</ele>
        <time>2014-03-02T07:29:35.000Z</time>
      </trkpt>
      <trkpt lat="45.31944" lon="6.24314">
        <ele>1229.1999511719</ele>
        <time>2014-03-02T07:29:36.000Z</time>
      </trkpt>
      <trkpt lat="45.31944" lon="6.24314">
        <ele>1229.1999511719</ele>
        <time>2014-03-02T07:29:37.000Z</time>
      </trkpt>
      <trkpt lat="45.31944" lon="6.24313">
        <ele>1229.1999511719</ele>
        <time>2014-03-02T07:29:38.000Z</time>
      </trkpt>
      <trkpt lat="45.31945" lon="6.24312">
        <ele>1229.5999755859</ele>
        <time>2014-03-02T07:29:39.000Z</time>
      </trkpt>
      <trkpt lat="45.31946" lon="6.24311">
        <ele>1230</ele>
        <time>2014-03-02T07:29:40.000Z</time>
      </trkpt>
      <trkpt lat="45.31946" lon="6.2431">
        <ele>1230.1999511719</ele>
        <time>2014-03-02T07:29:41.000Z</time>
      </trkpt>
      <trkpt lat="45.31946" lon="6.2431">
        <ele>1230.4000244141</ele>
        <time>2014-03-02T07:29:42.000Z</time>
      </trkpt>
      <trkpt lat="45.31947" lon="6.24309">
        <ele>1230.5999755859</ele>
        <time>2014-03-02T07:29:43.000Z</time>
      </trkpt>
      <trkpt lat="45.31947" lon="6.24308">
        <ele>1231</ele>
        <time>2014-03-02T07:29:44.000Z</time>
      </trkpt>
      <trkpt lat="45.31948" lon="6.24307">
        <ele>1231.4000244141</ele>
        <time>2014-03-02T07:29:45.000Z</time>
      </trkpt>
      <trkpt lat="45.31948" lon="6.24306">
        <ele>1231.5999755859</ele>
        <time>2014-03-02T07:29:46.000Z</time>
      </trkpt>
      <trkpt lat="45.31949" lon="6.24305">
        <ele>1232.1999511719</ele>
        <time>2014-03-02T07:29:47.000Z</time>
      </trkpt>
      <trkpt lat="45.3195" lon="6.24304">
        <ele>1232.4000244141</ele>
        <time>2014-03-02T07:29:48.000Z</time>
      </trkpt>
      <trkpt lat="45.3195" lon="6.24302">
        <ele>1232.8000488281</ele>
        <time>2014-03-02T07:29:49.000Z</time>
      </trkpt>
      <trkpt lat="45.3195" lon="6.24301">
        <ele>1233.1999511719</ele>
        <time>2014-03-02T07:29:50.000Z</time>
      </trkpt>
      <trkpt lat="45.31951" lon="6.243">
        <ele>1233.4000244141</ele>
        <time>2014-03-02T07:29:51.000Z</time>
      </trkpt>
      <trkpt lat="45.31951" lon="6.24299">
        <ele>1233.4000244141</ele>
        <time>2014-03-02T07:29:52.000Z</time>
      </trkpt>
      <trkpt lat="45.31951" lon="6.24297">
        <ele>1233.4000244141</ele>
        <time>2014-03-02T07:29:53.000Z</time>
      </trkpt>
      <trkpt lat="45.31952" lon="6.24296">
        <ele>1233.4000244141</ele>
        <time>2014-03-02T07:29:54.000Z</time>
      </trkpt>
      <trkpt lat="45.31952" lon="6.24295">
        <ele>1233.4000244141</ele>
        <time>2014-03-02T07:29:55.000Z</time>
      </trkpt>
      <trkpt lat="45.31952" lon="6.24294">
        <ele>1233.1999511719</ele>
        <time>2014-03-02T07:29:56.000Z</time>
      </trkpt>
      <trkpt lat="45.31952" lon="6.24294">
        <ele>1233.1999511719</ele>
        <time>2014-03-02T07:29:57.000Z</time>
      </trkpt>
      <trkpt lat="45.31952" lon="6.24293">
        <ele>1233.1999511719</ele>
        <time>2014-03-02T07:29:58.000Z</time>
      </trkpt>
      <trkpt lat="45.31953" lon="6.24292">
        <ele>1233</ele>
        <time>2014-03-02T07:29:59.000Z</time>
      </trkpt>
      <trkpt lat="45.31953" lon="6.2429">
        <ele>1233</ele>
        <time>2014-03-02T07:30:00.000Z</time>
      </trkpt>
      <trkpt lat="45.31954" lon="6.24289">
        <ele>1233</ele>
        <time>2014-03-02T07:30:01.000Z</time>
      </trkpt>
      <trkpt lat="45.31955" lon="6.24288">
        <ele>1233</ele>
        <time>2014-03-02T07:30:02.000Z</time>
      </trkpt>
      <trkpt lat="45.31956" lon="6.24287">
        <ele>1233</ele>
        <time>2014-03-02T07:30:03.000Z</time>
      </trkpt>
      <trkpt lat="45.31956" lon="6.24286">
        <ele>1233</ele>
        <time>2014-03-02T07:30:04.000Z</time>
      </trkpt>
      <trkpt lat="45.31957" lon="6.24284">
        <ele>1232.8000488281</ele>
        <time>2014-03-02T07:30:05.000Z</time>
      </trkpt>
      <trkpt lat="45.31957" lon="6.24283">
        <ele>1232.8000488281</ele>
        <time>2014-03-02T07:30:06.000Z</time>
      </trkpt>
      <trkpt lat="45.31957" lon="6.24282">
        <ele>1232.8000488281</ele>
        <time>2014-03-02T07:30:07.000Z</time>
      </trkpt>
      <trkpt lat="45.31958" lon="6.24281">
        <ele>1232.8000488281</ele>
        <time>2014-03-02T07:30:08.000Z</time>
      </trkpt>
      <trkpt lat="45.31958" lon="6.24281">
        <ele>1232.5999755859</ele>
        <time>2014-03-02T07:30:09.000Z</time>
      </trkpt>
      <trkpt lat="45.31958" lon="6.24281">
        <ele>1232.5999755859</ele>
        <time>2014-03-02T07:30:10.000Z</time>
      </trkpt>
      <trkpt lat="45.31959" lon="6.2428">
        <ele>1232.5999755859</ele>
        <time>2014-03-02T07:30:11.000Z</time>
      </trkpt>
      <trkpt lat="45.31959" lon="6.24278">
        <ele>1232.5999755859</ele>
        <time>2014-03-02T07:30:12.000Z</time>
      </trkpt>
      <trkpt lat="45.3196" lon="6.24278">
        <ele>1232.5999755859</ele>
        <time>2014-03-02T07:30:13.000Z</time>
      </trkpt>
      <trkpt lat="45.3196" lon="6.24277">
        <ele>1232.5999755859</ele>
        <time>2014-03-02T07:30:14.000Z</time>
      </trkpt>
      <trkpt lat="45.31961" lon="6.24276">
        <ele>1232.5999755859</ele>
        <time>2014-03-02T07:30:15.000Z</time>
      </trkpt>
      <trkpt lat="45.31962" lon="6.24275">
        <ele>1232.5999755859</ele>
        <time>2014-03-02T07:30:16.000Z</time>
      </trkpt>
      <trkpt lat="45.31962" lon="6.24274">
        <ele>1232.5999755859</ele>
        <time>2014-03-02T07:30:17.000Z</time>
      </trkpt>
      <trkpt lat="45.31963" lon="6.24273">
        <ele>1232.5999755859</ele>
        <time>2014-03-02T07:30:18.000Z</time>
      </trkpt>
      <trkpt lat="45.31963" lon="6.24273">
        <ele>1232.5999755859</ele>
        <time>2014-03-02T07:30:19.000Z</time>
      </trkpt>
      <trkpt lat="45.31963" lon="6.24273">
        <ele>1232.5999755859</ele>
        <time>2014-03-02T07:30:20.000Z</time>
      </trkpt>
      <trkpt lat="45.31963" lon="6.24273">
        <ele>1232.5999755859</ele>
        <time>2014-03-02T07:30:21.000Z</time>
      </trkpt>
      <trkpt lat="45.31964" lon="6.24272">
        <ele>1232.5999755859</ele>
        <time>2014-03-02T07:30:22.000Z</time>
      </trkpt>
      <trkpt lat="45.31964" lon="6.24272">
        <ele>1232.5999755859</ele>
        <time>2014-03-02T07:30:23.000Z</time>
      </trkpt>
      <trkpt lat="45.31965" lon="6.24272">
        <ele>1233.1999511719</ele>
        <time>2014-03-02T07:30:24.000Z</time>
      </trkpt>
      <trkpt lat="45.31966" lon="6.24271">
        <ele>1234</ele>
        <time>2014-03-02T07:30:25.000Z</time>
      </trkpt>
      <trkpt lat="45.31966" lon="6.24271">
        <ele>1234</ele>
        <time>2014-03-02T07:30:26.000Z</time>
      </trkpt>
      <trkpt lat="45.31967" lon="6.2427">
        <ele>1234.5999755859</ele>
        <time>2014-03-02T07:30:27.000Z</time>
      </trkpt>
      <trkpt lat="45.31967" lon="6.2427">
        <ele>1234.5999755859</ele>
        <time>2014-03-02T07:30:28.000Z</time>
      </trkpt>
      <trkpt lat="45.31968" lon="6.24269">
        <ele>1235.1999511719</ele>
        <time>2014-03-02T07:30:29.000Z</time>
      </trkpt>
      <trkpt lat="45.3197" lon="6.24269">
        <ele>1236</ele>
        <time>2014-03-02T07:30:30.000Z</time>
      </trkpt>
      <trkpt lat="45.31971" lon="6.24268">
        <ele>1236.4000244141</ele>
        <time>2014-03-02T07:30:31.000Z</time>
      </trkpt>
      <trkpt lat="45.31972" lon="6.24268">
        <ele>1237.1999511719</ele>
        <time>2014-03-02T07:30:32.000Z</time>
      </trkpt>
      <trkpt lat="45.31973" lon="6.24268">
        <ele>1237.8000488281</ele>
        <time>2014-03-02T07:30:33.000Z</time>
      </trkpt>
      <trkpt lat="45.31973" lon="6.24268">
        <ele>1237.8000488281</ele>
        <time>2014-03-02T07:30:34.000Z</time>
      </trkpt>
      <trkpt lat="45.31974" lon="6.24268">
        <ele>1238.5999755859</ele>
        <time>2014-03-02T07:30:35.000Z</time>
      </trkpt>
      <trkpt lat="45.31976" lon="6.24268">
        <ele>1239.4000244141</ele>
        <time>2014-03-02T07:30:36.000Z</time>
      </trkpt>
      <trkpt lat="45.31977" lon="6.24268">
        <ele>1240.1999511719</ele>
        <time>2014-03-02T07:30:37.000Z</time>
      </trkpt>
      <trkpt lat="45.31978" lon="6.24267">
        <ele>1240.5999755859</ele>
        <time>2014-03-02T07:30:38.000Z</time>
      </trkpt>
      <trkpt lat="45.31979" lon="6.24267">
        <ele>1241</ele>
        <time>2014-03-02T07:30:39.000Z</time>
      </trkpt>
      <trkpt lat="45.31979" lon="6.24266">
        <ele>1241.5999755859</ele>
        <time>2014-03-02T07:30:40.000Z</time>
      </trkpt>
      <trkpt lat="45.3198" lon="6.24265">
        <ele>1241.8000488281</ele>
        <time>2014-03-02T07:30:41.000Z</time>
      </trkpt>
      <trkpt lat="45.31981" lon="6.24264">
        <ele>1242.1999511719</ele>
        <time>2014-03-02T07:30:42.000Z</time>
      </trkpt>
      <trkpt lat="45.31981" lon="6.24264">
        <ele>1242.1999511719</ele>
        <time>2014-03-02T07:30:43.000Z</time>
      </trkpt>
      <trkpt lat="45.31982" lon="6.24264">
        <ele>1242.5999755859</ele>
        <time>2014-03-02T07:30:44.000Z</time>
      </trkpt>
      <trkpt lat="45.31982" lon="6.24264">
        <ele>1242.5999755859</ele>
        <time>2014-03-02T07:30:45.000Z</time>
      </trkpt>
      <trkpt lat="45.31982" lon="6.24264">
        <ele>1242.5999755859</ele>
        <time>2014-03-02T07:30:46.000Z</time>
      </trkpt>
      <trkpt lat="45.31982" lon="6.24264">
        <ele>1243</ele>
        <time>2014-03-02T07:30:47.000Z</time>
      </trkpt>
      <trkpt lat="45.31982" lon="6.24264">
        <ele>1243</ele>
        <time>2014-03-02T07:30:48.000Z</time>
      </trkpt>
      <trkpt lat="45.31982" lon="6.24264">
        <ele>1243</ele>
        <time>2014-03-02T07:30:49.000Z</time>
      </trkpt>
      <trkpt lat="45.31982" lon="6.24264">
        <ele>1243</ele>
        <time>2014-03-02T07:30:52.000Z</time>
      </trkpt>
      <trkpt lat="45.31982" lon="6.24264">
        <ele>1243</ele>
        <time>2014-03-02T07:30:55.000Z</time>
      </trkpt>
      <trkpt lat="45.31982" lon="6.24264">
        <ele>1243</ele>
        <time>2014-03-02T07:30:56.000Z</time>
      </trkpt>
      <trkpt lat="45.31982" lon="6.24264">
        <ele>1243</ele>
        <time>2014-03-02T07:30:57.000Z</time>
      </trkpt>
      <trkpt lat="45.31982" lon="6.24264">
        <ele>1243</ele>
        <time>2014-03-02T07:30:58.000Z</time>
      </trkpt>
      <trkpt lat="45.31982" lon="6.24264">
        <ele>1243</ele>
        <time>2014-03-02T07:31:02.000Z</time>
      </trkpt>
      <trkpt lat="45.31982" lon="6.24264">
        <ele>1243</ele>
        <time>2014-03-02T07:31:03.000Z</time>
      </trkpt>
      <trkpt lat="45.31982" lon="6.24264">
        <ele>1243</ele>
        <time>2014-03-02T07:31:04.000Z</time>
      </trkpt>
      <trkpt lat="45.31982" lon="6.24264">
        <ele>1243</ele>
        <time>2014-03-02T07:31:05.000Z</time>
      </trkpt>
      <trkpt lat="45.31982" lon="6.24264">
        <ele>1243</ele>
        <time>2014-03-02T07:31:06.000Z</time>
      </trkpt>
      <trkpt lat="45.31982" lon="6.24264">
        <ele>1243</ele>
        <time>2014-03-02T07:31:07.000Z</time>
      </trkpt>
      <trkpt lat="45.31983" lon="6.24263">
        <ele>1243.4000244141</ele>
        <time>2014-03-02T07:31:08.000Z</time>
      </trkpt>
      <trkpt lat="45.31983" lon="6.24263">
        <ele>1243.4000244141</ele>
        <time>2014-03-02T07:31:09.000Z</time>
      </trkpt>
      <trkpt lat="45.31984" lon="6.24261">
        <ele>1243.8000488281</ele>
        <time>2014-03-02T07:31:10.000Z</time>
      </trkpt>
      <trkpt lat="45.31985" lon="6.2426">
        <ele>1244.1999511719</ele>
        <time>2014-03-02T07:31:11.000Z</time>
      </trkpt>
      <trkpt lat="45.31986" lon="6.24258">
        <ele>1244.5999755859</ele>
        <time>2014-03-02T07:31:12.000Z</time>
      </trkpt>
      <trkpt lat="45.31986" lon="6.24257">
        <ele>1244.8000488281</ele>
        <time>2014-03-02T07:31:13.000Z</time>
      </trkpt>
      <trkpt lat="45.31987" lon="6.24256">
        <ele>1245.1999511719</ele>
        <time>2014-03-02T07:31:14.000Z</time>
      </trkpt>
      <trkpt lat="45.31988" lon="6.24255">
        <ele>1246</ele>
        <time>2014-03-02T07:31:15.000Z</time>
      </trkpt>
      <trkpt lat="45.31989" lon="6.24255">
        <ele>1246.5999755859</ele>
        <time>2014-03-02T07:31:16.000Z</time>
      </trkpt>
      <trkpt lat="45.31989" lon="6.24255">
        <ele>1246.5999755859</ele>
        <time>2014-03-02T07:31:17.000Z</time>
      </trkpt>
      <trkpt lat="45.3199" lon="6.24254">
        <ele>1246.8000488281</ele>
        <time>2014-03-02T07:31:18.000Z</time>
      </trkpt>
      <trkpt lat="45.31991" lon="6.24253">
        <ele>1247</ele>
        <time>2014-03-02T07:31:19.000Z</time>
      </trkpt>
      <trkpt lat="45.31992" lon="6.24252">
        <ele>1247.1999511719</ele>
        <time>2014-03-02T07:31:20.000Z</time>
      </trkpt>
      <trkpt lat="45.31993" lon="6.24252">
        <ele>1248</ele>
        <time>2014-03-02T07:31:21.000Z</time>
      </trkpt>
      <trkpt lat="45.31995" lon="6.24251">
        <ele>1249</ele>
        <time>2014-03-02T07:31:22.000Z</time>
      </trkpt>
      <trkpt lat="45.31995" lon="6.24251">
        <ele>1249</ele>
        <time>2014-03-02T07:31:23.000Z</time>
      </trkpt>
      <trkpt lat="45.31996" lon="6.24251">
        <ele>1249.4000244141</ele>
        <time>2014-03-02T07:31:24.000Z</time>
      </trkpt>
      <trkpt lat="45.31996" lon="6.2425">
        <ele>1249.5999755859</ele>
        <time>2014-03-02T07:31:25.000Z</time>
      </trkpt>
      <trkpt lat="45.31997" lon="6.24249">
        <ele>1250</ele>
        <time>2014-03-02T07:31:26.000Z</time>
      </trkpt>
      <trkpt lat="45.31999" lon="6.24248">
        <ele>1251</ele>
        <time>2014-03-02T07:31:29.000Z</time>
      </trkpt>
      <trkpt lat="45.32001" lon="6.24247">
        <ele>1251.8000488281</ele>
        <time>2014-03-02T07:31:31.000Z</time>
      </trkpt>
      <trkpt lat="45.32002" lon="6.24246">
        <ele>1252</ele>
        <time>2014-03-02T07:31:32.000Z</time>
      </trkpt>
      <trkpt lat="45.32002" lon="6.24246">
        <ele>1252.1999511719</ele>
        <time>2014-03-02T07:31:33.000Z</time>
      </trkpt>
      <trkpt lat="45.32003" lon="6.24245">
        <ele>1252.5999755859</ele>
        <time>2014-03-02T07:31:34.000Z</time>
      </trkpt>
      <trkpt lat="45.32004" lon="6.24244">
        <ele>1253</ele>
        <time>2014-03-02T07:31:35.000Z</time>
      </trkpt>
      <trkpt lat="45.32005" lon="6.24243">
        <ele>1253.1999511719</ele>
        <time>2014-03-02T07:31:36.000Z</time>
      </trkpt>
      <trkpt lat="45.32006" lon="6.24242">
        <ele>1253.5999755859</ele>
        <time>2014-03-02T07:31:37.000Z</time>
      </trkpt>
      <trkpt lat="45.32006" lon="6.24241">
        <ele>1253.5999755859</ele>
        <time>2014-03-02T07:31:38.000Z</time>
      </trkpt>
      <trkpt lat="45.32007" lon="6.2424">
        <ele>1254</ele>
        <time>2014-03-02T07:31:39.000Z</time>
      </trkpt>
      <trkpt lat="45.32008" lon="6.2424">
        <ele>1254.4000244141</ele>
        <time>2014-03-02T07:31:40.000Z</time>
      </trkpt>
      <trkpt lat="45.32009" lon="6.24239">
        <ele>1254.8000488281</ele>
        <time>2014-03-02T07:31:41.000Z</time>
      </trkpt>
      <trkpt lat="45.32009" lon="6.24238">
        <ele>1254.8000488281</ele>
        <time>2014-03-02T07:31:42.000Z</time>
      </trkpt>
      <trkpt lat="45.3201" lon="6.24237">
        <ele>1254.8000488281</ele>
        <time>2014-03-02T07:31:43.000Z</time>
      </trkpt>
      <trkpt lat="45.3201" lon="6.24236">
        <ele>1254.8000488281</ele>
        <time>2014-03-02T07:31:44.000Z</time>
      </trkpt>
      <trkpt lat="45.3201" lon="6.24236">
        <ele>1254.8000488281</ele>
        <time>2014-03-02T07:31:45.000Z</time>
      </trkpt>
      <trkpt lat="45.32011" lon="6.24235">
        <ele>1255.1999511719</ele>
        <time>2014-03-02T07:31:46.000Z</time>
      </trkpt>
      <trkpt lat="45.32011" lon="6.24235">
        <ele>1255.1999511719</ele>
        <time>2014-03-02T07:31:47.000Z</time>
      </trkpt>
      <trkpt lat="45.32012" lon="6.24233">
        <ele>1255.4000244141</ele>
        <time>2014-03-02T07:31:48.000Z</time>
      </trkpt>
      <trkpt lat="45.32012" lon="6.24232">
        <ele>1255.5999755859</ele>
        <time>2014-03-02T07:31:49.000Z</time>
      </trkpt>
      <trkpt lat="45.32012" lon="6.24232">
        <ele>1255.5999755859</ele>
        <time>2014-03-02T07:31:50.000Z</time>
      </trkpt>
      <trkpt lat="45.32013" lon="6.24231">
        <ele>1255.8000488281</ele>
        <time>2014-03-02T07:31:51.000Z</time>
      </trkpt>
      <trkpt lat="45.32014" lon="6.2423">
        <ele>1256.1999511719</ele>
        <time>2014-03-02T07:31:52.000Z</time>
      </trkpt>
      <trkpt lat="45.32015" lon="6.24229">
        <ele>1256.5999755859</ele>
        <time>2014-03-02T07:31:53.000Z</time>
      </trkpt>
      <trkpt lat="45.32015" lon="6.24229">
        <ele>1256.8000488281</ele>
        <time>2014-03-02T07:31:54.000Z</time>
      </trkpt>
      <trkpt lat="45.32015" lon="6.24229">
        <ele>1256.8000488281</ele>
        <time>2014-03-02T07:31:55.000Z</time>
      </trkpt>
      <trkpt lat="45.32016" lon="6.24228">
        <ele>1257.1999511719</ele>
        <time>2014-03-02T07:31:56.000Z</time>
      </trkpt>
      <trkpt lat="45.32016" lon="6.24228">
        <ele>1257.1999511719</ele>
        <time>2014-03-02T07:31:57.000Z</time>
      </trkpt>
      <trkpt lat="45.32017" lon="6.24226">
        <ele>1257.8000488281</ele>
        <time>2014-03-02T07:31:58.000Z</time>
      </trkpt>
      <trkpt lat="45.32017" lon="6.24224">
        <ele>1258</ele>
        <time>2014-03-02T07:31:59.000Z</time>
      </trkpt>
      <trkpt lat="45.32017" lon="6.24224">
        <ele>1258</ele>
        <time>2014-03-02T07:32:00.000Z</time>
      </trkpt>
      <trkpt lat="45.32018" lon="6.24223">
        <ele>1258.5999755859</ele>
        <time>2014-03-02T07:32:01.000Z</time>
      </trkpt>
      <trkpt lat="45.32018" lon="6.24222">
        <ele>1258.8000488281</ele>
        <time>2014-03-02T07:32:02.000Z</time>
      </trkpt>
      <trkpt lat="45.32019" lon="6.24221">
        <ele>1259.1999511719</ele>
        <time>2014-03-02T07:32:03.000Z</time>
      </trkpt>
      <trkpt lat="45.32019" lon="6.24219">
        <ele>1259.1999511719</ele>
        <time>2014-03-02T07:32:04.000Z</time>
      </trkpt>
      <trkpt lat="45.32019" lon="6.24217">
        <ele>1259.1999511719</ele>
        <time>2014-03-02T07:32:05.000Z</time>
      </trkpt>
      <trkpt lat="45.32019" lon="6.24215">
        <ele>1259.5999755859</ele>
        <time>2014-03-02T07:32:06.000Z</time>
      </trkpt>
      <trkpt lat="45.3202" lon="6.24214">
        <ele>1260</ele>
        <time>2014-03-02T07:32:07.000Z</time>
      </trkpt>
      <trkpt lat="45.3202" lon="6.24213">
        <ele>1260.1999511719</ele>
        <time>2014-03-02T07:32:08.000Z</time>
      </trkpt>
      <trkpt lat="45.32021" lon="6.24211">
        <ele>1260.5999755859</ele>
        <time>2014-03-02T07:32:09.000Z</time>
      </trkpt>
      <trkpt lat="45.32021" lon="6.2421">
        <ele>1260.8000488281</ele>
        <time>2014-03-02T07:32:10.000Z</time>
      </trkpt>
      <trkpt lat="45.32021" lon="6.2421">
        <ele>1260.8000488281</ele>
        <time>2014-03-02T07:32:11.000Z</time>
      </trkpt>
      <trkpt lat="45.32021" lon="6.2421">
        <ele>1260.8000488281</ele>
        <time>2014-03-02T07:32:12.000Z</time>
      </trkpt>
      <trkpt lat="45.32021" lon="6.2421">
        <ele>1260.8000488281</ele>
        <time>2014-03-02T07:32:13.000Z</time>
      </trkpt>
      <trkpt lat="45.32021" lon="6.24209">
        <ele>1261.1999511719</ele>
        <time>2014-03-02T07:32:14.000Z</time>
      </trkpt>
      <trkpt lat="45.32022" lon="6.24208">
        <ele>1261.1999511719</ele>
        <time>2014-03-02T07:32:15.000Z</time>
      </trkpt>
      <trkpt lat="45.32022" lon="6.24208">
        <ele>1261.1999511719</ele>
        <time>2014-03-02T07:32:16.000Z</time>
      </trkpt>
      <trkpt lat="45.32022" lon="6.24207">
        <ele>1261.5999755859</ele>
        <time>2014-03-02T07:32:17.000Z</time>
      </trkpt>
      <trkpt lat="45.32023" lon="6.24206">
        <ele>1262</ele>
        <time>2014-03-02T07:32:18.000Z</time>
      </trkpt>
      <trkpt lat="45.32023" lon="6.24206">
        <ele>1262</ele>
        <time>2014-03-02T07:32:19.000Z</time>
      </trkpt>
      <trkpt lat="45.32024" lon="6.24204">
        <ele>1262.1999511719</ele>
        <time>2014-03-02T07:32:20.000Z</time>
      </trkpt>
      <trkpt lat="45.32025" lon="6.24203">
        <ele>1262.1999511719</ele>
        <time>2014-03-02T07:32:21.000Z</time>
      </trkpt>
      <trkpt lat="45.32026" lon="6.24201">
        <ele>1262.1999511719</ele>
        <time>2014-03-02T07:32:22.000Z</time>
      </trkpt>
      <trkpt lat="45.32027" lon="6.242">
        <ele>1262.4000244141</ele>
        <time>2014-03-02T07:32:23.000Z</time>
      </trkpt>
      <trkpt lat="45.32027" lon="6.242">
        <ele>1262.4000244141</ele>
        <time>2014-03-02T07:32:24.000Z</time>
      </trkpt>
      <trkpt lat="45.32028" lon="6.24199">
        <ele>1262.5999755859</ele>
        <time>2014-03-02T07:32:25.000Z</time>
      </trkpt>
      <trkpt lat="45.32028" lon="6.24199">
        <ele>1262.5999755859</ele>
        <time>2014-03-02T07:32:26.000Z</time>
      </trkpt>
      <trkpt lat="45.32028" lon="6.24198">
        <ele>1262.5999755859</ele>
        <time>2014-03-02T07:32:27.000Z</time>
      </trkpt>
      <trkpt lat="45.32029" lon="6.24196">
        <ele>1262.5999755859</ele>
        <time>2014-03-02T07:32:28.000Z</time>
      </trkpt>
      <trkpt lat="45.32029" lon="6.24195">
        <ele>1262.4000244141</ele>
        <time>2014-03-02T07:32:29.000Z</time>
      </trkpt>
      <trkpt lat="45.3203" lon="6.24194">
        <ele>1262.4000244141</ele>
        <time>2014-03-02T07:32:30.000Z</time>
      </trkpt>
      <trkpt lat="45.3203" lon="6.24192">
        <ele>1262.4000244141</ele>
        <time>2014-03-02T07:32:31.000Z</time>
      </trkpt>
      <trkpt lat="45.3203" lon="6.24192">
        <ele>1262.4000244141</ele>
        <time>2014-03-02T07:32:32.000Z</time>
      </trkpt>
      <trkpt lat="45.32031" lon="6.24191">
        <ele>1262.4000244141</ele>
        <time>2014-03-02T07:32:33.000Z</time>
      </trkpt>
      <trkpt lat="45.32031" lon="6.24191">
        <ele>1262.4000244141</ele>
        <time>2014-03-02T07:32:34.000Z</time>
      </trkpt>
      <trkpt lat="45.32032" lon="6.24189">
        <ele>1262.4000244141</ele>
        <time>2014-03-02T07:32:35.000Z</time>
      </trkpt>
      <trkpt lat="45.32032" lon="6.24188">
        <ele>1262.4000244141</ele>
        <time>2014-03-02T07:32:36.000Z</time>
      </trkpt>
      <trkpt lat="45.32033" lon="6.24187">
        <ele>1262.4000244141</ele>
        <time>2014-03-02T07:32:37.000Z</time>
      </trkpt>
      <trkpt lat="45.32033" lon="6.24185">
        <ele>1262.1999511719</ele>
        <time>2014-03-02T07:32:38.000Z</time>
      </trkpt>
      <trkpt lat="45.32033" lon="6.24184">
        <ele>1262</ele>
        <time>2014-03-02T07:32:39.000Z</time>
      </trkpt>
      <trkpt lat="45.32034" lon="6.24182">
        <ele>1261.8000488281</ele>
        <time>2014-03-02T07:32:40.000Z</time>
      </trkpt>
      <trkpt lat="45.32034" lon="6.2418">
        <ele>1261.5999755859</ele>
        <time>2014-03-02T07:32:41.000Z</time>
      </trkpt>
      <trkpt lat="45.32034" lon="6.2418">
        <ele>1261.5999755859</ele>
        <time>2014-03-02T07:32:42.000Z</time>
      </trkpt>
      <trkpt lat="45.32035" lon="6.2418">
        <ele>1261.5999755859</ele>
        <time>2014-03-02T07:32:43.000Z</time>
      </trkpt>
      <trkpt lat="45.32035" lon="6.24179">
        <ele>1261.5999755859</ele>
        <time>2014-03-02T07:32:44.000Z</time>
      </trkpt>
      <trkpt lat="45.32036" lon="6.24178">
        <ele>1261.8000488281</ele>
        <time>2014-03-02T07:32:45.000Z</time>
      </trkpt>
      <trkpt lat="45.32037" lon="6.24177">
        <ele>1262</ele>
        <time>2014-03-02T07:32:46.000Z</time>
      </trkpt>
      <trkpt lat="45.32037" lon="6.24177">
        <ele>1262</ele>
        <time>2014-03-02T07:32:47.000Z</time>
      </trkpt>
      <trkpt lat="45.32038" lon="6.24177">
        <ele>1262</ele>
        <time>2014-03-02T07:32:48.000Z</time>
      </trkpt>
      <trkpt lat="45.32038" lon="6.24176">
        <ele>1262.1999511719</ele>
        <time>2014-03-02T07:32:49.000Z</time>
      </trkpt>
      <trkpt lat="45.3204" lon="6.24176">
        <ele>1262.5999755859</ele>
        <time>2014-03-02T07:32:50.000Z</time>
      </trkpt>
      <trkpt lat="45.3204" lon="6.24175">
        <ele>1262.5999755859</ele>
        <time>2014-03-02T07:32:51.000Z</time>
      </trkpt>
      <trkpt lat="45.3204" lon="6.24174">
        <ele>1262.5999755859</ele>
        <time>2014-03-02T07:32:52.000Z</time>
      </trkpt>
      <trkpt lat="45.32041" lon="6.24173">
        <ele>1262.5999755859</ele>
        <time>2014-03-02T07:32:53.000Z</time>
      </trkpt>
      <trkpt lat="45.32041" lon="6.24172">
        <ele>1262.5999755859</ele>
        <time>2014-03-02T07:32:54.000Z</time>
      </trkpt>
      <trkpt lat="45.32042" lon="6.24172">
        <ele>1262.5999755859</ele>
        <time>2014-03-02T07:32:55.000Z</time>
      </trkpt>
      <trkpt lat="45.32042" lon="6.24171">
        <ele>1262.5999755859</ele>
        <time>2014-03-02T07:32:56.000Z</time>
      </trkpt>
      <trkpt lat="45.32042" lon="6.24169">
        <ele>1262.4000244141</ele>
        <time>2014-03-02T07:32:57.000Z</time>
      </trkpt>
      <trkpt lat="45.32043" lon="6.24168">
        <ele>1262.4000244141</ele>
        <time>2014-03-02T07:32:58.000Z</time>
      </trkpt>
      <trkpt lat="45.32043" lon="6.24167">
        <ele>1262.1999511719</ele>
        <time>2014-03-02T07:32:59.000Z</time>
      </trkpt>
      <trkpt lat="45.32044" lon="6.24165">
        <ele>1262</ele>
        <time>2014-03-02T07:33:00.000Z</time>
      </trkpt>
      <trkpt lat="45.32044" lon="6.24165">
        <ele>1262</ele>
        <time>2014-03-02T07:33:01.000Z</time>
      </trkpt>
      <trkpt lat="45.32043" lon="6.24165">
        <ele>1262</ele>
        <time>2014-03-02T07:33:02.000Z</time>
      </trkpt>
      <trkpt lat="45.32044" lon="6.24164">
        <ele>1262</ele>
        <time>2014-03-02T07:33:03.000Z</time>
      </trkpt>
      <trkpt lat="45.32044" lon="6.24164">
        <ele>1262</ele>
        <time>2014-03-02T07:33:04.000Z</time>
      </trkpt>
      <trkpt lat="45.32044" lon="6.24163">
        <ele>1262</ele>
        <time>2014-03-02T07:33:05.000Z</time>
      </trkpt>
      <trkpt lat="45.32044" lon="6.24162">
        <ele>1261.8000488281</ele>
        <time>2014-03-02T07:33:06.000Z</time>
      </trkpt>
      <trkpt lat="45.32045" lon="6.24161">
        <ele>1261.8000488281</ele>
        <time>2014-03-02T07:33:07.000Z</time>
      </trkpt>
      <trkpt lat="45.32045" lon="6.24161">
        <ele>1261.8000488281</ele>
        <time>2014-03-02T07:33:08.000Z</time>
      </trkpt>
      <trkpt lat="45.32045" lon="6.24161">
        <ele>1261.8000488281</ele>
        <time>2014-03-02T07:33:09.000Z</time>
      </trkpt>
      <trkpt lat="45.32045" lon="6.24161">
        <ele>1261.8000488281</ele>
        <time>2014-03-02T07:33:10.000Z</time>
      </trkpt>
      <trkpt lat="45.32045" lon="6.2416">
        <ele>1261.5999755859</ele>
        <time>2014-03-02T07:33:11.000Z</time>
      </trkpt>
      <trkpt lat="45.32045" lon="6.24158">
        <ele>1261.4000244141</ele>
        <time>2014-03-02T07:33:12.000Z</time>
      </trkpt>
      <trkpt lat="45.32045" lon="6.24157">
        <ele>1261.4000244141</ele>
        <time>2014-03-02T07:33:13.000Z</time>
      </trkpt>
      <trkpt lat="45.32046" lon="6.24156">
        <ele>1261.4000244141</ele>
        <time>2014-03-02T07:33:14.000Z</time>
      </trkpt>
      <trkpt lat="45.32046" lon="6.24155">
        <ele>1261.4000244141</ele>
        <time>2014-03-02T07:33:15.000Z</time>
      </trkpt>
      <trkpt lat="45.32047" lon="6.24154">
        <ele>1261.4000244141</ele>
        <time>2014-03-02T07:33:16.000Z</time>
      </trkpt>
      <trkpt lat="45.32048" lon="6.24154">
        <ele>1261.8000488281</ele>
        <time>2014-03-02T07:33:17.000Z</time>
      </trkpt>
      <trkpt lat="45.32048" lon="6.24154">
        <ele>1262.1999511719</ele>
        <time>2014-03-02T07:33:18.000Z</time>
      </trkpt>
      <trkpt lat="45.32048" lon="6.24154">
        <ele>1262.1999511719</ele>
        <time>2014-03-02T07:33:19.000Z</time>
      </trkpt>
      <trkpt lat="45.32049" lon="6.24152">
        <ele>1262.5999755859</ele>
        <time>2014-03-02T07:33:20.000Z</time>
      </trkpt>
      <trkpt lat="45.32049" lon="6.24151">
        <ele>1262.8000488281</ele>
        <time>2014-03-02T07:33:21.000Z</time>
      </trkpt>
      <trkpt lat="45.3205" lon="6.24149">
        <ele>1263</ele>
        <time>2014-03-02T07:33:22.000Z</time>
      </trkpt>
      <trkpt lat="45.32051" lon="6.24148">
        <ele>1262.8000488281</ele>
        <time>2014-03-02T07:33:23.000Z</time>
      </trkpt>
      <trkpt lat="45.32051" lon="6.24146">
        <ele>1262.5999755859</ele>
        <time>2014-03-02T07:33:24.000Z</time>
      </trkpt>
      <trkpt lat="45.32051" lon="6.24145">
        <ele>1262.8000488281</ele>
        <time>2014-03-02T07:33:25.000Z</time>
      </trkpt>
      <trkpt lat="45.32051" lon="6.24145">
        <ele>1262.8000488281</ele>
        <time>2014-03-02T07:33:26.000Z</time>
      </trkpt>
      <trkpt lat="45.32052" lon="6.24144">
        <ele>1263.1999511719</ele>
        <time>2014-03-02T07:33:27.000Z</time>
      </trkpt>
      <trkpt lat="45.32052" lon="6.24144">
        <ele>1263.4000244141</ele>
        <time>2014-03-02T07:33:28.000Z</time>
      </trkpt>
      <trkpt lat="45.32053" lon="6.24144">
        <ele>1263.5999755859</ele>
        <time>2014-03-02T07:33:29.000Z</time>
      </trkpt>
      <trkpt lat="45.32053" lon="6.24144">
        <ele>1263.5999755859</ele>
        <time>2014-03-02T07:33:30.000Z</time>
      </trkpt>
      <trkpt lat="45.32053" lon="6.24143">
        <ele>1264</ele>
        <time>2014-03-02T07:33:31.000Z</time>
      </trkpt>
      <trkpt lat="45.32054" lon="6.24142">
        <ele>1264.4000244141</ele>
        <time>2014-03-02T07:33:32.000Z</time>
      </trkpt>
      <trkpt lat="45.32054" lon="6.24141">
        <ele>1264.5999755859</ele>
        <time>2014-03-02T07:33:33.000Z</time>
      </trkpt>
      <trkpt lat="45.32055" lon="6.2414">
        <ele>1264.8000488281</ele>
        <time>2014-03-02T07:33:34.000Z</time>
      </trkpt>
      <trkpt lat="45.32055" lon="6.24138">
        <ele>1265.1999511719</ele>
        <time>2014-03-02T07:33:35.000Z</time>
      </trkpt>
      <trkpt lat="45.32055" lon="6.24137">
        <ele>1265.4000244141</ele>
        <time>2014-03-02T07:33:36.000Z</time>
      </trkpt>
      <trkpt lat="45.32056" lon="6.24136">
        <ele>1265.5999755859</ele>
        <time>2014-03-02T07:33:37.000Z</time>
      </trkpt>
      <trkpt lat="45.32056" lon="6.24136">
        <ele>1265.8000488281</ele>
        <time>2014-03-02T07:33:38.000Z</time>
      </trkpt>
      <trkpt lat="45.32056" lon="6.24135">
        <ele>1265.8000488281</ele>
        <time>2014-03-02T07:33:39.000Z</time>
      </trkpt>
      <trkpt lat="45.32057" lon="6.24133">
        <ele>1266.4000244141</ele>
        <time>2014-03-02T07:33:40.000Z</time>
      </trkpt>
      <trkpt lat="45.32058" lon="6.24132">
        <ele>1267</ele>
        <time>2014-03-02T07:33:41.000Z</time>
      </trkpt>
      <trkpt lat="45.32059" lon="6.24131">
        <ele>1267.4000244141</ele>
        <time>2014-03-02T07:33:42.000Z</time>
      </trkpt>
      <trkpt lat="45.32059" lon="6.24129">
        <ele>1268</ele>
        <time>2014-03-02T07:33:43.000Z</time>
      </trkpt>
      <trkpt lat="45.3206" lon="6.24128">
        <ele>1268.1999511719</ele>
        <time>2014-03-02T07:33:44.000Z</time>
      </trkpt>
      <trkpt lat="45.3206" lon="6.24128">
        <ele>1268.5999755859</ele>
        <time>2014-03-02T07:33:45.000Z</time>
      </trkpt>
      <trkpt lat="45.32061" lon="6.24127">
        <ele>1269</ele>
        <time>2014-03-02T07:33:46.000Z</time>
      </trkpt>
      <trkpt lat="45.32062" lon="6.24127">
        <ele>1269.4000244141</ele>
        <time>2014-03-02T07:33:47.000Z</time>
      </trkpt>
      <trkpt lat="45.32062" lon="6.24126">
        <ele>1269.5999755859</ele>
        <time>2014-03-02T07:33:48.000Z</time>
      </trkpt>
      <trkpt lat="45.32063" lon="6.24126">
        <ele>1270</ele>
        <time>2014-03-02T07:33:49.000Z</time>
      </trkpt>
      <trkpt lat="45.32063" lon="6.24125">
        <ele>1270</ele>
        <time>2014-03-02T07:33:50.000Z</time>
      </trkpt>
      <trkpt lat="45.32063" lon="6.24125">
        <ele>1270.4000244141</ele>
        <time>2014-03-02T07:33:51.000Z</time>
      </trkpt>
      <trkpt lat="45.32063" lon="6.24124">
        <ele>1270.5999755859</ele>
        <time>2014-03-02T07:33:52.000Z</time>
      </trkpt>
      <trkpt lat="45.32064" lon="6.24123">
        <ele>1270.8000488281</ele>
        <time>2014-03-02T07:33:53.000Z</time>
      </trkpt>
      <trkpt lat="45.32065" lon="6.24123">
        <ele>1271.4000244141</ele>
        <time>2014-03-02T07:33:54.000Z</time>
      </trkpt>
      <trkpt lat="45.32065" lon="6.24122">
        <ele>1271.5999755859</ele>
        <time>2014-03-02T07:33:55.000Z</time>
      </trkpt>
      <trkpt lat="45.32066" lon="6.24121">
        <ele>1272</ele>
        <time>2014-03-02T07:33:56.000Z</time>
      </trkpt>
      <trkpt lat="45.32066" lon="6.24121">
        <ele>1272.1999511719</ele>
        <time>2014-03-02T07:33:57.000Z</time>
      </trkpt>
      <trkpt lat="45.32067" lon="6.24121">
        <ele>1272.8000488281</ele>
        <time>2014-03-02T07:33:58.000Z</time>
      </trkpt>
      <trkpt lat="45.32068" lon="6.2412">
        <ele>1273.1999511719</ele>
        <time>2014-03-02T07:33:59.000Z</time>
      </trkpt>
      <trkpt lat="45.32068" lon="6.24119">
        <ele>1273.5999755859</ele>
        <time>2014-03-02T07:34:00.000Z</time>
      </trkpt>
      <trkpt lat="45.32068" lon="6.24119">
        <ele>1273.5999755859</ele>
        <time>2014-03-02T07:34:01.000Z</time>
      </trkpt>
      <trkpt lat="45.32068" lon="6.24119">
        <ele>1273.5999755859</ele>
        <time>2014-03-02T07:34:02.000Z</time>
      </trkpt>
      <trkpt lat="45.32068" lon="6.24119">
        <ele>1273.5999755859</ele>
        <time>2014-03-02T07:34:03.000Z</time>
      </trkpt>
      <trkpt lat="45.32069" lon="6.24118">
        <ele>1274</ele>
        <time>2014-03-02T07:34:04.000Z</time>
      </trkpt>
      <trkpt lat="45.32069" lon="6.24118">
        <ele>1274.4000244141</ele>
        <time>2014-03-02T07:34:05.000Z</time>
      </trkpt>
      <trkpt lat="45.3207" lon="6.24117">
        <ele>1274.8000488281</ele>
        <time>2014-03-02T07:34:06.000Z</time>
      </trkpt>
      <trkpt lat="45.32071" lon="6.24116">
        <ele>1275.4000244141</ele>
        <time>2014-03-02T07:34:07.000Z</time>
      </trkpt>
      <trkpt lat="45.32071" lon="6.24116">
        <ele>1275.4000244141</ele>
        <time>2014-03-02T07:34:08.000Z</time>
      </trkpt>
      <trkpt lat="45.32072" lon="6.24115">
        <ele>1276</ele>
        <time>2014-03-02T07:34:09.000Z</time>
      </trkpt>
      <trkpt lat="45.32073" lon="6.24114">
        <ele>1276.5999755859</ele>
        <time>2014-03-02T07:34:10.000Z</time>
      </trkpt>
      <trkpt lat="45.32074" lon="6.24113">
        <ele>1277.1999511719</ele>
        <time>2014-03-02T07:34:11.000Z</time>
      </trkpt>
      <trkpt lat="45.32074" lon="6.24113">
        <ele>1277.5999755859</ele>
        <time>2014-03-02T07:34:12.000Z</time>
      </trkpt>
      <trkpt lat="45.32075" lon="6.24112">
        <ele>1278.1999511719</ele>
        <time>2014-03-02T07:34:13.000Z</time>
      </trkpt>
      <trkpt lat="45.32076" lon="6.24111">
        <ele>1278.5999755859</ele>
        <time>2014-03-02T07:34:14.000Z</time>
      </trkpt>
      <trkpt lat="45.32076" lon="6.24111">
        <ele>1278.5999755859</ele>
        <time>2014-03-02T07:34:15.000Z</time>
      </trkpt>
      <trkpt lat="45.32076" lon="6.2411">
        <ele>1279</ele>
        <time>2014-03-02T07:34:16.000Z</time>
      </trkpt>
      <trkpt lat="45.32077" lon="6.24109">
        <ele>1279.4000244141</ele>
        <time>2014-03-02T07:34:17.000Z</time>
      </trkpt>
      <trkpt lat="45.32078" lon="6.24107">
        <ele>1279.8000488281</ele>
        <time>2014-03-02T07:34:18.000Z</time>
      </trkpt>
      <trkpt lat="45.32078" lon="6.24107">
        <ele>1279.8000488281</ele>
        <time>2014-03-02T07:34:19.000Z</time>
      </trkpt>
      <trkpt lat="45.32078" lon="6.24107">
        <ele>1279.8000488281</ele>
        <time>2014-03-02T07:34:20.000Z</time>
      </trkpt>
      <trkpt lat="45.32078" lon="6.24105">
        <ele>1280</ele>
        <time>2014-03-02T07:34:21.000Z</time>
      </trkpt>
      <trkpt lat="45.32078" lon="6.24105">
        <ele>1280</ele>
        <time>2014-03-02T07:34:22.000Z</time>
      </trkpt>
      <trkpt lat="45.32079" lon="6.24104">
        <ele>1280.4000244141</ele>
        <time>2014-03-02T07:34:23.000Z</time>
      </trkpt>
      <trkpt lat="45.3208" lon="6.24104">
        <ele>1281</ele>
        <time>2014-03-02T07:34:24.000Z</time>
      </trkpt>
      <trkpt lat="45.32081" lon="6.24102">
        <ele>1281.8000488281</ele>
        <time>2014-03-02T07:34:25.000Z</time>
      </trkpt>
      <trkpt lat="45.32082" lon="6.24102">
        <ele>1282.5999755859</ele>
        <time>2014-03-02T07:34:26.000Z</time>
      </trkpt>
      <trkpt lat="45.32083" lon="6.24101">
        <ele>1283.1999511719</ele>
        <time>2014-03-02T07:34:27.000Z</time>
      </trkpt>
      <trkpt lat="45.32083" lon="6.241">
        <ele>1283.5999755859</ele>
        <time>2014-03-02T07:34:28.000Z</time>
      </trkpt>
      <trkpt lat="45.32084" lon="6.24099">
        <ele>1283.8000488281</ele>
        <time>2014-03-02T07:34:29.000Z</time>
      </trkpt>
      <trkpt lat="45.32084" lon="6.24097">
        <ele>1283.8000488281</ele>
        <time>2014-03-02T07:34:30.000Z</time>
      </trkpt>
      <trkpt lat="45.32085" lon="6.24097">
        <ele>1284</ele>
        <time>2014-03-02T07:34:31.000Z</time>
      </trkpt>
      <trkpt lat="45.32086" lon="6.24095">
        <ele>1284.1999511719</ele>
        <time>2014-03-02T07:34:32.000Z</time>
      </trkpt>
      <trkpt lat="45.32086" lon="6.24094">
        <ele>1284.5999755859</ele>
        <time>2014-03-02T07:34:33.000Z</time>
      </trkpt>
      <trkpt lat="45.32087" lon="6.24094">
        <ele>1284.8000488281</ele>
        <time>2014-03-02T07:34:34.000Z</time>
      </trkpt>
      <trkpt lat="45.32087" lon="6.24093">
        <ele>1284.8000488281</ele>
        <time>2014-03-02T07:34:35.000Z</time>
      </trkpt>
      <trkpt lat="45.32087" lon="6.24092">
        <ele>1284.8000488281</ele>
        <time>2014-03-02T07:34:36.000Z</time>
      </trkpt>
      <trkpt lat="45.32088" lon="6.24091">
        <ele>1284.8000488281</ele>
        <time>2014-03-02T07:34:37.000Z</time>
      </trkpt>
      <trkpt lat="45.32088" lon="6.24091">
        <ele>1284.8000488281</ele>
        <time>2014-03-02T07:34:38.000Z</time>
      </trkpt>
      <trkpt lat="45.32088" lon="6.24091">
        <ele>1284.8000488281</ele>
        <time>2014-03-02T07:34:39.000Z</time>
      </trkpt>
      <trkpt lat="45.32089" lon="6.2409">
        <ele>1285.1999511719</ele>
        <time>2014-03-02T07:34:40.000Z</time>
      </trkpt>
      <trkpt lat="45.3209" lon="6.24089">
        <ele>1285.5999755859</ele>
        <time>2014-03-02T07:34:41.000Z</time>
      </trkpt>
      <trkpt lat="45.3209" lon="6.24088">
        <ele>1285.8000488281</ele>
        <time>2014-03-02T07:34:42.000Z</time>
      </trkpt>
      <trkpt lat="45.32091" lon="6.24087">
        <ele>1285.8000488281</ele>
        <time>2014-03-02T07:34:43.000Z</time>
      </trkpt>
      <trkpt lat="45.32092" lon="6.24086">
        <ele>1286</ele>
        <time>2014-03-02T07:34:44.000Z</time>
      </trkpt>
      <trkpt lat="45.32092" lon="6.24085">
        <ele>1286.1999511719</ele>
        <time>2014-03-02T07:34:45.000Z</time>
      </trkpt>
      <trkpt lat="45.32093" lon="6.24084">
        <ele>1286.4000244141</ele>
        <time>2014-03-02T07:34:46.000Z</time>
      </trkpt>
      <trkpt lat="45.32093" lon="6.24083">
        <ele>1286.5999755859</ele>
        <time>2014-03-02T07:34:47.000Z</time>
      </trkpt>
      <trkpt lat="45.32094" lon="6.24082">
        <ele>1286.8000488281</ele>
        <time>2014-03-02T07:34:48.000Z</time>
      </trkpt>
      <trkpt lat="45.32095" lon="6.24081">
        <ele>1287</ele>
        <time>2014-03-02T07:34:49.000Z</time>
      </trkpt>
      <trkpt lat="45.32095" lon="6.2408">
        <ele>1287.1999511719</ele>
        <time>2014-03-02T07:34:50.000Z</time>
      </trkpt>
      <trkpt lat="45.32096" lon="6.24079">
        <ele>1287.4000244141</ele>
        <time>2014-03-02T07:34:51.000Z</time>
      </trkpt>
      <trkpt lat="45.32097" lon="6.24078">
        <ele>1287.8000488281</ele>
        <time>2014-03-02T07:34:52.000Z</time>
      </trkpt>
      <trkpt lat="45.32097" lon="6.24078">
        <ele>1288</ele>
        <time>2014-03-02T07:34:53.000Z</time>
      </trkpt>
      <trkpt lat="45.32098" lon="6.24077">
        <ele>1288.1999511719</ele>
        <time>2014-03-02T07:34:54.000Z</time>
      </trkpt>
      <trkpt lat="45.32098" lon="6.24076">
        <ele>1288</ele>
        <time>2014-03-02T07:34:55.000Z</time>
      </trkpt>
      <trkpt lat="45.32098" lon="6.24076">
        <ele>1288.1999511719</ele>
        <time>2014-03-02T07:34:56.000Z</time>
      </trkpt>
      <trkpt lat="45.32099" lon="6.24075">
        <ele>1288.1999511719</ele>
        <time>2014-03-02T07:34:57.000Z</time>
      </trkpt>
      <trkpt lat="45.32099" lon="6.24075">
        <ele>1288.1999511719</ele>
        <time>2014-03-02T07:34:58.000Z</time>
      </trkpt>
      <trkpt lat="45.321" lon="6.24073">
        <ele>1288.5999755859</ele>
        <time>2014-03-02T07:34:59.000Z</time>
      </trkpt>
      <trkpt lat="45.32101" lon="6.24072">
        <ele>1289.1999511719</ele>
        <time>2014-03-02T07:35:00.000Z</time>
      </trkpt>
      <trkpt lat="45.32102" lon="6.24071">
        <ele>1289.5999755859</ele>
        <time>2014-03-02T07:35:01.000Z</time>
      </trkpt>
      <trkpt lat="45.32103" lon="6.2407">
        <ele>1289.8000488281</ele>
        <time>2014-03-02T07:35:02.000Z</time>
      </trkpt>
      <trkpt lat="45.32103" lon="6.24069">
        <ele>1289.8000488281</ele>
        <time>2014-03-02T07:35:03.000Z</time>
      </trkpt>
      <trkpt lat="45.32104" lon="6.24068">
        <ele>1290</ele>
        <time>2014-03-02T07:35:04.000Z</time>
      </trkpt>
      <trkpt lat="45.32104" lon="6.24067">
        <ele>1290</ele>
        <time>2014-03-02T07:35:05.000Z</time>
      </trkpt>
      <trkpt lat="45.32104" lon="6.24067">
        <ele>1290</ele>
        <time>2014-03-02T07:35:06.000Z</time>
      </trkpt>
      <trkpt lat="45.32105" lon="6.24066">
        <ele>1290.1999511719</ele>
        <time>2014-03-02T07:35:07.000Z</time>
      </trkpt>
      <trkpt lat="45.32105" lon="6.24065">
        <ele>1290.4000244141</ele>
        <time>2014-03-02T07:35:08.000Z</time>
      </trkpt>
      <trkpt lat="45.32106" lon="6.24064">
        <ele>1290.8000488281</ele>
        <time>2014-03-02T07:35:09.000Z</time>
      </trkpt>
      <trkpt lat="45.32107" lon="6.24063">
        <ele>1290.8000488281</ele>
        <time>2014-03-02T07:35:10.000Z</time>
      </trkpt>
      <trkpt lat="45.32107" lon="6.24062">
        <ele>1291</ele>
        <time>2014-03-02T07:35:11.000Z</time>
      </trkpt>
      <trkpt lat="45.32108" lon="6.24061">
        <ele>1291.4000244141</ele>
        <time>2014-03-02T07:35:12.000Z</time>
      </trkpt>
      <trkpt lat="45.32108" lon="6.24061">
        <ele>1291.8000488281</ele>
        <time>2014-03-02T07:35:13.000Z</time>
      </trkpt>
      <trkpt lat="45.32109" lon="6.2406">
        <ele>1292.5999755859</ele>
        <time>2014-03-02T07:35:14.000Z</time>
      </trkpt>
      <trkpt lat="45.32109" lon="6.24059">
        <ele>1293</ele>
        <time>2014-03-02T07:35:15.000Z</time>
      </trkpt>
      <trkpt lat="45.3211" lon="6.24058">
        <ele>1293.4000244141</ele>
        <time>2014-03-02T07:35:16.000Z</time>
      </trkpt>
      <trkpt lat="45.3211" lon="6.24057">
        <ele>1294</ele>
        <time>2014-03-02T07:35:17.000Z</time>
      </trkpt>
      <trkpt lat="45.32111" lon="6.24056">
        <ele>1294.8000488281</ele>
        <time>2014-03-02T07:35:18.000Z</time>
      </trkpt>
      <trkpt lat="45.32111" lon="6.24055">
        <ele>1295.1999511719</ele>
        <time>2014-03-02T07:35:19.000Z</time>
      </trkpt>
      <trkpt lat="45.32112" lon="6.24054">
        <ele>1296</ele>
        <time>2014-03-02T07:35:20.000Z</time>
      </trkpt>
      <trkpt lat="45.32113" lon="6.24053">
        <ele>1296.5999755859</ele>
        <time>2014-03-02T07:35:21.000Z</time>
      </trkpt>
      <trkpt lat="45.32114" lon="6.24052">
        <ele>1297</ele>
        <time>2014-03-02T07:35:22.000Z</time>
      </trkpt>
      <trkpt lat="45.32114" lon="6.24052">
        <ele>1297.4000244141</ele>
        <time>2014-03-02T07:35:23.000Z</time>
      </trkpt>
      <trkpt lat="45.32115" lon="6.24051">
        <ele>1297.8000488281</ele>
        <time>2014-03-02T07:35:24.000Z</time>
      </trkpt>
      <trkpt lat="45.32115" lon="6.24051">
        <ele>1298.1999511719</ele>
        <time>2014-03-02T07:35:25.000Z</time>
      </trkpt>
      <trkpt lat="45.32115" lon="6.24051">
        <ele>1298.1999511719</ele>
        <time>2014-03-02T07:35:26.000Z</time>
      </trkpt>
      <trkpt lat="45.32115" lon="6.2405">
        <ele>1298.5999755859</ele>
        <time>2014-03-02T07:35:27.000Z</time>
      </trkpt>
      <trkpt lat="45.32116" lon="6.24049">
        <ele>1299.1999511719</ele>
        <time>2014-03-02T07:35:28.000Z</time>
      </trkpt>
      <trkpt lat="45.32117" lon="6.24047">
        <ele>1299.5999755859</ele>
        <time>2014-03-02T07:35:29.000Z</time>
      </trkpt>
      <trkpt lat="45.32117" lon="6.24046">
        <ele>1299.4000244141</ele>
        <time>2014-03-02T07:35:30.000Z</time>
      </trkpt>
      <trkpt lat="45.32117" lon="6.24046">
        <ele>1299.4000244141</ele>
        <time>2014-03-02T07:35:31.000Z</time>
      </trkpt>
      <trkpt lat="45.32118" lon="6.24045">
        <ele>1299.4000244141</ele>
        <time>2014-03-02T07:35:32.000Z</time>
      </trkpt>
      <trkpt lat="45.32118" lon="6.24044">
        <ele>1299.1999511719</ele>
        <time>2014-03-02T07:35:33.000Z</time>
      </trkpt>
      <trkpt lat="45.32119" lon="6.24043">
        <ele>1299</ele>
        <time>2014-03-02T07:35:34.000Z</time>
      </trkpt>
      <trkpt lat="45.32119" lon="6.24042">
        <ele>1299</ele>
        <time>2014-03-02T07:35:35.000Z</time>
      </trkpt>
      <trkpt lat="45.32119" lon="6.24041">
        <ele>1298.8000488281</ele>
        <time>2014-03-02T07:35:36.000Z</time>
      </trkpt>
      <trkpt lat="45.3212" lon="6.2404">
        <ele>1298.8000488281</ele>
        <time>2014-03-02T07:35:37.000Z</time>
      </trkpt>
      <trkpt lat="45.32121" lon="6.24039">
        <ele>1298.8000488281</ele>
        <time>2014-03-02T07:35:38.000Z</time>
      </trkpt>
      <trkpt lat="45.32121" lon="6.24038">
        <ele>1298.5999755859</ele>
        <time>2014-03-02T07:35:39.000Z</time>
      </trkpt>
      <trkpt lat="45.32122" lon="6.24038">
        <ele>1298.5999755859</ele>
        <time>2014-03-02T07:35:40.000Z</time>
      </trkpt>
      <trkpt lat="45.32122" lon="6.24038">
        <ele>1298.5999755859</ele>
        <time>2014-03-02T07:35:41.000Z</time>
      </trkpt>
      <trkpt lat="45.32122" lon="6.24037">
        <ele>1298.5999755859</ele>
        <time>2014-03-02T07:35:42.000Z</time>
      </trkpt>
      <trkpt lat="45.32122" lon="6.24037">
        <ele>1298.5999755859</ele>
        <time>2014-03-02T07:35:43.000Z</time>
      </trkpt>
      <trkpt lat="45.32123" lon="6.24035">
        <ele>1298.4000244141</ele>
        <time>2014-03-02T07:35:44.000Z</time>
      </trkpt>
      <trkpt lat="45.32124" lon="6.24035">
        <ele>1298.4000244141</ele>
        <time>2014-03-02T07:35:45.000Z</time>
      </trkpt>
      <trkpt lat="45.32124" lon="6.24033">
        <ele>1298.1999511719</ele>
        <time>2014-03-02T07:35:46.000Z</time>
      </trkpt>
      <trkpt lat="45.32124" lon="6.24033">
        <ele>1298.1999511719</ele>
        <time>2014-03-02T07:35:47.000Z</time>
      </trkpt>
      <trkpt lat="45.32125" lon="6.24032">
        <ele>1298</ele>
        <time>2014-03-02T07:35:48.000Z</time>
      </trkpt>
      <trkpt lat="45.32125" lon="6.24031">
        <ele>1298</ele>
        <time>2014-03-02T07:35:49.000Z</time>
      </trkpt>
      <trkpt lat="45.32125" lon="6.24031">
        <ele>1298</ele>
        <time>2014-03-02T07:35:50.000Z</time>
      </trkpt>
      <trkpt lat="45.32126" lon="6.24029">
        <ele>1297.8000488281</ele>
        <time>2014-03-02T07:35:51.000Z</time>
      </trkpt>
      <trkpt lat="45.32126" lon="6.24029">
        <ele>1297.8000488281</ele>
        <time>2014-03-02T07:35:52.000Z</time>
      </trkpt>
      <trkpt lat="45.32127" lon="6.24028">
        <ele>1297.5999755859</ele>
        <time>2014-03-02T07:35:53.000Z</time>
      </trkpt>
      <trkpt lat="45.32127" lon="6.24026">
        <ele>1297.4000244141</ele>
        <time>2014-03-02T07:35:54.000Z</time>
      </trkpt>
      <trkpt lat="45.32128" lon="6.24025">
        <ele>1297.4000244141</ele>
        <time>2014-03-02T07:35:55.000Z</time>
      </trkpt>
      <trkpt lat="45.32128" lon="6.24025">
        <ele>1297.4000244141</ele>
        <time>2014-03-02T07:35:56.000Z</time>
      </trkpt>
      <trkpt lat="45.32129" lon="6.24024">
        <ele>1297.4000244141</ele>
        <time>2014-03-02T07:35:57.000Z</time>
      </trkpt>
      <trkpt lat="45.3213" lon="6.24024">
        <ele>1297.4000244141</ele>
        <time>2014-03-02T07:35:58.000Z</time>
      </trkpt>
      <trkpt lat="45.3213" lon="6.24024">
        <ele>1297.4000244141</ele>
        <time>2014-03-02T07:35:59.000Z</time>
      </trkpt>
      <trkpt lat="45.3213" lon="6.24024">
        <ele>1297.4000244141</ele>
        <time>2014-03-02T07:36:00.000Z</time>
      </trkpt>
      <trkpt lat="45.3213" lon="6.24024">
        <ele>1297.4000244141</ele>
        <time>2014-03-02T07:36:01.000Z</time>
      </trkpt>
      <trkpt lat="45.3213" lon="6.24024">
        <ele>1297.4000244141</ele>
        <time>2014-03-02T07:36:02.000Z</time>
      </trkpt>
      <trkpt lat="45.32131" lon="6.24022">
        <ele>1297.5999755859</ele>
        <time>2014-03-02T07:36:03.000Z</time>
      </trkpt>
      <trkpt lat="45.32131" lon="6.2402">
        <ele>1297.8000488281</ele>
        <time>2014-03-02T07:36:04.000Z</time>
      </trkpt>
      <trkpt lat="45.32132" lon="6.24018">
        <ele>1298</ele>
        <time>2014-03-02T07:36:05.000Z</time>
      </trkpt>
      <trkpt lat="45.32132" lon="6.24017">
        <ele>1298</ele>
        <time>2014-03-02T07:36:06.000Z</time>
      </trkpt>
      <trkpt lat="45.32133" lon="6.24017">
        <ele>1298</ele>
        <time>2014-03-02T07:36:07.000Z</time>
      </trkpt>
      <trkpt lat="45.32133" lon="6.24015">
        <ele>1298</ele>
        <time>2014-03-02T07:36:08.000Z</time>
      </trkpt>
      <trkpt lat="45.32133" lon="6.24014">
        <ele>1298.1999511719</ele>
        <time>2014-03-02T07:36:09.000Z</time>
      </trkpt>
      <trkpt lat="45.32134" lon="6.24014">
        <ele>1298.5999755859</ele>
        <time>2014-03-02T07:36:10.000Z</time>
      </trkpt>
      <trkpt lat="45.32134" lon="6.24012">
        <ele>1298.8000488281</ele>
        <time>2014-03-02T07:36:11.000Z</time>
      </trkpt>
      <trkpt lat="45.32134" lon="6.2401">
        <ele>1298.4000244141</ele>
        <time>2014-03-02T07:36:12.000Z</time>
      </trkpt>
      <trkpt lat="45.32135" lon="6.24008">
        <ele>1298.1999511719</ele>
        <time>2014-03-02T07:36:13.000Z</time>
      </trkpt>
      <trkpt lat="45.32135" lon="6.24008">
        <ele>1298.1999511719</ele>
        <time>2014-03-02T07:36:14.000Z</time>
      </trkpt>
      <trkpt lat="45.32135" lon="6.24007">
        <ele>1298.1999511719</ele>
        <time>2014-03-02T07:36:15.000Z</time>
      </trkpt>
      <trkpt lat="45.32135" lon="6.24006">
        <ele>1298.5999755859</ele>
        <time>2014-03-02T07:36:16.000Z</time>
      </trkpt>
      <trkpt lat="45.32136" lon="6.24004">
        <ele>1298.8000488281</ele>
        <time>2014-03-02T07:36:17.000Z</time>
      </trkpt>
      <trkpt lat="45.32137" lon="6.24004">
        <ele>1299.1999511719</ele>
        <time>2014-03-02T07:36:18.000Z</time>
      </trkpt>
      <trkpt lat="45.32137" lon="6.24003">
        <ele>1299.5999755859</ele>
        <time>2014-03-02T07:36:19.000Z</time>
      </trkpt>
      <trkpt lat="45.32138" lon="6.24002">
        <ele>1300</ele>
        <time>2014-03-02T07:36:20.000Z</time>
      </trkpt>
      <trkpt lat="45.32138" lon="6.24002">
        <ele>1300</ele>
        <time>2014-03-02T07:36:21.000Z</time>
      </trkpt>
      <trkpt lat="45.32139" lon="6.24001">
        <ele>1300.1999511719</ele>
        <time>2014-03-02T07:36:22.000Z</time>
      </trkpt>
      <trkpt lat="45.32139" lon="6.23999">
        <ele>1300.1999511719</ele>
        <time>2014-03-02T07:36:23.000Z</time>
      </trkpt>
      <trkpt lat="45.3214" lon="6.23998">
        <ele>1300.5999755859</ele>
        <time>2014-03-02T07:36:24.000Z</time>
      </trkpt>
      <trkpt lat="45.3214" lon="6.23997">
        <ele>1301</ele>
        <time>2014-03-02T07:36:25.000Z</time>
      </trkpt>
      <trkpt lat="45.32141" lon="6.23996">
        <ele>1301.4000244141</ele>
        <time>2014-03-02T07:36:26.000Z</time>
      </trkpt>
      <trkpt lat="45.32142" lon="6.23995">
        <ele>1301.5999755859</ele>
        <time>2014-03-02T07:36:27.000Z</time>
      </trkpt>
      <trkpt lat="45.32142" lon="6.23994">
        <ele>1301.5999755859</ele>
        <time>2014-03-02T07:36:28.000Z</time>
      </trkpt>
      <trkpt lat="45.32142" lon="6.23993">
        <ele>1301.8000488281</ele>
        <time>2014-03-02T07:36:29.000Z</time>
      </trkpt>
      <trkpt lat="45.32143" lon="6.23992">
        <ele>1302.1999511719</ele>
        <time>2014-03-02T07:36:30.000Z</time>
      </trkpt>
      <trkpt lat="45.32144" lon="6.23991">
        <ele>1302.5999755859</ele>
        <time>2014-03-02T07:36:31.000Z</time>
      </trkpt>
      <trkpt lat="45.32144" lon="6.23991">
        <ele>1303</ele>
        <time>2014-03-02T07:36:32.000Z</time>
      </trkpt>
      <trkpt lat="45.32144" lon="6.23991">
        <ele>1303</ele>
        <time>2014-03-02T07:36:33.000Z</time>
      </trkpt>
      <trkpt lat="45.32145" lon="6.2399">
        <ele>1303.1999511719</ele>
        <time>2014-03-02T07:36:34.000Z</time>
      </trkpt>
      <trkpt lat="45.32146" lon="6.2399">
        <ele>1303.5999755859</ele>
        <time>2014-03-02T07:36:35.000Z</time>
      </trkpt>
      <trkpt lat="45.32146" lon="6.2399">
        <ele>1303.5999755859</ele>
        <time>2014-03-02T07:36:36.000Z</time>
      </trkpt>
      <trkpt lat="45.32147" lon="6.23989">
        <ele>1304.1999511719</ele>
        <time>2014-03-02T07:36:37.000Z</time>
      </trkpt>
      <trkpt lat="45.32147" lon="6.23989">
        <ele>1304.1999511719</ele>
        <time>2014-03-02T07:36:38.000Z</time>
      </trkpt>
      <trkpt lat="45.32148" lon="6.23988">
        <ele>1304.4000244141</ele>
        <time>2014-03-02T07:36:39.000Z</time>
      </trkpt>
      <trkpt lat="45.32149" lon="6.23988">
        <ele>1304.8000488281</ele>
        <time>2014-03-02T07:36:40.000Z</time>
      </trkpt>
      <trkpt lat="45.32149" lon="6.23988">
        <ele>1304.8000488281</ele>
        <time>2014-03-02T07:36:41.000Z</time>
      </trkpt>
      <trkpt lat="45.3215" lon="6.23987">
        <ele>1305.4000244141</ele>
        <time>2014-03-02T07:36:42.000Z</time>
      </trkpt>
      <trkpt lat="45.3215" lon="6.23987">
        <ele>1305.4000244141</ele>
        <time>2014-03-02T07:36:43.000Z</time>
      </trkpt>
      <trkpt lat="45.32151" lon="6.23987">
        <ele>1306</ele>
        <time>2014-03-02T07:36:44.000Z</time>
      </trkpt>
      <trkpt lat="45.32151" lon="6.23987">
        <ele>1306</ele>
        <time>2014-03-02T07:36:45.000Z</time>
      </trkpt>
      <trkpt lat="45.32152" lon="6.23986">
        <ele>1306.4000244141</ele>
        <time>2014-03-02T07:36:46.000Z</time>
      </trkpt>
      <trkpt lat="45.32153" lon="6.23986">
        <ele>1306.8000488281</ele>
        <time>2014-03-02T07:36:47.000Z</time>
      </trkpt>
      <trkpt lat="45.32153" lon="6.23985">
        <ele>1307</ele>
        <time>2014-03-02T07:36:48.000Z</time>
      </trkpt>
      <trkpt lat="45.32154" lon="6.23984">
        <ele>1307.4000244141</ele>
        <time>2014-03-02T07:36:49.000Z</time>
      </trkpt>
      <trkpt lat="45.32155" lon="6.23983">
        <ele>1308.1999511719</ele>
        <time>2014-03-02T07:36:50.000Z</time>
      </trkpt>
      <trkpt lat="45.32156" lon="6.23983">
        <ele>1308.8000488281</ele>
        <time>2014-03-02T07:36:51.000Z</time>
      </trkpt>
      <trkpt lat="45.32157" lon="6.23982">
        <ele>1309.1999511719</ele>
        <time>2014-03-02T07:36:52.000Z</time>
      </trkpt>
      <trkpt lat="45.32158" lon="6.23982">
        <ele>1309.5999755859</ele>
        <time>2014-03-02T07:36:53.000Z</time>
      </trkpt>
      <trkpt lat="45.32159" lon="6.23981">
        <ele>1309.8000488281</ele>
        <time>2014-03-02T07:36:54.000Z</time>
      </trkpt>
      <trkpt lat="45.32159" lon="6.2398">
        <ele>1309.8000488281</ele>
        <time>2014-03-02T07:36:55.000Z</time>
      </trkpt>
      <trkpt lat="45.32159" lon="6.2398">
        <ele>1309.8000488281</ele>
        <time>2014-03-02T07:36:56.000Z</time>
      </trkpt>
      <trkpt lat="45.3216" lon="6.2398">
        <ele>1310.1999511719</ele>
        <time>2014-03-02T07:36:57.000Z</time>
      </trkpt>
      <trkpt lat="45.3216" lon="6.2398">
        <ele>1310.1999511719</ele>
        <time>2014-03-02T07:36:58.000Z</time>
      </trkpt>
      <trkpt lat="45.3216" lon="6.2398">
        <ele>1310.5999755859</ele>
        <time>2014-03-02T07:36:59.000Z</time>
      </trkpt>
      <trkpt lat="45.32161" lon="6.2398">
        <ele>1311</ele>
        <time>2014-03-02T07:37:00.000Z</time>
      </trkpt>
      <trkpt lat="45.32162" lon="6.2398">
        <ele>1311.5999755859</ele>
        <time>2014-03-02T07:37:01.000Z</time>
      </trkpt>
      <trkpt lat="45.32163" lon="6.2398">
        <ele>1312</ele>
        <time>2014-03-02T07:37:02.000Z</time>
      </trkpt>
      <trkpt lat="45.32163" lon="6.23979">
        <ele>1312.4000244141</ele>
        <time>2014-03-02T07:37:03.000Z</time>
      </trkpt>
      <trkpt lat="45.32164" lon="6.23979">
        <ele>1312.8000488281</ele>
        <time>2014-03-02T07:37:04.000Z</time>
      </trkpt>
      <trkpt lat="45.32165" lon="6.23979">
        <ele>1313.1999511719</ele>
        <time>2014-03-02T07:37:05.000Z</time>
      </trkpt>
      <trkpt lat="45.32165" lon="6.23979">
        <ele>1313.4000244141</ele>
        <time>2014-03-02T07:37:06.000Z</time>
      </trkpt>
      <trkpt lat="45.32165" lon="6.23979">
        <ele>1313.4000244141</ele>
        <time>2014-03-02T07:37:07.000Z</time>
      </trkpt>
      <trkpt lat="45.32166" lon="6.23978">
        <ele>1314</ele>
        <time>2014-03-02T07:37:08.000Z</time>
      </trkpt>
      <trkpt lat="45.32167" lon="6.23978">
        <ele>1314.5999755859</ele>
        <time>2014-03-02T07:37:09.000Z</time>
      </trkpt>
      <trkpt lat="45.32168" lon="6.23976">
        <ele>1315.1999511719</ele>
        <time>2014-03-02T07:37:10.000Z</time>
      </trkpt>
      <trkpt lat="45.32169" lon="6.23976">
        <ele>1316</ele>
        <time>2014-03-02T07:37:11.000Z</time>
      </trkpt>
      <trkpt lat="45.32169" lon="6.23976">
        <ele>1316.4000244141</ele>
        <time>2014-03-02T07:37:12.000Z</time>
      </trkpt>
      <trkpt lat="45.3217" lon="6.23975">
        <ele>1317.1999511719</ele>
        <time>2014-03-02T07:37:13.000Z</time>
      </trkpt>
      <trkpt lat="45.32171" lon="6.23975">
        <ele>1317.5999755859</ele>
        <time>2014-03-02T07:37:14.000Z</time>
      </trkpt>
      <trkpt lat="45.32171" lon="6.23975">
        <ele>1318</ele>
        <time>2014-03-02T07:37:15.000Z</time>
      </trkpt>
      <trkpt lat="45.32172" lon="6.23974">
        <ele>1318.5999755859</ele>
        <time>2014-03-02T07:37:16.000Z</time>
      </trkpt>
      <trkpt lat="45.32173" lon="6.23973">
        <ele>1319</ele>
        <time>2014-03-02T07:37:17.000Z</time>
      </trkpt>
      <trkpt lat="45.32173" lon="6.23973">
        <ele>1319</ele>
        <time>2014-03-02T07:37:18.000Z</time>
      </trkpt>
      <trkpt lat="45.32173" lon="6.23972">
        <ele>1319.4000244141</ele>
        <time>2014-03-02T07:37:19.000Z</time>
      </trkpt>
      <trkpt lat="45.32173" lon="6.23972">
        <ele>1319.4000244141</ele>
        <time>2014-03-02T07:37:20.000Z</time>
      </trkpt>
      <trkpt lat="45.32174" lon="6.23972">
        <ele>1319.5999755859</ele>
        <time>2014-03-02T07:37:21.000Z</time>
      </trkpt>
      <trkpt lat="45.32174" lon="6.23971">
        <ele>1320</ele>
        <time>2014-03-02T07:37:22.000Z</time>
      </trkpt>
      <trkpt lat="45.32175" lon="6.23971">
        <ele>1320.1999511719</ele>
        <time>2014-03-02T07:37:23.000Z</time>
      </trkpt>
      <trkpt lat="45.32175" lon="6.2397">
        <ele>1321</ele>
        <time>2014-03-02T07:37:24.000Z</time>
      </trkpt>
      <trkpt lat="45.32176" lon="6.2397">
        <ele>1321.4000244141</ele>
        <time>2014-03-02T07:37:25.000Z</time>
      </trkpt>
      <trkpt lat="45.32177" lon="6.23969">
        <ele>1321.8000488281</ele>
        <time>2014-03-02T07:37:26.000Z</time>
      </trkpt>
      <trkpt lat="45.32177" lon="6.23968">
        <ele>1322.1999511719</ele>
        <time>2014-03-02T07:37:27.000Z</time>
      </trkpt>
      <trkpt lat="45.32177" lon="6.23967">
        <ele>1322.4000244141</ele>
        <time>2014-03-02T07:37:28.000Z</time>
      </trkpt>
      <trkpt lat="45.32178" lon="6.23966">
        <ele>1322.8000488281</ele>
        <time>2014-03-02T07:37:29.000Z</time>
      </trkpt>
      <trkpt lat="45.32178" lon="6.23966">
        <ele>1322.8000488281</ele>
        <time>2014-03-02T07:37:30.000Z</time>
      </trkpt>
      <trkpt lat="45.32178" lon="6.23966">
        <ele>1323.1999511719</ele>
        <time>2014-03-02T07:37:31.000Z</time>
      </trkpt>
      <trkpt lat="45.32178" lon="6.23966">
        <ele>1323.1999511719</ele>
        <time>2014-03-02T07:37:32.000Z</time>
      </trkpt>
      <trkpt lat="45.32179" lon="6.23966">
        <ele>1323.5999755859</ele>
        <time>2014-03-02T07:37:33.000Z</time>
      </trkpt>
      <trkpt lat="45.32179" lon="6.23965">
        <ele>1323.8000488281</ele>
        <time>2014-03-02T07:37:34.000Z</time>
      </trkpt>
      <trkpt lat="45.32179" lon="6.23965">
        <ele>1324</ele>
        <time>2014-03-02T07:37:35.000Z</time>
      </trkpt>
      <trkpt lat="45.32179" lon="6.23965">
        <ele>1324</ele>
        <time>2014-03-02T07:37:36.000Z</time>
      </trkpt>
      <trkpt lat="45.3218" lon="6.23965">
        <ele>1324.4000244141</ele>
        <time>2014-03-02T07:37:37.000Z</time>
      </trkpt>
      <trkpt lat="45.3218" lon="6.23964">
        <ele>1324.5999755859</ele>
        <time>2014-03-02T07:37:38.000Z</time>
      </trkpt>
      <trkpt lat="45.32181" lon="6.23963">
        <ele>1325</ele>
        <time>2014-03-02T07:37:39.000Z</time>
      </trkpt>
      <trkpt lat="45.32181" lon="6.23962">
        <ele>1325.1999511719</ele>
        <time>2014-03-02T07:37:40.000Z</time>
      </trkpt>
      <trkpt lat="45.32182" lon="6.23962">
        <ele>1325.5999755859</ele>
        <time>2014-03-02T07:37:41.000Z</time>
      </trkpt>
      <trkpt lat="45.32182" lon="6.23961">
        <ele>1326</ele>
        <time>2014-03-02T07:37:42.000Z</time>
      </trkpt>
      <trkpt lat="45.32182" lon="6.23961">
        <ele>1326</ele>
        <time>2014-03-02T07:37:43.000Z</time>
      </trkpt>
      <trkpt lat="45.32183" lon="6.2396">
        <ele>1326.4000244141</ele>
        <time>2014-03-02T07:37:44.000Z</time>
      </trkpt>
      <trkpt lat="45.32183" lon="6.23959">
        <ele>1326.5999755859</ele>
        <time>2014-03-02T07:37:45.000Z</time>
      </trkpt>
      <trkpt lat="45.32184" lon="6.23959">
        <ele>1327.1999511719</ele>
        <time>2014-03-02T07:37:46.000Z</time>
      </trkpt>
      <trkpt lat="45.32185" lon="6.23958">
        <ele>1328.1999511719</ele>
        <time>2014-03-02T07:37:47.000Z</time>
      </trkpt>
      <trkpt lat="45.32186" lon="6.23957">
        <ele>1328.8000488281</ele>
        <time>2014-03-02T07:37:48.000Z</time>
      </trkpt>
      <trkpt lat="45.32187" lon="6.23956">
        <ele>1329.4000244141</ele>
        <time>2014-03-02T07:37:49.000Z</time>
      </trkpt>
      <trkpt lat="45.32187" lon="6.23956">
        <ele>1329.8000488281</ele>
        <time>2014-03-02T07:37:50.000Z</time>
      </trkpt>
      <trkpt lat="45.32187" lon="6.23956">
        <ele>1329.8000488281</ele>
        <time>2014-03-02T07:37:51.000Z</time>
      </trkpt>
      <trkpt lat="45.32187" lon="6.23955">
        <ele>1330</ele>
        <time>2014-03-02T07:37:52.000Z</time>
      </trkpt>
      <trkpt lat="45.32187" lon="6.23955">
        <ele>1330</ele>
        <time>2014-03-02T07:37:53.000Z</time>
      </trkpt>
      <trkpt lat="45.32188" lon="6.23955">
        <ele>1330.4000244141</ele>
        <time>2014-03-02T07:37:54.000Z</time>
      </trkpt>
      <trkpt lat="45.32188" lon="6.23955">
        <ele>1330.5999755859</ele>
        <time>2014-03-02T07:37:55.000Z</time>
      </trkpt>
      <trkpt lat="45.32189" lon="6.23954">
        <ele>1331</ele>
        <time>2014-03-02T07:37:56.000Z</time>
      </trkpt>
      <trkpt lat="45.32189" lon="6.23954">
        <ele>1331</ele>
        <time>2014-03-02T07:37:57.000Z</time>
      </trkpt>
      <trkpt lat="45.3219" lon="6.23953">
        <ele>1331</ele>
        <time>2014-03-02T07:37:58.000Z</time>
      </trkpt>
      <trkpt lat="45.3219" lon="6.23953">
        <ele>1331</ele>
        <time>2014-03-02T07:37:59.000Z</time>
      </trkpt>
      <trkpt lat="45.3219" lon="6.23953">
        <ele>1331</ele>
        <time>2014-03-02T07:38:00.000Z</time>
      </trkpt>
      <trkpt lat="45.3219" lon="6.23953">
        <ele>1331</ele>
        <time>2014-03-02T07:38:01.000Z</time>
      </trkpt>
      <trkpt lat="45.32191" lon="6.23952">
        <ele>1331</ele>
        <time>2014-03-02T07:38:02.000Z</time>
      </trkpt>
      <trkpt lat="45.32191" lon="6.23952">
        <ele>1331</ele>
        <time>2014-03-02T07:38:03.000Z</time>
      </trkpt>
      <trkpt lat="45.32191" lon="6.23951">
        <ele>1330.8000488281</ele>
        <time>2014-03-02T07:38:04.000Z</time>
      </trkpt>
      <trkpt lat="45.32191" lon="6.23951">
        <ele>1330.8000488281</ele>
        <time>2014-03-02T07:38:05.000Z</time>
      </trkpt>
      <trkpt lat="45.32192" lon="6.2395">
        <ele>1330.8000488281</ele>
        <time>2014-03-02T07:38:06.000Z</time>
      </trkpt>
      <trkpt lat="45.32192" lon="6.23949">
        <ele>1330.8000488281</ele>
        <time>2014-03-02T07:38:07.000Z</time>
      </trkpt>
      <trkpt lat="45.32192" lon="6.23949">
        <ele>1330.8000488281</ele>
        <time>2014-03-02T07:38:08.000Z</time>
      </trkpt>
      <trkpt lat="45.32193" lon="6.23948">
        <ele>1330.8000488281</ele>
        <time>2014-03-02T07:38:09.000Z</time>
      </trkpt>
      <trkpt lat="45.32194" lon="6.23947">
        <ele>1330.8000488281</ele>
        <time>2014-03-02T07:38:10.000Z</time>
      </trkpt>
      <trkpt lat="45.32194" lon="6.23947">
        <ele>1330.8000488281</ele>
        <time>2014-03-02T07:38:11.000Z</time>
      </trkpt>
      <trkpt lat="45.32194" lon="6.23947">
        <ele>1331</ele>
        <time>2014-03-02T07:38:12.000Z</time>
      </trkpt>
      <trkpt lat="45.32194" lon="6.23947">
        <ele>1331</ele>
        <time>2014-03-02T07:38:13.000Z</time>
      </trkpt>
      <trkpt lat="45.32195" lon="6.23946">
        <ele>1330.8000488281</ele>
        <time>2014-03-02T07:38:14.000Z</time>
      </trkpt>
      <trkpt lat="45.32196" lon="6.23945">
        <ele>1331</ele>
        <time>2014-03-02T07:38:15.000Z</time>
      </trkpt>
      <trkpt lat="45.32196" lon="6.23944">
        <ele>1331</ele>
        <time>2014-03-02T07:38:16.000Z</time>
      </trkpt>
      <trkpt lat="45.32197" lon="6.23943">
        <ele>1331</ele>
        <time>2014-03-02T07:38:17.000Z</time>
      </trkpt>
      <trkpt lat="45.32197" lon="6.23943">
        <ele>1331</ele>
        <time>2014-03-02T07:38:18.000Z</time>
      </trkpt>
      <trkpt lat="45.32198" lon="6.23943">
        <ele>1331.4000244141</ele>
        <time>2014-03-02T07:38:19.000Z</time>
      </trkpt>
      <trkpt lat="45.32199" lon="6.23943">
        <ele>1331.4000244141</ele>
        <time>2014-03-02T07:38:20.000Z</time>
      </trkpt>
      <trkpt lat="45.322" lon="6.23941">
        <ele>1331.4000244141</ele>
        <time>2014-03-02T07:38:21.000Z</time>
      </trkpt>
      <trkpt lat="45.322" lon="6.23941">
        <ele>1331.4000244141</ele>
        <time>2014-03-02T07:38:22.000Z</time>
      </trkpt>
      <trkpt lat="45.322" lon="6.23941">
        <ele>1331.4000244141</ele>
        <time>2014-03-02T07:38:23.000Z</time>
      </trkpt>
      <trkpt lat="45.32201" lon="6.2394">
        <ele>1331.4000244141</ele>
        <time>2014-03-02T07:38:24.000Z</time>
      </trkpt>
      <trkpt lat="45.32201" lon="6.2394">
        <ele>1331.4000244141</ele>
        <time>2014-03-02T07:38:25.000Z</time>
      </trkpt>
      <trkpt lat="45.32201" lon="6.23939">
        <ele>1331.4000244141</ele>
        <time>2014-03-02T07:38:26.000Z</time>
      </trkpt>
      <trkpt lat="45.32201" lon="6.23939">
        <ele>1331.4000244141</ele>
        <time>2014-03-02T07:38:27.000Z</time>
      </trkpt>
      <trkpt lat="45.32202" lon="6.23938">
        <ele>1331.4000244141</ele>
        <time>2014-03-02T07:38:28.000Z</time>
      </trkpt>
      <trkpt lat="45.32202" lon="6.23938">
        <ele>1331.4000244141</ele>
        <time>2014-03-02T07:38:29.000Z</time>
      </trkpt>
      <trkpt lat="45.32202" lon="6.23937">
        <ele>1331</ele>
        <time>2014-03-02T07:38:30.000Z</time>
      </trkpt>
      <trkpt lat="45.32202" lon="6.23936">
        <ele>1331</ele>
        <time>2014-03-02T07:38:31.000Z</time>
      </trkpt>
      <trkpt lat="45.32202" lon="6.23935">
        <ele>1330.8000488281</ele>
        <time>2014-03-02T07:38:32.000Z</time>
      </trkpt>
      <trkpt lat="45.32203" lon="6.23935">
        <ele>1331</ele>
        <time>2014-03-02T07:38:33.000Z</time>
      </trkpt>
      <trkpt lat="45.32204" lon="6.23934">
        <ele>1331.1999511719</ele>
        <time>2014-03-02T07:38:34.000Z</time>
      </trkpt>
      <trkpt lat="45.32205" lon="6.23933">
        <ele>1331.1999511719</ele>
        <time>2014-03-02T07:38:35.000Z</time>
      </trkpt>
      <trkpt lat="45.32205" lon="6.23933">
        <ele>1331.1999511719</ele>
        <time>2014-03-02T07:38:36.000Z</time>
      </trkpt>
      <trkpt lat="45.32206" lon="6.23932">
        <ele>1331.1999511719</ele>
        <time>2014-03-02T07:38:37.000Z</time>
      </trkpt>
      <trkpt lat="45.32207" lon="6.23931">
        <ele>1331.4000244141</ele>
        <time>2014-03-02T07:38:38.000Z</time>
      </trkpt>
      <trkpt lat="45.32208" lon="6.23931">
        <ele>1331.5999755859</ele>
        <time>2014-03-02T07:38:39.000Z</time>
      </trkpt>
      <trkpt lat="45.32209" lon="6.2393">
        <ele>1331.5999755859</ele>
        <time>2014-03-02T07:38:40.000Z</time>
      </trkpt>
      <trkpt lat="45.32209" lon="6.23929">
        <ele>1331.5999755859</ele>
        <time>2014-03-02T07:38:41.000Z</time>
      </trkpt>
      <trkpt lat="45.3221" lon="6.23928">
        <ele>1331.5999755859</ele>
        <time>2014-03-02T07:38:42.000Z</time>
      </trkpt>
      <trkpt lat="45.3221" lon="6.23928">
        <ele>1331.5999755859</ele>
        <time>2014-03-02T07:38:43.000Z</time>
      </trkpt>
      <trkpt lat="45.32211" lon="6.23927">
        <ele>1331.5999755859</ele>
        <time>2014-03-02T07:38:44.000Z</time>
      </trkpt>
      <trkpt lat="45.32211" lon="6.23927">
        <ele>1331.5999755859</ele>
        <time>2014-03-02T07:38:45.000Z</time>
      </trkpt>
      <trkpt lat="45.32212" lon="6.23926">
        <ele>1331.5999755859</ele>
        <time>2014-03-02T07:38:46.000Z</time>
      </trkpt>
      <trkpt lat="45.32212" lon="6.23925">
        <ele>1331.4000244141</ele>
        <time>2014-03-02T07:38:47.000Z</time>
      </trkpt>
      <trkpt lat="45.32211" lon="6.23925">
        <ele>1331.1999511719</ele>
        <time>2014-03-02T07:38:48.000Z</time>
      </trkpt>
      <trkpt lat="45.32211" lon="6.23925">
        <ele>1331.1999511719</ele>
        <time>2014-03-02T07:38:49.000Z</time>
      </trkpt>
      <trkpt lat="45.32211" lon="6.23925">
        <ele>1331.1999511719</ele>
        <time>2014-03-02T07:38:50.000Z</time>
      </trkpt>
      <trkpt lat="45.32211" lon="6.23925">
        <ele>1331.1999511719</ele>
        <time>2014-03-02T07:38:51.000Z</time>
      </trkpt>
      <trkpt lat="45.32211" lon="6.23924">
        <ele>1331</ele>
        <time>2014-03-02T07:38:52.000Z</time>
      </trkpt>
      <trkpt lat="45.32211" lon="6.23924">
        <ele>1331</ele>
        <time>2014-03-02T07:38:53.000Z</time>
      </trkpt>
      <trkpt lat="45.32212" lon="6.23923">
        <ele>1330.8000488281</ele>
        <time>2014-03-02T07:38:54.000Z</time>
      </trkpt>
      <trkpt lat="45.32212" lon="6.23923">
        <ele>1330.8000488281</ele>
        <time>2014-03-02T07:38:55.000Z</time>
      </trkpt>
      <trkpt lat="45.32212" lon="6.23922">
        <ele>1330.8000488281</ele>
        <time>2014-03-02T07:38:56.000Z</time>
      </trkpt>
      <trkpt lat="45.32213" lon="6.23922">
        <ele>1330.8000488281</ele>
        <time>2014-03-02T07:38:57.000Z</time>
      </trkpt>
      <trkpt lat="45.32213" lon="6.23922">
        <ele>1331</ele>
        <time>2014-03-02T07:38:58.000Z</time>
      </trkpt>
      <trkpt lat="45.32214" lon="6.23921">
        <ele>1331.5999755859</ele>
        <time>2014-03-02T07:38:59.000Z</time>
      </trkpt>
      <trkpt lat="45.32215" lon="6.23921">
        <ele>1332</ele>
        <time>2014-03-02T07:39:00.000Z</time>
      </trkpt>
      <trkpt lat="45.32215" lon="6.2392">
        <ele>1332</ele>
        <time>2014-03-02T07:39:01.000Z</time>
      </trkpt>
      <trkpt lat="45.32215" lon="6.2392">
        <ele>1332</ele>
        <time>2014-03-02T07:39:02.000Z</time>
      </trkpt>
      <trkpt lat="45.32215" lon="6.2392">
        <ele>1332</ele>
        <time>2014-03-02T07:39:03.000Z</time>
      </trkpt>
      <trkpt lat="45.32216" lon="6.23919">
        <ele>1332.1999511719</ele>
        <time>2014-03-02T07:39:04.000Z</time>
      </trkpt>
      <trkpt lat="45.32216" lon="6.23919">
        <ele>1332.1999511719</ele>
        <time>2014-03-02T07:39:05.000Z</time>
      </trkpt>
      <trkpt lat="45.32216" lon="6.23919">
        <ele>1332.4000244141</ele>
        <time>2014-03-02T07:39:06.000Z</time>
      </trkpt>
      <trkpt lat="45.32216" lon="6.23918">
        <ele>1332.4000244141</ele>
        <time>2014-03-02T07:39:07.000Z</time>
      </trkpt>
      <trkpt lat="45.32217" lon="6.23918">
        <ele>1332.5999755859</ele>
        <time>2014-03-02T07:39:08.000Z</time>
      </trkpt>
      <trkpt lat="45.32218" lon="6.23916">
        <ele>1333</ele>
        <time>2014-03-02T07:39:09.000Z</time>
      </trkpt>
      <trkpt lat="45.32219" lon="6.23916">
        <ele>1333.4000244141</ele>
        <time>2014-03-02T07:39:10.000Z</time>
      </trkpt>
      <trkpt lat="45.32219" lon="6.23914">
        <ele>1333.8000488281</ele>
        <time>2014-03-02T07:39:11.000Z</time>
      </trkpt>
      <trkpt lat="45.3222" lon="6.23914">
        <ele>1334.4000244141</ele>
        <time>2014-03-02T07:39:12.000Z</time>
      </trkpt>
      <trkpt lat="45.32221" lon="6.23913">
        <ele>1334.5999755859</ele>
        <time>2014-03-02T07:39:13.000Z</time>
      </trkpt>
      <trkpt lat="45.32221" lon="6.23913">
        <ele>1334.8000488281</ele>
        <time>2014-03-02T07:39:14.000Z</time>
      </trkpt>
      <trkpt lat="45.32222" lon="6.23912">
        <ele>1334.8000488281</ele>
        <time>2014-03-02T07:39:15.000Z</time>
      </trkpt>
      <trkpt lat="45.32222" lon="6.23911">
        <ele>1335</ele>
        <time>2014-03-02T07:39:16.000Z</time>
      </trkpt>
      <trkpt lat="45.32222" lon="6.23911">
        <ele>1335</ele>
        <time>2014-03-02T07:39:17.000Z</time>
      </trkpt>
      <trkpt lat="45.32222" lon="6.23911">
        <ele>1335.1999511719</ele>
        <time>2014-03-02T07:39:18.000Z</time>
      </trkpt>
      <trkpt lat="45.32222" lon="6.23911">
        <ele>1335.1999511719</ele>
        <time>2014-03-02T07:39:19.000Z</time>
      </trkpt>
      <trkpt lat="45.32223" lon="6.2391">
        <ele>1335.5999755859</ele>
        <time>2014-03-02T07:39:20.000Z</time>
      </trkpt>
      <trkpt lat="45.32223" lon="6.2391">
        <ele>1335.5999755859</ele>
        <time>2014-03-02T07:39:21.000Z</time>
      </trkpt>
      <trkpt lat="45.32224" lon="6.2391">
        <ele>1336</ele>
        <time>2014-03-02T07:39:22.000Z</time>
      </trkpt>
      <trkpt lat="45.32225" lon="6.23909">
        <ele>1336.5999755859</ele>
        <time>2014-03-02T07:39:23.000Z</time>
      </trkpt>
      <trkpt lat="45.32226" lon="6.23908">
        <ele>1336.8000488281</ele>
        <time>2014-03-02T07:39:24.000Z</time>
      </trkpt>
      <trkpt lat="45.32226" lon="6.23908">
        <ele>1336.8000488281</ele>
        <time>2014-03-02T07:39:25.000Z</time>
      </trkpt>
      <trkpt lat="45.32226" lon="6.23908">
        <ele>1336.8000488281</ele>
        <time>2014-03-02T07:39:26.000Z</time>
      </trkpt>
      <trkpt lat="45.32226" lon="6.23908">
        <ele>1337.1999511719</ele>
        <time>2014-03-02T07:39:27.000Z</time>
      </trkpt>
      <trkpt lat="45.32227" lon="6.23907">
        <ele>1337.4000244141</ele>
        <time>2014-03-02T07:39:28.000Z</time>
      </trkpt>
      <trkpt lat="45.32227" lon="6.23906">
        <ele>1337.4000244141</ele>
        <time>2014-03-02T07:39:29.000Z</time>
      </trkpt>
      <trkpt lat="45.32227" lon="6.23905">
        <ele>1337.4000244141</ele>
        <time>2014-03-02T07:39:30.000Z</time>
      </trkpt>
      <trkpt lat="45.32228" lon="6.23904">
        <ele>1337.4000244141</ele>
        <time>2014-03-02T07:39:31.000Z</time>
      </trkpt>
      <trkpt lat="45.32228" lon="6.23904">
        <ele>1337.5999755859</ele>
        <time>2014-03-02T07:39:32.000Z</time>
      </trkpt>
      <trkpt lat="45.32229" lon="6.23903">
        <ele>1338</ele>
        <time>2014-03-02T07:39:33.000Z</time>
      </trkpt>
      <trkpt lat="45.3223" lon="6.23903">
        <ele>1338.4000244141</ele>
        <time>2014-03-02T07:39:34.000Z</time>
      </trkpt>
      <trkpt lat="45.3223" lon="6.23903">
        <ele>1338.4000244141</ele>
        <time>2014-03-02T07:39:35.000Z</time>
      </trkpt>
      <trkpt lat="45.32231" lon="6.23902">
        <ele>1338.8000488281</ele>
        <time>2014-03-02T07:39:36.000Z</time>
      </trkpt>
      <trkpt lat="45.32231" lon="6.23902">
        <ele>1338.8000488281</ele>
        <time>2014-03-02T07:39:37.000Z</time>
      </trkpt>
      <trkpt lat="45.32231" lon="6.23901">
        <ele>1339</ele>
        <time>2014-03-02T07:39:38.000Z</time>
      </trkpt>
      <trkpt lat="45.32232" lon="6.23902">
        <ele>1339.4000244141</ele>
        <time>2014-03-02T07:39:39.000Z</time>
      </trkpt>
      <trkpt lat="45.32232" lon="6.23902">
        <ele>1340</ele>
        <time>2014-03-02T07:39:40.000Z</time>
      </trkpt>
      <trkpt lat="45.32233" lon="6.23902">
        <ele>1340.5999755859</ele>
        <time>2014-03-02T07:39:41.000Z</time>
      </trkpt>
      <trkpt lat="45.32234" lon="6.23901">
        <ele>1341.1999511719</ele>
        <time>2014-03-02T07:39:42.000Z</time>
      </trkpt>
      <trkpt lat="45.32235" lon="6.23901">
        <ele>1341.5999755859</ele>
        <time>2014-03-02T07:39:43.000Z</time>
      </trkpt>
      <trkpt lat="45.32236" lon="6.239">
        <ele>1342</ele>
        <time>2014-03-02T07:39:44.000Z</time>
      </trkpt>
      <trkpt lat="45.32237" lon="6.23899">
        <ele>1342.5999755859</ele>
        <time>2014-03-02T07:39:45.000Z</time>
      </trkpt>
      <trkpt lat="45.32238" lon="6.23899">
        <ele>1342.8000488281</ele>
        <time>2014-03-02T07:39:46.000Z</time>
      </trkpt>
      <trkpt lat="45.32238" lon="6.23898">
        <ele>1343</ele>
        <time>2014-03-02T07:39:47.000Z</time>
      </trkpt>
      <trkpt lat="45.32238" lon="6.23898">
        <ele>1343</ele>
        <time>2014-03-02T07:39:48.000Z</time>
      </trkpt>
      <trkpt lat="45.32238" lon="6.23897">
        <ele>1342.5999755859</ele>
        <time>2014-03-02T07:39:49.000Z</time>
      </trkpt>
      <trkpt lat="45.32238" lon="6.23897">
        <ele>1342.5999755859</ele>
        <time>2014-03-02T07:39:50.000Z</time>
      </trkpt>
      <trkpt lat="45.32238" lon="6.23896">
        <ele>1342.4000244141</ele>
        <time>2014-03-02T07:39:51.000Z</time>
      </trkpt>
      <trkpt lat="45.32238" lon="6.23896">
        <ele>1342.4000244141</ele>
        <time>2014-03-02T07:39:52.000Z</time>
      </trkpt>
      <trkpt lat="45.32238" lon="6.23896">
        <ele>1342.4000244141</ele>
        <time>2014-03-02T07:39:53.000Z</time>
      </trkpt>
      <trkpt lat="45.32238" lon="6.23896">
        <ele>1342.4000244141</ele>
        <time>2014-03-02T07:39:54.000Z</time>
      </trkpt>
      <trkpt lat="45.32239" lon="6.23895">
        <ele>1342.8000488281</ele>
        <time>2014-03-02T07:39:55.000Z</time>
      </trkpt>
      <trkpt lat="45.3224" lon="6.23895">
        <ele>1343.4000244141</ele>
        <time>2014-03-02T07:39:56.000Z</time>
      </trkpt>
      <trkpt lat="45.3224" lon="6.23894">
        <ele>1343.8000488281</ele>
        <time>2014-03-02T07:39:57.000Z</time>
      </trkpt>
      <trkpt lat="45.32241" lon="6.23893">
        <ele>1344.1999511719</ele>
        <time>2014-03-02T07:39:58.000Z</time>
      </trkpt>
      <trkpt lat="45.32242" lon="6.23892">
        <ele>1344.8000488281</ele>
        <time>2014-03-02T07:39:59.000Z</time>
      </trkpt>
      <trkpt lat="45.32242" lon="6.23891">
        <ele>1345.1999511719</ele>
        <time>2014-03-02T07:40:00.000Z</time>
      </trkpt>
      <trkpt lat="45.32243" lon="6.23891">
        <ele>1345.5999755859</ele>
        <time>2014-03-02T07:40:01.000Z</time>
      </trkpt>
      <trkpt lat="45.32244" lon="6.2389">
        <ele>1346.1999511719</ele>
        <time>2014-03-02T07:40:02.000Z</time>
      </trkpt>
      <trkpt lat="45.32244" lon="6.2389">
        <ele>1346.5999755859</ele>
        <time>2014-03-02T07:40:03.000Z</time>
      </trkpt>
      <trkpt lat="45.32244" lon="6.2389">
        <ele>1346.8000488281</ele>
        <time>2014-03-02T07:40:04.000Z</time>
      </trkpt>
      <trkpt lat="45.32245" lon="6.23889">
        <ele>1347.1999511719</ele>
        <time>2014-03-02T07:40:05.000Z</time>
      </trkpt>
      <trkpt lat="45.32245" lon="6.23888">
        <ele>1347.5999755859</ele>
        <time>2014-03-02T07:40:06.000Z</time>
      </trkpt>
      <trkpt lat="45.32246" lon="6.23888">
        <ele>1348</ele>
        <time>2014-03-02T07:40:07.000Z</time>
      </trkpt>
      <trkpt lat="45.32247" lon="6.23888">
        <ele>1348.4000244141</ele>
        <time>2014-03-02T07:40:08.000Z</time>
      </trkpt>
      <trkpt lat="45.32247" lon="6.23887">
        <ele>1349</ele>
        <time>2014-03-02T07:40:09.000Z</time>
      </trkpt>
      <trkpt lat="45.32248" lon="6.23886">
        <ele>1349.5999755859</ele>
        <time>2014-03-02T07:40:10.000Z</time>
      </trkpt>
      <trkpt lat="45.32249" lon="6.23885">
        <ele>1350</ele>
        <time>2014-03-02T07:40:11.000Z</time>
      </trkpt>
      <trkpt lat="45.32249" lon="6.23885">
        <ele>1350.4000244141</ele>
        <time>2014-03-02T07:40:12.000Z</time>
      </trkpt>
      <trkpt lat="45.32249" lon="6.23885">
        <ele>1350.4000244141</ele>
        <time>2014-03-02T07:40:13.000Z</time>
      </trkpt>
      <trkpt lat="45.3225" lon="6.23884">
        <ele>1351</ele>
        <time>2014-03-02T07:40:14.000Z</time>
      </trkpt>
      <trkpt lat="45.3225" lon="6.23884">
        <ele>1351</ele>
        <time>2014-03-02T07:40:15.000Z</time>
      </trkpt>
      <trkpt lat="45.32251" lon="6.23883">
        <ele>1351.8000488281</ele>
        <time>2014-03-02T07:40:16.000Z</time>
      </trkpt>
      <trkpt lat="45.32252" lon="6.23883">
        <ele>1352.4000244141</ele>
        <time>2014-03-02T07:40:17.000Z</time>
      </trkpt>
      <trkpt lat="45.32253" lon="6.23882">
        <ele>1353.1999511719</ele>
        <time>2014-03-02T07:40:18.000Z</time>
      </trkpt>
      <trkpt lat="45.32254" lon="6.23881">
        <ele>1354</ele>
        <time>2014-03-02T07:40:19.000Z</time>
      </trkpt>
      <trkpt lat="45.32255" lon="6.2388">
        <ele>1354.4000244141</ele>
        <time>2014-03-02T07:40:20.000Z</time>
      </trkpt>
      <trkpt lat="45.32255" lon="6.2388">
        <ele>1354.8000488281</ele>
        <time>2014-03-02T07:40:21.000Z</time>
      </trkpt>
      <trkpt lat="45.32256" lon="6.23879">
        <ele>1355.4000244141</ele>
        <time>2014-03-02T07:40:22.000Z</time>
      </trkpt>
      <trkpt lat="45.32257" lon="6.23879">
        <ele>1356</ele>
        <time>2014-03-02T07:40:23.000Z</time>
      </trkpt>
      <trkpt lat="45.32258" lon="6.23879">
        <ele>1356.8000488281</ele>
        <time>2014-03-02T07:40:24.000Z</time>
      </trkpt>
      <trkpt lat="45.32259" lon="6.23878">
        <ele>1357.5999755859</ele>
        <time>2014-03-02T07:40:25.000Z</time>
      </trkpt>
      <trkpt lat="45.3226" lon="6.23877">
        <ele>1358</ele>
        <time>2014-03-02T07:40:26.000Z</time>
      </trkpt>
      <trkpt lat="45.3226" lon="6.23877">
        <ele>1358.5999755859</ele>
        <time>2014-03-02T07:40:27.000Z</time>
      </trkpt>
      <trkpt lat="45.32261" lon="6.23876">
        <ele>1359.1999511719</ele>
        <time>2014-03-02T07:40:28.000Z</time>
      </trkpt>
      <trkpt lat="45.32262" lon="6.23875">
        <ele>1359.5999755859</ele>
        <time>2014-03-02T07:40:29.000Z</time>
      </trkpt>
      <trkpt lat="45.32263" lon="6.23875">
        <ele>1360.1999511719</ele>
        <time>2014-03-02T07:40:30.000Z</time>
      </trkpt>
      <trkpt lat="45.32263" lon="6.23874">
        <ele>1360.5999755859</ele>
        <time>2014-03-02T07:40:31.000Z</time>
      </trkpt>
      <trkpt lat="45.32264" lon="6.23873">
        <ele>1361</ele>
        <time>2014-03-02T07:40:32.000Z</time>
      </trkpt>
      <trkpt lat="45.32264" lon="6.23873">
        <ele>1361.4000244141</ele>
        <time>2014-03-02T07:40:33.000Z</time>
      </trkpt>
      <trkpt lat="45.32265" lon="6.23872">
        <ele>1361.8000488281</ele>
        <time>2014-03-02T07:40:34.000Z</time>
      </trkpt>
      <trkpt lat="45.32266" lon="6.23872">
        <ele>1362.5999755859</ele>
        <time>2014-03-02T07:40:35.000Z</time>
      </trkpt>
      <trkpt lat="45.32267" lon="6.23872">
        <ele>1363</ele>
        <time>2014-03-02T07:40:36.000Z</time>
      </trkpt>
      <trkpt lat="45.32267" lon="6.23872">
        <ele>1363.5999755859</ele>
        <time>2014-03-02T07:40:37.000Z</time>
      </trkpt>
      <trkpt lat="45.32268" lon="6.23871">
        <ele>1364.1999511719</ele>
        <time>2014-03-02T07:40:38.000Z</time>
      </trkpt>
      <trkpt lat="45.32269" lon="6.23871">
        <ele>1364.5999755859</ele>
        <time>2014-03-02T07:40:39.000Z</time>
      </trkpt>
      <trkpt lat="45.3227" lon="6.2387">
        <ele>1365.1999511719</ele>
        <time>2014-03-02T07:40:40.000Z</time>
      </trkpt>
      <trkpt lat="45.3227" lon="6.2387">
        <ele>1365.5999755859</ele>
        <time>2014-03-02T07:40:41.000Z</time>
      </trkpt>
      <trkpt lat="45.32271" lon="6.2387">
        <ele>1366.1999511719</ele>
        <time>2014-03-02T07:40:42.000Z</time>
      </trkpt>
      <trkpt lat="45.32272" lon="6.2387">
        <ele>1366.5999755859</ele>
        <time>2014-03-02T07:40:43.000Z</time>
      </trkpt>
      <trkpt lat="45.32273" lon="6.2387">
        <ele>1366.8000488281</ele>
        <time>2014-03-02T07:40:44.000Z</time>
      </trkpt>
      <trkpt lat="45.32273" lon="6.23869">
        <ele>1366.8000488281</ele>
        <time>2014-03-02T07:40:45.000Z</time>
      </trkpt>
      <trkpt lat="45.32274" lon="6.23868">
        <ele>1366.8000488281</ele>
        <time>2014-03-02T07:40:46.000Z</time>
      </trkpt>
      <trkpt lat="45.32274" lon="6.23868">
        <ele>1367</ele>
        <time>2014-03-02T07:40:47.000Z</time>
      </trkpt>
      <trkpt lat="45.32275" lon="6.23867">
        <ele>1367</ele>
        <time>2014-03-02T07:40:48.000Z</time>
      </trkpt>
      <trkpt lat="45.32276" lon="6.23867">
        <ele>1367.1999511719</ele>
        <time>2014-03-02T07:40:49.000Z</time>
      </trkpt>
      <trkpt lat="45.32277" lon="6.23866">
        <ele>1367.4000244141</ele>
        <time>2014-03-02T07:40:50.000Z</time>
      </trkpt>
      <trkpt lat="45.32277" lon="6.23866">
        <ele>1367.4000244141</ele>
        <time>2014-03-02T07:40:51.000Z</time>
      </trkpt>
      <trkpt lat="45.32277" lon="6.23865">
        <ele>1367.4000244141</ele>
        <time>2014-03-02T07:40:52.000Z</time>
      </trkpt>
      <trkpt lat="45.32278" lon="6.23864">
        <ele>1367.4000244141</ele>
        <time>2014-03-02T07:40:53.000Z</time>
      </trkpt>
      <trkpt lat="45.32278" lon="6.23864">
        <ele>1367.4000244141</ele>
        <time>2014-03-02T07:40:54.000Z</time>
      </trkpt>
      <trkpt lat="45.32279" lon="6.23863">
        <ele>1367.4000244141</ele>
        <time>2014-03-02T07:40:55.000Z</time>
      </trkpt>
      <trkpt lat="45.32279" lon="6.23863">
        <ele>1367.4000244141</ele>
        <time>2014-03-02T07:40:56.000Z</time>
      </trkpt>
      <trkpt lat="45.3228" lon="6.23863">
        <ele>1367.5999755859</ele>
        <time>2014-03-02T07:40:57.000Z</time>
      </trkpt>
      <trkpt lat="45.32281" lon="6.23863">
        <ele>1368.1999511719</ele>
        <time>2014-03-02T07:40:59.000Z</time>
      </trkpt>
      <trkpt lat="45.32282" lon="6.23863">
        <ele>1368.4000244141</ele>
        <time>2014-03-02T07:41:00.000Z</time>
      </trkpt>
      <trkpt lat="45.32283" lon="6.23862">
        <ele>1368.5999755859</ele>
        <time>2014-03-02T07:41:01.000Z</time>
      </trkpt>
      <trkpt lat="45.32283" lon="6.23861">
        <ele>1368.5999755859</ele>
        <time>2014-03-02T07:41:02.000Z</time>
      </trkpt>
      <trkpt lat="45.32284" lon="6.23861">
        <ele>1368.5999755859</ele>
        <time>2014-03-02T07:41:03.000Z</time>
      </trkpt>
      <trkpt lat="45.32284" lon="6.23861">
        <ele>1368.8000488281</ele>
        <time>2014-03-02T07:41:04.000Z</time>
      </trkpt>
      <trkpt lat="45.32285" lon="6.2386">
        <ele>1369.1999511719</ele>
        <time>2014-03-02T07:41:05.000Z</time>
      </trkpt>
      <trkpt lat="45.32286" lon="6.2386">
        <ele>1369.1999511719</ele>
        <time>2014-03-02T07:41:06.000Z</time>
      </trkpt>
      <trkpt lat="45.32287" lon="6.23859">
        <ele>1369.1999511719</ele>
        <time>2014-03-02T07:41:07.000Z</time>
      </trkpt>
      <trkpt lat="45.32287" lon="6.23859">
        <ele>1369.1999511719</ele>
        <time>2014-03-02T07:41:08.000Z</time>
      </trkpt>
      <trkpt lat="45.32287" lon="6.23859">
        <ele>1369.4000244141</ele>
        <time>2014-03-02T07:41:09.000Z</time>
      </trkpt>
      <trkpt lat="45.32288" lon="6.23859">
        <ele>1369.8000488281</ele>
        <time>2014-03-02T07:41:10.000Z</time>
      </trkpt>
      <trkpt lat="45.32289" lon="6.23858">
        <ele>1370</ele>
        <time>2014-03-02T07:41:11.000Z</time>
      </trkpt>
      <trkpt lat="45.3229" lon="6.23858">
        <ele>1370.1999511719</ele>
        <time>2014-03-02T07:41:12.000Z</time>
      </trkpt>
      <trkpt lat="45.32291" lon="6.23858">
        <ele>1370.5999755859</ele>
        <time>2014-03-02T07:41:13.000Z</time>
      </trkpt>
      <trkpt lat="45.32291" lon="6.23857">
        <ele>1370.5999755859</ele>
        <time>2014-03-02T07:41:14.000Z</time>
      </trkpt>
      <trkpt lat="45.32292" lon="6.23857">
        <ele>1370.5999755859</ele>
        <time>2014-03-02T07:41:15.000Z</time>
      </trkpt>
      <trkpt lat="45.32292" lon="6.23856">
        <ele>1370.5999755859</ele>
        <time>2014-03-02T07:41:16.000Z</time>
      </trkpt>
      <trkpt lat="45.32293" lon="6.23856">
        <ele>1370.8000488281</ele>
        <time>2014-03-02T07:41:17.000Z</time>
      </trkpt>
      <trkpt lat="45.32293" lon="6.23855">
        <ele>1370.8000488281</ele>
        <time>2014-03-02T07:41:18.000Z</time>
      </trkpt>
      <trkpt lat="45.32293" lon="6.23855">
        <ele>1370.8000488281</ele>
        <time>2014-03-02T07:41:19.000Z</time>
      </trkpt>
      <trkpt lat="45.32294" lon="6.23854">
        <ele>1371</ele>
        <time>2014-03-02T07:41:20.000Z</time>
      </trkpt>
      <trkpt lat="45.32295" lon="6.23854">
        <ele>1371</ele>
        <time>2014-03-02T07:41:21.000Z</time>
      </trkpt>
      <trkpt lat="45.32296" lon="6.23853">
        <ele>1371.1999511719</ele>
        <time>2014-03-02T07:41:22.000Z</time>
      </trkpt>
      <trkpt lat="45.32296" lon="6.23853">
        <ele>1371.4000244141</ele>
        <time>2014-03-02T07:41:23.000Z</time>
      </trkpt>
      <trkpt lat="45.32297" lon="6.23852">
        <ele>1371.4000244141</ele>
        <time>2014-03-02T07:41:24.000Z</time>
      </trkpt>
      <trkpt lat="45.32299" lon="6.23851">
        <ele>1372.1999511719</ele>
        <time>2014-03-02T07:41:25.000Z</time>
      </trkpt>
      <trkpt lat="45.323" lon="6.23851">
        <ele>1372.8000488281</ele>
        <time>2014-03-02T07:41:26.000Z</time>
      </trkpt>
      <trkpt lat="45.323" lon="6.2385">
        <ele>1373</ele>
        <time>2014-03-02T07:41:27.000Z</time>
      </trkpt>
      <trkpt lat="45.323" lon="6.2385">
        <ele>1373</ele>
        <time>2014-03-02T07:41:28.000Z</time>
      </trkpt>
      <trkpt lat="45.323" lon="6.2385">
        <ele>1373</ele>
        <time>2014-03-02T07:41:29.000Z</time>
      </trkpt>
      <trkpt lat="45.323" lon="6.2385">
        <ele>1373</ele>
        <time>2014-03-02T07:41:30.000Z</time>
      </trkpt>
      <trkpt lat="45.323" lon="6.2385">
        <ele>1373</ele>
        <time>2014-03-02T07:41:31.000Z</time>
      </trkpt>
      <trkpt lat="45.323" lon="6.2385">
        <ele>1373</ele>
        <time>2014-03-02T07:41:32.000Z</time>
      </trkpt>
      <trkpt lat="45.323" lon="6.2385">
        <ele>1373</ele>
        <time>2014-03-02T07:41:34.000Z</time>
      </trkpt>
      <trkpt lat="45.323" lon="6.2385">
        <ele>1373</ele>
        <time>2014-03-02T07:41:35.000Z</time>
      </trkpt>
      <trkpt lat="45.323" lon="6.2385">
        <ele>1373</ele>
        <time>2014-03-02T07:41:36.000Z</time>
      </trkpt>
      <trkpt lat="45.323" lon="6.2385">
        <ele>1373</ele>
        <time>2014-03-02T07:41:37.000Z</time>
      </trkpt>
      <trkpt lat="45.323" lon="6.2385">
        <ele>1373</ele>
        <time>2014-03-02T07:41:41.000Z</time>
      </trkpt>
      <trkpt lat="45.323" lon="6.2385">
        <ele>1373</ele>
        <time>2014-03-02T07:41:42.000Z</time>
      </trkpt>
      <trkpt lat="45.323" lon="6.2385">
        <ele>1373</ele>
        <time>2014-03-02T07:41:43.000Z</time>
      </trkpt>
      <trkpt lat="45.323" lon="6.2385">
        <ele>1373</ele>
        <time>2014-03-02T07:41:44.000Z</time>
      </trkpt>
      <trkpt lat="45.323" lon="6.2385">
        <ele>1373</ele>
        <time>2014-03-02T07:41:45.000Z</time>
      </trkpt>
      <trkpt lat="45.323" lon="6.2385">
        <ele>1373</ele>
        <time>2014-03-02T07:41:48.000Z</time>
      </trkpt>
      <trkpt lat="45.323" lon="6.2385">
        <ele>1373</ele>
        <time>2014-03-02T07:41:51.000Z</time>
      </trkpt>
      <trkpt lat="45.323" lon="6.2385">
        <ele>1373</ele>
        <time>2014-03-02T07:41:52.000Z</time>
      </trkpt>
      <trkpt lat="45.323" lon="6.2385">
        <ele>1373</ele>
        <time>2014-03-02T07:41:54.000Z</time>
      </trkpt>
      <trkpt lat="45.323" lon="6.2385">
        <ele>1373</ele>
        <time>2014-03-02T07:41:56.000Z</time>
      </trkpt>
      <trkpt lat="45.323" lon="6.2385">
        <ele>1373</ele>
        <time>2014-03-02T07:41:57.000Z</time>
      </trkpt>
      <trkpt lat="45.323" lon="6.2385">
        <ele>1373</ele>
        <time>2014-03-02T07:41:58.000Z</time>
      </trkpt>
      <trkpt lat="45.323" lon="6.2385">
        <ele>1373</ele>
        <time>2014-03-02T07:42:00.000Z</time>
      </trkpt>
      <trkpt lat="45.323" lon="6.2385">
        <ele>1373</ele>
        <time>2014-03-02T07:42:02.000Z</time>
      </trkpt>
      <trkpt lat="45.323" lon="6.2385">
        <ele>1373</ele>
        <time>2014-03-02T07:42:03.000Z</time>
      </trkpt>
      <trkpt lat="45.323" lon="6.2385">
        <ele>1373</ele>
        <time>2014-03-02T07:42:04.000Z</time>
      </trkpt>
      <trkpt lat="45.323" lon="6.2385">
        <ele>1373</ele>
        <time>2014-03-02T07:42:05.000Z</time>
      </trkpt>
      <trkpt lat="45.323" lon="6.2385">
        <ele>1373</ele>
        <time>2014-03-02T07:42:07.000Z</time>
      </trkpt>
      <trkpt lat="45.323" lon="6.2385">
        <ele>1373</ele>
        <time>2014-03-02T07:42:08.000Z</time>
      </trkpt>
      <trkpt lat="45.323" lon="6.2385">
        <ele>1373</ele>
        <time>2014-03-02T07:42:09.000Z</time>
      </trkpt>
      <trkpt lat="45.323" lon="6.2385">
        <ele>1373</ele>
        <time>2014-03-02T07:42:10.000Z</time>
      </trkpt>
      <trkpt lat="45.323" lon="6.2385">
        <ele>1373</ele>
        <time>2014-03-02T07:42:11.000Z</time>
      </trkpt>
      <trkpt lat="45.323" lon="6.2385">
        <ele>1373</ele>
        <time>2014-03-02T07:42:12.000Z</time>
      </trkpt>
      <trkpt lat="45.323" lon="6.2385">
        <ele>1373</ele>
        <time>2014-03-02T07:42:13.000Z</time>
      </trkpt>
      <trkpt lat="45.323" lon="6.2385">
        <ele>1373</ele>
        <time>2014-03-02T07:42:14.000Z</time>
      </trkpt>
      <trkpt lat="45.323" lon="6.2385">
        <ele>1373</ele>
        <time>2014-03-02T07:42:16.000Z</time>
      </trkpt>
      <trkpt lat="45.323" lon="6.2385">
        <ele>1373</ele>
        <time>2014-03-02T07:42:17.000Z</time>
      </trkpt>
      <trkpt lat="45.323" lon="6.2385">
        <ele>1373</ele>
        <time>2014-03-02T07:42:18.000Z</time>
      </trkpt>
      <trkpt lat="45.323" lon="6.2385">
        <ele>1373</ele>
        <time>2014-03-02T07:42:19.000Z</time>
      </trkpt>
      <trkpt lat="45.323" lon="6.2385">
        <ele>1373</ele>
        <time>2014-03-02T07:42:20.000Z</time>
      </trkpt>
      <trkpt lat="45.323" lon="6.2385">
        <ele>1373</ele>
        <time>2014-03-02T07:42:23.000Z</time>
      </trkpt>
      <trkpt lat="45.323" lon="6.2385">
        <ele>1373</ele>
        <time>2014-03-02T07:42:24.000Z</time>
      </trkpt>
      <trkpt lat="45.323" lon="6.2385">
        <ele>1373</ele>
        <time>2014-03-02T07:42:25.000Z</time>
      </trkpt>
      <trkpt lat="45.323" lon="6.2385">
        <ele>1373</ele>
        <time>2014-03-02T07:42:26.000Z</time>
      </trkpt>
      <trkpt lat="45.323" lon="6.2385">
        <ele>1373</ele>
        <time>2014-03-02T07:42:27.000Z</time>
      </trkpt>
      <trkpt lat="45.323" lon="6.2385">
        <ele>1373</ele>
        <time>2014-03-02T07:42:29.000Z</time>
      </trkpt>
      <trkpt lat="45.323" lon="6.2385">
        <ele>1373</ele>
        <time>2014-03-02T07:42:30.000Z</time>
      </trkpt>
      <trkpt lat="45.323" lon="6.2385">
        <ele>1373</ele>
        <time>2014-03-02T07:42:31.000Z</time>
      </trkpt>
      <trkpt lat="45.323" lon="6.2385">
        <ele>1373</ele>
        <time>2014-03-02T07:42:33.000Z</time>
      </trkpt>
      <trkpt lat="45.323" lon="6.2385">
        <ele>1373</ele>
        <time>2014-03-02T07:42:34.000Z</time>
      </trkpt>
      <trkpt lat="45.323" lon="6.2385">
        <ele>1373</ele>
        <time>2014-03-02T07:42:35.000Z</time>
      </trkpt>
      <trkpt lat="45.323" lon="6.2385">
        <ele>1373</ele>
        <time>2014-03-02T07:42:36.000Z</time>
      </trkpt>
      <trkpt lat="45.323" lon="6.2385">
        <ele>1373</ele>
        <time>2014-03-02T07:42:37.000Z</time>
      </trkpt>
      <trkpt lat="45.323" lon="6.2385">
        <ele>1373</ele>
        <time>2014-03-02T07:42:39.000Z</time>
      </trkpt>
      <trkpt lat="45.323" lon="6.2385">
        <ele>1373</ele>
        <time>2014-03-02T07:42:40.000Z</time>
      </trkpt>
      <trkpt lat="45.323" lon="6.2385">
        <ele>1373</ele>
        <time>2014-03-02T07:42:41.000Z</time>
      </trkpt>
      <trkpt lat="45.323" lon="6.2385">
        <ele>1373</ele>
        <time>2014-03-02T07:42:42.000Z</time>
      </trkpt>
      <trkpt lat="45.323" lon="6.2385">
        <ele>1373</ele>
        <time>2014-03-02T07:42:44.000Z</time>
      </trkpt>
      <trkpt lat="45.323" lon="6.2385">
        <ele>1373</ele>
        <time>2014-03-02T07:42:45.000Z</time>
      </trkpt>
      <trkpt lat="45.32301" lon="6.2385">
        <ele>1373.1999511719</ele>
        <time>2014-03-02T07:42:48.000Z</time>
      </trkpt>
      <trkpt lat="45.32301" lon="6.2385">
        <ele>1373.1999511719</ele>
        <time>2014-03-02T07:42:49.000Z</time>
      </trkpt>
      <trkpt lat="45.32301" lon="6.2385">
        <ele>1373.1999511719</ele>
        <time>2014-03-02T07:42:50.000Z</time>
      </trkpt>
      <trkpt lat="45.32301" lon="6.2385">
        <ele>1373.1999511719</ele>
        <time>2014-03-02T07:42:51.000Z</time>
      </trkpt>
      <trkpt lat="45.32301" lon="6.2385">
        <ele>1373.1999511719</ele>
        <time>2014-03-02T07:42:52.000Z</time>
      </trkpt>
      <trkpt lat="45.32301" lon="6.2385">
        <ele>1373.1999511719</ele>
        <time>2014-03-02T07:42:53.000Z</time>
      </trkpt>
      <trkpt lat="45.32301" lon="6.2385">
        <ele>1373.1999511719</ele>
        <time>2014-03-02T07:42:55.000Z</time>
      </trkpt>
      <trkpt lat="45.32301" lon="6.2385">
        <ele>1373.1999511719</ele>
        <time>2014-03-02T07:42:57.000Z</time>
      </trkpt>
      <trkpt lat="45.32301" lon="6.2385">
        <ele>1373.1999511719</ele>
        <time>2014-03-02T07:42:58.000Z</time>
      </trkpt>
      <trkpt lat="45.32301" lon="6.2385">
        <ele>1373.1999511719</ele>
        <time>2014-03-02T07:42:59.000Z</time>
      </trkpt>
      <trkpt lat="45.32301" lon="6.2385">
        <ele>1373.1999511719</ele>
        <time>2014-03-02T07:43:01.000Z</time>
      </trkpt>
      <trkpt lat="45.32301" lon="6.2385">
        <ele>1373.1999511719</ele>
        <time>2014-03-02T07:43:03.000Z</time>
      </trkpt>
      <trkpt lat="45.32301" lon="6.2385">
        <ele>1373.1999511719</ele>
        <time>2014-03-02T07:43:04.000Z</time>
      </trkpt>
      <trkpt lat="45.32301" lon="6.2385">
        <ele>1373.1999511719</ele>
        <time>2014-03-02T07:43:09.000Z</time>
      </trkpt>
      <trkpt lat="45.32301" lon="6.2385">
        <ele>1373.1999511719</ele>
        <time>2014-03-02T07:43:10.000Z</time>
      </trkpt>
      <trkpt lat="45.32301" lon="6.2385">
        <ele>1373.1999511719</ele>
        <time>2014-03-02T07:43:11.000Z</time>
      </trkpt>
      <trkpt lat="45.32301" lon="6.2385">
        <ele>1373.1999511719</ele>
        <time>2014-03-02T07:43:12.000Z</time>
      </trkpt>
      <trkpt lat="45.32301" lon="6.2385">
        <ele>1373.1999511719</ele>
        <time>2014-03-02T07:43:13.000Z</time>
      </trkpt>
      <trkpt lat="45.32301" lon="6.2385">
        <ele>1373.1999511719</ele>
        <time>2014-03-02T07:43:17.000Z</time>
      </trkpt>
      <trkpt lat="45.32301" lon="6.2385">
        <ele>1373.1999511719</ele>
        <time>2014-03-02T07:43:18.000Z</time>
      </trkpt>
      <trkpt lat="45.32301" lon="6.2385">
        <ele>1373.1999511719</ele>
        <time>2014-03-02T07:43:19.000Z</time>
      </trkpt>
      <trkpt lat="45.32301" lon="6.2385">
        <ele>1373.1999511719</ele>
        <time>2014-03-02T07:43:20.000Z</time>
      </trkpt>
      <trkpt lat="45.32301" lon="6.2385">
        <ele>1373.1999511719</ele>
        <time>2014-03-02T07:43:21.000Z</time>
      </trkpt>
      <trkpt lat="45.32301" lon="6.2385">
        <ele>1373.1999511719</ele>
        <time>2014-03-02T07:43:22.000Z</time>
      </trkpt>
      <trkpt lat="45.32301" lon="6.2385">
        <ele>1373.1999511719</ele>
        <time>2014-03-02T07:43:23.000Z</time>
      </trkpt>
      <trkpt lat="45.32301" lon="6.2385">
        <ele>1373.1999511719</ele>
        <time>2014-03-02T07:43:24.000Z</time>
      </trkpt>
      <trkpt lat="45.32301" lon="6.2385">
        <ele>1373.1999511719</ele>
        <time>2014-03-02T07:43:25.000Z</time>
      </trkpt>
      <trkpt lat="45.32301" lon="6.2385">
        <ele>1373.1999511719</ele>
        <time>2014-03-02T07:43:26.000Z</time>
      </trkpt>
      <trkpt lat="45.32301" lon="6.23849">
        <ele>1373</ele>
        <time>2014-03-02T07:43:27.000Z</time>
      </trkpt>
      <trkpt lat="45.32301" lon="6.23849">
        <ele>1373</ele>
        <time>2014-03-02T07:43:28.000Z</time>
      </trkpt>
      <trkpt lat="45.32301" lon="6.23849">
        <ele>1373</ele>
        <time>2014-03-02T07:43:31.000Z</time>
      </trkpt>
      <trkpt lat="45.32301" lon="6.23849">
        <ele>1373</ele>
        <time>2014-03-02T07:43:33.000Z</time>
      </trkpt>
      <trkpt lat="45.32301" lon="6.23849">
        <ele>1373</ele>
        <time>2014-03-02T07:43:37.000Z</time>
      </trkpt>
      <trkpt lat="45.32301" lon="6.23849">
        <ele>1373</ele>
        <time>2014-03-02T07:43:39.000Z</time>
      </trkpt>
      <trkpt lat="45.32301" lon="6.23849">
        <ele>1373</ele>
        <time>2014-03-02T07:43:40.000Z</time>
      </trkpt>
      <trkpt lat="45.32301" lon="6.23849">
        <ele>1373</ele>
        <time>2014-03-02T07:43:41.000Z</time>
      </trkpt>
      <trkpt lat="45.32301" lon="6.23849">
        <ele>1373</ele>
        <time>2014-03-02T07:43:42.000Z</time>
      </trkpt>
      <trkpt lat="45.32301" lon="6.23849">
        <ele>1373</ele>
        <time>2014-03-02T07:43:45.000Z</time>
      </trkpt>
      <trkpt lat="45.32301" lon="6.23849">
        <ele>1373</ele>
        <time>2014-03-02T07:43:47.000Z</time>
      </trkpt>
      <trkpt lat="45.32301" lon="6.23849">
        <ele>1373</ele>
        <time>2014-03-02T07:43:48.000Z</time>
      </trkpt>
      <trkpt lat="45.32301" lon="6.23849">
        <ele>1373</ele>
        <time>2014-03-02T07:43:49.000Z</time>
      </trkpt>
      <trkpt lat="45.32301" lon="6.23849">
        <ele>1373</ele>
        <time>2014-03-02T07:43:50.000Z</time>
      </trkpt>
      <trkpt lat="45.32301" lon="6.23849">
        <ele>1373</ele>
        <time>2014-03-02T07:43:51.000Z</time>
      </trkpt>
      <trkpt lat="45.32301" lon="6.23849">
        <ele>1373</ele>
        <time>2014-03-02T07:43:52.000Z</time>
      </trkpt>
      <trkpt lat="45.32301" lon="6.23849">
        <ele>1373</ele>
        <time>2014-03-02T07:43:53.000Z</time>
      </trkpt>
      <trkpt lat="45.32301" lon="6.23849">
        <ele>1373</ele>
        <time>2014-03-02T07:43:54.000Z</time>
      </trkpt>
      <trkpt lat="45.32301" lon="6.23849">
        <ele>1373</ele>
        <time>2014-03-02T07:43:55.000Z</time>
      </trkpt>
      <trkpt lat="45.32301" lon="6.23849">
        <ele>1373</ele>
        <time>2014-03-02T07:43:56.000Z</time>
      </trkpt>
      <trkpt lat="45.32301" lon="6.23849">
        <ele>1373</ele>
        <time>2014-03-02T07:43:57.000Z</time>
      </trkpt>
      <trkpt lat="45.32301" lon="6.23849">
        <ele>1373.1999511719</ele>
        <time>2014-03-02T07:43:58.000Z</time>
      </trkpt>
      <trkpt lat="45.32302" lon="6.23849">
        <ele>1374</ele>
        <time>2014-03-02T07:43:59.000Z</time>
      </trkpt>
      <trkpt lat="45.32302" lon="6.23849">
        <ele>1374.1999511719</ele>
        <time>2014-03-02T07:44:00.000Z</time>
      </trkpt>
      <trkpt lat="45.32303" lon="6.23849">
        <ele>1374.8000488281</ele>
        <time>2014-03-02T07:44:02.000Z</time>
      </trkpt>
      <trkpt lat="45.32304" lon="6.23849">
        <ele>1375.1999511719</ele>
        <time>2014-03-02T07:44:03.000Z</time>
      </trkpt>
      <trkpt lat="45.32304" lon="6.23849">
        <ele>1375.4000244141</ele>
        <time>2014-03-02T07:44:04.000Z</time>
      </trkpt>
      <trkpt lat="45.32304" lon="6.23849">
        <ele>1375.4000244141</ele>
        <time>2014-03-02T07:44:05.000Z</time>
      </trkpt>
      <trkpt lat="45.32304" lon="6.23849">
        <ele>1375.4000244141</ele>
        <time>2014-03-02T07:44:06.000Z</time>
      </trkpt>
      <trkpt lat="45.32305" lon="6.23849">
        <ele>1375.5999755859</ele>
        <time>2014-03-02T07:44:07.000Z</time>
      </trkpt>
      <trkpt lat="45.32305" lon="6.23848">
        <ele>1376</ele>
        <time>2014-03-02T07:44:08.000Z</time>
      </trkpt>
      <trkpt lat="45.32307" lon="6.23847">
        <ele>1376.5999755859</ele>
        <time>2014-03-02T07:44:09.000Z</time>
      </trkpt>
      <trkpt lat="45.32308" lon="6.23846">
        <ele>1377.1999511719</ele>
        <time>2014-03-02T07:44:10.000Z</time>
      </trkpt>
      <trkpt lat="45.3231" lon="6.23845">
        <ele>1378.4000244141</ele>
        <time>2014-03-02T07:44:12.000Z</time>
      </trkpt>
      <trkpt lat="45.32311" lon="6.23844">
        <ele>1378.4000244141</ele>
        <time>2014-03-02T07:44:13.000Z</time>
      </trkpt>
      <trkpt lat="45.32311" lon="6.23844">
        <ele>1378.5999755859</ele>
        <time>2014-03-02T07:44:14.000Z</time>
      </trkpt>
      <trkpt lat="45.32312" lon="6.23842">
        <ele>1378.8000488281</ele>
        <time>2014-03-02T07:44:15.000Z</time>
      </trkpt>
      <trkpt lat="45.32313" lon="6.23842">
        <ele>1379</ele>
        <time>2014-03-02T07:44:16.000Z</time>
      </trkpt>
      <trkpt lat="45.32314" lon="6.2384">
        <ele>1379.4000244141</ele>
        <time>2014-03-02T07:44:17.000Z</time>
      </trkpt>
      <trkpt lat="45.32314" lon="6.23839">
        <ele>1379.5999755859</ele>
        <time>2014-03-02T07:44:18.000Z</time>
      </trkpt>
      <trkpt lat="45.32315" lon="6.23839">
        <ele>1379.8000488281</ele>
        <time>2014-03-02T07:44:19.000Z</time>
      </trkpt>
      <trkpt lat="45.32316" lon="6.23838">
        <ele>1380</ele>
        <time>2014-03-02T07:44:20.000Z</time>
      </trkpt>
      <trkpt lat="45.32316" lon="6.23838">
        <ele>1380.5999755859</ele>
        <time>2014-03-02T07:44:21.000Z</time>
      </trkpt>
      <trkpt lat="45.32317" lon="6.23837">
        <ele>1380.8000488281</ele>
        <time>2014-03-02T07:44:22.000Z</time>
      </trkpt>
      <trkpt lat="45.32318" lon="6.23837">
        <ele>1381.1999511719</ele>
        <time>2014-03-02T07:44:23.000Z</time>
      </trkpt>
      <trkpt lat="45.32318" lon="6.23836">
        <ele>1381.4000244141</ele>
        <time>2014-03-02T07:44:24.000Z</time>
      </trkpt>
      <trkpt lat="45.32319" lon="6.23835">
        <ele>1381.5999755859</ele>
        <time>2014-03-02T07:44:25.000Z</time>
      </trkpt>
      <trkpt lat="45.3232" lon="6.23835">
        <ele>1381.8000488281</ele>
        <time>2014-03-02T07:44:26.000Z</time>
      </trkpt>
      <trkpt lat="45.3232" lon="6.23834">
        <ele>1382</ele>
        <time>2014-03-02T07:44:27.000Z</time>
      </trkpt>
      <trkpt lat="45.32321" lon="6.23834">
        <ele>1382.1999511719</ele>
        <time>2014-03-02T07:44:28.000Z</time>
      </trkpt>
      <trkpt lat="45.32321" lon="6.23833">
        <ele>1382</ele>
        <time>2014-03-02T07:44:29.000Z</time>
      </trkpt>
      <trkpt lat="45.32322" lon="6.23832">
        <ele>1382</ele>
        <time>2014-03-02T07:44:30.000Z</time>
      </trkpt>
      <trkpt lat="45.32322" lon="6.23831">
        <ele>1382</ele>
        <time>2014-03-02T07:44:31.000Z</time>
      </trkpt>
      <trkpt lat="45.32323" lon="6.23831">
        <ele>1382.1999511719</ele>
        <time>2014-03-02T07:44:32.000Z</time>
      </trkpt>
      <trkpt lat="45.32323" lon="6.2383">
        <ele>1382.1999511719</ele>
        <time>2014-03-02T07:44:33.000Z</time>
      </trkpt>
      <trkpt lat="45.32324" lon="6.23829">
        <ele>1382.1999511719</ele>
        <time>2014-03-02T07:44:34.000Z</time>
      </trkpt>
      <trkpt lat="45.32324" lon="6.23827">
        <ele>1382.1999511719</ele>
        <time>2014-03-02T07:44:35.000Z</time>
      </trkpt>
      <trkpt lat="45.32325" lon="6.23827">
        <ele>1382.1999511719</ele>
        <time>2014-03-02T07:44:36.000Z</time>
      </trkpt>
      <trkpt lat="45.32326" lon="6.23826">
        <ele>1382.1999511719</ele>
        <time>2014-03-02T07:44:37.000Z</time>
      </trkpt>
      <trkpt lat="45.32326" lon="6.23825">
        <ele>1382.4000244141</ele>
        <time>2014-03-02T07:44:38.000Z</time>
      </trkpt>
      <trkpt lat="45.32327" lon="6.23824">
        <ele>1382.5999755859</ele>
        <time>2014-03-02T07:44:39.000Z</time>
      </trkpt>
      <trkpt lat="45.32328" lon="6.23824">
        <ele>1382.8000488281</ele>
        <time>2014-03-02T07:44:40.000Z</time>
      </trkpt>
      <trkpt lat="45.32328" lon="6.23823">
        <ele>1383</ele>
        <time>2014-03-02T07:44:41.000Z</time>
      </trkpt>
      <trkpt lat="45.32329" lon="6.23823">
        <ele>1383</ele>
        <time>2014-03-02T07:44:42.000Z</time>
      </trkpt>
      <trkpt lat="45.3233" lon="6.23822">
        <ele>1383.4000244141</ele>
        <time>2014-03-02T07:44:43.000Z</time>
      </trkpt>
      <trkpt lat="45.32331" lon="6.23821">
        <ele>1383.8000488281</ele>
        <time>2014-03-02T07:44:44.000Z</time>
      </trkpt>
      <trkpt lat="45.32332" lon="6.2382">
        <ele>1384</ele>
        <time>2014-03-02T07:44:45.000Z</time>
      </trkpt>
      <trkpt lat="45.32332" lon="6.23819">
        <ele>1384</ele>
        <time>2014-03-02T07:44:46.000Z</time>
      </trkpt>
      <trkpt lat="45.32333" lon="6.23819">
        <ele>1384.1999511719</ele>
        <time>2014-03-02T07:44:47.000Z</time>
      </trkpt>
      <trkpt lat="45.32334" lon="6.23817">
        <ele>1384.1999511719</ele>
        <time>2014-03-02T07:44:48.000Z</time>
      </trkpt>
      <trkpt lat="45.32334" lon="6.23817">
        <ele>1384.4000244141</ele>
        <time>2014-03-02T07:44:49.000Z</time>
      </trkpt>
      <trkpt lat="45.32335" lon="6.23816">
        <ele>1384.8000488281</ele>
        <time>2014-03-02T07:44:50.000Z</time>
      </trkpt>
      <trkpt lat="45.32336" lon="6.23816">
        <ele>1385.1999511719</ele>
        <time>2014-03-02T07:44:51.000Z</time>
      </trkpt>
      <trkpt lat="45.32336" lon="6.23816">
        <ele>1385.1999511719</ele>
        <time>2014-03-02T07:44:52.000Z</time>
      </trkpt>
      <trkpt lat="45.32337" lon="6.23815">
        <ele>1385.4000244141</ele>
        <time>2014-03-02T07:44:53.000Z</time>
      </trkpt>
      <trkpt lat="45.32338" lon="6.23815">
        <ele>1385.5999755859</ele>
        <time>2014-03-02T07:44:54.000Z</time>
      </trkpt>
      <trkpt lat="45.32338" lon="6.23814">
        <ele>1385.8000488281</ele>
        <time>2014-03-02T07:44:55.000Z</time>
      </trkpt>
      <trkpt lat="45.32339" lon="6.23813">
        <ele>1385.5999755859</ele>
        <time>2014-03-02T07:44:56.000Z</time>
      </trkpt>
      <trkpt lat="45.32339" lon="6.23811">
        <ele>1385.8000488281</ele>
        <time>2014-03-02T07:44:57.000Z</time>
      </trkpt>
      <trkpt lat="45.3234" lon="6.2381">
        <ele>1386</ele>
        <time>2014-03-02T07:44:58.000Z</time>
      </trkpt>
      <trkpt lat="45.3234" lon="6.23808">
        <ele>1386.4000244141</ele>
        <time>2014-03-02T07:44:59.000Z</time>
      </trkpt>
      <trkpt lat="45.32341" lon="6.23808">
        <ele>1386.5999755859</ele>
        <time>2014-03-02T07:45:00.000Z</time>
      </trkpt>
      <trkpt lat="45.32341" lon="6.23808">
        <ele>1386.8000488281</ele>
        <time>2014-03-02T07:45:01.000Z</time>
      </trkpt>
      <trkpt lat="45.32341" lon="6.23807">
        <ele>1387</ele>
        <time>2014-03-02T07:45:02.000Z</time>
      </trkpt>
      <trkpt lat="45.32342" lon="6.23806">
        <ele>1387.1999511719</ele>
        <time>2014-03-02T07:45:03.000Z</time>
      </trkpt>
      <trkpt lat="45.32342" lon="6.23805">
        <ele>1387.5999755859</ele>
        <time>2014-03-02T07:45:04.000Z</time>
      </trkpt>
      <trkpt lat="45.32343" lon="6.23805">
        <ele>1388</ele>
        <time>2014-03-02T07:45:05.000Z</time>
      </trkpt>
      <trkpt lat="45.32343" lon="6.23805">
        <ele>1388.4000244141</ele>
        <time>2014-03-02T07:45:06.000Z</time>
      </trkpt>
      <trkpt lat="45.32344" lon="6.23804">
        <ele>1388.8000488281</ele>
        <time>2014-03-02T07:45:07.000Z</time>
      </trkpt>
      <trkpt lat="45.32344" lon="6.23803">
        <ele>1389</ele>
        <time>2014-03-02T07:45:08.000Z</time>
      </trkpt>
      <trkpt lat="45.32345" lon="6.23802">
        <ele>1389.1999511719</ele>
        <time>2014-03-02T07:45:09.000Z</time>
      </trkpt>
      <trkpt lat="45.32345" lon="6.23801">
        <ele>1389.4000244141</ele>
        <time>2014-03-02T07:45:10.000Z</time>
      </trkpt>
      <trkpt lat="45.32346" lon="6.238">
        <ele>1389.8000488281</ele>
        <time>2014-03-02T07:45:11.000Z</time>
      </trkpt>
      <trkpt lat="45.32346" lon="6.23799">
        <ele>1389.8000488281</ele>
        <time>2014-03-02T07:45:12.000Z</time>
      </trkpt>
      <trkpt lat="45.32346" lon="6.23799">
        <ele>1390</ele>
        <time>2014-03-02T07:45:13.000Z</time>
      </trkpt>
      <trkpt lat="45.32346" lon="6.23798">
        <ele>1390.1999511719</ele>
        <time>2014-03-02T07:45:14.000Z</time>
      </trkpt>
      <trkpt lat="45.32346" lon="6.23798">
        <ele>1390.1999511719</ele>
        <time>2014-03-02T07:45:15.000Z</time>
      </trkpt>
      <trkpt lat="45.32346" lon="6.23798">
        <ele>1390.1999511719</ele>
        <time>2014-03-02T07:45:16.000Z</time>
      </trkpt>
      <trkpt lat="45.32346" lon="6.23798">
        <ele>1390.1999511719</ele>
        <time>2014-03-02T07:45:17.000Z</time>
      </trkpt>
      <trkpt lat="45.32347" lon="6.23796">
        <ele>1390.5999755859</ele>
        <time>2014-03-02T07:45:18.000Z</time>
      </trkpt>
      <trkpt lat="45.32348" lon="6.23796">
        <ele>1391</ele>
        <time>2014-03-02T07:45:19.000Z</time>
      </trkpt>
      <trkpt lat="45.32349" lon="6.23794">
        <ele>1391.5999755859</ele>
        <time>2014-03-02T07:45:20.000Z</time>
      </trkpt>
      <trkpt lat="45.32349" lon="6.23793">
        <ele>1392</ele>
        <time>2014-03-02T07:45:21.000Z</time>
      </trkpt>
      <trkpt lat="45.3235" lon="6.23791">
        <ele>1392.5999755859</ele>
        <time>2014-03-02T07:45:22.000Z</time>
      </trkpt>
      <trkpt lat="45.32351" lon="6.23791">
        <ele>1393</ele>
        <time>2014-03-02T07:45:23.000Z</time>
      </trkpt>
      <trkpt lat="45.32351" lon="6.2379">
        <ele>1393.4000244141</ele>
        <time>2014-03-02T07:45:24.000Z</time>
      </trkpt>
      <trkpt lat="45.32352" lon="6.23789">
        <ele>1393.8000488281</ele>
        <time>2014-03-02T07:45:25.000Z</time>
      </trkpt>
      <trkpt lat="45.32352" lon="6.23789">
        <ele>1394.1999511719</ele>
        <time>2014-03-02T07:45:26.000Z</time>
      </trkpt>
      <trkpt lat="45.32353" lon="6.23788">
        <ele>1394.4000244141</ele>
        <time>2014-03-02T07:45:27.000Z</time>
      </trkpt>
      <trkpt lat="45.32353" lon="6.23788">
        <ele>1394.4000244141</ele>
        <time>2014-03-02T07:45:28.000Z</time>
      </trkpt>
      <trkpt lat="45.32353" lon="6.23787">
        <ele>1394.5999755859</ele>
        <time>2014-03-02T07:45:29.000Z</time>
      </trkpt>
      <trkpt lat="45.32353" lon="6.23787">
        <ele>1394.5999755859</ele>
        <time>2014-03-02T07:45:30.000Z</time>
      </trkpt>
      <trkpt lat="45.32354" lon="6.23786">
        <ele>1395</ele>
        <time>2014-03-02T07:45:31.000Z</time>
      </trkpt>
      <trkpt lat="45.32354" lon="6.23786">
        <ele>1395</ele>
        <time>2014-03-02T07:45:32.000Z</time>
      </trkpt>
      <trkpt lat="45.32355" lon="6.23786">
        <ele>1395.1999511719</ele>
        <time>2014-03-02T07:45:33.000Z</time>
      </trkpt>
      <trkpt lat="45.32355" lon="6.23785">
        <ele>1395.1999511719</ele>
        <time>2014-03-02T07:45:34.000Z</time>
      </trkpt>
      <trkpt lat="45.32356" lon="6.23784">
        <ele>1395</ele>
        <time>2014-03-02T07:45:35.000Z</time>
      </trkpt>
      <trkpt lat="45.32356" lon="6.23783">
        <ele>1394.8000488281</ele>
        <time>2014-03-02T07:45:36.000Z</time>
      </trkpt>
      <trkpt lat="45.32356" lon="6.23782">
        <ele>1394.5999755859</ele>
        <time>2014-03-02T07:45:37.000Z</time>
      </trkpt>
      <trkpt lat="45.32357" lon="6.23781">
        <ele>1394.5999755859</ele>
        <time>2014-03-02T07:45:38.000Z</time>
      </trkpt>
      <trkpt lat="45.32357" lon="6.2378">
        <ele>1394.1999511719</ele>
        <time>2014-03-02T07:45:39.000Z</time>
      </trkpt>
      <trkpt lat="45.32357" lon="6.23779">
        <ele>1394</ele>
        <time>2014-03-02T07:45:40.000Z</time>
      </trkpt>
      <trkpt lat="45.32358" lon="6.23778">
        <ele>1393.5999755859</ele>
        <time>2014-03-02T07:45:41.000Z</time>
      </trkpt>
      <trkpt lat="45.32358" lon="6.23777">
        <ele>1393.5999755859</ele>
        <time>2014-03-02T07:45:42.000Z</time>
      </trkpt>
      <trkpt lat="45.32359" lon="6.23776">
        <ele>1393.4000244141</ele>
        <time>2014-03-02T07:45:43.000Z</time>
      </trkpt>
      <trkpt lat="45.32359" lon="6.23776">
        <ele>1393.1999511719</ele>
        <time>2014-03-02T07:45:44.000Z</time>
      </trkpt>
      <trkpt lat="45.32359" lon="6.23776">
        <ele>1393.1999511719</ele>
        <time>2014-03-02T07:45:45.000Z</time>
      </trkpt>
      <trkpt lat="45.32359" lon="6.23776">
        <ele>1393.1999511719</ele>
        <time>2014-03-02T07:45:46.000Z</time>
      </trkpt>
      <trkpt lat="45.32359" lon="6.23776">
        <ele>1393.1999511719</ele>
        <time>2014-03-02T07:45:47.000Z</time>
      </trkpt>
      <trkpt lat="45.32359" lon="6.23774">
        <ele>1393</ele>
        <time>2014-03-02T07:45:48.000Z</time>
      </trkpt>
      <trkpt lat="45.32359" lon="6.23774">
        <ele>1393</ele>
        <time>2014-03-02T07:45:49.000Z</time>
      </trkpt>
      <trkpt lat="45.3236" lon="6.23773">
        <ele>1392.5999755859</ele>
        <time>2014-03-02T07:45:50.000Z</time>
      </trkpt>
      <trkpt lat="45.3236" lon="6.23771">
        <ele>1392.1999511719</ele>
        <time>2014-03-02T07:45:51.000Z</time>
      </trkpt>
      <trkpt lat="45.3236" lon="6.2377">
        <ele>1392</ele>
        <time>2014-03-02T07:45:52.000Z</time>
      </trkpt>
      <trkpt lat="45.32361" lon="6.23768">
        <ele>1391.5999755859</ele>
        <time>2014-03-02T07:45:53.000Z</time>
      </trkpt>
      <trkpt lat="45.32361" lon="6.23767">
        <ele>1391.4000244141</ele>
        <time>2014-03-02T07:45:54.000Z</time>
      </trkpt>
      <trkpt lat="45.32362" lon="6.23766">
        <ele>1391</ele>
        <time>2014-03-02T07:45:55.000Z</time>
      </trkpt>
      <trkpt lat="45.32362" lon="6.23765">
        <ele>1390.8000488281</ele>
        <time>2014-03-02T07:45:56.000Z</time>
      </trkpt>
      <trkpt lat="45.32362" lon="6.23764">
        <ele>1390.4000244141</ele>
        <time>2014-03-02T07:45:57.000Z</time>
      </trkpt>
      <trkpt lat="45.32362" lon="6.23763">
        <ele>1390.4000244141</ele>
        <time>2014-03-02T07:45:58.000Z</time>
      </trkpt>
      <trkpt lat="45.32362" lon="6.23763">
        <ele>1390.1999511719</ele>
        <time>2014-03-02T07:45:59.000Z</time>
      </trkpt>
      <trkpt lat="45.32363" lon="6.23762">
        <ele>1390</ele>
        <time>2014-03-02T07:46:00.000Z</time>
      </trkpt>
      <trkpt lat="45.32363" lon="6.23761">
        <ele>1389.8000488281</ele>
        <time>2014-03-02T07:46:01.000Z</time>
      </trkpt>
      <trkpt lat="45.32363" lon="6.2376">
        <ele>1389.8000488281</ele>
        <time>2014-03-02T07:46:02.000Z</time>
      </trkpt>
      <trkpt lat="45.32363" lon="6.23759">
        <ele>1389.5999755859</ele>
        <time>2014-03-02T07:46:03.000Z</time>
      </trkpt>
      <trkpt lat="45.32363" lon="6.23759">
        <ele>1389.4000244141</ele>
        <time>2014-03-02T07:46:04.000Z</time>
      </trkpt>
      <trkpt lat="45.32363" lon="6.23758">
        <ele>1389.1999511719</ele>
        <time>2014-03-02T07:46:05.000Z</time>
      </trkpt>
      <trkpt lat="45.32363" lon="6.23758">
        <ele>1389.1999511719</ele>
        <time>2014-03-02T07:46:06.000Z</time>
      </trkpt>
      <trkpt lat="45.32363" lon="6.23757">
        <ele>1389</ele>
        <time>2014-03-02T07:46:07.000Z</time>
      </trkpt>
      <trkpt lat="45.32363" lon="6.23757">
        <ele>1389</ele>
        <time>2014-03-02T07:46:08.000Z</time>
      </trkpt>
      <trkpt lat="45.32365" lon="6.23757">
        <ele>1389</ele>
        <time>2014-03-02T07:46:09.000Z</time>
      </trkpt>
      <trkpt lat="45.32365" lon="6.23756">
        <ele>1389</ele>
        <time>2014-03-02T07:46:10.000Z</time>
      </trkpt>
      <trkpt lat="45.32366" lon="6.23755">
        <ele>1389</ele>
        <time>2014-03-02T07:46:11.000Z</time>
      </trkpt>
      <trkpt lat="45.32366" lon="6.23755">
        <ele>1389</ele>
        <time>2014-03-02T07:46:12.000Z</time>
      </trkpt>
      <trkpt lat="45.32366" lon="6.23754">
        <ele>1388.5999755859</ele>
        <time>2014-03-02T07:46:13.000Z</time>
      </trkpt>
      <trkpt lat="45.32366" lon="6.23754">
        <ele>1388.5999755859</ele>
        <time>2014-03-02T07:46:14.000Z</time>
      </trkpt>
      <trkpt lat="45.32366" lon="6.23753">
        <ele>1388.4000244141</ele>
        <time>2014-03-02T07:46:15.000Z</time>
      </trkpt>
      <trkpt lat="45.32366" lon="6.23753">
        <ele>1388.4000244141</ele>
        <time>2014-03-02T07:46:16.000Z</time>
      </trkpt>
      <trkpt lat="45.32367" lon="6.23752">
        <ele>1388.1999511719</ele>
        <time>2014-03-02T07:46:17.000Z</time>
      </trkpt>
      <trkpt lat="45.32367" lon="6.23752">
        <ele>1388.1999511719</ele>
        <time>2014-03-02T07:46:18.000Z</time>
      </trkpt>
      <trkpt lat="45.32367" lon="6.23752">
        <ele>1388.4000244141</ele>
        <time>2014-03-02T07:46:19.000Z</time>
      </trkpt>
      <trkpt lat="45.32367" lon="6.23752">
        <ele>1388.4000244141</ele>
        <time>2014-03-02T07:46:20.000Z</time>
      </trkpt>
      <trkpt lat="45.32368" lon="6.23752">
        <ele>1388.5999755859</ele>
        <time>2014-03-02T07:46:21.000Z</time>
      </trkpt>
      <trkpt lat="45.32368" lon="6.23752">
        <ele>1388.5999755859</ele>
        <time>2014-03-02T07:46:22.000Z</time>
      </trkpt>
      <trkpt lat="45.32369" lon="6.23752">
        <ele>1388.8000488281</ele>
        <time>2014-03-02T07:46:23.000Z</time>
      </trkpt>
      <trkpt lat="45.3237" lon="6.23752">
        <ele>1389</ele>
        <time>2014-03-02T07:46:24.000Z</time>
      </trkpt>
      <trkpt lat="45.3237" lon="6.23752">
        <ele>1389.1999511719</ele>
        <time>2014-03-02T07:46:25.000Z</time>
      </trkpt>
      <trkpt lat="45.3237" lon="6.23752">
        <ele>1389.1999511719</ele>
        <time>2014-03-02T07:46:26.000Z</time>
      </trkpt>
      <trkpt lat="45.32371" lon="6.23752">
        <ele>1389.5999755859</ele>
        <time>2014-03-02T07:46:27.000Z</time>
      </trkpt>
      <trkpt lat="45.32372" lon="6.23753">
        <ele>1389.8000488281</ele>
        <time>2014-03-02T07:46:28.000Z</time>
      </trkpt>
      <trkpt lat="45.32373" lon="6.23753">
        <ele>1390.4000244141</ele>
        <time>2014-03-02T07:46:29.000Z</time>
      </trkpt>
      <trkpt lat="45.32373" lon="6.23753">
        <ele>1390.4000244141</ele>
        <time>2014-03-02T07:46:30.000Z</time>
      </trkpt>
      <trkpt lat="45.32374" lon="6.23753">
        <ele>1390.8000488281</ele>
        <time>2014-03-02T07:46:31.000Z</time>
      </trkpt>
      <trkpt lat="45.32375" lon="6.23754">
        <ele>1391.1999511719</ele>
        <time>2014-03-02T07:46:32.000Z</time>
      </trkpt>
      <trkpt lat="45.32376" lon="6.23754">
        <ele>1391.4000244141</ele>
        <time>2014-03-02T07:46:33.000Z</time>
      </trkpt>
      <trkpt lat="45.32377" lon="6.23754">
        <ele>1391.8000488281</ele>
        <time>2014-03-02T07:46:34.000Z</time>
      </trkpt>
      <trkpt lat="45.32378" lon="6.23753">
        <ele>1391.8000488281</ele>
        <time>2014-03-02T07:46:35.000Z</time>
      </trkpt>
      <trkpt lat="45.32379" lon="6.23753">
        <ele>1392</ele>
        <time>2014-03-02T07:46:36.000Z</time>
      </trkpt>
      <trkpt lat="45.3238" lon="6.23753">
        <ele>1392.1999511719</ele>
        <time>2014-03-02T07:46:37.000Z</time>
      </trkpt>
      <trkpt lat="45.32381" lon="6.23753">
        <ele>1392.4000244141</ele>
        <time>2014-03-02T07:46:38.000Z</time>
      </trkpt>
      <trkpt lat="45.32381" lon="6.23752">
        <ele>1392.5999755859</ele>
        <time>2014-03-02T07:46:39.000Z</time>
      </trkpt>
      <trkpt lat="45.32381" lon="6.23752">
        <ele>1392.5999755859</ele>
        <time>2014-03-02T07:46:40.000Z</time>
      </trkpt>
      <trkpt lat="45.32382" lon="6.23751">
        <ele>1392.5999755859</ele>
        <time>2014-03-02T07:46:41.000Z</time>
      </trkpt>
      <trkpt lat="45.32382" lon="6.23751">
        <ele>1392.8000488281</ele>
        <time>2014-03-02T07:46:42.000Z</time>
      </trkpt>
      <trkpt lat="45.32383" lon="6.2375">
        <ele>1393.1999511719</ele>
        <time>2014-03-02T07:46:43.000Z</time>
      </trkpt>
      <trkpt lat="45.32383" lon="6.23749">
        <ele>1393.1999511719</ele>
        <time>2014-03-02T07:46:44.000Z</time>
      </trkpt>
      <trkpt lat="45.32384" lon="6.23748">
        <ele>1393.4000244141</ele>
        <time>2014-03-02T07:46:45.000Z</time>
      </trkpt>
      <trkpt lat="45.32385" lon="6.23747">
        <ele>1393.5999755859</ele>
        <time>2014-03-02T07:46:46.000Z</time>
      </trkpt>
      <trkpt lat="45.32386" lon="6.23747">
        <ele>1393.8000488281</ele>
        <time>2014-03-02T07:46:47.000Z</time>
      </trkpt>
      <trkpt lat="45.32386" lon="6.23747">
        <ele>1393.8000488281</ele>
        <time>2014-03-02T07:46:48.000Z</time>
      </trkpt>
      <trkpt lat="45.32386" lon="6.23745">
        <ele>1394</ele>
        <time>2014-03-02T07:46:49.000Z</time>
      </trkpt>
      <trkpt lat="45.32386" lon="6.23745">
        <ele>1394</ele>
        <time>2014-03-02T07:46:50.000Z</time>
      </trkpt>
      <trkpt lat="45.32387" lon="6.23744">
        <ele>1393.8000488281</ele>
        <time>2014-03-02T07:46:51.000Z</time>
      </trkpt>
      <trkpt lat="45.32387" lon="6.23743">
        <ele>1393.5999755859</ele>
        <time>2014-03-02T07:46:52.000Z</time>
      </trkpt>
      <trkpt lat="45.32387" lon="6.23742">
        <ele>1393.5999755859</ele>
        <time>2014-03-02T07:46:53.000Z</time>
      </trkpt>
      <trkpt lat="45.32388" lon="6.23741">
        <ele>1393.8000488281</ele>
        <time>2014-03-02T07:46:54.000Z</time>
      </trkpt>
      <trkpt lat="45.32388" lon="6.23741">
        <ele>1393.8000488281</ele>
        <time>2014-03-02T07:46:55.000Z</time>
      </trkpt>
      <trkpt lat="45.32388" lon="6.2374">
        <ele>1393.8000488281</ele>
        <time>2014-03-02T07:46:56.000Z</time>
      </trkpt>
      <trkpt lat="45.32388" lon="6.2374">
        <ele>1393.8000488281</ele>
        <time>2014-03-02T07:46:57.000Z</time>
      </trkpt>
      <trkpt lat="45.32389" lon="6.23738">
        <ele>1393.5999755859</ele>
        <time>2014-03-02T07:46:58.000Z</time>
      </trkpt>
      <trkpt lat="45.32389" lon="6.23738">
        <ele>1393.5999755859</ele>
        <time>2014-03-02T07:46:59.000Z</time>
      </trkpt>
      <trkpt lat="45.3239" lon="6.23737">
        <ele>1393.5999755859</ele>
        <time>2014-03-02T07:47:00.000Z</time>
      </trkpt>
      <trkpt lat="45.3239" lon="6.23736">
        <ele>1393.4000244141</ele>
        <time>2014-03-02T07:47:01.000Z</time>
      </trkpt>
      <trkpt lat="45.3239" lon="6.23735">
        <ele>1393.4000244141</ele>
        <time>2014-03-02T07:47:02.000Z</time>
      </trkpt>
      <trkpt lat="45.32391" lon="6.23734">
        <ele>1393.1999511719</ele>
        <time>2014-03-02T07:47:03.000Z</time>
      </trkpt>
      <trkpt lat="45.32392" lon="6.23733">
        <ele>1393</ele>
        <time>2014-03-02T07:47:04.000Z</time>
      </trkpt>
      <trkpt lat="45.32392" lon="6.23732">
        <ele>1393.1999511719</ele>
        <time>2014-03-02T07:47:05.000Z</time>
      </trkpt>
      <trkpt lat="45.32393" lon="6.23731">
        <ele>1393.1999511719</ele>
        <time>2014-03-02T07:47:06.000Z</time>
      </trkpt>
      <trkpt lat="45.32393" lon="6.2373">
        <ele>1393.4000244141</ele>
        <time>2014-03-02T07:47:07.000Z</time>
      </trkpt>
      <trkpt lat="45.32394" lon="6.2373">
        <ele>1393.5999755859</ele>
        <time>2014-03-02T07:47:08.000Z</time>
      </trkpt>
      <trkpt lat="45.32395" lon="6.23729">
        <ele>1393.8000488281</ele>
        <time>2014-03-02T07:47:09.000Z</time>
      </trkpt>
      <trkpt lat="45.32395" lon="6.23728">
        <ele>1394.1999511719</ele>
        <time>2014-03-02T07:47:10.000Z</time>
      </trkpt>
      <trkpt lat="45.32396" lon="6.23728">
        <ele>1394.4000244141</ele>
        <time>2014-03-02T07:47:11.000Z</time>
      </trkpt>
      <trkpt lat="45.32396" lon="6.23727">
        <ele>1394.5999755859</ele>
        <time>2014-03-02T07:47:12.000Z</time>
      </trkpt>
      <trkpt lat="45.32396" lon="6.23726">
        <ele>1394.8000488281</ele>
        <time>2014-03-02T07:47:13.000Z</time>
      </trkpt>
      <trkpt lat="45.32397" lon="6.23726">
        <ele>1395</ele>
        <time>2014-03-02T07:47:14.000Z</time>
      </trkpt>
      <trkpt lat="45.32397" lon="6.23726">
        <ele>1395</ele>
        <time>2014-03-02T07:47:15.000Z</time>
      </trkpt>
      <trkpt lat="45.32397" lon="6.23726">
        <ele>1395.1999511719</ele>
        <time>2014-03-02T07:47:16.000Z</time>
      </trkpt>
      <trkpt lat="45.32397" lon="6.23726">
        <ele>1395.1999511719</ele>
        <time>2014-03-02T07:47:17.000Z</time>
      </trkpt>
      <trkpt lat="45.32398" lon="6.23725">
        <ele>1395.5999755859</ele>
        <time>2014-03-02T07:47:18.000Z</time>
      </trkpt>
      <trkpt lat="45.32398" lon="6.23725">
        <ele>1395.5999755859</ele>
        <time>2014-03-02T07:47:19.000Z</time>
      </trkpt>
      <trkpt lat="45.32398" lon="6.23724">
        <ele>1396</ele>
        <time>2014-03-02T07:47:20.000Z</time>
      </trkpt>
      <trkpt lat="45.32398" lon="6.23724">
        <ele>1396</ele>
        <time>2014-03-02T07:47:21.000Z</time>
      </trkpt>
      <trkpt lat="45.32399" lon="6.23723">
        <ele>1396.4000244141</ele>
        <time>2014-03-02T07:47:22.000Z</time>
      </trkpt>
      <trkpt lat="45.32399" lon="6.23723">
        <ele>1396.4000244141</ele>
        <time>2014-03-02T07:47:23.000Z</time>
      </trkpt>
      <trkpt lat="45.324" lon="6.23722">
        <ele>1396.8000488281</ele>
        <time>2014-03-02T07:47:24.000Z</time>
      </trkpt>
      <trkpt lat="45.324" lon="6.23722">
        <ele>1396.8000488281</ele>
        <time>2014-03-02T07:47:25.000Z</time>
      </trkpt>
      <trkpt lat="45.324" lon="6.23721">
        <ele>1397.1999511719</ele>
        <time>2014-03-02T07:47:26.000Z</time>
      </trkpt>
      <trkpt lat="45.324" lon="6.23721">
        <ele>1397.1999511719</ele>
        <time>2014-03-02T07:47:27.000Z</time>
      </trkpt>
      <trkpt lat="45.32401" lon="6.2372">
        <ele>1397.5999755859</ele>
        <time>2014-03-02T07:47:28.000Z</time>
      </trkpt>
      <trkpt lat="45.32402" lon="6.23718">
        <ele>1398.1999511719</ele>
        <time>2014-03-02T07:47:29.000Z</time>
      </trkpt>
      <trkpt lat="45.32403" lon="6.23718">
        <ele>1398.5999755859</ele>
        <time>2014-03-02T07:47:30.000Z</time>
      </trkpt>
      <trkpt lat="45.32403" lon="6.23718">
        <ele>1398.5999755859</ele>
        <time>2014-03-02T07:47:31.000Z</time>
      </trkpt>
      <trkpt lat="45.32403" lon="6.23717">
        <ele>1399</ele>
        <time>2014-03-02T07:47:32.000Z</time>
      </trkpt>
      <trkpt lat="45.32404" lon="6.23717">
        <ele>1399.5999755859</ele>
        <time>2014-03-02T07:47:33.000Z</time>
      </trkpt>
      <trkpt lat="45.32405" lon="6.23716">
        <ele>1399.8000488281</ele>
        <time>2014-03-02T07:47:34.000Z</time>
      </trkpt>
      <trkpt lat="45.32405" lon="6.23716">
        <ele>1399.8000488281</ele>
        <time>2014-03-02T07:47:35.000Z</time>
      </trkpt>
      <trkpt lat="45.32406" lon="6.23716">
        <ele>1400.4000244141</ele>
        <time>2014-03-02T07:47:36.000Z</time>
      </trkpt>
      <trkpt lat="45.32406" lon="6.23716">
        <ele>1400.4000244141</ele>
        <time>2014-03-02T07:47:37.000Z</time>
      </trkpt>
      <trkpt lat="45.32406" lon="6.23714">
        <ele>1400.8000488281</ele>
        <time>2014-03-02T07:47:38.000Z</time>
      </trkpt>
      <trkpt lat="45.32407" lon="6.23713">
        <ele>1401.1999511719</ele>
        <time>2014-03-02T07:47:39.000Z</time>
      </trkpt>
      <trkpt lat="45.32408" lon="6.23712">
        <ele>1401.5999755859</ele>
        <time>2014-03-02T07:47:40.000Z</time>
      </trkpt>
      <trkpt lat="45.32408" lon="6.2371">
        <ele>1402</ele>
        <time>2014-03-02T07:47:41.000Z</time>
      </trkpt>
      <trkpt lat="45.32408" lon="6.2371">
        <ele>1402</ele>
        <time>2014-03-02T07:47:42.000Z</time>
      </trkpt>
      <trkpt lat="45.32408" lon="6.2371">
        <ele>1402</ele>
        <time>2014-03-02T07:47:43.000Z</time>
      </trkpt>
      <trkpt lat="45.32408" lon="6.2371">
        <ele>1402</ele>
        <time>2014-03-02T07:47:44.000Z</time>
      </trkpt>
      <trkpt lat="45.32408" lon="6.2371">
        <ele>1402</ele>
        <time>2014-03-02T07:47:45.000Z</time>
      </trkpt>
      <trkpt lat="45.32409" lon="6.2371">
        <ele>1402.5999755859</ele>
        <time>2014-03-02T07:47:46.000Z</time>
      </trkpt>
      <trkpt lat="45.32409" lon="6.2371">
        <ele>1402.5999755859</ele>
        <time>2014-03-02T07:47:47.000Z</time>
      </trkpt>
      <trkpt lat="45.32409" lon="6.2371">
        <ele>1402.5999755859</ele>
        <time>2014-03-02T07:47:48.000Z</time>
      </trkpt>
      <trkpt lat="45.32409" lon="6.2371">
        <ele>1402.5999755859</ele>
        <time>2014-03-02T07:47:49.000Z</time>
      </trkpt>
      <trkpt lat="45.3241" lon="6.23709">
        <ele>1403</ele>
        <time>2014-03-02T07:47:50.000Z</time>
      </trkpt>
      <trkpt lat="45.3241" lon="6.23709">
        <ele>1403</ele>
        <time>2014-03-02T07:47:51.000Z</time>
      </trkpt>
      <trkpt lat="45.32411" lon="6.23707">
        <ele>1403.5999755859</ele>
        <time>2014-03-02T07:47:52.000Z</time>
      </trkpt>
      <trkpt lat="45.32411" lon="6.23707">
        <ele>1403.5999755859</ele>
        <time>2014-03-02T07:47:53.000Z</time>
      </trkpt>
      <trkpt lat="45.32412" lon="6.23707">
        <ele>1404</ele>
        <time>2014-03-02T07:47:54.000Z</time>
      </trkpt>
      <trkpt lat="45.32412" lon="6.23707">
        <ele>1404</ele>
        <time>2014-03-02T07:47:55.000Z</time>
      </trkpt>
      <trkpt lat="45.32412" lon="6.23706">
        <ele>1404.4000244141</ele>
        <time>2014-03-02T07:47:56.000Z</time>
      </trkpt>
      <trkpt lat="45.32413" lon="6.23705">
        <ele>1404.8000488281</ele>
        <time>2014-03-02T07:47:58.000Z</time>
      </trkpt>
      <trkpt lat="45.32413" lon="6.23704">
        <ele>1405</ele>
        <time>2014-03-02T07:47:59.000Z</time>
      </trkpt>
      <trkpt lat="45.32414" lon="6.23702">
        <ele>1405.5999755859</ele>
        <time>2014-03-02T07:48:00.000Z</time>
      </trkpt>
      <trkpt lat="45.32415" lon="6.23701">
        <ele>1406.1999511719</ele>
        <time>2014-03-02T07:48:01.000Z</time>
      </trkpt>
      <trkpt lat="45.32416" lon="6.237">
        <ele>1406.5999755859</ele>
        <time>2014-03-02T07:48:02.000Z</time>
      </trkpt>
      <trkpt lat="45.32416" lon="6.237">
        <ele>1406.5999755859</ele>
        <time>2014-03-02T07:48:03.000Z</time>
      </trkpt>
      <trkpt lat="45.32416" lon="6.237">
        <ele>1406.5999755859</ele>
        <time>2014-03-02T07:48:04.000Z</time>
      </trkpt>
      <trkpt lat="45.32416" lon="6.237">
        <ele>1406.5999755859</ele>
        <time>2014-03-02T07:48:05.000Z</time>
      </trkpt>
      <trkpt lat="45.32416" lon="6.237">
        <ele>1406.5999755859</ele>
        <time>2014-03-02T07:48:06.000Z</time>
      </trkpt>
      <trkpt lat="45.32416" lon="6.23699">
        <ele>1407</ele>
        <time>2014-03-02T07:48:07.000Z</time>
      </trkpt>
      <trkpt lat="45.32416" lon="6.23699">
        <ele>1407</ele>
        <time>2014-03-02T07:48:08.000Z</time>
      </trkpt>
      <trkpt lat="45.32417" lon="6.23698">
        <ele>1407.4000244141</ele>
        <time>2014-03-02T07:48:09.000Z</time>
      </trkpt>
      <trkpt lat="45.32417" lon="6.23698">
        <ele>1407.4000244141</ele>
        <time>2014-03-02T07:48:10.000Z</time>
      </trkpt>
      <trkpt lat="45.32418" lon="6.23697">
        <ele>1408</ele>
        <time>2014-03-02T07:48:11.000Z</time>
      </trkpt>
      <trkpt lat="45.32418" lon="6.23697">
        <ele>1408</ele>
        <time>2014-03-02T07:48:12.000Z</time>
      </trkpt>
      <trkpt lat="45.32419" lon="6.23696">
        <ele>1408.5999755859</ele>
        <time>2014-03-02T07:48:13.000Z</time>
      </trkpt>
      <trkpt lat="45.32419" lon="6.23696">
        <ele>1408.5999755859</ele>
        <time>2014-03-02T07:48:14.000Z</time>
      </trkpt>
      <trkpt lat="45.3242" lon="6.23695">
        <ele>1409</ele>
        <time>2014-03-02T07:48:15.000Z</time>
      </trkpt>
      <trkpt lat="45.3242" lon="6.23693">
        <ele>1409.4000244141</ele>
        <time>2014-03-02T07:48:16.000Z</time>
      </trkpt>
      <trkpt lat="45.32421" lon="6.23692">
        <ele>1409.5999755859</ele>
        <time>2014-03-02T07:48:17.000Z</time>
      </trkpt>
      <trkpt lat="45.32421" lon="6.23692">
        <ele>1409.5999755859</ele>
        <time>2014-03-02T07:48:18.000Z</time>
      </trkpt>
      <trkpt lat="45.32422" lon="6.23691">
        <ele>1410.1999511719</ele>
        <time>2014-03-02T07:48:19.000Z</time>
      </trkpt>
      <trkpt lat="45.32422" lon="6.23691">
        <ele>1410.1999511719</ele>
        <time>2014-03-02T07:48:20.000Z</time>
      </trkpt>
      <trkpt lat="45.32422" lon="6.2369">
        <ele>1410.4000244141</ele>
        <time>2014-03-02T07:48:21.000Z</time>
      </trkpt>
      <trkpt lat="45.32423" lon="6.23689">
        <ele>1411</ele>
        <time>2014-03-02T07:48:22.000Z</time>
      </trkpt>
      <trkpt lat="45.32424" lon="6.23688">
        <ele>1411.4000244141</ele>
        <time>2014-03-02T07:48:23.000Z</time>
      </trkpt>
      <trkpt lat="45.32424" lon="6.23688">
        <ele>1411.4000244141</ele>
        <time>2014-03-02T07:48:24.000Z</time>
      </trkpt>
      <trkpt lat="45.32425" lon="6.23687">
        <ele>1411.5999755859</ele>
        <time>2014-03-02T07:48:25.000Z</time>
      </trkpt>
      <trkpt lat="45.32425" lon="6.23687">
        <ele>1411.5999755859</ele>
        <time>2014-03-02T07:48:26.000Z</time>
      </trkpt>
      <trkpt lat="45.32426" lon="6.23686">
        <ele>1412.1999511719</ele>
        <time>2014-03-02T07:48:27.000Z</time>
      </trkpt>
      <trkpt lat="45.32427" lon="6.23685">
        <ele>1412.4000244141</ele>
        <time>2014-03-02T07:48:28.000Z</time>
      </trkpt>
      <trkpt lat="45.32428" lon="6.23685">
        <ele>1413</ele>
        <time>2014-03-02T07:48:29.000Z</time>
      </trkpt>
      <trkpt lat="45.32428" lon="6.23685">
        <ele>1413</ele>
        <time>2014-03-02T07:48:30.000Z</time>
      </trkpt>
      <trkpt lat="45.32428" lon="6.23684">
        <ele>1413</ele>
        <time>2014-03-02T07:48:31.000Z</time>
      </trkpt>
      <trkpt lat="45.32428" lon="6.23684">
        <ele>1413</ele>
        <time>2014-03-02T07:48:32.000Z</time>
      </trkpt>
      <trkpt lat="45.32429" lon="6.23683">
        <ele>1413.1999511719</ele>
        <time>2014-03-02T07:48:33.000Z</time>
      </trkpt>
      <trkpt lat="45.32429" lon="6.23682">
        <ele>1413.4000244141</ele>
        <time>2014-03-02T07:48:34.000Z</time>
      </trkpt>
      <trkpt lat="45.3243" lon="6.23682">
        <ele>1413.4000244141</ele>
        <time>2014-03-02T07:48:35.000Z</time>
      </trkpt>
      <trkpt lat="45.3243" lon="6.23682">
        <ele>1413.4000244141</ele>
        <time>2014-03-02T07:48:36.000Z</time>
      </trkpt>
      <trkpt lat="45.3243" lon="6.2368">
        <ele>1413.4000244141</ele>
        <time>2014-03-02T07:48:37.000Z</time>
      </trkpt>
      <trkpt lat="45.32431" lon="6.23679">
        <ele>1413.4000244141</ele>
        <time>2014-03-02T07:48:38.000Z</time>
      </trkpt>
      <trkpt lat="45.32431" lon="6.23678">
        <ele>1413.4000244141</ele>
        <time>2014-03-02T07:48:39.000Z</time>
      </trkpt>
      <trkpt lat="45.32432" lon="6.23678">
        <ele>1413.8000488281</ele>
        <time>2014-03-02T07:48:40.000Z</time>
      </trkpt>
      <trkpt lat="45.32433" lon="6.23676">
        <ele>1414.1999511719</ele>
        <time>2014-03-02T07:48:41.000Z</time>
      </trkpt>
      <trkpt lat="45.32434" lon="6.23676">
        <ele>1414.4000244141</ele>
        <time>2014-03-02T07:48:42.000Z</time>
      </trkpt>
      <trkpt lat="45.32434" lon="6.23676">
        <ele>1414.4000244141</ele>
        <time>2014-03-02T07:48:43.000Z</time>
      </trkpt>
      <trkpt lat="45.32434" lon="6.23675">
        <ele>1414.5999755859</ele>
        <time>2014-03-02T07:48:44.000Z</time>
      </trkpt>
      <trkpt lat="45.32434" lon="6.23675">
        <ele>1414.5999755859</ele>
        <time>2014-03-02T07:48:45.000Z</time>
      </trkpt>
      <trkpt lat="45.32435" lon="6.23674">
        <ele>1414.8000488281</ele>
        <time>2014-03-02T07:48:46.000Z</time>
      </trkpt>
      <trkpt lat="45.32435" lon="6.23674">
        <ele>1414.8000488281</ele>
        <time>2014-03-02T07:48:47.000Z</time>
      </trkpt>
      <trkpt lat="45.32435" lon="6.23673">
        <ele>1414.8000488281</ele>
        <time>2014-03-02T07:48:48.000Z</time>
      </trkpt>
      <trkpt lat="45.32435" lon="6.23673">
        <ele>1414.8000488281</ele>
        <time>2014-03-02T07:48:49.000Z</time>
      </trkpt>
      <trkpt lat="45.32436" lon="6.23671">
        <ele>1414.8000488281</ele>
        <time>2014-03-02T07:48:50.000Z</time>
      </trkpt>
      <trkpt lat="45.32436" lon="6.23671">
        <ele>1414.8000488281</ele>
        <time>2014-03-02T07:48:51.000Z</time>
      </trkpt>
      <trkpt lat="45.32436" lon="6.2367">
        <ele>1414.8000488281</ele>
        <time>2014-03-02T07:48:52.000Z</time>
      </trkpt>
      <trkpt lat="45.32436" lon="6.23669">
        <ele>1414.8000488281</ele>
        <time>2014-03-02T07:48:53.000Z</time>
      </trkpt>
      <trkpt lat="45.32437" lon="6.23668">
        <ele>1414.8000488281</ele>
        <time>2014-03-02T07:48:54.000Z</time>
      </trkpt>
      <trkpt lat="45.32437" lon="6.23667">
        <ele>1414.8000488281</ele>
        <time>2014-03-02T07:48:55.000Z</time>
      </trkpt>
      <trkpt lat="45.32437" lon="6.23666">
        <ele>1414.8000488281</ele>
        <time>2014-03-02T07:48:56.000Z</time>
      </trkpt>
      <trkpt lat="45.32438" lon="6.23665">
        <ele>1415</ele>
        <time>2014-03-02T07:48:57.000Z</time>
      </trkpt>
      <trkpt lat="45.32438" lon="6.23664">
        <ele>1415.1999511719</ele>
        <time>2014-03-02T07:48:58.000Z</time>
      </trkpt>
      <trkpt lat="45.32439" lon="6.23663">
        <ele>1415.1999511719</ele>
        <time>2014-03-02T07:48:59.000Z</time>
      </trkpt>
      <trkpt lat="45.32439" lon="6.23662">
        <ele>1415.4000244141</ele>
        <time>2014-03-02T07:49:00.000Z</time>
      </trkpt>
      <trkpt lat="45.32439" lon="6.23662">
        <ele>1415.4000244141</ele>
        <time>2014-03-02T07:49:01.000Z</time>
      </trkpt>
      <trkpt lat="45.32439" lon="6.23661">
        <ele>1415.4000244141</ele>
        <time>2014-03-02T07:49:02.000Z</time>
      </trkpt>
      <trkpt lat="45.32439" lon="6.23661">
        <ele>1415.4000244141</ele>
        <time>2014-03-02T07:49:03.000Z</time>
      </trkpt>
      <trkpt lat="45.3244" lon="6.2366">
        <ele>1415.4000244141</ele>
        <time>2014-03-02T07:49:04.000Z</time>
      </trkpt>
      <trkpt lat="45.3244" lon="6.2366">
        <ele>1415.4000244141</ele>
        <time>2014-03-02T07:49:05.000Z</time>
      </trkpt>
      <trkpt lat="45.3244" lon="6.23659">
        <ele>1415.4000244141</ele>
        <time>2014-03-02T07:49:06.000Z</time>
      </trkpt>
      <trkpt lat="45.32441" lon="6.23658">
        <ele>1415.5999755859</ele>
        <time>2014-03-02T07:49:07.000Z</time>
      </trkpt>
      <trkpt lat="45.32441" lon="6.23656">
        <ele>1415.5999755859</ele>
        <time>2014-03-02T07:49:08.000Z</time>
      </trkpt>
      <trkpt lat="45.32441" lon="6.23656">
        <ele>1415.5999755859</ele>
        <time>2014-03-02T07:49:09.000Z</time>
      </trkpt>
      <trkpt lat="45.32442" lon="6.23656">
        <ele>1415.8000488281</ele>
        <time>2014-03-02T07:49:10.000Z</time>
      </trkpt>
      <trkpt lat="45.32442" lon="6.23656">
        <ele>1415.8000488281</ele>
        <time>2014-03-02T07:49:11.000Z</time>
      </trkpt>
      <trkpt lat="45.32442" lon="6.23655">
        <ele>1415.8000488281</ele>
        <time>2014-03-02T07:49:12.000Z</time>
      </trkpt>
      <trkpt lat="45.32443" lon="6.23654">
        <ele>1415.8000488281</ele>
        <time>2014-03-02T07:49:13.000Z</time>
      </trkpt>
      <trkpt lat="45.32443" lon="6.23652">
        <ele>1415.8000488281</ele>
        <time>2014-03-02T07:49:14.000Z</time>
      </trkpt>
      <trkpt lat="45.32443" lon="6.23651">
        <ele>1415.5999755859</ele>
        <time>2014-03-02T07:49:15.000Z</time>
      </trkpt>
      <trkpt lat="45.32443" lon="6.23649">
        <ele>1415.5999755859</ele>
        <time>2014-03-02T07:49:16.000Z</time>
      </trkpt>
      <trkpt lat="45.32443" lon="6.23648">
        <ele>1415.4000244141</ele>
        <time>2014-03-02T07:49:17.000Z</time>
      </trkpt>
      <trkpt lat="45.32443" lon="6.23646">
        <ele>1415.1999511719</ele>
        <time>2014-03-02T07:49:18.000Z</time>
      </trkpt>
      <trkpt lat="45.32443" lon="6.23645">
        <ele>1415.1999511719</ele>
        <time>2014-03-02T07:49:19.000Z</time>
      </trkpt>
      <trkpt lat="45.32443" lon="6.23644">
        <ele>1415.8000488281</ele>
        <time>2014-03-02T07:49:20.000Z</time>
      </trkpt>
      <trkpt lat="45.32444" lon="6.23643">
        <ele>1416</ele>
        <time>2014-03-02T07:49:21.000Z</time>
      </trkpt>
      <trkpt lat="45.32444" lon="6.23642">
        <ele>1416.4000244141</ele>
        <time>2014-03-02T07:49:22.000Z</time>
      </trkpt>
      <trkpt lat="45.32444" lon="6.23641">
        <ele>1417</ele>
        <time>2014-03-02T07:49:23.000Z</time>
      </trkpt>
      <trkpt lat="45.32444" lon="6.23641">
        <ele>1417</ele>
        <time>2014-03-02T07:49:24.000Z</time>
      </trkpt>
      <trkpt lat="45.32444" lon="6.23641">
        <ele>1417</ele>
        <time>2014-03-02T07:49:25.000Z</time>
      </trkpt>
      <trkpt lat="45.32444" lon="6.23641">
        <ele>1417</ele>
        <time>2014-03-02T07:49:26.000Z</time>
      </trkpt>
      <trkpt lat="45.32444" lon="6.23641">
        <ele>1417</ele>
        <time>2014-03-02T07:49:27.000Z</time>
      </trkpt>
      <trkpt lat="45.32444" lon="6.23641">
        <ele>1417</ele>
        <time>2014-03-02T07:49:28.000Z</time>
      </trkpt>
      <trkpt lat="45.32445" lon="6.23641">
        <ele>1417.5999755859</ele>
        <time>2014-03-02T07:49:29.000Z</time>
      </trkpt>
      <trkpt lat="45.32446" lon="6.2364">
        <ele>1418</ele>
        <time>2014-03-02T07:49:30.000Z</time>
      </trkpt>
      <trkpt lat="45.32447" lon="6.2364">
        <ele>1418.5999755859</ele>
        <time>2014-03-02T07:49:31.000Z</time>
      </trkpt>
      <trkpt lat="45.32448" lon="6.2364">
        <ele>1419</ele>
        <time>2014-03-02T07:49:32.000Z</time>
      </trkpt>
      <trkpt lat="45.32448" lon="6.2364">
        <ele>1419.1999511719</ele>
        <time>2014-03-02T07:49:33.000Z</time>
      </trkpt>
      <trkpt lat="45.32449" lon="6.23641">
        <ele>1419.4000244141</ele>
        <time>2014-03-02T07:49:34.000Z</time>
      </trkpt>
      <trkpt lat="45.32449" lon="6.23641">
        <ele>1419.4000244141</ele>
        <time>2014-03-02T07:49:35.000Z</time>
      </trkpt>
      <trkpt lat="45.32449" lon="6.23641">
        <ele>1419.4000244141</ele>
        <time>2014-03-02T07:49:36.000Z</time>
      </trkpt>
      <trkpt lat="45.3245" lon="6.23642">
        <ele>1419.1999511719</ele>
        <time>2014-03-02T07:49:37.000Z</time>
      </trkpt>
      <trkpt lat="45.3245" lon="6.23643">
        <ele>1419</ele>
        <time>2014-03-02T07:49:38.000Z</time>
      </trkpt>
      <trkpt lat="45.3245" lon="6.23644">
        <ele>1418.8000488281</ele>
        <time>2014-03-02T07:49:39.000Z</time>
      </trkpt>
      <trkpt lat="45.3245" lon="6.23645">
        <ele>1418.5999755859</ele>
        <time>2014-03-02T07:49:40.000Z</time>
      </trkpt>
      <trkpt lat="45.3245" lon="6.23646">
        <ele>1418.4000244141</ele>
        <time>2014-03-02T07:49:41.000Z</time>
      </trkpt>
      <trkpt lat="45.3245" lon="6.23648">
        <ele>1418.5999755859</ele>
        <time>2014-03-02T07:49:42.000Z</time>
      </trkpt>
      <trkpt lat="45.3245" lon="6.23649">
        <ele>1419</ele>
        <time>2014-03-02T07:49:43.000Z</time>
      </trkpt>
      <trkpt lat="45.32451" lon="6.23651">
        <ele>1419.4000244141</ele>
        <time>2014-03-02T07:49:44.000Z</time>
      </trkpt>
      <trkpt lat="45.32451" lon="6.23652">
        <ele>1419.5999755859</ele>
        <time>2014-03-02T07:49:45.000Z</time>
      </trkpt>
      <trkpt lat="45.32451" lon="6.23653">
        <ele>1419.8000488281</ele>
        <time>2014-03-02T07:49:46.000Z</time>
      </trkpt>
      <trkpt lat="45.32451" lon="6.23654">
        <ele>1419.8000488281</ele>
        <time>2014-03-02T07:49:47.000Z</time>
      </trkpt>
      <trkpt lat="45.3245" lon="6.23656">
        <ele>1419.8000488281</ele>
        <time>2014-03-02T07:49:48.000Z</time>
      </trkpt>
      <trkpt lat="45.32451" lon="6.23658">
        <ele>1420.4000244141</ele>
        <time>2014-03-02T07:49:49.000Z</time>
      </trkpt>
      <trkpt lat="45.32451" lon="6.23659">
        <ele>1420.5999755859</ele>
        <time>2014-03-02T07:49:50.000Z</time>
      </trkpt>
      <trkpt lat="45.32451" lon="6.2366">
        <ele>1421</ele>
        <time>2014-03-02T07:49:51.000Z</time>
      </trkpt>
      <trkpt lat="45.32452" lon="6.23661">
        <ele>1421.1999511719</ele>
        <time>2014-03-02T07:49:52.000Z</time>
      </trkpt>
      <trkpt lat="45.32452" lon="6.23662">
        <ele>1421.5999755859</ele>
        <time>2014-03-02T07:49:53.000Z</time>
      </trkpt>
      <trkpt lat="45.32453" lon="6.23663">
        <ele>1422</ele>
        <time>2014-03-02T07:49:54.000Z</time>
      </trkpt>
      <trkpt lat="45.32453" lon="6.23664">
        <ele>1422.4000244141</ele>
        <time>2014-03-02T07:49:55.000Z</time>
      </trkpt>
      <trkpt lat="45.32454" lon="6.23665">
        <ele>1422.5999755859</ele>
        <time>2014-03-02T07:49:56.000Z</time>
      </trkpt>
      <trkpt lat="45.32454" lon="6.23665">
        <ele>1422.8000488281</ele>
        <time>2014-03-02T07:49:57.000Z</time>
      </trkpt>
      <trkpt lat="45.32454" lon="6.23666">
        <ele>1422.8000488281</ele>
        <time>2014-03-02T07:49:58.000Z</time>
      </trkpt>
      <trkpt lat="45.32454" lon="6.23668">
        <ele>1423.4000244141</ele>
        <time>2014-03-02T07:49:59.000Z</time>
      </trkpt>
      <trkpt lat="45.32455" lon="6.23668">
        <ele>1423.5999755859</ele>
        <time>2014-03-02T07:50:00.000Z</time>
      </trkpt>
      <trkpt lat="45.32455" lon="6.23669">
        <ele>1423.5999755859</ele>
        <time>2014-03-02T07:50:01.000Z</time>
      </trkpt>
      <trkpt lat="45.32455" lon="6.2367">
        <ele>1423.8000488281</ele>
        <time>2014-03-02T07:50:02.000Z</time>
      </trkpt>
      <trkpt lat="45.32455" lon="6.23672">
        <ele>1424.1999511719</ele>
        <time>2014-03-02T07:50:03.000Z</time>
      </trkpt>
      <trkpt lat="45.32455" lon="6.23672">
        <ele>1424.4000244141</ele>
        <time>2014-03-02T07:50:04.000Z</time>
      </trkpt>
      <trkpt lat="45.32456" lon="6.23674">
        <ele>1424.8000488281</ele>
        <time>2014-03-02T07:50:05.000Z</time>
      </trkpt>
      <trkpt lat="45.32456" lon="6.23675">
        <ele>1425.1999511719</ele>
        <time>2014-03-02T07:50:06.000Z</time>
      </trkpt>
      <trkpt lat="45.32456" lon="6.23676">
        <ele>1425.1999511719</ele>
        <time>2014-03-02T07:50:07.000Z</time>
      </trkpt>
      <trkpt lat="45.32456" lon="6.23677">
        <ele>1425.1999511719</ele>
        <time>2014-03-02T07:50:08.000Z</time>
      </trkpt>
      <trkpt lat="45.32456" lon="6.23677">
        <ele>1425.4000244141</ele>
        <time>2014-03-02T07:50:09.000Z</time>
      </trkpt>
      <trkpt lat="45.32456" lon="6.23678">
        <ele>1425.4000244141</ele>
        <time>2014-03-02T07:50:10.000Z</time>
      </trkpt>
      <trkpt lat="45.32456" lon="6.23679">
        <ele>1425.5999755859</ele>
        <time>2014-03-02T07:50:11.000Z</time>
      </trkpt>
      <trkpt lat="45.32456" lon="6.2368">
        <ele>1425.5999755859</ele>
        <time>2014-03-02T07:50:12.000Z</time>
      </trkpt>
      <trkpt lat="45.32456" lon="6.23681">
        <ele>1425.8000488281</ele>
        <time>2014-03-02T07:50:13.000Z</time>
      </trkpt>
      <trkpt lat="45.32456" lon="6.23683">
        <ele>1426.1999511719</ele>
        <time>2014-03-02T07:50:14.000Z</time>
      </trkpt>
      <trkpt lat="45.32456" lon="6.23684">
        <ele>1426.4000244141</ele>
        <time>2014-03-02T07:50:15.000Z</time>
      </trkpt>
      <trkpt lat="45.32457" lon="6.23685">
        <ele>1427</ele>
        <time>2014-03-02T07:50:16.000Z</time>
      </trkpt>
      <trkpt lat="45.32457" lon="6.23686">
        <ele>1427.1999511719</ele>
        <time>2014-03-02T07:50:17.000Z</time>
      </trkpt>
      <trkpt lat="45.32458" lon="6.23687">
        <ele>1427.4000244141</ele>
        <time>2014-03-02T07:50:18.000Z</time>
      </trkpt>
      <trkpt lat="45.32458" lon="6.23688">
        <ele>1427.5999755859</ele>
        <time>2014-03-02T07:50:19.000Z</time>
      </trkpt>
      <trkpt lat="45.32458" lon="6.23688">
        <ele>1427.8000488281</ele>
        <time>2014-03-02T07:50:20.000Z</time>
      </trkpt>
      <trkpt lat="45.32458" lon="6.23688">
        <ele>1427.8000488281</ele>
        <time>2014-03-02T07:50:21.000Z</time>
      </trkpt>
      <trkpt lat="45.32459" lon="6.23688">
        <ele>1428.1999511719</ele>
        <time>2014-03-02T07:50:22.000Z</time>
      </trkpt>
      <trkpt lat="45.3246" lon="6.23687">
        <ele>1428.8000488281</ele>
        <time>2014-03-02T07:50:23.000Z</time>
      </trkpt>
      <trkpt lat="45.32461" lon="6.23686">
        <ele>1429.1999511719</ele>
        <time>2014-03-02T07:50:24.000Z</time>
      </trkpt>
      <trkpt lat="45.32462" lon="6.23685">
        <ele>1429.4000244141</ele>
        <time>2014-03-02T07:50:25.000Z</time>
      </trkpt>
      <trkpt lat="45.32463" lon="6.23683">
        <ele>1429.5999755859</ele>
        <time>2014-03-02T07:50:26.000Z</time>
      </trkpt>
      <trkpt lat="45.32464" lon="6.23682">
        <ele>1429.8000488281</ele>
        <time>2014-03-02T07:50:27.000Z</time>
      </trkpt>
      <trkpt lat="45.32465" lon="6.2368">
        <ele>1430.5999755859</ele>
        <time>2014-03-02T07:50:28.000Z</time>
      </trkpt>
      <trkpt lat="45.32466" lon="6.2368">
        <ele>1431.1999511719</ele>
        <time>2014-03-02T07:50:29.000Z</time>
      </trkpt>
      <trkpt lat="45.32467" lon="6.23678">
        <ele>1431.8000488281</ele>
        <time>2014-03-02T07:50:30.000Z</time>
      </trkpt>
      <trkpt lat="45.32467" lon="6.23677">
        <ele>1431.8000488281</ele>
        <time>2014-03-02T07:50:31.000Z</time>
      </trkpt>
      <trkpt lat="45.32467" lon="6.23677">
        <ele>1431.8000488281</ele>
        <time>2014-03-02T07:50:32.000Z</time>
      </trkpt>
      <trkpt lat="45.32467" lon="6.23677">
        <ele>1431.8000488281</ele>
        <time>2014-03-02T07:50:33.000Z</time>
      </trkpt>
      <trkpt lat="45.32467" lon="6.23677">
        <ele>1431.8000488281</ele>
        <time>2014-03-02T07:50:34.000Z</time>
      </trkpt>
      <trkpt lat="45.32467" lon="6.23677">
        <ele>1431.8000488281</ele>
        <time>2014-03-02T07:50:35.000Z</time>
      </trkpt>
      <trkpt lat="45.32467" lon="6.23677">
        <ele>1431.8000488281</ele>
        <time>2014-03-02T07:50:36.000Z</time>
      </trkpt>
      <trkpt lat="45.32467" lon="6.23677">
        <ele>1431.8000488281</ele>
        <time>2014-03-02T07:50:37.000Z</time>
      </trkpt>
      <trkpt lat="45.32467" lon="6.23677">
        <ele>1431.8000488281</ele>
        <time>2014-03-02T07:50:38.000Z</time>
      </trkpt>
      <trkpt lat="45.32467" lon="6.23677">
        <ele>1431.8000488281</ele>
        <time>2014-03-02T07:50:39.000Z</time>
      </trkpt>
      <trkpt lat="45.32467" lon="6.23677">
        <ele>1431.8000488281</ele>
        <time>2014-03-02T07:50:40.000Z</time>
      </trkpt>
      <trkpt lat="45.32467" lon="6.23677">
        <ele>1431.8000488281</ele>
        <time>2014-03-02T07:50:41.000Z</time>
      </trkpt>
      <trkpt lat="45.32467" lon="6.23677">
        <ele>1431.8000488281</ele>
        <time>2014-03-02T07:50:42.000Z</time>
      </trkpt>
      <trkpt lat="45.32467" lon="6.23677">
        <ele>1431.8000488281</ele>
        <time>2014-03-02T07:50:43.000Z</time>
      </trkpt>
      <trkpt lat="45.32467" lon="6.23677">
        <ele>1431.8000488281</ele>
        <time>2014-03-02T07:50:44.000Z</time>
      </trkpt>
      <trkpt lat="45.32467" lon="6.23677">
        <ele>1431.8000488281</ele>
        <time>2014-03-02T07:50:45.000Z</time>
      </trkpt>
      <trkpt lat="45.32467" lon="6.23677">
        <ele>1431.8000488281</ele>
        <time>2014-03-02T07:50:46.000Z</time>
      </trkpt>
      <trkpt lat="45.32468" lon="6.23676">
        <ele>1432.1999511719</ele>
        <time>2014-03-02T07:50:47.000Z</time>
      </trkpt>
      <trkpt lat="45.32468" lon="6.23676">
        <ele>1432.1999511719</ele>
        <time>2014-03-02T07:50:48.000Z</time>
      </trkpt>
      <trkpt lat="45.32468" lon="6.23676">
        <ele>1432.1999511719</ele>
        <time>2014-03-02T07:50:49.000Z</time>
      </trkpt>
      <trkpt lat="45.32468" lon="6.23676">
        <ele>1432.1999511719</ele>
        <time>2014-03-02T07:50:50.000Z</time>
      </trkpt>
      <trkpt lat="45.32468" lon="6.23676">
        <ele>1432.1999511719</ele>
        <time>2014-03-02T07:50:51.000Z</time>
      </trkpt>
      <trkpt lat="45.32469" lon="6.23674">
        <ele>1432.8000488281</ele>
        <time>2014-03-02T07:50:52.000Z</time>
      </trkpt>
      <trkpt lat="45.32469" lon="6.23674">
        <ele>1432.8000488281</ele>
        <time>2014-03-02T07:50:53.000Z</time>
      </trkpt>
      <trkpt lat="45.3247" lon="6.23673">
        <ele>1433.5999755859</ele>
        <time>2014-03-02T07:50:54.000Z</time>
      </trkpt>
      <trkpt lat="45.32471" lon="6.23672">
        <ele>1434</ele>
        <time>2014-03-02T07:50:55.000Z</time>
      </trkpt>
      <trkpt lat="45.32471" lon="6.23672">
        <ele>1434.4000244141</ele>
        <time>2014-03-02T07:50:56.000Z</time>
      </trkpt>
      <trkpt lat="45.32473" lon="6.2367">
        <ele>1435.4000244141</ele>
        <time>2014-03-02T07:50:57.000Z</time>
      </trkpt>
      <trkpt lat="45.32474" lon="6.23669">
        <ele>1436</ele>
        <time>2014-03-02T07:50:58.000Z</time>
      </trkpt>
      <trkpt lat="45.32475" lon="6.23668">
        <ele>1437</ele>
        <time>2014-03-02T07:50:59.000Z</time>
      </trkpt>
      <trkpt lat="45.32476" lon="6.23667">
        <ele>1437.8000488281</ele>
        <time>2014-03-02T07:51:00.000Z</time>
      </trkpt>
      <trkpt lat="45.32477" lon="6.23666">
        <ele>1438.5999755859</ele>
        <time>2014-03-02T07:51:01.000Z</time>
      </trkpt>
      <trkpt lat="45.32478" lon="6.23665">
        <ele>1439.1999511719</ele>
        <time>2014-03-02T07:51:02.000Z</time>
      </trkpt>
      <trkpt lat="45.32479" lon="6.23664">
        <ele>1439.8000488281</ele>
        <time>2014-03-02T07:51:03.000Z</time>
      </trkpt>
      <trkpt lat="45.32479" lon="6.23664">
        <ele>1439.8000488281</ele>
        <time>2014-03-02T07:51:04.000Z</time>
      </trkpt>
      <trkpt lat="45.3248" lon="6.23664">
        <ele>1440.5999755859</ele>
        <time>2014-03-02T07:51:05.000Z</time>
      </trkpt>
      <trkpt lat="45.3248" lon="6.23664">
        <ele>1440.5999755859</ele>
        <time>2014-03-02T07:51:06.000Z</time>
      </trkpt>
      <trkpt lat="45.32481" lon="6.23663">
        <ele>1441</ele>
        <time>2014-03-02T07:51:07.000Z</time>
      </trkpt>
      <trkpt lat="45.32481" lon="6.23662">
        <ele>1441</ele>
        <time>2014-03-02T07:51:08.000Z</time>
      </trkpt>
      <trkpt lat="45.32482" lon="6.23661">
        <ele>1441.1999511719</ele>
        <time>2014-03-02T07:51:09.000Z</time>
      </trkpt>
      <trkpt lat="45.32483" lon="6.2366">
        <ele>1441.4000244141</ele>
        <time>2014-03-02T07:51:10.000Z</time>
      </trkpt>
      <trkpt lat="45.32483" lon="6.23659">
        <ele>1441.8000488281</ele>
        <time>2014-03-02T07:51:11.000Z</time>
      </trkpt>
      <trkpt lat="45.32483" lon="6.23659">
        <ele>1441.8000488281</ele>
        <time>2014-03-02T07:51:12.000Z</time>
      </trkpt>
      <trkpt lat="45.32484" lon="6.23658">
        <ele>1441.8000488281</ele>
        <time>2014-03-02T07:51:13.000Z</time>
      </trkpt>
      <trkpt lat="45.32484" lon="6.23658">
        <ele>1441.8000488281</ele>
        <time>2014-03-02T07:51:14.000Z</time>
      </trkpt>
      <trkpt lat="45.32484" lon="6.23657">
        <ele>1441.8000488281</ele>
        <time>2014-03-02T07:51:15.000Z</time>
      </trkpt>
      <trkpt lat="45.32485" lon="6.23656">
        <ele>1441.8000488281</ele>
        <time>2014-03-02T07:51:16.000Z</time>
      </trkpt>
      <trkpt lat="45.32485" lon="6.23656">
        <ele>1441.8000488281</ele>
        <time>2014-03-02T07:51:17.000Z</time>
      </trkpt>
      <trkpt lat="45.32485" lon="6.23655">
        <ele>1442.1999511719</ele>
        <time>2014-03-02T07:51:18.000Z</time>
      </trkpt>
      <trkpt lat="45.32486" lon="6.23654">
        <ele>1442.4000244141</ele>
        <time>2014-03-02T07:51:19.000Z</time>
      </trkpt>
      <trkpt lat="45.32486" lon="6.23654">
        <ele>1442.4000244141</ele>
        <time>2014-03-02T07:51:20.000Z</time>
      </trkpt>
      <trkpt lat="45.32487" lon="6.23653">
        <ele>1442.8000488281</ele>
        <time>2014-03-02T07:51:21.000Z</time>
      </trkpt>
      <trkpt lat="45.32488" lon="6.23652">
        <ele>1443</ele>
        <time>2014-03-02T07:51:22.000Z</time>
      </trkpt>
      <trkpt lat="45.32488" lon="6.23652">
        <ele>1443.1999511719</ele>
        <time>2014-03-02T07:51:23.000Z</time>
      </trkpt>
      <trkpt lat="45.32489" lon="6.2365">
        <ele>1443.1999511719</ele>
        <time>2014-03-02T07:51:24.000Z</time>
      </trkpt>
      <trkpt lat="45.32489" lon="6.23649">
        <ele>1443.1999511719</ele>
        <time>2014-03-02T07:51:25.000Z</time>
      </trkpt>
      <trkpt lat="45.3249" lon="6.23648">
        <ele>1443.1999511719</ele>
        <time>2014-03-02T07:51:26.000Z</time>
      </trkpt>
      <trkpt lat="45.3249" lon="6.23647">
        <ele>1443.1999511719</ele>
        <time>2014-03-02T07:51:27.000Z</time>
      </trkpt>
      <trkpt lat="45.3249" lon="6.23646">
        <ele>1443.1999511719</ele>
        <time>2014-03-02T07:51:28.000Z</time>
      </trkpt>
      <trkpt lat="45.32491" lon="6.23645">
        <ele>1443.4000244141</ele>
        <time>2014-03-02T07:51:29.000Z</time>
      </trkpt>
      <trkpt lat="45.32491" lon="6.23644">
        <ele>1443.5999755859</ele>
        <time>2014-03-02T07:51:30.000Z</time>
      </trkpt>
      <trkpt lat="45.32491" lon="6.23644">
        <ele>1443.5999755859</ele>
        <time>2014-03-02T07:51:31.000Z</time>
      </trkpt>
      <trkpt lat="45.32491" lon="6.23643">
        <ele>1443.8000488281</ele>
        <time>2014-03-02T07:51:32.000Z</time>
      </trkpt>
      <trkpt lat="45.32492" lon="6.23643">
        <ele>1444.1999511719</ele>
        <time>2014-03-02T07:51:33.000Z</time>
      </trkpt>
      <trkpt lat="45.32492" lon="6.23642">
        <ele>1444.1999511719</ele>
        <time>2014-03-02T07:51:34.000Z</time>
      </trkpt>
      <trkpt lat="45.32492" lon="6.23641">
        <ele>1444.4000244141</ele>
        <time>2014-03-02T07:51:35.000Z</time>
      </trkpt>
      <trkpt lat="45.32492" lon="6.2364">
        <ele>1444.5999755859</ele>
        <time>2014-03-02T07:51:36.000Z</time>
      </trkpt>
      <trkpt lat="45.32492" lon="6.23639">
        <ele>1444.5999755859</ele>
        <time>2014-03-02T07:51:37.000Z</time>
      </trkpt>
      <trkpt lat="45.32493" lon="6.23638">
        <ele>1445</ele>
        <time>2014-03-02T07:51:38.000Z</time>
      </trkpt>
      <trkpt lat="45.32493" lon="6.23637">
        <ele>1445</ele>
        <time>2014-03-02T07:51:39.000Z</time>
      </trkpt>
      <trkpt lat="45.32493" lon="6.23636">
        <ele>1445.1999511719</ele>
        <time>2014-03-02T07:51:40.000Z</time>
      </trkpt>
      <trkpt lat="45.32493" lon="6.23635">
        <ele>1445.5999755859</ele>
        <time>2014-03-02T07:51:41.000Z</time>
      </trkpt>
      <trkpt lat="45.32494" lon="6.23635">
        <ele>1446</ele>
        <time>2014-03-02T07:51:42.000Z</time>
      </trkpt>
      <trkpt lat="45.32494" lon="6.23635">
        <ele>1446</ele>
        <time>2014-03-02T07:51:43.000Z</time>
      </trkpt>
      <trkpt lat="45.32494" lon="6.23635">
        <ele>1446</ele>
        <time>2014-03-02T07:51:44.000Z</time>
      </trkpt>
      <trkpt lat="45.32494" lon="6.23635">
        <ele>1446</ele>
        <time>2014-03-02T07:51:45.000Z</time>
      </trkpt>
      <trkpt lat="45.32494" lon="6.23634">
        <ele>1446</ele>
        <time>2014-03-02T07:51:46.000Z</time>
      </trkpt>
      <trkpt lat="45.32494" lon="6.23633">
        <ele>1446</ele>
        <time>2014-03-02T07:51:48.000Z</time>
      </trkpt>
      <trkpt lat="45.32494" lon="6.23631">
        <ele>1446.4000244141</ele>
        <time>2014-03-02T07:51:49.000Z</time>
      </trkpt>
      <trkpt lat="45.32495" lon="6.2363">
        <ele>1446.5999755859</ele>
        <time>2014-03-02T07:51:50.000Z</time>
      </trkpt>
      <trkpt lat="45.32495" lon="6.23628">
        <ele>1447.1999511719</ele>
        <time>2014-03-02T07:51:51.000Z</time>
      </trkpt>
      <trkpt lat="45.32496" lon="6.23628">
        <ele>1447.4000244141</ele>
        <time>2014-03-02T07:51:52.000Z</time>
      </trkpt>
      <trkpt lat="45.32496" lon="6.23626">
        <ele>1447.5999755859</ele>
        <time>2014-03-02T07:51:53.000Z</time>
      </trkpt>
      <trkpt lat="45.32496" lon="6.23625">
        <ele>1447.8000488281</ele>
        <time>2014-03-02T07:51:54.000Z</time>
      </trkpt>
      <trkpt lat="45.32496" lon="6.23622">
        <ele>1447.8000488281</ele>
        <time>2014-03-02T07:51:55.000Z</time>
      </trkpt>
      <trkpt lat="45.32496" lon="6.23621">
        <ele>1447.8000488281</ele>
        <time>2014-03-02T07:51:56.000Z</time>
      </trkpt>
      <trkpt lat="45.32496" lon="6.23618">
        <ele>1447.5999755859</ele>
        <time>2014-03-02T07:51:57.000Z</time>
      </trkpt>
      <trkpt lat="45.32495" lon="6.23616">
        <ele>1447.5999755859</ele>
        <time>2014-03-02T07:51:58.000Z</time>
      </trkpt>
      <trkpt lat="45.32495" lon="6.23615">
        <ele>1447.4000244141</ele>
        <time>2014-03-02T07:51:59.000Z</time>
      </trkpt>
      <trkpt lat="45.32495" lon="6.23614">
        <ele>1447.4000244141</ele>
        <time>2014-03-02T07:52:00.000Z</time>
      </trkpt>
      <trkpt lat="45.32495" lon="6.23612">
        <ele>1447.5999755859</ele>
        <time>2014-03-02T07:52:01.000Z</time>
      </trkpt>
      <trkpt lat="45.32495" lon="6.23611">
        <ele>1447.8000488281</ele>
        <time>2014-03-02T07:52:02.000Z</time>
      </trkpt>
      <trkpt lat="45.32496" lon="6.2361">
        <ele>1448.4000244141</ele>
        <time>2014-03-02T07:52:03.000Z</time>
      </trkpt>
      <trkpt lat="45.32497" lon="6.23608">
        <ele>1449</ele>
        <time>2014-03-02T07:52:04.000Z</time>
      </trkpt>
      <trkpt lat="45.32497" lon="6.23607">
        <ele>1449</ele>
        <time>2014-03-02T07:52:05.000Z</time>
      </trkpt>
      <trkpt lat="45.32497" lon="6.23606">
        <ele>1449.4000244141</ele>
        <time>2014-03-02T07:52:06.000Z</time>
      </trkpt>
      <trkpt lat="45.32498" lon="6.23606">
        <ele>1449.5999755859</ele>
        <time>2014-03-02T07:52:07.000Z</time>
      </trkpt>
      <trkpt lat="45.32498" lon="6.23606">
        <ele>1449.5999755859</ele>
        <time>2014-03-02T07:52:08.000Z</time>
      </trkpt>
      <trkpt lat="45.32498" lon="6.23605">
        <ele>1450</ele>
        <time>2014-03-02T07:52:09.000Z</time>
      </trkpt>
      <trkpt lat="45.32498" lon="6.23604">
        <ele>1450.1999511719</ele>
        <time>2014-03-02T07:52:10.000Z</time>
      </trkpt>
      <trkpt lat="45.32499" lon="6.23604">
        <ele>1450.5999755859</ele>
        <time>2014-03-02T07:52:11.000Z</time>
      </trkpt>
      <trkpt lat="45.325" lon="6.23603">
        <ele>1451</ele>
        <time>2014-03-02T07:52:12.000Z</time>
      </trkpt>
      <trkpt lat="45.325" lon="6.23602">
        <ele>1451.1999511719</ele>
        <time>2014-03-02T07:52:13.000Z</time>
      </trkpt>
      <trkpt lat="45.325" lon="6.23601">
        <ele>1451.5999755859</ele>
        <time>2014-03-02T07:52:14.000Z</time>
      </trkpt>
      <trkpt lat="45.32501" lon="6.236">
        <ele>1451.8000488281</ele>
        <time>2014-03-02T07:52:15.000Z</time>
      </trkpt>
      <trkpt lat="45.32501" lon="6.23599">
        <ele>1452</ele>
        <time>2014-03-02T07:52:16.000Z</time>
      </trkpt>
      <trkpt lat="45.32501" lon="6.23598">
        <ele>1451.8000488281</ele>
        <time>2014-03-02T07:52:17.000Z</time>
      </trkpt>
      <trkpt lat="45.32501" lon="6.23597">
        <ele>1451.8000488281</ele>
        <time>2014-03-02T07:52:18.000Z</time>
      </trkpt>
      <trkpt lat="45.32501" lon="6.23597">
        <ele>1452</ele>
        <time>2014-03-02T07:52:19.000Z</time>
      </trkpt>
      <trkpt lat="45.32502" lon="6.23596">
        <ele>1452.1999511719</ele>
        <time>2014-03-02T07:52:20.000Z</time>
      </trkpt>
      <trkpt lat="45.32502" lon="6.23596">
        <ele>1452.1999511719</ele>
        <time>2014-03-02T07:52:21.000Z</time>
      </trkpt>
      <trkpt lat="45.32502" lon="6.23594">
        <ele>1452.1999511719</ele>
        <time>2014-03-02T07:52:22.000Z</time>
      </trkpt>
      <trkpt lat="45.32502" lon="6.23593">
        <ele>1452.1999511719</ele>
        <time>2014-03-02T07:52:23.000Z</time>
      </trkpt>
      <trkpt lat="45.32503" lon="6.23592">
        <ele>1452.5999755859</ele>
        <time>2014-03-02T07:52:24.000Z</time>
      </trkpt>
      <trkpt lat="45.32503" lon="6.23591">
        <ele>1452.5999755859</ele>
        <time>2014-03-02T07:52:25.000Z</time>
      </trkpt>
      <trkpt lat="45.32503" lon="6.2359">
        <ele>1452.5999755859</ele>
        <time>2014-03-02T07:52:26.000Z</time>
      </trkpt>
      <trkpt lat="45.32503" lon="6.23589">
        <ele>1452.5999755859</ele>
        <time>2014-03-02T07:52:27.000Z</time>
      </trkpt>
      <trkpt lat="45.32503" lon="6.23588">
        <ele>1452.5999755859</ele>
        <time>2014-03-02T07:52:28.000Z</time>
      </trkpt>
      <trkpt lat="45.32504" lon="6.23587">
        <ele>1452.5999755859</ele>
        <time>2014-03-02T07:52:29.000Z</time>
      </trkpt>
      <trkpt lat="45.32503" lon="6.23587">
        <ele>1452.5999755859</ele>
        <time>2014-03-02T07:52:30.000Z</time>
      </trkpt>
      <trkpt lat="45.32504" lon="6.23585">
        <ele>1452.5999755859</ele>
        <time>2014-03-02T07:52:31.000Z</time>
      </trkpt>
      <trkpt lat="45.32504" lon="6.23585">
        <ele>1452.8000488281</ele>
        <time>2014-03-02T07:52:32.000Z</time>
      </trkpt>
      <trkpt lat="45.32505" lon="6.23585">
        <ele>1453.1999511719</ele>
        <time>2014-03-02T07:52:33.000Z</time>
      </trkpt>
      <trkpt lat="45.32506" lon="6.23585">
        <ele>1453.5999755859</ele>
        <time>2014-03-02T07:52:34.000Z</time>
      </trkpt>
      <trkpt lat="45.32506" lon="6.23585">
        <ele>1454</ele>
        <time>2014-03-02T07:52:35.000Z</time>
      </trkpt>
      <trkpt lat="45.32507" lon="6.23585">
        <ele>1454.4000244141</ele>
        <time>2014-03-02T07:52:36.000Z</time>
      </trkpt>
      <trkpt lat="45.32508" lon="6.23585">
        <ele>1454.8000488281</ele>
        <time>2014-03-02T07:52:37.000Z</time>
      </trkpt>
      <trkpt lat="45.32508" lon="6.23585">
        <ele>1454.8000488281</ele>
        <time>2014-03-02T07:52:38.000Z</time>
      </trkpt>
      <trkpt lat="45.32508" lon="6.23584">
        <ele>1454.8000488281</ele>
        <time>2014-03-02T07:52:39.000Z</time>
      </trkpt>
      <trkpt lat="45.32508" lon="6.23584">
        <ele>1454.8000488281</ele>
        <time>2014-03-02T07:52:40.000Z</time>
      </trkpt>
      <trkpt lat="45.32508" lon="6.23584">
        <ele>1454.8000488281</ele>
        <time>2014-03-02T07:52:41.000Z</time>
      </trkpt>
      <trkpt lat="45.32508" lon="6.23584">
        <ele>1454.8000488281</ele>
        <time>2014-03-02T07:52:42.000Z</time>
      </trkpt>
      <trkpt lat="45.32508" lon="6.23583">
        <ele>1455</ele>
        <time>2014-03-02T07:52:43.000Z</time>
      </trkpt>
      <trkpt lat="45.32508" lon="6.23583">
        <ele>1455</ele>
        <time>2014-03-02T07:52:44.000Z</time>
      </trkpt>
      <trkpt lat="45.32509" lon="6.23582">
        <ele>1455.1999511719</ele>
        <time>2014-03-02T07:52:45.000Z</time>
      </trkpt>
      <trkpt lat="45.32509" lon="6.23582">
        <ele>1455.1999511719</ele>
        <time>2014-03-02T07:52:46.000Z</time>
      </trkpt>
      <trkpt lat="45.32509" lon="6.23582">
        <ele>1455.4000244141</ele>
        <time>2014-03-02T07:52:47.000Z</time>
      </trkpt>
      <trkpt lat="45.32509" lon="6.23581">
        <ele>1455.4000244141</ele>
        <time>2014-03-02T07:52:48.000Z</time>
      </trkpt>
      <trkpt lat="45.32509" lon="6.23581">
        <ele>1455.4000244141</ele>
        <time>2014-03-02T07:52:49.000Z</time>
      </trkpt>
      <trkpt lat="45.3251" lon="6.23578">
        <ele>1455.5999755859</ele>
        <time>2014-03-02T07:52:50.000Z</time>
      </trkpt>
      <trkpt lat="45.3251" lon="6.23578">
        <ele>1455.5999755859</ele>
        <time>2014-03-02T07:52:51.000Z</time>
      </trkpt>
      <trkpt lat="45.3251" lon="6.23577">
        <ele>1455.5999755859</ele>
        <time>2014-03-02T07:52:52.000Z</time>
      </trkpt>
      <trkpt lat="45.32511" lon="6.23576">
        <ele>1456</ele>
        <time>2014-03-02T07:52:53.000Z</time>
      </trkpt>
      <trkpt lat="45.32511" lon="6.23575">
        <ele>1456.1999511719</ele>
        <time>2014-03-02T07:52:54.000Z</time>
      </trkpt>
      <trkpt lat="45.32511" lon="6.23574">
        <ele>1456.1999511719</ele>
        <time>2014-03-02T07:52:55.000Z</time>
      </trkpt>
      <trkpt lat="45.32511" lon="6.23574">
        <ele>1456.1999511719</ele>
        <time>2014-03-02T07:52:56.000Z</time>
      </trkpt>
      <trkpt lat="45.32512" lon="6.23573">
        <ele>1456.4000244141</ele>
        <time>2014-03-02T07:52:57.000Z</time>
      </trkpt>
      <trkpt lat="45.32512" lon="6.23572">
        <ele>1456.4000244141</ele>
        <time>2014-03-02T07:52:58.000Z</time>
      </trkpt>
      <trkpt lat="45.32512" lon="6.23572">
        <ele>1456.4000244141</ele>
        <time>2014-03-02T07:52:59.000Z</time>
      </trkpt>
      <trkpt lat="45.32512" lon="6.23572">
        <ele>1456.4000244141</ele>
        <time>2014-03-02T07:53:00.000Z</time>
      </trkpt>
      <trkpt lat="45.32512" lon="6.23572">
        <ele>1456.4000244141</ele>
        <time>2014-03-02T07:53:01.000Z</time>
      </trkpt>
      <trkpt lat="45.32512" lon="6.23571">
        <ele>1456.5999755859</ele>
        <time>2014-03-02T07:53:02.000Z</time>
      </trkpt>
      <trkpt lat="45.32512" lon="6.23571">
        <ele>1456.5999755859</ele>
        <time>2014-03-02T07:53:03.000Z</time>
      </trkpt>
      <trkpt lat="45.32513" lon="6.2357">
        <ele>1456.8000488281</ele>
        <time>2014-03-02T07:53:04.000Z</time>
      </trkpt>
      <trkpt lat="45.32513" lon="6.2357">
        <ele>1456.8000488281</ele>
        <time>2014-03-02T07:53:05.000Z</time>
      </trkpt>
      <trkpt lat="45.32513" lon="6.23569">
        <ele>1457</ele>
        <time>2014-03-02T07:53:06.000Z</time>
      </trkpt>
      <trkpt lat="45.32513" lon="6.23569">
        <ele>1457</ele>
        <time>2014-03-02T07:53:07.000Z</time>
      </trkpt>
      <trkpt lat="45.32514" lon="6.23568">
        <ele>1457.1999511719</ele>
        <time>2014-03-02T07:53:08.000Z</time>
      </trkpt>
      <trkpt lat="45.32514" lon="6.23568">
        <ele>1457.4000244141</ele>
        <time>2014-03-02T07:53:09.000Z</time>
      </trkpt>
      <trkpt lat="45.32515" lon="6.23567">
        <ele>1457.5999755859</ele>
        <time>2014-03-02T07:53:10.000Z</time>
      </trkpt>
      <trkpt lat="45.32515" lon="6.23565">
        <ele>1458</ele>
        <time>2014-03-02T07:53:11.000Z</time>
      </trkpt>
      <trkpt lat="45.32516" lon="6.23564">
        <ele>1458</ele>
        <time>2014-03-02T07:53:12.000Z</time>
      </trkpt>
      <trkpt lat="45.32516" lon="6.23564">
        <ele>1458</ele>
        <time>2014-03-02T07:53:13.000Z</time>
      </trkpt>
      <trkpt lat="45.32516" lon="6.23563">
        <ele>1457.8000488281</ele>
        <time>2014-03-02T07:53:14.000Z</time>
      </trkpt>
      <trkpt lat="45.32516" lon="6.23562">
        <ele>1458</ele>
        <time>2014-03-02T07:53:15.000Z</time>
      </trkpt>
      <trkpt lat="45.32516" lon="6.23562">
        <ele>1458.1999511719</ele>
        <time>2014-03-02T07:53:16.000Z</time>
      </trkpt>
      <trkpt lat="45.32516" lon="6.23561">
        <ele>1458.4000244141</ele>
        <time>2014-03-02T07:53:17.000Z</time>
      </trkpt>
      <trkpt lat="45.32517" lon="6.2356">
        <ele>1458.5999755859</ele>
        <time>2014-03-02T07:53:18.000Z</time>
      </trkpt>
      <trkpt lat="45.32517" lon="6.23558">
        <ele>1459.1999511719</ele>
        <time>2014-03-02T07:53:19.000Z</time>
      </trkpt>
      <trkpt lat="45.32517" lon="6.23557">
        <ele>1459.4000244141</ele>
        <time>2014-03-02T07:53:20.000Z</time>
      </trkpt>
      <trkpt lat="45.32518" lon="6.23556">
        <ele>1459.8000488281</ele>
        <time>2014-03-02T07:53:21.000Z</time>
      </trkpt>
      <trkpt lat="45.32518" lon="6.23555">
        <ele>1459.8000488281</ele>
        <time>2014-03-02T07:53:22.000Z</time>
      </trkpt>
      <trkpt lat="45.32518" lon="6.23554">
        <ele>1460.1999511719</ele>
        <time>2014-03-02T07:53:23.000Z</time>
      </trkpt>
      <trkpt lat="45.32518" lon="6.23553">
        <ele>1460.4000244141</ele>
        <time>2014-03-02T07:53:24.000Z</time>
      </trkpt>
      <trkpt lat="45.32519" lon="6.23552">
        <ele>1460.8000488281</ele>
        <time>2014-03-02T07:53:25.000Z</time>
      </trkpt>
      <trkpt lat="45.32519" lon="6.23551">
        <ele>1461.1999511719</ele>
        <time>2014-03-02T07:53:26.000Z</time>
      </trkpt>
      <trkpt lat="45.32519" lon="6.2355">
        <ele>1461.5999755859</ele>
        <time>2014-03-02T07:53:27.000Z</time>
      </trkpt>
      <trkpt lat="45.3252" lon="6.23549">
        <ele>1462</ele>
        <time>2014-03-02T07:53:28.000Z</time>
      </trkpt>
      <trkpt lat="45.3252" lon="6.23548">
        <ele>1462.1999511719</ele>
        <time>2014-03-02T07:53:29.000Z</time>
      </trkpt>
      <trkpt lat="45.3252" lon="6.23548">
        <ele>1462.1999511719</ele>
        <time>2014-03-02T07:53:30.000Z</time>
      </trkpt>
      <trkpt lat="45.3252" lon="6.23547">
        <ele>1462.4000244141</ele>
        <time>2014-03-02T07:53:31.000Z</time>
      </trkpt>
      <trkpt lat="45.32521" lon="6.23546">
        <ele>1462.5999755859</ele>
        <time>2014-03-02T07:53:32.000Z</time>
      </trkpt>
      <trkpt lat="45.32521" lon="6.23546">
        <ele>1463</ele>
        <time>2014-03-02T07:53:33.000Z</time>
      </trkpt>
      <trkpt lat="45.32521" lon="6.23545">
        <ele>1463.1999511719</ele>
        <time>2014-03-02T07:53:34.000Z</time>
      </trkpt>
      <trkpt lat="45.32521" lon="6.23544">
        <ele>1463.4000244141</ele>
        <time>2014-03-02T07:53:35.000Z</time>
      </trkpt>
      <trkpt lat="45.32522" lon="6.23544">
        <ele>1463.5999755859</ele>
        <time>2014-03-02T07:53:36.000Z</time>
      </trkpt>
      <trkpt lat="45.32522" lon="6.23544">
        <ele>1464</ele>
        <time>2014-03-02T07:53:37.000Z</time>
      </trkpt>
      <trkpt lat="45.32523" lon="6.23543">
        <ele>1464</ele>
        <time>2014-03-02T07:53:38.000Z</time>
      </trkpt>
      <trkpt lat="45.32523" lon="6.23543">
        <ele>1464</ele>
        <time>2014-03-02T07:53:39.000Z</time>
      </trkpt>
      <trkpt lat="45.32523" lon="6.23543">
        <ele>1464</ele>
        <time>2014-03-02T07:53:40.000Z</time>
      </trkpt>
      <trkpt lat="45.32523" lon="6.23543">
        <ele>1464.1999511719</ele>
        <time>2014-03-02T07:53:41.000Z</time>
      </trkpt>
      <trkpt lat="45.32523" lon="6.23543">
        <ele>1464.1999511719</ele>
        <time>2014-03-02T07:53:42.000Z</time>
      </trkpt>
      <trkpt lat="45.32523" lon="6.23542">
        <ele>1464.4000244141</ele>
        <time>2014-03-02T07:53:43.000Z</time>
      </trkpt>
      <trkpt lat="45.32523" lon="6.23542">
        <ele>1464.4000244141</ele>
        <time>2014-03-02T07:53:44.000Z</time>
      </trkpt>
      <trkpt lat="45.32523" lon="6.23542">
        <ele>1464.4000244141</ele>
        <time>2014-03-02T07:53:45.000Z</time>
      </trkpt>
      <trkpt lat="45.32523" lon="6.23542">
        <ele>1464.4000244141</ele>
        <time>2014-03-02T07:53:46.000Z</time>
      </trkpt>
      <trkpt lat="45.32523" lon="6.2354">
        <ele>1464.8000488281</ele>
        <time>2014-03-02T07:53:47.000Z</time>
      </trkpt>
      <trkpt lat="45.32524" lon="6.23539">
        <ele>1465.1999511719</ele>
        <time>2014-03-02T07:53:48.000Z</time>
      </trkpt>
      <trkpt lat="45.32524" lon="6.23538">
        <ele>1465.4000244141</ele>
        <time>2014-03-02T07:53:49.000Z</time>
      </trkpt>
      <trkpt lat="45.32525" lon="6.23537">
        <ele>1465.8000488281</ele>
        <time>2014-03-02T07:53:50.000Z</time>
      </trkpt>
      <trkpt lat="45.32525" lon="6.23537">
        <ele>1466.1999511719</ele>
        <time>2014-03-02T07:53:51.000Z</time>
      </trkpt>
      <trkpt lat="45.32525" lon="6.23537">
        <ele>1466.1999511719</ele>
        <time>2014-03-02T07:53:52.000Z</time>
      </trkpt>
      <trkpt lat="45.32525" lon="6.23536">
        <ele>1466.4000244141</ele>
        <time>2014-03-02T07:53:53.000Z</time>
      </trkpt>
      <trkpt lat="45.32526" lon="6.23535">
        <ele>1466.5999755859</ele>
        <time>2014-03-02T07:53:54.000Z</time>
      </trkpt>
      <trkpt lat="45.32526" lon="6.23534">
        <ele>1466.8000488281</ele>
        <time>2014-03-02T07:53:55.000Z</time>
      </trkpt>
      <trkpt lat="45.32526" lon="6.23533">
        <ele>1466.8000488281</ele>
        <time>2014-03-02T07:53:56.000Z</time>
      </trkpt>
      <trkpt lat="45.32526" lon="6.23532">
        <ele>1467</ele>
        <time>2014-03-02T07:53:57.000Z</time>
      </trkpt>
      <trkpt lat="45.32526" lon="6.23532">
        <ele>1466.8000488281</ele>
        <time>2014-03-02T07:53:58.000Z</time>
      </trkpt>
      <trkpt lat="45.32526" lon="6.23531">
        <ele>1466.5999755859</ele>
        <time>2014-03-02T07:53:59.000Z</time>
      </trkpt>
      <trkpt lat="45.32525" lon="6.23531">
        <ele>1466.5999755859</ele>
        <time>2014-03-02T07:54:00.000Z</time>
      </trkpt>
      <trkpt lat="45.32525" lon="6.23531">
        <ele>1466.5999755859</ele>
        <time>2014-03-02T07:54:01.000Z</time>
      </trkpt>
      <trkpt lat="45.32525" lon="6.23529">
        <ele>1466.5999755859</ele>
        <time>2014-03-02T07:54:02.000Z</time>
      </trkpt>
      <trkpt lat="45.32525" lon="6.23528">
        <ele>1466.5999755859</ele>
        <time>2014-03-02T07:54:03.000Z</time>
      </trkpt>
      <trkpt lat="45.32525" lon="6.23528">
        <ele>1466.5999755859</ele>
        <time>2014-03-02T07:54:04.000Z</time>
      </trkpt>
      <trkpt lat="45.32525" lon="6.23528">
        <ele>1466.5999755859</ele>
        <time>2014-03-02T07:54:05.000Z</time>
      </trkpt>
      <trkpt lat="45.32525" lon="6.23528">
        <ele>1466.5999755859</ele>
        <time>2014-03-02T07:54:06.000Z</time>
      </trkpt>
      <trkpt lat="45.32525" lon="6.23528">
        <ele>1466.5999755859</ele>
        <time>2014-03-02T07:54:07.000Z</time>
      </trkpt>
      <trkpt lat="45.32526" lon="6.23527">
        <ele>1467</ele>
        <time>2014-03-02T07:54:08.000Z</time>
      </trkpt>
      <trkpt lat="45.32526" lon="6.23526">
        <ele>1467.1999511719</ele>
        <time>2014-03-02T07:54:09.000Z</time>
      </trkpt>
      <trkpt lat="45.32526" lon="6.23526">
        <ele>1467.1999511719</ele>
        <time>2014-03-02T07:54:10.000Z</time>
      </trkpt>
      <trkpt lat="45.32526" lon="6.23526">
        <ele>1467.1999511719</ele>
        <time>2014-03-02T07:54:11.000Z</time>
      </trkpt>
      <trkpt lat="45.32526" lon="6.23526">
        <ele>1467.1999511719</ele>
        <time>2014-03-02T07:54:12.000Z</time>
      </trkpt>
      <trkpt lat="45.32526" lon="6.23524">
        <ele>1467.4000244141</ele>
        <time>2014-03-02T07:54:13.000Z</time>
      </trkpt>
      <trkpt lat="45.32527" lon="6.23523">
        <ele>1467.5999755859</ele>
        <time>2014-03-02T07:54:14.000Z</time>
      </trkpt>
      <trkpt lat="45.32528" lon="6.23522">
        <ele>1468</ele>
        <time>2014-03-02T07:54:15.000Z</time>
      </trkpt>
      <trkpt lat="45.32528" lon="6.23521">
        <ele>1468.4000244141</ele>
        <time>2014-03-02T07:54:16.000Z</time>
      </trkpt>
      <trkpt lat="45.32528" lon="6.2352">
        <ele>1468.4000244141</ele>
        <time>2014-03-02T07:54:17.000Z</time>
      </trkpt>
      <trkpt lat="45.32528" lon="6.23519">
        <ele>1468.4000244141</ele>
        <time>2014-03-02T07:54:18.000Z</time>
      </trkpt>
      <trkpt lat="45.32528" lon="6.23518">
        <ele>1468.4000244141</ele>
        <time>2014-03-02T07:54:19.000Z</time>
      </trkpt>
      <trkpt lat="45.32528" lon="6.23517">
        <ele>1468.4000244141</ele>
        <time>2014-03-02T07:54:20.000Z</time>
      </trkpt>
      <trkpt lat="45.32528" lon="6.23516">
        <ele>1468.4000244141</ele>
        <time>2014-03-02T07:54:21.000Z</time>
      </trkpt>
      <trkpt lat="45.32527" lon="6.23515">
        <ele>1468.1999511719</ele>
        <time>2014-03-02T07:54:22.000Z</time>
      </trkpt>
      <trkpt lat="45.32527" lon="6.23514">
        <ele>1468</ele>
        <time>2014-03-02T07:54:23.000Z</time>
      </trkpt>
      <trkpt lat="45.32526" lon="6.23513">
        <ele>1468</ele>
        <time>2014-03-02T07:54:24.000Z</time>
      </trkpt>
      <trkpt lat="45.32526" lon="6.23512">
        <ele>1467.8000488281</ele>
        <time>2014-03-02T07:54:25.000Z</time>
      </trkpt>
      <trkpt lat="45.32526" lon="6.23512">
        <ele>1467.8000488281</ele>
        <time>2014-03-02T07:54:26.000Z</time>
      </trkpt>
      <trkpt lat="45.32526" lon="6.23511">
        <ele>1467.8000488281</ele>
        <time>2014-03-02T07:54:27.000Z</time>
      </trkpt>
      <trkpt lat="45.32526" lon="6.2351">
        <ele>1467.8000488281</ele>
        <time>2014-03-02T07:54:28.000Z</time>
      </trkpt>
      <trkpt lat="45.32526" lon="6.23508">
        <ele>1468</ele>
        <time>2014-03-02T07:54:29.000Z</time>
      </trkpt>
      <trkpt lat="45.32526" lon="6.23507">
        <ele>1467.8000488281</ele>
        <time>2014-03-02T07:54:30.000Z</time>
      </trkpt>
      <trkpt lat="45.32526" lon="6.23505">
        <ele>1467.8000488281</ele>
        <time>2014-03-02T07:54:31.000Z</time>
      </trkpt>
      <trkpt lat="45.32526" lon="6.23504">
        <ele>1468</ele>
        <time>2014-03-02T07:54:32.000Z</time>
      </trkpt>
      <trkpt lat="45.32526" lon="6.23502">
        <ele>1468</ele>
        <time>2014-03-02T07:54:33.000Z</time>
      </trkpt>
      <trkpt lat="45.32526" lon="6.23501">
        <ele>1468</ele>
        <time>2014-03-02T07:54:34.000Z</time>
      </trkpt>
      <trkpt lat="45.32526" lon="6.23499">
        <ele>1468.1999511719</ele>
        <time>2014-03-02T07:54:35.000Z</time>
      </trkpt>
      <trkpt lat="45.32526" lon="6.23497">
        <ele>1468.4000244141</ele>
        <time>2014-03-02T07:54:36.000Z</time>
      </trkpt>
      <trkpt lat="45.32526" lon="6.23496">
        <ele>1468.4000244141</ele>
        <time>2014-03-02T07:54:37.000Z</time>
      </trkpt>
      <trkpt lat="45.32526" lon="6.23496">
        <ele>1468.4000244141</ele>
        <time>2014-03-02T07:54:38.000Z</time>
      </trkpt>
      <trkpt lat="45.32526" lon="6.23494">
        <ele>1468.4000244141</ele>
        <time>2014-03-02T07:54:39.000Z</time>
      </trkpt>
      <trkpt lat="45.32526" lon="6.23494">
        <ele>1468.5999755859</ele>
        <time>2014-03-02T07:54:40.000Z</time>
      </trkpt>
      <trkpt lat="45.32526" lon="6.23493">
        <ele>1468.8000488281</ele>
        <time>2014-03-02T07:54:41.000Z</time>
      </trkpt>
      <trkpt lat="45.32527" lon="6.23492">
        <ele>1469</ele>
        <time>2014-03-02T07:54:42.000Z</time>
      </trkpt>
      <trkpt lat="45.32527" lon="6.23492">
        <ele>1469.1999511719</ele>
        <time>2014-03-02T07:54:43.000Z</time>
      </trkpt>
      <trkpt lat="45.32527" lon="6.23491">
        <ele>1469.4000244141</ele>
        <time>2014-03-02T07:54:44.000Z</time>
      </trkpt>
      <trkpt lat="45.32528" lon="6.23491">
        <ele>1469.5999755859</ele>
        <time>2014-03-02T07:54:45.000Z</time>
      </trkpt>
      <trkpt lat="45.32528" lon="6.23491">
        <ele>1469.5999755859</ele>
        <time>2014-03-02T07:54:46.000Z</time>
      </trkpt>
      <trkpt lat="45.32528" lon="6.23491">
        <ele>1469.5999755859</ele>
        <time>2014-03-02T07:54:47.000Z</time>
      </trkpt>
      <trkpt lat="45.32528" lon="6.2349">
        <ele>1469.5999755859</ele>
        <time>2014-03-02T07:54:48.000Z</time>
      </trkpt>
      <trkpt lat="45.32528" lon="6.23489">
        <ele>1469.8000488281</ele>
        <time>2014-03-02T07:54:49.000Z</time>
      </trkpt>
      <trkpt lat="45.32528" lon="6.23488">
        <ele>1469.8000488281</ele>
        <time>2014-03-02T07:54:50.000Z</time>
      </trkpt>
      <trkpt lat="45.32527" lon="6.23486">
        <ele>1469.5999755859</ele>
        <time>2014-03-02T07:54:51.000Z</time>
      </trkpt>
      <trkpt lat="45.32527" lon="6.23486">
        <ele>1469.5999755859</ele>
        <time>2014-03-02T07:54:52.000Z</time>
      </trkpt>
      <trkpt lat="45.32527" lon="6.23486">
        <ele>1469.5999755859</ele>
        <time>2014-03-02T07:54:53.000Z</time>
      </trkpt>
      <trkpt lat="45.32527" lon="6.23485">
        <ele>1469.5999755859</ele>
        <time>2014-03-02T07:54:54.000Z</time>
      </trkpt>
      <trkpt lat="45.32527" lon="6.23483">
        <ele>1469.4000244141</ele>
        <time>2014-03-02T07:54:55.000Z</time>
      </trkpt>
      <trkpt lat="45.32526" lon="6.23482">
        <ele>1469.1999511719</ele>
        <time>2014-03-02T07:54:56.000Z</time>
      </trkpt>
      <trkpt lat="45.32526" lon="6.23482">
        <ele>1469.4000244141</ele>
        <time>2014-03-02T07:54:57.000Z</time>
      </trkpt>
      <trkpt lat="45.32526" lon="6.23481">
        <ele>1469.4000244141</ele>
        <time>2014-03-02T07:54:58.000Z</time>
      </trkpt>
      <trkpt lat="45.32526" lon="6.2348">
        <ele>1469.5999755859</ele>
        <time>2014-03-02T07:54:59.000Z</time>
      </trkpt>
      <trkpt lat="45.32527" lon="6.2348">
        <ele>1469.5999755859</ele>
        <time>2014-03-02T07:55:00.000Z</time>
      </trkpt>
      <trkpt lat="45.32526" lon="6.23479">
        <ele>1469.5999755859</ele>
        <time>2014-03-02T07:55:01.000Z</time>
      </trkpt>
      <trkpt lat="45.32526" lon="6.23479">
        <ele>1469.5999755859</ele>
        <time>2014-03-02T07:55:02.000Z</time>
      </trkpt>
      <trkpt lat="45.32526" lon="6.23479">
        <ele>1469.5999755859</ele>
        <time>2014-03-02T07:55:03.000Z</time>
      </trkpt>
      <trkpt lat="45.32526" lon="6.23478">
        <ele>1469.5999755859</ele>
        <time>2014-03-02T07:55:04.000Z</time>
      </trkpt>
      <trkpt lat="45.32526" lon="6.23478">
        <ele>1469.5999755859</ele>
        <time>2014-03-02T07:55:05.000Z</time>
      </trkpt>
      <trkpt lat="45.32526" lon="6.23477">
        <ele>1469.8000488281</ele>
        <time>2014-03-02T07:55:06.000Z</time>
      </trkpt>
      <trkpt lat="45.32526" lon="6.23477">
        <ele>1469.8000488281</ele>
        <time>2014-03-02T07:55:07.000Z</time>
      </trkpt>
      <trkpt lat="45.32526" lon="6.23477">
        <ele>1469.8000488281</ele>
        <time>2014-03-02T07:55:08.000Z</time>
      </trkpt>
      <trkpt lat="45.32526" lon="6.23477">
        <ele>1469.8000488281</ele>
        <time>2014-03-02T07:55:09.000Z</time>
      </trkpt>
      <trkpt lat="45.32526" lon="6.23477">
        <ele>1469.8000488281</ele>
        <time>2014-03-02T07:55:10.000Z</time>
      </trkpt>
      <trkpt lat="45.32527" lon="6.23476">
        <ele>1470.1999511719</ele>
        <time>2014-03-02T07:55:11.000Z</time>
      </trkpt>
      <trkpt lat="45.32527" lon="6.23475">
        <ele>1470.8000488281</ele>
        <time>2014-03-02T07:55:12.000Z</time>
      </trkpt>
      <trkpt lat="45.32528" lon="6.23474">
        <ele>1471.4000244141</ele>
        <time>2014-03-02T07:55:13.000Z</time>
      </trkpt>
      <trkpt lat="45.32528" lon="6.23474">
        <ele>1471.4000244141</ele>
        <time>2014-03-02T07:55:14.000Z</time>
      </trkpt>
      <trkpt lat="45.32529" lon="6.23473">
        <ele>1472.1999511719</ele>
        <time>2014-03-02T07:55:15.000Z</time>
      </trkpt>
      <trkpt lat="45.32529" lon="6.23472">
        <ele>1472.8000488281</ele>
        <time>2014-03-02T07:55:16.000Z</time>
      </trkpt>
      <trkpt lat="45.3253" lon="6.23471">
        <ele>1473.4000244141</ele>
        <time>2014-03-02T07:55:17.000Z</time>
      </trkpt>
      <trkpt lat="45.3253" lon="6.23471">
        <ele>1473.4000244141</ele>
        <time>2014-03-02T07:55:18.000Z</time>
      </trkpt>
      <trkpt lat="45.32531" lon="6.2347">
        <ele>1474</ele>
        <time>2014-03-02T07:55:19.000Z</time>
      </trkpt>
      <trkpt lat="45.32531" lon="6.23469">
        <ele>1474.5999755859</ele>
        <time>2014-03-02T07:55:20.000Z</time>
      </trkpt>
      <trkpt lat="45.32532" lon="6.23467">
        <ele>1475.1999511719</ele>
        <time>2014-03-02T07:55:21.000Z</time>
      </trkpt>
      <trkpt lat="45.32533" lon="6.23466">
        <ele>1475.8000488281</ele>
        <time>2014-03-02T07:55:22.000Z</time>
      </trkpt>
      <trkpt lat="45.32533" lon="6.23466">
        <ele>1476.4000244141</ele>
        <time>2014-03-02T07:55:23.000Z</time>
      </trkpt>
      <trkpt lat="45.32534" lon="6.23465">
        <ele>1476.5999755859</ele>
        <time>2014-03-02T07:55:24.000Z</time>
      </trkpt>
      <trkpt lat="45.32534" lon="6.23465">
        <ele>1476.5999755859</ele>
        <time>2014-03-02T07:55:25.000Z</time>
      </trkpt>
      <trkpt lat="45.32534" lon="6.23465">
        <ele>1476.5999755859</ele>
        <time>2014-03-02T07:55:26.000Z</time>
      </trkpt>
      <trkpt lat="45.32534" lon="6.23465">
        <ele>1476.5999755859</ele>
        <time>2014-03-02T07:55:27.000Z</time>
      </trkpt>
      <trkpt lat="45.32534" lon="6.23465">
        <ele>1476.5999755859</ele>
        <time>2014-03-02T07:55:28.000Z</time>
      </trkpt>
      <trkpt lat="45.32534" lon="6.23465">
        <ele>1476.5999755859</ele>
        <time>2014-03-02T07:55:29.000Z</time>
      </trkpt>
      <trkpt lat="45.32535" lon="6.23465">
        <ele>1477</ele>
        <time>2014-03-02T07:55:30.000Z</time>
      </trkpt>
      <trkpt lat="45.32535" lon="6.23465">
        <ele>1477.1999511719</ele>
        <time>2014-03-02T07:55:31.000Z</time>
      </trkpt>
      <trkpt lat="45.32536" lon="6.23465">
        <ele>1477.4000244141</ele>
        <time>2014-03-02T07:55:32.000Z</time>
      </trkpt>
      <trkpt lat="45.32536" lon="6.23465">
        <ele>1477.5999755859</ele>
        <time>2014-03-02T07:55:33.000Z</time>
      </trkpt>
      <trkpt lat="45.32538" lon="6.23466">
        <ele>1478</ele>
        <time>2014-03-02T07:55:34.000Z</time>
      </trkpt>
      <trkpt lat="45.32538" lon="6.23467">
        <ele>1478</ele>
        <time>2014-03-02T07:55:35.000Z</time>
      </trkpt>
      <trkpt lat="45.32538" lon="6.23467">
        <ele>1478</ele>
        <time>2014-03-02T07:55:36.000Z</time>
      </trkpt>
      <trkpt lat="45.32538" lon="6.23468">
        <ele>1478</ele>
        <time>2014-03-02T07:55:37.000Z</time>
      </trkpt>
      <trkpt lat="45.32539" lon="6.23468">
        <ele>1478.1999511719</ele>
        <time>2014-03-02T07:55:38.000Z</time>
      </trkpt>
      <trkpt lat="45.32539" lon="6.23469">
        <ele>1478.1999511719</ele>
        <time>2014-03-02T07:55:39.000Z</time>
      </trkpt>
      <trkpt lat="45.32539" lon="6.23469">
        <ele>1478.1999511719</ele>
        <time>2014-03-02T07:55:40.000Z</time>
      </trkpt>
      <trkpt lat="45.32539" lon="6.2347">
        <ele>1478.1999511719</ele>
        <time>2014-03-02T07:55:41.000Z</time>
      </trkpt>
      <trkpt lat="45.32539" lon="6.2347">
        <ele>1478.1999511719</ele>
        <time>2014-03-02T07:55:42.000Z</time>
      </trkpt>
      <trkpt lat="45.3254" lon="6.23471">
        <ele>1478.1999511719</ele>
        <time>2014-03-02T07:55:43.000Z</time>
      </trkpt>
      <trkpt lat="45.3254" lon="6.23473">
        <ele>1478</ele>
        <time>2014-03-02T07:55:44.000Z</time>
      </trkpt>
      <trkpt lat="45.3254" lon="6.23474">
        <ele>1478</ele>
        <time>2014-03-02T07:55:45.000Z</time>
      </trkpt>
      <trkpt lat="45.32541" lon="6.23476">
        <ele>1477.8000488281</ele>
        <time>2014-03-02T07:55:46.000Z</time>
      </trkpt>
      <trkpt lat="45.32541" lon="6.23476">
        <ele>1477.8000488281</ele>
        <time>2014-03-02T07:55:47.000Z</time>
      </trkpt>
      <trkpt lat="45.32542" lon="6.23478">
        <ele>1477.8000488281</ele>
        <time>2014-03-02T07:55:48.000Z</time>
      </trkpt>
      <trkpt lat="45.32542" lon="6.23478">
        <ele>1477.8000488281</ele>
        <time>2014-03-02T07:55:49.000Z</time>
      </trkpt>
      <trkpt lat="45.32543" lon="6.2348">
        <ele>1477.8000488281</ele>
        <time>2014-03-02T07:55:50.000Z</time>
      </trkpt>
      <trkpt lat="45.32543" lon="6.23479">
        <ele>1477.8000488281</ele>
        <time>2014-03-02T07:55:51.000Z</time>
      </trkpt>
      <trkpt lat="45.32543" lon="6.23479">
        <ele>1477.8000488281</ele>
        <time>2014-03-02T07:55:52.000Z</time>
      </trkpt>
      <trkpt lat="45.32544" lon="6.23479">
        <ele>1478.1999511719</ele>
        <time>2014-03-02T07:55:53.000Z</time>
      </trkpt>
      <trkpt lat="45.32544" lon="6.23479">
        <ele>1478.5999755859</ele>
        <time>2014-03-02T07:55:54.000Z</time>
      </trkpt>
      <trkpt lat="45.32545" lon="6.23478">
        <ele>1479.1999511719</ele>
        <time>2014-03-02T07:55:55.000Z</time>
      </trkpt>
      <trkpt lat="45.32546" lon="6.23476">
        <ele>1480</ele>
        <time>2014-03-02T07:55:56.000Z</time>
      </trkpt>
      <trkpt lat="45.32547" lon="6.23476">
        <ele>1480.1999511719</ele>
        <time>2014-03-02T07:55:57.000Z</time>
      </trkpt>
      <trkpt lat="45.32547" lon="6.23476">
        <ele>1480.4000244141</ele>
        <time>2014-03-02T07:55:58.000Z</time>
      </trkpt>
      <trkpt lat="45.32548" lon="6.23476">
        <ele>1480.5999755859</ele>
        <time>2014-03-02T07:55:59.000Z</time>
      </trkpt>
      <trkpt lat="45.32548" lon="6.23475">
        <ele>1481</ele>
        <time>2014-03-02T07:56:00.000Z</time>
      </trkpt>
      <trkpt lat="45.32548" lon="6.23474">
        <ele>1481.1999511719</ele>
        <time>2014-03-02T07:56:01.000Z</time>
      </trkpt>
      <trkpt lat="45.32549" lon="6.23474">
        <ele>1481.4000244141</ele>
        <time>2014-03-02T07:56:02.000Z</time>
      </trkpt>
      <trkpt lat="45.32549" lon="6.23473">
        <ele>1481.8000488281</ele>
        <time>2014-03-02T07:56:03.000Z</time>
      </trkpt>
      <trkpt lat="45.32549" lon="6.23473">
        <ele>1481.8000488281</ele>
        <time>2014-03-02T07:56:04.000Z</time>
      </trkpt>
      <trkpt lat="45.32549" lon="6.23472">
        <ele>1482.1999511719</ele>
        <time>2014-03-02T07:56:05.000Z</time>
      </trkpt>
      <trkpt lat="45.3255" lon="6.2347">
        <ele>1482.8000488281</ele>
        <time>2014-03-02T07:56:06.000Z</time>
      </trkpt>
      <trkpt lat="45.3255" lon="6.2347">
        <ele>1483</ele>
        <time>2014-03-02T07:56:07.000Z</time>
      </trkpt>
      <trkpt lat="45.3255" lon="6.23468">
        <ele>1483.1999511719</ele>
        <time>2014-03-02T07:56:08.000Z</time>
      </trkpt>
      <trkpt lat="45.3255" lon="6.23468">
        <ele>1483.4000244141</ele>
        <time>2014-03-02T07:56:09.000Z</time>
      </trkpt>
      <trkpt lat="45.3255" lon="6.23468">
        <ele>1483.4000244141</ele>
        <time>2014-03-02T07:56:10.000Z</time>
      </trkpt>
      <trkpt lat="45.32551" lon="6.23467">
        <ele>1483.5999755859</ele>
        <time>2014-03-02T07:56:11.000Z</time>
      </trkpt>
      <trkpt lat="45.32551" lon="6.23467">
        <ele>1483.5999755859</ele>
        <time>2014-03-02T07:56:12.000Z</time>
      </trkpt>
      <trkpt lat="45.32551" lon="6.23466">
        <ele>1483.8000488281</ele>
        <time>2014-03-02T07:56:13.000Z</time>
      </trkpt>
      <trkpt lat="45.32551" lon="6.23465">
        <ele>1484</ele>
        <time>2014-03-02T07:56:14.000Z</time>
      </trkpt>
      <trkpt lat="45.32551" lon="6.23464">
        <ele>1484</ele>
        <time>2014-03-02T07:56:15.000Z</time>
      </trkpt>
      <trkpt lat="45.32551" lon="6.23464">
        <ele>1484</ele>
        <time>2014-03-02T07:56:16.000Z</time>
      </trkpt>
      <trkpt lat="45.32551" lon="6.23463">
        <ele>1484</ele>
        <time>2014-03-02T07:56:17.000Z</time>
      </trkpt>
      <trkpt lat="45.32551" lon="6.23462">
        <ele>1484.1999511719</ele>
        <time>2014-03-02T07:56:18.000Z</time>
      </trkpt>
      <trkpt lat="45.32551" lon="6.23461">
        <ele>1484.4000244141</ele>
        <time>2014-03-02T07:56:19.000Z</time>
      </trkpt>
      <trkpt lat="45.32551" lon="6.2346">
        <ele>1484.5999755859</ele>
        <time>2014-03-02T07:56:20.000Z</time>
      </trkpt>
      <trkpt lat="45.32551" lon="6.2346">
        <ele>1484.8000488281</ele>
        <time>2014-03-02T07:56:21.000Z</time>
      </trkpt>
      <trkpt lat="45.32551" lon="6.2346">
        <ele>1484.8000488281</ele>
        <time>2014-03-02T07:56:22.000Z</time>
      </trkpt>
      <trkpt lat="45.32551" lon="6.2346">
        <ele>1484.8000488281</ele>
        <time>2014-03-02T07:56:23.000Z</time>
      </trkpt>
      <trkpt lat="45.32552" lon="6.23459">
        <ele>1485.1999511719</ele>
        <time>2014-03-02T07:56:24.000Z</time>
      </trkpt>
      <trkpt lat="45.32552" lon="6.23459">
        <ele>1485.1999511719</ele>
        <time>2014-03-02T07:56:25.000Z</time>
      </trkpt>
      <trkpt lat="45.32552" lon="6.23458">
        <ele>1485.5999755859</ele>
        <time>2014-03-02T07:56:26.000Z</time>
      </trkpt>
      <trkpt lat="45.32552" lon="6.23458">
        <ele>1485.5999755859</ele>
        <time>2014-03-02T07:56:27.000Z</time>
      </trkpt>
      <trkpt lat="45.32553" lon="6.23457">
        <ele>1486.1999511719</ele>
        <time>2014-03-02T07:56:28.000Z</time>
      </trkpt>
      <trkpt lat="45.32553" lon="6.23455">
        <ele>1486.4000244141</ele>
        <time>2014-03-02T07:56:29.000Z</time>
      </trkpt>
      <trkpt lat="45.32553" lon="6.23453">
        <ele>1487</ele>
        <time>2014-03-02T07:56:30.000Z</time>
      </trkpt>
      <trkpt lat="45.32554" lon="6.23453">
        <ele>1487.4000244141</ele>
        <time>2014-03-02T07:56:31.000Z</time>
      </trkpt>
      <trkpt lat="45.32555" lon="6.23452">
        <ele>1487.8000488281</ele>
        <time>2014-03-02T07:56:32.000Z</time>
      </trkpt>
      <trkpt lat="45.32555" lon="6.23451">
        <ele>1488.1999511719</ele>
        <time>2014-03-02T07:56:33.000Z</time>
      </trkpt>
      <trkpt lat="45.32555" lon="6.2345">
        <ele>1488.1999511719</ele>
        <time>2014-03-02T07:56:34.000Z</time>
      </trkpt>
      <trkpt lat="45.32555" lon="6.23449">
        <ele>1488.1999511719</ele>
        <time>2014-03-02T07:56:35.000Z</time>
      </trkpt>
      <trkpt lat="45.32555" lon="6.23448">
        <ele>1488.4000244141</ele>
        <time>2014-03-02T07:56:36.000Z</time>
      </trkpt>
      <trkpt lat="45.32555" lon="6.23447">
        <ele>1488.4000244141</ele>
        <time>2014-03-02T07:56:37.000Z</time>
      </trkpt>
      <trkpt lat="45.32554" lon="6.23446">
        <ele>1488.1999511719</ele>
        <time>2014-03-02T07:56:38.000Z</time>
      </trkpt>
      <trkpt lat="45.32554" lon="6.23445">
        <ele>1488</ele>
        <time>2014-03-02T07:56:39.000Z</time>
      </trkpt>
      <trkpt lat="45.32554" lon="6.23444">
        <ele>1488.1999511719</ele>
        <time>2014-03-02T07:56:40.000Z</time>
      </trkpt>
      <trkpt lat="45.32554" lon="6.23443">
        <ele>1488</ele>
        <time>2014-03-02T07:56:41.000Z</time>
      </trkpt>
      <trkpt lat="45.32553" lon="6.23441">
        <ele>1487.8000488281</ele>
        <time>2014-03-02T07:56:42.000Z</time>
      </trkpt>
      <trkpt lat="45.32553" lon="6.2344">
        <ele>1487.5999755859</ele>
        <time>2014-03-02T07:56:43.000Z</time>
      </trkpt>
      <trkpt lat="45.32552" lon="6.2344">
        <ele>1487.1999511719</ele>
        <time>2014-03-02T07:56:44.000Z</time>
      </trkpt>
      <trkpt lat="45.32552" lon="6.2344">
        <ele>1487.1999511719</ele>
        <time>2014-03-02T07:56:45.000Z</time>
      </trkpt>
      <trkpt lat="45.32552" lon="6.23439">
        <ele>1487</ele>
        <time>2014-03-02T07:56:46.000Z</time>
      </trkpt>
      <trkpt lat="45.32552" lon="6.23437">
        <ele>1487.1999511719</ele>
        <time>2014-03-02T07:56:47.000Z</time>
      </trkpt>
      <trkpt lat="45.32551" lon="6.23436">
        <ele>1487</ele>
        <time>2014-03-02T07:56:48.000Z</time>
      </trkpt>
      <trkpt lat="45.32551" lon="6.23435">
        <ele>1486.8000488281</ele>
        <time>2014-03-02T07:56:49.000Z</time>
      </trkpt>
      <trkpt lat="45.32551" lon="6.23434">
        <ele>1486.8000488281</ele>
        <time>2014-03-02T07:56:50.000Z</time>
      </trkpt>
      <trkpt lat="45.3255" lon="6.23434">
        <ele>1486.5999755859</ele>
        <time>2014-03-02T07:56:51.000Z</time>
      </trkpt>
      <trkpt lat="45.3255" lon="6.23433">
        <ele>1486.4000244141</ele>
        <time>2014-03-02T07:56:52.000Z</time>
      </trkpt>
      <trkpt lat="45.3255" lon="6.23432">
        <ele>1486.4000244141</ele>
        <time>2014-03-02T07:56:53.000Z</time>
      </trkpt>
      <trkpt lat="45.32549" lon="6.23431">
        <ele>1486</ele>
        <time>2014-03-02T07:56:54.000Z</time>
      </trkpt>
      <trkpt lat="45.32549" lon="6.23431">
        <ele>1486</ele>
        <time>2014-03-02T07:56:55.000Z</time>
      </trkpt>
      <trkpt lat="45.32549" lon="6.2343">
        <ele>1486</ele>
        <time>2014-03-02T07:56:56.000Z</time>
      </trkpt>
      <trkpt lat="45.32549" lon="6.23429">
        <ele>1486</ele>
        <time>2014-03-02T07:56:57.000Z</time>
      </trkpt>
      <trkpt lat="45.32549" lon="6.23428">
        <ele>1486</ele>
        <time>2014-03-02T07:56:58.000Z</time>
      </trkpt>
      <trkpt lat="45.32548" lon="6.23428">
        <ele>1485.5999755859</ele>
        <time>2014-03-02T07:56:59.000Z</time>
      </trkpt>
      <trkpt lat="45.32548" lon="6.23428">
        <ele>1485.5999755859</ele>
        <time>2014-03-02T07:57:00.000Z</time>
      </trkpt>
      <trkpt lat="45.32548" lon="6.23428">
        <ele>1485.5999755859</ele>
        <time>2014-03-02T07:57:01.000Z</time>
      </trkpt>
      <trkpt lat="45.32548" lon="6.23428">
        <ele>1485.5999755859</ele>
        <time>2014-03-02T07:57:02.000Z</time>
      </trkpt>
      <trkpt lat="45.32548" lon="6.23428">
        <ele>1485.5999755859</ele>
        <time>2014-03-02T07:57:03.000Z</time>
      </trkpt>
      <trkpt lat="45.32548" lon="6.23425">
        <ele>1485.8000488281</ele>
        <time>2014-03-02T07:57:04.000Z</time>
      </trkpt>
      <trkpt lat="45.32548" lon="6.23424">
        <ele>1486.1999511719</ele>
        <time>2014-03-02T07:57:05.000Z</time>
      </trkpt>
      <trkpt lat="45.32548" lon="6.23421">
        <ele>1486.4000244141</ele>
        <time>2014-03-02T07:57:06.000Z</time>
      </trkpt>
      <trkpt lat="45.32548" lon="6.23421">
        <ele>1486.4000244141</ele>
        <time>2014-03-02T07:57:07.000Z</time>
      </trkpt>
      <trkpt lat="45.32548" lon="6.23419">
        <ele>1486.5999755859</ele>
        <time>2014-03-02T07:57:08.000Z</time>
      </trkpt>
      <trkpt lat="45.32549" lon="6.23418">
        <ele>1486.8000488281</ele>
        <time>2014-03-02T07:57:09.000Z</time>
      </trkpt>
      <trkpt lat="45.32549" lon="6.23417">
        <ele>1486.8000488281</ele>
        <time>2014-03-02T07:57:10.000Z</time>
      </trkpt>
      <trkpt lat="45.32549" lon="6.23417">
        <ele>1487</ele>
        <time>2014-03-02T07:57:11.000Z</time>
      </trkpt>
      <trkpt lat="45.32549" lon="6.23416">
        <ele>1487.1999511719</ele>
        <time>2014-03-02T07:57:12.000Z</time>
      </trkpt>
      <trkpt lat="45.32549" lon="6.23415">
        <ele>1487.5999755859</ele>
        <time>2014-03-02T07:57:13.000Z</time>
      </trkpt>
      <trkpt lat="45.32549" lon="6.23414">
        <ele>1487.8000488281</ele>
        <time>2014-03-02T07:57:14.000Z</time>
      </trkpt>
      <trkpt lat="45.3255" lon="6.23413">
        <ele>1488</ele>
        <time>2014-03-02T07:57:15.000Z</time>
      </trkpt>
      <trkpt lat="45.3255" lon="6.23412">
        <ele>1488</ele>
        <time>2014-03-02T07:57:16.000Z</time>
      </trkpt>
      <trkpt lat="45.3255" lon="6.23412">
        <ele>1488</ele>
        <time>2014-03-02T07:57:17.000Z</time>
      </trkpt>
      <trkpt lat="45.3255" lon="6.23411">
        <ele>1488.1999511719</ele>
        <time>2014-03-02T07:57:18.000Z</time>
      </trkpt>
      <trkpt lat="45.3255" lon="6.23411">
        <ele>1488.1999511719</ele>
        <time>2014-03-02T07:57:19.000Z</time>
      </trkpt>
      <trkpt lat="45.3255" lon="6.23411">
        <ele>1488.5999755859</ele>
        <time>2014-03-02T07:57:20.000Z</time>
      </trkpt>
      <trkpt lat="45.3255" lon="6.23411">
        <ele>1488.5999755859</ele>
        <time>2014-03-02T07:57:21.000Z</time>
      </trkpt>
      <trkpt lat="45.3255" lon="6.2341">
        <ele>1488.8000488281</ele>
        <time>2014-03-02T07:57:22.000Z</time>
      </trkpt>
      <trkpt lat="45.3255" lon="6.23409">
        <ele>1489</ele>
        <time>2014-03-02T07:57:23.000Z</time>
      </trkpt>
      <trkpt lat="45.32551" lon="6.23408">
        <ele>1489.4000244141</ele>
        <time>2014-03-02T07:57:24.000Z</time>
      </trkpt>
      <trkpt lat="45.32551" lon="6.23407">
        <ele>1489.5999755859</ele>
        <time>2014-03-02T07:57:25.000Z</time>
      </trkpt>
      <trkpt lat="45.32551" lon="6.23406">
        <ele>1490</ele>
        <time>2014-03-02T07:57:26.000Z</time>
      </trkpt>
      <trkpt lat="45.32551" lon="6.23406">
        <ele>1490</ele>
        <time>2014-03-02T07:57:27.000Z</time>
      </trkpt>
      <trkpt lat="45.32552" lon="6.23405">
        <ele>1490.1999511719</ele>
        <time>2014-03-02T07:57:28.000Z</time>
      </trkpt>
      <trkpt lat="45.32552" lon="6.23404">
        <ele>1490.1999511719</ele>
        <time>2014-03-02T07:57:29.000Z</time>
      </trkpt>
      <trkpt lat="45.32552" lon="6.23403">
        <ele>1490.4000244141</ele>
        <time>2014-03-02T07:57:30.000Z</time>
      </trkpt>
      <trkpt lat="45.32552" lon="6.23402">
        <ele>1490.4000244141</ele>
        <time>2014-03-02T07:57:31.000Z</time>
      </trkpt>
      <trkpt lat="45.32552" lon="6.23401">
        <ele>1490.5999755859</ele>
        <time>2014-03-02T07:57:32.000Z</time>
      </trkpt>
      <trkpt lat="45.32552" lon="6.23401">
        <ele>1490.5999755859</ele>
        <time>2014-03-02T07:57:33.000Z</time>
      </trkpt>
      <trkpt lat="45.32552" lon="6.23401">
        <ele>1490.8000488281</ele>
        <time>2014-03-02T07:57:34.000Z</time>
      </trkpt>
      <trkpt lat="45.32552" lon="6.23401">
        <ele>1490.8000488281</ele>
        <time>2014-03-02T07:57:35.000Z</time>
      </trkpt>
      <trkpt lat="45.32552" lon="6.23401">
        <ele>1490.8000488281</ele>
        <time>2014-03-02T07:57:36.000Z</time>
      </trkpt>
      <trkpt lat="45.32552" lon="6.23401">
        <ele>1490.8000488281</ele>
        <time>2014-03-02T07:57:37.000Z</time>
      </trkpt>
      <trkpt lat="45.32552" lon="6.23401">
        <ele>1490.8000488281</ele>
        <time>2014-03-02T07:57:38.000Z</time>
      </trkpt>
      <trkpt lat="45.32551" lon="6.23399">
        <ele>1490.4000244141</ele>
        <time>2014-03-02T07:57:39.000Z</time>
      </trkpt>
      <trkpt lat="45.32551" lon="6.23398">
        <ele>1490</ele>
        <time>2014-03-02T07:57:40.000Z</time>
      </trkpt>
      <trkpt lat="45.3255" lon="6.23396">
        <ele>1489.4000244141</ele>
        <time>2014-03-02T07:57:41.000Z</time>
      </trkpt>
      <trkpt lat="45.32549" lon="6.23395">
        <ele>1489.4000244141</ele>
        <time>2014-03-02T07:57:42.000Z</time>
      </trkpt>
      <trkpt lat="45.32549" lon="6.23394">
        <ele>1489.4000244141</ele>
        <time>2014-03-02T07:57:43.000Z</time>
      </trkpt>
      <trkpt lat="45.32548" lon="6.23392">
        <ele>1489.4000244141</ele>
        <time>2014-03-02T07:57:44.000Z</time>
      </trkpt>
      <trkpt lat="45.32548" lon="6.23392">
        <ele>1489.4000244141</ele>
        <time>2014-03-02T07:57:45.000Z</time>
      </trkpt>
      <trkpt lat="45.32548" lon="6.23392">
        <ele>1489.4000244141</ele>
        <time>2014-03-02T07:57:46.000Z</time>
      </trkpt>
      <trkpt lat="45.32548" lon="6.23392">
        <ele>1489.4000244141</ele>
        <time>2014-03-02T07:57:47.000Z</time>
      </trkpt>
      <trkpt lat="45.32548" lon="6.23392">
        <ele>1489.4000244141</ele>
        <time>2014-03-02T07:57:48.000Z</time>
      </trkpt>
      <trkpt lat="45.32548" lon="6.23392">
        <ele>1489.4000244141</ele>
        <time>2014-03-02T07:57:49.000Z</time>
      </trkpt>
      <trkpt lat="45.32548" lon="6.2339">
        <ele>1489.5999755859</ele>
        <time>2014-03-02T07:57:50.000Z</time>
      </trkpt>
      <trkpt lat="45.32548" lon="6.23388">
        <ele>1489.8000488281</ele>
        <time>2014-03-02T07:57:51.000Z</time>
      </trkpt>
      <trkpt lat="45.32548" lon="6.23387">
        <ele>1490.1999511719</ele>
        <time>2014-03-02T07:57:52.000Z</time>
      </trkpt>
      <trkpt lat="45.32548" lon="6.23385">
        <ele>1490.5999755859</ele>
        <time>2014-03-02T07:57:53.000Z</time>
      </trkpt>
      <trkpt lat="45.32548" lon="6.23384">
        <ele>1490.5999755859</ele>
        <time>2014-03-02T07:57:54.000Z</time>
      </trkpt>
      <trkpt lat="45.32548" lon="6.23384">
        <ele>1490.5999755859</ele>
        <time>2014-03-02T07:57:55.000Z</time>
      </trkpt>
      <trkpt lat="45.32548" lon="6.23384">
        <ele>1490.5999755859</ele>
        <time>2014-03-02T07:57:56.000Z</time>
      </trkpt>
      <trkpt lat="45.32548" lon="6.23384">
        <ele>1490.5999755859</ele>
        <time>2014-03-02T07:57:57.000Z</time>
      </trkpt>
      <trkpt lat="45.32548" lon="6.23384">
        <ele>1490.5999755859</ele>
        <time>2014-03-02T07:57:58.000Z</time>
      </trkpt>
      <trkpt lat="45.32548" lon="6.23383">
        <ele>1491</ele>
        <time>2014-03-02T07:57:59.000Z</time>
      </trkpt>
      <trkpt lat="45.32548" lon="6.23381">
        <ele>1491.4000244141</ele>
        <time>2014-03-02T07:58:00.000Z</time>
      </trkpt>
      <trkpt lat="45.32548" lon="6.2338">
        <ele>1491.4000244141</ele>
        <time>2014-03-02T07:58:01.000Z</time>
      </trkpt>
      <trkpt lat="45.32547" lon="6.23378">
        <ele>1491.4000244141</ele>
        <time>2014-03-02T07:58:02.000Z</time>
      </trkpt>
      <trkpt lat="45.32547" lon="6.23377">
        <ele>1491.5999755859</ele>
        <time>2014-03-02T07:58:03.000Z</time>
      </trkpt>
      <trkpt lat="45.32547" lon="6.23376">
        <ele>1491.8000488281</ele>
        <time>2014-03-02T07:58:04.000Z</time>
      </trkpt>
      <trkpt lat="45.32547" lon="6.23375">
        <ele>1492</ele>
        <time>2014-03-02T07:58:05.000Z</time>
      </trkpt>
      <trkpt lat="45.32547" lon="6.23375">
        <ele>1492</ele>
        <time>2014-03-02T07:58:06.000Z</time>
      </trkpt>
      <trkpt lat="45.32547" lon="6.23375">
        <ele>1492</ele>
        <time>2014-03-02T07:58:07.000Z</time>
      </trkpt>
      <trkpt lat="45.32547" lon="6.23374">
        <ele>1492.1999511719</ele>
        <time>2014-03-02T07:58:08.000Z</time>
      </trkpt>
      <trkpt lat="45.32547" lon="6.23373">
        <ele>1492.4000244141</ele>
        <time>2014-03-02T07:58:09.000Z</time>
      </trkpt>
      <trkpt lat="45.32547" lon="6.23372">
        <ele>1492.8000488281</ele>
        <time>2014-03-02T07:58:10.000Z</time>
      </trkpt>
      <trkpt lat="45.32547" lon="6.2337">
        <ele>1493</ele>
        <time>2014-03-02T07:58:11.000Z</time>
      </trkpt>
      <trkpt lat="45.32547" lon="6.23368">
        <ele>1493.4000244141</ele>
        <time>2014-03-02T07:58:12.000Z</time>
      </trkpt>
      <trkpt lat="45.32547" lon="6.23367">
        <ele>1493.5999755859</ele>
        <time>2014-03-02T07:58:13.000Z</time>
      </trkpt>
      <trkpt lat="45.32547" lon="6.23366">
        <ele>1493.5999755859</ele>
        <time>2014-03-02T07:58:14.000Z</time>
      </trkpt>
      <trkpt lat="45.32546" lon="6.23365">
        <ele>1493.5999755859</ele>
        <time>2014-03-02T07:58:15.000Z</time>
      </trkpt>
      <trkpt lat="45.32546" lon="6.23364">
        <ele>1493.8000488281</ele>
        <time>2014-03-02T07:58:16.000Z</time>
      </trkpt>
      <trkpt lat="45.32547" lon="6.23363">
        <ele>1494.1999511719</ele>
        <time>2014-03-02T07:58:17.000Z</time>
      </trkpt>
      <trkpt lat="45.32547" lon="6.23362">
        <ele>1494.4000244141</ele>
        <time>2014-03-02T07:58:18.000Z</time>
      </trkpt>
      <trkpt lat="45.32548" lon="6.23361">
        <ele>1494.8000488281</ele>
        <time>2014-03-02T07:58:19.000Z</time>
      </trkpt>
      <trkpt lat="45.32548" lon="6.23361">
        <ele>1495.4000244141</ele>
        <time>2014-03-02T07:58:20.000Z</time>
      </trkpt>
      <trkpt lat="45.32549" lon="6.2336">
        <ele>1495.8000488281</ele>
        <time>2014-03-02T07:58:21.000Z</time>
      </trkpt>
      <trkpt lat="45.32549" lon="6.23359">
        <ele>1496</ele>
        <time>2014-03-02T07:58:22.000Z</time>
      </trkpt>
      <trkpt lat="45.32549" lon="6.23358">
        <ele>1496.4000244141</ele>
        <time>2014-03-02T07:58:23.000Z</time>
      </trkpt>
      <trkpt lat="45.32549" lon="6.23358">
        <ele>1496.5999755859</ele>
        <time>2014-03-02T07:58:24.000Z</time>
      </trkpt>
      <trkpt lat="45.32549" lon="6.23358">
        <ele>1496.5999755859</ele>
        <time>2014-03-02T07:58:25.000Z</time>
      </trkpt>
      <trkpt lat="45.32549" lon="6.23358">
        <ele>1496.4000244141</ele>
        <time>2014-03-02T07:58:26.000Z</time>
      </trkpt>
      <trkpt lat="45.32549" lon="6.23357">
        <ele>1496.5999755859</ele>
        <time>2014-03-02T07:58:27.000Z</time>
      </trkpt>
      <trkpt lat="45.3255" lon="6.23357">
        <ele>1496.8000488281</ele>
        <time>2014-03-02T07:58:28.000Z</time>
      </trkpt>
      <trkpt lat="45.3255" lon="6.23356">
        <ele>1497</ele>
        <time>2014-03-02T07:58:29.000Z</time>
      </trkpt>
      <trkpt lat="45.3255" lon="6.23355">
        <ele>1497.4000244141</ele>
        <time>2014-03-02T07:58:30.000Z</time>
      </trkpt>
      <trkpt lat="45.3255" lon="6.23355">
        <ele>1497.4000244141</ele>
        <time>2014-03-02T07:58:31.000Z</time>
      </trkpt>
      <trkpt lat="45.32551" lon="6.23354">
        <ele>1497.8000488281</ele>
        <time>2014-03-02T07:58:32.000Z</time>
      </trkpt>
      <trkpt lat="45.32551" lon="6.23354">
        <ele>1497.8000488281</ele>
        <time>2014-03-02T07:58:33.000Z</time>
      </trkpt>
      <trkpt lat="45.32551" lon="6.23353">
        <ele>1498.1999511719</ele>
        <time>2014-03-02T07:58:34.000Z</time>
      </trkpt>
      <trkpt lat="45.32551" lon="6.23353">
        <ele>1498.1999511719</ele>
        <time>2014-03-02T07:58:35.000Z</time>
      </trkpt>
      <trkpt lat="45.32551" lon="6.23352">
        <ele>1498.5999755859</ele>
        <time>2014-03-02T07:58:36.000Z</time>
      </trkpt>
      <trkpt lat="45.32551" lon="6.23351">
        <ele>1498.8000488281</ele>
        <time>2014-03-02T07:58:37.000Z</time>
      </trkpt>
      <trkpt lat="45.32551" lon="6.2335">
        <ele>1498.8000488281</ele>
        <time>2014-03-02T07:58:38.000Z</time>
      </trkpt>
      <trkpt lat="45.32551" lon="6.23348">
        <ele>1499</ele>
        <time>2014-03-02T07:58:39.000Z</time>
      </trkpt>
      <trkpt lat="45.3255" lon="6.23347">
        <ele>1499.1999511719</ele>
        <time>2014-03-02T07:58:40.000Z</time>
      </trkpt>
      <trkpt lat="45.32551" lon="6.23346">
        <ele>1499.5999755859</ele>
        <time>2014-03-02T07:58:41.000Z</time>
      </trkpt>
      <trkpt lat="45.32551" lon="6.23345">
        <ele>1500.1999511719</ele>
        <time>2014-03-02T07:58:42.000Z</time>
      </trkpt>
      <trkpt lat="45.32552" lon="6.23343">
        <ele>1500.4000244141</ele>
        <time>2014-03-02T07:58:43.000Z</time>
      </trkpt>
      <trkpt lat="45.32552" lon="6.23342">
        <ele>1500.8000488281</ele>
        <time>2014-03-02T07:58:44.000Z</time>
      </trkpt>
      <trkpt lat="45.32552" lon="6.23341">
        <ele>1501.4000244141</ele>
        <time>2014-03-02T07:58:45.000Z</time>
      </trkpt>
      <trkpt lat="45.32553" lon="6.2334">
        <ele>1502</ele>
        <time>2014-03-02T07:58:46.000Z</time>
      </trkpt>
      <trkpt lat="45.32553" lon="6.23339">
        <ele>1502.1999511719</ele>
        <time>2014-03-02T07:58:47.000Z</time>
      </trkpt>
      <trkpt lat="45.32553" lon="6.23339">
        <ele>1502.4000244141</ele>
        <time>2014-03-02T07:58:48.000Z</time>
      </trkpt>
      <trkpt lat="45.32553" lon="6.23338">
        <ele>1502.5999755859</ele>
        <time>2014-03-02T07:58:49.000Z</time>
      </trkpt>
      <trkpt lat="45.32553" lon="6.23337">
        <ele>1502.8000488281</ele>
        <time>2014-03-02T07:58:50.000Z</time>
      </trkpt>
      <trkpt lat="45.32553" lon="6.23336">
        <ele>1502.8000488281</ele>
        <time>2014-03-02T07:58:51.000Z</time>
      </trkpt>
      <trkpt lat="45.32553" lon="6.23335">
        <ele>1503</ele>
        <time>2014-03-02T07:58:52.000Z</time>
      </trkpt>
      <trkpt lat="45.32553" lon="6.23334">
        <ele>1503.1999511719</ele>
        <time>2014-03-02T07:58:53.000Z</time>
      </trkpt>
      <trkpt lat="45.32554" lon="6.23334">
        <ele>1503.4000244141</ele>
        <time>2014-03-02T07:58:54.000Z</time>
      </trkpt>
      <trkpt lat="45.32554" lon="6.23334">
        <ele>1503.4000244141</ele>
        <time>2014-03-02T07:58:55.000Z</time>
      </trkpt>
      <trkpt lat="45.32554" lon="6.23334">
        <ele>1503.4000244141</ele>
        <time>2014-03-02T07:58:56.000Z</time>
      </trkpt>
      <trkpt lat="45.32554" lon="6.23334">
        <ele>1503.4000244141</ele>
        <time>2014-03-02T07:58:57.000Z</time>
      </trkpt>
      <trkpt lat="45.32554" lon="6.23334">
        <ele>1503.4000244141</ele>
        <time>2014-03-02T07:58:58.000Z</time>
      </trkpt>
      <trkpt lat="45.32554" lon="6.23334">
        <ele>1503.4000244141</ele>
        <time>2014-03-02T07:58:59.000Z</time>
      </trkpt>
      <trkpt lat="45.32554" lon="6.23334">
        <ele>1503.4000244141</ele>
        <time>2014-03-02T07:59:00.000Z</time>
      </trkpt>
      <trkpt lat="45.32554" lon="6.23333">
        <ele>1503.8000488281</ele>
        <time>2014-03-02T07:59:01.000Z</time>
      </trkpt>
      <trkpt lat="45.32554" lon="6.23333">
        <ele>1503.8000488281</ele>
        <time>2014-03-02T07:59:02.000Z</time>
      </trkpt>
      <trkpt lat="45.32555" lon="6.23333">
        <ele>1504.5999755859</ele>
        <time>2014-03-02T07:59:03.000Z</time>
      </trkpt>
      <trkpt lat="45.32555" lon="6.23333">
        <ele>1504.5999755859</ele>
        <time>2014-03-02T07:59:04.000Z</time>
      </trkpt>
      <trkpt lat="45.32556" lon="6.23332">
        <ele>1505.4000244141</ele>
        <time>2014-03-02T07:59:05.000Z</time>
      </trkpt>
      <trkpt lat="45.32556" lon="6.23332">
        <ele>1505.4000244141</ele>
        <time>2014-03-02T07:59:06.000Z</time>
      </trkpt>
      <trkpt lat="45.32557" lon="6.23331">
        <ele>1506</ele>
        <time>2014-03-02T07:59:07.000Z</time>
      </trkpt>
      <trkpt lat="45.32557" lon="6.23331">
        <ele>1506</ele>
        <time>2014-03-02T07:59:08.000Z</time>
      </trkpt>
      <trkpt lat="45.32558" lon="6.2333">
        <ele>1506.8000488281</ele>
        <time>2014-03-02T07:59:09.000Z</time>
      </trkpt>
      <trkpt lat="45.32558" lon="6.2333">
        <ele>1506.8000488281</ele>
        <time>2014-03-02T07:59:10.000Z</time>
      </trkpt>
      <trkpt lat="45.32558" lon="6.2333">
        <ele>1506.8000488281</ele>
        <time>2014-03-02T07:59:11.000Z</time>
      </trkpt>
      <trkpt lat="45.32559" lon="6.2333">
        <ele>1507.4000244141</ele>
        <time>2014-03-02T07:59:12.000Z</time>
      </trkpt>
      <trkpt lat="45.32559" lon="6.2333">
        <ele>1507.4000244141</ele>
        <time>2014-03-02T07:59:13.000Z</time>
      </trkpt>
      <trkpt lat="45.32559" lon="6.23329">
        <ele>1507.8000488281</ele>
        <time>2014-03-02T07:59:14.000Z</time>
      </trkpt>
      <trkpt lat="45.3256" lon="6.23328">
        <ele>1508</ele>
        <time>2014-03-02T07:59:15.000Z</time>
      </trkpt>
      <trkpt lat="45.3256" lon="6.23328">
        <ele>1508.4000244141</ele>
        <time>2014-03-02T07:59:16.000Z</time>
      </trkpt>
      <trkpt lat="45.32562" lon="6.23326">
        <ele>1509.5999755859</ele>
        <time>2014-03-02T07:59:17.000Z</time>
      </trkpt>
      <trkpt lat="45.32562" lon="6.23325">
        <ele>1509.8000488281</ele>
        <time>2014-03-02T07:59:18.000Z</time>
      </trkpt>
      <trkpt lat="45.32562" lon="6.23325">
        <ele>1509.8000488281</ele>
        <time>2014-03-02T07:59:19.000Z</time>
      </trkpt>
      <trkpt lat="45.32562" lon="6.23324">
        <ele>1510</ele>
        <time>2014-03-02T07:59:20.000Z</time>
      </trkpt>
      <trkpt lat="45.32563" lon="6.23323">
        <ele>1510.4000244141</ele>
        <time>2014-03-02T07:59:21.000Z</time>
      </trkpt>
      <trkpt lat="45.32563" lon="6.23322">
        <ele>1510.8000488281</ele>
        <time>2014-03-02T07:59:22.000Z</time>
      </trkpt>
      <trkpt lat="45.32563" lon="6.23322">
        <ele>1510.8000488281</ele>
        <time>2014-03-02T07:59:23.000Z</time>
      </trkpt>
      <trkpt lat="45.32563" lon="6.23321">
        <ele>1511</ele>
        <time>2014-03-02T07:59:24.000Z</time>
      </trkpt>
      <trkpt lat="45.32563" lon="6.2332">
        <ele>1511.4000244141</ele>
        <time>2014-03-02T07:59:25.000Z</time>
      </trkpt>
      <trkpt lat="45.32563" lon="6.2332">
        <ele>1511.4000244141</ele>
        <time>2014-03-02T07:59:26.000Z</time>
      </trkpt>
      <trkpt lat="45.32563" lon="6.2332">
        <ele>1511.4000244141</ele>
        <time>2014-03-02T07:59:27.000Z</time>
      </trkpt>
      <trkpt lat="45.32563" lon="6.2332">
        <ele>1511.4000244141</ele>
        <time>2014-03-02T07:59:28.000Z</time>
      </trkpt>
      <trkpt lat="45.32564" lon="6.23319">
        <ele>1511.5999755859</ele>
        <time>2014-03-02T07:59:29.000Z</time>
      </trkpt>
      <trkpt lat="45.32563" lon="6.23317">
        <ele>1511.5999755859</ele>
        <time>2014-03-02T07:59:30.000Z</time>
      </trkpt>
      <trkpt lat="45.32563" lon="6.23317">
        <ele>1511.8000488281</ele>
        <time>2014-03-02T07:59:31.000Z</time>
      </trkpt>
      <trkpt lat="45.32563" lon="6.23317">
        <ele>1511.8000488281</ele>
        <time>2014-03-02T07:59:32.000Z</time>
      </trkpt>
      <trkpt lat="45.32563" lon="6.23317">
        <ele>1511.8000488281</ele>
        <time>2014-03-02T07:59:33.000Z</time>
      </trkpt>
      <trkpt lat="45.32563" lon="6.23317">
        <ele>1511.8000488281</ele>
        <time>2014-03-02T07:59:34.000Z</time>
      </trkpt>
      <trkpt lat="45.32563" lon="6.23317">
        <ele>1511.8000488281</ele>
        <time>2014-03-02T07:59:35.000Z</time>
      </trkpt>
      <trkpt lat="45.32563" lon="6.23317">
        <ele>1511.8000488281</ele>
        <time>2014-03-02T07:59:36.000Z</time>
      </trkpt>
      <trkpt lat="45.32563" lon="6.23315">
        <ele>1512</ele>
        <time>2014-03-02T07:59:37.000Z</time>
      </trkpt>
      <trkpt lat="45.32563" lon="6.23315">
        <ele>1512</ele>
        <time>2014-03-02T07:59:38.000Z</time>
      </trkpt>
      <trkpt lat="45.32563" lon="6.23315">
        <ele>1512</ele>
        <time>2014-03-02T07:59:39.000Z</time>
      </trkpt>
      <trkpt lat="45.32563" lon="6.23315">
        <ele>1512</ele>
        <time>2014-03-02T07:59:40.000Z</time>
      </trkpt>
      <trkpt lat="45.32563" lon="6.23314">
        <ele>1512.1999511719</ele>
        <time>2014-03-02T07:59:41.000Z</time>
      </trkpt>
      <trkpt lat="45.32563" lon="6.23314">
        <ele>1512.1999511719</ele>
        <time>2014-03-02T07:59:42.000Z</time>
      </trkpt>
      <trkpt lat="45.32564" lon="6.23313">
        <ele>1512.5999755859</ele>
        <time>2014-03-02T07:59:43.000Z</time>
      </trkpt>
      <trkpt lat="45.32564" lon="6.23313">
        <ele>1512.5999755859</ele>
        <time>2014-03-02T07:59:44.000Z</time>
      </trkpt>
      <trkpt lat="45.32564" lon="6.23312">
        <ele>1513.1999511719</ele>
        <time>2014-03-02T07:59:45.000Z</time>
      </trkpt>
      <trkpt lat="45.32565" lon="6.23311">
        <ele>1513.4000244141</ele>
        <time>2014-03-02T07:59:46.000Z</time>
      </trkpt>
      <trkpt lat="45.32565" lon="6.2331">
        <ele>1513.8000488281</ele>
        <time>2014-03-02T07:59:47.000Z</time>
      </trkpt>
      <trkpt lat="45.32566" lon="6.23309">
        <ele>1514.4000244141</ele>
        <time>2014-03-02T07:59:48.000Z</time>
      </trkpt>
      <trkpt lat="45.32566" lon="6.23308">
        <ele>1515</ele>
        <time>2014-03-02T07:59:49.000Z</time>
      </trkpt>
      <trkpt lat="45.32566" lon="6.23307">
        <ele>1515.1999511719</ele>
        <time>2014-03-02T07:59:50.000Z</time>
      </trkpt>
      <trkpt lat="45.32566" lon="6.23307">
        <ele>1515.1999511719</ele>
        <time>2014-03-02T07:59:51.000Z</time>
      </trkpt>
      <trkpt lat="45.32566" lon="6.23307">
        <ele>1515.1999511719</ele>
        <time>2014-03-02T07:59:52.000Z</time>
      </trkpt>
      <trkpt lat="45.32566" lon="6.23307">
        <ele>1515.1999511719</ele>
        <time>2014-03-02T07:59:53.000Z</time>
      </trkpt>
      <trkpt lat="45.32566" lon="6.23305">
        <ele>1515.4000244141</ele>
        <time>2014-03-02T07:59:54.000Z</time>
      </trkpt>
      <trkpt lat="45.32566" lon="6.23305">
        <ele>1515.4000244141</ele>
        <time>2014-03-02T07:59:55.000Z</time>
      </trkpt>
      <trkpt lat="45.32566" lon="6.23304">
        <ele>1515.8000488281</ele>
        <time>2014-03-02T07:59:56.000Z</time>
      </trkpt>
      <trkpt lat="45.32567" lon="6.23303">
        <ele>1516</ele>
        <time>2014-03-02T07:59:57.000Z</time>
      </trkpt>
      <trkpt lat="45.32566" lon="6.23302">
        <ele>1516</ele>
        <time>2014-03-02T07:59:58.000Z</time>
      </trkpt>
      <trkpt lat="45.32567" lon="6.23301">
        <ele>1516.4000244141</ele>
        <time>2014-03-02T07:59:59.000Z</time>
      </trkpt>
      <trkpt lat="45.32567" lon="6.233">
        <ele>1516.4000244141</ele>
        <time>2014-03-02T08:00:00.000Z</time>
      </trkpt>
      <trkpt lat="45.32567" lon="6.23299">
        <ele>1516.8000488281</ele>
        <time>2014-03-02T08:00:01.000Z</time>
      </trkpt>
      <trkpt lat="45.32567" lon="6.23299">
        <ele>1517</ele>
        <time>2014-03-02T08:00:02.000Z</time>
      </trkpt>
      <trkpt lat="45.32568" lon="6.23296">
        <ele>1518</ele>
        <time>2014-03-02T08:00:03.000Z</time>
      </trkpt>
      <trkpt lat="45.32568" lon="6.23294">
        <ele>1518.1999511719</ele>
        <time>2014-03-02T08:00:04.000Z</time>
      </trkpt>
      <trkpt lat="45.32568" lon="6.23293">
        <ele>1518.4000244141</ele>
        <time>2014-03-02T08:00:05.000Z</time>
      </trkpt>
      <trkpt lat="45.32568" lon="6.23293">
        <ele>1518.4000244141</ele>
        <time>2014-03-02T08:00:06.000Z</time>
      </trkpt>
      <trkpt lat="45.32568" lon="6.23292">
        <ele>1519</ele>
        <time>2014-03-02T08:00:07.000Z</time>
      </trkpt>
      <trkpt lat="45.32568" lon="6.23292">
        <ele>1519</ele>
        <time>2014-03-02T08:00:08.000Z</time>
      </trkpt>
      <trkpt lat="45.32569" lon="6.2329">
        <ele>1519.4000244141</ele>
        <time>2014-03-02T08:00:09.000Z</time>
      </trkpt>
      <trkpt lat="45.32569" lon="6.2329">
        <ele>1519.4000244141</ele>
        <time>2014-03-02T08:00:10.000Z</time>
      </trkpt>
      <trkpt lat="45.32569" lon="6.23289">
        <ele>1519.5999755859</ele>
        <time>2014-03-02T08:00:11.000Z</time>
      </trkpt>
      <trkpt lat="45.32569" lon="6.23288">
        <ele>1520</ele>
        <time>2014-03-02T08:00:12.000Z</time>
      </trkpt>
      <trkpt lat="45.32569" lon="6.23288">
        <ele>1520</ele>
        <time>2014-03-02T08:00:13.000Z</time>
      </trkpt>
      <trkpt lat="45.32569" lon="6.23287">
        <ele>1520.4000244141</ele>
        <time>2014-03-02T08:00:14.000Z</time>
      </trkpt>
      <trkpt lat="45.32569" lon="6.23286">
        <ele>1520.4000244141</ele>
        <time>2014-03-02T08:00:15.000Z</time>
      </trkpt>
      <trkpt lat="45.3257" lon="6.23285">
        <ele>1520.8000488281</ele>
        <time>2014-03-02T08:00:16.000Z</time>
      </trkpt>
      <trkpt lat="45.3257" lon="6.23285">
        <ele>1520.8000488281</ele>
        <time>2014-03-02T08:00:17.000Z</time>
      </trkpt>
      <trkpt lat="45.3257" lon="6.23284">
        <ele>1521.1999511719</ele>
        <time>2014-03-02T08:00:18.000Z</time>
      </trkpt>
      <trkpt lat="45.3257" lon="6.23282">
        <ele>1521.4000244141</ele>
        <time>2014-03-02T08:00:19.000Z</time>
      </trkpt>
      <trkpt lat="45.3257" lon="6.23281">
        <ele>1521.5999755859</ele>
        <time>2014-03-02T08:00:20.000Z</time>
      </trkpt>
      <trkpt lat="45.3257" lon="6.23281">
        <ele>1521.8000488281</ele>
        <time>2014-03-02T08:00:21.000Z</time>
      </trkpt>
      <trkpt lat="45.32571" lon="6.2328">
        <ele>1522</ele>
        <time>2014-03-02T08:00:22.000Z</time>
      </trkpt>
      <trkpt lat="45.32571" lon="6.23279">
        <ele>1522.4000244141</ele>
        <time>2014-03-02T08:00:23.000Z</time>
      </trkpt>
      <trkpt lat="45.32571" lon="6.23279">
        <ele>1522.8000488281</ele>
        <time>2014-03-02T08:00:24.000Z</time>
      </trkpt>
      <trkpt lat="45.32572" lon="6.23278">
        <ele>1523.1999511719</ele>
        <time>2014-03-02T08:00:25.000Z</time>
      </trkpt>
      <trkpt lat="45.32572" lon="6.23276">
        <ele>1523.4000244141</ele>
        <time>2014-03-02T08:00:26.000Z</time>
      </trkpt>
      <trkpt lat="45.32572" lon="6.23276">
        <ele>1524</ele>
        <time>2014-03-02T08:00:27.000Z</time>
      </trkpt>
      <trkpt lat="45.32573" lon="6.23275">
        <ele>1524.4000244141</ele>
        <time>2014-03-02T08:00:28.000Z</time>
      </trkpt>
      <trkpt lat="45.32573" lon="6.23274">
        <ele>1524.5999755859</ele>
        <time>2014-03-02T08:00:29.000Z</time>
      </trkpt>
      <trkpt lat="45.32573" lon="6.23274">
        <ele>1524.5999755859</ele>
        <time>2014-03-02T08:00:30.000Z</time>
      </trkpt>
      <trkpt lat="45.32574" lon="6.23274">
        <ele>1525</ele>
        <time>2014-03-02T08:00:31.000Z</time>
      </trkpt>
      <trkpt lat="45.32574" lon="6.23274">
        <ele>1525</ele>
        <time>2014-03-02T08:00:32.000Z</time>
      </trkpt>
      <trkpt lat="45.32574" lon="6.23272">
        <ele>1525.4000244141</ele>
        <time>2014-03-02T08:00:33.000Z</time>
      </trkpt>
      <trkpt lat="45.32574" lon="6.23272">
        <ele>1525.4000244141</ele>
        <time>2014-03-02T08:00:34.000Z</time>
      </trkpt>
      <trkpt lat="45.32574" lon="6.23272">
        <ele>1525.4000244141</ele>
        <time>2014-03-02T08:00:35.000Z</time>
      </trkpt>
      <trkpt lat="45.32574" lon="6.23272">
        <ele>1525.5999755859</ele>
        <time>2014-03-02T08:00:36.000Z</time>
      </trkpt>
      <trkpt lat="45.32574" lon="6.2327">
        <ele>1525.8000488281</ele>
        <time>2014-03-02T08:00:37.000Z</time>
      </trkpt>
      <trkpt lat="45.32574" lon="6.23268">
        <ele>1526.4000244141</ele>
        <time>2014-03-02T08:00:38.000Z</time>
      </trkpt>
      <trkpt lat="45.32574" lon="6.23267">
        <ele>1526.4000244141</ele>
        <time>2014-03-02T08:00:39.000Z</time>
      </trkpt>
      <trkpt lat="45.32574" lon="6.23264">
        <ele>1526.8000488281</ele>
        <time>2014-03-02T08:00:40.000Z</time>
      </trkpt>
      <trkpt lat="45.32574" lon="6.23262">
        <ele>1527.1999511719</ele>
        <time>2014-03-02T08:00:41.000Z</time>
      </trkpt>
      <trkpt lat="45.32574" lon="6.23261">
        <ele>1527.5999755859</ele>
        <time>2014-03-02T08:00:42.000Z</time>
      </trkpt>
      <trkpt lat="45.32574" lon="6.2326">
        <ele>1527.8000488281</ele>
        <time>2014-03-02T08:00:43.000Z</time>
      </trkpt>
      <trkpt lat="45.32574" lon="6.23258">
        <ele>1527.8000488281</ele>
        <time>2014-03-02T08:00:44.000Z</time>
      </trkpt>
      <trkpt lat="45.32573" lon="6.23257">
        <ele>1527.8000488281</ele>
        <time>2014-03-02T08:00:45.000Z</time>
      </trkpt>
      <trkpt lat="45.32573" lon="6.23256">
        <ele>1527.8000488281</ele>
        <time>2014-03-02T08:00:46.000Z</time>
      </trkpt>
      <trkpt lat="45.32573" lon="6.23255">
        <ele>1527.8000488281</ele>
        <time>2014-03-02T08:00:47.000Z</time>
      </trkpt>
      <trkpt lat="45.32573" lon="6.23254">
        <ele>1528</ele>
        <time>2014-03-02T08:00:48.000Z</time>
      </trkpt>
      <trkpt lat="45.32572" lon="6.23252">
        <ele>1528</ele>
        <time>2014-03-02T08:00:49.000Z</time>
      </trkpt>
      <trkpt lat="45.32572" lon="6.23251">
        <ele>1528</ele>
        <time>2014-03-02T08:00:50.000Z</time>
      </trkpt>
      <trkpt lat="45.32571" lon="6.23249">
        <ele>1528.1999511719</ele>
        <time>2014-03-02T08:00:51.000Z</time>
      </trkpt>
      <trkpt lat="45.32571" lon="6.23247">
        <ele>1528.5999755859</ele>
        <time>2014-03-02T08:00:52.000Z</time>
      </trkpt>
      <trkpt lat="45.32572" lon="6.23246">
        <ele>1528.8000488281</ele>
        <time>2014-03-02T08:00:53.000Z</time>
      </trkpt>
      <trkpt lat="45.32572" lon="6.23245">
        <ele>1529</ele>
        <time>2014-03-02T08:00:54.000Z</time>
      </trkpt>
      <trkpt lat="45.32572" lon="6.23245">
        <ele>1529.1999511719</ele>
        <time>2014-03-02T08:00:55.000Z</time>
      </trkpt>
      <trkpt lat="45.32572" lon="6.23245">
        <ele>1529.1999511719</ele>
        <time>2014-03-02T08:00:57.000Z</time>
      </trkpt>
      <trkpt lat="45.32572" lon="6.23245">
        <ele>1529.1999511719</ele>
        <time>2014-03-02T08:00:58.000Z</time>
      </trkpt>
      <trkpt lat="45.32572" lon="6.23245">
        <ele>1529.1999511719</ele>
        <time>2014-03-02T08:00:59.000Z</time>
      </trkpt>
      <trkpt lat="45.32572" lon="6.23245">
        <ele>1529.1999511719</ele>
        <time>2014-03-02T08:01:00.000Z</time>
      </trkpt>
      <trkpt lat="45.32572" lon="6.23245">
        <ele>1529.1999511719</ele>
        <time>2014-03-02T08:01:04.000Z</time>
      </trkpt>
      <trkpt lat="45.32572" lon="6.23245">
        <ele>1529.1999511719</ele>
        <time>2014-03-02T08:01:05.000Z</time>
      </trkpt>
      <trkpt lat="45.32572" lon="6.23245">
        <ele>1529.1999511719</ele>
        <time>2014-03-02T08:01:06.000Z</time>
      </trkpt>
      <trkpt lat="45.32572" lon="6.23245">
        <ele>1529.1999511719</ele>
        <time>2014-03-02T08:01:07.000Z</time>
      </trkpt>
      <trkpt lat="45.32572" lon="6.23245">
        <ele>1529.1999511719</ele>
        <time>2014-03-02T08:01:08.000Z</time>
      </trkpt>
      <trkpt lat="45.32572" lon="6.23245">
        <ele>1529.1999511719</ele>
        <time>2014-03-02T08:01:10.000Z</time>
      </trkpt>
      <trkpt lat="45.32572" lon="6.23245">
        <ele>1529.1999511719</ele>
        <time>2014-03-02T08:01:11.000Z</time>
      </trkpt>
      <trkpt lat="45.32572" lon="6.23245">
        <ele>1529.1999511719</ele>
        <time>2014-03-02T08:01:12.000Z</time>
      </trkpt>
      <trkpt lat="45.32572" lon="6.23245">
        <ele>1529.1999511719</ele>
        <time>2014-03-02T08:01:13.000Z</time>
      </trkpt>
      <trkpt lat="45.32572" lon="6.23245">
        <ele>1529.1999511719</ele>
        <time>2014-03-02T08:01:15.000Z</time>
      </trkpt>
      <trkpt lat="45.32572" lon="6.23245">
        <ele>1529.1999511719</ele>
        <time>2014-03-02T08:01:16.000Z</time>
      </trkpt>
      <trkpt lat="45.32572" lon="6.23245">
        <ele>1529.1999511719</ele>
        <time>2014-03-02T08:01:17.000Z</time>
      </trkpt>
      <trkpt lat="45.32572" lon="6.23245">
        <ele>1529.1999511719</ele>
        <time>2014-03-02T08:01:18.000Z</time>
      </trkpt>
      <trkpt lat="45.32572" lon="6.23245">
        <ele>1529.1999511719</ele>
        <time>2014-03-02T08:01:19.000Z</time>
      </trkpt>
      <trkpt lat="45.32572" lon="6.23245">
        <ele>1529.1999511719</ele>
        <time>2014-03-02T08:01:20.000Z</time>
      </trkpt>
      <trkpt lat="45.32572" lon="6.23245">
        <ele>1529.1999511719</ele>
        <time>2014-03-02T08:01:21.000Z</time>
      </trkpt>
      <trkpt lat="45.32572" lon="6.23245">
        <ele>1529.1999511719</ele>
        <time>2014-03-02T08:01:22.000Z</time>
      </trkpt>
      <trkpt lat="45.32572" lon="6.23245">
        <ele>1529.1999511719</ele>
        <time>2014-03-02T08:01:23.000Z</time>
      </trkpt>
      <trkpt lat="45.32572" lon="6.23245">
        <ele>1529.1999511719</ele>
        <time>2014-03-02T08:01:24.000Z</time>
      </trkpt>
      <trkpt lat="45.32571" lon="6.23243">
        <ele>1528.8000488281</ele>
        <time>2014-03-02T08:01:25.000Z</time>
      </trkpt>
      <trkpt lat="45.3257" lon="6.23241">
        <ele>1528.8000488281</ele>
        <time>2014-03-02T08:01:26.000Z</time>
      </trkpt>
      <trkpt lat="45.32569" lon="6.2324">
        <ele>1528.5999755859</ele>
        <time>2014-03-02T08:01:27.000Z</time>
      </trkpt>
      <trkpt lat="45.3257" lon="6.2324">
        <ele>1528.8000488281</ele>
        <time>2014-03-02T08:01:28.000Z</time>
      </trkpt>
      <trkpt lat="45.32569" lon="6.23239">
        <ele>1528.8000488281</ele>
        <time>2014-03-02T08:01:29.000Z</time>
      </trkpt>
      <trkpt lat="45.32568" lon="6.23239">
        <ele>1528.1999511719</ele>
        <time>2014-03-02T08:01:31.000Z</time>
      </trkpt>
      <trkpt lat="45.32567" lon="6.23238">
        <ele>1528</ele>
        <time>2014-03-02T08:01:32.000Z</time>
      </trkpt>
      <trkpt lat="45.32566" lon="6.23238">
        <ele>1527.5999755859</ele>
        <time>2014-03-02T08:01:33.000Z</time>
      </trkpt>
      <trkpt lat="45.32566" lon="6.23237">
        <ele>1527.4000244141</ele>
        <time>2014-03-02T08:01:34.000Z</time>
      </trkpt>
      <trkpt lat="45.32565" lon="6.23237">
        <ele>1527.1999511719</ele>
        <time>2014-03-02T08:01:35.000Z</time>
      </trkpt>
      <trkpt lat="45.32565" lon="6.23236">
        <ele>1527.1999511719</ele>
        <time>2014-03-02T08:01:36.000Z</time>
      </trkpt>
      <trkpt lat="45.32565" lon="6.23235">
        <ele>1527</ele>
        <time>2014-03-02T08:01:37.000Z</time>
      </trkpt>
      <trkpt lat="45.32564" lon="6.23234">
        <ele>1527</ele>
        <time>2014-03-02T08:01:38.000Z</time>
      </trkpt>
      <trkpt lat="45.32563" lon="6.23234">
        <ele>1526.5999755859</ele>
        <time>2014-03-02T08:01:39.000Z</time>
      </trkpt>
      <trkpt lat="45.32563" lon="6.23234">
        <ele>1526.5999755859</ele>
        <time>2014-03-02T08:01:40.000Z</time>
      </trkpt>
      <trkpt lat="45.32563" lon="6.23234">
        <ele>1526.5999755859</ele>
        <time>2014-03-02T08:01:41.000Z</time>
      </trkpt>
      <trkpt lat="45.32563" lon="6.23234">
        <ele>1526.5999755859</ele>
        <time>2014-03-02T08:01:42.000Z</time>
      </trkpt>
      <trkpt lat="45.32563" lon="6.23234">
        <ele>1526.5999755859</ele>
        <time>2014-03-02T08:01:43.000Z</time>
      </trkpt>
      <trkpt lat="45.32563" lon="6.23234">
        <ele>1526.5999755859</ele>
        <time>2014-03-02T08:01:44.000Z</time>
      </trkpt>
      <trkpt lat="45.32563" lon="6.23234">
        <ele>1526.5999755859</ele>
        <time>2014-03-02T08:01:45.000Z</time>
      </trkpt>
      <trkpt lat="45.32563" lon="6.23234">
        <ele>1526.5999755859</ele>
        <time>2014-03-02T08:01:46.000Z</time>
      </trkpt>
      <trkpt lat="45.32563" lon="6.23234">
        <ele>1526.5999755859</ele>
        <time>2014-03-02T08:01:47.000Z</time>
      </trkpt>
      <trkpt lat="45.32563" lon="6.23234">
        <ele>1526.5999755859</ele>
        <time>2014-03-02T08:01:48.000Z</time>
      </trkpt>
      <trkpt lat="45.32563" lon="6.23234">
        <ele>1526.5999755859</ele>
        <time>2014-03-02T08:01:49.000Z</time>
      </trkpt>
      <trkpt lat="45.32563" lon="6.23234">
        <ele>1526.5999755859</ele>
        <time>2014-03-02T08:01:50.000Z</time>
      </trkpt>
      <trkpt lat="45.32563" lon="6.23234">
        <ele>1526.5999755859</ele>
        <time>2014-03-02T08:01:51.000Z</time>
      </trkpt>
      <trkpt lat="45.32563" lon="6.23232">
        <ele>1526.5999755859</ele>
        <time>2014-03-02T08:01:56.000Z</time>
      </trkpt>
      <trkpt lat="45.32563" lon="6.23231">
        <ele>1526.8000488281</ele>
        <time>2014-03-02T08:01:57.000Z</time>
      </trkpt>
      <trkpt lat="45.32563" lon="6.2323">
        <ele>1527</ele>
        <time>2014-03-02T08:01:58.000Z</time>
      </trkpt>
      <trkpt lat="45.32562" lon="6.23229">
        <ele>1526.8000488281</ele>
        <time>2014-03-02T08:01:59.000Z</time>
      </trkpt>
      <trkpt lat="45.32562" lon="6.23227">
        <ele>1527.1999511719</ele>
        <time>2014-03-02T08:02:00.000Z</time>
      </trkpt>
      <trkpt lat="45.32561" lon="6.23227">
        <ele>1527.1999511719</ele>
        <time>2014-03-02T08:02:01.000Z</time>
      </trkpt>
      <trkpt lat="45.32561" lon="6.23226">
        <ele>1527.1999511719</ele>
        <time>2014-03-02T08:02:02.000Z</time>
      </trkpt>
      <trkpt lat="45.32561" lon="6.23224">
        <ele>1527.4000244141</ele>
        <time>2014-03-02T08:02:03.000Z</time>
      </trkpt>
      <trkpt lat="45.3256" lon="6.23224">
        <ele>1527.1999511719</ele>
        <time>2014-03-02T08:02:04.000Z</time>
      </trkpt>
      <trkpt lat="45.3256" lon="6.23223">
        <ele>1527.4000244141</ele>
        <time>2014-03-02T08:02:05.000Z</time>
      </trkpt>
      <trkpt lat="45.3256" lon="6.23223">
        <ele>1527.4000244141</ele>
        <time>2014-03-02T08:02:06.000Z</time>
      </trkpt>
      <trkpt lat="45.3256" lon="6.23222">
        <ele>1527.5999755859</ele>
        <time>2014-03-02T08:02:07.000Z</time>
      </trkpt>
      <trkpt lat="45.3256" lon="6.2322">
        <ele>1528</ele>
        <time>2014-03-02T08:02:08.000Z</time>
      </trkpt>
      <trkpt lat="45.3256" lon="6.23219">
        <ele>1528.1999511719</ele>
        <time>2014-03-02T08:02:09.000Z</time>
      </trkpt>
      <trkpt lat="45.32559" lon="6.23217">
        <ele>1528.5999755859</ele>
        <time>2014-03-02T08:02:10.000Z</time>
      </trkpt>
      <trkpt lat="45.32559" lon="6.23217">
        <ele>1528.5999755859</ele>
        <time>2014-03-02T08:02:11.000Z</time>
      </trkpt>
      <trkpt lat="45.32559" lon="6.23215">
        <ele>1528.8000488281</ele>
        <time>2014-03-02T08:02:12.000Z</time>
      </trkpt>
      <trkpt lat="45.32558" lon="6.23215">
        <ele>1528.8000488281</ele>
        <time>2014-03-02T08:02:13.000Z</time>
      </trkpt>
      <trkpt lat="45.32558" lon="6.23214">
        <ele>1528.8000488281</ele>
        <time>2014-03-02T08:02:14.000Z</time>
      </trkpt>
      <trkpt lat="45.32557" lon="6.23211">
        <ele>1529.1999511719</ele>
        <time>2014-03-02T08:02:15.000Z</time>
      </trkpt>
      <trkpt lat="45.32557" lon="6.2321">
        <ele>1529.4000244141</ele>
        <time>2014-03-02T08:02:16.000Z</time>
      </trkpt>
      <trkpt lat="45.32557" lon="6.23208">
        <ele>1529.8000488281</ele>
        <time>2014-03-02T08:02:17.000Z</time>
      </trkpt>
      <trkpt lat="45.32557" lon="6.23208">
        <ele>1529.5999755859</ele>
        <time>2014-03-02T08:02:18.000Z</time>
      </trkpt>
      <trkpt lat="45.32556" lon="6.23206">
        <ele>1529.5999755859</ele>
        <time>2014-03-02T08:02:19.000Z</time>
      </trkpt>
      <trkpt lat="45.32556" lon="6.23206">
        <ele>1529.5999755859</ele>
        <time>2014-03-02T08:02:20.000Z</time>
      </trkpt>
      <trkpt lat="45.32555" lon="6.23205">
        <ele>1529.4000244141</ele>
        <time>2014-03-02T08:02:21.000Z</time>
      </trkpt>
      <trkpt lat="45.32554" lon="6.23203">
        <ele>1529.4000244141</ele>
        <time>2014-03-02T08:02:22.000Z</time>
      </trkpt>
      <trkpt lat="45.32554" lon="6.23203">
        <ele>1529.5999755859</ele>
        <time>2014-03-02T08:02:23.000Z</time>
      </trkpt>
      <trkpt lat="45.32554" lon="6.23203">
        <ele>1529.5999755859</ele>
        <time>2014-03-02T08:02:24.000Z</time>
      </trkpt>
      <trkpt lat="45.32553" lon="6.23202">
        <ele>1529.4000244141</ele>
        <time>2014-03-02T08:02:25.000Z</time>
      </trkpt>
      <trkpt lat="45.32553" lon="6.23201">
        <ele>1529.4000244141</ele>
        <time>2014-03-02T08:02:26.000Z</time>
      </trkpt>
      <trkpt lat="45.32552" lon="6.232">
        <ele>1529.1999511719</ele>
        <time>2014-03-02T08:02:27.000Z</time>
      </trkpt>
      <trkpt lat="45.32551" lon="6.23199">
        <ele>1529</ele>
        <time>2014-03-02T08:02:28.000Z</time>
      </trkpt>
      <trkpt lat="45.3255" lon="6.23197">
        <ele>1529</ele>
        <time>2014-03-02T08:02:30.000Z</time>
      </trkpt>
      <trkpt lat="45.32549" lon="6.23196">
        <ele>1528.8000488281</ele>
        <time>2014-03-02T08:02:31.000Z</time>
      </trkpt>
      <trkpt lat="45.32549" lon="6.23196">
        <ele>1528.5999755859</ele>
        <time>2014-03-02T08:02:32.000Z</time>
      </trkpt>
      <trkpt lat="45.32547" lon="6.23194">
        <ele>1528.4000244141</ele>
        <time>2014-03-02T08:02:33.000Z</time>
      </trkpt>
      <trkpt lat="45.32546" lon="6.23193">
        <ele>1528.4000244141</ele>
        <time>2014-03-02T08:02:34.000Z</time>
      </trkpt>
      <trkpt lat="45.32546" lon="6.23193">
        <ele>1528.1999511719</ele>
        <time>2014-03-02T08:02:35.000Z</time>
      </trkpt>
      <trkpt lat="45.32545" lon="6.23191">
        <ele>1528.1999511719</ele>
        <time>2014-03-02T08:02:36.000Z</time>
      </trkpt>
      <trkpt lat="45.32544" lon="6.23191">
        <ele>1528.1999511719</ele>
        <time>2014-03-02T08:02:37.000Z</time>
      </trkpt>
      <trkpt lat="45.32543" lon="6.2319">
        <ele>1528.1999511719</ele>
        <time>2014-03-02T08:02:38.000Z</time>
      </trkpt>
      <trkpt lat="45.32541" lon="6.23189">
        <ele>1528</ele>
        <time>2014-03-02T08:02:39.000Z</time>
      </trkpt>
      <trkpt lat="45.32541" lon="6.23189">
        <ele>1528</ele>
        <time>2014-03-02T08:02:40.000Z</time>
      </trkpt>
      <trkpt lat="45.32541" lon="6.23189">
        <ele>1528</ele>
        <time>2014-03-02T08:02:41.000Z</time>
      </trkpt>
      <trkpt lat="45.32541" lon="6.23188">
        <ele>1528.1999511719</ele>
        <time>2014-03-02T08:02:42.000Z</time>
      </trkpt>
      <trkpt lat="45.32541" lon="6.23187">
        <ele>1528.4000244141</ele>
        <time>2014-03-02T08:02:43.000Z</time>
      </trkpt>
      <trkpt lat="45.32541" lon="6.23186">
        <ele>1528.5999755859</ele>
        <time>2014-03-02T08:02:44.000Z</time>
      </trkpt>
      <trkpt lat="45.3254" lon="6.23185">
        <ele>1528.8000488281</ele>
        <time>2014-03-02T08:02:45.000Z</time>
      </trkpt>
      <trkpt lat="45.3254" lon="6.23185">
        <ele>1529</ele>
        <time>2014-03-02T08:02:46.000Z</time>
      </trkpt>
      <trkpt lat="45.3254" lon="6.23184">
        <ele>1529.1999511719</ele>
        <time>2014-03-02T08:02:47.000Z</time>
      </trkpt>
      <trkpt lat="45.3254" lon="6.23183">
        <ele>1529.4000244141</ele>
        <time>2014-03-02T08:02:48.000Z</time>
      </trkpt>
      <trkpt lat="45.3254" lon="6.23182">
        <ele>1529.4000244141</ele>
        <time>2014-03-02T08:02:49.000Z</time>
      </trkpt>
      <trkpt lat="45.3254" lon="6.23181">
        <ele>1529.8000488281</ele>
        <time>2014-03-02T08:02:50.000Z</time>
      </trkpt>
      <trkpt lat="45.3254" lon="6.2318">
        <ele>1529.8000488281</ele>
        <time>2014-03-02T08:02:51.000Z</time>
      </trkpt>
      <trkpt lat="45.32539" lon="6.2318">
        <ele>1529.8000488281</ele>
        <time>2014-03-02T08:02:52.000Z</time>
      </trkpt>
      <trkpt lat="45.32538" lon="6.23178">
        <ele>1530.1999511719</ele>
        <time>2014-03-02T08:02:53.000Z</time>
      </trkpt>
      <trkpt lat="45.32538" lon="6.23178">
        <ele>1530.1999511719</ele>
        <time>2014-03-02T08:02:54.000Z</time>
      </trkpt>
      <trkpt lat="45.32537" lon="6.23176">
        <ele>1530.1999511719</ele>
        <time>2014-03-02T08:02:55.000Z</time>
      </trkpt>
      <trkpt lat="45.32536" lon="6.23176">
        <ele>1530.1999511719</ele>
        <time>2014-03-02T08:02:56.000Z</time>
      </trkpt>
      <trkpt lat="45.32535" lon="6.23174">
        <ele>1530.5999755859</ele>
        <time>2014-03-02T08:02:57.000Z</time>
      </trkpt>
      <trkpt lat="45.32535" lon="6.23174">
        <ele>1530.4000244141</ele>
        <time>2014-03-02T08:02:58.000Z</time>
      </trkpt>
      <trkpt lat="45.32534" lon="6.23173">
        <ele>1530.4000244141</ele>
        <time>2014-03-02T08:02:59.000Z</time>
      </trkpt>
      <trkpt lat="45.32534" lon="6.23173">
        <ele>1530.4000244141</ele>
        <time>2014-03-02T08:03:00.000Z</time>
      </trkpt>
      <trkpt lat="45.32534" lon="6.23172">
        <ele>1530.5999755859</ele>
        <time>2014-03-02T08:03:01.000Z</time>
      </trkpt>
      <trkpt lat="45.32534" lon="6.23171">
        <ele>1531</ele>
        <time>2014-03-02T08:03:02.000Z</time>
      </trkpt>
      <trkpt lat="45.32534" lon="6.2317">
        <ele>1531</ele>
        <time>2014-03-02T08:03:03.000Z</time>
      </trkpt>
      <trkpt lat="45.32534" lon="6.23169">
        <ele>1531.4000244141</ele>
        <time>2014-03-02T08:03:04.000Z</time>
      </trkpt>
      <trkpt lat="45.32533" lon="6.23168">
        <ele>1531.4000244141</ele>
        <time>2014-03-02T08:03:05.000Z</time>
      </trkpt>
      <trkpt lat="45.32533" lon="6.23167">
        <ele>1531.5999755859</ele>
        <time>2014-03-02T08:03:06.000Z</time>
      </trkpt>
      <trkpt lat="45.32532" lon="6.23166">
        <ele>1531.8000488281</ele>
        <time>2014-03-02T08:03:07.000Z</time>
      </trkpt>
      <trkpt lat="45.32531" lon="6.23164">
        <ele>1532.1999511719</ele>
        <time>2014-03-02T08:03:08.000Z</time>
      </trkpt>
      <trkpt lat="45.32531" lon="6.23164">
        <ele>1532.1999511719</ele>
        <time>2014-03-02T08:03:09.000Z</time>
      </trkpt>
      <trkpt lat="45.32531" lon="6.23163">
        <ele>1532.4000244141</ele>
        <time>2014-03-02T08:03:10.000Z</time>
      </trkpt>
      <trkpt lat="45.32531" lon="6.23162">
        <ele>1532.5999755859</ele>
        <time>2014-03-02T08:03:11.000Z</time>
      </trkpt>
      <trkpt lat="45.3253" lon="6.23161">
        <ele>1532.8000488281</ele>
        <time>2014-03-02T08:03:12.000Z</time>
      </trkpt>
      <trkpt lat="45.3253" lon="6.2316">
        <ele>1532.8000488281</ele>
        <time>2014-03-02T08:03:13.000Z</time>
      </trkpt>
      <trkpt lat="45.3253" lon="6.23159">
        <ele>1533</ele>
        <time>2014-03-02T08:03:14.000Z</time>
      </trkpt>
      <trkpt lat="45.32529" lon="6.23159">
        <ele>1533</ele>
        <time>2014-03-02T08:03:15.000Z</time>
      </trkpt>
      <trkpt lat="45.32529" lon="6.23158">
        <ele>1533</ele>
        <time>2014-03-02T08:03:16.000Z</time>
      </trkpt>
      <trkpt lat="45.32528" lon="6.23157">
        <ele>1533.1999511719</ele>
        <time>2014-03-02T08:03:17.000Z</time>
      </trkpt>
      <trkpt lat="45.32528" lon="6.23156">
        <ele>1533.4000244141</ele>
        <time>2014-03-02T08:03:18.000Z</time>
      </trkpt>
      <trkpt lat="45.32527" lon="6.23155">
        <ele>1533.5999755859</ele>
        <time>2014-03-02T08:03:19.000Z</time>
      </trkpt>
      <trkpt lat="45.32527" lon="6.23154">
        <ele>1533.5999755859</ele>
        <time>2014-03-02T08:03:20.000Z</time>
      </trkpt>
      <trkpt lat="45.32527" lon="6.23153">
        <ele>1534</ele>
        <time>2014-03-02T08:03:21.000Z</time>
      </trkpt>
      <trkpt lat="45.32526" lon="6.23152">
        <ele>1534</ele>
        <time>2014-03-02T08:03:22.000Z</time>
      </trkpt>
      <trkpt lat="45.32526" lon="6.2315">
        <ele>1534.4000244141</ele>
        <time>2014-03-02T08:03:23.000Z</time>
      </trkpt>
      <trkpt lat="45.32525" lon="6.2315">
        <ele>1534.4000244141</ele>
        <time>2014-03-02T08:03:24.000Z</time>
      </trkpt>
      <trkpt lat="45.32525" lon="6.23148">
        <ele>1534.8000488281</ele>
        <time>2014-03-02T08:03:25.000Z</time>
      </trkpt>
      <trkpt lat="45.32525" lon="6.23148">
        <ele>1534.8000488281</ele>
        <time>2014-03-02T08:03:26.000Z</time>
      </trkpt>
      <trkpt lat="45.32525" lon="6.23146">
        <ele>1535.4000244141</ele>
        <time>2014-03-02T08:03:27.000Z</time>
      </trkpt>
      <trkpt lat="45.32525" lon="6.23146">
        <ele>1535.4000244141</ele>
        <time>2014-03-02T08:03:28.000Z</time>
      </trkpt>
      <trkpt lat="45.32525" lon="6.23145">
        <ele>1535.5999755859</ele>
        <time>2014-03-02T08:03:29.000Z</time>
      </trkpt>
      <trkpt lat="45.32525" lon="6.23145">
        <ele>1535.5999755859</ele>
        <time>2014-03-02T08:03:30.000Z</time>
      </trkpt>
      <trkpt lat="45.32525" lon="6.23145">
        <ele>1535.5999755859</ele>
        <time>2014-03-02T08:03:31.000Z</time>
      </trkpt>
      <trkpt lat="45.32525" lon="6.23145">
        <ele>1535.5999755859</ele>
        <time>2014-03-02T08:03:32.000Z</time>
      </trkpt>
      <trkpt lat="45.32525" lon="6.23145">
        <ele>1535.5999755859</ele>
        <time>2014-03-02T08:03:33.000Z</time>
      </trkpt>
      <trkpt lat="45.32525" lon="6.23145">
        <ele>1535.5999755859</ele>
        <time>2014-03-02T08:03:34.000Z</time>
      </trkpt>
      <trkpt lat="45.32525" lon="6.23145">
        <ele>1535.5999755859</ele>
        <time>2014-03-02T08:03:35.000Z</time>
      </trkpt>
      <trkpt lat="45.32525" lon="6.23145">
        <ele>1535.5999755859</ele>
        <time>2014-03-02T08:03:36.000Z</time>
      </trkpt>
      <trkpt lat="45.32525" lon="6.23145">
        <ele>1535.5999755859</ele>
        <time>2014-03-02T08:03:37.000Z</time>
      </trkpt>
      <trkpt lat="45.32525" lon="6.23145">
        <ele>1535.5999755859</ele>
        <time>2014-03-02T08:03:38.000Z</time>
      </trkpt>
      <trkpt lat="45.32525" lon="6.23145">
        <ele>1535.5999755859</ele>
        <time>2014-03-02T08:03:39.000Z</time>
      </trkpt>
      <trkpt lat="45.32525" lon="6.23145">
        <ele>1535.5999755859</ele>
        <time>2014-03-02T08:03:40.000Z</time>
      </trkpt>
      <trkpt lat="45.32525" lon="6.23145">
        <ele>1535.5999755859</ele>
        <time>2014-03-02T08:03:41.000Z</time>
      </trkpt>
      <trkpt lat="45.32524" lon="6.23144">
        <ele>1535.4000244141</ele>
        <time>2014-03-02T08:03:42.000Z</time>
      </trkpt>
      <trkpt lat="45.32524" lon="6.23144">
        <ele>1535.4000244141</ele>
        <time>2014-03-02T08:03:43.000Z</time>
      </trkpt>
      <trkpt lat="45.32524" lon="6.23144">
        <ele>1535.4000244141</ele>
        <time>2014-03-02T08:03:44.000Z</time>
      </trkpt>
      <trkpt lat="45.32524" lon="6.23143">
        <ele>1535.4000244141</ele>
        <time>2014-03-02T08:03:45.000Z</time>
      </trkpt>
      <trkpt lat="45.32524" lon="6.23143">
        <ele>1535.4000244141</ele>
        <time>2014-03-02T08:03:46.000Z</time>
      </trkpt>
      <trkpt lat="45.32524" lon="6.23142">
        <ele>1535.5999755859</ele>
        <time>2014-03-02T08:03:47.000Z</time>
      </trkpt>
      <trkpt lat="45.32525" lon="6.23142">
        <ele>1535.8000488281</ele>
        <time>2014-03-02T08:03:48.000Z</time>
      </trkpt>
      <trkpt lat="45.32525" lon="6.23139">
        <ele>1536</ele>
        <time>2014-03-02T08:03:51.000Z</time>
      </trkpt>
      <trkpt lat="45.32525" lon="6.23137">
        <ele>1536.4000244141</ele>
        <time>2014-03-02T08:03:52.000Z</time>
      </trkpt>
      <trkpt lat="45.32525" lon="6.23137">
        <ele>1536.4000244141</ele>
        <time>2014-03-02T08:03:53.000Z</time>
      </trkpt>
      <trkpt lat="45.32525" lon="6.23136">
        <ele>1536.4000244141</ele>
        <time>2014-03-02T08:03:54.000Z</time>
      </trkpt>
      <trkpt lat="45.32525" lon="6.23135">
        <ele>1536.5999755859</ele>
        <time>2014-03-02T08:03:55.000Z</time>
      </trkpt>
      <trkpt lat="45.32525" lon="6.23133">
        <ele>1536.5999755859</ele>
        <time>2014-03-02T08:03:56.000Z</time>
      </trkpt>
      <trkpt lat="45.32525" lon="6.23134">
        <ele>1536.5999755859</ele>
        <time>2014-03-02T08:03:57.000Z</time>
      </trkpt>
      <trkpt lat="45.32525" lon="6.23133">
        <ele>1536.8000488281</ele>
        <time>2014-03-02T08:03:58.000Z</time>
      </trkpt>
      <trkpt lat="45.32525" lon="6.23132">
        <ele>1536.8000488281</ele>
        <time>2014-03-02T08:03:59.000Z</time>
      </trkpt>
      <trkpt lat="45.32525" lon="6.23132">
        <ele>1536.8000488281</ele>
        <time>2014-03-02T08:04:00.000Z</time>
      </trkpt>
      <trkpt lat="45.32525" lon="6.23132">
        <ele>1536.8000488281</ele>
        <time>2014-03-02T08:04:01.000Z</time>
      </trkpt>
      <trkpt lat="45.32525" lon="6.2313">
        <ele>1537.1999511719</ele>
        <time>2014-03-02T08:04:02.000Z</time>
      </trkpt>
      <trkpt lat="45.32525" lon="6.2313">
        <ele>1537</ele>
        <time>2014-03-02T08:04:03.000Z</time>
      </trkpt>
      <trkpt lat="45.32525" lon="6.23129">
        <ele>1537.1999511719</ele>
        <time>2014-03-02T08:04:04.000Z</time>
      </trkpt>
      <trkpt lat="45.32524" lon="6.23127">
        <ele>1537.1999511719</ele>
        <time>2014-03-02T08:04:05.000Z</time>
      </trkpt>
      <trkpt lat="45.32524" lon="6.23126">
        <ele>1537.4000244141</ele>
        <time>2014-03-02T08:04:06.000Z</time>
      </trkpt>
      <trkpt lat="45.32524" lon="6.23125">
        <ele>1537.4000244141</ele>
        <time>2014-03-02T08:04:07.000Z</time>
      </trkpt>
      <trkpt lat="45.32524" lon="6.23123">
        <ele>1537.5999755859</ele>
        <time>2014-03-02T08:04:08.000Z</time>
      </trkpt>
      <trkpt lat="45.32524" lon="6.23123">
        <ele>1537.5999755859</ele>
        <time>2014-03-02T08:04:09.000Z</time>
      </trkpt>
      <trkpt lat="45.32524" lon="6.23121">
        <ele>1537.8000488281</ele>
        <time>2014-03-02T08:04:10.000Z</time>
      </trkpt>
      <trkpt lat="45.32524" lon="6.2312">
        <ele>1538</ele>
        <time>2014-03-02T08:04:11.000Z</time>
      </trkpt>
      <trkpt lat="45.32525" lon="6.23118">
        <ele>1538.1999511719</ele>
        <time>2014-03-02T08:04:12.000Z</time>
      </trkpt>
      <trkpt lat="45.32525" lon="6.23116">
        <ele>1538.4000244141</ele>
        <time>2014-03-02T08:04:13.000Z</time>
      </trkpt>
      <trkpt lat="45.32525" lon="6.23115">
        <ele>1538.4000244141</ele>
        <time>2014-03-02T08:04:14.000Z</time>
      </trkpt>
      <trkpt lat="45.32526" lon="6.23113">
        <ele>1538.5999755859</ele>
        <time>2014-03-02T08:04:15.000Z</time>
      </trkpt>
      <trkpt lat="45.32526" lon="6.23112">
        <ele>1538.8000488281</ele>
        <time>2014-03-02T08:04:16.000Z</time>
      </trkpt>
      <trkpt lat="45.32526" lon="6.2311">
        <ele>1539</ele>
        <time>2014-03-02T08:04:17.000Z</time>
      </trkpt>
      <trkpt lat="45.32526" lon="6.2311">
        <ele>1539</ele>
        <time>2014-03-02T08:04:18.000Z</time>
      </trkpt>
      <trkpt lat="45.32526" lon="6.23108">
        <ele>1539.1999511719</ele>
        <time>2014-03-02T08:04:19.000Z</time>
      </trkpt>
      <trkpt lat="45.32526" lon="6.23108">
        <ele>1539</ele>
        <time>2014-03-02T08:04:20.000Z</time>
      </trkpt>
      <trkpt lat="45.32526" lon="6.23107">
        <ele>1539.1999511719</ele>
        <time>2014-03-02T08:04:21.000Z</time>
      </trkpt>
      <trkpt lat="45.32525" lon="6.23107">
        <ele>1539</ele>
        <time>2014-03-02T08:04:23.000Z</time>
      </trkpt>
      <trkpt lat="45.32525" lon="6.23106">
        <ele>1539</ele>
        <time>2014-03-02T08:04:24.000Z</time>
      </trkpt>
      <trkpt lat="45.32524" lon="6.23106">
        <ele>1539</ele>
        <time>2014-03-02T08:04:25.000Z</time>
      </trkpt>
      <trkpt lat="45.32524" lon="6.23105">
        <ele>1539</ele>
        <time>2014-03-02T08:04:26.000Z</time>
      </trkpt>
      <trkpt lat="45.32524" lon="6.23103">
        <ele>1539.1999511719</ele>
        <time>2014-03-02T08:04:27.000Z</time>
      </trkpt>
      <trkpt lat="45.32524" lon="6.23102">
        <ele>1539.1999511719</ele>
        <time>2014-03-02T08:04:28.000Z</time>
      </trkpt>
      <trkpt lat="45.32524" lon="6.23102">
        <ele>1539</ele>
        <time>2014-03-02T08:04:29.000Z</time>
      </trkpt>
      <trkpt lat="45.32523" lon="6.23102">
        <ele>1539</ele>
        <time>2014-03-02T08:04:30.000Z</time>
      </trkpt>
      <trkpt lat="45.32523" lon="6.23101">
        <ele>1539</ele>
        <time>2014-03-02T08:04:31.000Z</time>
      </trkpt>
      <trkpt lat="45.32523" lon="6.23101">
        <ele>1539</ele>
        <time>2014-03-02T08:04:32.000Z</time>
      </trkpt>
      <trkpt lat="45.32523" lon="6.231">
        <ele>1539</ele>
        <time>2014-03-02T08:04:33.000Z</time>
      </trkpt>
      <trkpt lat="45.32523" lon="6.231">
        <ele>1539.1999511719</ele>
        <time>2014-03-02T08:04:34.000Z</time>
      </trkpt>
      <trkpt lat="45.32523" lon="6.23099">
        <ele>1539.1999511719</ele>
        <time>2014-03-02T08:04:35.000Z</time>
      </trkpt>
      <trkpt lat="45.32523" lon="6.23098">
        <ele>1539.1999511719</ele>
        <time>2014-03-02T08:04:36.000Z</time>
      </trkpt>
      <trkpt lat="45.32523" lon="6.23097">
        <ele>1539.4000244141</ele>
        <time>2014-03-02T08:04:37.000Z</time>
      </trkpt>
      <trkpt lat="45.32523" lon="6.23096">
        <ele>1539.4000244141</ele>
        <time>2014-03-02T08:04:38.000Z</time>
      </trkpt>
      <trkpt lat="45.32523" lon="6.23095">
        <ele>1539.4000244141</ele>
        <time>2014-03-02T08:04:39.000Z</time>
      </trkpt>
      <trkpt lat="45.32523" lon="6.23094">
        <ele>1539.5999755859</ele>
        <time>2014-03-02T08:04:40.000Z</time>
      </trkpt>
      <trkpt lat="45.32523" lon="6.23094">
        <ele>1539.5999755859</ele>
        <time>2014-03-02T08:04:41.000Z</time>
      </trkpt>
      <trkpt lat="45.32523" lon="6.23093">
        <ele>1539.4000244141</ele>
        <time>2014-03-02T08:04:42.000Z</time>
      </trkpt>
      <trkpt lat="45.32523" lon="6.23092">
        <ele>1539.5999755859</ele>
        <time>2014-03-02T08:04:43.000Z</time>
      </trkpt>
      <trkpt lat="45.32522" lon="6.23091">
        <ele>1539.5999755859</ele>
        <time>2014-03-02T08:04:44.000Z</time>
      </trkpt>
      <trkpt lat="45.32522" lon="6.2309">
        <ele>1539.5999755859</ele>
        <time>2014-03-02T08:04:45.000Z</time>
      </trkpt>
      <trkpt lat="45.32522" lon="6.23089">
        <ele>1539.5999755859</ele>
        <time>2014-03-02T08:04:46.000Z</time>
      </trkpt>
      <trkpt lat="45.32522" lon="6.23088">
        <ele>1539.5999755859</ele>
        <time>2014-03-02T08:04:47.000Z</time>
      </trkpt>
      <trkpt lat="45.32522" lon="6.23087">
        <ele>1539.5999755859</ele>
        <time>2014-03-02T08:04:48.000Z</time>
      </trkpt>
      <trkpt lat="45.32521" lon="6.23085">
        <ele>1539.8000488281</ele>
        <time>2014-03-02T08:04:49.000Z</time>
      </trkpt>
      <trkpt lat="45.32521" lon="6.23085">
        <ele>1539.8000488281</ele>
        <time>2014-03-02T08:04:50.000Z</time>
      </trkpt>
      <trkpt lat="45.32521" lon="6.23083">
        <ele>1539.8000488281</ele>
        <time>2014-03-02T08:04:51.000Z</time>
      </trkpt>
      <trkpt lat="45.32521" lon="6.23083">
        <ele>1539.8000488281</ele>
        <time>2014-03-02T08:04:52.000Z</time>
      </trkpt>
      <trkpt lat="45.3252" lon="6.23082">
        <ele>1539.8000488281</ele>
        <time>2014-03-02T08:04:53.000Z</time>
      </trkpt>
      <trkpt lat="45.3252" lon="6.23082">
        <ele>1539.8000488281</ele>
        <time>2014-03-02T08:04:54.000Z</time>
      </trkpt>
      <trkpt lat="45.32521" lon="6.23081">
        <ele>1539.8000488281</ele>
        <time>2014-03-02T08:04:55.000Z</time>
      </trkpt>
      <trkpt lat="45.32521" lon="6.2308">
        <ele>1540</ele>
        <time>2014-03-02T08:04:56.000Z</time>
      </trkpt>
      <trkpt lat="45.3252" lon="6.2308">
        <ele>1540</ele>
        <time>2014-03-02T08:04:57.000Z</time>
      </trkpt>
      <trkpt lat="45.3252" lon="6.23079">
        <ele>1540</ele>
        <time>2014-03-02T08:04:58.000Z</time>
      </trkpt>
      <trkpt lat="45.3252" lon="6.23079">
        <ele>1540</ele>
        <time>2014-03-02T08:04:59.000Z</time>
      </trkpt>
      <trkpt lat="45.3252" lon="6.23078">
        <ele>1540.1999511719</ele>
        <time>2014-03-02T08:05:00.000Z</time>
      </trkpt>
      <trkpt lat="45.3252" lon="6.23078">
        <ele>1540.1999511719</ele>
        <time>2014-03-02T08:05:01.000Z</time>
      </trkpt>
      <trkpt lat="45.3252" lon="6.23078">
        <ele>1540.1999511719</ele>
        <time>2014-03-02T08:05:02.000Z</time>
      </trkpt>
      <trkpt lat="45.3252" lon="6.23078">
        <ele>1540.1999511719</ele>
        <time>2014-03-02T08:05:03.000Z</time>
      </trkpt>
      <trkpt lat="45.32521" lon="6.23076">
        <ele>1540.4000244141</ele>
        <time>2014-03-02T08:05:04.000Z</time>
      </trkpt>
      <trkpt lat="45.32521" lon="6.23075">
        <ele>1540.4000244141</ele>
        <time>2014-03-02T08:05:05.000Z</time>
      </trkpt>
      <trkpt lat="45.32521" lon="6.23074">
        <ele>1540.5999755859</ele>
        <time>2014-03-02T08:05:06.000Z</time>
      </trkpt>
      <trkpt lat="45.32521" lon="6.23074">
        <ele>1540.5999755859</ele>
        <time>2014-03-02T08:05:07.000Z</time>
      </trkpt>
      <trkpt lat="45.32521" lon="6.23072">
        <ele>1540.5999755859</ele>
        <time>2014-03-02T08:05:08.000Z</time>
      </trkpt>
      <trkpt lat="45.32521" lon="6.23071">
        <ele>1540.8000488281</ele>
        <time>2014-03-02T08:05:09.000Z</time>
      </trkpt>
      <trkpt lat="45.32521" lon="6.2307">
        <ele>1540.8000488281</ele>
        <time>2014-03-02T08:05:10.000Z</time>
      </trkpt>
      <trkpt lat="45.32521" lon="6.23069">
        <ele>1541</ele>
        <time>2014-03-02T08:05:11.000Z</time>
      </trkpt>
      <trkpt lat="45.32521" lon="6.23066">
        <ele>1541.1999511719</ele>
        <time>2014-03-02T08:05:12.000Z</time>
      </trkpt>
      <trkpt lat="45.32521" lon="6.23066">
        <ele>1541.1999511719</ele>
        <time>2014-03-02T08:05:13.000Z</time>
      </trkpt>
      <trkpt lat="45.32521" lon="6.23064">
        <ele>1541.4000244141</ele>
        <time>2014-03-02T08:05:14.000Z</time>
      </trkpt>
      <trkpt lat="45.32521" lon="6.23063">
        <ele>1541.4000244141</ele>
        <time>2014-03-02T08:05:15.000Z</time>
      </trkpt>
      <trkpt lat="45.32521" lon="6.23063">
        <ele>1541.4000244141</ele>
        <time>2014-03-02T08:05:16.000Z</time>
      </trkpt>
      <trkpt lat="45.32521" lon="6.23063">
        <ele>1541.4000244141</ele>
        <time>2014-03-02T08:05:17.000Z</time>
      </trkpt>
      <trkpt lat="45.32521" lon="6.23063">
        <ele>1541.4000244141</ele>
        <time>2014-03-02T08:05:18.000Z</time>
      </trkpt>
      <trkpt lat="45.32521" lon="6.23063">
        <ele>1541.4000244141</ele>
        <time>2014-03-02T08:05:19.000Z</time>
      </trkpt>
      <trkpt lat="45.32521" lon="6.23063">
        <ele>1541.4000244141</ele>
        <time>2014-03-02T08:05:20.000Z</time>
      </trkpt>
      <trkpt lat="45.32521" lon="6.2306">
        <ele>1541.8000488281</ele>
        <time>2014-03-02T08:05:21.000Z</time>
      </trkpt>
      <trkpt lat="45.32521" lon="6.23057">
        <ele>1541.8000488281</ele>
        <time>2014-03-02T08:05:23.000Z</time>
      </trkpt>
      <trkpt lat="45.3252" lon="6.23055">
        <ele>1542.1999511719</ele>
        <time>2014-03-02T08:05:25.000Z</time>
      </trkpt>
      <trkpt lat="45.3252" lon="6.23055">
        <ele>1542</ele>
        <time>2014-03-02T08:05:26.000Z</time>
      </trkpt>
      <trkpt lat="45.3252" lon="6.23054">
        <ele>1542</ele>
        <time>2014-03-02T08:05:27.000Z</time>
      </trkpt>
      <trkpt lat="45.3252" lon="6.23054">
        <ele>1542</ele>
        <time>2014-03-02T08:05:28.000Z</time>
      </trkpt>
      <trkpt lat="45.3252" lon="6.23054">
        <ele>1542</ele>
        <time>2014-03-02T08:05:29.000Z</time>
      </trkpt>
      <trkpt lat="45.3252" lon="6.23054">
        <ele>1542</ele>
        <time>2014-03-02T08:05:30.000Z</time>
      </trkpt>
      <trkpt lat="45.3252" lon="6.23054">
        <ele>1542</ele>
        <time>2014-03-02T08:05:35.000Z</time>
      </trkpt>
      <trkpt lat="45.3252" lon="6.23054">
        <ele>1542</ele>
        <time>2014-03-02T08:05:36.000Z</time>
      </trkpt>
      <trkpt lat="45.3252" lon="6.23054">
        <ele>1542</ele>
        <time>2014-03-02T08:05:37.000Z</time>
      </trkpt>
      <trkpt lat="45.3252" lon="6.23054">
        <ele>1542</ele>
        <time>2014-03-02T08:05:38.000Z</time>
      </trkpt>
      <trkpt lat="45.3252" lon="6.23054">
        <ele>1542</ele>
        <time>2014-03-02T08:05:39.000Z</time>
      </trkpt>
      <trkpt lat="45.3252" lon="6.23054">
        <ele>1542</ele>
        <time>2014-03-02T08:05:40.000Z</time>
      </trkpt>
      <trkpt lat="45.3252" lon="6.23054">
        <ele>1542</ele>
        <time>2014-03-02T08:05:41.000Z</time>
      </trkpt>
      <trkpt lat="45.3252" lon="6.23054">
        <ele>1542</ele>
        <time>2014-03-02T08:05:42.000Z</time>
      </trkpt>
      <trkpt lat="45.3252" lon="6.23054">
        <ele>1542</ele>
        <time>2014-03-02T08:05:43.000Z</time>
      </trkpt>
      <trkpt lat="45.3252" lon="6.23054">
        <ele>1542</ele>
        <time>2014-03-02T08:05:44.000Z</time>
      </trkpt>
      <trkpt lat="45.3252" lon="6.23054">
        <ele>1542</ele>
        <time>2014-03-02T08:05:45.000Z</time>
      </trkpt>
      <trkpt lat="45.3252" lon="6.23054">
        <ele>1542</ele>
        <time>2014-03-02T08:05:46.000Z</time>
      </trkpt>
      <trkpt lat="45.3252" lon="6.23054">
        <ele>1542</ele>
        <time>2014-03-02T08:05:47.000Z</time>
      </trkpt>
      <trkpt lat="45.3252" lon="6.23054">
        <ele>1542</ele>
        <time>2014-03-02T08:05:48.000Z</time>
      </trkpt>
      <trkpt lat="45.3252" lon="6.23054">
        <ele>1542</ele>
        <time>2014-03-02T08:05:49.000Z</time>
      </trkpt>
      <trkpt lat="45.3252" lon="6.23054">
        <ele>1542</ele>
        <time>2014-03-02T08:05:50.000Z</time>
      </trkpt>
      <trkpt lat="45.3252" lon="6.23054">
        <ele>1542.1999511719</ele>
        <time>2014-03-02T08:05:51.000Z</time>
      </trkpt>
      <trkpt lat="45.3252" lon="6.23053">
        <ele>1542.1999511719</ele>
        <time>2014-03-02T08:05:52.000Z</time>
      </trkpt>
      <trkpt lat="45.32519" lon="6.23051">
        <ele>1542.4000244141</ele>
        <time>2014-03-02T08:05:53.000Z</time>
      </trkpt>
      <trkpt lat="45.32519" lon="6.23051">
        <ele>1542.4000244141</ele>
        <time>2014-03-02T08:05:54.000Z</time>
      </trkpt>
      <trkpt lat="45.32519" lon="6.23049">
        <ele>1542.4000244141</ele>
        <time>2014-03-02T08:05:55.000Z</time>
      </trkpt>
      <trkpt lat="45.32519" lon="6.23049">
        <ele>1542.5999755859</ele>
        <time>2014-03-02T08:05:56.000Z</time>
      </trkpt>
      <trkpt lat="45.32519" lon="6.23048">
        <ele>1542.5999755859</ele>
        <time>2014-03-02T08:05:57.000Z</time>
      </trkpt>
      <trkpt lat="45.32518" lon="6.23045">
        <ele>1542.8000488281</ele>
        <time>2014-03-02T08:05:58.000Z</time>
      </trkpt>
      <trkpt lat="45.32518" lon="6.23045">
        <ele>1542.8000488281</ele>
        <time>2014-03-02T08:05:59.000Z</time>
      </trkpt>
      <trkpt lat="45.32518" lon="6.23042">
        <ele>1543</ele>
        <time>2014-03-02T08:06:00.000Z</time>
      </trkpt>
      <trkpt lat="45.32518" lon="6.23041">
        <ele>1543.1999511719</ele>
        <time>2014-03-02T08:06:01.000Z</time>
      </trkpt>
      <trkpt lat="45.32517" lon="6.2304">
        <ele>1543.1999511719</ele>
        <time>2014-03-02T08:06:02.000Z</time>
      </trkpt>
      <trkpt lat="45.32518" lon="6.2304">
        <ele>1543.1999511719</ele>
        <time>2014-03-02T08:06:03.000Z</time>
      </trkpt>
      <trkpt lat="45.32517" lon="6.23038">
        <ele>1543.4000244141</ele>
        <time>2014-03-02T08:06:04.000Z</time>
      </trkpt>
      <trkpt lat="45.32517" lon="6.23038">
        <ele>1543.4000244141</ele>
        <time>2014-03-02T08:06:05.000Z</time>
      </trkpt>
      <trkpt lat="45.32518" lon="6.23038">
        <ele>1543.5999755859</ele>
        <time>2014-03-02T08:06:06.000Z</time>
      </trkpt>
      <trkpt lat="45.32518" lon="6.23038">
        <ele>1543.5999755859</ele>
        <time>2014-03-02T08:06:07.000Z</time>
      </trkpt>
      <trkpt lat="45.32518" lon="6.23038">
        <ele>1543.5999755859</ele>
        <time>2014-03-02T08:06:08.000Z</time>
      </trkpt>
      <trkpt lat="45.32518" lon="6.23038">
        <ele>1543.5999755859</ele>
        <time>2014-03-02T08:06:09.000Z</time>
      </trkpt>
      <trkpt lat="45.32518" lon="6.23038">
        <ele>1543.5999755859</ele>
        <time>2014-03-02T08:06:10.000Z</time>
      </trkpt>
      <trkpt lat="45.32517" lon="6.23036">
        <ele>1543.5999755859</ele>
        <time>2014-03-02T08:06:11.000Z</time>
      </trkpt>
      <trkpt lat="45.32517" lon="6.23036">
        <ele>1543.5999755859</ele>
        <time>2014-03-02T08:06:12.000Z</time>
      </trkpt>
      <trkpt lat="45.32516" lon="6.23034">
        <ele>1543.5999755859</ele>
        <time>2014-03-02T08:06:13.000Z</time>
      </trkpt>
      <trkpt lat="45.32516" lon="6.23034">
        <ele>1543.5999755859</ele>
        <time>2014-03-02T08:06:14.000Z</time>
      </trkpt>
      <trkpt lat="45.32515" lon="6.23033">
        <ele>1543.5999755859</ele>
        <time>2014-03-02T08:06:15.000Z</time>
      </trkpt>
      <trkpt lat="45.32515" lon="6.23033">
        <ele>1543.5999755859</ele>
        <time>2014-03-02T08:06:16.000Z</time>
      </trkpt>
      <trkpt lat="45.32514" lon="6.23032">
        <ele>1543.5999755859</ele>
        <time>2014-03-02T08:06:17.000Z</time>
      </trkpt>
      <trkpt lat="45.32514" lon="6.23029">
        <ele>1543.5999755859</ele>
        <time>2014-03-02T08:06:18.000Z</time>
      </trkpt>
      <trkpt lat="45.32513" lon="6.23029">
        <ele>1543.5999755859</ele>
        <time>2014-03-02T08:06:19.000Z</time>
      </trkpt>
      <trkpt lat="45.32512" lon="6.23027">
        <ele>1543.5999755859</ele>
        <time>2014-03-02T08:06:20.000Z</time>
      </trkpt>
      <trkpt lat="45.32512" lon="6.23026">
        <ele>1543.5999755859</ele>
        <time>2014-03-02T08:06:21.000Z</time>
      </trkpt>
      <trkpt lat="45.32511" lon="6.23025">
        <ele>1543.5999755859</ele>
        <time>2014-03-02T08:06:22.000Z</time>
      </trkpt>
      <trkpt lat="45.32511" lon="6.23025">
        <ele>1543.5999755859</ele>
        <time>2014-03-02T08:06:23.000Z</time>
      </trkpt>
      <trkpt lat="45.32509" lon="6.23023">
        <ele>1543.4000244141</ele>
        <time>2014-03-02T08:06:24.000Z</time>
      </trkpt>
      <trkpt lat="45.32509" lon="6.23023">
        <ele>1543.4000244141</ele>
        <time>2014-03-02T08:06:25.000Z</time>
      </trkpt>
      <trkpt lat="45.32508" lon="6.23023">
        <ele>1543.4000244141</ele>
        <time>2014-03-02T08:06:26.000Z</time>
      </trkpt>
      <trkpt lat="45.32508" lon="6.23022">
        <ele>1543.1999511719</ele>
        <time>2014-03-02T08:06:27.000Z</time>
      </trkpt>
      <trkpt lat="45.32507" lon="6.23022">
        <ele>1543.1999511719</ele>
        <time>2014-03-02T08:06:28.000Z</time>
      </trkpt>
      <trkpt lat="45.32507" lon="6.23021">
        <ele>1543.1999511719</ele>
        <time>2014-03-02T08:06:29.000Z</time>
      </trkpt>
      <trkpt lat="45.32506" lon="6.2302">
        <ele>1543.1999511719</ele>
        <time>2014-03-02T08:06:30.000Z</time>
      </trkpt>
      <trkpt lat="45.32506" lon="6.23019">
        <ele>1543.1999511719</ele>
        <time>2014-03-02T08:06:31.000Z</time>
      </trkpt>
      <trkpt lat="45.32505" lon="6.23019">
        <ele>1543</ele>
        <time>2014-03-02T08:06:32.000Z</time>
      </trkpt>
      <trkpt lat="45.32503" lon="6.23017">
        <ele>1542.8000488281</ele>
        <time>2014-03-02T08:06:33.000Z</time>
      </trkpt>
      <trkpt lat="45.32503" lon="6.23017">
        <ele>1542.8000488281</ele>
        <time>2014-03-02T08:06:34.000Z</time>
      </trkpt>
      <trkpt lat="45.32502" lon="6.23017">
        <ele>1542.8000488281</ele>
        <time>2014-03-02T08:06:35.000Z</time>
      </trkpt>
      <trkpt lat="45.32502" lon="6.23016">
        <ele>1542.8000488281</ele>
        <time>2014-03-02T08:06:36.000Z</time>
      </trkpt>
      <trkpt lat="45.32501" lon="6.23014">
        <ele>1542.8000488281</ele>
        <time>2014-03-02T08:06:38.000Z</time>
      </trkpt>
      <trkpt lat="45.32499" lon="6.23012">
        <ele>1542.5999755859</ele>
        <time>2014-03-02T08:06:39.000Z</time>
      </trkpt>
      <trkpt lat="45.32499" lon="6.23012">
        <ele>1542.5999755859</ele>
        <time>2014-03-02T08:06:40.000Z</time>
      </trkpt>
      <trkpt lat="45.32498" lon="6.2301">
        <ele>1542.4000244141</ele>
        <time>2014-03-02T08:06:41.000Z</time>
      </trkpt>
      <trkpt lat="45.32497" lon="6.23011">
        <ele>1542.4000244141</ele>
        <time>2014-03-02T08:06:42.000Z</time>
      </trkpt>
      <trkpt lat="45.32497" lon="6.2301">
        <ele>1542.4000244141</ele>
        <time>2014-03-02T08:06:43.000Z</time>
      </trkpt>
      <trkpt lat="45.32496" lon="6.23009">
        <ele>1542.1999511719</ele>
        <time>2014-03-02T08:06:44.000Z</time>
      </trkpt>
      <trkpt lat="45.32496" lon="6.23008">
        <ele>1542.1999511719</ele>
        <time>2014-03-02T08:06:45.000Z</time>
      </trkpt>
      <trkpt lat="45.32494" lon="6.23008">
        <ele>1542</ele>
        <time>2014-03-02T08:06:46.000Z</time>
      </trkpt>
      <trkpt lat="45.32494" lon="6.23008">
        <ele>1542</ele>
        <time>2014-03-02T08:06:47.000Z</time>
      </trkpt>
      <trkpt lat="45.32493" lon="6.23007">
        <ele>1542</ele>
        <time>2014-03-02T08:06:48.000Z</time>
      </trkpt>
      <trkpt lat="45.32492" lon="6.23006">
        <ele>1541.8000488281</ele>
        <time>2014-03-02T08:06:49.000Z</time>
      </trkpt>
      <trkpt lat="45.32492" lon="6.23005">
        <ele>1541.8000488281</ele>
        <time>2014-03-02T08:06:50.000Z</time>
      </trkpt>
      <trkpt lat="45.32491" lon="6.23005">
        <ele>1541.8000488281</ele>
        <time>2014-03-02T08:06:51.000Z</time>
      </trkpt>
      <trkpt lat="45.3249" lon="6.23004">
        <ele>1541.8000488281</ele>
        <time>2014-03-02T08:06:52.000Z</time>
      </trkpt>
      <trkpt lat="45.3249" lon="6.23003">
        <ele>1541.5999755859</ele>
        <time>2014-03-02T08:06:53.000Z</time>
      </trkpt>
      <trkpt lat="45.32489" lon="6.23003">
        <ele>1541.5999755859</ele>
        <time>2014-03-02T08:06:54.000Z</time>
      </trkpt>
      <trkpt lat="45.32488" lon="6.23002">
        <ele>1541.4000244141</ele>
        <time>2014-03-02T08:06:55.000Z</time>
      </trkpt>
      <trkpt lat="45.32488" lon="6.23002">
        <ele>1541.4000244141</ele>
        <time>2014-03-02T08:06:56.000Z</time>
      </trkpt>
      <trkpt lat="45.32488" lon="6.23002">
        <ele>1541.4000244141</ele>
        <time>2014-03-02T08:06:57.000Z</time>
      </trkpt>
      <trkpt lat="45.32488" lon="6.23002">
        <ele>1541.4000244141</ele>
        <time>2014-03-02T08:06:58.000Z</time>
      </trkpt>
      <trkpt lat="45.32487" lon="6.23002">
        <ele>1541.1999511719</ele>
        <time>2014-03-02T08:06:59.000Z</time>
      </trkpt>
      <trkpt lat="45.32486" lon="6.23001">
        <ele>1541.1999511719</ele>
        <time>2014-03-02T08:07:00.000Z</time>
      </trkpt>
      <trkpt lat="45.32486" lon="6.23001">
        <ele>1541.1999511719</ele>
        <time>2014-03-02T08:07:01.000Z</time>
      </trkpt>
      <trkpt lat="45.32486" lon="6.23001">
        <ele>1541.1999511719</ele>
        <time>2014-03-02T08:07:02.000Z</time>
      </trkpt>
      <trkpt lat="45.32486" lon="6.23001">
        <ele>1541.1999511719</ele>
        <time>2014-03-02T08:07:03.000Z</time>
      </trkpt>
      <trkpt lat="45.32486" lon="6.23001">
        <ele>1541.1999511719</ele>
        <time>2014-03-02T08:07:04.000Z</time>
      </trkpt>
      <trkpt lat="45.32486" lon="6.23001">
        <ele>1541.1999511719</ele>
        <time>2014-03-02T08:07:05.000Z</time>
      </trkpt>
      <trkpt lat="45.32486" lon="6.23001">
        <ele>1541.1999511719</ele>
        <time>2014-03-02T08:07:06.000Z</time>
      </trkpt>
      <trkpt lat="45.32486" lon="6.23001">
        <ele>1541.1999511719</ele>
        <time>2014-03-02T08:07:07.000Z</time>
      </trkpt>
      <trkpt lat="45.32486" lon="6.23001">
        <ele>1541.1999511719</ele>
        <time>2014-03-02T08:07:08.000Z</time>
      </trkpt>
      <trkpt lat="45.32486" lon="6.23001">
        <ele>1541.1999511719</ele>
        <time>2014-03-02T08:07:14.000Z</time>
      </trkpt>
      <trkpt lat="45.32486" lon="6.23001">
        <ele>1541.1999511719</ele>
        <time>2014-03-02T08:07:15.000Z</time>
      </trkpt>
      <trkpt lat="45.32486" lon="6.23001">
        <ele>1541.1999511719</ele>
        <time>2014-03-02T08:07:17.000Z</time>
      </trkpt>
      <trkpt lat="45.32486" lon="6.23001">
        <ele>1541.1999511719</ele>
        <time>2014-03-02T08:07:18.000Z</time>
      </trkpt>
      <trkpt lat="45.32486" lon="6.23001">
        <ele>1541.1999511719</ele>
        <time>2014-03-02T08:07:19.000Z</time>
      </trkpt>
      <trkpt lat="45.32486" lon="6.23001">
        <ele>1541.1999511719</ele>
        <time>2014-03-02T08:07:23.000Z</time>
      </trkpt>
      <trkpt lat="45.32486" lon="6.23001">
        <ele>1541.1999511719</ele>
        <time>2014-03-02T08:07:24.000Z</time>
      </trkpt>
      <trkpt lat="45.32486" lon="6.23001">
        <ele>1541.1999511719</ele>
        <time>2014-03-02T08:07:25.000Z</time>
      </trkpt>
      <trkpt lat="45.32486" lon="6.23001">
        <ele>1541.1999511719</ele>
        <time>2014-03-02T08:07:26.000Z</time>
      </trkpt>
      <trkpt lat="45.32486" lon="6.23001">
        <ele>1541.1999511719</ele>
        <time>2014-03-02T08:07:27.000Z</time>
      </trkpt>
      <trkpt lat="45.32486" lon="6.23001">
        <ele>1541.1999511719</ele>
        <time>2014-03-02T08:07:28.000Z</time>
      </trkpt>
      <trkpt lat="45.32486" lon="6.23001">
        <ele>1541.1999511719</ele>
        <time>2014-03-02T08:07:29.000Z</time>
      </trkpt>
      <trkpt lat="45.32486" lon="6.23001">
        <ele>1541.1999511719</ele>
        <time>2014-03-02T08:07:30.000Z</time>
      </trkpt>
      <trkpt lat="45.32486" lon="6.23001">
        <ele>1541.1999511719</ele>
        <time>2014-03-02T08:07:31.000Z</time>
      </trkpt>
      <trkpt lat="45.32486" lon="6.23001">
        <ele>1541.1999511719</ele>
        <time>2014-03-02T08:07:32.000Z</time>
      </trkpt>
      <trkpt lat="45.32486" lon="6.23001">
        <ele>1541.1999511719</ele>
        <time>2014-03-02T08:07:33.000Z</time>
      </trkpt>
      <trkpt lat="45.32486" lon="6.23">
        <ele>1541.1999511719</ele>
        <time>2014-03-02T08:07:34.000Z</time>
      </trkpt>
      <trkpt lat="45.32485" lon="6.22999">
        <ele>1541.1999511719</ele>
        <time>2014-03-02T08:07:35.000Z</time>
      </trkpt>
      <trkpt lat="45.32485" lon="6.22999">
        <ele>1541.1999511719</ele>
        <time>2014-03-02T08:07:36.000Z</time>
      </trkpt>
      <trkpt lat="45.32484" lon="6.22998">
        <ele>1541</ele>
        <time>2014-03-02T08:07:37.000Z</time>
      </trkpt>
      <trkpt lat="45.32483" lon="6.22997">
        <ele>1540.8000488281</ele>
        <time>2014-03-02T08:07:38.000Z</time>
      </trkpt>
      <trkpt lat="45.32482" lon="6.22996">
        <ele>1540.8000488281</ele>
        <time>2014-03-02T08:07:39.000Z</time>
      </trkpt>
      <trkpt lat="45.3248" lon="6.22995">
        <ele>1540.5999755859</ele>
        <time>2014-03-02T08:07:40.000Z</time>
      </trkpt>
      <trkpt lat="45.3248" lon="6.22995">
        <ele>1540.5999755859</ele>
        <time>2014-03-02T08:07:41.000Z</time>
      </trkpt>
      <trkpt lat="45.3248" lon="6.22995">
        <ele>1540.5999755859</ele>
        <time>2014-03-02T08:07:42.000Z</time>
      </trkpt>
      <trkpt lat="45.3248" lon="6.22995">
        <ele>1540.5999755859</ele>
        <time>2014-03-02T08:07:43.000Z</time>
      </trkpt>
      <trkpt lat="45.3248" lon="6.22995">
        <ele>1540.5999755859</ele>
        <time>2014-03-02T08:07:44.000Z</time>
      </trkpt>
      <trkpt lat="45.3248" lon="6.22995">
        <ele>1540.5999755859</ele>
        <time>2014-03-02T08:07:45.000Z</time>
      </trkpt>
      <trkpt lat="45.3248" lon="6.22995">
        <ele>1540.5999755859</ele>
        <time>2014-03-02T08:07:46.000Z</time>
      </trkpt>
      <trkpt lat="45.3248" lon="6.22995">
        <ele>1540.5999755859</ele>
        <time>2014-03-02T08:07:47.000Z</time>
      </trkpt>
      <trkpt lat="45.3248" lon="6.22995">
        <ele>1540.5999755859</ele>
        <time>2014-03-02T08:07:48.000Z</time>
      </trkpt>
      <trkpt lat="45.3248" lon="6.22995">
        <ele>1540.5999755859</ele>
        <time>2014-03-02T08:07:49.000Z</time>
      </trkpt>
      <trkpt lat="45.3248" lon="6.22995">
        <ele>1540.5999755859</ele>
        <time>2014-03-02T08:07:50.000Z</time>
      </trkpt>
      <trkpt lat="45.3248" lon="6.22995">
        <ele>1540.5999755859</ele>
        <time>2014-03-02T08:07:56.000Z</time>
      </trkpt>
      <trkpt lat="45.3248" lon="6.22995">
        <ele>1540.5999755859</ele>
        <time>2014-03-02T08:07:57.000Z</time>
      </trkpt>
      <trkpt lat="45.3248" lon="6.22995">
        <ele>1540.5999755859</ele>
        <time>2014-03-02T08:07:58.000Z</time>
      </trkpt>
      <trkpt lat="45.3248" lon="6.22995">
        <ele>1540.5999755859</ele>
        <time>2014-03-02T08:07:59.000Z</time>
      </trkpt>
      <trkpt lat="45.3248" lon="6.22995">
        <ele>1540.5999755859</ele>
        <time>2014-03-02T08:08:00.000Z</time>
      </trkpt>
      <trkpt lat="45.3248" lon="6.22995">
        <ele>1540.5999755859</ele>
        <time>2014-03-02T08:08:01.000Z</time>
      </trkpt>
      <trkpt lat="45.3248" lon="6.22995">
        <ele>1540.5999755859</ele>
        <time>2014-03-02T08:08:04.000Z</time>
      </trkpt>
      <trkpt lat="45.3248" lon="6.22995">
        <ele>1540.4000244141</ele>
        <time>2014-03-02T08:08:07.000Z</time>
      </trkpt>
      <trkpt lat="45.32479" lon="6.22996">
        <ele>1540.1999511719</ele>
        <time>2014-03-02T08:08:08.000Z</time>
      </trkpt>
      <trkpt lat="45.32478" lon="6.22996">
        <ele>1540</ele>
        <time>2014-03-02T08:08:09.000Z</time>
      </trkpt>
      <trkpt lat="45.32476" lon="6.22996">
        <ele>1539.5999755859</ele>
        <time>2014-03-02T08:08:10.000Z</time>
      </trkpt>
      <trkpt lat="45.32475" lon="6.22997">
        <ele>1539.4000244141</ele>
        <time>2014-03-02T08:08:11.000Z</time>
      </trkpt>
      <trkpt lat="45.32475" lon="6.22997">
        <ele>1539.1999511719</ele>
        <time>2014-03-02T08:08:12.000Z</time>
      </trkpt>
      <trkpt lat="45.32473" lon="6.22998">
        <ele>1538.5999755859</ele>
        <time>2014-03-02T08:08:13.000Z</time>
      </trkpt>
      <trkpt lat="45.32473" lon="6.22998">
        <ele>1538.5999755859</ele>
        <time>2014-03-02T08:08:14.000Z</time>
      </trkpt>
      <trkpt lat="45.32472" lon="6.23">
        <ele>1538.1999511719</ele>
        <time>2014-03-02T08:08:15.000Z</time>
      </trkpt>
      <trkpt lat="45.32472" lon="6.23002">
        <ele>1538</ele>
        <time>2014-03-02T08:08:17.000Z</time>
      </trkpt>
      <trkpt lat="45.32471" lon="6.23003">
        <ele>1537.8000488281</ele>
        <time>2014-03-02T08:08:18.000Z</time>
      </trkpt>
      <trkpt lat="45.32471" lon="6.23005">
        <ele>1537.4000244141</ele>
        <time>2014-03-02T08:08:19.000Z</time>
      </trkpt>
      <trkpt lat="45.3247" lon="6.23007">
        <ele>1537</ele>
        <time>2014-03-02T08:08:20.000Z</time>
      </trkpt>
      <trkpt lat="45.3247" lon="6.23008">
        <ele>1537</ele>
        <time>2014-03-02T08:08:21.000Z</time>
      </trkpt>
      <trkpt lat="45.3247" lon="6.23009">
        <ele>1536.8000488281</ele>
        <time>2014-03-02T08:08:22.000Z</time>
      </trkpt>
      <trkpt lat="45.32471" lon="6.23012">
        <ele>1536.4000244141</ele>
        <time>2014-03-02T08:08:23.000Z</time>
      </trkpt>
      <trkpt lat="45.3247" lon="6.23012">
        <ele>1536.4000244141</ele>
        <time>2014-03-02T08:08:24.000Z</time>
      </trkpt>
      <trkpt lat="45.32471" lon="6.23015">
        <ele>1536.1999511719</ele>
        <time>2014-03-02T08:08:25.000Z</time>
      </trkpt>
      <trkpt lat="45.32471" lon="6.23016">
        <ele>1536</ele>
        <time>2014-03-02T08:08:26.000Z</time>
      </trkpt>
      <trkpt lat="45.32471" lon="6.23017">
        <ele>1536</ele>
        <time>2014-03-02T08:08:27.000Z</time>
      </trkpt>
      <trkpt lat="45.3247" lon="6.2302">
        <ele>1535.4000244141</ele>
        <time>2014-03-02T08:08:28.000Z</time>
      </trkpt>
      <trkpt lat="45.3247" lon="6.23021">
        <ele>1535.1999511719</ele>
        <time>2014-03-02T08:08:29.000Z</time>
      </trkpt>
      <trkpt lat="45.3247" lon="6.23024">
        <ele>1534.8000488281</ele>
        <time>2014-03-02T08:08:30.000Z</time>
      </trkpt>
      <trkpt lat="45.3247" lon="6.23026">
        <ele>1534.5999755859</ele>
        <time>2014-03-02T08:08:31.000Z</time>
      </trkpt>
      <trkpt lat="45.32468" lon="6.2303">
        <ele>1533.8000488281</ele>
        <time>2014-03-02T08:08:33.000Z</time>
      </trkpt>
      <trkpt lat="45.32468" lon="6.23031">
        <ele>1533.5999755859</ele>
        <time>2014-03-02T08:08:34.000Z</time>
      </trkpt>
      <trkpt lat="45.32468" lon="6.23033">
        <ele>1533.4000244141</ele>
        <time>2014-03-02T08:08:35.000Z</time>
      </trkpt>
      <trkpt lat="45.32468" lon="6.23038">
        <ele>1532.8000488281</ele>
        <time>2014-03-02T08:08:38.000Z</time>
      </trkpt>
      <trkpt lat="45.32468" lon="6.23038">
        <ele>1532.8000488281</ele>
        <time>2014-03-02T08:08:39.000Z</time>
      </trkpt>
      <trkpt lat="45.32467" lon="6.2304">
        <ele>1532.4000244141</ele>
        <time>2014-03-02T08:08:40.000Z</time>
      </trkpt>
      <trkpt lat="45.32467" lon="6.23042">
        <ele>1532.1999511719</ele>
        <time>2014-03-02T08:08:41.000Z</time>
      </trkpt>
      <trkpt lat="45.32467" lon="6.23042">
        <ele>1532.1999511719</ele>
        <time>2014-03-02T08:08:42.000Z</time>
      </trkpt>
      <trkpt lat="45.32467" lon="6.23043">
        <ele>1532</ele>
        <time>2014-03-02T08:08:43.000Z</time>
      </trkpt>
      <trkpt lat="45.32467" lon="6.23044">
        <ele>1532</ele>
        <time>2014-03-02T08:08:44.000Z</time>
      </trkpt>
      <trkpt lat="45.32467" lon="6.23045">
        <ele>1531.8000488281</ele>
        <time>2014-03-02T08:08:45.000Z</time>
      </trkpt>
      <trkpt lat="45.32467" lon="6.23046">
        <ele>1531.8000488281</ele>
        <time>2014-03-02T08:08:46.000Z</time>
      </trkpt>
      <trkpt lat="45.32467" lon="6.23046">
        <ele>1531.5999755859</ele>
        <time>2014-03-02T08:08:47.000Z</time>
      </trkpt>
      <trkpt lat="45.32467" lon="6.23047">
        <ele>1531.5999755859</ele>
        <time>2014-03-02T08:08:48.000Z</time>
      </trkpt>
      <trkpt lat="45.32467" lon="6.23048">
        <ele>1531.4000244141</ele>
        <time>2014-03-02T08:08:49.000Z</time>
      </trkpt>
      <trkpt lat="45.32467" lon="6.23048">
        <ele>1531.4000244141</ele>
        <time>2014-03-02T08:08:50.000Z</time>
      </trkpt>
      <trkpt lat="45.32467" lon="6.23048">
        <ele>1531.4000244141</ele>
        <time>2014-03-02T08:08:51.000Z</time>
      </trkpt>
      <trkpt lat="45.32467" lon="6.23048">
        <ele>1531.4000244141</ele>
        <time>2014-03-02T08:08:52.000Z</time>
      </trkpt>
      <trkpt lat="45.32467" lon="6.23048">
        <ele>1531.4000244141</ele>
        <time>2014-03-02T08:08:53.000Z</time>
      </trkpt>
      <trkpt lat="45.32467" lon="6.23048">
        <ele>1531.4000244141</ele>
        <time>2014-03-02T08:08:54.000Z</time>
      </trkpt>
      <trkpt lat="45.32467" lon="6.23048">
        <ele>1531.4000244141</ele>
        <time>2014-03-02T08:08:55.000Z</time>
      </trkpt>
      <trkpt lat="45.32467" lon="6.23048">
        <ele>1531.4000244141</ele>
        <time>2014-03-02T08:08:56.000Z</time>
      </trkpt>
      <trkpt lat="45.32467" lon="6.23048">
        <ele>1531.4000244141</ele>
        <time>2014-03-02T08:08:57.000Z</time>
      </trkpt>
      <trkpt lat="45.32467" lon="6.23048">
        <ele>1531.4000244141</ele>
        <time>2014-03-02T08:08:58.000Z</time>
      </trkpt>
      <trkpt lat="45.32467" lon="6.23048">
        <ele>1531.4000244141</ele>
        <time>2014-03-02T08:08:59.000Z</time>
      </trkpt>
      <trkpt lat="45.32467" lon="6.23048">
        <ele>1531.4000244141</ele>
        <time>2014-03-02T08:09:00.000Z</time>
      </trkpt>
      <trkpt lat="45.32467" lon="6.23048">
        <ele>1531.4000244141</ele>
        <time>2014-03-02T08:09:01.000Z</time>
      </trkpt>
      <trkpt lat="45.32467" lon="6.23048">
        <ele>1531.4000244141</ele>
        <time>2014-03-02T08:09:02.000Z</time>
      </trkpt>
      <trkpt lat="45.32467" lon="6.23048">
        <ele>1531.4000244141</ele>
        <time>2014-03-02T08:09:03.000Z</time>
      </trkpt>
      <trkpt lat="45.32467" lon="6.23048">
        <ele>1531.4000244141</ele>
        <time>2014-03-02T08:09:04.000Z</time>
      </trkpt>
      <trkpt lat="45.32467" lon="6.23048">
        <ele>1531.4000244141</ele>
        <time>2014-03-02T08:09:05.000Z</time>
      </trkpt>
      <trkpt lat="45.32467" lon="6.23048">
        <ele>1531.4000244141</ele>
        <time>2014-03-02T08:09:06.000Z</time>
      </trkpt>
      <trkpt lat="45.32467" lon="6.23048">
        <ele>1531.4000244141</ele>
        <time>2014-03-02T08:09:07.000Z</time>
      </trkpt>
      <trkpt lat="45.32467" lon="6.23048">
        <ele>1531.4000244141</ele>
        <time>2014-03-02T08:09:11.000Z</time>
      </trkpt>
      <trkpt lat="45.32467" lon="6.23048">
        <ele>1531.4000244141</ele>
        <time>2014-03-02T08:09:12.000Z</time>
      </trkpt>
      <trkpt lat="45.32467" lon="6.23048">
        <ele>1531.4000244141</ele>
        <time>2014-03-02T08:09:13.000Z</time>
      </trkpt>
      <trkpt lat="45.32467" lon="6.23048">
        <ele>1531.4000244141</ele>
        <time>2014-03-02T08:09:14.000Z</time>
      </trkpt>
      <trkpt lat="45.32467" lon="6.23048">
        <ele>1531.4000244141</ele>
        <time>2014-03-02T08:09:15.000Z</time>
      </trkpt>
      <trkpt lat="45.32467" lon="6.23048">
        <ele>1531.4000244141</ele>
        <time>2014-03-02T08:09:18.000Z</time>
      </trkpt>
      <trkpt lat="45.32467" lon="6.23048">
        <ele>1531.4000244141</ele>
        <time>2014-03-02T08:09:20.000Z</time>
      </trkpt>
      <trkpt lat="45.32467" lon="6.23048">
        <ele>1531.4000244141</ele>
        <time>2014-03-02T08:09:21.000Z</time>
      </trkpt>
      <trkpt lat="45.32467" lon="6.23045">
        <ele>1531.5999755859</ele>
        <time>2014-03-02T08:09:22.000Z</time>
      </trkpt>
      <trkpt lat="45.32467" lon="6.23042">
        <ele>1532</ele>
        <time>2014-03-02T08:09:23.000Z</time>
      </trkpt>
      <trkpt lat="45.32467" lon="6.23041">
        <ele>1532.1999511719</ele>
        <time>2014-03-02T08:09:24.000Z</time>
      </trkpt>
      <trkpt lat="45.32466" lon="6.23038">
        <ele>1532.5999755859</ele>
        <time>2014-03-02T08:09:25.000Z</time>
      </trkpt>
      <trkpt lat="45.32466" lon="6.23037">
        <ele>1532.5999755859</ele>
        <time>2014-03-02T08:09:26.000Z</time>
      </trkpt>
      <trkpt lat="45.32466" lon="6.23034">
        <ele>1532.8000488281</ele>
        <time>2014-03-02T08:09:27.000Z</time>
      </trkpt>
      <trkpt lat="45.32466" lon="6.23034">
        <ele>1532.8000488281</ele>
        <time>2014-03-02T08:09:28.000Z</time>
      </trkpt>
      <trkpt lat="45.32465" lon="6.23033">
        <ele>1532.8000488281</ele>
        <time>2014-03-02T08:09:29.000Z</time>
      </trkpt>
      <trkpt lat="45.32465" lon="6.2303">
        <ele>1533</ele>
        <time>2014-03-02T08:09:30.000Z</time>
      </trkpt>
      <trkpt lat="45.32465" lon="6.2303">
        <ele>1533</ele>
        <time>2014-03-02T08:09:31.000Z</time>
      </trkpt>
      <trkpt lat="45.32465" lon="6.23028">
        <ele>1533.1999511719</ele>
        <time>2014-03-02T08:09:32.000Z</time>
      </trkpt>
      <trkpt lat="45.32465" lon="6.23027">
        <ele>1533.4000244141</ele>
        <time>2014-03-02T08:09:33.000Z</time>
      </trkpt>
      <trkpt lat="45.32465" lon="6.23025">
        <ele>1533.5999755859</ele>
        <time>2014-03-02T08:09:34.000Z</time>
      </trkpt>
      <trkpt lat="45.32464" lon="6.23025">
        <ele>1533.5999755859</ele>
        <time>2014-03-02T08:09:35.000Z</time>
      </trkpt>
      <trkpt lat="45.32464" lon="6.23022">
        <ele>1533.8000488281</ele>
        <time>2014-03-02T08:09:36.000Z</time>
      </trkpt>
      <trkpt lat="45.32464" lon="6.23022">
        <ele>1533.8000488281</ele>
        <time>2014-03-02T08:09:37.000Z</time>
      </trkpt>
      <trkpt lat="45.32464" lon="6.23021">
        <ele>1534</ele>
        <time>2014-03-02T08:09:38.000Z</time>
      </trkpt>
      <trkpt lat="45.32464" lon="6.23019">
        <ele>1534.1999511719</ele>
        <time>2014-03-02T08:09:39.000Z</time>
      </trkpt>
      <trkpt lat="45.32464" lon="6.23017">
        <ele>1534.4000244141</ele>
        <time>2014-03-02T08:09:40.000Z</time>
      </trkpt>
      <trkpt lat="45.32464" lon="6.23016">
        <ele>1534.5999755859</ele>
        <time>2014-03-02T08:09:41.000Z</time>
      </trkpt>
      <trkpt lat="45.32464" lon="6.23014">
        <ele>1534.8000488281</ele>
        <time>2014-03-02T08:09:42.000Z</time>
      </trkpt>
      <trkpt lat="45.32464" lon="6.23014">
        <ele>1534.8000488281</ele>
        <time>2014-03-02T08:09:43.000Z</time>
      </trkpt>
      <trkpt lat="45.32463" lon="6.23011">
        <ele>1535.1999511719</ele>
        <time>2014-03-02T08:09:44.000Z</time>
      </trkpt>
      <trkpt lat="45.32464" lon="6.2301">
        <ele>1535.4000244141</ele>
        <time>2014-03-02T08:09:45.000Z</time>
      </trkpt>
      <trkpt lat="45.32464" lon="6.23009">
        <ele>1535.4000244141</ele>
        <time>2014-03-02T08:09:46.000Z</time>
      </trkpt>
      <trkpt lat="45.32463" lon="6.2301">
        <ele>1535.5999755859</ele>
        <time>2014-03-02T08:09:47.000Z</time>
      </trkpt>
      <trkpt lat="45.32463" lon="6.2301">
        <ele>1535.5999755859</ele>
        <time>2014-03-02T08:09:48.000Z</time>
      </trkpt>
      <trkpt lat="45.32463" lon="6.23008">
        <ele>1536</ele>
        <time>2014-03-02T08:09:49.000Z</time>
      </trkpt>
      <trkpt lat="45.32463" lon="6.23008">
        <ele>1536</ele>
        <time>2014-03-02T08:09:50.000Z</time>
      </trkpt>
      <trkpt lat="45.32462" lon="6.23007">
        <ele>1536.1999511719</ele>
        <time>2014-03-02T08:09:51.000Z</time>
      </trkpt>
      <trkpt lat="45.32462" lon="6.23007">
        <ele>1536.4000244141</ele>
        <time>2014-03-02T08:09:52.000Z</time>
      </trkpt>
      <trkpt lat="45.32462" lon="6.23006">
        <ele>1536.5999755859</ele>
        <time>2014-03-02T08:09:53.000Z</time>
      </trkpt>
      <trkpt lat="45.32461" lon="6.23004">
        <ele>1537</ele>
        <time>2014-03-02T08:09:54.000Z</time>
      </trkpt>
      <trkpt lat="45.32461" lon="6.23003">
        <ele>1537.1999511719</ele>
        <time>2014-03-02T08:09:55.000Z</time>
      </trkpt>
      <trkpt lat="45.32461" lon="6.23003">
        <ele>1537.1999511719</ele>
        <time>2014-03-02T08:09:56.000Z</time>
      </trkpt>
      <trkpt lat="45.32461" lon="6.23002">
        <ele>1537.1999511719</ele>
        <time>2014-03-02T08:09:57.000Z</time>
      </trkpt>
      <trkpt lat="45.32461" lon="6.23002">
        <ele>1537.1999511719</ele>
        <time>2014-03-02T08:09:58.000Z</time>
      </trkpt>
      <trkpt lat="45.32461" lon="6.23001">
        <ele>1537.4000244141</ele>
        <time>2014-03-02T08:09:59.000Z</time>
      </trkpt>
      <trkpt lat="45.32461" lon="6.23">
        <ele>1537.5999755859</ele>
        <time>2014-03-02T08:10:00.000Z</time>
      </trkpt>
      <trkpt lat="45.32461" lon="6.22997">
        <ele>1538</ele>
        <time>2014-03-02T08:10:01.000Z</time>
      </trkpt>
      <trkpt lat="45.3246" lon="6.22997">
        <ele>1538.1999511719</ele>
        <time>2014-03-02T08:10:02.000Z</time>
      </trkpt>
      <trkpt lat="45.3246" lon="6.22994">
        <ele>1538.8000488281</ele>
        <time>2014-03-02T08:10:03.000Z</time>
      </trkpt>
      <trkpt lat="45.32459" lon="6.22994">
        <ele>1539</ele>
        <time>2014-03-02T08:10:04.000Z</time>
      </trkpt>
      <trkpt lat="45.32459" lon="6.22992">
        <ele>1539.4000244141</ele>
        <time>2014-03-02T08:10:05.000Z</time>
      </trkpt>
      <trkpt lat="45.32458" lon="6.2299">
        <ele>1540</ele>
        <time>2014-03-02T08:10:06.000Z</time>
      </trkpt>
      <trkpt lat="45.32458" lon="6.2299">
        <ele>1540</ele>
        <time>2014-03-02T08:10:07.000Z</time>
      </trkpt>
      <trkpt lat="45.32458" lon="6.22987">
        <ele>1540.1999511719</ele>
        <time>2014-03-02T08:10:08.000Z</time>
      </trkpt>
      <trkpt lat="45.32458" lon="6.22985">
        <ele>1540.4000244141</ele>
        <time>2014-03-02T08:10:09.000Z</time>
      </trkpt>
      <trkpt lat="45.32458" lon="6.22983">
        <ele>1540.5999755859</ele>
        <time>2014-03-02T08:10:10.000Z</time>
      </trkpt>
      <trkpt lat="45.32459" lon="6.22982">
        <ele>1540.5999755859</ele>
        <time>2014-03-02T08:10:11.000Z</time>
      </trkpt>
      <trkpt lat="45.32458" lon="6.22982">
        <ele>1540.5999755859</ele>
        <time>2014-03-02T08:10:12.000Z</time>
      </trkpt>
      <trkpt lat="45.32458" lon="6.22982">
        <ele>1540.8000488281</ele>
        <time>2014-03-02T08:10:13.000Z</time>
      </trkpt>
      <trkpt lat="45.32458" lon="6.22981">
        <ele>1541</ele>
        <time>2014-03-02T08:10:14.000Z</time>
      </trkpt>
      <trkpt lat="45.32457" lon="6.2298">
        <ele>1541.4000244141</ele>
        <time>2014-03-02T08:10:15.000Z</time>
      </trkpt>
      <trkpt lat="45.32456" lon="6.22979">
        <ele>1541.8000488281</ele>
        <time>2014-03-02T08:10:16.000Z</time>
      </trkpt>
      <trkpt lat="45.32456" lon="6.22977">
        <ele>1542</ele>
        <time>2014-03-02T08:10:17.000Z</time>
      </trkpt>
      <trkpt lat="45.32456" lon="6.22977">
        <ele>1541.8000488281</ele>
        <time>2014-03-02T08:10:18.000Z</time>
      </trkpt>
      <trkpt lat="45.32456" lon="6.22975">
        <ele>1541.8000488281</ele>
        <time>2014-03-02T08:10:19.000Z</time>
      </trkpt>
      <trkpt lat="45.32456" lon="6.22974">
        <ele>1541.8000488281</ele>
        <time>2014-03-02T08:10:20.000Z</time>
      </trkpt>
      <trkpt lat="45.32456" lon="6.22973">
        <ele>1541.8000488281</ele>
        <time>2014-03-02T08:10:21.000Z</time>
      </trkpt>
      <trkpt lat="45.32456" lon="6.22972">
        <ele>1541.8000488281</ele>
        <time>2014-03-02T08:10:22.000Z</time>
      </trkpt>
      <trkpt lat="45.32455" lon="6.22972">
        <ele>1542</ele>
        <time>2014-03-02T08:10:23.000Z</time>
      </trkpt>
      <trkpt lat="45.32455" lon="6.2297">
        <ele>1542.4000244141</ele>
        <time>2014-03-02T08:10:24.000Z</time>
      </trkpt>
      <trkpt lat="45.32455" lon="6.22969">
        <ele>1542.1999511719</ele>
        <time>2014-03-02T08:10:25.000Z</time>
      </trkpt>
      <trkpt lat="45.32455" lon="6.22968">
        <ele>1542.4000244141</ele>
        <time>2014-03-02T08:10:26.000Z</time>
      </trkpt>
      <trkpt lat="45.32455" lon="6.22965">
        <ele>1542.5999755859</ele>
        <time>2014-03-02T08:10:27.000Z</time>
      </trkpt>
      <trkpt lat="45.32456" lon="6.22965">
        <ele>1542.5999755859</ele>
        <time>2014-03-02T08:10:28.000Z</time>
      </trkpt>
      <trkpt lat="45.32456" lon="6.22964">
        <ele>1542.5999755859</ele>
        <time>2014-03-02T08:10:29.000Z</time>
      </trkpt>
      <trkpt lat="45.32456" lon="6.22963">
        <ele>1542.8000488281</ele>
        <time>2014-03-02T08:10:30.000Z</time>
      </trkpt>
      <trkpt lat="45.32456" lon="6.22963">
        <ele>1543</ele>
        <time>2014-03-02T08:10:31.000Z</time>
      </trkpt>
      <trkpt lat="45.32455" lon="6.22962">
        <ele>1543.1999511719</ele>
        <time>2014-03-02T08:10:32.000Z</time>
      </trkpt>
      <trkpt lat="45.32455" lon="6.2296">
        <ele>1543.4000244141</ele>
        <time>2014-03-02T08:10:33.000Z</time>
      </trkpt>
      <trkpt lat="45.32455" lon="6.2296">
        <ele>1543.4000244141</ele>
        <time>2014-03-02T08:10:34.000Z</time>
      </trkpt>
      <trkpt lat="45.32455" lon="6.22958">
        <ele>1543.5999755859</ele>
        <time>2014-03-02T08:10:35.000Z</time>
      </trkpt>
      <trkpt lat="45.32455" lon="6.22957">
        <ele>1543.5999755859</ele>
        <time>2014-03-02T08:10:36.000Z</time>
      </trkpt>
      <trkpt lat="45.32455" lon="6.22956">
        <ele>1543.8000488281</ele>
        <time>2014-03-02T08:10:37.000Z</time>
      </trkpt>
      <trkpt lat="45.32455" lon="6.22955">
        <ele>1544</ele>
        <time>2014-03-02T08:10:38.000Z</time>
      </trkpt>
      <trkpt lat="45.32455" lon="6.22954">
        <ele>1544.1999511719</ele>
        <time>2014-03-02T08:10:39.000Z</time>
      </trkpt>
      <trkpt lat="45.32455" lon="6.22953">
        <ele>1544.1999511719</ele>
        <time>2014-03-02T08:10:40.000Z</time>
      </trkpt>
      <trkpt lat="45.32455" lon="6.22952">
        <ele>1544.4000244141</ele>
        <time>2014-03-02T08:10:41.000Z</time>
      </trkpt>
      <trkpt lat="45.32455" lon="6.2295">
        <ele>1544.5999755859</ele>
        <time>2014-03-02T08:10:42.000Z</time>
      </trkpt>
      <trkpt lat="45.32454" lon="6.22947">
        <ele>1545</ele>
        <time>2014-03-02T08:10:43.000Z</time>
      </trkpt>
      <trkpt lat="45.32454" lon="6.22947">
        <ele>1545</ele>
        <time>2014-03-02T08:10:44.000Z</time>
      </trkpt>
      <trkpt lat="45.32454" lon="6.22946">
        <ele>1545.1999511719</ele>
        <time>2014-03-02T08:10:45.000Z</time>
      </trkpt>
      <trkpt lat="45.32454" lon="6.22945">
        <ele>1545.4000244141</ele>
        <time>2014-03-02T08:10:46.000Z</time>
      </trkpt>
      <trkpt lat="45.32453" lon="6.22944">
        <ele>1545.5999755859</ele>
        <time>2014-03-02T08:10:47.000Z</time>
      </trkpt>
      <trkpt lat="45.32453" lon="6.22943">
        <ele>1546</ele>
        <time>2014-03-02T08:10:48.000Z</time>
      </trkpt>
      <trkpt lat="45.32452" lon="6.22942">
        <ele>1546.1999511719</ele>
        <time>2014-03-02T08:10:49.000Z</time>
      </trkpt>
      <trkpt lat="45.32452" lon="6.2294">
        <ele>1546.5999755859</ele>
        <time>2014-03-02T08:10:50.000Z</time>
      </trkpt>
      <trkpt lat="45.32452" lon="6.22938">
        <ele>1546.8000488281</ele>
        <time>2014-03-02T08:10:51.000Z</time>
      </trkpt>
      <trkpt lat="45.32452" lon="6.22936">
        <ele>1547</ele>
        <time>2014-03-02T08:10:52.000Z</time>
      </trkpt>
      <trkpt lat="45.32452" lon="6.22934">
        <ele>1547.1999511719</ele>
        <time>2014-03-02T08:10:53.000Z</time>
      </trkpt>
      <trkpt lat="45.32452" lon="6.22933">
        <ele>1547.4000244141</ele>
        <time>2014-03-02T08:10:54.000Z</time>
      </trkpt>
      <trkpt lat="45.32452" lon="6.22931">
        <ele>1547.5999755859</ele>
        <time>2014-03-02T08:10:55.000Z</time>
      </trkpt>
      <trkpt lat="45.32452" lon="6.22931">
        <ele>1547.5999755859</ele>
        <time>2014-03-02T08:10:56.000Z</time>
      </trkpt>
      <trkpt lat="45.32451" lon="6.22931">
        <ele>1547.8000488281</ele>
        <time>2014-03-02T08:10:57.000Z</time>
      </trkpt>
      <trkpt lat="45.32451" lon="6.2293">
        <ele>1548</ele>
        <time>2014-03-02T08:10:58.000Z</time>
      </trkpt>
      <trkpt lat="45.32451" lon="6.22929">
        <ele>1548</ele>
        <time>2014-03-02T08:10:59.000Z</time>
      </trkpt>
      <trkpt lat="45.32451" lon="6.22928">
        <ele>1548.1999511719</ele>
        <time>2014-03-02T08:11:00.000Z</time>
      </trkpt>
      <trkpt lat="45.32451" lon="6.22926">
        <ele>1548.4000244141</ele>
        <time>2014-03-02T08:11:01.000Z</time>
      </trkpt>
      <trkpt lat="45.32451" lon="6.22924">
        <ele>1548.5999755859</ele>
        <time>2014-03-02T08:11:02.000Z</time>
      </trkpt>
      <trkpt lat="45.3245" lon="6.22922">
        <ele>1549</ele>
        <time>2014-03-02T08:11:03.000Z</time>
      </trkpt>
      <trkpt lat="45.32451" lon="6.22921">
        <ele>1549.1999511719</ele>
        <time>2014-03-02T08:11:04.000Z</time>
      </trkpt>
      <trkpt lat="45.3245" lon="6.2292">
        <ele>1549.1999511719</ele>
        <time>2014-03-02T08:11:05.000Z</time>
      </trkpt>
      <trkpt lat="45.3245" lon="6.2292">
        <ele>1549.4000244141</ele>
        <time>2014-03-02T08:11:06.000Z</time>
      </trkpt>
      <trkpt lat="45.3245" lon="6.22919">
        <ele>1549.4000244141</ele>
        <time>2014-03-02T08:11:07.000Z</time>
      </trkpt>
      <trkpt lat="45.3245" lon="6.22918">
        <ele>1549.5999755859</ele>
        <time>2014-03-02T08:11:08.000Z</time>
      </trkpt>
      <trkpt lat="45.32449" lon="6.22917">
        <ele>1549.8000488281</ele>
        <time>2014-03-02T08:11:09.000Z</time>
      </trkpt>
      <trkpt lat="45.32449" lon="6.22916">
        <ele>1550.1999511719</ele>
        <time>2014-03-02T08:11:10.000Z</time>
      </trkpt>
      <trkpt lat="45.3245" lon="6.22914">
        <ele>1550.1999511719</ele>
        <time>2014-03-02T08:11:11.000Z</time>
      </trkpt>
      <trkpt lat="45.3245" lon="6.22913">
        <ele>1550.4000244141</ele>
        <time>2014-03-02T08:11:12.000Z</time>
      </trkpt>
      <trkpt lat="45.32449" lon="6.22913">
        <ele>1550.4000244141</ele>
        <time>2014-03-02T08:11:13.000Z</time>
      </trkpt>
      <trkpt lat="45.32449" lon="6.22913">
        <ele>1550.5999755859</ele>
        <time>2014-03-02T08:11:14.000Z</time>
      </trkpt>
      <trkpt lat="45.32449" lon="6.22912">
        <ele>1550.5999755859</ele>
        <time>2014-03-02T08:11:15.000Z</time>
      </trkpt>
      <trkpt lat="45.32449" lon="6.22911">
        <ele>1550.8000488281</ele>
        <time>2014-03-02T08:11:16.000Z</time>
      </trkpt>
      <trkpt lat="45.32448" lon="6.22908">
        <ele>1551.1999511719</ele>
        <time>2014-03-02T08:11:17.000Z</time>
      </trkpt>
      <trkpt lat="45.32448" lon="6.22908">
        <ele>1551.4000244141</ele>
        <time>2014-03-02T08:11:18.000Z</time>
      </trkpt>
      <trkpt lat="45.32448" lon="6.22906">
        <ele>1551.5999755859</ele>
        <time>2014-03-02T08:11:19.000Z</time>
      </trkpt>
      <trkpt lat="45.32447" lon="6.22906">
        <ele>1551.5999755859</ele>
        <time>2014-03-02T08:11:20.000Z</time>
      </trkpt>
      <trkpt lat="45.32448" lon="6.22904">
        <ele>1551.8000488281</ele>
        <time>2014-03-02T08:11:21.000Z</time>
      </trkpt>
      <trkpt lat="45.32448" lon="6.22904">
        <ele>1552</ele>
        <time>2014-03-02T08:11:22.000Z</time>
      </trkpt>
      <trkpt lat="45.32448" lon="6.22903">
        <ele>1552</ele>
        <time>2014-03-02T08:11:23.000Z</time>
      </trkpt>
      <trkpt lat="45.32448" lon="6.22902">
        <ele>1552.1999511719</ele>
        <time>2014-03-02T08:11:24.000Z</time>
      </trkpt>
      <trkpt lat="45.32448" lon="6.22901">
        <ele>1552.1999511719</ele>
        <time>2014-03-02T08:11:25.000Z</time>
      </trkpt>
      <trkpt lat="45.32447" lon="6.22899">
        <ele>1552.5999755859</ele>
        <time>2014-03-02T08:11:26.000Z</time>
      </trkpt>
      <trkpt lat="45.32448" lon="6.22899">
        <ele>1552.4000244141</ele>
        <time>2014-03-02T08:11:27.000Z</time>
      </trkpt>
      <trkpt lat="45.32448" lon="6.22897">
        <ele>1552.5999755859</ele>
        <time>2014-03-02T08:11:28.000Z</time>
      </trkpt>
      <trkpt lat="45.32449" lon="6.22895">
        <ele>1552.5999755859</ele>
        <time>2014-03-02T08:11:29.000Z</time>
      </trkpt>
      <trkpt lat="45.32449" lon="6.22894">
        <ele>1552.8000488281</ele>
        <time>2014-03-02T08:11:30.000Z</time>
      </trkpt>
      <trkpt lat="45.32449" lon="6.22894">
        <ele>1552.5999755859</ele>
        <time>2014-03-02T08:11:31.000Z</time>
      </trkpt>
      <trkpt lat="45.32449" lon="6.22893">
        <ele>1552.5999755859</ele>
        <time>2014-03-02T08:11:32.000Z</time>
      </trkpt>
      <trkpt lat="45.3245" lon="6.22892">
        <ele>1552.4000244141</ele>
        <time>2014-03-02T08:11:33.000Z</time>
      </trkpt>
      <trkpt lat="45.3245" lon="6.22892">
        <ele>1552.4000244141</ele>
        <time>2014-03-02T08:11:34.000Z</time>
      </trkpt>
      <trkpt lat="45.3245" lon="6.22891">
        <ele>1552.5999755859</ele>
        <time>2014-03-02T08:11:35.000Z</time>
      </trkpt>
      <trkpt lat="45.3245" lon="6.2289">
        <ele>1552.5999755859</ele>
        <time>2014-03-02T08:11:36.000Z</time>
      </trkpt>
      <trkpt lat="45.32449" lon="6.2289">
        <ele>1552.8000488281</ele>
        <time>2014-03-02T08:11:37.000Z</time>
      </trkpt>
      <trkpt lat="45.32449" lon="6.2289">
        <ele>1552.8000488281</ele>
        <time>2014-03-02T08:11:38.000Z</time>
      </trkpt>
      <trkpt lat="45.32449" lon="6.2289">
        <ele>1552.8000488281</ele>
        <time>2014-03-02T08:11:39.000Z</time>
      </trkpt>
      <trkpt lat="45.32449" lon="6.22889">
        <ele>1552.8000488281</ele>
        <time>2014-03-02T08:11:40.000Z</time>
      </trkpt>
      <trkpt lat="45.32449" lon="6.22886">
        <ele>1553</ele>
        <time>2014-03-02T08:11:41.000Z</time>
      </trkpt>
      <trkpt lat="45.32449" lon="6.22886">
        <ele>1553</ele>
        <time>2014-03-02T08:11:42.000Z</time>
      </trkpt>
      <trkpt lat="45.32448" lon="6.22885">
        <ele>1553.1999511719</ele>
        <time>2014-03-02T08:11:43.000Z</time>
      </trkpt>
      <trkpt lat="45.32448" lon="6.22884">
        <ele>1553.4000244141</ele>
        <time>2014-03-02T08:11:44.000Z</time>
      </trkpt>
      <trkpt lat="45.32448" lon="6.22883">
        <ele>1553.4000244141</ele>
        <time>2014-03-02T08:11:45.000Z</time>
      </trkpt>
      <trkpt lat="45.32448" lon="6.2288">
        <ele>1553.4000244141</ele>
        <time>2014-03-02T08:11:46.000Z</time>
      </trkpt>
      <trkpt lat="45.32448" lon="6.2288">
        <ele>1553.5999755859</ele>
        <time>2014-03-02T08:11:47.000Z</time>
      </trkpt>
      <trkpt lat="45.32448" lon="6.22877">
        <ele>1553.8000488281</ele>
        <time>2014-03-02T08:11:48.000Z</time>
      </trkpt>
      <trkpt lat="45.32447" lon="6.22877">
        <ele>1554</ele>
        <time>2014-03-02T08:11:49.000Z</time>
      </trkpt>
      <trkpt lat="45.32447" lon="6.22876">
        <ele>1554</ele>
        <time>2014-03-02T08:11:50.000Z</time>
      </trkpt>
      <trkpt lat="45.32447" lon="6.22875">
        <ele>1554.1999511719</ele>
        <time>2014-03-02T08:11:51.000Z</time>
      </trkpt>
      <trkpt lat="45.32447" lon="6.22873">
        <ele>1554.4000244141</ele>
        <time>2014-03-02T08:11:52.000Z</time>
      </trkpt>
      <trkpt lat="45.32447" lon="6.22873">
        <ele>1554.4000244141</ele>
        <time>2014-03-02T08:11:53.000Z</time>
      </trkpt>
      <trkpt lat="45.32447" lon="6.22872">
        <ele>1554.4000244141</ele>
        <time>2014-03-02T08:11:54.000Z</time>
      </trkpt>
      <trkpt lat="45.32447" lon="6.22871">
        <ele>1554.5999755859</ele>
        <time>2014-03-02T08:11:55.000Z</time>
      </trkpt>
      <trkpt lat="45.32447" lon="6.2287">
        <ele>1554.5999755859</ele>
        <time>2014-03-02T08:11:56.000Z</time>
      </trkpt>
      <trkpt lat="45.32447" lon="6.22869">
        <ele>1554.8000488281</ele>
        <time>2014-03-02T08:11:57.000Z</time>
      </trkpt>
      <trkpt lat="45.32448" lon="6.22868">
        <ele>1554.8000488281</ele>
        <time>2014-03-02T08:11:58.000Z</time>
      </trkpt>
      <trkpt lat="45.32448" lon="6.22867">
        <ele>1554.8000488281</ele>
        <time>2014-03-02T08:11:59.000Z</time>
      </trkpt>
      <trkpt lat="45.32449" lon="6.22866">
        <ele>1554.8000488281</ele>
        <time>2014-03-02T08:12:00.000Z</time>
      </trkpt>
      <trkpt lat="45.32449" lon="6.22866">
        <ele>1554.8000488281</ele>
        <time>2014-03-02T08:12:01.000Z</time>
      </trkpt>
      <trkpt lat="45.32448" lon="6.22865">
        <ele>1555</ele>
        <time>2014-03-02T08:12:02.000Z</time>
      </trkpt>
      <trkpt lat="45.32448" lon="6.22863">
        <ele>1555.1999511719</ele>
        <time>2014-03-02T08:12:03.000Z</time>
      </trkpt>
      <trkpt lat="45.32448" lon="6.22861">
        <ele>1555.4000244141</ele>
        <time>2014-03-02T08:12:04.000Z</time>
      </trkpt>
      <trkpt lat="45.32448" lon="6.2286">
        <ele>1555.4000244141</ele>
        <time>2014-03-02T08:12:05.000Z</time>
      </trkpt>
      <trkpt lat="45.32448" lon="6.22857">
        <ele>1555.8000488281</ele>
        <time>2014-03-02T08:12:06.000Z</time>
      </trkpt>
      <trkpt lat="45.32448" lon="6.22857">
        <ele>1555.8000488281</ele>
        <time>2014-03-02T08:12:07.000Z</time>
      </trkpt>
      <trkpt lat="45.32448" lon="6.22854">
        <ele>1556</ele>
        <time>2014-03-02T08:12:08.000Z</time>
      </trkpt>
      <trkpt lat="45.32449" lon="6.22854">
        <ele>1555.8000488281</ele>
        <time>2014-03-02T08:12:09.000Z</time>
      </trkpt>
      <trkpt lat="45.32449" lon="6.22853">
        <ele>1556</ele>
        <time>2014-03-02T08:12:10.000Z</time>
      </trkpt>
      <trkpt lat="45.3245" lon="6.2285">
        <ele>1556</ele>
        <time>2014-03-02T08:12:11.000Z</time>
      </trkpt>
      <trkpt lat="45.3245" lon="6.2285">
        <ele>1556</ele>
        <time>2014-03-02T08:12:12.000Z</time>
      </trkpt>
      <trkpt lat="45.3245" lon="6.22849">
        <ele>1556.1999511719</ele>
        <time>2014-03-02T08:12:13.000Z</time>
      </trkpt>
      <trkpt lat="45.3245" lon="6.22848">
        <ele>1556.1999511719</ele>
        <time>2014-03-02T08:12:14.000Z</time>
      </trkpt>
      <trkpt lat="45.32449" lon="6.22847">
        <ele>1556.4000244141</ele>
        <time>2014-03-02T08:12:15.000Z</time>
      </trkpt>
      <trkpt lat="45.32449" lon="6.22847">
        <ele>1556.4000244141</ele>
        <time>2014-03-02T08:12:16.000Z</time>
      </trkpt>
      <trkpt lat="45.32448" lon="6.22845">
        <ele>1556.8000488281</ele>
        <time>2014-03-02T08:12:17.000Z</time>
      </trkpt>
      <trkpt lat="45.32449" lon="6.22844">
        <ele>1556.8000488281</ele>
        <time>2014-03-02T08:12:18.000Z</time>
      </trkpt>
      <trkpt lat="45.32448" lon="6.22843">
        <ele>1557</ele>
        <time>2014-03-02T08:12:19.000Z</time>
      </trkpt>
      <trkpt lat="45.32448" lon="6.22843">
        <ele>1557</ele>
        <time>2014-03-02T08:12:20.000Z</time>
      </trkpt>
      <trkpt lat="45.32448" lon="6.22842">
        <ele>1557.1999511719</ele>
        <time>2014-03-02T08:12:21.000Z</time>
      </trkpt>
      <trkpt lat="45.32448" lon="6.2284">
        <ele>1557.1999511719</ele>
        <time>2014-03-02T08:12:22.000Z</time>
      </trkpt>
      <trkpt lat="45.32448" lon="6.22839">
        <ele>1557.4000244141</ele>
        <time>2014-03-02T08:12:23.000Z</time>
      </trkpt>
      <trkpt lat="45.32448" lon="6.22839">
        <ele>1557.4000244141</ele>
        <time>2014-03-02T08:12:24.000Z</time>
      </trkpt>
      <trkpt lat="45.32448" lon="6.22838">
        <ele>1557.5999755859</ele>
        <time>2014-03-02T08:12:25.000Z</time>
      </trkpt>
      <trkpt lat="45.32448" lon="6.22835">
        <ele>1557.8000488281</ele>
        <time>2014-03-02T08:12:26.000Z</time>
      </trkpt>
      <trkpt lat="45.32448" lon="6.22835">
        <ele>1557.8000488281</ele>
        <time>2014-03-02T08:12:27.000Z</time>
      </trkpt>
      <trkpt lat="45.32447" lon="6.22833">
        <ele>1558.1999511719</ele>
        <time>2014-03-02T08:12:28.000Z</time>
      </trkpt>
      <trkpt lat="45.32448" lon="6.22832">
        <ele>1558.1999511719</ele>
        <time>2014-03-02T08:12:29.000Z</time>
      </trkpt>
      <trkpt lat="45.32447" lon="6.2283">
        <ele>1558.4000244141</ele>
        <time>2014-03-02T08:12:30.000Z</time>
      </trkpt>
      <trkpt lat="45.32447" lon="6.2283">
        <ele>1558.4000244141</ele>
        <time>2014-03-02T08:12:31.000Z</time>
      </trkpt>
      <trkpt lat="45.32447" lon="6.22829">
        <ele>1558.5999755859</ele>
        <time>2014-03-02T08:12:32.000Z</time>
      </trkpt>
      <trkpt lat="45.32446" lon="6.22827">
        <ele>1559</ele>
        <time>2014-03-02T08:12:33.000Z</time>
      </trkpt>
      <trkpt lat="45.32446" lon="6.22827">
        <ele>1559</ele>
        <time>2014-03-02T08:12:34.000Z</time>
      </trkpt>
      <trkpt lat="45.32445" lon="6.22826">
        <ele>1559.1999511719</ele>
        <time>2014-03-02T08:12:35.000Z</time>
      </trkpt>
      <trkpt lat="45.32444" lon="6.22826">
        <ele>1559.5999755859</ele>
        <time>2014-03-02T08:12:36.000Z</time>
      </trkpt>
      <trkpt lat="45.32443" lon="6.22825">
        <ele>1559.8000488281</ele>
        <time>2014-03-02T08:12:37.000Z</time>
      </trkpt>
      <trkpt lat="45.32442" lon="6.22824">
        <ele>1560</ele>
        <time>2014-03-02T08:12:38.000Z</time>
      </trkpt>
      <trkpt lat="45.32442" lon="6.22823">
        <ele>1560.1999511719</ele>
        <time>2014-03-02T08:12:39.000Z</time>
      </trkpt>
      <trkpt lat="45.32442" lon="6.22821">
        <ele>1560.4000244141</ele>
        <time>2014-03-02T08:12:40.000Z</time>
      </trkpt>
      <trkpt lat="45.32441" lon="6.2282">
        <ele>1560.5999755859</ele>
        <time>2014-03-02T08:12:41.000Z</time>
      </trkpt>
      <trkpt lat="45.32441" lon="6.22817">
        <ele>1560.8000488281</ele>
        <time>2014-03-02T08:12:42.000Z</time>
      </trkpt>
      <trkpt lat="45.32442" lon="6.22817">
        <ele>1560.8000488281</ele>
        <time>2014-03-02T08:12:43.000Z</time>
      </trkpt>
      <trkpt lat="45.32442" lon="6.22816">
        <ele>1560.8000488281</ele>
        <time>2014-03-02T08:12:44.000Z</time>
      </trkpt>
      <trkpt lat="45.32442" lon="6.22815">
        <ele>1561</ele>
        <time>2014-03-02T08:12:45.000Z</time>
      </trkpt>
      <trkpt lat="45.32442" lon="6.22813">
        <ele>1561.1999511719</ele>
        <time>2014-03-02T08:12:46.000Z</time>
      </trkpt>
      <trkpt lat="45.32442" lon="6.22813">
        <ele>1561.1999511719</ele>
        <time>2014-03-02T08:12:47.000Z</time>
      </trkpt>
      <trkpt lat="45.32442" lon="6.22812">
        <ele>1561.1999511719</ele>
        <time>2014-03-02T08:12:48.000Z</time>
      </trkpt>
      <trkpt lat="45.32442" lon="6.22811">
        <ele>1561.1999511719</ele>
        <time>2014-03-02T08:12:49.000Z</time>
      </trkpt>
      <trkpt lat="45.32442" lon="6.2281">
        <ele>1561.4000244141</ele>
        <time>2014-03-02T08:12:50.000Z</time>
      </trkpt>
      <trkpt lat="45.32442" lon="6.22809">
        <ele>1561.4000244141</ele>
        <time>2014-03-02T08:12:51.000Z</time>
      </trkpt>
      <trkpt lat="45.32442" lon="6.22808">
        <ele>1561.5999755859</ele>
        <time>2014-03-02T08:12:52.000Z</time>
      </trkpt>
      <trkpt lat="45.32441" lon="6.22808">
        <ele>1561.8000488281</ele>
        <time>2014-03-02T08:12:53.000Z</time>
      </trkpt>
      <trkpt lat="45.32441" lon="6.22807">
        <ele>1562</ele>
        <time>2014-03-02T08:12:54.000Z</time>
      </trkpt>
      <trkpt lat="45.32441" lon="6.22806">
        <ele>1562</ele>
        <time>2014-03-02T08:12:55.000Z</time>
      </trkpt>
      <trkpt lat="45.32441" lon="6.22805">
        <ele>1562.1999511719</ele>
        <time>2014-03-02T08:12:56.000Z</time>
      </trkpt>
      <trkpt lat="45.32441" lon="6.22804">
        <ele>1562.1999511719</ele>
        <time>2014-03-02T08:12:57.000Z</time>
      </trkpt>
      <trkpt lat="45.32442" lon="6.22802">
        <ele>1562.1999511719</ele>
        <time>2014-03-02T08:12:58.000Z</time>
      </trkpt>
      <trkpt lat="45.32442" lon="6.22801">
        <ele>1562.4000244141</ele>
        <time>2014-03-02T08:12:59.000Z</time>
      </trkpt>
      <trkpt lat="45.32442" lon="6.22801">
        <ele>1562.4000244141</ele>
        <time>2014-03-02T08:13:00.000Z</time>
      </trkpt>
      <trkpt lat="45.32442" lon="6.228">
        <ele>1562.5999755859</ele>
        <time>2014-03-02T08:13:01.000Z</time>
      </trkpt>
      <trkpt lat="45.32442" lon="6.22799">
        <ele>1562.5999755859</ele>
        <time>2014-03-02T08:13:02.000Z</time>
      </trkpt>
      <trkpt lat="45.32442" lon="6.22798">
        <ele>1562.8000488281</ele>
        <time>2014-03-02T08:13:03.000Z</time>
      </trkpt>
      <trkpt lat="45.32442" lon="6.22798">
        <ele>1562.8000488281</ele>
        <time>2014-03-02T08:13:04.000Z</time>
      </trkpt>
      <trkpt lat="45.32442" lon="6.22796">
        <ele>1563</ele>
        <time>2014-03-02T08:13:05.000Z</time>
      </trkpt>
      <trkpt lat="45.32442" lon="6.22795">
        <ele>1563</ele>
        <time>2014-03-02T08:13:06.000Z</time>
      </trkpt>
      <trkpt lat="45.32443" lon="6.22792">
        <ele>1563.1999511719</ele>
        <time>2014-03-02T08:13:07.000Z</time>
      </trkpt>
      <trkpt lat="45.32443" lon="6.22792">
        <ele>1563.1999511719</ele>
        <time>2014-03-02T08:13:08.000Z</time>
      </trkpt>
      <trkpt lat="45.32443" lon="6.22791">
        <ele>1563.4000244141</ele>
        <time>2014-03-02T08:13:09.000Z</time>
      </trkpt>
      <trkpt lat="45.32443" lon="6.2279">
        <ele>1563.4000244141</ele>
        <time>2014-03-02T08:13:10.000Z</time>
      </trkpt>
      <trkpt lat="45.32443" lon="6.2279">
        <ele>1563.4000244141</ele>
        <time>2014-03-02T08:13:11.000Z</time>
      </trkpt>
      <trkpt lat="45.32443" lon="6.22789">
        <ele>1563.5999755859</ele>
        <time>2014-03-02T08:13:12.000Z</time>
      </trkpt>
      <trkpt lat="45.32444" lon="6.22787">
        <ele>1563.8000488281</ele>
        <time>2014-03-02T08:13:13.000Z</time>
      </trkpt>
      <trkpt lat="45.32444" lon="6.22787">
        <ele>1563.8000488281</ele>
        <time>2014-03-02T08:13:14.000Z</time>
      </trkpt>
      <trkpt lat="45.32445" lon="6.22786">
        <ele>1563.8000488281</ele>
        <time>2014-03-02T08:13:15.000Z</time>
      </trkpt>
      <trkpt lat="45.32446" lon="6.22783">
        <ele>1564.1999511719</ele>
        <time>2014-03-02T08:13:16.000Z</time>
      </trkpt>
      <trkpt lat="45.32446" lon="6.22781">
        <ele>1564.4000244141</ele>
        <time>2014-03-02T08:13:17.000Z</time>
      </trkpt>
      <trkpt lat="45.32447" lon="6.22779">
        <ele>1564.8000488281</ele>
        <time>2014-03-02T08:13:18.000Z</time>
      </trkpt>
      <trkpt lat="45.32447" lon="6.22777">
        <ele>1565</ele>
        <time>2014-03-02T08:13:19.000Z</time>
      </trkpt>
      <trkpt lat="45.32448" lon="6.22776">
        <ele>1565</ele>
        <time>2014-03-02T08:13:20.000Z</time>
      </trkpt>
      <trkpt lat="45.32449" lon="6.22774">
        <ele>1565.1999511719</ele>
        <time>2014-03-02T08:13:21.000Z</time>
      </trkpt>
      <trkpt lat="45.32449" lon="6.22773">
        <ele>1565.1999511719</ele>
        <time>2014-03-02T08:13:22.000Z</time>
      </trkpt>
      <trkpt lat="45.32451" lon="6.2277">
        <ele>1565.4000244141</ele>
        <time>2014-03-02T08:13:24.000Z</time>
      </trkpt>
      <trkpt lat="45.32452" lon="6.22769">
        <ele>1565.4000244141</ele>
        <time>2014-03-02T08:13:25.000Z</time>
      </trkpt>
      <trkpt lat="45.32453" lon="6.22768">
        <ele>1565.4000244141</ele>
        <time>2014-03-02T08:13:26.000Z</time>
      </trkpt>
      <trkpt lat="45.32453" lon="6.22769">
        <ele>1565.4000244141</ele>
        <time>2014-03-02T08:13:27.000Z</time>
      </trkpt>
      <trkpt lat="45.32453" lon="6.22768">
        <ele>1565.4000244141</ele>
        <time>2014-03-02T08:13:28.000Z</time>
      </trkpt>
      <trkpt lat="45.32453" lon="6.22767">
        <ele>1565.5999755859</ele>
        <time>2014-03-02T08:13:29.000Z</time>
      </trkpt>
      <trkpt lat="45.32453" lon="6.22767">
        <ele>1565.5999755859</ele>
        <time>2014-03-02T08:13:30.000Z</time>
      </trkpt>
      <trkpt lat="45.32452" lon="6.22767">
        <ele>1565.8000488281</ele>
        <time>2014-03-02T08:13:31.000Z</time>
      </trkpt>
      <trkpt lat="45.32452" lon="6.22766">
        <ele>1565.8000488281</ele>
        <time>2014-03-02T08:13:32.000Z</time>
      </trkpt>
      <trkpt lat="45.32453" lon="6.22764">
        <ele>1566.1999511719</ele>
        <time>2014-03-02T08:13:33.000Z</time>
      </trkpt>
      <trkpt lat="45.32453" lon="6.22763">
        <ele>1566.1999511719</ele>
        <time>2014-03-02T08:13:34.000Z</time>
      </trkpt>
      <trkpt lat="45.32454" lon="6.22761">
        <ele>1566.4000244141</ele>
        <time>2014-03-02T08:13:35.000Z</time>
      </trkpt>
      <trkpt lat="45.32455" lon="6.22759">
        <ele>1566.5999755859</ele>
        <time>2014-03-02T08:13:36.000Z</time>
      </trkpt>
      <trkpt lat="45.32455" lon="6.22758">
        <ele>1566.5999755859</ele>
        <time>2014-03-02T08:13:37.000Z</time>
      </trkpt>
      <trkpt lat="45.32455" lon="6.22757">
        <ele>1566.8000488281</ele>
        <time>2014-03-02T08:13:38.000Z</time>
      </trkpt>
      <trkpt lat="45.32455" lon="6.22757">
        <ele>1567</ele>
        <time>2014-03-02T08:13:39.000Z</time>
      </trkpt>
      <trkpt lat="45.32455" lon="6.22756">
        <ele>1567</ele>
        <time>2014-03-02T08:13:40.000Z</time>
      </trkpt>
      <trkpt lat="45.32454" lon="6.22755">
        <ele>1567.1999511719</ele>
        <time>2014-03-02T08:13:41.000Z</time>
      </trkpt>
      <trkpt lat="45.32454" lon="6.22755">
        <ele>1567.4000244141</ele>
        <time>2014-03-02T08:13:42.000Z</time>
      </trkpt>
      <trkpt lat="45.32453" lon="6.22754">
        <ele>1567.5999755859</ele>
        <time>2014-03-02T08:13:43.000Z</time>
      </trkpt>
      <trkpt lat="45.32453" lon="6.22754">
        <ele>1567.5999755859</ele>
        <time>2014-03-02T08:13:44.000Z</time>
      </trkpt>
      <trkpt lat="45.32453" lon="6.22753">
        <ele>1567.8000488281</ele>
        <time>2014-03-02T08:13:45.000Z</time>
      </trkpt>
      <trkpt lat="45.32453" lon="6.22752">
        <ele>1568</ele>
        <time>2014-03-02T08:13:46.000Z</time>
      </trkpt>
      <trkpt lat="45.32452" lon="6.2275">
        <ele>1568.1999511719</ele>
        <time>2014-03-02T08:13:47.000Z</time>
      </trkpt>
      <trkpt lat="45.32452" lon="6.2275">
        <ele>1568.4000244141</ele>
        <time>2014-03-02T08:13:48.000Z</time>
      </trkpt>
      <trkpt lat="45.32452" lon="6.22748">
        <ele>1568.8000488281</ele>
        <time>2014-03-02T08:13:49.000Z</time>
      </trkpt>
      <trkpt lat="45.32452" lon="6.22748">
        <ele>1568.5999755859</ele>
        <time>2014-03-02T08:13:50.000Z</time>
      </trkpt>
      <trkpt lat="45.32453" lon="6.22745">
        <ele>1569.1999511719</ele>
        <time>2014-03-02T08:13:51.000Z</time>
      </trkpt>
      <trkpt lat="45.32453" lon="6.22745">
        <ele>1569.1999511719</ele>
        <time>2014-03-02T08:13:52.000Z</time>
      </trkpt>
      <trkpt lat="45.32454" lon="6.22741">
        <ele>1569.5999755859</ele>
        <time>2014-03-02T08:13:53.000Z</time>
      </trkpt>
      <trkpt lat="45.32454" lon="6.22741">
        <ele>1569.4000244141</ele>
        <time>2014-03-02T08:13:54.000Z</time>
      </trkpt>
      <trkpt lat="45.32454" lon="6.22739">
        <ele>1569.8000488281</ele>
        <time>2014-03-02T08:13:55.000Z</time>
      </trkpt>
      <trkpt lat="45.32454" lon="6.22739">
        <ele>1569.8000488281</ele>
        <time>2014-03-02T08:13:56.000Z</time>
      </trkpt>
      <trkpt lat="45.32454" lon="6.22737">
        <ele>1570.1999511719</ele>
        <time>2014-03-02T08:13:57.000Z</time>
      </trkpt>
      <trkpt lat="45.32454" lon="6.22737">
        <ele>1570.1999511719</ele>
        <time>2014-03-02T08:13:58.000Z</time>
      </trkpt>
      <trkpt lat="45.32454" lon="6.22736">
        <ele>1570.4000244141</ele>
        <time>2014-03-02T08:13:59.000Z</time>
      </trkpt>
      <trkpt lat="45.32453" lon="6.22735">
        <ele>1570.5999755859</ele>
        <time>2014-03-02T08:14:00.000Z</time>
      </trkpt>
      <trkpt lat="45.32453" lon="6.22734">
        <ele>1570.8000488281</ele>
        <time>2014-03-02T08:14:01.000Z</time>
      </trkpt>
      <trkpt lat="45.32453" lon="6.22733">
        <ele>1571</ele>
        <time>2014-03-02T08:14:02.000Z</time>
      </trkpt>
      <trkpt lat="45.32453" lon="6.22732">
        <ele>1571.1999511719</ele>
        <time>2014-03-02T08:14:03.000Z</time>
      </trkpt>
      <trkpt lat="45.32452" lon="6.22731">
        <ele>1571.4000244141</ele>
        <time>2014-03-02T08:14:04.000Z</time>
      </trkpt>
      <trkpt lat="45.32452" lon="6.2273">
        <ele>1571.5999755859</ele>
        <time>2014-03-02T08:14:05.000Z</time>
      </trkpt>
      <trkpt lat="45.32452" lon="6.22727">
        <ele>1572.1999511719</ele>
        <time>2014-03-02T08:14:06.000Z</time>
      </trkpt>
      <trkpt lat="45.32452" lon="6.22728">
        <ele>1572</ele>
        <time>2014-03-02T08:14:07.000Z</time>
      </trkpt>
      <trkpt lat="45.32452" lon="6.22727">
        <ele>1572.4000244141</ele>
        <time>2014-03-02T08:14:08.000Z</time>
      </trkpt>
      <trkpt lat="45.32451" lon="6.22726">
        <ele>1572.5999755859</ele>
        <time>2014-03-02T08:14:09.000Z</time>
      </trkpt>
      <trkpt lat="45.32451" lon="6.22725">
        <ele>1572.8000488281</ele>
        <time>2014-03-02T08:14:10.000Z</time>
      </trkpt>
      <trkpt lat="45.32451" lon="6.22725">
        <ele>1573</ele>
        <time>2014-03-02T08:14:11.000Z</time>
      </trkpt>
      <trkpt lat="45.32451" lon="6.22725">
        <ele>1573</ele>
        <time>2014-03-02T08:14:12.000Z</time>
      </trkpt>
      <trkpt lat="45.32451" lon="6.22725">
        <ele>1573</ele>
        <time>2014-03-02T08:14:13.000Z</time>
      </trkpt>
      <trkpt lat="45.32451" lon="6.22725">
        <ele>1573</ele>
        <time>2014-03-02T08:14:14.000Z</time>
      </trkpt>
      <trkpt lat="45.32451" lon="6.22725">
        <ele>1573</ele>
        <time>2014-03-02T08:14:15.000Z</time>
      </trkpt>
      <trkpt lat="45.32451" lon="6.22725">
        <ele>1573</ele>
        <time>2014-03-02T08:14:16.000Z</time>
      </trkpt>
      <trkpt lat="45.32449" lon="6.22722">
        <ele>1573.8000488281</ele>
        <time>2014-03-02T08:14:20.000Z</time>
      </trkpt>
      <trkpt lat="45.32449" lon="6.22722">
        <ele>1573.8000488281</ele>
        <time>2014-03-02T08:14:21.000Z</time>
      </trkpt>
      <trkpt lat="45.32449" lon="6.22722">
        <ele>1573.8000488281</ele>
        <time>2014-03-02T08:14:22.000Z</time>
      </trkpt>
      <trkpt lat="45.32449" lon="6.22722">
        <ele>1573.8000488281</ele>
        <time>2014-03-02T08:14:23.000Z</time>
      </trkpt>
      <trkpt lat="45.32448" lon="6.22722">
        <ele>1574</ele>
        <time>2014-03-02T08:14:24.000Z</time>
      </trkpt>
      <trkpt lat="45.32448" lon="6.22722">
        <ele>1574</ele>
        <time>2014-03-02T08:14:25.000Z</time>
      </trkpt>
      <trkpt lat="45.32448" lon="6.22721">
        <ele>1574.5999755859</ele>
        <time>2014-03-02T08:14:27.000Z</time>
      </trkpt>
      <trkpt lat="45.32448" lon="6.22721">
        <ele>1574.5999755859</ele>
        <time>2014-03-02T08:14:28.000Z</time>
      </trkpt>
      <trkpt lat="45.32448" lon="6.22721">
        <ele>1574.5999755859</ele>
        <time>2014-03-02T08:14:29.000Z</time>
      </trkpt>
      <trkpt lat="45.32447" lon="6.2272">
        <ele>1574.8000488281</ele>
        <time>2014-03-02T08:14:30.000Z</time>
      </trkpt>
      <trkpt lat="45.32447" lon="6.2272">
        <ele>1574.8000488281</ele>
        <time>2014-03-02T08:14:31.000Z</time>
      </trkpt>
      <trkpt lat="45.32445" lon="6.2272">
        <ele>1575.1999511719</ele>
        <time>2014-03-02T08:14:32.000Z</time>
      </trkpt>
      <trkpt lat="45.32445" lon="6.2272">
        <ele>1575.1999511719</ele>
        <time>2014-03-02T08:14:33.000Z</time>
      </trkpt>
      <trkpt lat="45.32444" lon="6.2272">
        <ele>1575.4000244141</ele>
        <time>2014-03-02T08:14:34.000Z</time>
      </trkpt>
      <trkpt lat="45.32443" lon="6.2272">
        <ele>1575.1999511719</ele>
        <time>2014-03-02T08:14:35.000Z</time>
      </trkpt>
      <trkpt lat="45.32442" lon="6.22721">
        <ele>1575.1999511719</ele>
        <time>2014-03-02T08:14:36.000Z</time>
      </trkpt>
      <trkpt lat="45.32441" lon="6.22723">
        <ele>1575</ele>
        <time>2014-03-02T08:14:37.000Z</time>
      </trkpt>
      <trkpt lat="45.32441" lon="6.22723">
        <ele>1575</ele>
        <time>2014-03-02T08:14:38.000Z</time>
      </trkpt>
      <trkpt lat="45.3244" lon="6.22724">
        <ele>1574.8000488281</ele>
        <time>2014-03-02T08:14:39.000Z</time>
      </trkpt>
      <trkpt lat="45.3244" lon="6.22724">
        <ele>1574.8000488281</ele>
        <time>2014-03-02T08:14:40.000Z</time>
      </trkpt>
      <trkpt lat="45.32438" lon="6.22726">
        <ele>1574.4000244141</ele>
        <time>2014-03-02T08:14:41.000Z</time>
      </trkpt>
      <trkpt lat="45.32438" lon="6.22726">
        <ele>1574.5999755859</ele>
        <time>2014-03-02T08:14:42.000Z</time>
      </trkpt>
      <trkpt lat="45.32438" lon="6.22726">
        <ele>1574.4000244141</ele>
        <time>2014-03-02T08:14:43.000Z</time>
      </trkpt>
      <trkpt lat="45.32437" lon="6.22727">
        <ele>1574.4000244141</ele>
        <time>2014-03-02T08:14:44.000Z</time>
      </trkpt>
      <trkpt lat="45.32436" lon="6.22728">
        <ele>1574.1999511719</ele>
        <time>2014-03-02T08:14:45.000Z</time>
      </trkpt>
      <trkpt lat="45.32435" lon="6.2273">
        <ele>1574</ele>
        <time>2014-03-02T08:14:46.000Z</time>
      </trkpt>
      <trkpt lat="45.32435" lon="6.2273">
        <ele>1574</ele>
        <time>2014-03-02T08:14:47.000Z</time>
      </trkpt>
      <trkpt lat="45.32434" lon="6.22731">
        <ele>1574</ele>
        <time>2014-03-02T08:14:48.000Z</time>
      </trkpt>
      <trkpt lat="45.32434" lon="6.22731">
        <ele>1574</ele>
        <time>2014-03-02T08:14:49.000Z</time>
      </trkpt>
      <trkpt lat="45.32434" lon="6.22732">
        <ele>1573.8000488281</ele>
        <time>2014-03-02T08:14:51.000Z</time>
      </trkpt>
      <trkpt lat="45.32433" lon="6.22734">
        <ele>1573.8000488281</ele>
        <time>2014-03-02T08:14:52.000Z</time>
      </trkpt>
      <trkpt lat="45.32433" lon="6.22734">
        <ele>1573.8000488281</ele>
        <time>2014-03-02T08:14:53.000Z</time>
      </trkpt>
      <trkpt lat="45.32432" lon="6.22735">
        <ele>1573.5999755859</ele>
        <time>2014-03-02T08:14:54.000Z</time>
      </trkpt>
      <trkpt lat="45.32432" lon="6.22736">
        <ele>1573.5999755859</ele>
        <time>2014-03-02T08:14:55.000Z</time>
      </trkpt>
      <trkpt lat="45.32431" lon="6.22737">
        <ele>1573.4000244141</ele>
        <time>2014-03-02T08:14:56.000Z</time>
      </trkpt>
      <trkpt lat="45.32431" lon="6.22737">
        <ele>1573.4000244141</ele>
        <time>2014-03-02T08:14:57.000Z</time>
      </trkpt>
      <trkpt lat="45.3243" lon="6.22739">
        <ele>1573.4000244141</ele>
        <time>2014-03-02T08:14:58.000Z</time>
      </trkpt>
      <trkpt lat="45.32429" lon="6.22741">
        <ele>1573.1999511719</ele>
        <time>2014-03-02T08:14:59.000Z</time>
      </trkpt>
      <trkpt lat="45.32429" lon="6.22741">
        <ele>1573.1999511719</ele>
        <time>2014-03-02T08:15:00.000Z</time>
      </trkpt>
      <trkpt lat="45.32428" lon="6.22742">
        <ele>1573</ele>
        <time>2014-03-02T08:15:01.000Z</time>
      </trkpt>
      <trkpt lat="45.32428" lon="6.22742">
        <ele>1573</ele>
        <time>2014-03-02T08:15:02.000Z</time>
      </trkpt>
      <trkpt lat="45.32427" lon="6.22744">
        <ele>1573</ele>
        <time>2014-03-02T08:15:03.000Z</time>
      </trkpt>
      <trkpt lat="45.32426" lon="6.22744">
        <ele>1573</ele>
        <time>2014-03-02T08:15:04.000Z</time>
      </trkpt>
      <trkpt lat="45.32426" lon="6.22745">
        <ele>1573</ele>
        <time>2014-03-02T08:15:05.000Z</time>
      </trkpt>
      <trkpt lat="45.32425" lon="6.22745">
        <ele>1573</ele>
        <time>2014-03-02T08:15:06.000Z</time>
      </trkpt>
      <trkpt lat="45.32424" lon="6.22747">
        <ele>1573</ele>
        <time>2014-03-02T08:15:07.000Z</time>
      </trkpt>
      <trkpt lat="45.32423" lon="6.22748">
        <ele>1573</ele>
        <time>2014-03-02T08:15:08.000Z</time>
      </trkpt>
      <trkpt lat="45.32423" lon="6.22748">
        <ele>1572.8000488281</ele>
        <time>2014-03-02T08:15:09.000Z</time>
      </trkpt>
      <trkpt lat="45.32422" lon="6.22749">
        <ele>1572.8000488281</ele>
        <time>2014-03-02T08:15:10.000Z</time>
      </trkpt>
      <trkpt lat="45.32422" lon="6.22749">
        <ele>1572.8000488281</ele>
        <time>2014-03-02T08:15:11.000Z</time>
      </trkpt>
      <trkpt lat="45.32421" lon="6.22751">
        <ele>1572.8000488281</ele>
        <time>2014-03-02T08:15:12.000Z</time>
      </trkpt>
      <trkpt lat="45.3242" lon="6.22751">
        <ele>1572.8000488281</ele>
        <time>2014-03-02T08:15:13.000Z</time>
      </trkpt>
      <trkpt lat="45.32419" lon="6.22752">
        <ele>1572.8000488281</ele>
        <time>2014-03-02T08:15:14.000Z</time>
      </trkpt>
      <trkpt lat="45.32418" lon="6.22753">
        <ele>1572.8000488281</ele>
        <time>2014-03-02T08:15:15.000Z</time>
      </trkpt>
      <trkpt lat="45.32417" lon="6.22753">
        <ele>1572.8000488281</ele>
        <time>2014-03-02T08:15:16.000Z</time>
      </trkpt>
      <trkpt lat="45.32417" lon="6.22753">
        <ele>1572.8000488281</ele>
        <time>2014-03-02T08:15:17.000Z</time>
      </trkpt>
      <trkpt lat="45.32417" lon="6.22754">
        <ele>1572.8000488281</ele>
        <time>2014-03-02T08:15:18.000Z</time>
      </trkpt>
      <trkpt lat="45.32416" lon="6.22756">
        <ele>1572.5999755859</ele>
        <time>2014-03-02T08:15:19.000Z</time>
      </trkpt>
      <trkpt lat="45.32416" lon="6.22756">
        <ele>1572.8000488281</ele>
        <time>2014-03-02T08:15:20.000Z</time>
      </trkpt>
      <trkpt lat="45.32415" lon="6.22756">
        <ele>1572.5999755859</ele>
        <time>2014-03-02T08:15:21.000Z</time>
      </trkpt>
      <trkpt lat="45.32415" lon="6.22757">
        <ele>1572.5999755859</ele>
        <time>2014-03-02T08:15:22.000Z</time>
      </trkpt>
      <trkpt lat="45.32415" lon="6.22758">
        <ele>1572.5999755859</ele>
        <time>2014-03-02T08:15:23.000Z</time>
      </trkpt>
      <trkpt lat="45.32414" lon="6.22758">
        <ele>1572.5999755859</ele>
        <time>2014-03-02T08:15:24.000Z</time>
      </trkpt>
      <trkpt lat="45.32413" lon="6.2276">
        <ele>1572.4000244141</ele>
        <time>2014-03-02T08:15:25.000Z</time>
      </trkpt>
      <trkpt lat="45.32413" lon="6.2276">
        <ele>1572.4000244141</ele>
        <time>2014-03-02T08:15:26.000Z</time>
      </trkpt>
      <trkpt lat="45.32413" lon="6.22761">
        <ele>1572.4000244141</ele>
        <time>2014-03-02T08:15:27.000Z</time>
      </trkpt>
      <trkpt lat="45.32412" lon="6.22762">
        <ele>1572.4000244141</ele>
        <time>2014-03-02T08:15:28.000Z</time>
      </trkpt>
      <trkpt lat="45.32412" lon="6.22762">
        <ele>1572.4000244141</ele>
        <time>2014-03-02T08:15:29.000Z</time>
      </trkpt>
      <trkpt lat="45.32412" lon="6.22763">
        <ele>1572.4000244141</ele>
        <time>2014-03-02T08:15:30.000Z</time>
      </trkpt>
      <trkpt lat="45.32412" lon="6.22764">
        <ele>1572.1999511719</ele>
        <time>2014-03-02T08:15:31.000Z</time>
      </trkpt>
      <trkpt lat="45.32411" lon="6.22764">
        <ele>1572.1999511719</ele>
        <time>2014-03-02T08:15:32.000Z</time>
      </trkpt>
      <trkpt lat="45.32411" lon="6.22766">
        <ele>1572.1999511719</ele>
        <time>2014-03-02T08:15:33.000Z</time>
      </trkpt>
      <trkpt lat="45.32411" lon="6.22766">
        <ele>1572.1999511719</ele>
        <time>2014-03-02T08:15:34.000Z</time>
      </trkpt>
      <trkpt lat="45.32411" lon="6.22767">
        <ele>1572</ele>
        <time>2014-03-02T08:15:35.000Z</time>
      </trkpt>
      <trkpt lat="45.32411" lon="6.22768">
        <ele>1572</ele>
        <time>2014-03-02T08:15:37.000Z</time>
      </trkpt>
      <trkpt lat="45.3241" lon="6.2277">
        <ele>1571.8000488281</ele>
        <time>2014-03-02T08:15:38.000Z</time>
      </trkpt>
      <trkpt lat="45.3241" lon="6.22771">
        <ele>1571.8000488281</ele>
        <time>2014-03-02T08:15:39.000Z</time>
      </trkpt>
      <trkpt lat="45.32409" lon="6.22773">
        <ele>1571.8000488281</ele>
        <time>2014-03-02T08:15:40.000Z</time>
      </trkpt>
      <trkpt lat="45.32408" lon="6.22773">
        <ele>1572</ele>
        <time>2014-03-02T08:15:41.000Z</time>
      </trkpt>
      <trkpt lat="45.32407" lon="6.22777">
        <ele>1571.8000488281</ele>
        <time>2014-03-02T08:15:43.000Z</time>
      </trkpt>
      <trkpt lat="45.32406" lon="6.22778">
        <ele>1571.8000488281</ele>
        <time>2014-03-02T08:15:44.000Z</time>
      </trkpt>
      <trkpt lat="45.32406" lon="6.2278">
        <ele>1571.5999755859</ele>
        <time>2014-03-02T08:15:46.000Z</time>
      </trkpt>
      <trkpt lat="45.32406" lon="6.22781">
        <ele>1571.5999755859</ele>
        <time>2014-03-02T08:15:47.000Z</time>
      </trkpt>
      <trkpt lat="45.32406" lon="6.22782">
        <ele>1571.4000244141</ele>
        <time>2014-03-02T08:15:48.000Z</time>
      </trkpt>
      <trkpt lat="45.32405" lon="6.22785">
        <ele>1571.1999511719</ele>
        <time>2014-03-02T08:15:49.000Z</time>
      </trkpt>
      <trkpt lat="45.32405" lon="6.22785">
        <ele>1571.1999511719</ele>
        <time>2014-03-02T08:15:50.000Z</time>
      </trkpt>
      <trkpt lat="45.32405" lon="6.22788">
        <ele>1571</ele>
        <time>2014-03-02T08:15:51.000Z</time>
      </trkpt>
      <trkpt lat="45.32405" lon="6.22788">
        <ele>1571</ele>
        <time>2014-03-02T08:15:52.000Z</time>
      </trkpt>
      <trkpt lat="45.32405" lon="6.2279">
        <ele>1570.8000488281</ele>
        <time>2014-03-02T08:15:54.000Z</time>
      </trkpt>
      <trkpt lat="45.32404" lon="6.22792">
        <ele>1570.5999755859</ele>
        <time>2014-03-02T08:15:55.000Z</time>
      </trkpt>
      <trkpt lat="45.32404" lon="6.22792">
        <ele>1570.5999755859</ele>
        <time>2014-03-02T08:15:56.000Z</time>
      </trkpt>
      <trkpt lat="45.32403" lon="6.22796">
        <ele>1570.4000244141</ele>
        <time>2014-03-02T08:15:58.000Z</time>
      </trkpt>
      <trkpt lat="45.32403" lon="6.22797">
        <ele>1570.4000244141</ele>
        <time>2014-03-02T08:15:59.000Z</time>
      </trkpt>
      <trkpt lat="45.32403" lon="6.22798">
        <ele>1570.1999511719</ele>
        <time>2014-03-02T08:16:00.000Z</time>
      </trkpt>
      <trkpt lat="45.32402" lon="6.22799">
        <ele>1570.1999511719</ele>
        <time>2014-03-02T08:16:01.000Z</time>
      </trkpt>
      <trkpt lat="45.32402" lon="6.228">
        <ele>1570.1999511719</ele>
        <time>2014-03-02T08:16:02.000Z</time>
      </trkpt>
      <trkpt lat="45.32402" lon="6.22802">
        <ele>1570</ele>
        <time>2014-03-02T08:16:03.000Z</time>
      </trkpt>
      <trkpt lat="45.32402" lon="6.22801">
        <ele>1570</ele>
        <time>2014-03-02T08:16:04.000Z</time>
      </trkpt>
      <trkpt lat="45.32402" lon="6.22803">
        <ele>1570</ele>
        <time>2014-03-02T08:16:05.000Z</time>
      </trkpt>
      <trkpt lat="45.32402" lon="6.22803">
        <ele>1570</ele>
        <time>2014-03-02T08:16:06.000Z</time>
      </trkpt>
      <trkpt lat="45.32401" lon="6.22805">
        <ele>1569.8000488281</ele>
        <time>2014-03-02T08:16:07.000Z</time>
      </trkpt>
      <trkpt lat="45.32401" lon="6.22806">
        <ele>1569.5999755859</ele>
        <time>2014-03-02T08:16:08.000Z</time>
      </trkpt>
      <trkpt lat="45.32402" lon="6.22806">
        <ele>1569.5999755859</ele>
        <time>2014-03-02T08:16:09.000Z</time>
      </trkpt>
      <trkpt lat="45.32402" lon="6.22809">
        <ele>1569.1999511719</ele>
        <time>2014-03-02T08:16:10.000Z</time>
      </trkpt>
      <trkpt lat="45.32402" lon="6.22811">
        <ele>1569.1999511719</ele>
        <time>2014-03-02T08:16:11.000Z</time>
      </trkpt>
      <trkpt lat="45.32401" lon="6.22812">
        <ele>1569</ele>
        <time>2014-03-02T08:16:12.000Z</time>
      </trkpt>
      <trkpt lat="45.32401" lon="6.22814">
        <ele>1569</ele>
        <time>2014-03-02T08:16:13.000Z</time>
      </trkpt>
      <trkpt lat="45.32401" lon="6.22815">
        <ele>1568.8000488281</ele>
        <time>2014-03-02T08:16:14.000Z</time>
      </trkpt>
      <trkpt lat="45.324" lon="6.22816">
        <ele>1568.8000488281</ele>
        <time>2014-03-02T08:16:15.000Z</time>
      </trkpt>
      <trkpt lat="45.324" lon="6.22817">
        <ele>1568.8000488281</ele>
        <time>2014-03-02T08:16:16.000Z</time>
      </trkpt>
      <trkpt lat="45.324" lon="6.22818">
        <ele>1568.8000488281</ele>
        <time>2014-03-02T08:16:17.000Z</time>
      </trkpt>
      <trkpt lat="45.324" lon="6.22819">
        <ele>1568.5999755859</ele>
        <time>2014-03-02T08:16:18.000Z</time>
      </trkpt>
      <trkpt lat="45.324" lon="6.22821">
        <ele>1568.5999755859</ele>
        <time>2014-03-02T08:16:19.000Z</time>
      </trkpt>
      <trkpt lat="45.324" lon="6.22822">
        <ele>1568.4000244141</ele>
        <time>2014-03-02T08:16:20.000Z</time>
      </trkpt>
      <trkpt lat="45.324" lon="6.22822">
        <ele>1568.1999511719</ele>
        <time>2014-03-02T08:16:21.000Z</time>
      </trkpt>
      <trkpt lat="45.324" lon="6.22823">
        <ele>1568.1999511719</ele>
        <time>2014-03-02T08:16:22.000Z</time>
      </trkpt>
      <trkpt lat="45.324" lon="6.22824">
        <ele>1568.1999511719</ele>
        <time>2014-03-02T08:16:23.000Z</time>
      </trkpt>
      <trkpt lat="45.324" lon="6.22824">
        <ele>1568</ele>
        <time>2014-03-02T08:16:24.000Z</time>
      </trkpt>
      <trkpt lat="45.324" lon="6.22825">
        <ele>1568</ele>
        <time>2014-03-02T08:16:25.000Z</time>
      </trkpt>
      <trkpt lat="45.324" lon="6.22827">
        <ele>1568</ele>
        <time>2014-03-02T08:16:26.000Z</time>
      </trkpt>
      <trkpt lat="45.324" lon="6.22828">
        <ele>1567.8000488281</ele>
        <time>2014-03-02T08:16:27.000Z</time>
      </trkpt>
      <trkpt lat="45.32399" lon="6.22829">
        <ele>1567.8000488281</ele>
        <time>2014-03-02T08:16:28.000Z</time>
      </trkpt>
      <trkpt lat="45.32398" lon="6.22829">
        <ele>1567.8000488281</ele>
        <time>2014-03-02T08:16:29.000Z</time>
      </trkpt>
      <trkpt lat="45.32398" lon="6.2283">
        <ele>1567.8000488281</ele>
        <time>2014-03-02T08:16:30.000Z</time>
      </trkpt>
      <trkpt lat="45.32398" lon="6.22831">
        <ele>1567.8000488281</ele>
        <time>2014-03-02T08:16:31.000Z</time>
      </trkpt>
      <trkpt lat="45.32398" lon="6.22832">
        <ele>1567.8000488281</ele>
        <time>2014-03-02T08:16:32.000Z</time>
      </trkpt>
      <trkpt lat="45.32398" lon="6.22834">
        <ele>1567.8000488281</ele>
        <time>2014-03-02T08:16:33.000Z</time>
      </trkpt>
      <trkpt lat="45.32398" lon="6.22836">
        <ele>1567.8000488281</ele>
        <time>2014-03-02T08:16:34.000Z</time>
      </trkpt>
      <trkpt lat="45.32398" lon="6.22835">
        <ele>1567.8000488281</ele>
        <time>2014-03-02T08:16:35.000Z</time>
      </trkpt>
      <trkpt lat="45.32398" lon="6.22837">
        <ele>1567.5999755859</ele>
        <time>2014-03-02T08:16:36.000Z</time>
      </trkpt>
      <trkpt lat="45.32398" lon="6.22838">
        <ele>1567.5999755859</ele>
        <time>2014-03-02T08:16:37.000Z</time>
      </trkpt>
      <trkpt lat="45.32398" lon="6.22839">
        <ele>1567.4000244141</ele>
        <time>2014-03-02T08:16:38.000Z</time>
      </trkpt>
      <trkpt lat="45.32398" lon="6.22839">
        <ele>1567.4000244141</ele>
        <time>2014-03-02T08:16:39.000Z</time>
      </trkpt>
      <trkpt lat="45.32399" lon="6.2284">
        <ele>1567.1999511719</ele>
        <time>2014-03-02T08:16:40.000Z</time>
      </trkpt>
      <trkpt lat="45.32399" lon="6.22841">
        <ele>1567.1999511719</ele>
        <time>2014-03-02T08:16:41.000Z</time>
      </trkpt>
      <trkpt lat="45.32399" lon="6.22843">
        <ele>1567.1999511719</ele>
        <time>2014-03-02T08:16:42.000Z</time>
      </trkpt>
      <trkpt lat="45.32399" lon="6.22846">
        <ele>1567</ele>
        <time>2014-03-02T08:16:44.000Z</time>
      </trkpt>
      <trkpt lat="45.32399" lon="6.22847">
        <ele>1566.8000488281</ele>
        <time>2014-03-02T08:16:45.000Z</time>
      </trkpt>
      <trkpt lat="45.32399" lon="6.22849">
        <ele>1566.8000488281</ele>
        <time>2014-03-02T08:16:46.000Z</time>
      </trkpt>
      <trkpt lat="45.32399" lon="6.2285">
        <ele>1566.8000488281</ele>
        <time>2014-03-02T08:16:47.000Z</time>
      </trkpt>
      <trkpt lat="45.32399" lon="6.22851">
        <ele>1566.8000488281</ele>
        <time>2014-03-02T08:16:48.000Z</time>
      </trkpt>
      <trkpt lat="45.32399" lon="6.22852">
        <ele>1566.8000488281</ele>
        <time>2014-03-02T08:16:50.000Z</time>
      </trkpt>
      <trkpt lat="45.32399" lon="6.22852">
        <ele>1566.8000488281</ele>
        <time>2014-03-02T08:16:51.000Z</time>
      </trkpt>
      <trkpt lat="45.32399" lon="6.22853">
        <ele>1566.5999755859</ele>
        <time>2014-03-02T08:16:52.000Z</time>
      </trkpt>
      <trkpt lat="45.32398" lon="6.22854">
        <ele>1566.5999755859</ele>
        <time>2014-03-02T08:16:53.000Z</time>
      </trkpt>
      <trkpt lat="45.32398" lon="6.22856">
        <ele>1566.5999755859</ele>
        <time>2014-03-02T08:16:54.000Z</time>
      </trkpt>
      <trkpt lat="45.32398" lon="6.22858">
        <ele>1566.5999755859</ele>
        <time>2014-03-02T08:16:55.000Z</time>
      </trkpt>
      <trkpt lat="45.32398" lon="6.22859">
        <ele>1566.4000244141</ele>
        <time>2014-03-02T08:16:56.000Z</time>
      </trkpt>
      <trkpt lat="45.32398" lon="6.2286">
        <ele>1566.4000244141</ele>
        <time>2014-03-02T08:16:57.000Z</time>
      </trkpt>
      <trkpt lat="45.32398" lon="6.22862">
        <ele>1566.5999755859</ele>
        <time>2014-03-02T08:16:58.000Z</time>
      </trkpt>
      <trkpt lat="45.32397" lon="6.22863">
        <ele>1566.5999755859</ele>
        <time>2014-03-02T08:16:59.000Z</time>
      </trkpt>
      <trkpt lat="45.32396" lon="6.22865">
        <ele>1566.5999755859</ele>
        <time>2014-03-02T08:17:00.000Z</time>
      </trkpt>
      <trkpt lat="45.32396" lon="6.22866">
        <ele>1566.5999755859</ele>
        <time>2014-03-02T08:17:01.000Z</time>
      </trkpt>
      <trkpt lat="45.32396" lon="6.22868">
        <ele>1566.5999755859</ele>
        <time>2014-03-02T08:17:02.000Z</time>
      </trkpt>
      <trkpt lat="45.32395" lon="6.22869">
        <ele>1566.8000488281</ele>
        <time>2014-03-02T08:17:03.000Z</time>
      </trkpt>
      <trkpt lat="45.32395" lon="6.2287">
        <ele>1566.8000488281</ele>
        <time>2014-03-02T08:17:04.000Z</time>
      </trkpt>
      <trkpt lat="45.32395" lon="6.22871">
        <ele>1566.8000488281</ele>
        <time>2014-03-02T08:17:05.000Z</time>
      </trkpt>
      <trkpt lat="45.32395" lon="6.22872">
        <ele>1566.8000488281</ele>
        <time>2014-03-02T08:17:06.000Z</time>
      </trkpt>
      <trkpt lat="45.32395" lon="6.22873">
        <ele>1566.5999755859</ele>
        <time>2014-03-02T08:17:07.000Z</time>
      </trkpt>
      <trkpt lat="45.32395" lon="6.22873">
        <ele>1566.5999755859</ele>
        <time>2014-03-02T08:17:08.000Z</time>
      </trkpt>
      <trkpt lat="45.32394" lon="6.22875">
        <ele>1566.5999755859</ele>
        <time>2014-03-02T08:17:09.000Z</time>
      </trkpt>
      <trkpt lat="45.32394" lon="6.22876">
        <ele>1566.5999755859</ele>
        <time>2014-03-02T08:17:10.000Z</time>
      </trkpt>
      <trkpt lat="45.32394" lon="6.22877">
        <ele>1566.8000488281</ele>
        <time>2014-03-02T08:17:11.000Z</time>
      </trkpt>
      <trkpt lat="45.32394" lon="6.22877">
        <ele>1566.8000488281</ele>
        <time>2014-03-02T08:17:12.000Z</time>
      </trkpt>
      <trkpt lat="45.32393" lon="6.22878">
        <ele>1566.8000488281</ele>
        <time>2014-03-02T08:17:13.000Z</time>
      </trkpt>
      <trkpt lat="45.32393" lon="6.22879">
        <ele>1566.8000488281</ele>
        <time>2014-03-02T08:17:14.000Z</time>
      </trkpt>
      <trkpt lat="45.32392" lon="6.2288">
        <ele>1567</ele>
        <time>2014-03-02T08:17:15.000Z</time>
      </trkpt>
      <trkpt lat="45.32392" lon="6.22881">
        <ele>1567</ele>
        <time>2014-03-02T08:17:16.000Z</time>
      </trkpt>
      <trkpt lat="45.32392" lon="6.22883">
        <ele>1567</ele>
        <time>2014-03-02T08:17:17.000Z</time>
      </trkpt>
      <trkpt lat="45.32391" lon="6.22884">
        <ele>1567</ele>
        <time>2014-03-02T08:17:18.000Z</time>
      </trkpt>
      <trkpt lat="45.32391" lon="6.22885">
        <ele>1566.8000488281</ele>
        <time>2014-03-02T08:17:19.000Z</time>
      </trkpt>
      <trkpt lat="45.32391" lon="6.22886">
        <ele>1566.8000488281</ele>
        <time>2014-03-02T08:17:20.000Z</time>
      </trkpt>
      <trkpt lat="45.32391" lon="6.22887">
        <ele>1566.8000488281</ele>
        <time>2014-03-02T08:17:21.000Z</time>
      </trkpt>
      <trkpt lat="45.32391" lon="6.22888">
        <ele>1566.8000488281</ele>
        <time>2014-03-02T08:17:22.000Z</time>
      </trkpt>
      <trkpt lat="45.32391" lon="6.22889">
        <ele>1566.8000488281</ele>
        <time>2014-03-02T08:17:23.000Z</time>
      </trkpt>
      <trkpt lat="45.32391" lon="6.2289">
        <ele>1566.8000488281</ele>
        <time>2014-03-02T08:17:24.000Z</time>
      </trkpt>
      <trkpt lat="45.32391" lon="6.22891">
        <ele>1566.8000488281</ele>
        <time>2014-03-02T08:17:25.000Z</time>
      </trkpt>
      <trkpt lat="45.32391" lon="6.22892">
        <ele>1566.5999755859</ele>
        <time>2014-03-02T08:17:26.000Z</time>
      </trkpt>
      <trkpt lat="45.32391" lon="6.22893">
        <ele>1566.5999755859</ele>
        <time>2014-03-02T08:17:27.000Z</time>
      </trkpt>
      <trkpt lat="45.32391" lon="6.22895">
        <ele>1566.5999755859</ele>
        <time>2014-03-02T08:17:28.000Z</time>
      </trkpt>
      <trkpt lat="45.32391" lon="6.22896">
        <ele>1566.4000244141</ele>
        <time>2014-03-02T08:17:29.000Z</time>
      </trkpt>
      <trkpt lat="45.32391" lon="6.22897">
        <ele>1566.1999511719</ele>
        <time>2014-03-02T08:17:30.000Z</time>
      </trkpt>
      <trkpt lat="45.32391" lon="6.22899">
        <ele>1566.1999511719</ele>
        <time>2014-03-02T08:17:31.000Z</time>
      </trkpt>
      <trkpt lat="45.3239" lon="6.229">
        <ele>1566</ele>
        <time>2014-03-02T08:17:32.000Z</time>
      </trkpt>
      <trkpt lat="45.3239" lon="6.22902">
        <ele>1566</ele>
        <time>2014-03-02T08:17:33.000Z</time>
      </trkpt>
      <trkpt lat="45.3239" lon="6.22903">
        <ele>1565.8000488281</ele>
        <time>2014-03-02T08:17:34.000Z</time>
      </trkpt>
      <trkpt lat="45.3239" lon="6.22905">
        <ele>1565.8000488281</ele>
        <time>2014-03-02T08:17:35.000Z</time>
      </trkpt>
      <trkpt lat="45.32389" lon="6.22906">
        <ele>1565.8000488281</ele>
        <time>2014-03-02T08:17:36.000Z</time>
      </trkpt>
      <trkpt lat="45.32389" lon="6.22908">
        <ele>1566</ele>
        <time>2014-03-02T08:17:37.000Z</time>
      </trkpt>
      <trkpt lat="45.32389" lon="6.22909">
        <ele>1566.1999511719</ele>
        <time>2014-03-02T08:17:38.000Z</time>
      </trkpt>
      <trkpt lat="45.32389" lon="6.2291">
        <ele>1566.1999511719</ele>
        <time>2014-03-02T08:17:39.000Z</time>
      </trkpt>
      <trkpt lat="45.32389" lon="6.22911">
        <ele>1566.1999511719</ele>
        <time>2014-03-02T08:17:40.000Z</time>
      </trkpt>
      <trkpt lat="45.32388" lon="6.22912">
        <ele>1566.4000244141</ele>
        <time>2014-03-02T08:17:41.000Z</time>
      </trkpt>
      <trkpt lat="45.32388" lon="6.22912">
        <ele>1566.4000244141</ele>
        <time>2014-03-02T08:17:42.000Z</time>
      </trkpt>
      <trkpt lat="45.32388" lon="6.22913">
        <ele>1566.4000244141</ele>
        <time>2014-03-02T08:17:43.000Z</time>
      </trkpt>
      <trkpt lat="45.32388" lon="6.22914">
        <ele>1566.5999755859</ele>
        <time>2014-03-02T08:17:44.000Z</time>
      </trkpt>
      <trkpt lat="45.32388" lon="6.22914">
        <ele>1566.5999755859</ele>
        <time>2014-03-02T08:17:45.000Z</time>
      </trkpt>
      <trkpt lat="45.32388" lon="6.22915">
        <ele>1566.5999755859</ele>
        <time>2014-03-02T08:17:46.000Z</time>
      </trkpt>
      <trkpt lat="45.32388" lon="6.22916">
        <ele>1566.5999755859</ele>
        <time>2014-03-02T08:17:47.000Z</time>
      </trkpt>
      <trkpt lat="45.32387" lon="6.22918">
        <ele>1566.8000488281</ele>
        <time>2014-03-02T08:17:48.000Z</time>
      </trkpt>
      <trkpt lat="45.32387" lon="6.22919">
        <ele>1567</ele>
        <time>2014-03-02T08:17:49.000Z</time>
      </trkpt>
      <trkpt lat="45.32387" lon="6.2292">
        <ele>1567</ele>
        <time>2014-03-02T08:17:50.000Z</time>
      </trkpt>
      <trkpt lat="45.32387" lon="6.2292">
        <ele>1567</ele>
        <time>2014-03-02T08:17:51.000Z</time>
      </trkpt>
      <trkpt lat="45.32388" lon="6.22921">
        <ele>1566.8000488281</ele>
        <time>2014-03-02T08:17:52.000Z</time>
      </trkpt>
      <trkpt lat="45.32388" lon="6.22921">
        <ele>1566.8000488281</ele>
        <time>2014-03-02T08:17:53.000Z</time>
      </trkpt>
      <trkpt lat="45.32387" lon="6.22921">
        <ele>1567</ele>
        <time>2014-03-02T08:17:54.000Z</time>
      </trkpt>
      <trkpt lat="45.32387" lon="6.22922">
        <ele>1567</ele>
        <time>2014-03-02T08:17:55.000Z</time>
      </trkpt>
      <trkpt lat="45.32387" lon="6.22923">
        <ele>1567.1999511719</ele>
        <time>2014-03-02T08:17:56.000Z</time>
      </trkpt>
      <trkpt lat="45.32386" lon="6.22925">
        <ele>1567.4000244141</ele>
        <time>2014-03-02T08:17:57.000Z</time>
      </trkpt>
      <trkpt lat="45.32386" lon="6.22926">
        <ele>1567.5999755859</ele>
        <time>2014-03-02T08:17:58.000Z</time>
      </trkpt>
      <trkpt lat="45.32386" lon="6.22928">
        <ele>1567.8000488281</ele>
        <time>2014-03-02T08:17:59.000Z</time>
      </trkpt>
      <trkpt lat="45.32385" lon="6.22929">
        <ele>1568</ele>
        <time>2014-03-02T08:18:00.000Z</time>
      </trkpt>
      <trkpt lat="45.32385" lon="6.2293">
        <ele>1568</ele>
        <time>2014-03-02T08:18:01.000Z</time>
      </trkpt>
      <trkpt lat="45.32385" lon="6.22931">
        <ele>1568.1999511719</ele>
        <time>2014-03-02T08:18:02.000Z</time>
      </trkpt>
      <trkpt lat="45.32385" lon="6.22932">
        <ele>1568.1999511719</ele>
        <time>2014-03-02T08:18:03.000Z</time>
      </trkpt>
      <trkpt lat="45.32385" lon="6.22934">
        <ele>1568.4000244141</ele>
        <time>2014-03-02T08:18:04.000Z</time>
      </trkpt>
      <trkpt lat="45.32384" lon="6.22935">
        <ele>1568.5999755859</ele>
        <time>2014-03-02T08:18:05.000Z</time>
      </trkpt>
      <trkpt lat="45.32384" lon="6.22936">
        <ele>1568.5999755859</ele>
        <time>2014-03-02T08:18:06.000Z</time>
      </trkpt>
      <trkpt lat="45.32384" lon="6.22938">
        <ele>1568.8000488281</ele>
        <time>2014-03-02T08:18:07.000Z</time>
      </trkpt>
      <trkpt lat="45.32383" lon="6.22939">
        <ele>1569</ele>
        <time>2014-03-02T08:18:08.000Z</time>
      </trkpt>
      <trkpt lat="45.32383" lon="6.2294">
        <ele>1569.1999511719</ele>
        <time>2014-03-02T08:18:09.000Z</time>
      </trkpt>
      <trkpt lat="45.32383" lon="6.22942">
        <ele>1569.1999511719</ele>
        <time>2014-03-02T08:18:10.000Z</time>
      </trkpt>
      <trkpt lat="45.32382" lon="6.22943">
        <ele>1569.4000244141</ele>
        <time>2014-03-02T08:18:11.000Z</time>
      </trkpt>
      <trkpt lat="45.32382" lon="6.22944">
        <ele>1569.4000244141</ele>
        <time>2014-03-02T08:18:12.000Z</time>
      </trkpt>
      <trkpt lat="45.32382" lon="6.22945">
        <ele>1569.5999755859</ele>
        <time>2014-03-02T08:18:13.000Z</time>
      </trkpt>
      <trkpt lat="45.32382" lon="6.22946">
        <ele>1569.8000488281</ele>
        <time>2014-03-02T08:18:14.000Z</time>
      </trkpt>
      <trkpt lat="45.32381" lon="6.22946">
        <ele>1569.8000488281</ele>
        <time>2014-03-02T08:18:15.000Z</time>
      </trkpt>
      <trkpt lat="45.32381" lon="6.22948">
        <ele>1570.1999511719</ele>
        <time>2014-03-02T08:18:16.000Z</time>
      </trkpt>
      <trkpt lat="45.3238" lon="6.22949">
        <ele>1570.4000244141</ele>
        <time>2014-03-02T08:18:17.000Z</time>
      </trkpt>
      <trkpt lat="45.3238" lon="6.2295">
        <ele>1570.8000488281</ele>
        <time>2014-03-02T08:18:18.000Z</time>
      </trkpt>
      <trkpt lat="45.32379" lon="6.22951">
        <ele>1571.5999755859</ele>
        <time>2014-03-02T08:18:19.000Z</time>
      </trkpt>
      <trkpt lat="45.32378" lon="6.22952">
        <ele>1572.1999511719</ele>
        <time>2014-03-02T08:18:20.000Z</time>
      </trkpt>
      <trkpt lat="45.32377" lon="6.22952">
        <ele>1572.8000488281</ele>
        <time>2014-03-02T08:18:21.000Z</time>
      </trkpt>
      <trkpt lat="45.32376" lon="6.22952">
        <ele>1573.4000244141</ele>
        <time>2014-03-02T08:18:22.000Z</time>
      </trkpt>
      <trkpt lat="45.32376" lon="6.22951">
        <ele>1573.8000488281</ele>
        <time>2014-03-02T08:18:23.000Z</time>
      </trkpt>
      <trkpt lat="45.32375" lon="6.2295">
        <ele>1574.4000244141</ele>
        <time>2014-03-02T08:18:24.000Z</time>
      </trkpt>
      <trkpt lat="45.32374" lon="6.2295">
        <ele>1574.8000488281</ele>
        <time>2014-03-02T08:18:25.000Z</time>
      </trkpt>
      <trkpt lat="45.32374" lon="6.22949">
        <ele>1575.1999511719</ele>
        <time>2014-03-02T08:18:26.000Z</time>
      </trkpt>
      <trkpt lat="45.32374" lon="6.22947">
        <ele>1575.1999511719</ele>
        <time>2014-03-02T08:18:27.000Z</time>
      </trkpt>
      <trkpt lat="45.32373" lon="6.22946">
        <ele>1575.5999755859</ele>
        <time>2014-03-02T08:18:28.000Z</time>
      </trkpt>
      <trkpt lat="45.32373" lon="6.22945">
        <ele>1575.5999755859</ele>
        <time>2014-03-02T08:18:29.000Z</time>
      </trkpt>
      <trkpt lat="45.32373" lon="6.22943">
        <ele>1575.8000488281</ele>
        <time>2014-03-02T08:18:30.000Z</time>
      </trkpt>
      <trkpt lat="45.32373" lon="6.22942">
        <ele>1576</ele>
        <time>2014-03-02T08:18:31.000Z</time>
      </trkpt>
      <trkpt lat="45.32373" lon="6.22941">
        <ele>1575.8000488281</ele>
        <time>2014-03-02T08:18:32.000Z</time>
      </trkpt>
      <trkpt lat="45.32373" lon="6.2294">
        <ele>1575.8000488281</ele>
        <time>2014-03-02T08:18:33.000Z</time>
      </trkpt>
      <trkpt lat="45.32373" lon="6.2294">
        <ele>1575.8000488281</ele>
        <time>2014-03-02T08:18:34.000Z</time>
      </trkpt>
      <trkpt lat="45.32373" lon="6.2294">
        <ele>1575.8000488281</ele>
        <time>2014-03-02T08:18:35.000Z</time>
      </trkpt>
      <trkpt lat="45.32373" lon="6.2294">
        <ele>1575.8000488281</ele>
        <time>2014-03-02T08:18:36.000Z</time>
      </trkpt>
      <trkpt lat="45.32373" lon="6.2294">
        <ele>1575.8000488281</ele>
        <time>2014-03-02T08:18:37.000Z</time>
      </trkpt>
      <trkpt lat="45.32373" lon="6.2294">
        <ele>1575.8000488281</ele>
        <time>2014-03-02T08:18:38.000Z</time>
      </trkpt>
      <trkpt lat="45.32373" lon="6.2294">
        <ele>1575.8000488281</ele>
        <time>2014-03-02T08:18:39.000Z</time>
      </trkpt>
      <trkpt lat="45.32373" lon="6.2294">
        <ele>1575.8000488281</ele>
        <time>2014-03-02T08:18:40.000Z</time>
      </trkpt>
      <trkpt lat="45.32373" lon="6.2294">
        <ele>1575.8000488281</ele>
        <time>2014-03-02T08:18:41.000Z</time>
      </trkpt>
      <trkpt lat="45.32373" lon="6.2294">
        <ele>1575.8000488281</ele>
        <time>2014-03-02T08:18:42.000Z</time>
      </trkpt>
      <trkpt lat="45.32373" lon="6.2294">
        <ele>1575.8000488281</ele>
        <time>2014-03-02T08:18:43.000Z</time>
      </trkpt>
      <trkpt lat="45.32373" lon="6.2294">
        <ele>1575.8000488281</ele>
        <time>2014-03-02T08:18:44.000Z</time>
      </trkpt>
      <trkpt lat="45.32373" lon="6.2294">
        <ele>1575.8000488281</ele>
        <time>2014-03-02T08:18:47.000Z</time>
      </trkpt>
      <trkpt lat="45.32373" lon="6.2294">
        <ele>1575.8000488281</ele>
        <time>2014-03-02T08:18:48.000Z</time>
      </trkpt>
      <trkpt lat="45.32372" lon="6.22938">
        <ele>1576.4000244141</ele>
        <time>2014-03-02T08:18:50.000Z</time>
      </trkpt>
      <trkpt lat="45.32371" lon="6.22937">
        <ele>1576.5999755859</ele>
        <time>2014-03-02T08:18:51.000Z</time>
      </trkpt>
      <trkpt lat="45.32371" lon="6.22933">
        <ele>1576.8000488281</ele>
        <time>2014-03-02T08:18:53.000Z</time>
      </trkpt>
      <trkpt lat="45.32371" lon="6.22933">
        <ele>1576.8000488281</ele>
        <time>2014-03-02T08:18:54.000Z</time>
      </trkpt>
      <trkpt lat="45.32371" lon="6.22933">
        <ele>1576.8000488281</ele>
        <time>2014-03-02T08:18:55.000Z</time>
      </trkpt>
      <trkpt lat="45.32371" lon="6.22933">
        <ele>1576.8000488281</ele>
        <time>2014-03-02T08:18:56.000Z</time>
      </trkpt>
      <trkpt lat="45.32371" lon="6.22933">
        <ele>1576.8000488281</ele>
        <time>2014-03-02T08:18:57.000Z</time>
      </trkpt>
      <trkpt lat="45.32371" lon="6.22933">
        <ele>1576.8000488281</ele>
        <time>2014-03-02T08:18:58.000Z</time>
      </trkpt>
      <trkpt lat="45.32371" lon="6.22933">
        <ele>1576.8000488281</ele>
        <time>2014-03-02T08:18:59.000Z</time>
      </trkpt>
      <trkpt lat="45.32371" lon="6.22933">
        <ele>1576.8000488281</ele>
        <time>2014-03-02T08:19:00.000Z</time>
      </trkpt>
      <trkpt lat="45.32372" lon="6.22932">
        <ele>1576.1999511719</ele>
        <time>2014-03-02T08:19:01.000Z</time>
      </trkpt>
      <trkpt lat="45.32373" lon="6.22926">
        <ele>1575.1999511719</ele>
        <time>2014-03-02T08:19:05.000Z</time>
      </trkpt>
      <trkpt lat="45.32373" lon="6.22925">
        <ele>1575.1999511719</ele>
        <time>2014-03-02T08:19:06.000Z</time>
      </trkpt>
      <trkpt lat="45.32373" lon="6.22923">
        <ele>1575.1999511719</ele>
        <time>2014-03-02T08:19:07.000Z</time>
      </trkpt>
      <trkpt lat="45.32373" lon="6.22922">
        <ele>1575</ele>
        <time>2014-03-02T08:19:08.000Z</time>
      </trkpt>
      <trkpt lat="45.32373" lon="6.2292">
        <ele>1575</ele>
        <time>2014-03-02T08:19:09.000Z</time>
      </trkpt>
      <trkpt lat="45.32373" lon="6.22918">
        <ele>1575.1999511719</ele>
        <time>2014-03-02T08:19:10.000Z</time>
      </trkpt>
      <trkpt lat="45.32373" lon="6.22917">
        <ele>1575.1999511719</ele>
        <time>2014-03-02T08:19:11.000Z</time>
      </trkpt>
      <trkpt lat="45.32372" lon="6.22916">
        <ele>1575.4000244141</ele>
        <time>2014-03-02T08:19:12.000Z</time>
      </trkpt>
      <trkpt lat="45.32372" lon="6.22914">
        <ele>1575.8000488281</ele>
        <time>2014-03-02T08:19:13.000Z</time>
      </trkpt>
      <trkpt lat="45.32372" lon="6.22913">
        <ele>1575.5999755859</ele>
        <time>2014-03-02T08:19:14.000Z</time>
      </trkpt>
      <trkpt lat="45.32372" lon="6.22912">
        <ele>1575.4000244141</ele>
        <time>2014-03-02T08:19:15.000Z</time>
      </trkpt>
      <trkpt lat="45.32372" lon="6.22911">
        <ele>1575.4000244141</ele>
        <time>2014-03-02T08:19:16.000Z</time>
      </trkpt>
      <trkpt lat="45.32373" lon="6.2291">
        <ele>1575</ele>
        <time>2014-03-02T08:19:17.000Z</time>
      </trkpt>
      <trkpt lat="45.32373" lon="6.22908">
        <ele>1574.8000488281</ele>
        <time>2014-03-02T08:19:18.000Z</time>
      </trkpt>
      <trkpt lat="45.32373" lon="6.22906">
        <ele>1574.5999755859</ele>
        <time>2014-03-02T08:19:19.000Z</time>
      </trkpt>
      <trkpt lat="45.32373" lon="6.22904">
        <ele>1574.4000244141</ele>
        <time>2014-03-02T08:19:20.000Z</time>
      </trkpt>
      <trkpt lat="45.32373" lon="6.22903">
        <ele>1574.4000244141</ele>
        <time>2014-03-02T08:19:21.000Z</time>
      </trkpt>
      <trkpt lat="45.32373" lon="6.22901">
        <ele>1574.5999755859</ele>
        <time>2014-03-02T08:19:22.000Z</time>
      </trkpt>
      <trkpt lat="45.32373" lon="6.22899">
        <ele>1574.8000488281</ele>
        <time>2014-03-02T08:19:23.000Z</time>
      </trkpt>
      <trkpt lat="45.32372" lon="6.22897">
        <ele>1575</ele>
        <time>2014-03-02T08:19:24.000Z</time>
      </trkpt>
      <trkpt lat="45.32372" lon="6.22896">
        <ele>1575</ele>
        <time>2014-03-02T08:19:25.000Z</time>
      </trkpt>
      <trkpt lat="45.32372" lon="6.22894">
        <ele>1575.1999511719</ele>
        <time>2014-03-02T08:19:26.000Z</time>
      </trkpt>
      <trkpt lat="45.32372" lon="6.22892">
        <ele>1575.1999511719</ele>
        <time>2014-03-02T08:19:27.000Z</time>
      </trkpt>
      <trkpt lat="45.32372" lon="6.2289">
        <ele>1574.8000488281</ele>
        <time>2014-03-02T08:19:28.000Z</time>
      </trkpt>
      <trkpt lat="45.32373" lon="6.22889">
        <ele>1574.5999755859</ele>
        <time>2014-03-02T08:19:29.000Z</time>
      </trkpt>
      <trkpt lat="45.32372" lon="6.22887">
        <ele>1575</ele>
        <time>2014-03-02T08:19:30.000Z</time>
      </trkpt>
      <trkpt lat="45.32372" lon="6.22886">
        <ele>1575.4000244141</ele>
        <time>2014-03-02T08:19:31.000Z</time>
      </trkpt>
      <trkpt lat="45.32371" lon="6.22885">
        <ele>1575.8000488281</ele>
        <time>2014-03-02T08:19:32.000Z</time>
      </trkpt>
      <trkpt lat="45.3237" lon="6.22884">
        <ele>1576.5999755859</ele>
        <time>2014-03-02T08:19:33.000Z</time>
      </trkpt>
      <trkpt lat="45.32369" lon="6.22883">
        <ele>1577.1999511719</ele>
        <time>2014-03-02T08:19:34.000Z</time>
      </trkpt>
      <trkpt lat="45.32368" lon="6.22881">
        <ele>1577.8000488281</ele>
        <time>2014-03-02T08:19:35.000Z</time>
      </trkpt>
      <trkpt lat="45.32368" lon="6.22879">
        <ele>1578.1999511719</ele>
        <time>2014-03-02T08:19:36.000Z</time>
      </trkpt>
      <trkpt lat="45.32367" lon="6.22877">
        <ele>1578.4000244141</ele>
        <time>2014-03-02T08:19:37.000Z</time>
      </trkpt>
      <trkpt lat="45.32367" lon="6.22875">
        <ele>1578.5999755859</ele>
        <time>2014-03-02T08:19:38.000Z</time>
      </trkpt>
      <trkpt lat="45.32367" lon="6.22873">
        <ele>1578.8000488281</ele>
        <time>2014-03-02T08:19:39.000Z</time>
      </trkpt>
      <trkpt lat="45.32367" lon="6.22871">
        <ele>1579</ele>
        <time>2014-03-02T08:19:40.000Z</time>
      </trkpt>
      <trkpt lat="45.32367" lon="6.2287">
        <ele>1579</ele>
        <time>2014-03-02T08:19:41.000Z</time>
      </trkpt>
      <trkpt lat="45.32367" lon="6.22867">
        <ele>1579.1999511719</ele>
        <time>2014-03-02T08:19:42.000Z</time>
      </trkpt>
      <trkpt lat="45.32367" lon="6.22865">
        <ele>1579.4000244141</ele>
        <time>2014-03-02T08:19:43.000Z</time>
      </trkpt>
      <trkpt lat="45.32367" lon="6.22864">
        <ele>1579.1999511719</ele>
        <time>2014-03-02T08:19:44.000Z</time>
      </trkpt>
      <trkpt lat="45.32367" lon="6.22862">
        <ele>1579.1999511719</ele>
        <time>2014-03-02T08:19:45.000Z</time>
      </trkpt>
      <trkpt lat="45.32367" lon="6.22861">
        <ele>1579.5999755859</ele>
        <time>2014-03-02T08:19:46.000Z</time>
      </trkpt>
      <trkpt lat="45.32367" lon="6.2286">
        <ele>1580</ele>
        <time>2014-03-02T08:19:47.000Z</time>
      </trkpt>
      <trkpt lat="45.32366" lon="6.22859">
        <ele>1580.4000244141</ele>
        <time>2014-03-02T08:19:48.000Z</time>
      </trkpt>
      <trkpt lat="45.32366" lon="6.22857">
        <ele>1580.5999755859</ele>
        <time>2014-03-02T08:19:49.000Z</time>
      </trkpt>
      <trkpt lat="45.32366" lon="6.22856">
        <ele>1580.8000488281</ele>
        <time>2014-03-02T08:19:50.000Z</time>
      </trkpt>
      <trkpt lat="45.32366" lon="6.22854">
        <ele>1580.8000488281</ele>
        <time>2014-03-02T08:19:51.000Z</time>
      </trkpt>
      <trkpt lat="45.32366" lon="6.22852">
        <ele>1580.8000488281</ele>
        <time>2014-03-02T08:19:52.000Z</time>
      </trkpt>
      <trkpt lat="45.32365" lon="6.22851">
        <ele>1581.1999511719</ele>
        <time>2014-03-02T08:19:53.000Z</time>
      </trkpt>
      <trkpt lat="45.32365" lon="6.2285">
        <ele>1581.4000244141</ele>
        <time>2014-03-02T08:19:54.000Z</time>
      </trkpt>
      <trkpt lat="45.32365" lon="6.22848">
        <ele>1581.8000488281</ele>
        <time>2014-03-02T08:19:55.000Z</time>
      </trkpt>
      <trkpt lat="45.32364" lon="6.22847">
        <ele>1582</ele>
        <time>2014-03-02T08:19:56.000Z</time>
      </trkpt>
      <trkpt lat="45.32364" lon="6.22845">
        <ele>1582</ele>
        <time>2014-03-02T08:19:57.000Z</time>
      </trkpt>
      <trkpt lat="45.32364" lon="6.22843">
        <ele>1582.1999511719</ele>
        <time>2014-03-02T08:19:58.000Z</time>
      </trkpt>
      <trkpt lat="45.32365" lon="6.22842">
        <ele>1582</ele>
        <time>2014-03-02T08:19:59.000Z</time>
      </trkpt>
      <trkpt lat="45.32365" lon="6.2284">
        <ele>1582.1999511719</ele>
        <time>2014-03-02T08:20:00.000Z</time>
      </trkpt>
      <trkpt lat="45.32365" lon="6.22839">
        <ele>1582.1999511719</ele>
        <time>2014-03-02T08:20:01.000Z</time>
      </trkpt>
      <trkpt lat="45.32364" lon="6.22837">
        <ele>1582.5999755859</ele>
        <time>2014-03-02T08:20:02.000Z</time>
      </trkpt>
      <trkpt lat="45.32364" lon="6.22835">
        <ele>1582.8000488281</ele>
        <time>2014-03-02T08:20:03.000Z</time>
      </trkpt>
      <trkpt lat="45.32364" lon="6.22833">
        <ele>1583</ele>
        <time>2014-03-02T08:20:04.000Z</time>
      </trkpt>
      <trkpt lat="45.32364" lon="6.22832">
        <ele>1582.8000488281</ele>
        <time>2014-03-02T08:20:05.000Z</time>
      </trkpt>
      <trkpt lat="45.32365" lon="6.22831">
        <ele>1582.5999755859</ele>
        <time>2014-03-02T08:20:06.000Z</time>
      </trkpt>
      <trkpt lat="45.32365" lon="6.22831">
        <ele>1582.4000244141</ele>
        <time>2014-03-02T08:20:07.000Z</time>
      </trkpt>
      <trkpt lat="45.32365" lon="6.22831">
        <ele>1582.1999511719</ele>
        <time>2014-03-02T08:20:08.000Z</time>
      </trkpt>
      <trkpt lat="45.32365" lon="6.22831">
        <ele>1582.1999511719</ele>
        <time>2014-03-02T08:20:09.000Z</time>
      </trkpt>
      <trkpt lat="45.32365" lon="6.2283">
        <ele>1582.5999755859</ele>
        <time>2014-03-02T08:20:10.000Z</time>
      </trkpt>
      <trkpt lat="45.32364" lon="6.22829">
        <ele>1582.8000488281</ele>
        <time>2014-03-02T08:20:11.000Z</time>
      </trkpt>
      <trkpt lat="45.32364" lon="6.22829">
        <ele>1583</ele>
        <time>2014-03-02T08:20:12.000Z</time>
      </trkpt>
      <trkpt lat="45.32365" lon="6.22827">
        <ele>1582.8000488281</ele>
        <time>2014-03-02T08:20:13.000Z</time>
      </trkpt>
      <trkpt lat="45.32365" lon="6.22825">
        <ele>1582.8000488281</ele>
        <time>2014-03-02T08:20:14.000Z</time>
      </trkpt>
      <trkpt lat="45.32364" lon="6.22824">
        <ele>1583</ele>
        <time>2014-03-02T08:20:15.000Z</time>
      </trkpt>
      <trkpt lat="45.32364" lon="6.22822">
        <ele>1583.4000244141</ele>
        <time>2014-03-02T08:20:16.000Z</time>
      </trkpt>
      <trkpt lat="45.32364" lon="6.2282">
        <ele>1583.8000488281</ele>
        <time>2014-03-02T08:20:17.000Z</time>
      </trkpt>
      <trkpt lat="45.32363" lon="6.22819">
        <ele>1584</ele>
        <time>2014-03-02T08:20:18.000Z</time>
      </trkpt>
      <trkpt lat="45.32363" lon="6.22818">
        <ele>1584.4000244141</ele>
        <time>2014-03-02T08:20:19.000Z</time>
      </trkpt>
      <trkpt lat="45.32363" lon="6.22816">
        <ele>1584.5999755859</ele>
        <time>2014-03-02T08:20:20.000Z</time>
      </trkpt>
      <trkpt lat="45.32363" lon="6.22815">
        <ele>1584.5999755859</ele>
        <time>2014-03-02T08:20:21.000Z</time>
      </trkpt>
      <trkpt lat="45.32363" lon="6.22813">
        <ele>1584.8000488281</ele>
        <time>2014-03-02T08:20:22.000Z</time>
      </trkpt>
      <trkpt lat="45.32362" lon="6.22811">
        <ele>1585</ele>
        <time>2014-03-02T08:20:23.000Z</time>
      </trkpt>
      <trkpt lat="45.32363" lon="6.2281">
        <ele>1584.8000488281</ele>
        <time>2014-03-02T08:20:24.000Z</time>
      </trkpt>
      <trkpt lat="45.32363" lon="6.22809">
        <ele>1584.5999755859</ele>
        <time>2014-03-02T08:20:25.000Z</time>
      </trkpt>
      <trkpt lat="45.32363" lon="6.22807">
        <ele>1584.4000244141</ele>
        <time>2014-03-02T08:20:26.000Z</time>
      </trkpt>
      <trkpt lat="45.32364" lon="6.22806">
        <ele>1584.1999511719</ele>
        <time>2014-03-02T08:20:27.000Z</time>
      </trkpt>
      <trkpt lat="45.32364" lon="6.22805">
        <ele>1584.1999511719</ele>
        <time>2014-03-02T08:20:28.000Z</time>
      </trkpt>
      <trkpt lat="45.32364" lon="6.22804">
        <ele>1584.1999511719</ele>
        <time>2014-03-02T08:20:29.000Z</time>
      </trkpt>
      <trkpt lat="45.32364" lon="6.22803">
        <ele>1584.4000244141</ele>
        <time>2014-03-02T08:20:30.000Z</time>
      </trkpt>
      <trkpt lat="45.32363" lon="6.22802">
        <ele>1584.5999755859</ele>
        <time>2014-03-02T08:20:31.000Z</time>
      </trkpt>
      <trkpt lat="45.32363" lon="6.22801">
        <ele>1585</ele>
        <time>2014-03-02T08:20:32.000Z</time>
      </trkpt>
      <trkpt lat="45.32362" lon="6.228">
        <ele>1585.1999511719</ele>
        <time>2014-03-02T08:20:33.000Z</time>
      </trkpt>
      <trkpt lat="45.32362" lon="6.22798">
        <ele>1585.4000244141</ele>
        <time>2014-03-02T08:20:34.000Z</time>
      </trkpt>
      <trkpt lat="45.32363" lon="6.22796">
        <ele>1585.1999511719</ele>
        <time>2014-03-02T08:20:35.000Z</time>
      </trkpt>
      <trkpt lat="45.32363" lon="6.22794">
        <ele>1585.4000244141</ele>
        <time>2014-03-02T08:20:36.000Z</time>
      </trkpt>
      <trkpt lat="45.32363" lon="6.22793">
        <ele>1585.1999511719</ele>
        <time>2014-03-02T08:20:37.000Z</time>
      </trkpt>
      <trkpt lat="45.32363" lon="6.22792">
        <ele>1585.4000244141</ele>
        <time>2014-03-02T08:20:38.000Z</time>
      </trkpt>
      <trkpt lat="45.32363" lon="6.22791">
        <ele>1585.4000244141</ele>
        <time>2014-03-02T08:20:39.000Z</time>
      </trkpt>
      <trkpt lat="45.32363" lon="6.2279">
        <ele>1585.8000488281</ele>
        <time>2014-03-02T08:20:40.000Z</time>
      </trkpt>
      <trkpt lat="45.32362" lon="6.22789">
        <ele>1586.1999511719</ele>
        <time>2014-03-02T08:20:41.000Z</time>
      </trkpt>
      <trkpt lat="45.32361" lon="6.22788">
        <ele>1586.8000488281</ele>
        <time>2014-03-02T08:20:42.000Z</time>
      </trkpt>
      <trkpt lat="45.3236" lon="6.22787">
        <ele>1587.1999511719</ele>
        <time>2014-03-02T08:20:43.000Z</time>
      </trkpt>
      <trkpt lat="45.3236" lon="6.22786">
        <ele>1587.5999755859</ele>
        <time>2014-03-02T08:20:44.000Z</time>
      </trkpt>
      <trkpt lat="45.32359" lon="6.22785">
        <ele>1588.1999511719</ele>
        <time>2014-03-02T08:20:45.000Z</time>
      </trkpt>
      <trkpt lat="45.32359" lon="6.22784">
        <ele>1588.5999755859</ele>
        <time>2014-03-02T08:20:46.000Z</time>
      </trkpt>
      <trkpt lat="45.32358" lon="6.22783">
        <ele>1589.1999511719</ele>
        <time>2014-03-02T08:20:47.000Z</time>
      </trkpt>
      <trkpt lat="45.32358" lon="6.22781">
        <ele>1589.5999755859</ele>
        <time>2014-03-02T08:20:48.000Z</time>
      </trkpt>
      <trkpt lat="45.32358" lon="6.2278">
        <ele>1589.5999755859</ele>
        <time>2014-03-02T08:20:49.000Z</time>
      </trkpt>
      <trkpt lat="45.32358" lon="6.22778">
        <ele>1589.8000488281</ele>
        <time>2014-03-02T08:20:50.000Z</time>
      </trkpt>
      <trkpt lat="45.32357" lon="6.22776">
        <ele>1590.1999511719</ele>
        <time>2014-03-02T08:20:51.000Z</time>
      </trkpt>
      <trkpt lat="45.32357" lon="6.22774">
        <ele>1590.5999755859</ele>
        <time>2014-03-02T08:20:52.000Z</time>
      </trkpt>
      <trkpt lat="45.32357" lon="6.22772">
        <ele>1590.8000488281</ele>
        <time>2014-03-02T08:20:53.000Z</time>
      </trkpt>
      <trkpt lat="45.32357" lon="6.2277">
        <ele>1591</ele>
        <time>2014-03-02T08:20:54.000Z</time>
      </trkpt>
      <trkpt lat="45.32357" lon="6.22768">
        <ele>1591.1999511719</ele>
        <time>2014-03-02T08:20:55.000Z</time>
      </trkpt>
      <trkpt lat="45.32357" lon="6.22767">
        <ele>1591.4000244141</ele>
        <time>2014-03-02T08:20:56.000Z</time>
      </trkpt>
      <trkpt lat="45.32357" lon="6.22765">
        <ele>1591.8000488281</ele>
        <time>2014-03-02T08:20:57.000Z</time>
      </trkpt>
      <trkpt lat="45.32357" lon="6.22763">
        <ele>1592</ele>
        <time>2014-03-02T08:20:58.000Z</time>
      </trkpt>
      <trkpt lat="45.32357" lon="6.22761">
        <ele>1592</ele>
        <time>2014-03-02T08:20:59.000Z</time>
      </trkpt>
      <trkpt lat="45.32356" lon="6.22759">
        <ele>1592.5999755859</ele>
        <time>2014-03-02T08:21:00.000Z</time>
      </trkpt>
      <trkpt lat="45.32356" lon="6.22758">
        <ele>1593</ele>
        <time>2014-03-02T08:21:01.000Z</time>
      </trkpt>
      <trkpt lat="45.32356" lon="6.22756">
        <ele>1593.4000244141</ele>
        <time>2014-03-02T08:21:02.000Z</time>
      </trkpt>
      <trkpt lat="45.32355" lon="6.22754">
        <ele>1593.8000488281</ele>
        <time>2014-03-02T08:21:03.000Z</time>
      </trkpt>
      <trkpt lat="45.32355" lon="6.22753">
        <ele>1594.1999511719</ele>
        <time>2014-03-02T08:21:04.000Z</time>
      </trkpt>
      <trkpt lat="45.32354" lon="6.22752">
        <ele>1594.5999755859</ele>
        <time>2014-03-02T08:21:05.000Z</time>
      </trkpt>
      <trkpt lat="45.32354" lon="6.22751">
        <ele>1594.5999755859</ele>
        <time>2014-03-02T08:21:06.000Z</time>
      </trkpt>
      <trkpt lat="45.32354" lon="6.22749">
        <ele>1594.8000488281</ele>
        <time>2014-03-02T08:21:07.000Z</time>
      </trkpt>
      <trkpt lat="45.32355" lon="6.22748">
        <ele>1594.8000488281</ele>
        <time>2014-03-02T08:21:08.000Z</time>
      </trkpt>
      <trkpt lat="45.32354" lon="6.22747">
        <ele>1595</ele>
        <time>2014-03-02T08:21:09.000Z</time>
      </trkpt>
      <trkpt lat="45.32354" lon="6.22746">
        <ele>1595.4000244141</ele>
        <time>2014-03-02T08:21:10.000Z</time>
      </trkpt>
      <trkpt lat="45.32354" lon="6.22745">
        <ele>1595.8000488281</ele>
        <time>2014-03-02T08:21:11.000Z</time>
      </trkpt>
      <trkpt lat="45.32353" lon="6.22745">
        <ele>1596.1999511719</ele>
        <time>2014-03-02T08:21:12.000Z</time>
      </trkpt>
      <trkpt lat="45.32352" lon="6.22743">
        <ele>1596.5999755859</ele>
        <time>2014-03-02T08:21:13.000Z</time>
      </trkpt>
      <trkpt lat="45.32352" lon="6.22742">
        <ele>1597</ele>
        <time>2014-03-02T08:21:14.000Z</time>
      </trkpt>
      <trkpt lat="45.32352" lon="6.2274">
        <ele>1597.1999511719</ele>
        <time>2014-03-02T08:21:15.000Z</time>
      </trkpt>
      <trkpt lat="45.32352" lon="6.22738">
        <ele>1597.4000244141</ele>
        <time>2014-03-02T08:21:16.000Z</time>
      </trkpt>
      <trkpt lat="45.32352" lon="6.22737">
        <ele>1597.5999755859</ele>
        <time>2014-03-02T08:21:17.000Z</time>
      </trkpt>
      <trkpt lat="45.32352" lon="6.22735">
        <ele>1598</ele>
        <time>2014-03-02T08:21:18.000Z</time>
      </trkpt>
      <trkpt lat="45.32352" lon="6.22734">
        <ele>1598.1999511719</ele>
        <time>2014-03-02T08:21:19.000Z</time>
      </trkpt>
      <trkpt lat="45.32351" lon="6.22733">
        <ele>1598.4000244141</ele>
        <time>2014-03-02T08:21:20.000Z</time>
      </trkpt>
      <trkpt lat="45.32351" lon="6.22731">
        <ele>1598.8000488281</ele>
        <time>2014-03-02T08:21:21.000Z</time>
      </trkpt>
      <trkpt lat="45.32351" lon="6.22729">
        <ele>1598.8000488281</ele>
        <time>2014-03-02T08:21:22.000Z</time>
      </trkpt>
      <trkpt lat="45.32351" lon="6.22728">
        <ele>1599</ele>
        <time>2014-03-02T08:21:23.000Z</time>
      </trkpt>
      <trkpt lat="45.32351" lon="6.22727">
        <ele>1599.1999511719</ele>
        <time>2014-03-02T08:21:24.000Z</time>
      </trkpt>
      <trkpt lat="45.32352" lon="6.22725">
        <ele>1599</ele>
        <time>2014-03-02T08:21:25.000Z</time>
      </trkpt>
      <trkpt lat="45.32352" lon="6.22724">
        <ele>1599.1999511719</ele>
        <time>2014-03-02T08:21:26.000Z</time>
      </trkpt>
      <trkpt lat="45.32352" lon="6.22723">
        <ele>1599.4000244141</ele>
        <time>2014-03-02T08:21:27.000Z</time>
      </trkpt>
      <trkpt lat="45.32352" lon="6.22722">
        <ele>1599.5999755859</ele>
        <time>2014-03-02T08:21:28.000Z</time>
      </trkpt>
      <trkpt lat="45.32351" lon="6.22722">
        <ele>1600</ele>
        <time>2014-03-02T08:21:29.000Z</time>
      </trkpt>
      <trkpt lat="45.32351" lon="6.22721">
        <ele>1600.4000244141</ele>
        <time>2014-03-02T08:21:30.000Z</time>
      </trkpt>
      <trkpt lat="45.32351" lon="6.22719">
        <ele>1600.8000488281</ele>
        <time>2014-03-02T08:21:31.000Z</time>
      </trkpt>
      <trkpt lat="45.3235" lon="6.22718">
        <ele>1601.1999511719</ele>
        <time>2014-03-02T08:21:32.000Z</time>
      </trkpt>
      <trkpt lat="45.3235" lon="6.22717">
        <ele>1601.5999755859</ele>
        <time>2014-03-02T08:21:33.000Z</time>
      </trkpt>
      <trkpt lat="45.32349" lon="6.22716">
        <ele>1602.1999511719</ele>
        <time>2014-03-02T08:21:34.000Z</time>
      </trkpt>
      <trkpt lat="45.32349" lon="6.22715">
        <ele>1602.5999755859</ele>
        <time>2014-03-02T08:21:35.000Z</time>
      </trkpt>
      <trkpt lat="45.32348" lon="6.22714">
        <ele>1603.1999511719</ele>
        <time>2014-03-02T08:21:36.000Z</time>
      </trkpt>
      <trkpt lat="45.32348" lon="6.22713">
        <ele>1603.5999755859</ele>
        <time>2014-03-02T08:21:37.000Z</time>
      </trkpt>
      <trkpt lat="45.32348" lon="6.22712">
        <ele>1603.8000488281</ele>
        <time>2014-03-02T08:21:38.000Z</time>
      </trkpt>
      <trkpt lat="45.32348" lon="6.2271">
        <ele>1604</ele>
        <time>2014-03-02T08:21:39.000Z</time>
      </trkpt>
      <trkpt lat="45.32348" lon="6.22708">
        <ele>1604.4000244141</ele>
        <time>2014-03-02T08:21:40.000Z</time>
      </trkpt>
      <trkpt lat="45.32348" lon="6.22706">
        <ele>1604.4000244141</ele>
        <time>2014-03-02T08:21:41.000Z</time>
      </trkpt>
      <trkpt lat="45.32348" lon="6.22705">
        <ele>1604.5999755859</ele>
        <time>2014-03-02T08:21:42.000Z</time>
      </trkpt>
      <trkpt lat="45.32348" lon="6.22704">
        <ele>1604.8000488281</ele>
        <time>2014-03-02T08:21:43.000Z</time>
      </trkpt>
      <trkpt lat="45.32348" lon="6.22702">
        <ele>1605</ele>
        <time>2014-03-02T08:21:44.000Z</time>
      </trkpt>
      <trkpt lat="45.32348" lon="6.22701">
        <ele>1605.1999511719</ele>
        <time>2014-03-02T08:21:45.000Z</time>
      </trkpt>
      <trkpt lat="45.32349" lon="6.22699">
        <ele>1605.4000244141</ele>
        <time>2014-03-02T08:21:46.000Z</time>
      </trkpt>
      <trkpt lat="45.32349" lon="6.22698">
        <ele>1605.5999755859</ele>
        <time>2014-03-02T08:21:47.000Z</time>
      </trkpt>
      <trkpt lat="45.32348" lon="6.22697">
        <ele>1605.8000488281</ele>
        <time>2014-03-02T08:21:48.000Z</time>
      </trkpt>
      <trkpt lat="45.32349" lon="6.22696">
        <ele>1606</ele>
        <time>2014-03-02T08:21:49.000Z</time>
      </trkpt>
      <trkpt lat="45.32349" lon="6.22695">
        <ele>1606.1999511719</ele>
        <time>2014-03-02T08:21:50.000Z</time>
      </trkpt>
      <trkpt lat="45.32349" lon="6.22693">
        <ele>1606.5999755859</ele>
        <time>2014-03-02T08:21:51.000Z</time>
      </trkpt>
      <trkpt lat="45.32349" lon="6.22692">
        <ele>1606.8000488281</ele>
        <time>2014-03-02T08:21:52.000Z</time>
      </trkpt>
      <trkpt lat="45.3235" lon="6.2269">
        <ele>1607</ele>
        <time>2014-03-02T08:21:53.000Z</time>
      </trkpt>
      <trkpt lat="45.3235" lon="6.22689">
        <ele>1607.1999511719</ele>
        <time>2014-03-02T08:21:54.000Z</time>
      </trkpt>
      <trkpt lat="45.3235" lon="6.22687">
        <ele>1607.4000244141</ele>
        <time>2014-03-02T08:21:55.000Z</time>
      </trkpt>
      <trkpt lat="45.3235" lon="6.22686">
        <ele>1607.8000488281</ele>
        <time>2014-03-02T08:21:56.000Z</time>
      </trkpt>
      <trkpt lat="45.32351" lon="6.22685">
        <ele>1607.8000488281</ele>
        <time>2014-03-02T08:21:57.000Z</time>
      </trkpt>
      <trkpt lat="45.32351" lon="6.22683">
        <ele>1608</ele>
        <time>2014-03-02T08:21:58.000Z</time>
      </trkpt>
      <trkpt lat="45.32352" lon="6.22682">
        <ele>1608.1999511719</ele>
        <time>2014-03-02T08:21:59.000Z</time>
      </trkpt>
      <trkpt lat="45.32352" lon="6.2268">
        <ele>1608.4000244141</ele>
        <time>2014-03-02T08:22:00.000Z</time>
      </trkpt>
      <trkpt lat="45.32352" lon="6.22678">
        <ele>1608.8000488281</ele>
        <time>2014-03-02T08:22:01.000Z</time>
      </trkpt>
      <trkpt lat="45.32353" lon="6.22677">
        <ele>1609.1999511719</ele>
        <time>2014-03-02T08:22:02.000Z</time>
      </trkpt>
      <trkpt lat="45.32353" lon="6.22675">
        <ele>1609.1999511719</ele>
        <time>2014-03-02T08:22:03.000Z</time>
      </trkpt>
      <trkpt lat="45.32354" lon="6.22673">
        <ele>1609.5999755859</ele>
        <time>2014-03-02T08:22:04.000Z</time>
      </trkpt>
      <trkpt lat="45.32354" lon="6.22671">
        <ele>1610</ele>
        <time>2014-03-02T08:22:05.000Z</time>
      </trkpt>
      <trkpt lat="45.32354" lon="6.22669">
        <ele>1610.1999511719</ele>
        <time>2014-03-02T08:22:06.000Z</time>
      </trkpt>
      <trkpt lat="45.32355" lon="6.22668">
        <ele>1610.4000244141</ele>
        <time>2014-03-02T08:22:07.000Z</time>
      </trkpt>
      <trkpt lat="45.32355" lon="6.22666">
        <ele>1610.8000488281</ele>
        <time>2014-03-02T08:22:08.000Z</time>
      </trkpt>
      <trkpt lat="45.32356" lon="6.22665">
        <ele>1610.8000488281</ele>
        <time>2014-03-02T08:22:09.000Z</time>
      </trkpt>
      <trkpt lat="45.32357" lon="6.22663">
        <ele>1610.8000488281</ele>
        <time>2014-03-02T08:22:10.000Z</time>
      </trkpt>
      <trkpt lat="45.32357" lon="6.22661">
        <ele>1611.1999511719</ele>
        <time>2014-03-02T08:22:11.000Z</time>
      </trkpt>
      <trkpt lat="45.32357" lon="6.2266">
        <ele>1611.4000244141</ele>
        <time>2014-03-02T08:22:12.000Z</time>
      </trkpt>
      <trkpt lat="45.32358" lon="6.22658">
        <ele>1611.5999755859</ele>
        <time>2014-03-02T08:22:13.000Z</time>
      </trkpt>
      <trkpt lat="45.32358" lon="6.22657">
        <ele>1611.5999755859</ele>
        <time>2014-03-02T08:22:14.000Z</time>
      </trkpt>
      <trkpt lat="45.32359" lon="6.22656">
        <ele>1611.5999755859</ele>
        <time>2014-03-02T08:22:15.000Z</time>
      </trkpt>
      <trkpt lat="45.32359" lon="6.22655">
        <ele>1611.5999755859</ele>
        <time>2014-03-02T08:22:16.000Z</time>
      </trkpt>
      <trkpt lat="45.32359" lon="6.22654">
        <ele>1611.8000488281</ele>
        <time>2014-03-02T08:22:17.000Z</time>
      </trkpt>
      <trkpt lat="45.3236" lon="6.22653">
        <ele>1612</ele>
        <time>2014-03-02T08:22:18.000Z</time>
      </trkpt>
      <trkpt lat="45.3236" lon="6.22653">
        <ele>1612</ele>
        <time>2014-03-02T08:22:19.000Z</time>
      </trkpt>
      <trkpt lat="45.32361" lon="6.22652">
        <ele>1611.8000488281</ele>
        <time>2014-03-02T08:22:20.000Z</time>
      </trkpt>
      <trkpt lat="45.32361" lon="6.22652">
        <ele>1611.5999755859</ele>
        <time>2014-03-02T08:22:21.000Z</time>
      </trkpt>
      <trkpt lat="45.32362" lon="6.2265">
        <ele>1611.8000488281</ele>
        <time>2014-03-02T08:22:22.000Z</time>
      </trkpt>
      <trkpt lat="45.32362" lon="6.22649">
        <ele>1611.8000488281</ele>
        <time>2014-03-02T08:22:23.000Z</time>
      </trkpt>
      <trkpt lat="45.32363" lon="6.22648">
        <ele>1611.5999755859</ele>
        <time>2014-03-02T08:22:24.000Z</time>
      </trkpt>
      <trkpt lat="45.32363" lon="6.22648">
        <ele>1611.5999755859</ele>
        <time>2014-03-02T08:22:25.000Z</time>
      </trkpt>
      <trkpt lat="45.32363" lon="6.22648">
        <ele>1611.5999755859</ele>
        <time>2014-03-02T08:22:26.000Z</time>
      </trkpt>
      <trkpt lat="45.32363" lon="6.22648">
        <ele>1611.5999755859</ele>
        <time>2014-03-02T08:22:27.000Z</time>
      </trkpt>
      <trkpt lat="45.32363" lon="6.22648">
        <ele>1611.5999755859</ele>
        <time>2014-03-02T08:22:28.000Z</time>
      </trkpt>
      <trkpt lat="45.32363" lon="6.22648">
        <ele>1611.5999755859</ele>
        <time>2014-03-02T08:22:29.000Z</time>
      </trkpt>
      <trkpt lat="45.32363" lon="6.22648">
        <ele>1611.5999755859</ele>
        <time>2014-03-02T08:22:30.000Z</time>
      </trkpt>
      <trkpt lat="45.32363" lon="6.22648">
        <ele>1611.5999755859</ele>
        <time>2014-03-02T08:22:31.000Z</time>
      </trkpt>
      <trkpt lat="45.32363" lon="6.22648">
        <ele>1611.5999755859</ele>
        <time>2014-03-02T08:22:32.000Z</time>
      </trkpt>
      <trkpt lat="45.32363" lon="6.22648">
        <ele>1611.5999755859</ele>
        <time>2014-03-02T08:22:33.000Z</time>
      </trkpt>
      <trkpt lat="45.32363" lon="6.22648">
        <ele>1611.5999755859</ele>
        <time>2014-03-02T08:22:34.000Z</time>
      </trkpt>
      <trkpt lat="45.32364" lon="6.22646">
        <ele>1612</ele>
        <time>2014-03-02T08:22:36.000Z</time>
      </trkpt>
      <trkpt lat="45.32364" lon="6.22644">
        <ele>1612</ele>
        <time>2014-03-02T08:22:37.000Z</time>
      </trkpt>
      <trkpt lat="45.32365" lon="6.22643">
        <ele>1612.1999511719</ele>
        <time>2014-03-02T08:22:38.000Z</time>
      </trkpt>
      <trkpt lat="45.32366" lon="6.22642">
        <ele>1612</ele>
        <time>2014-03-02T08:22:39.000Z</time>
      </trkpt>
      <trkpt lat="45.32367" lon="6.22641">
        <ele>1611.8000488281</ele>
        <time>2014-03-02T08:22:40.000Z</time>
      </trkpt>
      <trkpt lat="45.32367" lon="6.2264">
        <ele>1611.8000488281</ele>
        <time>2014-03-02T08:22:41.000Z</time>
      </trkpt>
      <trkpt lat="45.32367" lon="6.22639">
        <ele>1611.8000488281</ele>
        <time>2014-03-02T08:22:42.000Z</time>
      </trkpt>
      <trkpt lat="45.32367" lon="6.22638">
        <ele>1612</ele>
        <time>2014-03-02T08:22:43.000Z</time>
      </trkpt>
      <trkpt lat="45.32368" lon="6.22638">
        <ele>1611.8000488281</ele>
        <time>2014-03-02T08:22:44.000Z</time>
      </trkpt>
      <trkpt lat="45.32368" lon="6.22637">
        <ele>1612</ele>
        <time>2014-03-02T08:22:45.000Z</time>
      </trkpt>
      <trkpt lat="45.32369" lon="6.22636">
        <ele>1611.8000488281</ele>
        <time>2014-03-02T08:22:46.000Z</time>
      </trkpt>
      <trkpt lat="45.3237" lon="6.22635">
        <ele>1611.5999755859</ele>
        <time>2014-03-02T08:22:47.000Z</time>
      </trkpt>
      <trkpt lat="45.3237" lon="6.22635">
        <ele>1611.5999755859</ele>
        <time>2014-03-02T08:22:48.000Z</time>
      </trkpt>
      <trkpt lat="45.32371" lon="6.22633">
        <ele>1612</ele>
        <time>2014-03-02T08:22:49.000Z</time>
      </trkpt>
      <trkpt lat="45.32372" lon="6.22632">
        <ele>1612</ele>
        <time>2014-03-02T08:22:50.000Z</time>
      </trkpt>
      <trkpt lat="45.32373" lon="6.22632">
        <ele>1612</ele>
        <time>2014-03-02T08:22:51.000Z</time>
      </trkpt>
      <trkpt lat="45.32374" lon="6.22631">
        <ele>1611.8000488281</ele>
        <time>2014-03-02T08:22:52.000Z</time>
      </trkpt>
      <trkpt lat="45.32375" lon="6.2263">
        <ele>1611.8000488281</ele>
        <time>2014-03-02T08:22:53.000Z</time>
      </trkpt>
      <trkpt lat="45.32376" lon="6.22629">
        <ele>1611.8000488281</ele>
        <time>2014-03-02T08:22:54.000Z</time>
      </trkpt>
      <trkpt lat="45.32377" lon="6.22628">
        <ele>1611.8000488281</ele>
        <time>2014-03-02T08:22:55.000Z</time>
      </trkpt>
      <trkpt lat="45.32378" lon="6.22628">
        <ele>1611.5999755859</ele>
        <time>2014-03-02T08:22:56.000Z</time>
      </trkpt>
      <trkpt lat="45.32379" lon="6.22627">
        <ele>1611.5999755859</ele>
        <time>2014-03-02T08:22:57.000Z</time>
      </trkpt>
      <trkpt lat="45.3238" lon="6.22627">
        <ele>1611.5999755859</ele>
        <time>2014-03-02T08:22:58.000Z</time>
      </trkpt>
      <trkpt lat="45.32381" lon="6.22626">
        <ele>1611.5999755859</ele>
        <time>2014-03-02T08:22:59.000Z</time>
      </trkpt>
      <trkpt lat="45.32382" lon="6.22625">
        <ele>1611.5999755859</ele>
        <time>2014-03-02T08:23:00.000Z</time>
      </trkpt>
      <trkpt lat="45.32383" lon="6.22624">
        <ele>1611.8000488281</ele>
        <time>2014-03-02T08:23:01.000Z</time>
      </trkpt>
      <trkpt lat="45.32384" lon="6.22623">
        <ele>1611.8000488281</ele>
        <time>2014-03-02T08:23:02.000Z</time>
      </trkpt>
      <trkpt lat="45.32384" lon="6.22622">
        <ele>1612</ele>
        <time>2014-03-02T08:23:03.000Z</time>
      </trkpt>
      <trkpt lat="45.32384" lon="6.22622">
        <ele>1612.4000244141</ele>
        <time>2014-03-02T08:23:04.000Z</time>
      </trkpt>
      <trkpt lat="45.32385" lon="6.22621">
        <ele>1612.5999755859</ele>
        <time>2014-03-02T08:23:05.000Z</time>
      </trkpt>
      <trkpt lat="45.32385" lon="6.2262">
        <ele>1612.8000488281</ele>
        <time>2014-03-02T08:23:06.000Z</time>
      </trkpt>
      <trkpt lat="45.32384" lon="6.2262">
        <ele>1613</ele>
        <time>2014-03-02T08:23:07.000Z</time>
      </trkpt>
      <trkpt lat="45.32384" lon="6.2262">
        <ele>1613</ele>
        <time>2014-03-02T08:23:08.000Z</time>
      </trkpt>
      <trkpt lat="45.32384" lon="6.2262">
        <ele>1613</ele>
        <time>2014-03-02T08:23:09.000Z</time>
      </trkpt>
      <trkpt lat="45.32384" lon="6.2262">
        <ele>1613</ele>
        <time>2014-03-02T08:23:10.000Z</time>
      </trkpt>
      <trkpt lat="45.32384" lon="6.2262">
        <ele>1613</ele>
        <time>2014-03-02T08:23:11.000Z</time>
      </trkpt>
      <trkpt lat="45.32384" lon="6.2262">
        <ele>1613</ele>
        <time>2014-03-02T08:23:12.000Z</time>
      </trkpt>
      <trkpt lat="45.32384" lon="6.2262">
        <ele>1613</ele>
        <time>2014-03-02T08:23:15.000Z</time>
      </trkpt>
      <trkpt lat="45.32384" lon="6.2262">
        <ele>1613</ele>
        <time>2014-03-02T08:23:16.000Z</time>
      </trkpt>
      <trkpt lat="45.32384" lon="6.2262">
        <ele>1613</ele>
        <time>2014-03-02T08:23:18.000Z</time>
      </trkpt>
      <trkpt lat="45.32384" lon="6.2262">
        <ele>1613</ele>
        <time>2014-03-02T08:23:19.000Z</time>
      </trkpt>
      <trkpt lat="45.32384" lon="6.2262">
        <ele>1613</ele>
        <time>2014-03-02T08:23:20.000Z</time>
      </trkpt>
      <trkpt lat="45.32384" lon="6.2262">
        <ele>1613</ele>
        <time>2014-03-02T08:23:21.000Z</time>
      </trkpt>
      <trkpt lat="45.32384" lon="6.2262">
        <ele>1613</ele>
        <time>2014-03-02T08:23:22.000Z</time>
      </trkpt>
      <trkpt lat="45.32384" lon="6.2262">
        <ele>1613</ele>
        <time>2014-03-02T08:23:23.000Z</time>
      </trkpt>
      <trkpt lat="45.32384" lon="6.2262">
        <ele>1613</ele>
        <time>2014-03-02T08:23:24.000Z</time>
      </trkpt>
      <trkpt lat="45.32384" lon="6.2262">
        <ele>1613</ele>
        <time>2014-03-02T08:23:25.000Z</time>
      </trkpt>
      <trkpt lat="45.32384" lon="6.2262">
        <ele>1613</ele>
        <time>2014-03-02T08:23:26.000Z</time>
      </trkpt>
      <trkpt lat="45.32384" lon="6.2262">
        <ele>1613</ele>
        <time>2014-03-02T08:23:27.000Z</time>
      </trkpt>
      <trkpt lat="45.32384" lon="6.2262">
        <ele>1613</ele>
        <time>2014-03-02T08:23:28.000Z</time>
      </trkpt>
      <trkpt lat="45.32384" lon="6.2262">
        <ele>1613</ele>
        <time>2014-03-02T08:23:29.000Z</time>
      </trkpt>
      <trkpt lat="45.32384" lon="6.2262">
        <ele>1613</ele>
        <time>2014-03-02T08:23:30.000Z</time>
      </trkpt>
      <trkpt lat="45.32384" lon="6.2262">
        <ele>1613</ele>
        <time>2014-03-02T08:23:31.000Z</time>
      </trkpt>
      <trkpt lat="45.32384" lon="6.2262">
        <ele>1613</ele>
        <time>2014-03-02T08:23:32.000Z</time>
      </trkpt>
      <trkpt lat="45.32384" lon="6.2262">
        <ele>1613</ele>
        <time>2014-03-02T08:23:33.000Z</time>
      </trkpt>
      <trkpt lat="45.32384" lon="6.2262">
        <ele>1613</ele>
        <time>2014-03-02T08:23:34.000Z</time>
      </trkpt>
      <trkpt lat="45.32384" lon="6.2262">
        <ele>1613</ele>
        <time>2014-03-02T08:23:35.000Z</time>
      </trkpt>
      <trkpt lat="45.32384" lon="6.2262">
        <ele>1613</ele>
        <time>2014-03-02T08:23:36.000Z</time>
      </trkpt>
      <trkpt lat="45.32384" lon="6.2262">
        <ele>1613</ele>
        <time>2014-03-02T08:23:38.000Z</time>
      </trkpt>
      <trkpt lat="45.32384" lon="6.2262">
        <ele>1613</ele>
        <time>2014-03-02T08:23:39.000Z</time>
      </trkpt>
      <trkpt lat="45.32384" lon="6.2262">
        <ele>1613</ele>
        <time>2014-03-02T08:23:40.000Z</time>
      </trkpt>
      <trkpt lat="45.32384" lon="6.22619">
        <ele>1613.4000244141</ele>
        <time>2014-03-02T08:23:41.000Z</time>
      </trkpt>
      <trkpt lat="45.32385" lon="6.22618">
        <ele>1613.5999755859</ele>
        <time>2014-03-02T08:23:42.000Z</time>
      </trkpt>
      <trkpt lat="45.32386" lon="6.22618">
        <ele>1613.4000244141</ele>
        <time>2014-03-02T08:23:44.000Z</time>
      </trkpt>
      <trkpt lat="45.32387" lon="6.22617">
        <ele>1613.4000244141</ele>
        <time>2014-03-02T08:23:45.000Z</time>
      </trkpt>
      <trkpt lat="45.32388" lon="6.22617">
        <ele>1613.1999511719</ele>
        <time>2014-03-02T08:23:46.000Z</time>
      </trkpt>
      <trkpt lat="45.32388" lon="6.22617">
        <ele>1613.1999511719</ele>
        <time>2014-03-02T08:23:47.000Z</time>
      </trkpt>
      <trkpt lat="45.3239" lon="6.22616">
        <ele>1613.1999511719</ele>
        <time>2014-03-02T08:23:48.000Z</time>
      </trkpt>
      <trkpt lat="45.32391" lon="6.22615">
        <ele>1613.4000244141</ele>
        <time>2014-03-02T08:23:49.000Z</time>
      </trkpt>
      <trkpt lat="45.32391" lon="6.22615">
        <ele>1613.4000244141</ele>
        <time>2014-03-02T08:23:50.000Z</time>
      </trkpt>
      <trkpt lat="45.32392" lon="6.22614">
        <ele>1613.5999755859</ele>
        <time>2014-03-02T08:23:51.000Z</time>
      </trkpt>
      <trkpt lat="45.32393" lon="6.22613">
        <ele>1613.8000488281</ele>
        <time>2014-03-02T08:23:52.000Z</time>
      </trkpt>
      <trkpt lat="45.32394" lon="6.22612">
        <ele>1614</ele>
        <time>2014-03-02T08:23:53.000Z</time>
      </trkpt>
      <trkpt lat="45.32394" lon="6.22611">
        <ele>1614.1999511719</ele>
        <time>2014-03-02T08:23:54.000Z</time>
      </trkpt>
      <trkpt lat="45.32395" lon="6.2261">
        <ele>1614.4000244141</ele>
        <time>2014-03-02T08:23:55.000Z</time>
      </trkpt>
      <trkpt lat="45.32395" lon="6.2261">
        <ele>1614.5999755859</ele>
        <time>2014-03-02T08:23:56.000Z</time>
      </trkpt>
      <trkpt lat="45.32396" lon="6.22609">
        <ele>1614.8000488281</ele>
        <time>2014-03-02T08:23:57.000Z</time>
      </trkpt>
      <trkpt lat="45.32397" lon="6.22608">
        <ele>1615</ele>
        <time>2014-03-02T08:23:58.000Z</time>
      </trkpt>
      <trkpt lat="45.32398" lon="6.22607">
        <ele>1615.1999511719</ele>
        <time>2014-03-02T08:23:59.000Z</time>
      </trkpt>
      <trkpt lat="45.32398" lon="6.22606">
        <ele>1615.4000244141</ele>
        <time>2014-03-02T08:24:00.000Z</time>
      </trkpt>
      <trkpt lat="45.32399" lon="6.22605">
        <ele>1615.5999755859</ele>
        <time>2014-03-02T08:24:01.000Z</time>
      </trkpt>
      <trkpt lat="45.324" lon="6.22603">
        <ele>1616</ele>
        <time>2014-03-02T08:24:02.000Z</time>
      </trkpt>
      <trkpt lat="45.324" lon="6.22602">
        <ele>1616.4000244141</ele>
        <time>2014-03-02T08:24:03.000Z</time>
      </trkpt>
      <trkpt lat="45.32401" lon="6.22601">
        <ele>1616.4000244141</ele>
        <time>2014-03-02T08:24:04.000Z</time>
      </trkpt>
      <trkpt lat="45.32402" lon="6.22601">
        <ele>1616.5999755859</ele>
        <time>2014-03-02T08:24:05.000Z</time>
      </trkpt>
      <trkpt lat="45.32403" lon="6.226">
        <ele>1616.8000488281</ele>
        <time>2014-03-02T08:24:06.000Z</time>
      </trkpt>
      <trkpt lat="45.32403" lon="6.22598">
        <ele>1617.1999511719</ele>
        <time>2014-03-02T08:24:07.000Z</time>
      </trkpt>
      <trkpt lat="45.32404" lon="6.22597">
        <ele>1617.5999755859</ele>
        <time>2014-03-02T08:24:08.000Z</time>
      </trkpt>
      <trkpt lat="45.32404" lon="6.22596">
        <ele>1617.8000488281</ele>
        <time>2014-03-02T08:24:09.000Z</time>
      </trkpt>
      <trkpt lat="45.32405" lon="6.22595">
        <ele>1618</ele>
        <time>2014-03-02T08:24:10.000Z</time>
      </trkpt>
      <trkpt lat="45.32406" lon="6.22594">
        <ele>1618.4000244141</ele>
        <time>2014-03-02T08:24:11.000Z</time>
      </trkpt>
      <trkpt lat="45.32406" lon="6.22593">
        <ele>1618.5999755859</ele>
        <time>2014-03-02T08:24:12.000Z</time>
      </trkpt>
      <trkpt lat="45.32406" lon="6.22592">
        <ele>1619</ele>
        <time>2014-03-02T08:24:13.000Z</time>
      </trkpt>
      <trkpt lat="45.32407" lon="6.22591">
        <ele>1619.1999511719</ele>
        <time>2014-03-02T08:24:14.000Z</time>
      </trkpt>
      <trkpt lat="45.32408" lon="6.2259">
        <ele>1619.5999755859</ele>
        <time>2014-03-02T08:24:15.000Z</time>
      </trkpt>
      <trkpt lat="45.32409" lon="6.22588">
        <ele>1619.8000488281</ele>
        <time>2014-03-02T08:24:16.000Z</time>
      </trkpt>
      <trkpt lat="45.32411" lon="6.22587">
        <ele>1619.8000488281</ele>
        <time>2014-03-02T08:24:17.000Z</time>
      </trkpt>
      <trkpt lat="45.32412" lon="6.22586">
        <ele>1620</ele>
        <time>2014-03-02T08:24:18.000Z</time>
      </trkpt>
      <trkpt lat="45.32413" lon="6.22585">
        <ele>1620</ele>
        <time>2014-03-02T08:24:19.000Z</time>
      </trkpt>
      <trkpt lat="45.32414" lon="6.22584">
        <ele>1620.1999511719</ele>
        <time>2014-03-02T08:24:20.000Z</time>
      </trkpt>
      <trkpt lat="45.32415" lon="6.22583">
        <ele>1620.4000244141</ele>
        <time>2014-03-02T08:24:21.000Z</time>
      </trkpt>
      <trkpt lat="45.32415" lon="6.22583">
        <ele>1620.4000244141</ele>
        <time>2014-03-02T08:24:22.000Z</time>
      </trkpt>
      <trkpt lat="45.32416" lon="6.22582">
        <ele>1620.4000244141</ele>
        <time>2014-03-02T08:24:23.000Z</time>
      </trkpt>
      <trkpt lat="45.32417" lon="6.22582">
        <ele>1620.4000244141</ele>
        <time>2014-03-02T08:24:24.000Z</time>
      </trkpt>
      <trkpt lat="45.32418" lon="6.22581">
        <ele>1620.4000244141</ele>
        <time>2014-03-02T08:24:25.000Z</time>
      </trkpt>
      <trkpt lat="45.32418" lon="6.2258">
        <ele>1620.5999755859</ele>
        <time>2014-03-02T08:24:26.000Z</time>
      </trkpt>
      <trkpt lat="45.32419" lon="6.2258">
        <ele>1620.8000488281</ele>
        <time>2014-03-02T08:24:27.000Z</time>
      </trkpt>
      <trkpt lat="45.32419" lon="6.22579">
        <ele>1621</ele>
        <time>2014-03-02T08:24:28.000Z</time>
      </trkpt>
      <trkpt lat="45.3242" lon="6.22578">
        <ele>1621.1999511719</ele>
        <time>2014-03-02T08:24:29.000Z</time>
      </trkpt>
      <trkpt lat="45.32421" lon="6.22577">
        <ele>1621.1999511719</ele>
        <time>2014-03-02T08:24:30.000Z</time>
      </trkpt>
      <trkpt lat="45.32422" lon="6.22576">
        <ele>1621.4000244141</ele>
        <time>2014-03-02T08:24:31.000Z</time>
      </trkpt>
      <trkpt lat="45.32422" lon="6.22575">
        <ele>1621.5999755859</ele>
        <time>2014-03-02T08:24:32.000Z</time>
      </trkpt>
      <trkpt lat="45.32423" lon="6.22574">
        <ele>1621.8000488281</ele>
        <time>2014-03-02T08:24:33.000Z</time>
      </trkpt>
      <trkpt lat="45.32424" lon="6.22574">
        <ele>1622</ele>
        <time>2014-03-02T08:24:34.000Z</time>
      </trkpt>
      <trkpt lat="45.32424" lon="6.22572">
        <ele>1622.1999511719</ele>
        <time>2014-03-02T08:24:35.000Z</time>
      </trkpt>
      <trkpt lat="45.32425" lon="6.22571">
        <ele>1622.4000244141</ele>
        <time>2014-03-02T08:24:36.000Z</time>
      </trkpt>
      <trkpt lat="45.32426" lon="6.22571">
        <ele>1622.5999755859</ele>
        <time>2014-03-02T08:24:37.000Z</time>
      </trkpt>
      <trkpt lat="45.32426" lon="6.2257">
        <ele>1622.5999755859</ele>
        <time>2014-03-02T08:24:38.000Z</time>
      </trkpt>
      <trkpt lat="45.32427" lon="6.2257">
        <ele>1622.8000488281</ele>
        <time>2014-03-02T08:24:39.000Z</time>
      </trkpt>
      <trkpt lat="45.32427" lon="6.22569">
        <ele>1623</ele>
        <time>2014-03-02T08:24:40.000Z</time>
      </trkpt>
      <trkpt lat="45.32427" lon="6.22568">
        <ele>1623.1999511719</ele>
        <time>2014-03-02T08:24:41.000Z</time>
      </trkpt>
      <trkpt lat="45.32428" lon="6.22567">
        <ele>1623.4000244141</ele>
        <time>2014-03-02T08:24:42.000Z</time>
      </trkpt>
      <trkpt lat="45.32429" lon="6.22566">
        <ele>1623.5999755859</ele>
        <time>2014-03-02T08:24:43.000Z</time>
      </trkpt>
      <trkpt lat="45.32429" lon="6.22565">
        <ele>1623.5999755859</ele>
        <time>2014-03-02T08:24:44.000Z</time>
      </trkpt>
      <trkpt lat="45.3243" lon="6.22565">
        <ele>1623.8000488281</ele>
        <time>2014-03-02T08:24:45.000Z</time>
      </trkpt>
      <trkpt lat="45.32431" lon="6.22564">
        <ele>1623.8000488281</ele>
        <time>2014-03-02T08:24:46.000Z</time>
      </trkpt>
      <trkpt lat="45.32432" lon="6.22563">
        <ele>1624</ele>
        <time>2014-03-02T08:24:47.000Z</time>
      </trkpt>
      <trkpt lat="45.32433" lon="6.22562">
        <ele>1624.1999511719</ele>
        <time>2014-03-02T08:24:48.000Z</time>
      </trkpt>
      <trkpt lat="45.32434" lon="6.22561">
        <ele>1624.4000244141</ele>
        <time>2014-03-02T08:24:49.000Z</time>
      </trkpt>
      <trkpt lat="45.32434" lon="6.2256">
        <ele>1624.5999755859</ele>
        <time>2014-03-02T08:24:50.000Z</time>
      </trkpt>
      <trkpt lat="45.32434" lon="6.22559">
        <ele>1624.8000488281</ele>
        <time>2014-03-02T08:24:51.000Z</time>
      </trkpt>
      <trkpt lat="45.32435" lon="6.22558">
        <ele>1624.8000488281</ele>
        <time>2014-03-02T08:24:52.000Z</time>
      </trkpt>
      <trkpt lat="45.32436" lon="6.22558">
        <ele>1625</ele>
        <time>2014-03-02T08:24:53.000Z</time>
      </trkpt>
      <trkpt lat="45.32437" lon="6.22556">
        <ele>1625.1999511719</ele>
        <time>2014-03-02T08:24:54.000Z</time>
      </trkpt>
      <trkpt lat="45.32437" lon="6.22556">
        <ele>1625.1999511719</ele>
        <time>2014-03-02T08:24:55.000Z</time>
      </trkpt>
      <trkpt lat="45.32437" lon="6.22555">
        <ele>1625.4000244141</ele>
        <time>2014-03-02T08:24:56.000Z</time>
      </trkpt>
      <trkpt lat="45.32437" lon="6.22554">
        <ele>1625.5999755859</ele>
        <time>2014-03-02T08:24:57.000Z</time>
      </trkpt>
      <trkpt lat="45.32437" lon="6.22553">
        <ele>1626</ele>
        <time>2014-03-02T08:24:58.000Z</time>
      </trkpt>
      <trkpt lat="45.32438" lon="6.22553">
        <ele>1626</ele>
        <time>2014-03-02T08:24:59.000Z</time>
      </trkpt>
      <trkpt lat="45.32438" lon="6.22552">
        <ele>1626</ele>
        <time>2014-03-02T08:25:00.000Z</time>
      </trkpt>
      <trkpt lat="45.32439" lon="6.22551">
        <ele>1626.1999511719</ele>
        <time>2014-03-02T08:25:01.000Z</time>
      </trkpt>
      <trkpt lat="45.3244" lon="6.22551">
        <ele>1626.1999511719</ele>
        <time>2014-03-02T08:25:02.000Z</time>
      </trkpt>
      <trkpt lat="45.3244" lon="6.2255">
        <ele>1626.1999511719</ele>
        <time>2014-03-02T08:25:03.000Z</time>
      </trkpt>
      <trkpt lat="45.3244" lon="6.22549">
        <ele>1626.5999755859</ele>
        <time>2014-03-02T08:25:04.000Z</time>
      </trkpt>
      <trkpt lat="45.32441" lon="6.22548">
        <ele>1626.8000488281</ele>
        <time>2014-03-02T08:25:05.000Z</time>
      </trkpt>
      <trkpt lat="45.32441" lon="6.22548">
        <ele>1627</ele>
        <time>2014-03-02T08:25:06.000Z</time>
      </trkpt>
      <trkpt lat="45.32441" lon="6.22546">
        <ele>1627.1999511719</ele>
        <time>2014-03-02T08:25:07.000Z</time>
      </trkpt>
      <trkpt lat="45.32442" lon="6.22546">
        <ele>1627.4000244141</ele>
        <time>2014-03-02T08:25:08.000Z</time>
      </trkpt>
      <trkpt lat="45.32443" lon="6.22545">
        <ele>1627.5999755859</ele>
        <time>2014-03-02T08:25:09.000Z</time>
      </trkpt>
      <trkpt lat="45.32443" lon="6.22544">
        <ele>1627.5999755859</ele>
        <time>2014-03-02T08:25:10.000Z</time>
      </trkpt>
      <trkpt lat="45.32444" lon="6.22543">
        <ele>1627.8000488281</ele>
        <time>2014-03-02T08:25:11.000Z</time>
      </trkpt>
      <trkpt lat="45.32445" lon="6.22542">
        <ele>1628</ele>
        <time>2014-03-02T08:25:12.000Z</time>
      </trkpt>
      <trkpt lat="45.32446" lon="6.22541">
        <ele>1628.4000244141</ele>
        <time>2014-03-02T08:25:13.000Z</time>
      </trkpt>
      <trkpt lat="45.32447" lon="6.22541">
        <ele>1628.5999755859</ele>
        <time>2014-03-02T08:25:14.000Z</time>
      </trkpt>
      <trkpt lat="45.32448" lon="6.2254">
        <ele>1628.8000488281</ele>
        <time>2014-03-02T08:25:15.000Z</time>
      </trkpt>
      <trkpt lat="45.32449" lon="6.22539">
        <ele>1629</ele>
        <time>2014-03-02T08:25:16.000Z</time>
      </trkpt>
      <trkpt lat="45.3245" lon="6.22538">
        <ele>1629.4000244141</ele>
        <time>2014-03-02T08:25:17.000Z</time>
      </trkpt>
      <trkpt lat="45.32452" lon="6.22537">
        <ele>1629.5999755859</ele>
        <time>2014-03-02T08:25:18.000Z</time>
      </trkpt>
      <trkpt lat="45.32453" lon="6.22536">
        <ele>1630</ele>
        <time>2014-03-02T08:25:19.000Z</time>
      </trkpt>
      <trkpt lat="45.32454" lon="6.22535">
        <ele>1630.4000244141</ele>
        <time>2014-03-02T08:25:20.000Z</time>
      </trkpt>
      <trkpt lat="45.32455" lon="6.22535">
        <ele>1630.5999755859</ele>
        <time>2014-03-02T08:25:21.000Z</time>
      </trkpt>
      <trkpt lat="45.32457" lon="6.22534">
        <ele>1630.8000488281</ele>
        <time>2014-03-02T08:25:22.000Z</time>
      </trkpt>
      <trkpt lat="45.32458" lon="6.22533">
        <ele>1631</ele>
        <time>2014-03-02T08:25:23.000Z</time>
      </trkpt>
      <trkpt lat="45.32459" lon="6.22533">
        <ele>1631.1999511719</ele>
        <time>2014-03-02T08:25:24.000Z</time>
      </trkpt>
      <trkpt lat="45.3246" lon="6.22532">
        <ele>1631.4000244141</ele>
        <time>2014-03-02T08:25:25.000Z</time>
      </trkpt>
      <trkpt lat="45.32461" lon="6.22532">
        <ele>1631.5999755859</ele>
        <time>2014-03-02T08:25:26.000Z</time>
      </trkpt>
      <trkpt lat="45.32462" lon="6.22531">
        <ele>1631.5999755859</ele>
        <time>2014-03-02T08:25:27.000Z</time>
      </trkpt>
      <trkpt lat="45.32463" lon="6.22531">
        <ele>1631.8000488281</ele>
        <time>2014-03-02T08:25:28.000Z</time>
      </trkpt>
      <trkpt lat="45.32463" lon="6.2253">
        <ele>1632</ele>
        <time>2014-03-02T08:25:29.000Z</time>
      </trkpt>
      <trkpt lat="45.32464" lon="6.2253">
        <ele>1632.1999511719</ele>
        <time>2014-03-02T08:25:30.000Z</time>
      </trkpt>
      <trkpt lat="45.32465" lon="6.2253">
        <ele>1632.5999755859</ele>
        <time>2014-03-02T08:25:31.000Z</time>
      </trkpt>
      <trkpt lat="45.32465" lon="6.22529">
        <ele>1632.8000488281</ele>
        <time>2014-03-02T08:25:32.000Z</time>
      </trkpt>
      <trkpt lat="45.32466" lon="6.22529">
        <ele>1633.4000244141</ele>
        <time>2014-03-02T08:25:33.000Z</time>
      </trkpt>
      <trkpt lat="45.32467" lon="6.22528">
        <ele>1634.4000244141</ele>
        <time>2014-03-02T08:25:34.000Z</time>
      </trkpt>
      <trkpt lat="45.32469" lon="6.22527">
        <ele>1635.1999511719</ele>
        <time>2014-03-02T08:25:35.000Z</time>
      </trkpt>
      <trkpt lat="45.3247" lon="6.22526">
        <ele>1636</ele>
        <time>2014-03-02T08:25:36.000Z</time>
      </trkpt>
      <trkpt lat="45.3247" lon="6.22525">
        <ele>1636.5999755859</ele>
        <time>2014-03-02T08:25:37.000Z</time>
      </trkpt>
      <trkpt lat="45.32471" lon="6.22525">
        <ele>1637.1999511719</ele>
        <time>2014-03-02T08:25:38.000Z</time>
      </trkpt>
      <trkpt lat="45.32472" lon="6.22524">
        <ele>1637.8000488281</ele>
        <time>2014-03-02T08:25:39.000Z</time>
      </trkpt>
      <trkpt lat="45.32473" lon="6.22524">
        <ele>1638.1999511719</ele>
        <time>2014-03-02T08:25:40.000Z</time>
      </trkpt>
      <trkpt lat="45.32474" lon="6.22523">
        <ele>1638.8000488281</ele>
        <time>2014-03-02T08:25:41.000Z</time>
      </trkpt>
      <trkpt lat="45.32475" lon="6.22523">
        <ele>1639.1999511719</ele>
        <time>2014-03-02T08:25:42.000Z</time>
      </trkpt>
      <trkpt lat="45.32475" lon="6.22523">
        <ele>1639.5999755859</ele>
        <time>2014-03-02T08:25:43.000Z</time>
      </trkpt>
      <trkpt lat="45.32476" lon="6.22522">
        <ele>1640.1999511719</ele>
        <time>2014-03-02T08:25:44.000Z</time>
      </trkpt>
      <trkpt lat="45.32477" lon="6.22521">
        <ele>1640.8000488281</ele>
        <time>2014-03-02T08:25:45.000Z</time>
      </trkpt>
      <trkpt lat="45.32478" lon="6.22521">
        <ele>1641.4000244141</ele>
        <time>2014-03-02T08:25:46.000Z</time>
      </trkpt>
      <trkpt lat="45.32478" lon="6.2252">
        <ele>1642</ele>
        <time>2014-03-02T08:25:47.000Z</time>
      </trkpt>
      <trkpt lat="45.32479" lon="6.22519">
        <ele>1642.4000244141</ele>
        <time>2014-03-02T08:25:48.000Z</time>
      </trkpt>
      <trkpt lat="45.32479" lon="6.22518">
        <ele>1642.8000488281</ele>
        <time>2014-03-02T08:25:49.000Z</time>
      </trkpt>
      <trkpt lat="45.32479" lon="6.22517">
        <ele>1643.4000244141</ele>
        <time>2014-03-02T08:25:50.000Z</time>
      </trkpt>
      <trkpt lat="45.32478" lon="6.22516">
        <ele>1643.5999755859</ele>
        <time>2014-03-02T08:25:51.000Z</time>
      </trkpt>
      <trkpt lat="45.32478" lon="6.22515">
        <ele>1644</ele>
        <time>2014-03-02T08:25:52.000Z</time>
      </trkpt>
      <trkpt lat="45.32477" lon="6.22515">
        <ele>1644.1999511719</ele>
        <time>2014-03-02T08:25:53.000Z</time>
      </trkpt>
      <trkpt lat="45.32477" lon="6.22514">
        <ele>1644.1999511719</ele>
        <time>2014-03-02T08:25:54.000Z</time>
      </trkpt>
      <trkpt lat="45.32476" lon="6.22513">
        <ele>1644.1999511719</ele>
        <time>2014-03-02T08:25:55.000Z</time>
      </trkpt>
      <trkpt lat="45.32476" lon="6.22513">
        <ele>1644.1999511719</ele>
        <time>2014-03-02T08:25:56.000Z</time>
      </trkpt>
      <trkpt lat="45.32476" lon="6.22513">
        <ele>1644.1999511719</ele>
        <time>2014-03-02T08:25:57.000Z</time>
      </trkpt>
      <trkpt lat="45.32476" lon="6.22513">
        <ele>1644.1999511719</ele>
        <time>2014-03-02T08:25:58.000Z</time>
      </trkpt>
      <trkpt lat="45.32476" lon="6.22513">
        <ele>1644.1999511719</ele>
        <time>2014-03-02T08:25:59.000Z</time>
      </trkpt>
      <trkpt lat="45.32476" lon="6.22513">
        <ele>1644.1999511719</ele>
        <time>2014-03-02T08:26:00.000Z</time>
      </trkpt>
      <trkpt lat="45.32476" lon="6.22513">
        <ele>1644.1999511719</ele>
        <time>2014-03-02T08:26:01.000Z</time>
      </trkpt>
      <trkpt lat="45.32476" lon="6.22513">
        <ele>1644.1999511719</ele>
        <time>2014-03-02T08:26:02.000Z</time>
      </trkpt>
      <trkpt lat="45.32476" lon="6.22513">
        <ele>1644.1999511719</ele>
        <time>2014-03-02T08:26:03.000Z</time>
      </trkpt>
      <trkpt lat="45.32476" lon="6.22513">
        <ele>1644.1999511719</ele>
        <time>2014-03-02T08:26:06.000Z</time>
      </trkpt>
      <trkpt lat="45.32476" lon="6.22513">
        <ele>1644.1999511719</ele>
        <time>2014-03-02T08:26:07.000Z</time>
      </trkpt>
      <trkpt lat="45.32476" lon="6.22513">
        <ele>1644.1999511719</ele>
        <time>2014-03-02T08:26:09.000Z</time>
      </trkpt>
      <trkpt lat="45.32474" lon="6.22513">
        <ele>1643.8000488281</ele>
        <time>2014-03-02T08:26:11.000Z</time>
      </trkpt>
      <trkpt lat="45.32474" lon="6.22513">
        <ele>1643.5999755859</ele>
        <time>2014-03-02T08:26:12.000Z</time>
      </trkpt>
      <trkpt lat="45.32473" lon="6.22512">
        <ele>1643.5999755859</ele>
        <time>2014-03-02T08:26:13.000Z</time>
      </trkpt>
      <trkpt lat="45.32473" lon="6.22512">
        <ele>1643.5999755859</ele>
        <time>2014-03-02T08:26:14.000Z</time>
      </trkpt>
      <trkpt lat="45.32472" lon="6.22512">
        <ele>1643.4000244141</ele>
        <time>2014-03-02T08:26:15.000Z</time>
      </trkpt>
      <trkpt lat="45.32472" lon="6.22512">
        <ele>1643.1999511719</ele>
        <time>2014-03-02T08:26:16.000Z</time>
      </trkpt>
      <trkpt lat="45.32471" lon="6.22512">
        <ele>1643</ele>
        <time>2014-03-02T08:26:17.000Z</time>
      </trkpt>
      <trkpt lat="45.3247" lon="6.22512">
        <ele>1642.8000488281</ele>
        <time>2014-03-02T08:26:18.000Z</time>
      </trkpt>
      <trkpt lat="45.32468" lon="6.22512">
        <ele>1642.4000244141</ele>
        <time>2014-03-02T08:26:19.000Z</time>
      </trkpt>
      <trkpt lat="45.32467" lon="6.22511">
        <ele>1642</ele>
        <time>2014-03-02T08:26:20.000Z</time>
      </trkpt>
      <trkpt lat="45.32466" lon="6.22511">
        <ele>1641.5999755859</ele>
        <time>2014-03-02T08:26:21.000Z</time>
      </trkpt>
      <trkpt lat="45.32465" lon="6.22511">
        <ele>1641.1999511719</ele>
        <time>2014-03-02T08:26:22.000Z</time>
      </trkpt>
      <trkpt lat="45.32464" lon="6.22511">
        <ele>1641.1999511719</ele>
        <time>2014-03-02T08:26:23.000Z</time>
      </trkpt>
      <trkpt lat="45.32463" lon="6.2251">
        <ele>1641.5999755859</ele>
        <time>2014-03-02T08:26:24.000Z</time>
      </trkpt>
      <trkpt lat="45.32462" lon="6.2251">
        <ele>1641.5999755859</ele>
        <time>2014-03-02T08:26:25.000Z</time>
      </trkpt>
      <trkpt lat="45.32461" lon="6.22509">
        <ele>1642</ele>
        <time>2014-03-02T08:26:26.000Z</time>
      </trkpt>
      <trkpt lat="45.3246" lon="6.22509">
        <ele>1642.1999511719</ele>
        <time>2014-03-02T08:26:27.000Z</time>
      </trkpt>
      <trkpt lat="45.32459" lon="6.22509">
        <ele>1642.4000244141</ele>
        <time>2014-03-02T08:26:28.000Z</time>
      </trkpt>
      <trkpt lat="45.32458" lon="6.22509">
        <ele>1642.4000244141</ele>
        <time>2014-03-02T08:26:29.000Z</time>
      </trkpt>
      <trkpt lat="45.32457" lon="6.22509">
        <ele>1642.5999755859</ele>
        <time>2014-03-02T08:26:30.000Z</time>
      </trkpt>
      <trkpt lat="45.32456" lon="6.22509">
        <ele>1642.8000488281</ele>
        <time>2014-03-02T08:26:31.000Z</time>
      </trkpt>
      <trkpt lat="45.32455" lon="6.22508">
        <ele>1643</ele>
        <time>2014-03-02T08:26:32.000Z</time>
      </trkpt>
      <trkpt lat="45.32455" lon="6.22508">
        <ele>1643</ele>
        <time>2014-03-02T08:26:33.000Z</time>
      </trkpt>
      <trkpt lat="45.32453" lon="6.22508">
        <ele>1643.1999511719</ele>
        <time>2014-03-02T08:26:34.000Z</time>
      </trkpt>
      <trkpt lat="45.32452" lon="6.22508">
        <ele>1643.4000244141</ele>
        <time>2014-03-02T08:26:35.000Z</time>
      </trkpt>
      <trkpt lat="45.32452" lon="6.22508">
        <ele>1643.5999755859</ele>
        <time>2014-03-02T08:26:36.000Z</time>
      </trkpt>
      <trkpt lat="45.32451" lon="6.22507">
        <ele>1643.5999755859</ele>
        <time>2014-03-02T08:26:37.000Z</time>
      </trkpt>
      <trkpt lat="45.3245" lon="6.22508">
        <ele>1643.5999755859</ele>
        <time>2014-03-02T08:26:38.000Z</time>
      </trkpt>
      <trkpt lat="45.32449" lon="6.22508">
        <ele>1643.5999755859</ele>
        <time>2014-03-02T08:26:39.000Z</time>
      </trkpt>
      <trkpt lat="45.32448" lon="6.22508">
        <ele>1643.8000488281</ele>
        <time>2014-03-02T08:26:40.000Z</time>
      </trkpt>
      <trkpt lat="45.32447" lon="6.22508">
        <ele>1644</ele>
        <time>2014-03-02T08:26:41.000Z</time>
      </trkpt>
      <trkpt lat="45.32446" lon="6.22507">
        <ele>1644.1999511719</ele>
        <time>2014-03-02T08:26:42.000Z</time>
      </trkpt>
      <trkpt lat="45.32445" lon="6.22507">
        <ele>1644.4000244141</ele>
        <time>2014-03-02T08:26:43.000Z</time>
      </trkpt>
      <trkpt lat="45.32444" lon="6.22507">
        <ele>1644.5999755859</ele>
        <time>2014-03-02T08:26:44.000Z</time>
      </trkpt>
      <trkpt lat="45.32443" lon="6.22507">
        <ele>1644.5999755859</ele>
        <time>2014-03-02T08:26:45.000Z</time>
      </trkpt>
      <trkpt lat="45.32443" lon="6.22507">
        <ele>1644.8000488281</ele>
        <time>2014-03-02T08:26:46.000Z</time>
      </trkpt>
      <trkpt lat="45.32442" lon="6.22507">
        <ele>1644.8000488281</ele>
        <time>2014-03-02T08:26:47.000Z</time>
      </trkpt>
      <trkpt lat="45.32441" lon="6.22508">
        <ele>1644.5999755859</ele>
        <time>2014-03-02T08:26:48.000Z</time>
      </trkpt>
      <trkpt lat="45.3244" lon="6.22508">
        <ele>1644.5999755859</ele>
        <time>2014-03-02T08:26:49.000Z</time>
      </trkpt>
      <trkpt lat="45.32439" lon="6.22508">
        <ele>1644.5999755859</ele>
        <time>2014-03-02T08:26:50.000Z</time>
      </trkpt>
      <trkpt lat="45.32438" lon="6.22508">
        <ele>1644.8000488281</ele>
        <time>2014-03-02T08:26:51.000Z</time>
      </trkpt>
      <trkpt lat="45.32437" lon="6.22507">
        <ele>1644.8000488281</ele>
        <time>2014-03-02T08:26:52.000Z</time>
      </trkpt>
      <trkpt lat="45.32435" lon="6.22507">
        <ele>1645</ele>
        <time>2014-03-02T08:26:53.000Z</time>
      </trkpt>
      <trkpt lat="45.32435" lon="6.22507">
        <ele>1645.1999511719</ele>
        <time>2014-03-02T08:26:54.000Z</time>
      </trkpt>
      <trkpt lat="45.32434" lon="6.22507">
        <ele>1645.4000244141</ele>
        <time>2014-03-02T08:26:55.000Z</time>
      </trkpt>
      <trkpt lat="45.32433" lon="6.22507">
        <ele>1645.4000244141</ele>
        <time>2014-03-02T08:26:56.000Z</time>
      </trkpt>
      <trkpt lat="45.32433" lon="6.22507">
        <ele>1645.4000244141</ele>
        <time>2014-03-02T08:26:57.000Z</time>
      </trkpt>
      <trkpt lat="45.32432" lon="6.22507">
        <ele>1645.5999755859</ele>
        <time>2014-03-02T08:26:58.000Z</time>
      </trkpt>
      <trkpt lat="45.32431" lon="6.22507">
        <ele>1645.8000488281</ele>
        <time>2014-03-02T08:26:59.000Z</time>
      </trkpt>
      <trkpt lat="45.32431" lon="6.22506">
        <ele>1645.8000488281</ele>
        <time>2014-03-02T08:27:00.000Z</time>
      </trkpt>
      <trkpt lat="45.3243" lon="6.22506">
        <ele>1646</ele>
        <time>2014-03-02T08:27:01.000Z</time>
      </trkpt>
      <trkpt lat="45.32429" lon="6.22506">
        <ele>1646.1999511719</ele>
        <time>2014-03-02T08:27:02.000Z</time>
      </trkpt>
      <trkpt lat="45.32428" lon="6.22506">
        <ele>1646.4000244141</ele>
        <time>2014-03-02T08:27:03.000Z</time>
      </trkpt>
      <trkpt lat="45.32427" lon="6.22506">
        <ele>1646.4000244141</ele>
        <time>2014-03-02T08:27:04.000Z</time>
      </trkpt>
      <trkpt lat="45.32426" lon="6.22506">
        <ele>1646.5999755859</ele>
        <time>2014-03-02T08:27:05.000Z</time>
      </trkpt>
      <trkpt lat="45.32425" lon="6.22506">
        <ele>1646.8000488281</ele>
        <time>2014-03-02T08:27:06.000Z</time>
      </trkpt>
      <trkpt lat="45.32424" lon="6.22505">
        <ele>1646.8000488281</ele>
        <time>2014-03-02T08:27:07.000Z</time>
      </trkpt>
      <trkpt lat="45.32423" lon="6.22506">
        <ele>1647</ele>
        <time>2014-03-02T08:27:08.000Z</time>
      </trkpt>
      <trkpt lat="45.32421" lon="6.22505">
        <ele>1647.1999511719</ele>
        <time>2014-03-02T08:27:09.000Z</time>
      </trkpt>
      <trkpt lat="45.3242" lon="6.22505">
        <ele>1647.4000244141</ele>
        <time>2014-03-02T08:27:10.000Z</time>
      </trkpt>
      <trkpt lat="45.32418" lon="6.22505">
        <ele>1647.4000244141</ele>
        <time>2014-03-02T08:27:11.000Z</time>
      </trkpt>
      <trkpt lat="45.32416" lon="6.22505">
        <ele>1647.5999755859</ele>
        <time>2014-03-02T08:27:12.000Z</time>
      </trkpt>
      <trkpt lat="45.32414" lon="6.22505">
        <ele>1647.8000488281</ele>
        <time>2014-03-02T08:27:13.000Z</time>
      </trkpt>
      <trkpt lat="45.32412" lon="6.22505">
        <ele>1648</ele>
        <time>2014-03-02T08:27:14.000Z</time>
      </trkpt>
      <trkpt lat="45.32411" lon="6.22505">
        <ele>1648</ele>
        <time>2014-03-02T08:27:15.000Z</time>
      </trkpt>
      <trkpt lat="45.3241" lon="6.22505">
        <ele>1648.4000244141</ele>
        <time>2014-03-02T08:27:16.000Z</time>
      </trkpt>
      <trkpt lat="45.32408" lon="6.22505">
        <ele>1648.4000244141</ele>
        <time>2014-03-02T08:27:17.000Z</time>
      </trkpt>
      <trkpt lat="45.32407" lon="6.22505">
        <ele>1648.4000244141</ele>
        <time>2014-03-02T08:27:18.000Z</time>
      </trkpt>
      <trkpt lat="45.32407" lon="6.22505">
        <ele>1648.4000244141</ele>
        <time>2014-03-02T08:27:19.000Z</time>
      </trkpt>
      <trkpt lat="45.32406" lon="6.22506">
        <ele>1648.4000244141</ele>
        <time>2014-03-02T08:27:20.000Z</time>
      </trkpt>
      <trkpt lat="45.32404" lon="6.22507">
        <ele>1648.5999755859</ele>
        <time>2014-03-02T08:27:21.000Z</time>
      </trkpt>
      <trkpt lat="45.32403" lon="6.22507">
        <ele>1648.5999755859</ele>
        <time>2014-03-02T08:27:22.000Z</time>
      </trkpt>
      <trkpt lat="45.32402" lon="6.22509">
        <ele>1648.4000244141</ele>
        <time>2014-03-02T08:27:23.000Z</time>
      </trkpt>
      <trkpt lat="45.32401" lon="6.2251">
        <ele>1648.1999511719</ele>
        <time>2014-03-02T08:27:24.000Z</time>
      </trkpt>
      <trkpt lat="45.324" lon="6.22511">
        <ele>1648</ele>
        <time>2014-03-02T08:27:25.000Z</time>
      </trkpt>
      <trkpt lat="45.324" lon="6.22511">
        <ele>1648.1999511719</ele>
        <time>2014-03-02T08:27:26.000Z</time>
      </trkpt>
      <trkpt lat="45.32399" lon="6.22512">
        <ele>1648</ele>
        <time>2014-03-02T08:27:27.000Z</time>
      </trkpt>
      <trkpt lat="45.32399" lon="6.22513">
        <ele>1647.8000488281</ele>
        <time>2014-03-02T08:27:28.000Z</time>
      </trkpt>
      <trkpt lat="45.32398" lon="6.22514">
        <ele>1647.8000488281</ele>
        <time>2014-03-02T08:27:29.000Z</time>
      </trkpt>
      <trkpt lat="45.32398" lon="6.22514">
        <ele>1647.5999755859</ele>
        <time>2014-03-02T08:27:30.000Z</time>
      </trkpt>
      <trkpt lat="45.32397" lon="6.22515">
        <ele>1647.5999755859</ele>
        <time>2014-03-02T08:27:31.000Z</time>
      </trkpt>
      <trkpt lat="45.32396" lon="6.22516">
        <ele>1647.5999755859</ele>
        <time>2014-03-02T08:27:32.000Z</time>
      </trkpt>
      <trkpt lat="45.32395" lon="6.22516">
        <ele>1647.5999755859</ele>
        <time>2014-03-02T08:27:33.000Z</time>
      </trkpt>
      <trkpt lat="45.32395" lon="6.22517">
        <ele>1647.1999511719</ele>
        <time>2014-03-02T08:27:34.000Z</time>
      </trkpt>
      <trkpt lat="45.32394" lon="6.22519">
        <ele>1647</ele>
        <time>2014-03-02T08:27:35.000Z</time>
      </trkpt>
      <trkpt lat="45.32393" lon="6.22519">
        <ele>1647</ele>
        <time>2014-03-02T08:27:36.000Z</time>
      </trkpt>
      <trkpt lat="45.32392" lon="6.2252">
        <ele>1647</ele>
        <time>2014-03-02T08:27:37.000Z</time>
      </trkpt>
      <trkpt lat="45.32392" lon="6.22521">
        <ele>1646.8000488281</ele>
        <time>2014-03-02T08:27:38.000Z</time>
      </trkpt>
      <trkpt lat="45.32392" lon="6.22521">
        <ele>1646.8000488281</ele>
        <time>2014-03-02T08:27:39.000Z</time>
      </trkpt>
      <trkpt lat="45.32391" lon="6.22521">
        <ele>1646.8000488281</ele>
        <time>2014-03-02T08:27:40.000Z</time>
      </trkpt>
      <trkpt lat="45.32391" lon="6.22521">
        <ele>1647</ele>
        <time>2014-03-02T08:27:41.000Z</time>
      </trkpt>
      <trkpt lat="45.3239" lon="6.22521">
        <ele>1647.1999511719</ele>
        <time>2014-03-02T08:27:42.000Z</time>
      </trkpt>
      <trkpt lat="45.3239" lon="6.22521">
        <ele>1647.4000244141</ele>
        <time>2014-03-02T08:27:43.000Z</time>
      </trkpt>
      <trkpt lat="45.32389" lon="6.2252">
        <ele>1647.5999755859</ele>
        <time>2014-03-02T08:27:44.000Z</time>
      </trkpt>
      <trkpt lat="45.32389" lon="6.2252">
        <ele>1647.5999755859</ele>
        <time>2014-03-02T08:27:45.000Z</time>
      </trkpt>
      <trkpt lat="45.32388" lon="6.2252">
        <ele>1648</ele>
        <time>2014-03-02T08:27:46.000Z</time>
      </trkpt>
      <trkpt lat="45.32388" lon="6.22519">
        <ele>1648.4000244141</ele>
        <time>2014-03-02T08:27:47.000Z</time>
      </trkpt>
      <trkpt lat="45.32388" lon="6.22517">
        <ele>1649</ele>
        <time>2014-03-02T08:27:48.000Z</time>
      </trkpt>
      <trkpt lat="45.32388" lon="6.22516">
        <ele>1649.1999511719</ele>
        <time>2014-03-02T08:27:49.000Z</time>
      </trkpt>
      <trkpt lat="45.32388" lon="6.22515">
        <ele>1649.4000244141</ele>
        <time>2014-03-02T08:27:50.000Z</time>
      </trkpt>
      <trkpt lat="45.32388" lon="6.22514">
        <ele>1650</ele>
        <time>2014-03-02T08:27:51.000Z</time>
      </trkpt>
      <trkpt lat="45.32389" lon="6.22513">
        <ele>1650.1999511719</ele>
        <time>2014-03-02T08:27:52.000Z</time>
      </trkpt>
      <trkpt lat="45.32389" lon="6.22512">
        <ele>1650.4000244141</ele>
        <time>2014-03-02T08:27:53.000Z</time>
      </trkpt>
      <trkpt lat="45.3239" lon="6.22511">
        <ele>1650.5999755859</ele>
        <time>2014-03-02T08:27:54.000Z</time>
      </trkpt>
      <trkpt lat="45.3239" lon="6.22509">
        <ele>1651</ele>
        <time>2014-03-02T08:27:55.000Z</time>
      </trkpt>
      <trkpt lat="45.32391" lon="6.22508">
        <ele>1651.1999511719</ele>
        <time>2014-03-02T08:27:56.000Z</time>
      </trkpt>
      <trkpt lat="45.32392" lon="6.22507">
        <ele>1651.1999511719</ele>
        <time>2014-03-02T08:27:57.000Z</time>
      </trkpt>
      <trkpt lat="45.32393" lon="6.22506">
        <ele>1651.4000244141</ele>
        <time>2014-03-02T08:27:58.000Z</time>
      </trkpt>
      <trkpt lat="45.32394" lon="6.22505">
        <ele>1651.4000244141</ele>
        <time>2014-03-02T08:27:59.000Z</time>
      </trkpt>
      <trkpt lat="45.32395" lon="6.22504">
        <ele>1651.5999755859</ele>
        <time>2014-03-02T08:28:00.000Z</time>
      </trkpt>
      <trkpt lat="45.32396" lon="6.22503">
        <ele>1651.8000488281</ele>
        <time>2014-03-02T08:28:01.000Z</time>
      </trkpt>
      <trkpt lat="45.32397" lon="6.22501">
        <ele>1652</ele>
        <time>2014-03-02T08:28:02.000Z</time>
      </trkpt>
      <trkpt lat="45.32398" lon="6.225">
        <ele>1652.1999511719</ele>
        <time>2014-03-02T08:28:03.000Z</time>
      </trkpt>
      <trkpt lat="45.324" lon="6.22498">
        <ele>1652.4000244141</ele>
        <time>2014-03-02T08:28:04.000Z</time>
      </trkpt>
      <trkpt lat="45.32401" lon="6.22496">
        <ele>1653</ele>
        <time>2014-03-02T08:28:05.000Z</time>
      </trkpt>
      <trkpt lat="45.32403" lon="6.22495">
        <ele>1653.5999755859</ele>
        <time>2014-03-02T08:28:06.000Z</time>
      </trkpt>
      <trkpt lat="45.32404" lon="6.22493">
        <ele>1654.4000244141</ele>
        <time>2014-03-02T08:28:07.000Z</time>
      </trkpt>
      <trkpt lat="45.32404" lon="6.22492">
        <ele>1654.8000488281</ele>
        <time>2014-03-02T08:28:08.000Z</time>
      </trkpt>
      <trkpt lat="45.32405" lon="6.22491">
        <ele>1655.4000244141</ele>
        <time>2014-03-02T08:28:09.000Z</time>
      </trkpt>
      <trkpt lat="45.32406" lon="6.22489">
        <ele>1656</ele>
        <time>2014-03-02T08:28:10.000Z</time>
      </trkpt>
      <trkpt lat="45.32407" lon="6.22488">
        <ele>1656.4000244141</ele>
        <time>2014-03-02T08:28:11.000Z</time>
      </trkpt>
      <trkpt lat="45.32407" lon="6.22487">
        <ele>1657</ele>
        <time>2014-03-02T08:28:12.000Z</time>
      </trkpt>
      <trkpt lat="45.32408" lon="6.22485">
        <ele>1657.5999755859</ele>
        <time>2014-03-02T08:28:13.000Z</time>
      </trkpt>
      <trkpt lat="45.32409" lon="6.22485">
        <ele>1657.8000488281</ele>
        <time>2014-03-02T08:28:14.000Z</time>
      </trkpt>
      <trkpt lat="45.32409" lon="6.22484">
        <ele>1658.4000244141</ele>
        <time>2014-03-02T08:28:15.000Z</time>
      </trkpt>
      <trkpt lat="45.3241" lon="6.22482">
        <ele>1658.8000488281</ele>
        <time>2014-03-02T08:28:16.000Z</time>
      </trkpt>
      <trkpt lat="45.3241" lon="6.22482">
        <ele>1659.1999511719</ele>
        <time>2014-03-02T08:28:17.000Z</time>
      </trkpt>
      <trkpt lat="45.3241" lon="6.22481">
        <ele>1659.5999755859</ele>
        <time>2014-03-02T08:28:18.000Z</time>
      </trkpt>
      <trkpt lat="45.3241" lon="6.22479">
        <ele>1660.1999511719</ele>
        <time>2014-03-02T08:28:19.000Z</time>
      </trkpt>
      <trkpt lat="45.3241" lon="6.22479">
        <ele>1660.5999755859</ele>
        <time>2014-03-02T08:28:20.000Z</time>
      </trkpt>
      <trkpt lat="45.3241" lon="6.22478">
        <ele>1660.8000488281</ele>
        <time>2014-03-02T08:28:21.000Z</time>
      </trkpt>
      <trkpt lat="45.32411" lon="6.22476">
        <ele>1661.1999511719</ele>
        <time>2014-03-02T08:28:22.000Z</time>
      </trkpt>
      <trkpt lat="45.32412" lon="6.22475">
        <ele>1661.5999755859</ele>
        <time>2014-03-02T08:28:23.000Z</time>
      </trkpt>
      <trkpt lat="45.32413" lon="6.22474">
        <ele>1661.8000488281</ele>
        <time>2014-03-02T08:28:24.000Z</time>
      </trkpt>
      <trkpt lat="45.32414" lon="6.22472">
        <ele>1662.1999511719</ele>
        <time>2014-03-02T08:28:25.000Z</time>
      </trkpt>
      <trkpt lat="45.32415" lon="6.22471">
        <ele>1662.4000244141</ele>
        <time>2014-03-02T08:28:26.000Z</time>
      </trkpt>
      <trkpt lat="45.32416" lon="6.2247">
        <ele>1662.5999755859</ele>
        <time>2014-03-02T08:28:27.000Z</time>
      </trkpt>
      <trkpt lat="45.32417" lon="6.22469">
        <ele>1662.8000488281</ele>
        <time>2014-03-02T08:28:28.000Z</time>
      </trkpt>
      <trkpt lat="45.32418" lon="6.22468">
        <ele>1663.1999511719</ele>
        <time>2014-03-02T08:28:29.000Z</time>
      </trkpt>
      <trkpt lat="45.32419" lon="6.22467">
        <ele>1663.4000244141</ele>
        <time>2014-03-02T08:28:30.000Z</time>
      </trkpt>
      <trkpt lat="45.3242" lon="6.22466">
        <ele>1663.5999755859</ele>
        <time>2014-03-02T08:28:31.000Z</time>
      </trkpt>
      <trkpt lat="45.32421" lon="6.22466">
        <ele>1663.8000488281</ele>
        <time>2014-03-02T08:28:32.000Z</time>
      </trkpt>
      <trkpt lat="45.32422" lon="6.22465">
        <ele>1664</ele>
        <time>2014-03-02T08:28:33.000Z</time>
      </trkpt>
      <trkpt lat="45.32423" lon="6.22464">
        <ele>1664.1999511719</ele>
        <time>2014-03-02T08:28:34.000Z</time>
      </trkpt>
      <trkpt lat="45.32424" lon="6.22463">
        <ele>1664.4000244141</ele>
        <time>2014-03-02T08:28:35.000Z</time>
      </trkpt>
      <trkpt lat="45.32425" lon="6.22462">
        <ele>1664.4000244141</ele>
        <time>2014-03-02T08:28:36.000Z</time>
      </trkpt>
      <trkpt lat="45.32425" lon="6.22462">
        <ele>1664.5999755859</ele>
        <time>2014-03-02T08:28:37.000Z</time>
      </trkpt>
      <trkpt lat="45.32426" lon="6.22461">
        <ele>1664.8000488281</ele>
        <time>2014-03-02T08:28:38.000Z</time>
      </trkpt>
      <trkpt lat="45.32426" lon="6.2246">
        <ele>1665</ele>
        <time>2014-03-02T08:28:39.000Z</time>
      </trkpt>
      <trkpt lat="45.32427" lon="6.22459">
        <ele>1665.1999511719</ele>
        <time>2014-03-02T08:28:40.000Z</time>
      </trkpt>
      <trkpt lat="45.32428" lon="6.22458">
        <ele>1665.5999755859</ele>
        <time>2014-03-02T08:28:41.000Z</time>
      </trkpt>
      <trkpt lat="45.32428" lon="6.22457">
        <ele>1665.5999755859</ele>
        <time>2014-03-02T08:28:42.000Z</time>
      </trkpt>
      <trkpt lat="45.32429" lon="6.22456">
        <ele>1665.8000488281</ele>
        <time>2014-03-02T08:28:43.000Z</time>
      </trkpt>
      <trkpt lat="45.3243" lon="6.22455">
        <ele>1666.1999511719</ele>
        <time>2014-03-02T08:28:44.000Z</time>
      </trkpt>
      <trkpt lat="45.32431" lon="6.22455">
        <ele>1666.4000244141</ele>
        <time>2014-03-02T08:28:45.000Z</time>
      </trkpt>
      <trkpt lat="45.32431" lon="6.22454">
        <ele>1666.5999755859</ele>
        <time>2014-03-02T08:28:46.000Z</time>
      </trkpt>
      <trkpt lat="45.32432" lon="6.22453">
        <ele>1666.5999755859</ele>
        <time>2014-03-02T08:28:47.000Z</time>
      </trkpt>
      <trkpt lat="45.32433" lon="6.22452">
        <ele>1666.8000488281</ele>
        <time>2014-03-02T08:28:48.000Z</time>
      </trkpt>
      <trkpt lat="45.32434" lon="6.22451">
        <ele>1667</ele>
        <time>2014-03-02T08:28:49.000Z</time>
      </trkpt>
      <trkpt lat="45.32435" lon="6.22451">
        <ele>1667.1999511719</ele>
        <time>2014-03-02T08:28:50.000Z</time>
      </trkpt>
      <trkpt lat="45.32435" lon="6.2245">
        <ele>1667.4000244141</ele>
        <time>2014-03-02T08:28:51.000Z</time>
      </trkpt>
      <trkpt lat="45.32436" lon="6.2245">
        <ele>1667.4000244141</ele>
        <time>2014-03-02T08:28:52.000Z</time>
      </trkpt>
      <trkpt lat="45.32437" lon="6.2245">
        <ele>1667.5999755859</ele>
        <time>2014-03-02T08:28:53.000Z</time>
      </trkpt>
      <trkpt lat="45.32437" lon="6.22449">
        <ele>1667.5999755859</ele>
        <time>2014-03-02T08:28:54.000Z</time>
      </trkpt>
      <trkpt lat="45.32438" lon="6.22449">
        <ele>1667.5999755859</ele>
        <time>2014-03-02T08:28:55.000Z</time>
      </trkpt>
      <trkpt lat="45.32439" lon="6.22449">
        <ele>1667.8000488281</ele>
        <time>2014-03-02T08:28:56.000Z</time>
      </trkpt>
      <trkpt lat="45.3244" lon="6.22449">
        <ele>1667.8000488281</ele>
        <time>2014-03-02T08:28:57.000Z</time>
      </trkpt>
      <trkpt lat="45.32441" lon="6.22449">
        <ele>1667.8000488281</ele>
        <time>2014-03-02T08:28:58.000Z</time>
      </trkpt>
      <trkpt lat="45.32442" lon="6.22449">
        <ele>1668</ele>
        <time>2014-03-02T08:28:59.000Z</time>
      </trkpt>
      <trkpt lat="45.32443" lon="6.22448">
        <ele>1668</ele>
        <time>2014-03-02T08:29:00.000Z</time>
      </trkpt>
      <trkpt lat="45.32444" lon="6.22448">
        <ele>1668.1999511719</ele>
        <time>2014-03-02T08:29:01.000Z</time>
      </trkpt>
      <trkpt lat="45.32445" lon="6.22447">
        <ele>1668.4000244141</ele>
        <time>2014-03-02T08:29:02.000Z</time>
      </trkpt>
      <trkpt lat="45.32446" lon="6.22447">
        <ele>1668.8000488281</ele>
        <time>2014-03-02T08:29:03.000Z</time>
      </trkpt>
      <trkpt lat="45.32447" lon="6.22446">
        <ele>1669.1999511719</ele>
        <time>2014-03-02T08:29:04.000Z</time>
      </trkpt>
      <trkpt lat="45.32448" lon="6.22444">
        <ele>1669.5999755859</ele>
        <time>2014-03-02T08:29:05.000Z</time>
      </trkpt>
      <trkpt lat="45.32448" lon="6.22444">
        <ele>1670</ele>
        <time>2014-03-02T08:29:06.000Z</time>
      </trkpt>
      <trkpt lat="45.32449" lon="6.22442">
        <ele>1670.5999755859</ele>
        <time>2014-03-02T08:29:07.000Z</time>
      </trkpt>
      <trkpt lat="45.32448" lon="6.22441">
        <ele>1671</ele>
        <time>2014-03-02T08:29:08.000Z</time>
      </trkpt>
      <trkpt lat="45.32448" lon="6.2244">
        <ele>1671.4000244141</ele>
        <time>2014-03-02T08:29:09.000Z</time>
      </trkpt>
      <trkpt lat="45.32448" lon="6.22438">
        <ele>1672</ele>
        <time>2014-03-02T08:29:10.000Z</time>
      </trkpt>
      <trkpt lat="45.32447" lon="6.22437">
        <ele>1672.5999755859</ele>
        <time>2014-03-02T08:29:11.000Z</time>
      </trkpt>
      <trkpt lat="45.32447" lon="6.22436">
        <ele>1673.1999511719</ele>
        <time>2014-03-02T08:29:12.000Z</time>
      </trkpt>
      <trkpt lat="45.32446" lon="6.22435">
        <ele>1673.5999755859</ele>
        <time>2014-03-02T08:29:13.000Z</time>
      </trkpt>
      <trkpt lat="45.32444" lon="6.22434">
        <ele>1674</ele>
        <time>2014-03-02T08:29:14.000Z</time>
      </trkpt>
      <trkpt lat="45.32443" lon="6.22433">
        <ele>1674.4000244141</ele>
        <time>2014-03-02T08:29:15.000Z</time>
      </trkpt>
      <trkpt lat="45.32442" lon="6.22432">
        <ele>1674.5999755859</ele>
        <time>2014-03-02T08:29:16.000Z</time>
      </trkpt>
      <trkpt lat="45.32441" lon="6.22431">
        <ele>1674.8000488281</ele>
        <time>2014-03-02T08:29:17.000Z</time>
      </trkpt>
      <trkpt lat="45.32439" lon="6.22431">
        <ele>1675.1999511719</ele>
        <time>2014-03-02T08:29:18.000Z</time>
      </trkpt>
      <trkpt lat="45.32439" lon="6.22431">
        <ele>1675</ele>
        <time>2014-03-02T08:29:19.000Z</time>
      </trkpt>
      <trkpt lat="45.32437" lon="6.2243">
        <ele>1675.1999511719</ele>
        <time>2014-03-02T08:29:20.000Z</time>
      </trkpt>
      <trkpt lat="45.32436" lon="6.2243">
        <ele>1675.4000244141</ele>
        <time>2014-03-02T08:29:21.000Z</time>
      </trkpt>
      <trkpt lat="45.32435" lon="6.2243">
        <ele>1675.4000244141</ele>
        <time>2014-03-02T08:29:22.000Z</time>
      </trkpt>
      <trkpt lat="45.32433" lon="6.22429">
        <ele>1675.5999755859</ele>
        <time>2014-03-02T08:29:23.000Z</time>
      </trkpt>
      <trkpt lat="45.32432" lon="6.2243">
        <ele>1675.4000244141</ele>
        <time>2014-03-02T08:29:24.000Z</time>
      </trkpt>
      <trkpt lat="45.32431" lon="6.2243">
        <ele>1675.1999511719</ele>
        <time>2014-03-02T08:29:25.000Z</time>
      </trkpt>
      <trkpt lat="45.3243" lon="6.2243">
        <ele>1675.1999511719</ele>
        <time>2014-03-02T08:29:26.000Z</time>
      </trkpt>
      <trkpt lat="45.32429" lon="6.22431">
        <ele>1675</ele>
        <time>2014-03-02T08:29:27.000Z</time>
      </trkpt>
      <trkpt lat="45.32428" lon="6.22431">
        <ele>1674.8000488281</ele>
        <time>2014-03-02T08:29:28.000Z</time>
      </trkpt>
      <trkpt lat="45.32427" lon="6.22432">
        <ele>1674.5999755859</ele>
        <time>2014-03-02T08:29:29.000Z</time>
      </trkpt>
      <trkpt lat="45.32425" lon="6.22432">
        <ele>1674.4000244141</ele>
        <time>2014-03-02T08:29:30.000Z</time>
      </trkpt>
      <trkpt lat="45.32424" lon="6.22433">
        <ele>1674.1999511719</ele>
        <time>2014-03-02T08:29:31.000Z</time>
      </trkpt>
      <trkpt lat="45.32423" lon="6.22433">
        <ele>1674</ele>
        <time>2014-03-02T08:29:32.000Z</time>
      </trkpt>
      <trkpt lat="45.32421" lon="6.22434">
        <ele>1673.8000488281</ele>
        <time>2014-03-02T08:29:33.000Z</time>
      </trkpt>
      <trkpt lat="45.3242" lon="6.22434">
        <ele>1673.8000488281</ele>
        <time>2014-03-02T08:29:34.000Z</time>
      </trkpt>
      <trkpt lat="45.32419" lon="6.22434">
        <ele>1673.5999755859</ele>
        <time>2014-03-02T08:29:35.000Z</time>
      </trkpt>
      <trkpt lat="45.32418" lon="6.22435">
        <ele>1673.5999755859</ele>
        <time>2014-03-02T08:29:36.000Z</time>
      </trkpt>
      <trkpt lat="45.32417" lon="6.22435">
        <ele>1673.5999755859</ele>
        <time>2014-03-02T08:29:37.000Z</time>
      </trkpt>
      <trkpt lat="45.32416" lon="6.22435">
        <ele>1673.5999755859</ele>
        <time>2014-03-02T08:29:38.000Z</time>
      </trkpt>
      <trkpt lat="45.32415" lon="6.22435">
        <ele>1673.8000488281</ele>
        <time>2014-03-02T08:29:39.000Z</time>
      </trkpt>
      <trkpt lat="45.32413" lon="6.22434">
        <ele>1674.1999511719</ele>
        <time>2014-03-02T08:29:40.000Z</time>
      </trkpt>
      <trkpt lat="45.32413" lon="6.22434">
        <ele>1674.1999511719</ele>
        <time>2014-03-02T08:29:41.000Z</time>
      </trkpt>
      <trkpt lat="45.32411" lon="6.22434">
        <ele>1674.4000244141</ele>
        <time>2014-03-02T08:29:42.000Z</time>
      </trkpt>
      <trkpt lat="45.32411" lon="6.22434">
        <ele>1674.4000244141</ele>
        <time>2014-03-02T08:29:43.000Z</time>
      </trkpt>
      <trkpt lat="45.32411" lon="6.22434">
        <ele>1674.4000244141</ele>
        <time>2014-03-02T08:29:44.000Z</time>
      </trkpt>
      <trkpt lat="45.3241" lon="6.22433">
        <ele>1674.8000488281</ele>
        <time>2014-03-02T08:29:45.000Z</time>
      </trkpt>
      <trkpt lat="45.3241" lon="6.22432">
        <ele>1675</ele>
        <time>2014-03-02T08:29:46.000Z</time>
      </trkpt>
      <trkpt lat="45.3241" lon="6.22431">
        <ele>1675.4000244141</ele>
        <time>2014-03-02T08:29:47.000Z</time>
      </trkpt>
      <trkpt lat="45.32409" lon="6.2243">
        <ele>1675.8000488281</ele>
        <time>2014-03-02T08:29:48.000Z</time>
      </trkpt>
      <trkpt lat="45.32409" lon="6.22428">
        <ele>1676.4000244141</ele>
        <time>2014-03-02T08:29:49.000Z</time>
      </trkpt>
      <trkpt lat="45.32409" lon="6.22428">
        <ele>1676.4000244141</ele>
        <time>2014-03-02T08:29:50.000Z</time>
      </trkpt>
      <trkpt lat="45.32409" lon="6.22427">
        <ele>1676.5999755859</ele>
        <time>2014-03-02T08:29:51.000Z</time>
      </trkpt>
      <trkpt lat="45.32409" lon="6.22426">
        <ele>1677</ele>
        <time>2014-03-02T08:29:52.000Z</time>
      </trkpt>
      <trkpt lat="45.32409" lon="6.22426">
        <ele>1677.1999511719</ele>
        <time>2014-03-02T08:29:53.000Z</time>
      </trkpt>
      <trkpt lat="45.32409" lon="6.22426">
        <ele>1677.1999511719</ele>
        <time>2014-03-02T08:29:54.000Z</time>
      </trkpt>
      <trkpt lat="45.3241" lon="6.22425">
        <ele>1677.1999511719</ele>
        <time>2014-03-02T08:29:55.000Z</time>
      </trkpt>
      <trkpt lat="45.32411" lon="6.22425">
        <ele>1677.4000244141</ele>
        <time>2014-03-02T08:29:56.000Z</time>
      </trkpt>
      <trkpt lat="45.32412" lon="6.22425">
        <ele>1677.4000244141</ele>
        <time>2014-03-02T08:29:57.000Z</time>
      </trkpt>
      <trkpt lat="45.32413" lon="6.22424">
        <ele>1677.5999755859</ele>
        <time>2014-03-02T08:29:58.000Z</time>
      </trkpt>
      <trkpt lat="45.32414" lon="6.22424">
        <ele>1677.8000488281</ele>
        <time>2014-03-02T08:29:59.000Z</time>
      </trkpt>
      <trkpt lat="45.32415" lon="6.22424">
        <ele>1677.8000488281</ele>
        <time>2014-03-02T08:30:00.000Z</time>
      </trkpt>
      <trkpt lat="45.32416" lon="6.22423">
        <ele>1678</ele>
        <time>2014-03-02T08:30:01.000Z</time>
      </trkpt>
      <trkpt lat="45.32418" lon="6.22423">
        <ele>1678.1999511719</ele>
        <time>2014-03-02T08:30:02.000Z</time>
      </trkpt>
      <trkpt lat="45.32419" lon="6.22422">
        <ele>1678.4000244141</ele>
        <time>2014-03-02T08:30:03.000Z</time>
      </trkpt>
      <trkpt lat="45.3242" lon="6.22422">
        <ele>1678.5999755859</ele>
        <time>2014-03-02T08:30:04.000Z</time>
      </trkpt>
      <trkpt lat="45.32421" lon="6.22421">
        <ele>1678.8000488281</ele>
        <time>2014-03-02T08:30:05.000Z</time>
      </trkpt>
      <trkpt lat="45.32422" lon="6.22421">
        <ele>1679</ele>
        <time>2014-03-02T08:30:06.000Z</time>
      </trkpt>
      <trkpt lat="45.32423" lon="6.2242">
        <ele>1679.1999511719</ele>
        <time>2014-03-02T08:30:07.000Z</time>
      </trkpt>
      <trkpt lat="45.32424" lon="6.22419">
        <ele>1679.5999755859</ele>
        <time>2014-03-02T08:30:08.000Z</time>
      </trkpt>
      <trkpt lat="45.32425" lon="6.22418">
        <ele>1680</ele>
        <time>2014-03-02T08:30:09.000Z</time>
      </trkpt>
      <trkpt lat="45.32426" lon="6.22417">
        <ele>1680.4000244141</ele>
        <time>2014-03-02T08:30:10.000Z</time>
      </trkpt>
      <trkpt lat="45.32427" lon="6.22416">
        <ele>1680.8000488281</ele>
        <time>2014-03-02T08:30:11.000Z</time>
      </trkpt>
      <trkpt lat="45.32428" lon="6.22415">
        <ele>1681.1999511719</ele>
        <time>2014-03-02T08:30:12.000Z</time>
      </trkpt>
      <trkpt lat="45.32428" lon="6.22414">
        <ele>1681.5999755859</ele>
        <time>2014-03-02T08:30:13.000Z</time>
      </trkpt>
      <trkpt lat="45.32429" lon="6.22414">
        <ele>1681.8000488281</ele>
        <time>2014-03-02T08:30:14.000Z</time>
      </trkpt>
      <trkpt lat="45.3243" lon="6.22413">
        <ele>1682.1999511719</ele>
        <time>2014-03-02T08:30:15.000Z</time>
      </trkpt>
      <trkpt lat="45.32431" lon="6.22412">
        <ele>1682.5999755859</ele>
        <time>2014-03-02T08:30:16.000Z</time>
      </trkpt>
      <trkpt lat="45.32432" lon="6.22411">
        <ele>1683</ele>
        <time>2014-03-02T08:30:17.000Z</time>
      </trkpt>
      <trkpt lat="45.32433" lon="6.2241">
        <ele>1683.1999511719</ele>
        <time>2014-03-02T08:30:18.000Z</time>
      </trkpt>
      <trkpt lat="45.32434" lon="6.22409">
        <ele>1683.5999755859</ele>
        <time>2014-03-02T08:30:19.000Z</time>
      </trkpt>
      <trkpt lat="45.32435" lon="6.22408">
        <ele>1684</ele>
        <time>2014-03-02T08:30:20.000Z</time>
      </trkpt>
      <trkpt lat="45.32436" lon="6.22407">
        <ele>1684.4000244141</ele>
        <time>2014-03-02T08:30:21.000Z</time>
      </trkpt>
      <trkpt lat="45.32438" lon="6.22406">
        <ele>1684.8000488281</ele>
        <time>2014-03-02T08:30:22.000Z</time>
      </trkpt>
      <trkpt lat="45.32439" lon="6.22405">
        <ele>1685.1999511719</ele>
        <time>2014-03-02T08:30:23.000Z</time>
      </trkpt>
      <trkpt lat="45.3244" lon="6.22404">
        <ele>1685.4000244141</ele>
        <time>2014-03-02T08:30:24.000Z</time>
      </trkpt>
      <trkpt lat="45.32441" lon="6.22403">
        <ele>1685.8000488281</ele>
        <time>2014-03-02T08:30:25.000Z</time>
      </trkpt>
      <trkpt lat="45.32442" lon="6.22402">
        <ele>1686.1999511719</ele>
        <time>2014-03-02T08:30:26.000Z</time>
      </trkpt>
      <trkpt lat="45.32443" lon="6.22402">
        <ele>1686.5999755859</ele>
        <time>2014-03-02T08:30:27.000Z</time>
      </trkpt>
      <trkpt lat="45.32444" lon="6.22401">
        <ele>1687</ele>
        <time>2014-03-02T08:30:28.000Z</time>
      </trkpt>
      <trkpt lat="45.32445" lon="6.224">
        <ele>1687.1999511719</ele>
        <time>2014-03-02T08:30:29.000Z</time>
      </trkpt>
      <trkpt lat="45.32446" lon="6.22399">
        <ele>1687.5999755859</ele>
        <time>2014-03-02T08:30:30.000Z</time>
      </trkpt>
      <trkpt lat="45.32446" lon="6.22399">
        <ele>1687.8000488281</ele>
        <time>2014-03-02T08:30:31.000Z</time>
      </trkpt>
      <trkpt lat="45.32447" lon="6.22398">
        <ele>1688</ele>
        <time>2014-03-02T08:30:32.000Z</time>
      </trkpt>
      <trkpt lat="45.32447" lon="6.22396">
        <ele>1688.5999755859</ele>
        <time>2014-03-02T08:30:33.000Z</time>
      </trkpt>
      <trkpt lat="45.32447" lon="6.22395">
        <ele>1689.1999511719</ele>
        <time>2014-03-02T08:30:34.000Z</time>
      </trkpt>
      <trkpt lat="45.32447" lon="6.22394">
        <ele>1689.4000244141</ele>
        <time>2014-03-02T08:30:35.000Z</time>
      </trkpt>
      <trkpt lat="45.32446" lon="6.22394">
        <ele>1689.5999755859</ele>
        <time>2014-03-02T08:30:36.000Z</time>
      </trkpt>
      <trkpt lat="45.32446" lon="6.22394">
        <ele>1689.5999755859</ele>
        <time>2014-03-02T08:30:37.000Z</time>
      </trkpt>
      <trkpt lat="45.32445" lon="6.22393">
        <ele>1689.8000488281</ele>
        <time>2014-03-02T08:30:38.000Z</time>
      </trkpt>
      <trkpt lat="45.32443" lon="6.22393">
        <ele>1689.8000488281</ele>
        <time>2014-03-02T08:30:39.000Z</time>
      </trkpt>
      <trkpt lat="45.32443" lon="6.22393">
        <ele>1689.8000488281</ele>
        <time>2014-03-02T08:30:40.000Z</time>
      </trkpt>
      <trkpt lat="45.32441" lon="6.22393">
        <ele>1690</ele>
        <time>2014-03-02T08:30:41.000Z</time>
      </trkpt>
      <trkpt lat="45.3244" lon="6.22393">
        <ele>1690</ele>
        <time>2014-03-02T08:30:42.000Z</time>
      </trkpt>
      <trkpt lat="45.32439" lon="6.22392">
        <ele>1690.1999511719</ele>
        <time>2014-03-02T08:30:43.000Z</time>
      </trkpt>
      <trkpt lat="45.32438" lon="6.22392">
        <ele>1690.1999511719</ele>
        <time>2014-03-02T08:30:44.000Z</time>
      </trkpt>
      <trkpt lat="45.32437" lon="6.22393">
        <ele>1690</ele>
        <time>2014-03-02T08:30:45.000Z</time>
      </trkpt>
      <trkpt lat="45.32436" lon="6.22393">
        <ele>1690</ele>
        <time>2014-03-02T08:30:46.000Z</time>
      </trkpt>
      <trkpt lat="45.32434" lon="6.22393">
        <ele>1689.8000488281</ele>
        <time>2014-03-02T08:30:47.000Z</time>
      </trkpt>
      <trkpt lat="45.32433" lon="6.22394">
        <ele>1689.5999755859</ele>
        <time>2014-03-02T08:30:48.000Z</time>
      </trkpt>
      <trkpt lat="45.32432" lon="6.22394">
        <ele>1689.8000488281</ele>
        <time>2014-03-02T08:30:49.000Z</time>
      </trkpt>
      <trkpt lat="45.32431" lon="6.22394">
        <ele>1689.5999755859</ele>
        <time>2014-03-02T08:30:50.000Z</time>
      </trkpt>
      <trkpt lat="45.3243" lon="6.22394">
        <ele>1689.5999755859</ele>
        <time>2014-03-02T08:30:51.000Z</time>
      </trkpt>
      <trkpt lat="45.32429" lon="6.22394">
        <ele>1689.5999755859</ele>
        <time>2014-03-02T08:30:52.000Z</time>
      </trkpt>
      <trkpt lat="45.32428" lon="6.22394">
        <ele>1689.5999755859</ele>
        <time>2014-03-02T08:30:53.000Z</time>
      </trkpt>
      <trkpt lat="45.32427" lon="6.22394">
        <ele>1689.4000244141</ele>
        <time>2014-03-02T08:30:54.000Z</time>
      </trkpt>
      <trkpt lat="45.32426" lon="6.22395">
        <ele>1689.1999511719</ele>
        <time>2014-03-02T08:30:55.000Z</time>
      </trkpt>
      <trkpt lat="45.32425" lon="6.22395">
        <ele>1689.1999511719</ele>
        <time>2014-03-02T08:30:56.000Z</time>
      </trkpt>
      <trkpt lat="45.32423" lon="6.22395">
        <ele>1689.1999511719</ele>
        <time>2014-03-02T08:30:57.000Z</time>
      </trkpt>
      <trkpt lat="45.32423" lon="6.22395">
        <ele>1689.4000244141</ele>
        <time>2014-03-02T08:30:58.000Z</time>
      </trkpt>
      <trkpt lat="45.32422" lon="6.22395">
        <ele>1689.4000244141</ele>
        <time>2014-03-02T08:30:59.000Z</time>
      </trkpt>
      <trkpt lat="45.32421" lon="6.22395">
        <ele>1689.1999511719</ele>
        <time>2014-03-02T08:31:00.000Z</time>
      </trkpt>
      <trkpt lat="45.3242" lon="6.22395">
        <ele>1689.1999511719</ele>
        <time>2014-03-02T08:31:01.000Z</time>
      </trkpt>
      <trkpt lat="45.32419" lon="6.22395">
        <ele>1689.4000244141</ele>
        <time>2014-03-02T08:31:02.000Z</time>
      </trkpt>
      <trkpt lat="45.32418" lon="6.22395">
        <ele>1689.1999511719</ele>
        <time>2014-03-02T08:31:03.000Z</time>
      </trkpt>
      <trkpt lat="45.32417" lon="6.22395">
        <ele>1689.1999511719</ele>
        <time>2014-03-02T08:31:04.000Z</time>
      </trkpt>
      <trkpt lat="45.32416" lon="6.22395">
        <ele>1689.1999511719</ele>
        <time>2014-03-02T08:31:05.000Z</time>
      </trkpt>
      <trkpt lat="45.32414" lon="6.22395">
        <ele>1689.1999511719</ele>
        <time>2014-03-02T08:31:06.000Z</time>
      </trkpt>
      <trkpt lat="45.32414" lon="6.22395">
        <ele>1689.1999511719</ele>
        <time>2014-03-02T08:31:07.000Z</time>
      </trkpt>
      <trkpt lat="45.32413" lon="6.22395">
        <ele>1689.1999511719</ele>
        <time>2014-03-02T08:31:08.000Z</time>
      </trkpt>
      <trkpt lat="45.32411" lon="6.22395">
        <ele>1689.4000244141</ele>
        <time>2014-03-02T08:31:09.000Z</time>
      </trkpt>
      <trkpt lat="45.32411" lon="6.22394">
        <ele>1689.4000244141</ele>
        <time>2014-03-02T08:31:10.000Z</time>
      </trkpt>
      <trkpt lat="45.3241" lon="6.22394">
        <ele>1689.5999755859</ele>
        <time>2014-03-02T08:31:11.000Z</time>
      </trkpt>
      <trkpt lat="45.32409" lon="6.22393">
        <ele>1689.8000488281</ele>
        <time>2014-03-02T08:31:12.000Z</time>
      </trkpt>
      <trkpt lat="45.32409" lon="6.22392">
        <ele>1690.1999511719</ele>
        <time>2014-03-02T08:31:13.000Z</time>
      </trkpt>
      <trkpt lat="45.32409" lon="6.22391">
        <ele>1690.8000488281</ele>
        <time>2014-03-02T08:31:14.000Z</time>
      </trkpt>
      <trkpt lat="45.32408" lon="6.2239">
        <ele>1691</ele>
        <time>2014-03-02T08:31:15.000Z</time>
      </trkpt>
      <trkpt lat="45.32408" lon="6.22389">
        <ele>1691.4000244141</ele>
        <time>2014-03-02T08:31:16.000Z</time>
      </trkpt>
      <trkpt lat="45.32408" lon="6.22388">
        <ele>1691.5999755859</ele>
        <time>2014-03-02T08:31:17.000Z</time>
      </trkpt>
      <trkpt lat="45.32409" lon="6.22388">
        <ele>1691.8000488281</ele>
        <time>2014-03-02T08:31:18.000Z</time>
      </trkpt>
      <trkpt lat="45.32409" lon="6.22387">
        <ele>1692</ele>
        <time>2014-03-02T08:31:19.000Z</time>
      </trkpt>
      <trkpt lat="45.32409" lon="6.22386">
        <ele>1692.1999511719</ele>
        <time>2014-03-02T08:31:20.000Z</time>
      </trkpt>
      <trkpt lat="45.3241" lon="6.22386">
        <ele>1692.4000244141</ele>
        <time>2014-03-02T08:31:21.000Z</time>
      </trkpt>
      <trkpt lat="45.3241" lon="6.22386">
        <ele>1692.4000244141</ele>
        <time>2014-03-02T08:31:22.000Z</time>
      </trkpt>
      <trkpt lat="45.32411" lon="6.22385">
        <ele>1692.5999755859</ele>
        <time>2014-03-02T08:31:23.000Z</time>
      </trkpt>
      <trkpt lat="45.32412" lon="6.22385">
        <ele>1692.8000488281</ele>
        <time>2014-03-02T08:31:24.000Z</time>
      </trkpt>
      <trkpt lat="45.32413" lon="6.22384">
        <ele>1693</ele>
        <time>2014-03-02T08:31:25.000Z</time>
      </trkpt>
      <trkpt lat="45.32414" lon="6.22384">
        <ele>1693.1999511719</ele>
        <time>2014-03-02T08:31:26.000Z</time>
      </trkpt>
      <trkpt lat="45.32415" lon="6.22384">
        <ele>1693.1999511719</ele>
        <time>2014-03-02T08:31:27.000Z</time>
      </trkpt>
      <trkpt lat="45.32417" lon="6.22383">
        <ele>1693.4000244141</ele>
        <time>2014-03-02T08:31:28.000Z</time>
      </trkpt>
      <trkpt lat="45.32418" lon="6.22383">
        <ele>1693.5999755859</ele>
        <time>2014-03-02T08:31:29.000Z</time>
      </trkpt>
      <trkpt lat="45.32419" lon="6.22382">
        <ele>1693.8000488281</ele>
        <time>2014-03-02T08:31:30.000Z</time>
      </trkpt>
      <trkpt lat="45.3242" lon="6.22382">
        <ele>1694</ele>
        <time>2014-03-02T08:31:31.000Z</time>
      </trkpt>
      <trkpt lat="45.32421" lon="6.22381">
        <ele>1694</ele>
        <time>2014-03-02T08:31:32.000Z</time>
      </trkpt>
      <trkpt lat="45.32422" lon="6.22381">
        <ele>1694</ele>
        <time>2014-03-02T08:31:33.000Z</time>
      </trkpt>
      <trkpt lat="45.32423" lon="6.2238">
        <ele>1694.4000244141</ele>
        <time>2014-03-02T08:31:34.000Z</time>
      </trkpt>
      <trkpt lat="45.32423" lon="6.2238">
        <ele>1694.5999755859</ele>
        <time>2014-03-02T08:31:35.000Z</time>
      </trkpt>
      <trkpt lat="45.32424" lon="6.22379">
        <ele>1695</ele>
        <time>2014-03-02T08:31:36.000Z</time>
      </trkpt>
      <trkpt lat="45.32424" lon="6.22377">
        <ele>1695.8000488281</ele>
        <time>2014-03-02T08:31:38.000Z</time>
      </trkpt>
      <trkpt lat="45.32425" lon="6.22376">
        <ele>1696</ele>
        <time>2014-03-02T08:31:39.000Z</time>
      </trkpt>
      <trkpt lat="45.32425" lon="6.22375">
        <ele>1696.4000244141</ele>
        <time>2014-03-02T08:31:40.000Z</time>
      </trkpt>
      <trkpt lat="45.32425" lon="6.22374">
        <ele>1696.8000488281</ele>
        <time>2014-03-02T08:31:41.000Z</time>
      </trkpt>
      <trkpt lat="45.32426" lon="6.22372">
        <ele>1697.4000244141</ele>
        <time>2014-03-02T08:31:42.000Z</time>
      </trkpt>
      <trkpt lat="45.32427" lon="6.22371">
        <ele>1697.8000488281</ele>
        <time>2014-03-02T08:31:43.000Z</time>
      </trkpt>
      <trkpt lat="45.32428" lon="6.2237">
        <ele>1698</ele>
        <time>2014-03-02T08:31:44.000Z</time>
      </trkpt>
      <trkpt lat="45.32429" lon="6.22369">
        <ele>1698.5999755859</ele>
        <time>2014-03-02T08:31:45.000Z</time>
      </trkpt>
      <trkpt lat="45.32429" lon="6.22368">
        <ele>1698.8000488281</ele>
        <time>2014-03-02T08:31:46.000Z</time>
      </trkpt>
      <trkpt lat="45.32429" lon="6.22367">
        <ele>1699</ele>
        <time>2014-03-02T08:31:47.000Z</time>
      </trkpt>
      <trkpt lat="45.3243" lon="6.22366">
        <ele>1699.8000488281</ele>
        <time>2014-03-02T08:31:48.000Z</time>
      </trkpt>
      <trkpt lat="45.32431" lon="6.22364">
        <ele>1700.1999511719</ele>
        <time>2014-03-02T08:31:49.000Z</time>
      </trkpt>
      <trkpt lat="45.32431" lon="6.22363">
        <ele>1700.8000488281</ele>
        <time>2014-03-02T08:31:50.000Z</time>
      </trkpt>
      <trkpt lat="45.32432" lon="6.22361">
        <ele>1701.1999511719</ele>
        <time>2014-03-02T08:31:51.000Z</time>
      </trkpt>
      <trkpt lat="45.32433" lon="6.2236">
        <ele>1701.4000244141</ele>
        <time>2014-03-02T08:31:52.000Z</time>
      </trkpt>
      <trkpt lat="45.32433" lon="6.22359">
        <ele>1701.8000488281</ele>
        <time>2014-03-02T08:31:53.000Z</time>
      </trkpt>
      <trkpt lat="45.32434" lon="6.22358">
        <ele>1702.1999511719</ele>
        <time>2014-03-02T08:31:54.000Z</time>
      </trkpt>
      <trkpt lat="45.32435" lon="6.22356">
        <ele>1702.5999755859</ele>
        <time>2014-03-02T08:31:55.000Z</time>
      </trkpt>
      <trkpt lat="45.32436" lon="6.22355">
        <ele>1703</ele>
        <time>2014-03-02T08:31:56.000Z</time>
      </trkpt>
      <trkpt lat="45.32436" lon="6.22354">
        <ele>1703.4000244141</ele>
        <time>2014-03-02T08:31:57.000Z</time>
      </trkpt>
      <trkpt lat="45.32437" lon="6.22353">
        <ele>1703.5999755859</ele>
        <time>2014-03-02T08:31:58.000Z</time>
      </trkpt>
      <trkpt lat="45.32437" lon="6.22352">
        <ele>1704</ele>
        <time>2014-03-02T08:31:59.000Z</time>
      </trkpt>
      <trkpt lat="45.32438" lon="6.22351">
        <ele>1704.1999511719</ele>
        <time>2014-03-02T08:32:00.000Z</time>
      </trkpt>
      <trkpt lat="45.32438" lon="6.2235">
        <ele>1704.4000244141</ele>
        <time>2014-03-02T08:32:01.000Z</time>
      </trkpt>
      <trkpt lat="45.32438" lon="6.22349">
        <ele>1704.8000488281</ele>
        <time>2014-03-02T08:32:02.000Z</time>
      </trkpt>
      <trkpt lat="45.32439" lon="6.22348">
        <ele>1705</ele>
        <time>2014-03-02T08:32:03.000Z</time>
      </trkpt>
      <trkpt lat="45.3244" lon="6.22346">
        <ele>1705.4000244141</ele>
        <time>2014-03-02T08:32:04.000Z</time>
      </trkpt>
      <trkpt lat="45.32441" lon="6.22345">
        <ele>1706</ele>
        <time>2014-03-02T08:32:05.000Z</time>
      </trkpt>
      <trkpt lat="45.32442" lon="6.22343">
        <ele>1706.4000244141</ele>
        <time>2014-03-02T08:32:06.000Z</time>
      </trkpt>
      <trkpt lat="45.32442" lon="6.22342">
        <ele>1706.5999755859</ele>
        <time>2014-03-02T08:32:07.000Z</time>
      </trkpt>
      <trkpt lat="45.32444" lon="6.22341">
        <ele>1707</ele>
        <time>2014-03-02T08:32:08.000Z</time>
      </trkpt>
      <trkpt lat="45.32446" lon="6.22339">
        <ele>1707.4000244141</ele>
        <time>2014-03-02T08:32:09.000Z</time>
      </trkpt>
      <trkpt lat="45.32447" lon="6.22338">
        <ele>1707.5999755859</ele>
        <time>2014-03-02T08:32:10.000Z</time>
      </trkpt>
      <trkpt lat="45.3245" lon="6.22337">
        <ele>1708</ele>
        <time>2014-03-02T08:32:11.000Z</time>
      </trkpt>
      <trkpt lat="45.32452" lon="6.22335">
        <ele>1708.4000244141</ele>
        <time>2014-03-02T08:32:12.000Z</time>
      </trkpt>
      <trkpt lat="45.32454" lon="6.22335">
        <ele>1708.4000244141</ele>
        <time>2014-03-02T08:32:13.000Z</time>
      </trkpt>
      <trkpt lat="45.32455" lon="6.22334">
        <ele>1708.5999755859</ele>
        <time>2014-03-02T08:32:14.000Z</time>
      </trkpt>
      <trkpt lat="45.32457" lon="6.22333">
        <ele>1708.5999755859</ele>
        <time>2014-03-02T08:32:15.000Z</time>
      </trkpt>
      <trkpt lat="45.32458" lon="6.22333">
        <ele>1708.5999755859</ele>
        <time>2014-03-02T08:32:16.000Z</time>
      </trkpt>
      <trkpt lat="45.3246" lon="6.22333">
        <ele>1708.8000488281</ele>
        <time>2014-03-02T08:32:17.000Z</time>
      </trkpt>
      <trkpt lat="45.32461" lon="6.22332">
        <ele>1708.8000488281</ele>
        <time>2014-03-02T08:32:18.000Z</time>
      </trkpt>
      <trkpt lat="45.32462" lon="6.22332">
        <ele>1709</ele>
        <time>2014-03-02T08:32:19.000Z</time>
      </trkpt>
      <trkpt lat="45.32463" lon="6.22331">
        <ele>1709.1999511719</ele>
        <time>2014-03-02T08:32:20.000Z</time>
      </trkpt>
      <trkpt lat="45.32464" lon="6.2233">
        <ele>1709.4000244141</ele>
        <time>2014-03-02T08:32:21.000Z</time>
      </trkpt>
      <trkpt lat="45.32465" lon="6.2233">
        <ele>1710.1999511719</ele>
        <time>2014-03-02T08:32:22.000Z</time>
      </trkpt>
      <trkpt lat="45.32466" lon="6.2233">
        <ele>1710.8000488281</ele>
        <time>2014-03-02T08:32:23.000Z</time>
      </trkpt>
      <trkpt lat="45.32468" lon="6.2233">
        <ele>1711.4000244141</ele>
        <time>2014-03-02T08:32:24.000Z</time>
      </trkpt>
      <trkpt lat="45.32469" lon="6.2233">
        <ele>1712</ele>
        <time>2014-03-02T08:32:25.000Z</time>
      </trkpt>
      <trkpt lat="45.3247" lon="6.22329">
        <ele>1712.8000488281</ele>
        <time>2014-03-02T08:32:26.000Z</time>
      </trkpt>
      <trkpt lat="45.32472" lon="6.22328">
        <ele>1713.8000488281</ele>
        <time>2014-03-02T08:32:28.000Z</time>
      </trkpt>
      <trkpt lat="45.32472" lon="6.22328">
        <ele>1714</ele>
        <time>2014-03-02T08:32:29.000Z</time>
      </trkpt>
      <trkpt lat="45.32472" lon="6.22327">
        <ele>1714.5999755859</ele>
        <time>2014-03-02T08:32:30.000Z</time>
      </trkpt>
      <trkpt lat="45.32473" lon="6.22327">
        <ele>1715.1999511719</ele>
        <time>2014-03-02T08:32:31.000Z</time>
      </trkpt>
      <trkpt lat="45.32474" lon="6.22327">
        <ele>1715.8000488281</ele>
        <time>2014-03-02T08:32:32.000Z</time>
      </trkpt>
      <trkpt lat="45.32475" lon="6.22326">
        <ele>1716.4000244141</ele>
        <time>2014-03-02T08:32:33.000Z</time>
      </trkpt>
      <trkpt lat="45.32476" lon="6.22326">
        <ele>1717</ele>
        <time>2014-03-02T08:32:34.000Z</time>
      </trkpt>
      <trkpt lat="45.32478" lon="6.22326">
        <ele>1717.5999755859</ele>
        <time>2014-03-02T08:32:35.000Z</time>
      </trkpt>
      <trkpt lat="45.32479" lon="6.22326">
        <ele>1718.5999755859</ele>
        <time>2014-03-02T08:32:36.000Z</time>
      </trkpt>
      <trkpt lat="45.3248" lon="6.22325">
        <ele>1719.4000244141</ele>
        <time>2014-03-02T08:32:37.000Z</time>
      </trkpt>
      <trkpt lat="45.32481" lon="6.22325">
        <ele>1720.1999511719</ele>
        <time>2014-03-02T08:32:38.000Z</time>
      </trkpt>
      <trkpt lat="45.32482" lon="6.22324">
        <ele>1721.1999511719</ele>
        <time>2014-03-02T08:32:39.000Z</time>
      </trkpt>
      <trkpt lat="45.32483" lon="6.22323">
        <ele>1722</ele>
        <time>2014-03-02T08:32:40.000Z</time>
      </trkpt>
      <trkpt lat="45.32484" lon="6.22322">
        <ele>1723.1999511719</ele>
        <time>2014-03-02T08:32:41.000Z</time>
      </trkpt>
      <trkpt lat="45.32485" lon="6.22321">
        <ele>1724.1999511719</ele>
        <time>2014-03-02T08:32:42.000Z</time>
      </trkpt>
      <trkpt lat="45.32486" lon="6.2232">
        <ele>1725</ele>
        <time>2014-03-02T08:32:43.000Z</time>
      </trkpt>
      <trkpt lat="45.32487" lon="6.22319">
        <ele>1726</ele>
        <time>2014-03-02T08:32:44.000Z</time>
      </trkpt>
      <trkpt lat="45.32488" lon="6.22318">
        <ele>1726.8000488281</ele>
        <time>2014-03-02T08:32:45.000Z</time>
      </trkpt>
      <trkpt lat="45.32488" lon="6.22317">
        <ele>1727.4000244141</ele>
        <time>2014-03-02T08:32:46.000Z</time>
      </trkpt>
      <trkpt lat="45.32488" lon="6.22315">
        <ele>1728.4000244141</ele>
        <time>2014-03-02T08:32:47.000Z</time>
      </trkpt>
      <trkpt lat="45.32488" lon="6.22314">
        <ele>1729</ele>
        <time>2014-03-02T08:32:48.000Z</time>
      </trkpt>
      <trkpt lat="45.32488" lon="6.22313">
        <ele>1729.1999511719</ele>
        <time>2014-03-02T08:32:49.000Z</time>
      </trkpt>
      <trkpt lat="45.32488" lon="6.22311">
        <ele>1729.4000244141</ele>
        <time>2014-03-02T08:32:50.000Z</time>
      </trkpt>
      <trkpt lat="45.32487" lon="6.22311">
        <ele>1729.4000244141</ele>
        <time>2014-03-02T08:32:51.000Z</time>
      </trkpt>
      <trkpt lat="45.32487" lon="6.22309">
        <ele>1729.1999511719</ele>
        <time>2014-03-02T08:32:52.000Z</time>
      </trkpt>
      <trkpt lat="45.32486" lon="6.22308">
        <ele>1729.1999511719</ele>
        <time>2014-03-02T08:32:53.000Z</time>
      </trkpt>
      <trkpt lat="45.32486" lon="6.22308">
        <ele>1729</ele>
        <time>2014-03-02T08:32:54.000Z</time>
      </trkpt>
      <trkpt lat="45.32485" lon="6.22306">
        <ele>1729</ele>
        <time>2014-03-02T08:32:55.000Z</time>
      </trkpt>
      <trkpt lat="45.32485" lon="6.22306">
        <ele>1729</ele>
        <time>2014-03-02T08:32:56.000Z</time>
      </trkpt>
      <trkpt lat="45.32484" lon="6.22304">
        <ele>1728.8000488281</ele>
        <time>2014-03-02T08:32:57.000Z</time>
      </trkpt>
      <trkpt lat="45.32483" lon="6.22303">
        <ele>1728.5999755859</ele>
        <time>2014-03-02T08:32:58.000Z</time>
      </trkpt>
      <trkpt lat="45.32483" lon="6.22303">
        <ele>1728.5999755859</ele>
        <time>2014-03-02T08:32:59.000Z</time>
      </trkpt>
      <trkpt lat="45.32483" lon="6.22302">
        <ele>1728.4000244141</ele>
        <time>2014-03-02T08:33:00.000Z</time>
      </trkpt>
      <trkpt lat="45.32482" lon="6.22301">
        <ele>1728.4000244141</ele>
        <time>2014-03-02T08:33:01.000Z</time>
      </trkpt>
      <trkpt lat="45.32482" lon="6.223">
        <ele>1728.4000244141</ele>
        <time>2014-03-02T08:33:02.000Z</time>
      </trkpt>
      <trkpt lat="45.32481" lon="6.22299">
        <ele>1728.4000244141</ele>
        <time>2014-03-02T08:33:03.000Z</time>
      </trkpt>
      <trkpt lat="45.32481" lon="6.22299">
        <ele>1728.4000244141</ele>
        <time>2014-03-02T08:33:04.000Z</time>
      </trkpt>
      <trkpt lat="45.32481" lon="6.22299">
        <ele>1728.4000244141</ele>
        <time>2014-03-02T08:33:05.000Z</time>
      </trkpt>
      <trkpt lat="45.32481" lon="6.22299">
        <ele>1728.4000244141</ele>
        <time>2014-03-02T08:33:06.000Z</time>
      </trkpt>
      <trkpt lat="45.32481" lon="6.22299">
        <ele>1728.4000244141</ele>
        <time>2014-03-02T08:33:07.000Z</time>
      </trkpt>
      <trkpt lat="45.32481" lon="6.22299">
        <ele>1728.4000244141</ele>
        <time>2014-03-02T08:33:08.000Z</time>
      </trkpt>
      <trkpt lat="45.32481" lon="6.22299">
        <ele>1728.4000244141</ele>
        <time>2014-03-02T08:33:09.000Z</time>
      </trkpt>
      <trkpt lat="45.32481" lon="6.22299">
        <ele>1728.4000244141</ele>
        <time>2014-03-02T08:33:10.000Z</time>
      </trkpt>
      <trkpt lat="45.32481" lon="6.22299">
        <ele>1728.4000244141</ele>
        <time>2014-03-02T08:33:11.000Z</time>
      </trkpt>
      <trkpt lat="45.32481" lon="6.22299">
        <ele>1728.4000244141</ele>
        <time>2014-03-02T08:33:12.000Z</time>
      </trkpt>
      <trkpt lat="45.32481" lon="6.22299">
        <ele>1728.4000244141</ele>
        <time>2014-03-02T08:33:13.000Z</time>
      </trkpt>
      <trkpt lat="45.32481" lon="6.22299">
        <ele>1728.4000244141</ele>
        <time>2014-03-02T08:33:14.000Z</time>
      </trkpt>
      <trkpt lat="45.32481" lon="6.22299">
        <ele>1728.4000244141</ele>
        <time>2014-03-02T08:33:17.000Z</time>
      </trkpt>
      <trkpt lat="45.32481" lon="6.22299">
        <ele>1728.4000244141</ele>
        <time>2014-03-02T08:33:18.000Z</time>
      </trkpt>
      <trkpt lat="45.32481" lon="6.22299">
        <ele>1728.4000244141</ele>
        <time>2014-03-02T08:33:19.000Z</time>
      </trkpt>
      <trkpt lat="45.32481" lon="6.22299">
        <ele>1728.4000244141</ele>
        <time>2014-03-02T08:33:20.000Z</time>
      </trkpt>
      <trkpt lat="45.32481" lon="6.22299">
        <ele>1728.4000244141</ele>
        <time>2014-03-02T08:33:21.000Z</time>
      </trkpt>
      <trkpt lat="45.32481" lon="6.22299">
        <ele>1728.4000244141</ele>
        <time>2014-03-02T08:33:22.000Z</time>
      </trkpt>
      <trkpt lat="45.32481" lon="6.22299">
        <ele>1728.4000244141</ele>
        <time>2014-03-02T08:33:23.000Z</time>
      </trkpt>
      <trkpt lat="45.32481" lon="6.22299">
        <ele>1728.4000244141</ele>
        <time>2014-03-02T08:33:24.000Z</time>
      </trkpt>
      <trkpt lat="45.32481" lon="6.22299">
        <ele>1728.4000244141</ele>
        <time>2014-03-02T08:33:26.000Z</time>
      </trkpt>
      <trkpt lat="45.32481" lon="6.22299">
        <ele>1728.4000244141</ele>
        <time>2014-03-02T08:33:27.000Z</time>
      </trkpt>
      <trkpt lat="45.32481" lon="6.22299">
        <ele>1728.4000244141</ele>
        <time>2014-03-02T08:33:28.000Z</time>
      </trkpt>
      <trkpt lat="45.32481" lon="6.22299">
        <ele>1728.4000244141</ele>
        <time>2014-03-02T08:33:29.000Z</time>
      </trkpt>
      <trkpt lat="45.32481" lon="6.22299">
        <ele>1728.4000244141</ele>
        <time>2014-03-02T08:33:30.000Z</time>
      </trkpt>
      <trkpt lat="45.32481" lon="6.22299">
        <ele>1728.4000244141</ele>
        <time>2014-03-02T08:33:33.000Z</time>
      </trkpt>
      <trkpt lat="45.32481" lon="6.22299">
        <ele>1728.4000244141</ele>
        <time>2014-03-02T08:33:34.000Z</time>
      </trkpt>
      <trkpt lat="45.32481" lon="6.22299">
        <ele>1728.4000244141</ele>
        <time>2014-03-02T08:33:37.000Z</time>
      </trkpt>
      <trkpt lat="45.32481" lon="6.22299">
        <ele>1728.4000244141</ele>
        <time>2014-03-02T08:33:38.000Z</time>
      </trkpt>
      <trkpt lat="45.32481" lon="6.22299">
        <ele>1728.4000244141</ele>
        <time>2014-03-02T08:33:39.000Z</time>
      </trkpt>
      <trkpt lat="45.32481" lon="6.22299">
        <ele>1728.4000244141</ele>
        <time>2014-03-02T08:33:40.000Z</time>
      </trkpt>
      <trkpt lat="45.32481" lon="6.22299">
        <ele>1728.4000244141</ele>
        <time>2014-03-02T08:33:41.000Z</time>
      </trkpt>
      <trkpt lat="45.32481" lon="6.22299">
        <ele>1728.4000244141</ele>
        <time>2014-03-02T08:33:42.000Z</time>
      </trkpt>
      <trkpt lat="45.32481" lon="6.22299">
        <ele>1728.4000244141</ele>
        <time>2014-03-02T08:33:43.000Z</time>
      </trkpt>
      <trkpt lat="45.32481" lon="6.22299">
        <ele>1728.1999511719</ele>
        <time>2014-03-02T08:33:44.000Z</time>
      </trkpt>
      <trkpt lat="45.32481" lon="6.22299">
        <ele>1728.1999511719</ele>
        <time>2014-03-02T08:33:45.000Z</time>
      </trkpt>
      <trkpt lat="45.32481" lon="6.22299">
        <ele>1728.1999511719</ele>
        <time>2014-03-02T08:33:48.000Z</time>
      </trkpt>
      <trkpt lat="45.32481" lon="6.22299">
        <ele>1728.1999511719</ele>
        <time>2014-03-02T08:33:49.000Z</time>
      </trkpt>
      <trkpt lat="45.32481" lon="6.22299">
        <ele>1728.1999511719</ele>
        <time>2014-03-02T08:33:50.000Z</time>
      </trkpt>
      <trkpt lat="45.32481" lon="6.22299">
        <ele>1728.1999511719</ele>
        <time>2014-03-02T08:33:51.000Z</time>
      </trkpt>
      <trkpt lat="45.32481" lon="6.22299">
        <ele>1728.1999511719</ele>
        <time>2014-03-02T08:33:52.000Z</time>
      </trkpt>
      <trkpt lat="45.32481" lon="6.22299">
        <ele>1728.1999511719</ele>
        <time>2014-03-02T08:33:55.000Z</time>
      </trkpt>
      <trkpt lat="45.32481" lon="6.22299">
        <ele>1728.1999511719</ele>
        <time>2014-03-02T08:33:56.000Z</time>
      </trkpt>
      <trkpt lat="45.32481" lon="6.22299">
        <ele>1728.1999511719</ele>
        <time>2014-03-02T08:33:57.000Z</time>
      </trkpt>
      <trkpt lat="45.32481" lon="6.22299">
        <ele>1728.1999511719</ele>
        <time>2014-03-02T08:33:58.000Z</time>
      </trkpt>
      <trkpt lat="45.32481" lon="6.22299">
        <ele>1728.1999511719</ele>
        <time>2014-03-02T08:34:04.000Z</time>
      </trkpt>
      <trkpt lat="45.32481" lon="6.22299">
        <ele>1728.1999511719</ele>
        <time>2014-03-02T08:34:05.000Z</time>
      </trkpt>
      <trkpt lat="45.32481" lon="6.22299">
        <ele>1728.1999511719</ele>
        <time>2014-03-02T08:34:06.000Z</time>
      </trkpt>
      <trkpt lat="45.32481" lon="6.22299">
        <ele>1728.1999511719</ele>
        <time>2014-03-02T08:34:07.000Z</time>
      </trkpt>
      <trkpt lat="45.32481" lon="6.22299">
        <ele>1728.1999511719</ele>
        <time>2014-03-02T08:34:08.000Z</time>
      </trkpt>
      <trkpt lat="45.32481" lon="6.22299">
        <ele>1728.1999511719</ele>
        <time>2014-03-02T08:34:09.000Z</time>
      </trkpt>
      <trkpt lat="45.32481" lon="6.22299">
        <ele>1728.1999511719</ele>
        <time>2014-03-02T08:34:10.000Z</time>
      </trkpt>
      <trkpt lat="45.32481" lon="6.22299">
        <ele>1728.1999511719</ele>
        <time>2014-03-02T08:34:11.000Z</time>
      </trkpt>
      <trkpt lat="45.32481" lon="6.22299">
        <ele>1728.1999511719</ele>
        <time>2014-03-02T08:34:12.000Z</time>
      </trkpt>
      <trkpt lat="45.32481" lon="6.22299">
        <ele>1728.1999511719</ele>
        <time>2014-03-02T08:34:13.000Z</time>
      </trkpt>
      <trkpt lat="45.32481" lon="6.22299">
        <ele>1728.1999511719</ele>
        <time>2014-03-02T08:34:14.000Z</time>
      </trkpt>
      <trkpt lat="45.32481" lon="6.22299">
        <ele>1728.1999511719</ele>
        <time>2014-03-02T08:34:15.000Z</time>
      </trkpt>
      <trkpt lat="45.32481" lon="6.22299">
        <ele>1728.1999511719</ele>
        <time>2014-03-02T08:34:17.000Z</time>
      </trkpt>
      <trkpt lat="45.32481" lon="6.22299">
        <ele>1728.1999511719</ele>
        <time>2014-03-02T08:34:18.000Z</time>
      </trkpt>
      <trkpt lat="45.32481" lon="6.22299">
        <ele>1728.1999511719</ele>
        <time>2014-03-02T08:34:19.000Z</time>
      </trkpt>
      <trkpt lat="45.32481" lon="6.22299">
        <ele>1728.1999511719</ele>
        <time>2014-03-02T08:34:20.000Z</time>
      </trkpt>
      <trkpt lat="45.32481" lon="6.22299">
        <ele>1728.1999511719</ele>
        <time>2014-03-02T08:34:21.000Z</time>
      </trkpt>
      <trkpt lat="45.32481" lon="6.22299">
        <ele>1728.1999511719</ele>
        <time>2014-03-02T08:34:22.000Z</time>
      </trkpt>
      <trkpt lat="45.32481" lon="6.22299">
        <ele>1728.1999511719</ele>
        <time>2014-03-02T08:34:23.000Z</time>
      </trkpt>
      <trkpt lat="45.32481" lon="6.22299">
        <ele>1728</ele>
        <time>2014-03-02T08:34:24.000Z</time>
      </trkpt>
      <trkpt lat="45.32481" lon="6.22298">
        <ele>1728.1999511719</ele>
        <time>2014-03-02T08:34:25.000Z</time>
      </trkpt>
      <trkpt lat="45.3248" lon="6.22297">
        <ele>1728</ele>
        <time>2014-03-02T08:34:26.000Z</time>
      </trkpt>
      <trkpt lat="45.32479" lon="6.22296">
        <ele>1727.8000488281</ele>
        <time>2014-03-02T08:34:27.000Z</time>
      </trkpt>
      <trkpt lat="45.32478" lon="6.22294">
        <ele>1727.5999755859</ele>
        <time>2014-03-02T08:34:29.000Z</time>
      </trkpt>
      <trkpt lat="45.32478" lon="6.22294">
        <ele>1727.4000244141</ele>
        <time>2014-03-02T08:34:30.000Z</time>
      </trkpt>
      <trkpt lat="45.32478" lon="6.22294">
        <ele>1727.4000244141</ele>
        <time>2014-03-02T08:34:31.000Z</time>
      </trkpt>
      <trkpt lat="45.32478" lon="6.22294">
        <ele>1727.4000244141</ele>
        <time>2014-03-02T08:34:32.000Z</time>
      </trkpt>
      <trkpt lat="45.32478" lon="6.22294">
        <ele>1727.4000244141</ele>
        <time>2014-03-02T08:34:33.000Z</time>
      </trkpt>
      <trkpt lat="45.32478" lon="6.22294">
        <ele>1727.4000244141</ele>
        <time>2014-03-02T08:34:34.000Z</time>
      </trkpt>
      <trkpt lat="45.32478" lon="6.22294">
        <ele>1727.4000244141</ele>
        <time>2014-03-02T08:34:35.000Z</time>
      </trkpt>
      <trkpt lat="45.32478" lon="6.22294">
        <ele>1727.4000244141</ele>
        <time>2014-03-02T08:34:36.000Z</time>
      </trkpt>
      <trkpt lat="45.32478" lon="6.22294">
        <ele>1727.4000244141</ele>
        <time>2014-03-02T08:34:37.000Z</time>
      </trkpt>
      <trkpt lat="45.32478" lon="6.22294">
        <ele>1727.4000244141</ele>
        <time>2014-03-02T08:34:38.000Z</time>
      </trkpt>
      <trkpt lat="45.32478" lon="6.22294">
        <ele>1727.4000244141</ele>
        <time>2014-03-02T08:34:41.000Z</time>
      </trkpt>
      <trkpt lat="45.32478" lon="6.22294">
        <ele>1727.4000244141</ele>
        <time>2014-03-02T08:34:43.000Z</time>
      </trkpt>
      <trkpt lat="45.32478" lon="6.22294">
        <ele>1727.4000244141</ele>
        <time>2014-03-02T08:34:44.000Z</time>
      </trkpt>
      <trkpt lat="45.32478" lon="6.22294">
        <ele>1727.4000244141</ele>
        <time>2014-03-02T08:34:45.000Z</time>
      </trkpt>
      <trkpt lat="45.32478" lon="6.22294">
        <ele>1727.4000244141</ele>
        <time>2014-03-02T08:34:46.000Z</time>
      </trkpt>
      <trkpt lat="45.32478" lon="6.22294">
        <ele>1727.4000244141</ele>
        <time>2014-03-02T08:34:47.000Z</time>
      </trkpt>
      <trkpt lat="45.32478" lon="6.22294">
        <ele>1727.4000244141</ele>
        <time>2014-03-02T08:34:48.000Z</time>
      </trkpt>
      <trkpt lat="45.32478" lon="6.22294">
        <ele>1727.4000244141</ele>
        <time>2014-03-02T08:34:49.000Z</time>
      </trkpt>
      <trkpt lat="45.32478" lon="6.22294">
        <ele>1727.4000244141</ele>
        <time>2014-03-02T08:34:50.000Z</time>
      </trkpt>
      <trkpt lat="45.32478" lon="6.22294">
        <ele>1727.4000244141</ele>
        <time>2014-03-02T08:34:51.000Z</time>
      </trkpt>
      <trkpt lat="45.32478" lon="6.22294">
        <ele>1727.4000244141</ele>
        <time>2014-03-02T08:34:52.000Z</time>
      </trkpt>
      <trkpt lat="45.32478" lon="6.22294">
        <ele>1727.4000244141</ele>
        <time>2014-03-02T08:34:53.000Z</time>
      </trkpt>
      <trkpt lat="45.32478" lon="6.22293">
        <ele>1727.4000244141</ele>
        <time>2014-03-02T08:34:54.000Z</time>
      </trkpt>
      <trkpt lat="45.32478" lon="6.22293">
        <ele>1727.4000244141</ele>
        <time>2014-03-02T08:34:55.000Z</time>
      </trkpt>
      <trkpt lat="45.32478" lon="6.22293">
        <ele>1727.4000244141</ele>
        <time>2014-03-02T08:35:01.000Z</time>
      </trkpt>
      <trkpt lat="45.32478" lon="6.22293">
        <ele>1727.4000244141</ele>
        <time>2014-03-02T08:35:02.000Z</time>
      </trkpt>
      <trkpt lat="45.32478" lon="6.22293">
        <ele>1727.4000244141</ele>
        <time>2014-03-02T08:35:03.000Z</time>
      </trkpt>
      <trkpt lat="45.32478" lon="6.22293">
        <ele>1727.4000244141</ele>
        <time>2014-03-02T08:35:04.000Z</time>
      </trkpt>
      <trkpt lat="45.32478" lon="6.22293">
        <ele>1727.4000244141</ele>
        <time>2014-03-02T08:35:05.000Z</time>
      </trkpt>
      <trkpt lat="45.32478" lon="6.22293">
        <ele>1727.4000244141</ele>
        <time>2014-03-02T08:35:06.000Z</time>
      </trkpt>
      <trkpt lat="45.32478" lon="6.22293">
        <ele>1727.4000244141</ele>
        <time>2014-03-02T08:35:07.000Z</time>
      </trkpt>
      <trkpt lat="45.32478" lon="6.22293">
        <ele>1727.4000244141</ele>
        <time>2014-03-02T08:35:08.000Z</time>
      </trkpt>
      <trkpt lat="45.32478" lon="6.22293">
        <ele>1727.4000244141</ele>
        <time>2014-03-02T08:35:09.000Z</time>
      </trkpt>
      <trkpt lat="45.32478" lon="6.22293">
        <ele>1727.4000244141</ele>
        <time>2014-03-02T08:35:10.000Z</time>
      </trkpt>
      <trkpt lat="45.32478" lon="6.22293">
        <ele>1727.4000244141</ele>
        <time>2014-03-02T08:35:11.000Z</time>
      </trkpt>
      <trkpt lat="45.32478" lon="6.22293">
        <ele>1727.4000244141</ele>
        <time>2014-03-02T08:35:12.000Z</time>
      </trkpt>
      <trkpt lat="45.32478" lon="6.22293">
        <ele>1727.4000244141</ele>
        <time>2014-03-02T08:35:13.000Z</time>
      </trkpt>
      <trkpt lat="45.32478" lon="6.22293">
        <ele>1727.4000244141</ele>
        <time>2014-03-02T08:35:14.000Z</time>
      </trkpt>
      <trkpt lat="45.32478" lon="6.22293">
        <ele>1727.4000244141</ele>
        <time>2014-03-02T08:35:15.000Z</time>
      </trkpt>
      <trkpt lat="45.32478" lon="6.22293">
        <ele>1727.4000244141</ele>
        <time>2014-03-02T08:35:16.000Z</time>
      </trkpt>
      <trkpt lat="45.32478" lon="6.22293">
        <ele>1727.4000244141</ele>
        <time>2014-03-02T08:35:17.000Z</time>
      </trkpt>
      <trkpt lat="45.32478" lon="6.22293">
        <ele>1727.4000244141</ele>
        <time>2014-03-02T08:35:18.000Z</time>
      </trkpt>
      <trkpt lat="45.32478" lon="6.22293">
        <ele>1727.4000244141</ele>
        <time>2014-03-02T08:35:19.000Z</time>
      </trkpt>
      <trkpt lat="45.32478" lon="6.22293">
        <ele>1727.4000244141</ele>
        <time>2014-03-02T08:35:21.000Z</time>
      </trkpt>
      <trkpt lat="45.32478" lon="6.22293">
        <ele>1727.4000244141</ele>
        <time>2014-03-02T08:35:22.000Z</time>
      </trkpt>
      <trkpt lat="45.32478" lon="6.22293">
        <ele>1727.4000244141</ele>
        <time>2014-03-02T08:35:25.000Z</time>
      </trkpt>
      <trkpt lat="45.32478" lon="6.22293">
        <ele>1727.4000244141</ele>
        <time>2014-03-02T08:35:26.000Z</time>
      </trkpt>
      <trkpt lat="45.32478" lon="6.22293">
        <ele>1727.4000244141</ele>
        <time>2014-03-02T08:35:28.000Z</time>
      </trkpt>
      <trkpt lat="45.32478" lon="6.22293">
        <ele>1727.4000244141</ele>
        <time>2014-03-02T08:35:29.000Z</time>
      </trkpt>
      <trkpt lat="45.32478" lon="6.22293">
        <ele>1727.4000244141</ele>
        <time>2014-03-02T08:35:33.000Z</time>
      </trkpt>
      <trkpt lat="45.32478" lon="6.22292">
        <ele>1727.5999755859</ele>
        <time>2014-03-02T08:35:37.000Z</time>
      </trkpt>
      <trkpt lat="45.32478" lon="6.22292">
        <ele>1727.5999755859</ele>
        <time>2014-03-02T08:35:38.000Z</time>
      </trkpt>
      <trkpt lat="45.32478" lon="6.22292">
        <ele>1727.5999755859</ele>
        <time>2014-03-02T08:35:39.000Z</time>
      </trkpt>
      <trkpt lat="45.32478" lon="6.22292">
        <ele>1727.5999755859</ele>
        <time>2014-03-02T08:35:40.000Z</time>
      </trkpt>
      <trkpt lat="45.32478" lon="6.22292">
        <ele>1727.5999755859</ele>
        <time>2014-03-02T08:35:43.000Z</time>
      </trkpt>
      <trkpt lat="45.32478" lon="6.22292">
        <ele>1727.5999755859</ele>
        <time>2014-03-02T08:35:44.000Z</time>
      </trkpt>
      <trkpt lat="45.32478" lon="6.22292">
        <ele>1727.5999755859</ele>
        <time>2014-03-02T08:35:45.000Z</time>
      </trkpt>
      <trkpt lat="45.32478" lon="6.22292">
        <ele>1727.5999755859</ele>
        <time>2014-03-02T08:35:46.000Z</time>
      </trkpt>
      <trkpt lat="45.32478" lon="6.22292">
        <ele>1727.5999755859</ele>
        <time>2014-03-02T08:35:47.000Z</time>
      </trkpt>
      <trkpt lat="45.32478" lon="6.22292">
        <ele>1727.5999755859</ele>
        <time>2014-03-02T08:35:48.000Z</time>
      </trkpt>
      <trkpt lat="45.32478" lon="6.22292">
        <ele>1727.5999755859</ele>
        <time>2014-03-02T08:35:49.000Z</time>
      </trkpt>
      <trkpt lat="45.32478" lon="6.22292">
        <ele>1727.5999755859</ele>
        <time>2014-03-02T08:35:50.000Z</time>
      </trkpt>
      <trkpt lat="45.32478" lon="6.22292">
        <ele>1727.5999755859</ele>
        <time>2014-03-02T08:35:51.000Z</time>
      </trkpt>
      <trkpt lat="45.32478" lon="6.22292">
        <ele>1727.5999755859</ele>
        <time>2014-03-02T08:35:52.000Z</time>
      </trkpt>
      <trkpt lat="45.32478" lon="6.22292">
        <ele>1727.5999755859</ele>
        <time>2014-03-02T08:35:53.000Z</time>
      </trkpt>
      <trkpt lat="45.32478" lon="6.22292">
        <ele>1727.5999755859</ele>
        <time>2014-03-02T08:35:54.000Z</time>
      </trkpt>
      <trkpt lat="45.32478" lon="6.22292">
        <ele>1727.5999755859</ele>
        <time>2014-03-02T08:35:55.000Z</time>
      </trkpt>
      <trkpt lat="45.32478" lon="6.22292">
        <ele>1727.5999755859</ele>
        <time>2014-03-02T08:35:56.000Z</time>
      </trkpt>
      <trkpt lat="45.32478" lon="6.22292">
        <ele>1727.5999755859</ele>
        <time>2014-03-02T08:35:57.000Z</time>
      </trkpt>
      <trkpt lat="45.32478" lon="6.22292">
        <ele>1727.5999755859</ele>
        <time>2014-03-02T08:35:58.000Z</time>
      </trkpt>
      <trkpt lat="45.32478" lon="6.22292">
        <ele>1727.5999755859</ele>
        <time>2014-03-02T08:35:59.000Z</time>
      </trkpt>
      <trkpt lat="45.32478" lon="6.22292">
        <ele>1727.5999755859</ele>
        <time>2014-03-02T08:36:00.000Z</time>
      </trkpt>
      <trkpt lat="45.32478" lon="6.22292">
        <ele>1727.5999755859</ele>
        <time>2014-03-02T08:36:01.000Z</time>
      </trkpt>
      <trkpt lat="45.32478" lon="6.22292">
        <ele>1727.5999755859</ele>
        <time>2014-03-02T08:36:02.000Z</time>
      </trkpt>
      <trkpt lat="45.32478" lon="6.22292">
        <ele>1727.5999755859</ele>
        <time>2014-03-02T08:36:03.000Z</time>
      </trkpt>
      <trkpt lat="45.32478" lon="6.22292">
        <ele>1727.5999755859</ele>
        <time>2014-03-02T08:36:04.000Z</time>
      </trkpt>
      <trkpt lat="45.32478" lon="6.22292">
        <ele>1727.5999755859</ele>
        <time>2014-03-02T08:36:05.000Z</time>
      </trkpt>
      <trkpt lat="45.32478" lon="6.22292">
        <ele>1727.5999755859</ele>
        <time>2014-03-02T08:36:06.000Z</time>
      </trkpt>
      <trkpt lat="45.32478" lon="6.22292">
        <ele>1727.5999755859</ele>
        <time>2014-03-02T08:36:07.000Z</time>
      </trkpt>
      <trkpt lat="45.32478" lon="6.22292">
        <ele>1727.5999755859</ele>
        <time>2014-03-02T08:36:08.000Z</time>
      </trkpt>
      <trkpt lat="45.32478" lon="6.22292">
        <ele>1727.5999755859</ele>
        <time>2014-03-02T08:36:09.000Z</time>
      </trkpt>
      <trkpt lat="45.32478" lon="6.22292">
        <ele>1727.5999755859</ele>
        <time>2014-03-02T08:36:10.000Z</time>
      </trkpt>
      <trkpt lat="45.32478" lon="6.22292">
        <ele>1727.5999755859</ele>
        <time>2014-03-02T08:36:11.000Z</time>
      </trkpt>
      <trkpt lat="45.32477" lon="6.22291">
        <ele>1727.4000244141</ele>
        <time>2014-03-02T08:36:14.000Z</time>
      </trkpt>
      <trkpt lat="45.32477" lon="6.22291">
        <ele>1727.4000244141</ele>
        <time>2014-03-02T08:36:15.000Z</time>
      </trkpt>
      <trkpt lat="45.32477" lon="6.22291">
        <ele>1727.4000244141</ele>
        <time>2014-03-02T08:36:16.000Z</time>
      </trkpt>
      <trkpt lat="45.32477" lon="6.22291">
        <ele>1727.4000244141</ele>
        <time>2014-03-02T08:36:17.000Z</time>
      </trkpt>
      <trkpt lat="45.32477" lon="6.22291">
        <ele>1727.4000244141</ele>
        <time>2014-03-02T08:36:18.000Z</time>
      </trkpt>
      <trkpt lat="45.32477" lon="6.22291">
        <ele>1727.4000244141</ele>
        <time>2014-03-02T08:36:20.000Z</time>
      </trkpt>
      <trkpt lat="45.32477" lon="6.22291">
        <ele>1727.4000244141</ele>
        <time>2014-03-02T08:36:21.000Z</time>
      </trkpt>
      <trkpt lat="45.32477" lon="6.22291">
        <ele>1727.4000244141</ele>
        <time>2014-03-02T08:36:22.000Z</time>
      </trkpt>
      <trkpt lat="45.32477" lon="6.22291">
        <ele>1727.4000244141</ele>
        <time>2014-03-02T08:36:23.000Z</time>
      </trkpt>
      <trkpt lat="45.32477" lon="6.22291">
        <ele>1727.4000244141</ele>
        <time>2014-03-02T08:36:24.000Z</time>
      </trkpt>
      <trkpt lat="45.32477" lon="6.22291">
        <ele>1727.4000244141</ele>
        <time>2014-03-02T08:36:26.000Z</time>
      </trkpt>
      <trkpt lat="45.32477" lon="6.22291">
        <ele>1727.4000244141</ele>
        <time>2014-03-02T08:36:27.000Z</time>
      </trkpt>
      <trkpt lat="45.32477" lon="6.22291">
        <ele>1727.4000244141</ele>
        <time>2014-03-02T08:36:28.000Z</time>
      </trkpt>
      <trkpt lat="45.32477" lon="6.22291">
        <ele>1727.4000244141</ele>
        <time>2014-03-02T08:36:30.000Z</time>
      </trkpt>
      <trkpt lat="45.32477" lon="6.22291">
        <ele>1727.4000244141</ele>
        <time>2014-03-02T08:36:31.000Z</time>
      </trkpt>
      <trkpt lat="45.32477" lon="6.22291">
        <ele>1727.4000244141</ele>
        <time>2014-03-02T08:36:32.000Z</time>
      </trkpt>
      <trkpt lat="45.32477" lon="6.22291">
        <ele>1727.4000244141</ele>
        <time>2014-03-02T08:36:33.000Z</time>
      </trkpt>
      <trkpt lat="45.32477" lon="6.22291">
        <ele>1727.4000244141</ele>
        <time>2014-03-02T08:36:41.000Z</time>
      </trkpt>
      <trkpt lat="45.32477" lon="6.22291">
        <ele>1727.4000244141</ele>
        <time>2014-03-02T08:36:42.000Z</time>
      </trkpt>
      <trkpt lat="45.32477" lon="6.22291">
        <ele>1727.4000244141</ele>
        <time>2014-03-02T08:36:44.000Z</time>
      </trkpt>
      <trkpt lat="45.32477" lon="6.22291">
        <ele>1727.4000244141</ele>
        <time>2014-03-02T08:36:46.000Z</time>
      </trkpt>
      <trkpt lat="45.32477" lon="6.22291">
        <ele>1727.4000244141</ele>
        <time>2014-03-02T08:36:47.000Z</time>
      </trkpt>
      <trkpt lat="45.32477" lon="6.22291">
        <ele>1727.4000244141</ele>
        <time>2014-03-02T08:36:48.000Z</time>
      </trkpt>
      <trkpt lat="45.32477" lon="6.22291">
        <ele>1727.4000244141</ele>
        <time>2014-03-02T08:36:49.000Z</time>
      </trkpt>
      <trkpt lat="45.32477" lon="6.22291">
        <ele>1727.4000244141</ele>
        <time>2014-03-02T08:36:50.000Z</time>
      </trkpt>
      <trkpt lat="45.32477" lon="6.22291">
        <ele>1727.4000244141</ele>
        <time>2014-03-02T08:36:51.000Z</time>
      </trkpt>
      <trkpt lat="45.32477" lon="6.22291">
        <ele>1727.4000244141</ele>
        <time>2014-03-02T08:36:52.000Z</time>
      </trkpt>
      <trkpt lat="45.32477" lon="6.22291">
        <ele>1727.4000244141</ele>
        <time>2014-03-02T08:36:53.000Z</time>
      </trkpt>
      <trkpt lat="45.32476" lon="6.2229">
        <ele>1727.4000244141</ele>
        <time>2014-03-02T08:36:54.000Z</time>
      </trkpt>
      <trkpt lat="45.32476" lon="6.2229">
        <ele>1727.4000244141</ele>
        <time>2014-03-02T08:36:58.000Z</time>
      </trkpt>
      <trkpt lat="45.32476" lon="6.2229">
        <ele>1727.4000244141</ele>
        <time>2014-03-02T08:37:02.000Z</time>
      </trkpt>
      <trkpt lat="45.32476" lon="6.2229">
        <ele>1727.4000244141</ele>
        <time>2014-03-02T08:37:04.000Z</time>
      </trkpt>
      <trkpt lat="45.32476" lon="6.2229">
        <ele>1727.4000244141</ele>
        <time>2014-03-02T08:37:06.000Z</time>
      </trkpt>
      <trkpt lat="45.32476" lon="6.2229">
        <ele>1727.4000244141</ele>
        <time>2014-03-02T08:37:07.000Z</time>
      </trkpt>
      <trkpt lat="45.32476" lon="6.2229">
        <ele>1727.4000244141</ele>
        <time>2014-03-02T08:37:08.000Z</time>
      </trkpt>
      <trkpt lat="45.32476" lon="6.2229">
        <ele>1727.4000244141</ele>
        <time>2014-03-02T08:37:09.000Z</time>
      </trkpt>
      <trkpt lat="45.32476" lon="6.2229">
        <ele>1727.4000244141</ele>
        <time>2014-03-02T08:37:10.000Z</time>
      </trkpt>
      <trkpt lat="45.32476" lon="6.2229">
        <ele>1727.4000244141</ele>
        <time>2014-03-02T08:37:11.000Z</time>
      </trkpt>
      <trkpt lat="45.32476" lon="6.2229">
        <ele>1727.4000244141</ele>
        <time>2014-03-02T08:37:12.000Z</time>
      </trkpt>
      <trkpt lat="45.32476" lon="6.2229">
        <ele>1727.4000244141</ele>
        <time>2014-03-02T08:37:15.000Z</time>
      </trkpt>
      <trkpt lat="45.32476" lon="6.2229">
        <ele>1727.4000244141</ele>
        <time>2014-03-02T08:37:17.000Z</time>
      </trkpt>
      <trkpt lat="45.32476" lon="6.2229">
        <ele>1727.4000244141</ele>
        <time>2014-03-02T08:37:18.000Z</time>
      </trkpt>
      <trkpt lat="45.32476" lon="6.2229">
        <ele>1727.4000244141</ele>
        <time>2014-03-02T08:37:22.000Z</time>
      </trkpt>
      <trkpt lat="45.32476" lon="6.2229">
        <ele>1727.4000244141</ele>
        <time>2014-03-02T08:37:23.000Z</time>
      </trkpt>
      <trkpt lat="45.32476" lon="6.2229">
        <ele>1727.4000244141</ele>
        <time>2014-03-02T08:37:24.000Z</time>
      </trkpt>
      <trkpt lat="45.32476" lon="6.2229">
        <ele>1727.4000244141</ele>
        <time>2014-03-02T08:37:25.000Z</time>
      </trkpt>
      <trkpt lat="45.32476" lon="6.2229">
        <ele>1727.4000244141</ele>
        <time>2014-03-02T08:37:27.000Z</time>
      </trkpt>
      <trkpt lat="45.32476" lon="6.2229">
        <ele>1727.4000244141</ele>
        <time>2014-03-02T08:37:31.000Z</time>
      </trkpt>
      <trkpt lat="45.32476" lon="6.2229">
        <ele>1727.4000244141</ele>
        <time>2014-03-02T08:37:32.000Z</time>
      </trkpt>
      <trkpt lat="45.32476" lon="6.2229">
        <ele>1727.4000244141</ele>
        <time>2014-03-02T08:37:33.000Z</time>
      </trkpt>
      <trkpt lat="45.32476" lon="6.2229">
        <ele>1727.1999511719</ele>
        <time>2014-03-02T08:37:34.000Z</time>
      </trkpt>
      <trkpt lat="45.32476" lon="6.22287">
        <ele>1727.5999755859</ele>
        <time>2014-03-02T08:37:35.000Z</time>
      </trkpt>
      <trkpt lat="45.32476" lon="6.22287">
        <ele>1727.5999755859</ele>
        <time>2014-03-02T08:37:36.000Z</time>
      </trkpt>
      <trkpt lat="45.32476" lon="6.22286">
        <ele>1728.1999511719</ele>
        <time>2014-03-02T08:37:37.000Z</time>
      </trkpt>
      <trkpt lat="45.32476" lon="6.22286">
        <ele>1728.1999511719</ele>
        <time>2014-03-02T08:37:38.000Z</time>
      </trkpt>
      <trkpt lat="45.32476" lon="6.22286">
        <ele>1728.1999511719</ele>
        <time>2014-03-02T08:37:39.000Z</time>
      </trkpt>
      <trkpt lat="45.32476" lon="6.22283">
        <ele>1728.5999755859</ele>
        <time>2014-03-02T08:37:40.000Z</time>
      </trkpt>
      <trkpt lat="45.32476" lon="6.22283">
        <ele>1728.8000488281</ele>
        <time>2014-03-02T08:37:41.000Z</time>
      </trkpt>
      <trkpt lat="45.32476" lon="6.22281">
        <ele>1729.1999511719</ele>
        <time>2014-03-02T08:37:42.000Z</time>
      </trkpt>
      <trkpt lat="45.32476" lon="6.22279">
        <ele>1729.8000488281</ele>
        <time>2014-03-02T08:37:43.000Z</time>
      </trkpt>
      <trkpt lat="45.32477" lon="6.22277">
        <ele>1730.5999755859</ele>
        <time>2014-03-02T08:37:44.000Z</time>
      </trkpt>
      <trkpt lat="45.32478" lon="6.22276">
        <ele>1731</ele>
        <time>2014-03-02T08:37:45.000Z</time>
      </trkpt>
      <trkpt lat="45.32478" lon="6.22275">
        <ele>1731.8000488281</ele>
        <time>2014-03-02T08:37:46.000Z</time>
      </trkpt>
      <trkpt lat="45.32479" lon="6.22273">
        <ele>1732.5999755859</ele>
        <time>2014-03-02T08:37:47.000Z</time>
      </trkpt>
      <trkpt lat="45.32479" lon="6.22272">
        <ele>1732.8000488281</ele>
        <time>2014-03-02T08:37:48.000Z</time>
      </trkpt>
      <trkpt lat="45.32479" lon="6.22271">
        <ele>1733.1999511719</ele>
        <time>2014-03-02T08:37:49.000Z</time>
      </trkpt>
      <trkpt lat="45.32479" lon="6.22269">
        <ele>1733.4000244141</ele>
        <time>2014-03-02T08:37:50.000Z</time>
      </trkpt>
      <trkpt lat="45.32479" lon="6.22269">
        <ele>1733.4000244141</ele>
        <time>2014-03-02T08:37:51.000Z</time>
      </trkpt>
      <trkpt lat="45.32479" lon="6.22269">
        <ele>1733.4000244141</ele>
        <time>2014-03-02T08:37:52.000Z</time>
      </trkpt>
      <trkpt lat="45.32479" lon="6.22269">
        <ele>1733.4000244141</ele>
        <time>2014-03-02T08:37:53.000Z</time>
      </trkpt>
      <trkpt lat="45.32479" lon="6.22269">
        <ele>1733.4000244141</ele>
        <time>2014-03-02T08:37:54.000Z</time>
      </trkpt>
      <trkpt lat="45.32479" lon="6.22269">
        <ele>1733.4000244141</ele>
        <time>2014-03-02T08:37:55.000Z</time>
      </trkpt>
      <trkpt lat="45.32479" lon="6.22269">
        <ele>1733.4000244141</ele>
        <time>2014-03-02T08:37:56.000Z</time>
      </trkpt>
      <trkpt lat="45.32479" lon="6.22269">
        <ele>1733.4000244141</ele>
        <time>2014-03-02T08:37:57.000Z</time>
      </trkpt>
      <trkpt lat="45.3248" lon="6.22268">
        <ele>1734</ele>
        <time>2014-03-02T08:37:58.000Z</time>
      </trkpt>
      <trkpt lat="45.3248" lon="6.22268">
        <ele>1734.1999511719</ele>
        <time>2014-03-02T08:37:59.000Z</time>
      </trkpt>
      <trkpt lat="45.3248" lon="6.22268">
        <ele>1734.1999511719</ele>
        <time>2014-03-02T08:38:00.000Z</time>
      </trkpt>
      <trkpt lat="45.3248" lon="6.22267">
        <ele>1734.5999755859</ele>
        <time>2014-03-02T08:38:02.000Z</time>
      </trkpt>
      <trkpt lat="45.3248" lon="6.22267">
        <ele>1734.5999755859</ele>
        <time>2014-03-02T08:38:03.000Z</time>
      </trkpt>
      <trkpt lat="45.3248" lon="6.22267">
        <ele>1734.5999755859</ele>
        <time>2014-03-02T08:38:04.000Z</time>
      </trkpt>
      <trkpt lat="45.32481" lon="6.22266">
        <ele>1735.1999511719</ele>
        <time>2014-03-02T08:38:05.000Z</time>
      </trkpt>
      <trkpt lat="45.32481" lon="6.22264">
        <ele>1735.5999755859</ele>
        <time>2014-03-02T08:38:06.000Z</time>
      </trkpt>
      <trkpt lat="45.32481" lon="6.22263">
        <ele>1735.8000488281</ele>
        <time>2014-03-02T08:38:07.000Z</time>
      </trkpt>
      <trkpt lat="45.32481" lon="6.22262">
        <ele>1736.1999511719</ele>
        <time>2014-03-02T08:38:08.000Z</time>
      </trkpt>
      <trkpt lat="45.32481" lon="6.22261">
        <ele>1736.1999511719</ele>
        <time>2014-03-02T08:38:09.000Z</time>
      </trkpt>
      <trkpt lat="45.32481" lon="6.2226">
        <ele>1736.5999755859</ele>
        <time>2014-03-02T08:38:10.000Z</time>
      </trkpt>
      <trkpt lat="45.32482" lon="6.22258">
        <ele>1737.4000244141</ele>
        <time>2014-03-02T08:38:11.000Z</time>
      </trkpt>
      <trkpt lat="45.32482" lon="6.22258">
        <ele>1737.5999755859</ele>
        <time>2014-03-02T08:38:12.000Z</time>
      </trkpt>
      <trkpt lat="45.32482" lon="6.22257">
        <ele>1737.8000488281</ele>
        <time>2014-03-02T08:38:13.000Z</time>
      </trkpt>
      <trkpt lat="45.32482" lon="6.22257">
        <ele>1737.8000488281</ele>
        <time>2014-03-02T08:38:14.000Z</time>
      </trkpt>
      <trkpt lat="45.32482" lon="6.22257">
        <ele>1737.8000488281</ele>
        <time>2014-03-02T08:38:15.000Z</time>
      </trkpt>
      <trkpt lat="45.32483" lon="6.22257">
        <ele>1738.1999511719</ele>
        <time>2014-03-02T08:38:16.000Z</time>
      </trkpt>
      <trkpt lat="45.32483" lon="6.22255">
        <ele>1739</ele>
        <time>2014-03-02T08:38:17.000Z</time>
      </trkpt>
      <trkpt lat="45.32484" lon="6.22254">
        <ele>1739.4000244141</ele>
        <time>2014-03-02T08:38:18.000Z</time>
      </trkpt>
      <trkpt lat="45.32484" lon="6.22253">
        <ele>1740.1999511719</ele>
        <time>2014-03-02T08:38:19.000Z</time>
      </trkpt>
      <trkpt lat="45.32485" lon="6.22252">
        <ele>1740.8000488281</ele>
        <time>2014-03-02T08:38:20.000Z</time>
      </trkpt>
      <trkpt lat="45.32485" lon="6.22251">
        <ele>1741</ele>
        <time>2014-03-02T08:38:21.000Z</time>
      </trkpt>
      <trkpt lat="45.32485" lon="6.22249">
        <ele>1741.5999755859</ele>
        <time>2014-03-02T08:38:22.000Z</time>
      </trkpt>
      <trkpt lat="45.32486" lon="6.22249">
        <ele>1741.5999755859</ele>
        <time>2014-03-02T08:38:23.000Z</time>
      </trkpt>
      <trkpt lat="45.32486" lon="6.22248">
        <ele>1741.8000488281</ele>
        <time>2014-03-02T08:38:24.000Z</time>
      </trkpt>
      <trkpt lat="45.32486" lon="6.22248">
        <ele>1742</ele>
        <time>2014-03-02T08:38:25.000Z</time>
      </trkpt>
      <trkpt lat="45.32485" lon="6.22245">
        <ele>1742.4000244141</ele>
        <time>2014-03-02T08:38:26.000Z</time>
      </trkpt>
      <trkpt lat="45.32485" lon="6.22244">
        <ele>1742.5999755859</ele>
        <time>2014-03-02T08:38:27.000Z</time>
      </trkpt>
      <trkpt lat="45.32486" lon="6.22241">
        <ele>1743.1999511719</ele>
        <time>2014-03-02T08:38:28.000Z</time>
      </trkpt>
      <trkpt lat="45.32486" lon="6.22241">
        <ele>1743.5999755859</ele>
        <time>2014-03-02T08:38:29.000Z</time>
      </trkpt>
      <trkpt lat="45.32486" lon="6.22239">
        <ele>1744</ele>
        <time>2014-03-02T08:38:30.000Z</time>
      </trkpt>
      <trkpt lat="45.32486" lon="6.22237">
        <ele>1744.4000244141</ele>
        <time>2014-03-02T08:38:31.000Z</time>
      </trkpt>
      <trkpt lat="45.32486" lon="6.22237">
        <ele>1744.4000244141</ele>
        <time>2014-03-02T08:38:32.000Z</time>
      </trkpt>
      <trkpt lat="45.32486" lon="6.22235">
        <ele>1745</ele>
        <time>2014-03-02T08:38:33.000Z</time>
      </trkpt>
      <trkpt lat="45.32487" lon="6.22233">
        <ele>1745.5999755859</ele>
        <time>2014-03-02T08:38:34.000Z</time>
      </trkpt>
      <trkpt lat="45.32487" lon="6.22233">
        <ele>1745.8000488281</ele>
        <time>2014-03-02T08:38:35.000Z</time>
      </trkpt>
      <trkpt lat="45.32488" lon="6.22231">
        <ele>1746.5999755859</ele>
        <time>2014-03-02T08:38:36.000Z</time>
      </trkpt>
      <trkpt lat="45.32488" lon="6.2223">
        <ele>1747</ele>
        <time>2014-03-02T08:38:37.000Z</time>
      </trkpt>
      <trkpt lat="45.32489" lon="6.22228">
        <ele>1747.5999755859</ele>
        <time>2014-03-02T08:38:38.000Z</time>
      </trkpt>
      <trkpt lat="45.32489" lon="6.22226">
        <ele>1748</ele>
        <time>2014-03-02T08:38:39.000Z</time>
      </trkpt>
      <trkpt lat="45.32489" lon="6.22225">
        <ele>1748</ele>
        <time>2014-03-02T08:38:40.000Z</time>
      </trkpt>
      <trkpt lat="45.32489" lon="6.22223">
        <ele>1748.1999511719</ele>
        <time>2014-03-02T08:38:41.000Z</time>
      </trkpt>
      <trkpt lat="45.32489" lon="6.22221">
        <ele>1748.4000244141</ele>
        <time>2014-03-02T08:38:42.000Z</time>
      </trkpt>
      <trkpt lat="45.32489" lon="6.2222">
        <ele>1748.5999755859</ele>
        <time>2014-03-02T08:38:43.000Z</time>
      </trkpt>
      <trkpt lat="45.32489" lon="6.22219">
        <ele>1748.5999755859</ele>
        <time>2014-03-02T08:38:44.000Z</time>
      </trkpt>
      <trkpt lat="45.32489" lon="6.22218">
        <ele>1748.5999755859</ele>
        <time>2014-03-02T08:38:45.000Z</time>
      </trkpt>
      <trkpt lat="45.32489" lon="6.22216">
        <ele>1748.8000488281</ele>
        <time>2014-03-02T08:38:46.000Z</time>
      </trkpt>
      <trkpt lat="45.32489" lon="6.22216">
        <ele>1748.5999755859</ele>
        <time>2014-03-02T08:38:47.000Z</time>
      </trkpt>
      <trkpt lat="45.32489" lon="6.22214">
        <ele>1748.8000488281</ele>
        <time>2014-03-02T08:38:48.000Z</time>
      </trkpt>
      <trkpt lat="45.32489" lon="6.22213">
        <ele>1749</ele>
        <time>2014-03-02T08:38:49.000Z</time>
      </trkpt>
      <trkpt lat="45.32489" lon="6.22213">
        <ele>1749.1999511719</ele>
        <time>2014-03-02T08:38:50.000Z</time>
      </trkpt>
      <trkpt lat="45.3249" lon="6.2221">
        <ele>1749.5999755859</ele>
        <time>2014-03-02T08:38:51.000Z</time>
      </trkpt>
      <trkpt lat="45.32491" lon="6.22208">
        <ele>1750.1999511719</ele>
        <time>2014-03-02T08:38:52.000Z</time>
      </trkpt>
      <trkpt lat="45.32491" lon="6.22208">
        <ele>1750.4000244141</ele>
        <time>2014-03-02T08:38:53.000Z</time>
      </trkpt>
      <trkpt lat="45.32491" lon="6.22206">
        <ele>1750.8000488281</ele>
        <time>2014-03-02T08:38:54.000Z</time>
      </trkpt>
      <trkpt lat="45.32492" lon="6.22206">
        <ele>1751</ele>
        <time>2014-03-02T08:38:55.000Z</time>
      </trkpt>
      <trkpt lat="45.32493" lon="6.22204">
        <ele>1751.5999755859</ele>
        <time>2014-03-02T08:38:56.000Z</time>
      </trkpt>
      <trkpt lat="45.32493" lon="6.22203">
        <ele>1752.1999511719</ele>
        <time>2014-03-02T08:38:57.000Z</time>
      </trkpt>
      <trkpt lat="45.32493" lon="6.22202">
        <ele>1752.1999511719</ele>
        <time>2014-03-02T08:38:58.000Z</time>
      </trkpt>
      <trkpt lat="45.32494" lon="6.222">
        <ele>1752.5999755859</ele>
        <time>2014-03-02T08:38:59.000Z</time>
      </trkpt>
      <trkpt lat="45.32494" lon="6.22199">
        <ele>1753</ele>
        <time>2014-03-02T08:39:00.000Z</time>
      </trkpt>
      <trkpt lat="45.32494" lon="6.22198">
        <ele>1753.1999511719</ele>
        <time>2014-03-02T08:39:01.000Z</time>
      </trkpt>
      <trkpt lat="45.32495" lon="6.22198">
        <ele>1753.4000244141</ele>
        <time>2014-03-02T08:39:02.000Z</time>
      </trkpt>
      <trkpt lat="45.32495" lon="6.22197">
        <ele>1753.4000244141</ele>
        <time>2014-03-02T08:39:03.000Z</time>
      </trkpt>
      <trkpt lat="45.32495" lon="6.22195">
        <ele>1753.8000488281</ele>
        <time>2014-03-02T08:39:04.000Z</time>
      </trkpt>
      <trkpt lat="45.32496" lon="6.22194">
        <ele>1754.4000244141</ele>
        <time>2014-03-02T08:39:05.000Z</time>
      </trkpt>
      <trkpt lat="45.32496" lon="6.22193">
        <ele>1754.8000488281</ele>
        <time>2014-03-02T08:39:06.000Z</time>
      </trkpt>
      <trkpt lat="45.32497" lon="6.22191">
        <ele>1755</ele>
        <time>2014-03-02T08:39:07.000Z</time>
      </trkpt>
      <trkpt lat="45.32497" lon="6.22191">
        <ele>1755.4000244141</ele>
        <time>2014-03-02T08:39:08.000Z</time>
      </trkpt>
      <trkpt lat="45.32497" lon="6.2219">
        <ele>1755.5999755859</ele>
        <time>2014-03-02T08:39:09.000Z</time>
      </trkpt>
      <trkpt lat="45.32497" lon="6.22189">
        <ele>1755.5999755859</ele>
        <time>2014-03-02T08:39:10.000Z</time>
      </trkpt>
      <trkpt lat="45.32498" lon="6.22189">
        <ele>1755.8000488281</ele>
        <time>2014-03-02T08:39:11.000Z</time>
      </trkpt>
      <trkpt lat="45.32498" lon="6.22187">
        <ele>1755.8000488281</ele>
        <time>2014-03-02T08:39:12.000Z</time>
      </trkpt>
      <trkpt lat="45.32497" lon="6.22187">
        <ele>1755.8000488281</ele>
        <time>2014-03-02T08:39:13.000Z</time>
      </trkpt>
      <trkpt lat="45.32497" lon="6.22186">
        <ele>1755.8000488281</ele>
        <time>2014-03-02T08:39:14.000Z</time>
      </trkpt>
      <trkpt lat="45.32497" lon="6.22185">
        <ele>1755.8000488281</ele>
        <time>2014-03-02T08:39:15.000Z</time>
      </trkpt>
      <trkpt lat="45.32498" lon="6.22184">
        <ele>1756</ele>
        <time>2014-03-02T08:39:16.000Z</time>
      </trkpt>
      <trkpt lat="45.32497" lon="6.22182">
        <ele>1756</ele>
        <time>2014-03-02T08:39:17.000Z</time>
      </trkpt>
      <trkpt lat="45.32497" lon="6.22181">
        <ele>1755.8000488281</ele>
        <time>2014-03-02T08:39:18.000Z</time>
      </trkpt>
      <trkpt lat="45.32497" lon="6.2218">
        <ele>1755.8000488281</ele>
        <time>2014-03-02T08:39:19.000Z</time>
      </trkpt>
      <trkpt lat="45.32496" lon="6.22179">
        <ele>1755.5999755859</ele>
        <time>2014-03-02T08:39:20.000Z</time>
      </trkpt>
      <trkpt lat="45.32496" lon="6.22178">
        <ele>1755.5999755859</ele>
        <time>2014-03-02T08:39:21.000Z</time>
      </trkpt>
      <trkpt lat="45.32496" lon="6.22176">
        <ele>1755.5999755859</ele>
        <time>2014-03-02T08:39:22.000Z</time>
      </trkpt>
      <trkpt lat="45.32496" lon="6.22175">
        <ele>1755.5999755859</ele>
        <time>2014-03-02T08:39:23.000Z</time>
      </trkpt>
      <trkpt lat="45.32496" lon="6.22173">
        <ele>1755.8000488281</ele>
        <time>2014-03-02T08:39:24.000Z</time>
      </trkpt>
      <trkpt lat="45.32496" lon="6.22172">
        <ele>1755.8000488281</ele>
        <time>2014-03-02T08:39:25.000Z</time>
      </trkpt>
      <trkpt lat="45.32496" lon="6.22171">
        <ele>1755.8000488281</ele>
        <time>2014-03-02T08:39:26.000Z</time>
      </trkpt>
      <trkpt lat="45.32495" lon="6.22169">
        <ele>1755.8000488281</ele>
        <time>2014-03-02T08:39:27.000Z</time>
      </trkpt>
      <trkpt lat="45.32496" lon="6.22169">
        <ele>1755.8000488281</ele>
        <time>2014-03-02T08:39:28.000Z</time>
      </trkpt>
      <trkpt lat="45.32496" lon="6.22167">
        <ele>1756.1999511719</ele>
        <time>2014-03-02T08:39:29.000Z</time>
      </trkpt>
      <trkpt lat="45.32496" lon="6.22166">
        <ele>1756.1999511719</ele>
        <time>2014-03-02T08:39:30.000Z</time>
      </trkpt>
      <trkpt lat="45.32496" lon="6.22165">
        <ele>1756.1999511719</ele>
        <time>2014-03-02T08:39:32.000Z</time>
      </trkpt>
      <trkpt lat="45.32496" lon="6.22164">
        <ele>1756.1999511719</ele>
        <time>2014-03-02T08:39:33.000Z</time>
      </trkpt>
      <trkpt lat="45.32496" lon="6.22164">
        <ele>1756.1999511719</ele>
        <time>2014-03-02T08:39:34.000Z</time>
      </trkpt>
      <trkpt lat="45.32495" lon="6.22162">
        <ele>1756.1999511719</ele>
        <time>2014-03-02T08:39:35.000Z</time>
      </trkpt>
      <trkpt lat="45.32495" lon="6.22162">
        <ele>1756</ele>
        <time>2014-03-02T08:39:36.000Z</time>
      </trkpt>
      <trkpt lat="45.32495" lon="6.22161">
        <ele>1756</ele>
        <time>2014-03-02T08:39:37.000Z</time>
      </trkpt>
      <trkpt lat="45.32495" lon="6.2216">
        <ele>1756</ele>
        <time>2014-03-02T08:39:38.000Z</time>
      </trkpt>
      <trkpt lat="45.32495" lon="6.22159">
        <ele>1756.1999511719</ele>
        <time>2014-03-02T08:39:39.000Z</time>
      </trkpt>
      <trkpt lat="45.32495" lon="6.22159">
        <ele>1756.1999511719</ele>
        <time>2014-03-02T08:39:40.000Z</time>
      </trkpt>
      <trkpt lat="45.32495" lon="6.22159">
        <ele>1756.1999511719</ele>
        <time>2014-03-02T08:39:41.000Z</time>
      </trkpt>
      <trkpt lat="45.32495" lon="6.22159">
        <ele>1756.1999511719</ele>
        <time>2014-03-02T08:39:42.000Z</time>
      </trkpt>
      <trkpt lat="45.32495" lon="6.22159">
        <ele>1756.1999511719</ele>
        <time>2014-03-02T08:39:43.000Z</time>
      </trkpt>
      <trkpt lat="45.32495" lon="6.22159">
        <ele>1756.1999511719</ele>
        <time>2014-03-02T08:39:44.000Z</time>
      </trkpt>
      <trkpt lat="45.32495" lon="6.22159">
        <ele>1756.1999511719</ele>
        <time>2014-03-02T08:39:45.000Z</time>
      </trkpt>
      <trkpt lat="45.32495" lon="6.22159">
        <ele>1756.1999511719</ele>
        <time>2014-03-02T08:39:46.000Z</time>
      </trkpt>
      <trkpt lat="45.32495" lon="6.22157">
        <ele>1756.1999511719</ele>
        <time>2014-03-02T08:39:48.000Z</time>
      </trkpt>
      <trkpt lat="45.32495" lon="6.22156">
        <ele>1756.1999511719</ele>
        <time>2014-03-02T08:39:49.000Z</time>
      </trkpt>
      <trkpt lat="45.32495" lon="6.22154">
        <ele>1756.1999511719</ele>
        <time>2014-03-02T08:39:50.000Z</time>
      </trkpt>
      <trkpt lat="45.32494" lon="6.22153">
        <ele>1756.1999511719</ele>
        <time>2014-03-02T08:39:51.000Z</time>
      </trkpt>
      <trkpt lat="45.32494" lon="6.22151">
        <ele>1756.1999511719</ele>
        <time>2014-03-02T08:39:52.000Z</time>
      </trkpt>
      <trkpt lat="45.32495" lon="6.22151">
        <ele>1756.4000244141</ele>
        <time>2014-03-02T08:39:53.000Z</time>
      </trkpt>
      <trkpt lat="45.32495" lon="6.2215">
        <ele>1756.4000244141</ele>
        <time>2014-03-02T08:39:54.000Z</time>
      </trkpt>
      <trkpt lat="45.32494" lon="6.22148">
        <ele>1756.4000244141</ele>
        <time>2014-03-02T08:39:55.000Z</time>
      </trkpt>
      <trkpt lat="45.32494" lon="6.22147">
        <ele>1756.4000244141</ele>
        <time>2014-03-02T08:39:56.000Z</time>
      </trkpt>
      <trkpt lat="45.32494" lon="6.22145">
        <ele>1756.4000244141</ele>
        <time>2014-03-02T08:39:57.000Z</time>
      </trkpt>
      <trkpt lat="45.32494" lon="6.22145">
        <ele>1756.5999755859</ele>
        <time>2014-03-02T08:39:58.000Z</time>
      </trkpt>
      <trkpt lat="45.32494" lon="6.22143">
        <ele>1756.8000488281</ele>
        <time>2014-03-02T08:39:59.000Z</time>
      </trkpt>
      <trkpt lat="45.32494" lon="6.22143">
        <ele>1756.5999755859</ele>
        <time>2014-03-02T08:40:00.000Z</time>
      </trkpt>
      <trkpt lat="45.32494" lon="6.22142">
        <ele>1756.5999755859</ele>
        <time>2014-03-02T08:40:01.000Z</time>
      </trkpt>
      <trkpt lat="45.32494" lon="6.2214">
        <ele>1757</ele>
        <time>2014-03-02T08:40:02.000Z</time>
      </trkpt>
      <trkpt lat="45.32494" lon="6.22139">
        <ele>1757.1999511719</ele>
        <time>2014-03-02T08:40:03.000Z</time>
      </trkpt>
      <trkpt lat="45.32494" lon="6.22137">
        <ele>1757.1999511719</ele>
        <time>2014-03-02T08:40:04.000Z</time>
      </trkpt>
      <trkpt lat="45.32494" lon="6.22136">
        <ele>1757.4000244141</ele>
        <time>2014-03-02T08:40:05.000Z</time>
      </trkpt>
      <trkpt lat="45.32494" lon="6.22135">
        <ele>1757.5999755859</ele>
        <time>2014-03-02T08:40:06.000Z</time>
      </trkpt>
      <trkpt lat="45.32494" lon="6.22133">
        <ele>1757.8000488281</ele>
        <time>2014-03-02T08:40:07.000Z</time>
      </trkpt>
      <trkpt lat="45.32494" lon="6.22133">
        <ele>1757.8000488281</ele>
        <time>2014-03-02T08:40:08.000Z</time>
      </trkpt>
      <trkpt lat="45.32495" lon="6.22132">
        <ele>1758.1999511719</ele>
        <time>2014-03-02T08:40:09.000Z</time>
      </trkpt>
      <trkpt lat="45.32494" lon="6.2213">
        <ele>1758.1999511719</ele>
        <time>2014-03-02T08:40:10.000Z</time>
      </trkpt>
      <trkpt lat="45.32494" lon="6.22128">
        <ele>1758.4000244141</ele>
        <time>2014-03-02T08:40:11.000Z</time>
      </trkpt>
      <trkpt lat="45.32494" lon="6.22127">
        <ele>1758.5999755859</ele>
        <time>2014-03-02T08:40:12.000Z</time>
      </trkpt>
      <trkpt lat="45.32494" lon="6.22126">
        <ele>1758.5999755859</ele>
        <time>2014-03-02T08:40:13.000Z</time>
      </trkpt>
      <trkpt lat="45.32494" lon="6.22125">
        <ele>1758.8000488281</ele>
        <time>2014-03-02T08:40:14.000Z</time>
      </trkpt>
      <trkpt lat="45.32495" lon="6.22123">
        <ele>1759.1999511719</ele>
        <time>2014-03-02T08:40:15.000Z</time>
      </trkpt>
      <trkpt lat="45.32494" lon="6.22122">
        <ele>1759.1999511719</ele>
        <time>2014-03-02T08:40:16.000Z</time>
      </trkpt>
      <trkpt lat="45.32494" lon="6.2212">
        <ele>1759.4000244141</ele>
        <time>2014-03-02T08:40:17.000Z</time>
      </trkpt>
      <trkpt lat="45.32494" lon="6.2212">
        <ele>1759.4000244141</ele>
        <time>2014-03-02T08:40:18.000Z</time>
      </trkpt>
      <trkpt lat="45.32495" lon="6.22118">
        <ele>1759.5999755859</ele>
        <time>2014-03-02T08:40:19.000Z</time>
      </trkpt>
      <trkpt lat="45.32495" lon="6.22118">
        <ele>1760</ele>
        <time>2014-03-02T08:40:20.000Z</time>
      </trkpt>
      <trkpt lat="45.32495" lon="6.22118">
        <ele>1760</ele>
        <time>2014-03-02T08:40:21.000Z</time>
      </trkpt>
      <trkpt lat="45.32496" lon="6.22117">
        <ele>1760.5999755859</ele>
        <time>2014-03-02T08:40:22.000Z</time>
      </trkpt>
      <trkpt lat="45.32496" lon="6.22116">
        <ele>1760.5999755859</ele>
        <time>2014-03-02T08:40:23.000Z</time>
      </trkpt>
      <trkpt lat="45.32496" lon="6.22115">
        <ele>1760.8000488281</ele>
        <time>2014-03-02T08:40:24.000Z</time>
      </trkpt>
      <trkpt lat="45.32497" lon="6.22114">
        <ele>1761.4000244141</ele>
        <time>2014-03-02T08:40:25.000Z</time>
      </trkpt>
      <trkpt lat="45.32497" lon="6.22112">
        <ele>1761.8000488281</ele>
        <time>2014-03-02T08:40:26.000Z</time>
      </trkpt>
      <trkpt lat="45.32498" lon="6.22111">
        <ele>1762.1999511719</ele>
        <time>2014-03-02T08:40:27.000Z</time>
      </trkpt>
      <trkpt lat="45.32498" lon="6.2211">
        <ele>1762.4000244141</ele>
        <time>2014-03-02T08:40:28.000Z</time>
      </trkpt>
      <trkpt lat="45.32498" lon="6.22109">
        <ele>1762.4000244141</ele>
        <time>2014-03-02T08:40:29.000Z</time>
      </trkpt>
      <trkpt lat="45.32498" lon="6.22108">
        <ele>1762.8000488281</ele>
        <time>2014-03-02T08:40:30.000Z</time>
      </trkpt>
      <trkpt lat="45.32498" lon="6.22107">
        <ele>1763</ele>
        <time>2014-03-02T08:40:31.000Z</time>
      </trkpt>
      <trkpt lat="45.32499" lon="6.22107">
        <ele>1763.1999511719</ele>
        <time>2014-03-02T08:40:32.000Z</time>
      </trkpt>
      <trkpt lat="45.32499" lon="6.22106">
        <ele>1763.4000244141</ele>
        <time>2014-03-02T08:40:33.000Z</time>
      </trkpt>
      <trkpt lat="45.32499" lon="6.22106">
        <ele>1763.4000244141</ele>
        <time>2014-03-02T08:40:34.000Z</time>
      </trkpt>
      <trkpt lat="45.32499" lon="6.22105">
        <ele>1763.5999755859</ele>
        <time>2014-03-02T08:40:35.000Z</time>
      </trkpt>
      <trkpt lat="45.32499" lon="6.22105">
        <ele>1763.5999755859</ele>
        <time>2014-03-02T08:40:36.000Z</time>
      </trkpt>
      <trkpt lat="45.32499" lon="6.22105">
        <ele>1763.5999755859</ele>
        <time>2014-03-02T08:40:37.000Z</time>
      </trkpt>
      <trkpt lat="45.32499" lon="6.22103">
        <ele>1763.8000488281</ele>
        <time>2014-03-02T08:40:38.000Z</time>
      </trkpt>
      <trkpt lat="45.32499" lon="6.22101">
        <ele>1764.1999511719</ele>
        <time>2014-03-02T08:40:39.000Z</time>
      </trkpt>
      <trkpt lat="45.325" lon="6.22101">
        <ele>1764.4000244141</ele>
        <time>2014-03-02T08:40:40.000Z</time>
      </trkpt>
      <trkpt lat="45.325" lon="6.22099">
        <ele>1765</ele>
        <time>2014-03-02T08:40:41.000Z</time>
      </trkpt>
      <trkpt lat="45.325" lon="6.22098">
        <ele>1765</ele>
        <time>2014-03-02T08:40:42.000Z</time>
      </trkpt>
      <trkpt lat="45.32501" lon="6.22096">
        <ele>1765.1999511719</ele>
        <time>2014-03-02T08:40:43.000Z</time>
      </trkpt>
      <trkpt lat="45.32501" lon="6.22095">
        <ele>1765</ele>
        <time>2014-03-02T08:40:44.000Z</time>
      </trkpt>
      <trkpt lat="45.32501" lon="6.22095">
        <ele>1765.1999511719</ele>
        <time>2014-03-02T08:40:45.000Z</time>
      </trkpt>
      <trkpt lat="45.32501" lon="6.22094">
        <ele>1765.1999511719</ele>
        <time>2014-03-02T08:40:46.000Z</time>
      </trkpt>
      <trkpt lat="45.32501" lon="6.22094">
        <ele>1765.1999511719</ele>
        <time>2014-03-02T08:40:47.000Z</time>
      </trkpt>
      <trkpt lat="45.32501" lon="6.22094">
        <ele>1765.1999511719</ele>
        <time>2014-03-02T08:40:48.000Z</time>
      </trkpt>
      <trkpt lat="45.32501" lon="6.22094">
        <ele>1765.1999511719</ele>
        <time>2014-03-02T08:40:49.000Z</time>
      </trkpt>
      <trkpt lat="45.32501" lon="6.22092">
        <ele>1765.1999511719</ele>
        <time>2014-03-02T08:40:50.000Z</time>
      </trkpt>
      <trkpt lat="45.32501" lon="6.22091">
        <ele>1765.1999511719</ele>
        <time>2014-03-02T08:40:51.000Z</time>
      </trkpt>
      <trkpt lat="45.32502" lon="6.2209">
        <ele>1765.4000244141</ele>
        <time>2014-03-02T08:40:52.000Z</time>
      </trkpt>
      <trkpt lat="45.32502" lon="6.2209">
        <ele>1765.4000244141</ele>
        <time>2014-03-02T08:40:54.000Z</time>
      </trkpt>
      <trkpt lat="45.32502" lon="6.2209">
        <ele>1765.4000244141</ele>
        <time>2014-03-02T08:40:55.000Z</time>
      </trkpt>
      <trkpt lat="45.32502" lon="6.2209">
        <ele>1765.4000244141</ele>
        <time>2014-03-02T08:40:56.000Z</time>
      </trkpt>
      <trkpt lat="45.32502" lon="6.2209">
        <ele>1765.4000244141</ele>
        <time>2014-03-02T08:40:57.000Z</time>
      </trkpt>
      <trkpt lat="45.32502" lon="6.2209">
        <ele>1765.4000244141</ele>
        <time>2014-03-02T08:40:58.000Z</time>
      </trkpt>
      <trkpt lat="45.32502" lon="6.2209">
        <ele>1765.4000244141</ele>
        <time>2014-03-02T08:40:59.000Z</time>
      </trkpt>
      <trkpt lat="45.32502" lon="6.2209">
        <ele>1765.4000244141</ele>
        <time>2014-03-02T08:41:00.000Z</time>
      </trkpt>
      <trkpt lat="45.32502" lon="6.2209">
        <ele>1765.4000244141</ele>
        <time>2014-03-02T08:41:01.000Z</time>
      </trkpt>
      <trkpt lat="45.32502" lon="6.2209">
        <ele>1765.4000244141</ele>
        <time>2014-03-02T08:41:02.000Z</time>
      </trkpt>
      <trkpt lat="45.32502" lon="6.2209">
        <ele>1765.4000244141</ele>
        <time>2014-03-02T08:41:03.000Z</time>
      </trkpt>
      <trkpt lat="45.32502" lon="6.22088">
        <ele>1765.5999755859</ele>
        <time>2014-03-02T08:41:05.000Z</time>
      </trkpt>
      <trkpt lat="45.32502" lon="6.22087">
        <ele>1765.5999755859</ele>
        <time>2014-03-02T08:41:06.000Z</time>
      </trkpt>
      <trkpt lat="45.32503" lon="6.22085">
        <ele>1765.5999755859</ele>
        <time>2014-03-02T08:41:07.000Z</time>
      </trkpt>
      <trkpt lat="45.32503" lon="6.22084">
        <ele>1765.8000488281</ele>
        <time>2014-03-02T08:41:08.000Z</time>
      </trkpt>
      <trkpt lat="45.32503" lon="6.22083">
        <ele>1765.5999755859</ele>
        <time>2014-03-02T08:41:09.000Z</time>
      </trkpt>
      <trkpt lat="45.32503" lon="6.22081">
        <ele>1765.8000488281</ele>
        <time>2014-03-02T08:41:10.000Z</time>
      </trkpt>
      <trkpt lat="45.32503" lon="6.22081">
        <ele>1765.8000488281</ele>
        <time>2014-03-02T08:41:11.000Z</time>
      </trkpt>
      <trkpt lat="45.32504" lon="6.2208">
        <ele>1766</ele>
        <time>2014-03-02T08:41:12.000Z</time>
      </trkpt>
      <trkpt lat="45.32504" lon="6.22079">
        <ele>1766</ele>
        <time>2014-03-02T08:41:13.000Z</time>
      </trkpt>
      <trkpt lat="45.32504" lon="6.22078">
        <ele>1766.1999511719</ele>
        <time>2014-03-02T08:41:14.000Z</time>
      </trkpt>
      <trkpt lat="45.32505" lon="6.22076">
        <ele>1766.1999511719</ele>
        <time>2014-03-02T08:41:15.000Z</time>
      </trkpt>
      <trkpt lat="45.32505" lon="6.22076">
        <ele>1766.1999511719</ele>
        <time>2014-03-02T08:41:16.000Z</time>
      </trkpt>
      <trkpt lat="45.32505" lon="6.22074">
        <ele>1766.4000244141</ele>
        <time>2014-03-02T08:41:17.000Z</time>
      </trkpt>
      <trkpt lat="45.32506" lon="6.22073">
        <ele>1766.5999755859</ele>
        <time>2014-03-02T08:41:18.000Z</time>
      </trkpt>
      <trkpt lat="45.32507" lon="6.22072">
        <ele>1767</ele>
        <time>2014-03-02T08:41:19.000Z</time>
      </trkpt>
      <trkpt lat="45.32508" lon="6.2207">
        <ele>1767.1999511719</ele>
        <time>2014-03-02T08:41:20.000Z</time>
      </trkpt>
      <trkpt lat="45.32508" lon="6.22069">
        <ele>1767.4000244141</ele>
        <time>2014-03-02T08:41:21.000Z</time>
      </trkpt>
      <trkpt lat="45.32509" lon="6.22068">
        <ele>1767.8000488281</ele>
        <time>2014-03-02T08:41:22.000Z</time>
      </trkpt>
      <trkpt lat="45.3251" lon="6.22066">
        <ele>1767.8000488281</ele>
        <time>2014-03-02T08:41:23.000Z</time>
      </trkpt>
      <trkpt lat="45.3251" lon="6.22065">
        <ele>1768</ele>
        <time>2014-03-02T08:41:24.000Z</time>
      </trkpt>
      <trkpt lat="45.3251" lon="6.22063">
        <ele>1768</ele>
        <time>2014-03-02T08:41:25.000Z</time>
      </trkpt>
      <trkpt lat="45.3251" lon="6.22061">
        <ele>1768</ele>
        <time>2014-03-02T08:41:26.000Z</time>
      </trkpt>
      <trkpt lat="45.3251" lon="6.22059">
        <ele>1768</ele>
        <time>2014-03-02T08:41:27.000Z</time>
      </trkpt>
      <trkpt lat="45.3251" lon="6.22057">
        <ele>1768</ele>
        <time>2014-03-02T08:41:28.000Z</time>
      </trkpt>
      <trkpt lat="45.3251" lon="6.22055">
        <ele>1768</ele>
        <time>2014-03-02T08:41:29.000Z</time>
      </trkpt>
      <trkpt lat="45.32511" lon="6.22053">
        <ele>1768.1999511719</ele>
        <time>2014-03-02T08:41:30.000Z</time>
      </trkpt>
      <trkpt lat="45.32511" lon="6.22051">
        <ele>1768.1999511719</ele>
        <time>2014-03-02T08:41:31.000Z</time>
      </trkpt>
      <trkpt lat="45.32511" lon="6.22049">
        <ele>1768.1999511719</ele>
        <time>2014-03-02T08:41:32.000Z</time>
      </trkpt>
      <trkpt lat="45.32511" lon="6.22047">
        <ele>1768.1999511719</ele>
        <time>2014-03-02T08:41:33.000Z</time>
      </trkpt>
      <trkpt lat="45.32512" lon="6.22045">
        <ele>1768.1999511719</ele>
        <time>2014-03-02T08:41:34.000Z</time>
      </trkpt>
      <trkpt lat="45.32512" lon="6.22043">
        <ele>1768.4000244141</ele>
        <time>2014-03-02T08:41:35.000Z</time>
      </trkpt>
      <trkpt lat="45.32512" lon="6.22042">
        <ele>1768.4000244141</ele>
        <time>2014-03-02T08:41:36.000Z</time>
      </trkpt>
      <trkpt lat="45.32512" lon="6.2204">
        <ele>1768.4000244141</ele>
        <time>2014-03-02T08:41:37.000Z</time>
      </trkpt>
      <trkpt lat="45.32512" lon="6.22038">
        <ele>1768.4000244141</ele>
        <time>2014-03-02T08:41:38.000Z</time>
      </trkpt>
      <trkpt lat="45.32513" lon="6.22037">
        <ele>1768.5999755859</ele>
        <time>2014-03-02T08:41:39.000Z</time>
      </trkpt>
      <trkpt lat="45.32514" lon="6.22035">
        <ele>1769</ele>
        <time>2014-03-02T08:41:40.000Z</time>
      </trkpt>
      <trkpt lat="45.32514" lon="6.22033">
        <ele>1769.1999511719</ele>
        <time>2014-03-02T08:41:41.000Z</time>
      </trkpt>
      <trkpt lat="45.32514" lon="6.22031">
        <ele>1769</ele>
        <time>2014-03-02T08:41:42.000Z</time>
      </trkpt>
      <trkpt lat="45.32515" lon="6.2203">
        <ele>1769.1999511719</ele>
        <time>2014-03-02T08:41:43.000Z</time>
      </trkpt>
      <trkpt lat="45.32515" lon="6.22027">
        <ele>1769.1999511719</ele>
        <time>2014-03-02T08:41:44.000Z</time>
      </trkpt>
      <trkpt lat="45.32516" lon="6.22026">
        <ele>1769.4000244141</ele>
        <time>2014-03-02T08:41:45.000Z</time>
      </trkpt>
      <trkpt lat="45.32516" lon="6.22025">
        <ele>1769.5999755859</ele>
        <time>2014-03-02T08:41:46.000Z</time>
      </trkpt>
      <trkpt lat="45.32517" lon="6.22024">
        <ele>1769.8000488281</ele>
        <time>2014-03-02T08:41:47.000Z</time>
      </trkpt>
      <trkpt lat="45.32517" lon="6.22022">
        <ele>1769.8000488281</ele>
        <time>2014-03-02T08:41:48.000Z</time>
      </trkpt>
      <trkpt lat="45.32517" lon="6.2202">
        <ele>1769.8000488281</ele>
        <time>2014-03-02T08:41:49.000Z</time>
      </trkpt>
      <trkpt lat="45.32518" lon="6.22018">
        <ele>1769.8000488281</ele>
        <time>2014-03-02T08:41:50.000Z</time>
      </trkpt>
      <trkpt lat="45.32519" lon="6.22011">
        <ele>1769.8000488281</ele>
        <time>2014-03-02T08:41:53.000Z</time>
      </trkpt>
      <trkpt lat="45.32519" lon="6.22009">
        <ele>1769.8000488281</ele>
        <time>2014-03-02T08:41:54.000Z</time>
      </trkpt>
      <trkpt lat="45.32519" lon="6.22008">
        <ele>1769.5999755859</ele>
        <time>2014-03-02T08:41:55.000Z</time>
      </trkpt>
      <trkpt lat="45.32519" lon="6.22007">
        <ele>1769.4000244141</ele>
        <time>2014-03-02T08:41:56.000Z</time>
      </trkpt>
      <trkpt lat="45.32519" lon="6.22004">
        <ele>1769.1999511719</ele>
        <time>2014-03-02T08:41:57.000Z</time>
      </trkpt>
      <trkpt lat="45.32518" lon="6.22002">
        <ele>1768.8000488281</ele>
        <time>2014-03-02T08:41:59.000Z</time>
      </trkpt>
      <trkpt lat="45.32518" lon="6.22">
        <ele>1768.5999755859</ele>
        <time>2014-03-02T08:42:00.000Z</time>
      </trkpt>
      <trkpt lat="45.32518" lon="6.21998">
        <ele>1768.4000244141</ele>
        <time>2014-03-02T08:42:01.000Z</time>
      </trkpt>
      <trkpt lat="45.32518" lon="6.21997">
        <ele>1768.4000244141</ele>
        <time>2014-03-02T08:42:02.000Z</time>
      </trkpt>
      <trkpt lat="45.32517" lon="6.21995">
        <ele>1768.1999511719</ele>
        <time>2014-03-02T08:42:03.000Z</time>
      </trkpt>
      <trkpt lat="45.32517" lon="6.21993">
        <ele>1768.1999511719</ele>
        <time>2014-03-02T08:42:04.000Z</time>
      </trkpt>
      <trkpt lat="45.32518" lon="6.21993">
        <ele>1768.1999511719</ele>
        <time>2014-03-02T08:42:05.000Z</time>
      </trkpt>
      <trkpt lat="45.32518" lon="6.2199">
        <ele>1768.1999511719</ele>
        <time>2014-03-02T08:42:06.000Z</time>
      </trkpt>
      <trkpt lat="45.32518" lon="6.21989">
        <ele>1768</ele>
        <time>2014-03-02T08:42:07.000Z</time>
      </trkpt>
      <trkpt lat="45.32518" lon="6.21989">
        <ele>1768</ele>
        <time>2014-03-02T08:42:08.000Z</time>
      </trkpt>
      <trkpt lat="45.32518" lon="6.21987">
        <ele>1768</ele>
        <time>2014-03-02T08:42:09.000Z</time>
      </trkpt>
      <trkpt lat="45.32518" lon="6.21986">
        <ele>1768</ele>
        <time>2014-03-02T08:42:10.000Z</time>
      </trkpt>
      <trkpt lat="45.32518" lon="6.21984">
        <ele>1767.8000488281</ele>
        <time>2014-03-02T08:42:11.000Z</time>
      </trkpt>
      <trkpt lat="45.32518" lon="6.21981">
        <ele>1767.5999755859</ele>
        <time>2014-03-02T08:42:12.000Z</time>
      </trkpt>
      <trkpt lat="45.32517" lon="6.2198">
        <ele>1767.1999511719</ele>
        <time>2014-03-02T08:42:13.000Z</time>
      </trkpt>
      <trkpt lat="45.32517" lon="6.21978">
        <ele>1767</ele>
        <time>2014-03-02T08:42:14.000Z</time>
      </trkpt>
      <trkpt lat="45.32517" lon="6.21975">
        <ele>1767</ele>
        <time>2014-03-02T08:42:15.000Z</time>
      </trkpt>
      <trkpt lat="45.32517" lon="6.21974">
        <ele>1767</ele>
        <time>2014-03-02T08:42:16.000Z</time>
      </trkpt>
      <trkpt lat="45.32517" lon="6.21972">
        <ele>1767</ele>
        <time>2014-03-02T08:42:17.000Z</time>
      </trkpt>
      <trkpt lat="45.32517" lon="6.2197">
        <ele>1767.1999511719</ele>
        <time>2014-03-02T08:42:18.000Z</time>
      </trkpt>
      <trkpt lat="45.32518" lon="6.21968">
        <ele>1767.4000244141</ele>
        <time>2014-03-02T08:42:19.000Z</time>
      </trkpt>
      <trkpt lat="45.32518" lon="6.21966">
        <ele>1767.5999755859</ele>
        <time>2014-03-02T08:42:20.000Z</time>
      </trkpt>
      <trkpt lat="45.32517" lon="6.21965">
        <ele>1767.4000244141</ele>
        <time>2014-03-02T08:42:21.000Z</time>
      </trkpt>
      <trkpt lat="45.32517" lon="6.21963">
        <ele>1767.1999511719</ele>
        <time>2014-03-02T08:42:22.000Z</time>
      </trkpt>
      <trkpt lat="45.32517" lon="6.21962">
        <ele>1767.1999511719</ele>
        <time>2014-03-02T08:42:23.000Z</time>
      </trkpt>
      <trkpt lat="45.32517" lon="6.2196">
        <ele>1767.4000244141</ele>
        <time>2014-03-02T08:42:24.000Z</time>
      </trkpt>
      <trkpt lat="45.32517" lon="6.21958">
        <ele>1767.4000244141</ele>
        <time>2014-03-02T08:42:25.000Z</time>
      </trkpt>
      <trkpt lat="45.32518" lon="6.21956">
        <ele>1767.8000488281</ele>
        <time>2014-03-02T08:42:26.000Z</time>
      </trkpt>
      <trkpt lat="45.32519" lon="6.21955">
        <ele>1768</ele>
        <time>2014-03-02T08:42:27.000Z</time>
      </trkpt>
      <trkpt lat="45.3252" lon="6.21954">
        <ele>1768.4000244141</ele>
        <time>2014-03-02T08:42:28.000Z</time>
      </trkpt>
      <trkpt lat="45.3252" lon="6.21951">
        <ele>1768.5999755859</ele>
        <time>2014-03-02T08:42:29.000Z</time>
      </trkpt>
      <trkpt lat="45.32521" lon="6.21949">
        <ele>1768.5999755859</ele>
        <time>2014-03-02T08:42:30.000Z</time>
      </trkpt>
      <trkpt lat="45.32521" lon="6.21947">
        <ele>1768.8000488281</ele>
        <time>2014-03-02T08:42:31.000Z</time>
      </trkpt>
      <trkpt lat="45.32522" lon="6.21945">
        <ele>1768.5999755859</ele>
        <time>2014-03-02T08:42:32.000Z</time>
      </trkpt>
      <trkpt lat="45.32522" lon="6.21943">
        <ele>1768.5999755859</ele>
        <time>2014-03-02T08:42:33.000Z</time>
      </trkpt>
      <trkpt lat="45.32522" lon="6.21941">
        <ele>1768.5999755859</ele>
        <time>2014-03-02T08:42:34.000Z</time>
      </trkpt>
      <trkpt lat="45.32522" lon="6.21938">
        <ele>1768.4000244141</ele>
        <time>2014-03-02T08:42:35.000Z</time>
      </trkpt>
      <trkpt lat="45.32522" lon="6.21936">
        <ele>1768.4000244141</ele>
        <time>2014-03-02T08:42:36.000Z</time>
      </trkpt>
      <trkpt lat="45.32522" lon="6.21935">
        <ele>1768.4000244141</ele>
        <time>2014-03-02T08:42:37.000Z</time>
      </trkpt>
      <trkpt lat="45.32523" lon="6.21933">
        <ele>1768.4000244141</ele>
        <time>2014-03-02T08:42:38.000Z</time>
      </trkpt>
      <trkpt lat="45.32523" lon="6.21932">
        <ele>1768.4000244141</ele>
        <time>2014-03-02T08:42:39.000Z</time>
      </trkpt>
      <trkpt lat="45.32523" lon="6.21931">
        <ele>1768.4000244141</ele>
        <time>2014-03-02T08:42:40.000Z</time>
      </trkpt>
      <trkpt lat="45.32523" lon="6.21929">
        <ele>1768.4000244141</ele>
        <time>2014-03-02T08:42:41.000Z</time>
      </trkpt>
      <trkpt lat="45.32525" lon="6.21925">
        <ele>1768.5999755859</ele>
        <time>2014-03-02T08:42:43.000Z</time>
      </trkpt>
      <trkpt lat="45.32526" lon="6.21924">
        <ele>1768.8000488281</ele>
        <time>2014-03-02T08:42:44.000Z</time>
      </trkpt>
      <trkpt lat="45.32526" lon="6.21922">
        <ele>1768.8000488281</ele>
        <time>2014-03-02T08:42:45.000Z</time>
      </trkpt>
      <trkpt lat="45.32527" lon="6.21922">
        <ele>1769</ele>
        <time>2014-03-02T08:42:46.000Z</time>
      </trkpt>
      <trkpt lat="45.32527" lon="6.2192">
        <ele>1769</ele>
        <time>2014-03-02T08:42:47.000Z</time>
      </trkpt>
      <trkpt lat="45.32528" lon="6.21919">
        <ele>1769</ele>
        <time>2014-03-02T08:42:48.000Z</time>
      </trkpt>
      <trkpt lat="45.32528" lon="6.21917">
        <ele>1769</ele>
        <time>2014-03-02T08:42:49.000Z</time>
      </trkpt>
      <trkpt lat="45.32528" lon="6.21915">
        <ele>1769</ele>
        <time>2014-03-02T08:42:50.000Z</time>
      </trkpt>
      <trkpt lat="45.32528" lon="6.21913">
        <ele>1768.8000488281</ele>
        <time>2014-03-02T08:42:51.000Z</time>
      </trkpt>
      <trkpt lat="45.32528" lon="6.21911">
        <ele>1768.5999755859</ele>
        <time>2014-03-02T08:42:52.000Z</time>
      </trkpt>
      <trkpt lat="45.32527" lon="6.2191">
        <ele>1768.4000244141</ele>
        <time>2014-03-02T08:42:53.000Z</time>
      </trkpt>
      <trkpt lat="45.32528" lon="6.21908">
        <ele>1768.5999755859</ele>
        <time>2014-03-02T08:42:54.000Z</time>
      </trkpt>
      <trkpt lat="45.32528" lon="6.21907">
        <ele>1768.4000244141</ele>
        <time>2014-03-02T08:42:55.000Z</time>
      </trkpt>
      <trkpt lat="45.32528" lon="6.21905">
        <ele>1768.4000244141</ele>
        <time>2014-03-02T08:42:56.000Z</time>
      </trkpt>
      <trkpt lat="45.32529" lon="6.21903">
        <ele>1768.4000244141</ele>
        <time>2014-03-02T08:42:57.000Z</time>
      </trkpt>
      <trkpt lat="45.32528" lon="6.21901">
        <ele>1768.1999511719</ele>
        <time>2014-03-02T08:42:58.000Z</time>
      </trkpt>
      <trkpt lat="45.32528" lon="6.219">
        <ele>1768</ele>
        <time>2014-03-02T08:42:59.000Z</time>
      </trkpt>
      <trkpt lat="45.32528" lon="6.21898">
        <ele>1768</ele>
        <time>2014-03-02T08:43:00.000Z</time>
      </trkpt>
      <trkpt lat="45.32528" lon="6.21896">
        <ele>1767.8000488281</ele>
        <time>2014-03-02T08:43:01.000Z</time>
      </trkpt>
      <trkpt lat="45.32528" lon="6.21894">
        <ele>1767.8000488281</ele>
        <time>2014-03-02T08:43:02.000Z</time>
      </trkpt>
      <trkpt lat="45.32528" lon="6.21892">
        <ele>1767.8000488281</ele>
        <time>2014-03-02T08:43:03.000Z</time>
      </trkpt>
      <trkpt lat="45.32528" lon="6.21891">
        <ele>1767.5999755859</ele>
        <time>2014-03-02T08:43:04.000Z</time>
      </trkpt>
      <trkpt lat="45.32528" lon="6.2189">
        <ele>1767.5999755859</ele>
        <time>2014-03-02T08:43:05.000Z</time>
      </trkpt>
      <trkpt lat="45.32528" lon="6.21888">
        <ele>1767.8000488281</ele>
        <time>2014-03-02T08:43:06.000Z</time>
      </trkpt>
      <trkpt lat="45.32527" lon="6.21886">
        <ele>1767.5999755859</ele>
        <time>2014-03-02T08:43:07.000Z</time>
      </trkpt>
      <trkpt lat="45.32527" lon="6.21885">
        <ele>1767.5999755859</ele>
        <time>2014-03-02T08:43:08.000Z</time>
      </trkpt>
      <trkpt lat="45.32527" lon="6.21883">
        <ele>1767.5999755859</ele>
        <time>2014-03-02T08:43:09.000Z</time>
      </trkpt>
      <trkpt lat="45.32527" lon="6.21881">
        <ele>1767.4000244141</ele>
        <time>2014-03-02T08:43:10.000Z</time>
      </trkpt>
      <trkpt lat="45.32527" lon="6.2188">
        <ele>1767.5999755859</ele>
        <time>2014-03-02T08:43:11.000Z</time>
      </trkpt>
      <trkpt lat="45.32526" lon="6.21878">
        <ele>1767.4000244141</ele>
        <time>2014-03-02T08:43:12.000Z</time>
      </trkpt>
      <trkpt lat="45.32526" lon="6.21876">
        <ele>1767.4000244141</ele>
        <time>2014-03-02T08:43:13.000Z</time>
      </trkpt>
      <trkpt lat="45.32526" lon="6.21874">
        <ele>1767.5999755859</ele>
        <time>2014-03-02T08:43:14.000Z</time>
      </trkpt>
      <trkpt lat="45.32527" lon="6.21873">
        <ele>1767.8000488281</ele>
        <time>2014-03-02T08:43:15.000Z</time>
      </trkpt>
      <trkpt lat="45.32527" lon="6.21871">
        <ele>1768</ele>
        <time>2014-03-02T08:43:16.000Z</time>
      </trkpt>
      <trkpt lat="45.32527" lon="6.2187">
        <ele>1768.1999511719</ele>
        <time>2014-03-02T08:43:17.000Z</time>
      </trkpt>
      <trkpt lat="45.32528" lon="6.21869">
        <ele>1768.4000244141</ele>
        <time>2014-03-02T08:43:18.000Z</time>
      </trkpt>
      <trkpt lat="45.32528" lon="6.21867">
        <ele>1768.5999755859</ele>
        <time>2014-03-02T08:43:19.000Z</time>
      </trkpt>
      <trkpt lat="45.32528" lon="6.21865">
        <ele>1768.8000488281</ele>
        <time>2014-03-02T08:43:20.000Z</time>
      </trkpt>
      <trkpt lat="45.32528" lon="6.21864">
        <ele>1768.8000488281</ele>
        <time>2014-03-02T08:43:21.000Z</time>
      </trkpt>
      <trkpt lat="45.32528" lon="6.21862">
        <ele>1768.8000488281</ele>
        <time>2014-03-02T08:43:22.000Z</time>
      </trkpt>
      <trkpt lat="45.32527" lon="6.2186">
        <ele>1769</ele>
        <time>2014-03-02T08:43:23.000Z</time>
      </trkpt>
      <trkpt lat="45.32527" lon="6.21858">
        <ele>1769</ele>
        <time>2014-03-02T08:43:24.000Z</time>
      </trkpt>
      <trkpt lat="45.32528" lon="6.21856">
        <ele>1769.4000244141</ele>
        <time>2014-03-02T08:43:25.000Z</time>
      </trkpt>
      <trkpt lat="45.32528" lon="6.21854">
        <ele>1769.8000488281</ele>
        <time>2014-03-02T08:43:26.000Z</time>
      </trkpt>
      <trkpt lat="45.32529" lon="6.21852">
        <ele>1770</ele>
        <time>2014-03-02T08:43:27.000Z</time>
      </trkpt>
      <trkpt lat="45.32529" lon="6.21851">
        <ele>1770.1999511719</ele>
        <time>2014-03-02T08:43:28.000Z</time>
      </trkpt>
      <trkpt lat="45.32529" lon="6.21849">
        <ele>1770.4000244141</ele>
        <time>2014-03-02T08:43:29.000Z</time>
      </trkpt>
      <trkpt lat="45.32529" lon="6.21848">
        <ele>1770.5999755859</ele>
        <time>2014-03-02T08:43:30.000Z</time>
      </trkpt>
      <trkpt lat="45.32529" lon="6.21847">
        <ele>1770.5999755859</ele>
        <time>2014-03-02T08:43:31.000Z</time>
      </trkpt>
      <trkpt lat="45.32529" lon="6.21846">
        <ele>1770.8000488281</ele>
        <time>2014-03-02T08:43:32.000Z</time>
      </trkpt>
      <trkpt lat="45.32529" lon="6.21845">
        <ele>1770.8000488281</ele>
        <time>2014-03-02T08:43:33.000Z</time>
      </trkpt>
      <trkpt lat="45.32529" lon="6.21844">
        <ele>1770.8000488281</ele>
        <time>2014-03-02T08:43:34.000Z</time>
      </trkpt>
      <trkpt lat="45.32529" lon="6.21842">
        <ele>1771</ele>
        <time>2014-03-02T08:43:35.000Z</time>
      </trkpt>
      <trkpt lat="45.3253" lon="6.21841">
        <ele>1771.1999511719</ele>
        <time>2014-03-02T08:43:36.000Z</time>
      </trkpt>
      <trkpt lat="45.32529" lon="6.2184">
        <ele>1771.1999511719</ele>
        <time>2014-03-02T08:43:37.000Z</time>
      </trkpt>
      <trkpt lat="45.3253" lon="6.21838">
        <ele>1771.4000244141</ele>
        <time>2014-03-02T08:43:38.000Z</time>
      </trkpt>
      <trkpt lat="45.3253" lon="6.21836">
        <ele>1771.5999755859</ele>
        <time>2014-03-02T08:43:39.000Z</time>
      </trkpt>
      <trkpt lat="45.3253" lon="6.21835">
        <ele>1771.8000488281</ele>
        <time>2014-03-02T08:43:40.000Z</time>
      </trkpt>
      <trkpt lat="45.32531" lon="6.21835">
        <ele>1772</ele>
        <time>2014-03-02T08:43:41.000Z</time>
      </trkpt>
      <trkpt lat="45.32531" lon="6.21833">
        <ele>1772.1999511719</ele>
        <time>2014-03-02T08:43:42.000Z</time>
      </trkpt>
      <trkpt lat="45.32531" lon="6.21831">
        <ele>1772.4000244141</ele>
        <time>2014-03-02T08:43:43.000Z</time>
      </trkpt>
      <trkpt lat="45.32532" lon="6.21829">
        <ele>1772.8000488281</ele>
        <time>2014-03-02T08:43:44.000Z</time>
      </trkpt>
      <trkpt lat="45.32532" lon="6.21827">
        <ele>1773</ele>
        <time>2014-03-02T08:43:45.000Z</time>
      </trkpt>
      <trkpt lat="45.32532" lon="6.21825">
        <ele>1773</ele>
        <time>2014-03-02T08:43:46.000Z</time>
      </trkpt>
      <trkpt lat="45.32532" lon="6.21823">
        <ele>1773.4000244141</ele>
        <time>2014-03-02T08:43:47.000Z</time>
      </trkpt>
      <trkpt lat="45.32532" lon="6.21823">
        <ele>1773.5999755859</ele>
        <time>2014-03-02T08:43:48.000Z</time>
      </trkpt>
      <trkpt lat="45.32533" lon="6.21821">
        <ele>1773.8000488281</ele>
        <time>2014-03-02T08:43:49.000Z</time>
      </trkpt>
      <trkpt lat="45.32533" lon="6.21819">
        <ele>1774</ele>
        <time>2014-03-02T08:43:50.000Z</time>
      </trkpt>
      <trkpt lat="45.32533" lon="6.21817">
        <ele>1774.1999511719</ele>
        <time>2014-03-02T08:43:51.000Z</time>
      </trkpt>
      <trkpt lat="45.32533" lon="6.21816">
        <ele>1774.4000244141</ele>
        <time>2014-03-02T08:43:52.000Z</time>
      </trkpt>
      <trkpt lat="45.32533" lon="6.21814">
        <ele>1774.4000244141</ele>
        <time>2014-03-02T08:43:53.000Z</time>
      </trkpt>
      <trkpt lat="45.32533" lon="6.21812">
        <ele>1774.5999755859</ele>
        <time>2014-03-02T08:43:54.000Z</time>
      </trkpt>
      <trkpt lat="45.32533" lon="6.21811">
        <ele>1775</ele>
        <time>2014-03-02T08:43:55.000Z</time>
      </trkpt>
      <trkpt lat="45.32534" lon="6.2181">
        <ele>1775.4000244141</ele>
        <time>2014-03-02T08:43:56.000Z</time>
      </trkpt>
      <trkpt lat="45.32534" lon="6.21809">
        <ele>1775.4000244141</ele>
        <time>2014-03-02T08:43:57.000Z</time>
      </trkpt>
      <trkpt lat="45.32535" lon="6.21808">
        <ele>1776.1999511719</ele>
        <time>2014-03-02T08:43:58.000Z</time>
      </trkpt>
      <trkpt lat="45.32536" lon="6.21806">
        <ele>1776.8000488281</ele>
        <time>2014-03-02T08:43:59.000Z</time>
      </trkpt>
      <trkpt lat="45.32536" lon="6.21806">
        <ele>1776.5999755859</ele>
        <time>2014-03-02T08:44:00.000Z</time>
      </trkpt>
      <trkpt lat="45.32536" lon="6.21804">
        <ele>1777.1999511719</ele>
        <time>2014-03-02T08:44:01.000Z</time>
      </trkpt>
      <trkpt lat="45.32536" lon="6.21804">
        <ele>1777</ele>
        <time>2014-03-02T08:44:02.000Z</time>
      </trkpt>
      <trkpt lat="45.32536" lon="6.21803">
        <ele>1777.4000244141</ele>
        <time>2014-03-02T08:44:03.000Z</time>
      </trkpt>
      <trkpt lat="45.32537" lon="6.21802">
        <ele>1778</ele>
        <time>2014-03-02T08:44:04.000Z</time>
      </trkpt>
      <trkpt lat="45.32538" lon="6.218">
        <ele>1778</ele>
        <time>2014-03-02T08:44:05.000Z</time>
      </trkpt>
      <trkpt lat="45.32538" lon="6.21799">
        <ele>1778.1999511719</ele>
        <time>2014-03-02T08:44:06.000Z</time>
      </trkpt>
      <trkpt lat="45.32539" lon="6.21798">
        <ele>1778.4000244141</ele>
        <time>2014-03-02T08:44:07.000Z</time>
      </trkpt>
      <trkpt lat="45.3254" lon="6.21797">
        <ele>1778.4000244141</ele>
        <time>2014-03-02T08:44:08.000Z</time>
      </trkpt>
      <trkpt lat="45.3254" lon="6.21795">
        <ele>1778.5999755859</ele>
        <time>2014-03-02T08:44:09.000Z</time>
      </trkpt>
      <trkpt lat="45.32541" lon="6.21794">
        <ele>1778.5999755859</ele>
        <time>2014-03-02T08:44:10.000Z</time>
      </trkpt>
      <trkpt lat="45.32542" lon="6.21792">
        <ele>1778.8000488281</ele>
        <time>2014-03-02T08:44:11.000Z</time>
      </trkpt>
      <trkpt lat="45.32542" lon="6.21791">
        <ele>1779</ele>
        <time>2014-03-02T08:44:12.000Z</time>
      </trkpt>
      <trkpt lat="45.32543" lon="6.2179">
        <ele>1779</ele>
        <time>2014-03-02T08:44:13.000Z</time>
      </trkpt>
      <trkpt lat="45.32544" lon="6.21789">
        <ele>1779.1999511719</ele>
        <time>2014-03-02T08:44:14.000Z</time>
      </trkpt>
      <trkpt lat="45.32544" lon="6.21788">
        <ele>1779.4000244141</ele>
        <time>2014-03-02T08:44:15.000Z</time>
      </trkpt>
      <trkpt lat="45.32545" lon="6.21787">
        <ele>1779.4000244141</ele>
        <time>2014-03-02T08:44:16.000Z</time>
      </trkpt>
      <trkpt lat="45.32546" lon="6.21786">
        <ele>1779.5999755859</ele>
        <time>2014-03-02T08:44:17.000Z</time>
      </trkpt>
      <trkpt lat="45.32546" lon="6.21785">
        <ele>1779.8000488281</ele>
        <time>2014-03-02T08:44:18.000Z</time>
      </trkpt>
      <trkpt lat="45.32546" lon="6.21784">
        <ele>1779.8000488281</ele>
        <time>2014-03-02T08:44:19.000Z</time>
      </trkpt>
      <trkpt lat="45.32545" lon="6.21784">
        <ele>1779.5999755859</ele>
        <time>2014-03-02T08:44:20.000Z</time>
      </trkpt>
      <trkpt lat="45.32546" lon="6.21783">
        <ele>1779.5999755859</ele>
        <time>2014-03-02T08:44:21.000Z</time>
      </trkpt>
      <trkpt lat="45.32546" lon="6.21783">
        <ele>1779.5999755859</ele>
        <time>2014-03-02T08:44:22.000Z</time>
      </trkpt>
      <trkpt lat="45.32546" lon="6.21782">
        <ele>1779.8000488281</ele>
        <time>2014-03-02T08:44:23.000Z</time>
      </trkpt>
      <trkpt lat="45.32547" lon="6.21781">
        <ele>1780</ele>
        <time>2014-03-02T08:44:24.000Z</time>
      </trkpt>
      <trkpt lat="45.32547" lon="6.21781">
        <ele>1780</ele>
        <time>2014-03-02T08:44:25.000Z</time>
      </trkpt>
      <trkpt lat="45.32547" lon="6.2178">
        <ele>1780</ele>
        <time>2014-03-02T08:44:26.000Z</time>
      </trkpt>
      <trkpt lat="45.32547" lon="6.21778">
        <ele>1780</ele>
        <time>2014-03-02T08:44:27.000Z</time>
      </trkpt>
      <trkpt lat="45.32547" lon="6.21778">
        <ele>1780</ele>
        <time>2014-03-02T08:44:28.000Z</time>
      </trkpt>
      <trkpt lat="45.32547" lon="6.21777">
        <ele>1780</ele>
        <time>2014-03-02T08:44:29.000Z</time>
      </trkpt>
      <trkpt lat="45.32548" lon="6.21775">
        <ele>1781</ele>
        <time>2014-03-02T08:44:30.000Z</time>
      </trkpt>
      <trkpt lat="45.32549" lon="6.21775">
        <ele>1781.5999755859</ele>
        <time>2014-03-02T08:44:31.000Z</time>
      </trkpt>
      <trkpt lat="45.3255" lon="6.21773">
        <ele>1782.1999511719</ele>
        <time>2014-03-02T08:44:32.000Z</time>
      </trkpt>
      <trkpt lat="45.32551" lon="6.21772">
        <ele>1783</ele>
        <time>2014-03-02T08:44:33.000Z</time>
      </trkpt>
      <trkpt lat="45.32552" lon="6.21772">
        <ele>1783.5999755859</ele>
        <time>2014-03-02T08:44:34.000Z</time>
      </trkpt>
      <trkpt lat="45.32552" lon="6.2177">
        <ele>1783.8000488281</ele>
        <time>2014-03-02T08:44:35.000Z</time>
      </trkpt>
      <trkpt lat="45.32553" lon="6.21769">
        <ele>1784.1999511719</ele>
        <time>2014-03-02T08:44:36.000Z</time>
      </trkpt>
      <trkpt lat="45.32553" lon="6.21768">
        <ele>1784.5999755859</ele>
        <time>2014-03-02T08:44:37.000Z</time>
      </trkpt>
      <trkpt lat="45.32554" lon="6.21766">
        <ele>1784.8000488281</ele>
        <time>2014-03-02T08:44:38.000Z</time>
      </trkpt>
      <trkpt lat="45.32554" lon="6.21766">
        <ele>1785</ele>
        <time>2014-03-02T08:44:39.000Z</time>
      </trkpt>
      <trkpt lat="45.32554" lon="6.21765">
        <ele>1785</ele>
        <time>2014-03-02T08:44:40.000Z</time>
      </trkpt>
      <trkpt lat="45.32555" lon="6.21763">
        <ele>1786</ele>
        <time>2014-03-02T08:44:41.000Z</time>
      </trkpt>
      <trkpt lat="45.32556" lon="6.21763">
        <ele>1786.5999755859</ele>
        <time>2014-03-02T08:44:42.000Z</time>
      </trkpt>
      <trkpt lat="45.32556" lon="6.21761">
        <ele>1787</ele>
        <time>2014-03-02T08:44:43.000Z</time>
      </trkpt>
      <trkpt lat="45.32556" lon="6.21761">
        <ele>1786.8000488281</ele>
        <time>2014-03-02T08:44:44.000Z</time>
      </trkpt>
      <trkpt lat="45.32556" lon="6.2176">
        <ele>1787</ele>
        <time>2014-03-02T08:44:45.000Z</time>
      </trkpt>
      <trkpt lat="45.32557" lon="6.21758">
        <ele>1787.4000244141</ele>
        <time>2014-03-02T08:44:46.000Z</time>
      </trkpt>
      <trkpt lat="45.32557" lon="6.21758">
        <ele>1787.4000244141</ele>
        <time>2014-03-02T08:44:47.000Z</time>
      </trkpt>
      <trkpt lat="45.32557" lon="6.21755">
        <ele>1787.4000244141</ele>
        <time>2014-03-02T08:44:48.000Z</time>
      </trkpt>
      <trkpt lat="45.32557" lon="6.21755">
        <ele>1787.4000244141</ele>
        <time>2014-03-02T08:44:49.000Z</time>
      </trkpt>
      <trkpt lat="45.32557" lon="6.21754">
        <ele>1787.4000244141</ele>
        <time>2014-03-02T08:44:50.000Z</time>
      </trkpt>
      <trkpt lat="45.32557" lon="6.21751">
        <ele>1787.4000244141</ele>
        <time>2014-03-02T08:44:51.000Z</time>
      </trkpt>
      <trkpt lat="45.32557" lon="6.2175">
        <ele>1787.4000244141</ele>
        <time>2014-03-02T08:44:52.000Z</time>
      </trkpt>
      <trkpt lat="45.32557" lon="6.21749">
        <ele>1787.4000244141</ele>
        <time>2014-03-02T08:44:53.000Z</time>
      </trkpt>
      <trkpt lat="45.32557" lon="6.21748">
        <ele>1787.5999755859</ele>
        <time>2014-03-02T08:44:54.000Z</time>
      </trkpt>
      <trkpt lat="45.32558" lon="6.21747">
        <ele>1787.8000488281</ele>
        <time>2014-03-02T08:44:55.000Z</time>
      </trkpt>
      <trkpt lat="45.32558" lon="6.21747">
        <ele>1787.8000488281</ele>
        <time>2014-03-02T08:44:56.000Z</time>
      </trkpt>
      <trkpt lat="45.32557" lon="6.21746">
        <ele>1787.8000488281</ele>
        <time>2014-03-02T08:44:57.000Z</time>
      </trkpt>
      <trkpt lat="45.32558" lon="6.21744">
        <ele>1788</ele>
        <time>2014-03-02T08:44:58.000Z</time>
      </trkpt>
      <trkpt lat="45.32558" lon="6.21743">
        <ele>1787.8000488281</ele>
        <time>2014-03-02T08:44:59.000Z</time>
      </trkpt>
      <trkpt lat="45.32557" lon="6.21741">
        <ele>1787.8000488281</ele>
        <time>2014-03-02T08:45:00.000Z</time>
      </trkpt>
      <trkpt lat="45.32558" lon="6.21741">
        <ele>1787.8000488281</ele>
        <time>2014-03-02T08:45:01.000Z</time>
      </trkpt>
      <trkpt lat="45.32558" lon="6.2174">
        <ele>1788</ele>
        <time>2014-03-02T08:45:02.000Z</time>
      </trkpt>
      <trkpt lat="45.32558" lon="6.21739">
        <ele>1788.1999511719</ele>
        <time>2014-03-02T08:45:03.000Z</time>
      </trkpt>
      <trkpt lat="45.32558" lon="6.21738">
        <ele>1788.5999755859</ele>
        <time>2014-03-02T08:45:04.000Z</time>
      </trkpt>
      <trkpt lat="45.32559" lon="6.21737">
        <ele>1789</ele>
        <time>2014-03-02T08:45:05.000Z</time>
      </trkpt>
      <trkpt lat="45.32559" lon="6.21736">
        <ele>1789.4000244141</ele>
        <time>2014-03-02T08:45:06.000Z</time>
      </trkpt>
      <trkpt lat="45.3256" lon="6.21734">
        <ele>1790.1999511719</ele>
        <time>2014-03-02T08:45:07.000Z</time>
      </trkpt>
      <trkpt lat="45.32561" lon="6.21734">
        <ele>1790.4000244141</ele>
        <time>2014-03-02T08:45:08.000Z</time>
      </trkpt>
      <trkpt lat="45.32562" lon="6.21733">
        <ele>1791.4000244141</ele>
        <time>2014-03-02T08:45:09.000Z</time>
      </trkpt>
      <trkpt lat="45.32562" lon="6.21733">
        <ele>1791.4000244141</ele>
        <time>2014-03-02T08:45:10.000Z</time>
      </trkpt>
      <trkpt lat="45.32562" lon="6.21732">
        <ele>1791.5999755859</ele>
        <time>2014-03-02T08:45:11.000Z</time>
      </trkpt>
      <trkpt lat="45.32562" lon="6.21731">
        <ele>1791.5999755859</ele>
        <time>2014-03-02T08:45:12.000Z</time>
      </trkpt>
      <trkpt lat="45.32562" lon="6.2173">
        <ele>1791.5999755859</ele>
        <time>2014-03-02T08:45:13.000Z</time>
      </trkpt>
      <trkpt lat="45.32561" lon="6.21729">
        <ele>1791.4000244141</ele>
        <time>2014-03-02T08:45:14.000Z</time>
      </trkpt>
      <trkpt lat="45.32561" lon="6.21728">
        <ele>1791.4000244141</ele>
        <time>2014-03-02T08:45:15.000Z</time>
      </trkpt>
      <trkpt lat="45.32561" lon="6.21727">
        <ele>1791.1999511719</ele>
        <time>2014-03-02T08:45:16.000Z</time>
      </trkpt>
      <trkpt lat="45.32561" lon="6.21727">
        <ele>1791.4000244141</ele>
        <time>2014-03-02T08:45:17.000Z</time>
      </trkpt>
      <trkpt lat="45.32561" lon="6.21726">
        <ele>1791.5999755859</ele>
        <time>2014-03-02T08:45:18.000Z</time>
      </trkpt>
      <trkpt lat="45.32561" lon="6.21725">
        <ele>1791.5999755859</ele>
        <time>2014-03-02T08:45:19.000Z</time>
      </trkpt>
      <trkpt lat="45.32562" lon="6.21725">
        <ele>1792</ele>
        <time>2014-03-02T08:45:20.000Z</time>
      </trkpt>
      <trkpt lat="45.32562" lon="6.21724">
        <ele>1792.5999755859</ele>
        <time>2014-03-02T08:45:21.000Z</time>
      </trkpt>
      <trkpt lat="45.32563" lon="6.21723">
        <ele>1793</ele>
        <time>2014-03-02T08:45:22.000Z</time>
      </trkpt>
      <trkpt lat="45.32563" lon="6.21722">
        <ele>1793.1999511719</ele>
        <time>2014-03-02T08:45:23.000Z</time>
      </trkpt>
      <trkpt lat="45.32563" lon="6.21721">
        <ele>1793.4000244141</ele>
        <time>2014-03-02T08:45:24.000Z</time>
      </trkpt>
      <trkpt lat="45.32564" lon="6.21719">
        <ele>1794</ele>
        <time>2014-03-02T08:45:25.000Z</time>
      </trkpt>
      <trkpt lat="45.32564" lon="6.21719">
        <ele>1794</ele>
        <time>2014-03-02T08:45:26.000Z</time>
      </trkpt>
      <trkpt lat="45.32564" lon="6.21718">
        <ele>1794.4000244141</ele>
        <time>2014-03-02T08:45:27.000Z</time>
      </trkpt>
      <trkpt lat="45.32565" lon="6.21717">
        <ele>1795</ele>
        <time>2014-03-02T08:45:28.000Z</time>
      </trkpt>
      <trkpt lat="45.32566" lon="6.21716">
        <ele>1795.5999755859</ele>
        <time>2014-03-02T08:45:29.000Z</time>
      </trkpt>
      <trkpt lat="45.32566" lon="6.21715">
        <ele>1796.1999511719</ele>
        <time>2014-03-02T08:45:30.000Z</time>
      </trkpt>
      <trkpt lat="45.32567" lon="6.21714">
        <ele>1796.5999755859</ele>
        <time>2014-03-02T08:45:31.000Z</time>
      </trkpt>
      <trkpt lat="45.32568" lon="6.21712">
        <ele>1797.4000244141</ele>
        <time>2014-03-02T08:45:32.000Z</time>
      </trkpt>
      <trkpt lat="45.32567" lon="6.21711">
        <ele>1797.4000244141</ele>
        <time>2014-03-02T08:45:33.000Z</time>
      </trkpt>
      <trkpt lat="45.32568" lon="6.21709">
        <ele>1797.8000488281</ele>
        <time>2014-03-02T08:45:34.000Z</time>
      </trkpt>
      <trkpt lat="45.32568" lon="6.21708">
        <ele>1798</ele>
        <time>2014-03-02T08:45:35.000Z</time>
      </trkpt>
      <trkpt lat="45.32568" lon="6.21707">
        <ele>1798.4000244141</ele>
        <time>2014-03-02T08:45:36.000Z</time>
      </trkpt>
      <trkpt lat="45.32568" lon="6.21707">
        <ele>1798.4000244141</ele>
        <time>2014-03-02T08:45:37.000Z</time>
      </trkpt>
      <trkpt lat="45.32569" lon="6.21706">
        <ele>1798.8000488281</ele>
        <time>2014-03-02T08:45:38.000Z</time>
      </trkpt>
      <trkpt lat="45.32569" lon="6.21705">
        <ele>1798.8000488281</ele>
        <time>2014-03-02T08:45:39.000Z</time>
      </trkpt>
      <trkpt lat="45.32569" lon="6.21705">
        <ele>1799</ele>
        <time>2014-03-02T08:45:40.000Z</time>
      </trkpt>
      <trkpt lat="45.3257" lon="6.21702">
        <ele>1799.8000488281</ele>
        <time>2014-03-02T08:45:41.000Z</time>
      </trkpt>
      <trkpt lat="45.3257" lon="6.21701">
        <ele>1800.4000244141</ele>
        <time>2014-03-02T08:45:42.000Z</time>
      </trkpt>
      <trkpt lat="45.32571" lon="6.21699">
        <ele>1800.8000488281</ele>
        <time>2014-03-02T08:45:43.000Z</time>
      </trkpt>
      <trkpt lat="45.32571" lon="6.21699">
        <ele>1800.8000488281</ele>
        <time>2014-03-02T08:45:44.000Z</time>
      </trkpt>
      <trkpt lat="45.32571" lon="6.21698">
        <ele>1801</ele>
        <time>2014-03-02T08:45:45.000Z</time>
      </trkpt>
      <trkpt lat="45.32571" lon="6.21697">
        <ele>1800.8000488281</ele>
        <time>2014-03-02T08:45:46.000Z</time>
      </trkpt>
      <trkpt lat="45.3257" lon="6.21697">
        <ele>1800.5999755859</ele>
        <time>2014-03-02T08:45:47.000Z</time>
      </trkpt>
      <trkpt lat="45.32571" lon="6.21695">
        <ele>1801</ele>
        <time>2014-03-02T08:45:48.000Z</time>
      </trkpt>
      <trkpt lat="45.32571" lon="6.21695">
        <ele>1801</ele>
        <time>2014-03-02T08:45:49.000Z</time>
      </trkpt>
      <trkpt lat="45.32571" lon="6.21693">
        <ele>1801.5999755859</ele>
        <time>2014-03-02T08:45:50.000Z</time>
      </trkpt>
      <trkpt lat="45.32572" lon="6.21693">
        <ele>1802</ele>
        <time>2014-03-02T08:45:51.000Z</time>
      </trkpt>
      <trkpt lat="45.32572" lon="6.21692">
        <ele>1802</ele>
        <time>2014-03-02T08:45:52.000Z</time>
      </trkpt>
      <trkpt lat="45.32572" lon="6.21691">
        <ele>1802.4000244141</ele>
        <time>2014-03-02T08:45:53.000Z</time>
      </trkpt>
      <trkpt lat="45.32572" lon="6.2169">
        <ele>1802.4000244141</ele>
        <time>2014-03-02T08:45:54.000Z</time>
      </trkpt>
      <trkpt lat="45.32573" lon="6.21688">
        <ele>1802.8000488281</ele>
        <time>2014-03-02T08:45:55.000Z</time>
      </trkpt>
      <trkpt lat="45.32573" lon="6.21687">
        <ele>1802.8000488281</ele>
        <time>2014-03-02T08:45:56.000Z</time>
      </trkpt>
      <trkpt lat="45.32573" lon="6.21685">
        <ele>1803</ele>
        <time>2014-03-02T08:45:57.000Z</time>
      </trkpt>
      <trkpt lat="45.32572" lon="6.21684">
        <ele>1803</ele>
        <time>2014-03-02T08:45:58.000Z</time>
      </trkpt>
      <trkpt lat="45.32572" lon="6.21683">
        <ele>1803</ele>
        <time>2014-03-02T08:45:59.000Z</time>
      </trkpt>
      <trkpt lat="45.32572" lon="6.21681">
        <ele>1803</ele>
        <time>2014-03-02T08:46:00.000Z</time>
      </trkpt>
      <trkpt lat="45.32572" lon="6.2168">
        <ele>1803</ele>
        <time>2014-03-02T08:46:01.000Z</time>
      </trkpt>
      <trkpt lat="45.32572" lon="6.21679">
        <ele>1802.8000488281</ele>
        <time>2014-03-02T08:46:02.000Z</time>
      </trkpt>
      <trkpt lat="45.32571" lon="6.21678">
        <ele>1802.5999755859</ele>
        <time>2014-03-02T08:46:03.000Z</time>
      </trkpt>
      <trkpt lat="45.32571" lon="6.21677">
        <ele>1802.4000244141</ele>
        <time>2014-03-02T08:46:04.000Z</time>
      </trkpt>
      <trkpt lat="45.32571" lon="6.21674">
        <ele>1802.4000244141</ele>
        <time>2014-03-02T08:46:05.000Z</time>
      </trkpt>
      <trkpt lat="45.32571" lon="6.21673">
        <ele>1802.8000488281</ele>
        <time>2014-03-02T08:46:06.000Z</time>
      </trkpt>
      <trkpt lat="45.32571" lon="6.21671">
        <ele>1803</ele>
        <time>2014-03-02T08:46:07.000Z</time>
      </trkpt>
      <trkpt lat="45.32572" lon="6.2167">
        <ele>1803.1999511719</ele>
        <time>2014-03-02T08:46:08.000Z</time>
      </trkpt>
      <trkpt lat="45.32572" lon="6.21669">
        <ele>1803</ele>
        <time>2014-03-02T08:46:09.000Z</time>
      </trkpt>
      <trkpt lat="45.32571" lon="6.21667">
        <ele>1802.8000488281</ele>
        <time>2014-03-02T08:46:10.000Z</time>
      </trkpt>
      <trkpt lat="45.32571" lon="6.21667">
        <ele>1802.5999755859</ele>
        <time>2014-03-02T08:46:11.000Z</time>
      </trkpt>
      <trkpt lat="45.32571" lon="6.21664">
        <ele>1802.1999511719</ele>
        <time>2014-03-02T08:46:12.000Z</time>
      </trkpt>
      <trkpt lat="45.3257" lon="6.21664">
        <ele>1801.5999755859</ele>
        <time>2014-03-02T08:46:13.000Z</time>
      </trkpt>
      <trkpt lat="45.3257" lon="6.21662">
        <ele>1801</ele>
        <time>2014-03-02T08:46:14.000Z</time>
      </trkpt>
      <trkpt lat="45.32569" lon="6.2166">
        <ele>1800.5999755859</ele>
        <time>2014-03-02T08:46:15.000Z</time>
      </trkpt>
      <trkpt lat="45.32569" lon="6.21659">
        <ele>1800.1999511719</ele>
        <time>2014-03-02T08:46:16.000Z</time>
      </trkpt>
      <trkpt lat="45.32569" lon="6.21657">
        <ele>1799.5999755859</ele>
        <time>2014-03-02T08:46:17.000Z</time>
      </trkpt>
      <trkpt lat="45.32569" lon="6.21657">
        <ele>1799.5999755859</ele>
        <time>2014-03-02T08:46:18.000Z</time>
      </trkpt>
      <trkpt lat="45.32569" lon="6.21654">
        <ele>1799.5999755859</ele>
        <time>2014-03-02T08:46:19.000Z</time>
      </trkpt>
      <trkpt lat="45.32569" lon="6.21654">
        <ele>1799.5999755859</ele>
        <time>2014-03-02T08:46:20.000Z</time>
      </trkpt>
      <trkpt lat="45.32569" lon="6.21653">
        <ele>1799.5999755859</ele>
        <time>2014-03-02T08:46:21.000Z</time>
      </trkpt>
      <trkpt lat="45.32569" lon="6.21651">
        <ele>1799.4000244141</ele>
        <time>2014-03-02T08:46:22.000Z</time>
      </trkpt>
      <trkpt lat="45.32569" lon="6.21651">
        <ele>1799.1999511719</ele>
        <time>2014-03-02T08:46:23.000Z</time>
      </trkpt>
      <trkpt lat="45.32569" lon="6.21649">
        <ele>1798.8000488281</ele>
        <time>2014-03-02T08:46:24.000Z</time>
      </trkpt>
      <trkpt lat="45.32569" lon="6.21649">
        <ele>1798.8000488281</ele>
        <time>2014-03-02T08:46:25.000Z</time>
      </trkpt>
      <trkpt lat="45.32568" lon="6.21647">
        <ele>1798.4000244141</ele>
        <time>2014-03-02T08:46:26.000Z</time>
      </trkpt>
      <trkpt lat="45.32568" lon="6.21646">
        <ele>1798.1999511719</ele>
        <time>2014-03-02T08:46:27.000Z</time>
      </trkpt>
      <trkpt lat="45.32568" lon="6.21644">
        <ele>1798</ele>
        <time>2014-03-02T08:46:28.000Z</time>
      </trkpt>
      <trkpt lat="45.32568" lon="6.21641">
        <ele>1797.8000488281</ele>
        <time>2014-03-02T08:46:29.000Z</time>
      </trkpt>
      <trkpt lat="45.32568" lon="6.2164">
        <ele>1797.5999755859</ele>
        <time>2014-03-02T08:46:30.000Z</time>
      </trkpt>
      <trkpt lat="45.32568" lon="6.21637">
        <ele>1797.4000244141</ele>
        <time>2014-03-02T08:46:31.000Z</time>
      </trkpt>
      <trkpt lat="45.32567" lon="6.21636">
        <ele>1797</ele>
        <time>2014-03-02T08:46:32.000Z</time>
      </trkpt>
      <trkpt lat="45.32566" lon="6.21634">
        <ele>1796.8000488281</ele>
        <time>2014-03-02T08:46:33.000Z</time>
      </trkpt>
      <trkpt lat="45.32566" lon="6.21632">
        <ele>1796.5999755859</ele>
        <time>2014-03-02T08:46:34.000Z</time>
      </trkpt>
      <trkpt lat="45.32566" lon="6.21631">
        <ele>1796.4000244141</ele>
        <time>2014-03-02T08:46:35.000Z</time>
      </trkpt>
      <trkpt lat="45.32566" lon="6.21629">
        <ele>1796.1999511719</ele>
        <time>2014-03-02T08:46:36.000Z</time>
      </trkpt>
      <trkpt lat="45.32566" lon="6.21627">
        <ele>1796</ele>
        <time>2014-03-02T08:46:37.000Z</time>
      </trkpt>
      <trkpt lat="45.32566" lon="6.21626">
        <ele>1796.4000244141</ele>
        <time>2014-03-02T08:46:39.000Z</time>
      </trkpt>
      <trkpt lat="45.32566" lon="6.21624">
        <ele>1796.1999511719</ele>
        <time>2014-03-02T08:46:40.000Z</time>
      </trkpt>
      <trkpt lat="45.32566" lon="6.21621">
        <ele>1796</ele>
        <time>2014-03-02T08:46:41.000Z</time>
      </trkpt>
      <trkpt lat="45.32566" lon="6.2162">
        <ele>1796</ele>
        <time>2014-03-02T08:46:42.000Z</time>
      </trkpt>
      <trkpt lat="45.32566" lon="6.21619">
        <ele>1795.8000488281</ele>
        <time>2014-03-02T08:46:43.000Z</time>
      </trkpt>
      <trkpt lat="45.32565" lon="6.21617">
        <ele>1795.5999755859</ele>
        <time>2014-03-02T08:46:44.000Z</time>
      </trkpt>
      <trkpt lat="45.32565" lon="6.21615">
        <ele>1795.1999511719</ele>
        <time>2014-03-02T08:46:45.000Z</time>
      </trkpt>
      <trkpt lat="45.32564" lon="6.21614">
        <ele>1794.8000488281</ele>
        <time>2014-03-02T08:46:46.000Z</time>
      </trkpt>
      <trkpt lat="45.32564" lon="6.21612">
        <ele>1794.8000488281</ele>
        <time>2014-03-02T08:46:47.000Z</time>
      </trkpt>
      <trkpt lat="45.32564" lon="6.2161">
        <ele>1794.5999755859</ele>
        <time>2014-03-02T08:46:48.000Z</time>
      </trkpt>
      <trkpt lat="45.32563" lon="6.21605">
        <ele>1794</ele>
        <time>2014-03-02T08:46:51.000Z</time>
      </trkpt>
      <trkpt lat="45.32563" lon="6.21603">
        <ele>1793.8000488281</ele>
        <time>2014-03-02T08:46:52.000Z</time>
      </trkpt>
      <trkpt lat="45.32563" lon="6.21601">
        <ele>1793.8000488281</ele>
        <time>2014-03-02T08:46:53.000Z</time>
      </trkpt>
      <trkpt lat="45.32563" lon="6.216">
        <ele>1793.5999755859</ele>
        <time>2014-03-02T08:46:54.000Z</time>
      </trkpt>
      <trkpt lat="45.32563" lon="6.21598">
        <ele>1793.5999755859</ele>
        <time>2014-03-02T08:46:55.000Z</time>
      </trkpt>
      <trkpt lat="45.32563" lon="6.21597">
        <ele>1793.8000488281</ele>
        <time>2014-03-02T08:46:56.000Z</time>
      </trkpt>
      <trkpt lat="45.32563" lon="6.21595">
        <ele>1793.8000488281</ele>
        <time>2014-03-02T08:46:57.000Z</time>
      </trkpt>
      <trkpt lat="45.32563" lon="6.21594">
        <ele>1793.4000244141</ele>
        <time>2014-03-02T08:46:58.000Z</time>
      </trkpt>
      <trkpt lat="45.32563" lon="6.21592">
        <ele>1793.1999511719</ele>
        <time>2014-03-02T08:46:59.000Z</time>
      </trkpt>
      <trkpt lat="45.32562" lon="6.2159">
        <ele>1793.1999511719</ele>
        <time>2014-03-02T08:47:00.000Z</time>
      </trkpt>
      <trkpt lat="45.32562" lon="6.21588">
        <ele>1793</ele>
        <time>2014-03-02T08:47:01.000Z</time>
      </trkpt>
      <trkpt lat="45.32562" lon="6.21586">
        <ele>1792.5999755859</ele>
        <time>2014-03-02T08:47:02.000Z</time>
      </trkpt>
      <trkpt lat="45.32562" lon="6.21583">
        <ele>1792.5999755859</ele>
        <time>2014-03-02T08:47:03.000Z</time>
      </trkpt>
      <trkpt lat="45.32562" lon="6.21581">
        <ele>1792.5999755859</ele>
        <time>2014-03-02T08:47:04.000Z</time>
      </trkpt>
      <trkpt lat="45.32562" lon="6.21579">
        <ele>1792.5999755859</ele>
        <time>2014-03-02T08:47:05.000Z</time>
      </trkpt>
      <trkpt lat="45.32562" lon="6.21578">
        <ele>1792.8000488281</ele>
        <time>2014-03-02T08:47:06.000Z</time>
      </trkpt>
      <trkpt lat="45.32562" lon="6.21576">
        <ele>1792.5999755859</ele>
        <time>2014-03-02T08:47:07.000Z</time>
      </trkpt>
      <trkpt lat="45.32562" lon="6.21574">
        <ele>1792.5999755859</ele>
        <time>2014-03-02T08:47:08.000Z</time>
      </trkpt>
      <trkpt lat="45.32562" lon="6.21573">
        <ele>1792.4000244141</ele>
        <time>2014-03-02T08:47:09.000Z</time>
      </trkpt>
      <trkpt lat="45.32562" lon="6.21571">
        <ele>1792.1999511719</ele>
        <time>2014-03-02T08:47:10.000Z</time>
      </trkpt>
      <trkpt lat="45.32562" lon="6.2157">
        <ele>1792.1999511719</ele>
        <time>2014-03-02T08:47:11.000Z</time>
      </trkpt>
      <trkpt lat="45.32562" lon="6.21568">
        <ele>1792.1999511719</ele>
        <time>2014-03-02T08:47:12.000Z</time>
      </trkpt>
      <trkpt lat="45.32562" lon="6.21566">
        <ele>1791.8000488281</ele>
        <time>2014-03-02T08:47:13.000Z</time>
      </trkpt>
      <trkpt lat="45.32562" lon="6.21565">
        <ele>1791.8000488281</ele>
        <time>2014-03-02T08:47:14.000Z</time>
      </trkpt>
      <trkpt lat="45.32562" lon="6.21563">
        <ele>1791.5999755859</ele>
        <time>2014-03-02T08:47:15.000Z</time>
      </trkpt>
      <trkpt lat="45.32562" lon="6.21561">
        <ele>1791.5999755859</ele>
        <time>2014-03-02T08:47:16.000Z</time>
      </trkpt>
      <trkpt lat="45.32562" lon="6.21554">
        <ele>1791.8000488281</ele>
        <time>2014-03-02T08:47:21.000Z</time>
      </trkpt>
      <trkpt lat="45.32562" lon="6.21553">
        <ele>1792</ele>
        <time>2014-03-02T08:47:22.000Z</time>
      </trkpt>
      <trkpt lat="45.32563" lon="6.21551">
        <ele>1792.1999511719</ele>
        <time>2014-03-02T08:47:23.000Z</time>
      </trkpt>
      <trkpt lat="45.32562" lon="6.21549">
        <ele>1792</ele>
        <time>2014-03-02T08:47:24.000Z</time>
      </trkpt>
      <trkpt lat="45.32562" lon="6.21548">
        <ele>1792</ele>
        <time>2014-03-02T08:47:25.000Z</time>
      </trkpt>
      <trkpt lat="45.32562" lon="6.21546">
        <ele>1791.8000488281</ele>
        <time>2014-03-02T08:47:26.000Z</time>
      </trkpt>
      <trkpt lat="45.32562" lon="6.21545">
        <ele>1791.8000488281</ele>
        <time>2014-03-02T08:47:27.000Z</time>
      </trkpt>
      <trkpt lat="45.32562" lon="6.21544">
        <ele>1791.8000488281</ele>
        <time>2014-03-02T08:47:28.000Z</time>
      </trkpt>
      <trkpt lat="45.32562" lon="6.21543">
        <ele>1791.8000488281</ele>
        <time>2014-03-02T08:47:29.000Z</time>
      </trkpt>
      <trkpt lat="45.32562" lon="6.21541">
        <ele>1792</ele>
        <time>2014-03-02T08:47:30.000Z</time>
      </trkpt>
      <trkpt lat="45.32562" lon="6.21539">
        <ele>1792.1999511719</ele>
        <time>2014-03-02T08:47:31.000Z</time>
      </trkpt>
      <trkpt lat="45.32562" lon="6.21538">
        <ele>1792</ele>
        <time>2014-03-02T08:47:32.000Z</time>
      </trkpt>
      <trkpt lat="45.32562" lon="6.21537">
        <ele>1792.1999511719</ele>
        <time>2014-03-02T08:47:33.000Z</time>
      </trkpt>
      <trkpt lat="45.32562" lon="6.21535">
        <ele>1792.1999511719</ele>
        <time>2014-03-02T08:47:34.000Z</time>
      </trkpt>
      <trkpt lat="45.32562" lon="6.21535">
        <ele>1792.4000244141</ele>
        <time>2014-03-02T08:47:35.000Z</time>
      </trkpt>
      <trkpt lat="45.32563" lon="6.21534">
        <ele>1792.5999755859</ele>
        <time>2014-03-02T08:47:36.000Z</time>
      </trkpt>
      <trkpt lat="45.32563" lon="6.21533">
        <ele>1792.8000488281</ele>
        <time>2014-03-02T08:47:37.000Z</time>
      </trkpt>
      <trkpt lat="45.32563" lon="6.21532">
        <ele>1793</ele>
        <time>2014-03-02T08:47:38.000Z</time>
      </trkpt>
      <trkpt lat="45.32564" lon="6.2153">
        <ele>1793.1999511719</ele>
        <time>2014-03-02T08:47:39.000Z</time>
      </trkpt>
      <trkpt lat="45.32564" lon="6.2153">
        <ele>1793.4000244141</ele>
        <time>2014-03-02T08:47:40.000Z</time>
      </trkpt>
      <trkpt lat="45.32564" lon="6.21528">
        <ele>1793.5999755859</ele>
        <time>2014-03-02T08:47:41.000Z</time>
      </trkpt>
      <trkpt lat="45.32564" lon="6.21527">
        <ele>1793.8000488281</ele>
        <time>2014-03-02T08:47:42.000Z</time>
      </trkpt>
      <trkpt lat="45.32565" lon="6.21526">
        <ele>1793.8000488281</ele>
        <time>2014-03-02T08:47:43.000Z</time>
      </trkpt>
      <trkpt lat="45.32564" lon="6.21524">
        <ele>1793.8000488281</ele>
        <time>2014-03-02T08:47:44.000Z</time>
      </trkpt>
      <trkpt lat="45.32565" lon="6.21523">
        <ele>1794.1999511719</ele>
        <time>2014-03-02T08:47:45.000Z</time>
      </trkpt>
      <trkpt lat="45.32565" lon="6.21522">
        <ele>1794.1999511719</ele>
        <time>2014-03-02T08:47:46.000Z</time>
      </trkpt>
      <trkpt lat="45.32565" lon="6.2152">
        <ele>1794.1999511719</ele>
        <time>2014-03-02T08:47:47.000Z</time>
      </trkpt>
      <trkpt lat="45.32565" lon="6.21519">
        <ele>1794</ele>
        <time>2014-03-02T08:47:48.000Z</time>
      </trkpt>
      <trkpt lat="45.32565" lon="6.21517">
        <ele>1794</ele>
        <time>2014-03-02T08:47:49.000Z</time>
      </trkpt>
      <trkpt lat="45.32564" lon="6.21515">
        <ele>1794</ele>
        <time>2014-03-02T08:47:50.000Z</time>
      </trkpt>
      <trkpt lat="45.32564" lon="6.21514">
        <ele>1793.8000488281</ele>
        <time>2014-03-02T08:47:51.000Z</time>
      </trkpt>
      <trkpt lat="45.32564" lon="6.21513">
        <ele>1793.8000488281</ele>
        <time>2014-03-02T08:47:52.000Z</time>
      </trkpt>
      <trkpt lat="45.32564" lon="6.21512">
        <ele>1794</ele>
        <time>2014-03-02T08:47:53.000Z</time>
      </trkpt>
      <trkpt lat="45.32565" lon="6.21512">
        <ele>1794.4000244141</ele>
        <time>2014-03-02T08:47:54.000Z</time>
      </trkpt>
      <trkpt lat="45.32565" lon="6.21509">
        <ele>1794.8000488281</ele>
        <time>2014-03-02T08:47:55.000Z</time>
      </trkpt>
      <trkpt lat="45.32566" lon="6.21508">
        <ele>1795.1999511719</ele>
        <time>2014-03-02T08:47:56.000Z</time>
      </trkpt>
      <trkpt lat="45.32566" lon="6.21507">
        <ele>1795.4000244141</ele>
        <time>2014-03-02T08:47:57.000Z</time>
      </trkpt>
      <trkpt lat="45.32567" lon="6.21506">
        <ele>1795.8000488281</ele>
        <time>2014-03-02T08:47:58.000Z</time>
      </trkpt>
      <trkpt lat="45.32567" lon="6.21506">
        <ele>1795.8000488281</ele>
        <time>2014-03-02T08:47:59.000Z</time>
      </trkpt>
      <trkpt lat="45.32567" lon="6.21505">
        <ele>1796</ele>
        <time>2014-03-02T08:48:00.000Z</time>
      </trkpt>
      <trkpt lat="45.32567" lon="6.21503">
        <ele>1796</ele>
        <time>2014-03-02T08:48:01.000Z</time>
      </trkpt>
      <trkpt lat="45.32567" lon="6.21501">
        <ele>1796.1999511719</ele>
        <time>2014-03-02T08:48:02.000Z</time>
      </trkpt>
      <trkpt lat="45.32568" lon="6.21499">
        <ele>1796.4000244141</ele>
        <time>2014-03-02T08:48:03.000Z</time>
      </trkpt>
      <trkpt lat="45.32568" lon="6.21498">
        <ele>1796.4000244141</ele>
        <time>2014-03-02T08:48:04.000Z</time>
      </trkpt>
      <trkpt lat="45.32568" lon="6.21497">
        <ele>1796.5999755859</ele>
        <time>2014-03-02T08:48:05.000Z</time>
      </trkpt>
      <trkpt lat="45.32569" lon="6.21497">
        <ele>1797</ele>
        <time>2014-03-02T08:48:06.000Z</time>
      </trkpt>
      <trkpt lat="45.3257" lon="6.21496">
        <ele>1797.1999511719</ele>
        <time>2014-03-02T08:48:07.000Z</time>
      </trkpt>
      <trkpt lat="45.3257" lon="6.21494">
        <ele>1797.5999755859</ele>
        <time>2014-03-02T08:48:08.000Z</time>
      </trkpt>
      <trkpt lat="45.32571" lon="6.21492">
        <ele>1798</ele>
        <time>2014-03-02T08:48:09.000Z</time>
      </trkpt>
      <trkpt lat="45.32571" lon="6.2149">
        <ele>1797.8000488281</ele>
        <time>2014-03-02T08:48:10.000Z</time>
      </trkpt>
      <trkpt lat="45.32571" lon="6.21489">
        <ele>1798</ele>
        <time>2014-03-02T08:48:11.000Z</time>
      </trkpt>
      <trkpt lat="45.32571" lon="6.21488">
        <ele>1797.8000488281</ele>
        <time>2014-03-02T08:48:12.000Z</time>
      </trkpt>
      <trkpt lat="45.32571" lon="6.21485">
        <ele>1797.5999755859</ele>
        <time>2014-03-02T08:48:13.000Z</time>
      </trkpt>
      <trkpt lat="45.32571" lon="6.21485">
        <ele>1797.5999755859</ele>
        <time>2014-03-02T08:48:14.000Z</time>
      </trkpt>
      <trkpt lat="45.32571" lon="6.21484">
        <ele>1797.5999755859</ele>
        <time>2014-03-02T08:48:15.000Z</time>
      </trkpt>
      <trkpt lat="45.32572" lon="6.21481">
        <ele>1798</ele>
        <time>2014-03-02T08:48:16.000Z</time>
      </trkpt>
      <trkpt lat="45.32572" lon="6.21481">
        <ele>1798.1999511719</ele>
        <time>2014-03-02T08:48:17.000Z</time>
      </trkpt>
      <trkpt lat="45.32573" lon="6.21479">
        <ele>1798.5999755859</ele>
        <time>2014-03-02T08:48:18.000Z</time>
      </trkpt>
      <trkpt lat="45.32573" lon="6.21478">
        <ele>1798.8000488281</ele>
        <time>2014-03-02T08:48:19.000Z</time>
      </trkpt>
      <trkpt lat="45.32574" lon="6.21477">
        <ele>1799.1999511719</ele>
        <time>2014-03-02T08:48:20.000Z</time>
      </trkpt>
      <trkpt lat="45.32574" lon="6.21475">
        <ele>1799.5999755859</ele>
        <time>2014-03-02T08:48:21.000Z</time>
      </trkpt>
      <trkpt lat="45.32575" lon="6.21475">
        <ele>1800</ele>
        <time>2014-03-02T08:48:22.000Z</time>
      </trkpt>
      <trkpt lat="45.32575" lon="6.21473">
        <ele>1800.1999511719</ele>
        <time>2014-03-02T08:48:23.000Z</time>
      </trkpt>
      <trkpt lat="45.32576" lon="6.21473">
        <ele>1800.5999755859</ele>
        <time>2014-03-02T08:48:24.000Z</time>
      </trkpt>
      <trkpt lat="45.32576" lon="6.21473">
        <ele>1800.5999755859</ele>
        <time>2014-03-02T08:48:25.000Z</time>
      </trkpt>
      <trkpt lat="45.32576" lon="6.21471">
        <ele>1801</ele>
        <time>2014-03-02T08:48:26.000Z</time>
      </trkpt>
      <trkpt lat="45.32576" lon="6.21471">
        <ele>1800.8000488281</ele>
        <time>2014-03-02T08:48:27.000Z</time>
      </trkpt>
      <trkpt lat="45.32576" lon="6.2147">
        <ele>1801</ele>
        <time>2014-03-02T08:48:28.000Z</time>
      </trkpt>
      <trkpt lat="45.32577" lon="6.21468">
        <ele>1801.5999755859</ele>
        <time>2014-03-02T08:48:29.000Z</time>
      </trkpt>
      <trkpt lat="45.32577" lon="6.21467">
        <ele>1802</ele>
        <time>2014-03-02T08:48:30.000Z</time>
      </trkpt>
      <trkpt lat="45.32577" lon="6.21465">
        <ele>1802.1999511719</ele>
        <time>2014-03-02T08:48:31.000Z</time>
      </trkpt>
      <trkpt lat="45.32578" lon="6.21464">
        <ele>1802.8000488281</ele>
        <time>2014-03-02T08:48:32.000Z</time>
      </trkpt>
      <trkpt lat="45.32578" lon="6.21463">
        <ele>1802.8000488281</ele>
        <time>2014-03-02T08:48:33.000Z</time>
      </trkpt>
      <trkpt lat="45.32578" lon="6.21462">
        <ele>1803</ele>
        <time>2014-03-02T08:48:34.000Z</time>
      </trkpt>
      <trkpt lat="45.32579" lon="6.21462">
        <ele>1803</ele>
        <time>2014-03-02T08:48:35.000Z</time>
      </trkpt>
      <trkpt lat="45.32579" lon="6.21461">
        <ele>1803.8000488281</ele>
        <time>2014-03-02T08:48:36.000Z</time>
      </trkpt>
      <trkpt lat="45.32579" lon="6.2146">
        <ele>1803.5999755859</ele>
        <time>2014-03-02T08:48:37.000Z</time>
      </trkpt>
      <trkpt lat="45.32579" lon="6.21458">
        <ele>1803.5999755859</ele>
        <time>2014-03-02T08:48:38.000Z</time>
      </trkpt>
      <trkpt lat="45.32579" lon="6.21457">
        <ele>1803.8000488281</ele>
        <time>2014-03-02T08:48:39.000Z</time>
      </trkpt>
      <trkpt lat="45.32579" lon="6.21457">
        <ele>1804</ele>
        <time>2014-03-02T08:48:40.000Z</time>
      </trkpt>
      <trkpt lat="45.32579" lon="6.21455">
        <ele>1804.4000244141</ele>
        <time>2014-03-02T08:48:41.000Z</time>
      </trkpt>
      <trkpt lat="45.32579" lon="6.21454">
        <ele>1804.4000244141</ele>
        <time>2014-03-02T08:48:42.000Z</time>
      </trkpt>
      <trkpt lat="45.3258" lon="6.21452">
        <ele>1804.8000488281</ele>
        <time>2014-03-02T08:48:43.000Z</time>
      </trkpt>
      <trkpt lat="45.32579" lon="6.21451">
        <ele>1804.5999755859</ele>
        <time>2014-03-02T08:48:44.000Z</time>
      </trkpt>
      <trkpt lat="45.3258" lon="6.2145">
        <ele>1804.8000488281</ele>
        <time>2014-03-02T08:48:45.000Z</time>
      </trkpt>
      <trkpt lat="45.32581" lon="6.21448">
        <ele>1805.5999755859</ele>
        <time>2014-03-02T08:48:46.000Z</time>
      </trkpt>
      <trkpt lat="45.32581" lon="6.21448">
        <ele>1806</ele>
        <time>2014-03-02T08:48:47.000Z</time>
      </trkpt>
      <trkpt lat="45.32582" lon="6.21447">
        <ele>1806.5999755859</ele>
        <time>2014-03-02T08:48:48.000Z</time>
      </trkpt>
      <trkpt lat="45.32583" lon="6.21446">
        <ele>1807.1999511719</ele>
        <time>2014-03-02T08:48:49.000Z</time>
      </trkpt>
      <trkpt lat="45.32584" lon="6.21445">
        <ele>1807.8000488281</ele>
        <time>2014-03-02T08:48:50.000Z</time>
      </trkpt>
      <trkpt lat="45.32584" lon="6.21445">
        <ele>1807.5999755859</ele>
        <time>2014-03-02T08:48:51.000Z</time>
      </trkpt>
      <trkpt lat="45.32585" lon="6.21444">
        <ele>1808.1999511719</ele>
        <time>2014-03-02T08:48:52.000Z</time>
      </trkpt>
      <trkpt lat="45.32585" lon="6.21442">
        <ele>1808.8000488281</ele>
        <time>2014-03-02T08:48:53.000Z</time>
      </trkpt>
      <trkpt lat="45.32585" lon="6.21442">
        <ele>1808.5999755859</ele>
        <time>2014-03-02T08:48:54.000Z</time>
      </trkpt>
      <trkpt lat="45.32585" lon="6.2144">
        <ele>1809</ele>
        <time>2014-03-02T08:48:55.000Z</time>
      </trkpt>
      <trkpt lat="45.32586" lon="6.21439">
        <ele>1809</ele>
        <time>2014-03-02T08:48:56.000Z</time>
      </trkpt>
      <trkpt lat="45.32586" lon="6.21438">
        <ele>1809.4000244141</ele>
        <time>2014-03-02T08:48:57.000Z</time>
      </trkpt>
      <trkpt lat="45.32586" lon="6.21437">
        <ele>1809.5999755859</ele>
        <time>2014-03-02T08:48:58.000Z</time>
      </trkpt>
      <trkpt lat="45.32586" lon="6.21437">
        <ele>1809.5999755859</ele>
        <time>2014-03-02T08:48:59.000Z</time>
      </trkpt>
      <trkpt lat="45.32586" lon="6.21436">
        <ele>1809.8000488281</ele>
        <time>2014-03-02T08:49:00.000Z</time>
      </trkpt>
      <trkpt lat="45.32586" lon="6.21435">
        <ele>1809.5999755859</ele>
        <time>2014-03-02T08:49:01.000Z</time>
      </trkpt>
      <trkpt lat="45.32586" lon="6.21434">
        <ele>1810</ele>
        <time>2014-03-02T08:49:02.000Z</time>
      </trkpt>
      <trkpt lat="45.32586" lon="6.21434">
        <ele>1810</ele>
        <time>2014-03-02T08:49:03.000Z</time>
      </trkpt>
      <trkpt lat="45.32587" lon="6.21432">
        <ele>1810.1999511719</ele>
        <time>2014-03-02T08:49:04.000Z</time>
      </trkpt>
      <trkpt lat="45.32588" lon="6.2143">
        <ele>1810.5999755859</ele>
        <time>2014-03-02T08:49:05.000Z</time>
      </trkpt>
      <trkpt lat="45.32589" lon="6.21429">
        <ele>1811.1999511719</ele>
        <time>2014-03-02T08:49:06.000Z</time>
      </trkpt>
      <trkpt lat="45.32589" lon="6.21427">
        <ele>1811.5999755859</ele>
        <time>2014-03-02T08:49:07.000Z</time>
      </trkpt>
      <trkpt lat="45.3259" lon="6.21427">
        <ele>1811.8000488281</ele>
        <time>2014-03-02T08:49:08.000Z</time>
      </trkpt>
      <trkpt lat="45.3259" lon="6.21426">
        <ele>1812.1999511719</ele>
        <time>2014-03-02T08:49:09.000Z</time>
      </trkpt>
      <trkpt lat="45.32591" lon="6.21424">
        <ele>1812.5999755859</ele>
        <time>2014-03-02T08:49:10.000Z</time>
      </trkpt>
      <trkpt lat="45.32592" lon="6.21423">
        <ele>1813</ele>
        <time>2014-03-02T08:49:11.000Z</time>
      </trkpt>
      <trkpt lat="45.32593" lon="6.21422">
        <ele>1813.5999755859</ele>
        <time>2014-03-02T08:49:12.000Z</time>
      </trkpt>
      <trkpt lat="45.32593" lon="6.21422">
        <ele>1813.4000244141</ele>
        <time>2014-03-02T08:49:13.000Z</time>
      </trkpt>
      <trkpt lat="45.32594" lon="6.21421">
        <ele>1813.8000488281</ele>
        <time>2014-03-02T08:49:14.000Z</time>
      </trkpt>
      <trkpt lat="45.32595" lon="6.2142">
        <ele>1814.4000244141</ele>
        <time>2014-03-02T08:49:15.000Z</time>
      </trkpt>
      <trkpt lat="45.32595" lon="6.21419">
        <ele>1814.4000244141</ele>
        <time>2014-03-02T08:49:16.000Z</time>
      </trkpt>
      <trkpt lat="45.32595" lon="6.21417">
        <ele>1814.5999755859</ele>
        <time>2014-03-02T08:49:17.000Z</time>
      </trkpt>
      <trkpt lat="45.32595" lon="6.21417">
        <ele>1814.5999755859</ele>
        <time>2014-03-02T08:49:18.000Z</time>
      </trkpt>
      <trkpt lat="45.32596" lon="6.21415">
        <ele>1815</ele>
        <time>2014-03-02T08:49:19.000Z</time>
      </trkpt>
      <trkpt lat="45.32597" lon="6.21413">
        <ele>1815.4000244141</ele>
        <time>2014-03-02T08:49:20.000Z</time>
      </trkpt>
      <trkpt lat="45.32597" lon="6.21412">
        <ele>1815.8000488281</ele>
        <time>2014-03-02T08:49:21.000Z</time>
      </trkpt>
      <trkpt lat="45.32597" lon="6.21411">
        <ele>1816</ele>
        <time>2014-03-02T08:49:22.000Z</time>
      </trkpt>
      <trkpt lat="45.32597" lon="6.21411">
        <ele>1815.8000488281</ele>
        <time>2014-03-02T08:49:23.000Z</time>
      </trkpt>
      <trkpt lat="45.32597" lon="6.21408">
        <ele>1816</ele>
        <time>2014-03-02T08:49:24.000Z</time>
      </trkpt>
      <trkpt lat="45.32598" lon="6.21407">
        <ele>1816.4000244141</ele>
        <time>2014-03-02T08:49:25.000Z</time>
      </trkpt>
      <trkpt lat="45.32599" lon="6.21406">
        <ele>1816.8000488281</ele>
        <time>2014-03-02T08:49:26.000Z</time>
      </trkpt>
      <trkpt lat="45.326" lon="6.21405">
        <ele>1817.4000244141</ele>
        <time>2014-03-02T08:49:27.000Z</time>
      </trkpt>
      <trkpt lat="45.32601" lon="6.21404">
        <ele>1817.8000488281</ele>
        <time>2014-03-02T08:49:28.000Z</time>
      </trkpt>
      <trkpt lat="45.32601" lon="6.21402">
        <ele>1818.1999511719</ele>
        <time>2014-03-02T08:49:29.000Z</time>
      </trkpt>
      <trkpt lat="45.32602" lon="6.21401">
        <ele>1818.5999755859</ele>
        <time>2014-03-02T08:49:30.000Z</time>
      </trkpt>
      <trkpt lat="45.32602" lon="6.21402">
        <ele>1818.5999755859</ele>
        <time>2014-03-02T08:49:31.000Z</time>
      </trkpt>
      <trkpt lat="45.32603" lon="6.214">
        <ele>1819</ele>
        <time>2014-03-02T08:49:32.000Z</time>
      </trkpt>
      <trkpt lat="45.32603" lon="6.214">
        <ele>1818.8000488281</ele>
        <time>2014-03-02T08:49:33.000Z</time>
      </trkpt>
      <trkpt lat="45.32603" lon="6.21398">
        <ele>1819</ele>
        <time>2014-03-02T08:49:34.000Z</time>
      </trkpt>
      <trkpt lat="45.32602" lon="6.21398">
        <ele>1818.8000488281</ele>
        <time>2014-03-02T08:49:35.000Z</time>
      </trkpt>
      <trkpt lat="45.32603" lon="6.21397">
        <ele>1818.8000488281</ele>
        <time>2014-03-02T08:49:36.000Z</time>
      </trkpt>
      <trkpt lat="45.32604" lon="6.21395">
        <ele>1819.4000244141</ele>
        <time>2014-03-02T08:49:37.000Z</time>
      </trkpt>
      <trkpt lat="45.32604" lon="6.21395">
        <ele>1819.4000244141</ele>
        <time>2014-03-02T08:49:38.000Z</time>
      </trkpt>
      <trkpt lat="45.32605" lon="6.21393">
        <ele>1820.4000244141</ele>
        <time>2014-03-02T08:49:39.000Z</time>
      </trkpt>
      <trkpt lat="45.32606" lon="6.21392">
        <ele>1820.8000488281</ele>
        <time>2014-03-02T08:49:40.000Z</time>
      </trkpt>
      <trkpt lat="45.32606" lon="6.2139">
        <ele>1821</ele>
        <time>2014-03-02T08:49:41.000Z</time>
      </trkpt>
      <trkpt lat="45.32606" lon="6.2139">
        <ele>1821.1999511719</ele>
        <time>2014-03-02T08:49:42.000Z</time>
      </trkpt>
      <trkpt lat="45.32607" lon="6.21388">
        <ele>1821.5999755859</ele>
        <time>2014-03-02T08:49:43.000Z</time>
      </trkpt>
      <trkpt lat="45.32607" lon="6.21388">
        <ele>1821.5999755859</ele>
        <time>2014-03-02T08:49:44.000Z</time>
      </trkpt>
      <trkpt lat="45.32607" lon="6.21388">
        <ele>1821.5999755859</ele>
        <time>2014-03-02T08:49:45.000Z</time>
      </trkpt>
      <trkpt lat="45.32608" lon="6.21386">
        <ele>1822.1999511719</ele>
        <time>2014-03-02T08:49:46.000Z</time>
      </trkpt>
      <trkpt lat="45.32608" lon="6.21385">
        <ele>1822.4000244141</ele>
        <time>2014-03-02T08:49:47.000Z</time>
      </trkpt>
      <trkpt lat="45.32609" lon="6.21384">
        <ele>1822.8000488281</ele>
        <time>2014-03-02T08:49:48.000Z</time>
      </trkpt>
      <trkpt lat="45.32609" lon="6.21383">
        <ele>1823</ele>
        <time>2014-03-02T08:49:49.000Z</time>
      </trkpt>
      <trkpt lat="45.32609" lon="6.21382">
        <ele>1823.1999511719</ele>
        <time>2014-03-02T08:49:50.000Z</time>
      </trkpt>
      <trkpt lat="45.32609" lon="6.21382">
        <ele>1823</ele>
        <time>2014-03-02T08:49:51.000Z</time>
      </trkpt>
      <trkpt lat="45.32609" lon="6.21381">
        <ele>1823.1999511719</ele>
        <time>2014-03-02T08:49:52.000Z</time>
      </trkpt>
      <trkpt lat="45.3261" lon="6.2138">
        <ele>1823.8000488281</ele>
        <time>2014-03-02T08:49:53.000Z</time>
      </trkpt>
      <trkpt lat="45.32611" lon="6.21379">
        <ele>1824.1999511719</ele>
        <time>2014-03-02T08:49:54.000Z</time>
      </trkpt>
      <trkpt lat="45.32612" lon="6.21378">
        <ele>1824.8000488281</ele>
        <time>2014-03-02T08:49:55.000Z</time>
      </trkpt>
      <trkpt lat="45.32611" lon="6.21378">
        <ele>1824.5999755859</ele>
        <time>2014-03-02T08:49:56.000Z</time>
      </trkpt>
      <trkpt lat="45.32611" lon="6.21378">
        <ele>1824.5999755859</ele>
        <time>2014-03-02T08:49:57.000Z</time>
      </trkpt>
      <trkpt lat="45.32611" lon="6.21377">
        <ele>1824.8000488281</ele>
        <time>2014-03-02T08:49:58.000Z</time>
      </trkpt>
      <trkpt lat="45.32612" lon="6.21375">
        <ele>1825</ele>
        <time>2014-03-02T08:49:59.000Z</time>
      </trkpt>
      <trkpt lat="45.32612" lon="6.21375">
        <ele>1824.8000488281</ele>
        <time>2014-03-02T08:50:00.000Z</time>
      </trkpt>
      <trkpt lat="45.32612" lon="6.21374">
        <ele>1824.8000488281</ele>
        <time>2014-03-02T08:50:01.000Z</time>
      </trkpt>
      <trkpt lat="45.32613" lon="6.21372">
        <ele>1825</ele>
        <time>2014-03-02T08:50:02.000Z</time>
      </trkpt>
      <trkpt lat="45.32613" lon="6.21372">
        <ele>1824.8000488281</ele>
        <time>2014-03-02T08:50:03.000Z</time>
      </trkpt>
      <trkpt lat="45.32613" lon="6.21369">
        <ele>1824.8000488281</ele>
        <time>2014-03-02T08:50:04.000Z</time>
      </trkpt>
      <trkpt lat="45.32613" lon="6.21369">
        <ele>1824.8000488281</ele>
        <time>2014-03-02T08:50:05.000Z</time>
      </trkpt>
      <trkpt lat="45.32614" lon="6.21367">
        <ele>1825</ele>
        <time>2014-03-02T08:50:06.000Z</time>
      </trkpt>
      <trkpt lat="45.32614" lon="6.21367">
        <ele>1825</ele>
        <time>2014-03-02T08:50:07.000Z</time>
      </trkpt>
      <trkpt lat="45.32615" lon="6.21365">
        <ele>1825</ele>
        <time>2014-03-02T08:50:08.000Z</time>
      </trkpt>
      <trkpt lat="45.32615" lon="6.21365">
        <ele>1825</ele>
        <time>2014-03-02T08:50:09.000Z</time>
      </trkpt>
      <trkpt lat="45.32616" lon="6.21365">
        <ele>1825.1999511719</ele>
        <time>2014-03-02T08:50:10.000Z</time>
      </trkpt>
      <trkpt lat="45.32615" lon="6.21365">
        <ele>1825</ele>
        <time>2014-03-02T08:50:11.000Z</time>
      </trkpt>
      <trkpt lat="45.32615" lon="6.21365">
        <ele>1825</ele>
        <time>2014-03-02T08:50:12.000Z</time>
      </trkpt>
      <trkpt lat="45.32616" lon="6.21364">
        <ele>1825</ele>
        <time>2014-03-02T08:50:13.000Z</time>
      </trkpt>
      <trkpt lat="45.32615" lon="6.21363">
        <ele>1825</ele>
        <time>2014-03-02T08:50:14.000Z</time>
      </trkpt>
      <trkpt lat="45.32615" lon="6.21362">
        <ele>1824.8000488281</ele>
        <time>2014-03-02T08:50:15.000Z</time>
      </trkpt>
      <trkpt lat="45.32615" lon="6.21361">
        <ele>1824.8000488281</ele>
        <time>2014-03-02T08:50:16.000Z</time>
      </trkpt>
      <trkpt lat="45.32615" lon="6.2136">
        <ele>1824.5999755859</ele>
        <time>2014-03-02T08:50:17.000Z</time>
      </trkpt>
      <trkpt lat="45.32615" lon="6.2136">
        <ele>1824.4000244141</ele>
        <time>2014-03-02T08:50:18.000Z</time>
      </trkpt>
      <trkpt lat="45.32615" lon="6.2136">
        <ele>1824.4000244141</ele>
        <time>2014-03-02T08:50:19.000Z</time>
      </trkpt>
      <trkpt lat="45.32615" lon="6.2136">
        <ele>1824.4000244141</ele>
        <time>2014-03-02T08:50:20.000Z</time>
      </trkpt>
      <trkpt lat="45.32615" lon="6.2136">
        <ele>1824.4000244141</ele>
        <time>2014-03-02T08:50:21.000Z</time>
      </trkpt>
      <trkpt lat="45.32615" lon="6.2136">
        <ele>1824.4000244141</ele>
        <time>2014-03-02T08:50:22.000Z</time>
      </trkpt>
      <trkpt lat="45.32615" lon="6.2136">
        <ele>1824.4000244141</ele>
        <time>2014-03-02T08:50:23.000Z</time>
      </trkpt>
      <trkpt lat="45.32615" lon="6.2136">
        <ele>1824.4000244141</ele>
        <time>2014-03-02T08:50:24.000Z</time>
      </trkpt>
      <trkpt lat="45.32615" lon="6.2136">
        <ele>1824.4000244141</ele>
        <time>2014-03-02T08:50:25.000Z</time>
      </trkpt>
      <trkpt lat="45.32615" lon="6.2136">
        <ele>1824.4000244141</ele>
        <time>2014-03-02T08:50:26.000Z</time>
      </trkpt>
      <trkpt lat="45.32615" lon="6.2136">
        <ele>1824.4000244141</ele>
        <time>2014-03-02T08:50:27.000Z</time>
      </trkpt>
      <trkpt lat="45.32614" lon="6.21358">
        <ele>1824.1999511719</ele>
        <time>2014-03-02T08:50:28.000Z</time>
      </trkpt>
      <trkpt lat="45.32614" lon="6.21358">
        <ele>1824.1999511719</ele>
        <time>2014-03-02T08:50:29.000Z</time>
      </trkpt>
      <trkpt lat="45.32614" lon="6.21357">
        <ele>1824</ele>
        <time>2014-03-02T08:50:30.000Z</time>
      </trkpt>
      <trkpt lat="45.32612" lon="6.21355">
        <ele>1823.4000244141</ele>
        <time>2014-03-02T08:50:31.000Z</time>
      </trkpt>
      <trkpt lat="45.32612" lon="6.21355">
        <ele>1823.4000244141</ele>
        <time>2014-03-02T08:50:32.000Z</time>
      </trkpt>
      <trkpt lat="45.32611" lon="6.21353">
        <ele>1822.8000488281</ele>
        <time>2014-03-02T08:50:33.000Z</time>
      </trkpt>
      <trkpt lat="45.32609" lon="6.21352">
        <ele>1822.1999511719</ele>
        <time>2014-03-02T08:50:34.000Z</time>
      </trkpt>
      <trkpt lat="45.32609" lon="6.21351">
        <ele>1822</ele>
        <time>2014-03-02T08:50:35.000Z</time>
      </trkpt>
      <trkpt lat="45.32607" lon="6.21349">
        <ele>1821.4000244141</ele>
        <time>2014-03-02T08:50:36.000Z</time>
      </trkpt>
      <trkpt lat="45.32607" lon="6.21348">
        <ele>1821.4000244141</ele>
        <time>2014-03-02T08:50:37.000Z</time>
      </trkpt>
      <trkpt lat="45.32606" lon="6.21346">
        <ele>1820.8000488281</ele>
        <time>2014-03-02T08:50:38.000Z</time>
      </trkpt>
      <trkpt lat="45.32606" lon="6.21344">
        <ele>1820.5999755859</ele>
        <time>2014-03-02T08:50:39.000Z</time>
      </trkpt>
      <trkpt lat="45.32606" lon="6.21344">
        <ele>1820.5999755859</ele>
        <time>2014-03-02T08:50:40.000Z</time>
      </trkpt>
      <trkpt lat="45.32605" lon="6.21341">
        <ele>1820.1999511719</ele>
        <time>2014-03-02T08:50:41.000Z</time>
      </trkpt>
      <trkpt lat="45.32605" lon="6.2134">
        <ele>1820</ele>
        <time>2014-03-02T08:50:42.000Z</time>
      </trkpt>
      <trkpt lat="45.32605" lon="6.21338">
        <ele>1819.8000488281</ele>
        <time>2014-03-02T08:50:43.000Z</time>
      </trkpt>
      <trkpt lat="45.32605" lon="6.21338">
        <ele>1819.8000488281</ele>
        <time>2014-03-02T08:50:44.000Z</time>
      </trkpt>
      <trkpt lat="45.32605" lon="6.21337">
        <ele>1819.5999755859</ele>
        <time>2014-03-02T08:50:45.000Z</time>
      </trkpt>
      <trkpt lat="45.32605" lon="6.21334">
        <ele>1819.4000244141</ele>
        <time>2014-03-02T08:50:46.000Z</time>
      </trkpt>
      <trkpt lat="45.32605" lon="6.21333">
        <ele>1819.4000244141</ele>
        <time>2014-03-02T08:50:47.000Z</time>
      </trkpt>
      <trkpt lat="45.32605" lon="6.21332">
        <ele>1819.4000244141</ele>
        <time>2014-03-02T08:50:48.000Z</time>
      </trkpt>
      <trkpt lat="45.32605" lon="6.21332">
        <ele>1819.4000244141</ele>
        <time>2014-03-02T08:50:49.000Z</time>
      </trkpt>
      <trkpt lat="45.32606" lon="6.21331">
        <ele>1819.5999755859</ele>
        <time>2014-03-02T08:50:50.000Z</time>
      </trkpt>
      <trkpt lat="45.32607" lon="6.21331">
        <ele>1819.8000488281</ele>
        <time>2014-03-02T08:50:51.000Z</time>
      </trkpt>
      <trkpt lat="45.32607" lon="6.2133">
        <ele>1819.8000488281</ele>
        <time>2014-03-02T08:50:52.000Z</time>
      </trkpt>
      <trkpt lat="45.32608" lon="6.2133">
        <ele>1820</ele>
        <time>2014-03-02T08:50:53.000Z</time>
      </trkpt>
      <trkpt lat="45.32609" lon="6.2133">
        <ele>1820.1999511719</ele>
        <time>2014-03-02T08:50:54.000Z</time>
      </trkpt>
      <trkpt lat="45.3261" lon="6.21329">
        <ele>1820.4000244141</ele>
        <time>2014-03-02T08:50:55.000Z</time>
      </trkpt>
      <trkpt lat="45.3261" lon="6.21329">
        <ele>1820.5999755859</ele>
        <time>2014-03-02T08:50:56.000Z</time>
      </trkpt>
      <trkpt lat="45.32611" lon="6.21329">
        <ele>1821</ele>
        <time>2014-03-02T08:50:57.000Z</time>
      </trkpt>
      <trkpt lat="45.32612" lon="6.21329">
        <ele>1821.1999511719</ele>
        <time>2014-03-02T08:50:58.000Z</time>
      </trkpt>
      <trkpt lat="45.32613" lon="6.21329">
        <ele>1821.4000244141</ele>
        <time>2014-03-02T08:50:59.000Z</time>
      </trkpt>
      <trkpt lat="45.32613" lon="6.21329">
        <ele>1821.4000244141</ele>
        <time>2014-03-02T08:51:00.000Z</time>
      </trkpt>
      <trkpt lat="45.32613" lon="6.21329">
        <ele>1821.4000244141</ele>
        <time>2014-03-02T08:51:01.000Z</time>
      </trkpt>
      <trkpt lat="45.32613" lon="6.21329">
        <ele>1821.4000244141</ele>
        <time>2014-03-02T08:51:02.000Z</time>
      </trkpt>
      <trkpt lat="45.32613" lon="6.21329">
        <ele>1821.4000244141</ele>
        <time>2014-03-02T08:51:03.000Z</time>
      </trkpt>
      <trkpt lat="45.32613" lon="6.21329">
        <ele>1821.4000244141</ele>
        <time>2014-03-02T08:51:04.000Z</time>
      </trkpt>
      <trkpt lat="45.32613" lon="6.21329">
        <ele>1821.4000244141</ele>
        <time>2014-03-02T08:51:05.000Z</time>
      </trkpt>
      <trkpt lat="45.32613" lon="6.21329">
        <ele>1821.4000244141</ele>
        <time>2014-03-02T08:51:06.000Z</time>
      </trkpt>
      <trkpt lat="45.32614" lon="6.21329">
        <ele>1821.5999755859</ele>
        <time>2014-03-02T08:51:07.000Z</time>
      </trkpt>
      <trkpt lat="45.32614" lon="6.21329">
        <ele>1821.8000488281</ele>
        <time>2014-03-02T08:51:08.000Z</time>
      </trkpt>
      <trkpt lat="45.32616" lon="6.21328">
        <ele>1822</ele>
        <time>2014-03-02T08:51:09.000Z</time>
      </trkpt>
      <trkpt lat="45.32616" lon="6.21328">
        <ele>1822.1999511719</ele>
        <time>2014-03-02T08:51:10.000Z</time>
      </trkpt>
      <trkpt lat="45.32617" lon="6.21328">
        <ele>1822.4000244141</ele>
        <time>2014-03-02T08:51:11.000Z</time>
      </trkpt>
      <trkpt lat="45.32617" lon="6.21328">
        <ele>1822.5999755859</ele>
        <time>2014-03-02T08:51:12.000Z</time>
      </trkpt>
      <trkpt lat="45.32618" lon="6.21328">
        <ele>1822.5999755859</ele>
        <time>2014-03-02T08:51:13.000Z</time>
      </trkpt>
      <trkpt lat="45.32618" lon="6.21328">
        <ele>1822.8000488281</ele>
        <time>2014-03-02T08:51:14.000Z</time>
      </trkpt>
      <trkpt lat="45.32619" lon="6.21327">
        <ele>1822.8000488281</ele>
        <time>2014-03-02T08:51:15.000Z</time>
      </trkpt>
      <trkpt lat="45.32619" lon="6.21326">
        <ele>1823</ele>
        <time>2014-03-02T08:51:16.000Z</time>
      </trkpt>
      <trkpt lat="45.3262" lon="6.21325">
        <ele>1823</ele>
        <time>2014-03-02T08:51:17.000Z</time>
      </trkpt>
      <trkpt lat="45.32621" lon="6.21324">
        <ele>1823.4000244141</ele>
        <time>2014-03-02T08:51:18.000Z</time>
      </trkpt>
      <trkpt lat="45.32622" lon="6.21324">
        <ele>1823.5999755859</ele>
        <time>2014-03-02T08:51:19.000Z</time>
      </trkpt>
      <trkpt lat="45.32623" lon="6.21323">
        <ele>1823.8000488281</ele>
        <time>2014-03-02T08:51:20.000Z</time>
      </trkpt>
      <trkpt lat="45.32624" lon="6.21323">
        <ele>1824</ele>
        <time>2014-03-02T08:51:21.000Z</time>
      </trkpt>
      <trkpt lat="45.32624" lon="6.21322">
        <ele>1824.1999511719</ele>
        <time>2014-03-02T08:51:22.000Z</time>
      </trkpt>
      <trkpt lat="45.32625" lon="6.21322">
        <ele>1824.1999511719</ele>
        <time>2014-03-02T08:51:23.000Z</time>
      </trkpt>
      <trkpt lat="45.32626" lon="6.21321">
        <ele>1824.4000244141</ele>
        <time>2014-03-02T08:51:24.000Z</time>
      </trkpt>
      <trkpt lat="45.32625" lon="6.21322">
        <ele>1824.4000244141</ele>
        <time>2014-03-02T08:51:25.000Z</time>
      </trkpt>
      <trkpt lat="45.32626" lon="6.21321">
        <ele>1824.5999755859</ele>
        <time>2014-03-02T08:51:26.000Z</time>
      </trkpt>
      <trkpt lat="45.32626" lon="6.21321">
        <ele>1824.4000244141</ele>
        <time>2014-03-02T08:51:27.000Z</time>
      </trkpt>
      <trkpt lat="45.32626" lon="6.2132">
        <ele>1824.4000244141</ele>
        <time>2014-03-02T08:51:28.000Z</time>
      </trkpt>
      <trkpt lat="45.32627" lon="6.21319">
        <ele>1824.4000244141</ele>
        <time>2014-03-02T08:51:29.000Z</time>
      </trkpt>
      <trkpt lat="45.32626" lon="6.21318">
        <ele>1824.1999511719</ele>
        <time>2014-03-02T08:51:30.000Z</time>
      </trkpt>
      <trkpt lat="45.32626" lon="6.21316">
        <ele>1824</ele>
        <time>2014-03-02T08:51:31.000Z</time>
      </trkpt>
      <trkpt lat="45.32626" lon="6.21316">
        <ele>1824.1999511719</ele>
        <time>2014-03-02T08:51:32.000Z</time>
      </trkpt>
      <trkpt lat="45.32626" lon="6.21313">
        <ele>1823.8000488281</ele>
        <time>2014-03-02T08:51:33.000Z</time>
      </trkpt>
      <trkpt lat="45.32626" lon="6.21313">
        <ele>1823.8000488281</ele>
        <time>2014-03-02T08:51:34.000Z</time>
      </trkpt>
      <trkpt lat="45.32626" lon="6.21312">
        <ele>1823.5999755859</ele>
        <time>2014-03-02T08:51:35.000Z</time>
      </trkpt>
      <trkpt lat="45.32625" lon="6.2131">
        <ele>1823.8000488281</ele>
        <time>2014-03-02T08:51:36.000Z</time>
      </trkpt>
      <trkpt lat="45.32625" lon="6.2131">
        <ele>1823.8000488281</ele>
        <time>2014-03-02T08:51:37.000Z</time>
      </trkpt>
      <trkpt lat="45.32624" lon="6.21308">
        <ele>1824.4000244141</ele>
        <time>2014-03-02T08:51:38.000Z</time>
      </trkpt>
      <trkpt lat="45.32624" lon="6.21308">
        <ele>1824.4000244141</ele>
        <time>2014-03-02T08:51:39.000Z</time>
      </trkpt>
      <trkpt lat="45.32624" lon="6.21306">
        <ele>1824.5999755859</ele>
        <time>2014-03-02T08:51:40.000Z</time>
      </trkpt>
      <trkpt lat="45.32624" lon="6.21305">
        <ele>1825</ele>
        <time>2014-03-02T08:51:41.000Z</time>
      </trkpt>
      <trkpt lat="45.32624" lon="6.21304">
        <ele>1825.1999511719</ele>
        <time>2014-03-02T08:51:42.000Z</time>
      </trkpt>
      <trkpt lat="45.32625" lon="6.21302">
        <ele>1825.4000244141</ele>
        <time>2014-03-02T08:51:43.000Z</time>
      </trkpt>
      <trkpt lat="45.32625" lon="6.21302">
        <ele>1825.4000244141</ele>
        <time>2014-03-02T08:51:44.000Z</time>
      </trkpt>
      <trkpt lat="45.32625" lon="6.21302">
        <ele>1825.4000244141</ele>
        <time>2014-03-02T08:51:45.000Z</time>
      </trkpt>
      <trkpt lat="45.32625" lon="6.21302">
        <ele>1825.4000244141</ele>
        <time>2014-03-02T08:51:46.000Z</time>
      </trkpt>
      <trkpt lat="45.32625" lon="6.21302">
        <ele>1825.4000244141</ele>
        <time>2014-03-02T08:51:47.000Z</time>
      </trkpt>
      <trkpt lat="45.32625" lon="6.21302">
        <ele>1825.4000244141</ele>
        <time>2014-03-02T08:51:48.000Z</time>
      </trkpt>
      <trkpt lat="45.32625" lon="6.21302">
        <ele>1825.4000244141</ele>
        <time>2014-03-02T08:51:49.000Z</time>
      </trkpt>
      <trkpt lat="45.32626" lon="6.21302">
        <ele>1825.4000244141</ele>
        <time>2014-03-02T08:51:50.000Z</time>
      </trkpt>
      <trkpt lat="45.32626" lon="6.21301">
        <ele>1825.5999755859</ele>
        <time>2014-03-02T08:51:51.000Z</time>
      </trkpt>
      <trkpt lat="45.32627" lon="6.21301">
        <ele>1825.5999755859</ele>
        <time>2014-03-02T08:51:52.000Z</time>
      </trkpt>
      <trkpt lat="45.32627" lon="6.21301">
        <ele>1825.5999755859</ele>
        <time>2014-03-02T08:51:53.000Z</time>
      </trkpt>
      <trkpt lat="45.32628" lon="6.21301">
        <ele>1825.8000488281</ele>
        <time>2014-03-02T08:51:54.000Z</time>
      </trkpt>
      <trkpt lat="45.32629" lon="6.21301">
        <ele>1825.8000488281</ele>
        <time>2014-03-02T08:51:55.000Z</time>
      </trkpt>
      <trkpt lat="45.3263" lon="6.21301">
        <ele>1825.8000488281</ele>
        <time>2014-03-02T08:51:56.000Z</time>
      </trkpt>
      <trkpt lat="45.32631" lon="6.21301">
        <ele>1826</ele>
        <time>2014-03-02T08:51:57.000Z</time>
      </trkpt>
      <trkpt lat="45.32632" lon="6.21301">
        <ele>1826.5999755859</ele>
        <time>2014-03-02T08:51:58.000Z</time>
      </trkpt>
      <trkpt lat="45.32632" lon="6.213">
        <ele>1827</ele>
        <time>2014-03-02T08:51:59.000Z</time>
      </trkpt>
      <trkpt lat="45.32632" lon="6.213">
        <ele>1827</ele>
        <time>2014-03-02T08:52:00.000Z</time>
      </trkpt>
      <trkpt lat="45.32633" lon="6.213">
        <ele>1827.5999755859</ele>
        <time>2014-03-02T08:52:01.000Z</time>
      </trkpt>
      <trkpt lat="45.32633" lon="6.213">
        <ele>1827.5999755859</ele>
        <time>2014-03-02T08:52:02.000Z</time>
      </trkpt>
      <trkpt lat="45.32634" lon="6.21299">
        <ele>1828.1999511719</ele>
        <time>2014-03-02T08:52:03.000Z</time>
      </trkpt>
      <trkpt lat="45.32635" lon="6.21299">
        <ele>1828.8000488281</ele>
        <time>2014-03-02T08:52:04.000Z</time>
      </trkpt>
      <trkpt lat="45.32636" lon="6.21298">
        <ele>1829.1999511719</ele>
        <time>2014-03-02T08:52:05.000Z</time>
      </trkpt>
      <trkpt lat="45.32636" lon="6.21297">
        <ele>1829.5999755859</ele>
        <time>2014-03-02T08:52:06.000Z</time>
      </trkpt>
      <trkpt lat="45.32636" lon="6.21293">
        <ele>1829.5999755859</ele>
        <time>2014-03-02T08:52:07.000Z</time>
      </trkpt>
      <trkpt lat="45.32635" lon="6.21293">
        <ele>1829.4000244141</ele>
        <time>2014-03-02T08:52:08.000Z</time>
      </trkpt>
      <trkpt lat="45.32635" lon="6.2129">
        <ele>1829.5999755859</ele>
        <time>2014-03-02T08:52:09.000Z</time>
      </trkpt>
      <trkpt lat="45.32635" lon="6.2129">
        <ele>1829.4000244141</ele>
        <time>2014-03-02T08:52:10.000Z</time>
      </trkpt>
      <trkpt lat="45.32635" lon="6.2129">
        <ele>1829.4000244141</ele>
        <time>2014-03-02T08:52:11.000Z</time>
      </trkpt>
      <trkpt lat="45.32635" lon="6.21289">
        <ele>1829.4000244141</ele>
        <time>2014-03-02T08:52:12.000Z</time>
      </trkpt>
      <trkpt lat="45.32635" lon="6.21289">
        <ele>1829.4000244141</ele>
        <time>2014-03-02T08:52:13.000Z</time>
      </trkpt>
      <trkpt lat="45.32634" lon="6.21288">
        <ele>1829.1999511719</ele>
        <time>2014-03-02T08:52:14.000Z</time>
      </trkpt>
      <trkpt lat="45.32634" lon="6.21288">
        <ele>1829.1999511719</ele>
        <time>2014-03-02T08:52:15.000Z</time>
      </trkpt>
      <trkpt lat="45.32635" lon="6.21287">
        <ele>1829.5999755859</ele>
        <time>2014-03-02T08:52:16.000Z</time>
      </trkpt>
      <trkpt lat="45.32635" lon="6.21286">
        <ele>1829.8000488281</ele>
        <time>2014-03-02T08:52:17.000Z</time>
      </trkpt>
      <trkpt lat="45.32635" lon="6.21284">
        <ele>1830.1999511719</ele>
        <time>2014-03-02T08:52:18.000Z</time>
      </trkpt>
      <trkpt lat="45.32635" lon="6.21283">
        <ele>1830.1999511719</ele>
        <time>2014-03-02T08:52:19.000Z</time>
      </trkpt>
      <trkpt lat="45.32635" lon="6.21281">
        <ele>1830.1999511719</ele>
        <time>2014-03-02T08:52:20.000Z</time>
      </trkpt>
      <trkpt lat="45.32635" lon="6.2128">
        <ele>1830</ele>
        <time>2014-03-02T08:52:21.000Z</time>
      </trkpt>
      <trkpt lat="45.32634" lon="6.21278">
        <ele>1830</ele>
        <time>2014-03-02T08:52:22.000Z</time>
      </trkpt>
      <trkpt lat="45.32634" lon="6.21278">
        <ele>1830</ele>
        <time>2014-03-02T08:52:23.000Z</time>
      </trkpt>
      <trkpt lat="45.32634" lon="6.21276">
        <ele>1830</ele>
        <time>2014-03-02T08:52:24.000Z</time>
      </trkpt>
      <trkpt lat="45.32634" lon="6.21277">
        <ele>1830</ele>
        <time>2014-03-02T08:52:25.000Z</time>
      </trkpt>
      <trkpt lat="45.32633" lon="6.21276">
        <ele>1829.8000488281</ele>
        <time>2014-03-02T08:52:26.000Z</time>
      </trkpt>
      <trkpt lat="45.32633" lon="6.21275">
        <ele>1829.8000488281</ele>
        <time>2014-03-02T08:52:27.000Z</time>
      </trkpt>
      <trkpt lat="45.32633" lon="6.21274">
        <ele>1829.5999755859</ele>
        <time>2014-03-02T08:52:28.000Z</time>
      </trkpt>
      <trkpt lat="45.32633" lon="6.21274">
        <ele>1829.5999755859</ele>
        <time>2014-03-02T08:52:29.000Z</time>
      </trkpt>
      <trkpt lat="45.32633" lon="6.21274">
        <ele>1829.5999755859</ele>
        <time>2014-03-02T08:52:30.000Z</time>
      </trkpt>
      <trkpt lat="45.32633" lon="6.21273">
        <ele>1829.5999755859</ele>
        <time>2014-03-02T08:52:31.000Z</time>
      </trkpt>
      <trkpt lat="45.32633" lon="6.21272">
        <ele>1829.5999755859</ele>
        <time>2014-03-02T08:52:32.000Z</time>
      </trkpt>
      <trkpt lat="45.32633" lon="6.21272">
        <ele>1829.8000488281</ele>
        <time>2014-03-02T08:52:33.000Z</time>
      </trkpt>
      <trkpt lat="45.32633" lon="6.21271">
        <ele>1829.5999755859</ele>
        <time>2014-03-02T08:52:34.000Z</time>
      </trkpt>
      <trkpt lat="45.32633" lon="6.2127">
        <ele>1829.8000488281</ele>
        <time>2014-03-02T08:52:35.000Z</time>
      </trkpt>
      <trkpt lat="45.32633" lon="6.21269">
        <ele>1829.8000488281</ele>
        <time>2014-03-02T08:52:36.000Z</time>
      </trkpt>
      <trkpt lat="45.32632" lon="6.21269">
        <ele>1829.8000488281</ele>
        <time>2014-03-02T08:52:37.000Z</time>
      </trkpt>
      <trkpt lat="45.32632" lon="6.21269">
        <ele>1829.8000488281</ele>
        <time>2014-03-02T08:52:38.000Z</time>
      </trkpt>
      <trkpt lat="45.32632" lon="6.21268">
        <ele>1829.5999755859</ele>
        <time>2014-03-02T08:52:39.000Z</time>
      </trkpt>
      <trkpt lat="45.32632" lon="6.21267">
        <ele>1829.8000488281</ele>
        <time>2014-03-02T08:52:40.000Z</time>
      </trkpt>
      <trkpt lat="45.32632" lon="6.21266">
        <ele>1829.8000488281</ele>
        <time>2014-03-02T08:52:41.000Z</time>
      </trkpt>
      <trkpt lat="45.32632" lon="6.21264">
        <ele>1829.5999755859</ele>
        <time>2014-03-02T08:52:42.000Z</time>
      </trkpt>
      <trkpt lat="45.32631" lon="6.21262">
        <ele>1829.8000488281</ele>
        <time>2014-03-02T08:52:43.000Z</time>
      </trkpt>
      <trkpt lat="45.32631" lon="6.21262">
        <ele>1829.4000244141</ele>
        <time>2014-03-02T08:52:44.000Z</time>
      </trkpt>
      <trkpt lat="45.32631" lon="6.21259">
        <ele>1829.5999755859</ele>
        <time>2014-03-02T08:52:45.000Z</time>
      </trkpt>
      <trkpt lat="45.32631" lon="6.2126">
        <ele>1829.4000244141</ele>
        <time>2014-03-02T08:52:46.000Z</time>
      </trkpt>
      <trkpt lat="45.32631" lon="6.21259">
        <ele>1829.5999755859</ele>
        <time>2014-03-02T08:52:47.000Z</time>
      </trkpt>
      <trkpt lat="45.32631" lon="6.21258">
        <ele>1830</ele>
        <time>2014-03-02T08:52:48.000Z</time>
      </trkpt>
      <trkpt lat="45.32631" lon="6.21258">
        <ele>1830</ele>
        <time>2014-03-02T08:52:49.000Z</time>
      </trkpt>
      <trkpt lat="45.32631" lon="6.21258">
        <ele>1830</ele>
        <time>2014-03-02T08:52:50.000Z</time>
      </trkpt>
      <trkpt lat="45.32631" lon="6.21258">
        <ele>1830</ele>
        <time>2014-03-02T08:52:51.000Z</time>
      </trkpt>
      <trkpt lat="45.32632" lon="6.21258">
        <ele>1830.1999511719</ele>
        <time>2014-03-02T08:52:52.000Z</time>
      </trkpt>
      <trkpt lat="45.32632" lon="6.21258">
        <ele>1830.1999511719</ele>
        <time>2014-03-02T08:52:53.000Z</time>
      </trkpt>
      <trkpt lat="45.32633" lon="6.21258">
        <ele>1830.8000488281</ele>
        <time>2014-03-02T08:52:54.000Z</time>
      </trkpt>
      <trkpt lat="45.32633" lon="6.21257">
        <ele>1831.4000244141</ele>
        <time>2014-03-02T08:52:55.000Z</time>
      </trkpt>
      <trkpt lat="45.32634" lon="6.21257">
        <ele>1831.8000488281</ele>
        <time>2014-03-02T08:52:56.000Z</time>
      </trkpt>
      <trkpt lat="45.32635" lon="6.21257">
        <ele>1832.5999755859</ele>
        <time>2014-03-02T08:52:57.000Z</time>
      </trkpt>
      <trkpt lat="45.32636" lon="6.21256">
        <ele>1833.1999511719</ele>
        <time>2014-03-02T08:52:58.000Z</time>
      </trkpt>
      <trkpt lat="45.32637" lon="6.21256">
        <ele>1833.8000488281</ele>
        <time>2014-03-02T08:52:59.000Z</time>
      </trkpt>
      <trkpt lat="45.32639" lon="6.21254">
        <ele>1834.8000488281</ele>
        <time>2014-03-02T08:53:00.000Z</time>
      </trkpt>
      <trkpt lat="45.32639" lon="6.21254">
        <ele>1834.8000488281</ele>
        <time>2014-03-02T08:53:01.000Z</time>
      </trkpt>
      <trkpt lat="45.3264" lon="6.21252">
        <ele>1835.8000488281</ele>
        <time>2014-03-02T08:53:02.000Z</time>
      </trkpt>
      <trkpt lat="45.3264" lon="6.21252">
        <ele>1835.8000488281</ele>
        <time>2014-03-02T08:53:03.000Z</time>
      </trkpt>
      <trkpt lat="45.3264" lon="6.21251">
        <ele>1835.8000488281</ele>
        <time>2014-03-02T08:53:04.000Z</time>
      </trkpt>
      <trkpt lat="45.3264" lon="6.2125">
        <ele>1835.8000488281</ele>
        <time>2014-03-02T08:53:05.000Z</time>
      </trkpt>
      <trkpt lat="45.3264" lon="6.21249">
        <ele>1835.8000488281</ele>
        <time>2014-03-02T08:53:06.000Z</time>
      </trkpt>
      <trkpt lat="45.3264" lon="6.21248">
        <ele>1836</ele>
        <time>2014-03-02T08:53:07.000Z</time>
      </trkpt>
      <trkpt lat="45.3264" lon="6.21248">
        <ele>1836.1999511719</ele>
        <time>2014-03-02T08:53:08.000Z</time>
      </trkpt>
      <trkpt lat="45.3264" lon="6.21247">
        <ele>1836.4000244141</ele>
        <time>2014-03-02T08:53:09.000Z</time>
      </trkpt>
      <trkpt lat="45.3264" lon="6.21245">
        <ele>1836.1999511719</ele>
        <time>2014-03-02T08:53:10.000Z</time>
      </trkpt>
      <trkpt lat="45.3264" lon="6.21243">
        <ele>1836.1999511719</ele>
        <time>2014-03-02T08:53:11.000Z</time>
      </trkpt>
      <trkpt lat="45.32639" lon="6.21242">
        <ele>1836.1999511719</ele>
        <time>2014-03-02T08:53:12.000Z</time>
      </trkpt>
      <trkpt lat="45.32639" lon="6.2124">
        <ele>1836</ele>
        <time>2014-03-02T08:53:13.000Z</time>
      </trkpt>
      <trkpt lat="45.32639" lon="6.2124">
        <ele>1836</ele>
        <time>2014-03-02T08:53:14.000Z</time>
      </trkpt>
      <trkpt lat="45.32638" lon="6.21238">
        <ele>1835.8000488281</ele>
        <time>2014-03-02T08:53:15.000Z</time>
      </trkpt>
      <trkpt lat="45.32638" lon="6.21238">
        <ele>1835.5999755859</ele>
        <time>2014-03-02T08:53:16.000Z</time>
      </trkpt>
      <trkpt lat="45.32638" lon="6.21237">
        <ele>1835.4000244141</ele>
        <time>2014-03-02T08:53:17.000Z</time>
      </trkpt>
      <trkpt lat="45.32637" lon="6.21235">
        <ele>1835.4000244141</ele>
        <time>2014-03-02T08:53:18.000Z</time>
      </trkpt>
      <trkpt lat="45.32637" lon="6.21235">
        <ele>1835.1999511719</ele>
        <time>2014-03-02T08:53:19.000Z</time>
      </trkpt>
      <trkpt lat="45.32636" lon="6.21233">
        <ele>1835</ele>
        <time>2014-03-02T08:53:20.000Z</time>
      </trkpt>
      <trkpt lat="45.32637" lon="6.21231">
        <ele>1835.1999511719</ele>
        <time>2014-03-02T08:53:21.000Z</time>
      </trkpt>
      <trkpt lat="45.32637" lon="6.2123">
        <ele>1835.1999511719</ele>
        <time>2014-03-02T08:53:22.000Z</time>
      </trkpt>
      <trkpt lat="45.32637" lon="6.21228">
        <ele>1835.4000244141</ele>
        <time>2014-03-02T08:53:23.000Z</time>
      </trkpt>
      <trkpt lat="45.32637" lon="6.21228">
        <ele>1835.4000244141</ele>
        <time>2014-03-02T08:53:24.000Z</time>
      </trkpt>
      <trkpt lat="45.32637" lon="6.21226">
        <ele>1836</ele>
        <time>2014-03-02T08:53:25.000Z</time>
      </trkpt>
      <trkpt lat="45.32637" lon="6.21227">
        <ele>1836</ele>
        <time>2014-03-02T08:53:26.000Z</time>
      </trkpt>
      <trkpt lat="45.32637" lon="6.21226">
        <ele>1836.1999511719</ele>
        <time>2014-03-02T08:53:27.000Z</time>
      </trkpt>
      <trkpt lat="45.32637" lon="6.21224">
        <ele>1836.5999755859</ele>
        <time>2014-03-02T08:53:28.000Z</time>
      </trkpt>
      <trkpt lat="45.32638" lon="6.21222">
        <ele>1837</ele>
        <time>2014-03-02T08:53:29.000Z</time>
      </trkpt>
      <trkpt lat="45.32639" lon="6.21221">
        <ele>1837.5999755859</ele>
        <time>2014-03-02T08:53:30.000Z</time>
      </trkpt>
      <trkpt lat="45.32639" lon="6.21221">
        <ele>1837.8000488281</ele>
        <time>2014-03-02T08:53:31.000Z</time>
      </trkpt>
      <trkpt lat="45.32639" lon="6.2122">
        <ele>1838.1999511719</ele>
        <time>2014-03-02T08:53:32.000Z</time>
      </trkpt>
      <trkpt lat="45.32639" lon="6.2122">
        <ele>1838.1999511719</ele>
        <time>2014-03-02T08:53:33.000Z</time>
      </trkpt>
      <trkpt lat="45.3264" lon="6.21218">
        <ele>1838.8000488281</ele>
        <time>2014-03-02T08:53:34.000Z</time>
      </trkpt>
      <trkpt lat="45.3264" lon="6.21217">
        <ele>1839.1999511719</ele>
        <time>2014-03-02T08:53:35.000Z</time>
      </trkpt>
      <trkpt lat="45.3264" lon="6.21217">
        <ele>1839.4000244141</ele>
        <time>2014-03-02T08:53:36.000Z</time>
      </trkpt>
      <trkpt lat="45.32642" lon="6.21215">
        <ele>1840.4000244141</ele>
        <time>2014-03-02T08:53:37.000Z</time>
      </trkpt>
      <trkpt lat="45.32642" lon="6.21215">
        <ele>1840.4000244141</ele>
        <time>2014-03-02T08:53:38.000Z</time>
      </trkpt>
      <trkpt lat="45.32643" lon="6.21213">
        <ele>1841.4000244141</ele>
        <time>2014-03-02T08:53:39.000Z</time>
      </trkpt>
      <trkpt lat="45.32643" lon="6.21213">
        <ele>1841.5999755859</ele>
        <time>2014-03-02T08:53:40.000Z</time>
      </trkpt>
      <trkpt lat="45.32644" lon="6.21211">
        <ele>1842.1999511719</ele>
        <time>2014-03-02T08:53:41.000Z</time>
      </trkpt>
      <trkpt lat="45.32643" lon="6.21211">
        <ele>1842.1999511719</ele>
        <time>2014-03-02T08:53:42.000Z</time>
      </trkpt>
      <trkpt lat="45.32643" lon="6.2121">
        <ele>1842.1999511719</ele>
        <time>2014-03-02T08:53:43.000Z</time>
      </trkpt>
      <trkpt lat="45.32643" lon="6.2121">
        <ele>1842.1999511719</ele>
        <time>2014-03-02T08:53:44.000Z</time>
      </trkpt>
      <trkpt lat="45.32644" lon="6.21209">
        <ele>1842.5999755859</ele>
        <time>2014-03-02T08:53:45.000Z</time>
      </trkpt>
      <trkpt lat="45.32644" lon="6.21209">
        <ele>1842.8000488281</ele>
        <time>2014-03-02T08:53:46.000Z</time>
      </trkpt>
      <trkpt lat="45.32644" lon="6.21208">
        <ele>1843.1999511719</ele>
        <time>2014-03-02T08:53:47.000Z</time>
      </trkpt>
      <trkpt lat="45.32645" lon="6.21207">
        <ele>1843.4000244141</ele>
        <time>2014-03-02T08:53:48.000Z</time>
      </trkpt>
      <trkpt lat="45.32645" lon="6.21207">
        <ele>1843.5999755859</ele>
        <time>2014-03-02T08:53:49.000Z</time>
      </trkpt>
      <trkpt lat="45.32645" lon="6.21206">
        <ele>1843.5999755859</ele>
        <time>2014-03-02T08:53:50.000Z</time>
      </trkpt>
      <trkpt lat="45.32645" lon="6.21205">
        <ele>1843.8000488281</ele>
        <time>2014-03-02T08:53:51.000Z</time>
      </trkpt>
      <trkpt lat="45.32645" lon="6.21205">
        <ele>1843.8000488281</ele>
        <time>2014-03-02T08:53:52.000Z</time>
      </trkpt>
      <trkpt lat="45.32645" lon="6.21204">
        <ele>1844</ele>
        <time>2014-03-02T08:53:53.000Z</time>
      </trkpt>
      <trkpt lat="45.32645" lon="6.21203">
        <ele>1844.1999511719</ele>
        <time>2014-03-02T08:53:54.000Z</time>
      </trkpt>
      <trkpt lat="45.32645" lon="6.21202">
        <ele>1844.5999755859</ele>
        <time>2014-03-02T08:53:55.000Z</time>
      </trkpt>
      <trkpt lat="45.32645" lon="6.21201">
        <ele>1844.8000488281</ele>
        <time>2014-03-02T08:53:56.000Z</time>
      </trkpt>
      <trkpt lat="45.32645" lon="6.21199">
        <ele>1845</ele>
        <time>2014-03-02T08:53:57.000Z</time>
      </trkpt>
      <trkpt lat="45.32645" lon="6.21198">
        <ele>1845</ele>
        <time>2014-03-02T08:53:58.000Z</time>
      </trkpt>
      <trkpt lat="45.32645" lon="6.21196">
        <ele>1845.8000488281</ele>
        <time>2014-03-02T08:53:59.000Z</time>
      </trkpt>
      <trkpt lat="45.32645" lon="6.21195">
        <ele>1845.8000488281</ele>
        <time>2014-03-02T08:54:00.000Z</time>
      </trkpt>
      <trkpt lat="45.32645" lon="6.21193">
        <ele>1846.1999511719</ele>
        <time>2014-03-02T08:54:01.000Z</time>
      </trkpt>
      <trkpt lat="45.32645" lon="6.21193">
        <ele>1846.4000244141</ele>
        <time>2014-03-02T08:54:02.000Z</time>
      </trkpt>
      <trkpt lat="45.32645" lon="6.21191">
        <ele>1846.8000488281</ele>
        <time>2014-03-02T08:54:03.000Z</time>
      </trkpt>
      <trkpt lat="45.32645" lon="6.21191">
        <ele>1846.8000488281</ele>
        <time>2014-03-02T08:54:04.000Z</time>
      </trkpt>
      <trkpt lat="45.32646" lon="6.2119">
        <ele>1847.1999511719</ele>
        <time>2014-03-02T08:54:05.000Z</time>
      </trkpt>
      <trkpt lat="45.32646" lon="6.21189">
        <ele>1847.5999755859</ele>
        <time>2014-03-02T08:54:06.000Z</time>
      </trkpt>
      <trkpt lat="45.32647" lon="6.21189">
        <ele>1847.8000488281</ele>
        <time>2014-03-02T08:54:07.000Z</time>
      </trkpt>
      <trkpt lat="45.32647" lon="6.21188">
        <ele>1848</ele>
        <time>2014-03-02T08:54:08.000Z</time>
      </trkpt>
      <trkpt lat="45.32647" lon="6.21187">
        <ele>1848.1999511719</ele>
        <time>2014-03-02T08:54:09.000Z</time>
      </trkpt>
      <trkpt lat="45.32647" lon="6.21185">
        <ele>1848.8000488281</ele>
        <time>2014-03-02T08:54:10.000Z</time>
      </trkpt>
      <trkpt lat="45.32647" lon="6.21185">
        <ele>1848.8000488281</ele>
        <time>2014-03-02T08:54:11.000Z</time>
      </trkpt>
      <trkpt lat="45.32648" lon="6.21183">
        <ele>1849.5999755859</ele>
        <time>2014-03-02T08:54:12.000Z</time>
      </trkpt>
      <trkpt lat="45.32648" lon="6.21183">
        <ele>1849.8000488281</ele>
        <time>2014-03-02T08:54:13.000Z</time>
      </trkpt>
      <trkpt lat="45.32649" lon="6.21182">
        <ele>1850.1999511719</ele>
        <time>2014-03-02T08:54:14.000Z</time>
      </trkpt>
      <trkpt lat="45.32649" lon="6.21182">
        <ele>1850.1999511719</ele>
        <time>2014-03-02T08:54:15.000Z</time>
      </trkpt>
      <trkpt lat="45.32649" lon="6.21182">
        <ele>1850.1999511719</ele>
        <time>2014-03-02T08:54:16.000Z</time>
      </trkpt>
      <trkpt lat="45.32649" lon="6.21181">
        <ele>1850.5999755859</ele>
        <time>2014-03-02T08:54:17.000Z</time>
      </trkpt>
      <trkpt lat="45.32649" lon="6.2118">
        <ele>1850.8000488281</ele>
        <time>2014-03-02T08:54:18.000Z</time>
      </trkpt>
      <trkpt lat="45.3265" lon="6.21178">
        <ele>1851.4000244141</ele>
        <time>2014-03-02T08:54:19.000Z</time>
      </trkpt>
      <trkpt lat="45.32649" lon="6.21178">
        <ele>1851.4000244141</ele>
        <time>2014-03-02T08:54:20.000Z</time>
      </trkpt>
      <trkpt lat="45.3265" lon="6.21175">
        <ele>1852</ele>
        <time>2014-03-02T08:54:21.000Z</time>
      </trkpt>
      <trkpt lat="45.3265" lon="6.21175">
        <ele>1852</ele>
        <time>2014-03-02T08:54:22.000Z</time>
      </trkpt>
      <trkpt lat="45.3265" lon="6.21173">
        <ele>1852.5999755859</ele>
        <time>2014-03-02T08:54:23.000Z</time>
      </trkpt>
      <trkpt lat="45.3265" lon="6.21173">
        <ele>1852.5999755859</ele>
        <time>2014-03-02T08:54:24.000Z</time>
      </trkpt>
      <trkpt lat="45.3265" lon="6.21171">
        <ele>1853</ele>
        <time>2014-03-02T08:54:25.000Z</time>
      </trkpt>
      <trkpt lat="45.3265" lon="6.21172">
        <ele>1853</ele>
        <time>2014-03-02T08:54:26.000Z</time>
      </trkpt>
      <trkpt lat="45.32651" lon="6.21171">
        <ele>1853.1999511719</ele>
        <time>2014-03-02T08:54:27.000Z</time>
      </trkpt>
      <trkpt lat="45.32651" lon="6.2117">
        <ele>1853.5999755859</ele>
        <time>2014-03-02T08:54:28.000Z</time>
      </trkpt>
      <trkpt lat="45.32651" lon="6.21169">
        <ele>1854</ele>
        <time>2014-03-02T08:54:29.000Z</time>
      </trkpt>
      <trkpt lat="45.32652" lon="6.21167">
        <ele>1854.5999755859</ele>
        <time>2014-03-02T08:54:30.000Z</time>
      </trkpt>
      <trkpt lat="45.32652" lon="6.21167">
        <ele>1854.8000488281</ele>
        <time>2014-03-02T08:54:31.000Z</time>
      </trkpt>
      <trkpt lat="45.32653" lon="6.21165">
        <ele>1855.5999755859</ele>
        <time>2014-03-02T08:54:32.000Z</time>
      </trkpt>
      <trkpt lat="45.32653" lon="6.21164">
        <ele>1855.4000244141</ele>
        <time>2014-03-02T08:54:33.000Z</time>
      </trkpt>
      <trkpt lat="45.32653" lon="6.21162">
        <ele>1855.8000488281</ele>
        <time>2014-03-02T08:54:34.000Z</time>
      </trkpt>
      <trkpt lat="45.32653" lon="6.21162">
        <ele>1855.8000488281</ele>
        <time>2014-03-02T08:54:35.000Z</time>
      </trkpt>
      <trkpt lat="45.32653" lon="6.21162">
        <ele>1856</ele>
        <time>2014-03-02T08:54:36.000Z</time>
      </trkpt>
      <trkpt lat="45.32654" lon="6.21161">
        <ele>1856.1999511719</ele>
        <time>2014-03-02T08:54:37.000Z</time>
      </trkpt>
      <trkpt lat="45.32654" lon="6.21161">
        <ele>1856.4000244141</ele>
        <time>2014-03-02T08:54:38.000Z</time>
      </trkpt>
      <trkpt lat="45.32655" lon="6.2116">
        <ele>1856.8000488281</ele>
        <time>2014-03-02T08:54:39.000Z</time>
      </trkpt>
      <trkpt lat="45.32655" lon="6.21159">
        <ele>1857</ele>
        <time>2014-03-02T08:54:40.000Z</time>
      </trkpt>
      <trkpt lat="45.32655" lon="6.21158">
        <ele>1857.4000244141</ele>
        <time>2014-03-02T08:54:41.000Z</time>
      </trkpt>
      <trkpt lat="45.32656" lon="6.21158">
        <ele>1857.5999755859</ele>
        <time>2014-03-02T08:54:42.000Z</time>
      </trkpt>
      <trkpt lat="45.32656" lon="6.21158">
        <ele>1857.5999755859</ele>
        <time>2014-03-02T08:54:43.000Z</time>
      </trkpt>
      <trkpt lat="45.32656" lon="6.21157">
        <ele>1857.8000488281</ele>
        <time>2014-03-02T08:54:44.000Z</time>
      </trkpt>
      <trkpt lat="45.32656" lon="6.21156">
        <ele>1857.8000488281</ele>
        <time>2014-03-02T08:54:45.000Z</time>
      </trkpt>
      <trkpt lat="45.32656" lon="6.21155">
        <ele>1858</ele>
        <time>2014-03-02T08:54:46.000Z</time>
      </trkpt>
      <trkpt lat="45.32656" lon="6.21153">
        <ele>1858.1999511719</ele>
        <time>2014-03-02T08:54:47.000Z</time>
      </trkpt>
      <trkpt lat="45.32656" lon="6.21151">
        <ele>1858.4000244141</ele>
        <time>2014-03-02T08:54:48.000Z</time>
      </trkpt>
      <trkpt lat="45.32656" lon="6.21151">
        <ele>1858.4000244141</ele>
        <time>2014-03-02T08:54:49.000Z</time>
      </trkpt>
      <trkpt lat="45.32656" lon="6.21151">
        <ele>1858.4000244141</ele>
        <time>2014-03-02T08:54:50.000Z</time>
      </trkpt>
      <trkpt lat="45.32656" lon="6.2115">
        <ele>1858.4000244141</ele>
        <time>2014-03-02T08:54:51.000Z</time>
      </trkpt>
      <trkpt lat="45.32656" lon="6.2115">
        <ele>1858.4000244141</ele>
        <time>2014-03-02T08:54:52.000Z</time>
      </trkpt>
      <trkpt lat="45.32656" lon="6.21149">
        <ele>1858.8000488281</ele>
        <time>2014-03-02T08:54:53.000Z</time>
      </trkpt>
      <trkpt lat="45.32656" lon="6.21147">
        <ele>1858.8000488281</ele>
        <time>2014-03-02T08:54:54.000Z</time>
      </trkpt>
      <trkpt lat="45.32656" lon="6.21146">
        <ele>1859.1999511719</ele>
        <time>2014-03-02T08:54:55.000Z</time>
      </trkpt>
      <trkpt lat="45.32656" lon="6.21144">
        <ele>1859.1999511719</ele>
        <time>2014-03-02T08:54:56.000Z</time>
      </trkpt>
      <trkpt lat="45.32656" lon="6.21142">
        <ele>1859.5999755859</ele>
        <time>2014-03-02T08:54:57.000Z</time>
      </trkpt>
      <trkpt lat="45.32656" lon="6.21142">
        <ele>1859.4000244141</ele>
        <time>2014-03-02T08:54:58.000Z</time>
      </trkpt>
      <trkpt lat="45.32656" lon="6.21142">
        <ele>1859.4000244141</ele>
        <time>2014-03-02T08:54:59.000Z</time>
      </trkpt>
      <trkpt lat="45.32656" lon="6.21141">
        <ele>1859.5999755859</ele>
        <time>2014-03-02T08:55:00.000Z</time>
      </trkpt>
      <trkpt lat="45.32656" lon="6.2114">
        <ele>1860</ele>
        <time>2014-03-02T08:55:01.000Z</time>
      </trkpt>
      <trkpt lat="45.32656" lon="6.21138">
        <ele>1860.1999511719</ele>
        <time>2014-03-02T08:55:02.000Z</time>
      </trkpt>
      <trkpt lat="45.32657" lon="6.21138">
        <ele>1860.4000244141</ele>
        <time>2014-03-02T08:55:03.000Z</time>
      </trkpt>
      <trkpt lat="45.32658" lon="6.21136">
        <ele>1861.1999511719</ele>
        <time>2014-03-02T08:55:04.000Z</time>
      </trkpt>
      <trkpt lat="45.32658" lon="6.21136">
        <ele>1861.4000244141</ele>
        <time>2014-03-02T08:55:05.000Z</time>
      </trkpt>
      <trkpt lat="45.32659" lon="6.21135">
        <ele>1861.5999755859</ele>
        <time>2014-03-02T08:55:06.000Z</time>
      </trkpt>
      <trkpt lat="45.32659" lon="6.21134">
        <ele>1862</ele>
        <time>2014-03-02T08:55:07.000Z</time>
      </trkpt>
      <trkpt lat="45.32659" lon="6.21133">
        <ele>1862.1999511719</ele>
        <time>2014-03-02T08:55:08.000Z</time>
      </trkpt>
      <trkpt lat="45.3266" lon="6.21131">
        <ele>1862.8000488281</ele>
        <time>2014-03-02T08:55:09.000Z</time>
      </trkpt>
      <trkpt lat="45.3266" lon="6.21131">
        <ele>1862.5999755859</ele>
        <time>2014-03-02T08:55:10.000Z</time>
      </trkpt>
      <trkpt lat="45.32659" lon="6.21128">
        <ele>1863</ele>
        <time>2014-03-02T08:55:11.000Z</time>
      </trkpt>
      <trkpt lat="45.32659" lon="6.21128">
        <ele>1863</ele>
        <time>2014-03-02T08:55:12.000Z</time>
      </trkpt>
      <trkpt lat="45.32659" lon="6.21127">
        <ele>1863</ele>
        <time>2014-03-02T08:55:13.000Z</time>
      </trkpt>
      <trkpt lat="45.32659" lon="6.21126">
        <ele>1863.1999511719</ele>
        <time>2014-03-02T08:55:14.000Z</time>
      </trkpt>
      <trkpt lat="45.32659" lon="6.21126">
        <ele>1863</ele>
        <time>2014-03-02T08:55:15.000Z</time>
      </trkpt>
      <trkpt lat="45.32659" lon="6.21125">
        <ele>1863.1999511719</ele>
        <time>2014-03-02T08:55:16.000Z</time>
      </trkpt>
      <trkpt lat="45.32659" lon="6.21124">
        <ele>1863.4000244141</ele>
        <time>2014-03-02T08:55:17.000Z</time>
      </trkpt>
      <trkpt lat="45.3266" lon="6.21122">
        <ele>1863.8000488281</ele>
        <time>2014-03-02T08:55:18.000Z</time>
      </trkpt>
      <trkpt lat="45.3266" lon="6.21122">
        <ele>1863.8000488281</ele>
        <time>2014-03-02T08:55:19.000Z</time>
      </trkpt>
      <trkpt lat="45.3266" lon="6.2112">
        <ele>1864.1999511719</ele>
        <time>2014-03-02T08:55:20.000Z</time>
      </trkpt>
      <trkpt lat="45.3266" lon="6.21119">
        <ele>1864.1999511719</ele>
        <time>2014-03-02T08:55:21.000Z</time>
      </trkpt>
      <trkpt lat="45.3266" lon="6.21118">
        <ele>1864.5999755859</ele>
        <time>2014-03-02T08:55:22.000Z</time>
      </trkpt>
      <trkpt lat="45.32661" lon="6.21117">
        <ele>1864.8000488281</ele>
        <time>2014-03-02T08:55:23.000Z</time>
      </trkpt>
      <trkpt lat="45.32661" lon="6.21115">
        <ele>1865</ele>
        <time>2014-03-02T08:55:24.000Z</time>
      </trkpt>
      <trkpt lat="45.32661" lon="6.21113">
        <ele>1865.5999755859</ele>
        <time>2014-03-02T08:55:25.000Z</time>
      </trkpt>
      <trkpt lat="45.32661" lon="6.21113">
        <ele>1865.5999755859</ele>
        <time>2014-03-02T08:55:26.000Z</time>
      </trkpt>
      <trkpt lat="45.32661" lon="6.2111">
        <ele>1866</ele>
        <time>2014-03-02T08:55:27.000Z</time>
      </trkpt>
      <trkpt lat="45.32661" lon="6.2111">
        <ele>1866</ele>
        <time>2014-03-02T08:55:28.000Z</time>
      </trkpt>
      <trkpt lat="45.32662" lon="6.21108">
        <ele>1866.4000244141</ele>
        <time>2014-03-02T08:55:29.000Z</time>
      </trkpt>
      <trkpt lat="45.32661" lon="6.21106">
        <ele>1866.5999755859</ele>
        <time>2014-03-02T08:55:30.000Z</time>
      </trkpt>
      <trkpt lat="45.32661" lon="6.21105">
        <ele>1866.5999755859</ele>
        <time>2014-03-02T08:55:31.000Z</time>
      </trkpt>
      <trkpt lat="45.32661" lon="6.21103">
        <ele>1866.8000488281</ele>
        <time>2014-03-02T08:55:32.000Z</time>
      </trkpt>
      <trkpt lat="45.32662" lon="6.21102">
        <ele>1867.1999511719</ele>
        <time>2014-03-02T08:55:33.000Z</time>
      </trkpt>
      <trkpt lat="45.32662" lon="6.21101">
        <ele>1867.4000244141</ele>
        <time>2014-03-02T08:55:34.000Z</time>
      </trkpt>
      <trkpt lat="45.32662" lon="6.21099">
        <ele>1867.4000244141</ele>
        <time>2014-03-02T08:55:35.000Z</time>
      </trkpt>
      <trkpt lat="45.32662" lon="6.21098">
        <ele>1867.5999755859</ele>
        <time>2014-03-02T08:55:36.000Z</time>
      </trkpt>
      <trkpt lat="45.32662" lon="6.21098">
        <ele>1867.5999755859</ele>
        <time>2014-03-02T08:55:37.000Z</time>
      </trkpt>
      <trkpt lat="45.32661" lon="6.21098">
        <ele>1867.1999511719</ele>
        <time>2014-03-02T08:55:38.000Z</time>
      </trkpt>
      <trkpt lat="45.3266" lon="6.21097">
        <ele>1867</ele>
        <time>2014-03-02T08:55:39.000Z</time>
      </trkpt>
      <trkpt lat="45.3266" lon="6.21097">
        <ele>1866.8000488281</ele>
        <time>2014-03-02T08:55:40.000Z</time>
      </trkpt>
      <trkpt lat="45.3266" lon="6.21097">
        <ele>1866.8000488281</ele>
        <time>2014-03-02T08:55:41.000Z</time>
      </trkpt>
      <trkpt lat="45.3266" lon="6.21097">
        <ele>1867</ele>
        <time>2014-03-02T08:55:42.000Z</time>
      </trkpt>
      <trkpt lat="45.3266" lon="6.21096">
        <ele>1867.1999511719</ele>
        <time>2014-03-02T08:55:43.000Z</time>
      </trkpt>
      <trkpt lat="45.32661" lon="6.21096">
        <ele>1867.1999511719</ele>
        <time>2014-03-02T08:55:44.000Z</time>
      </trkpt>
      <trkpt lat="45.32661" lon="6.21095">
        <ele>1867.5999755859</ele>
        <time>2014-03-02T08:55:45.000Z</time>
      </trkpt>
      <trkpt lat="45.32661" lon="6.21094">
        <ele>1867.5999755859</ele>
        <time>2014-03-02T08:55:47.000Z</time>
      </trkpt>
      <trkpt lat="45.32661" lon="6.21092">
        <ele>1868</ele>
        <time>2014-03-02T08:55:48.000Z</time>
      </trkpt>
      <trkpt lat="45.32661" lon="6.21091">
        <ele>1868</ele>
        <time>2014-03-02T08:55:49.000Z</time>
      </trkpt>
      <trkpt lat="45.32661" lon="6.21088">
        <ele>1868</ele>
        <time>2014-03-02T08:55:50.000Z</time>
      </trkpt>
      <trkpt lat="45.32661" lon="6.21089">
        <ele>1868</ele>
        <time>2014-03-02T08:55:51.000Z</time>
      </trkpt>
      <trkpt lat="45.32661" lon="6.21087">
        <ele>1868</ele>
        <time>2014-03-02T08:55:52.000Z</time>
      </trkpt>
      <trkpt lat="45.32661" lon="6.21086">
        <ele>1868</ele>
        <time>2014-03-02T08:55:53.000Z</time>
      </trkpt>
      <trkpt lat="45.32661" lon="6.21085">
        <ele>1868</ele>
        <time>2014-03-02T08:55:54.000Z</time>
      </trkpt>
      <trkpt lat="45.32661" lon="6.21084">
        <ele>1868</ele>
        <time>2014-03-02T08:55:55.000Z</time>
      </trkpt>
      <trkpt lat="45.32661" lon="6.21083">
        <ele>1868</ele>
        <time>2014-03-02T08:55:56.000Z</time>
      </trkpt>
      <trkpt lat="45.32661" lon="6.21082">
        <ele>1868</ele>
        <time>2014-03-02T08:55:57.000Z</time>
      </trkpt>
      <trkpt lat="45.32661" lon="6.21081">
        <ele>1868</ele>
        <time>2014-03-02T08:55:58.000Z</time>
      </trkpt>
      <trkpt lat="45.32661" lon="6.2108">
        <ele>1868</ele>
        <time>2014-03-02T08:55:59.000Z</time>
      </trkpt>
      <trkpt lat="45.3266" lon="6.21078">
        <ele>1867.8000488281</ele>
        <time>2014-03-02T08:56:00.000Z</time>
      </trkpt>
      <trkpt lat="45.3266" lon="6.21078">
        <ele>1867.8000488281</ele>
        <time>2014-03-02T08:56:01.000Z</time>
      </trkpt>
      <trkpt lat="45.32661" lon="6.21076">
        <ele>1868.1999511719</ele>
        <time>2014-03-02T08:56:02.000Z</time>
      </trkpt>
      <trkpt lat="45.3266" lon="6.21077">
        <ele>1868</ele>
        <time>2014-03-02T08:56:03.000Z</time>
      </trkpt>
      <trkpt lat="45.3266" lon="6.21075">
        <ele>1868</ele>
        <time>2014-03-02T08:56:04.000Z</time>
      </trkpt>
      <trkpt lat="45.32661" lon="6.21075">
        <ele>1868</ele>
        <time>2014-03-02T08:56:05.000Z</time>
      </trkpt>
      <trkpt lat="45.32661" lon="6.21074">
        <ele>1868</ele>
        <time>2014-03-02T08:56:06.000Z</time>
      </trkpt>
      <trkpt lat="45.32661" lon="6.21072">
        <ele>1868</ele>
        <time>2014-03-02T08:56:07.000Z</time>
      </trkpt>
      <trkpt lat="45.3266" lon="6.21071">
        <ele>1868</ele>
        <time>2014-03-02T08:56:08.000Z</time>
      </trkpt>
      <trkpt lat="45.3266" lon="6.21069">
        <ele>1868</ele>
        <time>2014-03-02T08:56:09.000Z</time>
      </trkpt>
      <trkpt lat="45.32661" lon="6.21067">
        <ele>1868.1999511719</ele>
        <time>2014-03-02T08:56:10.000Z</time>
      </trkpt>
      <trkpt lat="45.32661" lon="6.21066">
        <ele>1868.1999511719</ele>
        <time>2014-03-02T08:56:11.000Z</time>
      </trkpt>
      <trkpt lat="45.3266" lon="6.21063">
        <ele>1868.1999511719</ele>
        <time>2014-03-02T08:56:12.000Z</time>
      </trkpt>
      <trkpt lat="45.3266" lon="6.21063">
        <ele>1868</ele>
        <time>2014-03-02T08:56:13.000Z</time>
      </trkpt>
      <trkpt lat="45.3266" lon="6.21061">
        <ele>1868</ele>
        <time>2014-03-02T08:56:14.000Z</time>
      </trkpt>
      <trkpt lat="45.32661" lon="6.21059">
        <ele>1868.1999511719</ele>
        <time>2014-03-02T08:56:15.000Z</time>
      </trkpt>
      <trkpt lat="45.3266" lon="6.21059">
        <ele>1868</ele>
        <time>2014-03-02T08:56:16.000Z</time>
      </trkpt>
      <trkpt lat="45.32661" lon="6.21057">
        <ele>1868.1999511719</ele>
        <time>2014-03-02T08:56:17.000Z</time>
      </trkpt>
      <trkpt lat="45.32661" lon="6.21058">
        <ele>1868.1999511719</ele>
        <time>2014-03-02T08:56:18.000Z</time>
      </trkpt>
      <trkpt lat="45.32661" lon="6.21057">
        <ele>1868</ele>
        <time>2014-03-02T08:56:19.000Z</time>
      </trkpt>
      <trkpt lat="45.32662" lon="6.21055">
        <ele>1868.1999511719</ele>
        <time>2014-03-02T08:56:20.000Z</time>
      </trkpt>
      <trkpt lat="45.32662" lon="6.21054">
        <ele>1868.5999755859</ele>
        <time>2014-03-02T08:56:21.000Z</time>
      </trkpt>
      <trkpt lat="45.32663" lon="6.21053">
        <ele>1868.8000488281</ele>
        <time>2014-03-02T08:56:22.000Z</time>
      </trkpt>
      <trkpt lat="45.32663" lon="6.21053">
        <ele>1868.8000488281</ele>
        <time>2014-03-02T08:56:23.000Z</time>
      </trkpt>
      <trkpt lat="45.32663" lon="6.21052">
        <ele>1868.8000488281</ele>
        <time>2014-03-02T08:56:24.000Z</time>
      </trkpt>
      <trkpt lat="45.32664" lon="6.2105">
        <ele>1869.1999511719</ele>
        <time>2014-03-02T08:56:25.000Z</time>
      </trkpt>
      <trkpt lat="45.32665" lon="6.2105">
        <ele>1869.5999755859</ele>
        <time>2014-03-02T08:56:26.000Z</time>
      </trkpt>
      <trkpt lat="45.32666" lon="6.21049">
        <ele>1869.8000488281</ele>
        <time>2014-03-02T08:56:27.000Z</time>
      </trkpt>
      <trkpt lat="45.32666" lon="6.21049">
        <ele>1869.5999755859</ele>
        <time>2014-03-02T08:56:28.000Z</time>
      </trkpt>
      <trkpt lat="45.32666" lon="6.21047">
        <ele>1869.8000488281</ele>
        <time>2014-03-02T08:56:29.000Z</time>
      </trkpt>
      <trkpt lat="45.32667" lon="6.21046">
        <ele>1869.8000488281</ele>
        <time>2014-03-02T08:56:30.000Z</time>
      </trkpt>
      <trkpt lat="45.32667" lon="6.21045">
        <ele>1870</ele>
        <time>2014-03-02T08:56:31.000Z</time>
      </trkpt>
      <trkpt lat="45.32668" lon="6.21043">
        <ele>1870</ele>
        <time>2014-03-02T08:56:32.000Z</time>
      </trkpt>
      <trkpt lat="45.32669" lon="6.21042">
        <ele>1870.4000244141</ele>
        <time>2014-03-02T08:56:33.000Z</time>
      </trkpt>
      <trkpt lat="45.32669" lon="6.21042">
        <ele>1870.5999755859</ele>
        <time>2014-03-02T08:56:34.000Z</time>
      </trkpt>
      <trkpt lat="45.3267" lon="6.21042">
        <ele>1870.8000488281</ele>
        <time>2014-03-02T08:56:35.000Z</time>
      </trkpt>
      <trkpt lat="45.3267" lon="6.21042">
        <ele>1870.8000488281</ele>
        <time>2014-03-02T08:56:36.000Z</time>
      </trkpt>
      <trkpt lat="45.3267" lon="6.21042">
        <ele>1870.8000488281</ele>
        <time>2014-03-02T08:56:37.000Z</time>
      </trkpt>
      <trkpt lat="45.3267" lon="6.21042">
        <ele>1870.8000488281</ele>
        <time>2014-03-02T08:56:38.000Z</time>
      </trkpt>
      <trkpt lat="45.3267" lon="6.21041">
        <ele>1871</ele>
        <time>2014-03-02T08:56:41.000Z</time>
      </trkpt>
      <trkpt lat="45.32671" lon="6.21041">
        <ele>1871.1999511719</ele>
        <time>2014-03-02T08:56:43.000Z</time>
      </trkpt>
      <trkpt lat="45.32671" lon="6.21041">
        <ele>1871.1999511719</ele>
        <time>2014-03-02T08:56:44.000Z</time>
      </trkpt>
      <trkpt lat="45.32671" lon="6.21041">
        <ele>1871.1999511719</ele>
        <time>2014-03-02T08:56:45.000Z</time>
      </trkpt>
      <trkpt lat="45.32671" lon="6.21041">
        <ele>1871.1999511719</ele>
        <time>2014-03-02T08:56:46.000Z</time>
      </trkpt>
      <trkpt lat="45.32671" lon="6.21041">
        <ele>1871.1999511719</ele>
        <time>2014-03-02T08:56:47.000Z</time>
      </trkpt>
      <trkpt lat="45.32671" lon="6.21041">
        <ele>1871.1999511719</ele>
        <time>2014-03-02T08:56:49.000Z</time>
      </trkpt>
      <trkpt lat="45.32671" lon="6.21041">
        <ele>1871.1999511719</ele>
        <time>2014-03-02T08:56:52.000Z</time>
      </trkpt>
      <trkpt lat="45.32671" lon="6.21041">
        <ele>1871.1999511719</ele>
        <time>2014-03-02T08:56:53.000Z</time>
      </trkpt>
      <trkpt lat="45.32671" lon="6.21041">
        <ele>1871.1999511719</ele>
        <time>2014-03-02T08:56:54.000Z</time>
      </trkpt>
      <trkpt lat="45.32671" lon="6.21041">
        <ele>1871.1999511719</ele>
        <time>2014-03-02T08:56:55.000Z</time>
      </trkpt>
      <trkpt lat="45.32671" lon="6.21041">
        <ele>1871.1999511719</ele>
        <time>2014-03-02T08:56:56.000Z</time>
      </trkpt>
      <trkpt lat="45.32671" lon="6.21041">
        <ele>1871.1999511719</ele>
        <time>2014-03-02T08:56:58.000Z</time>
      </trkpt>
      <trkpt lat="45.32671" lon="6.21041">
        <ele>1871.1999511719</ele>
        <time>2014-03-02T08:56:59.000Z</time>
      </trkpt>
      <trkpt lat="45.32671" lon="6.21041">
        <ele>1871.1999511719</ele>
        <time>2014-03-02T08:57:00.000Z</time>
      </trkpt>
      <trkpt lat="45.32671" lon="6.21041">
        <ele>1871.1999511719</ele>
        <time>2014-03-02T08:57:01.000Z</time>
      </trkpt>
      <trkpt lat="45.32671" lon="6.21041">
        <ele>1871.1999511719</ele>
        <time>2014-03-02T08:57:02.000Z</time>
      </trkpt>
      <trkpt lat="45.32671" lon="6.21041">
        <ele>1871.1999511719</ele>
        <time>2014-03-02T08:57:03.000Z</time>
      </trkpt>
      <trkpt lat="45.32671" lon="6.21041">
        <ele>1871.1999511719</ele>
        <time>2014-03-02T08:57:04.000Z</time>
      </trkpt>
      <trkpt lat="45.32671" lon="6.21041">
        <ele>1871.1999511719</ele>
        <time>2014-03-02T08:57:05.000Z</time>
      </trkpt>
      <trkpt lat="45.32671" lon="6.21041">
        <ele>1871.1999511719</ele>
        <time>2014-03-02T08:57:06.000Z</time>
      </trkpt>
      <trkpt lat="45.32671" lon="6.21041">
        <ele>1871.1999511719</ele>
        <time>2014-03-02T08:57:07.000Z</time>
      </trkpt>
      <trkpt lat="45.32671" lon="6.21041">
        <ele>1871.1999511719</ele>
        <time>2014-03-02T08:57:08.000Z</time>
      </trkpt>
      <trkpt lat="45.32671" lon="6.21041">
        <ele>1871.1999511719</ele>
        <time>2014-03-02T08:57:09.000Z</time>
      </trkpt>
      <trkpt lat="45.32671" lon="6.21041">
        <ele>1871.1999511719</ele>
        <time>2014-03-02T08:57:10.000Z</time>
      </trkpt>
      <trkpt lat="45.32671" lon="6.21041">
        <ele>1871.1999511719</ele>
        <time>2014-03-02T08:57:11.000Z</time>
      </trkpt>
      <trkpt lat="45.32671" lon="6.21041">
        <ele>1871.1999511719</ele>
        <time>2014-03-02T08:57:12.000Z</time>
      </trkpt>
      <trkpt lat="45.32671" lon="6.21041">
        <ele>1871.1999511719</ele>
        <time>2014-03-02T08:57:13.000Z</time>
      </trkpt>
      <trkpt lat="45.32671" lon="6.21041">
        <ele>1871.1999511719</ele>
        <time>2014-03-02T08:57:14.000Z</time>
      </trkpt>
      <trkpt lat="45.32671" lon="6.21041">
        <ele>1871.1999511719</ele>
        <time>2014-03-02T08:57:15.000Z</time>
      </trkpt>
      <trkpt lat="45.32671" lon="6.21041">
        <ele>1871.1999511719</ele>
        <time>2014-03-02T08:57:16.000Z</time>
      </trkpt>
      <trkpt lat="45.32671" lon="6.21041">
        <ele>1871.1999511719</ele>
        <time>2014-03-02T08:57:17.000Z</time>
      </trkpt>
      <trkpt lat="45.32671" lon="6.21041">
        <ele>1871.1999511719</ele>
        <time>2014-03-02T08:57:18.000Z</time>
      </trkpt>
      <trkpt lat="45.32671" lon="6.21041">
        <ele>1871.1999511719</ele>
        <time>2014-03-02T08:57:19.000Z</time>
      </trkpt>
      <trkpt lat="45.3267" lon="6.2104">
        <ele>1871</ele>
        <time>2014-03-02T08:57:23.000Z</time>
      </trkpt>
      <trkpt lat="45.3267" lon="6.2104">
        <ele>1871</ele>
        <time>2014-03-02T08:57:24.000Z</time>
      </trkpt>
      <trkpt lat="45.3267" lon="6.2104">
        <ele>1871</ele>
        <time>2014-03-02T08:57:25.000Z</time>
      </trkpt>
      <trkpt lat="45.3267" lon="6.2104">
        <ele>1871</ele>
        <time>2014-03-02T08:57:26.000Z</time>
      </trkpt>
      <trkpt lat="45.3267" lon="6.2104">
        <ele>1871</ele>
        <time>2014-03-02T08:57:28.000Z</time>
      </trkpt>
      <trkpt lat="45.3267" lon="6.2104">
        <ele>1871</ele>
        <time>2014-03-02T08:57:29.000Z</time>
      </trkpt>
      <trkpt lat="45.3267" lon="6.2104">
        <ele>1871</ele>
        <time>2014-03-02T08:57:30.000Z</time>
      </trkpt>
      <trkpt lat="45.3267" lon="6.2104">
        <ele>1871</ele>
        <time>2014-03-02T08:57:31.000Z</time>
      </trkpt>
      <trkpt lat="45.3267" lon="6.2104">
        <ele>1871</ele>
        <time>2014-03-02T08:57:32.000Z</time>
      </trkpt>
      <trkpt lat="45.3267" lon="6.2104">
        <ele>1871</ele>
        <time>2014-03-02T08:57:33.000Z</time>
      </trkpt>
      <trkpt lat="45.3267" lon="6.2104">
        <ele>1871</ele>
        <time>2014-03-02T08:57:34.000Z</time>
      </trkpt>
      <trkpt lat="45.3267" lon="6.2104">
        <ele>1871</ele>
        <time>2014-03-02T08:57:35.000Z</time>
      </trkpt>
      <trkpt lat="45.3267" lon="6.2104">
        <ele>1871</ele>
        <time>2014-03-02T08:57:36.000Z</time>
      </trkpt>
      <trkpt lat="45.3267" lon="6.2104">
        <ele>1871</ele>
        <time>2014-03-02T08:57:37.000Z</time>
      </trkpt>
      <trkpt lat="45.3267" lon="6.2104">
        <ele>1871</ele>
        <time>2014-03-02T08:57:38.000Z</time>
      </trkpt>
      <trkpt lat="45.3267" lon="6.2104">
        <ele>1871</ele>
        <time>2014-03-02T08:57:39.000Z</time>
      </trkpt>
      <trkpt lat="45.3267" lon="6.2104">
        <ele>1871</ele>
        <time>2014-03-02T08:57:40.000Z</time>
      </trkpt>
      <trkpt lat="45.3267" lon="6.2104">
        <ele>1871</ele>
        <time>2014-03-02T08:57:41.000Z</time>
      </trkpt>
      <trkpt lat="45.3267" lon="6.2104">
        <ele>1871</ele>
        <time>2014-03-02T08:57:42.000Z</time>
      </trkpt>
      <trkpt lat="45.3267" lon="6.2104">
        <ele>1871</ele>
        <time>2014-03-02T08:57:43.000Z</time>
      </trkpt>
      <trkpt lat="45.3267" lon="6.2104">
        <ele>1871</ele>
        <time>2014-03-02T08:57:44.000Z</time>
      </trkpt>
      <trkpt lat="45.3267" lon="6.2104">
        <ele>1871</ele>
        <time>2014-03-02T08:57:45.000Z</time>
      </trkpt>
      <trkpt lat="45.3267" lon="6.2104">
        <ele>1871</ele>
        <time>2014-03-02T08:57:46.000Z</time>
      </trkpt>
      <trkpt lat="45.3267" lon="6.2104">
        <ele>1871</ele>
        <time>2014-03-02T08:57:47.000Z</time>
      </trkpt>
      <trkpt lat="45.3267" lon="6.2104">
        <ele>1871</ele>
        <time>2014-03-02T08:57:48.000Z</time>
      </trkpt>
      <trkpt lat="45.3267" lon="6.2104">
        <ele>1871</ele>
        <time>2014-03-02T08:57:49.000Z</time>
      </trkpt>
      <trkpt lat="45.3267" lon="6.2104">
        <ele>1871</ele>
        <time>2014-03-02T08:57:50.000Z</time>
      </trkpt>
      <trkpt lat="45.3267" lon="6.2104">
        <ele>1871</ele>
        <time>2014-03-02T08:57:51.000Z</time>
      </trkpt>
      <trkpt lat="45.3267" lon="6.2104">
        <ele>1871</ele>
        <time>2014-03-02T08:57:52.000Z</time>
      </trkpt>
      <trkpt lat="45.3267" lon="6.2104">
        <ele>1871</ele>
        <time>2014-03-02T08:57:53.000Z</time>
      </trkpt>
      <trkpt lat="45.3267" lon="6.2104">
        <ele>1871</ele>
        <time>2014-03-02T08:57:54.000Z</time>
      </trkpt>
      <trkpt lat="45.3267" lon="6.2104">
        <ele>1871</ele>
        <time>2014-03-02T08:57:55.000Z</time>
      </trkpt>
      <trkpt lat="45.3267" lon="6.2104">
        <ele>1871</ele>
        <time>2014-03-02T08:57:56.000Z</time>
      </trkpt>
      <trkpt lat="45.3267" lon="6.2104">
        <ele>1871</ele>
        <time>2014-03-02T08:57:57.000Z</time>
      </trkpt>
      <trkpt lat="45.3267" lon="6.2104">
        <ele>1871</ele>
        <time>2014-03-02T08:57:58.000Z</time>
      </trkpt>
      <trkpt lat="45.3267" lon="6.2104">
        <ele>1871</ele>
        <time>2014-03-02T08:57:59.000Z</time>
      </trkpt>
      <trkpt lat="45.3267" lon="6.2104">
        <ele>1871</ele>
        <time>2014-03-02T08:58:03.000Z</time>
      </trkpt>
      <trkpt lat="45.3267" lon="6.2104">
        <ele>1871</ele>
        <time>2014-03-02T08:58:04.000Z</time>
      </trkpt>
      <trkpt lat="45.3267" lon="6.2104">
        <ele>1871</ele>
        <time>2014-03-02T08:58:05.000Z</time>
      </trkpt>
      <trkpt lat="45.3267" lon="6.2104">
        <ele>1871</ele>
        <time>2014-03-02T08:58:06.000Z</time>
      </trkpt>
      <trkpt lat="45.3267" lon="6.2104">
        <ele>1871</ele>
        <time>2014-03-02T08:58:12.000Z</time>
      </trkpt>
      <trkpt lat="45.3267" lon="6.2104">
        <ele>1871</ele>
        <time>2014-03-02T08:58:14.000Z</time>
      </trkpt>
      <trkpt lat="45.3267" lon="6.2104">
        <ele>1871</ele>
        <time>2014-03-02T08:58:15.000Z</time>
      </trkpt>
      <trkpt lat="45.3267" lon="6.2104">
        <ele>1871</ele>
        <time>2014-03-02T08:58:16.000Z</time>
      </trkpt>
      <trkpt lat="45.3267" lon="6.2104">
        <ele>1871</ele>
        <time>2014-03-02T08:58:17.000Z</time>
      </trkpt>
      <trkpt lat="45.3267" lon="6.2104">
        <ele>1871</ele>
        <time>2014-03-02T08:58:18.000Z</time>
      </trkpt>
      <trkpt lat="45.3267" lon="6.2104">
        <ele>1871</ele>
        <time>2014-03-02T08:58:19.000Z</time>
      </trkpt>
      <trkpt lat="45.3267" lon="6.2104">
        <ele>1871</ele>
        <time>2014-03-02T08:58:20.000Z</time>
      </trkpt>
      <trkpt lat="45.3267" lon="6.2104">
        <ele>1871</ele>
        <time>2014-03-02T08:58:25.000Z</time>
      </trkpt>
      <trkpt lat="45.3267" lon="6.2104">
        <ele>1871</ele>
        <time>2014-03-02T08:58:29.000Z</time>
      </trkpt>
      <trkpt lat="45.3267" lon="6.2104">
        <ele>1871</ele>
        <time>2014-03-02T08:58:34.000Z</time>
      </trkpt>
      <trkpt lat="45.3267" lon="6.2104">
        <ele>1871</ele>
        <time>2014-03-02T08:58:36.000Z</time>
      </trkpt>
      <trkpt lat="45.3267" lon="6.2104">
        <ele>1871</ele>
        <time>2014-03-02T08:58:37.000Z</time>
      </trkpt>
      <trkpt lat="45.3267" lon="6.2104">
        <ele>1871</ele>
        <time>2014-03-02T08:58:38.000Z</time>
      </trkpt>
      <trkpt lat="45.3267" lon="6.2104">
        <ele>1871</ele>
        <time>2014-03-02T08:58:39.000Z</time>
      </trkpt>
      <trkpt lat="45.3267" lon="6.2104">
        <ele>1871</ele>
        <time>2014-03-02T08:58:40.000Z</time>
      </trkpt>
      <trkpt lat="45.3267" lon="6.2104">
        <ele>1871</ele>
        <time>2014-03-02T08:58:41.000Z</time>
      </trkpt>
      <trkpt lat="45.3267" lon="6.2104">
        <ele>1871</ele>
        <time>2014-03-02T08:58:42.000Z</time>
      </trkpt>
      <trkpt lat="45.3267" lon="6.2104">
        <ele>1871</ele>
        <time>2014-03-02T08:58:43.000Z</time>
      </trkpt>
      <trkpt lat="45.3267" lon="6.2104">
        <ele>1871</ele>
        <time>2014-03-02T08:58:45.000Z</time>
      </trkpt>
      <trkpt lat="45.32671" lon="6.21039">
        <ele>1871</ele>
        <time>2014-03-02T08:58:46.000Z</time>
      </trkpt>
      <trkpt lat="45.32671" lon="6.21036">
        <ele>1871.1999511719</ele>
        <time>2014-03-02T08:58:47.000Z</time>
      </trkpt>
      <trkpt lat="45.32672" lon="6.21036">
        <ele>1871.4000244141</ele>
        <time>2014-03-02T08:58:48.000Z</time>
      </trkpt>
      <trkpt lat="45.32672" lon="6.21036">
        <ele>1871.5999755859</ele>
        <time>2014-03-02T08:58:49.000Z</time>
      </trkpt>
      <trkpt lat="45.32672" lon="6.21036">
        <ele>1871.5999755859</ele>
        <time>2014-03-02T08:58:50.000Z</time>
      </trkpt>
      <trkpt lat="45.32672" lon="6.21036">
        <ele>1871.5999755859</ele>
        <time>2014-03-02T08:58:51.000Z</time>
      </trkpt>
      <trkpt lat="45.32673" lon="6.21035">
        <ele>1871.8000488281</ele>
        <time>2014-03-02T08:58:52.000Z</time>
      </trkpt>
      <trkpt lat="45.32674" lon="6.21034">
        <ele>1872</ele>
        <time>2014-03-02T08:58:53.000Z</time>
      </trkpt>
      <trkpt lat="45.32675" lon="6.21031">
        <ele>1872.1999511719</ele>
        <time>2014-03-02T08:58:54.000Z</time>
      </trkpt>
      <trkpt lat="45.32674" lon="6.21031">
        <ele>1872.1999511719</ele>
        <time>2014-03-02T08:58:55.000Z</time>
      </trkpt>
      <trkpt lat="45.32676" lon="6.21026">
        <ele>1872.4000244141</ele>
        <time>2014-03-02T08:58:58.000Z</time>
      </trkpt>
      <trkpt lat="45.32676" lon="6.21024">
        <ele>1872.5999755859</ele>
        <time>2014-03-02T08:58:59.000Z</time>
      </trkpt>
      <trkpt lat="45.32677" lon="6.21022">
        <ele>1872.8000488281</ele>
        <time>2014-03-02T08:59:00.000Z</time>
      </trkpt>
      <trkpt lat="45.32678" lon="6.21022">
        <ele>1872.8000488281</ele>
        <time>2014-03-02T08:59:01.000Z</time>
      </trkpt>
      <trkpt lat="45.32678" lon="6.21021">
        <ele>1872.8000488281</ele>
        <time>2014-03-02T08:59:02.000Z</time>
      </trkpt>
      <trkpt lat="45.32678" lon="6.2102">
        <ele>1872.8000488281</ele>
        <time>2014-03-02T08:59:03.000Z</time>
      </trkpt>
      <trkpt lat="45.32678" lon="6.21019">
        <ele>1872.8000488281</ele>
        <time>2014-03-02T08:59:04.000Z</time>
      </trkpt>
      <trkpt lat="45.32679" lon="6.21017">
        <ele>1872.5999755859</ele>
        <time>2014-03-02T08:59:05.000Z</time>
      </trkpt>
      <trkpt lat="45.32679" lon="6.21017">
        <ele>1872.8000488281</ele>
        <time>2014-03-02T08:59:06.000Z</time>
      </trkpt>
      <trkpt lat="45.3268" lon="6.21015">
        <ele>1872.8000488281</ele>
        <time>2014-03-02T08:59:07.000Z</time>
      </trkpt>
      <trkpt lat="45.32681" lon="6.21013">
        <ele>1873</ele>
        <time>2014-03-02T08:59:08.000Z</time>
      </trkpt>
      <trkpt lat="45.32682" lon="6.21011">
        <ele>1873.1999511719</ele>
        <time>2014-03-02T08:59:09.000Z</time>
      </trkpt>
      <trkpt lat="45.32683" lon="6.2101">
        <ele>1873.1999511719</ele>
        <time>2014-03-02T08:59:10.000Z</time>
      </trkpt>
      <trkpt lat="45.32684" lon="6.21008">
        <ele>1873.4000244141</ele>
        <time>2014-03-02T08:59:11.000Z</time>
      </trkpt>
      <trkpt lat="45.32685" lon="6.21006">
        <ele>1873.5999755859</ele>
        <time>2014-03-02T08:59:12.000Z</time>
      </trkpt>
      <trkpt lat="45.32685" lon="6.21005">
        <ele>1873.5999755859</ele>
        <time>2014-03-02T08:59:13.000Z</time>
      </trkpt>
      <trkpt lat="45.32686" lon="6.21003">
        <ele>1873.5999755859</ele>
        <time>2014-03-02T08:59:14.000Z</time>
      </trkpt>
      <trkpt lat="45.32687" lon="6.21002">
        <ele>1873.8000488281</ele>
        <time>2014-03-02T08:59:15.000Z</time>
      </trkpt>
      <trkpt lat="45.32687" lon="6.20998">
        <ele>1873.5999755859</ele>
        <time>2014-03-02T08:59:17.000Z</time>
      </trkpt>
      <trkpt lat="45.32688" lon="6.20997">
        <ele>1873.8000488281</ele>
        <time>2014-03-02T08:59:18.000Z</time>
      </trkpt>
      <trkpt lat="45.32688" lon="6.20996">
        <ele>1873.8000488281</ele>
        <time>2014-03-02T08:59:19.000Z</time>
      </trkpt>
      <trkpt lat="45.32689" lon="6.20995">
        <ele>1873.8000488281</ele>
        <time>2014-03-02T08:59:20.000Z</time>
      </trkpt>
      <trkpt lat="45.3269" lon="6.20994">
        <ele>1874.1999511719</ele>
        <time>2014-03-02T08:59:21.000Z</time>
      </trkpt>
      <trkpt lat="45.32691" lon="6.20993">
        <ele>1874.4000244141</ele>
        <time>2014-03-02T08:59:22.000Z</time>
      </trkpt>
      <trkpt lat="45.32692" lon="6.20991">
        <ele>1874.4000244141</ele>
        <time>2014-03-02T08:59:23.000Z</time>
      </trkpt>
      <trkpt lat="45.32693" lon="6.20991">
        <ele>1874.5999755859</ele>
        <time>2014-03-02T08:59:24.000Z</time>
      </trkpt>
      <trkpt lat="45.32693" lon="6.20989">
        <ele>1874.5999755859</ele>
        <time>2014-03-02T08:59:26.000Z</time>
      </trkpt>
      <trkpt lat="45.32694" lon="6.20988">
        <ele>1874.5999755859</ele>
        <time>2014-03-02T08:59:27.000Z</time>
      </trkpt>
      <trkpt lat="45.32695" lon="6.20985">
        <ele>1874.5999755859</ele>
        <time>2014-03-02T08:59:28.000Z</time>
      </trkpt>
      <trkpt lat="45.32695" lon="6.20985">
        <ele>1874.8000488281</ele>
        <time>2014-03-02T08:59:29.000Z</time>
      </trkpt>
      <trkpt lat="45.32695" lon="6.20984">
        <ele>1874.5999755859</ele>
        <time>2014-03-02T08:59:30.000Z</time>
      </trkpt>
      <trkpt lat="45.32696" lon="6.20982">
        <ele>1874.8000488281</ele>
        <time>2014-03-02T08:59:31.000Z</time>
      </trkpt>
      <trkpt lat="45.32696" lon="6.20982">
        <ele>1874.8000488281</ele>
        <time>2014-03-02T08:59:32.000Z</time>
      </trkpt>
      <trkpt lat="45.32697" lon="6.20981">
        <ele>1874.8000488281</ele>
        <time>2014-03-02T08:59:33.000Z</time>
      </trkpt>
      <trkpt lat="45.32698" lon="6.20978">
        <ele>1875</ele>
        <time>2014-03-02T08:59:34.000Z</time>
      </trkpt>
      <trkpt lat="45.32699" lon="6.20978">
        <ele>1875.4000244141</ele>
        <time>2014-03-02T08:59:35.000Z</time>
      </trkpt>
      <trkpt lat="45.327" lon="6.20976">
        <ele>1875.5999755859</ele>
        <time>2014-03-02T08:59:36.000Z</time>
      </trkpt>
      <trkpt lat="45.32701" lon="6.20975">
        <ele>1875.8000488281</ele>
        <time>2014-03-02T08:59:37.000Z</time>
      </trkpt>
      <trkpt lat="45.32701" lon="6.20974">
        <ele>1876</ele>
        <time>2014-03-02T08:59:38.000Z</time>
      </trkpt>
      <trkpt lat="45.32702" lon="6.20972">
        <ele>1876.1999511719</ele>
        <time>2014-03-02T08:59:39.000Z</time>
      </trkpt>
      <trkpt lat="45.32703" lon="6.20972">
        <ele>1876.4000244141</ele>
        <time>2014-03-02T08:59:40.000Z</time>
      </trkpt>
      <trkpt lat="45.32703" lon="6.20971">
        <ele>1876.4000244141</ele>
        <time>2014-03-02T08:59:41.000Z</time>
      </trkpt>
      <trkpt lat="45.32703" lon="6.20969">
        <ele>1876.5999755859</ele>
        <time>2014-03-02T08:59:42.000Z</time>
      </trkpt>
      <trkpt lat="45.32703" lon="6.20969">
        <ele>1876.5999755859</ele>
        <time>2014-03-02T08:59:43.000Z</time>
      </trkpt>
      <trkpt lat="45.32704" lon="6.20967">
        <ele>1876.8000488281</ele>
        <time>2014-03-02T08:59:44.000Z</time>
      </trkpt>
      <trkpt lat="45.32705" lon="6.20965">
        <ele>1876.8000488281</ele>
        <time>2014-03-02T08:59:45.000Z</time>
      </trkpt>
      <trkpt lat="45.32706" lon="6.20964">
        <ele>1877.1999511719</ele>
        <time>2014-03-02T08:59:46.000Z</time>
      </trkpt>
      <trkpt lat="45.32706" lon="6.20963">
        <ele>1877.1999511719</ele>
        <time>2014-03-02T08:59:47.000Z</time>
      </trkpt>
      <trkpt lat="45.32708" lon="6.20962">
        <ele>1877.4000244141</ele>
        <time>2014-03-02T08:59:48.000Z</time>
      </trkpt>
      <trkpt lat="45.32707" lon="6.20962">
        <ele>1877.4000244141</ele>
        <time>2014-03-02T08:59:49.000Z</time>
      </trkpt>
      <trkpt lat="45.32708" lon="6.20959">
        <ele>1877.5999755859</ele>
        <time>2014-03-02T08:59:50.000Z</time>
      </trkpt>
      <trkpt lat="45.32709" lon="6.20958">
        <ele>1877.8000488281</ele>
        <time>2014-03-02T08:59:51.000Z</time>
      </trkpt>
      <trkpt lat="45.3271" lon="6.20956">
        <ele>1877.8000488281</ele>
        <time>2014-03-02T08:59:52.000Z</time>
      </trkpt>
      <trkpt lat="45.32711" lon="6.20955">
        <ele>1878</ele>
        <time>2014-03-02T08:59:53.000Z</time>
      </trkpt>
      <trkpt lat="45.32711" lon="6.20954">
        <ele>1878.1999511719</ele>
        <time>2014-03-02T08:59:54.000Z</time>
      </trkpt>
      <trkpt lat="45.32712" lon="6.20953">
        <ele>1878.1999511719</ele>
        <time>2014-03-02T08:59:55.000Z</time>
      </trkpt>
      <trkpt lat="45.32712" lon="6.20952">
        <ele>1878.1999511719</ele>
        <time>2014-03-02T08:59:56.000Z</time>
      </trkpt>
      <trkpt lat="45.32711" lon="6.20952">
        <ele>1878</ele>
        <time>2014-03-02T08:59:57.000Z</time>
      </trkpt>
      <trkpt lat="45.32712" lon="6.2095">
        <ele>1878.1999511719</ele>
        <time>2014-03-02T08:59:58.000Z</time>
      </trkpt>
      <trkpt lat="45.32713" lon="6.20949">
        <ele>1878.4000244141</ele>
        <time>2014-03-02T08:59:59.000Z</time>
      </trkpt>
      <trkpt lat="45.32713" lon="6.20947">
        <ele>1878.4000244141</ele>
        <time>2014-03-02T09:00:00.000Z</time>
      </trkpt>
      <trkpt lat="45.32714" lon="6.20946">
        <ele>1878.5999755859</ele>
        <time>2014-03-02T09:00:01.000Z</time>
      </trkpt>
      <trkpt lat="45.32714" lon="6.20946">
        <ele>1878.5999755859</ele>
        <time>2014-03-02T09:00:02.000Z</time>
      </trkpt>
      <trkpt lat="45.32715" lon="6.20944">
        <ele>1879.1999511719</ele>
        <time>2014-03-02T09:00:03.000Z</time>
      </trkpt>
      <trkpt lat="45.32716" lon="6.20943">
        <ele>1879.4000244141</ele>
        <time>2014-03-02T09:00:04.000Z</time>
      </trkpt>
      <trkpt lat="45.32716" lon="6.20943">
        <ele>1879.1999511719</ele>
        <time>2014-03-02T09:00:05.000Z</time>
      </trkpt>
      <trkpt lat="45.32716" lon="6.2094">
        <ele>1879.1999511719</ele>
        <time>2014-03-02T09:00:06.000Z</time>
      </trkpt>
      <trkpt lat="45.32715" lon="6.2094">
        <ele>1879</ele>
        <time>2014-03-02T09:00:07.000Z</time>
      </trkpt>
      <trkpt lat="45.32716" lon="6.20938">
        <ele>1879.5999755859</ele>
        <time>2014-03-02T09:00:08.000Z</time>
      </trkpt>
      <trkpt lat="45.32717" lon="6.20937">
        <ele>1879.8000488281</ele>
        <time>2014-03-02T09:00:09.000Z</time>
      </trkpt>
      <trkpt lat="45.32717" lon="6.20937">
        <ele>1879.8000488281</ele>
        <time>2014-03-02T09:00:10.000Z</time>
      </trkpt>
      <trkpt lat="45.32717" lon="6.20934">
        <ele>1880</ele>
        <time>2014-03-02T09:00:11.000Z</time>
      </trkpt>
      <trkpt lat="45.32717" lon="6.20934">
        <ele>1879.8000488281</ele>
        <time>2014-03-02T09:00:12.000Z</time>
      </trkpt>
      <trkpt lat="45.32717" lon="6.20933">
        <ele>1879.8000488281</ele>
        <time>2014-03-02T09:00:13.000Z</time>
      </trkpt>
      <trkpt lat="45.32718" lon="6.20932">
        <ele>1880</ele>
        <time>2014-03-02T09:00:14.000Z</time>
      </trkpt>
      <trkpt lat="45.32719" lon="6.20931">
        <ele>1880.4000244141</ele>
        <time>2014-03-02T09:00:15.000Z</time>
      </trkpt>
      <trkpt lat="45.3272" lon="6.20929">
        <ele>1880.8000488281</ele>
        <time>2014-03-02T09:00:16.000Z</time>
      </trkpt>
      <trkpt lat="45.32719" lon="6.20929">
        <ele>1880.5999755859</ele>
        <time>2014-03-02T09:00:17.000Z</time>
      </trkpt>
      <trkpt lat="45.32719" lon="6.20928">
        <ele>1880.4000244141</ele>
        <time>2014-03-02T09:00:18.000Z</time>
      </trkpt>
      <trkpt lat="45.32719" lon="6.20926">
        <ele>1880.5999755859</ele>
        <time>2014-03-02T09:00:19.000Z</time>
      </trkpt>
      <trkpt lat="45.32719" lon="6.20926">
        <ele>1880.4000244141</ele>
        <time>2014-03-02T09:00:20.000Z</time>
      </trkpt>
      <trkpt lat="45.3272" lon="6.20923">
        <ele>1880.5999755859</ele>
        <time>2014-03-02T09:00:21.000Z</time>
      </trkpt>
      <trkpt lat="45.32721" lon="6.20921">
        <ele>1881.1999511719</ele>
        <time>2014-03-02T09:00:22.000Z</time>
      </trkpt>
      <trkpt lat="45.32722" lon="6.2092">
        <ele>1882</ele>
        <time>2014-03-02T09:00:23.000Z</time>
      </trkpt>
      <trkpt lat="45.32723" lon="6.20919">
        <ele>1882.1999511719</ele>
        <time>2014-03-02T09:00:24.000Z</time>
      </trkpt>
      <trkpt lat="45.32722" lon="6.20919">
        <ele>1882</ele>
        <time>2014-03-02T09:00:25.000Z</time>
      </trkpt>
      <trkpt lat="45.32723" lon="6.20916">
        <ele>1882.4000244141</ele>
        <time>2014-03-02T09:00:26.000Z</time>
      </trkpt>
      <trkpt lat="45.32724" lon="6.20914">
        <ele>1882.8000488281</ele>
        <time>2014-03-02T09:00:27.000Z</time>
      </trkpt>
      <trkpt lat="45.32725" lon="6.20913">
        <ele>1883.4000244141</ele>
        <time>2014-03-02T09:00:28.000Z</time>
      </trkpt>
      <trkpt lat="45.32726" lon="6.20912">
        <ele>1883.5999755859</ele>
        <time>2014-03-02T09:00:29.000Z</time>
      </trkpt>
      <trkpt lat="45.32727" lon="6.2091">
        <ele>1884.1999511719</ele>
        <time>2014-03-02T09:00:30.000Z</time>
      </trkpt>
      <trkpt lat="45.32728" lon="6.20909">
        <ele>1884.5999755859</ele>
        <time>2014-03-02T09:00:31.000Z</time>
      </trkpt>
      <trkpt lat="45.32728" lon="6.20907">
        <ele>1884.8000488281</ele>
        <time>2014-03-02T09:00:32.000Z</time>
      </trkpt>
      <trkpt lat="45.32728" lon="6.20906">
        <ele>1885.1999511719</ele>
        <time>2014-03-02T09:00:33.000Z</time>
      </trkpt>
      <trkpt lat="45.32729" lon="6.20905">
        <ele>1885.8000488281</ele>
        <time>2014-03-02T09:00:34.000Z</time>
      </trkpt>
      <trkpt lat="45.3273" lon="6.20903">
        <ele>1886.4000244141</ele>
        <time>2014-03-02T09:00:35.000Z</time>
      </trkpt>
      <trkpt lat="45.3273" lon="6.20903">
        <ele>1886.1999511719</ele>
        <time>2014-03-02T09:00:36.000Z</time>
      </trkpt>
      <trkpt lat="45.3273" lon="6.209">
        <ele>1886.4000244141</ele>
        <time>2014-03-02T09:00:37.000Z</time>
      </trkpt>
      <trkpt lat="45.3273" lon="6.20898">
        <ele>1887</ele>
        <time>2014-03-02T09:00:38.000Z</time>
      </trkpt>
      <trkpt lat="45.32731" lon="6.20897">
        <ele>1887.4000244141</ele>
        <time>2014-03-02T09:00:39.000Z</time>
      </trkpt>
      <trkpt lat="45.32731" lon="6.20896">
        <ele>1887.5999755859</ele>
        <time>2014-03-02T09:00:40.000Z</time>
      </trkpt>
      <trkpt lat="45.32732" lon="6.20895">
        <ele>1888</ele>
        <time>2014-03-02T09:00:41.000Z</time>
      </trkpt>
      <trkpt lat="45.32732" lon="6.20895">
        <ele>1888</ele>
        <time>2014-03-02T09:00:42.000Z</time>
      </trkpt>
      <trkpt lat="45.32732" lon="6.20892">
        <ele>1888.4000244141</ele>
        <time>2014-03-02T09:00:43.000Z</time>
      </trkpt>
      <trkpt lat="45.32733" lon="6.20889">
        <ele>1888.5999755859</ele>
        <time>2014-03-02T09:00:45.000Z</time>
      </trkpt>
      <trkpt lat="45.32733" lon="6.20888">
        <ele>1889</ele>
        <time>2014-03-02T09:00:46.000Z</time>
      </trkpt>
      <trkpt lat="45.32734" lon="6.20886">
        <ele>1889.4000244141</ele>
        <time>2014-03-02T09:00:47.000Z</time>
      </trkpt>
      <trkpt lat="45.32734" lon="6.20882">
        <ele>1890</ele>
        <time>2014-03-02T09:00:49.000Z</time>
      </trkpt>
      <trkpt lat="45.32735" lon="6.20881">
        <ele>1890.4000244141</ele>
        <time>2014-03-02T09:00:50.000Z</time>
      </trkpt>
      <trkpt lat="45.32735" lon="6.20878">
        <ele>1890.8000488281</ele>
        <time>2014-03-02T09:00:51.000Z</time>
      </trkpt>
      <trkpt lat="45.32736" lon="6.20876">
        <ele>1891.1999511719</ele>
        <time>2014-03-02T09:00:52.000Z</time>
      </trkpt>
      <trkpt lat="45.32737" lon="6.20874">
        <ele>1891.5999755859</ele>
        <time>2014-03-02T09:00:53.000Z</time>
      </trkpt>
      <trkpt lat="45.32736" lon="6.20871">
        <ele>1891.1999511719</ele>
        <time>2014-03-02T09:00:54.000Z</time>
      </trkpt>
      <trkpt lat="45.32737" lon="6.2087">
        <ele>1891.5999755859</ele>
        <time>2014-03-02T09:00:55.000Z</time>
      </trkpt>
      <trkpt lat="45.32737" lon="6.20869">
        <ele>1891.8000488281</ele>
        <time>2014-03-02T09:00:56.000Z</time>
      </trkpt>
      <trkpt lat="45.32737" lon="6.20867">
        <ele>1892</ele>
        <time>2014-03-02T09:00:57.000Z</time>
      </trkpt>
      <trkpt lat="45.32737" lon="6.20868">
        <ele>1891.8000488281</ele>
        <time>2014-03-02T09:00:58.000Z</time>
      </trkpt>
      <trkpt lat="45.32737" lon="6.20865">
        <ele>1891.8000488281</ele>
        <time>2014-03-02T09:00:59.000Z</time>
      </trkpt>
      <trkpt lat="45.32737" lon="6.20865">
        <ele>1891.5999755859</ele>
        <time>2014-03-02T09:01:00.000Z</time>
      </trkpt>
      <trkpt lat="45.32736" lon="6.20864">
        <ele>1891.5999755859</ele>
        <time>2014-03-02T09:01:01.000Z</time>
      </trkpt>
      <trkpt lat="45.32736" lon="6.20862">
        <ele>1891.4000244141</ele>
        <time>2014-03-02T09:01:02.000Z</time>
      </trkpt>
      <trkpt lat="45.32736" lon="6.20862">
        <ele>1891.4000244141</ele>
        <time>2014-03-02T09:01:03.000Z</time>
      </trkpt>
      <trkpt lat="45.32736" lon="6.20861">
        <ele>1891</ele>
        <time>2014-03-02T09:01:04.000Z</time>
      </trkpt>
      <trkpt lat="45.32735" lon="6.20859">
        <ele>1890.8000488281</ele>
        <time>2014-03-02T09:01:05.000Z</time>
      </trkpt>
      <trkpt lat="45.32735" lon="6.20857">
        <ele>1890.4000244141</ele>
        <time>2014-03-02T09:01:06.000Z</time>
      </trkpt>
      <trkpt lat="45.32735" lon="6.20857">
        <ele>1890.4000244141</ele>
        <time>2014-03-02T09:01:07.000Z</time>
      </trkpt>
      <trkpt lat="45.32735" lon="6.20855">
        <ele>1890.4000244141</ele>
        <time>2014-03-02T09:01:08.000Z</time>
      </trkpt>
      <trkpt lat="45.32735" lon="6.20855">
        <ele>1890.4000244141</ele>
        <time>2014-03-02T09:01:09.000Z</time>
      </trkpt>
      <trkpt lat="45.32735" lon="6.20854">
        <ele>1890.4000244141</ele>
        <time>2014-03-02T09:01:10.000Z</time>
      </trkpt>
      <trkpt lat="45.32734" lon="6.20852">
        <ele>1890.1999511719</ele>
        <time>2014-03-02T09:01:11.000Z</time>
      </trkpt>
      <trkpt lat="45.32734" lon="6.20852">
        <ele>1890.1999511719</ele>
        <time>2014-03-02T09:01:12.000Z</time>
      </trkpt>
      <trkpt lat="45.32734" lon="6.20851">
        <ele>1890.1999511719</ele>
        <time>2014-03-02T09:01:13.000Z</time>
      </trkpt>
      <trkpt lat="45.32734" lon="6.20847">
        <ele>1889.8000488281</ele>
        <time>2014-03-02T09:01:14.000Z</time>
      </trkpt>
      <trkpt lat="45.32733" lon="6.20846">
        <ele>1889.4000244141</ele>
        <time>2014-03-02T09:01:15.000Z</time>
      </trkpt>
      <trkpt lat="45.32733" lon="6.20845">
        <ele>1889.1999511719</ele>
        <time>2014-03-02T09:01:16.000Z</time>
      </trkpt>
      <trkpt lat="45.32732" lon="6.20843">
        <ele>1888.5999755859</ele>
        <time>2014-03-02T09:01:17.000Z</time>
      </trkpt>
      <trkpt lat="45.32732" lon="6.20843">
        <ele>1888.5999755859</ele>
        <time>2014-03-02T09:01:18.000Z</time>
      </trkpt>
      <trkpt lat="45.32732" lon="6.20843">
        <ele>1888.5999755859</ele>
        <time>2014-03-02T09:01:19.000Z</time>
      </trkpt>
      <trkpt lat="45.32732" lon="6.20843">
        <ele>1888.5999755859</ele>
        <time>2014-03-02T09:01:20.000Z</time>
      </trkpt>
      <trkpt lat="45.32732" lon="6.20843">
        <ele>1888.5999755859</ele>
        <time>2014-03-02T09:01:21.000Z</time>
      </trkpt>
      <trkpt lat="45.32732" lon="6.20843">
        <ele>1888.5999755859</ele>
        <time>2014-03-02T09:01:22.000Z</time>
      </trkpt>
      <trkpt lat="45.32732" lon="6.20843">
        <ele>1888.5999755859</ele>
        <time>2014-03-02T09:01:23.000Z</time>
      </trkpt>
      <trkpt lat="45.32731" lon="6.20841">
        <ele>1888.4000244141</ele>
        <time>2014-03-02T09:01:24.000Z</time>
      </trkpt>
      <trkpt lat="45.32731" lon="6.20841">
        <ele>1888.4000244141</ele>
        <time>2014-03-02T09:01:25.000Z</time>
      </trkpt>
      <trkpt lat="45.32731" lon="6.20839">
        <ele>1888</ele>
        <time>2014-03-02T09:01:26.000Z</time>
      </trkpt>
      <trkpt lat="45.32731" lon="6.20839">
        <ele>1888.1999511719</ele>
        <time>2014-03-02T09:01:27.000Z</time>
      </trkpt>
      <trkpt lat="45.32731" lon="6.20838">
        <ele>1888</ele>
        <time>2014-03-02T09:01:28.000Z</time>
      </trkpt>
      <trkpt lat="45.32729" lon="6.20835">
        <ele>1887</ele>
        <time>2014-03-02T09:01:29.000Z</time>
      </trkpt>
      <trkpt lat="45.32729" lon="6.20835">
        <ele>1887</ele>
        <time>2014-03-02T09:01:30.000Z</time>
      </trkpt>
      <trkpt lat="45.32729" lon="6.20834">
        <ele>1886.8000488281</ele>
        <time>2014-03-02T09:01:31.000Z</time>
      </trkpt>
      <trkpt lat="45.32728" lon="6.20832">
        <ele>1886.1999511719</ele>
        <time>2014-03-02T09:01:32.000Z</time>
      </trkpt>
      <trkpt lat="45.32728" lon="6.20832">
        <ele>1886.1999511719</ele>
        <time>2014-03-02T09:01:33.000Z</time>
      </trkpt>
      <trkpt lat="45.32727" lon="6.20831">
        <ele>1885.8000488281</ele>
        <time>2014-03-02T09:01:34.000Z</time>
      </trkpt>
      <trkpt lat="45.32726" lon="6.20828">
        <ele>1884.5999755859</ele>
        <time>2014-03-02T09:01:35.000Z</time>
      </trkpt>
      <trkpt lat="45.32725" lon="6.20826">
        <ele>1884</ele>
        <time>2014-03-02T09:01:36.000Z</time>
      </trkpt>
      <trkpt lat="45.32724" lon="6.20825">
        <ele>1883.8000488281</ele>
        <time>2014-03-02T09:01:37.000Z</time>
      </trkpt>
      <trkpt lat="45.32723" lon="6.20823">
        <ele>1883.1999511719</ele>
        <time>2014-03-02T09:01:38.000Z</time>
      </trkpt>
      <trkpt lat="45.32722" lon="6.20821">
        <ele>1882.5999755859</ele>
        <time>2014-03-02T09:01:39.000Z</time>
      </trkpt>
      <trkpt lat="45.32722" lon="6.20821">
        <ele>1882.1999511719</ele>
        <time>2014-03-02T09:01:40.000Z</time>
      </trkpt>
      <trkpt lat="45.32721" lon="6.2082">
        <ele>1881.4000244141</ele>
        <time>2014-03-02T09:01:41.000Z</time>
      </trkpt>
      <trkpt lat="45.3272" lon="6.20819">
        <ele>1881</ele>
        <time>2014-03-02T09:01:42.000Z</time>
      </trkpt>
      <trkpt lat="45.32718" lon="6.20818">
        <ele>1880</ele>
        <time>2014-03-02T09:01:43.000Z</time>
      </trkpt>
      <trkpt lat="45.32718" lon="6.20818">
        <ele>1879.5999755859</ele>
        <time>2014-03-02T09:01:44.000Z</time>
      </trkpt>
      <trkpt lat="45.32717" lon="6.20817">
        <ele>1879</ele>
        <time>2014-03-02T09:01:45.000Z</time>
      </trkpt>
      <trkpt lat="45.32716" lon="6.20816">
        <ele>1878.4000244141</ele>
        <time>2014-03-02T09:01:46.000Z</time>
      </trkpt>
      <trkpt lat="45.32716" lon="6.20815">
        <ele>1878.1999511719</ele>
        <time>2014-03-02T09:01:47.000Z</time>
      </trkpt>
      <trkpt lat="45.32716" lon="6.20815">
        <ele>1878.1999511719</ele>
        <time>2014-03-02T09:01:48.000Z</time>
      </trkpt>
      <trkpt lat="45.32715" lon="6.20814">
        <ele>1878</ele>
        <time>2014-03-02T09:01:49.000Z</time>
      </trkpt>
      <trkpt lat="45.32716" lon="6.20814">
        <ele>1878</ele>
        <time>2014-03-02T09:01:50.000Z</time>
      </trkpt>
      <trkpt lat="45.32716" lon="6.20813">
        <ele>1878.5999755859</ele>
        <time>2014-03-02T09:01:51.000Z</time>
      </trkpt>
      <trkpt lat="45.32717" lon="6.20812">
        <ele>1878.8000488281</ele>
        <time>2014-03-02T09:01:52.000Z</time>
      </trkpt>
      <trkpt lat="45.32717" lon="6.20811">
        <ele>1879.1999511719</ele>
        <time>2014-03-02T09:01:53.000Z</time>
      </trkpt>
      <trkpt lat="45.32718" lon="6.2081">
        <ele>1879.5999755859</ele>
        <time>2014-03-02T09:01:54.000Z</time>
      </trkpt>
      <trkpt lat="45.32718" lon="6.2081">
        <ele>1879.8000488281</ele>
        <time>2014-03-02T09:01:55.000Z</time>
      </trkpt>
      <trkpt lat="45.32718" lon="6.2081">
        <ele>1879.8000488281</ele>
        <time>2014-03-02T09:01:56.000Z</time>
      </trkpt>
      <trkpt lat="45.32718" lon="6.20807">
        <ele>1880</ele>
        <time>2014-03-02T09:01:57.000Z</time>
      </trkpt>
      <trkpt lat="45.32718" lon="6.20807">
        <ele>1880</ele>
        <time>2014-03-02T09:01:58.000Z</time>
      </trkpt>
      <trkpt lat="45.32718" lon="6.20804">
        <ele>1880.5999755859</ele>
        <time>2014-03-02T09:01:59.000Z</time>
      </trkpt>
      <trkpt lat="45.32718" lon="6.20804">
        <ele>1880.1999511719</ele>
        <time>2014-03-02T09:02:00.000Z</time>
      </trkpt>
      <trkpt lat="45.32718" lon="6.20803">
        <ele>1880.1999511719</ele>
        <time>2014-03-02T09:02:01.000Z</time>
      </trkpt>
      <trkpt lat="45.32718" lon="6.20803">
        <ele>1880.4000244141</ele>
        <time>2014-03-02T09:02:02.000Z</time>
      </trkpt>
      <trkpt lat="45.32718" lon="6.20803">
        <ele>1880.4000244141</ele>
        <time>2014-03-02T09:02:03.000Z</time>
      </trkpt>
      <trkpt lat="45.32718" lon="6.208">
        <ele>1880.8000488281</ele>
        <time>2014-03-02T09:02:04.000Z</time>
      </trkpt>
      <trkpt lat="45.32718" lon="6.208">
        <ele>1880.8000488281</ele>
        <time>2014-03-02T09:02:05.000Z</time>
      </trkpt>
      <trkpt lat="45.32719" lon="6.20798">
        <ele>1881.4000244141</ele>
        <time>2014-03-02T09:02:06.000Z</time>
      </trkpt>
      <trkpt lat="45.32718" lon="6.20797">
        <ele>1881.4000244141</ele>
        <time>2014-03-02T09:02:07.000Z</time>
      </trkpt>
      <trkpt lat="45.32718" lon="6.20795">
        <ele>1881.5999755859</ele>
        <time>2014-03-02T09:02:08.000Z</time>
      </trkpt>
      <trkpt lat="45.32718" lon="6.20794">
        <ele>1881.8000488281</ele>
        <time>2014-03-02T09:02:09.000Z</time>
      </trkpt>
      <trkpt lat="45.32718" lon="6.20794">
        <ele>1881.5999755859</ele>
        <time>2014-03-02T09:02:10.000Z</time>
      </trkpt>
      <trkpt lat="45.32718" lon="6.20791">
        <ele>1882</ele>
        <time>2014-03-02T09:02:11.000Z</time>
      </trkpt>
      <trkpt lat="45.32718" lon="6.20791">
        <ele>1881.8000488281</ele>
        <time>2014-03-02T09:02:12.000Z</time>
      </trkpt>
      <trkpt lat="45.32719" lon="6.20789">
        <ele>1882.4000244141</ele>
        <time>2014-03-02T09:02:13.000Z</time>
      </trkpt>
      <trkpt lat="45.32719" lon="6.2079">
        <ele>1882.4000244141</ele>
        <time>2014-03-02T09:02:14.000Z</time>
      </trkpt>
      <trkpt lat="45.32719" lon="6.20788">
        <ele>1883</ele>
        <time>2014-03-02T09:02:15.000Z</time>
      </trkpt>
      <trkpt lat="45.3272" lon="6.20787">
        <ele>1883.4000244141</ele>
        <time>2014-03-02T09:02:16.000Z</time>
      </trkpt>
      <trkpt lat="45.3272" lon="6.20787">
        <ele>1883.4000244141</ele>
        <time>2014-03-02T09:02:17.000Z</time>
      </trkpt>
      <trkpt lat="45.3272" lon="6.20785">
        <ele>1884</ele>
        <time>2014-03-02T09:02:18.000Z</time>
      </trkpt>
      <trkpt lat="45.3272" lon="6.20785">
        <ele>1883.5999755859</ele>
        <time>2014-03-02T09:02:19.000Z</time>
      </trkpt>
      <trkpt lat="45.3272" lon="6.20783">
        <ele>1883.5999755859</ele>
        <time>2014-03-02T09:02:20.000Z</time>
      </trkpt>
      <trkpt lat="45.32719" lon="6.20782">
        <ele>1883.5999755859</ele>
        <time>2014-03-02T09:02:21.000Z</time>
      </trkpt>
      <trkpt lat="45.32719" lon="6.20782">
        <ele>1883.4000244141</ele>
        <time>2014-03-02T09:02:22.000Z</time>
      </trkpt>
      <trkpt lat="45.32719" lon="6.20781">
        <ele>1883.8000488281</ele>
        <time>2014-03-02T09:02:23.000Z</time>
      </trkpt>
      <trkpt lat="45.3272" lon="6.2078">
        <ele>1884</ele>
        <time>2014-03-02T09:02:24.000Z</time>
      </trkpt>
      <trkpt lat="45.3272" lon="6.20777">
        <ele>1884.8000488281</ele>
        <time>2014-03-02T09:02:25.000Z</time>
      </trkpt>
      <trkpt lat="45.32721" lon="6.20776">
        <ele>1885.1999511719</ele>
        <time>2014-03-02T09:02:26.000Z</time>
      </trkpt>
      <trkpt lat="45.32721" lon="6.20774">
        <ele>1885.4000244141</ele>
        <time>2014-03-02T09:02:27.000Z</time>
      </trkpt>
      <trkpt lat="45.32721" lon="6.20774">
        <ele>1885.4000244141</ele>
        <time>2014-03-02T09:02:28.000Z</time>
      </trkpt>
      <trkpt lat="45.32721" lon="6.20773">
        <ele>1885.5999755859</ele>
        <time>2014-03-02T09:02:29.000Z</time>
      </trkpt>
      <trkpt lat="45.32722" lon="6.2077">
        <ele>1886.4000244141</ele>
        <time>2014-03-02T09:02:30.000Z</time>
      </trkpt>
      <trkpt lat="45.32722" lon="6.2077">
        <ele>1886.5999755859</ele>
        <time>2014-03-02T09:02:31.000Z</time>
      </trkpt>
      <trkpt lat="45.32723" lon="6.20768">
        <ele>1887.4000244141</ele>
        <time>2014-03-02T09:02:32.000Z</time>
      </trkpt>
      <trkpt lat="45.32724" lon="6.20767">
        <ele>1888</ele>
        <time>2014-03-02T09:02:33.000Z</time>
      </trkpt>
      <trkpt lat="45.32724" lon="6.20766">
        <ele>1888.1999511719</ele>
        <time>2014-03-02T09:02:34.000Z</time>
      </trkpt>
      <trkpt lat="45.32725" lon="6.20767">
        <ele>1888.5999755859</ele>
        <time>2014-03-02T09:02:35.000Z</time>
      </trkpt>
      <trkpt lat="45.32725" lon="6.20766">
        <ele>1889</ele>
        <time>2014-03-02T09:02:36.000Z</time>
      </trkpt>
      <trkpt lat="45.32725" lon="6.20765">
        <ele>1889.1999511719</ele>
        <time>2014-03-02T09:02:37.000Z</time>
      </trkpt>
      <trkpt lat="45.32725" lon="6.20764">
        <ele>1889.1999511719</ele>
        <time>2014-03-02T09:02:38.000Z</time>
      </trkpt>
      <trkpt lat="45.32725" lon="6.20763">
        <ele>1889.4000244141</ele>
        <time>2014-03-02T09:02:39.000Z</time>
      </trkpt>
      <trkpt lat="45.32724" lon="6.20762">
        <ele>1888.8000488281</ele>
        <time>2014-03-02T09:02:40.000Z</time>
      </trkpt>
      <trkpt lat="45.32725" lon="6.2076">
        <ele>1889.4000244141</ele>
        <time>2014-03-02T09:02:41.000Z</time>
      </trkpt>
      <trkpt lat="45.32725" lon="6.2076">
        <ele>1889.5999755859</ele>
        <time>2014-03-02T09:02:42.000Z</time>
      </trkpt>
      <trkpt lat="45.32725" lon="6.20759">
        <ele>1889.8000488281</ele>
        <time>2014-03-02T09:02:43.000Z</time>
      </trkpt>
      <trkpt lat="45.32726" lon="6.20757">
        <ele>1890.8000488281</ele>
        <time>2014-03-02T09:02:44.000Z</time>
      </trkpt>
      <trkpt lat="45.32726" lon="6.20757">
        <ele>1890.8000488281</ele>
        <time>2014-03-02T09:02:45.000Z</time>
      </trkpt>
      <trkpt lat="45.32727" lon="6.20755">
        <ele>1891.5999755859</ele>
        <time>2014-03-02T09:02:46.000Z</time>
      </trkpt>
      <trkpt lat="45.32727" lon="6.20755">
        <ele>1891.4000244141</ele>
        <time>2014-03-02T09:02:47.000Z</time>
      </trkpt>
      <trkpt lat="45.32727" lon="6.20753">
        <ele>1891.8000488281</ele>
        <time>2014-03-02T09:02:48.000Z</time>
      </trkpt>
      <trkpt lat="45.32727" lon="6.20753">
        <ele>1891.4000244141</ele>
        <time>2014-03-02T09:02:49.000Z</time>
      </trkpt>
      <trkpt lat="45.32727" lon="6.20752">
        <ele>1891.4000244141</ele>
        <time>2014-03-02T09:02:50.000Z</time>
      </trkpt>
      <trkpt lat="45.32727" lon="6.20749">
        <ele>1891.8000488281</ele>
        <time>2014-03-02T09:02:51.000Z</time>
      </trkpt>
      <trkpt lat="45.32728" lon="6.20748">
        <ele>1892.5999755859</ele>
        <time>2014-03-02T09:02:52.000Z</time>
      </trkpt>
      <trkpt lat="45.32727" lon="6.20747">
        <ele>1892</ele>
        <time>2014-03-02T09:02:53.000Z</time>
      </trkpt>
      <trkpt lat="45.32726" lon="6.20748">
        <ele>1891.8000488281</ele>
        <time>2014-03-02T09:02:54.000Z</time>
      </trkpt>
      <trkpt lat="45.32726" lon="6.20747">
        <ele>1891.8000488281</ele>
        <time>2014-03-02T09:02:55.000Z</time>
      </trkpt>
      <trkpt lat="45.32727" lon="6.20745">
        <ele>1892.5999755859</ele>
        <time>2014-03-02T09:02:56.000Z</time>
      </trkpt>
      <trkpt lat="45.32727" lon="6.20745">
        <ele>1892.4000244141</ele>
        <time>2014-03-02T09:02:57.000Z</time>
      </trkpt>
      <trkpt lat="45.32728" lon="6.20743">
        <ele>1893</ele>
        <time>2014-03-02T09:02:58.000Z</time>
      </trkpt>
      <trkpt lat="45.32727" lon="6.20743">
        <ele>1893</ele>
        <time>2014-03-02T09:02:59.000Z</time>
      </trkpt>
      <trkpt lat="45.32728" lon="6.2074">
        <ele>1893.1999511719</ele>
        <time>2014-03-02T09:03:00.000Z</time>
      </trkpt>
      <trkpt lat="45.32728" lon="6.20739">
        <ele>1893.4000244141</ele>
        <time>2014-03-02T09:03:01.000Z</time>
      </trkpt>
      <trkpt lat="45.32729" lon="6.20739">
        <ele>1893.5999755859</ele>
        <time>2014-03-02T09:03:02.000Z</time>
      </trkpt>
      <trkpt lat="45.32729" lon="6.20736">
        <ele>1893.8000488281</ele>
        <time>2014-03-02T09:03:03.000Z</time>
      </trkpt>
      <trkpt lat="45.32729" lon="6.20736">
        <ele>1893.5999755859</ele>
        <time>2014-03-02T09:03:04.000Z</time>
      </trkpt>
      <trkpt lat="45.32729" lon="6.20733">
        <ele>1893.5999755859</ele>
        <time>2014-03-02T09:03:05.000Z</time>
      </trkpt>
      <trkpt lat="45.32729" lon="6.20734">
        <ele>1893.8000488281</ele>
        <time>2014-03-02T09:03:06.000Z</time>
      </trkpt>
      <trkpt lat="45.3273" lon="6.20733">
        <ele>1894</ele>
        <time>2014-03-02T09:03:07.000Z</time>
      </trkpt>
      <trkpt lat="45.3273" lon="6.20732">
        <ele>1894</ele>
        <time>2014-03-02T09:03:08.000Z</time>
      </trkpt>
      <trkpt lat="45.3273" lon="6.20732">
        <ele>1894</ele>
        <time>2014-03-02T09:03:09.000Z</time>
      </trkpt>
      <trkpt lat="45.3273" lon="6.20732">
        <ele>1894</ele>
        <time>2014-03-02T09:03:10.000Z</time>
      </trkpt>
      <trkpt lat="45.3273" lon="6.20731">
        <ele>1894</ele>
        <time>2014-03-02T09:03:11.000Z</time>
      </trkpt>
      <trkpt lat="45.3273" lon="6.2073">
        <ele>1894.4000244141</ele>
        <time>2014-03-02T09:03:12.000Z</time>
      </trkpt>
      <trkpt lat="45.32731" lon="6.20727">
        <ele>1894.8000488281</ele>
        <time>2014-03-02T09:03:13.000Z</time>
      </trkpt>
      <trkpt lat="45.32731" lon="6.20727">
        <ele>1894.8000488281</ele>
        <time>2014-03-02T09:03:14.000Z</time>
      </trkpt>
      <trkpt lat="45.32732" lon="6.20725">
        <ele>1895.1999511719</ele>
        <time>2014-03-02T09:03:15.000Z</time>
      </trkpt>
      <trkpt lat="45.32733" lon="6.20723">
        <ele>1895.5999755859</ele>
        <time>2014-03-02T09:03:16.000Z</time>
      </trkpt>
      <trkpt lat="45.32733" lon="6.20723">
        <ele>1895.5999755859</ele>
        <time>2014-03-02T09:03:17.000Z</time>
      </trkpt>
      <trkpt lat="45.32734" lon="6.20722">
        <ele>1896.1999511719</ele>
        <time>2014-03-02T09:03:18.000Z</time>
      </trkpt>
      <trkpt lat="45.32734" lon="6.20722">
        <ele>1896.1999511719</ele>
        <time>2014-03-02T09:03:19.000Z</time>
      </trkpt>
      <trkpt lat="45.32734" lon="6.20722">
        <ele>1896.1999511719</ele>
        <time>2014-03-02T09:03:20.000Z</time>
      </trkpt>
      <trkpt lat="45.32736" lon="6.2072">
        <ele>1897.1999511719</ele>
        <time>2014-03-02T09:03:21.000Z</time>
      </trkpt>
      <trkpt lat="45.32736" lon="6.2072">
        <ele>1897</ele>
        <time>2014-03-02T09:03:22.000Z</time>
      </trkpt>
      <trkpt lat="45.32737" lon="6.20718">
        <ele>1897.5999755859</ele>
        <time>2014-03-02T09:03:23.000Z</time>
      </trkpt>
      <trkpt lat="45.32738" lon="6.20717">
        <ele>1898</ele>
        <time>2014-03-02T09:03:24.000Z</time>
      </trkpt>
      <trkpt lat="45.32737" lon="6.20717">
        <ele>1897.8000488281</ele>
        <time>2014-03-02T09:03:25.000Z</time>
      </trkpt>
      <trkpt lat="45.32739" lon="6.20715">
        <ele>1898.4000244141</ele>
        <time>2014-03-02T09:03:26.000Z</time>
      </trkpt>
      <trkpt lat="45.32738" lon="6.20715">
        <ele>1898.4000244141</ele>
        <time>2014-03-02T09:03:27.000Z</time>
      </trkpt>
      <trkpt lat="45.32739" lon="6.20714">
        <ele>1898.5999755859</ele>
        <time>2014-03-02T09:03:28.000Z</time>
      </trkpt>
      <trkpt lat="45.32741" lon="6.20712">
        <ele>1899.5999755859</ele>
        <time>2014-03-02T09:03:29.000Z</time>
      </trkpt>
      <trkpt lat="45.32741" lon="6.20712">
        <ele>1899.5999755859</ele>
        <time>2014-03-02T09:03:30.000Z</time>
      </trkpt>
      <trkpt lat="45.32742" lon="6.2071">
        <ele>1900.1999511719</ele>
        <time>2014-03-02T09:03:31.000Z</time>
      </trkpt>
      <trkpt lat="45.32743" lon="6.20708">
        <ele>1900.8000488281</ele>
        <time>2014-03-02T09:03:32.000Z</time>
      </trkpt>
      <trkpt lat="45.32745" lon="6.20707">
        <ele>1901.4000244141</ele>
        <time>2014-03-02T09:03:33.000Z</time>
      </trkpt>
      <trkpt lat="45.32746" lon="6.20706">
        <ele>1902</ele>
        <time>2014-03-02T09:03:34.000Z</time>
      </trkpt>
      <trkpt lat="45.32747" lon="6.20704">
        <ele>1902.5999755859</ele>
        <time>2014-03-02T09:03:35.000Z</time>
      </trkpt>
      <trkpt lat="45.32748" lon="6.20703">
        <ele>1903.4000244141</ele>
        <time>2014-03-02T09:03:36.000Z</time>
      </trkpt>
      <trkpt lat="45.32749" lon="6.20702">
        <ele>1903.8000488281</ele>
        <time>2014-03-02T09:03:37.000Z</time>
      </trkpt>
      <trkpt lat="45.3275" lon="6.20701">
        <ele>1904</ele>
        <time>2014-03-02T09:03:38.000Z</time>
      </trkpt>
      <trkpt lat="45.3275" lon="6.207">
        <ele>1904.1999511719</ele>
        <time>2014-03-02T09:03:39.000Z</time>
      </trkpt>
      <trkpt lat="45.32751" lon="6.20698">
        <ele>1904.8000488281</ele>
        <time>2014-03-02T09:03:40.000Z</time>
      </trkpt>
      <trkpt lat="45.32752" lon="6.20697">
        <ele>1905.4000244141</ele>
        <time>2014-03-02T09:03:41.000Z</time>
      </trkpt>
      <trkpt lat="45.32753" lon="6.20696">
        <ele>1905.5999755859</ele>
        <time>2014-03-02T09:03:42.000Z</time>
      </trkpt>
      <trkpt lat="45.32754" lon="6.20694">
        <ele>1906</ele>
        <time>2014-03-02T09:03:43.000Z</time>
      </trkpt>
      <trkpt lat="45.32755" lon="6.20692">
        <ele>1906.5999755859</ele>
        <time>2014-03-02T09:03:44.000Z</time>
      </trkpt>
      <trkpt lat="45.32755" lon="6.20692">
        <ele>1907</ele>
        <time>2014-03-02T09:03:45.000Z</time>
      </trkpt>
      <trkpt lat="45.32754" lon="6.20692">
        <ele>1906.4000244141</ele>
        <time>2014-03-02T09:03:46.000Z</time>
      </trkpt>
      <trkpt lat="45.32754" lon="6.20692">
        <ele>1906.4000244141</ele>
        <time>2014-03-02T09:03:47.000Z</time>
      </trkpt>
      <trkpt lat="45.32754" lon="6.20692">
        <ele>1906.4000244141</ele>
        <time>2014-03-02T09:03:48.000Z</time>
      </trkpt>
      <trkpt lat="45.32755" lon="6.20691">
        <ele>1906.5999755859</ele>
        <time>2014-03-02T09:03:49.000Z</time>
      </trkpt>
      <trkpt lat="45.32755" lon="6.20689">
        <ele>1906.8000488281</ele>
        <time>2014-03-02T09:03:50.000Z</time>
      </trkpt>
      <trkpt lat="45.32755" lon="6.20689">
        <ele>1906.8000488281</ele>
        <time>2014-03-02T09:03:51.000Z</time>
      </trkpt>
      <trkpt lat="45.32756" lon="6.20689">
        <ele>1907.1999511719</ele>
        <time>2014-03-02T09:03:54.000Z</time>
      </trkpt>
      <trkpt lat="45.32756" lon="6.20689">
        <ele>1907.1999511719</ele>
        <time>2014-03-02T09:03:55.000Z</time>
      </trkpt>
      <trkpt lat="45.32756" lon="6.20689">
        <ele>1907.1999511719</ele>
        <time>2014-03-02T09:03:56.000Z</time>
      </trkpt>
      <trkpt lat="45.32756" lon="6.20689">
        <ele>1907.1999511719</ele>
        <time>2014-03-02T09:03:58.000Z</time>
      </trkpt>
      <trkpt lat="45.32756" lon="6.20689">
        <ele>1907.1999511719</ele>
        <time>2014-03-02T09:03:59.000Z</time>
      </trkpt>
      <trkpt lat="45.32756" lon="6.20688">
        <ele>1907.4000244141</ele>
        <time>2014-03-02T09:04:00.000Z</time>
      </trkpt>
      <trkpt lat="45.32757" lon="6.20686">
        <ele>1908</ele>
        <time>2014-03-02T09:04:01.000Z</time>
      </trkpt>
      <trkpt lat="45.32757" lon="6.20686">
        <ele>1908</ele>
        <time>2014-03-02T09:04:02.000Z</time>
      </trkpt>
      <trkpt lat="45.32758" lon="6.20683">
        <ele>1908.5999755859</ele>
        <time>2014-03-02T09:04:03.000Z</time>
      </trkpt>
      <trkpt lat="45.32759" lon="6.20681">
        <ele>1909</ele>
        <time>2014-03-02T09:04:04.000Z</time>
      </trkpt>
      <trkpt lat="45.32759" lon="6.2068">
        <ele>1909</ele>
        <time>2014-03-02T09:04:05.000Z</time>
      </trkpt>
      <trkpt lat="45.32759" lon="6.20679">
        <ele>1909.4000244141</ele>
        <time>2014-03-02T09:04:06.000Z</time>
      </trkpt>
      <trkpt lat="45.3276" lon="6.20677">
        <ele>1909.8000488281</ele>
        <time>2014-03-02T09:04:07.000Z</time>
      </trkpt>
      <trkpt lat="45.3276" lon="6.20677">
        <ele>1909.8000488281</ele>
        <time>2014-03-02T09:04:08.000Z</time>
      </trkpt>
      <trkpt lat="45.32761" lon="6.20675">
        <ele>1910.4000244141</ele>
        <time>2014-03-02T09:04:09.000Z</time>
      </trkpt>
      <trkpt lat="45.32762" lon="6.20674">
        <ele>1911</ele>
        <time>2014-03-02T09:04:10.000Z</time>
      </trkpt>
      <trkpt lat="45.32763" lon="6.20673">
        <ele>1911.5999755859</ele>
        <time>2014-03-02T09:04:11.000Z</time>
      </trkpt>
      <trkpt lat="45.32764" lon="6.20671">
        <ele>1912</ele>
        <time>2014-03-02T09:04:13.000Z</time>
      </trkpt>
      <trkpt lat="45.32764" lon="6.20671">
        <ele>1912</ele>
        <time>2014-03-02T09:04:14.000Z</time>
      </trkpt>
      <trkpt lat="45.32764" lon="6.20668">
        <ele>1912.4000244141</ele>
        <time>2014-03-02T09:04:15.000Z</time>
      </trkpt>
      <trkpt lat="45.32764" lon="6.20668">
        <ele>1912.1999511719</ele>
        <time>2014-03-02T09:04:16.000Z</time>
      </trkpt>
      <trkpt lat="45.32765" lon="6.20665">
        <ele>1913</ele>
        <time>2014-03-02T09:04:18.000Z</time>
      </trkpt>
      <trkpt lat="45.32766" lon="6.20664">
        <ele>1913.4000244141</ele>
        <time>2014-03-02T09:04:19.000Z</time>
      </trkpt>
      <trkpt lat="45.32766" lon="6.20662">
        <ele>1913.8000488281</ele>
        <time>2014-03-02T09:04:20.000Z</time>
      </trkpt>
      <trkpt lat="45.32766" lon="6.2066">
        <ele>1913.8000488281</ele>
        <time>2014-03-02T09:04:21.000Z</time>
      </trkpt>
      <trkpt lat="45.32766" lon="6.2066">
        <ele>1913.8000488281</ele>
        <time>2014-03-02T09:04:22.000Z</time>
      </trkpt>
      <trkpt lat="45.32767" lon="6.20658">
        <ele>1914.1999511719</ele>
        <time>2014-03-02T09:04:23.000Z</time>
      </trkpt>
      <trkpt lat="45.32767" lon="6.20658">
        <ele>1914</ele>
        <time>2014-03-02T09:04:24.000Z</time>
      </trkpt>
      <trkpt lat="45.32767" lon="6.20657">
        <ele>1914.1999511719</ele>
        <time>2014-03-02T09:04:25.000Z</time>
      </trkpt>
      <trkpt lat="45.32768" lon="6.20654">
        <ele>1914.5999755859</ele>
        <time>2014-03-02T09:04:26.000Z</time>
      </trkpt>
      <trkpt lat="45.32767" lon="6.20654">
        <ele>1914.5999755859</ele>
        <time>2014-03-02T09:04:27.000Z</time>
      </trkpt>
      <trkpt lat="45.32768" lon="6.20651">
        <ele>1914.8000488281</ele>
        <time>2014-03-02T09:04:28.000Z</time>
      </trkpt>
      <trkpt lat="45.32767" lon="6.20651">
        <ele>1914.5999755859</ele>
        <time>2014-03-02T09:04:29.000Z</time>
      </trkpt>
      <trkpt lat="45.32767" lon="6.20651">
        <ele>1914.4000244141</ele>
        <time>2014-03-02T09:04:30.000Z</time>
      </trkpt>
      <trkpt lat="45.32767" lon="6.20648">
        <ele>1914.5999755859</ele>
        <time>2014-03-02T09:04:31.000Z</time>
      </trkpt>
      <trkpt lat="45.32767" lon="6.20648">
        <ele>1914.5999755859</ele>
        <time>2014-03-02T09:04:32.000Z</time>
      </trkpt>
      <trkpt lat="45.32767" lon="6.20646">
        <ele>1914.8000488281</ele>
        <time>2014-03-02T09:04:33.000Z</time>
      </trkpt>
      <trkpt lat="45.32768" lon="6.20644">
        <ele>1915.1999511719</ele>
        <time>2014-03-02T09:04:34.000Z</time>
      </trkpt>
      <trkpt lat="45.32768" lon="6.20644">
        <ele>1915.1999511719</ele>
        <time>2014-03-02T09:04:35.000Z</time>
      </trkpt>
      <trkpt lat="45.32768" lon="6.20641">
        <ele>1915.8000488281</ele>
        <time>2014-03-02T09:04:36.000Z</time>
      </trkpt>
      <trkpt lat="45.32768" lon="6.20642">
        <ele>1915.8000488281</ele>
        <time>2014-03-02T09:04:37.000Z</time>
      </trkpt>
      <trkpt lat="45.32769" lon="6.2064">
        <ele>1916.1999511719</ele>
        <time>2014-03-02T09:04:38.000Z</time>
      </trkpt>
      <trkpt lat="45.32769" lon="6.20638">
        <ele>1916.5999755859</ele>
        <time>2014-03-02T09:04:39.000Z</time>
      </trkpt>
      <trkpt lat="45.32769" lon="6.20637">
        <ele>1916.5999755859</ele>
        <time>2014-03-02T09:04:40.000Z</time>
      </trkpt>
      <trkpt lat="45.32768" lon="6.20634">
        <ele>1916.4000244141</ele>
        <time>2014-03-02T09:04:41.000Z</time>
      </trkpt>
      <trkpt lat="45.32768" lon="6.20634">
        <ele>1916.5999755859</ele>
        <time>2014-03-02T09:04:42.000Z</time>
      </trkpt>
      <trkpt lat="45.32768" lon="6.20631">
        <ele>1916.5999755859</ele>
        <time>2014-03-02T09:04:43.000Z</time>
      </trkpt>
      <trkpt lat="45.32768" lon="6.2063">
        <ele>1917.1999511719</ele>
        <time>2014-03-02T09:04:44.000Z</time>
      </trkpt>
      <trkpt lat="45.32768" lon="6.2063">
        <ele>1917.1999511719</ele>
        <time>2014-03-02T09:04:45.000Z</time>
      </trkpt>
      <trkpt lat="45.32769" lon="6.20627">
        <ele>1917.8000488281</ele>
        <time>2014-03-02T09:04:46.000Z</time>
      </trkpt>
      <trkpt lat="45.32769" lon="6.20628">
        <ele>1918</ele>
        <time>2014-03-02T09:04:47.000Z</time>
      </trkpt>
      <trkpt lat="45.32769" lon="6.20626">
        <ele>1918.1999511719</ele>
        <time>2014-03-02T09:04:48.000Z</time>
      </trkpt>
      <trkpt lat="45.3277" lon="6.20623">
        <ele>1919</ele>
        <time>2014-03-02T09:04:49.000Z</time>
      </trkpt>
      <trkpt lat="45.3277" lon="6.20624">
        <ele>1919</ele>
        <time>2014-03-02T09:04:50.000Z</time>
      </trkpt>
      <trkpt lat="45.3277" lon="6.20621">
        <ele>1919.1999511719</ele>
        <time>2014-03-02T09:04:51.000Z</time>
      </trkpt>
      <trkpt lat="45.3277" lon="6.20619">
        <ele>1919.1999511719</ele>
        <time>2014-03-02T09:04:52.000Z</time>
      </trkpt>
      <trkpt lat="45.32769" lon="6.20619">
        <ele>1919.1999511719</ele>
        <time>2014-03-02T09:04:53.000Z</time>
      </trkpt>
      <trkpt lat="45.32769" lon="6.20616">
        <ele>1919.1999511719</ele>
        <time>2014-03-02T09:04:54.000Z</time>
      </trkpt>
      <trkpt lat="45.32769" lon="6.20615">
        <ele>1919.1999511719</ele>
        <time>2014-03-02T09:04:55.000Z</time>
      </trkpt>
      <trkpt lat="45.32769" lon="6.20616">
        <ele>1919.1999511719</ele>
        <time>2014-03-02T09:04:56.000Z</time>
      </trkpt>
      <trkpt lat="45.32769" lon="6.20613">
        <ele>1919.1999511719</ele>
        <time>2014-03-02T09:04:57.000Z</time>
      </trkpt>
      <trkpt lat="45.32769" lon="6.20614">
        <ele>1919.1999511719</ele>
        <time>2014-03-02T09:04:58.000Z</time>
      </trkpt>
      <trkpt lat="45.32769" lon="6.20613">
        <ele>1919.1999511719</ele>
        <time>2014-03-02T09:04:59.000Z</time>
      </trkpt>
      <trkpt lat="45.3277" lon="6.2061">
        <ele>1919.8000488281</ele>
        <time>2014-03-02T09:05:00.000Z</time>
      </trkpt>
      <trkpt lat="45.3277" lon="6.2061">
        <ele>1919.8000488281</ele>
        <time>2014-03-02T09:05:01.000Z</time>
      </trkpt>
      <trkpt lat="45.3277" lon="6.20608">
        <ele>1920</ele>
        <time>2014-03-02T09:05:02.000Z</time>
      </trkpt>
      <trkpt lat="45.3277" lon="6.20608">
        <ele>1920</ele>
        <time>2014-03-02T09:05:03.000Z</time>
      </trkpt>
      <trkpt lat="45.3277" lon="6.20606">
        <ele>1920.1999511719</ele>
        <time>2014-03-02T09:05:04.000Z</time>
      </trkpt>
      <trkpt lat="45.32771" lon="6.20605">
        <ele>1920.4000244141</ele>
        <time>2014-03-02T09:05:05.000Z</time>
      </trkpt>
      <trkpt lat="45.32771" lon="6.20604">
        <ele>1920.8000488281</ele>
        <time>2014-03-02T09:05:06.000Z</time>
      </trkpt>
      <trkpt lat="45.32772" lon="6.20602">
        <ele>1921</ele>
        <time>2014-03-02T09:05:07.000Z</time>
      </trkpt>
      <trkpt lat="45.32773" lon="6.20601">
        <ele>1921.4000244141</ele>
        <time>2014-03-02T09:05:08.000Z</time>
      </trkpt>
      <trkpt lat="45.32773" lon="6.206">
        <ele>1921.5999755859</ele>
        <time>2014-03-02T09:05:09.000Z</time>
      </trkpt>
      <trkpt lat="45.32774" lon="6.20598">
        <ele>1922</ele>
        <time>2014-03-02T09:05:10.000Z</time>
      </trkpt>
      <trkpt lat="45.32774" lon="6.20598">
        <ele>1922.1999511719</ele>
        <time>2014-03-02T09:05:11.000Z</time>
      </trkpt>
      <trkpt lat="45.32775" lon="6.20596">
        <ele>1922.4000244141</ele>
        <time>2014-03-02T09:05:12.000Z</time>
      </trkpt>
      <trkpt lat="45.32774" lon="6.20596">
        <ele>1922.4000244141</ele>
        <time>2014-03-02T09:05:13.000Z</time>
      </trkpt>
      <trkpt lat="45.32774" lon="6.20596">
        <ele>1922.4000244141</ele>
        <time>2014-03-02T09:05:14.000Z</time>
      </trkpt>
      <trkpt lat="45.32775" lon="6.20593">
        <ele>1922.5999755859</ele>
        <time>2014-03-02T09:05:15.000Z</time>
      </trkpt>
      <trkpt lat="45.32775" lon="6.20593">
        <ele>1922.5999755859</ele>
        <time>2014-03-02T09:05:16.000Z</time>
      </trkpt>
      <trkpt lat="45.32775" lon="6.20591">
        <ele>1922.8000488281</ele>
        <time>2014-03-02T09:05:17.000Z</time>
      </trkpt>
      <trkpt lat="45.32775" lon="6.20591">
        <ele>1922.8000488281</ele>
        <time>2014-03-02T09:05:18.000Z</time>
      </trkpt>
      <trkpt lat="45.32775" lon="6.20591">
        <ele>1923</ele>
        <time>2014-03-02T09:05:19.000Z</time>
      </trkpt>
      <trkpt lat="45.32775" lon="6.20588">
        <ele>1923</ele>
        <time>2014-03-02T09:05:20.000Z</time>
      </trkpt>
      <trkpt lat="45.32775" lon="6.20588">
        <ele>1923</ele>
        <time>2014-03-02T09:05:21.000Z</time>
      </trkpt>
      <trkpt lat="45.32775" lon="6.20586">
        <ele>1923.1999511719</ele>
        <time>2014-03-02T09:05:22.000Z</time>
      </trkpt>
      <trkpt lat="45.32776" lon="6.20585">
        <ele>1923.5999755859</ele>
        <time>2014-03-02T09:05:23.000Z</time>
      </trkpt>
      <trkpt lat="45.32776" lon="6.20584">
        <ele>1923.5999755859</ele>
        <time>2014-03-02T09:05:24.000Z</time>
      </trkpt>
      <trkpt lat="45.32776" lon="6.20582">
        <ele>1923.8000488281</ele>
        <time>2014-03-02T09:05:25.000Z</time>
      </trkpt>
      <trkpt lat="45.32777" lon="6.20583">
        <ele>1923.8000488281</ele>
        <time>2014-03-02T09:05:26.000Z</time>
      </trkpt>
      <trkpt lat="45.32777" lon="6.20582">
        <ele>1924</ele>
        <time>2014-03-02T09:05:27.000Z</time>
      </trkpt>
      <trkpt lat="45.32777" lon="6.20579">
        <ele>1924</ele>
        <time>2014-03-02T09:05:28.000Z</time>
      </trkpt>
      <trkpt lat="45.32776" lon="6.20579">
        <ele>1923.8000488281</ele>
        <time>2014-03-02T09:05:30.000Z</time>
      </trkpt>
      <trkpt lat="45.32778" lon="6.20574">
        <ele>1924.8000488281</ele>
        <time>2014-03-02T09:05:33.000Z</time>
      </trkpt>
      <trkpt lat="45.32778" lon="6.20573">
        <ele>1925</ele>
        <time>2014-03-02T09:05:34.000Z</time>
      </trkpt>
      <trkpt lat="45.32779" lon="6.20571">
        <ele>1925.4000244141</ele>
        <time>2014-03-02T09:05:35.000Z</time>
      </trkpt>
      <trkpt lat="45.3278" lon="6.20569">
        <ele>1925.8000488281</ele>
        <time>2014-03-02T09:05:36.000Z</time>
      </trkpt>
      <trkpt lat="45.3278" lon="6.20568">
        <ele>1926</ele>
        <time>2014-03-02T09:05:37.000Z</time>
      </trkpt>
      <trkpt lat="45.3278" lon="6.20567">
        <ele>1926.1999511719</ele>
        <time>2014-03-02T09:05:38.000Z</time>
      </trkpt>
      <trkpt lat="45.3278" lon="6.20566">
        <ele>1926</ele>
        <time>2014-03-02T09:05:39.000Z</time>
      </trkpt>
      <trkpt lat="45.3278" lon="6.20564">
        <ele>1926.1999511719</ele>
        <time>2014-03-02T09:05:40.000Z</time>
      </trkpt>
      <trkpt lat="45.3278" lon="6.20563">
        <ele>1926.1999511719</ele>
        <time>2014-03-02T09:05:41.000Z</time>
      </trkpt>
      <trkpt lat="45.3278" lon="6.20561">
        <ele>1926.1999511719</ele>
        <time>2014-03-02T09:05:42.000Z</time>
      </trkpt>
      <trkpt lat="45.3278" lon="6.2056">
        <ele>1926.1999511719</ele>
        <time>2014-03-02T09:05:43.000Z</time>
      </trkpt>
      <trkpt lat="45.3278" lon="6.20559">
        <ele>1926</ele>
        <time>2014-03-02T09:05:44.000Z</time>
      </trkpt>
      <trkpt lat="45.3278" lon="6.20557">
        <ele>1926</ele>
        <time>2014-03-02T09:05:45.000Z</time>
      </trkpt>
      <trkpt lat="45.32779" lon="6.20556">
        <ele>1926</ele>
        <time>2014-03-02T09:05:46.000Z</time>
      </trkpt>
      <trkpt lat="45.3278" lon="6.20556">
        <ele>1926.1999511719</ele>
        <time>2014-03-02T09:05:47.000Z</time>
      </trkpt>
      <trkpt lat="45.3278" lon="6.20553">
        <ele>1926.4000244141</ele>
        <time>2014-03-02T09:05:48.000Z</time>
      </trkpt>
      <trkpt lat="45.3278" lon="6.20551">
        <ele>1926.4000244141</ele>
        <time>2014-03-02T09:05:49.000Z</time>
      </trkpt>
      <trkpt lat="45.3278" lon="6.2055">
        <ele>1926.4000244141</ele>
        <time>2014-03-02T09:05:50.000Z</time>
      </trkpt>
      <trkpt lat="45.3278" lon="6.20549">
        <ele>1926.4000244141</ele>
        <time>2014-03-02T09:05:51.000Z</time>
      </trkpt>
      <trkpt lat="45.32779" lon="6.20547">
        <ele>1926.4000244141</ele>
        <time>2014-03-02T09:05:52.000Z</time>
      </trkpt>
      <trkpt lat="45.3278" lon="6.20547">
        <ele>1926.4000244141</ele>
        <time>2014-03-02T09:05:53.000Z</time>
      </trkpt>
      <trkpt lat="45.3278" lon="6.20544">
        <ele>1926.5999755859</ele>
        <time>2014-03-02T09:05:54.000Z</time>
      </trkpt>
      <trkpt lat="45.32779" lon="6.20542">
        <ele>1926.5999755859</ele>
        <time>2014-03-02T09:05:55.000Z</time>
      </trkpt>
      <trkpt lat="45.32779" lon="6.20541">
        <ele>1926.5999755859</ele>
        <time>2014-03-02T09:05:56.000Z</time>
      </trkpt>
      <trkpt lat="45.32779" lon="6.20538">
        <ele>1926.8000488281</ele>
        <time>2014-03-02T09:05:57.000Z</time>
      </trkpt>
      <trkpt lat="45.32779" lon="6.20536">
        <ele>1926.8000488281</ele>
        <time>2014-03-02T09:05:58.000Z</time>
      </trkpt>
      <trkpt lat="45.32779" lon="6.20535">
        <ele>1926.8000488281</ele>
        <time>2014-03-02T09:05:59.000Z</time>
      </trkpt>
      <trkpt lat="45.32779" lon="6.20533">
        <ele>1926.8000488281</ele>
        <time>2014-03-02T09:06:00.000Z</time>
      </trkpt>
      <trkpt lat="45.32778" lon="6.2053">
        <ele>1926.5999755859</ele>
        <time>2014-03-02T09:06:02.000Z</time>
      </trkpt>
      <trkpt lat="45.32778" lon="6.20528">
        <ele>1926.5999755859</ele>
        <time>2014-03-02T09:06:03.000Z</time>
      </trkpt>
      <trkpt lat="45.32778" lon="6.20526">
        <ele>1926.5999755859</ele>
        <time>2014-03-02T09:06:04.000Z</time>
      </trkpt>
      <trkpt lat="45.32778" lon="6.20525">
        <ele>1926.5999755859</ele>
        <time>2014-03-02T09:06:05.000Z</time>
      </trkpt>
      <trkpt lat="45.32778" lon="6.20523">
        <ele>1926.5999755859</ele>
        <time>2014-03-02T09:06:06.000Z</time>
      </trkpt>
      <trkpt lat="45.32777" lon="6.20521">
        <ele>1926.4000244141</ele>
        <time>2014-03-02T09:06:07.000Z</time>
      </trkpt>
      <trkpt lat="45.32777" lon="6.2052">
        <ele>1926.4000244141</ele>
        <time>2014-03-02T09:06:08.000Z</time>
      </trkpt>
      <trkpt lat="45.32777" lon="6.20518">
        <ele>1926.4000244141</ele>
        <time>2014-03-02T09:06:09.000Z</time>
      </trkpt>
      <trkpt lat="45.32777" lon="6.20517">
        <ele>1926.4000244141</ele>
        <time>2014-03-02T09:06:10.000Z</time>
      </trkpt>
      <trkpt lat="45.32777" lon="6.20516">
        <ele>1926.4000244141</ele>
        <time>2014-03-02T09:06:11.000Z</time>
      </trkpt>
      <trkpt lat="45.32777" lon="6.20514">
        <ele>1926.4000244141</ele>
        <time>2014-03-02T09:06:12.000Z</time>
      </trkpt>
      <trkpt lat="45.32777" lon="6.20511">
        <ele>1926.4000244141</ele>
        <time>2014-03-02T09:06:14.000Z</time>
      </trkpt>
      <trkpt lat="45.32776" lon="6.20509">
        <ele>1926.4000244141</ele>
        <time>2014-03-02T09:06:15.000Z</time>
      </trkpt>
      <trkpt lat="45.32776" lon="6.20507">
        <ele>1926.1999511719</ele>
        <time>2014-03-02T09:06:16.000Z</time>
      </trkpt>
      <trkpt lat="45.32776" lon="6.20506">
        <ele>1926.1999511719</ele>
        <time>2014-03-02T09:06:17.000Z</time>
      </trkpt>
      <trkpt lat="45.32774" lon="6.20502">
        <ele>1925.5999755859</ele>
        <time>2014-03-02T09:06:19.000Z</time>
      </trkpt>
      <trkpt lat="45.32774" lon="6.20501">
        <ele>1925.5999755859</ele>
        <time>2014-03-02T09:06:20.000Z</time>
      </trkpt>
      <trkpt lat="45.32773" lon="6.20497">
        <ele>1925.4000244141</ele>
        <time>2014-03-02T09:06:23.000Z</time>
      </trkpt>
      <trkpt lat="45.32773" lon="6.20493">
        <ele>1925.1999511719</ele>
        <time>2014-03-02T09:06:25.000Z</time>
      </trkpt>
      <trkpt lat="45.32772" lon="6.20492">
        <ele>1925.1999511719</ele>
        <time>2014-03-02T09:06:26.000Z</time>
      </trkpt>
      <trkpt lat="45.32772" lon="6.2049">
        <ele>1925</ele>
        <time>2014-03-02T09:06:27.000Z</time>
      </trkpt>
      <trkpt lat="45.32772" lon="6.20489">
        <ele>1925</ele>
        <time>2014-03-02T09:06:28.000Z</time>
      </trkpt>
      <trkpt lat="45.32771" lon="6.20487">
        <ele>1924.8000488281</ele>
        <time>2014-03-02T09:06:29.000Z</time>
      </trkpt>
      <trkpt lat="45.32771" lon="6.20485">
        <ele>1924.8000488281</ele>
        <time>2014-03-02T09:06:30.000Z</time>
      </trkpt>
      <trkpt lat="45.3277" lon="6.20484">
        <ele>1924.5999755859</ele>
        <time>2014-03-02T09:06:31.000Z</time>
      </trkpt>
      <trkpt lat="45.3277" lon="6.20481">
        <ele>1924.4000244141</ele>
        <time>2014-03-02T09:06:32.000Z</time>
      </trkpt>
      <trkpt lat="45.3277" lon="6.2048">
        <ele>1924.5999755859</ele>
        <time>2014-03-02T09:06:33.000Z</time>
      </trkpt>
      <trkpt lat="45.3277" lon="6.20479">
        <ele>1924.4000244141</ele>
        <time>2014-03-02T09:06:34.000Z</time>
      </trkpt>
      <trkpt lat="45.32769" lon="6.20476">
        <ele>1924.4000244141</ele>
        <time>2014-03-02T09:06:35.000Z</time>
      </trkpt>
      <trkpt lat="45.32769" lon="6.20475">
        <ele>1924.5999755859</ele>
        <time>2014-03-02T09:06:36.000Z</time>
      </trkpt>
      <trkpt lat="45.32769" lon="6.20474">
        <ele>1924.8000488281</ele>
        <time>2014-03-02T09:06:37.000Z</time>
      </trkpt>
      <trkpt lat="45.32769" lon="6.20473">
        <ele>1924.5999755859</ele>
        <time>2014-03-02T09:06:38.000Z</time>
      </trkpt>
      <trkpt lat="45.32768" lon="6.20472">
        <ele>1924.5999755859</ele>
        <time>2014-03-02T09:06:39.000Z</time>
      </trkpt>
      <trkpt lat="45.32768" lon="6.20471">
        <ele>1924.5999755859</ele>
        <time>2014-03-02T09:06:40.000Z</time>
      </trkpt>
      <trkpt lat="45.32768" lon="6.20469">
        <ele>1924.5999755859</ele>
        <time>2014-03-02T09:06:41.000Z</time>
      </trkpt>
      <trkpt lat="45.32768" lon="6.20468">
        <ele>1924.8000488281</ele>
        <time>2014-03-02T09:06:42.000Z</time>
      </trkpt>
      <trkpt lat="45.32768" lon="6.20467">
        <ele>1924.8000488281</ele>
        <time>2014-03-02T09:06:43.000Z</time>
      </trkpt>
      <trkpt lat="45.32767" lon="6.20465">
        <ele>1924.8000488281</ele>
        <time>2014-03-02T09:06:44.000Z</time>
      </trkpt>
      <trkpt lat="45.32767" lon="6.20464">
        <ele>1925</ele>
        <time>2014-03-02T09:06:45.000Z</time>
      </trkpt>
      <trkpt lat="45.32767" lon="6.20462">
        <ele>1925</ele>
        <time>2014-03-02T09:06:46.000Z</time>
      </trkpt>
      <trkpt lat="45.32767" lon="6.20461">
        <ele>1925.1999511719</ele>
        <time>2014-03-02T09:06:47.000Z</time>
      </trkpt>
      <trkpt lat="45.32767" lon="6.2046">
        <ele>1925.4000244141</ele>
        <time>2014-03-02T09:06:48.000Z</time>
      </trkpt>
      <trkpt lat="45.32767" lon="6.20458">
        <ele>1925.4000244141</ele>
        <time>2014-03-02T09:06:49.000Z</time>
      </trkpt>
      <trkpt lat="45.32767" lon="6.20458">
        <ele>1925.5999755859</ele>
        <time>2014-03-02T09:06:50.000Z</time>
      </trkpt>
      <trkpt lat="45.32767" lon="6.20456">
        <ele>1925.5999755859</ele>
        <time>2014-03-02T09:06:51.000Z</time>
      </trkpt>
      <trkpt lat="45.32766" lon="6.20455">
        <ele>1925.4000244141</ele>
        <time>2014-03-02T09:06:52.000Z</time>
      </trkpt>
      <trkpt lat="45.32766" lon="6.20455">
        <ele>1925.4000244141</ele>
        <time>2014-03-02T09:06:53.000Z</time>
      </trkpt>
      <trkpt lat="45.32766" lon="6.20454">
        <ele>1925.4000244141</ele>
        <time>2014-03-02T09:06:54.000Z</time>
      </trkpt>
      <trkpt lat="45.32766" lon="6.20453">
        <ele>1925.4000244141</ele>
        <time>2014-03-02T09:06:55.000Z</time>
      </trkpt>
      <trkpt lat="45.32766" lon="6.20452">
        <ele>1925.5999755859</ele>
        <time>2014-03-02T09:06:56.000Z</time>
      </trkpt>
      <trkpt lat="45.32766" lon="6.2045">
        <ele>1925.8000488281</ele>
        <time>2014-03-02T09:06:57.000Z</time>
      </trkpt>
      <trkpt lat="45.32766" lon="6.20449">
        <ele>1925.8000488281</ele>
        <time>2014-03-02T09:06:58.000Z</time>
      </trkpt>
      <trkpt lat="45.32766" lon="6.20449">
        <ele>1925.8000488281</ele>
        <time>2014-03-02T09:06:59.000Z</time>
      </trkpt>
      <trkpt lat="45.32765" lon="6.20446">
        <ele>1926</ele>
        <time>2014-03-02T09:07:00.000Z</time>
      </trkpt>
      <trkpt lat="45.32765" lon="6.20445">
        <ele>1925.8000488281</ele>
        <time>2014-03-02T09:07:01.000Z</time>
      </trkpt>
      <trkpt lat="45.32765" lon="6.20445">
        <ele>1925.8000488281</ele>
        <time>2014-03-02T09:07:02.000Z</time>
      </trkpt>
      <trkpt lat="45.32764" lon="6.20442">
        <ele>1925.8000488281</ele>
        <time>2014-03-02T09:07:03.000Z</time>
      </trkpt>
      <trkpt lat="45.32764" lon="6.20442">
        <ele>1925.8000488281</ele>
        <time>2014-03-02T09:07:04.000Z</time>
      </trkpt>
      <trkpt lat="45.32763" lon="6.2044">
        <ele>1925.5999755859</ele>
        <time>2014-03-02T09:07:05.000Z</time>
      </trkpt>
      <trkpt lat="45.32763" lon="6.20439">
        <ele>1925.4000244141</ele>
        <time>2014-03-02T09:07:06.000Z</time>
      </trkpt>
      <trkpt lat="45.32763" lon="6.20439">
        <ele>1925.4000244141</ele>
        <time>2014-03-02T09:07:07.000Z</time>
      </trkpt>
      <trkpt lat="45.32763" lon="6.20437">
        <ele>1925.4000244141</ele>
        <time>2014-03-02T09:07:08.000Z</time>
      </trkpt>
      <trkpt lat="45.32762" lon="6.20436">
        <ele>1925.4000244141</ele>
        <time>2014-03-02T09:07:09.000Z</time>
      </trkpt>
      <trkpt lat="45.32762" lon="6.20435">
        <ele>1925.1999511719</ele>
        <time>2014-03-02T09:07:10.000Z</time>
      </trkpt>
      <trkpt lat="45.32762" lon="6.20434">
        <ele>1925.1999511719</ele>
        <time>2014-03-02T09:07:11.000Z</time>
      </trkpt>
      <trkpt lat="45.32761" lon="6.20433">
        <ele>1925</ele>
        <time>2014-03-02T09:07:12.000Z</time>
      </trkpt>
      <trkpt lat="45.3276" lon="6.20431">
        <ele>1924.8000488281</ele>
        <time>2014-03-02T09:07:13.000Z</time>
      </trkpt>
      <trkpt lat="45.3276" lon="6.2043">
        <ele>1924.5999755859</ele>
        <time>2014-03-02T09:07:14.000Z</time>
      </trkpt>
      <trkpt lat="45.3276" lon="6.2043">
        <ele>1924.5999755859</ele>
        <time>2014-03-02T09:07:15.000Z</time>
      </trkpt>
      <trkpt lat="45.32759" lon="6.2043">
        <ele>1924.4000244141</ele>
        <time>2014-03-02T09:07:16.000Z</time>
      </trkpt>
      <trkpt lat="45.32759" lon="6.20428">
        <ele>1924.4000244141</ele>
        <time>2014-03-02T09:07:17.000Z</time>
      </trkpt>
      <trkpt lat="45.32758" lon="6.20426">
        <ele>1924</ele>
        <time>2014-03-02T09:07:18.000Z</time>
      </trkpt>
      <trkpt lat="45.32758" lon="6.20425">
        <ele>1924</ele>
        <time>2014-03-02T09:07:19.000Z</time>
      </trkpt>
      <trkpt lat="45.32757" lon="6.20424">
        <ele>1924</ele>
        <time>2014-03-02T09:07:20.000Z</time>
      </trkpt>
      <trkpt lat="45.32757" lon="6.20423">
        <ele>1923.8000488281</ele>
        <time>2014-03-02T09:07:21.000Z</time>
      </trkpt>
      <trkpt lat="45.32757" lon="6.20422">
        <ele>1923.8000488281</ele>
        <time>2014-03-02T09:07:22.000Z</time>
      </trkpt>
      <trkpt lat="45.32756" lon="6.20422">
        <ele>1923.5999755859</ele>
        <time>2014-03-02T09:07:23.000Z</time>
      </trkpt>
      <trkpt lat="45.32756" lon="6.2042">
        <ele>1923.5999755859</ele>
        <time>2014-03-02T09:07:24.000Z</time>
      </trkpt>
      <trkpt lat="45.32755" lon="6.20418">
        <ele>1923.4000244141</ele>
        <time>2014-03-02T09:07:25.000Z</time>
      </trkpt>
      <trkpt lat="45.32755" lon="6.20417">
        <ele>1923.4000244141</ele>
        <time>2014-03-02T09:07:26.000Z</time>
      </trkpt>
      <trkpt lat="45.32755" lon="6.20417">
        <ele>1923.4000244141</ele>
        <time>2014-03-02T09:07:27.000Z</time>
      </trkpt>
      <trkpt lat="45.32754" lon="6.20416">
        <ele>1923.4000244141</ele>
        <time>2014-03-02T09:07:28.000Z</time>
      </trkpt>
      <trkpt lat="45.32754" lon="6.20415">
        <ele>1923.4000244141</ele>
        <time>2014-03-02T09:07:29.000Z</time>
      </trkpt>
      <trkpt lat="45.32754" lon="6.20413">
        <ele>1923.4000244141</ele>
        <time>2014-03-02T09:07:30.000Z</time>
      </trkpt>
      <trkpt lat="45.32754" lon="6.20413">
        <ele>1923.4000244141</ele>
        <time>2014-03-02T09:07:31.000Z</time>
      </trkpt>
      <trkpt lat="45.32755" lon="6.20412">
        <ele>1923.5999755859</ele>
        <time>2014-03-02T09:07:32.000Z</time>
      </trkpt>
      <trkpt lat="45.32755" lon="6.20412">
        <ele>1923.5999755859</ele>
        <time>2014-03-02T09:07:33.000Z</time>
      </trkpt>
      <trkpt lat="45.32755" lon="6.20412">
        <ele>1923.5999755859</ele>
        <time>2014-03-02T09:07:34.000Z</time>
      </trkpt>
      <trkpt lat="45.32755" lon="6.20412">
        <ele>1923.5999755859</ele>
        <time>2014-03-02T09:07:35.000Z</time>
      </trkpt>
      <trkpt lat="45.32755" lon="6.20412">
        <ele>1923.5999755859</ele>
        <time>2014-03-02T09:07:41.000Z</time>
      </trkpt>
      <trkpt lat="45.32755" lon="6.20411">
        <ele>1923.5999755859</ele>
        <time>2014-03-02T09:07:43.000Z</time>
      </trkpt>
      <trkpt lat="45.32754" lon="6.20409">
        <ele>1923.5999755859</ele>
        <time>2014-03-02T09:07:44.000Z</time>
      </trkpt>
      <trkpt lat="45.32754" lon="6.20406">
        <ele>1923.5999755859</ele>
        <time>2014-03-02T09:07:46.000Z</time>
      </trkpt>
      <trkpt lat="45.32754" lon="6.20405">
        <ele>1923.5999755859</ele>
        <time>2014-03-02T09:07:47.000Z</time>
      </trkpt>
      <trkpt lat="45.32753" lon="6.20403">
        <ele>1923.5999755859</ele>
        <time>2014-03-02T09:07:48.000Z</time>
      </trkpt>
      <trkpt lat="45.32753" lon="6.20402">
        <ele>1923.5999755859</ele>
        <time>2014-03-02T09:07:49.000Z</time>
      </trkpt>
      <trkpt lat="45.32753" lon="6.20401">
        <ele>1923.5999755859</ele>
        <time>2014-03-02T09:07:50.000Z</time>
      </trkpt>
      <trkpt lat="45.32753" lon="6.204">
        <ele>1923.8000488281</ele>
        <time>2014-03-02T09:07:51.000Z</time>
      </trkpt>
      <trkpt lat="45.32753" lon="6.20399">
        <ele>1923.8000488281</ele>
        <time>2014-03-02T09:07:52.000Z</time>
      </trkpt>
      <trkpt lat="45.32753" lon="6.20398">
        <ele>1923.8000488281</ele>
        <time>2014-03-02T09:07:53.000Z</time>
      </trkpt>
      <trkpt lat="45.32753" lon="6.20397">
        <ele>1923.8000488281</ele>
        <time>2014-03-02T09:07:54.000Z</time>
      </trkpt>
      <trkpt lat="45.32753" lon="6.20395">
        <ele>1924</ele>
        <time>2014-03-02T09:07:55.000Z</time>
      </trkpt>
      <trkpt lat="45.32753" lon="6.20394">
        <ele>1924.1999511719</ele>
        <time>2014-03-02T09:07:56.000Z</time>
      </trkpt>
      <trkpt lat="45.32753" lon="6.20393">
        <ele>1924.1999511719</ele>
        <time>2014-03-02T09:07:57.000Z</time>
      </trkpt>
      <trkpt lat="45.32753" lon="6.20392">
        <ele>1924.1999511719</ele>
        <time>2014-03-02T09:07:58.000Z</time>
      </trkpt>
      <trkpt lat="45.32753" lon="6.2039">
        <ele>1924.4000244141</ele>
        <time>2014-03-02T09:07:59.000Z</time>
      </trkpt>
      <trkpt lat="45.32753" lon="6.20388">
        <ele>1924.5999755859</ele>
        <time>2014-03-02T09:08:00.000Z</time>
      </trkpt>
      <trkpt lat="45.32752" lon="6.20387">
        <ele>1924.5999755859</ele>
        <time>2014-03-02T09:08:01.000Z</time>
      </trkpt>
      <trkpt lat="45.32752" lon="6.20385">
        <ele>1924.5999755859</ele>
        <time>2014-03-02T09:08:02.000Z</time>
      </trkpt>
      <trkpt lat="45.32752" lon="6.20383">
        <ele>1924.8000488281</ele>
        <time>2014-03-02T09:08:03.000Z</time>
      </trkpt>
      <trkpt lat="45.32752" lon="6.20381">
        <ele>1924.8000488281</ele>
        <time>2014-03-02T09:08:04.000Z</time>
      </trkpt>
      <trkpt lat="45.32752" lon="6.20379">
        <ele>1925</ele>
        <time>2014-03-02T09:08:05.000Z</time>
      </trkpt>
      <trkpt lat="45.32751" lon="6.20377">
        <ele>1925</ele>
        <time>2014-03-02T09:08:06.000Z</time>
      </trkpt>
      <trkpt lat="45.32751" lon="6.20376">
        <ele>1925</ele>
        <time>2014-03-02T09:08:07.000Z</time>
      </trkpt>
      <trkpt lat="45.32751" lon="6.20374">
        <ele>1925</ele>
        <time>2014-03-02T09:08:08.000Z</time>
      </trkpt>
      <trkpt lat="45.32751" lon="6.20373">
        <ele>1925.1999511719</ele>
        <time>2014-03-02T09:08:09.000Z</time>
      </trkpt>
      <trkpt lat="45.32751" lon="6.20373">
        <ele>1925.4000244141</ele>
        <time>2014-03-02T09:08:10.000Z</time>
      </trkpt>
      <trkpt lat="45.32751" lon="6.20371">
        <ele>1925.5999755859</ele>
        <time>2014-03-02T09:08:11.000Z</time>
      </trkpt>
      <trkpt lat="45.32751" lon="6.20369">
        <ele>1925.5999755859</ele>
        <time>2014-03-02T09:08:12.000Z</time>
      </trkpt>
      <trkpt lat="45.3275" lon="6.20368">
        <ele>1925.4000244141</ele>
        <time>2014-03-02T09:08:13.000Z</time>
      </trkpt>
      <trkpt lat="45.3275" lon="6.20367">
        <ele>1925.4000244141</ele>
        <time>2014-03-02T09:08:14.000Z</time>
      </trkpt>
      <trkpt lat="45.3275" lon="6.20366">
        <ele>1925.4000244141</ele>
        <time>2014-03-02T09:08:15.000Z</time>
      </trkpt>
      <trkpt lat="45.3275" lon="6.20365">
        <ele>1925.5999755859</ele>
        <time>2014-03-02T09:08:16.000Z</time>
      </trkpt>
      <trkpt lat="45.3275" lon="6.20365">
        <ele>1925.5999755859</ele>
        <time>2014-03-02T09:08:17.000Z</time>
      </trkpt>
      <trkpt lat="45.3275" lon="6.20364">
        <ele>1925.5999755859</ele>
        <time>2014-03-02T09:08:18.000Z</time>
      </trkpt>
      <trkpt lat="45.32749" lon="6.20363">
        <ele>1925.5999755859</ele>
        <time>2014-03-02T09:08:19.000Z</time>
      </trkpt>
      <trkpt lat="45.32749" lon="6.20362">
        <ele>1925.5999755859</ele>
        <time>2014-03-02T09:08:20.000Z</time>
      </trkpt>
      <trkpt lat="45.32749" lon="6.20361">
        <ele>1925.8000488281</ele>
        <time>2014-03-02T09:08:21.000Z</time>
      </trkpt>
      <trkpt lat="45.32749" lon="6.20361">
        <ele>1925.8000488281</ele>
        <time>2014-03-02T09:08:22.000Z</time>
      </trkpt>
      <trkpt lat="45.32749" lon="6.2036">
        <ele>1925.8000488281</ele>
        <time>2014-03-02T09:08:23.000Z</time>
      </trkpt>
      <trkpt lat="45.32749" lon="6.20358">
        <ele>1925.8000488281</ele>
        <time>2014-03-02T09:08:24.000Z</time>
      </trkpt>
      <trkpt lat="45.32749" lon="6.20356">
        <ele>1926</ele>
        <time>2014-03-02T09:08:25.000Z</time>
      </trkpt>
      <trkpt lat="45.32749" lon="6.20354">
        <ele>1926</ele>
        <time>2014-03-02T09:08:26.000Z</time>
      </trkpt>
      <trkpt lat="45.32748" lon="6.20352">
        <ele>1926</ele>
        <time>2014-03-02T09:08:27.000Z</time>
      </trkpt>
      <trkpt lat="45.32748" lon="6.20351">
        <ele>1926</ele>
        <time>2014-03-02T09:08:28.000Z</time>
      </trkpt>
      <trkpt lat="45.32747" lon="6.2035">
        <ele>1926</ele>
        <time>2014-03-02T09:08:29.000Z</time>
      </trkpt>
      <trkpt lat="45.32747" lon="6.2035">
        <ele>1926</ele>
        <time>2014-03-02T09:08:30.000Z</time>
      </trkpt>
      <trkpt lat="45.32747" lon="6.20348">
        <ele>1925.8000488281</ele>
        <time>2014-03-02T09:08:31.000Z</time>
      </trkpt>
      <trkpt lat="45.32746" lon="6.20347">
        <ele>1925.8000488281</ele>
        <time>2014-03-02T09:08:32.000Z</time>
      </trkpt>
      <trkpt lat="45.32746" lon="6.20346">
        <ele>1925.8000488281</ele>
        <time>2014-03-02T09:08:33.000Z</time>
      </trkpt>
      <trkpt lat="45.32746" lon="6.20345">
        <ele>1925.8000488281</ele>
        <time>2014-03-02T09:08:34.000Z</time>
      </trkpt>
      <trkpt lat="45.32745" lon="6.20344">
        <ele>1925.8000488281</ele>
        <time>2014-03-02T09:08:35.000Z</time>
      </trkpt>
      <trkpt lat="45.32745" lon="6.20344">
        <ele>1925.8000488281</ele>
        <time>2014-03-02T09:08:36.000Z</time>
      </trkpt>
      <trkpt lat="45.32745" lon="6.20341">
        <ele>1925.8000488281</ele>
        <time>2014-03-02T09:08:37.000Z</time>
      </trkpt>
      <trkpt lat="45.32745" lon="6.2034">
        <ele>1926</ele>
        <time>2014-03-02T09:08:38.000Z</time>
      </trkpt>
      <trkpt lat="45.32745" lon="6.20338">
        <ele>1926.4000244141</ele>
        <time>2014-03-02T09:08:39.000Z</time>
      </trkpt>
      <trkpt lat="45.32746" lon="6.20336">
        <ele>1926.8000488281</ele>
        <time>2014-03-02T09:08:40.000Z</time>
      </trkpt>
      <trkpt lat="45.32747" lon="6.20335">
        <ele>1927.4000244141</ele>
        <time>2014-03-02T09:08:41.000Z</time>
      </trkpt>
      <trkpt lat="45.32748" lon="6.20333">
        <ele>1927.8000488281</ele>
        <time>2014-03-02T09:08:42.000Z</time>
      </trkpt>
      <trkpt lat="45.32748" lon="6.20331">
        <ele>1928.1999511719</ele>
        <time>2014-03-02T09:08:43.000Z</time>
      </trkpt>
      <trkpt lat="45.32749" lon="6.2033">
        <ele>1928.8000488281</ele>
        <time>2014-03-02T09:08:44.000Z</time>
      </trkpt>
      <trkpt lat="45.3275" lon="6.20329">
        <ele>1929.1999511719</ele>
        <time>2014-03-02T09:08:45.000Z</time>
      </trkpt>
      <trkpt lat="45.3275" lon="6.20327">
        <ele>1929.5999755859</ele>
        <time>2014-03-02T09:08:46.000Z</time>
      </trkpt>
      <trkpt lat="45.32751" lon="6.20326">
        <ele>1930</ele>
        <time>2014-03-02T09:08:47.000Z</time>
      </trkpt>
      <trkpt lat="45.32751" lon="6.20325">
        <ele>1930.1999511719</ele>
        <time>2014-03-02T09:08:48.000Z</time>
      </trkpt>
      <trkpt lat="45.32752" lon="6.20324">
        <ele>1930.5999755859</ele>
        <time>2014-03-02T09:08:49.000Z</time>
      </trkpt>
      <trkpt lat="45.32753" lon="6.20322">
        <ele>1931.1999511719</ele>
        <time>2014-03-02T09:08:50.000Z</time>
      </trkpt>
      <trkpt lat="45.32754" lon="6.20321">
        <ele>1931.5999755859</ele>
        <time>2014-03-02T09:08:51.000Z</time>
      </trkpt>
      <trkpt lat="45.32754" lon="6.2032">
        <ele>1932</ele>
        <time>2014-03-02T09:08:52.000Z</time>
      </trkpt>
      <trkpt lat="45.32755" lon="6.20319">
        <ele>1932.1999511719</ele>
        <time>2014-03-02T09:08:53.000Z</time>
      </trkpt>
      <trkpt lat="45.32755" lon="6.20318">
        <ele>1932.4000244141</ele>
        <time>2014-03-02T09:08:54.000Z</time>
      </trkpt>
      <trkpt lat="45.32754" lon="6.20317">
        <ele>1932.4000244141</ele>
        <time>2014-03-02T09:08:55.000Z</time>
      </trkpt>
      <trkpt lat="45.32755" lon="6.20316">
        <ele>1932.8000488281</ele>
        <time>2014-03-02T09:08:56.000Z</time>
      </trkpt>
      <trkpt lat="45.32755" lon="6.20316">
        <ele>1932.8000488281</ele>
        <time>2014-03-02T09:08:57.000Z</time>
      </trkpt>
      <trkpt lat="45.32756" lon="6.20314">
        <ele>1933.4000244141</ele>
        <time>2014-03-02T09:08:58.000Z</time>
      </trkpt>
      <trkpt lat="45.32756" lon="6.20312">
        <ele>1933.5999755859</ele>
        <time>2014-03-02T09:08:59.000Z</time>
      </trkpt>
      <trkpt lat="45.32756" lon="6.2031">
        <ele>1933.8000488281</ele>
        <time>2014-03-02T09:09:00.000Z</time>
      </trkpt>
      <trkpt lat="45.32757" lon="6.20309">
        <ele>1934.1999511719</ele>
        <time>2014-03-02T09:09:01.000Z</time>
      </trkpt>
      <trkpt lat="45.32757" lon="6.20308">
        <ele>1934.4000244141</ele>
        <time>2014-03-02T09:09:02.000Z</time>
      </trkpt>
      <trkpt lat="45.32758" lon="6.20306">
        <ele>1934.5999755859</ele>
        <time>2014-03-02T09:09:03.000Z</time>
      </trkpt>
      <trkpt lat="45.32758" lon="6.20304">
        <ele>1934.5999755859</ele>
        <time>2014-03-02T09:09:04.000Z</time>
      </trkpt>
      <trkpt lat="45.32758" lon="6.20303">
        <ele>1934.8000488281</ele>
        <time>2014-03-02T09:09:05.000Z</time>
      </trkpt>
      <trkpt lat="45.32758" lon="6.20301">
        <ele>1935</ele>
        <time>2014-03-02T09:09:06.000Z</time>
      </trkpt>
      <trkpt lat="45.32759" lon="6.203">
        <ele>1935.4000244141</ele>
        <time>2014-03-02T09:09:07.000Z</time>
      </trkpt>
      <trkpt lat="45.32759" lon="6.20299">
        <ele>1935.5999755859</ele>
        <time>2014-03-02T09:09:08.000Z</time>
      </trkpt>
      <trkpt lat="45.3276" lon="6.20298">
        <ele>1936</ele>
        <time>2014-03-02T09:09:09.000Z</time>
      </trkpt>
      <trkpt lat="45.3276" lon="6.20297">
        <ele>1936</ele>
        <time>2014-03-02T09:09:10.000Z</time>
      </trkpt>
      <trkpt lat="45.32761" lon="6.20295">
        <ele>1936.1999511719</ele>
        <time>2014-03-02T09:09:11.000Z</time>
      </trkpt>
      <trkpt lat="45.32761" lon="6.20294">
        <ele>1936.4000244141</ele>
        <time>2014-03-02T09:09:12.000Z</time>
      </trkpt>
      <trkpt lat="45.32761" lon="6.20293">
        <ele>1936.4000244141</ele>
        <time>2014-03-02T09:09:13.000Z</time>
      </trkpt>
      <trkpt lat="45.32761" lon="6.20292">
        <ele>1936.5999755859</ele>
        <time>2014-03-02T09:09:14.000Z</time>
      </trkpt>
      <trkpt lat="45.32762" lon="6.20291">
        <ele>1936.8000488281</ele>
        <time>2014-03-02T09:09:15.000Z</time>
      </trkpt>
      <trkpt lat="45.32762" lon="6.2029">
        <ele>1937</ele>
        <time>2014-03-02T09:09:16.000Z</time>
      </trkpt>
      <trkpt lat="45.32763" lon="6.20286">
        <ele>1937.5999755859</ele>
        <time>2014-03-02T09:09:18.000Z</time>
      </trkpt>
      <trkpt lat="45.32764" lon="6.20284">
        <ele>1938.1999511719</ele>
        <time>2014-03-02T09:09:19.000Z</time>
      </trkpt>
      <trkpt lat="45.32764" lon="6.20283">
        <ele>1938.1999511719</ele>
        <time>2014-03-02T09:09:20.000Z</time>
      </trkpt>
      <trkpt lat="45.32765" lon="6.20282">
        <ele>1938.4000244141</ele>
        <time>2014-03-02T09:09:21.000Z</time>
      </trkpt>
      <trkpt lat="45.32765" lon="6.20281">
        <ele>1938.5999755859</ele>
        <time>2014-03-02T09:09:22.000Z</time>
      </trkpt>
      <trkpt lat="45.32766" lon="6.2028">
        <ele>1939</ele>
        <time>2014-03-02T09:09:23.000Z</time>
      </trkpt>
      <trkpt lat="45.32766" lon="6.20279">
        <ele>1939.1999511719</ele>
        <time>2014-03-02T09:09:24.000Z</time>
      </trkpt>
      <trkpt lat="45.32767" lon="6.20278">
        <ele>1939.4000244141</ele>
        <time>2014-03-02T09:09:25.000Z</time>
      </trkpt>
      <trkpt lat="45.32767" lon="6.20277">
        <ele>1939.5999755859</ele>
        <time>2014-03-02T09:09:26.000Z</time>
      </trkpt>
      <trkpt lat="45.32767" lon="6.20276">
        <ele>1939.8000488281</ele>
        <time>2014-03-02T09:09:27.000Z</time>
      </trkpt>
      <trkpt lat="45.32768" lon="6.20275">
        <ele>1940.1999511719</ele>
        <time>2014-03-02T09:09:28.000Z</time>
      </trkpt>
      <trkpt lat="45.32769" lon="6.20274">
        <ele>1940.4000244141</ele>
        <time>2014-03-02T09:09:29.000Z</time>
      </trkpt>
      <trkpt lat="45.32769" lon="6.20273">
        <ele>1940.5999755859</ele>
        <time>2014-03-02T09:09:30.000Z</time>
      </trkpt>
      <trkpt lat="45.32769" lon="6.20271">
        <ele>1940.8000488281</ele>
        <time>2014-03-02T09:09:31.000Z</time>
      </trkpt>
      <trkpt lat="45.3277" lon="6.2027">
        <ele>1941</ele>
        <time>2014-03-02T09:09:32.000Z</time>
      </trkpt>
      <trkpt lat="45.3277" lon="6.20269">
        <ele>1941.1999511719</ele>
        <time>2014-03-02T09:09:33.000Z</time>
      </trkpt>
      <trkpt lat="45.3277" lon="6.20267">
        <ele>1941.4000244141</ele>
        <time>2014-03-02T09:09:34.000Z</time>
      </trkpt>
      <trkpt lat="45.3277" lon="6.20265">
        <ele>1941.5999755859</ele>
        <time>2014-03-02T09:09:35.000Z</time>
      </trkpt>
      <trkpt lat="45.32771" lon="6.20264">
        <ele>1941.8000488281</ele>
        <time>2014-03-02T09:09:36.000Z</time>
      </trkpt>
      <trkpt lat="45.32772" lon="6.20261">
        <ele>1942.4000244141</ele>
        <time>2014-03-02T09:09:37.000Z</time>
      </trkpt>
      <trkpt lat="45.32772" lon="6.20259">
        <ele>1942.5999755859</ele>
        <time>2014-03-02T09:09:38.000Z</time>
      </trkpt>
      <trkpt lat="45.32773" lon="6.20258">
        <ele>1943.1999511719</ele>
        <time>2014-03-02T09:09:39.000Z</time>
      </trkpt>
      <trkpt lat="45.32774" lon="6.20256">
        <ele>1943.4000244141</ele>
        <time>2014-03-02T09:09:40.000Z</time>
      </trkpt>
      <trkpt lat="45.32775" lon="6.20255">
        <ele>1944</ele>
        <time>2014-03-02T09:09:41.000Z</time>
      </trkpt>
      <trkpt lat="45.32775" lon="6.20254">
        <ele>1944.4000244141</ele>
        <time>2014-03-02T09:09:42.000Z</time>
      </trkpt>
      <trkpt lat="45.32776" lon="6.20253">
        <ele>1944.5999755859</ele>
        <time>2014-03-02T09:09:43.000Z</time>
      </trkpt>
      <trkpt lat="45.32775" lon="6.20251">
        <ele>1944.4000244141</ele>
        <time>2014-03-02T09:09:44.000Z</time>
      </trkpt>
      <trkpt lat="45.32775" lon="6.2025">
        <ele>1944.4000244141</ele>
        <time>2014-03-02T09:09:45.000Z</time>
      </trkpt>
      <trkpt lat="45.32774" lon="6.20249">
        <ele>1944</ele>
        <time>2014-03-02T09:09:46.000Z</time>
      </trkpt>
      <trkpt lat="45.32774" lon="6.20248">
        <ele>1944.1999511719</ele>
        <time>2014-03-02T09:09:47.000Z</time>
      </trkpt>
      <trkpt lat="45.32774" lon="6.20247">
        <ele>1944.4000244141</ele>
        <time>2014-03-02T09:09:48.000Z</time>
      </trkpt>
      <trkpt lat="45.32775" lon="6.20245">
        <ele>1944.4000244141</ele>
        <time>2014-03-02T09:09:49.000Z</time>
      </trkpt>
      <trkpt lat="45.32774" lon="6.20244">
        <ele>1944.1999511719</ele>
        <time>2014-03-02T09:09:50.000Z</time>
      </trkpt>
      <trkpt lat="45.32774" lon="6.20243">
        <ele>1944</ele>
        <time>2014-03-02T09:09:51.000Z</time>
      </trkpt>
      <trkpt lat="45.32774" lon="6.20241">
        <ele>1944.1999511719</ele>
        <time>2014-03-02T09:09:52.000Z</time>
      </trkpt>
      <trkpt lat="45.32774" lon="6.20241">
        <ele>1944.4000244141</ele>
        <time>2014-03-02T09:09:53.000Z</time>
      </trkpt>
      <trkpt lat="45.32774" lon="6.20239">
        <ele>1944.4000244141</ele>
        <time>2014-03-02T09:09:54.000Z</time>
      </trkpt>
      <trkpt lat="45.32774" lon="6.20237">
        <ele>1944.4000244141</ele>
        <time>2014-03-02T09:09:55.000Z</time>
      </trkpt>
      <trkpt lat="45.32774" lon="6.20235">
        <ele>1944.5999755859</ele>
        <time>2014-03-02T09:09:56.000Z</time>
      </trkpt>
      <trkpt lat="45.32774" lon="6.20233">
        <ele>1944.8000488281</ele>
        <time>2014-03-02T09:09:57.000Z</time>
      </trkpt>
      <trkpt lat="45.32774" lon="6.20232">
        <ele>1944.8000488281</ele>
        <time>2014-03-02T09:09:58.000Z</time>
      </trkpt>
      <trkpt lat="45.32774" lon="6.20231">
        <ele>1944.8000488281</ele>
        <time>2014-03-02T09:09:59.000Z</time>
      </trkpt>
      <trkpt lat="45.32774" lon="6.20229">
        <ele>1944.8000488281</ele>
        <time>2014-03-02T09:10:00.000Z</time>
      </trkpt>
      <trkpt lat="45.32774" lon="6.20228">
        <ele>1944.8000488281</ele>
        <time>2014-03-02T09:10:01.000Z</time>
      </trkpt>
      <trkpt lat="45.32774" lon="6.20226">
        <ele>1945</ele>
        <time>2014-03-02T09:10:02.000Z</time>
      </trkpt>
      <trkpt lat="45.32773" lon="6.20224">
        <ele>1944.8000488281</ele>
        <time>2014-03-02T09:10:03.000Z</time>
      </trkpt>
      <trkpt lat="45.32773" lon="6.20223">
        <ele>1944.5999755859</ele>
        <time>2014-03-02T09:10:04.000Z</time>
      </trkpt>
      <trkpt lat="45.32772" lon="6.20221">
        <ele>1944.5999755859</ele>
        <time>2014-03-02T09:10:05.000Z</time>
      </trkpt>
      <trkpt lat="45.32773" lon="6.2022">
        <ele>1944.8000488281</ele>
        <time>2014-03-02T09:10:06.000Z</time>
      </trkpt>
      <trkpt lat="45.32773" lon="6.20218">
        <ele>1945</ele>
        <time>2014-03-02T09:10:07.000Z</time>
      </trkpt>
      <trkpt lat="45.32773" lon="6.20217">
        <ele>1945</ele>
        <time>2014-03-02T09:10:08.000Z</time>
      </trkpt>
      <trkpt lat="45.32773" lon="6.20216">
        <ele>1945.1999511719</ele>
        <time>2014-03-02T09:10:09.000Z</time>
      </trkpt>
      <trkpt lat="45.32774" lon="6.20215">
        <ele>1945.4000244141</ele>
        <time>2014-03-02T09:10:10.000Z</time>
      </trkpt>
      <trkpt lat="45.32774" lon="6.20213">
        <ele>1945.5999755859</ele>
        <time>2014-03-02T09:10:11.000Z</time>
      </trkpt>
      <trkpt lat="45.32774" lon="6.20211">
        <ele>1945.8000488281</ele>
        <time>2014-03-02T09:10:12.000Z</time>
      </trkpt>
      <trkpt lat="45.32774" lon="6.20209">
        <ele>1946</ele>
        <time>2014-03-02T09:10:13.000Z</time>
      </trkpt>
      <trkpt lat="45.32774" lon="6.20207">
        <ele>1946.1999511719</ele>
        <time>2014-03-02T09:10:14.000Z</time>
      </trkpt>
      <trkpt lat="45.32775" lon="6.20206">
        <ele>1946.4000244141</ele>
        <time>2014-03-02T09:10:15.000Z</time>
      </trkpt>
      <trkpt lat="45.32775" lon="6.20204">
        <ele>1946.4000244141</ele>
        <time>2014-03-02T09:10:16.000Z</time>
      </trkpt>
      <trkpt lat="45.32775" lon="6.20203">
        <ele>1946.4000244141</ele>
        <time>2014-03-02T09:10:17.000Z</time>
      </trkpt>
      <trkpt lat="45.32776" lon="6.20201">
        <ele>1946.5999755859</ele>
        <time>2014-03-02T09:10:18.000Z</time>
      </trkpt>
      <trkpt lat="45.32776" lon="6.20199">
        <ele>1946.8000488281</ele>
        <time>2014-03-02T09:10:19.000Z</time>
      </trkpt>
      <trkpt lat="45.32777" lon="6.20197">
        <ele>1946.8000488281</ele>
        <time>2014-03-02T09:10:20.000Z</time>
      </trkpt>
      <trkpt lat="45.32777" lon="6.20194">
        <ele>1946.8000488281</ele>
        <time>2014-03-02T09:10:21.000Z</time>
      </trkpt>
      <trkpt lat="45.32777" lon="6.20193">
        <ele>1946.5999755859</ele>
        <time>2014-03-02T09:10:22.000Z</time>
      </trkpt>
      <trkpt lat="45.32777" lon="6.20191">
        <ele>1946.5999755859</ele>
        <time>2014-03-02T09:10:23.000Z</time>
      </trkpt>
      <trkpt lat="45.32777" lon="6.20189">
        <ele>1946.5999755859</ele>
        <time>2014-03-02T09:10:24.000Z</time>
      </trkpt>
      <trkpt lat="45.32777" lon="6.20187">
        <ele>1946.4000244141</ele>
        <time>2014-03-02T09:10:25.000Z</time>
      </trkpt>
      <trkpt lat="45.32777" lon="6.20185">
        <ele>1946.4000244141</ele>
        <time>2014-03-02T09:10:26.000Z</time>
      </trkpt>
      <trkpt lat="45.32777" lon="6.20184">
        <ele>1946.4000244141</ele>
        <time>2014-03-02T09:10:27.000Z</time>
      </trkpt>
      <trkpt lat="45.32777" lon="6.20182">
        <ele>1946.4000244141</ele>
        <time>2014-03-02T09:10:28.000Z</time>
      </trkpt>
      <trkpt lat="45.32777" lon="6.20181">
        <ele>1946.4000244141</ele>
        <time>2014-03-02T09:10:29.000Z</time>
      </trkpt>
      <trkpt lat="45.32777" lon="6.20179">
        <ele>1946.4000244141</ele>
        <time>2014-03-02T09:10:30.000Z</time>
      </trkpt>
      <trkpt lat="45.32778" lon="6.20177">
        <ele>1946.4000244141</ele>
        <time>2014-03-02T09:10:31.000Z</time>
      </trkpt>
      <trkpt lat="45.32778" lon="6.20175">
        <ele>1946.4000244141</ele>
        <time>2014-03-02T09:10:32.000Z</time>
      </trkpt>
      <trkpt lat="45.32778" lon="6.20172">
        <ele>1946.1999511719</ele>
        <time>2014-03-02T09:10:33.000Z</time>
      </trkpt>
      <trkpt lat="45.32778" lon="6.2017">
        <ele>1946.1999511719</ele>
        <time>2014-03-02T09:10:34.000Z</time>
      </trkpt>
      <trkpt lat="45.32778" lon="6.20167">
        <ele>1946</ele>
        <time>2014-03-02T09:10:35.000Z</time>
      </trkpt>
      <trkpt lat="45.32777" lon="6.20165">
        <ele>1945.8000488281</ele>
        <time>2014-03-02T09:10:36.000Z</time>
      </trkpt>
      <trkpt lat="45.32777" lon="6.20163">
        <ele>1945.5999755859</ele>
        <time>2014-03-02T09:10:37.000Z</time>
      </trkpt>
      <trkpt lat="45.32777" lon="6.20162">
        <ele>1945.5999755859</ele>
        <time>2014-03-02T09:10:38.000Z</time>
      </trkpt>
      <trkpt lat="45.32777" lon="6.2016">
        <ele>1945.5999755859</ele>
        <time>2014-03-02T09:10:39.000Z</time>
      </trkpt>
      <trkpt lat="45.32777" lon="6.20159">
        <ele>1945.4000244141</ele>
        <time>2014-03-02T09:10:40.000Z</time>
      </trkpt>
      <trkpt lat="45.32777" lon="6.20157">
        <ele>1945.1999511719</ele>
        <time>2014-03-02T09:10:41.000Z</time>
      </trkpt>
      <trkpt lat="45.32776" lon="6.20155">
        <ele>1945.1999511719</ele>
        <time>2014-03-02T09:10:42.000Z</time>
      </trkpt>
      <trkpt lat="45.32776" lon="6.20153">
        <ele>1945</ele>
        <time>2014-03-02T09:10:43.000Z</time>
      </trkpt>
      <trkpt lat="45.32776" lon="6.20151">
        <ele>1944.8000488281</ele>
        <time>2014-03-02T09:10:44.000Z</time>
      </trkpt>
      <trkpt lat="45.32776" lon="6.2015">
        <ele>1944.8000488281</ele>
        <time>2014-03-02T09:10:45.000Z</time>
      </trkpt>
      <trkpt lat="45.32776" lon="6.20148">
        <ele>1944.5999755859</ele>
        <time>2014-03-02T09:10:46.000Z</time>
      </trkpt>
      <trkpt lat="45.32776" lon="6.20146">
        <ele>1944.5999755859</ele>
        <time>2014-03-02T09:10:47.000Z</time>
      </trkpt>
      <trkpt lat="45.32776" lon="6.20144">
        <ele>1944.4000244141</ele>
        <time>2014-03-02T09:10:48.000Z</time>
      </trkpt>
      <trkpt lat="45.32775" lon="6.20142">
        <ele>1944.4000244141</ele>
        <time>2014-03-02T09:10:49.000Z</time>
      </trkpt>
      <trkpt lat="45.32775" lon="6.20141">
        <ele>1944.4000244141</ele>
        <time>2014-03-02T09:10:50.000Z</time>
      </trkpt>
      <trkpt lat="45.32775" lon="6.2014">
        <ele>1944.4000244141</ele>
        <time>2014-03-02T09:10:51.000Z</time>
      </trkpt>
      <trkpt lat="45.32776" lon="6.20138">
        <ele>1944.5999755859</ele>
        <time>2014-03-02T09:10:52.000Z</time>
      </trkpt>
      <trkpt lat="45.32775" lon="6.20135">
        <ele>1944.4000244141</ele>
        <time>2014-03-02T09:10:54.000Z</time>
      </trkpt>
      <trkpt lat="45.32775" lon="6.20134">
        <ele>1944.5999755859</ele>
        <time>2014-03-02T09:10:55.000Z</time>
      </trkpt>
      <trkpt lat="45.32776" lon="6.20132">
        <ele>1944.5999755859</ele>
        <time>2014-03-02T09:10:56.000Z</time>
      </trkpt>
      <trkpt lat="45.32775" lon="6.20131">
        <ele>1944.5999755859</ele>
        <time>2014-03-02T09:10:57.000Z</time>
      </trkpt>
      <trkpt lat="45.32775" lon="6.2013">
        <ele>1944.4000244141</ele>
        <time>2014-03-02T09:10:58.000Z</time>
      </trkpt>
      <trkpt lat="45.32775" lon="6.20128">
        <ele>1944.4000244141</ele>
        <time>2014-03-02T09:10:59.000Z</time>
      </trkpt>
      <trkpt lat="45.32774" lon="6.20127">
        <ele>1944.1999511719</ele>
        <time>2014-03-02T09:11:00.000Z</time>
      </trkpt>
      <trkpt lat="45.32774" lon="6.20125">
        <ele>1944</ele>
        <time>2014-03-02T09:11:01.000Z</time>
      </trkpt>
      <trkpt lat="45.32773" lon="6.20124">
        <ele>1944</ele>
        <time>2014-03-02T09:11:02.000Z</time>
      </trkpt>
      <trkpt lat="45.32773" lon="6.20122">
        <ele>1943.8000488281</ele>
        <time>2014-03-02T09:11:03.000Z</time>
      </trkpt>
      <trkpt lat="45.32773" lon="6.20121">
        <ele>1943.8000488281</ele>
        <time>2014-03-02T09:11:04.000Z</time>
      </trkpt>
      <trkpt lat="45.32773" lon="6.2012">
        <ele>1943.8000488281</ele>
        <time>2014-03-02T09:11:05.000Z</time>
      </trkpt>
      <trkpt lat="45.32773" lon="6.20119">
        <ele>1943.8000488281</ele>
        <time>2014-03-02T09:11:06.000Z</time>
      </trkpt>
      <trkpt lat="45.32773" lon="6.20118">
        <ele>1943.8000488281</ele>
        <time>2014-03-02T09:11:07.000Z</time>
      </trkpt>
      <trkpt lat="45.32773" lon="6.20116">
        <ele>1943.8000488281</ele>
        <time>2014-03-02T09:11:08.000Z</time>
      </trkpt>
      <trkpt lat="45.32772" lon="6.20115">
        <ele>1943.5999755859</ele>
        <time>2014-03-02T09:11:09.000Z</time>
      </trkpt>
      <trkpt lat="45.32772" lon="6.20113">
        <ele>1943.5999755859</ele>
        <time>2014-03-02T09:11:10.000Z</time>
      </trkpt>
      <trkpt lat="45.32772" lon="6.20111">
        <ele>1943.5999755859</ele>
        <time>2014-03-02T09:11:11.000Z</time>
      </trkpt>
      <trkpt lat="45.32772" lon="6.2011">
        <ele>1943.5999755859</ele>
        <time>2014-03-02T09:11:12.000Z</time>
      </trkpt>
      <trkpt lat="45.32772" lon="6.20108">
        <ele>1943.5999755859</ele>
        <time>2014-03-02T09:11:13.000Z</time>
      </trkpt>
      <trkpt lat="45.32772" lon="6.20106">
        <ele>1943.5999755859</ele>
        <time>2014-03-02T09:11:14.000Z</time>
      </trkpt>
      <trkpt lat="45.32773" lon="6.20105">
        <ele>1943.8000488281</ele>
        <time>2014-03-02T09:11:15.000Z</time>
      </trkpt>
      <trkpt lat="45.32772" lon="6.20104">
        <ele>1943.5999755859</ele>
        <time>2014-03-02T09:11:16.000Z</time>
      </trkpt>
      <trkpt lat="45.32772" lon="6.20102">
        <ele>1943.5999755859</ele>
        <time>2014-03-02T09:11:17.000Z</time>
      </trkpt>
      <trkpt lat="45.32772" lon="6.20101">
        <ele>1943.5999755859</ele>
        <time>2014-03-02T09:11:18.000Z</time>
      </trkpt>
      <trkpt lat="45.32773" lon="6.20099">
        <ele>1943.8000488281</ele>
        <time>2014-03-02T09:11:19.000Z</time>
      </trkpt>
      <trkpt lat="45.32773" lon="6.20098">
        <ele>1943.8000488281</ele>
        <time>2014-03-02T09:11:20.000Z</time>
      </trkpt>
      <trkpt lat="45.32773" lon="6.20097">
        <ele>1943.8000488281</ele>
        <time>2014-03-02T09:11:21.000Z</time>
      </trkpt>
      <trkpt lat="45.32772" lon="6.20095">
        <ele>1943.5999755859</ele>
        <time>2014-03-02T09:11:22.000Z</time>
      </trkpt>
      <trkpt lat="45.32772" lon="6.20094">
        <ele>1943.4000244141</ele>
        <time>2014-03-02T09:11:23.000Z</time>
      </trkpt>
      <trkpt lat="45.32772" lon="6.20092">
        <ele>1943.4000244141</ele>
        <time>2014-03-02T09:11:24.000Z</time>
      </trkpt>
      <trkpt lat="45.32772" lon="6.20092">
        <ele>1943.4000244141</ele>
        <time>2014-03-02T09:11:25.000Z</time>
      </trkpt>
      <trkpt lat="45.32772" lon="6.20091">
        <ele>1943.4000244141</ele>
        <time>2014-03-02T09:11:26.000Z</time>
      </trkpt>
      <trkpt lat="45.32771" lon="6.20089">
        <ele>1943.4000244141</ele>
        <time>2014-03-02T09:11:27.000Z</time>
      </trkpt>
      <trkpt lat="45.32771" lon="6.20089">
        <ele>1943.1999511719</ele>
        <time>2014-03-02T09:11:28.000Z</time>
      </trkpt>
      <trkpt lat="45.32772" lon="6.20088">
        <ele>1943.4000244141</ele>
        <time>2014-03-02T09:11:29.000Z</time>
      </trkpt>
      <trkpt lat="45.32772" lon="6.20086">
        <ele>1943.4000244141</ele>
        <time>2014-03-02T09:11:30.000Z</time>
      </trkpt>
      <trkpt lat="45.32772" lon="6.20085">
        <ele>1943.5999755859</ele>
        <time>2014-03-02T09:11:31.000Z</time>
      </trkpt>
      <trkpt lat="45.32772" lon="6.20083">
        <ele>1943.5999755859</ele>
        <time>2014-03-02T09:11:32.000Z</time>
      </trkpt>
      <trkpt lat="45.32771" lon="6.20082">
        <ele>1943.4000244141</ele>
        <time>2014-03-02T09:11:33.000Z</time>
      </trkpt>
      <trkpt lat="45.32772" lon="6.2008">
        <ele>1943.4000244141</ele>
        <time>2014-03-02T09:11:34.000Z</time>
      </trkpt>
      <trkpt lat="45.32772" lon="6.20078">
        <ele>1943.4000244141</ele>
        <time>2014-03-02T09:11:35.000Z</time>
      </trkpt>
      <trkpt lat="45.32772" lon="6.20077">
        <ele>1943.5999755859</ele>
        <time>2014-03-02T09:11:36.000Z</time>
      </trkpt>
      <trkpt lat="45.32772" lon="6.20076">
        <ele>1943.4000244141</ele>
        <time>2014-03-02T09:11:37.000Z</time>
      </trkpt>
      <trkpt lat="45.32772" lon="6.20075">
        <ele>1943.4000244141</ele>
        <time>2014-03-02T09:11:38.000Z</time>
      </trkpt>
      <trkpt lat="45.32771" lon="6.20073">
        <ele>1943.1999511719</ele>
        <time>2014-03-02T09:11:39.000Z</time>
      </trkpt>
      <trkpt lat="45.32771" lon="6.20072">
        <ele>1943</ele>
        <time>2014-03-02T09:11:40.000Z</time>
      </trkpt>
      <trkpt lat="45.32771" lon="6.2007">
        <ele>1943</ele>
        <time>2014-03-02T09:11:41.000Z</time>
      </trkpt>
      <trkpt lat="45.32771" lon="6.20069">
        <ele>1943</ele>
        <time>2014-03-02T09:11:42.000Z</time>
      </trkpt>
      <trkpt lat="45.32771" lon="6.20067">
        <ele>1943.1999511719</ele>
        <time>2014-03-02T09:11:43.000Z</time>
      </trkpt>
      <trkpt lat="45.32771" lon="6.20066">
        <ele>1943.1999511719</ele>
        <time>2014-03-02T09:11:44.000Z</time>
      </trkpt>
      <trkpt lat="45.32772" lon="6.20065">
        <ele>1943.4000244141</ele>
        <time>2014-03-02T09:11:45.000Z</time>
      </trkpt>
      <trkpt lat="45.32772" lon="6.20064">
        <ele>1943.4000244141</ele>
        <time>2014-03-02T09:11:46.000Z</time>
      </trkpt>
      <trkpt lat="45.32772" lon="6.20063">
        <ele>1943.5999755859</ele>
        <time>2014-03-02T09:11:47.000Z</time>
      </trkpt>
      <trkpt lat="45.32773" lon="6.20062">
        <ele>1943.8000488281</ele>
        <time>2014-03-02T09:11:48.000Z</time>
      </trkpt>
      <trkpt lat="45.32773" lon="6.20062">
        <ele>1944</ele>
        <time>2014-03-02T09:11:49.000Z</time>
      </trkpt>
      <trkpt lat="45.32773" lon="6.20061">
        <ele>1944</ele>
        <time>2014-03-02T09:11:50.000Z</time>
      </trkpt>
      <trkpt lat="45.32773" lon="6.2006">
        <ele>1944</ele>
        <time>2014-03-02T09:11:51.000Z</time>
      </trkpt>
      <trkpt lat="45.32773" lon="6.20059">
        <ele>1943.8000488281</ele>
        <time>2014-03-02T09:11:52.000Z</time>
      </trkpt>
      <trkpt lat="45.32773" lon="6.20057">
        <ele>1944</ele>
        <time>2014-03-02T09:11:53.000Z</time>
      </trkpt>
      <trkpt lat="45.32773" lon="6.20056">
        <ele>1944</ele>
        <time>2014-03-02T09:11:54.000Z</time>
      </trkpt>
      <trkpt lat="45.32773" lon="6.20054">
        <ele>1944.4000244141</ele>
        <time>2014-03-02T09:11:55.000Z</time>
      </trkpt>
      <trkpt lat="45.32774" lon="6.20053">
        <ele>1944.5999755859</ele>
        <time>2014-03-02T09:11:56.000Z</time>
      </trkpt>
      <trkpt lat="45.32774" lon="6.20052">
        <ele>1944.8000488281</ele>
        <time>2014-03-02T09:11:57.000Z</time>
      </trkpt>
      <trkpt lat="45.32775" lon="6.20051">
        <ele>1945</ele>
        <time>2014-03-02T09:11:58.000Z</time>
      </trkpt>
      <trkpt lat="45.32776" lon="6.2005">
        <ele>1945.4000244141</ele>
        <time>2014-03-02T09:11:59.000Z</time>
      </trkpt>
      <trkpt lat="45.32776" lon="6.20049">
        <ele>1945.5999755859</ele>
        <time>2014-03-02T09:12:00.000Z</time>
      </trkpt>
      <trkpt lat="45.32776" lon="6.20049">
        <ele>1945.5999755859</ele>
        <time>2014-03-02T09:12:01.000Z</time>
      </trkpt>
      <trkpt lat="45.32776" lon="6.20049">
        <ele>1945.5999755859</ele>
        <time>2014-03-02T09:12:02.000Z</time>
      </trkpt>
      <trkpt lat="45.32776" lon="6.20049">
        <ele>1945.5999755859</ele>
        <time>2014-03-02T09:12:03.000Z</time>
      </trkpt>
      <trkpt lat="45.32777" lon="6.20049">
        <ele>1945.8000488281</ele>
        <time>2014-03-02T09:12:04.000Z</time>
      </trkpt>
      <trkpt lat="45.32777" lon="6.20047">
        <ele>1946</ele>
        <time>2014-03-02T09:12:05.000Z</time>
      </trkpt>
      <trkpt lat="45.32778" lon="6.20046">
        <ele>1946.4000244141</ele>
        <time>2014-03-02T09:12:06.000Z</time>
      </trkpt>
      <trkpt lat="45.32779" lon="6.20045">
        <ele>1946.5999755859</ele>
        <time>2014-03-02T09:12:07.000Z</time>
      </trkpt>
      <trkpt lat="45.32779" lon="6.20043">
        <ele>1946.8000488281</ele>
        <time>2014-03-02T09:12:08.000Z</time>
      </trkpt>
      <trkpt lat="45.3278" lon="6.20042">
        <ele>1946.8000488281</ele>
        <time>2014-03-02T09:12:09.000Z</time>
      </trkpt>
      <trkpt lat="45.3278" lon="6.20041">
        <ele>1947</ele>
        <time>2014-03-02T09:12:10.000Z</time>
      </trkpt>
      <trkpt lat="45.32781" lon="6.20039">
        <ele>1947</ele>
        <time>2014-03-02T09:12:11.000Z</time>
      </trkpt>
      <trkpt lat="45.32781" lon="6.20038">
        <ele>1947.1999511719</ele>
        <time>2014-03-02T09:12:12.000Z</time>
      </trkpt>
      <trkpt lat="45.32782" lon="6.20036">
        <ele>1947.1999511719</ele>
        <time>2014-03-02T09:12:13.000Z</time>
      </trkpt>
      <trkpt lat="45.32782" lon="6.20035">
        <ele>1947.1999511719</ele>
        <time>2014-03-02T09:12:14.000Z</time>
      </trkpt>
      <trkpt lat="45.32782" lon="6.20033">
        <ele>1947.1999511719</ele>
        <time>2014-03-02T09:12:15.000Z</time>
      </trkpt>
      <trkpt lat="45.32782" lon="6.20031">
        <ele>1947.1999511719</ele>
        <time>2014-03-02T09:12:16.000Z</time>
      </trkpt>
      <trkpt lat="45.32783" lon="6.2003">
        <ele>1947.4000244141</ele>
        <time>2014-03-02T09:12:17.000Z</time>
      </trkpt>
      <trkpt lat="45.32784" lon="6.20028">
        <ele>1947.5999755859</ele>
        <time>2014-03-02T09:12:18.000Z</time>
      </trkpt>
      <trkpt lat="45.32785" lon="6.20027">
        <ele>1947.8000488281</ele>
        <time>2014-03-02T09:12:19.000Z</time>
      </trkpt>
      <trkpt lat="45.32786" lon="6.20026">
        <ele>1948</ele>
        <time>2014-03-02T09:12:20.000Z</time>
      </trkpt>
      <trkpt lat="45.32787" lon="6.20025">
        <ele>1948</ele>
        <time>2014-03-02T09:12:21.000Z</time>
      </trkpt>
      <trkpt lat="45.32788" lon="6.20024">
        <ele>1948.4000244141</ele>
        <time>2014-03-02T09:12:22.000Z</time>
      </trkpt>
      <trkpt lat="45.32789" lon="6.20023">
        <ele>1948.4000244141</ele>
        <time>2014-03-02T09:12:23.000Z</time>
      </trkpt>
      <trkpt lat="45.32788" lon="6.20022">
        <ele>1948.4000244141</ele>
        <time>2014-03-02T09:12:24.000Z</time>
      </trkpt>
      <trkpt lat="45.32789" lon="6.20021">
        <ele>1948.5999755859</ele>
        <time>2014-03-02T09:12:25.000Z</time>
      </trkpt>
      <trkpt lat="45.3279" lon="6.2002">
        <ele>1948.5999755859</ele>
        <time>2014-03-02T09:12:26.000Z</time>
      </trkpt>
      <trkpt lat="45.3279" lon="6.20019">
        <ele>1948.5999755859</ele>
        <time>2014-03-02T09:12:27.000Z</time>
      </trkpt>
      <trkpt lat="45.32791" lon="6.20017">
        <ele>1949</ele>
        <time>2014-03-02T09:12:28.000Z</time>
      </trkpt>
      <trkpt lat="45.32792" lon="6.20017">
        <ele>1949</ele>
        <time>2014-03-02T09:12:29.000Z</time>
      </trkpt>
      <trkpt lat="45.32793" lon="6.20016">
        <ele>1949.1999511719</ele>
        <time>2014-03-02T09:12:30.000Z</time>
      </trkpt>
      <trkpt lat="45.32793" lon="6.20015">
        <ele>1949.1999511719</ele>
        <time>2014-03-02T09:12:31.000Z</time>
      </trkpt>
      <trkpt lat="45.32792" lon="6.20014">
        <ele>1949</ele>
        <time>2014-03-02T09:12:32.000Z</time>
      </trkpt>
      <trkpt lat="45.32792" lon="6.20013">
        <ele>1948.8000488281</ele>
        <time>2014-03-02T09:12:33.000Z</time>
      </trkpt>
      <trkpt lat="45.32792" lon="6.20012">
        <ele>1949</ele>
        <time>2014-03-02T09:12:34.000Z</time>
      </trkpt>
      <trkpt lat="45.32792" lon="6.20011">
        <ele>1948.8000488281</ele>
        <time>2014-03-02T09:12:35.000Z</time>
      </trkpt>
      <trkpt lat="45.32792" lon="6.2001">
        <ele>1948.8000488281</ele>
        <time>2014-03-02T09:12:36.000Z</time>
      </trkpt>
      <trkpt lat="45.32792" lon="6.20009">
        <ele>1948.8000488281</ele>
        <time>2014-03-02T09:12:37.000Z</time>
      </trkpt>
      <trkpt lat="45.32793" lon="6.20007">
        <ele>1949</ele>
        <time>2014-03-02T09:12:38.000Z</time>
      </trkpt>
      <trkpt lat="45.32793" lon="6.20006">
        <ele>1949</ele>
        <time>2014-03-02T09:12:39.000Z</time>
      </trkpt>
      <trkpt lat="45.32793" lon="6.20005">
        <ele>1949</ele>
        <time>2014-03-02T09:12:40.000Z</time>
      </trkpt>
      <trkpt lat="45.32794" lon="6.20005">
        <ele>1949.1999511719</ele>
        <time>2014-03-02T09:12:41.000Z</time>
      </trkpt>
      <trkpt lat="45.32794" lon="6.20005">
        <ele>1949.1999511719</ele>
        <time>2014-03-02T09:12:42.000Z</time>
      </trkpt>
      <trkpt lat="45.32794" lon="6.20005">
        <ele>1949.1999511719</ele>
        <time>2014-03-02T09:12:43.000Z</time>
      </trkpt>
      <trkpt lat="45.32794" lon="6.20005">
        <ele>1949.1999511719</ele>
        <time>2014-03-02T09:12:44.000Z</time>
      </trkpt>
      <trkpt lat="45.32794" lon="6.20005">
        <ele>1949.1999511719</ele>
        <time>2014-03-02T09:12:45.000Z</time>
      </trkpt>
      <trkpt lat="45.32794" lon="6.20005">
        <ele>1949.1999511719</ele>
        <time>2014-03-02T09:12:46.000Z</time>
      </trkpt>
      <trkpt lat="45.32794" lon="6.20005">
        <ele>1949.1999511719</ele>
        <time>2014-03-02T09:12:47.000Z</time>
      </trkpt>
      <trkpt lat="45.32794" lon="6.20005">
        <ele>1949.1999511719</ele>
        <time>2014-03-02T09:12:48.000Z</time>
      </trkpt>
      <trkpt lat="45.32794" lon="6.20005">
        <ele>1949.1999511719</ele>
        <time>2014-03-02T09:12:49.000Z</time>
      </trkpt>
      <trkpt lat="45.32794" lon="6.20005">
        <ele>1949.1999511719</ele>
        <time>2014-03-02T09:12:53.000Z</time>
      </trkpt>
      <trkpt lat="45.32794" lon="6.20005">
        <ele>1949.1999511719</ele>
        <time>2014-03-02T09:12:54.000Z</time>
      </trkpt>
      <trkpt lat="45.32794" lon="6.20005">
        <ele>1949.1999511719</ele>
        <time>2014-03-02T09:12:55.000Z</time>
      </trkpt>
      <trkpt lat="45.32794" lon="6.20005">
        <ele>1949.1999511719</ele>
        <time>2014-03-02T09:12:56.000Z</time>
      </trkpt>
      <trkpt lat="45.32794" lon="6.20005">
        <ele>1949.1999511719</ele>
        <time>2014-03-02T09:12:57.000Z</time>
      </trkpt>
      <trkpt lat="45.32794" lon="6.20005">
        <ele>1949.1999511719</ele>
        <time>2014-03-02T09:12:58.000Z</time>
      </trkpt>
      <trkpt lat="45.32794" lon="6.20004">
        <ele>1949</ele>
        <time>2014-03-02T09:12:59.000Z</time>
      </trkpt>
      <trkpt lat="45.32794" lon="6.20002">
        <ele>1949</ele>
        <time>2014-03-02T09:13:01.000Z</time>
      </trkpt>
      <trkpt lat="45.32794" lon="6.19999">
        <ele>1948.8000488281</ele>
        <time>2014-03-02T09:13:03.000Z</time>
      </trkpt>
      <trkpt lat="45.32793" lon="6.19998">
        <ele>1948.8000488281</ele>
        <time>2014-03-02T09:13:04.000Z</time>
      </trkpt>
      <trkpt lat="45.32794" lon="6.19997">
        <ele>1948.8000488281</ele>
        <time>2014-03-02T09:13:05.000Z</time>
      </trkpt>
      <trkpt lat="45.32793" lon="6.19996">
        <ele>1948.5999755859</ele>
        <time>2014-03-02T09:13:06.000Z</time>
      </trkpt>
      <trkpt lat="45.32793" lon="6.19994">
        <ele>1948.5999755859</ele>
        <time>2014-03-02T09:13:07.000Z</time>
      </trkpt>
      <trkpt lat="45.32793" lon="6.19993">
        <ele>1948.4000244141</ele>
        <time>2014-03-02T09:13:08.000Z</time>
      </trkpt>
      <trkpt lat="45.32793" lon="6.19991">
        <ele>1948.4000244141</ele>
        <time>2014-03-02T09:13:09.000Z</time>
      </trkpt>
      <trkpt lat="45.32793" lon="6.1999">
        <ele>1948.4000244141</ele>
        <time>2014-03-02T09:13:10.000Z</time>
      </trkpt>
      <trkpt lat="45.32793" lon="6.19988">
        <ele>1948.4000244141</ele>
        <time>2014-03-02T09:13:11.000Z</time>
      </trkpt>
      <trkpt lat="45.32793" lon="6.19987">
        <ele>1948.1999511719</ele>
        <time>2014-03-02T09:13:12.000Z</time>
      </trkpt>
      <trkpt lat="45.32793" lon="6.19986">
        <ele>1948.1999511719</ele>
        <time>2014-03-02T09:13:13.000Z</time>
      </trkpt>
      <trkpt lat="45.32792" lon="6.19985">
        <ele>1948</ele>
        <time>2014-03-02T09:13:14.000Z</time>
      </trkpt>
      <trkpt lat="45.32792" lon="6.19984">
        <ele>1948</ele>
        <time>2014-03-02T09:13:15.000Z</time>
      </trkpt>
      <trkpt lat="45.32793" lon="6.19982">
        <ele>1948</ele>
        <time>2014-03-02T09:13:16.000Z</time>
      </trkpt>
      <trkpt lat="45.32792" lon="6.19981">
        <ele>1947.8000488281</ele>
        <time>2014-03-02T09:13:17.000Z</time>
      </trkpt>
      <trkpt lat="45.32793" lon="6.19979">
        <ele>1947.8000488281</ele>
        <time>2014-03-02T09:13:18.000Z</time>
      </trkpt>
      <trkpt lat="45.32793" lon="6.19978">
        <ele>1947.8000488281</ele>
        <time>2014-03-02T09:13:19.000Z</time>
      </trkpt>
      <trkpt lat="45.32793" lon="6.19977">
        <ele>1948</ele>
        <time>2014-03-02T09:13:20.000Z</time>
      </trkpt>
      <trkpt lat="45.32794" lon="6.19975">
        <ele>1948.1999511719</ele>
        <time>2014-03-02T09:13:21.000Z</time>
      </trkpt>
      <trkpt lat="45.32794" lon="6.19975">
        <ele>1948.1999511719</ele>
        <time>2014-03-02T09:13:22.000Z</time>
      </trkpt>
      <trkpt lat="45.32794" lon="6.19973">
        <ele>1948.1999511719</ele>
        <time>2014-03-02T09:13:23.000Z</time>
      </trkpt>
      <trkpt lat="45.32793" lon="6.19972">
        <ele>1948.1999511719</ele>
        <time>2014-03-02T09:13:24.000Z</time>
      </trkpt>
      <trkpt lat="45.32793" lon="6.19971">
        <ele>1948.1999511719</ele>
        <time>2014-03-02T09:13:25.000Z</time>
      </trkpt>
      <trkpt lat="45.32794" lon="6.1997">
        <ele>1948.4000244141</ele>
        <time>2014-03-02T09:13:26.000Z</time>
      </trkpt>
      <trkpt lat="45.32794" lon="6.1997">
        <ele>1948.5999755859</ele>
        <time>2014-03-02T09:13:27.000Z</time>
      </trkpt>
      <trkpt lat="45.32794" lon="6.19968">
        <ele>1948.8000488281</ele>
        <time>2014-03-02T09:13:28.000Z</time>
      </trkpt>
      <trkpt lat="45.32795" lon="6.19967">
        <ele>1949</ele>
        <time>2014-03-02T09:13:29.000Z</time>
      </trkpt>
      <trkpt lat="45.32795" lon="6.19966">
        <ele>1949.1999511719</ele>
        <time>2014-03-02T09:13:30.000Z</time>
      </trkpt>
      <trkpt lat="45.32795" lon="6.19964">
        <ele>1949.1999511719</ele>
        <time>2014-03-02T09:13:31.000Z</time>
      </trkpt>
      <trkpt lat="45.32796" lon="6.19963">
        <ele>1949.4000244141</ele>
        <time>2014-03-02T09:13:32.000Z</time>
      </trkpt>
      <trkpt lat="45.32796" lon="6.19962">
        <ele>1949.5999755859</ele>
        <time>2014-03-02T09:13:33.000Z</time>
      </trkpt>
      <trkpt lat="45.32797" lon="6.1996">
        <ele>1950</ele>
        <time>2014-03-02T09:13:34.000Z</time>
      </trkpt>
      <trkpt lat="45.32797" lon="6.19959">
        <ele>1950.4000244141</ele>
        <time>2014-03-02T09:13:35.000Z</time>
      </trkpt>
      <trkpt lat="45.32797" lon="6.19958">
        <ele>1950.1999511719</ele>
        <time>2014-03-02T09:13:36.000Z</time>
      </trkpt>
      <trkpt lat="45.32797" lon="6.19957">
        <ele>1950.1999511719</ele>
        <time>2014-03-02T09:13:37.000Z</time>
      </trkpt>
      <trkpt lat="45.32797" lon="6.19956">
        <ele>1950.4000244141</ele>
        <time>2014-03-02T09:13:38.000Z</time>
      </trkpt>
      <trkpt lat="45.32798" lon="6.19955">
        <ele>1950.8000488281</ele>
        <time>2014-03-02T09:13:39.000Z</time>
      </trkpt>
      <trkpt lat="45.32798" lon="6.19954">
        <ele>1950.8000488281</ele>
        <time>2014-03-02T09:13:40.000Z</time>
      </trkpt>
      <trkpt lat="45.32798" lon="6.19953">
        <ele>1950.8000488281</ele>
        <time>2014-03-02T09:13:41.000Z</time>
      </trkpt>
      <trkpt lat="45.32798" lon="6.19952">
        <ele>1951</ele>
        <time>2014-03-02T09:13:42.000Z</time>
      </trkpt>
      <trkpt lat="45.32798" lon="6.19951">
        <ele>1951.4000244141</ele>
        <time>2014-03-02T09:13:43.000Z</time>
      </trkpt>
      <trkpt lat="45.32798" lon="6.1995">
        <ele>1951.4000244141</ele>
        <time>2014-03-02T09:13:44.000Z</time>
      </trkpt>
      <trkpt lat="45.32799" lon="6.19948">
        <ele>1951.8000488281</ele>
        <time>2014-03-02T09:13:45.000Z</time>
      </trkpt>
      <trkpt lat="45.32799" lon="6.19947">
        <ele>1952</ele>
        <time>2014-03-02T09:13:46.000Z</time>
      </trkpt>
      <trkpt lat="45.32799" lon="6.19946">
        <ele>1952.4000244141</ele>
        <time>2014-03-02T09:13:47.000Z</time>
      </trkpt>
      <trkpt lat="45.32799" lon="6.19944">
        <ele>1952.5999755859</ele>
        <time>2014-03-02T09:13:48.000Z</time>
      </trkpt>
      <trkpt lat="45.32799" lon="6.19943">
        <ele>1952.5999755859</ele>
        <time>2014-03-02T09:13:49.000Z</time>
      </trkpt>
      <trkpt lat="45.32799" lon="6.19941">
        <ele>1952.5999755859</ele>
        <time>2014-03-02T09:13:50.000Z</time>
      </trkpt>
      <trkpt lat="45.32799" lon="6.1994">
        <ele>1952.5999755859</ele>
        <time>2014-03-02T09:13:51.000Z</time>
      </trkpt>
      <trkpt lat="45.32799" lon="6.19939">
        <ele>1952.8000488281</ele>
        <time>2014-03-02T09:13:52.000Z</time>
      </trkpt>
      <trkpt lat="45.32799" lon="6.19939">
        <ele>1952.8000488281</ele>
        <time>2014-03-02T09:13:53.000Z</time>
      </trkpt>
      <trkpt lat="45.32799" lon="6.19938">
        <ele>1953</ele>
        <time>2014-03-02T09:13:54.000Z</time>
      </trkpt>
      <trkpt lat="45.328" lon="6.19937">
        <ele>1953.1999511719</ele>
        <time>2014-03-02T09:13:55.000Z</time>
      </trkpt>
      <trkpt lat="45.328" lon="6.19938">
        <ele>1953.1999511719</ele>
        <time>2014-03-02T09:13:56.000Z</time>
      </trkpt>
      <trkpt lat="45.328" lon="6.19938">
        <ele>1953.1999511719</ele>
        <time>2014-03-02T09:13:57.000Z</time>
      </trkpt>
      <trkpt lat="45.328" lon="6.19938">
        <ele>1953.1999511719</ele>
        <time>2014-03-02T09:13:58.000Z</time>
      </trkpt>
      <trkpt lat="45.328" lon="6.19938">
        <ele>1953.1999511719</ele>
        <time>2014-03-02T09:13:59.000Z</time>
      </trkpt>
      <trkpt lat="45.328" lon="6.19938">
        <ele>1953.1999511719</ele>
        <time>2014-03-02T09:14:00.000Z</time>
      </trkpt>
      <trkpt lat="45.328" lon="6.19938">
        <ele>1953.1999511719</ele>
        <time>2014-03-02T09:14:01.000Z</time>
      </trkpt>
      <trkpt lat="45.328" lon="6.19937">
        <ele>1953.4000244141</ele>
        <time>2014-03-02T09:14:02.000Z</time>
      </trkpt>
      <trkpt lat="45.328" lon="6.19936">
        <ele>1953.4000244141</ele>
        <time>2014-03-02T09:14:03.000Z</time>
      </trkpt>
      <trkpt lat="45.328" lon="6.19935">
        <ele>1953.5999755859</ele>
        <time>2014-03-02T09:14:04.000Z</time>
      </trkpt>
      <trkpt lat="45.328" lon="6.19933">
        <ele>1953.5999755859</ele>
        <time>2014-03-02T09:14:05.000Z</time>
      </trkpt>
      <trkpt lat="45.328" lon="6.19932">
        <ele>1953.8000488281</ele>
        <time>2014-03-02T09:14:06.000Z</time>
      </trkpt>
      <trkpt lat="45.328" lon="6.19931">
        <ele>1953.8000488281</ele>
        <time>2014-03-02T09:14:07.000Z</time>
      </trkpt>
      <trkpt lat="45.328" lon="6.19929">
        <ele>1954</ele>
        <time>2014-03-02T09:14:08.000Z</time>
      </trkpt>
      <trkpt lat="45.328" lon="6.19927">
        <ele>1954.1999511719</ele>
        <time>2014-03-02T09:14:10.000Z</time>
      </trkpt>
      <trkpt lat="45.328" lon="6.19925">
        <ele>1954.4000244141</ele>
        <time>2014-03-02T09:14:11.000Z</time>
      </trkpt>
      <trkpt lat="45.328" lon="6.19923">
        <ele>1954.4000244141</ele>
        <time>2014-03-02T09:14:12.000Z</time>
      </trkpt>
      <trkpt lat="45.328" lon="6.19921">
        <ele>1954.4000244141</ele>
        <time>2014-03-02T09:14:13.000Z</time>
      </trkpt>
      <trkpt lat="45.328" lon="6.1992">
        <ele>1954.4000244141</ele>
        <time>2014-03-02T09:14:14.000Z</time>
      </trkpt>
      <trkpt lat="45.328" lon="6.19919">
        <ele>1954.1999511719</ele>
        <time>2014-03-02T09:14:15.000Z</time>
      </trkpt>
      <trkpt lat="45.32799" lon="6.19917">
        <ele>1954.1999511719</ele>
        <time>2014-03-02T09:14:16.000Z</time>
      </trkpt>
      <trkpt lat="45.32799" lon="6.19916">
        <ele>1954.1999511719</ele>
        <time>2014-03-02T09:14:17.000Z</time>
      </trkpt>
      <trkpt lat="45.32799" lon="6.19915">
        <ele>1954.1999511719</ele>
        <time>2014-03-02T09:14:18.000Z</time>
      </trkpt>
      <trkpt lat="45.32799" lon="6.19913">
        <ele>1954.1999511719</ele>
        <time>2014-03-02T09:14:19.000Z</time>
      </trkpt>
      <trkpt lat="45.32799" lon="6.19913">
        <ele>1954.1999511719</ele>
        <time>2014-03-02T09:14:20.000Z</time>
      </trkpt>
      <trkpt lat="45.32799" lon="6.19911">
        <ele>1954.1999511719</ele>
        <time>2014-03-02T09:14:21.000Z</time>
      </trkpt>
      <trkpt lat="45.32798" lon="6.1991">
        <ele>1954</ele>
        <time>2014-03-02T09:14:22.000Z</time>
      </trkpt>
      <trkpt lat="45.32798" lon="6.19908">
        <ele>1954</ele>
        <time>2014-03-02T09:14:23.000Z</time>
      </trkpt>
      <trkpt lat="45.32798" lon="6.19906">
        <ele>1953.8000488281</ele>
        <time>2014-03-02T09:14:24.000Z</time>
      </trkpt>
      <trkpt lat="45.32797" lon="6.19905">
        <ele>1953.5999755859</ele>
        <time>2014-03-02T09:14:25.000Z</time>
      </trkpt>
      <trkpt lat="45.32797" lon="6.19904">
        <ele>1953.4000244141</ele>
        <time>2014-03-02T09:14:26.000Z</time>
      </trkpt>
      <trkpt lat="45.32798" lon="6.19902">
        <ele>1953.8000488281</ele>
        <time>2014-03-02T09:14:27.000Z</time>
      </trkpt>
      <trkpt lat="45.32798" lon="6.19901">
        <ele>1954</ele>
        <time>2014-03-02T09:14:28.000Z</time>
      </trkpt>
      <trkpt lat="45.32798" lon="6.19899">
        <ele>1954</ele>
        <time>2014-03-02T09:14:29.000Z</time>
      </trkpt>
      <trkpt lat="45.32798" lon="6.19897">
        <ele>1954.1999511719</ele>
        <time>2014-03-02T09:14:30.000Z</time>
      </trkpt>
      <trkpt lat="45.32798" lon="6.19896">
        <ele>1954.4000244141</ele>
        <time>2014-03-02T09:14:31.000Z</time>
      </trkpt>
      <trkpt lat="45.32798" lon="6.19895">
        <ele>1954.4000244141</ele>
        <time>2014-03-02T09:14:32.000Z</time>
      </trkpt>
      <trkpt lat="45.32799" lon="6.19893">
        <ele>1954.5999755859</ele>
        <time>2014-03-02T09:14:33.000Z</time>
      </trkpt>
      <trkpt lat="45.32798" lon="6.19892">
        <ele>1954.4000244141</ele>
        <time>2014-03-02T09:14:34.000Z</time>
      </trkpt>
      <trkpt lat="45.32799" lon="6.19891">
        <ele>1954.5999755859</ele>
        <time>2014-03-02T09:14:35.000Z</time>
      </trkpt>
      <trkpt lat="45.32798" lon="6.1989">
        <ele>1954.4000244141</ele>
        <time>2014-03-02T09:14:36.000Z</time>
      </trkpt>
      <trkpt lat="45.32799" lon="6.19889">
        <ele>1954.5999755859</ele>
        <time>2014-03-02T09:14:37.000Z</time>
      </trkpt>
      <trkpt lat="45.32799" lon="6.19888">
        <ele>1954.5999755859</ele>
        <time>2014-03-02T09:14:38.000Z</time>
      </trkpt>
      <trkpt lat="45.32798" lon="6.19888">
        <ele>1954.4000244141</ele>
        <time>2014-03-02T09:14:39.000Z</time>
      </trkpt>
      <trkpt lat="45.32798" lon="6.19886">
        <ele>1954.1999511719</ele>
        <time>2014-03-02T09:14:40.000Z</time>
      </trkpt>
      <trkpt lat="45.32798" lon="6.19886">
        <ele>1954.1999511719</ele>
        <time>2014-03-02T09:14:41.000Z</time>
      </trkpt>
      <trkpt lat="45.32797" lon="6.19885">
        <ele>1953.8000488281</ele>
        <time>2014-03-02T09:14:42.000Z</time>
      </trkpt>
      <trkpt lat="45.32796" lon="6.19883">
        <ele>1953.8000488281</ele>
        <time>2014-03-02T09:14:43.000Z</time>
      </trkpt>
      <trkpt lat="45.32796" lon="6.19882">
        <ele>1953.5999755859</ele>
        <time>2014-03-02T09:14:44.000Z</time>
      </trkpt>
      <trkpt lat="45.32795" lon="6.19881">
        <ele>1953.4000244141</ele>
        <time>2014-03-02T09:14:45.000Z</time>
      </trkpt>
      <trkpt lat="45.32794" lon="6.19879">
        <ele>1953.4000244141</ele>
        <time>2014-03-02T09:14:46.000Z</time>
      </trkpt>
      <trkpt lat="45.32793" lon="6.19878">
        <ele>1953.1999511719</ele>
        <time>2014-03-02T09:14:47.000Z</time>
      </trkpt>
      <trkpt lat="45.32793" lon="6.19876">
        <ele>1953.1999511719</ele>
        <time>2014-03-02T09:14:48.000Z</time>
      </trkpt>
      <trkpt lat="45.32793" lon="6.19875">
        <ele>1953</ele>
        <time>2014-03-02T09:14:49.000Z</time>
      </trkpt>
      <trkpt lat="45.32792" lon="6.19874">
        <ele>1953</ele>
        <time>2014-03-02T09:14:50.000Z</time>
      </trkpt>
      <trkpt lat="45.32792" lon="6.19872">
        <ele>1953</ele>
        <time>2014-03-02T09:14:51.000Z</time>
      </trkpt>
      <trkpt lat="45.32791" lon="6.19871">
        <ele>1952.8000488281</ele>
        <time>2014-03-02T09:14:52.000Z</time>
      </trkpt>
      <trkpt lat="45.32791" lon="6.19871">
        <ele>1952.8000488281</ele>
        <time>2014-03-02T09:14:53.000Z</time>
      </trkpt>
      <trkpt lat="45.32791" lon="6.19871">
        <ele>1952.8000488281</ele>
        <time>2014-03-02T09:14:54.000Z</time>
      </trkpt>
      <trkpt lat="45.32791" lon="6.19869">
        <ele>1952.8000488281</ele>
        <time>2014-03-02T09:14:55.000Z</time>
      </trkpt>
      <trkpt lat="45.32791" lon="6.19868">
        <ele>1952.8000488281</ele>
        <time>2014-03-02T09:14:56.000Z</time>
      </trkpt>
      <trkpt lat="45.32791" lon="6.19867">
        <ele>1952.8000488281</ele>
        <time>2014-03-02T09:14:57.000Z</time>
      </trkpt>
      <trkpt lat="45.32791" lon="6.19866">
        <ele>1952.5999755859</ele>
        <time>2014-03-02T09:14:58.000Z</time>
      </trkpt>
      <trkpt lat="45.3279" lon="6.19864">
        <ele>1952.5999755859</ele>
        <time>2014-03-02T09:14:59.000Z</time>
      </trkpt>
      <trkpt lat="45.3279" lon="6.19863">
        <ele>1952.5999755859</ele>
        <time>2014-03-02T09:15:00.000Z</time>
      </trkpt>
      <trkpt lat="45.3279" lon="6.19862">
        <ele>1952.5999755859</ele>
        <time>2014-03-02T09:15:01.000Z</time>
      </trkpt>
      <trkpt lat="45.3279" lon="6.1986">
        <ele>1952.5999755859</ele>
        <time>2014-03-02T09:15:02.000Z</time>
      </trkpt>
      <trkpt lat="45.32791" lon="6.1986">
        <ele>1952.5999755859</ele>
        <time>2014-03-02T09:15:03.000Z</time>
      </trkpt>
      <trkpt lat="45.32791" lon="6.19858">
        <ele>1952.5999755859</ele>
        <time>2014-03-02T09:15:04.000Z</time>
      </trkpt>
      <trkpt lat="45.3279" lon="6.19857">
        <ele>1952.5999755859</ele>
        <time>2014-03-02T09:15:05.000Z</time>
      </trkpt>
      <trkpt lat="45.3279" lon="6.19855">
        <ele>1952.4000244141</ele>
        <time>2014-03-02T09:15:06.000Z</time>
      </trkpt>
      <trkpt lat="45.3279" lon="6.19853">
        <ele>1952.4000244141</ele>
        <time>2014-03-02T09:15:07.000Z</time>
      </trkpt>
      <trkpt lat="45.3279" lon="6.19852">
        <ele>1952.4000244141</ele>
        <time>2014-03-02T09:15:08.000Z</time>
      </trkpt>
      <trkpt lat="45.3279" lon="6.19851">
        <ele>1952.4000244141</ele>
        <time>2014-03-02T09:15:09.000Z</time>
      </trkpt>
      <trkpt lat="45.3279" lon="6.19849">
        <ele>1952.4000244141</ele>
        <time>2014-03-02T09:15:10.000Z</time>
      </trkpt>
      <trkpt lat="45.32789" lon="6.19848">
        <ele>1952.1999511719</ele>
        <time>2014-03-02T09:15:11.000Z</time>
      </trkpt>
      <trkpt lat="45.32789" lon="6.19846">
        <ele>1952.1999511719</ele>
        <time>2014-03-02T09:15:12.000Z</time>
      </trkpt>
      <trkpt lat="45.32789" lon="6.19845">
        <ele>1952.1999511719</ele>
        <time>2014-03-02T09:15:13.000Z</time>
      </trkpt>
      <trkpt lat="45.32789" lon="6.19844">
        <ele>1952.1999511719</ele>
        <time>2014-03-02T09:15:14.000Z</time>
      </trkpt>
      <trkpt lat="45.32789" lon="6.19842">
        <ele>1952.1999511719</ele>
        <time>2014-03-02T09:15:15.000Z</time>
      </trkpt>
      <trkpt lat="45.32789" lon="6.19841">
        <ele>1952.1999511719</ele>
        <time>2014-03-02T09:15:16.000Z</time>
      </trkpt>
      <trkpt lat="45.32789" lon="6.19839">
        <ele>1952.1999511719</ele>
        <time>2014-03-02T09:15:17.000Z</time>
      </trkpt>
      <trkpt lat="45.32789" lon="6.19838">
        <ele>1952.1999511719</ele>
        <time>2014-03-02T09:15:18.000Z</time>
      </trkpt>
      <trkpt lat="45.32789" lon="6.19837">
        <ele>1952</ele>
        <time>2014-03-02T09:15:19.000Z</time>
      </trkpt>
      <trkpt lat="45.32789" lon="6.19836">
        <ele>1952</ele>
        <time>2014-03-02T09:15:20.000Z</time>
      </trkpt>
      <trkpt lat="45.32788" lon="6.19836">
        <ele>1952</ele>
        <time>2014-03-02T09:15:21.000Z</time>
      </trkpt>
      <trkpt lat="45.32788" lon="6.19834">
        <ele>1952</ele>
        <time>2014-03-02T09:15:22.000Z</time>
      </trkpt>
      <trkpt lat="45.32788" lon="6.19833">
        <ele>1951.8000488281</ele>
        <time>2014-03-02T09:15:23.000Z</time>
      </trkpt>
      <trkpt lat="45.32787" lon="6.19832">
        <ele>1951.8000488281</ele>
        <time>2014-03-02T09:15:24.000Z</time>
      </trkpt>
      <trkpt lat="45.32787" lon="6.19832">
        <ele>1951.8000488281</ele>
        <time>2014-03-02T09:15:25.000Z</time>
      </trkpt>
      <trkpt lat="45.32787" lon="6.19831">
        <ele>1951.8000488281</ele>
        <time>2014-03-02T09:15:26.000Z</time>
      </trkpt>
      <trkpt lat="45.32787" lon="6.19831">
        <ele>1951.5999755859</ele>
        <time>2014-03-02T09:15:27.000Z</time>
      </trkpt>
      <trkpt lat="45.32786" lon="6.1983">
        <ele>1951.5999755859</ele>
        <time>2014-03-02T09:15:28.000Z</time>
      </trkpt>
      <trkpt lat="45.32787" lon="6.19829">
        <ele>1951.5999755859</ele>
        <time>2014-03-02T09:15:29.000Z</time>
      </trkpt>
      <trkpt lat="45.32787" lon="6.19829">
        <ele>1951.5999755859</ele>
        <time>2014-03-02T09:15:30.000Z</time>
      </trkpt>
      <trkpt lat="45.32786" lon="6.19828">
        <ele>1951.5999755859</ele>
        <time>2014-03-02T09:15:31.000Z</time>
      </trkpt>
      <trkpt lat="45.32786" lon="6.19827">
        <ele>1951.5999755859</ele>
        <time>2014-03-02T09:15:32.000Z</time>
      </trkpt>
      <trkpt lat="45.32786" lon="6.19826">
        <ele>1951.5999755859</ele>
        <time>2014-03-02T09:15:33.000Z</time>
      </trkpt>
      <trkpt lat="45.32785" lon="6.19825">
        <ele>1951.4000244141</ele>
        <time>2014-03-02T09:15:34.000Z</time>
      </trkpt>
      <trkpt lat="45.32786" lon="6.19824">
        <ele>1951.4000244141</ele>
        <time>2014-03-02T09:15:35.000Z</time>
      </trkpt>
      <trkpt lat="45.32785" lon="6.19823">
        <ele>1951.4000244141</ele>
        <time>2014-03-02T09:15:36.000Z</time>
      </trkpt>
      <trkpt lat="45.32785" lon="6.19823">
        <ele>1951.4000244141</ele>
        <time>2014-03-02T09:15:37.000Z</time>
      </trkpt>
      <trkpt lat="45.32785" lon="6.19821">
        <ele>1951.4000244141</ele>
        <time>2014-03-02T09:15:38.000Z</time>
      </trkpt>
      <trkpt lat="45.32785" lon="6.1982">
        <ele>1951.4000244141</ele>
        <time>2014-03-02T09:15:39.000Z</time>
      </trkpt>
      <trkpt lat="45.32784" lon="6.19819">
        <ele>1951.1999511719</ele>
        <time>2014-03-02T09:15:40.000Z</time>
      </trkpt>
      <trkpt lat="45.32784" lon="6.19818">
        <ele>1951.1999511719</ele>
        <time>2014-03-02T09:15:41.000Z</time>
      </trkpt>
      <trkpt lat="45.32784" lon="6.19817">
        <ele>1951.1999511719</ele>
        <time>2014-03-02T09:15:42.000Z</time>
      </trkpt>
      <trkpt lat="45.32784" lon="6.19816">
        <ele>1951.1999511719</ele>
        <time>2014-03-02T09:15:43.000Z</time>
      </trkpt>
      <trkpt lat="45.32784" lon="6.19814">
        <ele>1951.1999511719</ele>
        <time>2014-03-02T09:15:44.000Z</time>
      </trkpt>
      <trkpt lat="45.32784" lon="6.19814">
        <ele>1951</ele>
        <time>2014-03-02T09:15:45.000Z</time>
      </trkpt>
      <trkpt lat="45.32784" lon="6.19813">
        <ele>1951</ele>
        <time>2014-03-02T09:15:46.000Z</time>
      </trkpt>
      <trkpt lat="45.32784" lon="6.19811">
        <ele>1951.1999511719</ele>
        <time>2014-03-02T09:15:47.000Z</time>
      </trkpt>
      <trkpt lat="45.32784" lon="6.1981">
        <ele>1951.4000244141</ele>
        <time>2014-03-02T09:15:48.000Z</time>
      </trkpt>
      <trkpt lat="45.32784" lon="6.19808">
        <ele>1951.5999755859</ele>
        <time>2014-03-02T09:15:49.000Z</time>
      </trkpt>
      <trkpt lat="45.32784" lon="6.19807">
        <ele>1951.8000488281</ele>
        <time>2014-03-02T09:15:50.000Z</time>
      </trkpt>
      <trkpt lat="45.32783" lon="6.19805">
        <ele>1952</ele>
        <time>2014-03-02T09:15:51.000Z</time>
      </trkpt>
      <trkpt lat="45.32782" lon="6.19805">
        <ele>1952</ele>
        <time>2014-03-02T09:15:52.000Z</time>
      </trkpt>
      <trkpt lat="45.32783" lon="6.19804">
        <ele>1952.1999511719</ele>
        <time>2014-03-02T09:15:53.000Z</time>
      </trkpt>
      <trkpt lat="45.32784" lon="6.19801">
        <ele>1952.5999755859</ele>
        <time>2014-03-02T09:15:54.000Z</time>
      </trkpt>
      <trkpt lat="45.32784" lon="6.19799">
        <ele>1953</ele>
        <time>2014-03-02T09:15:55.000Z</time>
      </trkpt>
      <trkpt lat="45.32784" lon="6.19798">
        <ele>1953.1999511719</ele>
        <time>2014-03-02T09:15:56.000Z</time>
      </trkpt>
      <trkpt lat="45.32785" lon="6.19797">
        <ele>1953.4000244141</ele>
        <time>2014-03-02T09:15:57.000Z</time>
      </trkpt>
      <trkpt lat="45.32784" lon="6.19796">
        <ele>1953.4000244141</ele>
        <time>2014-03-02T09:15:58.000Z</time>
      </trkpt>
      <trkpt lat="45.32785" lon="6.19795">
        <ele>1953.5999755859</ele>
        <time>2014-03-02T09:15:59.000Z</time>
      </trkpt>
      <trkpt lat="45.32786" lon="6.19794">
        <ele>1953.5999755859</ele>
        <time>2014-03-02T09:16:00.000Z</time>
      </trkpt>
      <trkpt lat="45.32786" lon="6.19793">
        <ele>1953.8000488281</ele>
        <time>2014-03-02T09:16:01.000Z</time>
      </trkpt>
      <trkpt lat="45.32787" lon="6.19793">
        <ele>1954</ele>
        <time>2014-03-02T09:16:02.000Z</time>
      </trkpt>
      <trkpt lat="45.32788" lon="6.19792">
        <ele>1954.1999511719</ele>
        <time>2014-03-02T09:16:03.000Z</time>
      </trkpt>
      <trkpt lat="45.32788" lon="6.19791">
        <ele>1954.1999511719</ele>
        <time>2014-03-02T09:16:04.000Z</time>
      </trkpt>
      <trkpt lat="45.32789" lon="6.1979">
        <ele>1954.4000244141</ele>
        <time>2014-03-02T09:16:05.000Z</time>
      </trkpt>
      <trkpt lat="45.32789" lon="6.19789">
        <ele>1954.4000244141</ele>
        <time>2014-03-02T09:16:06.000Z</time>
      </trkpt>
      <trkpt lat="45.32789" lon="6.19789">
        <ele>1954.5999755859</ele>
        <time>2014-03-02T09:16:07.000Z</time>
      </trkpt>
      <trkpt lat="45.3279" lon="6.19787">
        <ele>1954.5999755859</ele>
        <time>2014-03-02T09:16:08.000Z</time>
      </trkpt>
      <trkpt lat="45.32791" lon="6.19786">
        <ele>1954.8000488281</ele>
        <time>2014-03-02T09:16:09.000Z</time>
      </trkpt>
      <trkpt lat="45.32791" lon="6.19785">
        <ele>1955</ele>
        <time>2014-03-02T09:16:10.000Z</time>
      </trkpt>
      <trkpt lat="45.32792" lon="6.19783">
        <ele>1955.1999511719</ele>
        <time>2014-03-02T09:16:11.000Z</time>
      </trkpt>
      <trkpt lat="45.32794" lon="6.19781">
        <ele>1955.5999755859</ele>
        <time>2014-03-02T09:16:13.000Z</time>
      </trkpt>
      <trkpt lat="45.32795" lon="6.1978">
        <ele>1955.8000488281</ele>
        <time>2014-03-02T09:16:14.000Z</time>
      </trkpt>
      <trkpt lat="45.32796" lon="6.19778">
        <ele>1956.1999511719</ele>
        <time>2014-03-02T09:16:15.000Z</time>
      </trkpt>
      <trkpt lat="45.32797" lon="6.19777">
        <ele>1956.4000244141</ele>
        <time>2014-03-02T09:16:16.000Z</time>
      </trkpt>
      <trkpt lat="45.32798" lon="6.19775">
        <ele>1956.8000488281</ele>
        <time>2014-03-02T09:16:17.000Z</time>
      </trkpt>
      <trkpt lat="45.32799" lon="6.19774">
        <ele>1957.4000244141</ele>
        <time>2014-03-02T09:16:18.000Z</time>
      </trkpt>
      <trkpt lat="45.328" lon="6.19772">
        <ele>1957.8000488281</ele>
        <time>2014-03-02T09:16:19.000Z</time>
      </trkpt>
      <trkpt lat="45.32801" lon="6.1977">
        <ele>1958.1999511719</ele>
        <time>2014-03-02T09:16:20.000Z</time>
      </trkpt>
      <trkpt lat="45.32802" lon="6.19769">
        <ele>1958.5999755859</ele>
        <time>2014-03-02T09:16:21.000Z</time>
      </trkpt>
      <trkpt lat="45.32802" lon="6.19768">
        <ele>1959</ele>
        <time>2014-03-02T09:16:22.000Z</time>
      </trkpt>
      <trkpt lat="45.32802" lon="6.19767">
        <ele>1959</ele>
        <time>2014-03-02T09:16:23.000Z</time>
      </trkpt>
      <trkpt lat="45.32802" lon="6.19766">
        <ele>1959.1999511719</ele>
        <time>2014-03-02T09:16:24.000Z</time>
      </trkpt>
      <trkpt lat="45.32802" lon="6.19765">
        <ele>1959.1999511719</ele>
        <time>2014-03-02T09:16:25.000Z</time>
      </trkpt>
      <trkpt lat="45.32802" lon="6.19764">
        <ele>1959.1999511719</ele>
        <time>2014-03-02T09:16:26.000Z</time>
      </trkpt>
      <trkpt lat="45.32802" lon="6.19764">
        <ele>1959.4000244141</ele>
        <time>2014-03-02T09:16:27.000Z</time>
      </trkpt>
      <trkpt lat="45.32803" lon="6.19763">
        <ele>1959.5999755859</ele>
        <time>2014-03-02T09:16:28.000Z</time>
      </trkpt>
      <trkpt lat="45.32803" lon="6.19762">
        <ele>1959.5999755859</ele>
        <time>2014-03-02T09:16:29.000Z</time>
      </trkpt>
      <trkpt lat="45.32803" lon="6.19761">
        <ele>1959.8000488281</ele>
        <time>2014-03-02T09:16:30.000Z</time>
      </trkpt>
      <trkpt lat="45.32802" lon="6.1976">
        <ele>1959.8000488281</ele>
        <time>2014-03-02T09:16:31.000Z</time>
      </trkpt>
      <trkpt lat="45.32802" lon="6.19759">
        <ele>1959.8000488281</ele>
        <time>2014-03-02T09:16:32.000Z</time>
      </trkpt>
      <trkpt lat="45.32803" lon="6.19758">
        <ele>1960</ele>
        <time>2014-03-02T09:16:33.000Z</time>
      </trkpt>
      <trkpt lat="45.32803" lon="6.19758">
        <ele>1960.1999511719</ele>
        <time>2014-03-02T09:16:34.000Z</time>
      </trkpt>
      <trkpt lat="45.32803" lon="6.19756">
        <ele>1960.4000244141</ele>
        <time>2014-03-02T09:16:35.000Z</time>
      </trkpt>
      <trkpt lat="45.32803" lon="6.19755">
        <ele>1960.4000244141</ele>
        <time>2014-03-02T09:16:36.000Z</time>
      </trkpt>
      <trkpt lat="45.32803" lon="6.19753">
        <ele>1960.5999755859</ele>
        <time>2014-03-02T09:16:37.000Z</time>
      </trkpt>
      <trkpt lat="45.32803" lon="6.19753">
        <ele>1960.8000488281</ele>
        <time>2014-03-02T09:16:38.000Z</time>
      </trkpt>
      <trkpt lat="45.32803" lon="6.19752">
        <ele>1960.8000488281</ele>
        <time>2014-03-02T09:16:39.000Z</time>
      </trkpt>
      <trkpt lat="45.32803" lon="6.19751">
        <ele>1960.8000488281</ele>
        <time>2014-03-02T09:16:40.000Z</time>
      </trkpt>
      <trkpt lat="45.32802" lon="6.1975">
        <ele>1960.5999755859</ele>
        <time>2014-03-02T09:16:41.000Z</time>
      </trkpt>
      <trkpt lat="45.32802" lon="6.1975">
        <ele>1960.5999755859</ele>
        <time>2014-03-02T09:16:42.000Z</time>
      </trkpt>
      <trkpt lat="45.32802" lon="6.19747">
        <ele>1960.8000488281</ele>
        <time>2014-03-02T09:16:43.000Z</time>
      </trkpt>
      <trkpt lat="45.32802" lon="6.19746">
        <ele>1960.8000488281</ele>
        <time>2014-03-02T09:16:44.000Z</time>
      </trkpt>
      <trkpt lat="45.32801" lon="6.19744">
        <ele>1961</ele>
        <time>2014-03-02T09:16:45.000Z</time>
      </trkpt>
      <trkpt lat="45.32801" lon="6.19742">
        <ele>1961</ele>
        <time>2014-03-02T09:16:46.000Z</time>
      </trkpt>
      <trkpt lat="45.32801" lon="6.19741">
        <ele>1961</ele>
        <time>2014-03-02T09:16:47.000Z</time>
      </trkpt>
      <trkpt lat="45.32801" lon="6.19739">
        <ele>1961.1999511719</ele>
        <time>2014-03-02T09:16:48.000Z</time>
      </trkpt>
      <trkpt lat="45.328" lon="6.19738">
        <ele>1961.1999511719</ele>
        <time>2014-03-02T09:16:49.000Z</time>
      </trkpt>
      <trkpt lat="45.328" lon="6.19737">
        <ele>1961.1999511719</ele>
        <time>2014-03-02T09:16:50.000Z</time>
      </trkpt>
      <trkpt lat="45.328" lon="6.19735">
        <ele>1961.4000244141</ele>
        <time>2014-03-02T09:16:51.000Z</time>
      </trkpt>
      <trkpt lat="45.328" lon="6.19734">
        <ele>1961.4000244141</ele>
        <time>2014-03-02T09:16:52.000Z</time>
      </trkpt>
      <trkpt lat="45.32799" lon="6.19733">
        <ele>1961.4000244141</ele>
        <time>2014-03-02T09:16:53.000Z</time>
      </trkpt>
      <trkpt lat="45.32799" lon="6.19731">
        <ele>1961.4000244141</ele>
        <time>2014-03-02T09:16:54.000Z</time>
      </trkpt>
      <trkpt lat="45.32799" lon="6.1973">
        <ele>1961.4000244141</ele>
        <time>2014-03-02T09:16:55.000Z</time>
      </trkpt>
      <trkpt lat="45.32798" lon="6.19729">
        <ele>1961.4000244141</ele>
        <time>2014-03-02T09:16:56.000Z</time>
      </trkpt>
      <trkpt lat="45.32798" lon="6.19727">
        <ele>1961.4000244141</ele>
        <time>2014-03-02T09:16:57.000Z</time>
      </trkpt>
      <trkpt lat="45.32798" lon="6.19726">
        <ele>1961.5999755859</ele>
        <time>2014-03-02T09:16:58.000Z</time>
      </trkpt>
      <trkpt lat="45.32798" lon="6.19725">
        <ele>1961.8000488281</ele>
        <time>2014-03-02T09:16:59.000Z</time>
      </trkpt>
      <trkpt lat="45.32797" lon="6.19723">
        <ele>1962</ele>
        <time>2014-03-02T09:17:00.000Z</time>
      </trkpt>
      <trkpt lat="45.32797" lon="6.19722">
        <ele>1962.1999511719</ele>
        <time>2014-03-02T09:17:01.000Z</time>
      </trkpt>
      <trkpt lat="45.32797" lon="6.19719">
        <ele>1962.5999755859</ele>
        <time>2014-03-02T09:17:02.000Z</time>
      </trkpt>
      <trkpt lat="45.32797" lon="6.19718">
        <ele>1962.8000488281</ele>
        <time>2014-03-02T09:17:03.000Z</time>
      </trkpt>
      <trkpt lat="45.32797" lon="6.19716">
        <ele>1963.1999511719</ele>
        <time>2014-03-02T09:17:04.000Z</time>
      </trkpt>
      <trkpt lat="45.32797" lon="6.19714">
        <ele>1963.4000244141</ele>
        <time>2014-03-02T09:17:05.000Z</time>
      </trkpt>
      <trkpt lat="45.32797" lon="6.19713">
        <ele>1963.5999755859</ele>
        <time>2014-03-02T09:17:06.000Z</time>
      </trkpt>
      <trkpt lat="45.32796" lon="6.19712">
        <ele>1963.8000488281</ele>
        <time>2014-03-02T09:17:07.000Z</time>
      </trkpt>
      <trkpt lat="45.32796" lon="6.19711">
        <ele>1964</ele>
        <time>2014-03-02T09:17:08.000Z</time>
      </trkpt>
      <trkpt lat="45.32796" lon="6.1971">
        <ele>1964.1999511719</ele>
        <time>2014-03-02T09:17:09.000Z</time>
      </trkpt>
      <trkpt lat="45.32796" lon="6.19709">
        <ele>1964.4000244141</ele>
        <time>2014-03-02T09:17:10.000Z</time>
      </trkpt>
      <trkpt lat="45.32796" lon="6.19708">
        <ele>1964.5999755859</ele>
        <time>2014-03-02T09:17:11.000Z</time>
      </trkpt>
      <trkpt lat="45.32796" lon="6.19707">
        <ele>1964.5999755859</ele>
        <time>2014-03-02T09:17:12.000Z</time>
      </trkpt>
      <trkpt lat="45.32796" lon="6.19707">
        <ele>1964.8000488281</ele>
        <time>2014-03-02T09:17:13.000Z</time>
      </trkpt>
      <trkpt lat="45.32796" lon="6.19707">
        <ele>1964.8000488281</ele>
        <time>2014-03-02T09:17:14.000Z</time>
      </trkpt>
      <trkpt lat="45.32796" lon="6.19707">
        <ele>1964.8000488281</ele>
        <time>2014-03-02T09:17:15.000Z</time>
      </trkpt>
      <trkpt lat="45.32796" lon="6.19707">
        <ele>1964.8000488281</ele>
        <time>2014-03-02T09:17:16.000Z</time>
      </trkpt>
      <trkpt lat="45.32796" lon="6.19707">
        <ele>1964.8000488281</ele>
        <time>2014-03-02T09:17:17.000Z</time>
      </trkpt>
      <trkpt lat="45.32796" lon="6.19707">
        <ele>1964.8000488281</ele>
        <time>2014-03-02T09:17:18.000Z</time>
      </trkpt>
      <trkpt lat="45.32796" lon="6.19707">
        <ele>1964.8000488281</ele>
        <time>2014-03-02T09:17:19.000Z</time>
      </trkpt>
      <trkpt lat="45.32796" lon="6.19707">
        <ele>1964.8000488281</ele>
        <time>2014-03-02T09:17:20.000Z</time>
      </trkpt>
      <trkpt lat="45.32796" lon="6.19707">
        <ele>1964.8000488281</ele>
        <time>2014-03-02T09:17:21.000Z</time>
      </trkpt>
      <trkpt lat="45.32796" lon="6.19707">
        <ele>1964.8000488281</ele>
        <time>2014-03-02T09:17:23.000Z</time>
      </trkpt>
      <trkpt lat="45.32796" lon="6.19707">
        <ele>1964.8000488281</ele>
        <time>2014-03-02T09:17:24.000Z</time>
      </trkpt>
      <trkpt lat="45.32796" lon="6.19707">
        <ele>1964.8000488281</ele>
        <time>2014-03-02T09:17:25.000Z</time>
      </trkpt>
      <trkpt lat="45.32796" lon="6.19706">
        <ele>1965</ele>
        <time>2014-03-02T09:17:26.000Z</time>
      </trkpt>
      <trkpt lat="45.32796" lon="6.19706">
        <ele>1965</ele>
        <time>2014-03-02T09:17:27.000Z</time>
      </trkpt>
      <trkpt lat="45.32796" lon="6.19706">
        <ele>1965</ele>
        <time>2014-03-02T09:17:28.000Z</time>
      </trkpt>
      <trkpt lat="45.32796" lon="6.19706">
        <ele>1965</ele>
        <time>2014-03-02T09:17:29.000Z</time>
      </trkpt>
      <trkpt lat="45.32796" lon="6.19706">
        <ele>1965</ele>
        <time>2014-03-02T09:17:30.000Z</time>
      </trkpt>
      <trkpt lat="45.32796" lon="6.19706">
        <ele>1965</ele>
        <time>2014-03-02T09:17:31.000Z</time>
      </trkpt>
      <trkpt lat="45.32796" lon="6.19705">
        <ele>1965.1999511719</ele>
        <time>2014-03-02T09:17:32.000Z</time>
      </trkpt>
      <trkpt lat="45.32796" lon="6.19704">
        <ele>1965.1999511719</ele>
        <time>2014-03-02T09:17:34.000Z</time>
      </trkpt>
      <trkpt lat="45.32796" lon="6.19704">
        <ele>1965.1999511719</ele>
        <time>2014-03-02T09:17:35.000Z</time>
      </trkpt>
      <trkpt lat="45.32795" lon="6.19704">
        <ele>1965.1999511719</ele>
        <time>2014-03-02T09:17:36.000Z</time>
      </trkpt>
      <trkpt lat="45.32795" lon="6.19703">
        <ele>1965.4000244141</ele>
        <time>2014-03-02T09:17:37.000Z</time>
      </trkpt>
      <trkpt lat="45.32795" lon="6.19701">
        <ele>1965.5999755859</ele>
        <time>2014-03-02T09:17:38.000Z</time>
      </trkpt>
      <trkpt lat="45.32795" lon="6.19699">
        <ele>1966</ele>
        <time>2014-03-02T09:17:39.000Z</time>
      </trkpt>
      <trkpt lat="45.32795" lon="6.19698">
        <ele>1966.1999511719</ele>
        <time>2014-03-02T09:17:40.000Z</time>
      </trkpt>
      <trkpt lat="45.32795" lon="6.19697">
        <ele>1966.4000244141</ele>
        <time>2014-03-02T09:17:41.000Z</time>
      </trkpt>
      <trkpt lat="45.32795" lon="6.19696">
        <ele>1966.5999755859</ele>
        <time>2014-03-02T09:17:42.000Z</time>
      </trkpt>
      <trkpt lat="45.32795" lon="6.19694">
        <ele>1966.8000488281</ele>
        <time>2014-03-02T09:17:43.000Z</time>
      </trkpt>
      <trkpt lat="45.32795" lon="6.19692">
        <ele>1967.1999511719</ele>
        <time>2014-03-02T09:17:44.000Z</time>
      </trkpt>
      <trkpt lat="45.32795" lon="6.19691">
        <ele>1967.4000244141</ele>
        <time>2014-03-02T09:17:45.000Z</time>
      </trkpt>
      <trkpt lat="45.32795" lon="6.19689">
        <ele>1967.8000488281</ele>
        <time>2014-03-02T09:17:46.000Z</time>
      </trkpt>
      <trkpt lat="45.32795" lon="6.19688">
        <ele>1968</ele>
        <time>2014-03-02T09:17:47.000Z</time>
      </trkpt>
      <trkpt lat="45.32795" lon="6.19687">
        <ele>1968.1999511719</ele>
        <time>2014-03-02T09:17:48.000Z</time>
      </trkpt>
      <trkpt lat="45.32795" lon="6.19685">
        <ele>1968.5999755859</ele>
        <time>2014-03-02T09:17:49.000Z</time>
      </trkpt>
      <trkpt lat="45.32794" lon="6.19684">
        <ele>1968.5999755859</ele>
        <time>2014-03-02T09:17:50.000Z</time>
      </trkpt>
      <trkpt lat="45.32794" lon="6.19683">
        <ele>1968.5999755859</ele>
        <time>2014-03-02T09:17:51.000Z</time>
      </trkpt>
      <trkpt lat="45.32793" lon="6.19683">
        <ele>1968.8000488281</ele>
        <time>2014-03-02T09:17:52.000Z</time>
      </trkpt>
      <trkpt lat="45.32793" lon="6.19682">
        <ele>1968.8000488281</ele>
        <time>2014-03-02T09:17:53.000Z</time>
      </trkpt>
      <trkpt lat="45.32792" lon="6.19681">
        <ele>1968.8000488281</ele>
        <time>2014-03-02T09:17:54.000Z</time>
      </trkpt>
      <trkpt lat="45.32791" lon="6.1968">
        <ele>1968.8000488281</ele>
        <time>2014-03-02T09:17:55.000Z</time>
      </trkpt>
      <trkpt lat="45.3279" lon="6.19679">
        <ele>1969</ele>
        <time>2014-03-02T09:17:56.000Z</time>
      </trkpt>
      <trkpt lat="45.3279" lon="6.19677">
        <ele>1969.4000244141</ele>
        <time>2014-03-02T09:17:57.000Z</time>
      </trkpt>
      <trkpt lat="45.3279" lon="6.19676">
        <ele>1969.5999755859</ele>
        <time>2014-03-02T09:17:58.000Z</time>
      </trkpt>
      <trkpt lat="45.3279" lon="6.19674">
        <ele>1969.8000488281</ele>
        <time>2014-03-02T09:17:59.000Z</time>
      </trkpt>
      <trkpt lat="45.3279" lon="6.19673">
        <ele>1970</ele>
        <time>2014-03-02T09:18:00.000Z</time>
      </trkpt>
      <trkpt lat="45.32791" lon="6.19672">
        <ele>1970.4000244141</ele>
        <time>2014-03-02T09:18:01.000Z</time>
      </trkpt>
      <trkpt lat="45.3279" lon="6.19671">
        <ele>1970.4000244141</ele>
        <time>2014-03-02T09:18:02.000Z</time>
      </trkpt>
      <trkpt lat="45.32791" lon="6.19671">
        <ele>1970.5999755859</ele>
        <time>2014-03-02T09:18:03.000Z</time>
      </trkpt>
      <trkpt lat="45.32791" lon="6.1967">
        <ele>1970.5999755859</ele>
        <time>2014-03-02T09:18:04.000Z</time>
      </trkpt>
      <trkpt lat="45.32791" lon="6.1967">
        <ele>1970.8000488281</ele>
        <time>2014-03-02T09:18:05.000Z</time>
      </trkpt>
      <trkpt lat="45.32791" lon="6.19668">
        <ele>1971</ele>
        <time>2014-03-02T09:18:06.000Z</time>
      </trkpt>
      <trkpt lat="45.32791" lon="6.19667">
        <ele>1971.1999511719</ele>
        <time>2014-03-02T09:18:07.000Z</time>
      </trkpt>
      <trkpt lat="45.32791" lon="6.19666">
        <ele>1971.4000244141</ele>
        <time>2014-03-02T09:18:08.000Z</time>
      </trkpt>
      <trkpt lat="45.3279" lon="6.19665">
        <ele>1971.4000244141</ele>
        <time>2014-03-02T09:18:09.000Z</time>
      </trkpt>
      <trkpt lat="45.32791" lon="6.19664">
        <ele>1971.5999755859</ele>
        <time>2014-03-02T09:18:10.000Z</time>
      </trkpt>
      <trkpt lat="45.32791" lon="6.19663">
        <ele>1971.8000488281</ele>
        <time>2014-03-02T09:18:11.000Z</time>
      </trkpt>
      <trkpt lat="45.32791" lon="6.19663">
        <ele>1971.8000488281</ele>
        <time>2014-03-02T09:18:12.000Z</time>
      </trkpt>
      <trkpt lat="45.32791" lon="6.19662">
        <ele>1972.1999511719</ele>
        <time>2014-03-02T09:18:13.000Z</time>
      </trkpt>
      <trkpt lat="45.32791" lon="6.19661">
        <ele>1972.1999511719</ele>
        <time>2014-03-02T09:18:14.000Z</time>
      </trkpt>
      <trkpt lat="45.32791" lon="6.19661">
        <ele>1972.1999511719</ele>
        <time>2014-03-02T09:18:15.000Z</time>
      </trkpt>
      <trkpt lat="45.32791" lon="6.19661">
        <ele>1972.4000244141</ele>
        <time>2014-03-02T09:18:16.000Z</time>
      </trkpt>
      <trkpt lat="45.32791" lon="6.19661">
        <ele>1972.4000244141</ele>
        <time>2014-03-02T09:18:17.000Z</time>
      </trkpt>
      <trkpt lat="45.32791" lon="6.1966">
        <ele>1972.4000244141</ele>
        <time>2014-03-02T09:18:18.000Z</time>
      </trkpt>
      <trkpt lat="45.32791" lon="6.1966">
        <ele>1972.4000244141</ele>
        <time>2014-03-02T09:18:19.000Z</time>
      </trkpt>
      <trkpt lat="45.3279" lon="6.19659">
        <ele>1972.5999755859</ele>
        <time>2014-03-02T09:18:20.000Z</time>
      </trkpt>
      <trkpt lat="45.3279" lon="6.19659">
        <ele>1972.5999755859</ele>
        <time>2014-03-02T09:18:21.000Z</time>
      </trkpt>
      <trkpt lat="45.3279" lon="6.19657">
        <ele>1972.8000488281</ele>
        <time>2014-03-02T09:18:22.000Z</time>
      </trkpt>
      <trkpt lat="45.3279" lon="6.19656">
        <ele>1973</ele>
        <time>2014-03-02T09:18:23.000Z</time>
      </trkpt>
      <trkpt lat="45.3279" lon="6.19655">
        <ele>1973.1999511719</ele>
        <time>2014-03-02T09:18:24.000Z</time>
      </trkpt>
      <trkpt lat="45.3279" lon="6.19654">
        <ele>1973.4000244141</ele>
        <time>2014-03-02T09:18:25.000Z</time>
      </trkpt>
      <trkpt lat="45.3279" lon="6.19652">
        <ele>1973.8000488281</ele>
        <time>2014-03-02T09:18:26.000Z</time>
      </trkpt>
      <trkpt lat="45.32789" lon="6.19651">
        <ele>1974</ele>
        <time>2014-03-02T09:18:27.000Z</time>
      </trkpt>
      <trkpt lat="45.32789" lon="6.1965">
        <ele>1974</ele>
        <time>2014-03-02T09:18:28.000Z</time>
      </trkpt>
      <trkpt lat="45.32789" lon="6.19649">
        <ele>1974.1999511719</ele>
        <time>2014-03-02T09:18:29.000Z</time>
      </trkpt>
      <trkpt lat="45.32789" lon="6.19649">
        <ele>1974.1999511719</ele>
        <time>2014-03-02T09:18:30.000Z</time>
      </trkpt>
      <trkpt lat="45.32789" lon="6.19648">
        <ele>1974.1999511719</ele>
        <time>2014-03-02T09:18:31.000Z</time>
      </trkpt>
      <trkpt lat="45.32789" lon="6.19648">
        <ele>1974.4000244141</ele>
        <time>2014-03-02T09:18:32.000Z</time>
      </trkpt>
      <trkpt lat="45.32789" lon="6.19647">
        <ele>1974.5999755859</ele>
        <time>2014-03-02T09:18:33.000Z</time>
      </trkpt>
      <trkpt lat="45.32789" lon="6.19647">
        <ele>1974.5999755859</ele>
        <time>2014-03-02T09:18:34.000Z</time>
      </trkpt>
      <trkpt lat="45.32788" lon="6.19646">
        <ele>1974.8000488281</ele>
        <time>2014-03-02T09:18:35.000Z</time>
      </trkpt>
      <trkpt lat="45.32788" lon="6.19644">
        <ele>1975</ele>
        <time>2014-03-02T09:18:36.000Z</time>
      </trkpt>
      <trkpt lat="45.32788" lon="6.19642">
        <ele>1975.5999755859</ele>
        <time>2014-03-02T09:18:37.000Z</time>
      </trkpt>
      <trkpt lat="45.32787" lon="6.19641">
        <ele>1975.5999755859</ele>
        <time>2014-03-02T09:18:38.000Z</time>
      </trkpt>
      <trkpt lat="45.32787" lon="6.1964">
        <ele>1976</ele>
        <time>2014-03-02T09:18:39.000Z</time>
      </trkpt>
      <trkpt lat="45.32787" lon="6.19639">
        <ele>1976.1999511719</ele>
        <time>2014-03-02T09:18:40.000Z</time>
      </trkpt>
      <trkpt lat="45.32787" lon="6.19639">
        <ele>1976.1999511719</ele>
        <time>2014-03-02T09:18:41.000Z</time>
      </trkpt>
      <trkpt lat="45.32787" lon="6.19638">
        <ele>1976.4000244141</ele>
        <time>2014-03-02T09:18:42.000Z</time>
      </trkpt>
      <trkpt lat="45.32787" lon="6.19638">
        <ele>1976.4000244141</ele>
        <time>2014-03-02T09:18:43.000Z</time>
      </trkpt>
      <trkpt lat="45.32787" lon="6.19636">
        <ele>1976.8000488281</ele>
        <time>2014-03-02T09:18:44.000Z</time>
      </trkpt>
      <trkpt lat="45.32787" lon="6.19636">
        <ele>1976.8000488281</ele>
        <time>2014-03-02T09:18:45.000Z</time>
      </trkpt>
      <trkpt lat="45.32788" lon="6.19635">
        <ele>1977.1999511719</ele>
        <time>2014-03-02T09:18:46.000Z</time>
      </trkpt>
      <trkpt lat="45.32788" lon="6.19635">
        <ele>1977.1999511719</ele>
        <time>2014-03-02T09:18:47.000Z</time>
      </trkpt>
      <trkpt lat="45.32788" lon="6.19635">
        <ele>1977.4000244141</ele>
        <time>2014-03-02T09:18:48.000Z</time>
      </trkpt>
      <trkpt lat="45.32789" lon="6.19634">
        <ele>1977.5999755859</ele>
        <time>2014-03-02T09:18:49.000Z</time>
      </trkpt>
      <trkpt lat="45.32789" lon="6.19634">
        <ele>1977.5999755859</ele>
        <time>2014-03-02T09:18:50.000Z</time>
      </trkpt>
      <trkpt lat="45.32789" lon="6.19634">
        <ele>1977.5999755859</ele>
        <time>2014-03-02T09:18:51.000Z</time>
      </trkpt>
      <trkpt lat="45.32789" lon="6.19634">
        <ele>1977.5999755859</ele>
        <time>2014-03-02T09:18:52.000Z</time>
      </trkpt>
      <trkpt lat="45.32789" lon="6.19634">
        <ele>1977.5999755859</ele>
        <time>2014-03-02T09:18:53.000Z</time>
      </trkpt>
      <trkpt lat="45.32789" lon="6.19634">
        <ele>1977.5999755859</ele>
        <time>2014-03-02T09:18:54.000Z</time>
      </trkpt>
      <trkpt lat="45.32789" lon="6.19634">
        <ele>1977.5999755859</ele>
        <time>2014-03-02T09:18:55.000Z</time>
      </trkpt>
      <trkpt lat="45.32789" lon="6.19634">
        <ele>1977.5999755859</ele>
        <time>2014-03-02T09:18:56.000Z</time>
      </trkpt>
      <trkpt lat="45.32789" lon="6.19634">
        <ele>1977.5999755859</ele>
        <time>2014-03-02T09:18:57.000Z</time>
      </trkpt>
      <trkpt lat="45.32789" lon="6.19634">
        <ele>1977.5999755859</ele>
        <time>2014-03-02T09:18:58.000Z</time>
      </trkpt>
      <trkpt lat="45.32789" lon="6.19633">
        <ele>1978</ele>
        <time>2014-03-02T09:18:59.000Z</time>
      </trkpt>
      <trkpt lat="45.3279" lon="6.19633">
        <ele>1978.1999511719</ele>
        <time>2014-03-02T09:19:00.000Z</time>
      </trkpt>
      <trkpt lat="45.3279" lon="6.19632">
        <ele>1978.4000244141</ele>
        <time>2014-03-02T09:19:01.000Z</time>
      </trkpt>
      <trkpt lat="45.32791" lon="6.19631">
        <ele>1978.5999755859</ele>
        <time>2014-03-02T09:19:02.000Z</time>
      </trkpt>
      <trkpt lat="45.32792" lon="6.1963">
        <ele>1979</ele>
        <time>2014-03-02T09:19:03.000Z</time>
      </trkpt>
      <trkpt lat="45.32792" lon="6.1963">
        <ele>1979.1999511719</ele>
        <time>2014-03-02T09:19:04.000Z</time>
      </trkpt>
      <trkpt lat="45.32793" lon="6.19629">
        <ele>1979.4000244141</ele>
        <time>2014-03-02T09:19:05.000Z</time>
      </trkpt>
      <trkpt lat="45.32794" lon="6.19628">
        <ele>1979.8000488281</ele>
        <time>2014-03-02T09:19:06.000Z</time>
      </trkpt>
      <trkpt lat="45.32795" lon="6.19628">
        <ele>1980</ele>
        <time>2014-03-02T09:19:07.000Z</time>
      </trkpt>
      <trkpt lat="45.32796" lon="6.19627">
        <ele>1980.1999511719</ele>
        <time>2014-03-02T09:19:08.000Z</time>
      </trkpt>
      <trkpt lat="45.32797" lon="6.19627">
        <ele>1980.4000244141</ele>
        <time>2014-03-02T09:19:09.000Z</time>
      </trkpt>
      <trkpt lat="45.32797" lon="6.19627">
        <ele>1980.5999755859</ele>
        <time>2014-03-02T09:19:10.000Z</time>
      </trkpt>
      <trkpt lat="45.32797" lon="6.19627">
        <ele>1980.5999755859</ele>
        <time>2014-03-02T09:19:11.000Z</time>
      </trkpt>
      <trkpt lat="45.32797" lon="6.19627">
        <ele>1980.5999755859</ele>
        <time>2014-03-02T09:19:12.000Z</time>
      </trkpt>
      <trkpt lat="45.32797" lon="6.19627">
        <ele>1980.5999755859</ele>
        <time>2014-03-02T09:19:13.000Z</time>
      </trkpt>
      <trkpt lat="45.32797" lon="6.19627">
        <ele>1980.5999755859</ele>
        <time>2014-03-02T09:19:14.000Z</time>
      </trkpt>
      <trkpt lat="45.32798" lon="6.19626">
        <ele>1981</ele>
        <time>2014-03-02T09:19:15.000Z</time>
      </trkpt>
      <trkpt lat="45.32799" lon="6.19625">
        <ele>1981.1999511719</ele>
        <time>2014-03-02T09:19:16.000Z</time>
      </trkpt>
      <trkpt lat="45.32799" lon="6.19625">
        <ele>1981.5999755859</ele>
        <time>2014-03-02T09:19:17.000Z</time>
      </trkpt>
      <trkpt lat="45.328" lon="6.19624">
        <ele>1981.8000488281</ele>
        <time>2014-03-02T09:19:18.000Z</time>
      </trkpt>
      <trkpt lat="45.32801" lon="6.19623">
        <ele>1982.5999755859</ele>
        <time>2014-03-02T09:19:19.000Z</time>
      </trkpt>
      <trkpt lat="45.32802" lon="6.19622">
        <ele>1983</ele>
        <time>2014-03-02T09:19:20.000Z</time>
      </trkpt>
      <trkpt lat="45.32804" lon="6.19621">
        <ele>1983.5999755859</ele>
        <time>2014-03-02T09:19:21.000Z</time>
      </trkpt>
      <trkpt lat="45.32804" lon="6.19621">
        <ele>1984</ele>
        <time>2014-03-02T09:19:22.000Z</time>
      </trkpt>
      <trkpt lat="45.32806" lon="6.1962">
        <ele>1984.4000244141</ele>
        <time>2014-03-02T09:19:23.000Z</time>
      </trkpt>
      <trkpt lat="45.32806" lon="6.1962">
        <ele>1984.5999755859</ele>
        <time>2014-03-02T09:19:24.000Z</time>
      </trkpt>
      <trkpt lat="45.32806" lon="6.1962">
        <ele>1984.5999755859</ele>
        <time>2014-03-02T09:19:25.000Z</time>
      </trkpt>
      <trkpt lat="45.32807" lon="6.1962">
        <ele>1984.8000488281</ele>
        <time>2014-03-02T09:19:26.000Z</time>
      </trkpt>
      <trkpt lat="45.32807" lon="6.19619">
        <ele>1985</ele>
        <time>2014-03-02T09:19:27.000Z</time>
      </trkpt>
      <trkpt lat="45.32808" lon="6.19618">
        <ele>1985.4000244141</ele>
        <time>2014-03-02T09:19:28.000Z</time>
      </trkpt>
      <trkpt lat="45.32809" lon="6.19618">
        <ele>1985.5999755859</ele>
        <time>2014-03-02T09:19:29.000Z</time>
      </trkpt>
      <trkpt lat="45.3281" lon="6.19617">
        <ele>1986.1999511719</ele>
        <time>2014-03-02T09:19:30.000Z</time>
      </trkpt>
      <trkpt lat="45.3281" lon="6.19617">
        <ele>1986.4000244141</ele>
        <time>2014-03-02T09:19:31.000Z</time>
      </trkpt>
      <trkpt lat="45.32811" lon="6.19616">
        <ele>1987</ele>
        <time>2014-03-02T09:19:32.000Z</time>
      </trkpt>
      <trkpt lat="45.32813" lon="6.19614">
        <ele>1987.5999755859</ele>
        <time>2014-03-02T09:19:33.000Z</time>
      </trkpt>
      <trkpt lat="45.32813" lon="6.19614">
        <ele>1987.8000488281</ele>
        <time>2014-03-02T09:19:34.000Z</time>
      </trkpt>
      <trkpt lat="45.32814" lon="6.19612">
        <ele>1988.4000244141</ele>
        <time>2014-03-02T09:19:35.000Z</time>
      </trkpt>
      <trkpt lat="45.32814" lon="6.19611">
        <ele>1988.5999755859</ele>
        <time>2014-03-02T09:19:36.000Z</time>
      </trkpt>
      <trkpt lat="45.32813" lon="6.1961">
        <ele>1988.8000488281</ele>
        <time>2014-03-02T09:19:37.000Z</time>
      </trkpt>
      <trkpt lat="45.32813" lon="6.19609">
        <ele>1989.1999511719</ele>
        <time>2014-03-02T09:19:38.000Z</time>
      </trkpt>
      <trkpt lat="45.32813" lon="6.19608">
        <ele>1989.4000244141</ele>
        <time>2014-03-02T09:19:39.000Z</time>
      </trkpt>
      <trkpt lat="45.32813" lon="6.19607">
        <ele>1989.5999755859</ele>
        <time>2014-03-02T09:19:40.000Z</time>
      </trkpt>
      <trkpt lat="45.32813" lon="6.19606">
        <ele>1989.5999755859</ele>
        <time>2014-03-02T09:19:41.000Z</time>
      </trkpt>
      <trkpt lat="45.32813" lon="6.19606">
        <ele>1989.5999755859</ele>
        <time>2014-03-02T09:19:42.000Z</time>
      </trkpt>
      <trkpt lat="45.32813" lon="6.19605">
        <ele>1990</ele>
        <time>2014-03-02T09:19:43.000Z</time>
      </trkpt>
      <trkpt lat="45.32813" lon="6.19605">
        <ele>1990</ele>
        <time>2014-03-02T09:19:44.000Z</time>
      </trkpt>
      <trkpt lat="45.32814" lon="6.19605">
        <ele>1990.1999511719</ele>
        <time>2014-03-02T09:19:45.000Z</time>
      </trkpt>
      <trkpt lat="45.32814" lon="6.19604">
        <ele>1990.5999755859</ele>
        <time>2014-03-02T09:19:46.000Z</time>
      </trkpt>
      <trkpt lat="45.32815" lon="6.19603">
        <ele>1991</ele>
        <time>2014-03-02T09:19:47.000Z</time>
      </trkpt>
      <trkpt lat="45.32815" lon="6.19603">
        <ele>1991</ele>
        <time>2014-03-02T09:19:48.000Z</time>
      </trkpt>
      <trkpt lat="45.32815" lon="6.19603">
        <ele>1991.1999511719</ele>
        <time>2014-03-02T09:19:49.000Z</time>
      </trkpt>
      <trkpt lat="45.32816" lon="6.19603">
        <ele>1991.4000244141</ele>
        <time>2014-03-02T09:19:50.000Z</time>
      </trkpt>
      <trkpt lat="45.32818" lon="6.19604">
        <ele>1991.5999755859</ele>
        <time>2014-03-02T09:19:51.000Z</time>
      </trkpt>
      <trkpt lat="45.32818" lon="6.19604">
        <ele>1991.5999755859</ele>
        <time>2014-03-02T09:19:52.000Z</time>
      </trkpt>
      <trkpt lat="45.3282" lon="6.19604">
        <ele>1992</ele>
        <time>2014-03-02T09:19:53.000Z</time>
      </trkpt>
      <trkpt lat="45.32822" lon="6.19604">
        <ele>1992.4000244141</ele>
        <time>2014-03-02T09:19:54.000Z</time>
      </trkpt>
      <trkpt lat="45.32823" lon="6.19604">
        <ele>1992.8000488281</ele>
        <time>2014-03-02T09:19:55.000Z</time>
      </trkpt>
      <trkpt lat="45.32824" lon="6.19604">
        <ele>1993.1999511719</ele>
        <time>2014-03-02T09:19:56.000Z</time>
      </trkpt>
      <trkpt lat="45.32824" lon="6.19604">
        <ele>1993.1999511719</ele>
        <time>2014-03-02T09:19:57.000Z</time>
      </trkpt>
      <trkpt lat="45.32825" lon="6.19604">
        <ele>1993.4000244141</ele>
        <time>2014-03-02T09:19:58.000Z</time>
      </trkpt>
      <trkpt lat="45.32826" lon="6.19604">
        <ele>1993.4000244141</ele>
        <time>2014-03-02T09:19:59.000Z</time>
      </trkpt>
      <trkpt lat="45.32826" lon="6.19604">
        <ele>1993.5999755859</ele>
        <time>2014-03-02T09:20:00.000Z</time>
      </trkpt>
      <trkpt lat="45.32826" lon="6.19604">
        <ele>1993.5999755859</ele>
        <time>2014-03-02T09:20:01.000Z</time>
      </trkpt>
      <trkpt lat="45.32827" lon="6.19604">
        <ele>1993.8000488281</ele>
        <time>2014-03-02T09:20:02.000Z</time>
      </trkpt>
      <trkpt lat="45.32827" lon="6.19604">
        <ele>1993.8000488281</ele>
        <time>2014-03-02T09:20:03.000Z</time>
      </trkpt>
      <trkpt lat="45.32827" lon="6.19604">
        <ele>1994</ele>
        <time>2014-03-02T09:20:04.000Z</time>
      </trkpt>
      <trkpt lat="45.32828" lon="6.19604">
        <ele>1994</ele>
        <time>2014-03-02T09:20:05.000Z</time>
      </trkpt>
      <trkpt lat="45.32829" lon="6.19604">
        <ele>1994.1999511719</ele>
        <time>2014-03-02T09:20:06.000Z</time>
      </trkpt>
      <trkpt lat="45.32829" lon="6.19604">
        <ele>1994.4000244141</ele>
        <time>2014-03-02T09:20:07.000Z</time>
      </trkpt>
      <trkpt lat="45.3283" lon="6.19604">
        <ele>1994.4000244141</ele>
        <time>2014-03-02T09:20:08.000Z</time>
      </trkpt>
      <trkpt lat="45.3283" lon="6.19604">
        <ele>1994.5999755859</ele>
        <time>2014-03-02T09:20:09.000Z</time>
      </trkpt>
      <trkpt lat="45.32831" lon="6.19605">
        <ele>1994.5999755859</ele>
        <time>2014-03-02T09:20:10.000Z</time>
      </trkpt>
      <trkpt lat="45.32832" lon="6.19605">
        <ele>1994.8000488281</ele>
        <time>2014-03-02T09:20:11.000Z</time>
      </trkpt>
      <trkpt lat="45.32833" lon="6.19605">
        <ele>1995</ele>
        <time>2014-03-02T09:20:12.000Z</time>
      </trkpt>
      <trkpt lat="45.32833" lon="6.19605">
        <ele>1995</ele>
        <time>2014-03-02T09:20:13.000Z</time>
      </trkpt>
      <trkpt lat="45.32833" lon="6.19605">
        <ele>1995.1999511719</ele>
        <time>2014-03-02T09:20:14.000Z</time>
      </trkpt>
      <trkpt lat="45.32834" lon="6.19605">
        <ele>1995.4000244141</ele>
        <time>2014-03-02T09:20:15.000Z</time>
      </trkpt>
      <trkpt lat="45.32834" lon="6.19605">
        <ele>1995.5999755859</ele>
        <time>2014-03-02T09:20:16.000Z</time>
      </trkpt>
      <trkpt lat="45.32835" lon="6.19605">
        <ele>1995.5999755859</ele>
        <time>2014-03-02T09:20:17.000Z</time>
      </trkpt>
      <trkpt lat="45.32835" lon="6.19605">
        <ele>1995.8000488281</ele>
        <time>2014-03-02T09:20:18.000Z</time>
      </trkpt>
      <trkpt lat="45.32836" lon="6.19605">
        <ele>1995.8000488281</ele>
        <time>2014-03-02T09:20:19.000Z</time>
      </trkpt>
      <trkpt lat="45.32836" lon="6.19605">
        <ele>1996</ele>
        <time>2014-03-02T09:20:20.000Z</time>
      </trkpt>
      <trkpt lat="45.32836" lon="6.19605">
        <ele>1996</ele>
        <time>2014-03-02T09:20:21.000Z</time>
      </trkpt>
      <trkpt lat="45.32837" lon="6.19605">
        <ele>1996.1999511719</ele>
        <time>2014-03-02T09:20:22.000Z</time>
      </trkpt>
      <trkpt lat="45.32838" lon="6.19605">
        <ele>1996.1999511719</ele>
        <time>2014-03-02T09:20:23.000Z</time>
      </trkpt>
      <trkpt lat="45.32838" lon="6.19605">
        <ele>1996.1999511719</ele>
        <time>2014-03-02T09:20:24.000Z</time>
      </trkpt>
      <trkpt lat="45.32839" lon="6.19606">
        <ele>1996.1999511719</ele>
        <time>2014-03-02T09:20:25.000Z</time>
      </trkpt>
      <trkpt lat="45.32839" lon="6.19606">
        <ele>1996.1999511719</ele>
        <time>2014-03-02T09:20:26.000Z</time>
      </trkpt>
      <trkpt lat="45.3284" lon="6.19607">
        <ele>1996.1999511719</ele>
        <time>2014-03-02T09:20:27.000Z</time>
      </trkpt>
      <trkpt lat="45.3284" lon="6.19608">
        <ele>1996.1999511719</ele>
        <time>2014-03-02T09:20:28.000Z</time>
      </trkpt>
      <trkpt lat="45.32841" lon="6.19608">
        <ele>1996.4000244141</ele>
        <time>2014-03-02T09:20:29.000Z</time>
      </trkpt>
      <trkpt lat="45.32841" lon="6.19608">
        <ele>1996.4000244141</ele>
        <time>2014-03-02T09:20:30.000Z</time>
      </trkpt>
      <trkpt lat="45.32842" lon="6.19608">
        <ele>1996.5999755859</ele>
        <time>2014-03-02T09:20:31.000Z</time>
      </trkpt>
      <trkpt lat="45.32843" lon="6.19608">
        <ele>1996.8000488281</ele>
        <time>2014-03-02T09:20:32.000Z</time>
      </trkpt>
      <trkpt lat="45.32844" lon="6.19609">
        <ele>1996.8000488281</ele>
        <time>2014-03-02T09:20:33.000Z</time>
      </trkpt>
      <trkpt lat="45.32845" lon="6.19609">
        <ele>1997</ele>
        <time>2014-03-02T09:20:34.000Z</time>
      </trkpt>
      <trkpt lat="45.32845" lon="6.1961">
        <ele>1997</ele>
        <time>2014-03-02T09:20:35.000Z</time>
      </trkpt>
      <trkpt lat="45.32846" lon="6.1961">
        <ele>1997</ele>
        <time>2014-03-02T09:20:36.000Z</time>
      </trkpt>
      <trkpt lat="45.32846" lon="6.19611">
        <ele>1997</ele>
        <time>2014-03-02T09:20:37.000Z</time>
      </trkpt>
      <trkpt lat="45.32846" lon="6.19611">
        <ele>1997</ele>
        <time>2014-03-02T09:20:38.000Z</time>
      </trkpt>
      <trkpt lat="45.32847" lon="6.19611">
        <ele>1997</ele>
        <time>2014-03-02T09:20:39.000Z</time>
      </trkpt>
      <trkpt lat="45.32848" lon="6.19612">
        <ele>1997</ele>
        <time>2014-03-02T09:20:40.000Z</time>
      </trkpt>
      <trkpt lat="45.32848" lon="6.19612">
        <ele>1997.1999511719</ele>
        <time>2014-03-02T09:20:41.000Z</time>
      </trkpt>
      <trkpt lat="45.32849" lon="6.19613">
        <ele>1997.1999511719</ele>
        <time>2014-03-02T09:20:42.000Z</time>
      </trkpt>
      <trkpt lat="45.32849" lon="6.19613">
        <ele>1997.1999511719</ele>
        <time>2014-03-02T09:20:43.000Z</time>
      </trkpt>
      <trkpt lat="45.3285" lon="6.19613">
        <ele>1997.1999511719</ele>
        <time>2014-03-02T09:20:44.000Z</time>
      </trkpt>
      <trkpt lat="45.32851" lon="6.19614">
        <ele>1997.1999511719</ele>
        <time>2014-03-02T09:20:45.000Z</time>
      </trkpt>
      <trkpt lat="45.32852" lon="6.19615">
        <ele>1997.1999511719</ele>
        <time>2014-03-02T09:20:46.000Z</time>
      </trkpt>
      <trkpt lat="45.32852" lon="6.19615">
        <ele>1997.1999511719</ele>
        <time>2014-03-02T09:20:47.000Z</time>
      </trkpt>
      <trkpt lat="45.32853" lon="6.19616">
        <ele>1997.1999511719</ele>
        <time>2014-03-02T09:20:48.000Z</time>
      </trkpt>
      <trkpt lat="45.32854" lon="6.19616">
        <ele>1997.4000244141</ele>
        <time>2014-03-02T09:20:49.000Z</time>
      </trkpt>
      <trkpt lat="45.32854" lon="6.19617">
        <ele>1997.4000244141</ele>
        <time>2014-03-02T09:20:50.000Z</time>
      </trkpt>
      <trkpt lat="45.32855" lon="6.19617">
        <ele>1997.4000244141</ele>
        <time>2014-03-02T09:20:51.000Z</time>
      </trkpt>
      <trkpt lat="45.32856" lon="6.19618">
        <ele>1997.4000244141</ele>
        <time>2014-03-02T09:20:52.000Z</time>
      </trkpt>
      <trkpt lat="45.32856" lon="6.19618">
        <ele>1997.5999755859</ele>
        <time>2014-03-02T09:20:53.000Z</time>
      </trkpt>
      <trkpt lat="45.32857" lon="6.19619">
        <ele>1997.5999755859</ele>
        <time>2014-03-02T09:20:54.000Z</time>
      </trkpt>
      <trkpt lat="45.32858" lon="6.19619">
        <ele>1997.5999755859</ele>
        <time>2014-03-02T09:20:55.000Z</time>
      </trkpt>
      <trkpt lat="45.32858" lon="6.19619">
        <ele>1997.5999755859</ele>
        <time>2014-03-02T09:20:56.000Z</time>
      </trkpt>
      <trkpt lat="45.32859" lon="6.19619">
        <ele>1997.5999755859</ele>
        <time>2014-03-02T09:20:57.000Z</time>
      </trkpt>
      <trkpt lat="45.32859" lon="6.19619">
        <ele>1997.8000488281</ele>
        <time>2014-03-02T09:20:58.000Z</time>
      </trkpt>
      <trkpt lat="45.3286" lon="6.19619">
        <ele>1998</ele>
        <time>2014-03-02T09:20:59.000Z</time>
      </trkpt>
      <trkpt lat="45.3286" lon="6.19618">
        <ele>1998.1999511719</ele>
        <time>2014-03-02T09:21:00.000Z</time>
      </trkpt>
      <trkpt lat="45.3286" lon="6.19618">
        <ele>1998.1999511719</ele>
        <time>2014-03-02T09:21:01.000Z</time>
      </trkpt>
      <trkpt lat="45.3286" lon="6.19619">
        <ele>1998.1999511719</ele>
        <time>2014-03-02T09:21:02.000Z</time>
      </trkpt>
      <trkpt lat="45.32861" lon="6.19619">
        <ele>1998.1999511719</ele>
        <time>2014-03-02T09:21:03.000Z</time>
      </trkpt>
      <trkpt lat="45.32861" lon="6.1962">
        <ele>1998</ele>
        <time>2014-03-02T09:21:04.000Z</time>
      </trkpt>
      <trkpt lat="45.32862" lon="6.19621">
        <ele>1998</ele>
        <time>2014-03-02T09:21:05.000Z</time>
      </trkpt>
      <trkpt lat="45.32862" lon="6.19621">
        <ele>1998</ele>
        <time>2014-03-02T09:21:06.000Z</time>
      </trkpt>
      <trkpt lat="45.32863" lon="6.19622">
        <ele>1998</ele>
        <time>2014-03-02T09:21:07.000Z</time>
      </trkpt>
      <trkpt lat="45.32863" lon="6.19622">
        <ele>1998</ele>
        <time>2014-03-02T09:21:08.000Z</time>
      </trkpt>
      <trkpt lat="45.32864" lon="6.19623">
        <ele>1998.1999511719</ele>
        <time>2014-03-02T09:21:09.000Z</time>
      </trkpt>
      <trkpt lat="45.32865" lon="6.19623">
        <ele>1998.4000244141</ele>
        <time>2014-03-02T09:21:10.000Z</time>
      </trkpt>
      <trkpt lat="45.32866" lon="6.19623">
        <ele>1998.4000244141</ele>
        <time>2014-03-02T09:21:11.000Z</time>
      </trkpt>
      <trkpt lat="45.32866" lon="6.19623">
        <ele>1998.4000244141</ele>
        <time>2014-03-02T09:21:12.000Z</time>
      </trkpt>
      <trkpt lat="45.32867" lon="6.19623">
        <ele>1998.5999755859</ele>
        <time>2014-03-02T09:21:13.000Z</time>
      </trkpt>
      <trkpt lat="45.32868" lon="6.19624">
        <ele>1998.5999755859</ele>
        <time>2014-03-02T09:21:14.000Z</time>
      </trkpt>
      <trkpt lat="45.32868" lon="6.19624">
        <ele>1998.5999755859</ele>
        <time>2014-03-02T09:21:15.000Z</time>
      </trkpt>
      <trkpt lat="45.32869" lon="6.19624">
        <ele>1998.8000488281</ele>
        <time>2014-03-02T09:21:16.000Z</time>
      </trkpt>
      <trkpt lat="45.3287" lon="6.19625">
        <ele>1998.8000488281</ele>
        <time>2014-03-02T09:21:17.000Z</time>
      </trkpt>
      <trkpt lat="45.32871" lon="6.19626">
        <ele>1998.8000488281</ele>
        <time>2014-03-02T09:21:18.000Z</time>
      </trkpt>
      <trkpt lat="45.32871" lon="6.19626">
        <ele>1998.8000488281</ele>
        <time>2014-03-02T09:21:19.000Z</time>
      </trkpt>
      <trkpt lat="45.32872" lon="6.19627">
        <ele>1998.8000488281</ele>
        <time>2014-03-02T09:21:20.000Z</time>
      </trkpt>
      <trkpt lat="45.32873" lon="6.19627">
        <ele>1998.8000488281</ele>
        <time>2014-03-02T09:21:21.000Z</time>
      </trkpt>
      <trkpt lat="45.32873" lon="6.19627">
        <ele>1999</ele>
        <time>2014-03-02T09:21:22.000Z</time>
      </trkpt>
      <trkpt lat="45.32873" lon="6.19627">
        <ele>1999</ele>
        <time>2014-03-02T09:21:23.000Z</time>
      </trkpt>
      <trkpt lat="45.32874" lon="6.19628">
        <ele>1999</ele>
        <time>2014-03-02T09:21:24.000Z</time>
      </trkpt>
      <trkpt lat="45.32875" lon="6.19629">
        <ele>1999.1999511719</ele>
        <time>2014-03-02T09:21:25.000Z</time>
      </trkpt>
      <trkpt lat="45.32876" lon="6.19629">
        <ele>1999.1999511719</ele>
        <time>2014-03-02T09:21:26.000Z</time>
      </trkpt>
      <trkpt lat="45.32877" lon="6.19629">
        <ele>1999.1999511719</ele>
        <time>2014-03-02T09:21:27.000Z</time>
      </trkpt>
      <trkpt lat="45.32878" lon="6.19629">
        <ele>1999.4000244141</ele>
        <time>2014-03-02T09:21:28.000Z</time>
      </trkpt>
      <trkpt lat="45.32878" lon="6.19629">
        <ele>1999.5999755859</ele>
        <time>2014-03-02T09:21:29.000Z</time>
      </trkpt>
      <trkpt lat="45.32878" lon="6.19629">
        <ele>1999.8000488281</ele>
        <time>2014-03-02T09:21:30.000Z</time>
      </trkpt>
      <trkpt lat="45.32878" lon="6.19629">
        <ele>1999.8000488281</ele>
        <time>2014-03-02T09:21:31.000Z</time>
      </trkpt>
      <trkpt lat="45.32878" lon="6.19629">
        <ele>1999.8000488281</ele>
        <time>2014-03-02T09:21:32.000Z</time>
      </trkpt>
      <trkpt lat="45.32878" lon="6.19629">
        <ele>1999.8000488281</ele>
        <time>2014-03-02T09:21:33.000Z</time>
      </trkpt>
      <trkpt lat="45.32878" lon="6.19628">
        <ele>1999.8000488281</ele>
        <time>2014-03-02T09:21:34.000Z</time>
      </trkpt>
      <trkpt lat="45.32878" lon="6.19628">
        <ele>1999.8000488281</ele>
        <time>2014-03-02T09:21:35.000Z</time>
      </trkpt>
      <trkpt lat="45.32879" lon="6.19627">
        <ele>2000.1999511719</ele>
        <time>2014-03-02T09:21:36.000Z</time>
      </trkpt>
      <trkpt lat="45.32879" lon="6.19627">
        <ele>2000.1999511719</ele>
        <time>2014-03-02T09:21:37.000Z</time>
      </trkpt>
      <trkpt lat="45.3288" lon="6.19627">
        <ele>2000.4000244141</ele>
        <time>2014-03-02T09:21:38.000Z</time>
      </trkpt>
      <trkpt lat="45.3288" lon="6.19627">
        <ele>2000.4000244141</ele>
        <time>2014-03-02T09:21:39.000Z</time>
      </trkpt>
      <trkpt lat="45.32881" lon="6.19627">
        <ele>2000.8000488281</ele>
        <time>2014-03-02T09:21:40.000Z</time>
      </trkpt>
      <trkpt lat="45.32881" lon="6.19627">
        <ele>2000.8000488281</ele>
        <time>2014-03-02T09:21:41.000Z</time>
      </trkpt>
      <trkpt lat="45.32883" lon="6.19627">
        <ele>2001.1999511719</ele>
        <time>2014-03-02T09:21:42.000Z</time>
      </trkpt>
      <trkpt lat="45.32885" lon="6.19627">
        <ele>2002</ele>
        <time>2014-03-02T09:21:43.000Z</time>
      </trkpt>
      <trkpt lat="45.32885" lon="6.19627">
        <ele>2002.1999511719</ele>
        <time>2014-03-02T09:21:44.000Z</time>
      </trkpt>
      <trkpt lat="45.32886" lon="6.19627">
        <ele>2002.5999755859</ele>
        <time>2014-03-02T09:21:45.000Z</time>
      </trkpt>
      <trkpt lat="45.32887" lon="6.19626">
        <ele>2003</ele>
        <time>2014-03-02T09:21:46.000Z</time>
      </trkpt>
      <trkpt lat="45.32889" lon="6.19626">
        <ele>2003.5999755859</ele>
        <time>2014-03-02T09:21:47.000Z</time>
      </trkpt>
      <trkpt lat="45.3289" lon="6.19626">
        <ele>2004</ele>
        <time>2014-03-02T09:21:48.000Z</time>
      </trkpt>
      <trkpt lat="45.3289" lon="6.19625">
        <ele>2004.1999511719</ele>
        <time>2014-03-02T09:21:49.000Z</time>
      </trkpt>
      <trkpt lat="45.32891" lon="6.19625">
        <ele>2004.5999755859</ele>
        <time>2014-03-02T09:21:50.000Z</time>
      </trkpt>
      <trkpt lat="45.32893" lon="6.19625">
        <ele>2005.1999511719</ele>
        <time>2014-03-02T09:21:51.000Z</time>
      </trkpt>
      <trkpt lat="45.32894" lon="6.19625">
        <ele>2005.5999755859</ele>
        <time>2014-03-02T09:21:52.000Z</time>
      </trkpt>
      <trkpt lat="45.32894" lon="6.19625">
        <ele>2005.8000488281</ele>
        <time>2014-03-02T09:21:53.000Z</time>
      </trkpt>
      <trkpt lat="45.32895" lon="6.19624">
        <ele>2006.1999511719</ele>
        <time>2014-03-02T09:21:54.000Z</time>
      </trkpt>
      <trkpt lat="45.32895" lon="6.19624">
        <ele>2006.1999511719</ele>
        <time>2014-03-02T09:21:55.000Z</time>
      </trkpt>
      <trkpt lat="45.32896" lon="6.19624">
        <ele>2006.5999755859</ele>
        <time>2014-03-02T09:21:56.000Z</time>
      </trkpt>
      <trkpt lat="45.32896" lon="6.19623">
        <ele>2006.8000488281</ele>
        <time>2014-03-02T09:21:57.000Z</time>
      </trkpt>
      <trkpt lat="45.32897" lon="6.19623">
        <ele>2007.1999511719</ele>
        <time>2014-03-02T09:21:58.000Z</time>
      </trkpt>
      <trkpt lat="45.32898" lon="6.19623">
        <ele>2007.4000244141</ele>
        <time>2014-03-02T09:21:59.000Z</time>
      </trkpt>
      <trkpt lat="45.32898" lon="6.19622">
        <ele>2007.8000488281</ele>
        <time>2014-03-02T09:22:00.000Z</time>
      </trkpt>
      <trkpt lat="45.32899" lon="6.19622">
        <ele>2008</ele>
        <time>2014-03-02T09:22:01.000Z</time>
      </trkpt>
      <trkpt lat="45.32899" lon="6.19621">
        <ele>2008.4000244141</ele>
        <time>2014-03-02T09:22:02.000Z</time>
      </trkpt>
      <trkpt lat="45.329" lon="6.1962">
        <ele>2008.5999755859</ele>
        <time>2014-03-02T09:22:03.000Z</time>
      </trkpt>
      <trkpt lat="45.329" lon="6.19619">
        <ele>2009</ele>
        <time>2014-03-02T09:22:04.000Z</time>
      </trkpt>
      <trkpt lat="45.329" lon="6.19619">
        <ele>2009.1999511719</ele>
        <time>2014-03-02T09:22:05.000Z</time>
      </trkpt>
      <trkpt lat="45.329" lon="6.19618">
        <ele>2009.4000244141</ele>
        <time>2014-03-02T09:22:06.000Z</time>
      </trkpt>
      <trkpt lat="45.32901" lon="6.19616">
        <ele>2010</ele>
        <time>2014-03-02T09:22:07.000Z</time>
      </trkpt>
      <trkpt lat="45.32902" lon="6.19615">
        <ele>2010.5999755859</ele>
        <time>2014-03-02T09:22:08.000Z</time>
      </trkpt>
      <trkpt lat="45.32903" lon="6.19614">
        <ele>2011.1999511719</ele>
        <time>2014-03-02T09:22:09.000Z</time>
      </trkpt>
      <trkpt lat="45.32904" lon="6.19614">
        <ele>2011.4000244141</ele>
        <time>2014-03-02T09:22:10.000Z</time>
      </trkpt>
      <trkpt lat="45.32904" lon="6.19613">
        <ele>2011.8000488281</ele>
        <time>2014-03-02T09:22:11.000Z</time>
      </trkpt>
      <trkpt lat="45.32905" lon="6.19612">
        <ele>2012.1999511719</ele>
        <time>2014-03-02T09:22:12.000Z</time>
      </trkpt>
      <trkpt lat="45.32906" lon="6.19611">
        <ele>2012.4000244141</ele>
        <time>2014-03-02T09:22:13.000Z</time>
      </trkpt>
      <trkpt lat="45.32907" lon="6.1961">
        <ele>2013</ele>
        <time>2014-03-02T09:22:14.000Z</time>
      </trkpt>
      <trkpt lat="45.32908" lon="6.19609">
        <ele>2013.5999755859</ele>
        <time>2014-03-02T09:22:15.000Z</time>
      </trkpt>
      <trkpt lat="45.32909" lon="6.19608">
        <ele>2014.1999511719</ele>
        <time>2014-03-02T09:22:16.000Z</time>
      </trkpt>
      <trkpt lat="45.3291" lon="6.19607">
        <ele>2014.8000488281</ele>
        <time>2014-03-02T09:22:17.000Z</time>
      </trkpt>
      <trkpt lat="45.32911" lon="6.19606">
        <ele>2015.4000244141</ele>
        <time>2014-03-02T09:22:18.000Z</time>
      </trkpt>
      <trkpt lat="45.32911" lon="6.19606">
        <ele>2015.5999755859</ele>
        <time>2014-03-02T09:22:19.000Z</time>
      </trkpt>
      <trkpt lat="45.32912" lon="6.19605">
        <ele>2015.8000488281</ele>
        <time>2014-03-02T09:22:20.000Z</time>
      </trkpt>
      <trkpt lat="45.32912" lon="6.19604">
        <ele>2016.1999511719</ele>
        <time>2014-03-02T09:22:21.000Z</time>
      </trkpt>
      <trkpt lat="45.32912" lon="6.19603">
        <ele>2016.5999755859</ele>
        <time>2014-03-02T09:22:22.000Z</time>
      </trkpt>
      <trkpt lat="45.32913" lon="6.19601">
        <ele>2017.1999511719</ele>
        <time>2014-03-02T09:22:23.000Z</time>
      </trkpt>
      <trkpt lat="45.32913" lon="6.19601">
        <ele>2017.1999511719</ele>
        <time>2014-03-02T09:22:24.000Z</time>
      </trkpt>
      <trkpt lat="45.32914" lon="6.196">
        <ele>2017.4000244141</ele>
        <time>2014-03-02T09:22:25.000Z</time>
      </trkpt>
      <trkpt lat="45.32914" lon="6.196">
        <ele>2017.5999755859</ele>
        <time>2014-03-02T09:22:26.000Z</time>
      </trkpt>
      <trkpt lat="45.32913" lon="6.19599">
        <ele>2017.5999755859</ele>
        <time>2014-03-02T09:22:27.000Z</time>
      </trkpt>
      <trkpt lat="45.32913" lon="6.19599">
        <ele>2017.8000488281</ele>
        <time>2014-03-02T09:22:28.000Z</time>
      </trkpt>
      <trkpt lat="45.32913" lon="6.19598">
        <ele>2017.8000488281</ele>
        <time>2014-03-02T09:22:29.000Z</time>
      </trkpt>
      <trkpt lat="45.32914" lon="6.19597">
        <ele>2018.1999511719</ele>
        <time>2014-03-02T09:22:30.000Z</time>
      </trkpt>
      <trkpt lat="45.32914" lon="6.19596">
        <ele>2018.4000244141</ele>
        <time>2014-03-02T09:22:31.000Z</time>
      </trkpt>
      <trkpt lat="45.32915" lon="6.19595">
        <ele>2018.8000488281</ele>
        <time>2014-03-02T09:22:32.000Z</time>
      </trkpt>
      <trkpt lat="45.32915" lon="6.19595">
        <ele>2019</ele>
        <time>2014-03-02T09:22:33.000Z</time>
      </trkpt>
      <trkpt lat="45.32917" lon="6.19594">
        <ele>2019.1999511719</ele>
        <time>2014-03-02T09:22:34.000Z</time>
      </trkpt>
      <trkpt lat="45.32918" lon="6.19593">
        <ele>2019.5999755859</ele>
        <time>2014-03-02T09:22:35.000Z</time>
      </trkpt>
      <trkpt lat="45.32919" lon="6.19592">
        <ele>2019.8000488281</ele>
        <time>2014-03-02T09:22:36.000Z</time>
      </trkpt>
      <trkpt lat="45.32919" lon="6.19592">
        <ele>2019.8000488281</ele>
        <time>2014-03-02T09:22:37.000Z</time>
      </trkpt>
      <trkpt lat="45.3292" lon="6.19591">
        <ele>2020.1999511719</ele>
        <time>2014-03-02T09:22:38.000Z</time>
      </trkpt>
      <trkpt lat="45.32921" lon="6.1959">
        <ele>2020.4000244141</ele>
        <time>2014-03-02T09:22:39.000Z</time>
      </trkpt>
      <trkpt lat="45.32921" lon="6.19589">
        <ele>2020.4000244141</ele>
        <time>2014-03-02T09:22:40.000Z</time>
      </trkpt>
      <trkpt lat="45.32922" lon="6.19588">
        <ele>2020.5999755859</ele>
        <time>2014-03-02T09:22:41.000Z</time>
      </trkpt>
      <trkpt lat="45.32922" lon="6.19588">
        <ele>2020.5999755859</ele>
        <time>2014-03-02T09:22:42.000Z</time>
      </trkpt>
      <trkpt lat="45.32922" lon="6.19587">
        <ele>2020.8000488281</ele>
        <time>2014-03-02T09:22:43.000Z</time>
      </trkpt>
      <trkpt lat="45.32923" lon="6.19586">
        <ele>2021</ele>
        <time>2014-03-02T09:22:44.000Z</time>
      </trkpt>
      <trkpt lat="45.32923" lon="6.19586">
        <ele>2021</ele>
        <time>2014-03-02T09:22:45.000Z</time>
      </trkpt>
      <trkpt lat="45.32924" lon="6.19585">
        <ele>2021.1999511719</ele>
        <time>2014-03-02T09:22:46.000Z</time>
      </trkpt>
      <trkpt lat="45.32924" lon="6.19584">
        <ele>2021.4000244141</ele>
        <time>2014-03-02T09:22:47.000Z</time>
      </trkpt>
      <trkpt lat="45.32925" lon="6.19584">
        <ele>2021.4000244141</ele>
        <time>2014-03-02T09:22:48.000Z</time>
      </trkpt>
      <trkpt lat="45.32925" lon="6.19583">
        <ele>2021.5999755859</ele>
        <time>2014-03-02T09:22:49.000Z</time>
      </trkpt>
      <trkpt lat="45.32926" lon="6.19582">
        <ele>2021.8000488281</ele>
        <time>2014-03-02T09:22:50.000Z</time>
      </trkpt>
      <trkpt lat="45.32927" lon="6.19582">
        <ele>2022</ele>
        <time>2014-03-02T09:22:51.000Z</time>
      </trkpt>
      <trkpt lat="45.32928" lon="6.19581">
        <ele>2022.1999511719</ele>
        <time>2014-03-02T09:22:52.000Z</time>
      </trkpt>
      <trkpt lat="45.32929" lon="6.1958">
        <ele>2022.5999755859</ele>
        <time>2014-03-02T09:22:53.000Z</time>
      </trkpt>
      <trkpt lat="45.3293" lon="6.1958">
        <ele>2022.8000488281</ele>
        <time>2014-03-02T09:22:54.000Z</time>
      </trkpt>
      <trkpt lat="45.32931" lon="6.1958">
        <ele>2023</ele>
        <time>2014-03-02T09:22:55.000Z</time>
      </trkpt>
      <trkpt lat="45.32932" lon="6.19579">
        <ele>2023.1999511719</ele>
        <time>2014-03-02T09:22:56.000Z</time>
      </trkpt>
      <trkpt lat="45.32933" lon="6.19579">
        <ele>2023.5999755859</ele>
        <time>2014-03-02T09:22:57.000Z</time>
      </trkpt>
      <trkpt lat="45.32934" lon="6.19578">
        <ele>2023.8000488281</ele>
        <time>2014-03-02T09:22:58.000Z</time>
      </trkpt>
      <trkpt lat="45.32935" lon="6.19578">
        <ele>2024</ele>
        <time>2014-03-02T09:22:59.000Z</time>
      </trkpt>
      <trkpt lat="45.32936" lon="6.19577">
        <ele>2024.1999511719</ele>
        <time>2014-03-02T09:23:00.000Z</time>
      </trkpt>
      <trkpt lat="45.32937" lon="6.19577">
        <ele>2024.4000244141</ele>
        <time>2014-03-02T09:23:01.000Z</time>
      </trkpt>
      <trkpt lat="45.32938" lon="6.19578">
        <ele>2024.5999755859</ele>
        <time>2014-03-02T09:23:02.000Z</time>
      </trkpt>
      <trkpt lat="45.32939" lon="6.19578">
        <ele>2024.8000488281</ele>
        <time>2014-03-02T09:23:03.000Z</time>
      </trkpt>
      <trkpt lat="45.32939" lon="6.19578">
        <ele>2024.8000488281</ele>
        <time>2014-03-02T09:23:04.000Z</time>
      </trkpt>
      <trkpt lat="45.3294" lon="6.19578">
        <ele>2025</ele>
        <time>2014-03-02T09:23:05.000Z</time>
      </trkpt>
      <trkpt lat="45.3294" lon="6.19578">
        <ele>2025</ele>
        <time>2014-03-02T09:23:06.000Z</time>
      </trkpt>
      <trkpt lat="45.3294" lon="6.19577">
        <ele>2025.1999511719</ele>
        <time>2014-03-02T09:23:07.000Z</time>
      </trkpt>
      <trkpt lat="45.3294" lon="6.19577">
        <ele>2025.1999511719</ele>
        <time>2014-03-02T09:23:08.000Z</time>
      </trkpt>
      <trkpt lat="45.32941" lon="6.19576">
        <ele>2025.4000244141</ele>
        <time>2014-03-02T09:23:09.000Z</time>
      </trkpt>
      <trkpt lat="45.32941" lon="6.19576">
        <ele>2025.4000244141</ele>
        <time>2014-03-02T09:23:10.000Z</time>
      </trkpt>
      <trkpt lat="45.32941" lon="6.19576">
        <ele>2025.4000244141</ele>
        <time>2014-03-02T09:23:11.000Z</time>
      </trkpt>
      <trkpt lat="45.32942" lon="6.19576">
        <ele>2025.5999755859</ele>
        <time>2014-03-02T09:23:12.000Z</time>
      </trkpt>
      <trkpt lat="45.32942" lon="6.19576">
        <ele>2025.5999755859</ele>
        <time>2014-03-02T09:23:13.000Z</time>
      </trkpt>
      <trkpt lat="45.32943" lon="6.19575">
        <ele>2025.8000488281</ele>
        <time>2014-03-02T09:23:14.000Z</time>
      </trkpt>
      <trkpt lat="45.32943" lon="6.19575">
        <ele>2026</ele>
        <time>2014-03-02T09:23:15.000Z</time>
      </trkpt>
      <trkpt lat="45.32944" lon="6.19574">
        <ele>2026.1999511719</ele>
        <time>2014-03-02T09:23:16.000Z</time>
      </trkpt>
      <trkpt lat="45.32944" lon="6.19574">
        <ele>2026.1999511719</ele>
        <time>2014-03-02T09:23:17.000Z</time>
      </trkpt>
      <trkpt lat="45.32946" lon="6.19573">
        <ele>2026.4000244141</ele>
        <time>2014-03-02T09:23:18.000Z</time>
      </trkpt>
      <trkpt lat="45.32946" lon="6.19572">
        <ele>2026.5999755859</ele>
        <time>2014-03-02T09:23:19.000Z</time>
      </trkpt>
      <trkpt lat="45.32947" lon="6.19571">
        <ele>2027</ele>
        <time>2014-03-02T09:23:20.000Z</time>
      </trkpt>
      <trkpt lat="45.32948" lon="6.19571">
        <ele>2027</ele>
        <time>2014-03-02T09:23:21.000Z</time>
      </trkpt>
      <trkpt lat="45.32949" lon="6.19571">
        <ele>2027.1999511719</ele>
        <time>2014-03-02T09:23:22.000Z</time>
      </trkpt>
      <trkpt lat="45.32949" lon="6.1957">
        <ele>2027.4000244141</ele>
        <time>2014-03-02T09:23:23.000Z</time>
      </trkpt>
      <trkpt lat="45.3295" lon="6.19569">
        <ele>2027.5999755859</ele>
        <time>2014-03-02T09:23:24.000Z</time>
      </trkpt>
      <trkpt lat="45.3295" lon="6.19569">
        <ele>2027.5999755859</ele>
        <time>2014-03-02T09:23:25.000Z</time>
      </trkpt>
      <trkpt lat="45.32949" lon="6.19567">
        <ele>2027.4000244141</ele>
        <time>2014-03-02T09:23:26.000Z</time>
      </trkpt>
      <trkpt lat="45.32948" lon="6.19566">
        <ele>2027.4000244141</ele>
        <time>2014-03-02T09:23:27.000Z</time>
      </trkpt>
      <trkpt lat="45.32947" lon="6.19565">
        <ele>2027.1999511719</ele>
        <time>2014-03-02T09:23:28.000Z</time>
      </trkpt>
      <trkpt lat="45.32947" lon="6.19564">
        <ele>2027.1999511719</ele>
        <time>2014-03-02T09:23:29.000Z</time>
      </trkpt>
      <trkpt lat="45.32946" lon="6.19563">
        <ele>2027</ele>
        <time>2014-03-02T09:23:30.000Z</time>
      </trkpt>
      <trkpt lat="45.32946" lon="6.19562">
        <ele>2027</ele>
        <time>2014-03-02T09:23:31.000Z</time>
      </trkpt>
      <trkpt lat="45.32945" lon="6.1956">
        <ele>2027.1999511719</ele>
        <time>2014-03-02T09:23:32.000Z</time>
      </trkpt>
      <trkpt lat="45.32945" lon="6.1956">
        <ele>2027.1999511719</ele>
        <time>2014-03-02T09:23:33.000Z</time>
      </trkpt>
      <trkpt lat="45.32945" lon="6.19559">
        <ele>2027.1999511719</ele>
        <time>2014-03-02T09:23:34.000Z</time>
      </trkpt>
      <trkpt lat="45.32944" lon="6.19558">
        <ele>2027.4000244141</ele>
        <time>2014-03-02T09:23:35.000Z</time>
      </trkpt>
      <trkpt lat="45.32944" lon="6.19558">
        <ele>2027.4000244141</ele>
        <time>2014-03-02T09:23:36.000Z</time>
      </trkpt>
      <trkpt lat="45.32944" lon="6.19557">
        <ele>2027.5999755859</ele>
        <time>2014-03-02T09:23:37.000Z</time>
      </trkpt>
      <trkpt lat="45.32943" lon="6.19556">
        <ele>2027.5999755859</ele>
        <time>2014-03-02T09:23:38.000Z</time>
      </trkpt>
      <trkpt lat="45.32944" lon="6.19555">
        <ele>2027.8000488281</ele>
        <time>2014-03-02T09:23:39.000Z</time>
      </trkpt>
      <trkpt lat="45.32944" lon="6.19554">
        <ele>2028</ele>
        <time>2014-03-02T09:23:40.000Z</time>
      </trkpt>
      <trkpt lat="45.32944" lon="6.19553">
        <ele>2028.4000244141</ele>
        <time>2014-03-02T09:23:41.000Z</time>
      </trkpt>
      <trkpt lat="45.32944" lon="6.19551">
        <ele>2028.5999755859</ele>
        <time>2014-03-02T09:23:42.000Z</time>
      </trkpt>
      <trkpt lat="45.32944" lon="6.1955">
        <ele>2028.5999755859</ele>
        <time>2014-03-02T09:23:43.000Z</time>
      </trkpt>
      <trkpt lat="45.32944" lon="6.1955">
        <ele>2028.8000488281</ele>
        <time>2014-03-02T09:23:44.000Z</time>
      </trkpt>
      <trkpt lat="45.32944" lon="6.19548">
        <ele>2029</ele>
        <time>2014-03-02T09:23:45.000Z</time>
      </trkpt>
      <trkpt lat="45.32944" lon="6.19547">
        <ele>2029.4000244141</ele>
        <time>2014-03-02T09:23:46.000Z</time>
      </trkpt>
      <trkpt lat="45.32945" lon="6.19546">
        <ele>2029.5999755859</ele>
        <time>2014-03-02T09:23:47.000Z</time>
      </trkpt>
      <trkpt lat="45.32945" lon="6.19545">
        <ele>2030</ele>
        <time>2014-03-02T09:23:48.000Z</time>
      </trkpt>
      <trkpt lat="45.32946" lon="6.19544">
        <ele>2030.1999511719</ele>
        <time>2014-03-02T09:23:49.000Z</time>
      </trkpt>
      <trkpt lat="45.32946" lon="6.19544">
        <ele>2030.4000244141</ele>
        <time>2014-03-02T09:23:50.000Z</time>
      </trkpt>
      <trkpt lat="45.32947" lon="6.19543">
        <ele>2030.8000488281</ele>
        <time>2014-03-02T09:23:51.000Z</time>
      </trkpt>
      <trkpt lat="45.32948" lon="6.19542">
        <ele>2031</ele>
        <time>2014-03-02T09:23:52.000Z</time>
      </trkpt>
      <trkpt lat="45.32948" lon="6.19542">
        <ele>2031.1999511719</ele>
        <time>2014-03-02T09:23:53.000Z</time>
      </trkpt>
      <trkpt lat="45.32949" lon="6.19541">
        <ele>2031.5999755859</ele>
        <time>2014-03-02T09:23:54.000Z</time>
      </trkpt>
      <trkpt lat="45.3295" lon="6.19541">
        <ele>2031.8000488281</ele>
        <time>2014-03-02T09:23:55.000Z</time>
      </trkpt>
      <trkpt lat="45.32951" lon="6.19541">
        <ele>2032.1999511719</ele>
        <time>2014-03-02T09:23:56.000Z</time>
      </trkpt>
      <trkpt lat="45.32952" lon="6.19541">
        <ele>2032.4000244141</ele>
        <time>2014-03-02T09:23:57.000Z</time>
      </trkpt>
      <trkpt lat="45.32953" lon="6.1954">
        <ele>2032.5999755859</ele>
        <time>2014-03-02T09:23:58.000Z</time>
      </trkpt>
      <trkpt lat="45.32954" lon="6.19541">
        <ele>2032.8000488281</ele>
        <time>2014-03-02T09:23:59.000Z</time>
      </trkpt>
      <trkpt lat="45.32955" lon="6.19541">
        <ele>2033</ele>
        <time>2014-03-02T09:24:00.000Z</time>
      </trkpt>
      <trkpt lat="45.32955" lon="6.19541">
        <ele>2033</ele>
        <time>2014-03-02T09:24:01.000Z</time>
      </trkpt>
      <trkpt lat="45.32956" lon="6.1954">
        <ele>2033.4000244141</ele>
        <time>2014-03-02T09:24:02.000Z</time>
      </trkpt>
      <trkpt lat="45.32956" lon="6.19539">
        <ele>2033.5999755859</ele>
        <time>2014-03-02T09:24:03.000Z</time>
      </trkpt>
      <trkpt lat="45.32957" lon="6.19539">
        <ele>2033.8000488281</ele>
        <time>2014-03-02T09:24:04.000Z</time>
      </trkpt>
      <trkpt lat="45.32957" lon="6.19538">
        <ele>2034</ele>
        <time>2014-03-02T09:24:05.000Z</time>
      </trkpt>
      <trkpt lat="45.32958" lon="6.19538">
        <ele>2034.1999511719</ele>
        <time>2014-03-02T09:24:06.000Z</time>
      </trkpt>
      <trkpt lat="45.32958" lon="6.19538">
        <ele>2034.4000244141</ele>
        <time>2014-03-02T09:24:07.000Z</time>
      </trkpt>
      <trkpt lat="45.32959" lon="6.19538">
        <ele>2034.5999755859</ele>
        <time>2014-03-02T09:24:08.000Z</time>
      </trkpt>
      <trkpt lat="45.3296" lon="6.19538">
        <ele>2034.5999755859</ele>
        <time>2014-03-02T09:24:09.000Z</time>
      </trkpt>
      <trkpt lat="45.3296" lon="6.19538">
        <ele>2034.8000488281</ele>
        <time>2014-03-02T09:24:10.000Z</time>
      </trkpt>
      <trkpt lat="45.32961" lon="6.19538">
        <ele>2035</ele>
        <time>2014-03-02T09:24:11.000Z</time>
      </trkpt>
      <trkpt lat="45.32963" lon="6.19538">
        <ele>2035.1999511719</ele>
        <time>2014-03-02T09:24:12.000Z</time>
      </trkpt>
      <trkpt lat="45.32963" lon="6.19539">
        <ele>2035.1999511719</ele>
        <time>2014-03-02T09:24:13.000Z</time>
      </trkpt>
      <trkpt lat="45.32963" lon="6.19538">
        <ele>2035.4000244141</ele>
        <time>2014-03-02T09:24:14.000Z</time>
      </trkpt>
      <trkpt lat="45.32964" lon="6.19538">
        <ele>2035.5999755859</ele>
        <time>2014-03-02T09:24:15.000Z</time>
      </trkpt>
      <trkpt lat="45.32965" lon="6.19538">
        <ele>2035.8000488281</ele>
        <time>2014-03-02T09:24:16.000Z</time>
      </trkpt>
      <trkpt lat="45.32965" lon="6.19538">
        <ele>2036.1999511719</ele>
        <time>2014-03-02T09:24:17.000Z</time>
      </trkpt>
      <trkpt lat="45.32966" lon="6.19538">
        <ele>2036.4000244141</ele>
        <time>2014-03-02T09:24:18.000Z</time>
      </trkpt>
      <trkpt lat="45.32967" lon="6.19538">
        <ele>2036.4000244141</ele>
        <time>2014-03-02T09:24:19.000Z</time>
      </trkpt>
      <trkpt lat="45.32967" lon="6.19538">
        <ele>2036.5999755859</ele>
        <time>2014-03-02T09:24:20.000Z</time>
      </trkpt>
      <trkpt lat="45.32967" lon="6.19538">
        <ele>2036.5999755859</ele>
        <time>2014-03-02T09:24:21.000Z</time>
      </trkpt>
      <trkpt lat="45.32967" lon="6.19538">
        <ele>2036.8000488281</ele>
        <time>2014-03-02T09:24:22.000Z</time>
      </trkpt>
      <trkpt lat="45.32968" lon="6.19538">
        <ele>2037.1999511719</ele>
        <time>2014-03-02T09:24:23.000Z</time>
      </trkpt>
      <trkpt lat="45.32969" lon="6.19538">
        <ele>2037.4000244141</ele>
        <time>2014-03-02T09:24:24.000Z</time>
      </trkpt>
      <trkpt lat="45.32969" lon="6.19538">
        <ele>2037.5999755859</ele>
        <time>2014-03-02T09:24:25.000Z</time>
      </trkpt>
      <trkpt lat="45.3297" lon="6.19537">
        <ele>2038</ele>
        <time>2014-03-02T09:24:26.000Z</time>
      </trkpt>
      <trkpt lat="45.3297" lon="6.19537">
        <ele>2038.1999511719</ele>
        <time>2014-03-02T09:24:27.000Z</time>
      </trkpt>
      <trkpt lat="45.3297" lon="6.19537">
        <ele>2038.1999511719</ele>
        <time>2014-03-02T09:24:28.000Z</time>
      </trkpt>
      <trkpt lat="45.3297" lon="6.19536">
        <ele>2038.1999511719</ele>
        <time>2014-03-02T09:24:29.000Z</time>
      </trkpt>
      <trkpt lat="45.3297" lon="6.19536">
        <ele>2038.4000244141</ele>
        <time>2014-03-02T09:24:30.000Z</time>
      </trkpt>
      <trkpt lat="45.32971" lon="6.19535">
        <ele>2038.8000488281</ele>
        <time>2014-03-02T09:24:31.000Z</time>
      </trkpt>
      <trkpt lat="45.32972" lon="6.19535">
        <ele>2039</ele>
        <time>2014-03-02T09:24:32.000Z</time>
      </trkpt>
      <trkpt lat="45.32972" lon="6.19535">
        <ele>2039.4000244141</ele>
        <time>2014-03-02T09:24:33.000Z</time>
      </trkpt>
      <trkpt lat="45.32973" lon="6.19535">
        <ele>2039.5999755859</ele>
        <time>2014-03-02T09:24:34.000Z</time>
      </trkpt>
      <trkpt lat="45.32974" lon="6.19535">
        <ele>2040</ele>
        <time>2014-03-02T09:24:35.000Z</time>
      </trkpt>
      <trkpt lat="45.32975" lon="6.19535">
        <ele>2040.1999511719</ele>
        <time>2014-03-02T09:24:36.000Z</time>
      </trkpt>
      <trkpt lat="45.32975" lon="6.19535">
        <ele>2040.4000244141</ele>
        <time>2014-03-02T09:24:37.000Z</time>
      </trkpt>
      <trkpt lat="45.32976" lon="6.19535">
        <ele>2040.5999755859</ele>
        <time>2014-03-02T09:24:38.000Z</time>
      </trkpt>
      <trkpt lat="45.32976" lon="6.19534">
        <ele>2040.8000488281</ele>
        <time>2014-03-02T09:24:39.000Z</time>
      </trkpt>
      <trkpt lat="45.32976" lon="6.19534">
        <ele>2040.8000488281</ele>
        <time>2014-03-02T09:24:40.000Z</time>
      </trkpt>
      <trkpt lat="45.32976" lon="6.19534">
        <ele>2040.8000488281</ele>
        <time>2014-03-02T09:24:41.000Z</time>
      </trkpt>
      <trkpt lat="45.32976" lon="6.19533">
        <ele>2041</ele>
        <time>2014-03-02T09:24:42.000Z</time>
      </trkpt>
      <trkpt lat="45.32976" lon="6.19533">
        <ele>2041.1999511719</ele>
        <time>2014-03-02T09:24:43.000Z</time>
      </trkpt>
      <trkpt lat="45.32977" lon="6.19533">
        <ele>2041.1999511719</ele>
        <time>2014-03-02T09:24:44.000Z</time>
      </trkpt>
      <trkpt lat="45.32977" lon="6.19533">
        <ele>2041.4000244141</ele>
        <time>2014-03-02T09:24:45.000Z</time>
      </trkpt>
      <trkpt lat="45.32977" lon="6.19533">
        <ele>2041.5999755859</ele>
        <time>2014-03-02T09:24:46.000Z</time>
      </trkpt>
      <trkpt lat="45.32978" lon="6.19533">
        <ele>2042</ele>
        <time>2014-03-02T09:24:47.000Z</time>
      </trkpt>
      <trkpt lat="45.32979" lon="6.19533">
        <ele>2042.4000244141</ele>
        <time>2014-03-02T09:24:48.000Z</time>
      </trkpt>
      <trkpt lat="45.3298" lon="6.19532">
        <ele>2043</ele>
        <time>2014-03-02T09:24:49.000Z</time>
      </trkpt>
      <trkpt lat="45.32981" lon="6.19532">
        <ele>2043.1999511719</ele>
        <time>2014-03-02T09:24:50.000Z</time>
      </trkpt>
      <trkpt lat="45.32982" lon="6.19532">
        <ele>2043.5999755859</ele>
        <time>2014-03-02T09:24:51.000Z</time>
      </trkpt>
      <trkpt lat="45.32983" lon="6.19532">
        <ele>2043.8000488281</ele>
        <time>2014-03-02T09:24:52.000Z</time>
      </trkpt>
      <trkpt lat="45.32983" lon="6.19532">
        <ele>2044.1999511719</ele>
        <time>2014-03-02T09:24:53.000Z</time>
      </trkpt>
      <trkpt lat="45.32984" lon="6.19532">
        <ele>2044.4000244141</ele>
        <time>2014-03-02T09:24:54.000Z</time>
      </trkpt>
      <trkpt lat="45.32985" lon="6.19532">
        <ele>2044.5999755859</ele>
        <time>2014-03-02T09:24:55.000Z</time>
      </trkpt>
      <trkpt lat="45.32985" lon="6.19532">
        <ele>2044.8000488281</ele>
        <time>2014-03-02T09:24:56.000Z</time>
      </trkpt>
      <trkpt lat="45.32986" lon="6.19532">
        <ele>2045</ele>
        <time>2014-03-02T09:24:57.000Z</time>
      </trkpt>
      <trkpt lat="45.32986" lon="6.19532">
        <ele>2045.1999511719</ele>
        <time>2014-03-02T09:24:58.000Z</time>
      </trkpt>
      <trkpt lat="45.32987" lon="6.19532">
        <ele>2045.5999755859</ele>
        <time>2014-03-02T09:24:59.000Z</time>
      </trkpt>
      <trkpt lat="45.32987" lon="6.19532">
        <ele>2045.8000488281</ele>
        <time>2014-03-02T09:25:00.000Z</time>
      </trkpt>
      <trkpt lat="45.32988" lon="6.19532">
        <ele>2046</ele>
        <time>2014-03-02T09:25:01.000Z</time>
      </trkpt>
      <trkpt lat="45.32988" lon="6.19532">
        <ele>2046.1999511719</ele>
        <time>2014-03-02T09:25:02.000Z</time>
      </trkpt>
      <trkpt lat="45.32989" lon="6.19531">
        <ele>2046.4000244141</ele>
        <time>2014-03-02T09:25:03.000Z</time>
      </trkpt>
      <trkpt lat="45.32989" lon="6.19531">
        <ele>2046.5999755859</ele>
        <time>2014-03-02T09:25:04.000Z</time>
      </trkpt>
      <trkpt lat="45.32989" lon="6.19531">
        <ele>2046.5999755859</ele>
        <time>2014-03-02T09:25:05.000Z</time>
      </trkpt>
      <trkpt lat="45.32989" lon="6.19531">
        <ele>2046.5999755859</ele>
        <time>2014-03-02T09:25:07.000Z</time>
      </trkpt>
      <trkpt lat="45.32989" lon="6.19531">
        <ele>2046.5999755859</ele>
        <time>2014-03-02T09:25:08.000Z</time>
      </trkpt>
      <trkpt lat="45.32989" lon="6.19531">
        <ele>2046.5999755859</ele>
        <time>2014-03-02T09:25:09.000Z</time>
      </trkpt>
      <trkpt lat="45.32989" lon="6.19531">
        <ele>2046.5999755859</ele>
        <time>2014-03-02T09:25:10.000Z</time>
      </trkpt>
      <trkpt lat="45.32989" lon="6.19531">
        <ele>2046.5999755859</ele>
        <time>2014-03-02T09:25:11.000Z</time>
      </trkpt>
      <trkpt lat="45.32989" lon="6.19531">
        <ele>2046.5999755859</ele>
        <time>2014-03-02T09:25:12.000Z</time>
      </trkpt>
      <trkpt lat="45.32989" lon="6.19531">
        <ele>2046.5999755859</ele>
        <time>2014-03-02T09:25:13.000Z</time>
      </trkpt>
      <trkpt lat="45.32989" lon="6.1953">
        <ele>2046.8000488281</ele>
        <time>2014-03-02T09:25:14.000Z</time>
      </trkpt>
      <trkpt lat="45.32989" lon="6.19528">
        <ele>2047.1999511719</ele>
        <time>2014-03-02T09:25:15.000Z</time>
      </trkpt>
      <trkpt lat="45.32989" lon="6.19527">
        <ele>2047.1999511719</ele>
        <time>2014-03-02T09:25:16.000Z</time>
      </trkpt>
      <trkpt lat="45.32989" lon="6.19526">
        <ele>2047.4000244141</ele>
        <time>2014-03-02T09:25:17.000Z</time>
      </trkpt>
      <trkpt lat="45.32988" lon="6.19525">
        <ele>2047.4000244141</ele>
        <time>2014-03-02T09:25:18.000Z</time>
      </trkpt>
      <trkpt lat="45.32987" lon="6.19523">
        <ele>2047.4000244141</ele>
        <time>2014-03-02T09:25:19.000Z</time>
      </trkpt>
      <trkpt lat="45.32987" lon="6.19522">
        <ele>2047.4000244141</ele>
        <time>2014-03-02T09:25:20.000Z</time>
      </trkpt>
      <trkpt lat="45.32987" lon="6.19521">
        <ele>2047.5999755859</ele>
        <time>2014-03-02T09:25:21.000Z</time>
      </trkpt>
      <trkpt lat="45.32987" lon="6.1952">
        <ele>2047.5999755859</ele>
        <time>2014-03-02T09:25:22.000Z</time>
      </trkpt>
      <trkpt lat="45.32986" lon="6.19519">
        <ele>2047.8000488281</ele>
        <time>2014-03-02T09:25:23.000Z</time>
      </trkpt>
      <trkpt lat="45.32986" lon="6.19519">
        <ele>2048</ele>
        <time>2014-03-02T09:25:24.000Z</time>
      </trkpt>
      <trkpt lat="45.32987" lon="6.19518">
        <ele>2048.1999511719</ele>
        <time>2014-03-02T09:25:25.000Z</time>
      </trkpt>
      <trkpt lat="45.32987" lon="6.19517">
        <ele>2048.3999023438</ele>
        <time>2014-03-02T09:25:26.000Z</time>
      </trkpt>
      <trkpt lat="45.32987" lon="6.19515">
        <ele>2048.6000976562</ele>
        <time>2014-03-02T09:25:27.000Z</time>
      </trkpt>
      <trkpt lat="45.32987" lon="6.19514">
        <ele>2048.8000488281</ele>
        <time>2014-03-02T09:25:28.000Z</time>
      </trkpt>
      <trkpt lat="45.32986" lon="6.19513">
        <ele>2049</ele>
        <time>2014-03-02T09:25:29.000Z</time>
      </trkpt>
      <trkpt lat="45.32986" lon="6.19513">
        <ele>2049</ele>
        <time>2014-03-02T09:25:30.000Z</time>
      </trkpt>
      <trkpt lat="45.32986" lon="6.19513">
        <ele>2049</ele>
        <time>2014-03-02T09:25:31.000Z</time>
      </trkpt>
      <trkpt lat="45.32986" lon="6.19513">
        <ele>2049</ele>
        <time>2014-03-02T09:25:32.000Z</time>
      </trkpt>
      <trkpt lat="45.32986" lon="6.19513">
        <ele>2049</ele>
        <time>2014-03-02T09:25:33.000Z</time>
      </trkpt>
      <trkpt lat="45.32986" lon="6.19513">
        <ele>2049</ele>
        <time>2014-03-02T09:25:34.000Z</time>
      </trkpt>
      <trkpt lat="45.32986" lon="6.19513">
        <ele>2049</ele>
        <time>2014-03-02T09:25:35.000Z</time>
      </trkpt>
      <trkpt lat="45.32986" lon="6.19513">
        <ele>2049</ele>
        <time>2014-03-02T09:25:36.000Z</time>
      </trkpt>
      <trkpt lat="45.32986" lon="6.19513">
        <ele>2049</ele>
        <time>2014-03-02T09:25:37.000Z</time>
      </trkpt>
      <trkpt lat="45.32986" lon="6.19513">
        <ele>2049</ele>
        <time>2014-03-02T09:25:38.000Z</time>
      </trkpt>
      <trkpt lat="45.32986" lon="6.19513">
        <ele>2049</ele>
        <time>2014-03-02T09:25:39.000Z</time>
      </trkpt>
      <trkpt lat="45.32987" lon="6.19513">
        <ele>2049</ele>
        <time>2014-03-02T09:25:40.000Z</time>
      </trkpt>
      <trkpt lat="45.32987" lon="6.19512">
        <ele>2049.3999023438</ele>
        <time>2014-03-02T09:25:41.000Z</time>
      </trkpt>
      <trkpt lat="45.32988" lon="6.19512">
        <ele>2049.8000488281</ele>
        <time>2014-03-02T09:25:42.000Z</time>
      </trkpt>
      <trkpt lat="45.32989" lon="6.19512">
        <ele>2050.1999511719</ele>
        <time>2014-03-02T09:25:43.000Z</time>
      </trkpt>
      <trkpt lat="45.32989" lon="6.19512">
        <ele>2050.3999023438</ele>
        <time>2014-03-02T09:25:44.000Z</time>
      </trkpt>
      <trkpt lat="45.3299" lon="6.19511">
        <ele>2050.8000488281</ele>
        <time>2014-03-02T09:25:45.000Z</time>
      </trkpt>
      <trkpt lat="45.32991" lon="6.19511">
        <ele>2051</ele>
        <time>2014-03-02T09:25:46.000Z</time>
      </trkpt>
      <trkpt lat="45.32992" lon="6.19511">
        <ele>2051.3999023438</ele>
        <time>2014-03-02T09:25:47.000Z</time>
      </trkpt>
      <trkpt lat="45.32992" lon="6.19511">
        <ele>2051.6000976562</ele>
        <time>2014-03-02T09:25:48.000Z</time>
      </trkpt>
      <trkpt lat="45.32993" lon="6.19511">
        <ele>2051.8000488281</ele>
        <time>2014-03-02T09:25:49.000Z</time>
      </trkpt>
      <trkpt lat="45.32994" lon="6.19511">
        <ele>2052.1999511719</ele>
        <time>2014-03-02T09:25:50.000Z</time>
      </trkpt>
      <trkpt lat="45.32994" lon="6.19511">
        <ele>2052.3999023438</ele>
        <time>2014-03-02T09:25:51.000Z</time>
      </trkpt>
      <trkpt lat="45.32995" lon="6.19512">
        <ele>2052.6000976562</ele>
        <time>2014-03-02T09:25:52.000Z</time>
      </trkpt>
      <trkpt lat="45.32996" lon="6.19511">
        <ele>2052.8000488281</ele>
        <time>2014-03-02T09:25:53.000Z</time>
      </trkpt>
      <trkpt lat="45.32996" lon="6.19511">
        <ele>2053</ele>
        <time>2014-03-02T09:25:54.000Z</time>
      </trkpt>
      <trkpt lat="45.32997" lon="6.19511">
        <ele>2053.3999023438</ele>
        <time>2014-03-02T09:25:55.000Z</time>
      </trkpt>
      <trkpt lat="45.32998" lon="6.19511">
        <ele>2053.6000976562</ele>
        <time>2014-03-02T09:25:56.000Z</time>
      </trkpt>
      <trkpt lat="45.32998" lon="6.19511">
        <ele>2053.8000488281</ele>
        <time>2014-03-02T09:25:57.000Z</time>
      </trkpt>
      <trkpt lat="45.32999" lon="6.19511">
        <ele>2053.8000488281</ele>
        <time>2014-03-02T09:25:58.000Z</time>
      </trkpt>
      <trkpt lat="45.33" lon="6.1951">
        <ele>2054</ele>
        <time>2014-03-02T09:25:59.000Z</time>
      </trkpt>
      <trkpt lat="45.33" lon="6.1951">
        <ele>2054.1999511719</ele>
        <time>2014-03-02T09:26:00.000Z</time>
      </trkpt>
      <trkpt lat="45.33" lon="6.1951">
        <ele>2054.1999511719</ele>
        <time>2014-03-02T09:26:01.000Z</time>
      </trkpt>
      <trkpt lat="45.33" lon="6.1951">
        <ele>2054.1999511719</ele>
        <time>2014-03-02T09:26:02.000Z</time>
      </trkpt>
      <trkpt lat="45.33" lon="6.1951">
        <ele>2054.1999511719</ele>
        <time>2014-03-02T09:26:03.000Z</time>
      </trkpt>
      <trkpt lat="45.33" lon="6.1951">
        <ele>2054.1999511719</ele>
        <time>2014-03-02T09:26:04.000Z</time>
      </trkpt>
      <trkpt lat="45.33" lon="6.1951">
        <ele>2054.1999511719</ele>
        <time>2014-03-02T09:26:05.000Z</time>
      </trkpt>
      <trkpt lat="45.33" lon="6.1951">
        <ele>2054.1999511719</ele>
        <time>2014-03-02T09:26:06.000Z</time>
      </trkpt>
      <trkpt lat="45.33" lon="6.1951">
        <ele>2054.1999511719</ele>
        <time>2014-03-02T09:26:07.000Z</time>
      </trkpt>
      <trkpt lat="45.33" lon="6.1951">
        <ele>2054.1999511719</ele>
        <time>2014-03-02T09:26:08.000Z</time>
      </trkpt>
      <trkpt lat="45.33" lon="6.1951">
        <ele>2054.1999511719</ele>
        <time>2014-03-02T09:26:09.000Z</time>
      </trkpt>
      <trkpt lat="45.33" lon="6.1951">
        <ele>2054.1999511719</ele>
        <time>2014-03-02T09:26:10.000Z</time>
      </trkpt>
      <trkpt lat="45.33" lon="6.1951">
        <ele>2054.1999511719</ele>
        <time>2014-03-02T09:26:11.000Z</time>
      </trkpt>
      <trkpt lat="45.33" lon="6.1951">
        <ele>2054.1999511719</ele>
        <time>2014-03-02T09:26:12.000Z</time>
      </trkpt>
      <trkpt lat="45.33" lon="6.1951">
        <ele>2054.1999511719</ele>
        <time>2014-03-02T09:26:13.000Z</time>
      </trkpt>
      <trkpt lat="45.33" lon="6.1951">
        <ele>2054.1999511719</ele>
        <time>2014-03-02T09:26:14.000Z</time>
      </trkpt>
      <trkpt lat="45.33" lon="6.1951">
        <ele>2054.1999511719</ele>
        <time>2014-03-02T09:26:15.000Z</time>
      </trkpt>
      <trkpt lat="45.33" lon="6.1951">
        <ele>2054.1999511719</ele>
        <time>2014-03-02T09:26:16.000Z</time>
      </trkpt>
      <trkpt lat="45.33" lon="6.1951">
        <ele>2054.1999511719</ele>
        <time>2014-03-02T09:26:17.000Z</time>
      </trkpt>
      <trkpt lat="45.33" lon="6.1951">
        <ele>2054.1999511719</ele>
        <time>2014-03-02T09:26:18.000Z</time>
      </trkpt>
      <trkpt lat="45.33" lon="6.1951">
        <ele>2054.1999511719</ele>
        <time>2014-03-02T09:26:19.000Z</time>
      </trkpt>
      <trkpt lat="45.33" lon="6.1951">
        <ele>2054.1999511719</ele>
        <time>2014-03-02T09:26:20.000Z</time>
      </trkpt>
      <trkpt lat="45.33" lon="6.1951">
        <ele>2054.1999511719</ele>
        <time>2014-03-02T09:26:21.000Z</time>
      </trkpt>
      <trkpt lat="45.33" lon="6.1951">
        <ele>2054.1999511719</ele>
        <time>2014-03-02T09:26:22.000Z</time>
      </trkpt>
      <trkpt lat="45.33" lon="6.1951">
        <ele>2054.1999511719</ele>
        <time>2014-03-02T09:26:23.000Z</time>
      </trkpt>
      <trkpt lat="45.33" lon="6.1951">
        <ele>2054.1999511719</ele>
        <time>2014-03-02T09:26:24.000Z</time>
      </trkpt>
      <trkpt lat="45.33" lon="6.1951">
        <ele>2054.1999511719</ele>
        <time>2014-03-02T09:26:25.000Z</time>
      </trkpt>
      <trkpt lat="45.33" lon="6.1951">
        <ele>2054.1999511719</ele>
        <time>2014-03-02T09:26:26.000Z</time>
      </trkpt>
      <trkpt lat="45.33" lon="6.1951">
        <ele>2054.1999511719</ele>
        <time>2014-03-02T09:26:27.000Z</time>
      </trkpt>
      <trkpt lat="45.33" lon="6.1951">
        <ele>2054.1999511719</ele>
        <time>2014-03-02T09:26:28.000Z</time>
      </trkpt>
      <trkpt lat="45.33" lon="6.1951">
        <ele>2054.1999511719</ele>
        <time>2014-03-02T09:26:29.000Z</time>
      </trkpt>
      <trkpt lat="45.33" lon="6.1951">
        <ele>2054.1999511719</ele>
        <time>2014-03-02T09:26:30.000Z</time>
      </trkpt>
      <trkpt lat="45.33" lon="6.1951">
        <ele>2054.1999511719</ele>
        <time>2014-03-02T09:26:31.000Z</time>
      </trkpt>
      <trkpt lat="45.33" lon="6.1951">
        <ele>2054.1999511719</ele>
        <time>2014-03-02T09:26:32.000Z</time>
      </trkpt>
      <trkpt lat="45.33" lon="6.1951">
        <ele>2054.1999511719</ele>
        <time>2014-03-02T09:26:33.000Z</time>
      </trkpt>
      <trkpt lat="45.33" lon="6.1951">
        <ele>2054.1999511719</ele>
        <time>2014-03-02T09:26:34.000Z</time>
      </trkpt>
      <trkpt lat="45.33" lon="6.1951">
        <ele>2054.1999511719</ele>
        <time>2014-03-02T09:26:35.000Z</time>
      </trkpt>
      <trkpt lat="45.33" lon="6.1951">
        <ele>2054.1999511719</ele>
        <time>2014-03-02T09:26:36.000Z</time>
      </trkpt>
      <trkpt lat="45.33" lon="6.1951">
        <ele>2054.1999511719</ele>
        <time>2014-03-02T09:26:37.000Z</time>
      </trkpt>
      <trkpt lat="45.33" lon="6.1951">
        <ele>2054.1999511719</ele>
        <time>2014-03-02T09:26:38.000Z</time>
      </trkpt>
      <trkpt lat="45.33" lon="6.1951">
        <ele>2054.1999511719</ele>
        <time>2014-03-02T09:26:39.000Z</time>
      </trkpt>
      <trkpt lat="45.33001" lon="6.19509">
        <ele>2054.3999023438</ele>
        <time>2014-03-02T09:26:40.000Z</time>
      </trkpt>
      <trkpt lat="45.33001" lon="6.19509">
        <ele>2054.3999023438</ele>
        <time>2014-03-02T09:26:41.000Z</time>
      </trkpt>
      <trkpt lat="45.33001" lon="6.19509">
        <ele>2054.3999023438</ele>
        <time>2014-03-02T09:26:42.000Z</time>
      </trkpt>
      <trkpt lat="45.33001" lon="6.19509">
        <ele>2054.3999023438</ele>
        <time>2014-03-02T09:26:43.000Z</time>
      </trkpt>
      <trkpt lat="45.33001" lon="6.19509">
        <ele>2054.3999023438</ele>
        <time>2014-03-02T09:26:44.000Z</time>
      </trkpt>
      <trkpt lat="45.33001" lon="6.19509">
        <ele>2054.3999023438</ele>
        <time>2014-03-02T09:26:45.000Z</time>
      </trkpt>
      <trkpt lat="45.33001" lon="6.19509">
        <ele>2054.3999023438</ele>
        <time>2014-03-02T09:26:46.000Z</time>
      </trkpt>
      <trkpt lat="45.33001" lon="6.19507">
        <ele>2054.6000976562</ele>
        <time>2014-03-02T09:26:47.000Z</time>
      </trkpt>
      <trkpt lat="45.33003" lon="6.19504">
        <ele>2055</ele>
        <time>2014-03-02T09:26:48.000Z</time>
      </trkpt>
      <trkpt lat="45.33003" lon="6.19503">
        <ele>2055.1999511719</ele>
        <time>2014-03-02T09:26:49.000Z</time>
      </trkpt>
      <trkpt lat="45.33004" lon="6.19502">
        <ele>2055.3999023438</ele>
        <time>2014-03-02T09:26:50.000Z</time>
      </trkpt>
      <trkpt lat="45.33004" lon="6.19501">
        <ele>2055.6000976562</ele>
        <time>2014-03-02T09:26:51.000Z</time>
      </trkpt>
      <trkpt lat="45.33005" lon="6.195">
        <ele>2055.8000488281</ele>
        <time>2014-03-02T09:26:52.000Z</time>
      </trkpt>
      <trkpt lat="45.33006" lon="6.19499">
        <ele>2056</ele>
        <time>2014-03-02T09:26:53.000Z</time>
      </trkpt>
      <trkpt lat="45.33007" lon="6.19498">
        <ele>2056.3999023438</ele>
        <time>2014-03-02T09:26:54.000Z</time>
      </trkpt>
      <trkpt lat="45.33007" lon="6.19497">
        <ele>2056.6000976562</ele>
        <time>2014-03-02T09:26:55.000Z</time>
      </trkpt>
      <trkpt lat="45.33007" lon="6.19497">
        <ele>2056.6000976562</ele>
        <time>2014-03-02T09:26:56.000Z</time>
      </trkpt>
      <trkpt lat="45.33007" lon="6.19497">
        <ele>2056.6000976562</ele>
        <time>2014-03-02T09:26:57.000Z</time>
      </trkpt>
      <trkpt lat="45.33007" lon="6.19497">
        <ele>2056.6000976562</ele>
        <time>2014-03-02T09:26:58.000Z</time>
      </trkpt>
      <trkpt lat="45.33007" lon="6.19497">
        <ele>2056.6000976562</ele>
        <time>2014-03-02T09:26:59.000Z</time>
      </trkpt>
      <trkpt lat="45.33009" lon="6.19496">
        <ele>2057</ele>
        <time>2014-03-02T09:27:00.000Z</time>
      </trkpt>
      <trkpt lat="45.3301" lon="6.19495">
        <ele>2057.1999511719</ele>
        <time>2014-03-02T09:27:01.000Z</time>
      </trkpt>
      <trkpt lat="45.33011" lon="6.19494">
        <ele>2057.6000976562</ele>
        <time>2014-03-02T09:27:02.000Z</time>
      </trkpt>
      <trkpt lat="45.33012" lon="6.19493">
        <ele>2058</ele>
        <time>2014-03-02T09:27:03.000Z</time>
      </trkpt>
      <trkpt lat="45.33013" lon="6.19492">
        <ele>2058.1999511719</ele>
        <time>2014-03-02T09:27:04.000Z</time>
      </trkpt>
      <trkpt lat="45.33014" lon="6.19491">
        <ele>2058.3999023438</ele>
        <time>2014-03-02T09:27:05.000Z</time>
      </trkpt>
      <trkpt lat="45.33015" lon="6.19491">
        <ele>2058.8000488281</ele>
        <time>2014-03-02T09:27:06.000Z</time>
      </trkpt>
      <trkpt lat="45.33015" lon="6.19491">
        <ele>2058.8000488281</ele>
        <time>2014-03-02T09:27:07.000Z</time>
      </trkpt>
      <trkpt lat="45.33015" lon="6.19491">
        <ele>2058.8000488281</ele>
        <time>2014-03-02T09:27:08.000Z</time>
      </trkpt>
      <trkpt lat="45.33015" lon="6.19491">
        <ele>2058.8000488281</ele>
        <time>2014-03-02T09:27:09.000Z</time>
      </trkpt>
      <trkpt lat="45.33015" lon="6.19491">
        <ele>2058.8000488281</ele>
        <time>2014-03-02T09:27:10.000Z</time>
      </trkpt>
      <trkpt lat="45.33015" lon="6.19491">
        <ele>2058.8000488281</ele>
        <time>2014-03-02T09:27:11.000Z</time>
      </trkpt>
      <trkpt lat="45.33015" lon="6.19491">
        <ele>2058.8000488281</ele>
        <time>2014-03-02T09:27:12.000Z</time>
      </trkpt>
      <trkpt lat="45.33015" lon="6.19491">
        <ele>2058.8000488281</ele>
        <time>2014-03-02T09:27:13.000Z</time>
      </trkpt>
      <trkpt lat="45.33015" lon="6.19491">
        <ele>2058.8000488281</ele>
        <time>2014-03-02T09:27:14.000Z</time>
      </trkpt>
      <trkpt lat="45.33015" lon="6.19491">
        <ele>2058.8000488281</ele>
        <time>2014-03-02T09:27:15.000Z</time>
      </trkpt>
      <trkpt lat="45.33015" lon="6.19491">
        <ele>2058.8000488281</ele>
        <time>2014-03-02T09:27:16.000Z</time>
      </trkpt>
      <trkpt lat="45.33016" lon="6.1949">
        <ele>2058.8000488281</ele>
        <time>2014-03-02T09:27:17.000Z</time>
      </trkpt>
      <trkpt lat="45.33017" lon="6.1949">
        <ele>2059.1999511719</ele>
        <time>2014-03-02T09:27:18.000Z</time>
      </trkpt>
      <trkpt lat="45.33018" lon="6.19489">
        <ele>2059.3999023438</ele>
        <time>2014-03-02T09:27:19.000Z</time>
      </trkpt>
      <trkpt lat="45.3302" lon="6.19488">
        <ele>2059.8000488281</ele>
        <time>2014-03-02T09:27:20.000Z</time>
      </trkpt>
      <trkpt lat="45.33021" lon="6.19487">
        <ele>2060.1999511719</ele>
        <time>2014-03-02T09:27:21.000Z</time>
      </trkpt>
      <trkpt lat="45.33022" lon="6.19487">
        <ele>2060.6000976562</ele>
        <time>2014-03-02T09:27:22.000Z</time>
      </trkpt>
      <trkpt lat="45.33023" lon="6.19486">
        <ele>2060.8000488281</ele>
        <time>2014-03-02T09:27:23.000Z</time>
      </trkpt>
      <trkpt lat="45.33025" lon="6.19485">
        <ele>2061.3999023438</ele>
        <time>2014-03-02T09:27:24.000Z</time>
      </trkpt>
      <trkpt lat="45.33026" lon="6.19485">
        <ele>2061.6000976562</ele>
        <time>2014-03-02T09:27:25.000Z</time>
      </trkpt>
      <trkpt lat="45.33027" lon="6.19484">
        <ele>2061.8000488281</ele>
        <time>2014-03-02T09:27:26.000Z</time>
      </trkpt>
      <trkpt lat="45.33028" lon="6.19484">
        <ele>2062.1999511719</ele>
        <time>2014-03-02T09:27:27.000Z</time>
      </trkpt>
      <trkpt lat="45.33029" lon="6.19483">
        <ele>2062.3999023438</ele>
        <time>2014-03-02T09:27:28.000Z</time>
      </trkpt>
      <trkpt lat="45.3303" lon="6.19482">
        <ele>2062.6000976562</ele>
        <time>2014-03-02T09:27:29.000Z</time>
      </trkpt>
      <trkpt lat="45.33031" lon="6.19482">
        <ele>2062.8000488281</ele>
        <time>2014-03-02T09:27:30.000Z</time>
      </trkpt>
      <trkpt lat="45.33032" lon="6.19481">
        <ele>2063.1999511719</ele>
        <time>2014-03-02T09:27:31.000Z</time>
      </trkpt>
      <trkpt lat="45.33033" lon="6.1948">
        <ele>2063.6000976562</ele>
        <time>2014-03-02T09:27:32.000Z</time>
      </trkpt>
      <trkpt lat="45.33035" lon="6.19479">
        <ele>2064</ele>
        <time>2014-03-02T09:27:33.000Z</time>
      </trkpt>
      <trkpt lat="45.33036" lon="6.19479">
        <ele>2064.1999511719</ele>
        <time>2014-03-02T09:27:34.000Z</time>
      </trkpt>
      <trkpt lat="45.33036" lon="6.19479">
        <ele>2064.3999023438</ele>
        <time>2014-03-02T09:27:35.000Z</time>
      </trkpt>
      <trkpt lat="45.33037" lon="6.19478">
        <ele>2064.6000976562</ele>
        <time>2014-03-02T09:27:36.000Z</time>
      </trkpt>
      <trkpt lat="45.33037" lon="6.19478">
        <ele>2064.6000976562</ele>
        <time>2014-03-02T09:27:37.000Z</time>
      </trkpt>
      <trkpt lat="45.33037" lon="6.19478">
        <ele>2064.6000976562</ele>
        <time>2014-03-02T09:27:38.000Z</time>
      </trkpt>
      <trkpt lat="45.33037" lon="6.19478">
        <ele>2064.6000976562</ele>
        <time>2014-03-02T09:27:39.000Z</time>
      </trkpt>
      <trkpt lat="45.33037" lon="6.19478">
        <ele>2064.6000976562</ele>
        <time>2014-03-02T09:27:40.000Z</time>
      </trkpt>
      <trkpt lat="45.33037" lon="6.19478">
        <ele>2064.6000976562</ele>
        <time>2014-03-02T09:27:41.000Z</time>
      </trkpt>
      <trkpt lat="45.33038" lon="6.19478">
        <ele>2064.8000488281</ele>
        <time>2014-03-02T09:27:42.000Z</time>
      </trkpt>
      <trkpt lat="45.33039" lon="6.19478">
        <ele>2065.1999511719</ele>
        <time>2014-03-02T09:27:43.000Z</time>
      </trkpt>
      <trkpt lat="45.3304" lon="6.19477">
        <ele>2065.6000976562</ele>
        <time>2014-03-02T09:27:44.000Z</time>
      </trkpt>
      <trkpt lat="45.33041" lon="6.19476">
        <ele>2066</ele>
        <time>2014-03-02T09:27:45.000Z</time>
      </trkpt>
      <trkpt lat="45.33042" lon="6.19475">
        <ele>2066.6000976562</ele>
        <time>2014-03-02T09:27:46.000Z</time>
      </trkpt>
      <trkpt lat="45.33043" lon="6.19475">
        <ele>2067</ele>
        <time>2014-03-02T09:27:47.000Z</time>
      </trkpt>
      <trkpt lat="45.33044" lon="6.19474">
        <ele>2067.1999511719</ele>
        <time>2014-03-02T09:27:48.000Z</time>
      </trkpt>
      <trkpt lat="45.33045" lon="6.19473">
        <ele>2067.6000976562</ele>
        <time>2014-03-02T09:27:49.000Z</time>
      </trkpt>
      <trkpt lat="45.33046" lon="6.19473">
        <ele>2067.8000488281</ele>
        <time>2014-03-02T09:27:50.000Z</time>
      </trkpt>
      <trkpt lat="45.33047" lon="6.19472">
        <ele>2068</ele>
        <time>2014-03-02T09:27:51.000Z</time>
      </trkpt>
      <trkpt lat="45.33047" lon="6.19471">
        <ele>2068.3999023438</ele>
        <time>2014-03-02T09:27:52.000Z</time>
      </trkpt>
      <trkpt lat="45.33047" lon="6.19471">
        <ele>2068.3999023438</ele>
        <time>2014-03-02T09:27:53.000Z</time>
      </trkpt>
      <trkpt lat="45.33047" lon="6.19471">
        <ele>2068.3999023438</ele>
        <time>2014-03-02T09:27:54.000Z</time>
      </trkpt>
      <trkpt lat="45.33047" lon="6.19471">
        <ele>2068.3999023438</ele>
        <time>2014-03-02T09:27:55.000Z</time>
      </trkpt>
      <trkpt lat="45.33047" lon="6.19471">
        <ele>2068.3999023438</ele>
        <time>2014-03-02T09:27:56.000Z</time>
      </trkpt>
      <trkpt lat="45.33049" lon="6.1947">
        <ele>2069</ele>
        <time>2014-03-02T09:27:57.000Z</time>
      </trkpt>
      <trkpt lat="45.33049" lon="6.1947">
        <ele>2069.1999511719</ele>
        <time>2014-03-02T09:27:58.000Z</time>
      </trkpt>
      <trkpt lat="45.3305" lon="6.19469">
        <ele>2069.6000976562</ele>
        <time>2014-03-02T09:27:59.000Z</time>
      </trkpt>
      <trkpt lat="45.33052" lon="6.19469">
        <ele>2070.1999511719</ele>
        <time>2014-03-02T09:28:00.000Z</time>
      </trkpt>
      <trkpt lat="45.33053" lon="6.19468">
        <ele>2070.8000488281</ele>
        <time>2014-03-02T09:28:01.000Z</time>
      </trkpt>
      <trkpt lat="45.33054" lon="6.19468">
        <ele>2071.1999511719</ele>
        <time>2014-03-02T09:28:02.000Z</time>
      </trkpt>
      <trkpt lat="45.33055" lon="6.19467">
        <ele>2072</ele>
        <time>2014-03-02T09:28:03.000Z</time>
      </trkpt>
      <trkpt lat="45.33056" lon="6.19467">
        <ele>2072.3999023438</ele>
        <time>2014-03-02T09:28:04.000Z</time>
      </trkpt>
      <trkpt lat="45.33058" lon="6.19466">
        <ele>2073.3999023438</ele>
        <time>2014-03-02T09:28:05.000Z</time>
      </trkpt>
      <trkpt lat="45.33059" lon="6.19466">
        <ele>2073.8000488281</ele>
        <time>2014-03-02T09:28:06.000Z</time>
      </trkpt>
      <trkpt lat="45.3306" lon="6.19465">
        <ele>2074.3999023438</ele>
        <time>2014-03-02T09:28:07.000Z</time>
      </trkpt>
      <trkpt lat="45.33061" lon="6.19465">
        <ele>2074.6000976562</ele>
        <time>2014-03-02T09:28:08.000Z</time>
      </trkpt>
      <trkpt lat="45.33062" lon="6.19465">
        <ele>2075</ele>
        <time>2014-03-02T09:28:09.000Z</time>
      </trkpt>
      <trkpt lat="45.33063" lon="6.19464">
        <ele>2075.6000976562</ele>
        <time>2014-03-02T09:28:10.000Z</time>
      </trkpt>
      <trkpt lat="45.33064" lon="6.19464">
        <ele>2076</ele>
        <time>2014-03-02T09:28:11.000Z</time>
      </trkpt>
      <trkpt lat="45.33065" lon="6.19464">
        <ele>2076.6000976562</ele>
        <time>2014-03-02T09:28:12.000Z</time>
      </trkpt>
      <trkpt lat="45.33066" lon="6.19463">
        <ele>2077</ele>
        <time>2014-03-02T09:28:13.000Z</time>
      </trkpt>
      <trkpt lat="45.33067" lon="6.19463">
        <ele>2077.3999023438</ele>
        <time>2014-03-02T09:28:14.000Z</time>
      </trkpt>
      <trkpt lat="45.33069" lon="6.19463">
        <ele>2078.1999511719</ele>
        <time>2014-03-02T09:28:15.000Z</time>
      </trkpt>
      <trkpt lat="45.3307" lon="6.19464">
        <ele>2078.6000976562</ele>
        <time>2014-03-02T09:28:16.000Z</time>
      </trkpt>
      <trkpt lat="45.33071" lon="6.19464">
        <ele>2078.8000488281</ele>
        <time>2014-03-02T09:28:17.000Z</time>
      </trkpt>
      <trkpt lat="45.33071" lon="6.19464">
        <ele>2078.8000488281</ele>
        <time>2014-03-02T09:28:18.000Z</time>
      </trkpt>
      <trkpt lat="45.33071" lon="6.19464">
        <ele>2078.8000488281</ele>
        <time>2014-03-02T09:28:19.000Z</time>
      </trkpt>
      <trkpt lat="45.33071" lon="6.19464">
        <ele>2078.8000488281</ele>
        <time>2014-03-02T09:28:20.000Z</time>
      </trkpt>
      <trkpt lat="45.33071" lon="6.19464">
        <ele>2078.8000488281</ele>
        <time>2014-03-02T09:28:21.000Z</time>
      </trkpt>
      <trkpt lat="45.33071" lon="6.19464">
        <ele>2078.8000488281</ele>
        <time>2014-03-02T09:28:22.000Z</time>
      </trkpt>
      <trkpt lat="45.33071" lon="6.19464">
        <ele>2078.8000488281</ele>
        <time>2014-03-02T09:28:24.000Z</time>
      </trkpt>
      <trkpt lat="45.33071" lon="6.19464">
        <ele>2079</ele>
        <time>2014-03-02T09:28:25.000Z</time>
      </trkpt>
      <trkpt lat="45.33071" lon="6.19464">
        <ele>2079</ele>
        <time>2014-03-02T09:28:26.000Z</time>
      </trkpt>
      <trkpt lat="45.33072" lon="6.19463">
        <ele>2079.1999511719</ele>
        <time>2014-03-02T09:28:27.000Z</time>
      </trkpt>
      <trkpt lat="45.33072" lon="6.19463">
        <ele>2079.1999511719</ele>
        <time>2014-03-02T09:28:28.000Z</time>
      </trkpt>
      <trkpt lat="45.33072" lon="6.19462">
        <ele>2079.6000976562</ele>
        <time>2014-03-02T09:28:29.000Z</time>
      </trkpt>
      <trkpt lat="45.33073" lon="6.19462">
        <ele>2079.8000488281</ele>
        <time>2014-03-02T09:28:30.000Z</time>
      </trkpt>
      <trkpt lat="45.33073" lon="6.19461">
        <ele>2080.1999511719</ele>
        <time>2014-03-02T09:28:31.000Z</time>
      </trkpt>
      <trkpt lat="45.33074" lon="6.19461">
        <ele>2080.3999023438</ele>
        <time>2014-03-02T09:28:32.000Z</time>
      </trkpt>
      <trkpt lat="45.33074" lon="6.1946">
        <ele>2080.8000488281</ele>
        <time>2014-03-02T09:28:33.000Z</time>
      </trkpt>
      <trkpt lat="45.33074" lon="6.1946">
        <ele>2080.8000488281</ele>
        <time>2014-03-02T09:28:34.000Z</time>
      </trkpt>
      <trkpt lat="45.33074" lon="6.1946">
        <ele>2080.8000488281</ele>
        <time>2014-03-02T09:28:35.000Z</time>
      </trkpt>
      <trkpt lat="45.33074" lon="6.1946">
        <ele>2080.8000488281</ele>
        <time>2014-03-02T09:28:36.000Z</time>
      </trkpt>
      <trkpt lat="45.33074" lon="6.1946">
        <ele>2080.8000488281</ele>
        <time>2014-03-02T09:28:37.000Z</time>
      </trkpt>
      <trkpt lat="45.33074" lon="6.1946">
        <ele>2080.8000488281</ele>
        <time>2014-03-02T09:28:38.000Z</time>
      </trkpt>
      <trkpt lat="45.33074" lon="6.1946">
        <ele>2080.8000488281</ele>
        <time>2014-03-02T09:28:39.000Z</time>
      </trkpt>
      <trkpt lat="45.33074" lon="6.1946">
        <ele>2080.8000488281</ele>
        <time>2014-03-02T09:28:40.000Z</time>
      </trkpt>
      <trkpt lat="45.33074" lon="6.1946">
        <ele>2080.8000488281</ele>
        <time>2014-03-02T09:28:41.000Z</time>
      </trkpt>
      <trkpt lat="45.33074" lon="6.1946">
        <ele>2080.8000488281</ele>
        <time>2014-03-02T09:28:42.000Z</time>
      </trkpt>
      <trkpt lat="45.33074" lon="6.1946">
        <ele>2080.8000488281</ele>
        <time>2014-03-02T09:28:44.000Z</time>
      </trkpt>
      <trkpt lat="45.33074" lon="6.1946">
        <ele>2080.8000488281</ele>
        <time>2014-03-02T09:28:46.000Z</time>
      </trkpt>
      <trkpt lat="45.33074" lon="6.1946">
        <ele>2080.8000488281</ele>
        <time>2014-03-02T09:28:47.000Z</time>
      </trkpt>
      <trkpt lat="45.33074" lon="6.1946">
        <ele>2080.8000488281</ele>
        <time>2014-03-02T09:28:48.000Z</time>
      </trkpt>
      <trkpt lat="45.33074" lon="6.1946">
        <ele>2080.8000488281</ele>
        <time>2014-03-02T09:28:49.000Z</time>
      </trkpt>
      <trkpt lat="45.33074" lon="6.1946">
        <ele>2080.8000488281</ele>
        <time>2014-03-02T09:28:50.000Z</time>
      </trkpt>
      <trkpt lat="45.33074" lon="6.1946">
        <ele>2080.8000488281</ele>
        <time>2014-03-02T09:28:51.000Z</time>
      </trkpt>
      <trkpt lat="45.33074" lon="6.1946">
        <ele>2080.8000488281</ele>
        <time>2014-03-02T09:28:52.000Z</time>
      </trkpt>
      <trkpt lat="45.33074" lon="6.1946">
        <ele>2080.8000488281</ele>
        <time>2014-03-02T09:28:53.000Z</time>
      </trkpt>
      <trkpt lat="45.33074" lon="6.1946">
        <ele>2080.8000488281</ele>
        <time>2014-03-02T09:28:54.000Z</time>
      </trkpt>
      <trkpt lat="45.33074" lon="6.1946">
        <ele>2080.8000488281</ele>
        <time>2014-03-02T09:28:55.000Z</time>
      </trkpt>
      <trkpt lat="45.33074" lon="6.1946">
        <ele>2080.8000488281</ele>
        <time>2014-03-02T09:28:57.000Z</time>
      </trkpt>
      <trkpt lat="45.33074" lon="6.1946">
        <ele>2080.8000488281</ele>
        <time>2014-03-02T09:28:58.000Z</time>
      </trkpt>
      <trkpt lat="45.33074" lon="6.1946">
        <ele>2080.8000488281</ele>
        <time>2014-03-02T09:28:59.000Z</time>
      </trkpt>
      <trkpt lat="45.33074" lon="6.1946">
        <ele>2080.8000488281</ele>
        <time>2014-03-02T09:29:00.000Z</time>
      </trkpt>
      <trkpt lat="45.33074" lon="6.1946">
        <ele>2080.8000488281</ele>
        <time>2014-03-02T09:29:01.000Z</time>
      </trkpt>
      <trkpt lat="45.33074" lon="6.1946">
        <ele>2080.8000488281</ele>
        <time>2014-03-02T09:29:02.000Z</time>
      </trkpt>
      <trkpt lat="45.33074" lon="6.1946">
        <ele>2080.8000488281</ele>
        <time>2014-03-02T09:29:03.000Z</time>
      </trkpt>
      <trkpt lat="45.33074" lon="6.1946">
        <ele>2080.8000488281</ele>
        <time>2014-03-02T09:29:04.000Z</time>
      </trkpt>
      <trkpt lat="45.33074" lon="6.1946">
        <ele>2080.8000488281</ele>
        <time>2014-03-02T09:29:08.000Z</time>
      </trkpt>
      <trkpt lat="45.33074" lon="6.1946">
        <ele>2080.8000488281</ele>
        <time>2014-03-02T09:29:09.000Z</time>
      </trkpt>
      <trkpt lat="45.33074" lon="6.1946">
        <ele>2080.8000488281</ele>
        <time>2014-03-02T09:29:10.000Z</time>
      </trkpt>
      <trkpt lat="45.33074" lon="6.1946">
        <ele>2080.8000488281</ele>
        <time>2014-03-02T09:29:11.000Z</time>
      </trkpt>
      <trkpt lat="45.33074" lon="6.1946">
        <ele>2080.8000488281</ele>
        <time>2014-03-02T09:29:12.000Z</time>
      </trkpt>
      <trkpt lat="45.33075" lon="6.1946">
        <ele>2081</ele>
        <time>2014-03-02T09:29:13.000Z</time>
      </trkpt>
      <trkpt lat="45.33075" lon="6.1946">
        <ele>2081</ele>
        <time>2014-03-02T09:29:14.000Z</time>
      </trkpt>
      <trkpt lat="45.33075" lon="6.1946">
        <ele>2081</ele>
        <time>2014-03-02T09:29:15.000Z</time>
      </trkpt>
      <trkpt lat="45.33075" lon="6.1946">
        <ele>2081</ele>
        <time>2014-03-02T09:29:16.000Z</time>
      </trkpt>
      <trkpt lat="45.33075" lon="6.1946">
        <ele>2081</ele>
        <time>2014-03-02T09:29:17.000Z</time>
      </trkpt>
      <trkpt lat="45.33075" lon="6.1946">
        <ele>2081</ele>
        <time>2014-03-02T09:29:18.000Z</time>
      </trkpt>
      <trkpt lat="45.33075" lon="6.1946">
        <ele>2081</ele>
        <time>2014-03-02T09:29:19.000Z</time>
      </trkpt>
      <trkpt lat="45.33075" lon="6.1946">
        <ele>2081</ele>
        <time>2014-03-02T09:29:20.000Z</time>
      </trkpt>
      <trkpt lat="45.33075" lon="6.1946">
        <ele>2081</ele>
        <time>2014-03-02T09:29:21.000Z</time>
      </trkpt>
      <trkpt lat="45.33075" lon="6.1946">
        <ele>2081</ele>
        <time>2014-03-02T09:29:22.000Z</time>
      </trkpt>
      <trkpt lat="45.33075" lon="6.1946">
        <ele>2081</ele>
        <time>2014-03-02T09:29:23.000Z</time>
      </trkpt>
      <trkpt lat="45.33075" lon="6.1946">
        <ele>2081</ele>
        <time>2014-03-02T09:29:24.000Z</time>
      </trkpt>
      <trkpt lat="45.33075" lon="6.1946">
        <ele>2081</ele>
        <time>2014-03-02T09:29:25.000Z</time>
      </trkpt>
      <trkpt lat="45.33075" lon="6.1946">
        <ele>2081</ele>
        <time>2014-03-02T09:29:26.000Z</time>
      </trkpt>
      <trkpt lat="45.33075" lon="6.1946">
        <ele>2081</ele>
        <time>2014-03-02T09:29:27.000Z</time>
      </trkpt>
      <trkpt lat="45.33075" lon="6.1946">
        <ele>2081</ele>
        <time>2014-03-02T09:29:28.000Z</time>
      </trkpt>
      <trkpt lat="45.33075" lon="6.1946">
        <ele>2081</ele>
        <time>2014-03-02T09:29:29.000Z</time>
      </trkpt>
      <trkpt lat="45.33075" lon="6.1946">
        <ele>2081</ele>
        <time>2014-03-02T09:29:31.000Z</time>
      </trkpt>
      <trkpt lat="45.33075" lon="6.1946">
        <ele>2081</ele>
        <time>2014-03-02T09:29:32.000Z</time>
      </trkpt>
      <trkpt lat="45.33075" lon="6.1946">
        <ele>2081</ele>
        <time>2014-03-02T09:29:33.000Z</time>
      </trkpt>
      <trkpt lat="45.33075" lon="6.1946">
        <ele>2081</ele>
        <time>2014-03-02T09:29:34.000Z</time>
      </trkpt>
      <trkpt lat="45.33075" lon="6.1946">
        <ele>2081</ele>
        <time>2014-03-02T09:29:35.000Z</time>
      </trkpt>
      <trkpt lat="45.33075" lon="6.1946">
        <ele>2081</ele>
        <time>2014-03-02T09:29:36.000Z</time>
      </trkpt>
      <trkpt lat="45.33075" lon="6.1946">
        <ele>2081</ele>
        <time>2014-03-02T09:29:37.000Z</time>
      </trkpt>
      <trkpt lat="45.33075" lon="6.1946">
        <ele>2081</ele>
        <time>2014-03-02T09:29:38.000Z</time>
      </trkpt>
      <trkpt lat="45.33075" lon="6.1946">
        <ele>2081</ele>
        <time>2014-03-02T09:29:39.000Z</time>
      </trkpt>
      <trkpt lat="45.33075" lon="6.1946">
        <ele>2081</ele>
        <time>2014-03-02T09:29:40.000Z</time>
      </trkpt>
      <trkpt lat="45.33075" lon="6.1946">
        <ele>2081</ele>
        <time>2014-03-02T09:29:41.000Z</time>
      </trkpt>
      <trkpt lat="45.33075" lon="6.1946">
        <ele>2081</ele>
        <time>2014-03-02T09:29:42.000Z</time>
      </trkpt>
      <trkpt lat="45.33075" lon="6.1946">
        <ele>2081</ele>
        <time>2014-03-02T09:29:43.000Z</time>
      </trkpt>
      <trkpt lat="45.33075" lon="6.1946">
        <ele>2081</ele>
        <time>2014-03-02T09:29:44.000Z</time>
      </trkpt>
      <trkpt lat="45.33075" lon="6.1946">
        <ele>2081</ele>
        <time>2014-03-02T09:29:45.000Z</time>
      </trkpt>
      <trkpt lat="45.33075" lon="6.1946">
        <ele>2081</ele>
        <time>2014-03-02T09:29:47.000Z</time>
      </trkpt>
      <trkpt lat="45.33075" lon="6.1946">
        <ele>2081</ele>
        <time>2014-03-02T09:29:48.000Z</time>
      </trkpt>
      <trkpt lat="45.33075" lon="6.1946">
        <ele>2081</ele>
        <time>2014-03-02T09:29:49.000Z</time>
      </trkpt>
      <trkpt lat="45.33075" lon="6.1946">
        <ele>2081</ele>
        <time>2014-03-02T09:29:51.000Z</time>
      </trkpt>
      <trkpt lat="45.33075" lon="6.1946">
        <ele>2081</ele>
        <time>2014-03-02T09:29:52.000Z</time>
      </trkpt>
      <trkpt lat="45.33075" lon="6.1946">
        <ele>2081</ele>
        <time>2014-03-02T09:29:53.000Z</time>
      </trkpt>
      <trkpt lat="45.33077" lon="6.1946">
        <ele>2081.8000488281</ele>
        <time>2014-03-02T09:29:54.000Z</time>
      </trkpt>
      <trkpt lat="45.33077" lon="6.1946">
        <ele>2081.8000488281</ele>
        <time>2014-03-02T09:29:55.000Z</time>
      </trkpt>
      <trkpt lat="45.33077" lon="6.1946">
        <ele>2081.8000488281</ele>
        <time>2014-03-02T09:29:56.000Z</time>
      </trkpt>
      <trkpt lat="45.33077" lon="6.1946">
        <ele>2081.8000488281</ele>
        <time>2014-03-02T09:29:57.000Z</time>
      </trkpt>
      <trkpt lat="45.33077" lon="6.1946">
        <ele>2081.8000488281</ele>
        <time>2014-03-02T09:29:58.000Z</time>
      </trkpt>
      <trkpt lat="45.33077" lon="6.1946">
        <ele>2081.8000488281</ele>
        <time>2014-03-02T09:29:59.000Z</time>
      </trkpt>
      <trkpt lat="45.33077" lon="6.1946">
        <ele>2081.8000488281</ele>
        <time>2014-03-02T09:30:00.000Z</time>
      </trkpt>
      <trkpt lat="45.33077" lon="6.1946">
        <ele>2081.8000488281</ele>
        <time>2014-03-02T09:30:01.000Z</time>
      </trkpt>
      <trkpt lat="45.33077" lon="6.1946">
        <ele>2081.8000488281</ele>
        <time>2014-03-02T09:30:02.000Z</time>
      </trkpt>
      <trkpt lat="45.33077" lon="6.1946">
        <ele>2081.8000488281</ele>
        <time>2014-03-02T09:30:03.000Z</time>
      </trkpt>
      <trkpt lat="45.33077" lon="6.1946">
        <ele>2081.8000488281</ele>
        <time>2014-03-02T09:30:04.000Z</time>
      </trkpt>
      <trkpt lat="45.33077" lon="6.1946">
        <ele>2081.8000488281</ele>
        <time>2014-03-02T09:30:05.000Z</time>
      </trkpt>
      <trkpt lat="45.33077" lon="6.1946">
        <ele>2081.8000488281</ele>
        <time>2014-03-02T09:30:06.000Z</time>
      </trkpt>
      <trkpt lat="45.33077" lon="6.1946">
        <ele>2081.8000488281</ele>
        <time>2014-03-02T09:30:07.000Z</time>
      </trkpt>
      <trkpt lat="45.33077" lon="6.1946">
        <ele>2081.8000488281</ele>
        <time>2014-03-02T09:30:08.000Z</time>
      </trkpt>
      <trkpt lat="45.33084" lon="6.19459">
        <ele>2084.6000976562</ele>
        <time>2014-03-02T09:30:09.000Z</time>
      </trkpt>
      <trkpt lat="45.33089" lon="6.19456">
        <ele>2087.1999511719</ele>
        <time>2014-03-02T09:30:10.000Z</time>
      </trkpt>
      <trkpt lat="45.33094" lon="6.19454">
        <ele>2089.3999023438</ele>
        <time>2014-03-02T09:30:11.000Z</time>
      </trkpt>
      <trkpt lat="45.331" lon="6.19448">
        <ele>2093</ele>
        <time>2014-03-02T09:30:12.000Z</time>
      </trkpt>
      <trkpt lat="45.33108" lon="6.19444">
        <ele>2094.3999023438</ele>
        <time>2014-03-02T09:30:13.000Z</time>
      </trkpt>
      <trkpt lat="45.33114" lon="6.19442">
        <ele>2095.1999511719</ele>
        <time>2014-03-02T09:30:14.000Z</time>
      </trkpt>
      <trkpt lat="45.33114" lon="6.19442">
        <ele>2095.1999511719</ele>
        <time>2014-03-02T09:30:15.000Z</time>
      </trkpt>
      <trkpt lat="45.33114" lon="6.19442">
        <ele>2095.1999511719</ele>
        <time>2014-03-02T09:30:16.000Z</time>
      </trkpt>
      <trkpt lat="45.33114" lon="6.19442">
        <ele>2095.1999511719</ele>
        <time>2014-03-02T09:30:17.000Z</time>
      </trkpt>
      <trkpt lat="45.33114" lon="6.19442">
        <ele>2095.1999511719</ele>
        <time>2014-03-02T09:30:18.000Z</time>
      </trkpt>
      <trkpt lat="45.33118" lon="6.19439">
        <ele>2095.8000488281</ele>
        <time>2014-03-02T09:30:19.000Z</time>
      </trkpt>
      <trkpt lat="45.33118" lon="6.19439">
        <ele>2095.8000488281</ele>
        <time>2014-03-02T09:30:20.000Z</time>
      </trkpt>
      <trkpt lat="45.33121" lon="6.19436">
        <ele>2096.3999023438</ele>
        <time>2014-03-02T09:30:21.000Z</time>
      </trkpt>
      <trkpt lat="45.33125" lon="6.19434">
        <ele>2096.8000488281</ele>
        <time>2014-03-02T09:30:22.000Z</time>
      </trkpt>
      <trkpt lat="45.33127" lon="6.19432">
        <ele>2097</ele>
        <time>2014-03-02T09:30:23.000Z</time>
      </trkpt>
      <trkpt lat="45.33129" lon="6.1943">
        <ele>2097.3999023438</ele>
        <time>2014-03-02T09:30:24.000Z</time>
      </trkpt>
      <trkpt lat="45.33131" lon="6.19429">
        <ele>2097.6000976562</ele>
        <time>2014-03-02T09:30:25.000Z</time>
      </trkpt>
      <trkpt lat="45.33133" lon="6.19427">
        <ele>2098.6000976562</ele>
        <time>2014-03-02T09:30:26.000Z</time>
      </trkpt>
      <trkpt lat="45.33134" lon="6.19426">
        <ele>2099.3999023438</ele>
        <time>2014-03-02T09:30:27.000Z</time>
      </trkpt>
      <trkpt lat="45.33136" lon="6.19425">
        <ele>2100.1999511719</ele>
        <time>2014-03-02T09:30:28.000Z</time>
      </trkpt>
      <trkpt lat="45.33136" lon="6.19425">
        <ele>2100.3999023438</ele>
        <time>2014-03-02T09:30:29.000Z</time>
      </trkpt>
      <trkpt lat="45.33138" lon="6.19424">
        <ele>2100.8000488281</ele>
        <time>2014-03-02T09:30:30.000Z</time>
      </trkpt>
      <trkpt lat="45.3314" lon="6.19422">
        <ele>2101.8000488281</ele>
        <time>2014-03-02T09:30:31.000Z</time>
      </trkpt>
      <trkpt lat="45.3314" lon="6.19421">
        <ele>2102</ele>
        <time>2014-03-02T09:30:32.000Z</time>
      </trkpt>
      <trkpt lat="45.33142" lon="6.19421">
        <ele>2102.6000976562</ele>
        <time>2014-03-02T09:30:33.000Z</time>
      </trkpt>
      <trkpt lat="45.33142" lon="6.19421">
        <ele>2102.6000976562</ele>
        <time>2014-03-02T09:30:34.000Z</time>
      </trkpt>
      <trkpt lat="45.33142" lon="6.1942">
        <ele>2103</ele>
        <time>2014-03-02T09:30:35.000Z</time>
      </trkpt>
      <trkpt lat="45.33143" lon="6.19419">
        <ele>2103.1999511719</ele>
        <time>2014-03-02T09:30:36.000Z</time>
      </trkpt>
      <trkpt lat="45.33144" lon="6.19418">
        <ele>2103.6000976562</ele>
        <time>2014-03-02T09:30:37.000Z</time>
      </trkpt>
      <trkpt lat="45.33145" lon="6.19417">
        <ele>2103.8000488281</ele>
        <time>2014-03-02T09:30:38.000Z</time>
      </trkpt>
      <trkpt lat="45.33145" lon="6.19416">
        <ele>2104</ele>
        <time>2014-03-02T09:30:39.000Z</time>
      </trkpt>
      <trkpt lat="45.33145" lon="6.19415">
        <ele>2104.1999511719</ele>
        <time>2014-03-02T09:30:40.000Z</time>
      </trkpt>
      <trkpt lat="45.33146" lon="6.19414">
        <ele>2104.3999023438</ele>
        <time>2014-03-02T09:30:41.000Z</time>
      </trkpt>
      <trkpt lat="45.33146" lon="6.19414">
        <ele>2104.3999023438</ele>
        <time>2014-03-02T09:30:42.000Z</time>
      </trkpt>
      <trkpt lat="45.33146" lon="6.19413">
        <ele>2104.3999023438</ele>
        <time>2014-03-02T09:30:43.000Z</time>
      </trkpt>
      <trkpt lat="45.33146" lon="6.19413">
        <ele>2104.3999023438</ele>
        <time>2014-03-02T09:30:44.000Z</time>
      </trkpt>
      <trkpt lat="45.33147" lon="6.19412">
        <ele>2104.8000488281</ele>
        <time>2014-03-02T09:30:45.000Z</time>
      </trkpt>
      <trkpt lat="45.33147" lon="6.19412">
        <ele>2104.8000488281</ele>
        <time>2014-03-02T09:30:46.000Z</time>
      </trkpt>
      <trkpt lat="45.33148" lon="6.19411">
        <ele>2105.1999511719</ele>
        <time>2014-03-02T09:30:47.000Z</time>
      </trkpt>
      <trkpt lat="45.33149" lon="6.1941">
        <ele>2105.6000976562</ele>
        <time>2014-03-02T09:30:48.000Z</time>
      </trkpt>
      <trkpt lat="45.3315" lon="6.1941">
        <ele>2106</ele>
        <time>2014-03-02T09:30:49.000Z</time>
      </trkpt>
      <trkpt lat="45.3315" lon="6.19409">
        <ele>2106.1999511719</ele>
        <time>2014-03-02T09:30:50.000Z</time>
      </trkpt>
      <trkpt lat="45.33151" lon="6.19408">
        <ele>2106.3999023438</ele>
        <time>2014-03-02T09:30:51.000Z</time>
      </trkpt>
      <trkpt lat="45.33151" lon="6.19407">
        <ele>2106.3999023438</ele>
        <time>2014-03-02T09:30:52.000Z</time>
      </trkpt>
      <trkpt lat="45.33151" lon="6.19407">
        <ele>2106.3999023438</ele>
        <time>2014-03-02T09:30:53.000Z</time>
      </trkpt>
      <trkpt lat="45.33152" lon="6.19406">
        <ele>2106.6000976562</ele>
        <time>2014-03-02T09:30:54.000Z</time>
      </trkpt>
      <trkpt lat="45.33152" lon="6.19406">
        <ele>2106.6000976562</ele>
        <time>2014-03-02T09:30:55.000Z</time>
      </trkpt>
      <trkpt lat="45.33153" lon="6.19406">
        <ele>2107</ele>
        <time>2014-03-02T09:30:56.000Z</time>
      </trkpt>
      <trkpt lat="45.33153" lon="6.19406">
        <ele>2107</ele>
        <time>2014-03-02T09:30:57.000Z</time>
      </trkpt>
      <trkpt lat="45.33153" lon="6.19405">
        <ele>2107</ele>
        <time>2014-03-02T09:30:58.000Z</time>
      </trkpt>
      <trkpt lat="45.33153" lon="6.19405">
        <ele>2107</ele>
        <time>2014-03-02T09:30:59.000Z</time>
      </trkpt>
      <trkpt lat="45.33153" lon="6.19405">
        <ele>2107</ele>
        <time>2014-03-02T09:31:00.000Z</time>
      </trkpt>
      <trkpt lat="45.33153" lon="6.19405">
        <ele>2107.1999511719</ele>
        <time>2014-03-02T09:31:01.000Z</time>
      </trkpt>
      <trkpt lat="45.33153" lon="6.19405">
        <ele>2107.1999511719</ele>
        <time>2014-03-02T09:31:02.000Z</time>
      </trkpt>
      <trkpt lat="45.33154" lon="6.19404">
        <ele>2107.3999023438</ele>
        <time>2014-03-02T09:31:03.000Z</time>
      </trkpt>
      <trkpt lat="45.33154" lon="6.19404">
        <ele>2107.3999023438</ele>
        <time>2014-03-02T09:31:04.000Z</time>
      </trkpt>
      <trkpt lat="45.33155" lon="6.19403">
        <ele>2107.8000488281</ele>
        <time>2014-03-02T09:31:05.000Z</time>
      </trkpt>
      <trkpt lat="45.33155" lon="6.19403">
        <ele>2107.8000488281</ele>
        <time>2014-03-02T09:31:06.000Z</time>
      </trkpt>
      <trkpt lat="45.33156" lon="6.19402">
        <ele>2108</ele>
        <time>2014-03-02T09:31:07.000Z</time>
      </trkpt>
      <trkpt lat="45.33156" lon="6.19402">
        <ele>2108.1999511719</ele>
        <time>2014-03-02T09:31:08.000Z</time>
      </trkpt>
      <trkpt lat="45.33157" lon="6.19401">
        <ele>2108.6000976562</ele>
        <time>2014-03-02T09:31:09.000Z</time>
      </trkpt>
      <trkpt lat="45.33158" lon="6.194">
        <ele>2108.8000488281</ele>
        <time>2014-03-02T09:31:10.000Z</time>
      </trkpt>
      <trkpt lat="45.33159" lon="6.194">
        <ele>2109.1999511719</ele>
        <time>2014-03-02T09:31:11.000Z</time>
      </trkpt>
      <trkpt lat="45.33159" lon="6.194">
        <ele>2109.3999023438</ele>
        <time>2014-03-02T09:31:12.000Z</time>
      </trkpt>
      <trkpt lat="45.33161" lon="6.19398">
        <ele>2110</ele>
        <time>2014-03-02T09:31:13.000Z</time>
      </trkpt>
      <trkpt lat="45.33161" lon="6.19398">
        <ele>2110</ele>
        <time>2014-03-02T09:31:14.000Z</time>
      </trkpt>
      <trkpt lat="45.33162" lon="6.19397">
        <ele>2110.3999023438</ele>
        <time>2014-03-02T09:31:15.000Z</time>
      </trkpt>
      <trkpt lat="45.33162" lon="6.19396">
        <ele>2110.6000976562</ele>
        <time>2014-03-02T09:31:16.000Z</time>
      </trkpt>
      <trkpt lat="45.33164" lon="6.19396">
        <ele>2111</ele>
        <time>2014-03-02T09:31:17.000Z</time>
      </trkpt>
      <trkpt lat="45.33164" lon="6.19395">
        <ele>2111.3999023438</ele>
        <time>2014-03-02T09:31:18.000Z</time>
      </trkpt>
      <trkpt lat="45.33165" lon="6.19394">
        <ele>2111.6000976562</ele>
        <time>2014-03-02T09:31:19.000Z</time>
      </trkpt>
      <trkpt lat="45.33166" lon="6.19394">
        <ele>2112</ele>
        <time>2014-03-02T09:31:20.000Z</time>
      </trkpt>
      <trkpt lat="45.33166" lon="6.19394">
        <ele>2112.1999511719</ele>
        <time>2014-03-02T09:31:21.000Z</time>
      </trkpt>
      <trkpt lat="45.33166" lon="6.19394">
        <ele>2112.1999511719</ele>
        <time>2014-03-02T09:31:22.000Z</time>
      </trkpt>
      <trkpt lat="45.33167" lon="6.19393">
        <ele>2112.3999023438</ele>
        <time>2014-03-02T09:31:23.000Z</time>
      </trkpt>
      <trkpt lat="45.33167" lon="6.19393">
        <ele>2112.3999023438</ele>
        <time>2014-03-02T09:31:24.000Z</time>
      </trkpt>
      <trkpt lat="45.33167" lon="6.19393">
        <ele>2112.6000976562</ele>
        <time>2014-03-02T09:31:25.000Z</time>
      </trkpt>
      <trkpt lat="45.33168" lon="6.19392">
        <ele>2112.8000488281</ele>
        <time>2014-03-02T09:31:26.000Z</time>
      </trkpt>
      <trkpt lat="45.33168" lon="6.19392">
        <ele>2113.1999511719</ele>
        <time>2014-03-02T09:31:27.000Z</time>
      </trkpt>
      <trkpt lat="45.33169" lon="6.19391">
        <ele>2113.3999023438</ele>
        <time>2014-03-02T09:31:28.000Z</time>
      </trkpt>
      <trkpt lat="45.33169" lon="6.1939">
        <ele>2113.6000976562</ele>
        <time>2014-03-02T09:31:29.000Z</time>
      </trkpt>
      <trkpt lat="45.3317" lon="6.19389">
        <ele>2113.8000488281</ele>
        <time>2014-03-02T09:31:30.000Z</time>
      </trkpt>
      <trkpt lat="45.3317" lon="6.19389">
        <ele>2114.1999511719</ele>
        <time>2014-03-02T09:31:31.000Z</time>
      </trkpt>
      <trkpt lat="45.33171" lon="6.19388">
        <ele>2114.3999023438</ele>
        <time>2014-03-02T09:31:32.000Z</time>
      </trkpt>
      <trkpt lat="45.33171" lon="6.19388">
        <ele>2114.6000976562</ele>
        <time>2014-03-02T09:31:33.000Z</time>
      </trkpt>
      <trkpt lat="45.33172" lon="6.19387">
        <ele>2114.8000488281</ele>
        <time>2014-03-02T09:31:34.000Z</time>
      </trkpt>
      <trkpt lat="45.33172" lon="6.19387">
        <ele>2114.8000488281</ele>
        <time>2014-03-02T09:31:35.000Z</time>
      </trkpt>
      <trkpt lat="45.33172" lon="6.19386">
        <ele>2115.1999511719</ele>
        <time>2014-03-02T09:31:36.000Z</time>
      </trkpt>
      <trkpt lat="45.33174" lon="6.19386">
        <ele>2115.8000488281</ele>
        <time>2014-03-02T09:31:37.000Z</time>
      </trkpt>
      <trkpt lat="45.33174" lon="6.19386">
        <ele>2116</ele>
        <time>2014-03-02T09:31:38.000Z</time>
      </trkpt>
      <trkpt lat="45.33176" lon="6.19386">
        <ele>2116.8000488281</ele>
        <time>2014-03-02T09:31:39.000Z</time>
      </trkpt>
      <trkpt lat="45.33177" lon="6.19386">
        <ele>2117</ele>
        <time>2014-03-02T09:31:40.000Z</time>
      </trkpt>
      <trkpt lat="45.33178" lon="6.19385">
        <ele>2117.6000976562</ele>
        <time>2014-03-02T09:31:41.000Z</time>
      </trkpt>
      <trkpt lat="45.33178" lon="6.19386">
        <ele>2117.8000488281</ele>
        <time>2014-03-02T09:31:42.000Z</time>
      </trkpt>
      <trkpt lat="45.33179" lon="6.19386">
        <ele>2118</ele>
        <time>2014-03-02T09:31:43.000Z</time>
      </trkpt>
      <trkpt lat="45.33179" lon="6.19386">
        <ele>2118.1999511719</ele>
        <time>2014-03-02T09:31:44.000Z</time>
      </trkpt>
      <trkpt lat="45.33179" lon="6.19385">
        <ele>2118.3999023438</ele>
        <time>2014-03-02T09:31:45.000Z</time>
      </trkpt>
      <trkpt lat="45.33179" lon="6.19385">
        <ele>2118.3999023438</ele>
        <time>2014-03-02T09:31:46.000Z</time>
      </trkpt>
      <trkpt lat="45.3318" lon="6.19384">
        <ele>2118.3999023438</ele>
        <time>2014-03-02T09:31:47.000Z</time>
      </trkpt>
      <trkpt lat="45.3318" lon="6.19384">
        <ele>2118.3999023438</ele>
        <time>2014-03-02T09:31:48.000Z</time>
      </trkpt>
      <trkpt lat="45.3318" lon="6.19384">
        <ele>2118.3999023438</ele>
        <time>2014-03-02T09:31:49.000Z</time>
      </trkpt>
      <trkpt lat="45.3318" lon="6.19384">
        <ele>2118.3999023438</ele>
        <time>2014-03-02T09:31:50.000Z</time>
      </trkpt>
      <trkpt lat="45.33181" lon="6.19384">
        <ele>2119</ele>
        <time>2014-03-02T09:31:51.000Z</time>
      </trkpt>
      <trkpt lat="45.33181" lon="6.19384">
        <ele>2119</ele>
        <time>2014-03-02T09:31:52.000Z</time>
      </trkpt>
      <trkpt lat="45.33182" lon="6.19383">
        <ele>2119.3999023438</ele>
        <time>2014-03-02T09:31:53.000Z</time>
      </trkpt>
      <trkpt lat="45.33183" lon="6.19382">
        <ele>2120</ele>
        <time>2014-03-02T09:31:54.000Z</time>
      </trkpt>
      <trkpt lat="45.33183" lon="6.19382">
        <ele>2120.1999511719</ele>
        <time>2014-03-02T09:31:55.000Z</time>
      </trkpt>
      <trkpt lat="45.33184" lon="6.19382">
        <ele>2120.3999023438</ele>
        <time>2014-03-02T09:31:56.000Z</time>
      </trkpt>
      <trkpt lat="45.33184" lon="6.19381">
        <ele>2120.6000976562</ele>
        <time>2014-03-02T09:31:57.000Z</time>
      </trkpt>
      <trkpt lat="45.33185" lon="6.19381">
        <ele>2120.8000488281</ele>
        <time>2014-03-02T09:31:58.000Z</time>
      </trkpt>
      <trkpt lat="45.33185" lon="6.1938">
        <ele>2121</ele>
        <time>2014-03-02T09:31:59.000Z</time>
      </trkpt>
      <trkpt lat="45.33185" lon="6.1938">
        <ele>2121</ele>
        <time>2014-03-02T09:32:00.000Z</time>
      </trkpt>
      <trkpt lat="45.33185" lon="6.1938">
        <ele>2121</ele>
        <time>2014-03-02T09:32:01.000Z</time>
      </trkpt>
      <trkpt lat="45.33185" lon="6.19379">
        <ele>2121.1999511719</ele>
        <time>2014-03-02T09:32:02.000Z</time>
      </trkpt>
      <trkpt lat="45.33185" lon="6.19379">
        <ele>2121.1999511719</ele>
        <time>2014-03-02T09:32:03.000Z</time>
      </trkpt>
      <trkpt lat="45.33186" lon="6.19379">
        <ele>2121.3999023438</ele>
        <time>2014-03-02T09:32:04.000Z</time>
      </trkpt>
      <trkpt lat="45.33187" lon="6.19379">
        <ele>2121.6000976562</ele>
        <time>2014-03-02T09:32:05.000Z</time>
      </trkpt>
      <trkpt lat="45.33186" lon="6.19378">
        <ele>2121.6000976562</ele>
        <time>2014-03-02T09:32:06.000Z</time>
      </trkpt>
      <trkpt lat="45.33187" lon="6.19378">
        <ele>2121.8000488281</ele>
        <time>2014-03-02T09:32:07.000Z</time>
      </trkpt>
      <trkpt lat="45.33187" lon="6.19377">
        <ele>2122</ele>
        <time>2014-03-02T09:32:08.000Z</time>
      </trkpt>
      <trkpt lat="45.33188" lon="6.19377">
        <ele>2122.1999511719</ele>
        <time>2014-03-02T09:32:09.000Z</time>
      </trkpt>
      <trkpt lat="45.33188" lon="6.19376">
        <ele>2122.3999023438</ele>
        <time>2014-03-02T09:32:10.000Z</time>
      </trkpt>
      <trkpt lat="45.33189" lon="6.19376">
        <ele>2122.8000488281</ele>
        <time>2014-03-02T09:32:11.000Z</time>
      </trkpt>
      <trkpt lat="45.33189" lon="6.19375">
        <ele>2123</ele>
        <time>2014-03-02T09:32:12.000Z</time>
      </trkpt>
      <trkpt lat="45.33189" lon="6.19375">
        <ele>2123</ele>
        <time>2014-03-02T09:32:13.000Z</time>
      </trkpt>
      <trkpt lat="45.33189" lon="6.19375">
        <ele>2123</ele>
        <time>2014-03-02T09:32:14.000Z</time>
      </trkpt>
      <trkpt lat="45.3319" lon="6.19374">
        <ele>2123.1999511719</ele>
        <time>2014-03-02T09:32:15.000Z</time>
      </trkpt>
      <trkpt lat="45.3319" lon="6.19374">
        <ele>2123.1999511719</ele>
        <time>2014-03-02T09:32:16.000Z</time>
      </trkpt>
      <trkpt lat="45.33191" lon="6.19374">
        <ele>2123.6000976562</ele>
        <time>2014-03-02T09:32:17.000Z</time>
      </trkpt>
      <trkpt lat="45.33191" lon="6.19374">
        <ele>2123.6000976562</ele>
        <time>2014-03-02T09:32:18.000Z</time>
      </trkpt>
      <trkpt lat="45.33192" lon="6.19373">
        <ele>2124.1999511719</ele>
        <time>2014-03-02T09:32:19.000Z</time>
      </trkpt>
      <trkpt lat="45.33192" lon="6.19373">
        <ele>2124.1999511719</ele>
        <time>2014-03-02T09:32:20.000Z</time>
      </trkpt>
      <trkpt lat="45.33193" lon="6.19372">
        <ele>2124.6000976562</ele>
        <time>2014-03-02T09:32:21.000Z</time>
      </trkpt>
      <trkpt lat="45.33193" lon="6.19371">
        <ele>2125.1999511719</ele>
        <time>2014-03-02T09:32:22.000Z</time>
      </trkpt>
      <trkpt lat="45.33194" lon="6.19371">
        <ele>2125.6000976562</ele>
        <time>2014-03-02T09:32:23.000Z</time>
      </trkpt>
      <trkpt lat="45.33195" lon="6.1937">
        <ele>2126.1999511719</ele>
        <time>2014-03-02T09:32:24.000Z</time>
      </trkpt>
      <trkpt lat="45.33196" lon="6.19369">
        <ele>2126.3999023438</ele>
        <time>2014-03-02T09:32:25.000Z</time>
      </trkpt>
      <trkpt lat="45.33197" lon="6.19369">
        <ele>2127</ele>
        <time>2014-03-02T09:32:26.000Z</time>
      </trkpt>
      <trkpt lat="45.33197" lon="6.19369">
        <ele>2127</ele>
        <time>2014-03-02T09:32:27.000Z</time>
      </trkpt>
      <trkpt lat="45.33198" lon="6.19369">
        <ele>2127.6000976562</ele>
        <time>2014-03-02T09:32:28.000Z</time>
      </trkpt>
      <trkpt lat="45.33198" lon="6.19368">
        <ele>2127.8000488281</ele>
        <time>2014-03-02T09:32:29.000Z</time>
      </trkpt>
      <trkpt lat="45.33199" lon="6.19368">
        <ele>2128</ele>
        <time>2014-03-02T09:32:30.000Z</time>
      </trkpt>
      <trkpt lat="45.33199" lon="6.19368">
        <ele>2128.1999511719</ele>
        <time>2014-03-02T09:32:31.000Z</time>
      </trkpt>
      <trkpt lat="45.33199" lon="6.19368">
        <ele>2128.3999023438</ele>
        <time>2014-03-02T09:32:32.000Z</time>
      </trkpt>
      <trkpt lat="45.332" lon="6.19368">
        <ele>2128.6000976562</ele>
        <time>2014-03-02T09:32:33.000Z</time>
      </trkpt>
      <trkpt lat="45.332" lon="6.19367">
        <ele>2128.8000488281</ele>
        <time>2014-03-02T09:32:34.000Z</time>
      </trkpt>
      <trkpt lat="45.332" lon="6.19367">
        <ele>2128.8000488281</ele>
        <time>2014-03-02T09:32:35.000Z</time>
      </trkpt>
      <trkpt lat="45.33201" lon="6.19367">
        <ele>2129.1999511719</ele>
        <time>2014-03-02T09:32:36.000Z</time>
      </trkpt>
      <trkpt lat="45.33201" lon="6.19367">
        <ele>2129.1999511719</ele>
        <time>2014-03-02T09:32:37.000Z</time>
      </trkpt>
      <trkpt lat="45.33201" lon="6.19366">
        <ele>2129.3999023438</ele>
        <time>2014-03-02T09:32:38.000Z</time>
      </trkpt>
      <trkpt lat="45.33201" lon="6.19366">
        <ele>2129.3999023438</ele>
        <time>2014-03-02T09:32:39.000Z</time>
      </trkpt>
      <trkpt lat="45.33201" lon="6.19365">
        <ele>2129.6000976562</ele>
        <time>2014-03-02T09:32:40.000Z</time>
      </trkpt>
      <trkpt lat="45.33202" lon="6.19365">
        <ele>2130</ele>
        <time>2014-03-02T09:32:41.000Z</time>
      </trkpt>
      <trkpt lat="45.33203" lon="6.19364">
        <ele>2130.3999023438</ele>
        <time>2014-03-02T09:32:42.000Z</time>
      </trkpt>
      <trkpt lat="45.33203" lon="6.19363">
        <ele>2130.8000488281</ele>
        <time>2014-03-02T09:32:43.000Z</time>
      </trkpt>
      <trkpt lat="45.33203" lon="6.19363">
        <ele>2130.8000488281</ele>
        <time>2014-03-02T09:32:44.000Z</time>
      </trkpt>
      <trkpt lat="45.33204" lon="6.19363">
        <ele>2131</ele>
        <time>2014-03-02T09:32:45.000Z</time>
      </trkpt>
      <trkpt lat="45.33204" lon="6.19363">
        <ele>2131</ele>
        <time>2014-03-02T09:32:46.000Z</time>
      </trkpt>
      <trkpt lat="45.33204" lon="6.19362">
        <ele>2131.3999023438</ele>
        <time>2014-03-02T09:32:47.000Z</time>
      </trkpt>
      <trkpt lat="45.33204" lon="6.19362">
        <ele>2131.3999023438</ele>
        <time>2014-03-02T09:32:48.000Z</time>
      </trkpt>
      <trkpt lat="45.33205" lon="6.19361">
        <ele>2131.6000976562</ele>
        <time>2014-03-02T09:32:49.000Z</time>
      </trkpt>
      <trkpt lat="45.33205" lon="6.19361">
        <ele>2131.6000976562</ele>
        <time>2014-03-02T09:32:50.000Z</time>
      </trkpt>
      <trkpt lat="45.33205" lon="6.19361">
        <ele>2131.6000976562</ele>
        <time>2014-03-02T09:32:51.000Z</time>
      </trkpt>
      <trkpt lat="45.33205" lon="6.19361">
        <ele>2131.6000976562</ele>
        <time>2014-03-02T09:32:52.000Z</time>
      </trkpt>
      <trkpt lat="45.33205" lon="6.19361">
        <ele>2131.6000976562</ele>
        <time>2014-03-02T09:32:53.000Z</time>
      </trkpt>
      <trkpt lat="45.33206" lon="6.1936">
        <ele>2132.1999511719</ele>
        <time>2014-03-02T09:32:54.000Z</time>
      </trkpt>
      <trkpt lat="45.33206" lon="6.1936">
        <ele>2132.6000976562</ele>
        <time>2014-03-02T09:32:55.000Z</time>
      </trkpt>
      <trkpt lat="45.33207" lon="6.1936">
        <ele>2132.8000488281</ele>
        <time>2014-03-02T09:32:56.000Z</time>
      </trkpt>
      <trkpt lat="45.33207" lon="6.1936">
        <ele>2133.1999511719</ele>
        <time>2014-03-02T09:32:57.000Z</time>
      </trkpt>
      <trkpt lat="45.33208" lon="6.19359">
        <ele>2133.6000976562</ele>
        <time>2014-03-02T09:32:58.000Z</time>
      </trkpt>
      <trkpt lat="45.33209" lon="6.19359">
        <ele>2134</ele>
        <time>2014-03-02T09:32:59.000Z</time>
      </trkpt>
      <trkpt lat="45.3321" lon="6.19359">
        <ele>2134.3999023438</ele>
        <time>2014-03-02T09:33:00.000Z</time>
      </trkpt>
      <trkpt lat="45.3321" lon="6.19358">
        <ele>2134.8000488281</ele>
        <time>2014-03-02T09:33:01.000Z</time>
      </trkpt>
      <trkpt lat="45.33211" lon="6.19358">
        <ele>2135</ele>
        <time>2014-03-02T09:33:02.000Z</time>
      </trkpt>
      <trkpt lat="45.33212" lon="6.19357">
        <ele>2135.6000976562</ele>
        <time>2014-03-02T09:33:03.000Z</time>
      </trkpt>
      <trkpt lat="45.33212" lon="6.19357">
        <ele>2135.6000976562</ele>
        <time>2014-03-02T09:33:04.000Z</time>
      </trkpt>
      <trkpt lat="45.33212" lon="6.19356">
        <ele>2135.8000488281</ele>
        <time>2014-03-02T09:33:05.000Z</time>
      </trkpt>
      <trkpt lat="45.33212" lon="6.19356">
        <ele>2135.8000488281</ele>
        <time>2014-03-02T09:33:06.000Z</time>
      </trkpt>
      <trkpt lat="45.33212" lon="6.19356">
        <ele>2136</ele>
        <time>2014-03-02T09:33:07.000Z</time>
      </trkpt>
      <trkpt lat="45.33212" lon="6.19356">
        <ele>2136</ele>
        <time>2014-03-02T09:33:08.000Z</time>
      </trkpt>
      <trkpt lat="45.33212" lon="6.19356">
        <ele>2136</ele>
        <time>2014-03-02T09:33:09.000Z</time>
      </trkpt>
      <trkpt lat="45.33213" lon="6.19355">
        <ele>2136.1999511719</ele>
        <time>2014-03-02T09:33:10.000Z</time>
      </trkpt>
      <trkpt lat="45.33213" lon="6.19355">
        <ele>2136.1999511719</ele>
        <time>2014-03-02T09:33:11.000Z</time>
      </trkpt>
      <trkpt lat="45.33213" lon="6.19354">
        <ele>2136.6000976562</ele>
        <time>2014-03-02T09:33:12.000Z</time>
      </trkpt>
      <trkpt lat="45.33214" lon="6.19354">
        <ele>2136.8000488281</ele>
        <time>2014-03-02T09:33:13.000Z</time>
      </trkpt>
      <trkpt lat="45.33214" lon="6.19353">
        <ele>2137.3999023438</ele>
        <time>2014-03-02T09:33:14.000Z</time>
      </trkpt>
      <trkpt lat="45.33215" lon="6.19353">
        <ele>2137.8000488281</ele>
        <time>2014-03-02T09:33:15.000Z</time>
      </trkpt>
      <trkpt lat="45.33216" lon="6.19352">
        <ele>2138.3999023438</ele>
        <time>2014-03-02T09:33:16.000Z</time>
      </trkpt>
      <trkpt lat="45.33217" lon="6.19352">
        <ele>2139</ele>
        <time>2014-03-02T09:33:17.000Z</time>
      </trkpt>
      <trkpt lat="45.33217" lon="6.19351">
        <ele>2139.6000976562</ele>
        <time>2014-03-02T09:33:18.000Z</time>
      </trkpt>
      <trkpt lat="45.33218" lon="6.1935">
        <ele>2140</ele>
        <time>2014-03-02T09:33:19.000Z</time>
      </trkpt>
      <trkpt lat="45.33218" lon="6.1935">
        <ele>2140</ele>
        <time>2014-03-02T09:33:20.000Z</time>
      </trkpt>
      <trkpt lat="45.33218" lon="6.1935">
        <ele>2140</ele>
        <time>2014-03-02T09:33:21.000Z</time>
      </trkpt>
      <trkpt lat="45.33218" lon="6.1935">
        <ele>2140</ele>
        <time>2014-03-02T09:33:22.000Z</time>
      </trkpt>
      <trkpt lat="45.33218" lon="6.1935">
        <ele>2140.3999023438</ele>
        <time>2014-03-02T09:33:23.000Z</time>
      </trkpt>
      <trkpt lat="45.33218" lon="6.1935">
        <ele>2140.3999023438</ele>
        <time>2014-03-02T09:33:24.000Z</time>
      </trkpt>
      <trkpt lat="45.33219" lon="6.19349">
        <ele>2141.1999511719</ele>
        <time>2014-03-02T09:33:25.000Z</time>
      </trkpt>
      <trkpt lat="45.33219" lon="6.19349">
        <ele>2141.6000976562</ele>
        <time>2014-03-02T09:33:26.000Z</time>
      </trkpt>
      <trkpt lat="45.3322" lon="6.19348">
        <ele>2142</ele>
        <time>2014-03-02T09:33:27.000Z</time>
      </trkpt>
      <trkpt lat="45.33221" lon="6.19348">
        <ele>2143</ele>
        <time>2014-03-02T09:33:28.000Z</time>
      </trkpt>
      <trkpt lat="45.33222" lon="6.19347">
        <ele>2143.3999023438</ele>
        <time>2014-03-02T09:33:29.000Z</time>
      </trkpt>
      <trkpt lat="45.33222" lon="6.19346">
        <ele>2143.6000976562</ele>
        <time>2014-03-02T09:33:30.000Z</time>
      </trkpt>
      <trkpt lat="45.33222" lon="6.19346">
        <ele>2143.6000976562</ele>
        <time>2014-03-02T09:33:31.000Z</time>
      </trkpt>
      <trkpt lat="45.33222" lon="6.19346">
        <ele>2143.6000976562</ele>
        <time>2014-03-02T09:33:32.000Z</time>
      </trkpt>
      <trkpt lat="45.33222" lon="6.19346">
        <ele>2143.6000976562</ele>
        <time>2014-03-02T09:33:33.000Z</time>
      </trkpt>
      <trkpt lat="45.33222" lon="6.19346">
        <ele>2143.6000976562</ele>
        <time>2014-03-02T09:33:34.000Z</time>
      </trkpt>
      <trkpt lat="45.33222" lon="6.19346">
        <ele>2143.6000976562</ele>
        <time>2014-03-02T09:33:35.000Z</time>
      </trkpt>
      <trkpt lat="45.33222" lon="6.19346">
        <ele>2143.6000976562</ele>
        <time>2014-03-02T09:33:36.000Z</time>
      </trkpt>
      <trkpt lat="45.33222" lon="6.19346">
        <ele>2143.6000976562</ele>
        <time>2014-03-02T09:33:37.000Z</time>
      </trkpt>
      <trkpt lat="45.33222" lon="6.19346">
        <ele>2143.6000976562</ele>
        <time>2014-03-02T09:33:38.000Z</time>
      </trkpt>
      <trkpt lat="45.33222" lon="6.19346">
        <ele>2143.6000976562</ele>
        <time>2014-03-02T09:33:39.000Z</time>
      </trkpt>
      <trkpt lat="45.33222" lon="6.19346">
        <ele>2143.6000976562</ele>
        <time>2014-03-02T09:33:40.000Z</time>
      </trkpt>
      <trkpt lat="45.33222" lon="6.19346">
        <ele>2143.6000976562</ele>
        <time>2014-03-02T09:33:41.000Z</time>
      </trkpt>
      <trkpt lat="45.33223" lon="6.19348">
        <ele>2144.1999511719</ele>
        <time>2014-03-02T09:33:42.000Z</time>
      </trkpt>
      <trkpt lat="45.33223" lon="6.19348">
        <ele>2144.1999511719</ele>
        <time>2014-03-02T09:33:43.000Z</time>
      </trkpt>
      <trkpt lat="45.33223" lon="6.19348">
        <ele>2144.1999511719</ele>
        <time>2014-03-02T09:33:45.000Z</time>
      </trkpt>
      <trkpt lat="45.33223" lon="6.19348">
        <ele>2144.1999511719</ele>
        <time>2014-03-02T09:33:46.000Z</time>
      </trkpt>
      <trkpt lat="45.33223" lon="6.19348">
        <ele>2144.6000976562</ele>
        <time>2014-03-02T09:33:47.000Z</time>
      </trkpt>
      <trkpt lat="45.33223" lon="6.19348">
        <ele>2144.6000976562</ele>
        <time>2014-03-02T09:33:48.000Z</time>
      </trkpt>
      <trkpt lat="45.33223" lon="6.19348">
        <ele>2144.6000976562</ele>
        <time>2014-03-02T09:33:49.000Z</time>
      </trkpt>
      <trkpt lat="45.33223" lon="6.19348">
        <ele>2144.6000976562</ele>
        <time>2014-03-02T09:33:50.000Z</time>
      </trkpt>
      <trkpt lat="45.33223" lon="6.19348">
        <ele>2144.6000976562</ele>
        <time>2014-03-02T09:33:51.000Z</time>
      </trkpt>
      <trkpt lat="45.33223" lon="6.19348">
        <ele>2144.6000976562</ele>
        <time>2014-03-02T09:33:52.000Z</time>
      </trkpt>
      <trkpt lat="45.33223" lon="6.19348">
        <ele>2144.6000976562</ele>
        <time>2014-03-02T09:33:53.000Z</time>
      </trkpt>
      <trkpt lat="45.33223" lon="6.19348">
        <ele>2144.6000976562</ele>
        <time>2014-03-02T09:33:54.000Z</time>
      </trkpt>
      <trkpt lat="45.33223" lon="6.19348">
        <ele>2144.6000976562</ele>
        <time>2014-03-02T09:33:55.000Z</time>
      </trkpt>
      <trkpt lat="45.33223" lon="6.19348">
        <ele>2144.6000976562</ele>
        <time>2014-03-02T09:33:56.000Z</time>
      </trkpt>
      <trkpt lat="45.33223" lon="6.19348">
        <ele>2144.6000976562</ele>
        <time>2014-03-02T09:33:58.000Z</time>
      </trkpt>
      <trkpt lat="45.33223" lon="6.19348">
        <ele>2144.6000976562</ele>
        <time>2014-03-02T09:33:59.000Z</time>
      </trkpt>
      <trkpt lat="45.33223" lon="6.19348">
        <ele>2144.6000976562</ele>
        <time>2014-03-02T09:34:00.000Z</time>
      </trkpt>
      <trkpt lat="45.33223" lon="6.19348">
        <ele>2144.6000976562</ele>
        <time>2014-03-02T09:34:01.000Z</time>
      </trkpt>
      <trkpt lat="45.33223" lon="6.19348">
        <ele>2144.6000976562</ele>
        <time>2014-03-02T09:34:02.000Z</time>
      </trkpt>
      <trkpt lat="45.33223" lon="6.19348">
        <ele>2144.6000976562</ele>
        <time>2014-03-02T09:34:03.000Z</time>
      </trkpt>
      <trkpt lat="45.33223" lon="6.19348">
        <ele>2144.6000976562</ele>
        <time>2014-03-02T09:34:04.000Z</time>
      </trkpt>
      <trkpt lat="45.33223" lon="6.19348">
        <ele>2144.6000976562</ele>
        <time>2014-03-02T09:34:05.000Z</time>
      </trkpt>
      <trkpt lat="45.33223" lon="6.19348">
        <ele>2144.6000976562</ele>
        <time>2014-03-02T09:34:06.000Z</time>
      </trkpt>
      <trkpt lat="45.33223" lon="6.19348">
        <ele>2144.6000976562</ele>
        <time>2014-03-02T09:34:07.000Z</time>
      </trkpt>
      <trkpt lat="45.33223" lon="6.19348">
        <ele>2144.6000976562</ele>
        <time>2014-03-02T09:34:08.000Z</time>
      </trkpt>
      <trkpt lat="45.33223" lon="6.19348">
        <ele>2144.6000976562</ele>
        <time>2014-03-02T09:34:09.000Z</time>
      </trkpt>
      <trkpt lat="45.33224" lon="6.19351">
        <ele>2145.1999511719</ele>
        <time>2014-03-02T09:34:13.000Z</time>
      </trkpt>
      <trkpt lat="45.33225" lon="6.19351">
        <ele>2145.3999023438</ele>
        <time>2014-03-02T09:34:14.000Z</time>
      </trkpt>
      <trkpt lat="45.33225" lon="6.19352">
        <ele>2145.3999023438</ele>
        <time>2014-03-02T09:34:15.000Z</time>
      </trkpt>
      <trkpt lat="45.33225" lon="6.19352">
        <ele>2145.3999023438</ele>
        <time>2014-03-02T09:34:16.000Z</time>
      </trkpt>
      <trkpt lat="45.33225" lon="6.19353">
        <ele>2145.3999023438</ele>
        <time>2014-03-02T09:34:17.000Z</time>
      </trkpt>
      <trkpt lat="45.33225" lon="6.19353">
        <ele>2145.6000976562</ele>
        <time>2014-03-02T09:34:18.000Z</time>
      </trkpt>
      <trkpt lat="45.33225" lon="6.19354">
        <ele>2145.6000976562</ele>
        <time>2014-03-02T09:34:19.000Z</time>
      </trkpt>
      <trkpt lat="45.33226" lon="6.19355">
        <ele>2146</ele>
        <time>2014-03-02T09:34:20.000Z</time>
      </trkpt>
      <trkpt lat="45.33227" lon="6.19355">
        <ele>2146.3999023438</ele>
        <time>2014-03-02T09:34:21.000Z</time>
      </trkpt>
      <trkpt lat="45.33227" lon="6.19356">
        <ele>2146.8000488281</ele>
        <time>2014-03-02T09:34:22.000Z</time>
      </trkpt>
      <trkpt lat="45.33227" lon="6.19357">
        <ele>2146.8000488281</ele>
        <time>2014-03-02T09:34:23.000Z</time>
      </trkpt>
      <trkpt lat="45.33227" lon="6.19357">
        <ele>2146.8000488281</ele>
        <time>2014-03-02T09:34:24.000Z</time>
      </trkpt>
      <trkpt lat="45.33227" lon="6.19357">
        <ele>2146.8000488281</ele>
        <time>2014-03-02T09:34:25.000Z</time>
      </trkpt>
      <trkpt lat="45.33227" lon="6.19358">
        <ele>2146.6000976562</ele>
        <time>2014-03-02T09:34:26.000Z</time>
      </trkpt>
      <trkpt lat="45.33227" lon="6.1936">
        <ele>2146.8000488281</ele>
        <time>2014-03-02T09:34:27.000Z</time>
      </trkpt>
      <trkpt lat="45.33227" lon="6.19361">
        <ele>2146.8000488281</ele>
        <time>2014-03-02T09:34:28.000Z</time>
      </trkpt>
      <trkpt lat="45.33228" lon="6.19363">
        <ele>2147</ele>
        <time>2014-03-02T09:34:29.000Z</time>
      </trkpt>
      <trkpt lat="45.33228" lon="6.19363">
        <ele>2146.8000488281</ele>
        <time>2014-03-02T09:34:30.000Z</time>
      </trkpt>
      <trkpt lat="45.33228" lon="6.19364">
        <ele>2146.8000488281</ele>
        <time>2014-03-02T09:34:31.000Z</time>
      </trkpt>
      <trkpt lat="45.33228" lon="6.19365">
        <ele>2146.8000488281</ele>
        <time>2014-03-02T09:34:32.000Z</time>
      </trkpt>
      <trkpt lat="45.33228" lon="6.19366">
        <ele>2146.8000488281</ele>
        <time>2014-03-02T09:34:33.000Z</time>
      </trkpt>
      <trkpt lat="45.33228" lon="6.19366">
        <ele>2147</ele>
        <time>2014-03-02T09:34:34.000Z</time>
      </trkpt>
      <trkpt lat="45.33228" lon="6.19367">
        <ele>2147</ele>
        <time>2014-03-02T09:34:35.000Z</time>
      </trkpt>
      <trkpt lat="45.33228" lon="6.19368">
        <ele>2147</ele>
        <time>2014-03-02T09:34:36.000Z</time>
      </trkpt>
      <trkpt lat="45.33229" lon="6.19369">
        <ele>2147.1999511719</ele>
        <time>2014-03-02T09:34:37.000Z</time>
      </trkpt>
      <trkpt lat="45.33229" lon="6.1937">
        <ele>2147.6000976562</ele>
        <time>2014-03-02T09:34:38.000Z</time>
      </trkpt>
      <trkpt lat="45.3323" lon="6.19371">
        <ele>2147.6000976562</ele>
        <time>2014-03-02T09:34:39.000Z</time>
      </trkpt>
      <trkpt lat="45.3323" lon="6.19371">
        <ele>2147.8000488281</ele>
        <time>2014-03-02T09:34:40.000Z</time>
      </trkpt>
      <trkpt lat="45.3323" lon="6.19372">
        <ele>2147.8000488281</ele>
        <time>2014-03-02T09:34:41.000Z</time>
      </trkpt>
      <trkpt lat="45.3323" lon="6.19372">
        <ele>2147.8000488281</ele>
        <time>2014-03-02T09:34:42.000Z</time>
      </trkpt>
      <trkpt lat="45.3323" lon="6.19372">
        <ele>2147.8000488281</ele>
        <time>2014-03-02T09:34:43.000Z</time>
      </trkpt>
      <trkpt lat="45.3323" lon="6.19372">
        <ele>2147.8000488281</ele>
        <time>2014-03-02T09:34:44.000Z</time>
      </trkpt>
      <trkpt lat="45.3323" lon="6.19372">
        <ele>2147.8000488281</ele>
        <time>2014-03-02T09:34:45.000Z</time>
      </trkpt>
      <trkpt lat="45.3323" lon="6.19374">
        <ele>2147.3999023438</ele>
        <time>2014-03-02T09:34:46.000Z</time>
      </trkpt>
      <trkpt lat="45.33229" lon="6.19374">
        <ele>2147.1999511719</ele>
        <time>2014-03-02T09:34:47.000Z</time>
      </trkpt>
      <trkpt lat="45.33229" lon="6.19376">
        <ele>2147.1999511719</ele>
        <time>2014-03-02T09:34:48.000Z</time>
      </trkpt>
      <trkpt lat="45.3323" lon="6.19376">
        <ele>2147.3999023438</ele>
        <time>2014-03-02T09:34:49.000Z</time>
      </trkpt>
      <trkpt lat="45.3323" lon="6.19378">
        <ele>2147.1999511719</ele>
        <time>2014-03-02T09:34:50.000Z</time>
      </trkpt>
      <trkpt lat="45.3323" lon="6.19378">
        <ele>2147.1999511719</ele>
        <time>2014-03-02T09:34:51.000Z</time>
      </trkpt>
      <trkpt lat="45.3323" lon="6.19379">
        <ele>2147.1999511719</ele>
        <time>2014-03-02T09:34:52.000Z</time>
      </trkpt>
      <trkpt lat="45.3323" lon="6.19379">
        <ele>2147.6000976562</ele>
        <time>2014-03-02T09:34:53.000Z</time>
      </trkpt>
      <trkpt lat="45.3323" lon="6.19379">
        <ele>2147.6000976562</ele>
        <time>2014-03-02T09:34:54.000Z</time>
      </trkpt>
      <trkpt lat="45.3323" lon="6.1938">
        <ele>2147.6000976562</ele>
        <time>2014-03-02T09:34:55.000Z</time>
      </trkpt>
      <trkpt lat="45.3323" lon="6.19381">
        <ele>2147.6000976562</ele>
        <time>2014-03-02T09:34:56.000Z</time>
      </trkpt>
      <trkpt lat="45.33231" lon="6.19383">
        <ele>2147.8000488281</ele>
        <time>2014-03-02T09:34:57.000Z</time>
      </trkpt>
      <trkpt lat="45.33231" lon="6.19384">
        <ele>2148</ele>
        <time>2014-03-02T09:34:58.000Z</time>
      </trkpt>
      <trkpt lat="45.33231" lon="6.19385">
        <ele>2148</ele>
        <time>2014-03-02T09:34:59.000Z</time>
      </trkpt>
      <trkpt lat="45.33231" lon="6.19386">
        <ele>2147.6000976562</ele>
        <time>2014-03-02T09:35:00.000Z</time>
      </trkpt>
      <trkpt lat="45.33231" lon="6.19387">
        <ele>2147.6000976562</ele>
        <time>2014-03-02T09:35:01.000Z</time>
      </trkpt>
      <trkpt lat="45.33231" lon="6.19388">
        <ele>2147.6000976562</ele>
        <time>2014-03-02T09:35:02.000Z</time>
      </trkpt>
      <trkpt lat="45.33231" lon="6.19388">
        <ele>2147.6000976562</ele>
        <time>2014-03-02T09:35:03.000Z</time>
      </trkpt>
      <trkpt lat="45.33231" lon="6.19389">
        <ele>2147.1999511719</ele>
        <time>2014-03-02T09:35:04.000Z</time>
      </trkpt>
      <trkpt lat="45.33231" lon="6.19389">
        <ele>2147.1999511719</ele>
        <time>2014-03-02T09:35:05.000Z</time>
      </trkpt>
      <trkpt lat="45.33231" lon="6.19389">
        <ele>2147.1999511719</ele>
        <time>2014-03-02T09:35:06.000Z</time>
      </trkpt>
      <trkpt lat="45.33231" lon="6.19389">
        <ele>2147.1999511719</ele>
        <time>2014-03-02T09:35:07.000Z</time>
      </trkpt>
      <trkpt lat="45.33231" lon="6.19389">
        <ele>2147.1999511719</ele>
        <time>2014-03-02T09:35:08.000Z</time>
      </trkpt>
      <trkpt lat="45.33231" lon="6.19389">
        <ele>2147.1999511719</ele>
        <time>2014-03-02T09:35:09.000Z</time>
      </trkpt>
      <trkpt lat="45.33231" lon="6.19389">
        <ele>2147.1999511719</ele>
        <time>2014-03-02T09:35:10.000Z</time>
      </trkpt>
      <trkpt lat="45.33231" lon="6.19389">
        <ele>2147.1999511719</ele>
        <time>2014-03-02T09:35:11.000Z</time>
      </trkpt>
      <trkpt lat="45.33231" lon="6.19389">
        <ele>2147.1999511719</ele>
        <time>2014-03-02T09:35:12.000Z</time>
      </trkpt>
      <trkpt lat="45.33231" lon="6.19389">
        <ele>2147.1999511719</ele>
        <time>2014-03-02T09:35:13.000Z</time>
      </trkpt>
      <trkpt lat="45.33231" lon="6.19389">
        <ele>2147.1999511719</ele>
        <time>2014-03-02T09:35:14.000Z</time>
      </trkpt>
      <trkpt lat="45.33231" lon="6.19389">
        <ele>2147.1999511719</ele>
        <time>2014-03-02T09:35:15.000Z</time>
      </trkpt>
      <trkpt lat="45.33231" lon="6.19389">
        <ele>2147.1999511719</ele>
        <time>2014-03-02T09:35:16.000Z</time>
      </trkpt>
      <trkpt lat="45.33231" lon="6.19389">
        <ele>2147.1999511719</ele>
        <time>2014-03-02T09:35:17.000Z</time>
      </trkpt>
      <trkpt lat="45.33231" lon="6.19389">
        <ele>2147.1999511719</ele>
        <time>2014-03-02T09:35:18.000Z</time>
      </trkpt>
      <trkpt lat="45.33231" lon="6.19389">
        <ele>2147.1999511719</ele>
        <time>2014-03-02T09:35:19.000Z</time>
      </trkpt>
      <trkpt lat="45.33231" lon="6.19389">
        <ele>2147.1999511719</ele>
        <time>2014-03-02T09:35:20.000Z</time>
      </trkpt>
      <trkpt lat="45.33231" lon="6.19389">
        <ele>2147.1999511719</ele>
        <time>2014-03-02T09:35:21.000Z</time>
      </trkpt>
      <trkpt lat="45.33231" lon="6.19389">
        <ele>2147.1999511719</ele>
        <time>2014-03-02T09:35:22.000Z</time>
      </trkpt>
      <trkpt lat="45.33231" lon="6.19389">
        <ele>2147.1999511719</ele>
        <time>2014-03-02T09:35:23.000Z</time>
      </trkpt>
      <trkpt lat="45.33231" lon="6.19389">
        <ele>2147.1999511719</ele>
        <time>2014-03-02T09:35:24.000Z</time>
      </trkpt>
      <trkpt lat="45.33231" lon="6.19389">
        <ele>2147.1999511719</ele>
        <time>2014-03-02T09:35:25.000Z</time>
      </trkpt>
      <trkpt lat="45.33231" lon="6.19389">
        <ele>2147.1999511719</ele>
        <time>2014-03-02T09:35:26.000Z</time>
      </trkpt>
      <trkpt lat="45.33231" lon="6.19389">
        <ele>2147.1999511719</ele>
        <time>2014-03-02T09:35:27.000Z</time>
      </trkpt>
      <trkpt lat="45.33231" lon="6.19389">
        <ele>2147.1999511719</ele>
        <time>2014-03-02T09:35:28.000Z</time>
      </trkpt>
      <trkpt lat="45.33231" lon="6.19389">
        <ele>2147.1999511719</ele>
        <time>2014-03-02T09:35:29.000Z</time>
      </trkpt>
      <trkpt lat="45.33231" lon="6.19389">
        <ele>2147.1999511719</ele>
        <time>2014-03-02T09:35:30.000Z</time>
      </trkpt>
      <trkpt lat="45.33231" lon="6.19389">
        <ele>2147.1999511719</ele>
        <time>2014-03-02T09:35:31.000Z</time>
      </trkpt>
      <trkpt lat="45.33231" lon="6.19389">
        <ele>2147.1999511719</ele>
        <time>2014-03-02T09:35:32.000Z</time>
      </trkpt>
      <trkpt lat="45.33231" lon="6.19389">
        <ele>2147.1999511719</ele>
        <time>2014-03-02T09:35:33.000Z</time>
      </trkpt>
      <trkpt lat="45.33231" lon="6.19389">
        <ele>2147.1999511719</ele>
        <time>2014-03-02T09:35:35.000Z</time>
      </trkpt>
      <trkpt lat="45.33231" lon="6.19389">
        <ele>2147.1999511719</ele>
        <time>2014-03-02T09:35:36.000Z</time>
      </trkpt>
      <trkpt lat="45.33231" lon="6.19389">
        <ele>2147.1999511719</ele>
        <time>2014-03-02T09:35:37.000Z</time>
      </trkpt>
      <trkpt lat="45.33231" lon="6.19389">
        <ele>2147.1999511719</ele>
        <time>2014-03-02T09:35:40.000Z</time>
      </trkpt>
      <trkpt lat="45.33231" lon="6.19389">
        <ele>2147.1999511719</ele>
        <time>2014-03-02T09:35:41.000Z</time>
      </trkpt>
      <trkpt lat="45.33231" lon="6.19389">
        <ele>2147.1999511719</ele>
        <time>2014-03-02T09:35:42.000Z</time>
      </trkpt>
      <trkpt lat="45.33231" lon="6.19389">
        <ele>2147.1999511719</ele>
        <time>2014-03-02T09:35:43.000Z</time>
      </trkpt>
      <trkpt lat="45.33231" lon="6.19389">
        <ele>2147.1999511719</ele>
        <time>2014-03-02T09:35:44.000Z</time>
      </trkpt>
      <trkpt lat="45.33231" lon="6.19389">
        <ele>2147.1999511719</ele>
        <time>2014-03-02T09:35:45.000Z</time>
      </trkpt>
      <trkpt lat="45.33231" lon="6.19389">
        <ele>2147.8000488281</ele>
        <time>2014-03-02T09:35:46.000Z</time>
      </trkpt>
      <trkpt lat="45.33231" lon="6.19389">
        <ele>2147.8000488281</ele>
        <time>2014-03-02T09:35:47.000Z</time>
      </trkpt>
      <trkpt lat="45.33233" lon="6.19388">
        <ele>2148.8000488281</ele>
        <time>2014-03-02T09:35:48.000Z</time>
      </trkpt>
      <trkpt lat="45.33234" lon="6.19388">
        <ele>2149.6000976562</ele>
        <time>2014-03-02T09:35:49.000Z</time>
      </trkpt>
      <trkpt lat="45.33235" lon="6.19388">
        <ele>2150.3999023438</ele>
        <time>2014-03-02T09:35:50.000Z</time>
      </trkpt>
      <trkpt lat="45.33237" lon="6.19387">
        <ele>2152</ele>
        <time>2014-03-02T09:35:51.000Z</time>
      </trkpt>
      <trkpt lat="45.33238" lon="6.19386">
        <ele>2152.8000488281</ele>
        <time>2014-03-02T09:35:52.000Z</time>
      </trkpt>
      <trkpt lat="45.33239" lon="6.19386">
        <ele>2153.6000976562</ele>
        <time>2014-03-02T09:35:53.000Z</time>
      </trkpt>
      <trkpt lat="45.33239" lon="6.19385">
        <ele>2154.1999511719</ele>
        <time>2014-03-02T09:35:54.000Z</time>
      </trkpt>
      <trkpt lat="45.33239" lon="6.19385">
        <ele>2154.1999511719</ele>
        <time>2014-03-02T09:35:55.000Z</time>
      </trkpt>
      <trkpt lat="45.3324" lon="6.19384">
        <ele>2155</ele>
        <time>2014-03-02T09:35:56.000Z</time>
      </trkpt>
      <trkpt lat="45.33241" lon="6.19383">
        <ele>2155.6000976562</ele>
        <time>2014-03-02T09:35:57.000Z</time>
      </trkpt>
      <trkpt lat="45.33241" lon="6.19382">
        <ele>2156</ele>
        <time>2014-03-02T09:35:58.000Z</time>
      </trkpt>
      <trkpt lat="45.33241" lon="6.19382">
        <ele>2156</ele>
        <time>2014-03-02T09:35:59.000Z</time>
      </trkpt>
      <trkpt lat="45.33242" lon="6.19381">
        <ele>2156.1999511719</ele>
        <time>2014-03-02T09:36:00.000Z</time>
      </trkpt>
      <trkpt lat="45.33242" lon="6.19381">
        <ele>2156.6000976562</ele>
        <time>2014-03-02T09:36:01.000Z</time>
      </trkpt>
      <trkpt lat="45.33242" lon="6.1938">
        <ele>2157</ele>
        <time>2014-03-02T09:36:02.000Z</time>
      </trkpt>
      <trkpt lat="45.33243" lon="6.19379">
        <ele>2157.3999023438</ele>
        <time>2014-03-02T09:36:03.000Z</time>
      </trkpt>
      <trkpt lat="45.33243" lon="6.19379">
        <ele>2157.3999023438</ele>
        <time>2014-03-02T09:36:04.000Z</time>
      </trkpt>
      <trkpt lat="45.33243" lon="6.19378">
        <ele>2157.6000976562</ele>
        <time>2014-03-02T09:36:05.000Z</time>
      </trkpt>
      <trkpt lat="45.33243" lon="6.19378">
        <ele>2157.6000976562</ele>
        <time>2014-03-02T09:36:06.000Z</time>
      </trkpt>
      <trkpt lat="45.33244" lon="6.19377">
        <ele>2158.1999511719</ele>
        <time>2014-03-02T09:36:07.000Z</time>
      </trkpt>
      <trkpt lat="45.33244" lon="6.19377">
        <ele>2158.1999511719</ele>
        <time>2014-03-02T09:36:08.000Z</time>
      </trkpt>
      <trkpt lat="45.33244" lon="6.19376">
        <ele>2158.3999023438</ele>
        <time>2014-03-02T09:36:09.000Z</time>
      </trkpt>
      <trkpt lat="45.33245" lon="6.19375">
        <ele>2159</ele>
        <time>2014-03-02T09:36:10.000Z</time>
      </trkpt>
      <trkpt lat="45.33245" lon="6.19374">
        <ele>2159.6000976562</ele>
        <time>2014-03-02T09:36:11.000Z</time>
      </trkpt>
      <trkpt lat="45.33246" lon="6.19373">
        <ele>2160.1999511719</ele>
        <time>2014-03-02T09:36:12.000Z</time>
      </trkpt>
      <trkpt lat="45.33247" lon="6.19373">
        <ele>2160.6000976562</ele>
        <time>2014-03-02T09:36:13.000Z</time>
      </trkpt>
      <trkpt lat="45.33247" lon="6.19373">
        <ele>2160.6000976562</ele>
        <time>2014-03-02T09:36:14.000Z</time>
      </trkpt>
      <trkpt lat="45.33247" lon="6.19372">
        <ele>2161.1999511719</ele>
        <time>2014-03-02T09:36:15.000Z</time>
      </trkpt>
      <trkpt lat="45.33248" lon="6.19371">
        <ele>2162.1999511719</ele>
        <time>2014-03-02T09:36:16.000Z</time>
      </trkpt>
      <trkpt lat="45.33248" lon="6.1937">
        <ele>2162.1999511719</ele>
        <time>2014-03-02T09:36:17.000Z</time>
      </trkpt>
      <trkpt lat="45.33249" lon="6.19369">
        <ele>2162.8000488281</ele>
        <time>2014-03-02T09:36:18.000Z</time>
      </trkpt>
      <trkpt lat="45.33249" lon="6.19369">
        <ele>2163</ele>
        <time>2014-03-02T09:36:19.000Z</time>
      </trkpt>
      <trkpt lat="45.3325" lon="6.19368">
        <ele>2163.1999511719</ele>
        <time>2014-03-02T09:36:20.000Z</time>
      </trkpt>
      <trkpt lat="45.3325" lon="6.19367">
        <ele>2163.6000976562</ele>
        <time>2014-03-02T09:36:21.000Z</time>
      </trkpt>
      <trkpt lat="45.3325" lon="6.19367">
        <ele>2163.8000488281</ele>
        <time>2014-03-02T09:36:22.000Z</time>
      </trkpt>
      <trkpt lat="45.3325" lon="6.19367">
        <ele>2163.8000488281</ele>
        <time>2014-03-02T09:36:23.000Z</time>
      </trkpt>
      <trkpt lat="45.3325" lon="6.19366">
        <ele>2164</ele>
        <time>2014-03-02T09:36:24.000Z</time>
      </trkpt>
      <trkpt lat="45.3325" lon="6.19366">
        <ele>2164</ele>
        <time>2014-03-02T09:36:25.000Z</time>
      </trkpt>
      <trkpt lat="45.33251" lon="6.19365">
        <ele>2164.1999511719</ele>
        <time>2014-03-02T09:36:26.000Z</time>
      </trkpt>
      <trkpt lat="45.33251" lon="6.19365">
        <ele>2164.6000976562</ele>
        <time>2014-03-02T09:36:27.000Z</time>
      </trkpt>
      <trkpt lat="45.33251" lon="6.19364">
        <ele>2164.6000976562</ele>
        <time>2014-03-02T09:36:28.000Z</time>
      </trkpt>
      <trkpt lat="45.33251" lon="6.19364">
        <ele>2165</ele>
        <time>2014-03-02T09:36:29.000Z</time>
      </trkpt>
      <trkpt lat="45.33251" lon="6.19363">
        <ele>2165</ele>
        <time>2014-03-02T09:36:30.000Z</time>
      </trkpt>
      <trkpt lat="45.33252" lon="6.19362">
        <ele>2165.3999023438</ele>
        <time>2014-03-02T09:36:31.000Z</time>
      </trkpt>
      <trkpt lat="45.33252" lon="6.19361">
        <ele>2165.8000488281</ele>
        <time>2014-03-02T09:36:32.000Z</time>
      </trkpt>
      <trkpt lat="45.33252" lon="6.19361">
        <ele>2165.8000488281</ele>
        <time>2014-03-02T09:36:33.000Z</time>
      </trkpt>
      <trkpt lat="45.33252" lon="6.19361">
        <ele>2165.8000488281</ele>
        <time>2014-03-02T09:36:34.000Z</time>
      </trkpt>
      <trkpt lat="45.33253" lon="6.1936">
        <ele>2166.1999511719</ele>
        <time>2014-03-02T09:36:35.000Z</time>
      </trkpt>
      <trkpt lat="45.33253" lon="6.1936">
        <ele>2166.1999511719</ele>
        <time>2014-03-02T09:36:36.000Z</time>
      </trkpt>
      <trkpt lat="45.33253" lon="6.19359">
        <ele>2166.6000976562</ele>
        <time>2014-03-02T09:36:37.000Z</time>
      </trkpt>
      <trkpt lat="45.33253" lon="6.19359">
        <ele>2166.6000976562</ele>
        <time>2014-03-02T09:36:38.000Z</time>
      </trkpt>
      <trkpt lat="45.33254" lon="6.19359">
        <ele>2167.1999511719</ele>
        <time>2014-03-02T09:36:39.000Z</time>
      </trkpt>
      <trkpt lat="45.33254" lon="6.19359">
        <ele>2167.1999511719</ele>
        <time>2014-03-02T09:36:40.000Z</time>
      </trkpt>
      <trkpt lat="45.33254" lon="6.19359">
        <ele>2167.1999511719</ele>
        <time>2014-03-02T09:36:41.000Z</time>
      </trkpt>
      <trkpt lat="45.33254" lon="6.19359">
        <ele>2167.1999511719</ele>
        <time>2014-03-02T09:36:42.000Z</time>
      </trkpt>
      <trkpt lat="45.33254" lon="6.19359">
        <ele>2167.1999511719</ele>
        <time>2014-03-02T09:36:43.000Z</time>
      </trkpt>
      <trkpt lat="45.33254" lon="6.19359">
        <ele>2167.1999511719</ele>
        <time>2014-03-02T09:36:44.000Z</time>
      </trkpt>
      <trkpt lat="45.33254" lon="6.19359">
        <ele>2167.1999511719</ele>
        <time>2014-03-02T09:36:45.000Z</time>
      </trkpt>
      <trkpt lat="45.33254" lon="6.19359">
        <ele>2167.1999511719</ele>
        <time>2014-03-02T09:36:46.000Z</time>
      </trkpt>
      <trkpt lat="45.33254" lon="6.19359">
        <ele>2167.1999511719</ele>
        <time>2014-03-02T09:36:47.000Z</time>
      </trkpt>
      <trkpt lat="45.33254" lon="6.19359">
        <ele>2167.1999511719</ele>
        <time>2014-03-02T09:36:48.000Z</time>
      </trkpt>
      <trkpt lat="45.33254" lon="6.19359">
        <ele>2167.1999511719</ele>
        <time>2014-03-02T09:36:49.000Z</time>
      </trkpt>
      <trkpt lat="45.33254" lon="6.19359">
        <ele>2167.1999511719</ele>
        <time>2014-03-02T09:36:50.000Z</time>
      </trkpt>
      <trkpt lat="45.33254" lon="6.1936">
        <ele>2167</ele>
        <time>2014-03-02T09:36:51.000Z</time>
      </trkpt>
      <trkpt lat="45.33254" lon="6.19361">
        <ele>2167</ele>
        <time>2014-03-02T09:36:52.000Z</time>
      </trkpt>
      <trkpt lat="45.33254" lon="6.19362">
        <ele>2166.8000488281</ele>
        <time>2014-03-02T09:36:53.000Z</time>
      </trkpt>
      <trkpt lat="45.33254" lon="6.19363">
        <ele>2167</ele>
        <time>2014-03-02T09:36:54.000Z</time>
      </trkpt>
      <trkpt lat="45.33255" lon="6.19365">
        <ele>2167.3999023438</ele>
        <time>2014-03-02T09:36:56.000Z</time>
      </trkpt>
      <trkpt lat="45.33254" lon="6.19366">
        <ele>2167.1999511719</ele>
        <time>2014-03-02T09:36:57.000Z</time>
      </trkpt>
      <trkpt lat="45.33254" lon="6.19366">
        <ele>2166.8000488281</ele>
        <time>2014-03-02T09:36:58.000Z</time>
      </trkpt>
      <trkpt lat="45.33254" lon="6.19367">
        <ele>2166.3999023438</ele>
        <time>2014-03-02T09:36:59.000Z</time>
      </trkpt>
      <trkpt lat="45.33254" lon="6.19368">
        <ele>2166.3999023438</ele>
        <time>2014-03-02T09:37:00.000Z</time>
      </trkpt>
      <trkpt lat="45.33253" lon="6.19369">
        <ele>2166.1999511719</ele>
        <time>2014-03-02T09:37:01.000Z</time>
      </trkpt>
      <trkpt lat="45.33254" lon="6.19369">
        <ele>2166.1999511719</ele>
        <time>2014-03-02T09:37:02.000Z</time>
      </trkpt>
      <trkpt lat="45.33254" lon="6.1937">
        <ele>2166.3999023438</ele>
        <time>2014-03-02T09:37:03.000Z</time>
      </trkpt>
      <trkpt lat="45.33254" lon="6.19371">
        <ele>2166.6000976562</ele>
        <time>2014-03-02T09:37:04.000Z</time>
      </trkpt>
      <trkpt lat="45.33254" lon="6.19371">
        <ele>2166.6000976562</ele>
        <time>2014-03-02T09:37:05.000Z</time>
      </trkpt>
      <trkpt lat="45.33255" lon="6.19371">
        <ele>2167</ele>
        <time>2014-03-02T09:37:06.000Z</time>
      </trkpt>
      <trkpt lat="45.33255" lon="6.19373">
        <ele>2167</ele>
        <time>2014-03-02T09:37:07.000Z</time>
      </trkpt>
      <trkpt lat="45.33255" lon="6.19373">
        <ele>2167</ele>
        <time>2014-03-02T09:37:08.000Z</time>
      </trkpt>
      <trkpt lat="45.33255" lon="6.19374">
        <ele>2166.8000488281</ele>
        <time>2014-03-02T09:37:09.000Z</time>
      </trkpt>
      <trkpt lat="45.33255" lon="6.19375">
        <ele>2166.8000488281</ele>
        <time>2014-03-02T09:37:10.000Z</time>
      </trkpt>
      <trkpt lat="45.33255" lon="6.19376">
        <ele>2166.6000976562</ele>
        <time>2014-03-02T09:37:11.000Z</time>
      </trkpt>
      <trkpt lat="45.33255" lon="6.19377">
        <ele>2166.8000488281</ele>
        <time>2014-03-02T09:37:12.000Z</time>
      </trkpt>
      <trkpt lat="45.33255" lon="6.19378">
        <ele>2167</ele>
        <time>2014-03-02T09:37:13.000Z</time>
      </trkpt>
      <trkpt lat="45.33256" lon="6.19379">
        <ele>2167</ele>
        <time>2014-03-02T09:37:14.000Z</time>
      </trkpt>
      <trkpt lat="45.33256" lon="6.1938">
        <ele>2167.1999511719</ele>
        <time>2014-03-02T09:37:15.000Z</time>
      </trkpt>
      <trkpt lat="45.33256" lon="6.19381">
        <ele>2167.1999511719</ele>
        <time>2014-03-02T09:37:16.000Z</time>
      </trkpt>
      <trkpt lat="45.33256" lon="6.19382">
        <ele>2167.1999511719</ele>
        <time>2014-03-02T09:37:17.000Z</time>
      </trkpt>
      <trkpt lat="45.33256" lon="6.19384">
        <ele>2166.8000488281</ele>
        <time>2014-03-02T09:37:18.000Z</time>
      </trkpt>
      <trkpt lat="45.33255" lon="6.19384">
        <ele>2166.6000976562</ele>
        <time>2014-03-02T09:37:19.000Z</time>
      </trkpt>
      <trkpt lat="45.33255" lon="6.19385">
        <ele>2166.3999023438</ele>
        <time>2014-03-02T09:37:20.000Z</time>
      </trkpt>
      <trkpt lat="45.33255" lon="6.19386">
        <ele>2166.1999511719</ele>
        <time>2014-03-02T09:37:21.000Z</time>
      </trkpt>
      <trkpt lat="45.33255" lon="6.19386">
        <ele>2166.1999511719</ele>
        <time>2014-03-02T09:37:22.000Z</time>
      </trkpt>
      <trkpt lat="45.33255" lon="6.19387">
        <ele>2166.1999511719</ele>
        <time>2014-03-02T09:37:23.000Z</time>
      </trkpt>
      <trkpt lat="45.33255" lon="6.19387">
        <ele>2166.3999023438</ele>
        <time>2014-03-02T09:37:24.000Z</time>
      </trkpt>
      <trkpt lat="45.33255" lon="6.19387">
        <ele>2166.3999023438</ele>
        <time>2014-03-02T09:37:25.000Z</time>
      </trkpt>
      <trkpt lat="45.33255" lon="6.19388">
        <ele>2166.3999023438</ele>
        <time>2014-03-02T09:37:26.000Z</time>
      </trkpt>
      <trkpt lat="45.33256" lon="6.19389">
        <ele>2166.3999023438</ele>
        <time>2014-03-02T09:37:27.000Z</time>
      </trkpt>
      <trkpt lat="45.33256" lon="6.19389">
        <ele>2166.3999023438</ele>
        <time>2014-03-02T09:37:28.000Z</time>
      </trkpt>
      <trkpt lat="45.33256" lon="6.19391">
        <ele>2166.3999023438</ele>
        <time>2014-03-02T09:37:29.000Z</time>
      </trkpt>
      <trkpt lat="45.33256" lon="6.19391">
        <ele>2166.3999023438</ele>
        <time>2014-03-02T09:37:30.000Z</time>
      </trkpt>
      <trkpt lat="45.33256" lon="6.19391">
        <ele>2166.3999023438</ele>
        <time>2014-03-02T09:37:31.000Z</time>
      </trkpt>
      <trkpt lat="45.33256" lon="6.19392">
        <ele>2166.1999511719</ele>
        <time>2014-03-02T09:37:32.000Z</time>
      </trkpt>
      <trkpt lat="45.33256" lon="6.19393">
        <ele>2166.3999023438</ele>
        <time>2014-03-02T09:37:33.000Z</time>
      </trkpt>
      <trkpt lat="45.33256" lon="6.19395">
        <ele>2166.1999511719</ele>
        <time>2014-03-02T09:37:34.000Z</time>
      </trkpt>
      <trkpt lat="45.33256" lon="6.19396">
        <ele>2166.1999511719</ele>
        <time>2014-03-02T09:37:35.000Z</time>
      </trkpt>
      <trkpt lat="45.33256" lon="6.19396">
        <ele>2165.8000488281</ele>
        <time>2014-03-02T09:37:36.000Z</time>
      </trkpt>
      <trkpt lat="45.33255" lon="6.19397">
        <ele>2165.6000976562</ele>
        <time>2014-03-02T09:37:37.000Z</time>
      </trkpt>
      <trkpt lat="45.33255" lon="6.19398">
        <ele>2165.1999511719</ele>
        <time>2014-03-02T09:37:38.000Z</time>
      </trkpt>
      <trkpt lat="45.33255" lon="6.19399">
        <ele>2165</ele>
        <time>2014-03-02T09:37:39.000Z</time>
      </trkpt>
      <trkpt lat="45.33255" lon="6.19399">
        <ele>2164.8000488281</ele>
        <time>2014-03-02T09:37:40.000Z</time>
      </trkpt>
      <trkpt lat="45.33255" lon="6.194">
        <ele>2164.6000976562</ele>
        <time>2014-03-02T09:37:41.000Z</time>
      </trkpt>
      <trkpt lat="45.33255" lon="6.19401">
        <ele>2164.1999511719</ele>
        <time>2014-03-02T09:37:42.000Z</time>
      </trkpt>
      <trkpt lat="45.33255" lon="6.19401">
        <ele>2164</ele>
        <time>2014-03-02T09:37:43.000Z</time>
      </trkpt>
      <trkpt lat="45.33255" lon="6.19402">
        <ele>2164</ele>
        <time>2014-03-02T09:37:44.000Z</time>
      </trkpt>
      <trkpt lat="45.33255" lon="6.19402">
        <ele>2164</ele>
        <time>2014-03-02T09:37:45.000Z</time>
      </trkpt>
      <trkpt lat="45.33255" lon="6.19403">
        <ele>2163.8000488281</ele>
        <time>2014-03-02T09:37:46.000Z</time>
      </trkpt>
      <trkpt lat="45.33255" lon="6.19405">
        <ele>2163.6000976562</ele>
        <time>2014-03-02T09:37:47.000Z</time>
      </trkpt>
      <trkpt lat="45.33255" lon="6.19405">
        <ele>2163.6000976562</ele>
        <time>2014-03-02T09:37:48.000Z</time>
      </trkpt>
      <trkpt lat="45.33255" lon="6.19407">
        <ele>2163.3999023438</ele>
        <time>2014-03-02T09:37:49.000Z</time>
      </trkpt>
      <trkpt lat="45.33255" lon="6.19407">
        <ele>2163.3999023438</ele>
        <time>2014-03-02T09:37:50.000Z</time>
      </trkpt>
      <trkpt lat="45.33255" lon="6.19408">
        <ele>2163.1999511719</ele>
        <time>2014-03-02T09:37:51.000Z</time>
      </trkpt>
      <trkpt lat="45.33254" lon="6.19409">
        <ele>2162.8000488281</ele>
        <time>2014-03-02T09:37:52.000Z</time>
      </trkpt>
      <trkpt lat="45.33254" lon="6.1941">
        <ele>2162.1999511719</ele>
        <time>2014-03-02T09:37:53.000Z</time>
      </trkpt>
      <trkpt lat="45.33254" lon="6.1941">
        <ele>2162.1999511719</ele>
        <time>2014-03-02T09:37:54.000Z</time>
      </trkpt>
      <trkpt lat="45.33254" lon="6.19411">
        <ele>2162.3999023438</ele>
        <time>2014-03-02T09:37:55.000Z</time>
      </trkpt>
      <trkpt lat="45.33254" lon="6.19411">
        <ele>2162.3999023438</ele>
        <time>2014-03-02T09:37:56.000Z</time>
      </trkpt>
      <trkpt lat="45.33255" lon="6.19411">
        <ele>2162.3999023438</ele>
        <time>2014-03-02T09:37:57.000Z</time>
      </trkpt>
      <trkpt lat="45.33255" lon="6.19411">
        <ele>2162.3999023438</ele>
        <time>2014-03-02T09:37:58.000Z</time>
      </trkpt>
      <trkpt lat="45.33255" lon="6.19411">
        <ele>2162.3999023438</ele>
        <time>2014-03-02T09:37:59.000Z</time>
      </trkpt>
      <trkpt lat="45.33255" lon="6.19411">
        <ele>2162.3999023438</ele>
        <time>2014-03-02T09:38:00.000Z</time>
      </trkpt>
      <trkpt lat="45.33254" lon="6.19412">
        <ele>2162.1999511719</ele>
        <time>2014-03-02T09:38:01.000Z</time>
      </trkpt>
      <trkpt lat="45.33254" lon="6.19412">
        <ele>2162.1999511719</ele>
        <time>2014-03-02T09:38:02.000Z</time>
      </trkpt>
      <trkpt lat="45.33254" lon="6.19412">
        <ele>2162.1999511719</ele>
        <time>2014-03-02T09:38:03.000Z</time>
      </trkpt>
      <trkpt lat="45.33254" lon="6.19412">
        <ele>2162.1999511719</ele>
        <time>2014-03-02T09:38:04.000Z</time>
      </trkpt>
      <trkpt lat="45.33254" lon="6.19412">
        <ele>2162.1999511719</ele>
        <time>2014-03-02T09:38:05.000Z</time>
      </trkpt>
      <trkpt lat="45.33255" lon="6.19412">
        <ele>2162.6000976562</ele>
        <time>2014-03-02T09:38:07.000Z</time>
      </trkpt>
      <trkpt lat="45.33258" lon="6.1941">
        <ele>2165.1999511719</ele>
        <time>2014-03-02T09:38:11.000Z</time>
      </trkpt>
      <trkpt lat="45.33259" lon="6.1941">
        <ele>2166</ele>
        <time>2014-03-02T09:38:12.000Z</time>
      </trkpt>
      <trkpt lat="45.3326" lon="6.1941">
        <ele>2166.6000976562</ele>
        <time>2014-03-02T09:38:13.000Z</time>
      </trkpt>
      <trkpt lat="45.3326" lon="6.1941">
        <ele>2167.1999511719</ele>
        <time>2014-03-02T09:38:14.000Z</time>
      </trkpt>
      <trkpt lat="45.33261" lon="6.19409">
        <ele>2167.8000488281</ele>
        <time>2014-03-02T09:38:15.000Z</time>
      </trkpt>
      <trkpt lat="45.33262" lon="6.19409">
        <ele>2168.3999023438</ele>
        <time>2014-03-02T09:38:16.000Z</time>
      </trkpt>
      <trkpt lat="45.33262" lon="6.19409">
        <ele>2168.3999023438</ele>
        <time>2014-03-02T09:38:17.000Z</time>
      </trkpt>
      <trkpt lat="45.33263" lon="6.19409">
        <ele>2169.1999511719</ele>
        <time>2014-03-02T09:38:18.000Z</time>
      </trkpt>
      <trkpt lat="45.33263" lon="6.19408">
        <ele>2169.6000976562</ele>
        <time>2014-03-02T09:38:19.000Z</time>
      </trkpt>
      <trkpt lat="45.33264" lon="6.19408">
        <ele>2170</ele>
        <time>2014-03-02T09:38:20.000Z</time>
      </trkpt>
      <trkpt lat="45.33265" lon="6.19408">
        <ele>2171</ele>
        <time>2014-03-02T09:38:21.000Z</time>
      </trkpt>
      <trkpt lat="45.33265" lon="6.19407">
        <ele>2171</ele>
        <time>2014-03-02T09:38:22.000Z</time>
      </trkpt>
      <trkpt lat="45.33265" lon="6.19407">
        <ele>2171</ele>
        <time>2014-03-02T09:38:23.000Z</time>
      </trkpt>
      <trkpt lat="45.33266" lon="6.19406">
        <ele>2171.8000488281</ele>
        <time>2014-03-02T09:38:24.000Z</time>
      </trkpt>
      <trkpt lat="45.33266" lon="6.19406">
        <ele>2172.3999023438</ele>
        <time>2014-03-02T09:38:25.000Z</time>
      </trkpt>
      <trkpt lat="45.33266" lon="6.19406">
        <ele>2172.3999023438</ele>
        <time>2014-03-02T09:38:26.000Z</time>
      </trkpt>
      <trkpt lat="45.33267" lon="6.19405">
        <ele>2173.1999511719</ele>
        <time>2014-03-02T09:38:27.000Z</time>
      </trkpt>
      <trkpt lat="45.33267" lon="6.19405">
        <ele>2173.1999511719</ele>
        <time>2014-03-02T09:38:28.000Z</time>
      </trkpt>
      <trkpt lat="45.33268" lon="6.19404">
        <ele>2173.8000488281</ele>
        <time>2014-03-02T09:38:29.000Z</time>
      </trkpt>
      <trkpt lat="45.33268" lon="6.19403">
        <ele>2174.1999511719</ele>
        <time>2014-03-02T09:38:30.000Z</time>
      </trkpt>
      <trkpt lat="45.33268" lon="6.19403">
        <ele>2174.3999023438</ele>
        <time>2014-03-02T09:38:31.000Z</time>
      </trkpt>
      <trkpt lat="45.33269" lon="6.19401">
        <ele>2175.6000976562</ele>
        <time>2014-03-02T09:38:32.000Z</time>
      </trkpt>
      <trkpt lat="45.33269" lon="6.19401">
        <ele>2175.3999023438</ele>
        <time>2014-03-02T09:38:33.000Z</time>
      </trkpt>
      <trkpt lat="45.33269" lon="6.194">
        <ele>2175.6000976562</ele>
        <time>2014-03-02T09:38:34.000Z</time>
      </trkpt>
      <trkpt lat="45.33269" lon="6.19399">
        <ele>2175.8000488281</ele>
        <time>2014-03-02T09:38:35.000Z</time>
      </trkpt>
      <trkpt lat="45.33269" lon="6.19398">
        <ele>2176</ele>
        <time>2014-03-02T09:38:36.000Z</time>
      </trkpt>
      <trkpt lat="45.3327" lon="6.19398">
        <ele>2176.3999023438</ele>
        <time>2014-03-02T09:38:37.000Z</time>
      </trkpt>
      <trkpt lat="45.3327" lon="6.19397">
        <ele>2176.8000488281</ele>
        <time>2014-03-02T09:38:38.000Z</time>
      </trkpt>
      <trkpt lat="45.3327" lon="6.19397">
        <ele>2176.8000488281</ele>
        <time>2014-03-02T09:38:39.000Z</time>
      </trkpt>
      <trkpt lat="45.33271" lon="6.19397">
        <ele>2177.1999511719</ele>
        <time>2014-03-02T09:38:40.000Z</time>
      </trkpt>
      <trkpt lat="45.33271" lon="6.19396">
        <ele>2177.6000976562</ele>
        <time>2014-03-02T09:38:41.000Z</time>
      </trkpt>
      <trkpt lat="45.33271" lon="6.19396">
        <ele>2177.8000488281</ele>
        <time>2014-03-02T09:38:42.000Z</time>
      </trkpt>
      <trkpt lat="45.33272" lon="6.19396">
        <ele>2178.1999511719</ele>
        <time>2014-03-02T09:38:43.000Z</time>
      </trkpt>
      <trkpt lat="45.33272" lon="6.19395">
        <ele>2178.3999023438</ele>
        <time>2014-03-02T09:38:44.000Z</time>
      </trkpt>
      <trkpt lat="45.33273" lon="6.19395">
        <ele>2178.8000488281</ele>
        <time>2014-03-02T09:38:45.000Z</time>
      </trkpt>
      <trkpt lat="45.33273" lon="6.19395">
        <ele>2178.8000488281</ele>
        <time>2014-03-02T09:38:46.000Z</time>
      </trkpt>
      <trkpt lat="45.33273" lon="6.19395">
        <ele>2178.8000488281</ele>
        <time>2014-03-02T09:38:47.000Z</time>
      </trkpt>
      <trkpt lat="45.33273" lon="6.19395">
        <ele>2178.8000488281</ele>
        <time>2014-03-02T09:38:48.000Z</time>
      </trkpt>
      <trkpt lat="45.33273" lon="6.19395">
        <ele>2178.8000488281</ele>
        <time>2014-03-02T09:38:49.000Z</time>
      </trkpt>
      <trkpt lat="45.33273" lon="6.19395">
        <ele>2178.8000488281</ele>
        <time>2014-03-02T09:38:50.000Z</time>
      </trkpt>
      <trkpt lat="45.33273" lon="6.19395">
        <ele>2178.8000488281</ele>
        <time>2014-03-02T09:38:51.000Z</time>
      </trkpt>
      <trkpt lat="45.33273" lon="6.19395">
        <ele>2178.8000488281</ele>
        <time>2014-03-02T09:38:52.000Z</time>
      </trkpt>
      <trkpt lat="45.33273" lon="6.19395">
        <ele>2178.8000488281</ele>
        <time>2014-03-02T09:38:53.000Z</time>
      </trkpt>
      <trkpt lat="45.33273" lon="6.19395">
        <ele>2178.8000488281</ele>
        <time>2014-03-02T09:38:54.000Z</time>
      </trkpt>
      <trkpt lat="45.33273" lon="6.19395">
        <ele>2178.8000488281</ele>
        <time>2014-03-02T09:38:55.000Z</time>
      </trkpt>
      <trkpt lat="45.33272" lon="6.19396">
        <ele>2178.6000976562</ele>
        <time>2014-03-02T09:38:56.000Z</time>
      </trkpt>
      <trkpt lat="45.33272" lon="6.19398">
        <ele>2178.1999511719</ele>
        <time>2014-03-02T09:38:57.000Z</time>
      </trkpt>
      <trkpt lat="45.33272" lon="6.19399">
        <ele>2178</ele>
        <time>2014-03-02T09:38:58.000Z</time>
      </trkpt>
      <trkpt lat="45.33272" lon="6.194">
        <ele>2177.6000976562</ele>
        <time>2014-03-02T09:38:59.000Z</time>
      </trkpt>
      <trkpt lat="45.33272" lon="6.194">
        <ele>2177.3999023438</ele>
        <time>2014-03-02T09:39:00.000Z</time>
      </trkpt>
      <trkpt lat="45.33271" lon="6.19401">
        <ele>2177.1999511719</ele>
        <time>2014-03-02T09:39:01.000Z</time>
      </trkpt>
      <trkpt lat="45.33271" lon="6.19401">
        <ele>2177.1999511719</ele>
        <time>2014-03-02T09:39:02.000Z</time>
      </trkpt>
      <trkpt lat="45.33271" lon="6.19402">
        <ele>2177</ele>
        <time>2014-03-02T09:39:03.000Z</time>
      </trkpt>
      <trkpt lat="45.33271" lon="6.19404">
        <ele>2176.3999023438</ele>
        <time>2014-03-02T09:39:04.000Z</time>
      </trkpt>
      <trkpt lat="45.33271" lon="6.19404">
        <ele>2176.1999511719</ele>
        <time>2014-03-02T09:39:05.000Z</time>
      </trkpt>
      <trkpt lat="45.33271" lon="6.19405">
        <ele>2176</ele>
        <time>2014-03-02T09:39:06.000Z</time>
      </trkpt>
      <trkpt lat="45.33271" lon="6.19406">
        <ele>2175.8000488281</ele>
        <time>2014-03-02T09:39:07.000Z</time>
      </trkpt>
      <trkpt lat="45.33271" lon="6.19407">
        <ele>2175.8000488281</ele>
        <time>2014-03-02T09:39:08.000Z</time>
      </trkpt>
      <trkpt lat="45.33271" lon="6.19408">
        <ele>2175.8000488281</ele>
        <time>2014-03-02T09:39:09.000Z</time>
      </trkpt>
      <trkpt lat="45.33271" lon="6.19409">
        <ele>2175.8000488281</ele>
        <time>2014-03-02T09:39:10.000Z</time>
      </trkpt>
      <trkpt lat="45.33272" lon="6.1941">
        <ele>2175.6000976562</ele>
        <time>2014-03-02T09:39:11.000Z</time>
      </trkpt>
      <trkpt lat="45.33272" lon="6.19411">
        <ele>2175.6000976562</ele>
        <time>2014-03-02T09:39:12.000Z</time>
      </trkpt>
      <trkpt lat="45.33272" lon="6.19412">
        <ele>2175.6000976562</ele>
        <time>2014-03-02T09:39:13.000Z</time>
      </trkpt>
      <trkpt lat="45.33272" lon="6.19413">
        <ele>2175.3999023438</ele>
        <time>2014-03-02T09:39:14.000Z</time>
      </trkpt>
      <trkpt lat="45.33271" lon="6.19414">
        <ele>2175</ele>
        <time>2014-03-02T09:39:15.000Z</time>
      </trkpt>
      <trkpt lat="45.33271" lon="6.19414">
        <ele>2174.8000488281</ele>
        <time>2014-03-02T09:39:16.000Z</time>
      </trkpt>
      <trkpt lat="45.33271" lon="6.19415">
        <ele>2174.8000488281</ele>
        <time>2014-03-02T09:39:17.000Z</time>
      </trkpt>
      <trkpt lat="45.33272" lon="6.19416">
        <ele>2174.8000488281</ele>
        <time>2014-03-02T09:39:18.000Z</time>
      </trkpt>
      <trkpt lat="45.33272" lon="6.19416">
        <ele>2174.8000488281</ele>
        <time>2014-03-02T09:39:19.000Z</time>
      </trkpt>
      <trkpt lat="45.33272" lon="6.19416">
        <ele>2174.6000976562</ele>
        <time>2014-03-02T09:39:20.000Z</time>
      </trkpt>
      <trkpt lat="45.33271" lon="6.19417">
        <ele>2174.1999511719</ele>
        <time>2014-03-02T09:39:21.000Z</time>
      </trkpt>
      <trkpt lat="45.33271" lon="6.19417">
        <ele>2173.8000488281</ele>
        <time>2014-03-02T09:39:22.000Z</time>
      </trkpt>
      <trkpt lat="45.3327" lon="6.19418">
        <ele>2173.6000976562</ele>
        <time>2014-03-02T09:39:23.000Z</time>
      </trkpt>
      <trkpt lat="45.3327" lon="6.19419">
        <ele>2173.1999511719</ele>
        <time>2014-03-02T09:39:24.000Z</time>
      </trkpt>
      <trkpt lat="45.3327" lon="6.1942">
        <ele>2172.6000976562</ele>
        <time>2014-03-02T09:39:25.000Z</time>
      </trkpt>
      <trkpt lat="45.3327" lon="6.19421">
        <ele>2172.3999023438</ele>
        <time>2014-03-02T09:39:26.000Z</time>
      </trkpt>
      <trkpt lat="45.33269" lon="6.19421">
        <ele>2172.1999511719</ele>
        <time>2014-03-02T09:39:27.000Z</time>
      </trkpt>
      <trkpt lat="45.33269" lon="6.19422">
        <ele>2172</ele>
        <time>2014-03-02T09:39:28.000Z</time>
      </trkpt>
      <trkpt lat="45.33269" lon="6.19422">
        <ele>2172</ele>
        <time>2014-03-02T09:39:29.000Z</time>
      </trkpt>
      <trkpt lat="45.33269" lon="6.19423">
        <ele>2172</ele>
        <time>2014-03-02T09:39:30.000Z</time>
      </trkpt>
      <trkpt lat="45.3327" lon="6.19424">
        <ele>2172</ele>
        <time>2014-03-02T09:39:31.000Z</time>
      </trkpt>
      <trkpt lat="45.3327" lon="6.19424">
        <ele>2171.8000488281</ele>
        <time>2014-03-02T09:39:32.000Z</time>
      </trkpt>
      <trkpt lat="45.33269" lon="6.19425">
        <ele>2171.3999023438</ele>
        <time>2014-03-02T09:39:33.000Z</time>
      </trkpt>
      <trkpt lat="45.33269" lon="6.19425">
        <ele>2171</ele>
        <time>2014-03-02T09:39:34.000Z</time>
      </trkpt>
      <trkpt lat="45.33269" lon="6.19426">
        <ele>2170.8000488281</ele>
        <time>2014-03-02T09:39:35.000Z</time>
      </trkpt>
      <trkpt lat="45.33269" lon="6.19426">
        <ele>2170.8000488281</ele>
        <time>2014-03-02T09:39:36.000Z</time>
      </trkpt>
      <trkpt lat="45.33269" lon="6.19426">
        <ele>2170.8000488281</ele>
        <time>2014-03-02T09:39:37.000Z</time>
      </trkpt>
      <trkpt lat="45.33269" lon="6.19426">
        <ele>2170.8000488281</ele>
        <time>2014-03-02T09:39:38.000Z</time>
      </trkpt>
      <trkpt lat="45.33269" lon="6.19426">
        <ele>2170.8000488281</ele>
        <time>2014-03-02T09:39:39.000Z</time>
      </trkpt>
      <trkpt lat="45.33269" lon="6.19426">
        <ele>2170.8000488281</ele>
        <time>2014-03-02T09:39:40.000Z</time>
      </trkpt>
      <trkpt lat="45.33269" lon="6.19426">
        <ele>2170.8000488281</ele>
        <time>2014-03-02T09:39:41.000Z</time>
      </trkpt>
      <trkpt lat="45.33269" lon="6.19426">
        <ele>2170.8000488281</ele>
        <time>2014-03-02T09:39:42.000Z</time>
      </trkpt>
      <trkpt lat="45.33269" lon="6.19426">
        <ele>2170.8000488281</ele>
        <time>2014-03-02T09:39:43.000Z</time>
      </trkpt>
      <trkpt lat="45.33269" lon="6.19426">
        <ele>2170.8000488281</ele>
        <time>2014-03-02T09:39:44.000Z</time>
      </trkpt>
      <trkpt lat="45.33269" lon="6.19426">
        <ele>2170.8000488281</ele>
        <time>2014-03-02T09:39:45.000Z</time>
      </trkpt>
      <trkpt lat="45.33269" lon="6.19426">
        <ele>2170.8000488281</ele>
        <time>2014-03-02T09:39:46.000Z</time>
      </trkpt>
      <trkpt lat="45.33269" lon="6.19426">
        <ele>2170.8000488281</ele>
        <time>2014-03-02T09:39:47.000Z</time>
      </trkpt>
      <trkpt lat="45.33269" lon="6.19426">
        <ele>2170.8000488281</ele>
        <time>2014-03-02T09:39:48.000Z</time>
      </trkpt>
      <trkpt lat="45.33269" lon="6.19426">
        <ele>2170.8000488281</ele>
        <time>2014-03-02T09:39:49.000Z</time>
      </trkpt>
      <trkpt lat="45.33269" lon="6.19426">
        <ele>2170.8000488281</ele>
        <time>2014-03-02T09:39:50.000Z</time>
      </trkpt>
      <trkpt lat="45.3327" lon="6.19425">
        <ele>2172</ele>
        <time>2014-03-02T09:39:51.000Z</time>
      </trkpt>
      <trkpt lat="45.33271" lon="6.19424">
        <ele>2172.6000976562</ele>
        <time>2014-03-02T09:39:52.000Z</time>
      </trkpt>
      <trkpt lat="45.33271" lon="6.19424">
        <ele>2172.6000976562</ele>
        <time>2014-03-02T09:39:53.000Z</time>
      </trkpt>
      <trkpt lat="45.33271" lon="6.19424">
        <ele>2173.1999511719</ele>
        <time>2014-03-02T09:39:54.000Z</time>
      </trkpt>
      <trkpt lat="45.33271" lon="6.19424">
        <ele>2173.1999511719</ele>
        <time>2014-03-02T09:39:55.000Z</time>
      </trkpt>
      <trkpt lat="45.33272" lon="6.19423">
        <ele>2173.8000488281</ele>
        <time>2014-03-02T09:39:56.000Z</time>
      </trkpt>
      <trkpt lat="45.33272" lon="6.19423">
        <ele>2173.8000488281</ele>
        <time>2014-03-02T09:39:57.000Z</time>
      </trkpt>
      <trkpt lat="45.33272" lon="6.19423">
        <ele>2173.8000488281</ele>
        <time>2014-03-02T09:39:58.000Z</time>
      </trkpt>
      <trkpt lat="45.33273" lon="6.19422">
        <ele>2174.6000976562</ele>
        <time>2014-03-02T09:39:59.000Z</time>
      </trkpt>
      <trkpt lat="45.33273" lon="6.19422">
        <ele>2174.6000976562</ele>
        <time>2014-03-02T09:40:00.000Z</time>
      </trkpt>
      <trkpt lat="45.33273" lon="6.19422">
        <ele>2175.1999511719</ele>
        <time>2014-03-02T09:40:01.000Z</time>
      </trkpt>
      <trkpt lat="45.33273" lon="6.19422">
        <ele>2175.1999511719</ele>
        <time>2014-03-02T09:40:02.000Z</time>
      </trkpt>
      <trkpt lat="45.33274" lon="6.19421">
        <ele>2175.8000488281</ele>
        <time>2014-03-02T09:40:03.000Z</time>
      </trkpt>
      <trkpt lat="45.33274" lon="6.19421">
        <ele>2175.8000488281</ele>
        <time>2014-03-02T09:40:04.000Z</time>
      </trkpt>
      <trkpt lat="45.33274" lon="6.1942">
        <ele>2176.1999511719</ele>
        <time>2014-03-02T09:40:05.000Z</time>
      </trkpt>
      <trkpt lat="45.33275" lon="6.19419">
        <ele>2176.8000488281</ele>
        <time>2014-03-02T09:40:06.000Z</time>
      </trkpt>
      <trkpt lat="45.33276" lon="6.19419">
        <ele>2177.6000976562</ele>
        <time>2014-03-02T09:40:07.000Z</time>
      </trkpt>
      <trkpt lat="45.33277" lon="6.19418">
        <ele>2178.3999023438</ele>
        <time>2014-03-02T09:40:08.000Z</time>
      </trkpt>
      <trkpt lat="45.33278" lon="6.19417">
        <ele>2179.1999511719</ele>
        <time>2014-03-02T09:40:09.000Z</time>
      </trkpt>
      <trkpt lat="45.33279" lon="6.19417">
        <ele>2180</ele>
        <time>2014-03-02T09:40:10.000Z</time>
      </trkpt>
      <trkpt lat="45.33279" lon="6.19417">
        <ele>2180</ele>
        <time>2014-03-02T09:40:11.000Z</time>
      </trkpt>
      <trkpt lat="45.33279" lon="6.19416">
        <ele>2180.8000488281</ele>
        <time>2014-03-02T09:40:12.000Z</time>
      </trkpt>
      <trkpt lat="45.3328" lon="6.19416">
        <ele>2181.6000976562</ele>
        <time>2014-03-02T09:40:13.000Z</time>
      </trkpt>
      <trkpt lat="45.3328" lon="6.19416">
        <ele>2181.6000976562</ele>
        <time>2014-03-02T09:40:14.000Z</time>
      </trkpt>
      <trkpt lat="45.33281" lon="6.19415">
        <ele>2181.8000488281</ele>
        <time>2014-03-02T09:40:15.000Z</time>
      </trkpt>
      <trkpt lat="45.33281" lon="6.19415">
        <ele>2182.3999023438</ele>
        <time>2014-03-02T09:40:16.000Z</time>
      </trkpt>
      <trkpt lat="45.33282" lon="6.19415">
        <ele>2182.6000976562</ele>
        <time>2014-03-02T09:40:17.000Z</time>
      </trkpt>
      <trkpt lat="45.33282" lon="6.19414">
        <ele>2183.1999511719</ele>
        <time>2014-03-02T09:40:18.000Z</time>
      </trkpt>
      <trkpt lat="45.33282" lon="6.19413">
        <ele>2183.3999023438</ele>
        <time>2014-03-02T09:40:19.000Z</time>
      </trkpt>
      <trkpt lat="45.33283" lon="6.19413">
        <ele>2183.6000976562</ele>
        <time>2014-03-02T09:40:20.000Z</time>
      </trkpt>
      <trkpt lat="45.33283" lon="6.19413">
        <ele>2183.6000976562</ele>
        <time>2014-03-02T09:40:21.000Z</time>
      </trkpt>
      <trkpt lat="45.33283" lon="6.19412">
        <ele>2184.1999511719</ele>
        <time>2014-03-02T09:40:22.000Z</time>
      </trkpt>
      <trkpt lat="45.33283" lon="6.19412">
        <ele>2184.1999511719</ele>
        <time>2014-03-02T09:40:23.000Z</time>
      </trkpt>
      <trkpt lat="45.33283" lon="6.19411">
        <ele>2184.6000976562</ele>
        <time>2014-03-02T09:40:24.000Z</time>
      </trkpt>
      <trkpt lat="45.33283" lon="6.19411">
        <ele>2184.6000976562</ele>
        <time>2014-03-02T09:40:25.000Z</time>
      </trkpt>
      <trkpt lat="45.33284" lon="6.1941">
        <ele>2185</ele>
        <time>2014-03-02T09:40:26.000Z</time>
      </trkpt>
      <trkpt lat="45.33284" lon="6.1941">
        <ele>2185.3999023438</ele>
        <time>2014-03-02T09:40:27.000Z</time>
      </trkpt>
      <trkpt lat="45.33284" lon="6.1941">
        <ele>2185.3999023438</ele>
        <time>2014-03-02T09:40:28.000Z</time>
      </trkpt>
      <trkpt lat="45.33285" lon="6.19409">
        <ele>2186</ele>
        <time>2014-03-02T09:40:29.000Z</time>
      </trkpt>
      <trkpt lat="45.33285" lon="6.19409">
        <ele>2186</ele>
        <time>2014-03-02T09:40:30.000Z</time>
      </trkpt>
      <trkpt lat="45.33285" lon="6.19409">
        <ele>2186</ele>
        <time>2014-03-02T09:40:31.000Z</time>
      </trkpt>
      <trkpt lat="45.33284" lon="6.19409">
        <ele>2185.6000976562</ele>
        <time>2014-03-02T09:40:32.000Z</time>
      </trkpt>
      <trkpt lat="45.33284" lon="6.19409">
        <ele>2185.6000976562</ele>
        <time>2014-03-02T09:40:33.000Z</time>
      </trkpt>
      <trkpt lat="45.33284" lon="6.19409">
        <ele>2185.6000976562</ele>
        <time>2014-03-02T09:40:34.000Z</time>
      </trkpt>
      <trkpt lat="45.33284" lon="6.19409">
        <ele>2185.6000976562</ele>
        <time>2014-03-02T09:40:35.000Z</time>
      </trkpt>
      <trkpt lat="45.33284" lon="6.19409">
        <ele>2185.6000976562</ele>
        <time>2014-03-02T09:40:36.000Z</time>
      </trkpt>
      <trkpt lat="45.33284" lon="6.19409">
        <ele>2185.6000976562</ele>
        <time>2014-03-02T09:40:37.000Z</time>
      </trkpt>
      <trkpt lat="45.33284" lon="6.19409">
        <ele>2185.6000976562</ele>
        <time>2014-03-02T09:40:38.000Z</time>
      </trkpt>
      <trkpt lat="45.33285" lon="6.19411">
        <ele>2185.6000976562</ele>
        <time>2014-03-02T09:40:39.000Z</time>
      </trkpt>
      <trkpt lat="45.33285" lon="6.19412">
        <ele>2185.6000976562</ele>
        <time>2014-03-02T09:40:40.000Z</time>
      </trkpt>
      <trkpt lat="45.33285" lon="6.19412">
        <ele>2185.8000488281</ele>
        <time>2014-03-02T09:40:41.000Z</time>
      </trkpt>
      <trkpt lat="45.33285" lon="6.19413">
        <ele>2185.8000488281</ele>
        <time>2014-03-02T09:40:42.000Z</time>
      </trkpt>
      <trkpt lat="45.33285" lon="6.19414">
        <ele>2185.6000976562</ele>
        <time>2014-03-02T09:40:43.000Z</time>
      </trkpt>
      <trkpt lat="45.33285" lon="6.19415">
        <ele>2185.3999023438</ele>
        <time>2014-03-02T09:40:44.000Z</time>
      </trkpt>
      <trkpt lat="45.33286" lon="6.19417">
        <ele>2185.3999023438</ele>
        <time>2014-03-02T09:40:45.000Z</time>
      </trkpt>
      <trkpt lat="45.33286" lon="6.19417">
        <ele>2185.6000976562</ele>
        <time>2014-03-02T09:40:46.000Z</time>
      </trkpt>
      <trkpt lat="45.33286" lon="6.19418">
        <ele>2185.8000488281</ele>
        <time>2014-03-02T09:40:47.000Z</time>
      </trkpt>
      <trkpt lat="45.33287" lon="6.19419">
        <ele>2186</ele>
        <time>2014-03-02T09:40:48.000Z</time>
      </trkpt>
      <trkpt lat="45.33287" lon="6.1942">
        <ele>2186</ele>
        <time>2014-03-02T09:40:49.000Z</time>
      </trkpt>
      <trkpt lat="45.33287" lon="6.1942">
        <ele>2185.8000488281</ele>
        <time>2014-03-02T09:40:50.000Z</time>
      </trkpt>
      <trkpt lat="45.33287" lon="6.1942">
        <ele>2186</ele>
        <time>2014-03-02T09:40:51.000Z</time>
      </trkpt>
      <trkpt lat="45.33287" lon="6.1942">
        <ele>2186</ele>
        <time>2014-03-02T09:40:52.000Z</time>
      </trkpt>
      <trkpt lat="45.33287" lon="6.1942">
        <ele>2186</ele>
        <time>2014-03-02T09:40:53.000Z</time>
      </trkpt>
      <trkpt lat="45.33287" lon="6.19421">
        <ele>2185.6000976562</ele>
        <time>2014-03-02T09:40:54.000Z</time>
      </trkpt>
      <trkpt lat="45.33286" lon="6.19421">
        <ele>2185.1999511719</ele>
        <time>2014-03-02T09:40:55.000Z</time>
      </trkpt>
      <trkpt lat="45.33286" lon="6.19422">
        <ele>2184.6000976562</ele>
        <time>2014-03-02T09:40:56.000Z</time>
      </trkpt>
      <trkpt lat="45.33286" lon="6.19423">
        <ele>2184.1999511719</ele>
        <time>2014-03-02T09:40:57.000Z</time>
      </trkpt>
      <trkpt lat="45.33285" lon="6.19423">
        <ele>2184</ele>
        <time>2014-03-02T09:40:58.000Z</time>
      </trkpt>
      <trkpt lat="45.33285" lon="6.19423">
        <ele>2184</ele>
        <time>2014-03-02T09:40:59.000Z</time>
      </trkpt>
      <trkpt lat="45.33285" lon="6.19424">
        <ele>2183.8000488281</ele>
        <time>2014-03-02T09:41:00.000Z</time>
      </trkpt>
      <trkpt lat="45.33285" lon="6.19425">
        <ele>2183.6000976562</ele>
        <time>2014-03-02T09:41:01.000Z</time>
      </trkpt>
      <trkpt lat="45.33285" lon="6.19425">
        <ele>2183.3999023438</ele>
        <time>2014-03-02T09:41:02.000Z</time>
      </trkpt>
      <trkpt lat="45.33285" lon="6.19426">
        <ele>2183.1999511719</ele>
        <time>2014-03-02T09:41:03.000Z</time>
      </trkpt>
      <trkpt lat="45.33284" lon="6.19426">
        <ele>2182.8000488281</ele>
        <time>2014-03-02T09:41:04.000Z</time>
      </trkpt>
      <trkpt lat="45.33284" lon="6.19427">
        <ele>2182.6000976562</ele>
        <time>2014-03-02T09:41:05.000Z</time>
      </trkpt>
      <trkpt lat="45.33284" lon="6.19428">
        <ele>2182</ele>
        <time>2014-03-02T09:41:06.000Z</time>
      </trkpt>
      <trkpt lat="45.33284" lon="6.1943">
        <ele>2181.6000976562</ele>
        <time>2014-03-02T09:41:07.000Z</time>
      </trkpt>
      <trkpt lat="45.33283" lon="6.1943">
        <ele>2181.3999023438</ele>
        <time>2014-03-02T09:41:08.000Z</time>
      </trkpt>
      <trkpt lat="45.33283" lon="6.19431">
        <ele>2181.1999511719</ele>
        <time>2014-03-02T09:41:09.000Z</time>
      </trkpt>
      <trkpt lat="45.33283" lon="6.19432">
        <ele>2181</ele>
        <time>2014-03-02T09:41:10.000Z</time>
      </trkpt>
      <trkpt lat="45.33283" lon="6.19432">
        <ele>2180.8000488281</ele>
        <time>2014-03-02T09:41:11.000Z</time>
      </trkpt>
      <trkpt lat="45.33283" lon="6.19432">
        <ele>2180.8000488281</ele>
        <time>2014-03-02T09:41:12.000Z</time>
      </trkpt>
      <trkpt lat="45.33283" lon="6.19433">
        <ele>2180.3999023438</ele>
        <time>2014-03-02T09:41:13.000Z</time>
      </trkpt>
      <trkpt lat="45.33283" lon="6.19433">
        <ele>2180.3999023438</ele>
        <time>2014-03-02T09:41:14.000Z</time>
      </trkpt>
      <trkpt lat="45.33283" lon="6.19434">
        <ele>2180.1999511719</ele>
        <time>2014-03-02T09:41:15.000Z</time>
      </trkpt>
      <trkpt lat="45.33283" lon="6.19434">
        <ele>2180.1999511719</ele>
        <time>2014-03-02T09:41:16.000Z</time>
      </trkpt>
      <trkpt lat="45.33283" lon="6.19435">
        <ele>2180</ele>
        <time>2014-03-02T09:41:17.000Z</time>
      </trkpt>
      <trkpt lat="45.33283" lon="6.19435">
        <ele>2179.8000488281</ele>
        <time>2014-03-02T09:41:18.000Z</time>
      </trkpt>
      <trkpt lat="45.33283" lon="6.19435">
        <ele>2179.8000488281</ele>
        <time>2014-03-02T09:41:19.000Z</time>
      </trkpt>
      <trkpt lat="45.33283" lon="6.19436">
        <ele>2179.8000488281</ele>
        <time>2014-03-02T09:41:20.000Z</time>
      </trkpt>
      <trkpt lat="45.33283" lon="6.19436">
        <ele>2179.8000488281</ele>
        <time>2014-03-02T09:41:21.000Z</time>
      </trkpt>
      <trkpt lat="45.33283" lon="6.19438">
        <ele>2179.6000976562</ele>
        <time>2014-03-02T09:41:22.000Z</time>
      </trkpt>
      <trkpt lat="45.33282" lon="6.19439">
        <ele>2179.1999511719</ele>
        <time>2014-03-02T09:41:23.000Z</time>
      </trkpt>
      <trkpt lat="45.33282" lon="6.1944">
        <ele>2179</ele>
        <time>2014-03-02T09:41:24.000Z</time>
      </trkpt>
      <trkpt lat="45.33282" lon="6.1944">
        <ele>2178.8000488281</ele>
        <time>2014-03-02T09:41:25.000Z</time>
      </trkpt>
      <trkpt lat="45.33282" lon="6.19441">
        <ele>2178.6000976562</ele>
        <time>2014-03-02T09:41:26.000Z</time>
      </trkpt>
      <trkpt lat="45.33282" lon="6.19442">
        <ele>2178.3999023438</ele>
        <time>2014-03-02T09:41:27.000Z</time>
      </trkpt>
      <trkpt lat="45.33282" lon="6.19442">
        <ele>2178.3999023438</ele>
        <time>2014-03-02T09:41:28.000Z</time>
      </trkpt>
      <trkpt lat="45.33282" lon="6.19442">
        <ele>2178.3999023438</ele>
        <time>2014-03-02T09:41:29.000Z</time>
      </trkpt>
      <trkpt lat="45.33282" lon="6.19442">
        <ele>2178.3999023438</ele>
        <time>2014-03-02T09:41:30.000Z</time>
      </trkpt>
      <trkpt lat="45.33282" lon="6.19442">
        <ele>2178.3999023438</ele>
        <time>2014-03-02T09:41:31.000Z</time>
      </trkpt>
      <trkpt lat="45.33282" lon="6.19443">
        <ele>2178.1999511719</ele>
        <time>2014-03-02T09:41:32.000Z</time>
      </trkpt>
      <trkpt lat="45.33282" lon="6.19444">
        <ele>2178</ele>
        <time>2014-03-02T09:41:33.000Z</time>
      </trkpt>
      <trkpt lat="45.33282" lon="6.19446">
        <ele>2177.6000976562</ele>
        <time>2014-03-02T09:41:34.000Z</time>
      </trkpt>
      <trkpt lat="45.33282" lon="6.19446">
        <ele>2177.3999023438</ele>
        <time>2014-03-02T09:41:35.000Z</time>
      </trkpt>
      <trkpt lat="45.33282" lon="6.19447">
        <ele>2177.1999511719</ele>
        <time>2014-03-02T09:41:36.000Z</time>
      </trkpt>
      <trkpt lat="45.33281" lon="6.19448">
        <ele>2176.8000488281</ele>
        <time>2014-03-02T09:41:37.000Z</time>
      </trkpt>
      <trkpt lat="45.33281" lon="6.19449">
        <ele>2176.8000488281</ele>
        <time>2014-03-02T09:41:38.000Z</time>
      </trkpt>
      <trkpt lat="45.33281" lon="6.1945">
        <ele>2176.6000976562</ele>
        <time>2014-03-02T09:41:39.000Z</time>
      </trkpt>
      <trkpt lat="45.33282" lon="6.19451">
        <ele>2176.6000976562</ele>
        <time>2014-03-02T09:41:40.000Z</time>
      </trkpt>
      <trkpt lat="45.33282" lon="6.19451">
        <ele>2176.6000976562</ele>
        <time>2014-03-02T09:41:41.000Z</time>
      </trkpt>
      <trkpt lat="45.33282" lon="6.19452">
        <ele>2177</ele>
        <time>2014-03-02T09:41:42.000Z</time>
      </trkpt>
      <trkpt lat="45.33283" lon="6.19453">
        <ele>2177</ele>
        <time>2014-03-02T09:41:43.000Z</time>
      </trkpt>
      <trkpt lat="45.33283" lon="6.19454">
        <ele>2177</ele>
        <time>2014-03-02T09:41:44.000Z</time>
      </trkpt>
      <trkpt lat="45.33283" lon="6.19455">
        <ele>2176.8000488281</ele>
        <time>2014-03-02T09:41:45.000Z</time>
      </trkpt>
      <trkpt lat="45.33283" lon="6.19456">
        <ele>2176.6000976562</ele>
        <time>2014-03-02T09:41:46.000Z</time>
      </trkpt>
      <trkpt lat="45.33282" lon="6.19456">
        <ele>2176</ele>
        <time>2014-03-02T09:41:47.000Z</time>
      </trkpt>
      <trkpt lat="45.33282" lon="6.19457">
        <ele>2175.8000488281</ele>
        <time>2014-03-02T09:41:48.000Z</time>
      </trkpt>
      <trkpt lat="45.33282" lon="6.19458">
        <ele>2175.8000488281</ele>
        <time>2014-03-02T09:41:49.000Z</time>
      </trkpt>
      <trkpt lat="45.33282" lon="6.19458">
        <ele>2175.8000488281</ele>
        <time>2014-03-02T09:41:50.000Z</time>
      </trkpt>
      <trkpt lat="45.33283" lon="6.19459">
        <ele>2176</ele>
        <time>2014-03-02T09:41:51.000Z</time>
      </trkpt>
      <trkpt lat="45.33283" lon="6.1946">
        <ele>2176</ele>
        <time>2014-03-02T09:41:52.000Z</time>
      </trkpt>
      <trkpt lat="45.33283" lon="6.19461">
        <ele>2175.8000488281</ele>
        <time>2014-03-02T09:41:53.000Z</time>
      </trkpt>
      <trkpt lat="45.33283" lon="6.19462">
        <ele>2175.8000488281</ele>
        <time>2014-03-02T09:41:54.000Z</time>
      </trkpt>
      <trkpt lat="45.33284" lon="6.19463">
        <ele>2176</ele>
        <time>2014-03-02T09:41:55.000Z</time>
      </trkpt>
      <trkpt lat="45.33284" lon="6.19463">
        <ele>2176.1999511719</ele>
        <time>2014-03-02T09:41:56.000Z</time>
      </trkpt>
      <trkpt lat="45.33284" lon="6.19463">
        <ele>2176.1999511719</ele>
        <time>2014-03-02T09:41:57.000Z</time>
      </trkpt>
      <trkpt lat="45.33284" lon="6.19464">
        <ele>2176.3999023438</ele>
        <time>2014-03-02T09:41:58.000Z</time>
      </trkpt>
      <trkpt lat="45.33284" lon="6.19464">
        <ele>2176.3999023438</ele>
        <time>2014-03-02T09:41:59.000Z</time>
      </trkpt>
      <trkpt lat="45.33285" lon="6.19465">
        <ele>2176.3999023438</ele>
        <time>2014-03-02T09:42:00.000Z</time>
      </trkpt>
      <trkpt lat="45.33285" lon="6.19465">
        <ele>2176.3999023438</ele>
        <time>2014-03-02T09:42:01.000Z</time>
      </trkpt>
      <trkpt lat="45.33285" lon="6.19467">
        <ele>2176.6000976562</ele>
        <time>2014-03-02T09:42:02.000Z</time>
      </trkpt>
      <trkpt lat="45.33285" lon="6.19468">
        <ele>2176.8000488281</ele>
        <time>2014-03-02T09:42:03.000Z</time>
      </trkpt>
      <trkpt lat="45.33285" lon="6.19468">
        <ele>2177</ele>
        <time>2014-03-02T09:42:04.000Z</time>
      </trkpt>
      <trkpt lat="45.33285" lon="6.19469">
        <ele>2177</ele>
        <time>2014-03-02T09:42:05.000Z</time>
      </trkpt>
      <trkpt lat="45.33286" lon="6.19469">
        <ele>2177.1999511719</ele>
        <time>2014-03-02T09:42:06.000Z</time>
      </trkpt>
      <trkpt lat="45.33286" lon="6.1947">
        <ele>2177.6000976562</ele>
        <time>2014-03-02T09:42:07.000Z</time>
      </trkpt>
      <trkpt lat="45.33287" lon="6.19471">
        <ele>2178</ele>
        <time>2014-03-02T09:42:08.000Z</time>
      </trkpt>
      <trkpt lat="45.33288" lon="6.19472">
        <ele>2178.3999023438</ele>
        <time>2014-03-02T09:42:09.000Z</time>
      </trkpt>
      <trkpt lat="45.33288" lon="6.19473">
        <ele>2179</ele>
        <time>2014-03-02T09:42:10.000Z</time>
      </trkpt>
      <trkpt lat="45.33289" lon="6.19474">
        <ele>2179.3999023438</ele>
        <time>2014-03-02T09:42:11.000Z</time>
      </trkpt>
      <trkpt lat="45.33289" lon="6.19476">
        <ele>2179.8000488281</ele>
        <time>2014-03-02T09:42:12.000Z</time>
      </trkpt>
      <trkpt lat="45.33289" lon="6.19476">
        <ele>2179.6000976562</ele>
        <time>2014-03-02T09:42:13.000Z</time>
      </trkpt>
      <trkpt lat="45.33289" lon="6.19477">
        <ele>2179.6000976562</ele>
        <time>2014-03-02T09:42:14.000Z</time>
      </trkpt>
      <trkpt lat="45.33289" lon="6.19478">
        <ele>2179.6000976562</ele>
        <time>2014-03-02T09:42:15.000Z</time>
      </trkpt>
      <trkpt lat="45.33288" lon="6.19478">
        <ele>2179.3999023438</ele>
        <time>2014-03-02T09:42:16.000Z</time>
      </trkpt>
      <trkpt lat="45.33289" lon="6.19479">
        <ele>2179.6000976562</ele>
        <time>2014-03-02T09:42:17.000Z</time>
      </trkpt>
      <trkpt lat="45.33288" lon="6.19483">
        <ele>2178.8000488281</ele>
        <time>2014-03-02T09:42:20.000Z</time>
      </trkpt>
      <trkpt lat="45.33288" lon="6.19484">
        <ele>2178.6000976562</ele>
        <time>2014-03-02T09:42:21.000Z</time>
      </trkpt>
      <trkpt lat="45.33289" lon="6.19485">
        <ele>2178.6000976562</ele>
        <time>2014-03-02T09:42:22.000Z</time>
      </trkpt>
      <trkpt lat="45.33289" lon="6.19486">
        <ele>2178.8000488281</ele>
        <time>2014-03-02T09:42:23.000Z</time>
      </trkpt>
      <trkpt lat="45.3329" lon="6.19487">
        <ele>2179</ele>
        <time>2014-03-02T09:42:24.000Z</time>
      </trkpt>
      <trkpt lat="45.33291" lon="6.19488">
        <ele>2179.1999511719</ele>
        <time>2014-03-02T09:42:25.000Z</time>
      </trkpt>
      <trkpt lat="45.33291" lon="6.19489">
        <ele>2179.6000976562</ele>
        <time>2014-03-02T09:42:26.000Z</time>
      </trkpt>
      <trkpt lat="45.33292" lon="6.1949">
        <ele>2179.6000976562</ele>
        <time>2014-03-02T09:42:28.000Z</time>
      </trkpt>
      <trkpt lat="45.33292" lon="6.19492">
        <ele>2179.6000976562</ele>
        <time>2014-03-02T09:42:29.000Z</time>
      </trkpt>
      <trkpt lat="45.33292" lon="6.19492">
        <ele>2179.1999511719</ele>
        <time>2014-03-02T09:42:30.000Z</time>
      </trkpt>
      <trkpt lat="45.33292" lon="6.19494">
        <ele>2179</ele>
        <time>2014-03-02T09:42:31.000Z</time>
      </trkpt>
      <trkpt lat="45.33291" lon="6.19496">
        <ele>2178.6000976562</ele>
        <time>2014-03-02T09:42:33.000Z</time>
      </trkpt>
      <trkpt lat="45.33291" lon="6.19497">
        <ele>2178.1999511719</ele>
        <time>2014-03-02T09:42:34.000Z</time>
      </trkpt>
      <trkpt lat="45.33291" lon="6.19498">
        <ele>2178.1999511719</ele>
        <time>2014-03-02T09:42:35.000Z</time>
      </trkpt>
      <trkpt lat="45.33291" lon="6.19499">
        <ele>2178.3999023438</ele>
        <time>2014-03-02T09:42:36.000Z</time>
      </trkpt>
      <trkpt lat="45.33292" lon="6.19499">
        <ele>2178.1999511719</ele>
        <time>2014-03-02T09:42:37.000Z</time>
      </trkpt>
      <trkpt lat="45.33292" lon="6.195">
        <ele>2178.3999023438</ele>
        <time>2014-03-02T09:42:38.000Z</time>
      </trkpt>
      <trkpt lat="45.33292" lon="6.19501">
        <ele>2178</ele>
        <time>2014-03-02T09:42:39.000Z</time>
      </trkpt>
      <trkpt lat="45.33291" lon="6.19503">
        <ele>2177.6000976562</ele>
        <time>2014-03-02T09:42:40.000Z</time>
      </trkpt>
      <trkpt lat="45.3329" lon="6.19504">
        <ele>2177.1999511719</ele>
        <time>2014-03-02T09:42:41.000Z</time>
      </trkpt>
      <trkpt lat="45.3329" lon="6.19505">
        <ele>2176.8000488281</ele>
        <time>2014-03-02T09:42:43.000Z</time>
      </trkpt>
      <trkpt lat="45.3329" lon="6.19505">
        <ele>2176.8000488281</ele>
        <time>2014-03-02T09:42:44.000Z</time>
      </trkpt>
      <trkpt lat="45.3329" lon="6.19505">
        <ele>2176.8000488281</ele>
        <time>2014-03-02T09:42:45.000Z</time>
      </trkpt>
      <trkpt lat="45.3329" lon="6.19505">
        <ele>2176.8000488281</ele>
        <time>2014-03-02T09:42:46.000Z</time>
      </trkpt>
      <trkpt lat="45.3329" lon="6.19507">
        <ele>2176.6000976562</ele>
        <time>2014-03-02T09:42:47.000Z</time>
      </trkpt>
      <trkpt lat="45.3329" lon="6.19508">
        <ele>2176.6000976562</ele>
        <time>2014-03-02T09:42:48.000Z</time>
      </trkpt>
      <trkpt lat="45.3329" lon="6.19509">
        <ele>2176.3999023438</ele>
        <time>2014-03-02T09:42:49.000Z</time>
      </trkpt>
      <trkpt lat="45.3329" lon="6.1951">
        <ele>2176.1999511719</ele>
        <time>2014-03-02T09:42:50.000Z</time>
      </trkpt>
      <trkpt lat="45.3329" lon="6.19511">
        <ele>2176</ele>
        <time>2014-03-02T09:42:51.000Z</time>
      </trkpt>
      <trkpt lat="45.3329" lon="6.19512">
        <ele>2175.8000488281</ele>
        <time>2014-03-02T09:42:52.000Z</time>
      </trkpt>
      <trkpt lat="45.3329" lon="6.19513">
        <ele>2175.3999023438</ele>
        <time>2014-03-02T09:42:53.000Z</time>
      </trkpt>
      <trkpt lat="45.33289" lon="6.19514">
        <ele>2175.1999511719</ele>
        <time>2014-03-02T09:42:54.000Z</time>
      </trkpt>
      <trkpt lat="45.33289" lon="6.19515">
        <ele>2175.1999511719</ele>
        <time>2014-03-02T09:42:55.000Z</time>
      </trkpt>
      <trkpt lat="45.33289" lon="6.19515">
        <ele>2175</ele>
        <time>2014-03-02T09:42:56.000Z</time>
      </trkpt>
      <trkpt lat="45.33289" lon="6.19516">
        <ele>2175</ele>
        <time>2014-03-02T09:42:57.000Z</time>
      </trkpt>
      <trkpt lat="45.33289" lon="6.19516">
        <ele>2175</ele>
        <time>2014-03-02T09:42:58.000Z</time>
      </trkpt>
      <trkpt lat="45.3329" lon="6.19517">
        <ele>2175.1999511719</ele>
        <time>2014-03-02T09:42:59.000Z</time>
      </trkpt>
      <trkpt lat="45.3329" lon="6.19517">
        <ele>2175.1999511719</ele>
        <time>2014-03-02T09:43:00.000Z</time>
      </trkpt>
      <trkpt lat="45.3329" lon="6.19518">
        <ele>2175</ele>
        <time>2014-03-02T09:43:01.000Z</time>
      </trkpt>
      <trkpt lat="45.3329" lon="6.19518">
        <ele>2175</ele>
        <time>2014-03-02T09:43:02.000Z</time>
      </trkpt>
      <trkpt lat="45.33291" lon="6.19519">
        <ele>2175.1999511719</ele>
        <time>2014-03-02T09:43:03.000Z</time>
      </trkpt>
      <trkpt lat="45.33291" lon="6.19519">
        <ele>2175.1999511719</ele>
        <time>2014-03-02T09:43:04.000Z</time>
      </trkpt>
      <trkpt lat="45.33291" lon="6.19519">
        <ele>2175.1999511719</ele>
        <time>2014-03-02T09:43:05.000Z</time>
      </trkpt>
      <trkpt lat="45.33291" lon="6.1952">
        <ele>2175.3999023438</ele>
        <time>2014-03-02T09:43:06.000Z</time>
      </trkpt>
      <trkpt lat="45.33291" lon="6.1952">
        <ele>2175.3999023438</ele>
        <time>2014-03-02T09:43:07.000Z</time>
      </trkpt>
      <trkpt lat="45.33292" lon="6.19521">
        <ele>2175.6000976562</ele>
        <time>2014-03-02T09:43:08.000Z</time>
      </trkpt>
      <trkpt lat="45.33292" lon="6.19521">
        <ele>2175.6000976562</ele>
        <time>2014-03-02T09:43:09.000Z</time>
      </trkpt>
      <trkpt lat="45.33293" lon="6.19522">
        <ele>2175.8000488281</ele>
        <time>2014-03-02T09:43:10.000Z</time>
      </trkpt>
      <trkpt lat="45.33293" lon="6.19523">
        <ele>2175.8000488281</ele>
        <time>2014-03-02T09:43:11.000Z</time>
      </trkpt>
      <trkpt lat="45.33293" lon="6.19525">
        <ele>2175.8000488281</ele>
        <time>2014-03-02T09:43:12.000Z</time>
      </trkpt>
      <trkpt lat="45.33294" lon="6.19526">
        <ele>2175.8000488281</ele>
        <time>2014-03-02T09:43:13.000Z</time>
      </trkpt>
      <trkpt lat="45.33294" lon="6.19527">
        <ele>2175.8000488281</ele>
        <time>2014-03-02T09:43:14.000Z</time>
      </trkpt>
      <trkpt lat="45.33294" lon="6.19528">
        <ele>2175.6000976562</ele>
        <time>2014-03-02T09:43:15.000Z</time>
      </trkpt>
      <trkpt lat="45.33295" lon="6.1953">
        <ele>2175.8000488281</ele>
        <time>2014-03-02T09:43:16.000Z</time>
      </trkpt>
      <trkpt lat="45.33295" lon="6.19531">
        <ele>2176</ele>
        <time>2014-03-02T09:43:17.000Z</time>
      </trkpt>
      <trkpt lat="45.33295" lon="6.19532">
        <ele>2176</ele>
        <time>2014-03-02T09:43:18.000Z</time>
      </trkpt>
      <trkpt lat="45.33296" lon="6.19533">
        <ele>2176.1999511719</ele>
        <time>2014-03-02T09:43:19.000Z</time>
      </trkpt>
      <trkpt lat="45.33297" lon="6.19534">
        <ele>2176.1999511719</ele>
        <time>2014-03-02T09:43:20.000Z</time>
      </trkpt>
      <trkpt lat="45.33297" lon="6.19535">
        <ele>2176.3999023438</ele>
        <time>2014-03-02T09:43:21.000Z</time>
      </trkpt>
      <trkpt lat="45.33297" lon="6.19535">
        <ele>2176.1999511719</ele>
        <time>2014-03-02T09:43:22.000Z</time>
      </trkpt>
      <trkpt lat="45.33297" lon="6.19536">
        <ele>2176.1999511719</ele>
        <time>2014-03-02T09:43:23.000Z</time>
      </trkpt>
      <trkpt lat="45.33297" lon="6.19536">
        <ele>2176.3999023438</ele>
        <time>2014-03-02T09:43:24.000Z</time>
      </trkpt>
      <trkpt lat="45.33298" lon="6.19537">
        <ele>2176.3999023438</ele>
        <time>2014-03-02T09:43:25.000Z</time>
      </trkpt>
      <trkpt lat="45.33298" lon="6.19538">
        <ele>2176.1999511719</ele>
        <time>2014-03-02T09:43:26.000Z</time>
      </trkpt>
      <trkpt lat="45.33298" lon="6.19539">
        <ele>2176.1999511719</ele>
        <time>2014-03-02T09:43:27.000Z</time>
      </trkpt>
      <trkpt lat="45.33298" lon="6.19539">
        <ele>2176.1999511719</ele>
        <time>2014-03-02T09:43:28.000Z</time>
      </trkpt>
      <trkpt lat="45.33298" lon="6.1954">
        <ele>2176.1999511719</ele>
        <time>2014-03-02T09:43:29.000Z</time>
      </trkpt>
      <trkpt lat="45.33298" lon="6.1954">
        <ele>2176.1999511719</ele>
        <time>2014-03-02T09:43:30.000Z</time>
      </trkpt>
      <trkpt lat="45.33299" lon="6.1954">
        <ele>2176.3999023438</ele>
        <time>2014-03-02T09:43:31.000Z</time>
      </trkpt>
      <trkpt lat="45.33299" lon="6.19541">
        <ele>2176.6000976562</ele>
        <time>2014-03-02T09:43:32.000Z</time>
      </trkpt>
      <trkpt lat="45.333" lon="6.19542">
        <ele>2176.8000488281</ele>
        <time>2014-03-02T09:43:33.000Z</time>
      </trkpt>
      <trkpt lat="45.33301" lon="6.19542">
        <ele>2177</ele>
        <time>2014-03-02T09:43:34.000Z</time>
      </trkpt>
      <trkpt lat="45.33302" lon="6.19542">
        <ele>2177.3999023438</ele>
        <time>2014-03-02T09:43:36.000Z</time>
      </trkpt>
      <trkpt lat="45.33302" lon="6.19542">
        <ele>2177.3999023438</ele>
        <time>2014-03-02T09:43:37.000Z</time>
      </trkpt>
      <trkpt lat="45.33302" lon="6.19542">
        <ele>2177.3999023438</ele>
        <time>2014-03-02T09:43:38.000Z</time>
      </trkpt>
      <trkpt lat="45.33302" lon="6.19542">
        <ele>2177.3999023438</ele>
        <time>2014-03-02T09:43:39.000Z</time>
      </trkpt>
      <trkpt lat="45.33301" lon="6.19542">
        <ele>2177.1999511719</ele>
        <time>2014-03-02T09:43:40.000Z</time>
      </trkpt>
      <trkpt lat="45.33301" lon="6.19541">
        <ele>2177.1999511719</ele>
        <time>2014-03-02T09:43:41.000Z</time>
      </trkpt>
      <trkpt lat="45.333" lon="6.1954">
        <ele>2177.1999511719</ele>
        <time>2014-03-02T09:43:42.000Z</time>
      </trkpt>
      <trkpt lat="45.333" lon="6.19539">
        <ele>2177</ele>
        <time>2014-03-02T09:43:43.000Z</time>
      </trkpt>
      <trkpt lat="45.33299" lon="6.19539">
        <ele>2176.8000488281</ele>
        <time>2014-03-02T09:43:44.000Z</time>
      </trkpt>
      <trkpt lat="45.33299" lon="6.19539">
        <ele>2176.8000488281</ele>
        <time>2014-03-02T09:43:45.000Z</time>
      </trkpt>
      <trkpt lat="45.33299" lon="6.19539">
        <ele>2176.8000488281</ele>
        <time>2014-03-02T09:43:46.000Z</time>
      </trkpt>
      <trkpt lat="45.33299" lon="6.19539">
        <ele>2176.8000488281</ele>
        <time>2014-03-02T09:43:47.000Z</time>
      </trkpt>
      <trkpt lat="45.33299" lon="6.19539">
        <ele>2176.8000488281</ele>
        <time>2014-03-02T09:43:48.000Z</time>
      </trkpt>
      <trkpt lat="45.33299" lon="6.19539">
        <ele>2176.8000488281</ele>
        <time>2014-03-02T09:43:49.000Z</time>
      </trkpt>
      <trkpt lat="45.33299" lon="6.19539">
        <ele>2176.8000488281</ele>
        <time>2014-03-02T09:43:50.000Z</time>
      </trkpt>
      <trkpt lat="45.33299" lon="6.19539">
        <ele>2176.8000488281</ele>
        <time>2014-03-02T09:43:51.000Z</time>
      </trkpt>
      <trkpt lat="45.33299" lon="6.19539">
        <ele>2176.8000488281</ele>
        <time>2014-03-02T09:43:52.000Z</time>
      </trkpt>
      <trkpt lat="45.33299" lon="6.19539">
        <ele>2176.8000488281</ele>
        <time>2014-03-02T09:43:53.000Z</time>
      </trkpt>
      <trkpt lat="45.33299" lon="6.19539">
        <ele>2176.8000488281</ele>
        <time>2014-03-02T09:43:54.000Z</time>
      </trkpt>
      <trkpt lat="45.33299" lon="6.19539">
        <ele>2176.8000488281</ele>
        <time>2014-03-02T09:43:55.000Z</time>
      </trkpt>
      <trkpt lat="45.33301" lon="6.19539">
        <ele>2177.3999023438</ele>
        <time>2014-03-02T09:43:56.000Z</time>
      </trkpt>
      <trkpt lat="45.33302" lon="6.1954">
        <ele>2178</ele>
        <time>2014-03-02T09:43:57.000Z</time>
      </trkpt>
      <trkpt lat="45.33304" lon="6.1954">
        <ele>2178.8000488281</ele>
        <time>2014-03-02T09:43:58.000Z</time>
      </trkpt>
      <trkpt lat="45.33305" lon="6.1954">
        <ele>2179.1999511719</ele>
        <time>2014-03-02T09:44:01.000Z</time>
      </trkpt>
      <trkpt lat="45.33305" lon="6.1954">
        <ele>2179.1999511719</ele>
        <time>2014-03-02T09:44:02.000Z</time>
      </trkpt>
      <trkpt lat="45.33305" lon="6.1954">
        <ele>2179.1999511719</ele>
        <time>2014-03-02T09:44:03.000Z</time>
      </trkpt>
      <trkpt lat="45.33305" lon="6.1954">
        <ele>2179.1999511719</ele>
        <time>2014-03-02T09:44:04.000Z</time>
      </trkpt>
      <trkpt lat="45.33305" lon="6.1954">
        <ele>2179.1999511719</ele>
        <time>2014-03-02T09:44:05.000Z</time>
      </trkpt>
      <trkpt lat="45.33305" lon="6.1954">
        <ele>2179.1999511719</ele>
        <time>2014-03-02T09:44:06.000Z</time>
      </trkpt>
      <trkpt lat="45.33305" lon="6.1954">
        <ele>2179.1999511719</ele>
        <time>2014-03-02T09:44:07.000Z</time>
      </trkpt>
      <trkpt lat="45.33305" lon="6.1954">
        <ele>2179.1999511719</ele>
        <time>2014-03-02T09:44:09.000Z</time>
      </trkpt>
      <trkpt lat="45.33305" lon="6.1954">
        <ele>2179.1999511719</ele>
        <time>2014-03-02T09:44:11.000Z</time>
      </trkpt>
      <trkpt lat="45.33305" lon="6.1954">
        <ele>2179.1999511719</ele>
        <time>2014-03-02T09:44:13.000Z</time>
      </trkpt>
      <trkpt lat="45.33305" lon="6.1954">
        <ele>2179.1999511719</ele>
        <time>2014-03-02T09:44:14.000Z</time>
      </trkpt>
      <trkpt lat="45.33305" lon="6.1954">
        <ele>2179.1999511719</ele>
        <time>2014-03-02T09:44:15.000Z</time>
      </trkpt>
      <trkpt lat="45.33305" lon="6.1954">
        <ele>2179.1999511719</ele>
        <time>2014-03-02T09:44:16.000Z</time>
      </trkpt>
      <trkpt lat="45.33305" lon="6.1954">
        <ele>2179.1999511719</ele>
        <time>2014-03-02T09:44:17.000Z</time>
      </trkpt>
      <trkpt lat="45.33305" lon="6.1954">
        <ele>2179.1999511719</ele>
        <time>2014-03-02T09:44:18.000Z</time>
      </trkpt>
      <trkpt lat="45.33305" lon="6.1954">
        <ele>2179.1999511719</ele>
        <time>2014-03-02T09:44:26.000Z</time>
      </trkpt>
      <trkpt lat="45.33305" lon="6.1954">
        <ele>2179.1999511719</ele>
        <time>2014-03-02T09:44:35.000Z</time>
      </trkpt>
      <trkpt lat="45.33305" lon="6.1954">
        <ele>2179.1999511719</ele>
        <time>2014-03-02T09:44:36.000Z</time>
      </trkpt>
      <trkpt lat="45.33305" lon="6.1954">
        <ele>2179.1999511719</ele>
        <time>2014-03-02T09:44:37.000Z</time>
      </trkpt>
      <trkpt lat="45.33305" lon="6.1954">
        <ele>2179.1999511719</ele>
        <time>2014-03-02T09:44:39.000Z</time>
      </trkpt>
      <trkpt lat="45.33305" lon="6.1954">
        <ele>2179.1999511719</ele>
        <time>2014-03-02T09:44:42.000Z</time>
      </trkpt>
      <trkpt lat="45.33305" lon="6.1954">
        <ele>2179.1999511719</ele>
        <time>2014-03-02T09:44:43.000Z</time>
      </trkpt>
      <trkpt lat="45.33305" lon="6.1954">
        <ele>2179.1999511719</ele>
        <time>2014-03-02T09:44:44.000Z</time>
      </trkpt>
      <trkpt lat="45.33305" lon="6.1954">
        <ele>2179.1999511719</ele>
        <time>2014-03-02T09:44:45.000Z</time>
      </trkpt>
      <trkpt lat="45.33305" lon="6.1954">
        <ele>2179.1999511719</ele>
        <time>2014-03-02T09:44:50.000Z</time>
      </trkpt>
      <trkpt lat="45.33305" lon="6.1954">
        <ele>2179.1999511719</ele>
        <time>2014-03-02T09:44:51.000Z</time>
      </trkpt>
      <trkpt lat="45.33305" lon="6.1954">
        <ele>2179.1999511719</ele>
        <time>2014-03-02T09:44:52.000Z</time>
      </trkpt>
      <trkpt lat="45.33305" lon="6.1954">
        <ele>2179.1999511719</ele>
        <time>2014-03-02T09:44:59.000Z</time>
      </trkpt>
      <trkpt lat="45.33305" lon="6.1954">
        <ele>2179.1999511719</ele>
        <time>2014-03-02T09:45:03.000Z</time>
      </trkpt>
      <trkpt lat="45.33305" lon="6.1954">
        <ele>2179.1999511719</ele>
        <time>2014-03-02T09:45:04.000Z</time>
      </trkpt>
      <trkpt lat="45.33305" lon="6.1954">
        <ele>2179.1999511719</ele>
        <time>2014-03-02T09:45:07.000Z</time>
      </trkpt>
      <trkpt lat="45.33305" lon="6.1954">
        <ele>2179.1999511719</ele>
        <time>2014-03-02T09:45:08.000Z</time>
      </trkpt>
      <trkpt lat="45.33305" lon="6.1954">
        <ele>2179.1999511719</ele>
        <time>2014-03-02T09:45:09.000Z</time>
      </trkpt>
      <trkpt lat="45.33305" lon="6.1954">
        <ele>2179.1999511719</ele>
        <time>2014-03-02T09:45:10.000Z</time>
      </trkpt>
      <trkpt lat="45.33305" lon="6.1954">
        <ele>2179.1999511719</ele>
        <time>2014-03-02T09:45:11.000Z</time>
      </trkpt>
      <trkpt lat="45.33305" lon="6.1954">
        <ele>2179.1999511719</ele>
        <time>2014-03-02T09:45:12.000Z</time>
      </trkpt>
      <trkpt lat="45.33305" lon="6.1954">
        <ele>2179.1999511719</ele>
        <time>2014-03-02T09:45:14.000Z</time>
      </trkpt>
      <trkpt lat="45.33305" lon="6.1954">
        <ele>2179.1999511719</ele>
        <time>2014-03-02T09:45:16.000Z</time>
      </trkpt>
      <trkpt lat="45.33305" lon="6.1954">
        <ele>2179</ele>
        <time>2014-03-02T09:45:22.000Z</time>
      </trkpt>
      <trkpt lat="45.33305" lon="6.1954">
        <ele>2179</ele>
        <time>2014-03-02T09:45:23.000Z</time>
      </trkpt>
      <trkpt lat="45.33305" lon="6.1954">
        <ele>2179</ele>
        <time>2014-03-02T09:45:24.000Z</time>
      </trkpt>
      <trkpt lat="45.33305" lon="6.1954">
        <ele>2179</ele>
        <time>2014-03-02T09:45:25.000Z</time>
      </trkpt>
      <trkpt lat="45.33305" lon="6.1954">
        <ele>2179</ele>
        <time>2014-03-02T09:45:27.000Z</time>
      </trkpt>
      <trkpt lat="45.33305" lon="6.1954">
        <ele>2179</ele>
        <time>2014-03-02T09:45:28.000Z</time>
      </trkpt>
      <trkpt lat="45.33305" lon="6.1954">
        <ele>2179</ele>
        <time>2014-03-02T09:45:29.000Z</time>
      </trkpt>
      <trkpt lat="45.33305" lon="6.1954">
        <ele>2179</ele>
        <time>2014-03-02T09:45:30.000Z</time>
      </trkpt>
      <trkpt lat="45.33305" lon="6.1954">
        <ele>2179</ele>
        <time>2014-03-02T09:45:31.000Z</time>
      </trkpt>
      <trkpt lat="45.33305" lon="6.1954">
        <ele>2179</ele>
        <time>2014-03-02T09:45:32.000Z</time>
      </trkpt>
      <trkpt lat="45.33305" lon="6.1954">
        <ele>2179</ele>
        <time>2014-03-02T09:45:33.000Z</time>
      </trkpt>
      <trkpt lat="45.33305" lon="6.1954">
        <ele>2179</ele>
        <time>2014-03-02T09:45:34.000Z</time>
      </trkpt>
      <trkpt lat="45.33305" lon="6.1954">
        <ele>2179</ele>
        <time>2014-03-02T09:45:35.000Z</time>
      </trkpt>
      <trkpt lat="45.33305" lon="6.1954">
        <ele>2179</ele>
        <time>2014-03-02T09:45:36.000Z</time>
      </trkpt>
      <trkpt lat="45.33305" lon="6.1954">
        <ele>2179</ele>
        <time>2014-03-02T09:45:37.000Z</time>
      </trkpt>
      <trkpt lat="45.33305" lon="6.1954">
        <ele>2179</ele>
        <time>2014-03-02T09:45:38.000Z</time>
      </trkpt>
      <trkpt lat="45.33305" lon="6.1954">
        <ele>2179</ele>
        <time>2014-03-02T09:45:39.000Z</time>
      </trkpt>
      <trkpt lat="45.33305" lon="6.1954">
        <ele>2179</ele>
        <time>2014-03-02T09:45:40.000Z</time>
      </trkpt>
      <trkpt lat="45.33305" lon="6.1954">
        <ele>2179</ele>
        <time>2014-03-02T09:45:42.000Z</time>
      </trkpt>
      <trkpt lat="45.33305" lon="6.1954">
        <ele>2179</ele>
        <time>2014-03-02T09:45:43.000Z</time>
      </trkpt>
      <trkpt lat="45.33305" lon="6.1954">
        <ele>2179</ele>
        <time>2014-03-02T09:45:44.000Z</time>
      </trkpt>
      <trkpt lat="45.33305" lon="6.1954">
        <ele>2179</ele>
        <time>2014-03-02T09:45:45.000Z</time>
      </trkpt>
      <trkpt lat="45.33305" lon="6.1954">
        <ele>2179</ele>
        <time>2014-03-02T09:45:46.000Z</time>
      </trkpt>
      <trkpt lat="45.33305" lon="6.1954">
        <ele>2179</ele>
        <time>2014-03-02T09:45:50.000Z</time>
      </trkpt>
      <trkpt lat="45.33305" lon="6.1954">
        <ele>2179</ele>
        <time>2014-03-02T09:45:51.000Z</time>
      </trkpt>
      <trkpt lat="45.33305" lon="6.1954">
        <ele>2179</ele>
        <time>2014-03-02T09:45:52.000Z</time>
      </trkpt>
      <trkpt lat="45.33305" lon="6.1954">
        <ele>2179</ele>
        <time>2014-03-02T09:45:53.000Z</time>
      </trkpt>
      <trkpt lat="45.33305" lon="6.1954">
        <ele>2179</ele>
        <time>2014-03-02T09:45:55.000Z</time>
      </trkpt>
      <trkpt lat="45.33305" lon="6.1954">
        <ele>2179</ele>
        <time>2014-03-02T09:45:56.000Z</time>
      </trkpt>
      <trkpt lat="45.33305" lon="6.1954">
        <ele>2179</ele>
        <time>2014-03-02T09:45:57.000Z</time>
      </trkpt>
      <trkpt lat="45.33305" lon="6.1954">
        <ele>2179</ele>
        <time>2014-03-02T09:45:58.000Z</time>
      </trkpt>
      <trkpt lat="45.33305" lon="6.1954">
        <ele>2179.1999511719</ele>
        <time>2014-03-02T09:45:59.000Z</time>
      </trkpt>
      <trkpt lat="45.33305" lon="6.1954">
        <ele>2179.1999511719</ele>
        <time>2014-03-02T09:46:06.000Z</time>
      </trkpt>
      <trkpt lat="45.33305" lon="6.1954">
        <ele>2179.1999511719</ele>
        <time>2014-03-02T09:46:07.000Z</time>
      </trkpt>
      <trkpt lat="45.33305" lon="6.1954">
        <ele>2179.1999511719</ele>
        <time>2014-03-02T09:46:08.000Z</time>
      </trkpt>
      <trkpt lat="45.33305" lon="6.1954">
        <ele>2179.1999511719</ele>
        <time>2014-03-02T09:46:09.000Z</time>
      </trkpt>
      <trkpt lat="45.33305" lon="6.1954">
        <ele>2179.1999511719</ele>
        <time>2014-03-02T09:46:10.000Z</time>
      </trkpt>
      <trkpt lat="45.33305" lon="6.1954">
        <ele>2179.1999511719</ele>
        <time>2014-03-02T09:46:11.000Z</time>
      </trkpt>
      <trkpt lat="45.33305" lon="6.1954">
        <ele>2179.1999511719</ele>
        <time>2014-03-02T09:46:14.000Z</time>
      </trkpt>
      <trkpt lat="45.33305" lon="6.1954">
        <ele>2179.1999511719</ele>
        <time>2014-03-02T09:46:15.000Z</time>
      </trkpt>
      <trkpt lat="45.33305" lon="6.1954">
        <ele>2179.1999511719</ele>
        <time>2014-03-02T09:46:16.000Z</time>
      </trkpt>
      <trkpt lat="45.33305" lon="6.1954">
        <ele>2179.1999511719</ele>
        <time>2014-03-02T09:46:17.000Z</time>
      </trkpt>
      <trkpt lat="45.33305" lon="6.1954">
        <ele>2179.1999511719</ele>
        <time>2014-03-02T09:46:19.000Z</time>
      </trkpt>
      <trkpt lat="45.33305" lon="6.1954">
        <ele>2179.1999511719</ele>
        <time>2014-03-02T09:46:20.000Z</time>
      </trkpt>
      <trkpt lat="45.33305" lon="6.1954">
        <ele>2179.1999511719</ele>
        <time>2014-03-02T09:46:21.000Z</time>
      </trkpt>
      <trkpt lat="45.33305" lon="6.1954">
        <ele>2179.1999511719</ele>
        <time>2014-03-02T09:46:24.000Z</time>
      </trkpt>
      <trkpt lat="45.33305" lon="6.1954">
        <ele>2179.1999511719</ele>
        <time>2014-03-02T09:46:26.000Z</time>
      </trkpt>
      <trkpt lat="45.33305" lon="6.1954">
        <ele>2179.1999511719</ele>
        <time>2014-03-02T09:46:31.000Z</time>
      </trkpt>
      <trkpt lat="45.33305" lon="6.1954">
        <ele>2179.1999511719</ele>
        <time>2014-03-02T09:46:32.000Z</time>
      </trkpt>
      <trkpt lat="45.33305" lon="6.1954">
        <ele>2179.1999511719</ele>
        <time>2014-03-02T09:46:33.000Z</time>
      </trkpt>
      <trkpt lat="45.33305" lon="6.1954">
        <ele>2179.1999511719</ele>
        <time>2014-03-02T09:46:36.000Z</time>
      </trkpt>
      <trkpt lat="45.33305" lon="6.1954">
        <ele>2179.1999511719</ele>
        <time>2014-03-02T09:46:37.000Z</time>
      </trkpt>
      <trkpt lat="45.33305" lon="6.1954">
        <ele>2179.1999511719</ele>
        <time>2014-03-02T09:46:38.000Z</time>
      </trkpt>
      <trkpt lat="45.33305" lon="6.1954">
        <ele>2179.1999511719</ele>
        <time>2014-03-02T09:46:40.000Z</time>
      </trkpt>
      <trkpt lat="45.33305" lon="6.1954">
        <ele>2179.1999511719</ele>
        <time>2014-03-02T09:46:41.000Z</time>
      </trkpt>
      <trkpt lat="45.33305" lon="6.1954">
        <ele>2179.1999511719</ele>
        <time>2014-03-02T09:46:44.000Z</time>
      </trkpt>
      <trkpt lat="45.33305" lon="6.1954">
        <ele>2179.1999511719</ele>
        <time>2014-03-02T09:46:45.000Z</time>
      </trkpt>
      <trkpt lat="45.33305" lon="6.1954">
        <ele>2179.1999511719</ele>
        <time>2014-03-02T09:46:46.000Z</time>
      </trkpt>
      <trkpt lat="45.33305" lon="6.1954">
        <ele>2179.1999511719</ele>
        <time>2014-03-02T09:46:47.000Z</time>
      </trkpt>
      <trkpt lat="45.33305" lon="6.1954">
        <ele>2179.1999511719</ele>
        <time>2014-03-02T09:46:48.000Z</time>
      </trkpt>
      <trkpt lat="45.33305" lon="6.1954">
        <ele>2179.1999511719</ele>
        <time>2014-03-02T09:46:49.000Z</time>
      </trkpt>
      <trkpt lat="45.33305" lon="6.1954">
        <ele>2179.1999511719</ele>
        <time>2014-03-02T09:46:50.000Z</time>
      </trkpt>
      <trkpt lat="45.33305" lon="6.1954">
        <ele>2179.1999511719</ele>
        <time>2014-03-02T09:46:51.000Z</time>
      </trkpt>
      <trkpt lat="45.33305" lon="6.1954">
        <ele>2179.1999511719</ele>
        <time>2014-03-02T09:46:52.000Z</time>
      </trkpt>
      <trkpt lat="45.33305" lon="6.1954">
        <ele>2179.1999511719</ele>
        <time>2014-03-02T09:46:53.000Z</time>
      </trkpt>
      <trkpt lat="45.33305" lon="6.1954">
        <ele>2179.1999511719</ele>
        <time>2014-03-02T09:46:56.000Z</time>
      </trkpt>
      <trkpt lat="45.33305" lon="6.1954">
        <ele>2179.1999511719</ele>
        <time>2014-03-02T09:46:57.000Z</time>
      </trkpt>
      <trkpt lat="45.33305" lon="6.1954">
        <ele>2179.1999511719</ele>
        <time>2014-03-02T09:46:58.000Z</time>
      </trkpt>
      <trkpt lat="45.33305" lon="6.1954">
        <ele>2179.1999511719</ele>
        <time>2014-03-02T09:47:02.000Z</time>
      </trkpt>
      <trkpt lat="45.33305" lon="6.1954">
        <ele>2179.1999511719</ele>
        <time>2014-03-02T09:47:09.000Z</time>
      </trkpt>
      <trkpt lat="45.33305" lon="6.1954">
        <ele>2179.1999511719</ele>
        <time>2014-03-02T09:47:10.000Z</time>
      </trkpt>
      <trkpt lat="45.33305" lon="6.1954">
        <ele>2179.1999511719</ele>
        <time>2014-03-02T09:47:15.000Z</time>
      </trkpt>
      <trkpt lat="45.33305" lon="6.1954">
        <ele>2179.1999511719</ele>
        <time>2014-03-02T09:47:16.000Z</time>
      </trkpt>
      <trkpt lat="45.33305" lon="6.1954">
        <ele>2179.1999511719</ele>
        <time>2014-03-02T09:47:19.000Z</time>
      </trkpt>
      <trkpt lat="45.33305" lon="6.1954">
        <ele>2179.1999511719</ele>
        <time>2014-03-02T09:47:20.000Z</time>
      </trkpt>
      <trkpt lat="45.33305" lon="6.1954">
        <ele>2179.1999511719</ele>
        <time>2014-03-02T09:47:22.000Z</time>
      </trkpt>
      <trkpt lat="45.33305" lon="6.1954">
        <ele>2179.1999511719</ele>
        <time>2014-03-02T09:47:25.000Z</time>
      </trkpt>
      <trkpt lat="45.33305" lon="6.1954">
        <ele>2179.1999511719</ele>
        <time>2014-03-02T09:47:26.000Z</time>
      </trkpt>
      <trkpt lat="45.33305" lon="6.1954">
        <ele>2179.1999511719</ele>
        <time>2014-03-02T09:47:27.000Z</time>
      </trkpt>
      <trkpt lat="45.33305" lon="6.1954">
        <ele>2179.1999511719</ele>
        <time>2014-03-02T09:47:28.000Z</time>
      </trkpt>
      <trkpt lat="45.33305" lon="6.19539">
        <ele>2179.3999023438</ele>
        <time>2014-03-02T09:47:29.000Z</time>
      </trkpt>
      <trkpt lat="45.33305" lon="6.19539">
        <ele>2179.3999023438</ele>
        <time>2014-03-02T09:47:30.000Z</time>
      </trkpt>
      <trkpt lat="45.33305" lon="6.19539">
        <ele>2179.3999023438</ele>
        <time>2014-03-02T09:47:31.000Z</time>
      </trkpt>
      <trkpt lat="45.33305" lon="6.19539">
        <ele>2179.3999023438</ele>
        <time>2014-03-02T09:47:32.000Z</time>
      </trkpt>
      <trkpt lat="45.33305" lon="6.19539">
        <ele>2179.3999023438</ele>
        <time>2014-03-02T09:47:33.000Z</time>
      </trkpt>
      <trkpt lat="45.33305" lon="6.19539">
        <ele>2179.3999023438</ele>
        <time>2014-03-02T09:47:35.000Z</time>
      </trkpt>
      <trkpt lat="45.33305" lon="6.19539">
        <ele>2179.3999023438</ele>
        <time>2014-03-02T09:47:36.000Z</time>
      </trkpt>
      <trkpt lat="45.33305" lon="6.19539">
        <ele>2179.3999023438</ele>
        <time>2014-03-02T09:47:37.000Z</time>
      </trkpt>
      <trkpt lat="45.33305" lon="6.19539">
        <ele>2179.3999023438</ele>
        <time>2014-03-02T09:47:38.000Z</time>
      </trkpt>
      <trkpt lat="45.33305" lon="6.19539">
        <ele>2179.3999023438</ele>
        <time>2014-03-02T09:47:39.000Z</time>
      </trkpt>
      <trkpt lat="45.33305" lon="6.19539">
        <ele>2179.3999023438</ele>
        <time>2014-03-02T09:47:40.000Z</time>
      </trkpt>
      <trkpt lat="45.33305" lon="6.19539">
        <ele>2179.3999023438</ele>
        <time>2014-03-02T09:47:41.000Z</time>
      </trkpt>
      <trkpt lat="45.33305" lon="6.19539">
        <ele>2179.3999023438</ele>
        <time>2014-03-02T09:47:42.000Z</time>
      </trkpt>
      <trkpt lat="45.33305" lon="6.19539">
        <ele>2179.3999023438</ele>
        <time>2014-03-02T09:47:43.000Z</time>
      </trkpt>
      <trkpt lat="45.33305" lon="6.19539">
        <ele>2179.3999023438</ele>
        <time>2014-03-02T09:47:44.000Z</time>
      </trkpt>
      <trkpt lat="45.33305" lon="6.19539">
        <ele>2179.3999023438</ele>
        <time>2014-03-02T09:47:45.000Z</time>
      </trkpt>
      <trkpt lat="45.33305" lon="6.19539">
        <ele>2179.3999023438</ele>
        <time>2014-03-02T09:47:46.000Z</time>
      </trkpt>
      <trkpt lat="45.33305" lon="6.19539">
        <ele>2179.3999023438</ele>
        <time>2014-03-02T09:47:47.000Z</time>
      </trkpt>
      <trkpt lat="45.33305" lon="6.19539">
        <ele>2179.3999023438</ele>
        <time>2014-03-02T09:47:48.000Z</time>
      </trkpt>
      <trkpt lat="45.33305" lon="6.19539">
        <ele>2179.3999023438</ele>
        <time>2014-03-02T09:47:49.000Z</time>
      </trkpt>
      <trkpt lat="45.33305" lon="6.19539">
        <ele>2179.3999023438</ele>
        <time>2014-03-02T09:47:50.000Z</time>
      </trkpt>
      <trkpt lat="45.33305" lon="6.19539">
        <ele>2179.3999023438</ele>
        <time>2014-03-02T09:47:51.000Z</time>
      </trkpt>
      <trkpt lat="45.33305" lon="6.19539">
        <ele>2179.3999023438</ele>
        <time>2014-03-02T09:47:52.000Z</time>
      </trkpt>
      <trkpt lat="45.33305" lon="6.19539">
        <ele>2179.3999023438</ele>
        <time>2014-03-02T09:47:53.000Z</time>
      </trkpt>
      <trkpt lat="45.33305" lon="6.19539">
        <ele>2179.3999023438</ele>
        <time>2014-03-02T09:47:54.000Z</time>
      </trkpt>
      <trkpt lat="45.33305" lon="6.19538">
        <ele>2179.1999511719</ele>
        <time>2014-03-02T09:47:55.000Z</time>
      </trkpt>
      <trkpt lat="45.33305" lon="6.19538">
        <ele>2179.1999511719</ele>
        <time>2014-03-02T09:47:56.000Z</time>
      </trkpt>
      <trkpt lat="45.33305" lon="6.19538">
        <ele>2179.1999511719</ele>
        <time>2014-03-02T09:47:57.000Z</time>
      </trkpt>
      <trkpt lat="45.33305" lon="6.19538">
        <ele>2179.1999511719</ele>
        <time>2014-03-02T09:47:58.000Z</time>
      </trkpt>
      <trkpt lat="45.33305" lon="6.19538">
        <ele>2179.1999511719</ele>
        <time>2014-03-02T09:47:59.000Z</time>
      </trkpt>
      <trkpt lat="45.33305" lon="6.19538">
        <ele>2179.1999511719</ele>
        <time>2014-03-02T09:48:00.000Z</time>
      </trkpt>
      <trkpt lat="45.33305" lon="6.19538">
        <ele>2179.1999511719</ele>
        <time>2014-03-02T09:48:01.000Z</time>
      </trkpt>
      <trkpt lat="45.33305" lon="6.19538">
        <ele>2179.1999511719</ele>
        <time>2014-03-02T09:48:02.000Z</time>
      </trkpt>
      <trkpt lat="45.33305" lon="6.19538">
        <ele>2179.1999511719</ele>
        <time>2014-03-02T09:48:03.000Z</time>
      </trkpt>
      <trkpt lat="45.33305" lon="6.19538">
        <ele>2179.1999511719</ele>
        <time>2014-03-02T09:48:04.000Z</time>
      </trkpt>
      <trkpt lat="45.33305" lon="6.19538">
        <ele>2179.1999511719</ele>
        <time>2014-03-02T09:48:05.000Z</time>
      </trkpt>
      <trkpt lat="45.33305" lon="6.19538">
        <ele>2179.1999511719</ele>
        <time>2014-03-02T09:48:06.000Z</time>
      </trkpt>
      <trkpt lat="45.33305" lon="6.19538">
        <ele>2179.1999511719</ele>
        <time>2014-03-02T09:48:07.000Z</time>
      </trkpt>
      <trkpt lat="45.33305" lon="6.19538">
        <ele>2179.1999511719</ele>
        <time>2014-03-02T09:48:08.000Z</time>
      </trkpt>
      <trkpt lat="45.33305" lon="6.19538">
        <ele>2179.1999511719</ele>
        <time>2014-03-02T09:48:09.000Z</time>
      </trkpt>
      <trkpt lat="45.33305" lon="6.19538">
        <ele>2179.1999511719</ele>
        <time>2014-03-02T09:48:10.000Z</time>
      </trkpt>
      <trkpt lat="45.33305" lon="6.19538">
        <ele>2179.1999511719</ele>
        <time>2014-03-02T09:48:11.000Z</time>
      </trkpt>
      <trkpt lat="45.33305" lon="6.19538">
        <ele>2179.1999511719</ele>
        <time>2014-03-02T09:48:12.000Z</time>
      </trkpt>
      <trkpt lat="45.33305" lon="6.19538">
        <ele>2179.1999511719</ele>
        <time>2014-03-02T09:48:13.000Z</time>
      </trkpt>
      <trkpt lat="45.33305" lon="6.19538">
        <ele>2179.1999511719</ele>
        <time>2014-03-02T09:48:14.000Z</time>
      </trkpt>
      <trkpt lat="45.33305" lon="6.19538">
        <ele>2179.1999511719</ele>
        <time>2014-03-02T09:48:15.000Z</time>
      </trkpt>
      <trkpt lat="45.33305" lon="6.19538">
        <ele>2179.1999511719</ele>
        <time>2014-03-02T09:48:17.000Z</time>
      </trkpt>
      <trkpt lat="45.33305" lon="6.19538">
        <ele>2179.1999511719</ele>
        <time>2014-03-02T09:48:18.000Z</time>
      </trkpt>
      <trkpt lat="45.33305" lon="6.19538">
        <ele>2179.1999511719</ele>
        <time>2014-03-02T09:48:19.000Z</time>
      </trkpt>
      <trkpt lat="45.33305" lon="6.19538">
        <ele>2179.1999511719</ele>
        <time>2014-03-02T09:48:20.000Z</time>
      </trkpt>
      <trkpt lat="45.33305" lon="6.19538">
        <ele>2179.1999511719</ele>
        <time>2014-03-02T09:48:21.000Z</time>
      </trkpt>
      <trkpt lat="45.33305" lon="6.19538">
        <ele>2179.1999511719</ele>
        <time>2014-03-02T09:48:22.000Z</time>
      </trkpt>
      <trkpt lat="45.33305" lon="6.19538">
        <ele>2179.1999511719</ele>
        <time>2014-03-02T09:48:23.000Z</time>
      </trkpt>
      <trkpt lat="45.33305" lon="6.19538">
        <ele>2179.1999511719</ele>
        <time>2014-03-02T09:48:24.000Z</time>
      </trkpt>
      <trkpt lat="45.33305" lon="6.19538">
        <ele>2179.1999511719</ele>
        <time>2014-03-02T09:48:25.000Z</time>
      </trkpt>
      <trkpt lat="45.33305" lon="6.19538">
        <ele>2179.1999511719</ele>
        <time>2014-03-02T09:48:26.000Z</time>
      </trkpt>
      <trkpt lat="45.33305" lon="6.19538">
        <ele>2179.1999511719</ele>
        <time>2014-03-02T09:48:27.000Z</time>
      </trkpt>
      <trkpt lat="45.33305" lon="6.19538">
        <ele>2179.1999511719</ele>
        <time>2014-03-02T09:48:28.000Z</time>
      </trkpt>
      <trkpt lat="45.33305" lon="6.19538">
        <ele>2179.1999511719</ele>
        <time>2014-03-02T09:48:29.000Z</time>
      </trkpt>
      <trkpt lat="45.33305" lon="6.19538">
        <ele>2179.1999511719</ele>
        <time>2014-03-02T09:48:30.000Z</time>
      </trkpt>
      <trkpt lat="45.33305" lon="6.19539">
        <ele>2179</ele>
        <time>2014-03-02T09:48:31.000Z</time>
      </trkpt>
      <trkpt lat="45.33305" lon="6.19539">
        <ele>2179</ele>
        <time>2014-03-02T09:48:32.000Z</time>
      </trkpt>
      <trkpt lat="45.33305" lon="6.19539">
        <ele>2179</ele>
        <time>2014-03-02T09:48:33.000Z</time>
      </trkpt>
      <trkpt lat="45.33305" lon="6.19539">
        <ele>2179</ele>
        <time>2014-03-02T09:48:34.000Z</time>
      </trkpt>
      <trkpt lat="45.33305" lon="6.19539">
        <ele>2179</ele>
        <time>2014-03-02T09:48:35.000Z</time>
      </trkpt>
      <trkpt lat="45.33305" lon="6.19539">
        <ele>2179</ele>
        <time>2014-03-02T09:48:36.000Z</time>
      </trkpt>
      <trkpt lat="45.33305" lon="6.19539">
        <ele>2179</ele>
        <time>2014-03-02T09:48:37.000Z</time>
      </trkpt>
      <trkpt lat="45.33305" lon="6.19539">
        <ele>2179</ele>
        <time>2014-03-02T09:48:38.000Z</time>
      </trkpt>
      <trkpt lat="45.33305" lon="6.19539">
        <ele>2179</ele>
        <time>2014-03-02T09:48:39.000Z</time>
      </trkpt>
      <trkpt lat="45.33305" lon="6.19539">
        <ele>2179</ele>
        <time>2014-03-02T09:48:40.000Z</time>
      </trkpt>
      <trkpt lat="45.33305" lon="6.19539">
        <ele>2179</ele>
        <time>2014-03-02T09:48:41.000Z</time>
      </trkpt>
      <trkpt lat="45.33305" lon="6.19539">
        <ele>2179</ele>
        <time>2014-03-02T09:48:42.000Z</time>
      </trkpt>
      <trkpt lat="45.33305" lon="6.19539">
        <ele>2179</ele>
        <time>2014-03-02T09:48:43.000Z</time>
      </trkpt>
      <trkpt lat="45.33305" lon="6.19539">
        <ele>2179</ele>
        <time>2014-03-02T09:48:44.000Z</time>
      </trkpt>
      <trkpt lat="45.33305" lon="6.19539">
        <ele>2179</ele>
        <time>2014-03-02T09:48:45.000Z</time>
      </trkpt>
      <trkpt lat="45.33305" lon="6.19539">
        <ele>2179</ele>
        <time>2014-03-02T09:48:46.000Z</time>
      </trkpt>
      <trkpt lat="45.33305" lon="6.19539">
        <ele>2179</ele>
        <time>2014-03-02T09:48:47.000Z</time>
      </trkpt>
      <trkpt lat="45.33305" lon="6.19539">
        <ele>2179</ele>
        <time>2014-03-02T09:48:48.000Z</time>
      </trkpt>
      <trkpt lat="45.33305" lon="6.19539">
        <ele>2179</ele>
        <time>2014-03-02T09:48:49.000Z</time>
      </trkpt>
      <trkpt lat="45.33305" lon="6.19539">
        <ele>2179</ele>
        <time>2014-03-02T09:48:50.000Z</time>
      </trkpt>
      <trkpt lat="45.33305" lon="6.19539">
        <ele>2179</ele>
        <time>2014-03-02T09:48:51.000Z</time>
      </trkpt>
      <trkpt lat="45.33305" lon="6.19539">
        <ele>2179</ele>
        <time>2014-03-02T09:48:52.000Z</time>
      </trkpt>
      <trkpt lat="45.33305" lon="6.19539">
        <ele>2179</ele>
        <time>2014-03-02T09:48:53.000Z</time>
      </trkpt>
      <trkpt lat="45.33305" lon="6.19538">
        <ele>2179.3999023438</ele>
        <time>2014-03-02T09:48:54.000Z</time>
      </trkpt>
      <trkpt lat="45.33306" lon="6.19538">
        <ele>2179.6000976562</ele>
        <time>2014-03-02T09:48:55.000Z</time>
      </trkpt>
      <trkpt lat="45.33307" lon="6.19539">
        <ele>2180</ele>
        <time>2014-03-02T09:48:56.000Z</time>
      </trkpt>
      <trkpt lat="45.33308" lon="6.19539">
        <ele>2180.1999511719</ele>
        <time>2014-03-02T09:48:57.000Z</time>
      </trkpt>
      <trkpt lat="45.33308" lon="6.1954">
        <ele>2180.3999023438</ele>
        <time>2014-03-02T09:48:58.000Z</time>
      </trkpt>
      <trkpt lat="45.33309" lon="6.1954">
        <ele>2180.6000976562</ele>
        <time>2014-03-02T09:48:59.000Z</time>
      </trkpt>
      <trkpt lat="45.33309" lon="6.1954">
        <ele>2180.6000976562</ele>
        <time>2014-03-02T09:49:00.000Z</time>
      </trkpt>
      <trkpt lat="45.33309" lon="6.1954">
        <ele>2180.6000976562</ele>
        <time>2014-03-02T09:49:01.000Z</time>
      </trkpt>
      <trkpt lat="45.33309" lon="6.1954">
        <ele>2180.6000976562</ele>
        <time>2014-03-02T09:49:02.000Z</time>
      </trkpt>
      <trkpt lat="45.33309" lon="6.1954">
        <ele>2180.6000976562</ele>
        <time>2014-03-02T09:49:03.000Z</time>
      </trkpt>
      <trkpt lat="45.33309" lon="6.1954">
        <ele>2180.6000976562</ele>
        <time>2014-03-02T09:49:04.000Z</time>
      </trkpt>
      <trkpt lat="45.33309" lon="6.1954">
        <ele>2180.6000976562</ele>
        <time>2014-03-02T09:49:05.000Z</time>
      </trkpt>
      <trkpt lat="45.33309" lon="6.1954">
        <ele>2180.6000976562</ele>
        <time>2014-03-02T09:49:06.000Z</time>
      </trkpt>
      <trkpt lat="45.33309" lon="6.1954">
        <ele>2180.6000976562</ele>
        <time>2014-03-02T09:49:07.000Z</time>
      </trkpt>
      <trkpt lat="45.3331" lon="6.1954">
        <ele>2181.1999511719</ele>
        <time>2014-03-02T09:49:09.000Z</time>
      </trkpt>
      <trkpt lat="45.33311" lon="6.1954">
        <ele>2181.6000976562</ele>
        <time>2014-03-02T09:49:10.000Z</time>
      </trkpt>
      <trkpt lat="45.33312" lon="6.1954">
        <ele>2181.8000488281</ele>
        <time>2014-03-02T09:49:11.000Z</time>
      </trkpt>
      <trkpt lat="45.33313" lon="6.1954">
        <ele>2182.1999511719</ele>
        <time>2014-03-02T09:49:12.000Z</time>
      </trkpt>
      <trkpt lat="45.33313" lon="6.1954">
        <ele>2182.6000976562</ele>
        <time>2014-03-02T09:49:13.000Z</time>
      </trkpt>
      <trkpt lat="45.33314" lon="6.19539">
        <ele>2182.8000488281</ele>
        <time>2014-03-02T09:49:14.000Z</time>
      </trkpt>
      <trkpt lat="45.33314" lon="6.19539">
        <ele>2183.1999511719</ele>
        <time>2014-03-02T09:49:15.000Z</time>
      </trkpt>
      <trkpt lat="45.33315" lon="6.19539">
        <ele>2183.3999023438</ele>
        <time>2014-03-02T09:49:16.000Z</time>
      </trkpt>
      <trkpt lat="45.33316" lon="6.19539">
        <ele>2183.8000488281</ele>
        <time>2014-03-02T09:49:17.000Z</time>
      </trkpt>
      <trkpt lat="45.33317" lon="6.19539">
        <ele>2184.1999511719</ele>
        <time>2014-03-02T09:49:18.000Z</time>
      </trkpt>
      <trkpt lat="45.33317" lon="6.19539">
        <ele>2184.1999511719</ele>
        <time>2014-03-02T09:49:19.000Z</time>
      </trkpt>
      <trkpt lat="45.33318" lon="6.19539">
        <ele>2184.6000976562</ele>
        <time>2014-03-02T09:49:20.000Z</time>
      </trkpt>
      <trkpt lat="45.33318" lon="6.19539">
        <ele>2184.6000976562</ele>
        <time>2014-03-02T09:49:21.000Z</time>
      </trkpt>
      <trkpt lat="45.33319" lon="6.19539">
        <ele>2185</ele>
        <time>2014-03-02T09:49:22.000Z</time>
      </trkpt>
      <trkpt lat="45.3332" lon="6.1954">
        <ele>2185.1999511719</ele>
        <time>2014-03-02T09:49:23.000Z</time>
      </trkpt>
      <trkpt lat="45.33321" lon="6.1954">
        <ele>2185.6000976562</ele>
        <time>2014-03-02T09:49:24.000Z</time>
      </trkpt>
      <trkpt lat="45.33321" lon="6.19541">
        <ele>2186</ele>
        <time>2014-03-02T09:49:25.000Z</time>
      </trkpt>
      <trkpt lat="45.33322" lon="6.19541">
        <ele>2186.1999511719</ele>
        <time>2014-03-02T09:49:26.000Z</time>
      </trkpt>
      <trkpt lat="45.33323" lon="6.19541">
        <ele>2186.6000976562</ele>
        <time>2014-03-02T09:49:27.000Z</time>
      </trkpt>
      <trkpt lat="45.33323" lon="6.19541">
        <ele>2186.6000976562</ele>
        <time>2014-03-02T09:49:28.000Z</time>
      </trkpt>
      <trkpt lat="45.33324" lon="6.19541">
        <ele>2187</ele>
        <time>2014-03-02T09:49:29.000Z</time>
      </trkpt>
      <trkpt lat="45.33324" lon="6.19541">
        <ele>2187</ele>
        <time>2014-03-02T09:49:30.000Z</time>
      </trkpt>
      <trkpt lat="45.33324" lon="6.19541">
        <ele>2187</ele>
        <time>2014-03-02T09:49:31.000Z</time>
      </trkpt>
      <trkpt lat="45.33324" lon="6.19541">
        <ele>2187</ele>
        <time>2014-03-02T09:49:32.000Z</time>
      </trkpt>
      <trkpt lat="45.33324" lon="6.19541">
        <ele>2187</ele>
        <time>2014-03-02T09:49:33.000Z</time>
      </trkpt>
      <trkpt lat="45.33324" lon="6.19541">
        <ele>2187</ele>
        <time>2014-03-02T09:49:34.000Z</time>
      </trkpt>
      <trkpt lat="45.33324" lon="6.19541">
        <ele>2187</ele>
        <time>2014-03-02T09:49:35.000Z</time>
      </trkpt>
      <trkpt lat="45.33324" lon="6.19541">
        <ele>2187</ele>
        <time>2014-03-02T09:49:37.000Z</time>
      </trkpt>
      <trkpt lat="45.33324" lon="6.19541">
        <ele>2187</ele>
        <time>2014-03-02T09:49:38.000Z</time>
      </trkpt>
      <trkpt lat="45.33324" lon="6.19541">
        <ele>2187</ele>
        <time>2014-03-02T09:49:39.000Z</time>
      </trkpt>
      <trkpt lat="45.33325" lon="6.19541">
        <ele>2187.3999023438</ele>
        <time>2014-03-02T09:49:41.000Z</time>
      </trkpt>
      <trkpt lat="45.33325" lon="6.19541">
        <ele>2187.3999023438</ele>
        <time>2014-03-02T09:49:42.000Z</time>
      </trkpt>
      <trkpt lat="45.33325" lon="6.19541">
        <ele>2187.6000976562</ele>
        <time>2014-03-02T09:49:43.000Z</time>
      </trkpt>
      <trkpt lat="45.33326" lon="6.19541">
        <ele>2187.6000976562</ele>
        <time>2014-03-02T09:49:44.000Z</time>
      </trkpt>
      <trkpt lat="45.33326" lon="6.19542">
        <ele>2187.8000488281</ele>
        <time>2014-03-02T09:49:45.000Z</time>
      </trkpt>
      <trkpt lat="45.33327" lon="6.19542">
        <ele>2188</ele>
        <time>2014-03-02T09:49:46.000Z</time>
      </trkpt>
      <trkpt lat="45.33327" lon="6.19542">
        <ele>2188.1999511719</ele>
        <time>2014-03-02T09:49:47.000Z</time>
      </trkpt>
      <trkpt lat="45.33329" lon="6.19542">
        <ele>2188.8000488281</ele>
        <time>2014-03-02T09:49:48.000Z</time>
      </trkpt>
      <trkpt lat="45.33329" lon="6.19542">
        <ele>2188.8000488281</ele>
        <time>2014-03-02T09:49:49.000Z</time>
      </trkpt>
      <trkpt lat="45.3333" lon="6.19543">
        <ele>2189.1999511719</ele>
        <time>2014-03-02T09:49:50.000Z</time>
      </trkpt>
      <trkpt lat="45.3333" lon="6.19543">
        <ele>2189.1999511719</ele>
        <time>2014-03-02T09:49:51.000Z</time>
      </trkpt>
      <trkpt lat="45.33331" lon="6.19544">
        <ele>2189.3999023438</ele>
        <time>2014-03-02T09:49:52.000Z</time>
      </trkpt>
      <trkpt lat="45.33331" lon="6.19545">
        <ele>2189.6000976562</ele>
        <time>2014-03-02T09:49:53.000Z</time>
      </trkpt>
      <trkpt lat="45.33332" lon="6.19545">
        <ele>2189.6000976562</ele>
        <time>2014-03-02T09:49:54.000Z</time>
      </trkpt>
      <trkpt lat="45.33332" lon="6.19545">
        <ele>2189.8000488281</ele>
        <time>2014-03-02T09:49:55.000Z</time>
      </trkpt>
      <trkpt lat="45.33333" lon="6.19545">
        <ele>2190</ele>
        <time>2014-03-02T09:49:56.000Z</time>
      </trkpt>
      <trkpt lat="45.33333" lon="6.19545">
        <ele>2190</ele>
        <time>2014-03-02T09:49:57.000Z</time>
      </trkpt>
      <trkpt lat="45.33333" lon="6.19545">
        <ele>2190.3999023438</ele>
        <time>2014-03-02T09:49:58.000Z</time>
      </trkpt>
      <trkpt lat="45.33334" lon="6.19545">
        <ele>2190.8000488281</ele>
        <time>2014-03-02T09:49:59.000Z</time>
      </trkpt>
      <trkpt lat="45.33334" lon="6.19545">
        <ele>2190.8000488281</ele>
        <time>2014-03-02T09:50:00.000Z</time>
      </trkpt>
      <trkpt lat="45.33335" lon="6.19546">
        <ele>2190.8000488281</ele>
        <time>2014-03-02T09:50:01.000Z</time>
      </trkpt>
      <trkpt lat="45.33335" lon="6.19547">
        <ele>2191</ele>
        <time>2014-03-02T09:50:02.000Z</time>
      </trkpt>
      <trkpt lat="45.33336" lon="6.19547">
        <ele>2191.1999511719</ele>
        <time>2014-03-02T09:50:03.000Z</time>
      </trkpt>
      <trkpt lat="45.33336" lon="6.19547">
        <ele>2191.3999023438</ele>
        <time>2014-03-02T09:50:04.000Z</time>
      </trkpt>
      <trkpt lat="45.33337" lon="6.19547">
        <ele>2191.3999023438</ele>
        <time>2014-03-02T09:50:05.000Z</time>
      </trkpt>
      <trkpt lat="45.33337" lon="6.19547">
        <ele>2191.6000976562</ele>
        <time>2014-03-02T09:50:06.000Z</time>
      </trkpt>
      <trkpt lat="45.33338" lon="6.19548">
        <ele>2191.8000488281</ele>
        <time>2014-03-02T09:50:07.000Z</time>
      </trkpt>
      <trkpt lat="45.33338" lon="6.19548">
        <ele>2191.8000488281</ele>
        <time>2014-03-02T09:50:08.000Z</time>
      </trkpt>
      <trkpt lat="45.33338" lon="6.19548">
        <ele>2192</ele>
        <time>2014-03-02T09:50:09.000Z</time>
      </trkpt>
      <trkpt lat="45.33338" lon="6.19548">
        <ele>2192</ele>
        <time>2014-03-02T09:50:10.000Z</time>
      </trkpt>
      <trkpt lat="45.33339" lon="6.19548">
        <ele>2192.3999023438</ele>
        <time>2014-03-02T09:50:11.000Z</time>
      </trkpt>
      <trkpt lat="45.3334" lon="6.19549">
        <ele>2192.6000976562</ele>
        <time>2014-03-02T09:50:12.000Z</time>
      </trkpt>
      <trkpt lat="45.33341" lon="6.19549">
        <ele>2192.8000488281</ele>
        <time>2014-03-02T09:50:13.000Z</time>
      </trkpt>
      <trkpt lat="45.33341" lon="6.19549">
        <ele>2193</ele>
        <time>2014-03-02T09:50:14.000Z</time>
      </trkpt>
      <trkpt lat="45.33341" lon="6.1955">
        <ele>2193.1999511719</ele>
        <time>2014-03-02T09:50:15.000Z</time>
      </trkpt>
      <trkpt lat="45.33342" lon="6.1955">
        <ele>2193.3999023438</ele>
        <time>2014-03-02T09:50:16.000Z</time>
      </trkpt>
      <trkpt lat="45.33342" lon="6.1955">
        <ele>2193.3999023438</ele>
        <time>2014-03-02T09:50:17.000Z</time>
      </trkpt>
      <trkpt lat="45.33343" lon="6.19551">
        <ele>2193.3999023438</ele>
        <time>2014-03-02T09:50:18.000Z</time>
      </trkpt>
      <trkpt lat="45.33343" lon="6.19551">
        <ele>2193.6000976562</ele>
        <time>2014-03-02T09:50:19.000Z</time>
      </trkpt>
      <trkpt lat="45.33343" lon="6.19551">
        <ele>2193.6000976562</ele>
        <time>2014-03-02T09:50:20.000Z</time>
      </trkpt>
      <trkpt lat="45.33343" lon="6.19551">
        <ele>2193.8000488281</ele>
        <time>2014-03-02T09:50:21.000Z</time>
      </trkpt>
      <trkpt lat="45.33344" lon="6.19551">
        <ele>2193.8000488281</ele>
        <time>2014-03-02T09:50:22.000Z</time>
      </trkpt>
      <trkpt lat="45.33345" lon="6.19552">
        <ele>2194.1999511719</ele>
        <time>2014-03-02T09:50:23.000Z</time>
      </trkpt>
      <trkpt lat="45.33345" lon="6.19552">
        <ele>2194.3999023438</ele>
        <time>2014-03-02T09:50:24.000Z</time>
      </trkpt>
      <trkpt lat="45.33345" lon="6.19552">
        <ele>2194.3999023438</ele>
        <time>2014-03-02T09:50:25.000Z</time>
      </trkpt>
      <trkpt lat="45.33346" lon="6.19552">
        <ele>2194.8000488281</ele>
        <time>2014-03-02T09:50:26.000Z</time>
      </trkpt>
      <trkpt lat="45.33346" lon="6.19552">
        <ele>2194.8000488281</ele>
        <time>2014-03-02T09:50:27.000Z</time>
      </trkpt>
      <trkpt lat="45.33346" lon="6.19552">
        <ele>2194.8000488281</ele>
        <time>2014-03-02T09:50:28.000Z</time>
      </trkpt>
      <trkpt lat="45.33346" lon="6.19552">
        <ele>2194.8000488281</ele>
        <time>2014-03-02T09:50:29.000Z</time>
      </trkpt>
      <trkpt lat="45.33346" lon="6.19552">
        <ele>2194.8000488281</ele>
        <time>2014-03-02T09:50:30.000Z</time>
      </trkpt>
      <trkpt lat="45.33346" lon="6.19552">
        <ele>2194.8000488281</ele>
        <time>2014-03-02T09:50:31.000Z</time>
      </trkpt>
      <trkpt lat="45.33346" lon="6.19552">
        <ele>2194.8000488281</ele>
        <time>2014-03-02T09:50:32.000Z</time>
      </trkpt>
      <trkpt lat="45.33346" lon="6.19552">
        <ele>2194.8000488281</ele>
        <time>2014-03-02T09:50:33.000Z</time>
      </trkpt>
      <trkpt lat="45.33346" lon="6.19552">
        <ele>2194.8000488281</ele>
        <time>2014-03-02T09:50:34.000Z</time>
      </trkpt>
      <trkpt lat="45.33346" lon="6.19552">
        <ele>2194.8000488281</ele>
        <time>2014-03-02T09:50:36.000Z</time>
      </trkpt>
      <trkpt lat="45.33346" lon="6.19552">
        <ele>2194.8000488281</ele>
        <time>2014-03-02T09:50:38.000Z</time>
      </trkpt>
      <trkpt lat="45.33346" lon="6.19552">
        <ele>2194.8000488281</ele>
        <time>2014-03-02T09:50:39.000Z</time>
      </trkpt>
      <trkpt lat="45.33346" lon="6.19552">
        <ele>2194.8000488281</ele>
        <time>2014-03-02T09:50:40.000Z</time>
      </trkpt>
      <trkpt lat="45.33347" lon="6.19552">
        <ele>2195.1999511719</ele>
        <time>2014-03-02T09:50:41.000Z</time>
      </trkpt>
      <trkpt lat="45.33348" lon="6.19552">
        <ele>2195.3999023438</ele>
        <time>2014-03-02T09:50:42.000Z</time>
      </trkpt>
      <trkpt lat="45.33348" lon="6.19552">
        <ele>2195.6000976562</ele>
        <time>2014-03-02T09:50:43.000Z</time>
      </trkpt>
      <trkpt lat="45.33349" lon="6.19552">
        <ele>2196</ele>
        <time>2014-03-02T09:50:44.000Z</time>
      </trkpt>
      <trkpt lat="45.3335" lon="6.19553">
        <ele>2196.1999511719</ele>
        <time>2014-03-02T09:50:45.000Z</time>
      </trkpt>
      <trkpt lat="45.33351" lon="6.19553">
        <ele>2197</ele>
        <time>2014-03-02T09:50:46.000Z</time>
      </trkpt>
      <trkpt lat="45.33351" lon="6.19552">
        <ele>2197</ele>
        <time>2014-03-02T09:50:47.000Z</time>
      </trkpt>
      <trkpt lat="45.33353" lon="6.19553">
        <ele>2197.8000488281</ele>
        <time>2014-03-02T09:50:48.000Z</time>
      </trkpt>
      <trkpt lat="45.33354" lon="6.19553">
        <ele>2197.8000488281</ele>
        <time>2014-03-02T09:50:49.000Z</time>
      </trkpt>
      <trkpt lat="45.33355" lon="6.19553">
        <ele>2198.1999511719</ele>
        <time>2014-03-02T09:50:50.000Z</time>
      </trkpt>
      <trkpt lat="45.33356" lon="6.19552">
        <ele>2198.8000488281</ele>
        <time>2014-03-02T09:50:51.000Z</time>
      </trkpt>
      <trkpt lat="45.33356" lon="6.19551">
        <ele>2199.1999511719</ele>
        <time>2014-03-02T09:50:52.000Z</time>
      </trkpt>
      <trkpt lat="45.33357" lon="6.19551">
        <ele>2199.3999023438</ele>
        <time>2014-03-02T09:50:53.000Z</time>
      </trkpt>
      <trkpt lat="45.33358" lon="6.19551">
        <ele>2199.8000488281</ele>
        <time>2014-03-02T09:50:54.000Z</time>
      </trkpt>
      <trkpt lat="45.33358" lon="6.19551">
        <ele>2200</ele>
        <time>2014-03-02T09:50:55.000Z</time>
      </trkpt>
      <trkpt lat="45.33359" lon="6.19551">
        <ele>2200.1999511719</ele>
        <time>2014-03-02T09:50:56.000Z</time>
      </trkpt>
      <trkpt lat="45.33359" lon="6.19551">
        <ele>2200.1999511719</ele>
        <time>2014-03-02T09:50:57.000Z</time>
      </trkpt>
      <trkpt lat="45.33359" lon="6.19551">
        <ele>2200.6000976562</ele>
        <time>2014-03-02T09:50:58.000Z</time>
      </trkpt>
      <trkpt lat="45.33359" lon="6.19552">
        <ele>2200.1999511719</ele>
        <time>2014-03-02T09:50:59.000Z</time>
      </trkpt>
      <trkpt lat="45.3336" lon="6.19552">
        <ele>2200.6000976562</ele>
        <time>2014-03-02T09:51:00.000Z</time>
      </trkpt>
      <trkpt lat="45.33361" lon="6.19553">
        <ele>2200.8000488281</ele>
        <time>2014-03-02T09:51:01.000Z</time>
      </trkpt>
      <trkpt lat="45.33361" lon="6.19553">
        <ele>2200.8000488281</ele>
        <time>2014-03-02T09:51:02.000Z</time>
      </trkpt>
      <trkpt lat="45.33361" lon="6.19553">
        <ele>2201</ele>
        <time>2014-03-02T09:51:03.000Z</time>
      </trkpt>
      <trkpt lat="45.33361" lon="6.19553">
        <ele>2201</ele>
        <time>2014-03-02T09:51:04.000Z</time>
      </trkpt>
      <trkpt lat="45.33361" lon="6.19553">
        <ele>2201</ele>
        <time>2014-03-02T09:51:05.000Z</time>
      </trkpt>
      <trkpt lat="45.33361" lon="6.19553">
        <ele>2201</ele>
        <time>2014-03-02T09:51:06.000Z</time>
      </trkpt>
      <trkpt lat="45.33361" lon="6.19553">
        <ele>2201</ele>
        <time>2014-03-02T09:51:07.000Z</time>
      </trkpt>
      <trkpt lat="45.33361" lon="6.19553">
        <ele>2201</ele>
        <time>2014-03-02T09:51:08.000Z</time>
      </trkpt>
      <trkpt lat="45.33361" lon="6.19553">
        <ele>2201</ele>
        <time>2014-03-02T09:51:09.000Z</time>
      </trkpt>
      <trkpt lat="45.33361" lon="6.19553">
        <ele>2201</ele>
        <time>2014-03-02T09:51:13.000Z</time>
      </trkpt>
      <trkpt lat="45.33361" lon="6.19553">
        <ele>2201</ele>
        <time>2014-03-02T09:51:14.000Z</time>
      </trkpt>
      <trkpt lat="45.33361" lon="6.19553">
        <ele>2201</ele>
        <time>2014-03-02T09:51:16.000Z</time>
      </trkpt>
      <trkpt lat="45.33361" lon="6.19553">
        <ele>2201</ele>
        <time>2014-03-02T09:51:17.000Z</time>
      </trkpt>
      <trkpt lat="45.33361" lon="6.19553">
        <ele>2201</ele>
        <time>2014-03-02T09:51:18.000Z</time>
      </trkpt>
      <trkpt lat="45.33361" lon="6.19553">
        <ele>2201</ele>
        <time>2014-03-02T09:51:19.000Z</time>
      </trkpt>
      <trkpt lat="45.33361" lon="6.19554">
        <ele>2201</ele>
        <time>2014-03-02T09:51:21.000Z</time>
      </trkpt>
      <trkpt lat="45.33362" lon="6.19554">
        <ele>2201.3999023438</ele>
        <time>2014-03-02T09:51:22.000Z</time>
      </trkpt>
      <trkpt lat="45.33363" lon="6.19553">
        <ele>2201.8000488281</ele>
        <time>2014-03-02T09:51:23.000Z</time>
      </trkpt>
      <trkpt lat="45.33363" lon="6.19552">
        <ele>2201.8000488281</ele>
        <time>2014-03-02T09:51:24.000Z</time>
      </trkpt>
      <trkpt lat="45.33364" lon="6.19552">
        <ele>2202.1999511719</ele>
        <time>2014-03-02T09:51:25.000Z</time>
      </trkpt>
      <trkpt lat="45.33364" lon="6.19551">
        <ele>2202.3999023438</ele>
        <time>2014-03-02T09:51:26.000Z</time>
      </trkpt>
      <trkpt lat="45.33364" lon="6.1955">
        <ele>2202.6000976562</ele>
        <time>2014-03-02T09:51:27.000Z</time>
      </trkpt>
      <trkpt lat="45.33364" lon="6.19549">
        <ele>2202.8000488281</ele>
        <time>2014-03-02T09:51:28.000Z</time>
      </trkpt>
      <trkpt lat="45.33364" lon="6.19548">
        <ele>2202.8000488281</ele>
        <time>2014-03-02T09:51:29.000Z</time>
      </trkpt>
      <trkpt lat="45.33364" lon="6.19548">
        <ele>2202.8000488281</ele>
        <time>2014-03-02T09:51:30.000Z</time>
      </trkpt>
      <trkpt lat="45.33364" lon="6.19547">
        <ele>2203</ele>
        <time>2014-03-02T09:51:31.000Z</time>
      </trkpt>
      <trkpt lat="45.33365" lon="6.19545">
        <ele>2203.8000488281</ele>
        <time>2014-03-02T09:51:32.000Z</time>
      </trkpt>
      <trkpt lat="45.33365" lon="6.19545">
        <ele>2203.8000488281</ele>
        <time>2014-03-02T09:51:33.000Z</time>
      </trkpt>
      <trkpt lat="45.33366" lon="6.19545">
        <ele>2204.1999511719</ele>
        <time>2014-03-02T09:51:34.000Z</time>
      </trkpt>
      <trkpt lat="45.33366" lon="6.19545">
        <ele>2204.1999511719</ele>
        <time>2014-03-02T09:51:35.000Z</time>
      </trkpt>
      <trkpt lat="45.33366" lon="6.19544">
        <ele>2204.8000488281</ele>
        <time>2014-03-02T09:51:36.000Z</time>
      </trkpt>
      <trkpt lat="45.33366" lon="6.19544">
        <ele>2204.8000488281</ele>
        <time>2014-03-02T09:51:37.000Z</time>
      </trkpt>
      <trkpt lat="45.33367" lon="6.19543">
        <ele>2205.1999511719</ele>
        <time>2014-03-02T09:51:38.000Z</time>
      </trkpt>
      <trkpt lat="45.33367" lon="6.19543">
        <ele>2205.8000488281</ele>
        <time>2014-03-02T09:51:39.000Z</time>
      </trkpt>
      <trkpt lat="45.33368" lon="6.19542">
        <ele>2206.6000976562</ele>
        <time>2014-03-02T09:51:40.000Z</time>
      </trkpt>
      <trkpt lat="45.33368" lon="6.19542">
        <ele>2206.6000976562</ele>
        <time>2014-03-02T09:51:41.000Z</time>
      </trkpt>
      <trkpt lat="45.33369" lon="6.19542">
        <ele>2207.1999511719</ele>
        <time>2014-03-02T09:51:42.000Z</time>
      </trkpt>
      <trkpt lat="45.33369" lon="6.19542">
        <ele>2207.1999511719</ele>
        <time>2014-03-02T09:51:43.000Z</time>
      </trkpt>
      <trkpt lat="45.3337" lon="6.19541">
        <ele>2207.8000488281</ele>
        <time>2014-03-02T09:51:44.000Z</time>
      </trkpt>
      <trkpt lat="45.3337" lon="6.19541">
        <ele>2207.8000488281</ele>
        <time>2014-03-02T09:51:45.000Z</time>
      </trkpt>
      <trkpt lat="45.3337" lon="6.1954">
        <ele>2208.3999023438</ele>
        <time>2014-03-02T09:51:46.000Z</time>
      </trkpt>
      <trkpt lat="45.3337" lon="6.1954">
        <ele>2208.6000976562</ele>
        <time>2014-03-02T09:51:47.000Z</time>
      </trkpt>
      <trkpt lat="45.3337" lon="6.1954">
        <ele>2208.6000976562</ele>
        <time>2014-03-02T09:51:48.000Z</time>
      </trkpt>
      <trkpt lat="45.3337" lon="6.19539">
        <ele>2209</ele>
        <time>2014-03-02T09:51:49.000Z</time>
      </trkpt>
      <trkpt lat="45.3337" lon="6.19539">
        <ele>2209</ele>
        <time>2014-03-02T09:51:50.000Z</time>
      </trkpt>
      <trkpt lat="45.3337" lon="6.19539">
        <ele>2209</ele>
        <time>2014-03-02T09:51:51.000Z</time>
      </trkpt>
      <trkpt lat="45.3337" lon="6.19539">
        <ele>2209</ele>
        <time>2014-03-02T09:51:52.000Z</time>
      </trkpt>
      <trkpt lat="45.3337" lon="6.19539">
        <ele>2209</ele>
        <time>2014-03-02T09:51:53.000Z</time>
      </trkpt>
      <trkpt lat="45.3337" lon="6.19539">
        <ele>2209</ele>
        <time>2014-03-02T09:51:54.000Z</time>
      </trkpt>
      <trkpt lat="45.3337" lon="6.19539">
        <ele>2209</ele>
        <time>2014-03-02T09:51:55.000Z</time>
      </trkpt>
      <trkpt lat="45.3337" lon="6.19539">
        <ele>2209</ele>
        <time>2014-03-02T09:51:56.000Z</time>
      </trkpt>
      <trkpt lat="45.3337" lon="6.19539">
        <ele>2209</ele>
        <time>2014-03-02T09:51:57.000Z</time>
      </trkpt>
      <trkpt lat="45.33371" lon="6.19538">
        <ele>2209.3999023438</ele>
        <time>2014-03-02T09:51:58.000Z</time>
      </trkpt>
      <trkpt lat="45.33371" lon="6.19537">
        <ele>2210</ele>
        <time>2014-03-02T09:51:59.000Z</time>
      </trkpt>
      <trkpt lat="45.33371" lon="6.19537">
        <ele>2210</ele>
        <time>2014-03-02T09:52:00.000Z</time>
      </trkpt>
      <trkpt lat="45.33371" lon="6.19537">
        <ele>2210</ele>
        <time>2014-03-02T09:52:01.000Z</time>
      </trkpt>
      <trkpt lat="45.33371" lon="6.19537">
        <ele>2210</ele>
        <time>2014-03-02T09:52:02.000Z</time>
      </trkpt>
      <trkpt lat="45.33371" lon="6.19537">
        <ele>2210</ele>
        <time>2014-03-02T09:52:03.000Z</time>
      </trkpt>
      <trkpt lat="45.33371" lon="6.19537">
        <ele>2210</ele>
        <time>2014-03-02T09:52:04.000Z</time>
      </trkpt>
      <trkpt lat="45.33371" lon="6.19537">
        <ele>2210</ele>
        <time>2014-03-02T09:52:05.000Z</time>
      </trkpt>
      <trkpt lat="45.33371" lon="6.19537">
        <ele>2210</ele>
        <time>2014-03-02T09:52:06.000Z</time>
      </trkpt>
      <trkpt lat="45.33371" lon="6.19537">
        <ele>2210</ele>
        <time>2014-03-02T09:52:07.000Z</time>
      </trkpt>
      <trkpt lat="45.33371" lon="6.19537">
        <ele>2210</ele>
        <time>2014-03-02T09:52:08.000Z</time>
      </trkpt>
      <trkpt lat="45.33371" lon="6.19537">
        <ele>2210</ele>
        <time>2014-03-02T09:52:09.000Z</time>
      </trkpt>
      <trkpt lat="45.33371" lon="6.19537">
        <ele>2210.1999511719</ele>
        <time>2014-03-02T09:52:10.000Z</time>
      </trkpt>
      <trkpt lat="45.33372" lon="6.19538">
        <ele>2210.3999023438</ele>
        <time>2014-03-02T09:52:13.000Z</time>
      </trkpt>
      <trkpt lat="45.33373" lon="6.19538">
        <ele>2210.8000488281</ele>
        <time>2014-03-02T09:52:14.000Z</time>
      </trkpt>
      <trkpt lat="45.33373" lon="6.19538">
        <ele>2211.1999511719</ele>
        <time>2014-03-02T09:52:15.000Z</time>
      </trkpt>
      <trkpt lat="45.33374" lon="6.19538">
        <ele>2211.3999023438</ele>
        <time>2014-03-02T09:52:16.000Z</time>
      </trkpt>
      <trkpt lat="45.33375" lon="6.19537">
        <ele>2212</ele>
        <time>2014-03-02T09:52:17.000Z</time>
      </trkpt>
      <trkpt lat="45.33375" lon="6.19538">
        <ele>2212.1999511719</ele>
        <time>2014-03-02T09:52:18.000Z</time>
      </trkpt>
      <trkpt lat="45.33376" lon="6.19537">
        <ele>2212.8000488281</ele>
        <time>2014-03-02T09:52:19.000Z</time>
      </trkpt>
      <trkpt lat="45.33376" lon="6.19537">
        <ele>2213</ele>
        <time>2014-03-02T09:52:20.000Z</time>
      </trkpt>
      <trkpt lat="45.33377" lon="6.19538">
        <ele>2213.1999511719</ele>
        <time>2014-03-02T09:52:21.000Z</time>
      </trkpt>
      <trkpt lat="45.33377" lon="6.19538">
        <ele>2213.1999511719</ele>
        <time>2014-03-02T09:52:22.000Z</time>
      </trkpt>
      <trkpt lat="45.33377" lon="6.19539">
        <ele>2213</ele>
        <time>2014-03-02T09:52:23.000Z</time>
      </trkpt>
      <trkpt lat="45.33378" lon="6.19539">
        <ele>2213</ele>
        <time>2014-03-02T09:52:24.000Z</time>
      </trkpt>
      <trkpt lat="45.33378" lon="6.1954">
        <ele>2213</ele>
        <time>2014-03-02T09:52:25.000Z</time>
      </trkpt>
      <trkpt lat="45.33378" lon="6.19541">
        <ele>2213.1999511719</ele>
        <time>2014-03-02T09:52:26.000Z</time>
      </trkpt>
      <trkpt lat="45.33379" lon="6.19541">
        <ele>2213.1999511719</ele>
        <time>2014-03-02T09:52:27.000Z</time>
      </trkpt>
      <trkpt lat="45.33379" lon="6.19542">
        <ele>2213.3999023438</ele>
        <time>2014-03-02T09:52:28.000Z</time>
      </trkpt>
      <trkpt lat="45.3338" lon="6.19542">
        <ele>2213.8000488281</ele>
        <time>2014-03-02T09:52:29.000Z</time>
      </trkpt>
      <trkpt lat="45.33381" lon="6.19541">
        <ele>2214.3999023438</ele>
        <time>2014-03-02T09:52:30.000Z</time>
      </trkpt>
      <trkpt lat="45.33381" lon="6.19542">
        <ele>2214.6000976562</ele>
        <time>2014-03-02T09:52:31.000Z</time>
      </trkpt>
      <trkpt lat="45.33382" lon="6.19542">
        <ele>2215.3999023438</ele>
        <time>2014-03-02T09:52:32.000Z</time>
      </trkpt>
      <trkpt lat="45.33383" lon="6.19542">
        <ele>2215.6000976562</ele>
        <time>2014-03-02T09:52:33.000Z</time>
      </trkpt>
      <trkpt lat="45.33383" lon="6.19542">
        <ele>2215.6000976562</ele>
        <time>2014-03-02T09:52:34.000Z</time>
      </trkpt>
      <trkpt lat="45.33383" lon="6.19542">
        <ele>2215.6000976562</ele>
        <time>2014-03-02T09:52:35.000Z</time>
      </trkpt>
      <trkpt lat="45.33383" lon="6.19542">
        <ele>2215.6000976562</ele>
        <time>2014-03-02T09:52:36.000Z</time>
      </trkpt>
      <trkpt lat="45.33383" lon="6.19542">
        <ele>2215.6000976562</ele>
        <time>2014-03-02T09:52:37.000Z</time>
      </trkpt>
      <trkpt lat="45.33383" lon="6.19542">
        <ele>2215.6000976562</ele>
        <time>2014-03-02T09:52:38.000Z</time>
      </trkpt>
      <trkpt lat="45.33383" lon="6.19542">
        <ele>2216.1999511719</ele>
        <time>2014-03-02T09:52:39.000Z</time>
      </trkpt>
      <trkpt lat="45.33385" lon="6.19543">
        <ele>2216.8000488281</ele>
        <time>2014-03-02T09:52:42.000Z</time>
      </trkpt>
      <trkpt lat="45.33385" lon="6.19544">
        <ele>2216.8000488281</ele>
        <time>2014-03-02T09:52:43.000Z</time>
      </trkpt>
      <trkpt lat="45.33385" lon="6.19544">
        <ele>2216.8000488281</ele>
        <time>2014-03-02T09:52:44.000Z</time>
      </trkpt>
      <trkpt lat="45.33385" lon="6.19545">
        <ele>2216.8000488281</ele>
        <time>2014-03-02T09:52:45.000Z</time>
      </trkpt>
      <trkpt lat="45.33386" lon="6.19546">
        <ele>2216.6000976562</ele>
        <time>2014-03-02T09:52:46.000Z</time>
      </trkpt>
      <trkpt lat="45.33386" lon="6.19547">
        <ele>2216.6000976562</ele>
        <time>2014-03-02T09:52:47.000Z</time>
      </trkpt>
      <trkpt lat="45.33387" lon="6.19548">
        <ele>2216.8000488281</ele>
        <time>2014-03-02T09:52:48.000Z</time>
      </trkpt>
      <trkpt lat="45.33387" lon="6.19549">
        <ele>2216.8000488281</ele>
        <time>2014-03-02T09:52:49.000Z</time>
      </trkpt>
      <trkpt lat="45.33388" lon="6.19549">
        <ele>2217</ele>
        <time>2014-03-02T09:52:50.000Z</time>
      </trkpt>
      <trkpt lat="45.33388" lon="6.1955">
        <ele>2217.1999511719</ele>
        <time>2014-03-02T09:52:51.000Z</time>
      </trkpt>
      <trkpt lat="45.33389" lon="6.1955">
        <ele>2217.3999023438</ele>
        <time>2014-03-02T09:52:52.000Z</time>
      </trkpt>
      <trkpt lat="45.33389" lon="6.1955">
        <ele>2217.3999023438</ele>
        <time>2014-03-02T09:52:53.000Z</time>
      </trkpt>
      <trkpt lat="45.33389" lon="6.1955">
        <ele>2217.3999023438</ele>
        <time>2014-03-02T09:52:54.000Z</time>
      </trkpt>
      <trkpt lat="45.33389" lon="6.1955">
        <ele>2217.3999023438</ele>
        <time>2014-03-02T09:52:55.000Z</time>
      </trkpt>
      <trkpt lat="45.33389" lon="6.1955">
        <ele>2217.3999023438</ele>
        <time>2014-03-02T09:52:56.000Z</time>
      </trkpt>
      <trkpt lat="45.33389" lon="6.1955">
        <ele>2217.8000488281</ele>
        <time>2014-03-02T09:52:57.000Z</time>
      </trkpt>
      <trkpt lat="45.3339" lon="6.1955">
        <ele>2218.1999511719</ele>
        <time>2014-03-02T09:52:58.000Z</time>
      </trkpt>
      <trkpt lat="45.33391" lon="6.1955">
        <ele>2218.8000488281</ele>
        <time>2014-03-02T09:52:59.000Z</time>
      </trkpt>
      <trkpt lat="45.33391" lon="6.19549">
        <ele>2219.3999023438</ele>
        <time>2014-03-02T09:53:00.000Z</time>
      </trkpt>
      <trkpt lat="45.33392" lon="6.1955">
        <ele>2220</ele>
        <time>2014-03-02T09:53:01.000Z</time>
      </trkpt>
      <trkpt lat="45.33392" lon="6.19549">
        <ele>2220.1999511719</ele>
        <time>2014-03-02T09:53:02.000Z</time>
      </trkpt>
      <trkpt lat="45.33393" lon="6.19549">
        <ele>2220.6000976562</ele>
        <time>2014-03-02T09:53:03.000Z</time>
      </trkpt>
      <trkpt lat="45.33393" lon="6.1955">
        <ele>2220.6000976562</ele>
        <time>2014-03-02T09:53:04.000Z</time>
      </trkpt>
      <trkpt lat="45.33393" lon="6.1955">
        <ele>2220.6000976562</ele>
        <time>2014-03-02T09:53:05.000Z</time>
      </trkpt>
      <trkpt lat="45.33394" lon="6.19551">
        <ele>2220.8000488281</ele>
        <time>2014-03-02T09:53:06.000Z</time>
      </trkpt>
      <trkpt lat="45.33394" lon="6.19552">
        <ele>2221</ele>
        <time>2014-03-02T09:53:07.000Z</time>
      </trkpt>
      <trkpt lat="45.33395" lon="6.19552">
        <ele>2221.3999023438</ele>
        <time>2014-03-02T09:53:08.000Z</time>
      </trkpt>
      <trkpt lat="45.33396" lon="6.19553">
        <ele>2221.8000488281</ele>
        <time>2014-03-02T09:53:09.000Z</time>
      </trkpt>
      <trkpt lat="45.33396" lon="6.19553">
        <ele>2221.8000488281</ele>
        <time>2014-03-02T09:53:10.000Z</time>
      </trkpt>
      <trkpt lat="45.33397" lon="6.19553">
        <ele>2222.3999023438</ele>
        <time>2014-03-02T09:53:11.000Z</time>
      </trkpt>
      <trkpt lat="45.33397" lon="6.19553">
        <ele>2222.3999023438</ele>
        <time>2014-03-02T09:53:12.000Z</time>
      </trkpt>
      <trkpt lat="45.33397" lon="6.19553">
        <ele>2222.3999023438</ele>
        <time>2014-03-02T09:53:13.000Z</time>
      </trkpt>
      <trkpt lat="45.33397" lon="6.19553">
        <ele>2222.3999023438</ele>
        <time>2014-03-02T09:53:14.000Z</time>
      </trkpt>
      <trkpt lat="45.33397" lon="6.19553">
        <ele>2222.3999023438</ele>
        <time>2014-03-02T09:53:15.000Z</time>
      </trkpt>
      <trkpt lat="45.33397" lon="6.19553">
        <ele>2222.3999023438</ele>
        <time>2014-03-02T09:53:16.000Z</time>
      </trkpt>
      <trkpt lat="45.33397" lon="6.19553">
        <ele>2222.3999023438</ele>
        <time>2014-03-02T09:53:17.000Z</time>
      </trkpt>
      <trkpt lat="45.33397" lon="6.19553">
        <ele>2222.3999023438</ele>
        <time>2014-03-02T09:53:18.000Z</time>
      </trkpt>
      <trkpt lat="45.33397" lon="6.19554">
        <ele>2222.1999511719</ele>
        <time>2014-03-02T09:53:22.000Z</time>
      </trkpt>
      <trkpt lat="45.33397" lon="6.19555">
        <ele>2221.8000488281</ele>
        <time>2014-03-02T09:53:23.000Z</time>
      </trkpt>
      <trkpt lat="45.33398" lon="6.19556">
        <ele>2222</ele>
        <time>2014-03-02T09:53:24.000Z</time>
      </trkpt>
      <trkpt lat="45.33398" lon="6.19556">
        <ele>2222</ele>
        <time>2014-03-02T09:53:25.000Z</time>
      </trkpt>
      <trkpt lat="45.33398" lon="6.19556">
        <ele>2222</ele>
        <time>2014-03-02T09:53:26.000Z</time>
      </trkpt>
      <trkpt lat="45.33398" lon="6.19557">
        <ele>2222.3999023438</ele>
        <time>2014-03-02T09:53:27.000Z</time>
      </trkpt>
      <trkpt lat="45.33398" lon="6.19557">
        <ele>2222.3999023438</ele>
        <time>2014-03-02T09:53:28.000Z</time>
      </trkpt>
      <trkpt lat="45.33399" lon="6.19557">
        <ele>2222.8000488281</ele>
        <time>2014-03-02T09:53:29.000Z</time>
      </trkpt>
      <trkpt lat="45.33399" lon="6.19557">
        <ele>2222.8000488281</ele>
        <time>2014-03-02T09:53:30.000Z</time>
      </trkpt>
      <trkpt lat="45.334" lon="6.19557">
        <ele>2223.3999023438</ele>
        <time>2014-03-02T09:53:31.000Z</time>
      </trkpt>
      <trkpt lat="45.33402" lon="6.19558">
        <ele>2224.3999023438</ele>
        <time>2014-03-02T09:53:32.000Z</time>
      </trkpt>
      <trkpt lat="45.33402" lon="6.19559">
        <ele>2224.3999023438</ele>
        <time>2014-03-02T09:53:33.000Z</time>
      </trkpt>
      <trkpt lat="45.33403" lon="6.1956">
        <ele>2224.6000976562</ele>
        <time>2014-03-02T09:53:34.000Z</time>
      </trkpt>
      <trkpt lat="45.33404" lon="6.19561">
        <ele>2224.8000488281</ele>
        <time>2014-03-02T09:53:35.000Z</time>
      </trkpt>
      <trkpt lat="45.33404" lon="6.19562">
        <ele>2225.1999511719</ele>
        <time>2014-03-02T09:53:36.000Z</time>
      </trkpt>
      <trkpt lat="45.33405" lon="6.19562">
        <ele>2225.6000976562</ele>
        <time>2014-03-02T09:53:37.000Z</time>
      </trkpt>
      <trkpt lat="45.33406" lon="6.19563">
        <ele>2226</ele>
        <time>2014-03-02T09:53:38.000Z</time>
      </trkpt>
      <trkpt lat="45.33406" lon="6.19563">
        <ele>2226</ele>
        <time>2014-03-02T09:53:39.000Z</time>
      </trkpt>
      <trkpt lat="45.33406" lon="6.19563">
        <ele>2226.3999023438</ele>
        <time>2014-03-02T09:53:40.000Z</time>
      </trkpt>
      <trkpt lat="45.33407" lon="6.19563">
        <ele>2227</ele>
        <time>2014-03-02T09:53:41.000Z</time>
      </trkpt>
      <trkpt lat="45.33407" lon="6.19563">
        <ele>2227</ele>
        <time>2014-03-02T09:53:42.000Z</time>
      </trkpt>
      <trkpt lat="45.33408" lon="6.19563">
        <ele>2227.8000488281</ele>
        <time>2014-03-02T09:53:43.000Z</time>
      </trkpt>
      <trkpt lat="45.33409" lon="6.19563">
        <ele>2228.3999023438</ele>
        <time>2014-03-02T09:53:44.000Z</time>
      </trkpt>
      <trkpt lat="45.33409" lon="6.19562">
        <ele>2228.3999023438</ele>
        <time>2014-03-02T09:53:45.000Z</time>
      </trkpt>
      <trkpt lat="45.33409" lon="6.19562">
        <ele>2228.3999023438</ele>
        <time>2014-03-02T09:53:46.000Z</time>
      </trkpt>
      <trkpt lat="45.33409" lon="6.19563">
        <ele>2228.6000976562</ele>
        <time>2014-03-02T09:53:47.000Z</time>
      </trkpt>
      <trkpt lat="45.33409" lon="6.19563">
        <ele>2228.6000976562</ele>
        <time>2014-03-02T09:53:48.000Z</time>
      </trkpt>
      <trkpt lat="45.33409" lon="6.19563">
        <ele>2228.6000976562</ele>
        <time>2014-03-02T09:53:49.000Z</time>
      </trkpt>
      <trkpt lat="45.3341" lon="6.19563">
        <ele>2228.8000488281</ele>
        <time>2014-03-02T09:53:50.000Z</time>
      </trkpt>
      <trkpt lat="45.3341" lon="6.19563">
        <ele>2228.8000488281</ele>
        <time>2014-03-02T09:53:51.000Z</time>
      </trkpt>
      <trkpt lat="45.3341" lon="6.19563">
        <ele>2229.1999511719</ele>
        <time>2014-03-02T09:53:52.000Z</time>
      </trkpt>
      <trkpt lat="45.33411" lon="6.19563">
        <ele>2229.6000976562</ele>
        <time>2014-03-02T09:53:53.000Z</time>
      </trkpt>
      <trkpt lat="45.33411" lon="6.19563">
        <ele>2229.6000976562</ele>
        <time>2014-03-02T09:53:54.000Z</time>
      </trkpt>
      <trkpt lat="45.33411" lon="6.19563">
        <ele>2229.6000976562</ele>
        <time>2014-03-02T09:53:55.000Z</time>
      </trkpt>
      <trkpt lat="45.33411" lon="6.19563">
        <ele>2229.6000976562</ele>
        <time>2014-03-02T09:53:56.000Z</time>
      </trkpt>
      <trkpt lat="45.33411" lon="6.19563">
        <ele>2229.6000976562</ele>
        <time>2014-03-02T09:53:57.000Z</time>
      </trkpt>
      <trkpt lat="45.33411" lon="6.19563">
        <ele>2229.6000976562</ele>
        <time>2014-03-02T09:53:58.000Z</time>
      </trkpt>
      <trkpt lat="45.33412" lon="6.19562">
        <ele>2230.1999511719</ele>
        <time>2014-03-02T09:53:59.000Z</time>
      </trkpt>
      <trkpt lat="45.33412" lon="6.19563">
        <ele>2230.6000976562</ele>
        <time>2014-03-02T09:54:00.000Z</time>
      </trkpt>
      <trkpt lat="45.33413" lon="6.19563">
        <ele>2231.1999511719</ele>
        <time>2014-03-02T09:54:01.000Z</time>
      </trkpt>
      <trkpt lat="45.33413" lon="6.19563">
        <ele>2231.1999511719</ele>
        <time>2014-03-02T09:54:02.000Z</time>
      </trkpt>
      <trkpt lat="45.33414" lon="6.19563">
        <ele>2231.8000488281</ele>
        <time>2014-03-02T09:54:03.000Z</time>
      </trkpt>
      <trkpt lat="45.33414" lon="6.19564">
        <ele>2232</ele>
        <time>2014-03-02T09:54:04.000Z</time>
      </trkpt>
      <trkpt lat="45.33415" lon="6.19565">
        <ele>2232.1999511719</ele>
        <time>2014-03-02T09:54:05.000Z</time>
      </trkpt>
      <trkpt lat="45.33415" lon="6.19566">
        <ele>2232.1999511719</ele>
        <time>2014-03-02T09:54:06.000Z</time>
      </trkpt>
      <trkpt lat="45.33415" lon="6.19566">
        <ele>2232.1999511719</ele>
        <time>2014-03-02T09:54:07.000Z</time>
      </trkpt>
      <trkpt lat="45.33415" lon="6.19566">
        <ele>2232.3999023438</ele>
        <time>2014-03-02T09:54:08.000Z</time>
      </trkpt>
      <trkpt lat="45.33415" lon="6.19566">
        <ele>2232.3999023438</ele>
        <time>2014-03-02T09:54:09.000Z</time>
      </trkpt>
      <trkpt lat="45.33415" lon="6.19566">
        <ele>2232.3999023438</ele>
        <time>2014-03-02T09:54:10.000Z</time>
      </trkpt>
      <trkpt lat="45.33415" lon="6.19567">
        <ele>2232.6000976562</ele>
        <time>2014-03-02T09:54:11.000Z</time>
      </trkpt>
      <trkpt lat="45.33416" lon="6.19568">
        <ele>2233</ele>
        <time>2014-03-02T09:54:12.000Z</time>
      </trkpt>
      <trkpt lat="45.33416" lon="6.19569">
        <ele>2233.1999511719</ele>
        <time>2014-03-02T09:54:13.000Z</time>
      </trkpt>
      <trkpt lat="45.33417" lon="6.19569">
        <ele>2233.8000488281</ele>
        <time>2014-03-02T09:54:14.000Z</time>
      </trkpt>
      <trkpt lat="45.33417" lon="6.1957">
        <ele>2233.8000488281</ele>
        <time>2014-03-02T09:54:15.000Z</time>
      </trkpt>
      <trkpt lat="45.33417" lon="6.1957">
        <ele>2233.8000488281</ele>
        <time>2014-03-02T09:54:16.000Z</time>
      </trkpt>
      <trkpt lat="45.33417" lon="6.1957">
        <ele>2233.8000488281</ele>
        <time>2014-03-02T09:54:17.000Z</time>
      </trkpt>
      <trkpt lat="45.33417" lon="6.1957">
        <ele>2233.8000488281</ele>
        <time>2014-03-02T09:54:18.000Z</time>
      </trkpt>
      <trkpt lat="45.33417" lon="6.1957">
        <ele>2233.8000488281</ele>
        <time>2014-03-02T09:54:19.000Z</time>
      </trkpt>
      <trkpt lat="45.33417" lon="6.1957">
        <ele>2233.8000488281</ele>
        <time>2014-03-02T09:54:20.000Z</time>
      </trkpt>
      <trkpt lat="45.33417" lon="6.1957">
        <ele>2233.8000488281</ele>
        <time>2014-03-02T09:54:21.000Z</time>
      </trkpt>
      <trkpt lat="45.33417" lon="6.1957">
        <ele>2233.8000488281</ele>
        <time>2014-03-02T09:54:22.000Z</time>
      </trkpt>
      <trkpt lat="45.33417" lon="6.1957">
        <ele>2233.8000488281</ele>
        <time>2014-03-02T09:54:23.000Z</time>
      </trkpt>
      <trkpt lat="45.33417" lon="6.1957">
        <ele>2233.8000488281</ele>
        <time>2014-03-02T09:54:24.000Z</time>
      </trkpt>
      <trkpt lat="45.33417" lon="6.1957">
        <ele>2233.8000488281</ele>
        <time>2014-03-02T09:54:25.000Z</time>
      </trkpt>
      <trkpt lat="45.33417" lon="6.1957">
        <ele>2233.8000488281</ele>
        <time>2014-03-02T09:54:26.000Z</time>
      </trkpt>
      <trkpt lat="45.33417" lon="6.1957">
        <ele>2233.8000488281</ele>
        <time>2014-03-02T09:54:27.000Z</time>
      </trkpt>
      <trkpt lat="45.33417" lon="6.1957">
        <ele>2233.8000488281</ele>
        <time>2014-03-02T09:54:28.000Z</time>
      </trkpt>
      <trkpt lat="45.33417" lon="6.1957">
        <ele>2233.8000488281</ele>
        <time>2014-03-02T09:54:29.000Z</time>
      </trkpt>
      <trkpt lat="45.33417" lon="6.19568">
        <ele>2233.8000488281</ele>
        <time>2014-03-02T09:54:30.000Z</time>
      </trkpt>
      <trkpt lat="45.33417" lon="6.19567">
        <ele>2233.8000488281</ele>
        <time>2014-03-02T09:54:31.000Z</time>
      </trkpt>
      <trkpt lat="45.33417" lon="6.19567">
        <ele>2233.8000488281</ele>
        <time>2014-03-02T09:54:32.000Z</time>
      </trkpt>
      <trkpt lat="45.33416" lon="6.19567">
        <ele>2233.1999511719</ele>
        <time>2014-03-02T09:54:33.000Z</time>
      </trkpt>
      <trkpt lat="45.33416" lon="6.19567">
        <ele>2233.1999511719</ele>
        <time>2014-03-02T09:54:34.000Z</time>
      </trkpt>
      <trkpt lat="45.33416" lon="6.19567">
        <ele>2233.1999511719</ele>
        <time>2014-03-02T09:54:35.000Z</time>
      </trkpt>
      <trkpt lat="45.33416" lon="6.19567">
        <ele>2233.1999511719</ele>
        <time>2014-03-02T09:54:36.000Z</time>
      </trkpt>
      <trkpt lat="45.33416" lon="6.19567">
        <ele>2233.1999511719</ele>
        <time>2014-03-02T09:54:37.000Z</time>
      </trkpt>
      <trkpt lat="45.33417" lon="6.19566">
        <ele>2233.6000976562</ele>
        <time>2014-03-02T09:54:38.000Z</time>
      </trkpt>
      <trkpt lat="45.33418" lon="6.19565">
        <ele>2234.6000976562</ele>
        <time>2014-03-02T09:54:39.000Z</time>
      </trkpt>
      <trkpt lat="45.33418" lon="6.19565">
        <ele>2234.3999023438</ele>
        <time>2014-03-02T09:54:40.000Z</time>
      </trkpt>
      <trkpt lat="45.33419" lon="6.19563">
        <ele>2235.1999511719</ele>
        <time>2014-03-02T09:54:41.000Z</time>
      </trkpt>
      <trkpt lat="45.33418" lon="6.19564">
        <ele>2234.8000488281</ele>
        <time>2014-03-02T09:54:42.000Z</time>
      </trkpt>
      <trkpt lat="45.33419" lon="6.19562">
        <ele>2235.6000976562</ele>
        <time>2014-03-02T09:54:43.000Z</time>
      </trkpt>
      <trkpt lat="45.33419" lon="6.19561">
        <ele>2235.3999023438</ele>
        <time>2014-03-02T09:54:44.000Z</time>
      </trkpt>
      <trkpt lat="45.33419" lon="6.19561">
        <ele>2235.8000488281</ele>
        <time>2014-03-02T09:54:45.000Z</time>
      </trkpt>
      <trkpt lat="45.33419" lon="6.1956">
        <ele>2236</ele>
        <time>2014-03-02T09:54:46.000Z</time>
      </trkpt>
      <trkpt lat="45.33419" lon="6.1956">
        <ele>2236.1999511719</ele>
        <time>2014-03-02T09:54:47.000Z</time>
      </trkpt>
      <trkpt lat="45.33419" lon="6.1956">
        <ele>2236.1999511719</ele>
        <time>2014-03-02T09:54:48.000Z</time>
      </trkpt>
      <trkpt lat="45.33419" lon="6.19559">
        <ele>2236.3999023438</ele>
        <time>2014-03-02T09:54:49.000Z</time>
      </trkpt>
      <trkpt lat="45.33419" lon="6.19559">
        <ele>2236.3999023438</ele>
        <time>2014-03-02T09:54:50.000Z</time>
      </trkpt>
      <trkpt lat="45.33419" lon="6.19558">
        <ele>2236.8000488281</ele>
        <time>2014-03-02T09:54:51.000Z</time>
      </trkpt>
      <trkpt lat="45.3342" lon="6.19558">
        <ele>2237.3999023438</ele>
        <time>2014-03-02T09:54:52.000Z</time>
      </trkpt>
      <trkpt lat="45.3342" lon="6.19557">
        <ele>2238</ele>
        <time>2014-03-02T09:54:53.000Z</time>
      </trkpt>
      <trkpt lat="45.33421" lon="6.19555">
        <ele>2238.8000488281</ele>
        <time>2014-03-02T09:54:54.000Z</time>
      </trkpt>
      <trkpt lat="45.3342" lon="6.19555">
        <ele>2238.6000976562</ele>
        <time>2014-03-02T09:54:55.000Z</time>
      </trkpt>
      <trkpt lat="45.33421" lon="6.19553">
        <ele>2239.8000488281</ele>
        <time>2014-03-02T09:54:56.000Z</time>
      </trkpt>
      <trkpt lat="45.33421" lon="6.19553">
        <ele>2239.6000976562</ele>
        <time>2014-03-02T09:54:57.000Z</time>
      </trkpt>
      <trkpt lat="45.33421" lon="6.19553">
        <ele>2239.6000976562</ele>
        <time>2014-03-02T09:54:58.000Z</time>
      </trkpt>
      <trkpt lat="45.33421" lon="6.19552">
        <ele>2239.6000976562</ele>
        <time>2014-03-02T09:54:59.000Z</time>
      </trkpt>
      <trkpt lat="45.3342" lon="6.19552">
        <ele>2239.6000976562</ele>
        <time>2014-03-02T09:55:00.000Z</time>
      </trkpt>
      <trkpt lat="45.3342" lon="6.19551">
        <ele>2239.8000488281</ele>
        <time>2014-03-02T09:55:01.000Z</time>
      </trkpt>
      <trkpt lat="45.3342" lon="6.19551">
        <ele>2239.8000488281</ele>
        <time>2014-03-02T09:55:02.000Z</time>
      </trkpt>
      <trkpt lat="45.3342" lon="6.19551">
        <ele>2239.8000488281</ele>
        <time>2014-03-02T09:55:03.000Z</time>
      </trkpt>
      <trkpt lat="45.3342" lon="6.1955">
        <ele>2240</ele>
        <time>2014-03-02T09:55:04.000Z</time>
      </trkpt>
      <trkpt lat="45.3342" lon="6.19548">
        <ele>2241</ele>
        <time>2014-03-02T09:55:05.000Z</time>
      </trkpt>
      <trkpt lat="45.33419" lon="6.19547">
        <ele>2240.3999023438</ele>
        <time>2014-03-02T09:55:06.000Z</time>
      </trkpt>
      <trkpt lat="45.33419" lon="6.19545">
        <ele>2241</ele>
        <time>2014-03-02T09:55:07.000Z</time>
      </trkpt>
      <trkpt lat="45.33419" lon="6.19545">
        <ele>2241</ele>
        <time>2014-03-02T09:55:08.000Z</time>
      </trkpt>
      <trkpt lat="45.33419" lon="6.19545">
        <ele>2241</ele>
        <time>2014-03-02T09:55:09.000Z</time>
      </trkpt>
      <trkpt lat="45.33419" lon="6.19545">
        <ele>2241</ele>
        <time>2014-03-02T09:55:10.000Z</time>
      </trkpt>
      <trkpt lat="45.33419" lon="6.19545">
        <ele>2241</ele>
        <time>2014-03-02T09:55:11.000Z</time>
      </trkpt>
      <trkpt lat="45.33419" lon="6.19545">
        <ele>2241</ele>
        <time>2014-03-02T09:55:12.000Z</time>
      </trkpt>
      <trkpt lat="45.33419" lon="6.19545">
        <ele>2241</ele>
        <time>2014-03-02T09:55:13.000Z</time>
      </trkpt>
      <trkpt lat="45.33419" lon="6.19545">
        <ele>2241</ele>
        <time>2014-03-02T09:55:14.000Z</time>
      </trkpt>
      <trkpt lat="45.33419" lon="6.19545">
        <ele>2241</ele>
        <time>2014-03-02T09:55:15.000Z</time>
      </trkpt>
      <trkpt lat="45.33419" lon="6.19545">
        <ele>2241</ele>
        <time>2014-03-02T09:55:16.000Z</time>
      </trkpt>
      <trkpt lat="45.33419" lon="6.19545">
        <ele>2241</ele>
        <time>2014-03-02T09:55:17.000Z</time>
      </trkpt>
      <trkpt lat="45.33419" lon="6.19545">
        <ele>2241</ele>
        <time>2014-03-02T09:55:18.000Z</time>
      </trkpt>
      <trkpt lat="45.33419" lon="6.19545">
        <ele>2241</ele>
        <time>2014-03-02T09:55:19.000Z</time>
      </trkpt>
      <trkpt lat="45.33419" lon="6.19545">
        <ele>2241</ele>
        <time>2014-03-02T09:55:20.000Z</time>
      </trkpt>
      <trkpt lat="45.33419" lon="6.19545">
        <ele>2241</ele>
        <time>2014-03-02T09:55:21.000Z</time>
      </trkpt>
      <trkpt lat="45.33419" lon="6.19545">
        <ele>2241</ele>
        <time>2014-03-02T09:55:22.000Z</time>
      </trkpt>
      <trkpt lat="45.3342" lon="6.19545">
        <ele>2241.3999023438</ele>
        <time>2014-03-02T09:55:23.000Z</time>
      </trkpt>
      <trkpt lat="45.3342" lon="6.19544">
        <ele>2241.6000976562</ele>
        <time>2014-03-02T09:55:24.000Z</time>
      </trkpt>
      <trkpt lat="45.3342" lon="6.19544">
        <ele>2241.8000488281</ele>
        <time>2014-03-02T09:55:25.000Z</time>
      </trkpt>
      <trkpt lat="45.3342" lon="6.19543">
        <ele>2242</ele>
        <time>2014-03-02T09:55:26.000Z</time>
      </trkpt>
      <trkpt lat="45.3342" lon="6.19543">
        <ele>2242</ele>
        <time>2014-03-02T09:55:27.000Z</time>
      </trkpt>
      <trkpt lat="45.3342" lon="6.19543">
        <ele>2242.1999511719</ele>
        <time>2014-03-02T09:55:28.000Z</time>
      </trkpt>
      <trkpt lat="45.3342" lon="6.19543">
        <ele>2242.1999511719</ele>
        <time>2014-03-02T09:55:29.000Z</time>
      </trkpt>
      <trkpt lat="45.3342" lon="6.19542">
        <ele>2242.6000976562</ele>
        <time>2014-03-02T09:55:30.000Z</time>
      </trkpt>
      <trkpt lat="45.3342" lon="6.19542">
        <ele>2242.6000976562</ele>
        <time>2014-03-02T09:55:31.000Z</time>
      </trkpt>
      <trkpt lat="45.33421" lon="6.19541">
        <ele>2243.1999511719</ele>
        <time>2014-03-02T09:55:32.000Z</time>
      </trkpt>
      <trkpt lat="45.33421" lon="6.19541">
        <ele>2243.1999511719</ele>
        <time>2014-03-02T09:55:33.000Z</time>
      </trkpt>
      <trkpt lat="45.33421" lon="6.1954">
        <ele>2243.8000488281</ele>
        <time>2014-03-02T09:55:34.000Z</time>
      </trkpt>
      <trkpt lat="45.33421" lon="6.19539">
        <ele>2244</ele>
        <time>2014-03-02T09:55:35.000Z</time>
      </trkpt>
      <trkpt lat="45.3342" lon="6.19538">
        <ele>2244</ele>
        <time>2014-03-02T09:55:36.000Z</time>
      </trkpt>
      <trkpt lat="45.3342" lon="6.19538">
        <ele>2244</ele>
        <time>2014-03-02T09:55:37.000Z</time>
      </trkpt>
      <trkpt lat="45.3342" lon="6.19538">
        <ele>2244</ele>
        <time>2014-03-02T09:55:38.000Z</time>
      </trkpt>
      <trkpt lat="45.3342" lon="6.19538">
        <ele>2244.1999511719</ele>
        <time>2014-03-02T09:55:39.000Z</time>
      </trkpt>
      <trkpt lat="45.33421" lon="6.19536">
        <ele>2245</ele>
        <time>2014-03-02T09:55:40.000Z</time>
      </trkpt>
      <trkpt lat="45.3342" lon="6.19536">
        <ele>2244.6000976562</ele>
        <time>2014-03-02T09:55:41.000Z</time>
      </trkpt>
      <trkpt lat="45.3342" lon="6.19535">
        <ele>2245</ele>
        <time>2014-03-02T09:55:42.000Z</time>
      </trkpt>
      <trkpt lat="45.3342" lon="6.19534">
        <ele>2245</ele>
        <time>2014-03-02T09:55:43.000Z</time>
      </trkpt>
      <trkpt lat="45.3342" lon="6.19533">
        <ele>2245.3999023438</ele>
        <time>2014-03-02T09:55:44.000Z</time>
      </trkpt>
      <trkpt lat="45.3342" lon="6.19533">
        <ele>2245.3999023438</ele>
        <time>2014-03-02T09:55:45.000Z</time>
      </trkpt>
      <trkpt lat="45.3342" lon="6.19532">
        <ele>2245.8000488281</ele>
        <time>2014-03-02T09:55:46.000Z</time>
      </trkpt>
      <trkpt lat="45.3342" lon="6.19532">
        <ele>2245.8000488281</ele>
        <time>2014-03-02T09:55:47.000Z</time>
      </trkpt>
      <trkpt lat="45.3342" lon="6.19531">
        <ele>2246.1999511719</ele>
        <time>2014-03-02T09:55:48.000Z</time>
      </trkpt>
      <trkpt lat="45.3342" lon="6.19531">
        <ele>2246.1999511719</ele>
        <time>2014-03-02T09:55:49.000Z</time>
      </trkpt>
      <trkpt lat="45.3342" lon="6.1953">
        <ele>2246.3999023438</ele>
        <time>2014-03-02T09:55:50.000Z</time>
      </trkpt>
      <trkpt lat="45.3342" lon="6.19529">
        <ele>2246.3999023438</ele>
        <time>2014-03-02T09:55:51.000Z</time>
      </trkpt>
      <trkpt lat="45.3342" lon="6.19529">
        <ele>2246.3999023438</ele>
        <time>2014-03-02T09:55:52.000Z</time>
      </trkpt>
      <trkpt lat="45.3342" lon="6.19529">
        <ele>2246.6000976562</ele>
        <time>2014-03-02T09:55:53.000Z</time>
      </trkpt>
      <trkpt lat="45.3342" lon="6.19527">
        <ele>2247.1999511719</ele>
        <time>2014-03-02T09:55:54.000Z</time>
      </trkpt>
      <trkpt lat="45.3342" lon="6.19528">
        <ele>2246.8000488281</ele>
        <time>2014-03-02T09:55:55.000Z</time>
      </trkpt>
      <trkpt lat="45.3342" lon="6.19528">
        <ele>2246.8000488281</ele>
        <time>2014-03-02T09:55:56.000Z</time>
      </trkpt>
      <trkpt lat="45.3342" lon="6.19526">
        <ele>2247.1999511719</ele>
        <time>2014-03-02T09:55:57.000Z</time>
      </trkpt>
      <trkpt lat="45.3342" lon="6.19525">
        <ele>2247.6000976562</ele>
        <time>2014-03-02T09:55:58.000Z</time>
      </trkpt>
      <trkpt lat="45.33419" lon="6.19524">
        <ele>2247.6000976562</ele>
        <time>2014-03-02T09:55:59.000Z</time>
      </trkpt>
      <trkpt lat="45.33419" lon="6.19523">
        <ele>2247.6000976562</ele>
        <time>2014-03-02T09:56:00.000Z</time>
      </trkpt>
      <trkpt lat="45.33419" lon="6.19523">
        <ele>2247.6000976562</ele>
        <time>2014-03-02T09:56:01.000Z</time>
      </trkpt>
      <trkpt lat="45.33418" lon="6.19521">
        <ele>2247.8000488281</ele>
        <time>2014-03-02T09:56:02.000Z</time>
      </trkpt>
      <trkpt lat="45.33418" lon="6.19521">
        <ele>2247.8000488281</ele>
        <time>2014-03-02T09:56:03.000Z</time>
      </trkpt>
      <trkpt lat="45.33418" lon="6.19521">
        <ele>2247.8000488281</ele>
        <time>2014-03-02T09:56:04.000Z</time>
      </trkpt>
      <trkpt lat="45.33418" lon="6.19521">
        <ele>2247.8000488281</ele>
        <time>2014-03-02T09:56:05.000Z</time>
      </trkpt>
      <trkpt lat="45.33418" lon="6.19521">
        <ele>2247.8000488281</ele>
        <time>2014-03-02T09:56:06.000Z</time>
      </trkpt>
      <trkpt lat="45.33418" lon="6.19521">
        <ele>2247.8000488281</ele>
        <time>2014-03-02T09:56:07.000Z</time>
      </trkpt>
      <trkpt lat="45.33418" lon="6.19521">
        <ele>2247.8000488281</ele>
        <time>2014-03-02T09:56:08.000Z</time>
      </trkpt>
      <trkpt lat="45.33418" lon="6.19521">
        <ele>2247.8000488281</ele>
        <time>2014-03-02T09:56:09.000Z</time>
      </trkpt>
      <trkpt lat="45.33418" lon="6.19521">
        <ele>2247.8000488281</ele>
        <time>2014-03-02T09:56:10.000Z</time>
      </trkpt>
      <trkpt lat="45.33418" lon="6.19521">
        <ele>2247.8000488281</ele>
        <time>2014-03-02T09:56:11.000Z</time>
      </trkpt>
      <trkpt lat="45.33418" lon="6.19521">
        <ele>2247.8000488281</ele>
        <time>2014-03-02T09:56:12.000Z</time>
      </trkpt>
      <trkpt lat="45.33418" lon="6.19521">
        <ele>2247.8000488281</ele>
        <time>2014-03-02T09:56:21.000Z</time>
      </trkpt>
      <trkpt lat="45.33418" lon="6.19521">
        <ele>2247.8000488281</ele>
        <time>2014-03-02T09:56:22.000Z</time>
      </trkpt>
      <trkpt lat="45.33418" lon="6.1952">
        <ele>2248</ele>
        <time>2014-03-02T09:56:23.000Z</time>
      </trkpt>
      <trkpt lat="45.33418" lon="6.19519">
        <ele>2248</ele>
        <time>2014-03-02T09:56:24.000Z</time>
      </trkpt>
      <trkpt lat="45.33418" lon="6.19518">
        <ele>2248.1999511719</ele>
        <time>2014-03-02T09:56:25.000Z</time>
      </trkpt>
      <trkpt lat="45.33418" lon="6.19518">
        <ele>2248.3999023438</ele>
        <time>2014-03-02T09:56:26.000Z</time>
      </trkpt>
      <trkpt lat="45.33418" lon="6.19518">
        <ele>2248.3999023438</ele>
        <time>2014-03-02T09:56:27.000Z</time>
      </trkpt>
      <trkpt lat="45.33418" lon="6.19517">
        <ele>2248.8000488281</ele>
        <time>2014-03-02T09:56:28.000Z</time>
      </trkpt>
      <trkpt lat="45.33418" lon="6.19517">
        <ele>2248.8000488281</ele>
        <time>2014-03-02T09:56:29.000Z</time>
      </trkpt>
      <trkpt lat="45.33418" lon="6.19517">
        <ele>2248.8000488281</ele>
        <time>2014-03-02T09:56:30.000Z</time>
      </trkpt>
      <trkpt lat="45.33418" lon="6.19517">
        <ele>2248.8000488281</ele>
        <time>2014-03-02T09:56:31.000Z</time>
      </trkpt>
      <trkpt lat="45.33418" lon="6.19517">
        <ele>2248.8000488281</ele>
        <time>2014-03-02T09:56:32.000Z</time>
      </trkpt>
      <trkpt lat="45.33418" lon="6.19517">
        <ele>2248.8000488281</ele>
        <time>2014-03-02T09:56:33.000Z</time>
      </trkpt>
      <trkpt lat="45.33418" lon="6.19517">
        <ele>2248.8000488281</ele>
        <time>2014-03-02T09:56:34.000Z</time>
      </trkpt>
      <trkpt lat="45.33418" lon="6.19517">
        <ele>2248.8000488281</ele>
        <time>2014-03-02T09:56:35.000Z</time>
      </trkpt>
      <trkpt lat="45.33418" lon="6.19517">
        <ele>2248.8000488281</ele>
        <time>2014-03-02T09:56:36.000Z</time>
      </trkpt>
      <trkpt lat="45.33418" lon="6.19517">
        <ele>2248.8000488281</ele>
        <time>2014-03-02T09:56:37.000Z</time>
      </trkpt>
      <trkpt lat="45.33418" lon="6.19517">
        <ele>2248.8000488281</ele>
        <time>2014-03-02T09:56:38.000Z</time>
      </trkpt>
      <trkpt lat="45.33417" lon="6.19515">
        <ele>2249</ele>
        <time>2014-03-02T09:56:39.000Z</time>
      </trkpt>
      <trkpt lat="45.33417" lon="6.19515">
        <ele>2249</ele>
        <time>2014-03-02T09:56:40.000Z</time>
      </trkpt>
      <trkpt lat="45.33417" lon="6.19515">
        <ele>2249</ele>
        <time>2014-03-02T09:56:41.000Z</time>
      </trkpt>
      <trkpt lat="45.33417" lon="6.19515">
        <ele>2249</ele>
        <time>2014-03-02T09:56:42.000Z</time>
      </trkpt>
      <trkpt lat="45.33417" lon="6.19515">
        <ele>2249</ele>
        <time>2014-03-02T09:56:43.000Z</time>
      </trkpt>
      <trkpt lat="45.33417" lon="6.19515">
        <ele>2249</ele>
        <time>2014-03-02T09:56:44.000Z</time>
      </trkpt>
      <trkpt lat="45.33417" lon="6.19515">
        <ele>2249</ele>
        <time>2014-03-02T09:56:45.000Z</time>
      </trkpt>
      <trkpt lat="45.33417" lon="6.19515">
        <ele>2249</ele>
        <time>2014-03-02T09:56:46.000Z</time>
      </trkpt>
      <trkpt lat="45.33417" lon="6.19515">
        <ele>2249</ele>
        <time>2014-03-02T09:56:47.000Z</time>
      </trkpt>
      <trkpt lat="45.33417" lon="6.19515">
        <ele>2249</ele>
        <time>2014-03-02T09:56:48.000Z</time>
      </trkpt>
      <trkpt lat="45.33417" lon="6.19515">
        <ele>2249</ele>
        <time>2014-03-02T09:56:49.000Z</time>
      </trkpt>
      <trkpt lat="45.33417" lon="6.19515">
        <ele>2249</ele>
        <time>2014-03-02T09:56:50.000Z</time>
      </trkpt>
      <trkpt lat="45.33417" lon="6.19515">
        <ele>2249</ele>
        <time>2014-03-02T09:56:51.000Z</time>
      </trkpt>
      <trkpt lat="45.33417" lon="6.19515">
        <ele>2249</ele>
        <time>2014-03-02T09:56:52.000Z</time>
      </trkpt>
      <trkpt lat="45.33417" lon="6.19515">
        <ele>2249</ele>
        <time>2014-03-02T09:56:53.000Z</time>
      </trkpt>
      <trkpt lat="45.33417" lon="6.19515">
        <ele>2249</ele>
        <time>2014-03-02T09:56:54.000Z</time>
      </trkpt>
      <trkpt lat="45.33417" lon="6.19515">
        <ele>2249</ele>
        <time>2014-03-02T09:56:55.000Z</time>
      </trkpt>
      <trkpt lat="45.33417" lon="6.19515">
        <ele>2249</ele>
        <time>2014-03-02T09:56:56.000Z</time>
      </trkpt>
      <trkpt lat="45.33417" lon="6.19515">
        <ele>2249</ele>
        <time>2014-03-02T09:56:57.000Z</time>
      </trkpt>
      <trkpt lat="45.33417" lon="6.19515">
        <ele>2249</ele>
        <time>2014-03-02T09:56:58.000Z</time>
      </trkpt>
      <trkpt lat="45.33417" lon="6.19515">
        <ele>2249</ele>
        <time>2014-03-02T09:56:59.000Z</time>
      </trkpt>
      <trkpt lat="45.33417" lon="6.19515">
        <ele>2249</ele>
        <time>2014-03-02T09:57:00.000Z</time>
      </trkpt>
      <trkpt lat="45.33418" lon="6.19515">
        <ele>2249.6000976562</ele>
        <time>2014-03-02T09:57:01.000Z</time>
      </trkpt>
      <trkpt lat="45.33419" lon="6.19515">
        <ele>2250</ele>
        <time>2014-03-02T09:57:02.000Z</time>
      </trkpt>
      <trkpt lat="45.33419" lon="6.19515">
        <ele>2250</ele>
        <time>2014-03-02T09:57:03.000Z</time>
      </trkpt>
      <trkpt lat="45.3342" lon="6.19514">
        <ele>2250.3999023438</ele>
        <time>2014-03-02T09:57:04.000Z</time>
      </trkpt>
      <trkpt lat="45.33421" lon="6.19514">
        <ele>2250.8000488281</ele>
        <time>2014-03-02T09:57:05.000Z</time>
      </trkpt>
      <trkpt lat="45.33422" lon="6.19513">
        <ele>2251.1999511719</ele>
        <time>2014-03-02T09:57:06.000Z</time>
      </trkpt>
      <trkpt lat="45.33422" lon="6.19513">
        <ele>2251.3999023438</ele>
        <time>2014-03-02T09:57:07.000Z</time>
      </trkpt>
      <trkpt lat="45.33422" lon="6.19513">
        <ele>2251.3999023438</ele>
        <time>2014-03-02T09:57:08.000Z</time>
      </trkpt>
      <trkpt lat="45.33423" lon="6.19513">
        <ele>2251.8000488281</ele>
        <time>2014-03-02T09:57:09.000Z</time>
      </trkpt>
      <trkpt lat="45.33423" lon="6.19513">
        <ele>2251.8000488281</ele>
        <time>2014-03-02T09:57:10.000Z</time>
      </trkpt>
      <trkpt lat="45.33423" lon="6.19513">
        <ele>2251.8000488281</ele>
        <time>2014-03-02T09:57:11.000Z</time>
      </trkpt>
      <trkpt lat="45.33424" lon="6.19513">
        <ele>2252.1999511719</ele>
        <time>2014-03-02T09:57:12.000Z</time>
      </trkpt>
      <trkpt lat="45.33424" lon="6.19513">
        <ele>2252.3999023438</ele>
        <time>2014-03-02T09:57:13.000Z</time>
      </trkpt>
      <trkpt lat="45.33425" lon="6.19513">
        <ele>2252.6000976562</ele>
        <time>2014-03-02T09:57:14.000Z</time>
      </trkpt>
      <trkpt lat="45.33425" lon="6.19513">
        <ele>2252.8000488281</ele>
        <time>2014-03-02T09:57:15.000Z</time>
      </trkpt>
      <trkpt lat="45.33426" lon="6.19513">
        <ele>2253</ele>
        <time>2014-03-02T09:57:16.000Z</time>
      </trkpt>
      <trkpt lat="45.33427" lon="6.19513">
        <ele>2253.3999023438</ele>
        <time>2014-03-02T09:57:17.000Z</time>
      </trkpt>
      <trkpt lat="45.33427" lon="6.19514">
        <ele>2253.8000488281</ele>
        <time>2014-03-02T09:57:18.000Z</time>
      </trkpt>
      <trkpt lat="45.33428" lon="6.19515">
        <ele>2254</ele>
        <time>2014-03-02T09:57:19.000Z</time>
      </trkpt>
      <trkpt lat="45.33428" lon="6.19515">
        <ele>2254.1999511719</ele>
        <time>2014-03-02T09:57:20.000Z</time>
      </trkpt>
      <trkpt lat="45.33429" lon="6.19516">
        <ele>2254.3999023438</ele>
        <time>2014-03-02T09:57:21.000Z</time>
      </trkpt>
      <trkpt lat="45.3343" lon="6.19516">
        <ele>2254.6000976562</ele>
        <time>2014-03-02T09:57:22.000Z</time>
      </trkpt>
      <trkpt lat="45.3343" lon="6.19516">
        <ele>2255</ele>
        <time>2014-03-02T09:57:23.000Z</time>
      </trkpt>
      <trkpt lat="45.33431" lon="6.19517">
        <ele>2255.1999511719</ele>
        <time>2014-03-02T09:57:24.000Z</time>
      </trkpt>
      <trkpt lat="45.33431" lon="6.19518">
        <ele>2255.3999023438</ele>
        <time>2014-03-02T09:57:25.000Z</time>
      </trkpt>
      <trkpt lat="45.33432" lon="6.19517">
        <ele>2255.6000976562</ele>
        <time>2014-03-02T09:57:26.000Z</time>
      </trkpt>
      <trkpt lat="45.33432" lon="6.19517">
        <ele>2255.6000976562</ele>
        <time>2014-03-02T09:57:27.000Z</time>
      </trkpt>
      <trkpt lat="45.33432" lon="6.19517">
        <ele>2255.8000488281</ele>
        <time>2014-03-02T09:57:28.000Z</time>
      </trkpt>
      <trkpt lat="45.33433" lon="6.19516">
        <ele>2256.1999511719</ele>
        <time>2014-03-02T09:57:29.000Z</time>
      </trkpt>
      <trkpt lat="45.33434" lon="6.19516">
        <ele>2256.3999023438</ele>
        <time>2014-03-02T09:57:30.000Z</time>
      </trkpt>
      <trkpt lat="45.33434" lon="6.19517">
        <ele>2256.6000976562</ele>
        <time>2014-03-02T09:57:31.000Z</time>
      </trkpt>
      <trkpt lat="45.33434" lon="6.19517">
        <ele>2256.8000488281</ele>
        <time>2014-03-02T09:57:32.000Z</time>
      </trkpt>
      <trkpt lat="45.33435" lon="6.19518">
        <ele>2257.1999511719</ele>
        <time>2014-03-02T09:57:33.000Z</time>
      </trkpt>
      <trkpt lat="45.33436" lon="6.19518">
        <ele>2257.3999023438</ele>
        <time>2014-03-02T09:57:34.000Z</time>
      </trkpt>
      <trkpt lat="45.33436" lon="6.19519">
        <ele>2257.3999023438</ele>
        <time>2014-03-02T09:57:35.000Z</time>
      </trkpt>
      <trkpt lat="45.33436" lon="6.19518">
        <ele>2257.3999023438</ele>
        <time>2014-03-02T09:57:36.000Z</time>
      </trkpt>
      <trkpt lat="45.33436" lon="6.19519">
        <ele>2257.6000976562</ele>
        <time>2014-03-02T09:57:37.000Z</time>
      </trkpt>
      <trkpt lat="45.33437" lon="6.19519">
        <ele>2257.8000488281</ele>
        <time>2014-03-02T09:57:38.000Z</time>
      </trkpt>
      <trkpt lat="45.33437" lon="6.19521">
        <ele>2258</ele>
        <time>2014-03-02T09:57:39.000Z</time>
      </trkpt>
      <trkpt lat="45.33438" lon="6.19522">
        <ele>2258.1999511719</ele>
        <time>2014-03-02T09:57:40.000Z</time>
      </trkpt>
      <trkpt lat="45.33438" lon="6.19522">
        <ele>2258.3999023438</ele>
        <time>2014-03-02T09:57:41.000Z</time>
      </trkpt>
      <trkpt lat="45.33439" lon="6.19522">
        <ele>2258.6000976562</ele>
        <time>2014-03-02T09:57:42.000Z</time>
      </trkpt>
      <trkpt lat="45.33439" lon="6.19522">
        <ele>2258.6000976562</ele>
        <time>2014-03-02T09:57:43.000Z</time>
      </trkpt>
      <trkpt lat="45.33439" lon="6.19522">
        <ele>2258.6000976562</ele>
        <time>2014-03-02T09:57:44.000Z</time>
      </trkpt>
      <trkpt lat="45.33439" lon="6.19522">
        <ele>2258.6000976562</ele>
        <time>2014-03-02T09:57:45.000Z</time>
      </trkpt>
      <trkpt lat="45.33439" lon="6.19522">
        <ele>2258.6000976562</ele>
        <time>2014-03-02T09:57:46.000Z</time>
      </trkpt>
      <trkpt lat="45.33439" lon="6.19522">
        <ele>2258.6000976562</ele>
        <time>2014-03-02T09:57:47.000Z</time>
      </trkpt>
      <trkpt lat="45.33439" lon="6.19522">
        <ele>2258.6000976562</ele>
        <time>2014-03-02T09:57:48.000Z</time>
      </trkpt>
      <trkpt lat="45.33439" lon="6.19522">
        <ele>2258.6000976562</ele>
        <time>2014-03-02T09:57:49.000Z</time>
      </trkpt>
      <trkpt lat="45.33439" lon="6.19522">
        <ele>2258.6000976562</ele>
        <time>2014-03-02T09:57:54.000Z</time>
      </trkpt>
      <trkpt lat="45.33439" lon="6.19522">
        <ele>2258.6000976562</ele>
        <time>2014-03-02T09:57:55.000Z</time>
      </trkpt>
      <trkpt lat="45.33439" lon="6.19522">
        <ele>2258.6000976562</ele>
        <time>2014-03-02T09:57:56.000Z</time>
      </trkpt>
      <trkpt lat="45.33439" lon="6.19522">
        <ele>2258.6000976562</ele>
        <time>2014-03-02T09:57:57.000Z</time>
      </trkpt>
      <trkpt lat="45.33439" lon="6.19522">
        <ele>2258.6000976562</ele>
        <time>2014-03-02T09:57:58.000Z</time>
      </trkpt>
      <trkpt lat="45.33439" lon="6.19522">
        <ele>2258.6000976562</ele>
        <time>2014-03-02T09:57:59.000Z</time>
      </trkpt>
      <trkpt lat="45.33439" lon="6.19522">
        <ele>2258.6000976562</ele>
        <time>2014-03-02T09:58:00.000Z</time>
      </trkpt>
      <trkpt lat="45.33439" lon="6.19522">
        <ele>2258.6000976562</ele>
        <time>2014-03-02T09:58:01.000Z</time>
      </trkpt>
      <trkpt lat="45.33439" lon="6.19522">
        <ele>2258.6000976562</ele>
        <time>2014-03-02T09:58:02.000Z</time>
      </trkpt>
      <trkpt lat="45.33439" lon="6.19522">
        <ele>2258.6000976562</ele>
        <time>2014-03-02T09:58:03.000Z</time>
      </trkpt>
      <trkpt lat="45.33439" lon="6.19522">
        <ele>2258.6000976562</ele>
        <time>2014-03-02T09:58:04.000Z</time>
      </trkpt>
      <trkpt lat="45.33439" lon="6.19522">
        <ele>2258.6000976562</ele>
        <time>2014-03-02T09:58:05.000Z</time>
      </trkpt>
      <trkpt lat="45.33439" lon="6.19522">
        <ele>2258.6000976562</ele>
        <time>2014-03-02T09:58:06.000Z</time>
      </trkpt>
      <trkpt lat="45.33439" lon="6.19522">
        <ele>2258.6000976562</ele>
        <time>2014-03-02T09:58:07.000Z</time>
      </trkpt>
      <trkpt lat="45.33439" lon="6.19522">
        <ele>2258.6000976562</ele>
        <time>2014-03-02T09:58:09.000Z</time>
      </trkpt>
      <trkpt lat="45.33439" lon="6.19522">
        <ele>2258.6000976562</ele>
        <time>2014-03-02T09:58:10.000Z</time>
      </trkpt>
      <trkpt lat="45.33439" lon="6.19522">
        <ele>2258.6000976562</ele>
        <time>2014-03-02T09:58:12.000Z</time>
      </trkpt>
      <trkpt lat="45.33439" lon="6.19522">
        <ele>2258.6000976562</ele>
        <time>2014-03-02T09:58:13.000Z</time>
      </trkpt>
      <trkpt lat="45.33439" lon="6.19522">
        <ele>2258.6000976562</ele>
        <time>2014-03-02T09:58:14.000Z</time>
      </trkpt>
      <trkpt lat="45.33439" lon="6.19522">
        <ele>2258.6000976562</ele>
        <time>2014-03-02T09:58:15.000Z</time>
      </trkpt>
      <trkpt lat="45.33439" lon="6.19522">
        <ele>2258.6000976562</ele>
        <time>2014-03-02T09:58:16.000Z</time>
      </trkpt>
      <trkpt lat="45.33439" lon="6.19522">
        <ele>2258.6000976562</ele>
        <time>2014-03-02T09:58:19.000Z</time>
      </trkpt>
      <trkpt lat="45.33439" lon="6.19522">
        <ele>2258.6000976562</ele>
        <time>2014-03-02T09:58:20.000Z</time>
      </trkpt>
      <trkpt lat="45.33439" lon="6.19522">
        <ele>2258.6000976562</ele>
        <time>2014-03-02T09:58:21.000Z</time>
      </trkpt>
      <trkpt lat="45.33439" lon="6.19521">
        <ele>2258.8000488281</ele>
        <time>2014-03-02T09:58:22.000Z</time>
      </trkpt>
      <trkpt lat="45.33439" lon="6.19521">
        <ele>2258.8000488281</ele>
        <time>2014-03-02T09:58:23.000Z</time>
      </trkpt>
      <trkpt lat="45.33439" lon="6.19521">
        <ele>2258.8000488281</ele>
        <time>2014-03-02T09:58:24.000Z</time>
      </trkpt>
      <trkpt lat="45.33439" lon="6.19521">
        <ele>2258.8000488281</ele>
        <time>2014-03-02T09:58:25.000Z</time>
      </trkpt>
      <trkpt lat="45.33439" lon="6.19521">
        <ele>2258.8000488281</ele>
        <time>2014-03-02T09:58:26.000Z</time>
      </trkpt>
      <trkpt lat="45.33439" lon="6.19521">
        <ele>2258.8000488281</ele>
        <time>2014-03-02T09:58:27.000Z</time>
      </trkpt>
      <trkpt lat="45.33439" lon="6.19521">
        <ele>2258.8000488281</ele>
        <time>2014-03-02T09:58:30.000Z</time>
      </trkpt>
      <trkpt lat="45.33439" lon="6.19521">
        <ele>2258.8000488281</ele>
        <time>2014-03-02T09:58:32.000Z</time>
      </trkpt>
      <trkpt lat="45.33439" lon="6.19521">
        <ele>2258.8000488281</ele>
        <time>2014-03-02T09:58:33.000Z</time>
      </trkpt>
      <trkpt lat="45.33439" lon="6.19521">
        <ele>2258.8000488281</ele>
        <time>2014-03-02T09:58:37.000Z</time>
      </trkpt>
      <trkpt lat="45.33439" lon="6.19521">
        <ele>2258.8000488281</ele>
        <time>2014-03-02T09:58:39.000Z</time>
      </trkpt>
      <trkpt lat="45.33439" lon="6.19521">
        <ele>2258.8000488281</ele>
        <time>2014-03-02T09:58:40.000Z</time>
      </trkpt>
      <trkpt lat="45.33439" lon="6.19521">
        <ele>2258.8000488281</ele>
        <time>2014-03-02T09:58:41.000Z</time>
      </trkpt>
      <trkpt lat="45.33439" lon="6.19521">
        <ele>2258.8000488281</ele>
        <time>2014-03-02T09:58:42.000Z</time>
      </trkpt>
      <trkpt lat="45.33439" lon="6.19521">
        <ele>2258.8000488281</ele>
        <time>2014-03-02T09:58:43.000Z</time>
      </trkpt>
      <trkpt lat="45.33439" lon="6.19521">
        <ele>2258.8000488281</ele>
        <time>2014-03-02T09:58:44.000Z</time>
      </trkpt>
      <trkpt lat="45.33439" lon="6.19521">
        <ele>2258.8000488281</ele>
        <time>2014-03-02T09:58:45.000Z</time>
      </trkpt>
      <trkpt lat="45.33439" lon="6.19521">
        <ele>2258.8000488281</ele>
        <time>2014-03-02T09:58:46.000Z</time>
      </trkpt>
      <trkpt lat="45.33439" lon="6.19521">
        <ele>2258.8000488281</ele>
        <time>2014-03-02T09:58:47.000Z</time>
      </trkpt>
      <trkpt lat="45.3344" lon="6.19523">
        <ele>2259</ele>
        <time>2014-03-02T09:58:48.000Z</time>
      </trkpt>
      <trkpt lat="45.3344" lon="6.19523">
        <ele>2259</ele>
        <time>2014-03-02T09:58:49.000Z</time>
      </trkpt>
      <trkpt lat="45.3344" lon="6.19522">
        <ele>2259.3999023438</ele>
        <time>2014-03-02T09:58:50.000Z</time>
      </trkpt>
      <trkpt lat="45.33441" lon="6.19523">
        <ele>2259.6000976562</ele>
        <time>2014-03-02T09:58:51.000Z</time>
      </trkpt>
      <trkpt lat="45.33442" lon="6.19524">
        <ele>2260</ele>
        <time>2014-03-02T09:58:52.000Z</time>
      </trkpt>
      <trkpt lat="45.33443" lon="6.19524">
        <ele>2260.3999023438</ele>
        <time>2014-03-02T09:58:53.000Z</time>
      </trkpt>
      <trkpt lat="45.33444" lon="6.19526">
        <ele>2260.8000488281</ele>
        <time>2014-03-02T09:58:54.000Z</time>
      </trkpt>
      <trkpt lat="45.33445" lon="6.19526">
        <ele>2261.1999511719</ele>
        <time>2014-03-02T09:58:55.000Z</time>
      </trkpt>
      <trkpt lat="45.33446" lon="6.19527">
        <ele>2261.3999023438</ele>
        <time>2014-03-02T09:58:56.000Z</time>
      </trkpt>
      <trkpt lat="45.33446" lon="6.19527">
        <ele>2261.6000976562</ele>
        <time>2014-03-02T09:58:57.000Z</time>
      </trkpt>
      <trkpt lat="45.33446" lon="6.19527">
        <ele>2261.8000488281</ele>
        <time>2014-03-02T09:58:58.000Z</time>
      </trkpt>
      <trkpt lat="45.33447" lon="6.19527">
        <ele>2262</ele>
        <time>2014-03-02T09:58:59.000Z</time>
      </trkpt>
      <trkpt lat="45.33448" lon="6.19527">
        <ele>2262.3999023438</ele>
        <time>2014-03-02T09:59:00.000Z</time>
      </trkpt>
      <trkpt lat="45.33448" lon="6.19528">
        <ele>2262.6000976562</ele>
        <time>2014-03-02T09:59:01.000Z</time>
      </trkpt>
      <trkpt lat="45.33449" lon="6.19528">
        <ele>2263</ele>
        <time>2014-03-02T09:59:02.000Z</time>
      </trkpt>
      <trkpt lat="45.3345" lon="6.19528">
        <ele>2263.1999511719</ele>
        <time>2014-03-02T09:59:03.000Z</time>
      </trkpt>
      <trkpt lat="45.3345" lon="6.1953">
        <ele>2263.3999023438</ele>
        <time>2014-03-02T09:59:04.000Z</time>
      </trkpt>
      <trkpt lat="45.33451" lon="6.19531">
        <ele>2263.6000976562</ele>
        <time>2014-03-02T09:59:05.000Z</time>
      </trkpt>
      <trkpt lat="45.33452" lon="6.19532">
        <ele>2264</ele>
        <time>2014-03-02T09:59:06.000Z</time>
      </trkpt>
      <trkpt lat="45.33452" lon="6.19532">
        <ele>2264.1999511719</ele>
        <time>2014-03-02T09:59:07.000Z</time>
      </trkpt>
      <trkpt lat="45.33453" lon="6.19532">
        <ele>2264.8000488281</ele>
        <time>2014-03-02T09:59:08.000Z</time>
      </trkpt>
      <trkpt lat="45.33454" lon="6.19533">
        <ele>2265.1999511719</ele>
        <time>2014-03-02T09:59:09.000Z</time>
      </trkpt>
      <trkpt lat="45.33455" lon="6.19534">
        <ele>2265.1999511719</ele>
        <time>2014-03-02T09:59:10.000Z</time>
      </trkpt>
      <trkpt lat="45.33455" lon="6.19534">
        <ele>2265.3999023438</ele>
        <time>2014-03-02T09:59:11.000Z</time>
      </trkpt>
      <trkpt lat="45.33455" lon="6.19535">
        <ele>2265.3999023438</ele>
        <time>2014-03-02T09:59:12.000Z</time>
      </trkpt>
      <trkpt lat="45.33456" lon="6.19536">
        <ele>2265.6000976562</ele>
        <time>2014-03-02T09:59:13.000Z</time>
      </trkpt>
      <trkpt lat="45.33456" lon="6.19537">
        <ele>2265.8000488281</ele>
        <time>2014-03-02T09:59:14.000Z</time>
      </trkpt>
      <trkpt lat="45.33456" lon="6.19537">
        <ele>2266</ele>
        <time>2014-03-02T09:59:15.000Z</time>
      </trkpt>
      <trkpt lat="45.33457" lon="6.19538">
        <ele>2266.1999511719</ele>
        <time>2014-03-02T09:59:16.000Z</time>
      </trkpt>
      <trkpt lat="45.33457" lon="6.19538">
        <ele>2266</ele>
        <time>2014-03-02T09:59:17.000Z</time>
      </trkpt>
      <trkpt lat="45.33457" lon="6.19538">
        <ele>2266.1999511719</ele>
        <time>2014-03-02T09:59:18.000Z</time>
      </trkpt>
      <trkpt lat="45.33458" lon="6.19539">
        <ele>2266.3999023438</ele>
        <time>2014-03-02T09:59:19.000Z</time>
      </trkpt>
      <trkpt lat="45.33458" lon="6.1954">
        <ele>2266.8000488281</ele>
        <time>2014-03-02T09:59:20.000Z</time>
      </trkpt>
      <trkpt lat="45.33459" lon="6.19541">
        <ele>2266.8000488281</ele>
        <time>2014-03-02T09:59:21.000Z</time>
      </trkpt>
      <trkpt lat="45.33459" lon="6.19541">
        <ele>2266.8000488281</ele>
        <time>2014-03-02T09:59:22.000Z</time>
      </trkpt>
      <trkpt lat="45.33459" lon="6.19541">
        <ele>2267</ele>
        <time>2014-03-02T09:59:23.000Z</time>
      </trkpt>
      <trkpt lat="45.3346" lon="6.19542">
        <ele>2267.1999511719</ele>
        <time>2014-03-02T09:59:24.000Z</time>
      </trkpt>
      <trkpt lat="45.3346" lon="6.19542">
        <ele>2267.1999511719</ele>
        <time>2014-03-02T09:59:25.000Z</time>
      </trkpt>
      <trkpt lat="45.33461" lon="6.19543">
        <ele>2267.6000976562</ele>
        <time>2014-03-02T09:59:26.000Z</time>
      </trkpt>
      <trkpt lat="45.33461" lon="6.19544">
        <ele>2267.6000976562</ele>
        <time>2014-03-02T09:59:27.000Z</time>
      </trkpt>
      <trkpt lat="45.33461" lon="6.19545">
        <ele>2267.6000976562</ele>
        <time>2014-03-02T09:59:28.000Z</time>
      </trkpt>
      <trkpt lat="45.33461" lon="6.19545">
        <ele>2267.6000976562</ele>
        <time>2014-03-02T09:59:29.000Z</time>
      </trkpt>
      <trkpt lat="45.33461" lon="6.19545">
        <ele>2267.8000488281</ele>
        <time>2014-03-02T09:59:30.000Z</time>
      </trkpt>
      <trkpt lat="45.33462" lon="6.19545">
        <ele>2268</ele>
        <time>2014-03-02T09:59:31.000Z</time>
      </trkpt>
      <trkpt lat="45.33463" lon="6.19546">
        <ele>2268.3999023438</ele>
        <time>2014-03-02T09:59:32.000Z</time>
      </trkpt>
      <trkpt lat="45.33463" lon="6.19546">
        <ele>2268.6000976562</ele>
        <time>2014-03-02T09:59:33.000Z</time>
      </trkpt>
      <trkpt lat="45.33464" lon="6.19547">
        <ele>2268.8000488281</ele>
        <time>2014-03-02T09:59:34.000Z</time>
      </trkpt>
      <trkpt lat="45.33464" lon="6.19547">
        <ele>2268.8000488281</ele>
        <time>2014-03-02T09:59:35.000Z</time>
      </trkpt>
      <trkpt lat="45.33464" lon="6.19548">
        <ele>2268.8000488281</ele>
        <time>2014-03-02T09:59:36.000Z</time>
      </trkpt>
      <trkpt lat="45.33464" lon="6.19548">
        <ele>2269</ele>
        <time>2014-03-02T09:59:37.000Z</time>
      </trkpt>
      <trkpt lat="45.33464" lon="6.19549">
        <ele>2269</ele>
        <time>2014-03-02T09:59:38.000Z</time>
      </trkpt>
      <trkpt lat="45.33465" lon="6.1955">
        <ele>2269</ele>
        <time>2014-03-02T09:59:39.000Z</time>
      </trkpt>
      <trkpt lat="45.33465" lon="6.1955">
        <ele>2269.1999511719</ele>
        <time>2014-03-02T09:59:40.000Z</time>
      </trkpt>
      <trkpt lat="45.33465" lon="6.19551">
        <ele>2269.1999511719</ele>
        <time>2014-03-02T09:59:41.000Z</time>
      </trkpt>
      <trkpt lat="45.33465" lon="6.19551">
        <ele>2269.1999511719</ele>
        <time>2014-03-02T09:59:42.000Z</time>
      </trkpt>
      <trkpt lat="45.33465" lon="6.19551">
        <ele>2269.1999511719</ele>
        <time>2014-03-02T09:59:43.000Z</time>
      </trkpt>
      <trkpt lat="45.33465" lon="6.19551">
        <ele>2269.1999511719</ele>
        <time>2014-03-02T09:59:44.000Z</time>
      </trkpt>
      <trkpt lat="45.33465" lon="6.19551">
        <ele>2269.1999511719</ele>
        <time>2014-03-02T09:59:45.000Z</time>
      </trkpt>
      <trkpt lat="45.33465" lon="6.19551">
        <ele>2269.1999511719</ele>
        <time>2014-03-02T09:59:46.000Z</time>
      </trkpt>
      <trkpt lat="45.33465" lon="6.19551">
        <ele>2269.1999511719</ele>
        <time>2014-03-02T09:59:47.000Z</time>
      </trkpt>
      <trkpt lat="45.33465" lon="6.19551">
        <ele>2269.1999511719</ele>
        <time>2014-03-02T09:59:48.000Z</time>
      </trkpt>
      <trkpt lat="45.33466" lon="6.19552">
        <ele>2269.6000976562</ele>
        <time>2014-03-02T09:59:49.000Z</time>
      </trkpt>
      <trkpt lat="45.33467" lon="6.19553">
        <ele>2270.1999511719</ele>
        <time>2014-03-02T09:59:50.000Z</time>
      </trkpt>
      <trkpt lat="45.33468" lon="6.19554">
        <ele>2270.6000976562</ele>
        <time>2014-03-02T09:59:51.000Z</time>
      </trkpt>
      <trkpt lat="45.33468" lon="6.19554">
        <ele>2270.6000976562</ele>
        <time>2014-03-02T09:59:52.000Z</time>
      </trkpt>
      <trkpt lat="45.33468" lon="6.19554">
        <ele>2270.6000976562</ele>
        <time>2014-03-02T09:59:53.000Z</time>
      </trkpt>
      <trkpt lat="45.33468" lon="6.19554">
        <ele>2270.6000976562</ele>
        <time>2014-03-02T09:59:54.000Z</time>
      </trkpt>
      <trkpt lat="45.33468" lon="6.19554">
        <ele>2270.6000976562</ele>
        <time>2014-03-02T09:59:55.000Z</time>
      </trkpt>
      <trkpt lat="45.33468" lon="6.19554">
        <ele>2270.6000976562</ele>
        <time>2014-03-02T09:59:56.000Z</time>
      </trkpt>
      <trkpt lat="45.33468" lon="6.19554">
        <ele>2270.6000976562</ele>
        <time>2014-03-02T09:59:58.000Z</time>
      </trkpt>
      <trkpt lat="45.33468" lon="6.19554">
        <ele>2270.6000976562</ele>
        <time>2014-03-02T09:59:59.000Z</time>
      </trkpt>
      <trkpt lat="45.33468" lon="6.19554">
        <ele>2270.6000976562</ele>
        <time>2014-03-02T10:00:00.000Z</time>
      </trkpt>
      <trkpt lat="45.33468" lon="6.19554">
        <ele>2270.6000976562</ele>
        <time>2014-03-02T10:00:01.000Z</time>
      </trkpt>
      <trkpt lat="45.33468" lon="6.19554">
        <ele>2270.6000976562</ele>
        <time>2014-03-02T10:00:02.000Z</time>
      </trkpt>
      <trkpt lat="45.33468" lon="6.19554">
        <ele>2270.6000976562</ele>
        <time>2014-03-02T10:00:06.000Z</time>
      </trkpt>
      <trkpt lat="45.33468" lon="6.19554">
        <ele>2270.8000488281</ele>
        <time>2014-03-02T10:00:07.000Z</time>
      </trkpt>
      <trkpt lat="45.33468" lon="6.19554">
        <ele>2270.8000488281</ele>
        <time>2014-03-02T10:00:08.000Z</time>
      </trkpt>
      <trkpt lat="45.33468" lon="6.19554">
        <ele>2270.8000488281</ele>
        <time>2014-03-02T10:00:09.000Z</time>
      </trkpt>
      <trkpt lat="45.33468" lon="6.19554">
        <ele>2270.8000488281</ele>
        <time>2014-03-02T10:00:11.000Z</time>
      </trkpt>
      <trkpt lat="45.33468" lon="6.19554">
        <ele>2270.8000488281</ele>
        <time>2014-03-02T10:00:12.000Z</time>
      </trkpt>
      <trkpt lat="45.33468" lon="6.19554">
        <ele>2270.8000488281</ele>
        <time>2014-03-02T10:00:13.000Z</time>
      </trkpt>
      <trkpt lat="45.33468" lon="6.19554">
        <ele>2270.8000488281</ele>
        <time>2014-03-02T10:00:14.000Z</time>
      </trkpt>
      <trkpt lat="45.33468" lon="6.19554">
        <ele>2270.8000488281</ele>
        <time>2014-03-02T10:00:15.000Z</time>
      </trkpt>
      <trkpt lat="45.33468" lon="6.19554">
        <ele>2270.8000488281</ele>
        <time>2014-03-02T10:00:16.000Z</time>
      </trkpt>
      <trkpt lat="45.33468" lon="6.19554">
        <ele>2270.8000488281</ele>
        <time>2014-03-02T10:00:17.000Z</time>
      </trkpt>
      <trkpt lat="45.33468" lon="6.19554">
        <ele>2270.8000488281</ele>
        <time>2014-03-02T10:00:18.000Z</time>
      </trkpt>
      <trkpt lat="45.33468" lon="6.19554">
        <ele>2270.8000488281</ele>
        <time>2014-03-02T10:00:19.000Z</time>
      </trkpt>
      <trkpt lat="45.33468" lon="6.19554">
        <ele>2270.8000488281</ele>
        <time>2014-03-02T10:00:20.000Z</time>
      </trkpt>
      <trkpt lat="45.33468" lon="6.19554">
        <ele>2270.8000488281</ele>
        <time>2014-03-02T10:00:22.000Z</time>
      </trkpt>
      <trkpt lat="45.33468" lon="6.19554">
        <ele>2270.8000488281</ele>
        <time>2014-03-02T10:00:23.000Z</time>
      </trkpt>
      <trkpt lat="45.33468" lon="6.19554">
        <ele>2270.8000488281</ele>
        <time>2014-03-02T10:00:24.000Z</time>
      </trkpt>
      <trkpt lat="45.33468" lon="6.19554">
        <ele>2270.8000488281</ele>
        <time>2014-03-02T10:00:25.000Z</time>
      </trkpt>
      <trkpt lat="45.33468" lon="6.19554">
        <ele>2270.8000488281</ele>
        <time>2014-03-02T10:00:26.000Z</time>
      </trkpt>
      <trkpt lat="45.33468" lon="6.19554">
        <ele>2270.8000488281</ele>
        <time>2014-03-02T10:00:27.000Z</time>
      </trkpt>
      <trkpt lat="45.33468" lon="6.19553">
        <ele>2270.6000976562</ele>
        <time>2014-03-02T10:00:28.000Z</time>
      </trkpt>
      <trkpt lat="45.33468" lon="6.19553">
        <ele>2270.6000976562</ele>
        <time>2014-03-02T10:00:29.000Z</time>
      </trkpt>
      <trkpt lat="45.33468" lon="6.19552">
        <ele>2270.6000976562</ele>
        <time>2014-03-02T10:00:30.000Z</time>
      </trkpt>
      <trkpt lat="45.33468" lon="6.19552">
        <ele>2270.6000976562</ele>
        <time>2014-03-02T10:00:31.000Z</time>
      </trkpt>
      <trkpt lat="45.33467" lon="6.19551">
        <ele>2270.6000976562</ele>
        <time>2014-03-02T10:00:32.000Z</time>
      </trkpt>
      <trkpt lat="45.33467" lon="6.19551">
        <ele>2270.6000976562</ele>
        <time>2014-03-02T10:00:33.000Z</time>
      </trkpt>
      <trkpt lat="45.33467" lon="6.1955">
        <ele>2270.6000976562</ele>
        <time>2014-03-02T10:00:34.000Z</time>
      </trkpt>
      <trkpt lat="45.33467" lon="6.19549">
        <ele>2270.6000976562</ele>
        <time>2014-03-02T10:00:35.000Z</time>
      </trkpt>
      <trkpt lat="45.33467" lon="6.19548">
        <ele>2270.8000488281</ele>
        <time>2014-03-02T10:00:36.000Z</time>
      </trkpt>
      <trkpt lat="45.33467" lon="6.19548">
        <ele>2270.8000488281</ele>
        <time>2014-03-02T10:00:37.000Z</time>
      </trkpt>
      <trkpt lat="45.33467" lon="6.19547">
        <ele>2270.8000488281</ele>
        <time>2014-03-02T10:00:38.000Z</time>
      </trkpt>
      <trkpt lat="45.33467" lon="6.19547">
        <ele>2270.8000488281</ele>
        <time>2014-03-02T10:00:39.000Z</time>
      </trkpt>
      <trkpt lat="45.33467" lon="6.19546">
        <ele>2270.6000976562</ele>
        <time>2014-03-02T10:00:40.000Z</time>
      </trkpt>
      <trkpt lat="45.33467" lon="6.19545">
        <ele>2270.6000976562</ele>
        <time>2014-03-02T10:00:41.000Z</time>
      </trkpt>
      <trkpt lat="45.33467" lon="6.19545">
        <ele>2270.6000976562</ele>
        <time>2014-03-02T10:00:42.000Z</time>
      </trkpt>
      <trkpt lat="45.33467" lon="6.19544">
        <ele>2270.6000976562</ele>
        <time>2014-03-02T10:00:43.000Z</time>
      </trkpt>
      <trkpt lat="45.33467" lon="6.19544">
        <ele>2270.6000976562</ele>
        <time>2014-03-02T10:00:44.000Z</time>
      </trkpt>
      <trkpt lat="45.33467" lon="6.19543">
        <ele>2271</ele>
        <time>2014-03-02T10:00:45.000Z</time>
      </trkpt>
      <trkpt lat="45.33467" lon="6.19543">
        <ele>2271</ele>
        <time>2014-03-02T10:00:46.000Z</time>
      </trkpt>
      <trkpt lat="45.33467" lon="6.19542">
        <ele>2271</ele>
        <time>2014-03-02T10:00:47.000Z</time>
      </trkpt>
      <trkpt lat="45.33467" lon="6.19542">
        <ele>2271</ele>
        <time>2014-03-02T10:00:48.000Z</time>
      </trkpt>
      <trkpt lat="45.33467" lon="6.19541">
        <ele>2271</ele>
        <time>2014-03-02T10:00:49.000Z</time>
      </trkpt>
      <trkpt lat="45.33467" lon="6.1954">
        <ele>2271</ele>
        <time>2014-03-02T10:00:50.000Z</time>
      </trkpt>
      <trkpt lat="45.33467" lon="6.19539">
        <ele>2271</ele>
        <time>2014-03-02T10:00:51.000Z</time>
      </trkpt>
      <trkpt lat="45.33467" lon="6.19537">
        <ele>2271</ele>
        <time>2014-03-02T10:00:52.000Z</time>
      </trkpt>
      <trkpt lat="45.33467" lon="6.19536">
        <ele>2271</ele>
        <time>2014-03-02T10:00:53.000Z</time>
      </trkpt>
      <trkpt lat="45.33466" lon="6.19536">
        <ele>2271</ele>
        <time>2014-03-02T10:00:54.000Z</time>
      </trkpt>
      <trkpt lat="45.33466" lon="6.19536">
        <ele>2271</ele>
        <time>2014-03-02T10:00:55.000Z</time>
      </trkpt>
      <trkpt lat="45.33466" lon="6.19535">
        <ele>2270.8000488281</ele>
        <time>2014-03-02T10:00:56.000Z</time>
      </trkpt>
      <trkpt lat="45.33466" lon="6.19535">
        <ele>2270.8000488281</ele>
        <time>2014-03-02T10:00:57.000Z</time>
      </trkpt>
      <trkpt lat="45.33466" lon="6.19534">
        <ele>2270.8000488281</ele>
        <time>2014-03-02T10:00:58.000Z</time>
      </trkpt>
      <trkpt lat="45.33466" lon="6.19534">
        <ele>2270.8000488281</ele>
        <time>2014-03-02T10:00:59.000Z</time>
      </trkpt>
      <trkpt lat="45.33466" lon="6.19533">
        <ele>2271</ele>
        <time>2014-03-02T10:01:00.000Z</time>
      </trkpt>
      <trkpt lat="45.33466" lon="6.19532">
        <ele>2271.1999511719</ele>
        <time>2014-03-02T10:01:01.000Z</time>
      </trkpt>
      <trkpt lat="45.33466" lon="6.19532">
        <ele>2271.1999511719</ele>
        <time>2014-03-02T10:01:02.000Z</time>
      </trkpt>
      <trkpt lat="45.33466" lon="6.19531">
        <ele>2271.1999511719</ele>
        <time>2014-03-02T10:01:03.000Z</time>
      </trkpt>
      <trkpt lat="45.33466" lon="6.19531">
        <ele>2271.1999511719</ele>
        <time>2014-03-02T10:01:04.000Z</time>
      </trkpt>
      <trkpt lat="45.33466" lon="6.1953">
        <ele>2271</ele>
        <time>2014-03-02T10:01:05.000Z</time>
      </trkpt>
      <trkpt lat="45.33466" lon="6.1953">
        <ele>2271</ele>
        <time>2014-03-02T10:01:06.000Z</time>
      </trkpt>
      <trkpt lat="45.33466" lon="6.19529">
        <ele>2271</ele>
        <time>2014-03-02T10:01:07.000Z</time>
      </trkpt>
      <trkpt lat="45.33466" lon="6.19529">
        <ele>2271</ele>
        <time>2014-03-02T10:01:08.000Z</time>
      </trkpt>
      <trkpt lat="45.33466" lon="6.19528">
        <ele>2271</ele>
        <time>2014-03-02T10:01:09.000Z</time>
      </trkpt>
      <trkpt lat="45.33466" lon="6.19528">
        <ele>2271</ele>
        <time>2014-03-02T10:01:10.000Z</time>
      </trkpt>
      <trkpt lat="45.33466" lon="6.19527">
        <ele>2271.1999511719</ele>
        <time>2014-03-02T10:01:11.000Z</time>
      </trkpt>
      <trkpt lat="45.33466" lon="6.19526">
        <ele>2271.3999023438</ele>
        <time>2014-03-02T10:01:12.000Z</time>
      </trkpt>
      <trkpt lat="45.33466" lon="6.19525">
        <ele>2271.3999023438</ele>
        <time>2014-03-02T10:01:13.000Z</time>
      </trkpt>
      <trkpt lat="45.33466" lon="6.19524">
        <ele>2271.6000976562</ele>
        <time>2014-03-02T10:01:14.000Z</time>
      </trkpt>
      <trkpt lat="45.33466" lon="6.19523">
        <ele>2271.3999023438</ele>
        <time>2014-03-02T10:01:15.000Z</time>
      </trkpt>
      <trkpt lat="45.33466" lon="6.19522">
        <ele>2271.1999511719</ele>
        <time>2014-03-02T10:01:16.000Z</time>
      </trkpt>
      <trkpt lat="45.33466" lon="6.19522">
        <ele>2271.1999511719</ele>
        <time>2014-03-02T10:01:17.000Z</time>
      </trkpt>
      <trkpt lat="45.33465" lon="6.19521">
        <ele>2271.1999511719</ele>
        <time>2014-03-02T10:01:18.000Z</time>
      </trkpt>
      <trkpt lat="45.33465" lon="6.19521">
        <ele>2271.1999511719</ele>
        <time>2014-03-02T10:01:19.000Z</time>
      </trkpt>
      <trkpt lat="45.33465" lon="6.1952">
        <ele>2271</ele>
        <time>2014-03-02T10:01:20.000Z</time>
      </trkpt>
      <trkpt lat="45.33464" lon="6.19519">
        <ele>2270.8000488281</ele>
        <time>2014-03-02T10:01:21.000Z</time>
      </trkpt>
      <trkpt lat="45.33464" lon="6.19518">
        <ele>2270.8000488281</ele>
        <time>2014-03-02T10:01:22.000Z</time>
      </trkpt>
      <trkpt lat="45.33464" lon="6.19517">
        <ele>2270.8000488281</ele>
        <time>2014-03-02T10:01:23.000Z</time>
      </trkpt>
      <trkpt lat="45.33464" lon="6.19517">
        <ele>2270.8000488281</ele>
        <time>2014-03-02T10:01:24.000Z</time>
      </trkpt>
      <trkpt lat="45.33464" lon="6.19516">
        <ele>2270.8000488281</ele>
        <time>2014-03-02T10:01:25.000Z</time>
      </trkpt>
      <trkpt lat="45.33464" lon="6.19516">
        <ele>2270.8000488281</ele>
        <time>2014-03-02T10:01:26.000Z</time>
      </trkpt>
      <trkpt lat="45.33464" lon="6.19516">
        <ele>2270.8000488281</ele>
        <time>2014-03-02T10:01:27.000Z</time>
      </trkpt>
      <trkpt lat="45.33464" lon="6.19516">
        <ele>2270.8000488281</ele>
        <time>2014-03-02T10:01:28.000Z</time>
      </trkpt>
      <trkpt lat="45.33464" lon="6.19516">
        <ele>2270.8000488281</ele>
        <time>2014-03-02T10:01:29.000Z</time>
      </trkpt>
      <trkpt lat="45.33464" lon="6.19516">
        <ele>2270.8000488281</ele>
        <time>2014-03-02T10:01:30.000Z</time>
      </trkpt>
      <trkpt lat="45.33464" lon="6.19516">
        <ele>2270.8000488281</ele>
        <time>2014-03-02T10:01:31.000Z</time>
      </trkpt>
      <trkpt lat="45.33464" lon="6.19516">
        <ele>2270.8000488281</ele>
        <time>2014-03-02T10:01:32.000Z</time>
      </trkpt>
      <trkpt lat="45.33464" lon="6.19516">
        <ele>2270.8000488281</ele>
        <time>2014-03-02T10:01:33.000Z</time>
      </trkpt>
      <trkpt lat="45.33464" lon="6.19516">
        <ele>2270.8000488281</ele>
        <time>2014-03-02T10:01:35.000Z</time>
      </trkpt>
      <trkpt lat="45.33464" lon="6.19516">
        <ele>2270.8000488281</ele>
        <time>2014-03-02T10:01:36.000Z</time>
      </trkpt>
      <trkpt lat="45.33464" lon="6.19516">
        <ele>2270.8000488281</ele>
        <time>2014-03-02T10:01:38.000Z</time>
      </trkpt>
      <trkpt lat="45.33464" lon="6.19516">
        <ele>2270.8000488281</ele>
        <time>2014-03-02T10:01:40.000Z</time>
      </trkpt>
      <trkpt lat="45.33464" lon="6.19516">
        <ele>2270.8000488281</ele>
        <time>2014-03-02T10:01:41.000Z</time>
      </trkpt>
      <trkpt lat="45.33464" lon="6.19516">
        <ele>2270.8000488281</ele>
        <time>2014-03-02T10:01:43.000Z</time>
      </trkpt>
      <trkpt lat="45.33464" lon="6.19515">
        <ele>2270.6000976562</ele>
        <time>2014-03-02T10:01:44.000Z</time>
      </trkpt>
      <trkpt lat="45.33463" lon="6.19514">
        <ele>2270.6000976562</ele>
        <time>2014-03-02T10:01:45.000Z</time>
      </trkpt>
      <trkpt lat="45.33463" lon="6.19512">
        <ele>2270.6000976562</ele>
        <time>2014-03-02T10:01:46.000Z</time>
      </trkpt>
      <trkpt lat="45.33463" lon="6.19511">
        <ele>2270.3999023438</ele>
        <time>2014-03-02T10:01:47.000Z</time>
      </trkpt>
      <trkpt lat="45.33462" lon="6.19509">
        <ele>2270.3999023438</ele>
        <time>2014-03-02T10:01:48.000Z</time>
      </trkpt>
      <trkpt lat="45.33462" lon="6.19508">
        <ele>2270.1999511719</ele>
        <time>2014-03-02T10:01:49.000Z</time>
      </trkpt>
      <trkpt lat="45.33462" lon="6.19507">
        <ele>2270.1999511719</ele>
        <time>2014-03-02T10:01:50.000Z</time>
      </trkpt>
      <trkpt lat="45.33462" lon="6.19506">
        <ele>2270.1999511719</ele>
        <time>2014-03-02T10:01:51.000Z</time>
      </trkpt>
      <trkpt lat="45.33462" lon="6.19506">
        <ele>2270.1999511719</ele>
        <time>2014-03-02T10:01:52.000Z</time>
      </trkpt>
      <trkpt lat="45.33461" lon="6.19506">
        <ele>2270.1999511719</ele>
        <time>2014-03-02T10:01:53.000Z</time>
      </trkpt>
      <trkpt lat="45.33461" lon="6.19506">
        <ele>2270.1999511719</ele>
        <time>2014-03-02T10:01:54.000Z</time>
      </trkpt>
      <trkpt lat="45.33462" lon="6.19505">
        <ele>2270.3999023438</ele>
        <time>2014-03-02T10:01:55.000Z</time>
      </trkpt>
      <trkpt lat="45.33462" lon="6.19505">
        <ele>2270.3999023438</ele>
        <time>2014-03-02T10:01:56.000Z</time>
      </trkpt>
      <trkpt lat="45.33462" lon="6.19505">
        <ele>2270.3999023438</ele>
        <time>2014-03-02T10:01:57.000Z</time>
      </trkpt>
      <trkpt lat="45.33462" lon="6.19505">
        <ele>2270.3999023438</ele>
        <time>2014-03-02T10:01:58.000Z</time>
      </trkpt>
      <trkpt lat="45.33461" lon="6.19504">
        <ele>2270.1999511719</ele>
        <time>2014-03-02T10:01:59.000Z</time>
      </trkpt>
      <trkpt lat="45.33461" lon="6.19504">
        <ele>2270.1999511719</ele>
        <time>2014-03-02T10:02:00.000Z</time>
      </trkpt>
      <trkpt lat="45.33461" lon="6.19502">
        <ele>2270.1999511719</ele>
        <time>2014-03-02T10:02:01.000Z</time>
      </trkpt>
      <trkpt lat="45.33461" lon="6.19501">
        <ele>2270.3999023438</ele>
        <time>2014-03-02T10:02:02.000Z</time>
      </trkpt>
      <trkpt lat="45.33461" lon="6.195">
        <ele>2270.3999023438</ele>
        <time>2014-03-02T10:02:03.000Z</time>
      </trkpt>
      <trkpt lat="45.33461" lon="6.195">
        <ele>2270.3999023438</ele>
        <time>2014-03-02T10:02:04.000Z</time>
      </trkpt>
      <trkpt lat="45.33461" lon="6.195">
        <ele>2270.3999023438</ele>
        <time>2014-03-02T10:02:05.000Z</time>
      </trkpt>
      <trkpt lat="45.33461" lon="6.195">
        <ele>2270.3999023438</ele>
        <time>2014-03-02T10:02:06.000Z</time>
      </trkpt>
      <trkpt lat="45.33461" lon="6.195">
        <ele>2270.3999023438</ele>
        <time>2014-03-02T10:02:07.000Z</time>
      </trkpt>
      <trkpt lat="45.33461" lon="6.195">
        <ele>2270.3999023438</ele>
        <time>2014-03-02T10:02:08.000Z</time>
      </trkpt>
      <trkpt lat="45.33461" lon="6.195">
        <ele>2270.3999023438</ele>
        <time>2014-03-02T10:02:09.000Z</time>
      </trkpt>
      <trkpt lat="45.33461" lon="6.19499">
        <ele>2270.3999023438</ele>
        <time>2014-03-02T10:02:10.000Z</time>
      </trkpt>
      <trkpt lat="45.33461" lon="6.19499">
        <ele>2270.3999023438</ele>
        <time>2014-03-02T10:02:11.000Z</time>
      </trkpt>
      <trkpt lat="45.33461" lon="6.19498">
        <ele>2270.3999023438</ele>
        <time>2014-03-02T10:02:12.000Z</time>
      </trkpt>
      <trkpt lat="45.33461" lon="6.19498">
        <ele>2270.3999023438</ele>
        <time>2014-03-02T10:02:13.000Z</time>
      </trkpt>
      <trkpt lat="45.33461" lon="6.19498">
        <ele>2270.3999023438</ele>
        <time>2014-03-02T10:02:14.000Z</time>
      </trkpt>
      <trkpt lat="45.33461" lon="6.19498">
        <ele>2270.6000976562</ele>
        <time>2014-03-02T10:02:15.000Z</time>
      </trkpt>
      <trkpt lat="45.33461" lon="6.19498">
        <ele>2270.6000976562</ele>
        <time>2014-03-02T10:02:16.000Z</time>
      </trkpt>
      <trkpt lat="45.33461" lon="6.19498">
        <ele>2270.6000976562</ele>
        <time>2014-03-02T10:02:17.000Z</time>
      </trkpt>
      <trkpt lat="45.33461" lon="6.19498">
        <ele>2270.6000976562</ele>
        <time>2014-03-02T10:02:18.000Z</time>
      </trkpt>
      <trkpt lat="45.33461" lon="6.19498">
        <ele>2270.6000976562</ele>
        <time>2014-03-02T10:02:19.000Z</time>
      </trkpt>
      <trkpt lat="45.33461" lon="6.19498">
        <ele>2270.6000976562</ele>
        <time>2014-03-02T10:02:20.000Z</time>
      </trkpt>
      <trkpt lat="45.33461" lon="6.19498">
        <ele>2270.6000976562</ele>
        <time>2014-03-02T10:02:21.000Z</time>
      </trkpt>
      <trkpt lat="45.33461" lon="6.19498">
        <ele>2270.6000976562</ele>
        <time>2014-03-02T10:02:22.000Z</time>
      </trkpt>
      <trkpt lat="45.33461" lon="6.19498">
        <ele>2270.6000976562</ele>
        <time>2014-03-02T10:02:23.000Z</time>
      </trkpt>
      <trkpt lat="45.33462" lon="6.19498">
        <ele>2270.8000488281</ele>
        <time>2014-03-02T10:02:24.000Z</time>
      </trkpt>
      <trkpt lat="45.33462" lon="6.19498">
        <ele>2271</ele>
        <time>2014-03-02T10:02:25.000Z</time>
      </trkpt>
      <trkpt lat="45.33463" lon="6.19498">
        <ele>2271.1999511719</ele>
        <time>2014-03-02T10:02:26.000Z</time>
      </trkpt>
      <trkpt lat="45.33463" lon="6.19498">
        <ele>2271.6000976562</ele>
        <time>2014-03-02T10:02:27.000Z</time>
      </trkpt>
      <trkpt lat="45.33464" lon="6.19498">
        <ele>2272</ele>
        <time>2014-03-02T10:02:28.000Z</time>
      </trkpt>
      <trkpt lat="45.33465" lon="6.19498">
        <ele>2272.6000976562</ele>
        <time>2014-03-02T10:02:29.000Z</time>
      </trkpt>
      <trkpt lat="45.33466" lon="6.19498">
        <ele>2272.8000488281</ele>
        <time>2014-03-02T10:02:30.000Z</time>
      </trkpt>
      <trkpt lat="45.33466" lon="6.19498">
        <ele>2273.1999511719</ele>
        <time>2014-03-02T10:02:31.000Z</time>
      </trkpt>
      <trkpt lat="45.33467" lon="6.19498">
        <ele>2273.6000976562</ele>
        <time>2014-03-02T10:02:32.000Z</time>
      </trkpt>
      <trkpt lat="45.33468" lon="6.19498">
        <ele>2274.1999511719</ele>
        <time>2014-03-02T10:02:33.000Z</time>
      </trkpt>
      <trkpt lat="45.33469" lon="6.19498">
        <ele>2274.8000488281</ele>
        <time>2014-03-02T10:02:34.000Z</time>
      </trkpt>
      <trkpt lat="45.33469" lon="6.19498">
        <ele>2275</ele>
        <time>2014-03-02T10:02:35.000Z</time>
      </trkpt>
      <trkpt lat="45.3347" lon="6.19498">
        <ele>2275</ele>
        <time>2014-03-02T10:02:36.000Z</time>
      </trkpt>
      <trkpt lat="45.3347" lon="6.19499">
        <ele>2275.1999511719</ele>
        <time>2014-03-02T10:02:37.000Z</time>
      </trkpt>
      <trkpt lat="45.3347" lon="6.195">
        <ele>2275.3999023438</ele>
        <time>2014-03-02T10:02:38.000Z</time>
      </trkpt>
      <trkpt lat="45.33471" lon="6.195">
        <ele>2275.3999023438</ele>
        <time>2014-03-02T10:02:39.000Z</time>
      </trkpt>
      <trkpt lat="45.33471" lon="6.19501">
        <ele>2275.8000488281</ele>
        <time>2014-03-02T10:02:40.000Z</time>
      </trkpt>
      <trkpt lat="45.33471" lon="6.19501">
        <ele>2275.8000488281</ele>
        <time>2014-03-02T10:02:41.000Z</time>
      </trkpt>
      <trkpt lat="45.33471" lon="6.19501">
        <ele>2275.8000488281</ele>
        <time>2014-03-02T10:02:42.000Z</time>
      </trkpt>
      <trkpt lat="45.33471" lon="6.19501">
        <ele>2275.8000488281</ele>
        <time>2014-03-02T10:02:43.000Z</time>
      </trkpt>
      <trkpt lat="45.33471" lon="6.19501">
        <ele>2275.8000488281</ele>
        <time>2014-03-02T10:02:44.000Z</time>
      </trkpt>
      <trkpt lat="45.33471" lon="6.19501">
        <ele>2275.8000488281</ele>
        <time>2014-03-02T10:02:45.000Z</time>
      </trkpt>
      <trkpt lat="45.33471" lon="6.19501">
        <ele>2275.8000488281</ele>
        <time>2014-03-02T10:02:47.000Z</time>
      </trkpt>
      <trkpt lat="45.33471" lon="6.19501">
        <ele>2275.8000488281</ele>
        <time>2014-03-02T10:02:49.000Z</time>
      </trkpt>
      <trkpt lat="45.33472" lon="6.19501">
        <ele>2276</ele>
        <time>2014-03-02T10:02:50.000Z</time>
      </trkpt>
      <trkpt lat="45.33472" lon="6.19502">
        <ele>2276.3999023438</ele>
        <time>2014-03-02T10:02:51.000Z</time>
      </trkpt>
      <trkpt lat="45.33473" lon="6.19502">
        <ele>2276.8000488281</ele>
        <time>2014-03-02T10:02:53.000Z</time>
      </trkpt>
      <trkpt lat="45.33473" lon="6.19503">
        <ele>2277</ele>
        <time>2014-03-02T10:02:54.000Z</time>
      </trkpt>
      <trkpt lat="45.33473" lon="6.19503">
        <ele>2277</ele>
        <time>2014-03-02T10:02:55.000Z</time>
      </trkpt>
      <trkpt lat="45.33473" lon="6.19503">
        <ele>2277</ele>
        <time>2014-03-02T10:02:56.000Z</time>
      </trkpt>
      <trkpt lat="45.33474" lon="6.19503">
        <ele>2277.3999023438</ele>
        <time>2014-03-02T10:02:57.000Z</time>
      </trkpt>
      <trkpt lat="45.33474" lon="6.19503">
        <ele>2277.3999023438</ele>
        <time>2014-03-02T10:02:58.000Z</time>
      </trkpt>
      <trkpt lat="45.33475" lon="6.19504">
        <ele>2278</ele>
        <time>2014-03-02T10:02:59.000Z</time>
      </trkpt>
      <trkpt lat="45.33475" lon="6.19504">
        <ele>2278</ele>
        <time>2014-03-02T10:03:00.000Z</time>
      </trkpt>
      <trkpt lat="45.33476" lon="6.19504">
        <ele>2278.6000976562</ele>
        <time>2014-03-02T10:03:01.000Z</time>
      </trkpt>
      <trkpt lat="45.33477" lon="6.19505">
        <ele>2278.8000488281</ele>
        <time>2014-03-02T10:03:02.000Z</time>
      </trkpt>
      <trkpt lat="45.33478" lon="6.19505">
        <ele>2279.1999511719</ele>
        <time>2014-03-02T10:03:03.000Z</time>
      </trkpt>
      <trkpt lat="45.33478" lon="6.19506">
        <ele>2279.6000976562</ele>
        <time>2014-03-02T10:03:04.000Z</time>
      </trkpt>
      <trkpt lat="45.33479" lon="6.19507">
        <ele>2280</ele>
        <time>2014-03-02T10:03:05.000Z</time>
      </trkpt>
      <trkpt lat="45.3348" lon="6.19508">
        <ele>2280.3999023438</ele>
        <time>2014-03-02T10:03:06.000Z</time>
      </trkpt>
      <trkpt lat="45.3348" lon="6.19508">
        <ele>2280.6000976562</ele>
        <time>2014-03-02T10:03:07.000Z</time>
      </trkpt>
      <trkpt lat="45.3348" lon="6.19508">
        <ele>2280.6000976562</ele>
        <time>2014-03-02T10:03:08.000Z</time>
      </trkpt>
      <trkpt lat="45.33481" lon="6.19508">
        <ele>2280.8000488281</ele>
        <time>2014-03-02T10:03:09.000Z</time>
      </trkpt>
      <trkpt lat="45.33481" lon="6.19508">
        <ele>2280.8000488281</ele>
        <time>2014-03-02T10:03:10.000Z</time>
      </trkpt>
      <trkpt lat="45.33481" lon="6.19509">
        <ele>2281</ele>
        <time>2014-03-02T10:03:11.000Z</time>
      </trkpt>
      <trkpt lat="45.33482" lon="6.1951">
        <ele>2281.3999023438</ele>
        <time>2014-03-02T10:03:12.000Z</time>
      </trkpt>
      <trkpt lat="45.33482" lon="6.1951">
        <ele>2281.6000976562</ele>
        <time>2014-03-02T10:03:13.000Z</time>
      </trkpt>
      <trkpt lat="45.33483" lon="6.1951">
        <ele>2282</ele>
        <time>2014-03-02T10:03:14.000Z</time>
      </trkpt>
      <trkpt lat="45.33483" lon="6.19511">
        <ele>2282.1999511719</ele>
        <time>2014-03-02T10:03:15.000Z</time>
      </trkpt>
      <trkpt lat="45.33483" lon="6.19511">
        <ele>2282.1999511719</ele>
        <time>2014-03-02T10:03:16.000Z</time>
      </trkpt>
      <trkpt lat="45.33484" lon="6.19511">
        <ele>2282.3999023438</ele>
        <time>2014-03-02T10:03:17.000Z</time>
      </trkpt>
      <trkpt lat="45.33484" lon="6.19511">
        <ele>2282.3999023438</ele>
        <time>2014-03-02T10:03:18.000Z</time>
      </trkpt>
      <trkpt lat="45.33484" lon="6.19511">
        <ele>2282.3999023438</ele>
        <time>2014-03-02T10:03:19.000Z</time>
      </trkpt>
      <trkpt lat="45.33484" lon="6.19512">
        <ele>2282.8000488281</ele>
        <time>2014-03-02T10:03:20.000Z</time>
      </trkpt>
      <trkpt lat="45.33484" lon="6.19512">
        <ele>2282.8000488281</ele>
        <time>2014-03-02T10:03:21.000Z</time>
      </trkpt>
      <trkpt lat="45.33485" lon="6.19512">
        <ele>2283.1999511719</ele>
        <time>2014-03-02T10:03:22.000Z</time>
      </trkpt>
      <trkpt lat="45.33485" lon="6.19512">
        <ele>2283.1999511719</ele>
        <time>2014-03-02T10:03:23.000Z</time>
      </trkpt>
      <trkpt lat="45.33486" lon="6.19513">
        <ele>2283.3999023438</ele>
        <time>2014-03-02T10:03:24.000Z</time>
      </trkpt>
      <trkpt lat="45.33487" lon="6.19514">
        <ele>2284</ele>
        <time>2014-03-02T10:03:25.000Z</time>
      </trkpt>
      <trkpt lat="45.33487" lon="6.19515">
        <ele>2284.3999023438</ele>
        <time>2014-03-02T10:03:26.000Z</time>
      </trkpt>
      <trkpt lat="45.33487" lon="6.19515">
        <ele>2284.3999023438</ele>
        <time>2014-03-02T10:03:27.000Z</time>
      </trkpt>
      <trkpt lat="45.33488" lon="6.19515">
        <ele>2284.6000976562</ele>
        <time>2014-03-02T10:03:28.000Z</time>
      </trkpt>
      <trkpt lat="45.33488" lon="6.19516">
        <ele>2284.6000976562</ele>
        <time>2014-03-02T10:03:29.000Z</time>
      </trkpt>
      <trkpt lat="45.33489" lon="6.19517">
        <ele>2285</ele>
        <time>2014-03-02T10:03:30.000Z</time>
      </trkpt>
      <trkpt lat="45.3349" lon="6.19518">
        <ele>2285.3999023438</ele>
        <time>2014-03-02T10:03:31.000Z</time>
      </trkpt>
      <trkpt lat="45.3349" lon="6.19518">
        <ele>2285.8000488281</ele>
        <time>2014-03-02T10:03:32.000Z</time>
      </trkpt>
      <trkpt lat="45.33491" lon="6.19519">
        <ele>2286</ele>
        <time>2014-03-02T10:03:33.000Z</time>
      </trkpt>
      <trkpt lat="45.33492" lon="6.19519">
        <ele>2286.6000976562</ele>
        <time>2014-03-02T10:03:34.000Z</time>
      </trkpt>
      <trkpt lat="45.33492" lon="6.1952">
        <ele>2286.8000488281</ele>
        <time>2014-03-02T10:03:35.000Z</time>
      </trkpt>
      <trkpt lat="45.33493" lon="6.1952">
        <ele>2287</ele>
        <time>2014-03-02T10:03:36.000Z</time>
      </trkpt>
      <trkpt lat="45.33493" lon="6.1952">
        <ele>2287</ele>
        <time>2014-03-02T10:03:37.000Z</time>
      </trkpt>
      <trkpt lat="45.33493" lon="6.1952">
        <ele>2287</ele>
        <time>2014-03-02T10:03:38.000Z</time>
      </trkpt>
      <trkpt lat="45.33493" lon="6.1952">
        <ele>2287</ele>
        <time>2014-03-02T10:03:39.000Z</time>
      </trkpt>
      <trkpt lat="45.33493" lon="6.1952">
        <ele>2287</ele>
        <time>2014-03-02T10:03:40.000Z</time>
      </trkpt>
      <trkpt lat="45.33493" lon="6.19521">
        <ele>2287.1999511719</ele>
        <time>2014-03-02T10:03:41.000Z</time>
      </trkpt>
      <trkpt lat="45.33494" lon="6.19521">
        <ele>2287.3999023438</ele>
        <time>2014-03-02T10:03:42.000Z</time>
      </trkpt>
      <trkpt lat="45.33494" lon="6.19521">
        <ele>2287.3999023438</ele>
        <time>2014-03-02T10:03:43.000Z</time>
      </trkpt>
      <trkpt lat="45.33494" lon="6.19521">
        <ele>2287.3999023438</ele>
        <time>2014-03-02T10:03:44.000Z</time>
      </trkpt>
      <trkpt lat="45.33494" lon="6.19521">
        <ele>2287.3999023438</ele>
        <time>2014-03-02T10:03:45.000Z</time>
      </trkpt>
      <trkpt lat="45.33494" lon="6.19521">
        <ele>2287.3999023438</ele>
        <time>2014-03-02T10:03:46.000Z</time>
      </trkpt>
      <trkpt lat="45.33494" lon="6.19521">
        <ele>2287.3999023438</ele>
        <time>2014-03-02T10:03:47.000Z</time>
      </trkpt>
      <trkpt lat="45.33494" lon="6.19521">
        <ele>2287.3999023438</ele>
        <time>2014-03-02T10:03:48.000Z</time>
      </trkpt>
      <trkpt lat="45.33494" lon="6.19522">
        <ele>2287.3999023438</ele>
        <time>2014-03-02T10:03:49.000Z</time>
      </trkpt>
      <trkpt lat="45.33494" lon="6.19523">
        <ele>2287.8000488281</ele>
        <time>2014-03-02T10:03:52.000Z</time>
      </trkpt>
      <trkpt lat="45.33494" lon="6.19523">
        <ele>2287.8000488281</ele>
        <time>2014-03-02T10:03:53.000Z</time>
      </trkpt>
      <trkpt lat="45.33495" lon="6.19523">
        <ele>2288.1999511719</ele>
        <time>2014-03-02T10:03:54.000Z</time>
      </trkpt>
      <trkpt lat="45.33495" lon="6.19523">
        <ele>2288.1999511719</ele>
        <time>2014-03-02T10:03:55.000Z</time>
      </trkpt>
      <trkpt lat="45.33496" lon="6.19524">
        <ele>2288.6000976562</ele>
        <time>2014-03-02T10:03:56.000Z</time>
      </trkpt>
      <trkpt lat="45.33496" lon="6.19524">
        <ele>2288.6000976562</ele>
        <time>2014-03-02T10:03:57.000Z</time>
      </trkpt>
      <trkpt lat="45.33496" lon="6.19525">
        <ele>2288.8000488281</ele>
        <time>2014-03-02T10:03:58.000Z</time>
      </trkpt>
      <trkpt lat="45.33497" lon="6.19525">
        <ele>2289.1999511719</ele>
        <time>2014-03-02T10:03:59.000Z</time>
      </trkpt>
      <trkpt lat="45.33498" lon="6.19525">
        <ele>2289.3999023438</ele>
        <time>2014-03-02T10:04:00.000Z</time>
      </trkpt>
      <trkpt lat="45.33498" lon="6.19526">
        <ele>2289.8000488281</ele>
        <time>2014-03-02T10:04:01.000Z</time>
      </trkpt>
      <trkpt lat="45.33498" lon="6.19526">
        <ele>2289.8000488281</ele>
        <time>2014-03-02T10:04:02.000Z</time>
      </trkpt>
      <trkpt lat="45.33498" lon="6.19527">
        <ele>2290</ele>
        <time>2014-03-02T10:04:03.000Z</time>
      </trkpt>
      <trkpt lat="45.33498" lon="6.19527">
        <ele>2290</ele>
        <time>2014-03-02T10:04:04.000Z</time>
      </trkpt>
      <trkpt lat="45.33499" lon="6.19527">
        <ele>2290.1999511719</ele>
        <time>2014-03-02T10:04:05.000Z</time>
      </trkpt>
      <trkpt lat="45.33499" lon="6.19527">
        <ele>2290.1999511719</ele>
        <time>2014-03-02T10:04:06.000Z</time>
      </trkpt>
      <trkpt lat="45.33499" lon="6.19528">
        <ele>2290.3999023438</ele>
        <time>2014-03-02T10:04:07.000Z</time>
      </trkpt>
      <trkpt lat="45.33499" lon="6.19528">
        <ele>2290.3999023438</ele>
        <time>2014-03-02T10:04:08.000Z</time>
      </trkpt>
      <trkpt lat="45.335" lon="6.19528">
        <ele>2290.8000488281</ele>
        <time>2014-03-02T10:04:09.000Z</time>
      </trkpt>
      <trkpt lat="45.335" lon="6.19528">
        <ele>2290.8000488281</ele>
        <time>2014-03-02T10:04:10.000Z</time>
      </trkpt>
      <trkpt lat="45.335" lon="6.19528">
        <ele>2290.8000488281</ele>
        <time>2014-03-02T10:04:11.000Z</time>
      </trkpt>
      <trkpt lat="45.335" lon="6.19528">
        <ele>2290.8000488281</ele>
        <time>2014-03-02T10:04:12.000Z</time>
      </trkpt>
      <trkpt lat="45.335" lon="6.19528">
        <ele>2290.8000488281</ele>
        <time>2014-03-02T10:04:13.000Z</time>
      </trkpt>
      <trkpt lat="45.335" lon="6.19528">
        <ele>2290.8000488281</ele>
        <time>2014-03-02T10:04:14.000Z</time>
      </trkpt>
      <trkpt lat="45.335" lon="6.19528">
        <ele>2290.8000488281</ele>
        <time>2014-03-02T10:04:15.000Z</time>
      </trkpt>
      <trkpt lat="45.335" lon="6.19528">
        <ele>2290.8000488281</ele>
        <time>2014-03-02T10:04:16.000Z</time>
      </trkpt>
      <trkpt lat="45.335" lon="6.19528">
        <ele>2290.8000488281</ele>
        <time>2014-03-02T10:04:17.000Z</time>
      </trkpt>
      <trkpt lat="45.335" lon="6.19528">
        <ele>2290.8000488281</ele>
        <time>2014-03-02T10:04:18.000Z</time>
      </trkpt>
      <trkpt lat="45.335" lon="6.19528">
        <ele>2290.8000488281</ele>
        <time>2014-03-02T10:04:19.000Z</time>
      </trkpt>
      <trkpt lat="45.335" lon="6.19528">
        <ele>2290.8000488281</ele>
        <time>2014-03-02T10:04:20.000Z</time>
      </trkpt>
      <trkpt lat="45.335" lon="6.19529">
        <ele>2290.8000488281</ele>
        <time>2014-03-02T10:04:21.000Z</time>
      </trkpt>
      <trkpt lat="45.335" lon="6.19529">
        <ele>2290.8000488281</ele>
        <time>2014-03-02T10:04:23.000Z</time>
      </trkpt>
      <trkpt lat="45.335" lon="6.19529">
        <ele>2290.8000488281</ele>
        <time>2014-03-02T10:04:24.000Z</time>
      </trkpt>
      <trkpt lat="45.335" lon="6.19529">
        <ele>2290.8000488281</ele>
        <time>2014-03-02T10:04:25.000Z</time>
      </trkpt>
      <trkpt lat="45.335" lon="6.19529">
        <ele>2290.8000488281</ele>
        <time>2014-03-02T10:04:26.000Z</time>
      </trkpt>
      <trkpt lat="45.335" lon="6.19529">
        <ele>2290.8000488281</ele>
        <time>2014-03-02T10:04:27.000Z</time>
      </trkpt>
      <trkpt lat="45.335" lon="6.19529">
        <ele>2290.8000488281</ele>
        <time>2014-03-02T10:04:28.000Z</time>
      </trkpt>
      <trkpt lat="45.335" lon="6.19529">
        <ele>2290.8000488281</ele>
        <time>2014-03-02T10:04:29.000Z</time>
      </trkpt>
      <trkpt lat="45.335" lon="6.19529">
        <ele>2290.8000488281</ele>
        <time>2014-03-02T10:04:30.000Z</time>
      </trkpt>
      <trkpt lat="45.335" lon="6.19529">
        <ele>2290.8000488281</ele>
        <time>2014-03-02T10:04:31.000Z</time>
      </trkpt>
      <trkpt lat="45.335" lon="6.19529">
        <ele>2290.8000488281</ele>
        <time>2014-03-02T10:04:32.000Z</time>
      </trkpt>
      <trkpt lat="45.335" lon="6.19529">
        <ele>2290.8000488281</ele>
        <time>2014-03-02T10:04:34.000Z</time>
      </trkpt>
      <trkpt lat="45.335" lon="6.19529">
        <ele>2290.8000488281</ele>
        <time>2014-03-02T10:04:35.000Z</time>
      </trkpt>
      <trkpt lat="45.335" lon="6.19529">
        <ele>2290.8000488281</ele>
        <time>2014-03-02T10:04:40.000Z</time>
      </trkpt>
      <trkpt lat="45.33501" lon="6.1953">
        <ele>2291</ele>
        <time>2014-03-02T10:04:41.000Z</time>
      </trkpt>
      <trkpt lat="45.33501" lon="6.1953">
        <ele>2291.1999511719</ele>
        <time>2014-03-02T10:04:42.000Z</time>
      </trkpt>
      <trkpt lat="45.33501" lon="6.1953">
        <ele>2291.1999511719</ele>
        <time>2014-03-02T10:04:43.000Z</time>
      </trkpt>
      <trkpt lat="45.33502" lon="6.19531">
        <ele>2291.6000976562</ele>
        <time>2014-03-02T10:04:44.000Z</time>
      </trkpt>
      <trkpt lat="45.33502" lon="6.19531">
        <ele>2291.6000976562</ele>
        <time>2014-03-02T10:04:45.000Z</time>
      </trkpt>
      <trkpt lat="45.33502" lon="6.19533">
        <ele>2291.6000976562</ele>
        <time>2014-03-02T10:04:46.000Z</time>
      </trkpt>
      <trkpt lat="45.33503" lon="6.19535">
        <ele>2292</ele>
        <time>2014-03-02T10:04:47.000Z</time>
      </trkpt>
      <trkpt lat="45.33503" lon="6.19535">
        <ele>2292.3999023438</ele>
        <time>2014-03-02T10:04:48.000Z</time>
      </trkpt>
      <trkpt lat="45.33504" lon="6.19536">
        <ele>2292.8000488281</ele>
        <time>2014-03-02T10:04:49.000Z</time>
      </trkpt>
      <trkpt lat="45.33505" lon="6.19537">
        <ele>2292.8000488281</ele>
        <time>2014-03-02T10:04:50.000Z</time>
      </trkpt>
      <trkpt lat="45.33505" lon="6.19539">
        <ele>2293</ele>
        <time>2014-03-02T10:04:51.000Z</time>
      </trkpt>
      <trkpt lat="45.33505" lon="6.1954">
        <ele>2293.1999511719</ele>
        <time>2014-03-02T10:04:52.000Z</time>
      </trkpt>
      <trkpt lat="45.33506" lon="6.19541">
        <ele>2293.1999511719</ele>
        <time>2014-03-02T10:04:53.000Z</time>
      </trkpt>
      <trkpt lat="45.33506" lon="6.19541">
        <ele>2293.1999511719</ele>
        <time>2014-03-02T10:04:54.000Z</time>
      </trkpt>
      <trkpt lat="45.33506" lon="6.19541">
        <ele>2293.1999511719</ele>
        <time>2014-03-02T10:04:55.000Z</time>
      </trkpt>
      <trkpt lat="45.33506" lon="6.19541">
        <ele>2293.1999511719</ele>
        <time>2014-03-02T10:04:56.000Z</time>
      </trkpt>
      <trkpt lat="45.33506" lon="6.19539">
        <ele>2293.3999023438</ele>
        <time>2014-03-02T10:04:57.000Z</time>
      </trkpt>
      <trkpt lat="45.33506" lon="6.19538">
        <ele>2293.6000976562</ele>
        <time>2014-03-02T10:04:58.000Z</time>
      </trkpt>
      <trkpt lat="45.33506" lon="6.19537">
        <ele>2293.3999023438</ele>
        <time>2014-03-02T10:04:59.000Z</time>
      </trkpt>
      <trkpt lat="45.33506" lon="6.19537">
        <ele>2293.6000976562</ele>
        <time>2014-03-02T10:05:00.000Z</time>
      </trkpt>
      <trkpt lat="45.33506" lon="6.19537">
        <ele>2293.6000976562</ele>
        <time>2014-03-02T10:05:01.000Z</time>
      </trkpt>
      <trkpt lat="45.33506" lon="6.19536">
        <ele>2293.8000488281</ele>
        <time>2014-03-02T10:05:02.000Z</time>
      </trkpt>
      <trkpt lat="45.33506" lon="6.19536">
        <ele>2293.8000488281</ele>
        <time>2014-03-02T10:05:03.000Z</time>
      </trkpt>
      <trkpt lat="45.33506" lon="6.19535">
        <ele>2293.6000976562</ele>
        <time>2014-03-02T10:05:04.000Z</time>
      </trkpt>
      <trkpt lat="45.33506" lon="6.19535">
        <ele>2293.6000976562</ele>
        <time>2014-03-02T10:05:05.000Z</time>
      </trkpt>
      <trkpt lat="45.33506" lon="6.19534">
        <ele>2293.8000488281</ele>
        <time>2014-03-02T10:05:06.000Z</time>
      </trkpt>
      <trkpt lat="45.33506" lon="6.19534">
        <ele>2293.8000488281</ele>
        <time>2014-03-02T10:05:07.000Z</time>
      </trkpt>
      <trkpt lat="45.33506" lon="6.19533">
        <ele>2294</ele>
        <time>2014-03-02T10:05:08.000Z</time>
      </trkpt>
      <trkpt lat="45.33506" lon="6.19533">
        <ele>2294</ele>
        <time>2014-03-02T10:05:09.000Z</time>
      </trkpt>
      <trkpt lat="45.33507" lon="6.19531">
        <ele>2294.3999023438</ele>
        <time>2014-03-02T10:05:10.000Z</time>
      </trkpt>
      <trkpt lat="45.33507" lon="6.1953">
        <ele>2294.6000976562</ele>
        <time>2014-03-02T10:05:11.000Z</time>
      </trkpt>
      <trkpt lat="45.33507" lon="6.19529">
        <ele>2294.6000976562</ele>
        <time>2014-03-02T10:05:12.000Z</time>
      </trkpt>
      <trkpt lat="45.33507" lon="6.19529">
        <ele>2294.6000976562</ele>
        <time>2014-03-02T10:05:13.000Z</time>
      </trkpt>
      <trkpt lat="45.33507" lon="6.19529">
        <ele>2294.6000976562</ele>
        <time>2014-03-02T10:05:14.000Z</time>
      </trkpt>
      <trkpt lat="45.33507" lon="6.19528">
        <ele>2294.6000976562</ele>
        <time>2014-03-02T10:05:15.000Z</time>
      </trkpt>
      <trkpt lat="45.33507" lon="6.19527">
        <ele>2295</ele>
        <time>2014-03-02T10:05:16.000Z</time>
      </trkpt>
      <trkpt lat="45.33507" lon="6.19526">
        <ele>2295</ele>
        <time>2014-03-02T10:05:17.000Z</time>
      </trkpt>
      <trkpt lat="45.33507" lon="6.19525">
        <ele>2295.1999511719</ele>
        <time>2014-03-02T10:05:18.000Z</time>
      </trkpt>
      <trkpt lat="45.33507" lon="6.19525">
        <ele>2295.1999511719</ele>
        <time>2014-03-02T10:05:19.000Z</time>
      </trkpt>
      <trkpt lat="45.33507" lon="6.19524">
        <ele>2295.1999511719</ele>
        <time>2014-03-02T10:05:20.000Z</time>
      </trkpt>
      <trkpt lat="45.33507" lon="6.19524">
        <ele>2295.1999511719</ele>
        <time>2014-03-02T10:05:21.000Z</time>
      </trkpt>
      <trkpt lat="45.33507" lon="6.19524">
        <ele>2295.1999511719</ele>
        <time>2014-03-02T10:05:22.000Z</time>
      </trkpt>
      <trkpt lat="45.33507" lon="6.19524">
        <ele>2295.1999511719</ele>
        <time>2014-03-02T10:05:23.000Z</time>
      </trkpt>
      <trkpt lat="45.33507" lon="6.19524">
        <ele>2295.1999511719</ele>
        <time>2014-03-02T10:05:24.000Z</time>
      </trkpt>
      <trkpt lat="45.33507" lon="6.19523">
        <ele>2295.1999511719</ele>
        <time>2014-03-02T10:05:25.000Z</time>
      </trkpt>
      <trkpt lat="45.33507" lon="6.19522">
        <ele>2295.1999511719</ele>
        <time>2014-03-02T10:05:26.000Z</time>
      </trkpt>
      <trkpt lat="45.33507" lon="6.19521">
        <ele>2295.3999023438</ele>
        <time>2014-03-02T10:05:27.000Z</time>
      </trkpt>
      <trkpt lat="45.33507" lon="6.1952">
        <ele>2295.3999023438</ele>
        <time>2014-03-02T10:05:28.000Z</time>
      </trkpt>
      <trkpt lat="45.33507" lon="6.19519">
        <ele>2295.3999023438</ele>
        <time>2014-03-02T10:05:29.000Z</time>
      </trkpt>
      <trkpt lat="45.33506" lon="6.19518">
        <ele>2295.3999023438</ele>
        <time>2014-03-02T10:05:30.000Z</time>
      </trkpt>
      <trkpt lat="45.33506" lon="6.19517">
        <ele>2295.3999023438</ele>
        <time>2014-03-02T10:05:31.000Z</time>
      </trkpt>
      <trkpt lat="45.33506" lon="6.19517">
        <ele>2295.3999023438</ele>
        <time>2014-03-02T10:05:32.000Z</time>
      </trkpt>
      <trkpt lat="45.33506" lon="6.19517">
        <ele>2295.3999023438</ele>
        <time>2014-03-02T10:05:33.000Z</time>
      </trkpt>
      <trkpt lat="45.33506" lon="6.19516">
        <ele>2295.1999511719</ele>
        <time>2014-03-02T10:05:34.000Z</time>
      </trkpt>
      <trkpt lat="45.33506" lon="6.19516">
        <ele>2295.1999511719</ele>
        <time>2014-03-02T10:05:35.000Z</time>
      </trkpt>
      <trkpt lat="45.33505" lon="6.19515">
        <ele>2295.1999511719</ele>
        <time>2014-03-02T10:05:36.000Z</time>
      </trkpt>
      <trkpt lat="45.33505" lon="6.19515">
        <ele>2295.1999511719</ele>
        <time>2014-03-02T10:05:37.000Z</time>
      </trkpt>
      <trkpt lat="45.33506" lon="6.19515">
        <ele>2295.6000976562</ele>
        <time>2014-03-02T10:05:38.000Z</time>
      </trkpt>
      <trkpt lat="45.33506" lon="6.19514">
        <ele>2295.6000976562</ele>
        <time>2014-03-02T10:05:39.000Z</time>
      </trkpt>
      <trkpt lat="45.33506" lon="6.19514">
        <ele>2295.6000976562</ele>
        <time>2014-03-02T10:05:40.000Z</time>
      </trkpt>
      <trkpt lat="45.33506" lon="6.19514">
        <ele>2295.8000488281</ele>
        <time>2014-03-02T10:05:41.000Z</time>
      </trkpt>
      <trkpt lat="45.33506" lon="6.19514">
        <ele>2295.8000488281</ele>
        <time>2014-03-02T10:05:42.000Z</time>
      </trkpt>
      <trkpt lat="45.33506" lon="6.19513">
        <ele>2295.8000488281</ele>
        <time>2014-03-02T10:05:43.000Z</time>
      </trkpt>
      <trkpt lat="45.33506" lon="6.19513">
        <ele>2295.8000488281</ele>
        <time>2014-03-02T10:05:44.000Z</time>
      </trkpt>
      <trkpt lat="45.33506" lon="6.19513">
        <ele>2295.8000488281</ele>
        <time>2014-03-02T10:05:45.000Z</time>
      </trkpt>
      <trkpt lat="45.33506" lon="6.19513">
        <ele>2295.8000488281</ele>
        <time>2014-03-02T10:05:46.000Z</time>
      </trkpt>
      <trkpt lat="45.33505" lon="6.19512">
        <ele>2295.8000488281</ele>
        <time>2014-03-02T10:05:47.000Z</time>
      </trkpt>
      <trkpt lat="45.33505" lon="6.19512">
        <ele>2295.8000488281</ele>
        <time>2014-03-02T10:05:48.000Z</time>
      </trkpt>
      <trkpt lat="45.33505" lon="6.19511">
        <ele>2296</ele>
        <time>2014-03-02T10:05:49.000Z</time>
      </trkpt>
      <trkpt lat="45.33505" lon="6.19511">
        <ele>2296</ele>
        <time>2014-03-02T10:05:50.000Z</time>
      </trkpt>
      <trkpt lat="45.33505" lon="6.1951">
        <ele>2296.1999511719</ele>
        <time>2014-03-02T10:05:51.000Z</time>
      </trkpt>
      <trkpt lat="45.33505" lon="6.1951">
        <ele>2296.1999511719</ele>
        <time>2014-03-02T10:05:52.000Z</time>
      </trkpt>
      <trkpt lat="45.33505" lon="6.1951">
        <ele>2296.1999511719</ele>
        <time>2014-03-02T10:05:53.000Z</time>
      </trkpt>
      <trkpt lat="45.33505" lon="6.19509">
        <ele>2296.3999023438</ele>
        <time>2014-03-02T10:05:54.000Z</time>
      </trkpt>
      <trkpt lat="45.33505" lon="6.19509">
        <ele>2296.3999023438</ele>
        <time>2014-03-02T10:05:55.000Z</time>
      </trkpt>
      <trkpt lat="45.33505" lon="6.19508">
        <ele>2296.6000976562</ele>
        <time>2014-03-02T10:05:56.000Z</time>
      </trkpt>
      <trkpt lat="45.33505" lon="6.19508">
        <ele>2296.6000976562</ele>
        <time>2014-03-02T10:05:57.000Z</time>
      </trkpt>
      <trkpt lat="45.33505" lon="6.19507">
        <ele>2296.8000488281</ele>
        <time>2014-03-02T10:05:58.000Z</time>
      </trkpt>
      <trkpt lat="45.33505" lon="6.19506">
        <ele>2297</ele>
        <time>2014-03-02T10:05:59.000Z</time>
      </trkpt>
      <trkpt lat="45.33505" lon="6.19505">
        <ele>2297</ele>
        <time>2014-03-02T10:06:00.000Z</time>
      </trkpt>
      <trkpt lat="45.33505" lon="6.19504">
        <ele>2297.1999511719</ele>
        <time>2014-03-02T10:06:01.000Z</time>
      </trkpt>
      <trkpt lat="45.33505" lon="6.19504">
        <ele>2297.1999511719</ele>
        <time>2014-03-02T10:06:02.000Z</time>
      </trkpt>
      <trkpt lat="45.33505" lon="6.19504">
        <ele>2297.1999511719</ele>
        <time>2014-03-02T10:06:03.000Z</time>
      </trkpt>
      <trkpt lat="45.33505" lon="6.19504">
        <ele>2297.1999511719</ele>
        <time>2014-03-02T10:06:04.000Z</time>
      </trkpt>
      <trkpt lat="45.33505" lon="6.19504">
        <ele>2297.1999511719</ele>
        <time>2014-03-02T10:06:05.000Z</time>
      </trkpt>
      <trkpt lat="45.33505" lon="6.19504">
        <ele>2297.1999511719</ele>
        <time>2014-03-02T10:06:06.000Z</time>
      </trkpt>
      <trkpt lat="45.33505" lon="6.19504">
        <ele>2297.1999511719</ele>
        <time>2014-03-02T10:06:07.000Z</time>
      </trkpt>
      <trkpt lat="45.33505" lon="6.19503">
        <ele>2297.6000976562</ele>
        <time>2014-03-02T10:06:08.000Z</time>
      </trkpt>
      <trkpt lat="45.33505" lon="6.19503">
        <ele>2297.6000976562</ele>
        <time>2014-03-02T10:06:09.000Z</time>
      </trkpt>
      <trkpt lat="45.33505" lon="6.19501">
        <ele>2298.1999511719</ele>
        <time>2014-03-02T10:06:10.000Z</time>
      </trkpt>
      <trkpt lat="45.33505" lon="6.19501">
        <ele>2298.1999511719</ele>
        <time>2014-03-02T10:06:11.000Z</time>
      </trkpt>
      <trkpt lat="45.33506" lon="6.195">
        <ele>2298.6000976562</ele>
        <time>2014-03-02T10:06:12.000Z</time>
      </trkpt>
      <trkpt lat="45.33506" lon="6.19498">
        <ele>2299</ele>
        <time>2014-03-02T10:06:13.000Z</time>
      </trkpt>
      <trkpt lat="45.33506" lon="6.19497">
        <ele>2299.6000976562</ele>
        <time>2014-03-02T10:06:14.000Z</time>
      </trkpt>
      <trkpt lat="45.33507" lon="6.19495">
        <ele>2300.1999511719</ele>
        <time>2014-03-02T10:06:15.000Z</time>
      </trkpt>
      <trkpt lat="45.33507" lon="6.19495">
        <ele>2300.3999023438</ele>
        <time>2014-03-02T10:06:16.000Z</time>
      </trkpt>
      <trkpt lat="45.33507" lon="6.19495">
        <ele>2300.3999023438</ele>
        <time>2014-03-02T10:06:17.000Z</time>
      </trkpt>
      <trkpt lat="45.33507" lon="6.19495">
        <ele>2300.3999023438</ele>
        <time>2014-03-02T10:06:18.000Z</time>
      </trkpt>
      <trkpt lat="45.33507" lon="6.19495">
        <ele>2300.3999023438</ele>
        <time>2014-03-02T10:06:19.000Z</time>
      </trkpt>
      <trkpt lat="45.33507" lon="6.19495">
        <ele>2300.3999023438</ele>
        <time>2014-03-02T10:06:20.000Z</time>
      </trkpt>
      <trkpt lat="45.33507" lon="6.19494">
        <ele>2300.6000976562</ele>
        <time>2014-03-02T10:06:21.000Z</time>
      </trkpt>
      <trkpt lat="45.33507" lon="6.19493">
        <ele>2300.8000488281</ele>
        <time>2014-03-02T10:06:22.000Z</time>
      </trkpt>
      <trkpt lat="45.33507" lon="6.19492">
        <ele>2300.8000488281</ele>
        <time>2014-03-02T10:06:23.000Z</time>
      </trkpt>
      <trkpt lat="45.33507" lon="6.19492">
        <ele>2300.8000488281</ele>
        <time>2014-03-02T10:06:24.000Z</time>
      </trkpt>
      <trkpt lat="45.33507" lon="6.19492">
        <ele>2300.8000488281</ele>
        <time>2014-03-02T10:06:25.000Z</time>
      </trkpt>
      <trkpt lat="45.33507" lon="6.19492">
        <ele>2300.8000488281</ele>
        <time>2014-03-02T10:06:26.000Z</time>
      </trkpt>
      <trkpt lat="45.33507" lon="6.19492">
        <ele>2300.8000488281</ele>
        <time>2014-03-02T10:06:27.000Z</time>
      </trkpt>
      <trkpt lat="45.33507" lon="6.19492">
        <ele>2300.8000488281</ele>
        <time>2014-03-02T10:06:28.000Z</time>
      </trkpt>
      <trkpt lat="45.33507" lon="6.19492">
        <ele>2300.8000488281</ele>
        <time>2014-03-02T10:06:29.000Z</time>
      </trkpt>
      <trkpt lat="45.33507" lon="6.19492">
        <ele>2300.8000488281</ele>
        <time>2014-03-02T10:06:30.000Z</time>
      </trkpt>
      <trkpt lat="45.33507" lon="6.19492">
        <ele>2300.8000488281</ele>
        <time>2014-03-02T10:06:31.000Z</time>
      </trkpt>
      <trkpt lat="45.33507" lon="6.19492">
        <ele>2300.8000488281</ele>
        <time>2014-03-02T10:06:32.000Z</time>
      </trkpt>
      <trkpt lat="45.33507" lon="6.19492">
        <ele>2300.8000488281</ele>
        <time>2014-03-02T10:06:33.000Z</time>
      </trkpt>
      <trkpt lat="45.33507" lon="6.19492">
        <ele>2300.8000488281</ele>
        <time>2014-03-02T10:06:34.000Z</time>
      </trkpt>
      <trkpt lat="45.33507" lon="6.19492">
        <ele>2300.8000488281</ele>
        <time>2014-03-02T10:06:35.000Z</time>
      </trkpt>
      <trkpt lat="45.33507" lon="6.19492">
        <ele>2300.8000488281</ele>
        <time>2014-03-02T10:06:36.000Z</time>
      </trkpt>
      <trkpt lat="45.33507" lon="6.19492">
        <ele>2300.8000488281</ele>
        <time>2014-03-02T10:06:37.000Z</time>
      </trkpt>
      <trkpt lat="45.33507" lon="6.19492">
        <ele>2300.8000488281</ele>
        <time>2014-03-02T10:06:38.000Z</time>
      </trkpt>
      <trkpt lat="45.33507" lon="6.19492">
        <ele>2300.8000488281</ele>
        <time>2014-03-02T10:06:39.000Z</time>
      </trkpt>
      <trkpt lat="45.33507" lon="6.19492">
        <ele>2300.8000488281</ele>
        <time>2014-03-02T10:06:40.000Z</time>
      </trkpt>
      <trkpt lat="45.33507" lon="6.19492">
        <ele>2300.8000488281</ele>
        <time>2014-03-02T10:06:41.000Z</time>
      </trkpt>
      <trkpt lat="45.33507" lon="6.19492">
        <ele>2300.8000488281</ele>
        <time>2014-03-02T10:06:42.000Z</time>
      </trkpt>
      <trkpt lat="45.33507" lon="6.19492">
        <ele>2300.8000488281</ele>
        <time>2014-03-02T10:06:43.000Z</time>
      </trkpt>
      <trkpt lat="45.33507" lon="6.19492">
        <ele>2300.8000488281</ele>
        <time>2014-03-02T10:06:44.000Z</time>
      </trkpt>
      <trkpt lat="45.33507" lon="6.19492">
        <ele>2300.8000488281</ele>
        <time>2014-03-02T10:06:45.000Z</time>
      </trkpt>
      <trkpt lat="45.33507" lon="6.19492">
        <ele>2300.8000488281</ele>
        <time>2014-03-02T10:06:47.000Z</time>
      </trkpt>
      <trkpt lat="45.33507" lon="6.19492">
        <ele>2300.8000488281</ele>
        <time>2014-03-02T10:06:48.000Z</time>
      </trkpt>
      <trkpt lat="45.33507" lon="6.19492">
        <ele>2300.8000488281</ele>
        <time>2014-03-02T10:06:49.000Z</time>
      </trkpt>
      <trkpt lat="45.33507" lon="6.19492">
        <ele>2300.8000488281</ele>
        <time>2014-03-02T10:06:50.000Z</time>
      </trkpt>
      <trkpt lat="45.33507" lon="6.19492">
        <ele>2300.8000488281</ele>
        <time>2014-03-02T10:06:51.000Z</time>
      </trkpt>
      <trkpt lat="45.33507" lon="6.19492">
        <ele>2300.8000488281</ele>
        <time>2014-03-02T10:06:52.000Z</time>
      </trkpt>
      <trkpt lat="45.33507" lon="6.19492">
        <ele>2300.8000488281</ele>
        <time>2014-03-02T10:06:54.000Z</time>
      </trkpt>
      <trkpt lat="45.33507" lon="6.19492">
        <ele>2300.8000488281</ele>
        <time>2014-03-02T10:06:56.000Z</time>
      </trkpt>
      <trkpt lat="45.33507" lon="6.19492">
        <ele>2300.8000488281</ele>
        <time>2014-03-02T10:06:57.000Z</time>
      </trkpt>
      <trkpt lat="45.33507" lon="6.19492">
        <ele>2300.8000488281</ele>
        <time>2014-03-02T10:06:58.000Z</time>
      </trkpt>
      <trkpt lat="45.33507" lon="6.19492">
        <ele>2300.8000488281</ele>
        <time>2014-03-02T10:06:59.000Z</time>
      </trkpt>
      <trkpt lat="45.33507" lon="6.19492">
        <ele>2300.8000488281</ele>
        <time>2014-03-02T10:07:00.000Z</time>
      </trkpt>
      <trkpt lat="45.33507" lon="6.19492">
        <ele>2300.8000488281</ele>
        <time>2014-03-02T10:07:01.000Z</time>
      </trkpt>
      <trkpt lat="45.33507" lon="6.19492">
        <ele>2300.8000488281</ele>
        <time>2014-03-02T10:07:03.000Z</time>
      </trkpt>
      <trkpt lat="45.33507" lon="6.19492">
        <ele>2300.8000488281</ele>
        <time>2014-03-02T10:07:04.000Z</time>
      </trkpt>
      <trkpt lat="45.33507" lon="6.19492">
        <ele>2300.8000488281</ele>
        <time>2014-03-02T10:07:05.000Z</time>
      </trkpt>
      <trkpt lat="45.33507" lon="6.19492">
        <ele>2300.8000488281</ele>
        <time>2014-03-02T10:07:06.000Z</time>
      </trkpt>
      <trkpt lat="45.33507" lon="6.19492">
        <ele>2300.8000488281</ele>
        <time>2014-03-02T10:07:07.000Z</time>
      </trkpt>
      <trkpt lat="45.33507" lon="6.19492">
        <ele>2300.8000488281</ele>
        <time>2014-03-02T10:07:08.000Z</time>
      </trkpt>
      <trkpt lat="45.33507" lon="6.19492">
        <ele>2300.8000488281</ele>
        <time>2014-03-02T10:07:09.000Z</time>
      </trkpt>
      <trkpt lat="45.33507" lon="6.19492">
        <ele>2300.8000488281</ele>
        <time>2014-03-02T10:07:10.000Z</time>
      </trkpt>
      <trkpt lat="45.33507" lon="6.19492">
        <ele>2300.8000488281</ele>
        <time>2014-03-02T10:07:11.000Z</time>
      </trkpt>
      <trkpt lat="45.33507" lon="6.19492">
        <ele>2300.8000488281</ele>
        <time>2014-03-02T10:07:12.000Z</time>
      </trkpt>
      <trkpt lat="45.33507" lon="6.19492">
        <ele>2300.8000488281</ele>
        <time>2014-03-02T10:07:13.000Z</time>
      </trkpt>
      <trkpt lat="45.33507" lon="6.19492">
        <ele>2300.8000488281</ele>
        <time>2014-03-02T10:07:14.000Z</time>
      </trkpt>
      <trkpt lat="45.33507" lon="6.19492">
        <ele>2300.8000488281</ele>
        <time>2014-03-02T10:07:15.000Z</time>
      </trkpt>
      <trkpt lat="45.33507" lon="6.19492">
        <ele>2300.8000488281</ele>
        <time>2014-03-02T10:07:16.000Z</time>
      </trkpt>
      <trkpt lat="45.33507" lon="6.19492">
        <ele>2300.8000488281</ele>
        <time>2014-03-02T10:07:17.000Z</time>
      </trkpt>
      <trkpt lat="45.33507" lon="6.19492">
        <ele>2300.8000488281</ele>
        <time>2014-03-02T10:07:18.000Z</time>
      </trkpt>
      <trkpt lat="45.33507" lon="6.19492">
        <ele>2300.8000488281</ele>
        <time>2014-03-02T10:07:19.000Z</time>
      </trkpt>
      <trkpt lat="45.33507" lon="6.19492">
        <ele>2300.8000488281</ele>
        <time>2014-03-02T10:07:20.000Z</time>
      </trkpt>
      <trkpt lat="45.33507" lon="6.19492">
        <ele>2300.8000488281</ele>
        <time>2014-03-02T10:07:21.000Z</time>
      </trkpt>
      <trkpt lat="45.33507" lon="6.19492">
        <ele>2300.8000488281</ele>
        <time>2014-03-02T10:07:22.000Z</time>
      </trkpt>
      <trkpt lat="45.33507" lon="6.19492">
        <ele>2300.8000488281</ele>
        <time>2014-03-02T10:07:23.000Z</time>
      </trkpt>
      <trkpt lat="45.33507" lon="6.19492">
        <ele>2300.8000488281</ele>
        <time>2014-03-02T10:07:24.000Z</time>
      </trkpt>
      <trkpt lat="45.33507" lon="6.19492">
        <ele>2300.8000488281</ele>
        <time>2014-03-02T10:07:25.000Z</time>
      </trkpt>
      <trkpt lat="45.33507" lon="6.19492">
        <ele>2300.8000488281</ele>
        <time>2014-03-02T10:07:26.000Z</time>
      </trkpt>
      <trkpt lat="45.33507" lon="6.19492">
        <ele>2300.8000488281</ele>
        <time>2014-03-02T10:07:27.000Z</time>
      </trkpt>
      <trkpt lat="45.33507" lon="6.19492">
        <ele>2300.8000488281</ele>
        <time>2014-03-02T10:07:28.000Z</time>
      </trkpt>
      <trkpt lat="45.33507" lon="6.19492">
        <ele>2300.8000488281</ele>
        <time>2014-03-02T10:07:29.000Z</time>
      </trkpt>
      <trkpt lat="45.33507" lon="6.19492">
        <ele>2300.8000488281</ele>
        <time>2014-03-02T10:07:30.000Z</time>
      </trkpt>
      <trkpt lat="45.33507" lon="6.19492">
        <ele>2300.8000488281</ele>
        <time>2014-03-02T10:07:31.000Z</time>
      </trkpt>
      <trkpt lat="45.33507" lon="6.19492">
        <ele>2300.8000488281</ele>
        <time>2014-03-02T10:07:32.000Z</time>
      </trkpt>
      <trkpt lat="45.33507" lon="6.19492">
        <ele>2300.8000488281</ele>
        <time>2014-03-02T10:07:33.000Z</time>
      </trkpt>
      <trkpt lat="45.33507" lon="6.19492">
        <ele>2300.8000488281</ele>
        <time>2014-03-02T10:07:34.000Z</time>
      </trkpt>
      <trkpt lat="45.33507" lon="6.19492">
        <ele>2300.8000488281</ele>
        <time>2014-03-02T10:07:35.000Z</time>
      </trkpt>
      <trkpt lat="45.33507" lon="6.19492">
        <ele>2300.8000488281</ele>
        <time>2014-03-02T10:07:36.000Z</time>
      </trkpt>
      <trkpt lat="45.33507" lon="6.19492">
        <ele>2300.8000488281</ele>
        <time>2014-03-02T10:07:37.000Z</time>
      </trkpt>
      <trkpt lat="45.33507" lon="6.19492">
        <ele>2300.8000488281</ele>
        <time>2014-03-02T10:07:38.000Z</time>
      </trkpt>
      <trkpt lat="45.33507" lon="6.19492">
        <ele>2300.8000488281</ele>
        <time>2014-03-02T10:07:39.000Z</time>
      </trkpt>
      <trkpt lat="45.33507" lon="6.19492">
        <ele>2300.8000488281</ele>
        <time>2014-03-02T10:07:43.000Z</time>
      </trkpt>
      <trkpt lat="45.33507" lon="6.19492">
        <ele>2300.8000488281</ele>
        <time>2014-03-02T10:07:44.000Z</time>
      </trkpt>
      <trkpt lat="45.33507" lon="6.19492">
        <ele>2300.8000488281</ele>
        <time>2014-03-02T10:07:45.000Z</time>
      </trkpt>
      <trkpt lat="45.33507" lon="6.19492">
        <ele>2300.8000488281</ele>
        <time>2014-03-02T10:07:46.000Z</time>
      </trkpt>
      <trkpt lat="45.33507" lon="6.19492">
        <ele>2300.8000488281</ele>
        <time>2014-03-02T10:07:47.000Z</time>
      </trkpt>
      <trkpt lat="45.33507" lon="6.19492">
        <ele>2300.8000488281</ele>
        <time>2014-03-02T10:07:48.000Z</time>
      </trkpt>
      <trkpt lat="45.33507" lon="6.19492">
        <ele>2300.8000488281</ele>
        <time>2014-03-02T10:07:49.000Z</time>
      </trkpt>
      <trkpt lat="45.33507" lon="6.19492">
        <ele>2300.8000488281</ele>
        <time>2014-03-02T10:07:50.000Z</time>
      </trkpt>
      <trkpt lat="45.33507" lon="6.19492">
        <ele>2300.8000488281</ele>
        <time>2014-03-02T10:07:51.000Z</time>
      </trkpt>
      <trkpt lat="45.33507" lon="6.19492">
        <ele>2300.8000488281</ele>
        <time>2014-03-02T10:07:52.000Z</time>
      </trkpt>
      <trkpt lat="45.33507" lon="6.19492">
        <ele>2300.8000488281</ele>
        <time>2014-03-02T10:07:53.000Z</time>
      </trkpt>
      <trkpt lat="45.33507" lon="6.19492">
        <ele>2300.8000488281</ele>
        <time>2014-03-02T10:07:54.000Z</time>
      </trkpt>
      <trkpt lat="45.33507" lon="6.19492">
        <ele>2300.8000488281</ele>
        <time>2014-03-02T10:07:55.000Z</time>
      </trkpt>
      <trkpt lat="45.33507" lon="6.19492">
        <ele>2300.8000488281</ele>
        <time>2014-03-02T10:07:56.000Z</time>
      </trkpt>
      <trkpt lat="45.33507" lon="6.19492">
        <ele>2300.8000488281</ele>
        <time>2014-03-02T10:07:57.000Z</time>
      </trkpt>
      <trkpt lat="45.33507" lon="6.19492">
        <ele>2300.8000488281</ele>
        <time>2014-03-02T10:07:58.000Z</time>
      </trkpt>
      <trkpt lat="45.33507" lon="6.19492">
        <ele>2300.8000488281</ele>
        <time>2014-03-02T10:07:59.000Z</time>
      </trkpt>
      <trkpt lat="45.33507" lon="6.19492">
        <ele>2300.8000488281</ele>
        <time>2014-03-02T10:08:00.000Z</time>
      </trkpt>
      <trkpt lat="45.33507" lon="6.19492">
        <ele>2300.8000488281</ele>
        <time>2014-03-02T10:08:01.000Z</time>
      </trkpt>
      <trkpt lat="45.33507" lon="6.19492">
        <ele>2300.8000488281</ele>
        <time>2014-03-02T10:08:02.000Z</time>
      </trkpt>
      <trkpt lat="45.33507" lon="6.19492">
        <ele>2300.8000488281</ele>
        <time>2014-03-02T10:08:03.000Z</time>
      </trkpt>
      <trkpt lat="45.33507" lon="6.19492">
        <ele>2300.8000488281</ele>
        <time>2014-03-02T10:08:04.000Z</time>
      </trkpt>
      <trkpt lat="45.33507" lon="6.19492">
        <ele>2300.8000488281</ele>
        <time>2014-03-02T10:08:05.000Z</time>
      </trkpt>
      <trkpt lat="45.33507" lon="6.19492">
        <ele>2300.8000488281</ele>
        <time>2014-03-02T10:08:06.000Z</time>
      </trkpt>
      <trkpt lat="45.33507" lon="6.19492">
        <ele>2300.8000488281</ele>
        <time>2014-03-02T10:08:07.000Z</time>
      </trkpt>
      <trkpt lat="45.33507" lon="6.19492">
        <ele>2300.8000488281</ele>
        <time>2014-03-02T10:08:08.000Z</time>
      </trkpt>
      <trkpt lat="45.33507" lon="6.19492">
        <ele>2300.8000488281</ele>
        <time>2014-03-02T10:08:09.000Z</time>
      </trkpt>
      <trkpt lat="45.33507" lon="6.19492">
        <ele>2300.8000488281</ele>
        <time>2014-03-02T10:08:10.000Z</time>
      </trkpt>
      <trkpt lat="45.33507" lon="6.19492">
        <ele>2300.8000488281</ele>
        <time>2014-03-02T10:08:11.000Z</time>
      </trkpt>
      <trkpt lat="45.33507" lon="6.19492">
        <ele>2300.8000488281</ele>
        <time>2014-03-02T10:08:12.000Z</time>
      </trkpt>
      <trkpt lat="45.33507" lon="6.19492">
        <ele>2300.8000488281</ele>
        <time>2014-03-02T10:08:13.000Z</time>
      </trkpt>
      <trkpt lat="45.33507" lon="6.19492">
        <ele>2300.8000488281</ele>
        <time>2014-03-02T10:08:14.000Z</time>
      </trkpt>
      <trkpt lat="45.33507" lon="6.19492">
        <ele>2300.8000488281</ele>
        <time>2014-03-02T10:08:16.000Z</time>
      </trkpt>
      <trkpt lat="45.33507" lon="6.19492">
        <ele>2300.8000488281</ele>
        <time>2014-03-02T10:08:17.000Z</time>
      </trkpt>
      <trkpt lat="45.33507" lon="6.19492">
        <ele>2300.8000488281</ele>
        <time>2014-03-02T10:08:18.000Z</time>
      </trkpt>
      <trkpt lat="45.33507" lon="6.19492">
        <ele>2300.8000488281</ele>
        <time>2014-03-02T10:08:19.000Z</time>
      </trkpt>
      <trkpt lat="45.33507" lon="6.19492">
        <ele>2300.8000488281</ele>
        <time>2014-03-02T10:08:20.000Z</time>
      </trkpt>
      <trkpt lat="45.33507" lon="6.19492">
        <ele>2300.8000488281</ele>
        <time>2014-03-02T10:08:22.000Z</time>
      </trkpt>
      <trkpt lat="45.33507" lon="6.19492">
        <ele>2300.8000488281</ele>
        <time>2014-03-02T10:08:23.000Z</time>
      </trkpt>
      <trkpt lat="45.33507" lon="6.19492">
        <ele>2300.8000488281</ele>
        <time>2014-03-02T10:08:24.000Z</time>
      </trkpt>
      <trkpt lat="45.33507" lon="6.19492">
        <ele>2300.8000488281</ele>
        <time>2014-03-02T10:08:25.000Z</time>
      </trkpt>
      <trkpt lat="45.33507" lon="6.19492">
        <ele>2300.8000488281</ele>
        <time>2014-03-02T10:08:26.000Z</time>
      </trkpt>
      <trkpt lat="45.33507" lon="6.19492">
        <ele>2300.8000488281</ele>
        <time>2014-03-02T10:08:27.000Z</time>
      </trkpt>
      <trkpt lat="45.33507" lon="6.19492">
        <ele>2300.8000488281</ele>
        <time>2014-03-02T10:08:28.000Z</time>
      </trkpt>
      <trkpt lat="45.33507" lon="6.19492">
        <ele>2300.8000488281</ele>
        <time>2014-03-02T10:08:29.000Z</time>
      </trkpt>
      <trkpt lat="45.33507" lon="6.19492">
        <ele>2300.8000488281</ele>
        <time>2014-03-02T10:08:30.000Z</time>
      </trkpt>
      <trkpt lat="45.33507" lon="6.19492">
        <ele>2300.8000488281</ele>
        <time>2014-03-02T10:08:31.000Z</time>
      </trkpt>
      <trkpt lat="45.33507" lon="6.19492">
        <ele>2300.8000488281</ele>
        <time>2014-03-02T10:08:32.000Z</time>
      </trkpt>
      <trkpt lat="45.33507" lon="6.19492">
        <ele>2300.8000488281</ele>
        <time>2014-03-02T10:08:33.000Z</time>
      </trkpt>
      <trkpt lat="45.33507" lon="6.19492">
        <ele>2300.8000488281</ele>
        <time>2014-03-02T10:08:38.000Z</time>
      </trkpt>
      <trkpt lat="45.33507" lon="6.19492">
        <ele>2300.8000488281</ele>
        <time>2014-03-02T10:08:39.000Z</time>
      </trkpt>
      <trkpt lat="45.33507" lon="6.19492">
        <ele>2300.8000488281</ele>
        <time>2014-03-02T10:08:40.000Z</time>
      </trkpt>
      <trkpt lat="45.33507" lon="6.19492">
        <ele>2300.8000488281</ele>
        <time>2014-03-02T10:08:41.000Z</time>
      </trkpt>
      <trkpt lat="45.33507" lon="6.19492">
        <ele>2300.8000488281</ele>
        <time>2014-03-02T10:08:44.000Z</time>
      </trkpt>
      <trkpt lat="45.33507" lon="6.19492">
        <ele>2301.1999511719</ele>
        <time>2014-03-02T10:08:45.000Z</time>
      </trkpt>
      <trkpt lat="45.33508" lon="6.19491">
        <ele>2301.6000976562</ele>
        <time>2014-03-02T10:08:46.000Z</time>
      </trkpt>
      <trkpt lat="45.33508" lon="6.19491">
        <ele>2301.6000976562</ele>
        <time>2014-03-02T10:08:47.000Z</time>
      </trkpt>
      <trkpt lat="45.33508" lon="6.19491">
        <ele>2302.1999511719</ele>
        <time>2014-03-02T10:08:48.000Z</time>
      </trkpt>
      <trkpt lat="45.33509" lon="6.19491">
        <ele>2302.8000488281</ele>
        <time>2014-03-02T10:08:49.000Z</time>
      </trkpt>
      <trkpt lat="45.3351" lon="6.19491">
        <ele>2303.6000976562</ele>
        <time>2014-03-02T10:08:50.000Z</time>
      </trkpt>
      <trkpt lat="45.33511" lon="6.19491">
        <ele>2304.3999023438</ele>
        <time>2014-03-02T10:08:51.000Z</time>
      </trkpt>
      <trkpt lat="45.33513" lon="6.19491">
        <ele>2306</ele>
        <time>2014-03-02T10:08:53.000Z</time>
      </trkpt>
      <trkpt lat="45.33515" lon="6.1949">
        <ele>2307</ele>
        <time>2014-03-02T10:08:54.000Z</time>
      </trkpt>
      <trkpt lat="45.33515" lon="6.1949">
        <ele>2307.6000976562</ele>
        <time>2014-03-02T10:08:55.000Z</time>
      </trkpt>
      <trkpt lat="45.33517" lon="6.19489">
        <ele>2308.6000976562</ele>
        <time>2014-03-02T10:08:56.000Z</time>
      </trkpt>
      <trkpt lat="45.33518" lon="6.19489">
        <ele>2309.3999023438</ele>
        <time>2014-03-02T10:08:57.000Z</time>
      </trkpt>
      <trkpt lat="45.33518" lon="6.19489">
        <ele>2310</ele>
        <time>2014-03-02T10:08:58.000Z</time>
      </trkpt>
      <trkpt lat="45.33519" lon="6.19488">
        <ele>2310.6000976562</ele>
        <time>2014-03-02T10:08:59.000Z</time>
      </trkpt>
      <trkpt lat="45.3352" lon="6.19488">
        <ele>2311</ele>
        <time>2014-03-02T10:09:00.000Z</time>
      </trkpt>
      <trkpt lat="45.3352" lon="6.19488">
        <ele>2311.6000976562</ele>
        <time>2014-03-02T10:09:01.000Z</time>
      </trkpt>
      <trkpt lat="45.33521" lon="6.19488">
        <ele>2312.1999511719</ele>
        <time>2014-03-02T10:09:02.000Z</time>
      </trkpt>
      <trkpt lat="45.33522" lon="6.19488">
        <ele>2312.8000488281</ele>
        <time>2014-03-02T10:09:03.000Z</time>
      </trkpt>
      <trkpt lat="45.33522" lon="6.19488">
        <ele>2313</ele>
        <time>2014-03-02T10:09:04.000Z</time>
      </trkpt>
      <trkpt lat="45.33523" lon="6.19488">
        <ele>2313.6000976562</ele>
        <time>2014-03-02T10:09:05.000Z</time>
      </trkpt>
      <trkpt lat="45.33524" lon="6.19488">
        <ele>2314.1999511719</ele>
        <time>2014-03-02T10:09:06.000Z</time>
      </trkpt>
      <trkpt lat="45.33525" lon="6.19488">
        <ele>2314.6000976562</ele>
        <time>2014-03-02T10:09:07.000Z</time>
      </trkpt>
      <trkpt lat="45.33525" lon="6.19488">
        <ele>2315</ele>
        <time>2014-03-02T10:09:08.000Z</time>
      </trkpt>
      <trkpt lat="45.33525" lon="6.19488">
        <ele>2315</ele>
        <time>2014-03-02T10:09:09.000Z</time>
      </trkpt>
      <trkpt lat="45.33526" lon="6.19488">
        <ele>2315.3999023438</ele>
        <time>2014-03-02T10:09:10.000Z</time>
      </trkpt>
      <trkpt lat="45.33526" lon="6.19488">
        <ele>2315.3999023438</ele>
        <time>2014-03-02T10:09:11.000Z</time>
      </trkpt>
      <trkpt lat="45.33526" lon="6.19488">
        <ele>2315.8000488281</ele>
        <time>2014-03-02T10:09:12.000Z</time>
      </trkpt>
      <trkpt lat="45.33527" lon="6.19488">
        <ele>2316.3999023438</ele>
        <time>2014-03-02T10:09:13.000Z</time>
      </trkpt>
      <trkpt lat="45.33528" lon="6.19487">
        <ele>2317</ele>
        <time>2014-03-02T10:09:14.000Z</time>
      </trkpt>
      <trkpt lat="45.33528" lon="6.19487">
        <ele>2317</ele>
        <time>2014-03-02T10:09:15.000Z</time>
      </trkpt>
      <trkpt lat="45.33529" lon="6.19487">
        <ele>2318</ele>
        <time>2014-03-02T10:09:16.000Z</time>
      </trkpt>
      <trkpt lat="45.3353" lon="6.19487">
        <ele>2318.6000976562</ele>
        <time>2014-03-02T10:09:18.000Z</time>
      </trkpt>
      <trkpt lat="45.3353" lon="6.19486">
        <ele>2319</ele>
        <time>2014-03-02T10:09:19.000Z</time>
      </trkpt>
      <trkpt lat="45.33531" lon="6.19487">
        <ele>2319.3999023438</ele>
        <time>2014-03-02T10:09:20.000Z</time>
      </trkpt>
      <trkpt lat="45.33531" lon="6.19487">
        <ele>2319.3999023438</ele>
        <time>2014-03-02T10:09:21.000Z</time>
      </trkpt>
      <trkpt lat="45.33531" lon="6.19487">
        <ele>2319.3999023438</ele>
        <time>2014-03-02T10:09:22.000Z</time>
      </trkpt>
      <trkpt lat="45.33531" lon="6.19487">
        <ele>2319.3999023438</ele>
        <time>2014-03-02T10:09:23.000Z</time>
      </trkpt>
      <trkpt lat="45.33531" lon="6.19487">
        <ele>2319.3999023438</ele>
        <time>2014-03-02T10:09:24.000Z</time>
      </trkpt>
      <trkpt lat="45.33531" lon="6.19487">
        <ele>2319.3999023438</ele>
        <time>2014-03-02T10:09:25.000Z</time>
      </trkpt>
      <trkpt lat="45.33531" lon="6.19487">
        <ele>2319.3999023438</ele>
        <time>2014-03-02T10:09:26.000Z</time>
      </trkpt>
      <trkpt lat="45.33531" lon="6.19487">
        <ele>2319.3999023438</ele>
        <time>2014-03-02T10:09:27.000Z</time>
      </trkpt>
      <trkpt lat="45.33531" lon="6.19487">
        <ele>2319.3999023438</ele>
        <time>2014-03-02T10:09:28.000Z</time>
      </trkpt>
      <trkpt lat="45.33531" lon="6.19487">
        <ele>2319.3999023438</ele>
        <time>2014-03-02T10:09:29.000Z</time>
      </trkpt>
      <trkpt lat="45.33531" lon="6.19487">
        <ele>2319.3999023438</ele>
        <time>2014-03-02T10:09:30.000Z</time>
      </trkpt>
      <trkpt lat="45.33531" lon="6.19487">
        <ele>2319.3999023438</ele>
        <time>2014-03-02T10:09:31.000Z</time>
      </trkpt>
      <trkpt lat="45.33531" lon="6.19487">
        <ele>2319.3999023438</ele>
        <time>2014-03-02T10:09:32.000Z</time>
      </trkpt>
      <trkpt lat="45.33531" lon="6.19487">
        <ele>2319.3999023438</ele>
        <time>2014-03-02T10:09:33.000Z</time>
      </trkpt>
      <trkpt lat="45.33531" lon="6.19487">
        <ele>2319.3999023438</ele>
        <time>2014-03-02T10:09:34.000Z</time>
      </trkpt>
      <trkpt lat="45.33531" lon="6.19487">
        <ele>2319.3999023438</ele>
        <time>2014-03-02T10:09:37.000Z</time>
      </trkpt>
      <trkpt lat="45.33531" lon="6.19487">
        <ele>2319.3999023438</ele>
        <time>2014-03-02T10:09:38.000Z</time>
      </trkpt>
      <trkpt lat="45.33531" lon="6.19487">
        <ele>2319.3999023438</ele>
        <time>2014-03-02T10:09:39.000Z</time>
      </trkpt>
      <trkpt lat="45.33531" lon="6.19487">
        <ele>2319.3999023438</ele>
        <time>2014-03-02T10:09:40.000Z</time>
      </trkpt>
      <trkpt lat="45.33531" lon="6.19487">
        <ele>2319.3999023438</ele>
        <time>2014-03-02T10:09:42.000Z</time>
      </trkpt>
      <trkpt lat="45.33531" lon="6.19487">
        <ele>2319.3999023438</ele>
        <time>2014-03-02T10:09:43.000Z</time>
      </trkpt>
      <trkpt lat="45.33531" lon="6.19487">
        <ele>2319.3999023438</ele>
        <time>2014-03-02T10:09:49.000Z</time>
      </trkpt>
      <trkpt lat="45.33531" lon="6.19487">
        <ele>2319.6000976562</ele>
        <time>2014-03-02T10:09:52.000Z</time>
      </trkpt>
      <trkpt lat="45.33531" lon="6.19487">
        <ele>2319.6000976562</ele>
        <time>2014-03-02T10:09:53.000Z</time>
      </trkpt>
      <trkpt lat="45.33531" lon="6.19487">
        <ele>2319.6000976562</ele>
        <time>2014-03-02T10:09:54.000Z</time>
      </trkpt>
      <trkpt lat="45.33532" lon="6.19488">
        <ele>2319.6000976562</ele>
        <time>2014-03-02T10:09:55.000Z</time>
      </trkpt>
      <trkpt lat="45.33532" lon="6.19488">
        <ele>2319.6000976562</ele>
        <time>2014-03-02T10:09:56.000Z</time>
      </trkpt>
      <trkpt lat="45.33532" lon="6.19489">
        <ele>2319.8000488281</ele>
        <time>2014-03-02T10:09:57.000Z</time>
      </trkpt>
      <trkpt lat="45.33532" lon="6.19489">
        <ele>2319.8000488281</ele>
        <time>2014-03-02T10:09:58.000Z</time>
      </trkpt>
      <trkpt lat="45.33533" lon="6.1949">
        <ele>2320</ele>
        <time>2014-03-02T10:09:59.000Z</time>
      </trkpt>
      <trkpt lat="45.33533" lon="6.1949">
        <ele>2320</ele>
        <time>2014-03-02T10:10:00.000Z</time>
      </trkpt>
      <trkpt lat="45.33533" lon="6.19491">
        <ele>2320.1999511719</ele>
        <time>2014-03-02T10:10:01.000Z</time>
      </trkpt>
      <trkpt lat="45.33533" lon="6.19491">
        <ele>2320.1999511719</ele>
        <time>2014-03-02T10:10:02.000Z</time>
      </trkpt>
      <trkpt lat="45.33534" lon="6.19493">
        <ele>2320.3999023438</ele>
        <time>2014-03-02T10:10:03.000Z</time>
      </trkpt>
      <trkpt lat="45.33534" lon="6.19494">
        <ele>2320.3999023438</ele>
        <time>2014-03-02T10:10:04.000Z</time>
      </trkpt>
      <trkpt lat="45.33535" lon="6.19495">
        <ele>2320.6000976562</ele>
        <time>2014-03-02T10:10:05.000Z</time>
      </trkpt>
      <trkpt lat="45.33535" lon="6.19495">
        <ele>2320.6000976562</ele>
        <time>2014-03-02T10:10:06.000Z</time>
      </trkpt>
      <trkpt lat="45.33535" lon="6.19495">
        <ele>2320.3999023438</ele>
        <time>2014-03-02T10:10:07.000Z</time>
      </trkpt>
      <trkpt lat="45.33535" lon="6.19495">
        <ele>2320.3999023438</ele>
        <time>2014-03-02T10:10:08.000Z</time>
      </trkpt>
      <trkpt lat="45.33535" lon="6.19496">
        <ele>2320.3999023438</ele>
        <time>2014-03-02T10:10:09.000Z</time>
      </trkpt>
      <trkpt lat="45.33535" lon="6.19496">
        <ele>2320.3999023438</ele>
        <time>2014-03-02T10:10:10.000Z</time>
      </trkpt>
      <trkpt lat="45.33535" lon="6.19497">
        <ele>2320.3999023438</ele>
        <time>2014-03-02T10:10:11.000Z</time>
      </trkpt>
      <trkpt lat="45.33535" lon="6.19497">
        <ele>2320.3999023438</ele>
        <time>2014-03-02T10:10:12.000Z</time>
      </trkpt>
      <trkpt lat="45.33535" lon="6.19498">
        <ele>2320.3999023438</ele>
        <time>2014-03-02T10:10:13.000Z</time>
      </trkpt>
      <trkpt lat="45.33536" lon="6.19499">
        <ele>2320.6000976562</ele>
        <time>2014-03-02T10:10:14.000Z</time>
      </trkpt>
      <trkpt lat="45.33537" lon="6.195">
        <ele>2320.8000488281</ele>
        <time>2014-03-02T10:10:15.000Z</time>
      </trkpt>
      <trkpt lat="45.33537" lon="6.19501">
        <ele>2321</ele>
        <time>2014-03-02T10:10:16.000Z</time>
      </trkpt>
      <trkpt lat="45.33537" lon="6.19501">
        <ele>2320.8000488281</ele>
        <time>2014-03-02T10:10:17.000Z</time>
      </trkpt>
      <trkpt lat="45.33537" lon="6.19502">
        <ele>2320.8000488281</ele>
        <time>2014-03-02T10:10:18.000Z</time>
      </trkpt>
      <trkpt lat="45.33537" lon="6.19503">
        <ele>2320.6000976562</ele>
        <time>2014-03-02T10:10:19.000Z</time>
      </trkpt>
      <trkpt lat="45.33537" lon="6.19504">
        <ele>2320.3999023438</ele>
        <time>2014-03-02T10:10:20.000Z</time>
      </trkpt>
      <trkpt lat="45.33537" lon="6.19505">
        <ele>2320.1999511719</ele>
        <time>2014-03-02T10:10:21.000Z</time>
      </trkpt>
      <trkpt lat="45.33537" lon="6.19506">
        <ele>2320</ele>
        <time>2014-03-02T10:10:22.000Z</time>
      </trkpt>
      <trkpt lat="45.33537" lon="6.19507">
        <ele>2320</ele>
        <time>2014-03-02T10:10:23.000Z</time>
      </trkpt>
      <trkpt lat="45.33537" lon="6.19507">
        <ele>2320</ele>
        <time>2014-03-02T10:10:24.000Z</time>
      </trkpt>
      <trkpt lat="45.33538" lon="6.19507">
        <ele>2320</ele>
        <time>2014-03-02T10:10:25.000Z</time>
      </trkpt>
      <trkpt lat="45.33538" lon="6.19507">
        <ele>2320</ele>
        <time>2014-03-02T10:10:26.000Z</time>
      </trkpt>
      <trkpt lat="45.33538" lon="6.19507">
        <ele>2320.1999511719</ele>
        <time>2014-03-02T10:10:27.000Z</time>
      </trkpt>
      <trkpt lat="45.33538" lon="6.19507">
        <ele>2320.1999511719</ele>
        <time>2014-03-02T10:10:28.000Z</time>
      </trkpt>
      <trkpt lat="45.33538" lon="6.19507">
        <ele>2320.1999511719</ele>
        <time>2014-03-02T10:10:29.000Z</time>
      </trkpt>
      <trkpt lat="45.33538" lon="6.19507">
        <ele>2320.1999511719</ele>
        <time>2014-03-02T10:10:30.000Z</time>
      </trkpt>
      <trkpt lat="45.33538" lon="6.19508">
        <ele>2320</ele>
        <time>2014-03-02T10:10:31.000Z</time>
      </trkpt>
      <trkpt lat="45.33538" lon="6.19509">
        <ele>2320</ele>
        <time>2014-03-02T10:10:32.000Z</time>
      </trkpt>
      <trkpt lat="45.33538" lon="6.19509">
        <ele>2320</ele>
        <time>2014-03-02T10:10:33.000Z</time>
      </trkpt>
      <trkpt lat="45.33538" lon="6.19509">
        <ele>2320</ele>
        <time>2014-03-02T10:10:34.000Z</time>
      </trkpt>
      <trkpt lat="45.33538" lon="6.19509">
        <ele>2320</ele>
        <time>2014-03-02T10:10:35.000Z</time>
      </trkpt>
      <trkpt lat="45.33538" lon="6.19509">
        <ele>2320</ele>
        <time>2014-03-02T10:10:36.000Z</time>
      </trkpt>
      <trkpt lat="45.33538" lon="6.19509">
        <ele>2320</ele>
        <time>2014-03-02T10:10:37.000Z</time>
      </trkpt>
      <trkpt lat="45.33539" lon="6.19509">
        <ele>2320.8000488281</ele>
        <time>2014-03-02T10:10:38.000Z</time>
      </trkpt>
      <trkpt lat="45.33539" lon="6.19509">
        <ele>2320.8000488281</ele>
        <time>2014-03-02T10:10:39.000Z</time>
      </trkpt>
      <trkpt lat="45.3354" lon="6.19508">
        <ele>2321.3999023438</ele>
        <time>2014-03-02T10:10:40.000Z</time>
      </trkpt>
      <trkpt lat="45.3354" lon="6.19508">
        <ele>2321.3999023438</ele>
        <time>2014-03-02T10:10:41.000Z</time>
      </trkpt>
      <trkpt lat="45.33541" lon="6.19508">
        <ele>2322.6000976562</ele>
        <time>2014-03-02T10:10:43.000Z</time>
      </trkpt>
      <trkpt lat="45.33542" lon="6.19508">
        <ele>2323</ele>
        <time>2014-03-02T10:10:44.000Z</time>
      </trkpt>
      <trkpt lat="45.33543" lon="6.19507">
        <ele>2323.6000976562</ele>
        <time>2014-03-02T10:10:45.000Z</time>
      </trkpt>
      <trkpt lat="45.33544" lon="6.19507">
        <ele>2324.3999023438</ele>
        <time>2014-03-02T10:10:46.000Z</time>
      </trkpt>
      <trkpt lat="45.33544" lon="6.19506">
        <ele>2325.1999511719</ele>
        <time>2014-03-02T10:10:47.000Z</time>
      </trkpt>
      <trkpt lat="45.33545" lon="6.19506">
        <ele>2325.6000976562</ele>
        <time>2014-03-02T10:10:48.000Z</time>
      </trkpt>
      <trkpt lat="45.33545" lon="6.19505">
        <ele>2326.1999511719</ele>
        <time>2014-03-02T10:10:49.000Z</time>
      </trkpt>
      <trkpt lat="45.33546" lon="6.19505">
        <ele>2326.6000976562</ele>
        <time>2014-03-02T10:10:50.000Z</time>
      </trkpt>
      <trkpt lat="45.33546" lon="6.19505">
        <ele>2326.6000976562</ele>
        <time>2014-03-02T10:10:51.000Z</time>
      </trkpt>
      <trkpt lat="45.33546" lon="6.19504">
        <ele>2327</ele>
        <time>2014-03-02T10:10:52.000Z</time>
      </trkpt>
      <trkpt lat="45.33546" lon="6.19504">
        <ele>2327</ele>
        <time>2014-03-02T10:10:53.000Z</time>
      </trkpt>
      <trkpt lat="45.33547" lon="6.19503">
        <ele>2327.8000488281</ele>
        <time>2014-03-02T10:10:54.000Z</time>
      </trkpt>
      <trkpt lat="45.33548" lon="6.19502">
        <ele>2328.1999511719</ele>
        <time>2014-03-02T10:10:55.000Z</time>
      </trkpt>
      <trkpt lat="45.33548" lon="6.19502">
        <ele>2328.1999511719</ele>
        <time>2014-03-02T10:10:56.000Z</time>
      </trkpt>
      <trkpt lat="45.33548" lon="6.19502">
        <ele>2328.6000976562</ele>
        <time>2014-03-02T10:10:57.000Z</time>
      </trkpt>
      <trkpt lat="45.33548" lon="6.19502">
        <ele>2328.6000976562</ele>
        <time>2014-03-02T10:10:58.000Z</time>
      </trkpt>
      <trkpt lat="45.33549" lon="6.19501">
        <ele>2328.8000488281</ele>
        <time>2014-03-02T10:10:59.000Z</time>
      </trkpt>
      <trkpt lat="45.33549" lon="6.19501">
        <ele>2328.8000488281</ele>
        <time>2014-03-02T10:11:00.000Z</time>
      </trkpt>
      <trkpt lat="45.33549" lon="6.195">
        <ele>2329.1999511719</ele>
        <time>2014-03-02T10:11:01.000Z</time>
      </trkpt>
      <trkpt lat="45.33549" lon="6.195">
        <ele>2329.1999511719</ele>
        <time>2014-03-02T10:11:02.000Z</time>
      </trkpt>
      <trkpt lat="45.33549" lon="6.19499">
        <ele>2329.3999023438</ele>
        <time>2014-03-02T10:11:03.000Z</time>
      </trkpt>
      <trkpt lat="45.33549" lon="6.19499">
        <ele>2329.3999023438</ele>
        <time>2014-03-02T10:11:04.000Z</time>
      </trkpt>
      <trkpt lat="45.33549" lon="6.19498">
        <ele>2329.6000976562</ele>
        <time>2014-03-02T10:11:05.000Z</time>
      </trkpt>
      <trkpt lat="45.33549" lon="6.19498">
        <ele>2329.6000976562</ele>
        <time>2014-03-02T10:11:06.000Z</time>
      </trkpt>
      <trkpt lat="45.33549" lon="6.19498">
        <ele>2329.6000976562</ele>
        <time>2014-03-02T10:11:07.000Z</time>
      </trkpt>
      <trkpt lat="45.33549" lon="6.19498">
        <ele>2329.6000976562</ele>
        <time>2014-03-02T10:11:08.000Z</time>
      </trkpt>
      <trkpt lat="45.33549" lon="6.19498">
        <ele>2329.6000976562</ele>
        <time>2014-03-02T10:11:09.000Z</time>
      </trkpt>
      <trkpt lat="45.33549" lon="6.19498">
        <ele>2329.6000976562</ele>
        <time>2014-03-02T10:11:10.000Z</time>
      </trkpt>
      <trkpt lat="45.33549" lon="6.19498">
        <ele>2329.6000976562</ele>
        <time>2014-03-02T10:11:11.000Z</time>
      </trkpt>
      <trkpt lat="45.33549" lon="6.19498">
        <ele>2329.8000488281</ele>
        <time>2014-03-02T10:11:12.000Z</time>
      </trkpt>
      <trkpt lat="45.3355" lon="6.19497">
        <ele>2330</ele>
        <time>2014-03-02T10:11:13.000Z</time>
      </trkpt>
      <trkpt lat="45.3355" lon="6.19496">
        <ele>2330.3999023438</ele>
        <time>2014-03-02T10:11:14.000Z</time>
      </trkpt>
      <trkpt lat="45.33551" lon="6.19496">
        <ele>2330.6000976562</ele>
        <time>2014-03-02T10:11:15.000Z</time>
      </trkpt>
      <trkpt lat="45.33551" lon="6.19496">
        <ele>2330.6000976562</ele>
        <time>2014-03-02T10:11:16.000Z</time>
      </trkpt>
      <trkpt lat="45.33551" lon="6.19496">
        <ele>2330.6000976562</ele>
        <time>2014-03-02T10:11:17.000Z</time>
      </trkpt>
      <trkpt lat="45.33551" lon="6.19496">
        <ele>2330.6000976562</ele>
        <time>2014-03-02T10:11:18.000Z</time>
      </trkpt>
      <trkpt lat="45.33551" lon="6.19496">
        <ele>2330.6000976562</ele>
        <time>2014-03-02T10:11:19.000Z</time>
      </trkpt>
      <trkpt lat="45.33551" lon="6.19496">
        <ele>2330.6000976562</ele>
        <time>2014-03-02T10:11:20.000Z</time>
      </trkpt>
      <trkpt lat="45.33551" lon="6.19497">
        <ele>2330.6000976562</ele>
        <time>2014-03-02T10:11:21.000Z</time>
      </trkpt>
      <trkpt lat="45.33551" lon="6.19497">
        <ele>2330.6000976562</ele>
        <time>2014-03-02T10:11:22.000Z</time>
      </trkpt>
      <trkpt lat="45.33552" lon="6.19497">
        <ele>2330.6000976562</ele>
        <time>2014-03-02T10:11:23.000Z</time>
      </trkpt>
      <trkpt lat="45.33552" lon="6.19497">
        <ele>2330.6000976562</ele>
        <time>2014-03-02T10:11:24.000Z</time>
      </trkpt>
      <trkpt lat="45.33553" lon="6.19499">
        <ele>2330.8000488281</ele>
        <time>2014-03-02T10:11:28.000Z</time>
      </trkpt>
      <trkpt lat="45.33553" lon="6.195">
        <ele>2330.8000488281</ele>
        <time>2014-03-02T10:11:29.000Z</time>
      </trkpt>
      <trkpt lat="45.33554" lon="6.19501">
        <ele>2330.6000976562</ele>
        <time>2014-03-02T10:11:30.000Z</time>
      </trkpt>
      <trkpt lat="45.33554" lon="6.19502">
        <ele>2330.6000976562</ele>
        <time>2014-03-02T10:11:31.000Z</time>
      </trkpt>
      <trkpt lat="45.33554" lon="6.19503">
        <ele>2330.3999023438</ele>
        <time>2014-03-02T10:11:32.000Z</time>
      </trkpt>
      <trkpt lat="45.33554" lon="6.19504">
        <ele>2330.1999511719</ele>
        <time>2014-03-02T10:11:33.000Z</time>
      </trkpt>
      <trkpt lat="45.33554" lon="6.19505">
        <ele>2330</ele>
        <time>2014-03-02T10:11:34.000Z</time>
      </trkpt>
      <trkpt lat="45.33554" lon="6.19506">
        <ele>2330</ele>
        <time>2014-03-02T10:11:35.000Z</time>
      </trkpt>
      <trkpt lat="45.33554" lon="6.19506">
        <ele>2330</ele>
        <time>2014-03-02T10:11:36.000Z</time>
      </trkpt>
      <trkpt lat="45.33555" lon="6.19507">
        <ele>2330</ele>
        <time>2014-03-02T10:11:37.000Z</time>
      </trkpt>
      <trkpt lat="45.33555" lon="6.19507">
        <ele>2330</ele>
        <time>2014-03-02T10:11:38.000Z</time>
      </trkpt>
      <trkpt lat="45.33555" lon="6.19508">
        <ele>2329.8000488281</ele>
        <time>2014-03-02T10:11:39.000Z</time>
      </trkpt>
      <trkpt lat="45.33555" lon="6.19508">
        <ele>2329.8000488281</ele>
        <time>2014-03-02T10:11:40.000Z</time>
      </trkpt>
      <trkpt lat="45.33555" lon="6.19509">
        <ele>2329.6000976562</ele>
        <time>2014-03-02T10:11:41.000Z</time>
      </trkpt>
      <trkpt lat="45.33555" lon="6.19509">
        <ele>2329.6000976562</ele>
        <time>2014-03-02T10:11:42.000Z</time>
      </trkpt>
      <trkpt lat="45.33555" lon="6.1951">
        <ele>2329.6000976562</ele>
        <time>2014-03-02T10:11:43.000Z</time>
      </trkpt>
      <trkpt lat="45.33555" lon="6.19511">
        <ele>2329.3999023438</ele>
        <time>2014-03-02T10:11:44.000Z</time>
      </trkpt>
      <trkpt lat="45.33555" lon="6.19512">
        <ele>2329.1999511719</ele>
        <time>2014-03-02T10:11:45.000Z</time>
      </trkpt>
      <trkpt lat="45.33556" lon="6.19513">
        <ele>2329</ele>
        <time>2014-03-02T10:11:46.000Z</time>
      </trkpt>
      <trkpt lat="45.33556" lon="6.19514">
        <ele>2328.8000488281</ele>
        <time>2014-03-02T10:11:47.000Z</time>
      </trkpt>
      <trkpt lat="45.33556" lon="6.19514">
        <ele>2328.8000488281</ele>
        <time>2014-03-02T10:11:48.000Z</time>
      </trkpt>
      <trkpt lat="45.33556" lon="6.19515">
        <ele>2328.8000488281</ele>
        <time>2014-03-02T10:11:49.000Z</time>
      </trkpt>
      <trkpt lat="45.33556" lon="6.19515">
        <ele>2328.8000488281</ele>
        <time>2014-03-02T10:11:50.000Z</time>
      </trkpt>
      <trkpt lat="45.33556" lon="6.19516">
        <ele>2328.6000976562</ele>
        <time>2014-03-02T10:11:51.000Z</time>
      </trkpt>
      <trkpt lat="45.33556" lon="6.19516">
        <ele>2328.6000976562</ele>
        <time>2014-03-02T10:11:52.000Z</time>
      </trkpt>
      <trkpt lat="45.33556" lon="6.19516">
        <ele>2328.6000976562</ele>
        <time>2014-03-02T10:11:53.000Z</time>
      </trkpt>
      <trkpt lat="45.33556" lon="6.19516">
        <ele>2328.6000976562</ele>
        <time>2014-03-02T10:11:54.000Z</time>
      </trkpt>
      <trkpt lat="45.33556" lon="6.19516">
        <ele>2328.6000976562</ele>
        <time>2014-03-02T10:11:55.000Z</time>
      </trkpt>
      <trkpt lat="45.33556" lon="6.19516">
        <ele>2328.6000976562</ele>
        <time>2014-03-02T10:11:56.000Z</time>
      </trkpt>
      <trkpt lat="45.33556" lon="6.19516">
        <ele>2328.6000976562</ele>
        <time>2014-03-02T10:11:57.000Z</time>
      </trkpt>
      <trkpt lat="45.33556" lon="6.19516">
        <ele>2328.6000976562</ele>
        <time>2014-03-02T10:11:58.000Z</time>
      </trkpt>
      <trkpt lat="45.33556" lon="6.19516">
        <ele>2328.6000976562</ele>
        <time>2014-03-02T10:11:59.000Z</time>
      </trkpt>
      <trkpt lat="45.33556" lon="6.19516">
        <ele>2328.6000976562</ele>
        <time>2014-03-02T10:12:00.000Z</time>
      </trkpt>
      <trkpt lat="45.33556" lon="6.19516">
        <ele>2328.6000976562</ele>
        <time>2014-03-02T10:12:01.000Z</time>
      </trkpt>
      <trkpt lat="45.33557" lon="6.19515">
        <ele>2329</ele>
        <time>2014-03-02T10:12:02.000Z</time>
      </trkpt>
      <trkpt lat="45.33557" lon="6.19515">
        <ele>2329.1999511719</ele>
        <time>2014-03-02T10:12:03.000Z</time>
      </trkpt>
      <trkpt lat="45.33558" lon="6.19515">
        <ele>2329.3999023438</ele>
        <time>2014-03-02T10:12:04.000Z</time>
      </trkpt>
      <trkpt lat="45.33558" lon="6.19515">
        <ele>2329.8000488281</ele>
        <time>2014-03-02T10:12:05.000Z</time>
      </trkpt>
      <trkpt lat="45.33559" lon="6.19514">
        <ele>2330</ele>
        <time>2014-03-02T10:12:06.000Z</time>
      </trkpt>
      <trkpt lat="45.33559" lon="6.19514">
        <ele>2330.1999511719</ele>
        <time>2014-03-02T10:12:07.000Z</time>
      </trkpt>
      <trkpt lat="45.3356" lon="6.19513">
        <ele>2330.3999023438</ele>
        <time>2014-03-02T10:12:08.000Z</time>
      </trkpt>
      <trkpt lat="45.3356" lon="6.19513">
        <ele>2330.8000488281</ele>
        <time>2014-03-02T10:12:09.000Z</time>
      </trkpt>
      <trkpt lat="45.33561" lon="6.19513">
        <ele>2330.8000488281</ele>
        <time>2014-03-02T10:12:10.000Z</time>
      </trkpt>
      <trkpt lat="45.33561" lon="6.19513">
        <ele>2330.8000488281</ele>
        <time>2014-03-02T10:12:11.000Z</time>
      </trkpt>
      <trkpt lat="45.33561" lon="6.19512">
        <ele>2331.1999511719</ele>
        <time>2014-03-02T10:12:12.000Z</time>
      </trkpt>
      <trkpt lat="45.33561" lon="6.19512">
        <ele>2331.1999511719</ele>
        <time>2014-03-02T10:12:13.000Z</time>
      </trkpt>
      <trkpt lat="45.33562" lon="6.19512">
        <ele>2331.6000976562</ele>
        <time>2014-03-02T10:12:14.000Z</time>
      </trkpt>
      <trkpt lat="45.33562" lon="6.19512">
        <ele>2331.6000976562</ele>
        <time>2014-03-02T10:12:15.000Z</time>
      </trkpt>
      <trkpt lat="45.33562" lon="6.19511">
        <ele>2331.6000976562</ele>
        <time>2014-03-02T10:12:16.000Z</time>
      </trkpt>
      <trkpt lat="45.33562" lon="6.19511">
        <ele>2331.6000976562</ele>
        <time>2014-03-02T10:12:17.000Z</time>
      </trkpt>
      <trkpt lat="45.33562" lon="6.19511">
        <ele>2332</ele>
        <time>2014-03-02T10:12:18.000Z</time>
      </trkpt>
      <trkpt lat="45.33562" lon="6.19511">
        <ele>2332</ele>
        <time>2014-03-02T10:12:19.000Z</time>
      </trkpt>
      <trkpt lat="45.33563" lon="6.1951">
        <ele>2332.3999023438</ele>
        <time>2014-03-02T10:12:20.000Z</time>
      </trkpt>
      <trkpt lat="45.33563" lon="6.1951">
        <ele>2332.3999023438</ele>
        <time>2014-03-02T10:12:21.000Z</time>
      </trkpt>
      <trkpt lat="45.33563" lon="6.19509">
        <ele>2332.8000488281</ele>
        <time>2014-03-02T10:12:22.000Z</time>
      </trkpt>
      <trkpt lat="45.33563" lon="6.19509">
        <ele>2332.8000488281</ele>
        <time>2014-03-02T10:12:23.000Z</time>
      </trkpt>
      <trkpt lat="45.33564" lon="6.19508">
        <ele>2333.1999511719</ele>
        <time>2014-03-02T10:12:24.000Z</time>
      </trkpt>
      <trkpt lat="45.33564" lon="6.19508">
        <ele>2333.1999511719</ele>
        <time>2014-03-02T10:12:25.000Z</time>
      </trkpt>
      <trkpt lat="45.33564" lon="6.19507">
        <ele>2333.3999023438</ele>
        <time>2014-03-02T10:12:26.000Z</time>
      </trkpt>
      <trkpt lat="45.33564" lon="6.19507">
        <ele>2333.3999023438</ele>
        <time>2014-03-02T10:12:27.000Z</time>
      </trkpt>
      <trkpt lat="45.33564" lon="6.19505">
        <ele>2333.8000488281</ele>
        <time>2014-03-02T10:12:28.000Z</time>
      </trkpt>
      <trkpt lat="45.33564" lon="6.19505">
        <ele>2333.8000488281</ele>
        <time>2014-03-02T10:12:29.000Z</time>
      </trkpt>
      <trkpt lat="45.33564" lon="6.19504">
        <ele>2334</ele>
        <time>2014-03-02T10:12:30.000Z</time>
      </trkpt>
      <trkpt lat="45.33564" lon="6.19504">
        <ele>2334</ele>
        <time>2014-03-02T10:12:31.000Z</time>
      </trkpt>
      <trkpt lat="45.33564" lon="6.19503">
        <ele>2334.1999511719</ele>
        <time>2014-03-02T10:12:32.000Z</time>
      </trkpt>
      <trkpt lat="45.33564" lon="6.19503">
        <ele>2334.1999511719</ele>
        <time>2014-03-02T10:12:33.000Z</time>
      </trkpt>
      <trkpt lat="45.33564" lon="6.19503">
        <ele>2334.1999511719</ele>
        <time>2014-03-02T10:12:34.000Z</time>
      </trkpt>
      <trkpt lat="45.33564" lon="6.19503">
        <ele>2334.1999511719</ele>
        <time>2014-03-02T10:12:35.000Z</time>
      </trkpt>
      <trkpt lat="45.33564" lon="6.19503">
        <ele>2334.1999511719</ele>
        <time>2014-03-02T10:12:36.000Z</time>
      </trkpt>
      <trkpt lat="45.33564" lon="6.19503">
        <ele>2334.1999511719</ele>
        <time>2014-03-02T10:12:37.000Z</time>
      </trkpt>
      <trkpt lat="45.33564" lon="6.19503">
        <ele>2334.3999023438</ele>
        <time>2014-03-02T10:12:38.000Z</time>
      </trkpt>
      <trkpt lat="45.33564" lon="6.19503">
        <ele>2334.3999023438</ele>
        <time>2014-03-02T10:12:39.000Z</time>
      </trkpt>
      <trkpt lat="45.33565" lon="6.19502">
        <ele>2334.6000976562</ele>
        <time>2014-03-02T10:12:40.000Z</time>
      </trkpt>
      <trkpt lat="45.33565" lon="6.19502">
        <ele>2334.6000976562</ele>
        <time>2014-03-02T10:12:41.000Z</time>
      </trkpt>
      <trkpt lat="45.33565" lon="6.19502">
        <ele>2334.6000976562</ele>
        <time>2014-03-02T10:12:42.000Z</time>
      </trkpt>
      <trkpt lat="45.33565" lon="6.19502">
        <ele>2334.6000976562</ele>
        <time>2014-03-02T10:12:43.000Z</time>
      </trkpt>
      <trkpt lat="45.33565" lon="6.19502">
        <ele>2334.6000976562</ele>
        <time>2014-03-02T10:12:44.000Z</time>
      </trkpt>
      <trkpt lat="45.33565" lon="6.19502">
        <ele>2334.6000976562</ele>
        <time>2014-03-02T10:12:45.000Z</time>
      </trkpt>
      <trkpt lat="45.33565" lon="6.19502">
        <ele>2334.6000976562</ele>
        <time>2014-03-02T10:12:46.000Z</time>
      </trkpt>
      <trkpt lat="45.33565" lon="6.19502">
        <ele>2334.6000976562</ele>
        <time>2014-03-02T10:12:47.000Z</time>
      </trkpt>
      <trkpt lat="45.33565" lon="6.19503">
        <ele>2334.8000488281</ele>
        <time>2014-03-02T10:12:48.000Z</time>
      </trkpt>
      <trkpt lat="45.33565" lon="6.19503">
        <ele>2334.8000488281</ele>
        <time>2014-03-02T10:12:49.000Z</time>
      </trkpt>
      <trkpt lat="45.33567" lon="6.19504">
        <ele>2335</ele>
        <time>2014-03-02T10:12:51.000Z</time>
      </trkpt>
      <trkpt lat="45.33567" lon="6.19505">
        <ele>2335.1999511719</ele>
        <time>2014-03-02T10:12:52.000Z</time>
      </trkpt>
      <trkpt lat="45.33568" lon="6.19505">
        <ele>2335.1999511719</ele>
        <time>2014-03-02T10:12:53.000Z</time>
      </trkpt>
      <trkpt lat="45.33569" lon="6.19506">
        <ele>2335.3999023438</ele>
        <time>2014-03-02T10:12:54.000Z</time>
      </trkpt>
      <trkpt lat="45.33569" lon="6.19506">
        <ele>2335.3999023438</ele>
        <time>2014-03-02T10:12:55.000Z</time>
      </trkpt>
      <trkpt lat="45.33569" lon="6.19507">
        <ele>2335.3999023438</ele>
        <time>2014-03-02T10:12:56.000Z</time>
      </trkpt>
      <trkpt lat="45.3357" lon="6.19507">
        <ele>2335.3999023438</ele>
        <time>2014-03-02T10:12:57.000Z</time>
      </trkpt>
      <trkpt lat="45.3357" lon="6.19508">
        <ele>2335.3999023438</ele>
        <time>2014-03-02T10:12:58.000Z</time>
      </trkpt>
      <trkpt lat="45.33571" lon="6.19509">
        <ele>2335.3999023438</ele>
        <time>2014-03-02T10:12:59.000Z</time>
      </trkpt>
      <trkpt lat="45.33571" lon="6.1951">
        <ele>2335.3999023438</ele>
        <time>2014-03-02T10:13:00.000Z</time>
      </trkpt>
      <trkpt lat="45.33572" lon="6.19511">
        <ele>2335.3999023438</ele>
        <time>2014-03-02T10:13:01.000Z</time>
      </trkpt>
      <trkpt lat="45.33572" lon="6.19512">
        <ele>2335.1999511719</ele>
        <time>2014-03-02T10:13:02.000Z</time>
      </trkpt>
      <trkpt lat="45.33573" lon="6.19513">
        <ele>2335.3999023438</ele>
        <time>2014-03-02T10:13:03.000Z</time>
      </trkpt>
      <trkpt lat="45.33573" lon="6.19514">
        <ele>2335.3999023438</ele>
        <time>2014-03-02T10:13:04.000Z</time>
      </trkpt>
      <trkpt lat="45.33574" lon="6.19515">
        <ele>2335.3999023438</ele>
        <time>2014-03-02T10:13:05.000Z</time>
      </trkpt>
      <trkpt lat="45.33574" lon="6.19516">
        <ele>2335.1999511719</ele>
        <time>2014-03-02T10:13:06.000Z</time>
      </trkpt>
      <trkpt lat="45.33574" lon="6.19517">
        <ele>2335.1999511719</ele>
        <time>2014-03-02T10:13:07.000Z</time>
      </trkpt>
      <trkpt lat="45.33574" lon="6.19517">
        <ele>2335</ele>
        <time>2014-03-02T10:13:08.000Z</time>
      </trkpt>
      <trkpt lat="45.33574" lon="6.19518">
        <ele>2334.8000488281</ele>
        <time>2014-03-02T10:13:09.000Z</time>
      </trkpt>
      <trkpt lat="45.33574" lon="6.19519">
        <ele>2334.3999023438</ele>
        <time>2014-03-02T10:13:10.000Z</time>
      </trkpt>
      <trkpt lat="45.33574" lon="6.1952">
        <ele>2334.1999511719</ele>
        <time>2014-03-02T10:13:11.000Z</time>
      </trkpt>
      <trkpt lat="45.33573" lon="6.19521">
        <ele>2334</ele>
        <time>2014-03-02T10:13:12.000Z</time>
      </trkpt>
      <trkpt lat="45.33573" lon="6.19522">
        <ele>2333.8000488281</ele>
        <time>2014-03-02T10:13:13.000Z</time>
      </trkpt>
      <trkpt lat="45.33574" lon="6.19523">
        <ele>2333.8000488281</ele>
        <time>2014-03-02T10:13:14.000Z</time>
      </trkpt>
      <trkpt lat="45.33574" lon="6.19524">
        <ele>2333.8000488281</ele>
        <time>2014-03-02T10:13:15.000Z</time>
      </trkpt>
      <trkpt lat="45.33575" lon="6.19524">
        <ele>2333.8000488281</ele>
        <time>2014-03-02T10:13:16.000Z</time>
      </trkpt>
      <trkpt lat="45.33575" lon="6.19524">
        <ele>2333.8000488281</ele>
        <time>2014-03-02T10:13:17.000Z</time>
      </trkpt>
      <trkpt lat="45.33575" lon="6.19525">
        <ele>2333.8000488281</ele>
        <time>2014-03-02T10:13:18.000Z</time>
      </trkpt>
      <trkpt lat="45.33575" lon="6.19526">
        <ele>2333.6000976562</ele>
        <time>2014-03-02T10:13:19.000Z</time>
      </trkpt>
      <trkpt lat="45.33575" lon="6.19527">
        <ele>2333.6000976562</ele>
        <time>2014-03-02T10:13:20.000Z</time>
      </trkpt>
      <trkpt lat="45.33576" lon="6.19527">
        <ele>2333.6000976562</ele>
        <time>2014-03-02T10:13:21.000Z</time>
      </trkpt>
      <trkpt lat="45.33576" lon="6.19527">
        <ele>2333.6000976562</ele>
        <time>2014-03-02T10:13:22.000Z</time>
      </trkpt>
      <trkpt lat="45.33576" lon="6.19528">
        <ele>2333.6000976562</ele>
        <time>2014-03-02T10:13:23.000Z</time>
      </trkpt>
      <trkpt lat="45.33577" lon="6.19529">
        <ele>2333.6000976562</ele>
        <time>2014-03-02T10:13:24.000Z</time>
      </trkpt>
      <trkpt lat="45.33577" lon="6.1953">
        <ele>2333.3999023438</ele>
        <time>2014-03-02T10:13:25.000Z</time>
      </trkpt>
      <trkpt lat="45.33577" lon="6.1953">
        <ele>2333.3999023438</ele>
        <time>2014-03-02T10:13:26.000Z</time>
      </trkpt>
      <trkpt lat="45.33577" lon="6.19531">
        <ele>2333.3999023438</ele>
        <time>2014-03-02T10:13:27.000Z</time>
      </trkpt>
      <trkpt lat="45.33578" lon="6.19531">
        <ele>2333.3999023438</ele>
        <time>2014-03-02T10:13:28.000Z</time>
      </trkpt>
      <trkpt lat="45.33578" lon="6.19532">
        <ele>2333.3999023438</ele>
        <time>2014-03-02T10:13:29.000Z</time>
      </trkpt>
      <trkpt lat="45.33578" lon="6.19533">
        <ele>2333.3999023438</ele>
        <time>2014-03-02T10:13:30.000Z</time>
      </trkpt>
      <trkpt lat="45.33578" lon="6.19533">
        <ele>2333.1999511719</ele>
        <time>2014-03-02T10:13:31.000Z</time>
      </trkpt>
      <trkpt lat="45.33579" lon="6.19534">
        <ele>2333.3999023438</ele>
        <time>2014-03-02T10:13:32.000Z</time>
      </trkpt>
      <trkpt lat="45.33579" lon="6.19535">
        <ele>2333.3999023438</ele>
        <time>2014-03-02T10:13:33.000Z</time>
      </trkpt>
      <trkpt lat="45.3358" lon="6.19535">
        <ele>2333.3999023438</ele>
        <time>2014-03-02T10:13:34.000Z</time>
      </trkpt>
      <trkpt lat="45.3358" lon="6.19536">
        <ele>2333.3999023438</ele>
        <time>2014-03-02T10:13:35.000Z</time>
      </trkpt>
      <trkpt lat="45.3358" lon="6.19536">
        <ele>2333.6000976562</ele>
        <time>2014-03-02T10:13:36.000Z</time>
      </trkpt>
      <trkpt lat="45.33581" lon="6.19536">
        <ele>2333.6000976562</ele>
        <time>2014-03-02T10:13:37.000Z</time>
      </trkpt>
      <trkpt lat="45.33581" lon="6.19536">
        <ele>2333.6000976562</ele>
        <time>2014-03-02T10:13:38.000Z</time>
      </trkpt>
      <trkpt lat="45.33581" lon="6.19537">
        <ele>2333.6000976562</ele>
        <time>2014-03-02T10:13:39.000Z</time>
      </trkpt>
      <trkpt lat="45.33581" lon="6.19538">
        <ele>2333.6000976562</ele>
        <time>2014-03-02T10:13:40.000Z</time>
      </trkpt>
      <trkpt lat="45.33581" lon="6.19538">
        <ele>2333.1999511719</ele>
        <time>2014-03-02T10:13:41.000Z</time>
      </trkpt>
      <trkpt lat="45.33581" lon="6.19538">
        <ele>2333.1999511719</ele>
        <time>2014-03-02T10:13:42.000Z</time>
      </trkpt>
      <trkpt lat="45.33581" lon="6.19538">
        <ele>2333.1999511719</ele>
        <time>2014-03-02T10:13:43.000Z</time>
      </trkpt>
      <trkpt lat="45.33581" lon="6.19538">
        <ele>2333.1999511719</ele>
        <time>2014-03-02T10:13:44.000Z</time>
      </trkpt>
      <trkpt lat="45.33581" lon="6.19538">
        <ele>2333.1999511719</ele>
        <time>2014-03-02T10:13:47.000Z</time>
      </trkpt>
      <trkpt lat="45.33581" lon="6.19538">
        <ele>2333.1999511719</ele>
        <time>2014-03-02T10:13:48.000Z</time>
      </trkpt>
      <trkpt lat="45.33581" lon="6.19538">
        <ele>2333.1999511719</ele>
        <time>2014-03-02T10:13:49.000Z</time>
      </trkpt>
      <trkpt lat="45.33581" lon="6.19538">
        <ele>2333.1999511719</ele>
        <time>2014-03-02T10:13:50.000Z</time>
      </trkpt>
      <trkpt lat="45.33581" lon="6.19538">
        <ele>2333.1999511719</ele>
        <time>2014-03-02T10:13:57.000Z</time>
      </trkpt>
      <trkpt lat="45.33581" lon="6.19538">
        <ele>2333.1999511719</ele>
        <time>2014-03-02T10:14:00.000Z</time>
      </trkpt>
      <trkpt lat="45.33581" lon="6.19538">
        <ele>2333.1999511719</ele>
        <time>2014-03-02T10:14:02.000Z</time>
      </trkpt>
      <trkpt lat="45.33581" lon="6.19538">
        <ele>2333.1999511719</ele>
        <time>2014-03-02T10:14:03.000Z</time>
      </trkpt>
      <trkpt lat="45.33581" lon="6.19538">
        <ele>2333.1999511719</ele>
        <time>2014-03-02T10:14:06.000Z</time>
      </trkpt>
      <trkpt lat="45.33581" lon="6.19538">
        <ele>2333.1999511719</ele>
        <time>2014-03-02T10:14:12.000Z</time>
      </trkpt>
      <trkpt lat="45.33581" lon="6.19538">
        <ele>2333.1999511719</ele>
        <time>2014-03-02T10:14:13.000Z</time>
      </trkpt>
      <trkpt lat="45.33581" lon="6.19538">
        <ele>2333.1999511719</ele>
        <time>2014-03-02T10:14:14.000Z</time>
      </trkpt>
      <trkpt lat="45.33581" lon="6.19538">
        <ele>2333.1999511719</ele>
        <time>2014-03-02T10:14:15.000Z</time>
      </trkpt>
      <trkpt lat="45.33581" lon="6.19538">
        <ele>2333.1999511719</ele>
        <time>2014-03-02T10:14:18.000Z</time>
      </trkpt>
      <trkpt lat="45.33581" lon="6.19538">
        <ele>2333.1999511719</ele>
        <time>2014-03-02T10:14:19.000Z</time>
      </trkpt>
      <trkpt lat="45.33581" lon="6.19538">
        <ele>2333.1999511719</ele>
        <time>2014-03-02T10:14:20.000Z</time>
      </trkpt>
      <trkpt lat="45.33581" lon="6.19538">
        <ele>2333.1999511719</ele>
        <time>2014-03-02T10:14:21.000Z</time>
      </trkpt>
      <trkpt lat="45.33581" lon="6.19538">
        <ele>2333.1999511719</ele>
        <time>2014-03-02T10:14:23.000Z</time>
      </trkpt>
      <trkpt lat="45.33581" lon="6.19538">
        <ele>2333.1999511719</ele>
        <time>2014-03-02T10:14:24.000Z</time>
      </trkpt>
      <trkpt lat="45.33581" lon="6.19538">
        <ele>2333.1999511719</ele>
        <time>2014-03-02T10:14:25.000Z</time>
      </trkpt>
      <trkpt lat="45.33581" lon="6.19538">
        <ele>2333.1999511719</ele>
        <time>2014-03-02T10:14:27.000Z</time>
      </trkpt>
      <trkpt lat="45.33581" lon="6.19538">
        <ele>2333.1999511719</ele>
        <time>2014-03-02T10:14:29.000Z</time>
      </trkpt>
      <trkpt lat="45.33581" lon="6.19538">
        <ele>2333.1999511719</ele>
        <time>2014-03-02T10:14:30.000Z</time>
      </trkpt>
      <trkpt lat="45.33581" lon="6.19538">
        <ele>2333.1999511719</ele>
        <time>2014-03-02T10:14:31.000Z</time>
      </trkpt>
      <trkpt lat="45.33581" lon="6.19538">
        <ele>2333.1999511719</ele>
        <time>2014-03-02T10:14:32.000Z</time>
      </trkpt>
      <trkpt lat="45.33581" lon="6.19538">
        <ele>2333.1999511719</ele>
        <time>2014-03-02T10:14:34.000Z</time>
      </trkpt>
      <trkpt lat="45.33581" lon="6.19538">
        <ele>2333.1999511719</ele>
        <time>2014-03-02T10:14:35.000Z</time>
      </trkpt>
      <trkpt lat="45.33581" lon="6.19538">
        <ele>2333.1999511719</ele>
        <time>2014-03-02T10:14:37.000Z</time>
      </trkpt>
      <trkpt lat="45.33581" lon="6.19538">
        <ele>2333.1999511719</ele>
        <time>2014-03-02T10:14:38.000Z</time>
      </trkpt>
      <trkpt lat="45.33582" lon="6.19539">
        <ele>2333.3999023438</ele>
        <time>2014-03-02T10:14:39.000Z</time>
      </trkpt>
      <trkpt lat="45.33582" lon="6.19539">
        <ele>2333.6000976562</ele>
        <time>2014-03-02T10:14:40.000Z</time>
      </trkpt>
      <trkpt lat="45.33583" lon="6.1954">
        <ele>2333.8000488281</ele>
        <time>2014-03-02T10:14:41.000Z</time>
      </trkpt>
      <trkpt lat="45.33584" lon="6.19541">
        <ele>2333.8000488281</ele>
        <time>2014-03-02T10:14:42.000Z</time>
      </trkpt>
      <trkpt lat="45.33585" lon="6.19541">
        <ele>2334.1999511719</ele>
        <time>2014-03-02T10:14:43.000Z</time>
      </trkpt>
      <trkpt lat="45.33586" lon="6.19542">
        <ele>2334.3999023438</ele>
        <time>2014-03-02T10:14:44.000Z</time>
      </trkpt>
      <trkpt lat="45.33586" lon="6.19542">
        <ele>2334.6000976562</ele>
        <time>2014-03-02T10:14:45.000Z</time>
      </trkpt>
      <trkpt lat="45.33587" lon="6.19543">
        <ele>2334.6000976562</ele>
        <time>2014-03-02T10:14:46.000Z</time>
      </trkpt>
      <trkpt lat="45.33587" lon="6.19543">
        <ele>2334.6000976562</ele>
        <time>2014-03-02T10:14:47.000Z</time>
      </trkpt>
      <trkpt lat="45.33588" lon="6.19544">
        <ele>2334.6000976562</ele>
        <time>2014-03-02T10:14:48.000Z</time>
      </trkpt>
      <trkpt lat="45.33588" lon="6.19545">
        <ele>2334.6000976562</ele>
        <time>2014-03-02T10:14:49.000Z</time>
      </trkpt>
      <trkpt lat="45.33589" lon="6.19546">
        <ele>2334.8000488281</ele>
        <time>2014-03-02T10:14:50.000Z</time>
      </trkpt>
      <trkpt lat="45.3359" lon="6.19546">
        <ele>2335</ele>
        <time>2014-03-02T10:14:51.000Z</time>
      </trkpt>
      <trkpt lat="45.33591" lon="6.19547">
        <ele>2335</ele>
        <time>2014-03-02T10:14:52.000Z</time>
      </trkpt>
      <trkpt lat="45.33592" lon="6.19548">
        <ele>2335.1999511719</ele>
        <time>2014-03-02T10:14:53.000Z</time>
      </trkpt>
      <trkpt lat="45.33593" lon="6.19549">
        <ele>2335.3999023438</ele>
        <time>2014-03-02T10:14:54.000Z</time>
      </trkpt>
      <trkpt lat="45.33594" lon="6.1955">
        <ele>2335.6000976562</ele>
        <time>2014-03-02T10:14:55.000Z</time>
      </trkpt>
      <trkpt lat="45.33594" lon="6.1955">
        <ele>2335.8000488281</ele>
        <time>2014-03-02T10:14:56.000Z</time>
      </trkpt>
      <trkpt lat="45.33595" lon="6.19551">
        <ele>2335.8000488281</ele>
        <time>2014-03-02T10:14:57.000Z</time>
      </trkpt>
      <trkpt lat="45.33595" lon="6.19551">
        <ele>2335.8000488281</ele>
        <time>2014-03-02T10:14:58.000Z</time>
      </trkpt>
      <trkpt lat="45.33595" lon="6.19551">
        <ele>2336</ele>
        <time>2014-03-02T10:14:59.000Z</time>
      </trkpt>
      <trkpt lat="45.33596" lon="6.19551">
        <ele>2336.1999511719</ele>
        <time>2014-03-02T10:15:00.000Z</time>
      </trkpt>
      <trkpt lat="45.33597" lon="6.19552">
        <ele>2336.3999023438</ele>
        <time>2014-03-02T10:15:01.000Z</time>
      </trkpt>
      <trkpt lat="45.33598" lon="6.19553">
        <ele>2336.3999023438</ele>
        <time>2014-03-02T10:15:03.000Z</time>
      </trkpt>
      <trkpt lat="45.33598" lon="6.19554">
        <ele>2336.6000976562</ele>
        <time>2014-03-02T10:15:04.000Z</time>
      </trkpt>
      <trkpt lat="45.33599" lon="6.19555">
        <ele>2336.3999023438</ele>
        <time>2014-03-02T10:15:05.000Z</time>
      </trkpt>
      <trkpt lat="45.33599" lon="6.19556">
        <ele>2336.6000976562</ele>
        <time>2014-03-02T10:15:06.000Z</time>
      </trkpt>
      <trkpt lat="45.336" lon="6.19557">
        <ele>2336.6000976562</ele>
        <time>2014-03-02T10:15:07.000Z</time>
      </trkpt>
      <trkpt lat="45.336" lon="6.19557">
        <ele>2336.6000976562</ele>
        <time>2014-03-02T10:15:08.000Z</time>
      </trkpt>
      <trkpt lat="45.33601" lon="6.19558">
        <ele>2336.8000488281</ele>
        <time>2014-03-02T10:15:09.000Z</time>
      </trkpt>
      <trkpt lat="45.33602" lon="6.19558">
        <ele>2337</ele>
        <time>2014-03-02T10:15:10.000Z</time>
      </trkpt>
      <trkpt lat="45.33602" lon="6.19559">
        <ele>2337</ele>
        <time>2014-03-02T10:15:11.000Z</time>
      </trkpt>
      <trkpt lat="45.33603" lon="6.19559">
        <ele>2337.1999511719</ele>
        <time>2014-03-02T10:15:12.000Z</time>
      </trkpt>
      <trkpt lat="45.33603" lon="6.19559">
        <ele>2337.3999023438</ele>
        <time>2014-03-02T10:15:13.000Z</time>
      </trkpt>
      <trkpt lat="45.33604" lon="6.19558">
        <ele>2337.8000488281</ele>
        <time>2014-03-02T10:15:14.000Z</time>
      </trkpt>
      <trkpt lat="45.33605" lon="6.19558">
        <ele>2338</ele>
        <time>2014-03-02T10:15:15.000Z</time>
      </trkpt>
      <trkpt lat="45.33605" lon="6.19558">
        <ele>2338.3999023438</ele>
        <time>2014-03-02T10:15:16.000Z</time>
      </trkpt>
      <trkpt lat="45.33606" lon="6.19558">
        <ele>2338.6000976562</ele>
        <time>2014-03-02T10:15:17.000Z</time>
      </trkpt>
      <trkpt lat="45.33606" lon="6.19559">
        <ele>2338.6000976562</ele>
        <time>2014-03-02T10:15:18.000Z</time>
      </trkpt>
      <trkpt lat="45.33607" lon="6.19559">
        <ele>2338.6000976562</ele>
        <time>2014-03-02T10:15:19.000Z</time>
      </trkpt>
      <trkpt lat="45.33607" lon="6.19559">
        <ele>2338.6000976562</ele>
        <time>2014-03-02T10:15:20.000Z</time>
      </trkpt>
      <trkpt lat="45.33607" lon="6.19559">
        <ele>2338.8000488281</ele>
        <time>2014-03-02T10:15:21.000Z</time>
      </trkpt>
      <trkpt lat="45.33607" lon="6.19559">
        <ele>2338.8000488281</ele>
        <time>2014-03-02T10:15:22.000Z</time>
      </trkpt>
      <trkpt lat="45.33608" lon="6.19559">
        <ele>2339.1999511719</ele>
        <time>2014-03-02T10:15:23.000Z</time>
      </trkpt>
      <trkpt lat="45.33608" lon="6.19559">
        <ele>2339.1999511719</ele>
        <time>2014-03-02T10:15:24.000Z</time>
      </trkpt>
      <trkpt lat="45.33609" lon="6.19559">
        <ele>2339.3999023438</ele>
        <time>2014-03-02T10:15:25.000Z</time>
      </trkpt>
      <trkpt lat="45.33609" lon="6.19559">
        <ele>2339.3999023438</ele>
        <time>2014-03-02T10:15:26.000Z</time>
      </trkpt>
      <trkpt lat="45.3361" lon="6.1956">
        <ele>2339.6000976562</ele>
        <time>2014-03-02T10:15:27.000Z</time>
      </trkpt>
      <trkpt lat="45.33611" lon="6.19561">
        <ele>2339.8000488281</ele>
        <time>2014-03-02T10:15:28.000Z</time>
      </trkpt>
      <trkpt lat="45.33612" lon="6.19562">
        <ele>2339.8000488281</ele>
        <time>2014-03-02T10:15:29.000Z</time>
      </trkpt>
      <trkpt lat="45.33612" lon="6.19562">
        <ele>2340</ele>
        <time>2014-03-02T10:15:30.000Z</time>
      </trkpt>
      <trkpt lat="45.33613" lon="6.19563">
        <ele>2340</ele>
        <time>2014-03-02T10:15:31.000Z</time>
      </trkpt>
      <trkpt lat="45.33613" lon="6.19563">
        <ele>2340</ele>
        <time>2014-03-02T10:15:32.000Z</time>
      </trkpt>
      <trkpt lat="45.33613" lon="6.19563">
        <ele>2340</ele>
        <time>2014-03-02T10:15:33.000Z</time>
      </trkpt>
      <trkpt lat="45.33614" lon="6.19564">
        <ele>2340</ele>
        <time>2014-03-02T10:15:34.000Z</time>
      </trkpt>
      <trkpt lat="45.33614" lon="6.19564">
        <ele>2339.8000488281</ele>
        <time>2014-03-02T10:15:35.000Z</time>
      </trkpt>
      <trkpt lat="45.33614" lon="6.19565">
        <ele>2339.8000488281</ele>
        <time>2014-03-02T10:15:36.000Z</time>
      </trkpt>
      <trkpt lat="45.33615" lon="6.19566">
        <ele>2339.8000488281</ele>
        <time>2014-03-02T10:15:37.000Z</time>
      </trkpt>
      <trkpt lat="45.33615" lon="6.19566">
        <ele>2339.6000976562</ele>
        <time>2014-03-02T10:15:38.000Z</time>
      </trkpt>
      <trkpt lat="45.33616" lon="6.19567">
        <ele>2339.8000488281</ele>
        <time>2014-03-02T10:15:39.000Z</time>
      </trkpt>
      <trkpt lat="45.33616" lon="6.19567">
        <ele>2339.8000488281</ele>
        <time>2014-03-02T10:15:40.000Z</time>
      </trkpt>
      <trkpt lat="45.33617" lon="6.19567">
        <ele>2340</ele>
        <time>2014-03-02T10:15:41.000Z</time>
      </trkpt>
      <trkpt lat="45.33617" lon="6.19567">
        <ele>2340.3999023438</ele>
        <time>2014-03-02T10:15:42.000Z</time>
      </trkpt>
      <trkpt lat="45.33617" lon="6.19567">
        <ele>2340.3999023438</ele>
        <time>2014-03-02T10:15:43.000Z</time>
      </trkpt>
      <trkpt lat="45.33618" lon="6.19566">
        <ele>2340.8000488281</ele>
        <time>2014-03-02T10:15:44.000Z</time>
      </trkpt>
      <trkpt lat="45.33618" lon="6.19566">
        <ele>2340.8000488281</ele>
        <time>2014-03-02T10:15:45.000Z</time>
      </trkpt>
      <trkpt lat="45.33618" lon="6.19567">
        <ele>2340.8000488281</ele>
        <time>2014-03-02T10:15:46.000Z</time>
      </trkpt>
      <trkpt lat="45.33618" lon="6.19567">
        <ele>2340.3999023438</ele>
        <time>2014-03-02T10:15:47.000Z</time>
      </trkpt>
      <trkpt lat="45.33618" lon="6.19567">
        <ele>2340.3999023438</ele>
        <time>2014-03-02T10:15:48.000Z</time>
      </trkpt>
      <trkpt lat="45.33618" lon="6.19567">
        <ele>2340.3999023438</ele>
        <time>2014-03-02T10:15:49.000Z</time>
      </trkpt>
      <trkpt lat="45.33618" lon="6.19567">
        <ele>2340.3999023438</ele>
        <time>2014-03-02T10:15:50.000Z</time>
      </trkpt>
      <trkpt lat="45.33618" lon="6.19567">
        <ele>2340.3999023438</ele>
        <time>2014-03-02T10:15:51.000Z</time>
      </trkpt>
      <trkpt lat="45.33618" lon="6.19567">
        <ele>2340.3999023438</ele>
        <time>2014-03-02T10:15:52.000Z</time>
      </trkpt>
      <trkpt lat="45.33618" lon="6.19567">
        <ele>2340.3999023438</ele>
        <time>2014-03-02T10:15:53.000Z</time>
      </trkpt>
      <trkpt lat="45.33618" lon="6.19567">
        <ele>2340.3999023438</ele>
        <time>2014-03-02T10:15:57.000Z</time>
      </trkpt>
      <trkpt lat="45.33618" lon="6.19567">
        <ele>2340.3999023438</ele>
        <time>2014-03-02T10:15:58.000Z</time>
      </trkpt>
      <trkpt lat="45.33618" lon="6.19567">
        <ele>2340.3999023438</ele>
        <time>2014-03-02T10:15:59.000Z</time>
      </trkpt>
      <trkpt lat="45.33618" lon="6.19567">
        <ele>2340.3999023438</ele>
        <time>2014-03-02T10:16:00.000Z</time>
      </trkpt>
      <trkpt lat="45.33619" lon="6.19567">
        <ele>2341</ele>
        <time>2014-03-02T10:16:01.000Z</time>
      </trkpt>
      <trkpt lat="45.33619" lon="6.19567">
        <ele>2341</ele>
        <time>2014-03-02T10:16:02.000Z</time>
      </trkpt>
      <trkpt lat="45.3362" lon="6.19567">
        <ele>2341.3999023438</ele>
        <time>2014-03-02T10:16:03.000Z</time>
      </trkpt>
      <trkpt lat="45.3362" lon="6.19567">
        <ele>2341.3999023438</ele>
        <time>2014-03-02T10:16:04.000Z</time>
      </trkpt>
      <trkpt lat="45.33621" lon="6.19567">
        <ele>2341.8000488281</ele>
        <time>2014-03-02T10:16:05.000Z</time>
      </trkpt>
      <trkpt lat="45.33623" lon="6.19567">
        <ele>2342.1999511719</ele>
        <time>2014-03-02T10:16:06.000Z</time>
      </trkpt>
      <trkpt lat="45.33624" lon="6.19567">
        <ele>2342.6000976562</ele>
        <time>2014-03-02T10:16:07.000Z</time>
      </trkpt>
      <trkpt lat="45.33625" lon="6.19567">
        <ele>2343</ele>
        <time>2014-03-02T10:16:08.000Z</time>
      </trkpt>
      <trkpt lat="45.33626" lon="6.19567">
        <ele>2343.3999023438</ele>
        <time>2014-03-02T10:16:09.000Z</time>
      </trkpt>
      <trkpt lat="45.33626" lon="6.19567">
        <ele>2343.3999023438</ele>
        <time>2014-03-02T10:16:10.000Z</time>
      </trkpt>
      <trkpt lat="45.33626" lon="6.19567">
        <ele>2343.3999023438</ele>
        <time>2014-03-02T10:16:11.000Z</time>
      </trkpt>
      <trkpt lat="45.33626" lon="6.19567">
        <ele>2343.3999023438</ele>
        <time>2014-03-02T10:16:12.000Z</time>
      </trkpt>
      <trkpt lat="45.33626" lon="6.19567">
        <ele>2343.3999023438</ele>
        <time>2014-03-02T10:16:13.000Z</time>
      </trkpt>
      <trkpt lat="45.33626" lon="6.19567">
        <ele>2343.3999023438</ele>
        <time>2014-03-02T10:16:14.000Z</time>
      </trkpt>
      <trkpt lat="45.33626" lon="6.19567">
        <ele>2343.3999023438</ele>
        <time>2014-03-02T10:16:15.000Z</time>
      </trkpt>
      <trkpt lat="45.33626" lon="6.19567">
        <ele>2343.3999023438</ele>
        <time>2014-03-02T10:16:16.000Z</time>
      </trkpt>
      <trkpt lat="45.33626" lon="6.19567">
        <ele>2343.3999023438</ele>
        <time>2014-03-02T10:16:17.000Z</time>
      </trkpt>
      <trkpt lat="45.33626" lon="6.19567">
        <ele>2343.3999023438</ele>
        <time>2014-03-02T10:16:18.000Z</time>
      </trkpt>
      <trkpt lat="45.33626" lon="6.19567">
        <ele>2343.3999023438</ele>
        <time>2014-03-02T10:16:19.000Z</time>
      </trkpt>
      <trkpt lat="45.33626" lon="6.19567">
        <ele>2343.3999023438</ele>
        <time>2014-03-02T10:16:20.000Z</time>
      </trkpt>
      <trkpt lat="45.33626" lon="6.19567">
        <ele>2343.3999023438</ele>
        <time>2014-03-02T10:16:21.000Z</time>
      </trkpt>
      <trkpt lat="45.33626" lon="6.19568">
        <ele>2343.1999511719</ele>
        <time>2014-03-02T10:16:22.000Z</time>
      </trkpt>
      <trkpt lat="45.33627" lon="6.19569">
        <ele>2343.1999511719</ele>
        <time>2014-03-02T10:16:23.000Z</time>
      </trkpt>
      <trkpt lat="45.33628" lon="6.1957">
        <ele>2343.1999511719</ele>
        <time>2014-03-02T10:16:24.000Z</time>
      </trkpt>
      <trkpt lat="45.33628" lon="6.19571">
        <ele>2343.3999023438</ele>
        <time>2014-03-02T10:16:25.000Z</time>
      </trkpt>
      <trkpt lat="45.33629" lon="6.19571">
        <ele>2343.3999023438</ele>
        <time>2014-03-02T10:16:26.000Z</time>
      </trkpt>
      <trkpt lat="45.3363" lon="6.19571">
        <ele>2343.6000976562</ele>
        <time>2014-03-02T10:16:27.000Z</time>
      </trkpt>
      <trkpt lat="45.3363" lon="6.19572">
        <ele>2343.6000976562</ele>
        <time>2014-03-02T10:16:28.000Z</time>
      </trkpt>
      <trkpt lat="45.33631" lon="6.19573">
        <ele>2343.6000976562</ele>
        <time>2014-03-02T10:16:29.000Z</time>
      </trkpt>
      <trkpt lat="45.33632" lon="6.19574">
        <ele>2343.6000976562</ele>
        <time>2014-03-02T10:16:30.000Z</time>
      </trkpt>
      <trkpt lat="45.33632" lon="6.19574">
        <ele>2343.6000976562</ele>
        <time>2014-03-02T10:16:31.000Z</time>
      </trkpt>
      <trkpt lat="45.33634" lon="6.19576">
        <ele>2343.6000976562</ele>
        <time>2014-03-02T10:16:32.000Z</time>
      </trkpt>
      <trkpt lat="45.33634" lon="6.19576">
        <ele>2343.6000976562</ele>
        <time>2014-03-02T10:16:33.000Z</time>
      </trkpt>
      <trkpt lat="45.33635" lon="6.19576">
        <ele>2343.8000488281</ele>
        <time>2014-03-02T10:16:34.000Z</time>
      </trkpt>
      <trkpt lat="45.33635" lon="6.19576">
        <ele>2343.8000488281</ele>
        <time>2014-03-02T10:16:35.000Z</time>
      </trkpt>
      <trkpt lat="45.33636" lon="6.19577">
        <ele>2343.8000488281</ele>
        <time>2014-03-02T10:16:36.000Z</time>
      </trkpt>
      <trkpt lat="45.33636" lon="6.19577">
        <ele>2343.8000488281</ele>
        <time>2014-03-02T10:16:37.000Z</time>
      </trkpt>
      <trkpt lat="45.33636" lon="6.19577">
        <ele>2344</ele>
        <time>2014-03-02T10:16:38.000Z</time>
      </trkpt>
      <trkpt lat="45.33637" lon="6.19578">
        <ele>2343.8000488281</ele>
        <time>2014-03-02T10:16:39.000Z</time>
      </trkpt>
      <trkpt lat="45.33637" lon="6.19579">
        <ele>2343.8000488281</ele>
        <time>2014-03-02T10:16:40.000Z</time>
      </trkpt>
      <trkpt lat="45.33638" lon="6.1958">
        <ele>2343.8000488281</ele>
        <time>2014-03-02T10:16:41.000Z</time>
      </trkpt>
      <trkpt lat="45.33638" lon="6.1958">
        <ele>2343.8000488281</ele>
        <time>2014-03-02T10:16:42.000Z</time>
      </trkpt>
      <trkpt lat="45.33638" lon="6.1958">
        <ele>2344</ele>
        <time>2014-03-02T10:16:43.000Z</time>
      </trkpt>
      <trkpt lat="45.33638" lon="6.1958">
        <ele>2344</ele>
        <time>2014-03-02T10:16:44.000Z</time>
      </trkpt>
      <trkpt lat="45.33638" lon="6.1958">
        <ele>2344</ele>
        <time>2014-03-02T10:16:45.000Z</time>
      </trkpt>
      <trkpt lat="45.33638" lon="6.1958">
        <ele>2344</ele>
        <time>2014-03-02T10:16:46.000Z</time>
      </trkpt>
      <trkpt lat="45.33638" lon="6.1958">
        <ele>2344</ele>
        <time>2014-03-02T10:16:47.000Z</time>
      </trkpt>
      <trkpt lat="45.33638" lon="6.1958">
        <ele>2344</ele>
        <time>2014-03-02T10:16:48.000Z</time>
      </trkpt>
      <trkpt lat="45.33638" lon="6.1958">
        <ele>2344</ele>
        <time>2014-03-02T10:16:49.000Z</time>
      </trkpt>
      <trkpt lat="45.33638" lon="6.1958">
        <ele>2344</ele>
        <time>2014-03-02T10:16:50.000Z</time>
      </trkpt>
      <trkpt lat="45.33638" lon="6.1958">
        <ele>2344</ele>
        <time>2014-03-02T10:16:51.000Z</time>
      </trkpt>
      <trkpt lat="45.33638" lon="6.1958">
        <ele>2344</ele>
        <time>2014-03-02T10:16:52.000Z</time>
      </trkpt>
      <trkpt lat="45.33638" lon="6.1958">
        <ele>2344</ele>
        <time>2014-03-02T10:16:53.000Z</time>
      </trkpt>
      <trkpt lat="45.33638" lon="6.1958">
        <ele>2344</ele>
        <time>2014-03-02T10:16:54.000Z</time>
      </trkpt>
      <trkpt lat="45.33638" lon="6.1958">
        <ele>2344</ele>
        <time>2014-03-02T10:16:55.000Z</time>
      </trkpt>
      <trkpt lat="45.33638" lon="6.1958">
        <ele>2344</ele>
        <time>2014-03-02T10:16:56.000Z</time>
      </trkpt>
      <trkpt lat="45.33638" lon="6.1958">
        <ele>2344</ele>
        <time>2014-03-02T10:16:57.000Z</time>
      </trkpt>
      <trkpt lat="45.33638" lon="6.1958">
        <ele>2344</ele>
        <time>2014-03-02T10:16:58.000Z</time>
      </trkpt>
      <trkpt lat="45.33638" lon="6.1958">
        <ele>2344</ele>
        <time>2014-03-02T10:16:59.000Z</time>
      </trkpt>
      <trkpt lat="45.33638" lon="6.1958">
        <ele>2344</ele>
        <time>2014-03-02T10:17:00.000Z</time>
      </trkpt>
      <trkpt lat="45.33638" lon="6.1958">
        <ele>2344</ele>
        <time>2014-03-02T10:17:01.000Z</time>
      </trkpt>
      <trkpt lat="45.33638" lon="6.1958">
        <ele>2344</ele>
        <time>2014-03-02T10:17:02.000Z</time>
      </trkpt>
      <trkpt lat="45.33638" lon="6.1958">
        <ele>2344</ele>
        <time>2014-03-02T10:17:05.000Z</time>
      </trkpt>
      <trkpt lat="45.33638" lon="6.1958">
        <ele>2344</ele>
        <time>2014-03-02T10:17:06.000Z</time>
      </trkpt>
      <trkpt lat="45.33638" lon="6.1958">
        <ele>2344</ele>
        <time>2014-03-02T10:17:08.000Z</time>
      </trkpt>
      <trkpt lat="45.33638" lon="6.1958">
        <ele>2344</ele>
        <time>2014-03-02T10:17:10.000Z</time>
      </trkpt>
      <trkpt lat="45.33638" lon="6.1958">
        <ele>2344</ele>
        <time>2014-03-02T10:17:12.000Z</time>
      </trkpt>
      <trkpt lat="45.33638" lon="6.1958">
        <ele>2344</ele>
        <time>2014-03-02T10:17:13.000Z</time>
      </trkpt>
      <trkpt lat="45.33639" lon="6.19581">
        <ele>2343.8000488281</ele>
        <time>2014-03-02T10:17:14.000Z</time>
      </trkpt>
      <trkpt lat="45.33639" lon="6.19581">
        <ele>2344</ele>
        <time>2014-03-02T10:17:15.000Z</time>
      </trkpt>
      <trkpt lat="45.33639" lon="6.19581">
        <ele>2344</ele>
        <time>2014-03-02T10:17:16.000Z</time>
      </trkpt>
      <trkpt lat="45.3364" lon="6.19582">
        <ele>2344</ele>
        <time>2014-03-02T10:17:17.000Z</time>
      </trkpt>
      <trkpt lat="45.3364" lon="6.19583">
        <ele>2344</ele>
        <time>2014-03-02T10:17:18.000Z</time>
      </trkpt>
      <trkpt lat="45.33641" lon="6.19583">
        <ele>2344</ele>
        <time>2014-03-02T10:17:19.000Z</time>
      </trkpt>
      <trkpt lat="45.33642" lon="6.19584">
        <ele>2344.1999511719</ele>
        <time>2014-03-02T10:17:20.000Z</time>
      </trkpt>
      <trkpt lat="45.33643" lon="6.19585">
        <ele>2344.1999511719</ele>
        <time>2014-03-02T10:17:21.000Z</time>
      </trkpt>
      <trkpt lat="45.33643" lon="6.19585">
        <ele>2344.1999511719</ele>
        <time>2014-03-02T10:17:22.000Z</time>
      </trkpt>
      <trkpt lat="45.33644" lon="6.19586">
        <ele>2344</ele>
        <time>2014-03-02T10:17:23.000Z</time>
      </trkpt>
      <trkpt lat="45.33644" lon="6.19587">
        <ele>2344</ele>
        <time>2014-03-02T10:17:24.000Z</time>
      </trkpt>
      <trkpt lat="45.33645" lon="6.19588">
        <ele>2343.8000488281</ele>
        <time>2014-03-02T10:17:25.000Z</time>
      </trkpt>
      <trkpt lat="45.33645" lon="6.19588">
        <ele>2344</ele>
        <time>2014-03-02T10:17:26.000Z</time>
      </trkpt>
      <trkpt lat="45.33646" lon="6.19588">
        <ele>2344.1999511719</ele>
        <time>2014-03-02T10:17:27.000Z</time>
      </trkpt>
      <trkpt lat="45.33646" lon="6.19588">
        <ele>2344.3999023438</ele>
        <time>2014-03-02T10:17:28.000Z</time>
      </trkpt>
      <trkpt lat="45.33647" lon="6.19588">
        <ele>2344.6000976562</ele>
        <time>2014-03-02T10:17:29.000Z</time>
      </trkpt>
      <trkpt lat="45.33648" lon="6.19588">
        <ele>2344.8000488281</ele>
        <time>2014-03-02T10:17:30.000Z</time>
      </trkpt>
      <trkpt lat="45.33648" lon="6.19589">
        <ele>2344.8000488281</ele>
        <time>2014-03-02T10:17:31.000Z</time>
      </trkpt>
      <trkpt lat="45.33649" lon="6.1959">
        <ele>2345</ele>
        <time>2014-03-02T10:17:32.000Z</time>
      </trkpt>
      <trkpt lat="45.33649" lon="6.1959">
        <ele>2344.8000488281</ele>
        <time>2014-03-02T10:17:33.000Z</time>
      </trkpt>
      <trkpt lat="45.33649" lon="6.1959">
        <ele>2344.8000488281</ele>
        <time>2014-03-02T10:17:34.000Z</time>
      </trkpt>
      <trkpt lat="45.33649" lon="6.1959">
        <ele>2344.8000488281</ele>
        <time>2014-03-02T10:17:35.000Z</time>
      </trkpt>
      <trkpt lat="45.33649" lon="6.1959">
        <ele>2344.8000488281</ele>
        <time>2014-03-02T10:17:36.000Z</time>
      </trkpt>
      <trkpt lat="45.33649" lon="6.1959">
        <ele>2344.8000488281</ele>
        <time>2014-03-02T10:17:37.000Z</time>
      </trkpt>
      <trkpt lat="45.33649" lon="6.1959">
        <ele>2344.8000488281</ele>
        <time>2014-03-02T10:17:38.000Z</time>
      </trkpt>
      <trkpt lat="45.33649" lon="6.1959">
        <ele>2344.8000488281</ele>
        <time>2014-03-02T10:17:39.000Z</time>
      </trkpt>
      <trkpt lat="45.33649" lon="6.1959">
        <ele>2344.8000488281</ele>
        <time>2014-03-02T10:17:40.000Z</time>
      </trkpt>
      <trkpt lat="45.33649" lon="6.1959">
        <ele>2344.8000488281</ele>
        <time>2014-03-02T10:17:41.000Z</time>
      </trkpt>
      <trkpt lat="45.33649" lon="6.1959">
        <ele>2344.8000488281</ele>
        <time>2014-03-02T10:17:42.000Z</time>
      </trkpt>
      <trkpt lat="45.33649" lon="6.1959">
        <ele>2344.8000488281</ele>
        <time>2014-03-02T10:17:43.000Z</time>
      </trkpt>
      <trkpt lat="45.33649" lon="6.1959">
        <ele>2344.8000488281</ele>
        <time>2014-03-02T10:17:48.000Z</time>
      </trkpt>
      <trkpt lat="45.33649" lon="6.1959">
        <ele>2344.8000488281</ele>
        <time>2014-03-02T10:17:49.000Z</time>
      </trkpt>
      <trkpt lat="45.33649" lon="6.1959">
        <ele>2344.8000488281</ele>
        <time>2014-03-02T10:17:52.000Z</time>
      </trkpt>
      <trkpt lat="45.33649" lon="6.1959">
        <ele>2344.8000488281</ele>
        <time>2014-03-02T10:17:53.000Z</time>
      </trkpt>
      <trkpt lat="45.33649" lon="6.1959">
        <ele>2344.8000488281</ele>
        <time>2014-03-02T10:17:56.000Z</time>
      </trkpt>
      <trkpt lat="45.33649" lon="6.1959">
        <ele>2344.8000488281</ele>
        <time>2014-03-02T10:17:57.000Z</time>
      </trkpt>
      <trkpt lat="45.33649" lon="6.1959">
        <ele>2344.8000488281</ele>
        <time>2014-03-02T10:18:00.000Z</time>
      </trkpt>
      <trkpt lat="45.33649" lon="6.1959">
        <ele>2344.8000488281</ele>
        <time>2014-03-02T10:18:01.000Z</time>
      </trkpt>
      <trkpt lat="45.33649" lon="6.1959">
        <ele>2344.8000488281</ele>
        <time>2014-03-02T10:18:04.000Z</time>
      </trkpt>
      <trkpt lat="45.33649" lon="6.1959">
        <ele>2344.8000488281</ele>
        <time>2014-03-02T10:18:05.000Z</time>
      </trkpt>
      <trkpt lat="45.33649" lon="6.1959">
        <ele>2344.8000488281</ele>
        <time>2014-03-02T10:18:06.000Z</time>
      </trkpt>
      <trkpt lat="45.33649" lon="6.1959">
        <ele>2344.8000488281</ele>
        <time>2014-03-02T10:18:07.000Z</time>
      </trkpt>
      <trkpt lat="45.33649" lon="6.1959">
        <ele>2344.8000488281</ele>
        <time>2014-03-02T10:18:08.000Z</time>
      </trkpt>
      <trkpt lat="45.33649" lon="6.1959">
        <ele>2344.8000488281</ele>
        <time>2014-03-02T10:18:11.000Z</time>
      </trkpt>
      <trkpt lat="45.33649" lon="6.1959">
        <ele>2344.8000488281</ele>
        <time>2014-03-02T10:18:12.000Z</time>
      </trkpt>
      <trkpt lat="45.33649" lon="6.19591">
        <ele>2344.8000488281</ele>
        <time>2014-03-02T10:18:16.000Z</time>
      </trkpt>
      <trkpt lat="45.33649" lon="6.19591">
        <ele>2344.8000488281</ele>
        <time>2014-03-02T10:18:17.000Z</time>
      </trkpt>
      <trkpt lat="45.33649" lon="6.19591">
        <ele>2344.8000488281</ele>
        <time>2014-03-02T10:18:18.000Z</time>
      </trkpt>
      <trkpt lat="45.33649" lon="6.19591">
        <ele>2344.8000488281</ele>
        <time>2014-03-02T10:18:19.000Z</time>
      </trkpt>
      <trkpt lat="45.33649" lon="6.19591">
        <ele>2344.8000488281</ele>
        <time>2014-03-02T10:18:20.000Z</time>
      </trkpt>
      <trkpt lat="45.33649" lon="6.19591">
        <ele>2344.8000488281</ele>
        <time>2014-03-02T10:18:23.000Z</time>
      </trkpt>
      <trkpt lat="45.33649" lon="6.19591">
        <ele>2344.8000488281</ele>
        <time>2014-03-02T10:18:26.000Z</time>
      </trkpt>
      <trkpt lat="45.33649" lon="6.19591">
        <ele>2344.8000488281</ele>
        <time>2014-03-02T10:18:27.000Z</time>
      </trkpt>
      <trkpt lat="45.33649" lon="6.19591">
        <ele>2344.8000488281</ele>
        <time>2014-03-02T10:18:28.000Z</time>
      </trkpt>
      <trkpt lat="45.33649" lon="6.19591">
        <ele>2344.8000488281</ele>
        <time>2014-03-02T10:18:29.000Z</time>
      </trkpt>
      <trkpt lat="45.33649" lon="6.19591">
        <ele>2344.8000488281</ele>
        <time>2014-03-02T10:18:30.000Z</time>
      </trkpt>
      <trkpt lat="45.33649" lon="6.19591">
        <ele>2344.8000488281</ele>
        <time>2014-03-02T10:18:31.000Z</time>
      </trkpt>
      <trkpt lat="45.33649" lon="6.19591">
        <ele>2344.8000488281</ele>
        <time>2014-03-02T10:18:32.000Z</time>
      </trkpt>
      <trkpt lat="45.33649" lon="6.19591">
        <ele>2344.8000488281</ele>
        <time>2014-03-02T10:18:33.000Z</time>
      </trkpt>
      <trkpt lat="45.33649" lon="6.19591">
        <ele>2344.8000488281</ele>
        <time>2014-03-02T10:18:34.000Z</time>
      </trkpt>
      <trkpt lat="45.33649" lon="6.19591">
        <ele>2344.8000488281</ele>
        <time>2014-03-02T10:18:35.000Z</time>
      </trkpt>
      <trkpt lat="45.33649" lon="6.19591">
        <ele>2344.8000488281</ele>
        <time>2014-03-02T10:18:36.000Z</time>
      </trkpt>
      <trkpt lat="45.33649" lon="6.19591">
        <ele>2344.8000488281</ele>
        <time>2014-03-02T10:18:37.000Z</time>
      </trkpt>
      <trkpt lat="45.33649" lon="6.19591">
        <ele>2344.8000488281</ele>
        <time>2014-03-02T10:18:38.000Z</time>
      </trkpt>
      <trkpt lat="45.33649" lon="6.19591">
        <ele>2344.8000488281</ele>
        <time>2014-03-02T10:18:39.000Z</time>
      </trkpt>
      <trkpt lat="45.33649" lon="6.19591">
        <ele>2344.8000488281</ele>
        <time>2014-03-02T10:18:40.000Z</time>
      </trkpt>
      <trkpt lat="45.33649" lon="6.19591">
        <ele>2344.8000488281</ele>
        <time>2014-03-02T10:18:41.000Z</time>
      </trkpt>
      <trkpt lat="45.33649" lon="6.19591">
        <ele>2344.8000488281</ele>
        <time>2014-03-02T10:18:42.000Z</time>
      </trkpt>
      <trkpt lat="45.33649" lon="6.19591">
        <ele>2344.8000488281</ele>
        <time>2014-03-02T10:18:43.000Z</time>
      </trkpt>
      <trkpt lat="45.33649" lon="6.19591">
        <ele>2344.8000488281</ele>
        <time>2014-03-02T10:18:44.000Z</time>
      </trkpt>
      <trkpt lat="45.33649" lon="6.19591">
        <ele>2344.8000488281</ele>
        <time>2014-03-02T10:18:45.000Z</time>
      </trkpt>
      <trkpt lat="45.33649" lon="6.19591">
        <ele>2344.8000488281</ele>
        <time>2014-03-02T10:18:46.000Z</time>
      </trkpt>
      <trkpt lat="45.33649" lon="6.19591">
        <ele>2344.8000488281</ele>
        <time>2014-03-02T10:18:50.000Z</time>
      </trkpt>
      <trkpt lat="45.33649" lon="6.19591">
        <ele>2344.8000488281</ele>
        <time>2014-03-02T10:18:51.000Z</time>
      </trkpt>
      <trkpt lat="45.33649" lon="6.19591">
        <ele>2344.8000488281</ele>
        <time>2014-03-02T10:18:52.000Z</time>
      </trkpt>
      <trkpt lat="45.33649" lon="6.19591">
        <ele>2344.8000488281</ele>
        <time>2014-03-02T10:18:53.000Z</time>
      </trkpt>
      <trkpt lat="45.3365" lon="6.19591">
        <ele>2345</ele>
        <time>2014-03-02T10:18:55.000Z</time>
      </trkpt>
      <trkpt lat="45.3365" lon="6.19591">
        <ele>2345</ele>
        <time>2014-03-02T10:18:56.000Z</time>
      </trkpt>
      <trkpt lat="45.3365" lon="6.19591">
        <ele>2345</ele>
        <time>2014-03-02T10:18:57.000Z</time>
      </trkpt>
      <trkpt lat="45.3365" lon="6.19591">
        <ele>2345</ele>
        <time>2014-03-02T10:18:58.000Z</time>
      </trkpt>
      <trkpt lat="45.3365" lon="6.19591">
        <ele>2345</ele>
        <time>2014-03-02T10:19:01.000Z</time>
      </trkpt>
      <trkpt lat="45.3365" lon="6.19591">
        <ele>2345</ele>
        <time>2014-03-02T10:19:02.000Z</time>
      </trkpt>
      <trkpt lat="45.3365" lon="6.19591">
        <ele>2345</ele>
        <time>2014-03-02T10:19:03.000Z</time>
      </trkpt>
      <trkpt lat="45.3365" lon="6.19591">
        <ele>2345</ele>
        <time>2014-03-02T10:19:04.000Z</time>
      </trkpt>
      <trkpt lat="45.3365" lon="6.19591">
        <ele>2345</ele>
        <time>2014-03-02T10:19:05.000Z</time>
      </trkpt>
      <trkpt lat="45.3365" lon="6.19591">
        <ele>2345</ele>
        <time>2014-03-02T10:19:06.000Z</time>
      </trkpt>
      <trkpt lat="45.3365" lon="6.19591">
        <ele>2345</ele>
        <time>2014-03-02T10:19:07.000Z</time>
      </trkpt>
      <trkpt lat="45.3365" lon="6.19591">
        <ele>2345</ele>
        <time>2014-03-02T10:19:08.000Z</time>
      </trkpt>
      <trkpt lat="45.3365" lon="6.19591">
        <ele>2345</ele>
        <time>2014-03-02T10:19:09.000Z</time>
      </trkpt>
      <trkpt lat="45.3365" lon="6.19591">
        <ele>2345</ele>
        <time>2014-03-02T10:19:10.000Z</time>
      </trkpt>
      <trkpt lat="45.3365" lon="6.19591">
        <ele>2345</ele>
        <time>2014-03-02T10:19:11.000Z</time>
      </trkpt>
      <trkpt lat="45.3365" lon="6.19591">
        <ele>2345</ele>
        <time>2014-03-02T10:19:12.000Z</time>
      </trkpt>
      <trkpt lat="45.3365" lon="6.19591">
        <ele>2345</ele>
        <time>2014-03-02T10:19:13.000Z</time>
      </trkpt>
      <trkpt lat="45.3365" lon="6.19591">
        <ele>2345</ele>
        <time>2014-03-02T10:19:14.000Z</time>
      </trkpt>
      <trkpt lat="45.3365" lon="6.19591">
        <ele>2345</ele>
        <time>2014-03-02T10:19:16.000Z</time>
      </trkpt>
      <trkpt lat="45.3365" lon="6.19591">
        <ele>2345</ele>
        <time>2014-03-02T10:19:17.000Z</time>
      </trkpt>
      <trkpt lat="45.3365" lon="6.19591">
        <ele>2345</ele>
        <time>2014-03-02T10:19:18.000Z</time>
      </trkpt>
      <trkpt lat="45.3365" lon="6.19591">
        <ele>2345</ele>
        <time>2014-03-02T10:19:19.000Z</time>
      </trkpt>
      <trkpt lat="45.3365" lon="6.19591">
        <ele>2345</ele>
        <time>2014-03-02T10:19:20.000Z</time>
      </trkpt>
      <trkpt lat="45.3365" lon="6.19591">
        <ele>2345</ele>
        <time>2014-03-02T10:19:21.000Z</time>
      </trkpt>
      <trkpt lat="45.3365" lon="6.19591">
        <ele>2345</ele>
        <time>2014-03-02T10:19:23.000Z</time>
      </trkpt>
      <trkpt lat="45.3365" lon="6.19591">
        <ele>2345</ele>
        <time>2014-03-02T10:19:30.000Z</time>
      </trkpt>
      <trkpt lat="45.3365" lon="6.19591">
        <ele>2345</ele>
        <time>2014-03-02T10:19:31.000Z</time>
      </trkpt>
      <trkpt lat="45.3365" lon="6.19591">
        <ele>2345</ele>
        <time>2014-03-02T10:19:32.000Z</time>
      </trkpt>
      <trkpt lat="45.3365" lon="6.19591">
        <ele>2345</ele>
        <time>2014-03-02T10:19:33.000Z</time>
      </trkpt>
      <trkpt lat="45.3365" lon="6.1959">
        <ele>2345</ele>
        <time>2014-03-02T10:19:34.000Z</time>
      </trkpt>
      <trkpt lat="45.3365" lon="6.1959">
        <ele>2345</ele>
        <time>2014-03-02T10:19:35.000Z</time>
      </trkpt>
      <trkpt lat="45.3365" lon="6.1959">
        <ele>2345</ele>
        <time>2014-03-02T10:19:36.000Z</time>
      </trkpt>
      <trkpt lat="45.3365" lon="6.1959">
        <ele>2345</ele>
        <time>2014-03-02T10:19:37.000Z</time>
      </trkpt>
      <trkpt lat="45.3365" lon="6.1959">
        <ele>2345</ele>
        <time>2014-03-02T10:19:38.000Z</time>
      </trkpt>
      <trkpt lat="45.3365" lon="6.1959">
        <ele>2345</ele>
        <time>2014-03-02T10:19:39.000Z</time>
      </trkpt>
      <trkpt lat="45.3365" lon="6.1959">
        <ele>2345</ele>
        <time>2014-03-02T10:19:40.000Z</time>
      </trkpt>
      <trkpt lat="45.3365" lon="6.1959">
        <ele>2345</ele>
        <time>2014-03-02T10:19:41.000Z</time>
      </trkpt>
      <trkpt lat="45.3365" lon="6.1959">
        <ele>2345</ele>
        <time>2014-03-02T10:19:42.000Z</time>
      </trkpt>
      <trkpt lat="45.3365" lon="6.1959">
        <ele>2345</ele>
        <time>2014-03-02T10:19:43.000Z</time>
      </trkpt>
      <trkpt lat="45.3365" lon="6.1959">
        <ele>2345</ele>
        <time>2014-03-02T10:19:47.000Z</time>
      </trkpt>
      <trkpt lat="45.3365" lon="6.1959">
        <ele>2345</ele>
        <time>2014-03-02T10:19:48.000Z</time>
      </trkpt>
      <trkpt lat="45.3365" lon="6.1959">
        <ele>2345</ele>
        <time>2014-03-02T10:19:49.000Z</time>
      </trkpt>
      <trkpt lat="45.3365" lon="6.1959">
        <ele>2345</ele>
        <time>2014-03-02T10:19:50.000Z</time>
      </trkpt>
      <trkpt lat="45.3365" lon="6.1959">
        <ele>2345</ele>
        <time>2014-03-02T10:19:51.000Z</time>
      </trkpt>
      <trkpt lat="45.3365" lon="6.1959">
        <ele>2345</ele>
        <time>2014-03-02T10:19:52.000Z</time>
      </trkpt>
      <trkpt lat="45.3365" lon="6.1959">
        <ele>2345</ele>
        <time>2014-03-02T10:19:53.000Z</time>
      </trkpt>
      <trkpt lat="45.3365" lon="6.1959">
        <ele>2345</ele>
        <time>2014-03-02T10:19:54.000Z</time>
      </trkpt>
      <trkpt lat="45.3365" lon="6.1959">
        <ele>2345</ele>
        <time>2014-03-02T10:19:55.000Z</time>
      </trkpt>
      <trkpt lat="45.3365" lon="6.1959">
        <ele>2345</ele>
        <time>2014-03-02T10:19:56.000Z</time>
      </trkpt>
      <trkpt lat="45.3365" lon="6.1959">
        <ele>2345</ele>
        <time>2014-03-02T10:19:57.000Z</time>
      </trkpt>
      <trkpt lat="45.3365" lon="6.1959">
        <ele>2345</ele>
        <time>2014-03-02T10:19:58.000Z</time>
      </trkpt>
      <trkpt lat="45.3365" lon="6.1959">
        <ele>2345</ele>
        <time>2014-03-02T10:19:59.000Z</time>
      </trkpt>
      <trkpt lat="45.3365" lon="6.1959">
        <ele>2345</ele>
        <time>2014-03-02T10:20:00.000Z</time>
      </trkpt>
      <trkpt lat="45.3365" lon="6.1959">
        <ele>2345</ele>
        <time>2014-03-02T10:20:01.000Z</time>
      </trkpt>
      <trkpt lat="45.3365" lon="6.1959">
        <ele>2345</ele>
        <time>2014-03-02T10:20:02.000Z</time>
      </trkpt>
      <trkpt lat="45.3365" lon="6.1959">
        <ele>2345</ele>
        <time>2014-03-02T10:20:03.000Z</time>
      </trkpt>
      <trkpt lat="45.3365" lon="6.1959">
        <ele>2345</ele>
        <time>2014-03-02T10:20:04.000Z</time>
      </trkpt>
      <trkpt lat="45.3365" lon="6.1959">
        <ele>2345</ele>
        <time>2014-03-02T10:20:05.000Z</time>
      </trkpt>
      <trkpt lat="45.3365" lon="6.1959">
        <ele>2345</ele>
        <time>2014-03-02T10:20:07.000Z</time>
      </trkpt>
      <trkpt lat="45.3365" lon="6.1959">
        <ele>2345</ele>
        <time>2014-03-02T10:20:08.000Z</time>
      </trkpt>
      <trkpt lat="45.3365" lon="6.1959">
        <ele>2345</ele>
        <time>2014-03-02T10:20:09.000Z</time>
      </trkpt>
      <trkpt lat="45.3365" lon="6.1959">
        <ele>2345</ele>
        <time>2014-03-02T10:20:10.000Z</time>
      </trkpt>
      <trkpt lat="45.3365" lon="6.1959">
        <ele>2345</ele>
        <time>2014-03-02T10:20:11.000Z</time>
      </trkpt>
      <trkpt lat="45.3365" lon="6.1959">
        <ele>2345</ele>
        <time>2014-03-02T10:20:13.000Z</time>
      </trkpt>
      <trkpt lat="45.3365" lon="6.1959">
        <ele>2345</ele>
        <time>2014-03-02T10:20:14.000Z</time>
      </trkpt>
      <trkpt lat="45.3365" lon="6.1959">
        <ele>2345</ele>
        <time>2014-03-02T10:20:15.000Z</time>
      </trkpt>
      <trkpt lat="45.3365" lon="6.1959">
        <ele>2345</ele>
        <time>2014-03-02T10:20:16.000Z</time>
      </trkpt>
      <trkpt lat="45.3365" lon="6.1959">
        <ele>2345</ele>
        <time>2014-03-02T10:20:17.000Z</time>
      </trkpt>
      <trkpt lat="45.3365" lon="6.1959">
        <ele>2345</ele>
        <time>2014-03-02T10:20:18.000Z</time>
      </trkpt>
      <trkpt lat="45.3365" lon="6.1959">
        <ele>2345</ele>
        <time>2014-03-02T10:20:19.000Z</time>
      </trkpt>
      <trkpt lat="45.3365" lon="6.1959">
        <ele>2345</ele>
        <time>2014-03-02T10:20:20.000Z</time>
      </trkpt>
      <trkpt lat="45.3365" lon="6.1959">
        <ele>2345</ele>
        <time>2014-03-02T10:20:21.000Z</time>
      </trkpt>
      <trkpt lat="45.3365" lon="6.1959">
        <ele>2345</ele>
        <time>2014-03-02T10:20:22.000Z</time>
      </trkpt>
      <trkpt lat="45.3365" lon="6.1959">
        <ele>2345</ele>
        <time>2014-03-02T10:20:23.000Z</time>
      </trkpt>
      <trkpt lat="45.3365" lon="6.1959">
        <ele>2345</ele>
        <time>2014-03-02T10:20:24.000Z</time>
      </trkpt>
      <trkpt lat="45.3365" lon="6.1959">
        <ele>2345</ele>
        <time>2014-03-02T10:20:25.000Z</time>
      </trkpt>
      <trkpt lat="45.3365" lon="6.1959">
        <ele>2345</ele>
        <time>2014-03-02T10:20:26.000Z</time>
      </trkpt>
      <trkpt lat="45.3365" lon="6.1959">
        <ele>2345</ele>
        <time>2014-03-02T10:20:27.000Z</time>
      </trkpt>
      <trkpt lat="45.3365" lon="6.1959">
        <ele>2345</ele>
        <time>2014-03-02T10:20:28.000Z</time>
      </trkpt>
      <trkpt lat="45.3365" lon="6.1959">
        <ele>2345</ele>
        <time>2014-03-02T10:20:29.000Z</time>
      </trkpt>
      <trkpt lat="45.3365" lon="6.1959">
        <ele>2345</ele>
        <time>2014-03-02T10:20:30.000Z</time>
      </trkpt>
      <trkpt lat="45.3365" lon="6.1959">
        <ele>2345</ele>
        <time>2014-03-02T10:20:31.000Z</time>
      </trkpt>
      <trkpt lat="45.3365" lon="6.1959">
        <ele>2345</ele>
        <time>2014-03-02T10:20:32.000Z</time>
      </trkpt>
      <trkpt lat="45.3365" lon="6.1959">
        <ele>2345</ele>
        <time>2014-03-02T10:20:39.000Z</time>
      </trkpt>
      <trkpt lat="45.3365" lon="6.1959">
        <ele>2345</ele>
        <time>2014-03-02T10:20:40.000Z</time>
      </trkpt>
      <trkpt lat="45.3365" lon="6.1959">
        <ele>2345</ele>
        <time>2014-03-02T10:20:41.000Z</time>
      </trkpt>
      <trkpt lat="45.3365" lon="6.1959">
        <ele>2345</ele>
        <time>2014-03-02T10:20:47.000Z</time>
      </trkpt>
      <trkpt lat="45.3365" lon="6.1959">
        <ele>2345</ele>
        <time>2014-03-02T10:20:48.000Z</time>
      </trkpt>
      <trkpt lat="45.3365" lon="6.1959">
        <ele>2345</ele>
        <time>2014-03-02T10:20:49.000Z</time>
      </trkpt>
      <trkpt lat="45.3365" lon="6.1959">
        <ele>2345</ele>
        <time>2014-03-02T10:20:50.000Z</time>
      </trkpt>
      <trkpt lat="45.3365" lon="6.1959">
        <ele>2345</ele>
        <time>2014-03-02T10:20:53.000Z</time>
      </trkpt>
      <trkpt lat="45.3365" lon="6.1959">
        <ele>2345</ele>
        <time>2014-03-02T10:20:54.000Z</time>
      </trkpt>
      <trkpt lat="45.3365" lon="6.1959">
        <ele>2345</ele>
        <time>2014-03-02T10:20:55.000Z</time>
      </trkpt>
      <trkpt lat="45.3365" lon="6.1959">
        <ele>2345</ele>
        <time>2014-03-02T10:20:56.000Z</time>
      </trkpt>
      <trkpt lat="45.3365" lon="6.1959">
        <ele>2345</ele>
        <time>2014-03-02T10:20:57.000Z</time>
      </trkpt>
      <trkpt lat="45.3365" lon="6.1959">
        <ele>2345</ele>
        <time>2014-03-02T10:20:58.000Z</time>
      </trkpt>
      <trkpt lat="45.3365" lon="6.1959">
        <ele>2345</ele>
        <time>2014-03-02T10:20:59.000Z</time>
      </trkpt>
      <trkpt lat="45.3365" lon="6.1959">
        <ele>2345</ele>
        <time>2014-03-02T10:21:00.000Z</time>
      </trkpt>
      <trkpt lat="45.3365" lon="6.1959">
        <ele>2345</ele>
        <time>2014-03-02T10:21:01.000Z</time>
      </trkpt>
      <trkpt lat="45.3365" lon="6.1959">
        <ele>2345</ele>
        <time>2014-03-02T10:21:02.000Z</time>
      </trkpt>
      <trkpt lat="45.3365" lon="6.1959">
        <ele>2345</ele>
        <time>2014-03-02T10:21:03.000Z</time>
      </trkpt>
      <trkpt lat="45.3365" lon="6.1959">
        <ele>2345</ele>
        <time>2014-03-02T10:21:04.000Z</time>
      </trkpt>
      <trkpt lat="45.3365" lon="6.1959">
        <ele>2345</ele>
        <time>2014-03-02T10:21:05.000Z</time>
      </trkpt>
      <trkpt lat="45.3365" lon="6.1959">
        <ele>2345</ele>
        <time>2014-03-02T10:21:06.000Z</time>
      </trkpt>
      <trkpt lat="45.3365" lon="6.1959">
        <ele>2345</ele>
        <time>2014-03-02T10:21:07.000Z</time>
      </trkpt>
      <trkpt lat="45.3365" lon="6.1959">
        <ele>2345</ele>
        <time>2014-03-02T10:21:08.000Z</time>
      </trkpt>
      <trkpt lat="45.3365" lon="6.1959">
        <ele>2345</ele>
        <time>2014-03-02T10:21:09.000Z</time>
      </trkpt>
      <trkpt lat="45.3365" lon="6.1959">
        <ele>2345</ele>
        <time>2014-03-02T10:21:10.000Z</time>
      </trkpt>
      <trkpt lat="45.3365" lon="6.1959">
        <ele>2345</ele>
        <time>2014-03-02T10:21:11.000Z</time>
      </trkpt>
      <trkpt lat="45.3365" lon="6.1959">
        <ele>2345.3999023438</ele>
        <time>2014-03-02T10:21:12.000Z</time>
      </trkpt>
      <trkpt lat="45.3365" lon="6.1959">
        <ele>2345.6000976562</ele>
        <time>2014-03-02T10:21:13.000Z</time>
      </trkpt>
      <trkpt lat="45.3365" lon="6.1959">
        <ele>2345.6000976562</ele>
        <time>2014-03-02T10:21:14.000Z</time>
      </trkpt>
      <trkpt lat="45.3365" lon="6.1959">
        <ele>2345.6000976562</ele>
        <time>2014-03-02T10:21:15.000Z</time>
      </trkpt>
      <trkpt lat="45.3365" lon="6.1959">
        <ele>2345.6000976562</ele>
        <time>2014-03-02T10:21:16.000Z</time>
      </trkpt>
      <trkpt lat="45.3365" lon="6.1959">
        <ele>2345.6000976562</ele>
        <time>2014-03-02T10:21:17.000Z</time>
      </trkpt>
      <trkpt lat="45.3365" lon="6.1959">
        <ele>2345.6000976562</ele>
        <time>2014-03-02T10:21:18.000Z</time>
      </trkpt>
      <trkpt lat="45.3365" lon="6.1959">
        <ele>2345.6000976562</ele>
        <time>2014-03-02T10:21:19.000Z</time>
      </trkpt>
      <trkpt lat="45.3365" lon="6.1959">
        <ele>2345.6000976562</ele>
        <time>2014-03-02T10:21:20.000Z</time>
      </trkpt>
      <trkpt lat="45.3365" lon="6.1959">
        <ele>2345.6000976562</ele>
        <time>2014-03-02T10:21:21.000Z</time>
      </trkpt>
      <trkpt lat="45.3365" lon="6.1959">
        <ele>2345.6000976562</ele>
        <time>2014-03-02T10:21:22.000Z</time>
      </trkpt>
      <trkpt lat="45.3365" lon="6.1959">
        <ele>2345.6000976562</ele>
        <time>2014-03-02T10:21:23.000Z</time>
      </trkpt>
      <trkpt lat="45.3365" lon="6.1959">
        <ele>2345.6000976562</ele>
        <time>2014-03-02T10:21:24.000Z</time>
      </trkpt>
      <trkpt lat="45.3365" lon="6.1959">
        <ele>2345.6000976562</ele>
        <time>2014-03-02T10:21:25.000Z</time>
      </trkpt>
      <trkpt lat="45.3365" lon="6.1959">
        <ele>2345.6000976562</ele>
        <time>2014-03-02T10:21:26.000Z</time>
      </trkpt>
      <trkpt lat="45.3365" lon="6.1959">
        <ele>2345.6000976562</ele>
        <time>2014-03-02T10:21:28.000Z</time>
      </trkpt>
      <trkpt lat="45.3365" lon="6.1959">
        <ele>2345.6000976562</ele>
        <time>2014-03-02T10:21:29.000Z</time>
      </trkpt>
      <trkpt lat="45.3365" lon="6.1959">
        <ele>2345.6000976562</ele>
        <time>2014-03-02T10:21:30.000Z</time>
      </trkpt>
      <trkpt lat="45.3365" lon="6.1959">
        <ele>2345.6000976562</ele>
        <time>2014-03-02T10:21:35.000Z</time>
      </trkpt>
      <trkpt lat="45.3365" lon="6.1959">
        <ele>2345.6000976562</ele>
        <time>2014-03-02T10:21:36.000Z</time>
      </trkpt>
      <trkpt lat="45.3365" lon="6.1959">
        <ele>2345.6000976562</ele>
        <time>2014-03-02T10:21:37.000Z</time>
      </trkpt>
      <trkpt lat="45.3365" lon="6.1959">
        <ele>2345.6000976562</ele>
        <time>2014-03-02T10:21:38.000Z</time>
      </trkpt>
      <trkpt lat="45.3365" lon="6.1959">
        <ele>2345.6000976562</ele>
        <time>2014-03-02T10:21:39.000Z</time>
      </trkpt>
      <trkpt lat="45.3365" lon="6.1959">
        <ele>2345.6000976562</ele>
        <time>2014-03-02T10:21:40.000Z</time>
      </trkpt>
      <trkpt lat="45.3365" lon="6.1959">
        <ele>2345.6000976562</ele>
        <time>2014-03-02T10:21:41.000Z</time>
      </trkpt>
      <trkpt lat="45.3365" lon="6.1959">
        <ele>2345.6000976562</ele>
        <time>2014-03-02T10:21:42.000Z</time>
      </trkpt>
      <trkpt lat="45.3365" lon="6.1959">
        <ele>2345.6000976562</ele>
        <time>2014-03-02T10:21:43.000Z</time>
      </trkpt>
      <trkpt lat="45.3365" lon="6.1959">
        <ele>2345.6000976562</ele>
        <time>2014-03-02T10:21:44.000Z</time>
      </trkpt>
      <trkpt lat="45.3365" lon="6.1959">
        <ele>2345.6000976562</ele>
        <time>2014-03-02T10:21:45.000Z</time>
      </trkpt>
      <trkpt lat="45.3365" lon="6.1959">
        <ele>2345.6000976562</ele>
        <time>2014-03-02T10:21:46.000Z</time>
      </trkpt>
      <trkpt lat="45.3365" lon="6.1959">
        <ele>2345.6000976562</ele>
        <time>2014-03-02T10:21:47.000Z</time>
      </trkpt>
      <trkpt lat="45.3365" lon="6.1959">
        <ele>2345.6000976562</ele>
        <time>2014-03-02T10:21:50.000Z</time>
      </trkpt>
      <trkpt lat="45.3365" lon="6.1959">
        <ele>2345.6000976562</ele>
        <time>2014-03-02T10:21:51.000Z</time>
      </trkpt>
      <trkpt lat="45.3365" lon="6.1959">
        <ele>2345.6000976562</ele>
        <time>2014-03-02T10:21:52.000Z</time>
      </trkpt>
      <trkpt lat="45.3365" lon="6.1959">
        <ele>2345.6000976562</ele>
        <time>2014-03-02T10:21:53.000Z</time>
      </trkpt>
      <trkpt lat="45.3365" lon="6.1959">
        <ele>2345.6000976562</ele>
        <time>2014-03-02T10:21:54.000Z</time>
      </trkpt>
      <trkpt lat="45.3365" lon="6.1959">
        <ele>2345.6000976562</ele>
        <time>2014-03-02T10:21:55.000Z</time>
      </trkpt>
      <trkpt lat="45.3365" lon="6.1959">
        <ele>2345.6000976562</ele>
        <time>2014-03-02T10:22:00.000Z</time>
      </trkpt>
      <trkpt lat="45.3365" lon="6.1959">
        <ele>2345.6000976562</ele>
        <time>2014-03-02T10:22:01.000Z</time>
      </trkpt>
      <trkpt lat="45.3365" lon="6.1959">
        <ele>2345.6000976562</ele>
        <time>2014-03-02T10:22:02.000Z</time>
      </trkpt>
      <trkpt lat="45.3365" lon="6.1959">
        <ele>2345.6000976562</ele>
        <time>2014-03-02T10:22:03.000Z</time>
      </trkpt>
      <trkpt lat="45.3365" lon="6.1959">
        <ele>2345.6000976562</ele>
        <time>2014-03-02T10:22:04.000Z</time>
      </trkpt>
      <trkpt lat="45.3365" lon="6.1959">
        <ele>2345.6000976562</ele>
        <time>2014-03-02T10:22:05.000Z</time>
      </trkpt>
      <trkpt lat="45.3365" lon="6.1959">
        <ele>2345.6000976562</ele>
        <time>2014-03-02T10:22:07.000Z</time>
      </trkpt>
      <trkpt lat="45.3365" lon="6.1959">
        <ele>2345.6000976562</ele>
        <time>2014-03-02T10:22:08.000Z</time>
      </trkpt>
      <trkpt lat="45.3365" lon="6.1959">
        <ele>2345.6000976562</ele>
        <time>2014-03-02T10:22:09.000Z</time>
      </trkpt>
      <trkpt lat="45.3365" lon="6.1959">
        <ele>2345.6000976562</ele>
        <time>2014-03-02T10:22:10.000Z</time>
      </trkpt>
      <trkpt lat="45.3365" lon="6.1959">
        <ele>2345.6000976562</ele>
        <time>2014-03-02T10:22:11.000Z</time>
      </trkpt>
      <trkpt lat="45.3365" lon="6.1959">
        <ele>2345.6000976562</ele>
        <time>2014-03-02T10:22:12.000Z</time>
      </trkpt>
      <trkpt lat="45.3365" lon="6.1959">
        <ele>2345.6000976562</ele>
        <time>2014-03-02T10:22:13.000Z</time>
      </trkpt>
      <trkpt lat="45.3365" lon="6.1959">
        <ele>2345.6000976562</ele>
        <time>2014-03-02T10:22:17.000Z</time>
      </trkpt>
      <trkpt lat="45.3365" lon="6.1959">
        <ele>2345.6000976562</ele>
        <time>2014-03-02T10:22:18.000Z</time>
      </trkpt>
      <trkpt lat="45.3365" lon="6.1959">
        <ele>2345.6000976562</ele>
        <time>2014-03-02T10:22:19.000Z</time>
      </trkpt>
      <trkpt lat="45.3365" lon="6.1959">
        <ele>2345.6000976562</ele>
        <time>2014-03-02T10:22:20.000Z</time>
      </trkpt>
      <trkpt lat="45.3365" lon="6.1959">
        <ele>2345.6000976562</ele>
        <time>2014-03-02T10:22:22.000Z</time>
      </trkpt>
      <trkpt lat="45.3365" lon="6.1959">
        <ele>2345.6000976562</ele>
        <time>2014-03-02T10:22:24.000Z</time>
      </trkpt>
      <trkpt lat="45.3365" lon="6.1959">
        <ele>2345.6000976562</ele>
        <time>2014-03-02T10:22:25.000Z</time>
      </trkpt>
      <trkpt lat="45.3365" lon="6.1959">
        <ele>2345.6000976562</ele>
        <time>2014-03-02T10:22:26.000Z</time>
      </trkpt>
      <trkpt lat="45.3365" lon="6.1959">
        <ele>2345.6000976562</ele>
        <time>2014-03-02T10:22:27.000Z</time>
      </trkpt>
      <trkpt lat="45.3365" lon="6.1959">
        <ele>2345.6000976562</ele>
        <time>2014-03-02T10:22:28.000Z</time>
      </trkpt>
      <trkpt lat="45.3365" lon="6.1959">
        <ele>2345.6000976562</ele>
        <time>2014-03-02T10:22:30.000Z</time>
      </trkpt>
      <trkpt lat="45.3365" lon="6.1959">
        <ele>2345.6000976562</ele>
        <time>2014-03-02T10:22:31.000Z</time>
      </trkpt>
      <trkpt lat="45.3365" lon="6.1959">
        <ele>2345.6000976562</ele>
        <time>2014-03-02T10:22:32.000Z</time>
      </trkpt>
      <trkpt lat="45.3365" lon="6.19589">
        <ele>2345.3999023438</ele>
        <time>2014-03-02T10:22:33.000Z</time>
      </trkpt>
      <trkpt lat="45.3365" lon="6.19589">
        <ele>2345.3999023438</ele>
        <time>2014-03-02T10:22:34.000Z</time>
      </trkpt>
      <trkpt lat="45.3365" lon="6.19589">
        <ele>2345.3999023438</ele>
        <time>2014-03-02T10:22:35.000Z</time>
      </trkpt>
      <trkpt lat="45.3365" lon="6.19589">
        <ele>2345.3999023438</ele>
        <time>2014-03-02T10:22:36.000Z</time>
      </trkpt>
      <trkpt lat="45.3365" lon="6.19589">
        <ele>2345.3999023438</ele>
        <time>2014-03-02T10:22:37.000Z</time>
      </trkpt>
      <trkpt lat="45.3365" lon="6.19589">
        <ele>2345.3999023438</ele>
        <time>2014-03-02T10:22:38.000Z</time>
      </trkpt>
      <trkpt lat="45.3365" lon="6.19589">
        <ele>2345.3999023438</ele>
        <time>2014-03-02T10:22:39.000Z</time>
      </trkpt>
      <trkpt lat="45.3365" lon="6.19589">
        <ele>2345.3999023438</ele>
        <time>2014-03-02T10:22:41.000Z</time>
      </trkpt>
      <trkpt lat="45.3365" lon="6.19589">
        <ele>2345.3999023438</ele>
        <time>2014-03-02T10:22:42.000Z</time>
      </trkpt>
      <trkpt lat="45.3365" lon="6.19589">
        <ele>2345.3999023438</ele>
        <time>2014-03-02T10:22:43.000Z</time>
      </trkpt>
      <trkpt lat="45.3365" lon="6.19589">
        <ele>2345.3999023438</ele>
        <time>2014-03-02T10:22:44.000Z</time>
      </trkpt>
      <trkpt lat="45.3365" lon="6.19589">
        <ele>2345.3999023438</ele>
        <time>2014-03-02T10:22:45.000Z</time>
      </trkpt>
      <trkpt lat="45.3365" lon="6.19589">
        <ele>2345.3999023438</ele>
        <time>2014-03-02T10:22:46.000Z</time>
      </trkpt>
      <trkpt lat="45.3365" lon="6.19589">
        <ele>2345.3999023438</ele>
        <time>2014-03-02T10:22:47.000Z</time>
      </trkpt>
      <trkpt lat="45.3365" lon="6.19589">
        <ele>2345.3999023438</ele>
        <time>2014-03-02T10:22:48.000Z</time>
      </trkpt>
      <trkpt lat="45.3365" lon="6.19589">
        <ele>2345.3999023438</ele>
        <time>2014-03-02T10:22:49.000Z</time>
      </trkpt>
      <trkpt lat="45.3365" lon="6.19589">
        <ele>2345.3999023438</ele>
        <time>2014-03-02T10:22:50.000Z</time>
      </trkpt>
      <trkpt lat="45.3365" lon="6.19589">
        <ele>2345.3999023438</ele>
        <time>2014-03-02T10:22:51.000Z</time>
      </trkpt>
      <trkpt lat="45.3365" lon="6.19589">
        <ele>2345.3999023438</ele>
        <time>2014-03-02T10:22:52.000Z</time>
      </trkpt>
      <trkpt lat="45.3365" lon="6.19589">
        <ele>2345.3999023438</ele>
        <time>2014-03-02T10:22:53.000Z</time>
      </trkpt>
      <trkpt lat="45.3365" lon="6.19589">
        <ele>2345.3999023438</ele>
        <time>2014-03-02T10:22:54.000Z</time>
      </trkpt>
      <trkpt lat="45.3365" lon="6.19589">
        <ele>2345.3999023438</ele>
        <time>2014-03-02T10:22:55.000Z</time>
      </trkpt>
      <trkpt lat="45.3365" lon="6.19589">
        <ele>2345.3999023438</ele>
        <time>2014-03-02T10:22:58.000Z</time>
      </trkpt>
      <trkpt lat="45.3365" lon="6.19589">
        <ele>2345.3999023438</ele>
        <time>2014-03-02T10:22:59.000Z</time>
      </trkpt>
      <trkpt lat="45.3365" lon="6.19589">
        <ele>2345.3999023438</ele>
        <time>2014-03-02T10:23:00.000Z</time>
      </trkpt>
      <trkpt lat="45.3365" lon="6.19589">
        <ele>2345.3999023438</ele>
        <time>2014-03-02T10:23:01.000Z</time>
      </trkpt>
      <trkpt lat="45.3365" lon="6.19589">
        <ele>2345.3999023438</ele>
        <time>2014-03-02T10:23:02.000Z</time>
      </trkpt>
      <trkpt lat="45.3365" lon="6.19589">
        <ele>2345.3999023438</ele>
        <time>2014-03-02T10:23:03.000Z</time>
      </trkpt>
      <trkpt lat="45.3365" lon="6.19589">
        <ele>2345.3999023438</ele>
        <time>2014-03-02T10:23:04.000Z</time>
      </trkpt>
      <trkpt lat="45.3365" lon="6.19589">
        <ele>2345.3999023438</ele>
        <time>2014-03-02T10:23:05.000Z</time>
      </trkpt>
      <trkpt lat="45.3365" lon="6.19589">
        <ele>2345.3999023438</ele>
        <time>2014-03-02T10:23:06.000Z</time>
      </trkpt>
      <trkpt lat="45.3365" lon="6.19589">
        <ele>2345.3999023438</ele>
        <time>2014-03-02T10:23:09.000Z</time>
      </trkpt>
      <trkpt lat="45.3365" lon="6.19589">
        <ele>2345.3999023438</ele>
        <time>2014-03-02T10:23:10.000Z</time>
      </trkpt>
      <trkpt lat="45.3365" lon="6.19589">
        <ele>2345.3999023438</ele>
        <time>2014-03-02T10:23:11.000Z</time>
      </trkpt>
      <trkpt lat="45.3365" lon="6.19589">
        <ele>2345.3999023438</ele>
        <time>2014-03-02T10:23:12.000Z</time>
      </trkpt>
      <trkpt lat="45.3365" lon="6.19589">
        <ele>2345.6000976562</ele>
        <time>2014-03-02T10:23:13.000Z</time>
      </trkpt>
      <trkpt lat="45.3365" lon="6.19589">
        <ele>2345.6000976562</ele>
        <time>2014-03-02T10:23:15.000Z</time>
      </trkpt>
      <trkpt lat="45.3365" lon="6.19589">
        <ele>2345.6000976562</ele>
        <time>2014-03-02T10:23:17.000Z</time>
      </trkpt>
      <trkpt lat="45.3365" lon="6.19589">
        <ele>2345.6000976562</ele>
        <time>2014-03-02T10:23:24.000Z</time>
      </trkpt>
      <trkpt lat="45.3365" lon="6.19589">
        <ele>2345.6000976562</ele>
        <time>2014-03-02T10:23:25.000Z</time>
      </trkpt>
      <trkpt lat="45.3365" lon="6.19589">
        <ele>2345.6000976562</ele>
        <time>2014-03-02T10:23:26.000Z</time>
      </trkpt>
      <trkpt lat="45.3365" lon="6.19589">
        <ele>2345.6000976562</ele>
        <time>2014-03-02T10:23:27.000Z</time>
      </trkpt>
      <trkpt lat="45.3365" lon="6.19589">
        <ele>2345.6000976562</ele>
        <time>2014-03-02T10:23:28.000Z</time>
      </trkpt>
      <trkpt lat="45.3365" lon="6.19589">
        <ele>2345.6000976562</ele>
        <time>2014-03-02T10:23:29.000Z</time>
      </trkpt>
      <trkpt lat="45.3365" lon="6.19589">
        <ele>2345.6000976562</ele>
        <time>2014-03-02T10:23:30.000Z</time>
      </trkpt>
      <trkpt lat="45.3365" lon="6.19589">
        <ele>2345.6000976562</ele>
        <time>2014-03-02T10:23:31.000Z</time>
      </trkpt>
      <trkpt lat="45.3365" lon="6.19589">
        <ele>2345.6000976562</ele>
        <time>2014-03-02T10:23:33.000Z</time>
      </trkpt>
      <trkpt lat="45.3365" lon="6.19589">
        <ele>2345.6000976562</ele>
        <time>2014-03-02T10:23:34.000Z</time>
      </trkpt>
      <trkpt lat="45.3365" lon="6.19589">
        <ele>2345.6000976562</ele>
        <time>2014-03-02T10:23:35.000Z</time>
      </trkpt>
      <trkpt lat="45.3365" lon="6.19589">
        <ele>2345.6000976562</ele>
        <time>2014-03-02T10:23:36.000Z</time>
      </trkpt>
      <trkpt lat="45.3365" lon="6.19589">
        <ele>2345.6000976562</ele>
        <time>2014-03-02T10:23:37.000Z</time>
      </trkpt>
      <trkpt lat="45.3365" lon="6.19589">
        <ele>2345.6000976562</ele>
        <time>2014-03-02T10:23:38.000Z</time>
      </trkpt>
      <trkpt lat="45.3365" lon="6.19589">
        <ele>2345.6000976562</ele>
        <time>2014-03-02T10:23:40.000Z</time>
      </trkpt>
      <trkpt lat="45.3365" lon="6.19589">
        <ele>2345.6000976562</ele>
        <time>2014-03-02T10:23:41.000Z</time>
      </trkpt>
      <trkpt lat="45.3365" lon="6.19589">
        <ele>2345.6000976562</ele>
        <time>2014-03-02T10:23:42.000Z</time>
      </trkpt>
      <trkpt lat="45.3365" lon="6.19589">
        <ele>2345.6000976562</ele>
        <time>2014-03-02T10:23:43.000Z</time>
      </trkpt>
      <trkpt lat="45.3365" lon="6.19589">
        <ele>2345.6000976562</ele>
        <time>2014-03-02T10:23:44.000Z</time>
      </trkpt>
      <trkpt lat="45.3365" lon="6.19589">
        <ele>2345.6000976562</ele>
        <time>2014-03-02T10:23:45.000Z</time>
      </trkpt>
      <trkpt lat="45.3365" lon="6.19589">
        <ele>2345.6000976562</ele>
        <time>2014-03-02T10:23:46.000Z</time>
      </trkpt>
      <trkpt lat="45.3365" lon="6.19589">
        <ele>2345.6000976562</ele>
        <time>2014-03-02T10:23:47.000Z</time>
      </trkpt>
      <trkpt lat="45.3365" lon="6.19589">
        <ele>2345.6000976562</ele>
        <time>2014-03-02T10:23:49.000Z</time>
      </trkpt>
      <trkpt lat="45.3365" lon="6.19589">
        <ele>2345.6000976562</ele>
        <time>2014-03-02T10:23:50.000Z</time>
      </trkpt>
      <trkpt lat="45.3365" lon="6.19589">
        <ele>2345.6000976562</ele>
        <time>2014-03-02T10:23:51.000Z</time>
      </trkpt>
      <trkpt lat="45.3365" lon="6.19589">
        <ele>2345.6000976562</ele>
        <time>2014-03-02T10:23:52.000Z</time>
      </trkpt>
      <trkpt lat="45.3365" lon="6.19589">
        <ele>2345.6000976562</ele>
        <time>2014-03-02T10:23:54.000Z</time>
      </trkpt>
      <trkpt lat="45.3365" lon="6.19589">
        <ele>2345.6000976562</ele>
        <time>2014-03-02T10:23:55.000Z</time>
      </trkpt>
      <trkpt lat="45.3365" lon="6.19589">
        <ele>2345.6000976562</ele>
        <time>2014-03-02T10:23:56.000Z</time>
      </trkpt>
      <trkpt lat="45.3365" lon="6.19589">
        <ele>2345.6000976562</ele>
        <time>2014-03-02T10:23:57.000Z</time>
      </trkpt>
      <trkpt lat="45.3365" lon="6.19589">
        <ele>2345.6000976562</ele>
        <time>2014-03-02T10:23:59.000Z</time>
      </trkpt>
      <trkpt lat="45.3365" lon="6.19589">
        <ele>2345.6000976562</ele>
        <time>2014-03-02T10:24:00.000Z</time>
      </trkpt>
      <trkpt lat="45.3365" lon="6.19589">
        <ele>2345.6000976562</ele>
        <time>2014-03-02T10:24:01.000Z</time>
      </trkpt>
      <trkpt lat="45.3365" lon="6.19589">
        <ele>2345.6000976562</ele>
        <time>2014-03-02T10:24:02.000Z</time>
      </trkpt>
      <trkpt lat="45.3365" lon="6.19589">
        <ele>2345.6000976562</ele>
        <time>2014-03-02T10:24:03.000Z</time>
      </trkpt>
      <trkpt lat="45.3365" lon="6.19589">
        <ele>2345.6000976562</ele>
        <time>2014-03-02T10:24:04.000Z</time>
      </trkpt>
      <trkpt lat="45.3365" lon="6.19589">
        <ele>2345.6000976562</ele>
        <time>2014-03-02T10:24:05.000Z</time>
      </trkpt>
      <trkpt lat="45.3365" lon="6.19589">
        <ele>2345.6000976562</ele>
        <time>2014-03-02T10:24:06.000Z</time>
      </trkpt>
      <trkpt lat="45.3365" lon="6.19589">
        <ele>2345.6000976562</ele>
        <time>2014-03-02T10:24:07.000Z</time>
      </trkpt>
      <trkpt lat="45.3365" lon="6.19589">
        <ele>2345.6000976562</ele>
        <time>2014-03-02T10:24:08.000Z</time>
      </trkpt>
      <trkpt lat="45.3365" lon="6.19589">
        <ele>2345.6000976562</ele>
        <time>2014-03-02T10:24:09.000Z</time>
      </trkpt>
      <trkpt lat="45.3365" lon="6.19589">
        <ele>2345.6000976562</ele>
        <time>2014-03-02T10:24:10.000Z</time>
      </trkpt>
      <trkpt lat="45.3365" lon="6.19589">
        <ele>2345.6000976562</ele>
        <time>2014-03-02T10:24:11.000Z</time>
      </trkpt>
      <trkpt lat="45.3365" lon="6.19589">
        <ele>2345.6000976562</ele>
        <time>2014-03-02T10:24:12.000Z</time>
      </trkpt>
      <trkpt lat="45.3365" lon="6.19589">
        <ele>2345.6000976562</ele>
        <time>2014-03-02T10:24:13.000Z</time>
      </trkpt>
      <trkpt lat="45.3365" lon="6.19589">
        <ele>2345.6000976562</ele>
        <time>2014-03-02T10:24:14.000Z</time>
      </trkpt>
      <trkpt lat="45.3365" lon="6.19589">
        <ele>2345.6000976562</ele>
        <time>2014-03-02T10:24:15.000Z</time>
      </trkpt>
      <trkpt lat="45.3365" lon="6.19589">
        <ele>2345.6000976562</ele>
        <time>2014-03-02T10:24:16.000Z</time>
      </trkpt>
      <trkpt lat="45.3365" lon="6.19589">
        <ele>2345.6000976562</ele>
        <time>2014-03-02T10:24:18.000Z</time>
      </trkpt>
      <trkpt lat="45.3365" lon="6.19589">
        <ele>2345.6000976562</ele>
        <time>2014-03-02T10:24:19.000Z</time>
      </trkpt>
      <trkpt lat="45.3365" lon="6.19589">
        <ele>2345.6000976562</ele>
        <time>2014-03-02T10:24:20.000Z</time>
      </trkpt>
      <trkpt lat="45.3365" lon="6.19589">
        <ele>2345.6000976562</ele>
        <time>2014-03-02T10:24:21.000Z</time>
      </trkpt>
      <trkpt lat="45.3365" lon="6.19589">
        <ele>2345.6000976562</ele>
        <time>2014-03-02T10:24:22.000Z</time>
      </trkpt>
      <trkpt lat="45.3365" lon="6.19589">
        <ele>2345.6000976562</ele>
        <time>2014-03-02T10:24:23.000Z</time>
      </trkpt>
      <trkpt lat="45.3365" lon="6.19589">
        <ele>2345.6000976562</ele>
        <time>2014-03-02T10:24:24.000Z</time>
      </trkpt>
      <trkpt lat="45.3365" lon="6.19589">
        <ele>2345.6000976562</ele>
        <time>2014-03-02T10:24:27.000Z</time>
      </trkpt>
      <trkpt lat="45.3365" lon="6.19589">
        <ele>2345.6000976562</ele>
        <time>2014-03-02T10:24:28.000Z</time>
      </trkpt>
      <trkpt lat="45.3365" lon="6.19589">
        <ele>2345.6000976562</ele>
        <time>2014-03-02T10:24:29.000Z</time>
      </trkpt>
      <trkpt lat="45.3365" lon="6.19589">
        <ele>2345.6000976562</ele>
        <time>2014-03-02T10:24:30.000Z</time>
      </trkpt>
      <trkpt lat="45.3365" lon="6.19589">
        <ele>2345.6000976562</ele>
        <time>2014-03-02T10:24:31.000Z</time>
      </trkpt>
      <trkpt lat="45.3365" lon="6.19589">
        <ele>2345.6000976562</ele>
        <time>2014-03-02T10:24:32.000Z</time>
      </trkpt>
      <trkpt lat="45.3365" lon="6.19589">
        <ele>2345.6000976562</ele>
        <time>2014-03-02T10:24:35.000Z</time>
      </trkpt>
      <trkpt lat="45.3365" lon="6.19589">
        <ele>2345.6000976562</ele>
        <time>2014-03-02T10:24:36.000Z</time>
      </trkpt>
      <trkpt lat="45.3365" lon="6.19589">
        <ele>2345.6000976562</ele>
        <time>2014-03-02T10:24:37.000Z</time>
      </trkpt>
      <trkpt lat="45.3365" lon="6.19589">
        <ele>2345.6000976562</ele>
        <time>2014-03-02T10:24:39.000Z</time>
      </trkpt>
      <trkpt lat="45.3365" lon="6.19589">
        <ele>2345.6000976562</ele>
        <time>2014-03-02T10:24:40.000Z</time>
      </trkpt>
      <trkpt lat="45.3365" lon="6.19589">
        <ele>2345.6000976562</ele>
        <time>2014-03-02T10:24:43.000Z</time>
      </trkpt>
      <trkpt lat="45.3365" lon="6.19589">
        <ele>2345.6000976562</ele>
        <time>2014-03-02T10:24:44.000Z</time>
      </trkpt>
      <trkpt lat="45.3365" lon="6.19589">
        <ele>2345.6000976562</ele>
        <time>2014-03-02T10:24:45.000Z</time>
      </trkpt>
      <trkpt lat="45.3365" lon="6.19589">
        <ele>2345.6000976562</ele>
        <time>2014-03-02T10:24:46.000Z</time>
      </trkpt>
      <trkpt lat="45.3365" lon="6.19589">
        <ele>2345.6000976562</ele>
        <time>2014-03-02T10:24:47.000Z</time>
      </trkpt>
      <trkpt lat="45.3365" lon="6.19589">
        <ele>2345.6000976562</ele>
        <time>2014-03-02T10:24:49.000Z</time>
      </trkpt>
      <trkpt lat="45.3365" lon="6.19589">
        <ele>2345.6000976562</ele>
        <time>2014-03-02T10:24:50.000Z</time>
      </trkpt>
      <trkpt lat="45.3365" lon="6.19589">
        <ele>2345.6000976562</ele>
        <time>2014-03-02T10:24:51.000Z</time>
      </trkpt>
      <trkpt lat="45.3365" lon="6.19589">
        <ele>2345.6000976562</ele>
        <time>2014-03-02T10:24:52.000Z</time>
      </trkpt>
      <trkpt lat="45.3365" lon="6.19589">
        <ele>2345.6000976562</ele>
        <time>2014-03-02T10:24:55.000Z</time>
      </trkpt>
      <trkpt lat="45.3365" lon="6.19589">
        <ele>2345.6000976562</ele>
        <time>2014-03-02T10:24:57.000Z</time>
      </trkpt>
      <trkpt lat="45.3365" lon="6.19589">
        <ele>2345.6000976562</ele>
        <time>2014-03-02T10:24:58.000Z</time>
      </trkpt>
      <trkpt lat="45.3365" lon="6.19589">
        <ele>2345.6000976562</ele>
        <time>2014-03-02T10:24:59.000Z</time>
      </trkpt>
      <trkpt lat="45.3365" lon="6.19589">
        <ele>2345.6000976562</ele>
        <time>2014-03-02T10:25:00.000Z</time>
      </trkpt>
      <trkpt lat="45.3365" lon="6.19589">
        <ele>2345.6000976562</ele>
        <time>2014-03-02T10:25:01.000Z</time>
      </trkpt>
      <trkpt lat="45.3365" lon="6.19589">
        <ele>2345.6000976562</ele>
        <time>2014-03-02T10:25:02.000Z</time>
      </trkpt>
      <trkpt lat="45.3365" lon="6.19589">
        <ele>2345.6000976562</ele>
        <time>2014-03-02T10:25:03.000Z</time>
      </trkpt>
      <trkpt lat="45.3365" lon="6.19589">
        <ele>2345.6000976562</ele>
        <time>2014-03-02T10:25:04.000Z</time>
      </trkpt>
      <trkpt lat="45.3365" lon="6.19589">
        <ele>2345.6000976562</ele>
        <time>2014-03-02T10:25:05.000Z</time>
      </trkpt>
      <trkpt lat="45.3365" lon="6.19589">
        <ele>2345.6000976562</ele>
        <time>2014-03-02T10:25:07.000Z</time>
      </trkpt>
      <trkpt lat="45.3365" lon="6.19589">
        <ele>2345.6000976562</ele>
        <time>2014-03-02T10:25:08.000Z</time>
      </trkpt>
      <trkpt lat="45.3365" lon="6.19589">
        <ele>2345.6000976562</ele>
        <time>2014-03-02T10:25:09.000Z</time>
      </trkpt>
      <trkpt lat="45.3365" lon="6.19589">
        <ele>2345.6000976562</ele>
        <time>2014-03-02T10:25:10.000Z</time>
      </trkpt>
      <trkpt lat="45.3365" lon="6.19589">
        <ele>2345.6000976562</ele>
        <time>2014-03-02T10:25:12.000Z</time>
      </trkpt>
      <trkpt lat="45.3365" lon="6.19589">
        <ele>2345.6000976562</ele>
        <time>2014-03-02T10:25:16.000Z</time>
      </trkpt>
      <trkpt lat="45.3365" lon="6.19589">
        <ele>2345.6000976562</ele>
        <time>2014-03-02T10:25:17.000Z</time>
      </trkpt>
      <trkpt lat="45.3365" lon="6.19589">
        <ele>2345.6000976562</ele>
        <time>2014-03-02T10:25:19.000Z</time>
      </trkpt>
      <trkpt lat="45.3365" lon="6.19589">
        <ele>2345.6000976562</ele>
        <time>2014-03-02T10:25:20.000Z</time>
      </trkpt>
      <trkpt lat="45.3365" lon="6.19589">
        <ele>2345.6000976562</ele>
        <time>2014-03-02T10:25:21.000Z</time>
      </trkpt>
      <trkpt lat="45.3365" lon="6.19589">
        <ele>2345.6000976562</ele>
        <time>2014-03-02T10:25:22.000Z</time>
      </trkpt>
      <trkpt lat="45.3365" lon="6.19589">
        <ele>2345.6000976562</ele>
        <time>2014-03-02T10:25:23.000Z</time>
      </trkpt>
      <trkpt lat="45.3365" lon="6.19589">
        <ele>2345.6000976562</ele>
        <time>2014-03-02T10:25:25.000Z</time>
      </trkpt>
      <trkpt lat="45.3365" lon="6.19589">
        <ele>2345.6000976562</ele>
        <time>2014-03-02T10:25:29.000Z</time>
      </trkpt>
      <trkpt lat="45.3365" lon="6.19589">
        <ele>2345.6000976562</ele>
        <time>2014-03-02T10:25:30.000Z</time>
      </trkpt>
      <trkpt lat="45.3365" lon="6.19589">
        <ele>2345.6000976562</ele>
        <time>2014-03-02T10:25:31.000Z</time>
      </trkpt>
      <trkpt lat="45.3365" lon="6.19589">
        <ele>2345.6000976562</ele>
        <time>2014-03-02T10:25:32.000Z</time>
      </trkpt>
      <trkpt lat="45.3365" lon="6.19589">
        <ele>2345.6000976562</ele>
        <time>2014-03-02T10:25:34.000Z</time>
      </trkpt>
      <trkpt lat="45.3365" lon="6.19589">
        <ele>2345.6000976562</ele>
        <time>2014-03-02T10:25:35.000Z</time>
      </trkpt>
      <trkpt lat="45.3365" lon="6.19589">
        <ele>2345.6000976562</ele>
        <time>2014-03-02T10:25:37.000Z</time>
      </trkpt>
      <trkpt lat="45.3365" lon="6.19589">
        <ele>2345.6000976562</ele>
        <time>2014-03-02T10:25:39.000Z</time>
      </trkpt>
      <trkpt lat="45.3365" lon="6.19589">
        <ele>2345.6000976562</ele>
        <time>2014-03-02T10:25:42.000Z</time>
      </trkpt>
      <trkpt lat="45.3365" lon="6.19589">
        <ele>2345.6000976562</ele>
        <time>2014-03-02T10:25:43.000Z</time>
      </trkpt>
      <trkpt lat="45.3365" lon="6.19589">
        <ele>2345.6000976562</ele>
        <time>2014-03-02T10:25:45.000Z</time>
      </trkpt>
      <trkpt lat="45.3365" lon="6.19589">
        <ele>2345.6000976562</ele>
        <time>2014-03-02T10:25:46.000Z</time>
      </trkpt>
      <trkpt lat="45.3365" lon="6.19589">
        <ele>2345.6000976562</ele>
        <time>2014-03-02T10:25:47.000Z</time>
      </trkpt>
      <trkpt lat="45.3365" lon="6.19589">
        <ele>2345.6000976562</ele>
        <time>2014-03-02T10:25:48.000Z</time>
      </trkpt>
      <trkpt lat="45.3365" lon="6.19589">
        <ele>2345.6000976562</ele>
        <time>2014-03-02T10:25:49.000Z</time>
      </trkpt>
      <trkpt lat="45.3365" lon="6.19589">
        <ele>2345.6000976562</ele>
        <time>2014-03-02T10:25:54.000Z</time>
      </trkpt>
      <trkpt lat="45.3365" lon="6.19589">
        <ele>2345.6000976562</ele>
        <time>2014-03-02T10:25:58.000Z</time>
      </trkpt>
      <trkpt lat="45.3365" lon="6.19589">
        <ele>2345.6000976562</ele>
        <time>2014-03-02T10:25:59.000Z</time>
      </trkpt>
      <trkpt lat="45.3365" lon="6.19589">
        <ele>2345.6000976562</ele>
        <time>2014-03-02T10:26:00.000Z</time>
      </trkpt>
      <trkpt lat="45.3365" lon="6.19589">
        <ele>2345.6000976562</ele>
        <time>2014-03-02T10:26:01.000Z</time>
      </trkpt>
      <trkpt lat="45.3365" lon="6.19589">
        <ele>2345.6000976562</ele>
        <time>2014-03-02T10:26:02.000Z</time>
      </trkpt>
      <trkpt lat="45.3365" lon="6.19589">
        <ele>2345.6000976562</ele>
        <time>2014-03-02T10:26:03.000Z</time>
      </trkpt>
      <trkpt lat="45.3365" lon="6.19589">
        <ele>2345.6000976562</ele>
        <time>2014-03-02T10:26:04.000Z</time>
      </trkpt>
      <trkpt lat="45.3365" lon="6.19589">
        <ele>2345.6000976562</ele>
        <time>2014-03-02T10:26:05.000Z</time>
      </trkpt>
      <trkpt lat="45.3365" lon="6.19589">
        <ele>2345.6000976562</ele>
        <time>2014-03-02T10:26:06.000Z</time>
      </trkpt>
      <trkpt lat="45.3365" lon="6.19589">
        <ele>2345.6000976562</ele>
        <time>2014-03-02T10:26:07.000Z</time>
      </trkpt>
      <trkpt lat="45.3365" lon="6.19589">
        <ele>2345.6000976562</ele>
        <time>2014-03-02T10:26:08.000Z</time>
      </trkpt>
      <trkpt lat="45.3365" lon="6.19589">
        <ele>2345.6000976562</ele>
        <time>2014-03-02T10:26:09.000Z</time>
      </trkpt>
      <trkpt lat="45.3365" lon="6.19589">
        <ele>2345.6000976562</ele>
        <time>2014-03-02T10:26:10.000Z</time>
      </trkpt>
      <trkpt lat="45.3365" lon="6.19589">
        <ele>2345.6000976562</ele>
        <time>2014-03-02T10:26:11.000Z</time>
      </trkpt>
      <trkpt lat="45.3365" lon="6.19589">
        <ele>2345.6000976562</ele>
        <time>2014-03-02T10:26:14.000Z</time>
      </trkpt>
      <trkpt lat="45.3365" lon="6.19589">
        <ele>2345.6000976562</ele>
        <time>2014-03-02T10:26:15.000Z</time>
      </trkpt>
      <trkpt lat="45.3365" lon="6.19589">
        <ele>2345.6000976562</ele>
        <time>2014-03-02T10:26:16.000Z</time>
      </trkpt>
      <trkpt lat="45.3365" lon="6.19589">
        <ele>2345.6000976562</ele>
        <time>2014-03-02T10:26:17.000Z</time>
      </trkpt>
      <trkpt lat="45.3365" lon="6.19589">
        <ele>2345.6000976562</ele>
        <time>2014-03-02T10:26:18.000Z</time>
      </trkpt>
      <trkpt lat="45.3365" lon="6.19589">
        <ele>2345.6000976562</ele>
        <time>2014-03-02T10:26:19.000Z</time>
      </trkpt>
      <trkpt lat="45.3365" lon="6.19589">
        <ele>2345.6000976562</ele>
        <time>2014-03-02T10:26:20.000Z</time>
      </trkpt>
      <trkpt lat="45.3365" lon="6.19589">
        <ele>2345.6000976562</ele>
        <time>2014-03-02T10:26:22.000Z</time>
      </trkpt>
      <trkpt lat="45.3365" lon="6.19589">
        <ele>2345.6000976562</ele>
        <time>2014-03-02T10:26:23.000Z</time>
      </trkpt>
      <trkpt lat="45.3365" lon="6.19589">
        <ele>2345.6000976562</ele>
        <time>2014-03-02T10:26:24.000Z</time>
      </trkpt>
      <trkpt lat="45.3365" lon="6.19589">
        <ele>2345.6000976562</ele>
        <time>2014-03-02T10:26:25.000Z</time>
      </trkpt>
      <trkpt lat="45.3365" lon="6.19589">
        <ele>2345.6000976562</ele>
        <time>2014-03-02T10:26:26.000Z</time>
      </trkpt>
      <trkpt lat="45.3365" lon="6.19589">
        <ele>2345.6000976562</ele>
        <time>2014-03-02T10:26:27.000Z</time>
      </trkpt>
      <trkpt lat="45.3365" lon="6.19589">
        <ele>2345.6000976562</ele>
        <time>2014-03-02T10:26:28.000Z</time>
      </trkpt>
      <trkpt lat="45.3365" lon="6.19589">
        <ele>2345.6000976562</ele>
        <time>2014-03-02T10:26:29.000Z</time>
      </trkpt>
      <trkpt lat="45.3365" lon="6.19589">
        <ele>2345.6000976562</ele>
        <time>2014-03-02T10:26:30.000Z</time>
      </trkpt>
      <trkpt lat="45.3365" lon="6.19589">
        <ele>2345.6000976562</ele>
        <time>2014-03-02T10:26:31.000Z</time>
      </trkpt>
      <trkpt lat="45.3365" lon="6.19589">
        <ele>2345.6000976562</ele>
        <time>2014-03-02T10:26:32.000Z</time>
      </trkpt>
      <trkpt lat="45.3365" lon="6.19589">
        <ele>2345.6000976562</ele>
        <time>2014-03-02T10:26:33.000Z</time>
      </trkpt>
      <trkpt lat="45.3365" lon="6.19589">
        <ele>2345.6000976562</ele>
        <time>2014-03-02T10:26:34.000Z</time>
      </trkpt>
      <trkpt lat="45.3365" lon="6.19589">
        <ele>2345.6000976562</ele>
        <time>2014-03-02T10:26:35.000Z</time>
      </trkpt>
      <trkpt lat="45.3365" lon="6.19589">
        <ele>2345.6000976562</ele>
        <time>2014-03-02T10:26:36.000Z</time>
      </trkpt>
      <trkpt lat="45.3365" lon="6.19589">
        <ele>2345.6000976562</ele>
        <time>2014-03-02T10:26:37.000Z</time>
      </trkpt>
      <trkpt lat="45.3365" lon="6.19589">
        <ele>2345.6000976562</ele>
        <time>2014-03-02T10:26:38.000Z</time>
      </trkpt>
      <trkpt lat="45.3365" lon="6.19589">
        <ele>2345.6000976562</ele>
        <time>2014-03-02T10:26:39.000Z</time>
      </trkpt>
      <trkpt lat="45.3365" lon="6.19589">
        <ele>2345.6000976562</ele>
        <time>2014-03-02T10:26:40.000Z</time>
      </trkpt>
      <trkpt lat="45.3365" lon="6.19589">
        <ele>2345.6000976562</ele>
        <time>2014-03-02T10:26:41.000Z</time>
      </trkpt>
      <trkpt lat="45.3365" lon="6.19589">
        <ele>2345.6000976562</ele>
        <time>2014-03-02T10:26:42.000Z</time>
      </trkpt>
      <trkpt lat="45.3365" lon="6.19589">
        <ele>2345.6000976562</ele>
        <time>2014-03-02T10:26:43.000Z</time>
      </trkpt>
      <trkpt lat="45.3365" lon="6.19589">
        <ele>2345.6000976562</ele>
        <time>2014-03-02T10:26:44.000Z</time>
      </trkpt>
      <trkpt lat="45.3365" lon="6.19589">
        <ele>2345.6000976562</ele>
        <time>2014-03-02T10:26:45.000Z</time>
      </trkpt>
      <trkpt lat="45.3365" lon="6.19589">
        <ele>2345.6000976562</ele>
        <time>2014-03-02T10:26:46.000Z</time>
      </trkpt>
      <trkpt lat="45.3365" lon="6.19589">
        <ele>2345.6000976562</ele>
        <time>2014-03-02T10:26:47.000Z</time>
      </trkpt>
      <trkpt lat="45.3365" lon="6.19589">
        <ele>2345.6000976562</ele>
        <time>2014-03-02T10:26:48.000Z</time>
      </trkpt>
      <trkpt lat="45.3365" lon="6.19589">
        <ele>2345.6000976562</ele>
        <time>2014-03-02T10:26:49.000Z</time>
      </trkpt>
      <trkpt lat="45.3365" lon="6.19589">
        <ele>2345.6000976562</ele>
        <time>2014-03-02T10:26:50.000Z</time>
      </trkpt>
      <trkpt lat="45.3365" lon="6.19589">
        <ele>2345.6000976562</ele>
        <time>2014-03-02T10:26:51.000Z</time>
      </trkpt>
      <trkpt lat="45.3365" lon="6.19589">
        <ele>2345.6000976562</ele>
        <time>2014-03-02T10:26:52.000Z</time>
      </trkpt>
      <trkpt lat="45.3365" lon="6.19589">
        <ele>2345.6000976562</ele>
        <time>2014-03-02T10:26:53.000Z</time>
      </trkpt>
      <trkpt lat="45.3365" lon="6.19589">
        <ele>2345.6000976562</ele>
        <time>2014-03-02T10:26:54.000Z</time>
      </trkpt>
      <trkpt lat="45.3365" lon="6.19589">
        <ele>2345.6000976562</ele>
        <time>2014-03-02T10:26:55.000Z</time>
      </trkpt>
      <trkpt lat="45.3365" lon="6.19589">
        <ele>2345.6000976562</ele>
        <time>2014-03-02T10:26:56.000Z</time>
      </trkpt>
      <trkpt lat="45.3365" lon="6.19589">
        <ele>2345.6000976562</ele>
        <time>2014-03-02T10:26:57.000Z</time>
      </trkpt>
      <trkpt lat="45.3365" lon="6.19589">
        <ele>2345.6000976562</ele>
        <time>2014-03-02T10:26:58.000Z</time>
      </trkpt>
      <trkpt lat="45.3365" lon="6.19589">
        <ele>2345.6000976562</ele>
        <time>2014-03-02T10:26:59.000Z</time>
      </trkpt>
      <trkpt lat="45.3365" lon="6.19589">
        <ele>2345.6000976562</ele>
        <time>2014-03-02T10:27:00.000Z</time>
      </trkpt>
      <trkpt lat="45.3365" lon="6.19589">
        <ele>2345.6000976562</ele>
        <time>2014-03-02T10:27:01.000Z</time>
      </trkpt>
      <trkpt lat="45.3365" lon="6.19589">
        <ele>2345.6000976562</ele>
        <time>2014-03-02T10:27:02.000Z</time>
      </trkpt>
      <trkpt lat="45.3365" lon="6.19589">
        <ele>2345.6000976562</ele>
        <time>2014-03-02T10:27:03.000Z</time>
      </trkpt>
      <trkpt lat="45.3365" lon="6.19589">
        <ele>2345.6000976562</ele>
        <time>2014-03-02T10:27:04.000Z</time>
      </trkpt>
      <trkpt lat="45.3365" lon="6.19589">
        <ele>2345.6000976562</ele>
        <time>2014-03-02T10:27:05.000Z</time>
      </trkpt>
      <trkpt lat="45.3365" lon="6.19589">
        <ele>2345.6000976562</ele>
        <time>2014-03-02T10:27:06.000Z</time>
      </trkpt>
      <trkpt lat="45.3365" lon="6.19589">
        <ele>2345.6000976562</ele>
        <time>2014-03-02T10:27:07.000Z</time>
      </trkpt>
      <trkpt lat="45.3365" lon="6.19589">
        <ele>2345.6000976562</ele>
        <time>2014-03-02T10:27:08.000Z</time>
      </trkpt>
      <trkpt lat="45.3365" lon="6.19589">
        <ele>2345.6000976562</ele>
        <time>2014-03-02T10:27:09.000Z</time>
      </trkpt>
      <trkpt lat="45.3365" lon="6.19589">
        <ele>2345.6000976562</ele>
        <time>2014-03-02T10:27:10.000Z</time>
      </trkpt>
      <trkpt lat="45.3365" lon="6.19589">
        <ele>2345.6000976562</ele>
        <time>2014-03-02T10:27:11.000Z</time>
      </trkpt>
      <trkpt lat="45.3365" lon="6.19589">
        <ele>2345.6000976562</ele>
        <time>2014-03-02T10:27:12.000Z</time>
      </trkpt>
      <trkpt lat="45.33651" lon="6.19589">
        <ele>2345.8000488281</ele>
        <time>2014-03-02T10:27:14.000Z</time>
      </trkpt>
      <trkpt lat="45.33651" lon="6.19589">
        <ele>2345.8000488281</ele>
        <time>2014-03-02T10:27:15.000Z</time>
      </trkpt>
      <trkpt lat="45.33651" lon="6.19589">
        <ele>2345.8000488281</ele>
        <time>2014-03-02T10:27:16.000Z</time>
      </trkpt>
      <trkpt lat="45.33651" lon="6.19589">
        <ele>2345.8000488281</ele>
        <time>2014-03-02T10:27:17.000Z</time>
      </trkpt>
      <trkpt lat="45.33651" lon="6.19589">
        <ele>2345.8000488281</ele>
        <time>2014-03-02T10:27:18.000Z</time>
      </trkpt>
      <trkpt lat="45.33651" lon="6.19589">
        <ele>2345.8000488281</ele>
        <time>2014-03-02T10:27:20.000Z</time>
      </trkpt>
      <trkpt lat="45.33651" lon="6.19589">
        <ele>2345.8000488281</ele>
        <time>2014-03-02T10:27:21.000Z</time>
      </trkpt>
      <trkpt lat="45.33651" lon="6.19589">
        <ele>2345.8000488281</ele>
        <time>2014-03-02T10:27:22.000Z</time>
      </trkpt>
      <trkpt lat="45.33651" lon="6.19589">
        <ele>2345.8000488281</ele>
        <time>2014-03-02T10:27:23.000Z</time>
      </trkpt>
      <trkpt lat="45.33651" lon="6.19589">
        <ele>2345.8000488281</ele>
        <time>2014-03-02T10:27:24.000Z</time>
      </trkpt>
      <trkpt lat="45.33651" lon="6.19589">
        <ele>2345.8000488281</ele>
        <time>2014-03-02T10:27:25.000Z</time>
      </trkpt>
      <trkpt lat="45.33651" lon="6.19589">
        <ele>2345.8000488281</ele>
        <time>2014-03-02T10:27:26.000Z</time>
      </trkpt>
      <trkpt lat="45.33651" lon="6.19589">
        <ele>2345.8000488281</ele>
        <time>2014-03-02T10:27:30.000Z</time>
      </trkpt>
      <trkpt lat="45.33651" lon="6.19589">
        <ele>2345.8000488281</ele>
        <time>2014-03-02T10:27:31.000Z</time>
      </trkpt>
      <trkpt lat="45.33651" lon="6.19589">
        <ele>2345.8000488281</ele>
        <time>2014-03-02T10:27:32.000Z</time>
      </trkpt>
      <trkpt lat="45.33651" lon="6.19589">
        <ele>2345.8000488281</ele>
        <time>2014-03-02T10:27:33.000Z</time>
      </trkpt>
      <trkpt lat="45.33651" lon="6.19589">
        <ele>2345.8000488281</ele>
        <time>2014-03-02T10:27:35.000Z</time>
      </trkpt>
      <trkpt lat="45.33651" lon="6.19589">
        <ele>2345.8000488281</ele>
        <time>2014-03-02T10:27:36.000Z</time>
      </trkpt>
      <trkpt lat="45.33651" lon="6.19589">
        <ele>2345.8000488281</ele>
        <time>2014-03-02T10:27:37.000Z</time>
      </trkpt>
      <trkpt lat="45.33651" lon="6.19589">
        <ele>2345.8000488281</ele>
        <time>2014-03-02T10:27:38.000Z</time>
      </trkpt>
      <trkpt lat="45.33651" lon="6.19589">
        <ele>2345.8000488281</ele>
        <time>2014-03-02T10:27:39.000Z</time>
      </trkpt>
      <trkpt lat="45.33651" lon="6.19589">
        <ele>2345.8000488281</ele>
        <time>2014-03-02T10:27:40.000Z</time>
      </trkpt>
      <trkpt lat="45.33651" lon="6.19589">
        <ele>2345.8000488281</ele>
        <time>2014-03-02T10:27:41.000Z</time>
      </trkpt>
      <trkpt lat="45.33651" lon="6.19589">
        <ele>2345.8000488281</ele>
        <time>2014-03-02T10:27:42.000Z</time>
      </trkpt>
      <trkpt lat="45.33651" lon="6.19589">
        <ele>2345.8000488281</ele>
        <time>2014-03-02T10:27:43.000Z</time>
      </trkpt>
      <trkpt lat="45.33651" lon="6.19589">
        <ele>2345.8000488281</ele>
        <time>2014-03-02T10:27:44.000Z</time>
      </trkpt>
      <trkpt lat="45.33651" lon="6.19589">
        <ele>2345.8000488281</ele>
        <time>2014-03-02T10:27:45.000Z</time>
      </trkpt>
      <trkpt lat="45.33651" lon="6.19589">
        <ele>2345.8000488281</ele>
        <time>2014-03-02T10:27:46.000Z</time>
      </trkpt>
      <trkpt lat="45.33651" lon="6.19589">
        <ele>2345.8000488281</ele>
        <time>2014-03-02T10:27:47.000Z</time>
      </trkpt>
      <trkpt lat="45.33651" lon="6.19589">
        <ele>2345.8000488281</ele>
        <time>2014-03-02T10:27:51.000Z</time>
      </trkpt>
      <trkpt lat="45.33651" lon="6.19589">
        <ele>2345.8000488281</ele>
        <time>2014-03-02T10:27:52.000Z</time>
      </trkpt>
      <trkpt lat="45.33651" lon="6.19589">
        <ele>2346</ele>
        <time>2014-03-02T10:27:54.000Z</time>
      </trkpt>
      <trkpt lat="45.33651" lon="6.19589">
        <ele>2346</ele>
        <time>2014-03-02T10:27:55.000Z</time>
      </trkpt>
      <trkpt lat="45.33651" lon="6.19589">
        <ele>2346</ele>
        <time>2014-03-02T10:27:56.000Z</time>
      </trkpt>
      <trkpt lat="45.33651" lon="6.19589">
        <ele>2346</ele>
        <time>2014-03-02T10:27:57.000Z</time>
      </trkpt>
      <trkpt lat="45.33651" lon="6.19589">
        <ele>2346</ele>
        <time>2014-03-02T10:28:01.000Z</time>
      </trkpt>
      <trkpt lat="45.33651" lon="6.19589">
        <ele>2346</ele>
        <time>2014-03-02T10:28:03.000Z</time>
      </trkpt>
      <trkpt lat="45.33651" lon="6.19589">
        <ele>2346</ele>
        <time>2014-03-02T10:28:04.000Z</time>
      </trkpt>
      <trkpt lat="45.33651" lon="6.19589">
        <ele>2346</ele>
        <time>2014-03-02T10:28:05.000Z</time>
      </trkpt>
      <trkpt lat="45.33651" lon="6.19589">
        <ele>2346</ele>
        <time>2014-03-02T10:28:06.000Z</time>
      </trkpt>
      <trkpt lat="45.33651" lon="6.19589">
        <ele>2346</ele>
        <time>2014-03-02T10:28:07.000Z</time>
      </trkpt>
      <trkpt lat="45.33651" lon="6.19589">
        <ele>2346</ele>
        <time>2014-03-02T10:28:08.000Z</time>
      </trkpt>
      <trkpt lat="45.33651" lon="6.19589">
        <ele>2346</ele>
        <time>2014-03-02T10:28:09.000Z</time>
      </trkpt>
      <trkpt lat="45.33651" lon="6.19589">
        <ele>2346</ele>
        <time>2014-03-02T10:28:11.000Z</time>
      </trkpt>
      <trkpt lat="45.33651" lon="6.19589">
        <ele>2346</ele>
        <time>2014-03-02T10:28:14.000Z</time>
      </trkpt>
      <trkpt lat="45.33651" lon="6.19589">
        <ele>2346</ele>
        <time>2014-03-02T10:28:15.000Z</time>
      </trkpt>
      <trkpt lat="45.33651" lon="6.19589">
        <ele>2346</ele>
        <time>2014-03-02T10:28:16.000Z</time>
      </trkpt>
      <trkpt lat="45.33651" lon="6.1959">
        <ele>2345.8000488281</ele>
        <time>2014-03-02T10:28:19.000Z</time>
      </trkpt>
      <trkpt lat="45.33651" lon="6.1959">
        <ele>2345.8000488281</ele>
        <time>2014-03-02T10:28:20.000Z</time>
      </trkpt>
      <trkpt lat="45.33651" lon="6.1959">
        <ele>2345.8000488281</ele>
        <time>2014-03-02T10:28:23.000Z</time>
      </trkpt>
      <trkpt lat="45.33651" lon="6.1959">
        <ele>2345.8000488281</ele>
        <time>2014-03-02T10:28:24.000Z</time>
      </trkpt>
      <trkpt lat="45.33651" lon="6.1959">
        <ele>2345.8000488281</ele>
        <time>2014-03-02T10:28:25.000Z</time>
      </trkpt>
      <trkpt lat="45.33651" lon="6.1959">
        <ele>2345.8000488281</ele>
        <time>2014-03-02T10:28:26.000Z</time>
      </trkpt>
      <trkpt lat="45.33651" lon="6.1959">
        <ele>2345.8000488281</ele>
        <time>2014-03-02T10:28:27.000Z</time>
      </trkpt>
      <trkpt lat="45.33651" lon="6.1959">
        <ele>2345.8000488281</ele>
        <time>2014-03-02T10:28:29.000Z</time>
      </trkpt>
      <trkpt lat="45.33651" lon="6.1959">
        <ele>2345.8000488281</ele>
        <time>2014-03-02T10:28:30.000Z</time>
      </trkpt>
      <trkpt lat="45.33651" lon="6.1959">
        <ele>2345.8000488281</ele>
        <time>2014-03-02T10:28:33.000Z</time>
      </trkpt>
      <trkpt lat="45.33651" lon="6.1959">
        <ele>2345.8000488281</ele>
        <time>2014-03-02T10:28:34.000Z</time>
      </trkpt>
      <trkpt lat="45.33651" lon="6.1959">
        <ele>2345.8000488281</ele>
        <time>2014-03-02T10:28:35.000Z</time>
      </trkpt>
      <trkpt lat="45.33651" lon="6.1959">
        <ele>2345.8000488281</ele>
        <time>2014-03-02T10:28:36.000Z</time>
      </trkpt>
      <trkpt lat="45.33651" lon="6.1959">
        <ele>2345.8000488281</ele>
        <time>2014-03-02T10:28:37.000Z</time>
      </trkpt>
      <trkpt lat="45.33651" lon="6.1959">
        <ele>2345.8000488281</ele>
        <time>2014-03-02T10:28:41.000Z</time>
      </trkpt>
      <trkpt lat="45.33651" lon="6.1959">
        <ele>2345.8000488281</ele>
        <time>2014-03-02T10:28:42.000Z</time>
      </trkpt>
      <trkpt lat="45.33651" lon="6.1959">
        <ele>2345.8000488281</ele>
        <time>2014-03-02T10:28:43.000Z</time>
      </trkpt>
      <trkpt lat="45.33651" lon="6.1959">
        <ele>2345.8000488281</ele>
        <time>2014-03-02T10:28:44.000Z</time>
      </trkpt>
      <trkpt lat="45.33651" lon="6.1959">
        <ele>2345.8000488281</ele>
        <time>2014-03-02T10:28:45.000Z</time>
      </trkpt>
      <trkpt lat="45.33651" lon="6.1959">
        <ele>2345.8000488281</ele>
        <time>2014-03-02T10:28:46.000Z</time>
      </trkpt>
      <trkpt lat="45.33651" lon="6.1959">
        <ele>2345.8000488281</ele>
        <time>2014-03-02T10:28:49.000Z</time>
      </trkpt>
      <trkpt lat="45.33651" lon="6.1959">
        <ele>2345.8000488281</ele>
        <time>2014-03-02T10:28:50.000Z</time>
      </trkpt>
      <trkpt lat="45.33651" lon="6.1959">
        <ele>2345.8000488281</ele>
        <time>2014-03-02T10:28:52.000Z</time>
      </trkpt>
      <trkpt lat="45.33651" lon="6.1959">
        <ele>2345.8000488281</ele>
        <time>2014-03-02T10:28:53.000Z</time>
      </trkpt>
      <trkpt lat="45.33651" lon="6.1959">
        <ele>2345.8000488281</ele>
        <time>2014-03-02T10:28:54.000Z</time>
      </trkpt>
      <trkpt lat="45.33651" lon="6.1959">
        <ele>2345.8000488281</ele>
        <time>2014-03-02T10:28:55.000Z</time>
      </trkpt>
      <trkpt lat="45.33651" lon="6.1959">
        <ele>2345.8000488281</ele>
        <time>2014-03-02T10:28:56.000Z</time>
      </trkpt>
      <trkpt lat="45.33651" lon="6.1959">
        <ele>2345.8000488281</ele>
        <time>2014-03-02T10:28:57.000Z</time>
      </trkpt>
      <trkpt lat="45.33651" lon="6.1959">
        <ele>2345.8000488281</ele>
        <time>2014-03-02T10:28:58.000Z</time>
      </trkpt>
      <trkpt lat="45.33651" lon="6.1959">
        <ele>2345.8000488281</ele>
        <time>2014-03-02T10:28:59.000Z</time>
      </trkpt>
      <trkpt lat="45.33651" lon="6.1959">
        <ele>2345.8000488281</ele>
        <time>2014-03-02T10:29:00.000Z</time>
      </trkpt>
      <trkpt lat="45.33651" lon="6.1959">
        <ele>2345.8000488281</ele>
        <time>2014-03-02T10:29:01.000Z</time>
      </trkpt>
      <trkpt lat="45.33651" lon="6.1959">
        <ele>2345.8000488281</ele>
        <time>2014-03-02T10:29:02.000Z</time>
      </trkpt>
      <trkpt lat="45.33651" lon="6.1959">
        <ele>2345.8000488281</ele>
        <time>2014-03-02T10:29:03.000Z</time>
      </trkpt>
      <trkpt lat="45.33651" lon="6.1959">
        <ele>2345.8000488281</ele>
        <time>2014-03-02T10:29:04.000Z</time>
      </trkpt>
      <trkpt lat="45.33651" lon="6.1959">
        <ele>2345.8000488281</ele>
        <time>2014-03-02T10:29:05.000Z</time>
      </trkpt>
      <trkpt lat="45.33651" lon="6.1959">
        <ele>2345.8000488281</ele>
        <time>2014-03-02T10:29:06.000Z</time>
      </trkpt>
      <trkpt lat="45.33651" lon="6.1959">
        <ele>2345.8000488281</ele>
        <time>2014-03-02T10:29:07.000Z</time>
      </trkpt>
      <trkpt lat="45.33651" lon="6.1959">
        <ele>2345.8000488281</ele>
        <time>2014-03-02T10:29:08.000Z</time>
      </trkpt>
      <trkpt lat="45.33651" lon="6.1959">
        <ele>2345.8000488281</ele>
        <time>2014-03-02T10:29:09.000Z</time>
      </trkpt>
      <trkpt lat="45.33651" lon="6.1959">
        <ele>2345.8000488281</ele>
        <time>2014-03-02T10:29:10.000Z</time>
      </trkpt>
      <trkpt lat="45.33651" lon="6.1959">
        <ele>2345.8000488281</ele>
        <time>2014-03-02T10:29:11.000Z</time>
      </trkpt>
      <trkpt lat="45.33651" lon="6.1959">
        <ele>2345.8000488281</ele>
        <time>2014-03-02T10:29:14.000Z</time>
      </trkpt>
      <trkpt lat="45.33651" lon="6.1959">
        <ele>2345.8000488281</ele>
        <time>2014-03-02T10:29:15.000Z</time>
      </trkpt>
      <trkpt lat="45.33651" lon="6.1959">
        <ele>2345.8000488281</ele>
        <time>2014-03-02T10:29:16.000Z</time>
      </trkpt>
      <trkpt lat="45.33651" lon="6.1959">
        <ele>2345.8000488281</ele>
        <time>2014-03-02T10:29:17.000Z</time>
      </trkpt>
      <trkpt lat="45.33651" lon="6.1959">
        <ele>2345.8000488281</ele>
        <time>2014-03-02T10:29:18.000Z</time>
      </trkpt>
      <trkpt lat="45.33651" lon="6.1959">
        <ele>2345.8000488281</ele>
        <time>2014-03-02T10:29:21.000Z</time>
      </trkpt>
      <trkpt lat="45.33651" lon="6.1959">
        <ele>2345.8000488281</ele>
        <time>2014-03-02T10:29:22.000Z</time>
      </trkpt>
      <trkpt lat="45.33651" lon="6.1959">
        <ele>2345.8000488281</ele>
        <time>2014-03-02T10:29:23.000Z</time>
      </trkpt>
      <trkpt lat="45.33651" lon="6.1959">
        <ele>2345.8000488281</ele>
        <time>2014-03-02T10:29:24.000Z</time>
      </trkpt>
      <trkpt lat="45.33651" lon="6.1959">
        <ele>2345.8000488281</ele>
        <time>2014-03-02T10:29:25.000Z</time>
      </trkpt>
      <trkpt lat="45.33651" lon="6.1959">
        <ele>2345.8000488281</ele>
        <time>2014-03-02T10:29:26.000Z</time>
      </trkpt>
      <trkpt lat="45.33651" lon="6.1959">
        <ele>2345.8000488281</ele>
        <time>2014-03-02T10:29:33.000Z</time>
      </trkpt>
      <trkpt lat="45.33651" lon="6.1959">
        <ele>2345.8000488281</ele>
        <time>2014-03-02T10:29:34.000Z</time>
      </trkpt>
      <trkpt lat="45.33651" lon="6.1959">
        <ele>2345.8000488281</ele>
        <time>2014-03-02T10:29:35.000Z</time>
      </trkpt>
      <trkpt lat="45.33651" lon="6.1959">
        <ele>2345.8000488281</ele>
        <time>2014-03-02T10:29:36.000Z</time>
      </trkpt>
      <trkpt lat="45.33651" lon="6.1959">
        <ele>2345.8000488281</ele>
        <time>2014-03-02T10:29:37.000Z</time>
      </trkpt>
      <trkpt lat="45.33651" lon="6.1959">
        <ele>2345.8000488281</ele>
        <time>2014-03-02T10:29:38.000Z</time>
      </trkpt>
      <trkpt lat="45.33651" lon="6.1959">
        <ele>2345.6000976562</ele>
        <time>2014-03-02T10:29:39.000Z</time>
      </trkpt>
      <trkpt lat="45.33651" lon="6.1959">
        <ele>2345.6000976562</ele>
        <time>2014-03-02T10:29:40.000Z</time>
      </trkpt>
      <trkpt lat="45.33651" lon="6.1959">
        <ele>2345.6000976562</ele>
        <time>2014-03-02T10:29:41.000Z</time>
      </trkpt>
      <trkpt lat="45.33652" lon="6.1959">
        <ele>2345.8000488281</ele>
        <time>2014-03-02T10:29:42.000Z</time>
      </trkpt>
      <trkpt lat="45.33652" lon="6.1959">
        <ele>2345.8000488281</ele>
        <time>2014-03-02T10:29:43.000Z</time>
      </trkpt>
      <trkpt lat="45.33652" lon="6.1959">
        <ele>2345.8000488281</ele>
        <time>2014-03-02T10:29:44.000Z</time>
      </trkpt>
      <trkpt lat="45.33652" lon="6.1959">
        <ele>2345.8000488281</ele>
        <time>2014-03-02T10:29:45.000Z</time>
      </trkpt>
      <trkpt lat="45.33652" lon="6.1959">
        <ele>2345.8000488281</ele>
        <time>2014-03-02T10:29:46.000Z</time>
      </trkpt>
      <trkpt lat="45.33652" lon="6.1959">
        <ele>2345.8000488281</ele>
        <time>2014-03-02T10:29:47.000Z</time>
      </trkpt>
      <trkpt lat="45.33652" lon="6.1959">
        <ele>2345.8000488281</ele>
        <time>2014-03-02T10:29:48.000Z</time>
      </trkpt>
      <trkpt lat="45.33652" lon="6.1959">
        <ele>2345.8000488281</ele>
        <time>2014-03-02T10:29:49.000Z</time>
      </trkpt>
      <trkpt lat="45.33652" lon="6.1959">
        <ele>2345.8000488281</ele>
        <time>2014-03-02T10:29:50.000Z</time>
      </trkpt>
      <trkpt lat="45.33652" lon="6.1959">
        <ele>2345.8000488281</ele>
        <time>2014-03-02T10:29:51.000Z</time>
      </trkpt>
      <trkpt lat="45.33652" lon="6.1959">
        <ele>2345.8000488281</ele>
        <time>2014-03-02T10:29:52.000Z</time>
      </trkpt>
      <trkpt lat="45.33652" lon="6.1959">
        <ele>2345.8000488281</ele>
        <time>2014-03-02T10:29:53.000Z</time>
      </trkpt>
      <trkpt lat="45.33652" lon="6.1959">
        <ele>2345.8000488281</ele>
        <time>2014-03-02T10:29:54.000Z</time>
      </trkpt>
      <trkpt lat="45.33652" lon="6.1959">
        <ele>2345.8000488281</ele>
        <time>2014-03-02T10:29:55.000Z</time>
      </trkpt>
      <trkpt lat="45.33652" lon="6.1959">
        <ele>2345.8000488281</ele>
        <time>2014-03-02T10:29:56.000Z</time>
      </trkpt>
      <trkpt lat="45.33652" lon="6.1959">
        <ele>2345.8000488281</ele>
        <time>2014-03-02T10:29:57.000Z</time>
      </trkpt>
      <trkpt lat="45.33652" lon="6.1959">
        <ele>2345.8000488281</ele>
        <time>2014-03-02T10:29:58.000Z</time>
      </trkpt>
      <trkpt lat="45.33652" lon="6.1959">
        <ele>2345.8000488281</ele>
        <time>2014-03-02T10:29:59.000Z</time>
      </trkpt>
      <trkpt lat="45.33652" lon="6.1959">
        <ele>2345.8000488281</ele>
        <time>2014-03-02T10:30:00.000Z</time>
      </trkpt>
      <trkpt lat="45.33652" lon="6.1959">
        <ele>2345.8000488281</ele>
        <time>2014-03-02T10:30:01.000Z</time>
      </trkpt>
      <trkpt lat="45.33652" lon="6.1959">
        <ele>2345.8000488281</ele>
        <time>2014-03-02T10:30:02.000Z</time>
      </trkpt>
      <trkpt lat="45.33652" lon="6.1959">
        <ele>2345.8000488281</ele>
        <time>2014-03-02T10:30:03.000Z</time>
      </trkpt>
      <trkpt lat="45.33652" lon="6.1959">
        <ele>2345.8000488281</ele>
        <time>2014-03-02T10:30:04.000Z</time>
      </trkpt>
      <trkpt lat="45.33652" lon="6.1959">
        <ele>2345.8000488281</ele>
        <time>2014-03-02T10:30:05.000Z</time>
      </trkpt>
      <trkpt lat="45.33652" lon="6.1959">
        <ele>2345.8000488281</ele>
        <time>2014-03-02T10:30:06.000Z</time>
      </trkpt>
      <trkpt lat="45.33652" lon="6.1959">
        <ele>2345.8000488281</ele>
        <time>2014-03-02T10:30:07.000Z</time>
      </trkpt>
      <trkpt lat="45.33652" lon="6.1959">
        <ele>2345.8000488281</ele>
        <time>2014-03-02T10:30:08.000Z</time>
      </trkpt>
      <trkpt lat="45.33652" lon="6.1959">
        <ele>2345.8000488281</ele>
        <time>2014-03-02T10:30:09.000Z</time>
      </trkpt>
      <trkpt lat="45.33652" lon="6.1959">
        <ele>2345.8000488281</ele>
        <time>2014-03-02T10:30:10.000Z</time>
      </trkpt>
      <trkpt lat="45.33652" lon="6.1959">
        <ele>2345.8000488281</ele>
        <time>2014-03-02T10:30:11.000Z</time>
      </trkpt>
      <trkpt lat="45.33652" lon="6.1959">
        <ele>2345.8000488281</ele>
        <time>2014-03-02T10:30:12.000Z</time>
      </trkpt>
      <trkpt lat="45.33652" lon="6.1959">
        <ele>2345.8000488281</ele>
        <time>2014-03-02T10:30:13.000Z</time>
      </trkpt>
      <trkpt lat="45.33652" lon="6.1959">
        <ele>2345.8000488281</ele>
        <time>2014-03-02T10:30:14.000Z</time>
      </trkpt>
      <trkpt lat="45.33652" lon="6.1959">
        <ele>2345.8000488281</ele>
        <time>2014-03-02T10:30:15.000Z</time>
      </trkpt>
      <trkpt lat="45.33652" lon="6.1959">
        <ele>2345.8000488281</ele>
        <time>2014-03-02T10:30:16.000Z</time>
      </trkpt>
      <trkpt lat="45.33652" lon="6.1959">
        <ele>2345.8000488281</ele>
        <time>2014-03-02T10:30:17.000Z</time>
      </trkpt>
      <trkpt lat="45.33652" lon="6.1959">
        <ele>2345.8000488281</ele>
        <time>2014-03-02T10:30:18.000Z</time>
      </trkpt>
      <trkpt lat="45.33652" lon="6.1959">
        <ele>2345.8000488281</ele>
        <time>2014-03-02T10:30:19.000Z</time>
      </trkpt>
      <trkpt lat="45.33652" lon="6.1959">
        <ele>2345.8000488281</ele>
        <time>2014-03-02T10:30:20.000Z</time>
      </trkpt>
      <trkpt lat="45.33652" lon="6.1959">
        <ele>2345.8000488281</ele>
        <time>2014-03-02T10:30:21.000Z</time>
      </trkpt>
      <trkpt lat="45.33652" lon="6.1959">
        <ele>2345.8000488281</ele>
        <time>2014-03-02T10:30:22.000Z</time>
      </trkpt>
      <trkpt lat="45.33652" lon="6.1959">
        <ele>2345.8000488281</ele>
        <time>2014-03-02T10:30:23.000Z</time>
      </trkpt>
      <trkpt lat="45.33652" lon="6.1959">
        <ele>2345.8000488281</ele>
        <time>2014-03-02T10:30:24.000Z</time>
      </trkpt>
      <trkpt lat="45.33652" lon="6.1959">
        <ele>2345.8000488281</ele>
        <time>2014-03-02T10:30:25.000Z</time>
      </trkpt>
      <trkpt lat="45.33652" lon="6.1959">
        <ele>2345.8000488281</ele>
        <time>2014-03-02T10:30:26.000Z</time>
      </trkpt>
      <trkpt lat="45.33652" lon="6.1959">
        <ele>2345.8000488281</ele>
        <time>2014-03-02T10:30:27.000Z</time>
      </trkpt>
      <trkpt lat="45.33652" lon="6.1959">
        <ele>2345.8000488281</ele>
        <time>2014-03-02T10:30:28.000Z</time>
      </trkpt>
      <trkpt lat="45.33652" lon="6.1959">
        <ele>2345.8000488281</ele>
        <time>2014-03-02T10:30:29.000Z</time>
      </trkpt>
      <trkpt lat="45.33652" lon="6.1959">
        <ele>2345.8000488281</ele>
        <time>2014-03-02T10:30:30.000Z</time>
      </trkpt>
      <trkpt lat="45.33652" lon="6.1959">
        <ele>2345.8000488281</ele>
        <time>2014-03-02T10:30:31.000Z</time>
      </trkpt>
      <trkpt lat="45.33652" lon="6.1959">
        <ele>2345.8000488281</ele>
        <time>2014-03-02T10:30:32.000Z</time>
      </trkpt>
      <trkpt lat="45.33652" lon="6.1959">
        <ele>2345.8000488281</ele>
        <time>2014-03-02T10:30:33.000Z</time>
      </trkpt>
      <trkpt lat="45.33652" lon="6.1959">
        <ele>2345.8000488281</ele>
        <time>2014-03-02T10:30:34.000Z</time>
      </trkpt>
      <trkpt lat="45.33652" lon="6.1959">
        <ele>2345.8000488281</ele>
        <time>2014-03-02T10:30:35.000Z</time>
      </trkpt>
      <trkpt lat="45.33652" lon="6.1959">
        <ele>2345.8000488281</ele>
        <time>2014-03-02T10:30:36.000Z</time>
      </trkpt>
      <trkpt lat="45.33652" lon="6.1959">
        <ele>2345.8000488281</ele>
        <time>2014-03-02T10:30:37.000Z</time>
      </trkpt>
      <trkpt lat="45.33652" lon="6.1959">
        <ele>2345.8000488281</ele>
        <time>2014-03-02T10:30:38.000Z</time>
      </trkpt>
      <trkpt lat="45.33652" lon="6.1959">
        <ele>2345.8000488281</ele>
        <time>2014-03-02T10:30:39.000Z</time>
      </trkpt>
      <trkpt lat="45.33652" lon="6.1959">
        <ele>2345.8000488281</ele>
        <time>2014-03-02T10:30:40.000Z</time>
      </trkpt>
      <trkpt lat="45.33652" lon="6.1959">
        <ele>2345.8000488281</ele>
        <time>2014-03-02T10:30:45.000Z</time>
      </trkpt>
      <trkpt lat="45.33652" lon="6.1959">
        <ele>2345.8000488281</ele>
        <time>2014-03-02T10:30:46.000Z</time>
      </trkpt>
      <trkpt lat="45.33652" lon="6.1959">
        <ele>2345.8000488281</ele>
        <time>2014-03-02T10:30:47.000Z</time>
      </trkpt>
      <trkpt lat="45.33652" lon="6.1959">
        <ele>2345.8000488281</ele>
        <time>2014-03-02T10:30:48.000Z</time>
      </trkpt>
      <trkpt lat="45.33652" lon="6.1959">
        <ele>2345.8000488281</ele>
        <time>2014-03-02T10:30:49.000Z</time>
      </trkpt>
      <trkpt lat="45.33652" lon="6.1959">
        <ele>2345.8000488281</ele>
        <time>2014-03-02T10:30:50.000Z</time>
      </trkpt>
      <trkpt lat="45.33652" lon="6.1959">
        <ele>2345.8000488281</ele>
        <time>2014-03-02T10:30:51.000Z</time>
      </trkpt>
      <trkpt lat="45.33652" lon="6.1959">
        <ele>2345.8000488281</ele>
        <time>2014-03-02T10:30:54.000Z</time>
      </trkpt>
      <trkpt lat="45.33652" lon="6.1959">
        <ele>2345.8000488281</ele>
        <time>2014-03-02T10:30:57.000Z</time>
      </trkpt>
      <trkpt lat="45.33652" lon="6.1959">
        <ele>2345.8000488281</ele>
        <time>2014-03-02T10:30:58.000Z</time>
      </trkpt>
      <trkpt lat="45.33652" lon="6.1959">
        <ele>2345.8000488281</ele>
        <time>2014-03-02T10:30:59.000Z</time>
      </trkpt>
      <trkpt lat="45.33652" lon="6.19591">
        <ele>2345.8000488281</ele>
        <time>2014-03-02T10:31:05.000Z</time>
      </trkpt>
      <trkpt lat="45.33652" lon="6.19591">
        <ele>2345.8000488281</ele>
        <time>2014-03-02T10:31:07.000Z</time>
      </trkpt>
      <trkpt lat="45.33652" lon="6.19591">
        <ele>2345.8000488281</ele>
        <time>2014-03-02T10:31:08.000Z</time>
      </trkpt>
      <trkpt lat="45.33652" lon="6.19591">
        <ele>2345.8000488281</ele>
        <time>2014-03-02T10:31:09.000Z</time>
      </trkpt>
      <trkpt lat="45.33652" lon="6.19591">
        <ele>2345.8000488281</ele>
        <time>2014-03-02T10:31:10.000Z</time>
      </trkpt>
      <trkpt lat="45.33652" lon="6.19591">
        <ele>2345.8000488281</ele>
        <time>2014-03-02T10:31:11.000Z</time>
      </trkpt>
      <trkpt lat="45.33652" lon="6.19591">
        <ele>2345.8000488281</ele>
        <time>2014-03-02T10:31:12.000Z</time>
      </trkpt>
      <trkpt lat="45.33652" lon="6.19591">
        <ele>2345.8000488281</ele>
        <time>2014-03-02T10:31:13.000Z</time>
      </trkpt>
      <trkpt lat="45.33652" lon="6.19591">
        <ele>2345.8000488281</ele>
        <time>2014-03-02T10:31:14.000Z</time>
      </trkpt>
      <trkpt lat="45.33652" lon="6.19591">
        <ele>2345.8000488281</ele>
        <time>2014-03-02T10:31:15.000Z</time>
      </trkpt>
      <trkpt lat="45.33652" lon="6.19591">
        <ele>2345.8000488281</ele>
        <time>2014-03-02T10:31:16.000Z</time>
      </trkpt>
      <trkpt lat="45.33652" lon="6.19591">
        <ele>2345.8000488281</ele>
        <time>2014-03-02T10:31:17.000Z</time>
      </trkpt>
      <trkpt lat="45.33652" lon="6.19591">
        <ele>2345.8000488281</ele>
        <time>2014-03-02T10:31:18.000Z</time>
      </trkpt>
      <trkpt lat="45.33652" lon="6.19591">
        <ele>2345.8000488281</ele>
        <time>2014-03-02T10:31:19.000Z</time>
      </trkpt>
      <trkpt lat="45.33652" lon="6.19591">
        <ele>2345.8000488281</ele>
        <time>2014-03-02T10:31:20.000Z</time>
      </trkpt>
      <trkpt lat="45.33652" lon="6.19591">
        <ele>2345.8000488281</ele>
        <time>2014-03-02T10:31:21.000Z</time>
      </trkpt>
      <trkpt lat="45.33652" lon="6.19591">
        <ele>2345.8000488281</ele>
        <time>2014-03-02T10:31:22.000Z</time>
      </trkpt>
      <trkpt lat="45.33652" lon="6.19591">
        <ele>2345.8000488281</ele>
        <time>2014-03-02T10:31:23.000Z</time>
      </trkpt>
      <trkpt lat="45.33652" lon="6.19591">
        <ele>2345.8000488281</ele>
        <time>2014-03-02T10:31:24.000Z</time>
      </trkpt>
      <trkpt lat="45.33654" lon="6.19593">
        <ele>2345.8000488281</ele>
        <time>2014-03-02T10:31:25.000Z</time>
      </trkpt>
      <trkpt lat="45.33655" lon="6.19594">
        <ele>2345.8000488281</ele>
        <time>2014-03-02T10:31:26.000Z</time>
      </trkpt>
      <trkpt lat="45.33655" lon="6.19594">
        <ele>2345.8000488281</ele>
        <time>2014-03-02T10:31:27.000Z</time>
      </trkpt>
      <trkpt lat="45.33655" lon="6.19595">
        <ele>2345.6000976562</ele>
        <time>2014-03-02T10:31:28.000Z</time>
      </trkpt>
      <trkpt lat="45.33656" lon="6.19596">
        <ele>2345.6000976562</ele>
        <time>2014-03-02T10:31:29.000Z</time>
      </trkpt>
      <trkpt lat="45.33657" lon="6.19601">
        <ele>2344.3999023438</ele>
        <time>2014-03-02T10:31:33.000Z</time>
      </trkpt>
      <trkpt lat="45.33658" lon="6.19603">
        <ele>2344</ele>
        <time>2014-03-02T10:31:34.000Z</time>
      </trkpt>
      <trkpt lat="45.33659" lon="6.19606">
        <ele>2343.1999511719</ele>
        <time>2014-03-02T10:31:35.000Z</time>
      </trkpt>
      <trkpt lat="45.33658" lon="6.19611">
        <ele>2341.6000976562</ele>
        <time>2014-03-02T10:31:36.000Z</time>
      </trkpt>
      <trkpt lat="45.33657" lon="6.19616">
        <ele>2339.6000976562</ele>
        <time>2014-03-02T10:31:37.000Z</time>
      </trkpt>
      <trkpt lat="45.33657" lon="6.19622">
        <ele>2337.3999023438</ele>
        <time>2014-03-02T10:31:38.000Z</time>
      </trkpt>
      <trkpt lat="45.33656" lon="6.19628">
        <ele>2335</ele>
        <time>2014-03-02T10:31:39.000Z</time>
      </trkpt>
      <trkpt lat="45.33656" lon="6.19635">
        <ele>2332.8000488281</ele>
        <time>2014-03-02T10:31:40.000Z</time>
      </trkpt>
      <trkpt lat="45.33657" lon="6.19641">
        <ele>2331.1999511719</ele>
        <time>2014-03-02T10:31:41.000Z</time>
      </trkpt>
      <trkpt lat="45.33655" lon="6.19647">
        <ele>2329.3999023438</ele>
        <time>2014-03-02T10:31:42.000Z</time>
      </trkpt>
      <trkpt lat="45.33653" lon="6.19653">
        <ele>2329.1999511719</ele>
        <time>2014-03-02T10:31:43.000Z</time>
      </trkpt>
      <trkpt lat="45.33651" lon="6.19661">
        <ele>2329</ele>
        <time>2014-03-02T10:31:44.000Z</time>
      </trkpt>
      <trkpt lat="45.33648" lon="6.1967">
        <ele>2326.6000976562</ele>
        <time>2014-03-02T10:31:45.000Z</time>
      </trkpt>
      <trkpt lat="45.33645" lon="6.19679">
        <ele>2323.8000488281</ele>
        <time>2014-03-02T10:31:46.000Z</time>
      </trkpt>
      <trkpt lat="45.33642" lon="6.19688">
        <ele>2320.3999023438</ele>
        <time>2014-03-02T10:31:47.000Z</time>
      </trkpt>
      <trkpt lat="45.33638" lon="6.19697">
        <ele>2317</ele>
        <time>2014-03-02T10:31:48.000Z</time>
      </trkpt>
      <trkpt lat="45.33632" lon="6.19704">
        <ele>2312.6000976562</ele>
        <time>2014-03-02T10:31:49.000Z</time>
      </trkpt>
      <trkpt lat="45.33628" lon="6.19714">
        <ele>2309.3999023438</ele>
        <time>2014-03-02T10:31:50.000Z</time>
      </trkpt>
      <trkpt lat="45.33623" lon="6.19724">
        <ele>2306.6000976562</ele>
        <time>2014-03-02T10:31:51.000Z</time>
      </trkpt>
      <trkpt lat="45.33617" lon="6.19734">
        <ele>2305.6000976562</ele>
        <time>2014-03-02T10:31:52.000Z</time>
      </trkpt>
      <trkpt lat="45.33611" lon="6.19744">
        <ele>2306.3999023438</ele>
        <time>2014-03-02T10:31:53.000Z</time>
      </trkpt>
      <trkpt lat="45.33606" lon="6.19755">
        <ele>2307.6000976562</ele>
        <time>2014-03-02T10:31:54.000Z</time>
      </trkpt>
      <trkpt lat="45.33601" lon="6.19767">
        <ele>2308.8000488281</ele>
        <time>2014-03-02T10:31:55.000Z</time>
      </trkpt>
      <trkpt lat="45.33596" lon="6.19777">
        <ele>2310</ele>
        <time>2014-03-02T10:31:56.000Z</time>
      </trkpt>
      <trkpt lat="45.33593" lon="6.19785">
        <ele>2309.3999023438</ele>
        <time>2014-03-02T10:31:57.000Z</time>
      </trkpt>
      <trkpt lat="45.3359" lon="6.19791">
        <ele>2309</ele>
        <time>2014-03-02T10:31:58.000Z</time>
      </trkpt>
      <trkpt lat="45.33588" lon="6.19797">
        <ele>2308.6000976562</ele>
        <time>2014-03-02T10:31:59.000Z</time>
      </trkpt>
      <trkpt lat="45.33586" lon="6.19801">
        <ele>2308.3999023438</ele>
        <time>2014-03-02T10:32:00.000Z</time>
      </trkpt>
      <trkpt lat="45.33584" lon="6.19805">
        <ele>2308</ele>
        <time>2014-03-02T10:32:01.000Z</time>
      </trkpt>
      <trkpt lat="45.33582" lon="6.19809">
        <ele>2307.3999023438</ele>
        <time>2014-03-02T10:32:02.000Z</time>
      </trkpt>
      <trkpt lat="45.33579" lon="6.19813">
        <ele>2307</ele>
        <time>2014-03-02T10:32:03.000Z</time>
      </trkpt>
      <trkpt lat="45.33576" lon="6.19816">
        <ele>2307.6000976562</ele>
        <time>2014-03-02T10:32:04.000Z</time>
      </trkpt>
      <trkpt lat="45.33572" lon="6.1982">
        <ele>2307.8000488281</ele>
        <time>2014-03-02T10:32:05.000Z</time>
      </trkpt>
      <trkpt lat="45.33568" lon="6.19822">
        <ele>2307.3999023438</ele>
        <time>2014-03-02T10:32:06.000Z</time>
      </trkpt>
      <trkpt lat="45.33566" lon="6.19824">
        <ele>2307.6000976562</ele>
        <time>2014-03-02T10:32:07.000Z</time>
      </trkpt>
      <trkpt lat="45.33565" lon="6.19824">
        <ele>2306.8000488281</ele>
        <time>2014-03-02T10:32:08.000Z</time>
      </trkpt>
      <trkpt lat="45.33564" lon="6.19823">
        <ele>2306</ele>
        <time>2014-03-02T10:32:09.000Z</time>
      </trkpt>
      <trkpt lat="45.33564" lon="6.19822">
        <ele>2305.3999023438</ele>
        <time>2014-03-02T10:32:10.000Z</time>
      </trkpt>
      <trkpt lat="45.33564" lon="6.19821">
        <ele>2304.8000488281</ele>
        <time>2014-03-02T10:32:11.000Z</time>
      </trkpt>
      <trkpt lat="45.33564" lon="6.1982">
        <ele>2304.3999023438</ele>
        <time>2014-03-02T10:32:12.000Z</time>
      </trkpt>
      <trkpt lat="45.33564" lon="6.19819">
        <ele>2304</ele>
        <time>2014-03-02T10:32:13.000Z</time>
      </trkpt>
      <trkpt lat="45.33564" lon="6.19819">
        <ele>2304</ele>
        <time>2014-03-02T10:32:14.000Z</time>
      </trkpt>
      <trkpt lat="45.33564" lon="6.19819">
        <ele>2304</ele>
        <time>2014-03-02T10:32:15.000Z</time>
      </trkpt>
      <trkpt lat="45.33563" lon="6.19818">
        <ele>2303.1999511719</ele>
        <time>2014-03-02T10:32:16.000Z</time>
      </trkpt>
      <trkpt lat="45.33563" lon="6.19817">
        <ele>2302.6000976562</ele>
        <time>2014-03-02T10:32:17.000Z</time>
      </trkpt>
      <trkpt lat="45.33563" lon="6.19817">
        <ele>2302.6000976562</ele>
        <time>2014-03-02T10:32:18.000Z</time>
      </trkpt>
      <trkpt lat="45.33563" lon="6.19816">
        <ele>2302.1999511719</ele>
        <time>2014-03-02T10:32:19.000Z</time>
      </trkpt>
      <trkpt lat="45.33563" lon="6.19816">
        <ele>2302.1999511719</ele>
        <time>2014-03-02T10:32:20.000Z</time>
      </trkpt>
      <trkpt lat="45.33563" lon="6.19816">
        <ele>2302.1999511719</ele>
        <time>2014-03-02T10:32:21.000Z</time>
      </trkpt>
      <trkpt lat="45.33563" lon="6.19816">
        <ele>2302.1999511719</ele>
        <time>2014-03-02T10:32:22.000Z</time>
      </trkpt>
      <trkpt lat="45.33563" lon="6.19816">
        <ele>2302.1999511719</ele>
        <time>2014-03-02T10:32:23.000Z</time>
      </trkpt>
      <trkpt lat="45.33563" lon="6.19816">
        <ele>2302.1999511719</ele>
        <time>2014-03-02T10:32:24.000Z</time>
      </trkpt>
      <trkpt lat="45.33562" lon="6.19816">
        <ele>2302</ele>
        <time>2014-03-02T10:32:25.000Z</time>
      </trkpt>
      <trkpt lat="45.33562" lon="6.19816">
        <ele>2301.6000976562</ele>
        <time>2014-03-02T10:32:26.000Z</time>
      </trkpt>
      <trkpt lat="45.33561" lon="6.19816">
        <ele>2301.3999023438</ele>
        <time>2014-03-02T10:32:27.000Z</time>
      </trkpt>
      <trkpt lat="45.3356" lon="6.19815">
        <ele>2300.8000488281</ele>
        <time>2014-03-02T10:32:28.000Z</time>
      </trkpt>
      <trkpt lat="45.33559" lon="6.19816">
        <ele>2300.3999023438</ele>
        <time>2014-03-02T10:32:29.000Z</time>
      </trkpt>
      <trkpt lat="45.33559" lon="6.19815">
        <ele>2300.3999023438</ele>
        <time>2014-03-02T10:32:30.000Z</time>
      </trkpt>
      <trkpt lat="45.33558" lon="6.19815">
        <ele>2300.1999511719</ele>
        <time>2014-03-02T10:32:31.000Z</time>
      </trkpt>
      <trkpt lat="45.33558" lon="6.19815">
        <ele>2299.6000976562</ele>
        <time>2014-03-02T10:32:33.000Z</time>
      </trkpt>
      <trkpt lat="45.33557" lon="6.19815">
        <ele>2299.3999023438</ele>
        <time>2014-03-02T10:32:34.000Z</time>
      </trkpt>
      <trkpt lat="45.33557" lon="6.19815">
        <ele>2299.3999023438</ele>
        <time>2014-03-02T10:32:35.000Z</time>
      </trkpt>
      <trkpt lat="45.33557" lon="6.19815">
        <ele>2299.1999511719</ele>
        <time>2014-03-02T10:32:36.000Z</time>
      </trkpt>
      <trkpt lat="45.33556" lon="6.19815">
        <ele>2299</ele>
        <time>2014-03-02T10:32:37.000Z</time>
      </trkpt>
      <trkpt lat="45.33555" lon="6.19815">
        <ele>2298.6000976562</ele>
        <time>2014-03-02T10:32:38.000Z</time>
      </trkpt>
      <trkpt lat="45.33555" lon="6.19815">
        <ele>2298.3999023438</ele>
        <time>2014-03-02T10:32:39.000Z</time>
      </trkpt>
      <trkpt lat="45.33555" lon="6.19814">
        <ele>2298.1999511719</ele>
        <time>2014-03-02T10:32:40.000Z</time>
      </trkpt>
      <trkpt lat="45.33554" lon="6.19815">
        <ele>2298.1999511719</ele>
        <time>2014-03-02T10:32:41.000Z</time>
      </trkpt>
      <trkpt lat="45.33554" lon="6.19815">
        <ele>2298</ele>
        <time>2014-03-02T10:32:42.000Z</time>
      </trkpt>
      <trkpt lat="45.33553" lon="6.19815">
        <ele>2297.8000488281</ele>
        <time>2014-03-02T10:32:46.000Z</time>
      </trkpt>
      <trkpt lat="45.33553" lon="6.19815">
        <ele>2297.6000976562</ele>
        <time>2014-03-02T10:32:48.000Z</time>
      </trkpt>
      <trkpt lat="45.33551" lon="6.19815">
        <ele>2297</ele>
        <time>2014-03-02T10:32:49.000Z</time>
      </trkpt>
      <trkpt lat="45.3355" lon="6.19815">
        <ele>2296.6000976562</ele>
        <time>2014-03-02T10:32:50.000Z</time>
      </trkpt>
      <trkpt lat="45.33549" lon="6.19814">
        <ele>2295.6000976562</ele>
        <time>2014-03-02T10:32:51.000Z</time>
      </trkpt>
      <trkpt lat="45.33547" lon="6.19813">
        <ele>2294.3999023438</ele>
        <time>2014-03-02T10:32:52.000Z</time>
      </trkpt>
      <trkpt lat="45.33544" lon="6.19813">
        <ele>2293.3999023438</ele>
        <time>2014-03-02T10:32:53.000Z</time>
      </trkpt>
      <trkpt lat="45.33541" lon="6.19812">
        <ele>2292.1999511719</ele>
        <time>2014-03-02T10:32:54.000Z</time>
      </trkpt>
      <trkpt lat="45.33537" lon="6.19811">
        <ele>2291.1999511719</ele>
        <time>2014-03-02T10:32:55.000Z</time>
      </trkpt>
      <trkpt lat="45.33534" lon="6.1981">
        <ele>2290.1999511719</ele>
        <time>2014-03-02T10:32:56.000Z</time>
      </trkpt>
      <trkpt lat="45.33531" lon="6.19809">
        <ele>2289.1999511719</ele>
        <time>2014-03-02T10:32:57.000Z</time>
      </trkpt>
      <trkpt lat="45.33528" lon="6.19808">
        <ele>2288.3999023438</ele>
        <time>2014-03-02T10:32:58.000Z</time>
      </trkpt>
      <trkpt lat="45.33527" lon="6.19806">
        <ele>2287.8000488281</ele>
        <time>2014-03-02T10:32:59.000Z</time>
      </trkpt>
      <trkpt lat="45.33525" lon="6.19806">
        <ele>2287.3999023438</ele>
        <time>2014-03-02T10:33:00.000Z</time>
      </trkpt>
      <trkpt lat="45.33524" lon="6.19805">
        <ele>2286.8000488281</ele>
        <time>2014-03-02T10:33:01.000Z</time>
      </trkpt>
      <trkpt lat="45.33522" lon="6.19804">
        <ele>2286.3999023438</ele>
        <time>2014-03-02T10:33:02.000Z</time>
      </trkpt>
      <trkpt lat="45.3352" lon="6.19803">
        <ele>2285.8000488281</ele>
        <time>2014-03-02T10:33:03.000Z</time>
      </trkpt>
      <trkpt lat="45.33518" lon="6.19803">
        <ele>2285.1999511719</ele>
        <time>2014-03-02T10:33:04.000Z</time>
      </trkpt>
      <trkpt lat="45.33517" lon="6.19803">
        <ele>2284.8000488281</ele>
        <time>2014-03-02T10:33:05.000Z</time>
      </trkpt>
      <trkpt lat="45.33515" lon="6.19803">
        <ele>2284.3999023438</ele>
        <time>2014-03-02T10:33:06.000Z</time>
      </trkpt>
      <trkpt lat="45.33514" lon="6.19803">
        <ele>2284</ele>
        <time>2014-03-02T10:33:07.000Z</time>
      </trkpt>
      <trkpt lat="45.33514" lon="6.19803">
        <ele>2284.1999511719</ele>
        <time>2014-03-02T10:33:08.000Z</time>
      </trkpt>
      <trkpt lat="45.33514" lon="6.19804">
        <ele>2284</ele>
        <time>2014-03-02T10:33:09.000Z</time>
      </trkpt>
      <trkpt lat="45.33513" lon="6.19804">
        <ele>2284</ele>
        <time>2014-03-02T10:33:10.000Z</time>
      </trkpt>
      <trkpt lat="45.33513" lon="6.19804">
        <ele>2284</ele>
        <time>2014-03-02T10:33:11.000Z</time>
      </trkpt>
      <trkpt lat="45.33513" lon="6.19805">
        <ele>2284</ele>
        <time>2014-03-02T10:33:12.000Z</time>
      </trkpt>
      <trkpt lat="45.33513" lon="6.19805">
        <ele>2284</ele>
        <time>2014-03-02T10:33:13.000Z</time>
      </trkpt>
      <trkpt lat="45.33513" lon="6.19805">
        <ele>2284</ele>
        <time>2014-03-02T10:33:14.000Z</time>
      </trkpt>
      <trkpt lat="45.33513" lon="6.19805">
        <ele>2284</ele>
        <time>2014-03-02T10:33:15.000Z</time>
      </trkpt>
      <trkpt lat="45.33513" lon="6.19805">
        <ele>2284</ele>
        <time>2014-03-02T10:33:16.000Z</time>
      </trkpt>
      <trkpt lat="45.33513" lon="6.19805">
        <ele>2284</ele>
        <time>2014-03-02T10:33:17.000Z</time>
      </trkpt>
      <trkpt lat="45.33513" lon="6.19805">
        <ele>2284</ele>
        <time>2014-03-02T10:33:18.000Z</time>
      </trkpt>
      <trkpt lat="45.33513" lon="6.19805">
        <ele>2284</ele>
        <time>2014-03-02T10:33:19.000Z</time>
      </trkpt>
      <trkpt lat="45.33514" lon="6.19807">
        <ele>2284.3999023438</ele>
        <time>2014-03-02T10:33:20.000Z</time>
      </trkpt>
      <trkpt lat="45.33514" lon="6.19807">
        <ele>2284.3999023438</ele>
        <time>2014-03-02T10:33:21.000Z</time>
      </trkpt>
      <trkpt lat="45.33514" lon="6.19807">
        <ele>2284.3999023438</ele>
        <time>2014-03-02T10:33:22.000Z</time>
      </trkpt>
      <trkpt lat="45.33514" lon="6.19807">
        <ele>2284.3999023438</ele>
        <time>2014-03-02T10:33:23.000Z</time>
      </trkpt>
      <trkpt lat="45.33514" lon="6.19807">
        <ele>2284.3999023438</ele>
        <time>2014-03-02T10:33:25.000Z</time>
      </trkpt>
      <trkpt lat="45.33514" lon="6.1981">
        <ele>2284.6000976562</ele>
        <time>2014-03-02T10:33:26.000Z</time>
      </trkpt>
      <trkpt lat="45.33514" lon="6.1981">
        <ele>2284.6000976562</ele>
        <time>2014-03-02T10:33:27.000Z</time>
      </trkpt>
      <trkpt lat="45.33514" lon="6.19811">
        <ele>2284.6000976562</ele>
        <time>2014-03-02T10:33:28.000Z</time>
      </trkpt>
      <trkpt lat="45.33513" lon="6.19813">
        <ele>2284.8000488281</ele>
        <time>2014-03-02T10:33:29.000Z</time>
      </trkpt>
      <trkpt lat="45.33513" lon="6.19814">
        <ele>2285</ele>
        <time>2014-03-02T10:33:30.000Z</time>
      </trkpt>
      <trkpt lat="45.33513" lon="6.19814">
        <ele>2285</ele>
        <time>2014-03-02T10:33:31.000Z</time>
      </trkpt>
      <trkpt lat="45.33513" lon="6.19815">
        <ele>2285.3999023438</ele>
        <time>2014-03-02T10:33:32.000Z</time>
      </trkpt>
      <trkpt lat="45.33512" lon="6.19815">
        <ele>2285.3999023438</ele>
        <time>2014-03-02T10:33:33.000Z</time>
      </trkpt>
      <trkpt lat="45.33512" lon="6.19815">
        <ele>2285.6000976562</ele>
        <time>2014-03-02T10:33:34.000Z</time>
      </trkpt>
      <trkpt lat="45.33512" lon="6.19816">
        <ele>2285.6000976562</ele>
        <time>2014-03-02T10:33:35.000Z</time>
      </trkpt>
      <trkpt lat="45.33512" lon="6.19816">
        <ele>2285.6000976562</ele>
        <time>2014-03-02T10:33:36.000Z</time>
      </trkpt>
      <trkpt lat="45.33512" lon="6.19817">
        <ele>2285.8000488281</ele>
        <time>2014-03-02T10:33:37.000Z</time>
      </trkpt>
      <trkpt lat="45.33512" lon="6.19816">
        <ele>2286</ele>
        <time>2014-03-02T10:33:38.000Z</time>
      </trkpt>
      <trkpt lat="45.33512" lon="6.19817">
        <ele>2286</ele>
        <time>2014-03-02T10:33:39.000Z</time>
      </trkpt>
      <trkpt lat="45.33512" lon="6.19817">
        <ele>2286.1999511719</ele>
        <time>2014-03-02T10:33:40.000Z</time>
      </trkpt>
      <trkpt lat="45.33512" lon="6.19817">
        <ele>2286.1999511719</ele>
        <time>2014-03-02T10:33:41.000Z</time>
      </trkpt>
      <trkpt lat="45.33512" lon="6.19817">
        <ele>2286.1999511719</ele>
        <time>2014-03-02T10:33:43.000Z</time>
      </trkpt>
      <trkpt lat="45.33512" lon="6.19817">
        <ele>2286.1999511719</ele>
        <time>2014-03-02T10:33:44.000Z</time>
      </trkpt>
      <trkpt lat="45.33512" lon="6.19817">
        <ele>2286.1999511719</ele>
        <time>2014-03-02T10:33:45.000Z</time>
      </trkpt>
      <trkpt lat="45.33512" lon="6.19817">
        <ele>2286.1999511719</ele>
        <time>2014-03-02T10:33:46.000Z</time>
      </trkpt>
      <trkpt lat="45.33512" lon="6.19817">
        <ele>2286.1999511719</ele>
        <time>2014-03-02T10:33:47.000Z</time>
      </trkpt>
      <trkpt lat="45.33512" lon="6.19817">
        <ele>2286.1999511719</ele>
        <time>2014-03-02T10:33:48.000Z</time>
      </trkpt>
      <trkpt lat="45.33512" lon="6.19817">
        <ele>2286.1999511719</ele>
        <time>2014-03-02T10:33:49.000Z</time>
      </trkpt>
      <trkpt lat="45.33512" lon="6.19817">
        <ele>2286.1999511719</ele>
        <time>2014-03-02T10:33:50.000Z</time>
      </trkpt>
      <trkpt lat="45.33512" lon="6.19817">
        <ele>2286.1999511719</ele>
        <time>2014-03-02T10:33:51.000Z</time>
      </trkpt>
      <trkpt lat="45.33512" lon="6.19817">
        <ele>2286.1999511719</ele>
        <time>2014-03-02T10:33:52.000Z</time>
      </trkpt>
      <trkpt lat="45.33512" lon="6.19817">
        <ele>2286.1999511719</ele>
        <time>2014-03-02T10:33:54.000Z</time>
      </trkpt>
      <trkpt lat="45.33512" lon="6.19817">
        <ele>2286.1999511719</ele>
        <time>2014-03-02T10:33:55.000Z</time>
      </trkpt>
      <trkpt lat="45.33512" lon="6.19817">
        <ele>2286.1999511719</ele>
        <time>2014-03-02T10:33:56.000Z</time>
      </trkpt>
      <trkpt lat="45.33512" lon="6.19817">
        <ele>2286.1999511719</ele>
        <time>2014-03-02T10:33:57.000Z</time>
      </trkpt>
      <trkpt lat="45.33512" lon="6.19818">
        <ele>2286.6000976562</ele>
        <time>2014-03-02T10:33:58.000Z</time>
      </trkpt>
      <trkpt lat="45.33512" lon="6.19819">
        <ele>2286.8000488281</ele>
        <time>2014-03-02T10:33:59.000Z</time>
      </trkpt>
      <trkpt lat="45.33512" lon="6.1982">
        <ele>2287</ele>
        <time>2014-03-02T10:34:00.000Z</time>
      </trkpt>
      <trkpt lat="45.33512" lon="6.1982">
        <ele>2287</ele>
        <time>2014-03-02T10:34:01.000Z</time>
      </trkpt>
      <trkpt lat="45.33512" lon="6.1982">
        <ele>2287</ele>
        <time>2014-03-02T10:34:02.000Z</time>
      </trkpt>
      <trkpt lat="45.33512" lon="6.1982">
        <ele>2287</ele>
        <time>2014-03-02T10:34:03.000Z</time>
      </trkpt>
      <trkpt lat="45.33512" lon="6.1982">
        <ele>2287</ele>
        <time>2014-03-02T10:34:04.000Z</time>
      </trkpt>
      <trkpt lat="45.33512" lon="6.1982">
        <ele>2287</ele>
        <time>2014-03-02T10:34:05.000Z</time>
      </trkpt>
      <trkpt lat="45.33511" lon="6.19821">
        <ele>2287.1999511719</ele>
        <time>2014-03-02T10:34:06.000Z</time>
      </trkpt>
      <trkpt lat="45.3351" lon="6.19823">
        <ele>2287.8000488281</ele>
        <time>2014-03-02T10:34:07.000Z</time>
      </trkpt>
      <trkpt lat="45.33509" lon="6.19827">
        <ele>2288.8000488281</ele>
        <time>2014-03-02T10:34:08.000Z</time>
      </trkpt>
      <trkpt lat="45.33507" lon="6.19832">
        <ele>2290</ele>
        <time>2014-03-02T10:34:09.000Z</time>
      </trkpt>
      <trkpt lat="45.33505" lon="6.19837">
        <ele>2291</ele>
        <time>2014-03-02T10:34:10.000Z</time>
      </trkpt>
      <trkpt lat="45.33503" lon="6.19842">
        <ele>2292.1999511719</ele>
        <time>2014-03-02T10:34:11.000Z</time>
      </trkpt>
      <trkpt lat="45.33499" lon="6.19846">
        <ele>2292.6000976562</ele>
        <time>2014-03-02T10:34:12.000Z</time>
      </trkpt>
      <trkpt lat="45.33496" lon="6.1985">
        <ele>2292.6000976562</ele>
        <time>2014-03-02T10:34:13.000Z</time>
      </trkpt>
      <trkpt lat="45.33491" lon="6.19854">
        <ele>2292.1999511719</ele>
        <time>2014-03-02T10:34:14.000Z</time>
      </trkpt>
      <trkpt lat="45.33488" lon="6.19858">
        <ele>2292</ele>
        <time>2014-03-02T10:34:15.000Z</time>
      </trkpt>
      <trkpt lat="45.33484" lon="6.19862">
        <ele>2291.8000488281</ele>
        <time>2014-03-02T10:34:16.000Z</time>
      </trkpt>
      <trkpt lat="45.33481" lon="6.19865">
        <ele>2291.6000976562</ele>
        <time>2014-03-02T10:34:17.000Z</time>
      </trkpt>
      <trkpt lat="45.33478" lon="6.19868">
        <ele>2291.3999023438</ele>
        <time>2014-03-02T10:34:18.000Z</time>
      </trkpt>
      <trkpt lat="45.33475" lon="6.19872">
        <ele>2291.3999023438</ele>
        <time>2014-03-02T10:34:19.000Z</time>
      </trkpt>
      <trkpt lat="45.33472" lon="6.19875">
        <ele>2291.3999023438</ele>
        <time>2014-03-02T10:34:20.000Z</time>
      </trkpt>
      <trkpt lat="45.33473" lon="6.19877">
        <ele>2292</ele>
        <time>2014-03-02T10:34:21.000Z</time>
      </trkpt>
      <trkpt lat="45.33472" lon="6.19878">
        <ele>2292.1999511719</ele>
        <time>2014-03-02T10:34:22.000Z</time>
      </trkpt>
      <trkpt lat="45.33472" lon="6.19879">
        <ele>2292.3999023438</ele>
        <time>2014-03-02T10:34:23.000Z</time>
      </trkpt>
      <trkpt lat="45.33472" lon="6.19879">
        <ele>2292.3999023438</ele>
        <time>2014-03-02T10:34:24.000Z</time>
      </trkpt>
      <trkpt lat="45.33472" lon="6.19879">
        <ele>2292.3999023438</ele>
        <time>2014-03-02T10:34:25.000Z</time>
      </trkpt>
      <trkpt lat="45.33472" lon="6.19879">
        <ele>2292.3999023438</ele>
        <time>2014-03-02T10:34:26.000Z</time>
      </trkpt>
      <trkpt lat="45.33472" lon="6.19879">
        <ele>2292.3999023438</ele>
        <time>2014-03-02T10:34:27.000Z</time>
      </trkpt>
      <trkpt lat="45.33472" lon="6.19879">
        <ele>2292.3999023438</ele>
        <time>2014-03-02T10:34:28.000Z</time>
      </trkpt>
      <trkpt lat="45.33472" lon="6.1988">
        <ele>2292.3999023438</ele>
        <time>2014-03-02T10:34:29.000Z</time>
      </trkpt>
      <trkpt lat="45.33472" lon="6.1988">
        <ele>2292.3999023438</ele>
        <time>2014-03-02T10:34:30.000Z</time>
      </trkpt>
      <trkpt lat="45.33472" lon="6.1988">
        <ele>2292.3999023438</ele>
        <time>2014-03-02T10:34:31.000Z</time>
      </trkpt>
      <trkpt lat="45.33472" lon="6.1988">
        <ele>2292.3999023438</ele>
        <time>2014-03-02T10:34:32.000Z</time>
      </trkpt>
      <trkpt lat="45.33472" lon="6.1988">
        <ele>2292.3999023438</ele>
        <time>2014-03-02T10:34:33.000Z</time>
      </trkpt>
      <trkpt lat="45.33472" lon="6.1988">
        <ele>2292.3999023438</ele>
        <time>2014-03-02T10:34:34.000Z</time>
      </trkpt>
      <trkpt lat="45.33472" lon="6.1988">
        <ele>2292.3999023438</ele>
        <time>2014-03-02T10:34:35.000Z</time>
      </trkpt>
      <trkpt lat="45.33472" lon="6.1988">
        <ele>2292.3999023438</ele>
        <time>2014-03-02T10:34:36.000Z</time>
      </trkpt>
      <trkpt lat="45.33472" lon="6.1988">
        <ele>2292.3999023438</ele>
        <time>2014-03-02T10:34:37.000Z</time>
      </trkpt>
      <trkpt lat="45.33472" lon="6.1988">
        <ele>2292.3999023438</ele>
        <time>2014-03-02T10:34:38.000Z</time>
      </trkpt>
      <trkpt lat="45.33472" lon="6.1988">
        <ele>2292.3999023438</ele>
        <time>2014-03-02T10:34:39.000Z</time>
      </trkpt>
      <trkpt lat="45.33472" lon="6.1988">
        <ele>2292.3999023438</ele>
        <time>2014-03-02T10:34:40.000Z</time>
      </trkpt>
      <trkpt lat="45.33472" lon="6.1988">
        <ele>2292.3999023438</ele>
        <time>2014-03-02T10:34:41.000Z</time>
      </trkpt>
      <trkpt lat="45.33472" lon="6.1988">
        <ele>2292.3999023438</ele>
        <time>2014-03-02T10:34:42.000Z</time>
      </trkpt>
      <trkpt lat="45.33472" lon="6.1988">
        <ele>2292.3999023438</ele>
        <time>2014-03-02T10:34:43.000Z</time>
      </trkpt>
      <trkpt lat="45.33472" lon="6.1988">
        <ele>2292.3999023438</ele>
        <time>2014-03-02T10:34:44.000Z</time>
      </trkpt>
      <trkpt lat="45.33472" lon="6.1988">
        <ele>2292.3999023438</ele>
        <time>2014-03-02T10:34:45.000Z</time>
      </trkpt>
      <trkpt lat="45.33472" lon="6.1988">
        <ele>2292.3999023438</ele>
        <time>2014-03-02T10:34:46.000Z</time>
      </trkpt>
      <trkpt lat="45.33472" lon="6.1988">
        <ele>2292.3999023438</ele>
        <time>2014-03-02T10:34:47.000Z</time>
      </trkpt>
      <trkpt lat="45.33472" lon="6.1988">
        <ele>2292.3999023438</ele>
        <time>2014-03-02T10:34:48.000Z</time>
      </trkpt>
      <trkpt lat="45.33472" lon="6.1988">
        <ele>2292.3999023438</ele>
        <time>2014-03-02T10:34:49.000Z</time>
      </trkpt>
      <trkpt lat="45.33472" lon="6.1988">
        <ele>2292.3999023438</ele>
        <time>2014-03-02T10:34:50.000Z</time>
      </trkpt>
      <trkpt lat="45.33472" lon="6.1988">
        <ele>2292.3999023438</ele>
        <time>2014-03-02T10:34:51.000Z</time>
      </trkpt>
      <trkpt lat="45.33472" lon="6.1988">
        <ele>2292.6000976562</ele>
        <time>2014-03-02T10:34:52.000Z</time>
      </trkpt>
      <trkpt lat="45.33472" lon="6.1988">
        <ele>2292.6000976562</ele>
        <time>2014-03-02T10:34:53.000Z</time>
      </trkpt>
      <trkpt lat="45.33472" lon="6.1988">
        <ele>2292.6000976562</ele>
        <time>2014-03-02T10:34:54.000Z</time>
      </trkpt>
      <trkpt lat="45.33472" lon="6.1988">
        <ele>2292.6000976562</ele>
        <time>2014-03-02T10:34:55.000Z</time>
      </trkpt>
      <trkpt lat="45.33472" lon="6.1988">
        <ele>2292.6000976562</ele>
        <time>2014-03-02T10:34:56.000Z</time>
      </trkpt>
      <trkpt lat="45.33472" lon="6.1988">
        <ele>2292.6000976562</ele>
        <time>2014-03-02T10:34:58.000Z</time>
      </trkpt>
      <trkpt lat="45.33472" lon="6.1988">
        <ele>2292.6000976562</ele>
        <time>2014-03-02T10:34:59.000Z</time>
      </trkpt>
      <trkpt lat="45.33472" lon="6.1988">
        <ele>2292.6000976562</ele>
        <time>2014-03-02T10:35:00.000Z</time>
      </trkpt>
      <trkpt lat="45.33472" lon="6.1988">
        <ele>2292.6000976562</ele>
        <time>2014-03-02T10:35:01.000Z</time>
      </trkpt>
      <trkpt lat="45.33472" lon="6.1988">
        <ele>2292.6000976562</ele>
        <time>2014-03-02T10:35:02.000Z</time>
      </trkpt>
      <trkpt lat="45.33472" lon="6.1988">
        <ele>2292.6000976562</ele>
        <time>2014-03-02T10:35:06.000Z</time>
      </trkpt>
      <trkpt lat="45.33472" lon="6.1988">
        <ele>2292.6000976562</ele>
        <time>2014-03-02T10:35:08.000Z</time>
      </trkpt>
      <trkpt lat="45.33472" lon="6.1988">
        <ele>2292.6000976562</ele>
        <time>2014-03-02T10:35:09.000Z</time>
      </trkpt>
      <trkpt lat="45.33472" lon="6.1988">
        <ele>2292.6000976562</ele>
        <time>2014-03-02T10:35:10.000Z</time>
      </trkpt>
      <trkpt lat="45.33472" lon="6.1988">
        <ele>2292.6000976562</ele>
        <time>2014-03-02T10:35:11.000Z</time>
      </trkpt>
      <trkpt lat="45.33472" lon="6.1988">
        <ele>2292.6000976562</ele>
        <time>2014-03-02T10:35:12.000Z</time>
      </trkpt>
      <trkpt lat="45.33472" lon="6.1988">
        <ele>2292.6000976562</ele>
        <time>2014-03-02T10:35:13.000Z</time>
      </trkpt>
      <trkpt lat="45.33472" lon="6.1988">
        <ele>2292.6000976562</ele>
        <time>2014-03-02T10:35:14.000Z</time>
      </trkpt>
      <trkpt lat="45.33472" lon="6.1988">
        <ele>2292.6000976562</ele>
        <time>2014-03-02T10:35:15.000Z</time>
      </trkpt>
      <trkpt lat="45.33472" lon="6.1988">
        <ele>2292.6000976562</ele>
        <time>2014-03-02T10:35:16.000Z</time>
      </trkpt>
      <trkpt lat="45.33472" lon="6.1988">
        <ele>2292.8000488281</ele>
        <time>2014-03-02T10:35:17.000Z</time>
      </trkpt>
      <trkpt lat="45.33472" lon="6.1988">
        <ele>2292.8000488281</ele>
        <time>2014-03-02T10:35:18.000Z</time>
      </trkpt>
      <trkpt lat="45.33472" lon="6.1988">
        <ele>2292.8000488281</ele>
        <time>2014-03-02T10:35:19.000Z</time>
      </trkpt>
      <trkpt lat="45.33472" lon="6.1988">
        <ele>2292.8000488281</ele>
        <time>2014-03-02T10:35:20.000Z</time>
      </trkpt>
      <trkpt lat="45.33472" lon="6.1988">
        <ele>2292.8000488281</ele>
        <time>2014-03-02T10:35:21.000Z</time>
      </trkpt>
      <trkpt lat="45.33472" lon="6.1988">
        <ele>2292.8000488281</ele>
        <time>2014-03-02T10:35:22.000Z</time>
      </trkpt>
      <trkpt lat="45.33472" lon="6.19882">
        <ele>2293.1999511719</ele>
        <time>2014-03-02T10:35:23.000Z</time>
      </trkpt>
      <trkpt lat="45.33472" lon="6.19882">
        <ele>2293.1999511719</ele>
        <time>2014-03-02T10:35:24.000Z</time>
      </trkpt>
      <trkpt lat="45.33472" lon="6.19882">
        <ele>2293.1999511719</ele>
        <time>2014-03-02T10:35:25.000Z</time>
      </trkpt>
      <trkpt lat="45.33472" lon="6.19882">
        <ele>2293.1999511719</ele>
        <time>2014-03-02T10:35:26.000Z</time>
      </trkpt>
      <trkpt lat="45.33472" lon="6.19882">
        <ele>2293.1999511719</ele>
        <time>2014-03-02T10:35:27.000Z</time>
      </trkpt>
      <trkpt lat="45.33472" lon="6.19882">
        <ele>2293.1999511719</ele>
        <time>2014-03-02T10:35:28.000Z</time>
      </trkpt>
      <trkpt lat="45.33472" lon="6.19882">
        <ele>2293.1999511719</ele>
        <time>2014-03-02T10:35:29.000Z</time>
      </trkpt>
      <trkpt lat="45.33472" lon="6.19882">
        <ele>2293.1999511719</ele>
        <time>2014-03-02T10:35:30.000Z</time>
      </trkpt>
      <trkpt lat="45.33472" lon="6.19882">
        <ele>2293.1999511719</ele>
        <time>2014-03-02T10:35:31.000Z</time>
      </trkpt>
      <trkpt lat="45.33472" lon="6.19882">
        <ele>2293.1999511719</ele>
        <time>2014-03-02T10:35:32.000Z</time>
      </trkpt>
      <trkpt lat="45.33472" lon="6.19882">
        <ele>2293.1999511719</ele>
        <time>2014-03-02T10:35:33.000Z</time>
      </trkpt>
      <trkpt lat="45.33472" lon="6.19882">
        <ele>2293.1999511719</ele>
        <time>2014-03-02T10:35:34.000Z</time>
      </trkpt>
      <trkpt lat="45.33472" lon="6.19882">
        <ele>2293.1999511719</ele>
        <time>2014-03-02T10:35:35.000Z</time>
      </trkpt>
      <trkpt lat="45.33472" lon="6.19882">
        <ele>2293.1999511719</ele>
        <time>2014-03-02T10:35:36.000Z</time>
      </trkpt>
      <trkpt lat="45.33472" lon="6.19882">
        <ele>2293.1999511719</ele>
        <time>2014-03-02T10:35:37.000Z</time>
      </trkpt>
      <trkpt lat="45.33472" lon="6.19882">
        <ele>2293.1999511719</ele>
        <time>2014-03-02T10:35:38.000Z</time>
      </trkpt>
      <trkpt lat="45.33472" lon="6.19882">
        <ele>2293.1999511719</ele>
        <time>2014-03-02T10:35:39.000Z</time>
      </trkpt>
      <trkpt lat="45.33472" lon="6.19882">
        <ele>2293.1999511719</ele>
        <time>2014-03-02T10:35:40.000Z</time>
      </trkpt>
      <trkpt lat="45.33472" lon="6.19882">
        <ele>2293.1999511719</ele>
        <time>2014-03-02T10:35:41.000Z</time>
      </trkpt>
      <trkpt lat="45.33472" lon="6.19882">
        <ele>2293.1999511719</ele>
        <time>2014-03-02T10:35:42.000Z</time>
      </trkpt>
      <trkpt lat="45.33472" lon="6.19882">
        <ele>2293.1999511719</ele>
        <time>2014-03-02T10:35:43.000Z</time>
      </trkpt>
      <trkpt lat="45.33472" lon="6.19882">
        <ele>2293.1999511719</ele>
        <time>2014-03-02T10:35:44.000Z</time>
      </trkpt>
      <trkpt lat="45.33472" lon="6.19882">
        <ele>2293.1999511719</ele>
        <time>2014-03-02T10:35:45.000Z</time>
      </trkpt>
      <trkpt lat="45.33472" lon="6.19882">
        <ele>2293.1999511719</ele>
        <time>2014-03-02T10:35:46.000Z</time>
      </trkpt>
      <trkpt lat="45.33472" lon="6.19882">
        <ele>2293.1999511719</ele>
        <time>2014-03-02T10:35:47.000Z</time>
      </trkpt>
      <trkpt lat="45.33472" lon="6.19882">
        <ele>2293.1999511719</ele>
        <time>2014-03-02T10:35:48.000Z</time>
      </trkpt>
      <trkpt lat="45.33472" lon="6.19882">
        <ele>2293.1999511719</ele>
        <time>2014-03-02T10:35:50.000Z</time>
      </trkpt>
      <trkpt lat="45.33472" lon="6.19882">
        <ele>2293.1999511719</ele>
        <time>2014-03-02T10:35:51.000Z</time>
      </trkpt>
      <trkpt lat="45.33472" lon="6.19882">
        <ele>2293.1999511719</ele>
        <time>2014-03-02T10:35:52.000Z</time>
      </trkpt>
      <trkpt lat="45.33472" lon="6.19882">
        <ele>2293.1999511719</ele>
        <time>2014-03-02T10:35:53.000Z</time>
      </trkpt>
      <trkpt lat="45.33472" lon="6.19882">
        <ele>2293.1999511719</ele>
        <time>2014-03-02T10:35:54.000Z</time>
      </trkpt>
      <trkpt lat="45.33472" lon="6.19882">
        <ele>2293.1999511719</ele>
        <time>2014-03-02T10:35:55.000Z</time>
      </trkpt>
      <trkpt lat="45.33472" lon="6.19882">
        <ele>2293.1999511719</ele>
        <time>2014-03-02T10:35:56.000Z</time>
      </trkpt>
      <trkpt lat="45.33472" lon="6.19882">
        <ele>2293.1999511719</ele>
        <time>2014-03-02T10:35:57.000Z</time>
      </trkpt>
      <trkpt lat="45.33472" lon="6.19882">
        <ele>2293.1999511719</ele>
        <time>2014-03-02T10:35:58.000Z</time>
      </trkpt>
      <trkpt lat="45.33472" lon="6.19882">
        <ele>2293.1999511719</ele>
        <time>2014-03-02T10:35:59.000Z</time>
      </trkpt>
      <trkpt lat="45.33472" lon="6.19882">
        <ele>2293.1999511719</ele>
        <time>2014-03-02T10:36:00.000Z</time>
      </trkpt>
      <trkpt lat="45.33473" lon="6.19882">
        <ele>2293.6000976562</ele>
        <time>2014-03-02T10:36:04.000Z</time>
      </trkpt>
      <trkpt lat="45.33473" lon="6.19882">
        <ele>2293.6000976562</ele>
        <time>2014-03-02T10:36:09.000Z</time>
      </trkpt>
      <trkpt lat="45.33473" lon="6.19882">
        <ele>2293.6000976562</ele>
        <time>2014-03-02T10:36:10.000Z</time>
      </trkpt>
      <trkpt lat="45.33473" lon="6.19882">
        <ele>2293.6000976562</ele>
        <time>2014-03-02T10:36:11.000Z</time>
      </trkpt>
      <trkpt lat="45.33473" lon="6.19882">
        <ele>2293.6000976562</ele>
        <time>2014-03-02T10:36:12.000Z</time>
      </trkpt>
      <trkpt lat="45.33473" lon="6.19882">
        <ele>2293.6000976562</ele>
        <time>2014-03-02T10:36:13.000Z</time>
      </trkpt>
      <trkpt lat="45.33473" lon="6.19882">
        <ele>2293.6000976562</ele>
        <time>2014-03-02T10:36:15.000Z</time>
      </trkpt>
      <trkpt lat="45.33473" lon="6.19882">
        <ele>2293.6000976562</ele>
        <time>2014-03-02T10:36:16.000Z</time>
      </trkpt>
      <trkpt lat="45.33473" lon="6.19882">
        <ele>2293.6000976562</ele>
        <time>2014-03-02T10:36:17.000Z</time>
      </trkpt>
      <trkpt lat="45.33473" lon="6.19882">
        <ele>2293.6000976562</ele>
        <time>2014-03-02T10:36:18.000Z</time>
      </trkpt>
      <trkpt lat="45.33473" lon="6.19882">
        <ele>2293.6000976562</ele>
        <time>2014-03-02T10:36:20.000Z</time>
      </trkpt>
      <trkpt lat="45.33473" lon="6.19882">
        <ele>2293.6000976562</ele>
        <time>2014-03-02T10:36:21.000Z</time>
      </trkpt>
      <trkpt lat="45.33473" lon="6.19882">
        <ele>2293.6000976562</ele>
        <time>2014-03-02T10:36:22.000Z</time>
      </trkpt>
      <trkpt lat="45.33473" lon="6.19882">
        <ele>2293.6000976562</ele>
        <time>2014-03-02T10:36:23.000Z</time>
      </trkpt>
      <trkpt lat="45.33473" lon="6.19882">
        <ele>2293.6000976562</ele>
        <time>2014-03-02T10:36:24.000Z</time>
      </trkpt>
      <trkpt lat="45.33473" lon="6.19882">
        <ele>2293.6000976562</ele>
        <time>2014-03-02T10:36:25.000Z</time>
      </trkpt>
      <trkpt lat="45.33473" lon="6.19882">
        <ele>2293.6000976562</ele>
        <time>2014-03-02T10:36:28.000Z</time>
      </trkpt>
      <trkpt lat="45.33473" lon="6.19882">
        <ele>2293.6000976562</ele>
        <time>2014-03-02T10:36:29.000Z</time>
      </trkpt>
      <trkpt lat="45.33473" lon="6.19882">
        <ele>2293.6000976562</ele>
        <time>2014-03-02T10:36:30.000Z</time>
      </trkpt>
      <trkpt lat="45.33473" lon="6.19882">
        <ele>2293.6000976562</ele>
        <time>2014-03-02T10:36:31.000Z</time>
      </trkpt>
      <trkpt lat="45.33473" lon="6.19882">
        <ele>2293.6000976562</ele>
        <time>2014-03-02T10:36:32.000Z</time>
      </trkpt>
      <trkpt lat="45.33473" lon="6.19882">
        <ele>2293.6000976562</ele>
        <time>2014-03-02T10:36:33.000Z</time>
      </trkpt>
      <trkpt lat="45.33473" lon="6.19882">
        <ele>2293.6000976562</ele>
        <time>2014-03-02T10:36:34.000Z</time>
      </trkpt>
      <trkpt lat="45.33473" lon="6.19882">
        <ele>2293.6000976562</ele>
        <time>2014-03-02T10:36:35.000Z</time>
      </trkpt>
      <trkpt lat="45.33473" lon="6.19882">
        <ele>2293.6000976562</ele>
        <time>2014-03-02T10:36:36.000Z</time>
      </trkpt>
      <trkpt lat="45.33473" lon="6.19882">
        <ele>2293.6000976562</ele>
        <time>2014-03-02T10:36:37.000Z</time>
      </trkpt>
      <trkpt lat="45.33473" lon="6.19882">
        <ele>2293.6000976562</ele>
        <time>2014-03-02T10:36:38.000Z</time>
      </trkpt>
      <trkpt lat="45.33473" lon="6.19882">
        <ele>2293.6000976562</ele>
        <time>2014-03-02T10:36:39.000Z</time>
      </trkpt>
      <trkpt lat="45.33473" lon="6.19882">
        <ele>2293.6000976562</ele>
        <time>2014-03-02T10:36:41.000Z</time>
      </trkpt>
      <trkpt lat="45.33473" lon="6.19882">
        <ele>2293.6000976562</ele>
        <time>2014-03-02T10:36:42.000Z</time>
      </trkpt>
      <trkpt lat="45.33473" lon="6.19882">
        <ele>2293.6000976562</ele>
        <time>2014-03-02T10:36:43.000Z</time>
      </trkpt>
      <trkpt lat="45.33473" lon="6.19882">
        <ele>2293.6000976562</ele>
        <time>2014-03-02T10:36:44.000Z</time>
      </trkpt>
      <trkpt lat="45.33473" lon="6.19882">
        <ele>2293.6000976562</ele>
        <time>2014-03-02T10:36:45.000Z</time>
      </trkpt>
      <trkpt lat="45.33473" lon="6.19882">
        <ele>2293.6000976562</ele>
        <time>2014-03-02T10:36:46.000Z</time>
      </trkpt>
      <trkpt lat="45.33473" lon="6.19882">
        <ele>2293.6000976562</ele>
        <time>2014-03-02T10:36:47.000Z</time>
      </trkpt>
      <trkpt lat="45.33473" lon="6.19882">
        <ele>2293.6000976562</ele>
        <time>2014-03-02T10:36:48.000Z</time>
      </trkpt>
      <trkpt lat="45.33473" lon="6.19882">
        <ele>2293.6000976562</ele>
        <time>2014-03-02T10:36:49.000Z</time>
      </trkpt>
      <trkpt lat="45.33473" lon="6.19882">
        <ele>2293.6000976562</ele>
        <time>2014-03-02T10:36:52.000Z</time>
      </trkpt>
      <trkpt lat="45.33473" lon="6.19882">
        <ele>2293.6000976562</ele>
        <time>2014-03-02T10:36:53.000Z</time>
      </trkpt>
      <trkpt lat="45.33473" lon="6.19882">
        <ele>2293.6000976562</ele>
        <time>2014-03-02T10:36:54.000Z</time>
      </trkpt>
      <trkpt lat="45.33473" lon="6.19882">
        <ele>2293.6000976562</ele>
        <time>2014-03-02T10:36:55.000Z</time>
      </trkpt>
      <trkpt lat="45.33473" lon="6.19882">
        <ele>2293.6000976562</ele>
        <time>2014-03-02T10:36:56.000Z</time>
      </trkpt>
      <trkpt lat="45.33473" lon="6.19882">
        <ele>2293.6000976562</ele>
        <time>2014-03-02T10:36:57.000Z</time>
      </trkpt>
      <trkpt lat="45.33473" lon="6.19882">
        <ele>2293.6000976562</ele>
        <time>2014-03-02T10:36:58.000Z</time>
      </trkpt>
      <trkpt lat="45.33473" lon="6.19882">
        <ele>2293.6000976562</ele>
        <time>2014-03-02T10:36:59.000Z</time>
      </trkpt>
      <trkpt lat="45.33473" lon="6.19882">
        <ele>2293.6000976562</ele>
        <time>2014-03-02T10:37:00.000Z</time>
      </trkpt>
      <trkpt lat="45.33473" lon="6.19882">
        <ele>2293.6000976562</ele>
        <time>2014-03-02T10:37:01.000Z</time>
      </trkpt>
      <trkpt lat="45.33473" lon="6.19882">
        <ele>2293.6000976562</ele>
        <time>2014-03-02T10:37:02.000Z</time>
      </trkpt>
      <trkpt lat="45.33473" lon="6.19882">
        <ele>2293.6000976562</ele>
        <time>2014-03-02T10:37:03.000Z</time>
      </trkpt>
      <trkpt lat="45.33473" lon="6.19882">
        <ele>2293.6000976562</ele>
        <time>2014-03-02T10:37:04.000Z</time>
      </trkpt>
      <trkpt lat="45.33473" lon="6.19882">
        <ele>2293.6000976562</ele>
        <time>2014-03-02T10:37:05.000Z</time>
      </trkpt>
      <trkpt lat="45.33473" lon="6.19882">
        <ele>2293.6000976562</ele>
        <time>2014-03-02T10:37:07.000Z</time>
      </trkpt>
      <trkpt lat="45.33473" lon="6.19882">
        <ele>2293.6000976562</ele>
        <time>2014-03-02T10:37:08.000Z</time>
      </trkpt>
      <trkpt lat="45.33473" lon="6.19882">
        <ele>2293.6000976562</ele>
        <time>2014-03-02T10:37:10.000Z</time>
      </trkpt>
      <trkpt lat="45.33473" lon="6.19882">
        <ele>2293.6000976562</ele>
        <time>2014-03-02T10:37:11.000Z</time>
      </trkpt>
      <trkpt lat="45.33473" lon="6.19882">
        <ele>2293.6000976562</ele>
        <time>2014-03-02T10:37:12.000Z</time>
      </trkpt>
      <trkpt lat="45.33473" lon="6.19882">
        <ele>2293.6000976562</ele>
        <time>2014-03-02T10:37:13.000Z</time>
      </trkpt>
      <trkpt lat="45.33473" lon="6.19882">
        <ele>2293.6000976562</ele>
        <time>2014-03-02T10:37:14.000Z</time>
      </trkpt>
      <trkpt lat="45.33473" lon="6.19882">
        <ele>2293.6000976562</ele>
        <time>2014-03-02T10:37:16.000Z</time>
      </trkpt>
      <trkpt lat="45.33473" lon="6.19882">
        <ele>2293.6000976562</ele>
        <time>2014-03-02T10:37:17.000Z</time>
      </trkpt>
      <trkpt lat="45.33473" lon="6.19882">
        <ele>2293.6000976562</ele>
        <time>2014-03-02T10:37:18.000Z</time>
      </trkpt>
      <trkpt lat="45.33473" lon="6.19882">
        <ele>2293.6000976562</ele>
        <time>2014-03-02T10:37:19.000Z</time>
      </trkpt>
      <trkpt lat="45.33473" lon="6.19882">
        <ele>2293.6000976562</ele>
        <time>2014-03-02T10:37:20.000Z</time>
      </trkpt>
      <trkpt lat="45.33473" lon="6.19882">
        <ele>2293.6000976562</ele>
        <time>2014-03-02T10:37:21.000Z</time>
      </trkpt>
      <trkpt lat="45.33473" lon="6.19882">
        <ele>2293.6000976562</ele>
        <time>2014-03-02T10:37:22.000Z</time>
      </trkpt>
      <trkpt lat="45.33474" lon="6.19882">
        <ele>2294</ele>
        <time>2014-03-02T10:37:28.000Z</time>
      </trkpt>
      <trkpt lat="45.33474" lon="6.19882">
        <ele>2294</ele>
        <time>2014-03-02T10:37:29.000Z</time>
      </trkpt>
      <trkpt lat="45.33474" lon="6.19882">
        <ele>2294</ele>
        <time>2014-03-02T10:37:30.000Z</time>
      </trkpt>
      <trkpt lat="45.33474" lon="6.19882">
        <ele>2294</ele>
        <time>2014-03-02T10:37:31.000Z</time>
      </trkpt>
      <trkpt lat="45.33474" lon="6.19882">
        <ele>2294</ele>
        <time>2014-03-02T10:37:32.000Z</time>
      </trkpt>
      <trkpt lat="45.33474" lon="6.19882">
        <ele>2294</ele>
        <time>2014-03-02T10:37:33.000Z</time>
      </trkpt>
      <trkpt lat="45.33474" lon="6.19882">
        <ele>2294</ele>
        <time>2014-03-02T10:37:34.000Z</time>
      </trkpt>
      <trkpt lat="45.33474" lon="6.19882">
        <ele>2294</ele>
        <time>2014-03-02T10:37:35.000Z</time>
      </trkpt>
      <trkpt lat="45.33474" lon="6.19882">
        <ele>2294</ele>
        <time>2014-03-02T10:37:36.000Z</time>
      </trkpt>
      <trkpt lat="45.33474" lon="6.19882">
        <ele>2294</ele>
        <time>2014-03-02T10:37:37.000Z</time>
      </trkpt>
      <trkpt lat="45.33474" lon="6.19882">
        <ele>2294</ele>
        <time>2014-03-02T10:37:38.000Z</time>
      </trkpt>
      <trkpt lat="45.33474" lon="6.19882">
        <ele>2294</ele>
        <time>2014-03-02T10:37:39.000Z</time>
      </trkpt>
      <trkpt lat="45.33474" lon="6.19882">
        <ele>2294</ele>
        <time>2014-03-02T10:37:42.000Z</time>
      </trkpt>
      <trkpt lat="45.33474" lon="6.19882">
        <ele>2294</ele>
        <time>2014-03-02T10:37:43.000Z</time>
      </trkpt>
      <trkpt lat="45.33474" lon="6.19882">
        <ele>2294</ele>
        <time>2014-03-02T10:37:44.000Z</time>
      </trkpt>
      <trkpt lat="45.33474" lon="6.19882">
        <ele>2294</ele>
        <time>2014-03-02T10:37:46.000Z</time>
      </trkpt>
      <trkpt lat="45.33474" lon="6.19882">
        <ele>2294</ele>
        <time>2014-03-02T10:37:47.000Z</time>
      </trkpt>
      <trkpt lat="45.33474" lon="6.19882">
        <ele>2294</ele>
        <time>2014-03-02T10:37:48.000Z</time>
      </trkpt>
      <trkpt lat="45.33474" lon="6.19882">
        <ele>2294</ele>
        <time>2014-03-02T10:37:49.000Z</time>
      </trkpt>
      <trkpt lat="45.33474" lon="6.19882">
        <ele>2294</ele>
        <time>2014-03-02T10:37:54.000Z</time>
      </trkpt>
      <trkpt lat="45.33474" lon="6.19882">
        <ele>2294</ele>
        <time>2014-03-02T10:37:55.000Z</time>
      </trkpt>
      <trkpt lat="45.33474" lon="6.19882">
        <ele>2294</ele>
        <time>2014-03-02T10:37:56.000Z</time>
      </trkpt>
      <trkpt lat="45.33474" lon="6.19882">
        <ele>2294</ele>
        <time>2014-03-02T10:37:57.000Z</time>
      </trkpt>
      <trkpt lat="45.33474" lon="6.19882">
        <ele>2294</ele>
        <time>2014-03-02T10:37:58.000Z</time>
      </trkpt>
      <trkpt lat="45.33474" lon="6.19882">
        <ele>2294</ele>
        <time>2014-03-02T10:37:59.000Z</time>
      </trkpt>
      <trkpt lat="45.33474" lon="6.19882">
        <ele>2294</ele>
        <time>2014-03-02T10:38:00.000Z</time>
      </trkpt>
      <trkpt lat="45.33474" lon="6.19882">
        <ele>2294</ele>
        <time>2014-03-02T10:38:02.000Z</time>
      </trkpt>
      <trkpt lat="45.33474" lon="6.19883">
        <ele>2294.1999511719</ele>
        <time>2014-03-02T10:38:06.000Z</time>
      </trkpt>
      <trkpt lat="45.33474" lon="6.19883">
        <ele>2294.1999511719</ele>
        <time>2014-03-02T10:38:08.000Z</time>
      </trkpt>
      <trkpt lat="45.33474" lon="6.19883">
        <ele>2294.1999511719</ele>
        <time>2014-03-02T10:38:09.000Z</time>
      </trkpt>
      <trkpt lat="45.33474" lon="6.19883">
        <ele>2294.1999511719</ele>
        <time>2014-03-02T10:38:10.000Z</time>
      </trkpt>
      <trkpt lat="45.33474" lon="6.19883">
        <ele>2294.1999511719</ele>
        <time>2014-03-02T10:38:11.000Z</time>
      </trkpt>
      <trkpt lat="45.33474" lon="6.19883">
        <ele>2294.1999511719</ele>
        <time>2014-03-02T10:38:12.000Z</time>
      </trkpt>
      <trkpt lat="45.33474" lon="6.19883">
        <ele>2294.1999511719</ele>
        <time>2014-03-02T10:38:13.000Z</time>
      </trkpt>
      <trkpt lat="45.33474" lon="6.19883">
        <ele>2294.1999511719</ele>
        <time>2014-03-02T10:38:14.000Z</time>
      </trkpt>
      <trkpt lat="45.33474" lon="6.19883">
        <ele>2294.1999511719</ele>
        <time>2014-03-02T10:38:15.000Z</time>
      </trkpt>
      <trkpt lat="45.33474" lon="6.19883">
        <ele>2294.1999511719</ele>
        <time>2014-03-02T10:38:17.000Z</time>
      </trkpt>
      <trkpt lat="45.33474" lon="6.19883">
        <ele>2294.1999511719</ele>
        <time>2014-03-02T10:38:18.000Z</time>
      </trkpt>
      <trkpt lat="45.33474" lon="6.19883">
        <ele>2294.1999511719</ele>
        <time>2014-03-02T10:38:22.000Z</time>
      </trkpt>
      <trkpt lat="45.33474" lon="6.19883">
        <ele>2294.1999511719</ele>
        <time>2014-03-02T10:38:23.000Z</time>
      </trkpt>
      <trkpt lat="45.33474" lon="6.19883">
        <ele>2294.1999511719</ele>
        <time>2014-03-02T10:38:24.000Z</time>
      </trkpt>
      <trkpt lat="45.33474" lon="6.19883">
        <ele>2294.1999511719</ele>
        <time>2014-03-02T10:38:25.000Z</time>
      </trkpt>
      <trkpt lat="45.33474" lon="6.19883">
        <ele>2294.1999511719</ele>
        <time>2014-03-02T10:38:26.000Z</time>
      </trkpt>
      <trkpt lat="45.33474" lon="6.19883">
        <ele>2294.1999511719</ele>
        <time>2014-03-02T10:38:27.000Z</time>
      </trkpt>
      <trkpt lat="45.33474" lon="6.19883">
        <ele>2294.1999511719</ele>
        <time>2014-03-02T10:38:28.000Z</time>
      </trkpt>
      <trkpt lat="45.33474" lon="6.19883">
        <ele>2294.1999511719</ele>
        <time>2014-03-02T10:38:29.000Z</time>
      </trkpt>
      <trkpt lat="45.33474" lon="6.19883">
        <ele>2294.1999511719</ele>
        <time>2014-03-02T10:38:30.000Z</time>
      </trkpt>
      <trkpt lat="45.33474" lon="6.19883">
        <ele>2294.1999511719</ele>
        <time>2014-03-02T10:38:31.000Z</time>
      </trkpt>
      <trkpt lat="45.33474" lon="6.19883">
        <ele>2294.1999511719</ele>
        <time>2014-03-02T10:38:32.000Z</time>
      </trkpt>
      <trkpt lat="45.33474" lon="6.19883">
        <ele>2294.1999511719</ele>
        <time>2014-03-02T10:38:33.000Z</time>
      </trkpt>
      <trkpt lat="45.33474" lon="6.19883">
        <ele>2294.1999511719</ele>
        <time>2014-03-02T10:38:34.000Z</time>
      </trkpt>
      <trkpt lat="45.33474" lon="6.19883">
        <ele>2294.1999511719</ele>
        <time>2014-03-02T10:38:35.000Z</time>
      </trkpt>
      <trkpt lat="45.33474" lon="6.19883">
        <ele>2294.1999511719</ele>
        <time>2014-03-02T10:38:36.000Z</time>
      </trkpt>
      <trkpt lat="45.33474" lon="6.19883">
        <ele>2294.1999511719</ele>
        <time>2014-03-02T10:38:37.000Z</time>
      </trkpt>
      <trkpt lat="45.33474" lon="6.19883">
        <ele>2294.1999511719</ele>
        <time>2014-03-02T10:38:42.000Z</time>
      </trkpt>
      <trkpt lat="45.33474" lon="6.19882">
        <ele>2293.8000488281</ele>
        <time>2014-03-02T10:38:43.000Z</time>
      </trkpt>
      <trkpt lat="45.33474" lon="6.19882">
        <ele>2293.8000488281</ele>
        <time>2014-03-02T10:38:48.000Z</time>
      </trkpt>
      <trkpt lat="45.33474" lon="6.19882">
        <ele>2293.8000488281</ele>
        <time>2014-03-02T10:38:53.000Z</time>
      </trkpt>
      <trkpt lat="45.33474" lon="6.19882">
        <ele>2293.8000488281</ele>
        <time>2014-03-02T10:38:54.000Z</time>
      </trkpt>
      <trkpt lat="45.33474" lon="6.19882">
        <ele>2293.8000488281</ele>
        <time>2014-03-02T10:38:58.000Z</time>
      </trkpt>
      <trkpt lat="45.33474" lon="6.19882">
        <ele>2293.8000488281</ele>
        <time>2014-03-02T10:38:59.000Z</time>
      </trkpt>
      <trkpt lat="45.33474" lon="6.19882">
        <ele>2293.8000488281</ele>
        <time>2014-03-02T10:39:00.000Z</time>
      </trkpt>
      <trkpt lat="45.33474" lon="6.19882">
        <ele>2293.8000488281</ele>
        <time>2014-03-02T10:39:01.000Z</time>
      </trkpt>
      <trkpt lat="45.33474" lon="6.19882">
        <ele>2293.8000488281</ele>
        <time>2014-03-02T10:39:03.000Z</time>
      </trkpt>
      <trkpt lat="45.33474" lon="6.19882">
        <ele>2293.8000488281</ele>
        <time>2014-03-02T10:39:08.000Z</time>
      </trkpt>
      <trkpt lat="45.33474" lon="6.19882">
        <ele>2293.8000488281</ele>
        <time>2014-03-02T10:39:16.000Z</time>
      </trkpt>
      <trkpt lat="45.33474" lon="6.19882">
        <ele>2293.8000488281</ele>
        <time>2014-03-02T10:39:17.000Z</time>
      </trkpt>
      <trkpt lat="45.33474" lon="6.19882">
        <ele>2293.8000488281</ele>
        <time>2014-03-02T10:39:18.000Z</time>
      </trkpt>
      <trkpt lat="45.33474" lon="6.19882">
        <ele>2293.8000488281</ele>
        <time>2014-03-02T10:39:19.000Z</time>
      </trkpt>
      <trkpt lat="45.33474" lon="6.19882">
        <ele>2293.8000488281</ele>
        <time>2014-03-02T10:39:24.000Z</time>
      </trkpt>
      <trkpt lat="45.33474" lon="6.19882">
        <ele>2293.8000488281</ele>
        <time>2014-03-02T10:39:28.000Z</time>
      </trkpt>
      <trkpt lat="45.33474" lon="6.19882">
        <ele>2293.8000488281</ele>
        <time>2014-03-02T10:39:36.000Z</time>
      </trkpt>
      <trkpt lat="45.33474" lon="6.19882">
        <ele>2293.8000488281</ele>
        <time>2014-03-02T10:39:37.000Z</time>
      </trkpt>
      <trkpt lat="45.33474" lon="6.19882">
        <ele>2293.8000488281</ele>
        <time>2014-03-02T10:39:38.000Z</time>
      </trkpt>
      <trkpt lat="45.33474" lon="6.19882">
        <ele>2293.8000488281</ele>
        <time>2014-03-02T10:39:39.000Z</time>
      </trkpt>
      <trkpt lat="45.33474" lon="6.19882">
        <ele>2293.8000488281</ele>
        <time>2014-03-02T10:39:40.000Z</time>
      </trkpt>
      <trkpt lat="45.33474" lon="6.19882">
        <ele>2293.8000488281</ele>
        <time>2014-03-02T10:39:41.000Z</time>
      </trkpt>
      <trkpt lat="45.33474" lon="6.19882">
        <ele>2293.8000488281</ele>
        <time>2014-03-02T10:39:42.000Z</time>
      </trkpt>
      <trkpt lat="45.33474" lon="6.19882">
        <ele>2293.8000488281</ele>
        <time>2014-03-02T10:39:43.000Z</time>
      </trkpt>
      <trkpt lat="45.33474" lon="6.19882">
        <ele>2293.8000488281</ele>
        <time>2014-03-02T10:39:44.000Z</time>
      </trkpt>
      <trkpt lat="45.33474" lon="6.19882">
        <ele>2293.8000488281</ele>
        <time>2014-03-02T10:39:45.000Z</time>
      </trkpt>
      <trkpt lat="45.33474" lon="6.19882">
        <ele>2293.8000488281</ele>
        <time>2014-03-02T10:39:46.000Z</time>
      </trkpt>
      <trkpt lat="45.33474" lon="6.19882">
        <ele>2293.8000488281</ele>
        <time>2014-03-02T10:39:47.000Z</time>
      </trkpt>
      <trkpt lat="45.33474" lon="6.19882">
        <ele>2293.8000488281</ele>
        <time>2014-03-02T10:39:48.000Z</time>
      </trkpt>
      <trkpt lat="45.33474" lon="6.19882">
        <ele>2293.8000488281</ele>
        <time>2014-03-02T10:39:49.000Z</time>
      </trkpt>
      <trkpt lat="45.33474" lon="6.19882">
        <ele>2293.8000488281</ele>
        <time>2014-03-02T10:39:50.000Z</time>
      </trkpt>
      <trkpt lat="45.33474" lon="6.19882">
        <ele>2293.8000488281</ele>
        <time>2014-03-02T10:39:51.000Z</time>
      </trkpt>
      <trkpt lat="45.33474" lon="6.19882">
        <ele>2293.8000488281</ele>
        <time>2014-03-02T10:39:52.000Z</time>
      </trkpt>
      <trkpt lat="45.33474" lon="6.19882">
        <ele>2293.8000488281</ele>
        <time>2014-03-02T10:39:53.000Z</time>
      </trkpt>
      <trkpt lat="45.33474" lon="6.19882">
        <ele>2293.8000488281</ele>
        <time>2014-03-02T10:39:54.000Z</time>
      </trkpt>
      <trkpt lat="45.33474" lon="6.19882">
        <ele>2293.8000488281</ele>
        <time>2014-03-02T10:39:55.000Z</time>
      </trkpt>
      <trkpt lat="45.33474" lon="6.19882">
        <ele>2293.8000488281</ele>
        <time>2014-03-02T10:39:56.000Z</time>
      </trkpt>
      <trkpt lat="45.33474" lon="6.19882">
        <ele>2293.8000488281</ele>
        <time>2014-03-02T10:39:57.000Z</time>
      </trkpt>
      <trkpt lat="45.33474" lon="6.19882">
        <ele>2293.8000488281</ele>
        <time>2014-03-02T10:39:58.000Z</time>
      </trkpt>
      <trkpt lat="45.33474" lon="6.19882">
        <ele>2293.8000488281</ele>
        <time>2014-03-02T10:39:59.000Z</time>
      </trkpt>
      <trkpt lat="45.33474" lon="6.19882">
        <ele>2293.8000488281</ele>
        <time>2014-03-02T10:40:00.000Z</time>
      </trkpt>
      <trkpt lat="45.33474" lon="6.19882">
        <ele>2293.8000488281</ele>
        <time>2014-03-02T10:40:01.000Z</time>
      </trkpt>
      <trkpt lat="45.33474" lon="6.19882">
        <ele>2293.8000488281</ele>
        <time>2014-03-02T10:40:02.000Z</time>
      </trkpt>
      <trkpt lat="45.33475" lon="6.19883">
        <ele>2294.3999023438</ele>
        <time>2014-03-02T10:40:03.000Z</time>
      </trkpt>
      <trkpt lat="45.33475" lon="6.19883">
        <ele>2294.3999023438</ele>
        <time>2014-03-02T10:40:04.000Z</time>
      </trkpt>
      <trkpt lat="45.33475" lon="6.19883">
        <ele>2294.3999023438</ele>
        <time>2014-03-02T10:40:05.000Z</time>
      </trkpt>
      <trkpt lat="45.33475" lon="6.19883">
        <ele>2294.3999023438</ele>
        <time>2014-03-02T10:40:06.000Z</time>
      </trkpt>
      <trkpt lat="45.33475" lon="6.19883">
        <ele>2294.3999023438</ele>
        <time>2014-03-02T10:40:07.000Z</time>
      </trkpt>
      <trkpt lat="45.33475" lon="6.19883">
        <ele>2294.3999023438</ele>
        <time>2014-03-02T10:40:08.000Z</time>
      </trkpt>
      <trkpt lat="45.33475" lon="6.19883">
        <ele>2294.3999023438</ele>
        <time>2014-03-02T10:40:09.000Z</time>
      </trkpt>
      <trkpt lat="45.33475" lon="6.19883">
        <ele>2294.3999023438</ele>
        <time>2014-03-02T10:40:10.000Z</time>
      </trkpt>
      <trkpt lat="45.33475" lon="6.19883">
        <ele>2294.3999023438</ele>
        <time>2014-03-02T10:40:12.000Z</time>
      </trkpt>
      <trkpt lat="45.33475" lon="6.19883">
        <ele>2294.3999023438</ele>
        <time>2014-03-02T10:40:13.000Z</time>
      </trkpt>
      <trkpt lat="45.33475" lon="6.19883">
        <ele>2294.3999023438</ele>
        <time>2014-03-02T10:40:14.000Z</time>
      </trkpt>
      <trkpt lat="45.33475" lon="6.19883">
        <ele>2294.3999023438</ele>
        <time>2014-03-02T10:40:15.000Z</time>
      </trkpt>
      <trkpt lat="45.33475" lon="6.19883">
        <ele>2294.3999023438</ele>
        <time>2014-03-02T10:40:16.000Z</time>
      </trkpt>
      <trkpt lat="45.33475" lon="6.19883">
        <ele>2294.3999023438</ele>
        <time>2014-03-02T10:40:17.000Z</time>
      </trkpt>
      <trkpt lat="45.33475" lon="6.19883">
        <ele>2294.3999023438</ele>
        <time>2014-03-02T10:40:18.000Z</time>
      </trkpt>
      <trkpt lat="45.33475" lon="6.19883">
        <ele>2294.3999023438</ele>
        <time>2014-03-02T10:40:19.000Z</time>
      </trkpt>
      <trkpt lat="45.33475" lon="6.19883">
        <ele>2294.3999023438</ele>
        <time>2014-03-02T10:40:20.000Z</time>
      </trkpt>
      <trkpt lat="45.33475" lon="6.19883">
        <ele>2294.3999023438</ele>
        <time>2014-03-02T10:40:21.000Z</time>
      </trkpt>
      <trkpt lat="45.33475" lon="6.19883">
        <ele>2294.3999023438</ele>
        <time>2014-03-02T10:40:22.000Z</time>
      </trkpt>
      <trkpt lat="45.33475" lon="6.19883">
        <ele>2294.3999023438</ele>
        <time>2014-03-02T10:40:23.000Z</time>
      </trkpt>
      <trkpt lat="45.33475" lon="6.19883">
        <ele>2294.3999023438</ele>
        <time>2014-03-02T10:40:24.000Z</time>
      </trkpt>
      <trkpt lat="45.33475" lon="6.19883">
        <ele>2294.3999023438</ele>
        <time>2014-03-02T10:40:25.000Z</time>
      </trkpt>
      <trkpt lat="45.33475" lon="6.19883">
        <ele>2294.3999023438</ele>
        <time>2014-03-02T10:40:26.000Z</time>
      </trkpt>
      <trkpt lat="45.33475" lon="6.19883">
        <ele>2294.3999023438</ele>
        <time>2014-03-02T10:40:27.000Z</time>
      </trkpt>
      <trkpt lat="45.33475" lon="6.19883">
        <ele>2294.3999023438</ele>
        <time>2014-03-02T10:40:28.000Z</time>
      </trkpt>
      <trkpt lat="45.33475" lon="6.19883">
        <ele>2294.3999023438</ele>
        <time>2014-03-02T10:40:29.000Z</time>
      </trkpt>
      <trkpt lat="45.33475" lon="6.19883">
        <ele>2294.3999023438</ele>
        <time>2014-03-02T10:40:30.000Z</time>
      </trkpt>
      <trkpt lat="45.33475" lon="6.19883">
        <ele>2294.3999023438</ele>
        <time>2014-03-02T10:40:31.000Z</time>
      </trkpt>
      <trkpt lat="45.33475" lon="6.19883">
        <ele>2294.3999023438</ele>
        <time>2014-03-02T10:40:32.000Z</time>
      </trkpt>
      <trkpt lat="45.33475" lon="6.19883">
        <ele>2294.3999023438</ele>
        <time>2014-03-02T10:40:33.000Z</time>
      </trkpt>
      <trkpt lat="45.33475" lon="6.19883">
        <ele>2294.3999023438</ele>
        <time>2014-03-02T10:40:34.000Z</time>
      </trkpt>
      <trkpt lat="45.33475" lon="6.19883">
        <ele>2294.3999023438</ele>
        <time>2014-03-02T10:40:35.000Z</time>
      </trkpt>
      <trkpt lat="45.33475" lon="6.19883">
        <ele>2294.3999023438</ele>
        <time>2014-03-02T10:40:36.000Z</time>
      </trkpt>
      <trkpt lat="45.33475" lon="6.19883">
        <ele>2294.3999023438</ele>
        <time>2014-03-02T10:40:38.000Z</time>
      </trkpt>
      <trkpt lat="45.33475" lon="6.19883">
        <ele>2294.3999023438</ele>
        <time>2014-03-02T10:40:39.000Z</time>
      </trkpt>
      <trkpt lat="45.33475" lon="6.19883">
        <ele>2294.3999023438</ele>
        <time>2014-03-02T10:40:40.000Z</time>
      </trkpt>
      <trkpt lat="45.33475" lon="6.19883">
        <ele>2294.3999023438</ele>
        <time>2014-03-02T10:40:41.000Z</time>
      </trkpt>
      <trkpt lat="45.33475" lon="6.19883">
        <ele>2294.3999023438</ele>
        <time>2014-03-02T10:40:42.000Z</time>
      </trkpt>
      <trkpt lat="45.33475" lon="6.19883">
        <ele>2294.3999023438</ele>
        <time>2014-03-02T10:40:43.000Z</time>
      </trkpt>
      <trkpt lat="45.33475" lon="6.19883">
        <ele>2294.3999023438</ele>
        <time>2014-03-02T10:40:44.000Z</time>
      </trkpt>
      <trkpt lat="45.33475" lon="6.19883">
        <ele>2294.3999023438</ele>
        <time>2014-03-02T10:40:45.000Z</time>
      </trkpt>
      <trkpt lat="45.33475" lon="6.19883">
        <ele>2294.3999023438</ele>
        <time>2014-03-02T10:40:46.000Z</time>
      </trkpt>
      <trkpt lat="45.33475" lon="6.19883">
        <ele>2294.3999023438</ele>
        <time>2014-03-02T10:40:47.000Z</time>
      </trkpt>
      <trkpt lat="45.33475" lon="6.19883">
        <ele>2294.3999023438</ele>
        <time>2014-03-02T10:40:48.000Z</time>
      </trkpt>
      <trkpt lat="45.33475" lon="6.19883">
        <ele>2294.3999023438</ele>
        <time>2014-03-02T10:40:49.000Z</time>
      </trkpt>
      <trkpt lat="45.33475" lon="6.19883">
        <ele>2294.3999023438</ele>
        <time>2014-03-02T10:40:50.000Z</time>
      </trkpt>
      <trkpt lat="45.33475" lon="6.19883">
        <ele>2294.3999023438</ele>
        <time>2014-03-02T10:40:51.000Z</time>
      </trkpt>
      <trkpt lat="45.33475" lon="6.19883">
        <ele>2294.3999023438</ele>
        <time>2014-03-02T10:40:52.000Z</time>
      </trkpt>
      <trkpt lat="45.33475" lon="6.19883">
        <ele>2294.3999023438</ele>
        <time>2014-03-02T10:40:53.000Z</time>
      </trkpt>
      <trkpt lat="45.33475" lon="6.19883">
        <ele>2294.3999023438</ele>
        <time>2014-03-02T10:40:54.000Z</time>
      </trkpt>
      <trkpt lat="45.33475" lon="6.19883">
        <ele>2294.3999023438</ele>
        <time>2014-03-02T10:40:55.000Z</time>
      </trkpt>
      <trkpt lat="45.33475" lon="6.19883">
        <ele>2294.3999023438</ele>
        <time>2014-03-02T10:40:56.000Z</time>
      </trkpt>
      <trkpt lat="45.33475" lon="6.19883">
        <ele>2294.3999023438</ele>
        <time>2014-03-02T10:40:57.000Z</time>
      </trkpt>
      <trkpt lat="45.33475" lon="6.19883">
        <ele>2294.3999023438</ele>
        <time>2014-03-02T10:40:58.000Z</time>
      </trkpt>
      <trkpt lat="45.33475" lon="6.19883">
        <ele>2294.3999023438</ele>
        <time>2014-03-02T10:40:59.000Z</time>
      </trkpt>
      <trkpt lat="45.33475" lon="6.19883">
        <ele>2294.3999023438</ele>
        <time>2014-03-02T10:41:00.000Z</time>
      </trkpt>
      <trkpt lat="45.33475" lon="6.19883">
        <ele>2294.3999023438</ele>
        <time>2014-03-02T10:41:01.000Z</time>
      </trkpt>
      <trkpt lat="45.33475" lon="6.19883">
        <ele>2294.3999023438</ele>
        <time>2014-03-02T10:41:02.000Z</time>
      </trkpt>
      <trkpt lat="45.33475" lon="6.19883">
        <ele>2294.3999023438</ele>
        <time>2014-03-02T10:41:03.000Z</time>
      </trkpt>
      <trkpt lat="45.33475" lon="6.19883">
        <ele>2294.3999023438</ele>
        <time>2014-03-02T10:41:04.000Z</time>
      </trkpt>
      <trkpt lat="45.33475" lon="6.19883">
        <ele>2294.3999023438</ele>
        <time>2014-03-02T10:41:05.000Z</time>
      </trkpt>
      <trkpt lat="45.33475" lon="6.19883">
        <ele>2294.3999023438</ele>
        <time>2014-03-02T10:41:06.000Z</time>
      </trkpt>
      <trkpt lat="45.33475" lon="6.19883">
        <ele>2294.3999023438</ele>
        <time>2014-03-02T10:41:07.000Z</time>
      </trkpt>
      <trkpt lat="45.33475" lon="6.19883">
        <ele>2294.3999023438</ele>
        <time>2014-03-02T10:41:08.000Z</time>
      </trkpt>
      <trkpt lat="45.33475" lon="6.19883">
        <ele>2294.3999023438</ele>
        <time>2014-03-02T10:41:09.000Z</time>
      </trkpt>
      <trkpt lat="45.33475" lon="6.19883">
        <ele>2294.3999023438</ele>
        <time>2014-03-02T10:41:10.000Z</time>
      </trkpt>
      <trkpt lat="45.33475" lon="6.19883">
        <ele>2294.3999023438</ele>
        <time>2014-03-02T10:41:11.000Z</time>
      </trkpt>
      <trkpt lat="45.33475" lon="6.19883">
        <ele>2294.3999023438</ele>
        <time>2014-03-02T10:41:12.000Z</time>
      </trkpt>
      <trkpt lat="45.33475" lon="6.19883">
        <ele>2294.3999023438</ele>
        <time>2014-03-02T10:41:13.000Z</time>
      </trkpt>
      <trkpt lat="45.33475" lon="6.19883">
        <ele>2294.3999023438</ele>
        <time>2014-03-02T10:41:14.000Z</time>
      </trkpt>
      <trkpt lat="45.33475" lon="6.19883">
        <ele>2294.3999023438</ele>
        <time>2014-03-02T10:41:15.000Z</time>
      </trkpt>
      <trkpt lat="45.33475" lon="6.19883">
        <ele>2294.3999023438</ele>
        <time>2014-03-02T10:41:16.000Z</time>
      </trkpt>
      <trkpt lat="45.33475" lon="6.19883">
        <ele>2294.3999023438</ele>
        <time>2014-03-02T10:41:17.000Z</time>
      </trkpt>
      <trkpt lat="45.33475" lon="6.19883">
        <ele>2294.3999023438</ele>
        <time>2014-03-02T10:41:18.000Z</time>
      </trkpt>
      <trkpt lat="45.33475" lon="6.19883">
        <ele>2294.3999023438</ele>
        <time>2014-03-02T10:41:22.000Z</time>
      </trkpt>
      <trkpt lat="45.33475" lon="6.19883">
        <ele>2294.6000976562</ele>
        <time>2014-03-02T10:41:23.000Z</time>
      </trkpt>
      <trkpt lat="45.33475" lon="6.19883">
        <ele>2294.6000976562</ele>
        <time>2014-03-02T10:41:24.000Z</time>
      </trkpt>
      <trkpt lat="45.33475" lon="6.19883">
        <ele>2294.6000976562</ele>
        <time>2014-03-02T10:41:25.000Z</time>
      </trkpt>
      <trkpt lat="45.33475" lon="6.19883">
        <ele>2294.6000976562</ele>
        <time>2014-03-02T10:41:28.000Z</time>
      </trkpt>
      <trkpt lat="45.33475" lon="6.19883">
        <ele>2294.6000976562</ele>
        <time>2014-03-02T10:41:29.000Z</time>
      </trkpt>
      <trkpt lat="45.33475" lon="6.19883">
        <ele>2294.6000976562</ele>
        <time>2014-03-02T10:41:30.000Z</time>
      </trkpt>
      <trkpt lat="45.33475" lon="6.19883">
        <ele>2294.6000976562</ele>
        <time>2014-03-02T10:41:33.000Z</time>
      </trkpt>
      <trkpt lat="45.33475" lon="6.19883">
        <ele>2294.6000976562</ele>
        <time>2014-03-02T10:41:34.000Z</time>
      </trkpt>
      <trkpt lat="45.33475" lon="6.19883">
        <ele>2294.6000976562</ele>
        <time>2014-03-02T10:41:36.000Z</time>
      </trkpt>
      <trkpt lat="45.33475" lon="6.19883">
        <ele>2294.6000976562</ele>
        <time>2014-03-02T10:41:38.000Z</time>
      </trkpt>
      <trkpt lat="45.33475" lon="6.19883">
        <ele>2294.6000976562</ele>
        <time>2014-03-02T10:41:39.000Z</time>
      </trkpt>
      <trkpt lat="45.33475" lon="6.19883">
        <ele>2294.6000976562</ele>
        <time>2014-03-02T10:41:43.000Z</time>
      </trkpt>
      <trkpt lat="45.33475" lon="6.19883">
        <ele>2294.6000976562</ele>
        <time>2014-03-02T10:41:44.000Z</time>
      </trkpt>
      <trkpt lat="45.33475" lon="6.19883">
        <ele>2294.6000976562</ele>
        <time>2014-03-02T10:41:45.000Z</time>
      </trkpt>
      <trkpt lat="45.33475" lon="6.19883">
        <ele>2294.6000976562</ele>
        <time>2014-03-02T10:41:46.000Z</time>
      </trkpt>
      <trkpt lat="45.33475" lon="6.19883">
        <ele>2294.6000976562</ele>
        <time>2014-03-02T10:41:49.000Z</time>
      </trkpt>
      <trkpt lat="45.33475" lon="6.19883">
        <ele>2294.6000976562</ele>
        <time>2014-03-02T10:41:52.000Z</time>
      </trkpt>
      <trkpt lat="45.33475" lon="6.19883">
        <ele>2294.6000976562</ele>
        <time>2014-03-02T10:41:56.000Z</time>
      </trkpt>
      <trkpt lat="45.33475" lon="6.19883">
        <ele>2294.6000976562</ele>
        <time>2014-03-02T10:41:57.000Z</time>
      </trkpt>
      <trkpt lat="45.33475" lon="6.19883">
        <ele>2294.6000976562</ele>
        <time>2014-03-02T10:41:58.000Z</time>
      </trkpt>
      <trkpt lat="45.33475" lon="6.19883">
        <ele>2294.6000976562</ele>
        <time>2014-03-02T10:41:59.000Z</time>
      </trkpt>
      <trkpt lat="45.33475" lon="6.19883">
        <ele>2294.6000976562</ele>
        <time>2014-03-02T10:42:00.000Z</time>
      </trkpt>
      <trkpt lat="45.33475" lon="6.19883">
        <ele>2294.6000976562</ele>
        <time>2014-03-02T10:42:01.000Z</time>
      </trkpt>
      <trkpt lat="45.33475" lon="6.19883">
        <ele>2294.6000976562</ele>
        <time>2014-03-02T10:42:02.000Z</time>
      </trkpt>
      <trkpt lat="45.33474" lon="6.19883">
        <ele>2294.3999023438</ele>
        <time>2014-03-02T10:42:03.000Z</time>
      </trkpt>
      <trkpt lat="45.33474" lon="6.19883">
        <ele>2294.3999023438</ele>
        <time>2014-03-02T10:42:04.000Z</time>
      </trkpt>
      <trkpt lat="45.33474" lon="6.19883">
        <ele>2294.3999023438</ele>
        <time>2014-03-02T10:42:06.000Z</time>
      </trkpt>
      <trkpt lat="45.33474" lon="6.19883">
        <ele>2294.3999023438</ele>
        <time>2014-03-02T10:42:07.000Z</time>
      </trkpt>
      <trkpt lat="45.33474" lon="6.19883">
        <ele>2294.3999023438</ele>
        <time>2014-03-02T10:42:08.000Z</time>
      </trkpt>
      <trkpt lat="45.33474" lon="6.19883">
        <ele>2294.3999023438</ele>
        <time>2014-03-02T10:42:12.000Z</time>
      </trkpt>
      <trkpt lat="45.33474" lon="6.19883">
        <ele>2294.3999023438</ele>
        <time>2014-03-02T10:42:13.000Z</time>
      </trkpt>
      <trkpt lat="45.33474" lon="6.19883">
        <ele>2294.3999023438</ele>
        <time>2014-03-02T10:42:14.000Z</time>
      </trkpt>
      <trkpt lat="45.33474" lon="6.19883">
        <ele>2294.3999023438</ele>
        <time>2014-03-02T10:42:15.000Z</time>
      </trkpt>
      <trkpt lat="45.33474" lon="6.19883">
        <ele>2294.3999023438</ele>
        <time>2014-03-02T10:42:16.000Z</time>
      </trkpt>
      <trkpt lat="45.33474" lon="6.19883">
        <ele>2294.3999023438</ele>
        <time>2014-03-02T10:42:17.000Z</time>
      </trkpt>
      <trkpt lat="45.33474" lon="6.19883">
        <ele>2294.3999023438</ele>
        <time>2014-03-02T10:42:18.000Z</time>
      </trkpt>
      <trkpt lat="45.33474" lon="6.19883">
        <ele>2294.3999023438</ele>
        <time>2014-03-02T10:42:22.000Z</time>
      </trkpt>
      <trkpt lat="45.33474" lon="6.19883">
        <ele>2294.3999023438</ele>
        <time>2014-03-02T10:42:23.000Z</time>
      </trkpt>
      <trkpt lat="45.33474" lon="6.19883">
        <ele>2294.3999023438</ele>
        <time>2014-03-02T10:42:25.000Z</time>
      </trkpt>
      <trkpt lat="45.33474" lon="6.19883">
        <ele>2294.3999023438</ele>
        <time>2014-03-02T10:42:26.000Z</time>
      </trkpt>
      <trkpt lat="45.33474" lon="6.19883">
        <ele>2294.3999023438</ele>
        <time>2014-03-02T10:42:27.000Z</time>
      </trkpt>
      <trkpt lat="45.33474" lon="6.19883">
        <ele>2294.3999023438</ele>
        <time>2014-03-02T10:42:29.000Z</time>
      </trkpt>
      <trkpt lat="45.33474" lon="6.19883">
        <ele>2294.3999023438</ele>
        <time>2014-03-02T10:42:30.000Z</time>
      </trkpt>
      <trkpt lat="45.33474" lon="6.19883">
        <ele>2294.3999023438</ele>
        <time>2014-03-02T10:42:34.000Z</time>
      </trkpt>
      <trkpt lat="45.33474" lon="6.19883">
        <ele>2294.3999023438</ele>
        <time>2014-03-02T10:42:35.000Z</time>
      </trkpt>
      <trkpt lat="45.33474" lon="6.19883">
        <ele>2294.3999023438</ele>
        <time>2014-03-02T10:42:36.000Z</time>
      </trkpt>
      <trkpt lat="45.33474" lon="6.19883">
        <ele>2294.3999023438</ele>
        <time>2014-03-02T10:42:37.000Z</time>
      </trkpt>
      <trkpt lat="45.33474" lon="6.19883">
        <ele>2294.3999023438</ele>
        <time>2014-03-02T10:42:38.000Z</time>
      </trkpt>
      <trkpt lat="45.33474" lon="6.19883">
        <ele>2294.3999023438</ele>
        <time>2014-03-02T10:42:39.000Z</time>
      </trkpt>
      <trkpt lat="45.33474" lon="6.19883">
        <ele>2294.3999023438</ele>
        <time>2014-03-02T10:42:40.000Z</time>
      </trkpt>
      <trkpt lat="45.33474" lon="6.19883">
        <ele>2294.3999023438</ele>
        <time>2014-03-02T10:42:41.000Z</time>
      </trkpt>
      <trkpt lat="45.33474" lon="6.19883">
        <ele>2294.3999023438</ele>
        <time>2014-03-02T10:42:42.000Z</time>
      </trkpt>
      <trkpt lat="45.33474" lon="6.19884">
        <ele>2294.3999023438</ele>
        <time>2014-03-02T10:42:43.000Z</time>
      </trkpt>
      <trkpt lat="45.33474" lon="6.19884">
        <ele>2294.3999023438</ele>
        <time>2014-03-02T10:42:44.000Z</time>
      </trkpt>
      <trkpt lat="45.33474" lon="6.19884">
        <ele>2294.3999023438</ele>
        <time>2014-03-02T10:42:45.000Z</time>
      </trkpt>
      <trkpt lat="45.33474" lon="6.19884">
        <ele>2294.3999023438</ele>
        <time>2014-03-02T10:42:46.000Z</time>
      </trkpt>
      <trkpt lat="45.33474" lon="6.19884">
        <ele>2294.3999023438</ele>
        <time>2014-03-02T10:42:47.000Z</time>
      </trkpt>
      <trkpt lat="45.33474" lon="6.19884">
        <ele>2294.3999023438</ele>
        <time>2014-03-02T10:42:48.000Z</time>
      </trkpt>
      <trkpt lat="45.33474" lon="6.19884">
        <ele>2294.3999023438</ele>
        <time>2014-03-02T10:42:49.000Z</time>
      </trkpt>
      <trkpt lat="45.33474" lon="6.19884">
        <ele>2294.3999023438</ele>
        <time>2014-03-02T10:42:50.000Z</time>
      </trkpt>
      <trkpt lat="45.33474" lon="6.19884">
        <ele>2294.3999023438</ele>
        <time>2014-03-02T10:42:51.000Z</time>
      </trkpt>
      <trkpt lat="45.33474" lon="6.19884">
        <ele>2294.3999023438</ele>
        <time>2014-03-02T10:42:52.000Z</time>
      </trkpt>
      <trkpt lat="45.33474" lon="6.19884">
        <ele>2294.3999023438</ele>
        <time>2014-03-02T10:42:53.000Z</time>
      </trkpt>
      <trkpt lat="45.33474" lon="6.19884">
        <ele>2294.3999023438</ele>
        <time>2014-03-02T10:42:56.000Z</time>
      </trkpt>
      <trkpt lat="45.33474" lon="6.19884">
        <ele>2294.3999023438</ele>
        <time>2014-03-02T10:42:57.000Z</time>
      </trkpt>
      <trkpt lat="45.33474" lon="6.19884">
        <ele>2294.3999023438</ele>
        <time>2014-03-02T10:42:58.000Z</time>
      </trkpt>
      <trkpt lat="45.33474" lon="6.19884">
        <ele>2294.3999023438</ele>
        <time>2014-03-02T10:42:59.000Z</time>
      </trkpt>
      <trkpt lat="45.33474" lon="6.19884">
        <ele>2294.3999023438</ele>
        <time>2014-03-02T10:43:00.000Z</time>
      </trkpt>
      <trkpt lat="45.33474" lon="6.19884">
        <ele>2294.3999023438</ele>
        <time>2014-03-02T10:43:01.000Z</time>
      </trkpt>
      <trkpt lat="45.33474" lon="6.19884">
        <ele>2294.3999023438</ele>
        <time>2014-03-02T10:43:02.000Z</time>
      </trkpt>
      <trkpt lat="45.33474" lon="6.19884">
        <ele>2294.3999023438</ele>
        <time>2014-03-02T10:43:03.000Z</time>
      </trkpt>
      <trkpt lat="45.33474" lon="6.19884">
        <ele>2294.3999023438</ele>
        <time>2014-03-02T10:43:04.000Z</time>
      </trkpt>
      <trkpt lat="45.33474" lon="6.19884">
        <ele>2294.3999023438</ele>
        <time>2014-03-02T10:43:07.000Z</time>
      </trkpt>
      <trkpt lat="45.33474" lon="6.19884">
        <ele>2294.3999023438</ele>
        <time>2014-03-02T10:43:09.000Z</time>
      </trkpt>
      <trkpt lat="45.33474" lon="6.19884">
        <ele>2294.3999023438</ele>
        <time>2014-03-02T10:43:13.000Z</time>
      </trkpt>
      <trkpt lat="45.33474" lon="6.19884">
        <ele>2294.3999023438</ele>
        <time>2014-03-02T10:43:14.000Z</time>
      </trkpt>
      <trkpt lat="45.33474" lon="6.19884">
        <ele>2294.3999023438</ele>
        <time>2014-03-02T10:43:15.000Z</time>
      </trkpt>
      <trkpt lat="45.33474" lon="6.19884">
        <ele>2294.3999023438</ele>
        <time>2014-03-02T10:43:16.000Z</time>
      </trkpt>
      <trkpt lat="45.33474" lon="6.19884">
        <ele>2294.3999023438</ele>
        <time>2014-03-02T10:43:17.000Z</time>
      </trkpt>
      <trkpt lat="45.33474" lon="6.19884">
        <ele>2294.3999023438</ele>
        <time>2014-03-02T10:43:18.000Z</time>
      </trkpt>
      <trkpt lat="45.33474" lon="6.19884">
        <ele>2294.3999023438</ele>
        <time>2014-03-02T10:43:19.000Z</time>
      </trkpt>
      <trkpt lat="45.33474" lon="6.19884">
        <ele>2294.3999023438</ele>
        <time>2014-03-02T10:43:20.000Z</time>
      </trkpt>
      <trkpt lat="45.33474" lon="6.19884">
        <ele>2294.3999023438</ele>
        <time>2014-03-02T10:43:21.000Z</time>
      </trkpt>
      <trkpt lat="45.33474" lon="6.19884">
        <ele>2294.3999023438</ele>
        <time>2014-03-02T10:43:22.000Z</time>
      </trkpt>
      <trkpt lat="45.33474" lon="6.19885">
        <ele>2294.6000976562</ele>
        <time>2014-03-02T10:43:23.000Z</time>
      </trkpt>
      <trkpt lat="45.33474" lon="6.19885">
        <ele>2294.6000976562</ele>
        <time>2014-03-02T10:43:24.000Z</time>
      </trkpt>
      <trkpt lat="45.33474" lon="6.19885">
        <ele>2294.6000976562</ele>
        <time>2014-03-02T10:43:25.000Z</time>
      </trkpt>
      <trkpt lat="45.33474" lon="6.19885">
        <ele>2294.6000976562</ele>
        <time>2014-03-02T10:43:26.000Z</time>
      </trkpt>
      <trkpt lat="45.33474" lon="6.19885">
        <ele>2294.6000976562</ele>
        <time>2014-03-02T10:43:27.000Z</time>
      </trkpt>
      <trkpt lat="45.33474" lon="6.19885">
        <ele>2294.6000976562</ele>
        <time>2014-03-02T10:43:28.000Z</time>
      </trkpt>
      <trkpt lat="45.33474" lon="6.19885">
        <ele>2294.6000976562</ele>
        <time>2014-03-02T10:43:29.000Z</time>
      </trkpt>
      <trkpt lat="45.33474" lon="6.19885">
        <ele>2294.6000976562</ele>
        <time>2014-03-02T10:43:30.000Z</time>
      </trkpt>
      <trkpt lat="45.33474" lon="6.19885">
        <ele>2294.6000976562</ele>
        <time>2014-03-02T10:43:31.000Z</time>
      </trkpt>
      <trkpt lat="45.33474" lon="6.19885">
        <ele>2294.6000976562</ele>
        <time>2014-03-02T10:43:32.000Z</time>
      </trkpt>
      <trkpt lat="45.33474" lon="6.19885">
        <ele>2294.6000976562</ele>
        <time>2014-03-02T10:43:33.000Z</time>
      </trkpt>
      <trkpt lat="45.33474" lon="6.19885">
        <ele>2294.6000976562</ele>
        <time>2014-03-02T10:43:34.000Z</time>
      </trkpt>
      <trkpt lat="45.33474" lon="6.19885">
        <ele>2294.6000976562</ele>
        <time>2014-03-02T10:43:37.000Z</time>
      </trkpt>
      <trkpt lat="45.33474" lon="6.19885">
        <ele>2294.6000976562</ele>
        <time>2014-03-02T10:43:38.000Z</time>
      </trkpt>
      <trkpt lat="45.33474" lon="6.19885">
        <ele>2294.6000976562</ele>
        <time>2014-03-02T10:43:39.000Z</time>
      </trkpt>
      <trkpt lat="45.33474" lon="6.19885">
        <ele>2294.6000976562</ele>
        <time>2014-03-02T10:43:40.000Z</time>
      </trkpt>
      <trkpt lat="45.33474" lon="6.19885">
        <ele>2294.6000976562</ele>
        <time>2014-03-02T10:43:41.000Z</time>
      </trkpt>
      <trkpt lat="45.33474" lon="6.19885">
        <ele>2294.6000976562</ele>
        <time>2014-03-02T10:43:42.000Z</time>
      </trkpt>
      <trkpt lat="45.33474" lon="6.19885">
        <ele>2294.6000976562</ele>
        <time>2014-03-02T10:43:43.000Z</time>
      </trkpt>
      <trkpt lat="45.33474" lon="6.19885">
        <ele>2294.6000976562</ele>
        <time>2014-03-02T10:43:44.000Z</time>
      </trkpt>
      <trkpt lat="45.33474" lon="6.19885">
        <ele>2294.6000976562</ele>
        <time>2014-03-02T10:43:46.000Z</time>
      </trkpt>
      <trkpt lat="45.33474" lon="6.19885">
        <ele>2294.6000976562</ele>
        <time>2014-03-02T10:43:47.000Z</time>
      </trkpt>
      <trkpt lat="45.33474" lon="6.19885">
        <ele>2294.6000976562</ele>
        <time>2014-03-02T10:43:49.000Z</time>
      </trkpt>
      <trkpt lat="45.33474" lon="6.19885">
        <ele>2294.6000976562</ele>
        <time>2014-03-02T10:43:50.000Z</time>
      </trkpt>
      <trkpt lat="45.33474" lon="6.19885">
        <ele>2294.6000976562</ele>
        <time>2014-03-02T10:43:52.000Z</time>
      </trkpt>
      <trkpt lat="45.33474" lon="6.19885">
        <ele>2294.6000976562</ele>
        <time>2014-03-02T10:43:53.000Z</time>
      </trkpt>
      <trkpt lat="45.33473" lon="6.19884">
        <ele>2294.1999511719</ele>
        <time>2014-03-02T10:43:54.000Z</time>
      </trkpt>
      <trkpt lat="45.33472" lon="6.19884">
        <ele>2293.6000976562</ele>
        <time>2014-03-02T10:43:55.000Z</time>
      </trkpt>
      <trkpt lat="45.33471" lon="6.19884">
        <ele>2293.1999511719</ele>
        <time>2014-03-02T10:43:56.000Z</time>
      </trkpt>
      <trkpt lat="45.3347" lon="6.19883">
        <ele>2292.8000488281</ele>
        <time>2014-03-02T10:43:57.000Z</time>
      </trkpt>
      <trkpt lat="45.3347" lon="6.19883">
        <ele>2292.8000488281</ele>
        <time>2014-03-02T10:43:58.000Z</time>
      </trkpt>
      <trkpt lat="45.3347" lon="6.19883">
        <ele>2292.8000488281</ele>
        <time>2014-03-02T10:43:59.000Z</time>
      </trkpt>
      <trkpt lat="45.3347" lon="6.19883">
        <ele>2292.8000488281</ele>
        <time>2014-03-02T10:44:00.000Z</time>
      </trkpt>
      <trkpt lat="45.3347" lon="6.19883">
        <ele>2292.8000488281</ele>
        <time>2014-03-02T10:44:01.000Z</time>
      </trkpt>
      <trkpt lat="45.3347" lon="6.19883">
        <ele>2292.8000488281</ele>
        <time>2014-03-02T10:44:02.000Z</time>
      </trkpt>
      <trkpt lat="45.3347" lon="6.19883">
        <ele>2292.8000488281</ele>
        <time>2014-03-02T10:44:03.000Z</time>
      </trkpt>
      <trkpt lat="45.3347" lon="6.19883">
        <ele>2292.8000488281</ele>
        <time>2014-03-02T10:44:04.000Z</time>
      </trkpt>
      <trkpt lat="45.3347" lon="6.19883">
        <ele>2292.8000488281</ele>
        <time>2014-03-02T10:44:05.000Z</time>
      </trkpt>
      <trkpt lat="45.3347" lon="6.19883">
        <ele>2292.8000488281</ele>
        <time>2014-03-02T10:44:06.000Z</time>
      </trkpt>
      <trkpt lat="45.3347" lon="6.19883">
        <ele>2292.8000488281</ele>
        <time>2014-03-02T10:44:07.000Z</time>
      </trkpt>
      <trkpt lat="45.3347" lon="6.19883">
        <ele>2292.8000488281</ele>
        <time>2014-03-02T10:44:08.000Z</time>
      </trkpt>
      <trkpt lat="45.3347" lon="6.19883">
        <ele>2292.8000488281</ele>
        <time>2014-03-02T10:44:09.000Z</time>
      </trkpt>
      <trkpt lat="45.3347" lon="6.19883">
        <ele>2292.8000488281</ele>
        <time>2014-03-02T10:44:10.000Z</time>
      </trkpt>
      <trkpt lat="45.3347" lon="6.19883">
        <ele>2292.8000488281</ele>
        <time>2014-03-02T10:44:11.000Z</time>
      </trkpt>
      <trkpt lat="45.3347" lon="6.19883">
        <ele>2292.8000488281</ele>
        <time>2014-03-02T10:44:12.000Z</time>
      </trkpt>
      <trkpt lat="45.3347" lon="6.19883">
        <ele>2292.8000488281</ele>
        <time>2014-03-02T10:44:13.000Z</time>
      </trkpt>
      <trkpt lat="45.33468" lon="6.19884">
        <ele>2292.3999023438</ele>
        <time>2014-03-02T10:44:14.000Z</time>
      </trkpt>
      <trkpt lat="45.33468" lon="6.19884">
        <ele>2292.3999023438</ele>
        <time>2014-03-02T10:44:15.000Z</time>
      </trkpt>
      <trkpt lat="45.33468" lon="6.19884">
        <ele>2292.3999023438</ele>
        <time>2014-03-02T10:44:16.000Z</time>
      </trkpt>
      <trkpt lat="45.33467" lon="6.19885">
        <ele>2292.1999511719</ele>
        <time>2014-03-02T10:44:17.000Z</time>
      </trkpt>
      <trkpt lat="45.33466" lon="6.19886">
        <ele>2292.3999023438</ele>
        <time>2014-03-02T10:44:18.000Z</time>
      </trkpt>
      <trkpt lat="45.33466" lon="6.19886">
        <ele>2292.3999023438</ele>
        <time>2014-03-02T10:44:19.000Z</time>
      </trkpt>
      <trkpt lat="45.33466" lon="6.19886">
        <ele>2292.3999023438</ele>
        <time>2014-03-02T10:44:20.000Z</time>
      </trkpt>
      <trkpt lat="45.33466" lon="6.19886">
        <ele>2292.3999023438</ele>
        <time>2014-03-02T10:44:21.000Z</time>
      </trkpt>
      <trkpt lat="45.33466" lon="6.19886">
        <ele>2292.3999023438</ele>
        <time>2014-03-02T10:44:22.000Z</time>
      </trkpt>
      <trkpt lat="45.33466" lon="6.19886">
        <ele>2292.3999023438</ele>
        <time>2014-03-02T10:44:23.000Z</time>
      </trkpt>
      <trkpt lat="45.33466" lon="6.19886">
        <ele>2292.3999023438</ele>
        <time>2014-03-02T10:44:24.000Z</time>
      </trkpt>
      <trkpt lat="45.33466" lon="6.19886">
        <ele>2292.3999023438</ele>
        <time>2014-03-02T10:44:26.000Z</time>
      </trkpt>
      <trkpt lat="45.33466" lon="6.19886">
        <ele>2292.3999023438</ele>
        <time>2014-03-02T10:44:27.000Z</time>
      </trkpt>
      <trkpt lat="45.33466" lon="6.19886">
        <ele>2292.3999023438</ele>
        <time>2014-03-02T10:44:30.000Z</time>
      </trkpt>
      <trkpt lat="45.33466" lon="6.19886">
        <ele>2292.3999023438</ele>
        <time>2014-03-02T10:44:31.000Z</time>
      </trkpt>
      <trkpt lat="45.33466" lon="6.19886">
        <ele>2292.3999023438</ele>
        <time>2014-03-02T10:44:35.000Z</time>
      </trkpt>
      <trkpt lat="45.33466" lon="6.19886">
        <ele>2292.3999023438</ele>
        <time>2014-03-02T10:44:39.000Z</time>
      </trkpt>
      <trkpt lat="45.33466" lon="6.19886">
        <ele>2292.3999023438</ele>
        <time>2014-03-02T10:44:42.000Z</time>
      </trkpt>
      <trkpt lat="45.33466" lon="6.19886">
        <ele>2292.3999023438</ele>
        <time>2014-03-02T10:44:43.000Z</time>
      </trkpt>
      <trkpt lat="45.33466" lon="6.19886">
        <ele>2292.3999023438</ele>
        <time>2014-03-02T10:44:44.000Z</time>
      </trkpt>
      <trkpt lat="45.33466" lon="6.19886">
        <ele>2292.3999023438</ele>
        <time>2014-03-02T10:44:45.000Z</time>
      </trkpt>
      <trkpt lat="45.33465" lon="6.19887">
        <ele>2292.3999023438</ele>
        <time>2014-03-02T10:44:46.000Z</time>
      </trkpt>
      <trkpt lat="45.33464" lon="6.19889">
        <ele>2292.1999511719</ele>
        <time>2014-03-02T10:44:47.000Z</time>
      </trkpt>
      <trkpt lat="45.33463" lon="6.1989">
        <ele>2292.1999511719</ele>
        <time>2014-03-02T10:44:48.000Z</time>
      </trkpt>
      <trkpt lat="45.33462" lon="6.19891">
        <ele>2292.1999511719</ele>
        <time>2014-03-02T10:44:49.000Z</time>
      </trkpt>
      <trkpt lat="45.33461" lon="6.19892">
        <ele>2292.1999511719</ele>
        <time>2014-03-02T10:44:50.000Z</time>
      </trkpt>
      <trkpt lat="45.33461" lon="6.19893">
        <ele>2292.3999023438</ele>
        <time>2014-03-02T10:44:51.000Z</time>
      </trkpt>
      <trkpt lat="45.3346" lon="6.19894">
        <ele>2292.8000488281</ele>
        <time>2014-03-02T10:44:52.000Z</time>
      </trkpt>
      <trkpt lat="45.33459" lon="6.19895">
        <ele>2292.8000488281</ele>
        <time>2014-03-02T10:44:53.000Z</time>
      </trkpt>
      <trkpt lat="45.33457" lon="6.19897">
        <ele>2293</ele>
        <time>2014-03-02T10:44:54.000Z</time>
      </trkpt>
      <trkpt lat="45.33457" lon="6.19897">
        <ele>2293</ele>
        <time>2014-03-02T10:44:55.000Z</time>
      </trkpt>
      <trkpt lat="45.33456" lon="6.19899">
        <ele>2293.1999511719</ele>
        <time>2014-03-02T10:44:56.000Z</time>
      </trkpt>
      <trkpt lat="45.33456" lon="6.19898">
        <ele>2293.1999511719</ele>
        <time>2014-03-02T10:44:57.000Z</time>
      </trkpt>
      <trkpt lat="45.33455" lon="6.199">
        <ele>2293.3999023438</ele>
        <time>2014-03-02T10:44:58.000Z</time>
      </trkpt>
      <trkpt lat="45.33454" lon="6.19901">
        <ele>2293.3999023438</ele>
        <time>2014-03-02T10:44:59.000Z</time>
      </trkpt>
      <trkpt lat="45.33453" lon="6.19902">
        <ele>2293.6000976562</ele>
        <time>2014-03-02T10:45:00.000Z</time>
      </trkpt>
      <trkpt lat="45.33452" lon="6.19902">
        <ele>2293.3999023438</ele>
        <time>2014-03-02T10:45:01.000Z</time>
      </trkpt>
      <trkpt lat="45.33453" lon="6.19902">
        <ele>2293.6000976562</ele>
        <time>2014-03-02T10:45:02.000Z</time>
      </trkpt>
      <trkpt lat="45.33453" lon="6.19902">
        <ele>2293.6000976562</ele>
        <time>2014-03-02T10:45:03.000Z</time>
      </trkpt>
      <trkpt lat="45.33453" lon="6.19902">
        <ele>2293.6000976562</ele>
        <time>2014-03-02T10:45:04.000Z</time>
      </trkpt>
      <trkpt lat="45.33453" lon="6.19902">
        <ele>2293.6000976562</ele>
        <time>2014-03-02T10:45:05.000Z</time>
      </trkpt>
      <trkpt lat="45.33453" lon="6.19902">
        <ele>2293.6000976562</ele>
        <time>2014-03-02T10:45:06.000Z</time>
      </trkpt>
      <trkpt lat="45.33453" lon="6.19902">
        <ele>2293.6000976562</ele>
        <time>2014-03-02T10:45:07.000Z</time>
      </trkpt>
      <trkpt lat="45.33453" lon="6.19902">
        <ele>2293.6000976562</ele>
        <time>2014-03-02T10:45:08.000Z</time>
      </trkpt>
      <trkpt lat="45.33454" lon="6.19902">
        <ele>2293.8000488281</ele>
        <time>2014-03-02T10:45:09.000Z</time>
      </trkpt>
      <trkpt lat="45.33454" lon="6.19903">
        <ele>2294</ele>
        <time>2014-03-02T10:45:10.000Z</time>
      </trkpt>
      <trkpt lat="45.33455" lon="6.19903">
        <ele>2294.3999023438</ele>
        <time>2014-03-02T10:45:11.000Z</time>
      </trkpt>
      <trkpt lat="45.33456" lon="6.19903">
        <ele>2294.6000976562</ele>
        <time>2014-03-02T10:45:12.000Z</time>
      </trkpt>
      <trkpt lat="45.33457" lon="6.19902">
        <ele>2294.6000976562</ele>
        <time>2014-03-02T10:45:13.000Z</time>
      </trkpt>
      <trkpt lat="45.33457" lon="6.19902">
        <ele>2294.6000976562</ele>
        <time>2014-03-02T10:45:14.000Z</time>
      </trkpt>
      <trkpt lat="45.33457" lon="6.19902">
        <ele>2294.6000976562</ele>
        <time>2014-03-02T10:45:15.000Z</time>
      </trkpt>
      <trkpt lat="45.33457" lon="6.19902">
        <ele>2294.6000976562</ele>
        <time>2014-03-02T10:45:16.000Z</time>
      </trkpt>
      <trkpt lat="45.33458" lon="6.19902">
        <ele>2294.8000488281</ele>
        <time>2014-03-02T10:45:17.000Z</time>
      </trkpt>
      <trkpt lat="45.33459" lon="6.19903">
        <ele>2295.1999511719</ele>
        <time>2014-03-02T10:45:18.000Z</time>
      </trkpt>
      <trkpt lat="45.33459" lon="6.19903">
        <ele>2295.1999511719</ele>
        <time>2014-03-02T10:45:19.000Z</time>
      </trkpt>
      <trkpt lat="45.3346" lon="6.19903">
        <ele>2295.3999023438</ele>
        <time>2014-03-02T10:45:20.000Z</time>
      </trkpt>
      <trkpt lat="45.33461" lon="6.19903">
        <ele>2295.6000976562</ele>
        <time>2014-03-02T10:45:21.000Z</time>
      </trkpt>
      <trkpt lat="45.33462" lon="6.19903">
        <ele>2296</ele>
        <time>2014-03-02T10:45:22.000Z</time>
      </trkpt>
      <trkpt lat="45.33463" lon="6.19903">
        <ele>2296.1999511719</ele>
        <time>2014-03-02T10:45:23.000Z</time>
      </trkpt>
      <trkpt lat="45.33464" lon="6.19904">
        <ele>2296.6000976562</ele>
        <time>2014-03-02T10:45:24.000Z</time>
      </trkpt>
      <trkpt lat="45.33465" lon="6.19904">
        <ele>2297</ele>
        <time>2014-03-02T10:45:25.000Z</time>
      </trkpt>
      <trkpt lat="45.33466" lon="6.19904">
        <ele>2297.1999511719</ele>
        <time>2014-03-02T10:45:26.000Z</time>
      </trkpt>
      <trkpt lat="45.33466" lon="6.19904">
        <ele>2297.3999023438</ele>
        <time>2014-03-02T10:45:27.000Z</time>
      </trkpt>
      <trkpt lat="45.33467" lon="6.19904">
        <ele>2297.6000976562</ele>
        <time>2014-03-02T10:45:28.000Z</time>
      </trkpt>
      <trkpt lat="45.33467" lon="6.19904">
        <ele>2297.8000488281</ele>
        <time>2014-03-02T10:45:29.000Z</time>
      </trkpt>
      <trkpt lat="45.33468" lon="6.19904">
        <ele>2298</ele>
        <time>2014-03-02T10:45:30.000Z</time>
      </trkpt>
      <trkpt lat="45.3347" lon="6.19905">
        <ele>2298.6000976562</ele>
        <time>2014-03-02T10:45:31.000Z</time>
      </trkpt>
      <trkpt lat="45.3347" lon="6.19905">
        <ele>2298.8000488281</ele>
        <time>2014-03-02T10:45:32.000Z</time>
      </trkpt>
      <trkpt lat="45.33471" lon="6.19905">
        <ele>2299</ele>
        <time>2014-03-02T10:45:33.000Z</time>
      </trkpt>
      <trkpt lat="45.33471" lon="6.19905">
        <ele>2299</ele>
        <time>2014-03-02T10:45:34.000Z</time>
      </trkpt>
      <trkpt lat="45.33472" lon="6.19905">
        <ele>2299.1999511719</ele>
        <time>2014-03-02T10:45:35.000Z</time>
      </trkpt>
      <trkpt lat="45.33472" lon="6.19905">
        <ele>2299.3999023438</ele>
        <time>2014-03-02T10:45:36.000Z</time>
      </trkpt>
      <trkpt lat="45.33472" lon="6.19905">
        <ele>2299.3999023438</ele>
        <time>2014-03-02T10:45:37.000Z</time>
      </trkpt>
      <trkpt lat="45.33473" lon="6.19905">
        <ele>2299.6000976562</ele>
        <time>2014-03-02T10:45:38.000Z</time>
      </trkpt>
      <trkpt lat="45.33473" lon="6.19905">
        <ele>2299.6000976562</ele>
        <time>2014-03-02T10:45:39.000Z</time>
      </trkpt>
      <trkpt lat="45.33473" lon="6.19905">
        <ele>2299.6000976562</ele>
        <time>2014-03-02T10:45:40.000Z</time>
      </trkpt>
      <trkpt lat="45.33473" lon="6.19905">
        <ele>2299.6000976562</ele>
        <time>2014-03-02T10:45:41.000Z</time>
      </trkpt>
      <trkpt lat="45.33473" lon="6.19906">
        <ele>2300</ele>
        <time>2014-03-02T10:45:42.000Z</time>
      </trkpt>
      <trkpt lat="45.33473" lon="6.19906">
        <ele>2300</ele>
        <time>2014-03-02T10:45:43.000Z</time>
      </trkpt>
      <trkpt lat="45.33474" lon="6.19906">
        <ele>2300.1999511719</ele>
        <time>2014-03-02T10:45:44.000Z</time>
      </trkpt>
      <trkpt lat="45.33475" lon="6.19906">
        <ele>2300.6000976562</ele>
        <time>2014-03-02T10:45:45.000Z</time>
      </trkpt>
      <trkpt lat="45.33476" lon="6.19906">
        <ele>2301</ele>
        <time>2014-03-02T10:45:46.000Z</time>
      </trkpt>
      <trkpt lat="45.33477" lon="6.19907">
        <ele>2301.6000976562</ele>
        <time>2014-03-02T10:45:47.000Z</time>
      </trkpt>
      <trkpt lat="45.33477" lon="6.19907">
        <ele>2301.6000976562</ele>
        <time>2014-03-02T10:45:48.000Z</time>
      </trkpt>
      <trkpt lat="45.33478" lon="6.19907">
        <ele>2301.8000488281</ele>
        <time>2014-03-02T10:45:49.000Z</time>
      </trkpt>
      <trkpt lat="45.33478" lon="6.19907">
        <ele>2302.1999511719</ele>
        <time>2014-03-02T10:45:50.000Z</time>
      </trkpt>
      <trkpt lat="45.33479" lon="6.19907">
        <ele>2302.1999511719</ele>
        <time>2014-03-02T10:45:51.000Z</time>
      </trkpt>
      <trkpt lat="45.3348" lon="6.19907">
        <ele>2302.3999023438</ele>
        <time>2014-03-02T10:45:52.000Z</time>
      </trkpt>
      <trkpt lat="45.3348" lon="6.19907">
        <ele>2302.8000488281</ele>
        <time>2014-03-02T10:45:53.000Z</time>
      </trkpt>
      <trkpt lat="45.33481" lon="6.19908">
        <ele>2303</ele>
        <time>2014-03-02T10:45:54.000Z</time>
      </trkpt>
      <trkpt lat="45.33481" lon="6.19908">
        <ele>2303.1999511719</ele>
        <time>2014-03-02T10:45:55.000Z</time>
      </trkpt>
      <trkpt lat="45.33481" lon="6.19908">
        <ele>2303.1999511719</ele>
        <time>2014-03-02T10:45:56.000Z</time>
      </trkpt>
      <trkpt lat="45.33482" lon="6.19908">
        <ele>2303.6000976562</ele>
        <time>2014-03-02T10:45:57.000Z</time>
      </trkpt>
      <trkpt lat="45.33483" lon="6.19908">
        <ele>2303.8000488281</ele>
        <time>2014-03-02T10:45:58.000Z</time>
      </trkpt>
      <trkpt lat="45.33483" lon="6.19908">
        <ele>2304</ele>
        <time>2014-03-02T10:45:59.000Z</time>
      </trkpt>
      <trkpt lat="45.33484" lon="6.19908">
        <ele>2304.1999511719</ele>
        <time>2014-03-02T10:46:00.000Z</time>
      </trkpt>
      <trkpt lat="45.33484" lon="6.19908">
        <ele>2304.1999511719</ele>
        <time>2014-03-02T10:46:01.000Z</time>
      </trkpt>
      <trkpt lat="45.33485" lon="6.19908">
        <ele>2304.6000976562</ele>
        <time>2014-03-02T10:46:02.000Z</time>
      </trkpt>
      <trkpt lat="45.33486" lon="6.19908">
        <ele>2304.8000488281</ele>
        <time>2014-03-02T10:46:03.000Z</time>
      </trkpt>
      <trkpt lat="45.33487" lon="6.19907">
        <ele>2305</ele>
        <time>2014-03-02T10:46:04.000Z</time>
      </trkpt>
      <trkpt lat="45.33487" lon="6.19907">
        <ele>2305</ele>
        <time>2014-03-02T10:46:05.000Z</time>
      </trkpt>
      <trkpt lat="45.33487" lon="6.19907">
        <ele>2305</ele>
        <time>2014-03-02T10:46:06.000Z</time>
      </trkpt>
      <trkpt lat="45.33487" lon="6.19907">
        <ele>2305</ele>
        <time>2014-03-02T10:46:07.000Z</time>
      </trkpt>
      <trkpt lat="45.33487" lon="6.19907">
        <ele>2305</ele>
        <time>2014-03-02T10:46:08.000Z</time>
      </trkpt>
      <trkpt lat="45.33488" lon="6.19906">
        <ele>2305.1999511719</ele>
        <time>2014-03-02T10:46:09.000Z</time>
      </trkpt>
      <trkpt lat="45.33489" lon="6.19906">
        <ele>2305.6000976562</ele>
        <time>2014-03-02T10:46:10.000Z</time>
      </trkpt>
      <trkpt lat="45.3349" lon="6.19906">
        <ele>2305.8000488281</ele>
        <time>2014-03-02T10:46:11.000Z</time>
      </trkpt>
      <trkpt lat="45.33491" lon="6.19906">
        <ele>2306</ele>
        <time>2014-03-02T10:46:12.000Z</time>
      </trkpt>
      <trkpt lat="45.33492" lon="6.19906">
        <ele>2306.1999511719</ele>
        <time>2014-03-02T10:46:13.000Z</time>
      </trkpt>
      <trkpt lat="45.33493" lon="6.19905">
        <ele>2306.6000976562</ele>
        <time>2014-03-02T10:46:14.000Z</time>
      </trkpt>
      <trkpt lat="45.33493" lon="6.19905">
        <ele>2306.6000976562</ele>
        <time>2014-03-02T10:46:15.000Z</time>
      </trkpt>
      <trkpt lat="45.33493" lon="6.19905">
        <ele>2306.6000976562</ele>
        <time>2014-03-02T10:46:16.000Z</time>
      </trkpt>
      <trkpt lat="45.33493" lon="6.19905">
        <ele>2306.6000976562</ele>
        <time>2014-03-02T10:46:17.000Z</time>
      </trkpt>
      <trkpt lat="45.33493" lon="6.19905">
        <ele>2306.6000976562</ele>
        <time>2014-03-02T10:46:18.000Z</time>
      </trkpt>
      <trkpt lat="45.33494" lon="6.19905">
        <ele>2306.8000488281</ele>
        <time>2014-03-02T10:46:19.000Z</time>
      </trkpt>
      <trkpt lat="45.33494" lon="6.19904">
        <ele>2307</ele>
        <time>2014-03-02T10:46:20.000Z</time>
      </trkpt>
      <trkpt lat="45.33494" lon="6.19904">
        <ele>2307</ele>
        <time>2014-03-02T10:46:21.000Z</time>
      </trkpt>
      <trkpt lat="45.33495" lon="6.19904">
        <ele>2307.1999511719</ele>
        <time>2014-03-02T10:46:22.000Z</time>
      </trkpt>
      <trkpt lat="45.33495" lon="6.19904">
        <ele>2307.1999511719</ele>
        <time>2014-03-02T10:46:23.000Z</time>
      </trkpt>
      <trkpt lat="45.33496" lon="6.19904">
        <ele>2307.3999023438</ele>
        <time>2014-03-02T10:46:24.000Z</time>
      </trkpt>
      <trkpt lat="45.33496" lon="6.19904">
        <ele>2307.3999023438</ele>
        <time>2014-03-02T10:46:25.000Z</time>
      </trkpt>
      <trkpt lat="45.33497" lon="6.19903">
        <ele>2307.6000976562</ele>
        <time>2014-03-02T10:46:26.000Z</time>
      </trkpt>
      <trkpt lat="45.33498" lon="6.19903">
        <ele>2307.8000488281</ele>
        <time>2014-03-02T10:46:27.000Z</time>
      </trkpt>
      <trkpt lat="45.33499" lon="6.19903">
        <ele>2308.1999511719</ele>
        <time>2014-03-02T10:46:28.000Z</time>
      </trkpt>
      <trkpt lat="45.335" lon="6.19903">
        <ele>2308.3999023438</ele>
        <time>2014-03-02T10:46:29.000Z</time>
      </trkpt>
      <trkpt lat="45.33501" lon="6.19902">
        <ele>2308.6000976562</ele>
        <time>2014-03-02T10:46:30.000Z</time>
      </trkpt>
      <trkpt lat="45.33501" lon="6.19902">
        <ele>2308.6000976562</ele>
        <time>2014-03-02T10:46:31.000Z</time>
      </trkpt>
      <trkpt lat="45.33501" lon="6.19902">
        <ele>2308.6000976562</ele>
        <time>2014-03-02T10:46:32.000Z</time>
      </trkpt>
      <trkpt lat="45.33501" lon="6.19902">
        <ele>2308.6000976562</ele>
        <time>2014-03-02T10:46:33.000Z</time>
      </trkpt>
      <trkpt lat="45.33502" lon="6.19902">
        <ele>2308.8000488281</ele>
        <time>2014-03-02T10:46:34.000Z</time>
      </trkpt>
      <trkpt lat="45.33502" lon="6.19902">
        <ele>2308.8000488281</ele>
        <time>2014-03-02T10:46:35.000Z</time>
      </trkpt>
      <trkpt lat="45.33503" lon="6.19901">
        <ele>2309</ele>
        <time>2014-03-02T10:46:36.000Z</time>
      </trkpt>
      <trkpt lat="45.33504" lon="6.19901">
        <ele>2309.1999511719</ele>
        <time>2014-03-02T10:46:37.000Z</time>
      </trkpt>
      <trkpt lat="45.33504" lon="6.19901">
        <ele>2309.1999511719</ele>
        <time>2014-03-02T10:46:38.000Z</time>
      </trkpt>
      <trkpt lat="45.33504" lon="6.19901">
        <ele>2309.3999023438</ele>
        <time>2014-03-02T10:46:39.000Z</time>
      </trkpt>
      <trkpt lat="45.33504" lon="6.19901">
        <ele>2309.3999023438</ele>
        <time>2014-03-02T10:46:40.000Z</time>
      </trkpt>
      <trkpt lat="45.33504" lon="6.19901">
        <ele>2309.3999023438</ele>
        <time>2014-03-02T10:46:41.000Z</time>
      </trkpt>
      <trkpt lat="45.33504" lon="6.19901">
        <ele>2309.3999023438</ele>
        <time>2014-03-02T10:46:42.000Z</time>
      </trkpt>
      <trkpt lat="45.33504" lon="6.19901">
        <ele>2309.3999023438</ele>
        <time>2014-03-02T10:46:43.000Z</time>
      </trkpt>
      <trkpt lat="45.33504" lon="6.19901">
        <ele>2309.3999023438</ele>
        <time>2014-03-02T10:46:44.000Z</time>
      </trkpt>
      <trkpt lat="45.33504" lon="6.19901">
        <ele>2309.3999023438</ele>
        <time>2014-03-02T10:46:45.000Z</time>
      </trkpt>
      <trkpt lat="45.33504" lon="6.19901">
        <ele>2309.3999023438</ele>
        <time>2014-03-02T10:46:46.000Z</time>
      </trkpt>
      <trkpt lat="45.33504" lon="6.19901">
        <ele>2309.3999023438</ele>
        <time>2014-03-02T10:46:47.000Z</time>
      </trkpt>
      <trkpt lat="45.33504" lon="6.19901">
        <ele>2309.3999023438</ele>
        <time>2014-03-02T10:46:48.000Z</time>
      </trkpt>
      <trkpt lat="45.33504" lon="6.19901">
        <ele>2309.3999023438</ele>
        <time>2014-03-02T10:46:49.000Z</time>
      </trkpt>
      <trkpt lat="45.33504" lon="6.19901">
        <ele>2309.3999023438</ele>
        <time>2014-03-02T10:46:51.000Z</time>
      </trkpt>
      <trkpt lat="45.33504" lon="6.19901">
        <ele>2309.3999023438</ele>
        <time>2014-03-02T10:46:52.000Z</time>
      </trkpt>
      <trkpt lat="45.33504" lon="6.19901">
        <ele>2309.3999023438</ele>
        <time>2014-03-02T10:46:53.000Z</time>
      </trkpt>
      <trkpt lat="45.33504" lon="6.19901">
        <ele>2309.3999023438</ele>
        <time>2014-03-02T10:46:54.000Z</time>
      </trkpt>
      <trkpt lat="45.33504" lon="6.19901">
        <ele>2309.3999023438</ele>
        <time>2014-03-02T10:46:55.000Z</time>
      </trkpt>
      <trkpt lat="45.33504" lon="6.19901">
        <ele>2309.3999023438</ele>
        <time>2014-03-02T10:46:57.000Z</time>
      </trkpt>
      <trkpt lat="45.33504" lon="6.19901">
        <ele>2309.3999023438</ele>
        <time>2014-03-02T10:46:58.000Z</time>
      </trkpt>
      <trkpt lat="45.33504" lon="6.19901">
        <ele>2309.3999023438</ele>
        <time>2014-03-02T10:47:00.000Z</time>
      </trkpt>
      <trkpt lat="45.33504" lon="6.19901">
        <ele>2309.3999023438</ele>
        <time>2014-03-02T10:47:03.000Z</time>
      </trkpt>
      <trkpt lat="45.33504" lon="6.19901">
        <ele>2309.3999023438</ele>
        <time>2014-03-02T10:47:10.000Z</time>
      </trkpt>
      <trkpt lat="45.33504" lon="6.19901">
        <ele>2309.3999023438</ele>
        <time>2014-03-02T10:47:11.000Z</time>
      </trkpt>
      <trkpt lat="45.33504" lon="6.19901">
        <ele>2309.3999023438</ele>
        <time>2014-03-02T10:47:12.000Z</time>
      </trkpt>
      <trkpt lat="45.33504" lon="6.19901">
        <ele>2309.3999023438</ele>
        <time>2014-03-02T10:47:13.000Z</time>
      </trkpt>
      <trkpt lat="45.33504" lon="6.19901">
        <ele>2309.3999023438</ele>
        <time>2014-03-02T10:47:14.000Z</time>
      </trkpt>
      <trkpt lat="45.33504" lon="6.19901">
        <ele>2309.3999023438</ele>
        <time>2014-03-02T10:47:15.000Z</time>
      </trkpt>
      <trkpt lat="45.33504" lon="6.19901">
        <ele>2309.3999023438</ele>
        <time>2014-03-02T10:47:16.000Z</time>
      </trkpt>
      <trkpt lat="45.33504" lon="6.19901">
        <ele>2309.3999023438</ele>
        <time>2014-03-02T10:47:17.000Z</time>
      </trkpt>
      <trkpt lat="45.33504" lon="6.19901">
        <ele>2309.3999023438</ele>
        <time>2014-03-02T10:47:18.000Z</time>
      </trkpt>
      <trkpt lat="45.33504" lon="6.19901">
        <ele>2309.3999023438</ele>
        <time>2014-03-02T10:47:19.000Z</time>
      </trkpt>
      <trkpt lat="45.33504" lon="6.19901">
        <ele>2309.3999023438</ele>
        <time>2014-03-02T10:47:21.000Z</time>
      </trkpt>
      <trkpt lat="45.33504" lon="6.19901">
        <ele>2309.3999023438</ele>
        <time>2014-03-02T10:47:23.000Z</time>
      </trkpt>
      <trkpt lat="45.33504" lon="6.19901">
        <ele>2309.3999023438</ele>
        <time>2014-03-02T10:47:24.000Z</time>
      </trkpt>
      <trkpt lat="45.33504" lon="6.19901">
        <ele>2309.3999023438</ele>
        <time>2014-03-02T10:47:25.000Z</time>
      </trkpt>
      <trkpt lat="45.33504" lon="6.19901">
        <ele>2309.3999023438</ele>
        <time>2014-03-02T10:47:26.000Z</time>
      </trkpt>
      <trkpt lat="45.33504" lon="6.19901">
        <ele>2309.3999023438</ele>
        <time>2014-03-02T10:47:27.000Z</time>
      </trkpt>
      <trkpt lat="45.33504" lon="6.19901">
        <ele>2309.3999023438</ele>
        <time>2014-03-02T10:47:28.000Z</time>
      </trkpt>
      <trkpt lat="45.33504" lon="6.19903">
        <ele>2309.8000488281</ele>
        <time>2014-03-02T10:47:29.000Z</time>
      </trkpt>
      <trkpt lat="45.33504" lon="6.19904">
        <ele>2310</ele>
        <time>2014-03-02T10:47:30.000Z</time>
      </trkpt>
      <trkpt lat="45.33504" lon="6.19905">
        <ele>2310.3999023438</ele>
        <time>2014-03-02T10:47:31.000Z</time>
      </trkpt>
      <trkpt lat="45.33503" lon="6.19906">
        <ele>2310.6000976562</ele>
        <time>2014-03-02T10:47:32.000Z</time>
      </trkpt>
      <trkpt lat="45.33503" lon="6.19908">
        <ele>2310.8000488281</ele>
        <time>2014-03-02T10:47:33.000Z</time>
      </trkpt>
      <trkpt lat="45.33503" lon="6.19909">
        <ele>2311</ele>
        <time>2014-03-02T10:47:34.000Z</time>
      </trkpt>
      <trkpt lat="45.33503" lon="6.1991">
        <ele>2311.1999511719</ele>
        <time>2014-03-02T10:47:35.000Z</time>
      </trkpt>
      <trkpt lat="45.33503" lon="6.1991">
        <ele>2311.1999511719</ele>
        <time>2014-03-02T10:47:36.000Z</time>
      </trkpt>
      <trkpt lat="45.33503" lon="6.1991">
        <ele>2311.1999511719</ele>
        <time>2014-03-02T10:47:37.000Z</time>
      </trkpt>
      <trkpt lat="45.33502" lon="6.19911">
        <ele>2311.3999023438</ele>
        <time>2014-03-02T10:47:38.000Z</time>
      </trkpt>
      <trkpt lat="45.33502" lon="6.19912">
        <ele>2311.6000976562</ele>
        <time>2014-03-02T10:47:39.000Z</time>
      </trkpt>
      <trkpt lat="45.33502" lon="6.19914">
        <ele>2311.8000488281</ele>
        <time>2014-03-02T10:47:40.000Z</time>
      </trkpt>
      <trkpt lat="45.33501" lon="6.19915">
        <ele>2312</ele>
        <time>2014-03-02T10:47:41.000Z</time>
      </trkpt>
      <trkpt lat="45.33501" lon="6.19916">
        <ele>2312.1999511719</ele>
        <time>2014-03-02T10:47:42.000Z</time>
      </trkpt>
      <trkpt lat="45.33501" lon="6.19917">
        <ele>2312.3999023438</ele>
        <time>2014-03-02T10:47:43.000Z</time>
      </trkpt>
      <trkpt lat="45.335" lon="6.19919">
        <ele>2312.6000976562</ele>
        <time>2014-03-02T10:47:44.000Z</time>
      </trkpt>
      <trkpt lat="45.335" lon="6.1992">
        <ele>2312.8000488281</ele>
        <time>2014-03-02T10:47:45.000Z</time>
      </trkpt>
      <trkpt lat="45.335" lon="6.19921">
        <ele>2312.8000488281</ele>
        <time>2014-03-02T10:47:46.000Z</time>
      </trkpt>
      <trkpt lat="45.33499" lon="6.19922">
        <ele>2313</ele>
        <time>2014-03-02T10:47:47.000Z</time>
      </trkpt>
      <trkpt lat="45.33499" lon="6.19923">
        <ele>2313</ele>
        <time>2014-03-02T10:47:48.000Z</time>
      </trkpt>
      <trkpt lat="45.33498" lon="6.19924">
        <ele>2313.1999511719</ele>
        <time>2014-03-02T10:47:49.000Z</time>
      </trkpt>
      <trkpt lat="45.33498" lon="6.19925">
        <ele>2313.1999511719</ele>
        <time>2014-03-02T10:47:50.000Z</time>
      </trkpt>
      <trkpt lat="45.33497" lon="6.19927">
        <ele>2313.3999023438</ele>
        <time>2014-03-02T10:47:51.000Z</time>
      </trkpt>
      <trkpt lat="45.33497" lon="6.19928">
        <ele>2313.6000976562</ele>
        <time>2014-03-02T10:47:52.000Z</time>
      </trkpt>
      <trkpt lat="45.33497" lon="6.19928">
        <ele>2313.6000976562</ele>
        <time>2014-03-02T10:47:53.000Z</time>
      </trkpt>
      <trkpt lat="45.33496" lon="6.19931">
        <ele>2314.1999511719</ele>
        <time>2014-03-02T10:47:54.000Z</time>
      </trkpt>
      <trkpt lat="45.33495" lon="6.19932">
        <ele>2314.3999023438</ele>
        <time>2014-03-02T10:47:55.000Z</time>
      </trkpt>
      <trkpt lat="45.33495" lon="6.19933">
        <ele>2314.6000976562</ele>
        <time>2014-03-02T10:47:56.000Z</time>
      </trkpt>
      <trkpt lat="45.33494" lon="6.19934">
        <ele>2314.8000488281</ele>
        <time>2014-03-02T10:47:57.000Z</time>
      </trkpt>
      <trkpt lat="45.33494" lon="6.19935">
        <ele>2315</ele>
        <time>2014-03-02T10:47:58.000Z</time>
      </trkpt>
      <trkpt lat="45.33493" lon="6.19936">
        <ele>2315</ele>
        <time>2014-03-02T10:47:59.000Z</time>
      </trkpt>
      <trkpt lat="45.33492" lon="6.19937">
        <ele>2315.1999511719</ele>
        <time>2014-03-02T10:48:00.000Z</time>
      </trkpt>
      <trkpt lat="45.33492" lon="6.19938">
        <ele>2315.3999023438</ele>
        <time>2014-03-02T10:48:01.000Z</time>
      </trkpt>
      <trkpt lat="45.33492" lon="6.19939">
        <ele>2315.6000976562</ele>
        <time>2014-03-02T10:48:02.000Z</time>
      </trkpt>
      <trkpt lat="45.33492" lon="6.1994">
        <ele>2315.8000488281</ele>
        <time>2014-03-02T10:48:03.000Z</time>
      </trkpt>
      <trkpt lat="45.33491" lon="6.19941">
        <ele>2316</ele>
        <time>2014-03-02T10:48:04.000Z</time>
      </trkpt>
      <trkpt lat="45.33491" lon="6.19942">
        <ele>2316.1999511719</ele>
        <time>2014-03-02T10:48:05.000Z</time>
      </trkpt>
      <trkpt lat="45.33491" lon="6.19942">
        <ele>2316.1999511719</ele>
        <time>2014-03-02T10:48:06.000Z</time>
      </trkpt>
      <trkpt lat="45.3349" lon="6.19943">
        <ele>2316.1999511719</ele>
        <time>2014-03-02T10:48:07.000Z</time>
      </trkpt>
      <trkpt lat="45.3349" lon="6.19943">
        <ele>2316.1999511719</ele>
        <time>2014-03-02T10:48:08.000Z</time>
      </trkpt>
      <trkpt lat="45.3349" lon="6.19943">
        <ele>2316.1999511719</ele>
        <time>2014-03-02T10:48:09.000Z</time>
      </trkpt>
      <trkpt lat="45.3349" lon="6.19943">
        <ele>2316.1999511719</ele>
        <time>2014-03-02T10:48:10.000Z</time>
      </trkpt>
      <trkpt lat="45.3349" lon="6.19944">
        <ele>2316.1999511719</ele>
        <time>2014-03-02T10:48:11.000Z</time>
      </trkpt>
      <trkpt lat="45.33489" lon="6.19944">
        <ele>2316.1999511719</ele>
        <time>2014-03-02T10:48:12.000Z</time>
      </trkpt>
      <trkpt lat="45.33489" lon="6.19945">
        <ele>2316.1999511719</ele>
        <time>2014-03-02T10:48:13.000Z</time>
      </trkpt>
      <trkpt lat="45.33488" lon="6.19945">
        <ele>2316.3999023438</ele>
        <time>2014-03-02T10:48:14.000Z</time>
      </trkpt>
      <trkpt lat="45.33488" lon="6.19946">
        <ele>2316.3999023438</ele>
        <time>2014-03-02T10:48:15.000Z</time>
      </trkpt>
      <trkpt lat="45.33488" lon="6.19946">
        <ele>2316.3999023438</ele>
        <time>2014-03-02T10:48:16.000Z</time>
      </trkpt>
      <trkpt lat="45.33488" lon="6.19947">
        <ele>2316.6000976562</ele>
        <time>2014-03-02T10:48:17.000Z</time>
      </trkpt>
      <trkpt lat="45.33487" lon="6.19947">
        <ele>2316.6000976562</ele>
        <time>2014-03-02T10:48:18.000Z</time>
      </trkpt>
      <trkpt lat="45.33487" lon="6.19948">
        <ele>2316.8000488281</ele>
        <time>2014-03-02T10:48:19.000Z</time>
      </trkpt>
      <trkpt lat="45.33486" lon="6.19949">
        <ele>2316.8000488281</ele>
        <time>2014-03-02T10:48:20.000Z</time>
      </trkpt>
      <trkpt lat="45.33486" lon="6.1995">
        <ele>2317</ele>
        <time>2014-03-02T10:48:21.000Z</time>
      </trkpt>
      <trkpt lat="45.33485" lon="6.19951">
        <ele>2317.1999511719</ele>
        <time>2014-03-02T10:48:22.000Z</time>
      </trkpt>
      <trkpt lat="45.33485" lon="6.19952">
        <ele>2317.3999023438</ele>
        <time>2014-03-02T10:48:23.000Z</time>
      </trkpt>
      <trkpt lat="45.33484" lon="6.19953">
        <ele>2317.3999023438</ele>
        <time>2014-03-02T10:48:24.000Z</time>
      </trkpt>
      <trkpt lat="45.33484" lon="6.19954">
        <ele>2317.6000976562</ele>
        <time>2014-03-02T10:48:25.000Z</time>
      </trkpt>
      <trkpt lat="45.33483" lon="6.19954">
        <ele>2317.3999023438</ele>
        <time>2014-03-02T10:48:26.000Z</time>
      </trkpt>
      <trkpt lat="45.33483" lon="6.19954">
        <ele>2317.3999023438</ele>
        <time>2014-03-02T10:48:27.000Z</time>
      </trkpt>
      <trkpt lat="45.33482" lon="6.19954">
        <ele>2317.1999511719</ele>
        <time>2014-03-02T10:48:28.000Z</time>
      </trkpt>
      <trkpt lat="45.33482" lon="6.19954">
        <ele>2317</ele>
        <time>2014-03-02T10:48:29.000Z</time>
      </trkpt>
      <trkpt lat="45.33482" lon="6.19954">
        <ele>2317</ele>
        <time>2014-03-02T10:48:30.000Z</time>
      </trkpt>
      <trkpt lat="45.33481" lon="6.19955">
        <ele>2317</ele>
        <time>2014-03-02T10:48:31.000Z</time>
      </trkpt>
      <trkpt lat="45.33481" lon="6.19956">
        <ele>2317.1999511719</ele>
        <time>2014-03-02T10:48:32.000Z</time>
      </trkpt>
      <trkpt lat="45.33481" lon="6.19956">
        <ele>2317.3999023438</ele>
        <time>2014-03-02T10:48:33.000Z</time>
      </trkpt>
      <trkpt lat="45.3348" lon="6.19957">
        <ele>2317.3999023438</ele>
        <time>2014-03-02T10:48:34.000Z</time>
      </trkpt>
      <trkpt lat="45.3348" lon="6.19957">
        <ele>2317.3999023438</ele>
        <time>2014-03-02T10:48:35.000Z</time>
      </trkpt>
      <trkpt lat="45.3348" lon="6.19957">
        <ele>2317.3999023438</ele>
        <time>2014-03-02T10:48:36.000Z</time>
      </trkpt>
      <trkpt lat="45.33479" lon="6.19958">
        <ele>2317.1999511719</ele>
        <time>2014-03-02T10:48:37.000Z</time>
      </trkpt>
      <trkpt lat="45.33479" lon="6.19958">
        <ele>2317.1999511719</ele>
        <time>2014-03-02T10:48:38.000Z</time>
      </trkpt>
      <trkpt lat="45.33479" lon="6.19958">
        <ele>2317.3999023438</ele>
        <time>2014-03-02T10:48:39.000Z</time>
      </trkpt>
      <trkpt lat="45.33478" lon="6.19959">
        <ele>2317.3999023438</ele>
        <time>2014-03-02T10:48:40.000Z</time>
      </trkpt>
      <trkpt lat="45.33478" lon="6.19959">
        <ele>2317.3999023438</ele>
        <time>2014-03-02T10:48:41.000Z</time>
      </trkpt>
      <trkpt lat="45.33477" lon="6.1996">
        <ele>2317.3999023438</ele>
        <time>2014-03-02T10:48:42.000Z</time>
      </trkpt>
      <trkpt lat="45.33476" lon="6.19961">
        <ele>2317.6000976562</ele>
        <time>2014-03-02T10:48:43.000Z</time>
      </trkpt>
      <trkpt lat="45.33476" lon="6.19962">
        <ele>2317.6000976562</ele>
        <time>2014-03-02T10:48:44.000Z</time>
      </trkpt>
      <trkpt lat="45.33475" lon="6.19962">
        <ele>2317.6000976562</ele>
        <time>2014-03-02T10:48:45.000Z</time>
      </trkpt>
      <trkpt lat="45.33475" lon="6.19962">
        <ele>2317.6000976562</ele>
        <time>2014-03-02T10:48:46.000Z</time>
      </trkpt>
      <trkpt lat="45.33475" lon="6.19963">
        <ele>2317.6000976562</ele>
        <time>2014-03-02T10:48:47.000Z</time>
      </trkpt>
      <trkpt lat="45.33474" lon="6.19964">
        <ele>2317.6000976562</ele>
        <time>2014-03-02T10:48:48.000Z</time>
      </trkpt>
      <trkpt lat="45.33473" lon="6.19964">
        <ele>2317.6000976562</ele>
        <time>2014-03-02T10:48:49.000Z</time>
      </trkpt>
      <trkpt lat="45.33473" lon="6.19964">
        <ele>2317.3999023438</ele>
        <time>2014-03-02T10:48:50.000Z</time>
      </trkpt>
      <trkpt lat="45.33472" lon="6.19964">
        <ele>2317.1999511719</ele>
        <time>2014-03-02T10:48:51.000Z</time>
      </trkpt>
      <trkpt lat="45.33472" lon="6.19964">
        <ele>2317</ele>
        <time>2014-03-02T10:48:52.000Z</time>
      </trkpt>
      <trkpt lat="45.33472" lon="6.19964">
        <ele>2317</ele>
        <time>2014-03-02T10:48:53.000Z</time>
      </trkpt>
      <trkpt lat="45.33471" lon="6.19964">
        <ele>2317</ele>
        <time>2014-03-02T10:48:54.000Z</time>
      </trkpt>
      <trkpt lat="45.33471" lon="6.19964">
        <ele>2317</ele>
        <time>2014-03-02T10:48:55.000Z</time>
      </trkpt>
      <trkpt lat="45.33471" lon="6.19964">
        <ele>2316.8000488281</ele>
        <time>2014-03-02T10:48:56.000Z</time>
      </trkpt>
      <trkpt lat="45.33471" lon="6.19964">
        <ele>2316.8000488281</ele>
        <time>2014-03-02T10:48:57.000Z</time>
      </trkpt>
      <trkpt lat="45.33471" lon="6.19964">
        <ele>2316.8000488281</ele>
        <time>2014-03-02T10:48:58.000Z</time>
      </trkpt>
      <trkpt lat="45.33471" lon="6.19964">
        <ele>2316.8000488281</ele>
        <time>2014-03-02T10:48:59.000Z</time>
      </trkpt>
      <trkpt lat="45.3347" lon="6.19965">
        <ele>2316.6000976562</ele>
        <time>2014-03-02T10:49:00.000Z</time>
      </trkpt>
      <trkpt lat="45.3347" lon="6.19965">
        <ele>2316.6000976562</ele>
        <time>2014-03-02T10:49:01.000Z</time>
      </trkpt>
      <trkpt lat="45.3347" lon="6.19965">
        <ele>2316.6000976562</ele>
        <time>2014-03-02T10:49:02.000Z</time>
      </trkpt>
      <trkpt lat="45.3347" lon="6.19965">
        <ele>2316.6000976562</ele>
        <time>2014-03-02T10:49:03.000Z</time>
      </trkpt>
      <trkpt lat="45.3347" lon="6.19965">
        <ele>2316.6000976562</ele>
        <time>2014-03-02T10:49:04.000Z</time>
      </trkpt>
      <trkpt lat="45.3347" lon="6.19965">
        <ele>2316.6000976562</ele>
        <time>2014-03-02T10:49:05.000Z</time>
      </trkpt>
      <trkpt lat="45.3347" lon="6.19965">
        <ele>2316.6000976562</ele>
        <time>2014-03-02T10:49:06.000Z</time>
      </trkpt>
      <trkpt lat="45.3347" lon="6.19965">
        <ele>2316.6000976562</ele>
        <time>2014-03-02T10:49:07.000Z</time>
      </trkpt>
      <trkpt lat="45.3347" lon="6.19965">
        <ele>2316.6000976562</ele>
        <time>2014-03-02T10:49:08.000Z</time>
      </trkpt>
      <trkpt lat="45.3347" lon="6.19965">
        <ele>2316.6000976562</ele>
        <time>2014-03-02T10:49:09.000Z</time>
      </trkpt>
      <trkpt lat="45.3347" lon="6.19965">
        <ele>2317</ele>
        <time>2014-03-02T10:49:10.000Z</time>
      </trkpt>
      <trkpt lat="45.33471" lon="6.19965">
        <ele>2317.1999511719</ele>
        <time>2014-03-02T10:49:11.000Z</time>
      </trkpt>
      <trkpt lat="45.33471" lon="6.19965">
        <ele>2317.1999511719</ele>
        <time>2014-03-02T10:49:12.000Z</time>
      </trkpt>
      <trkpt lat="45.33471" lon="6.19965">
        <ele>2317.1999511719</ele>
        <time>2014-03-02T10:49:13.000Z</time>
      </trkpt>
      <trkpt lat="45.33471" lon="6.19965">
        <ele>2317.1999511719</ele>
        <time>2014-03-02T10:49:14.000Z</time>
      </trkpt>
      <trkpt lat="45.33471" lon="6.19965">
        <ele>2317.1999511719</ele>
        <time>2014-03-02T10:49:15.000Z</time>
      </trkpt>
      <trkpt lat="45.33471" lon="6.19965">
        <ele>2317.1999511719</ele>
        <time>2014-03-02T10:49:16.000Z</time>
      </trkpt>
      <trkpt lat="45.33471" lon="6.19965">
        <ele>2317.1999511719</ele>
        <time>2014-03-02T10:49:17.000Z</time>
      </trkpt>
      <trkpt lat="45.33471" lon="6.19965">
        <ele>2317.1999511719</ele>
        <time>2014-03-02T10:49:18.000Z</time>
      </trkpt>
      <trkpt lat="45.33472" lon="6.19966">
        <ele>2317.6000976562</ele>
        <time>2014-03-02T10:49:19.000Z</time>
      </trkpt>
      <trkpt lat="45.33472" lon="6.19966">
        <ele>2317.6000976562</ele>
        <time>2014-03-02T10:49:20.000Z</time>
      </trkpt>
      <trkpt lat="45.33473" lon="6.19966">
        <ele>2317.8000488281</ele>
        <time>2014-03-02T10:49:21.000Z</time>
      </trkpt>
      <trkpt lat="45.33473" lon="6.19966">
        <ele>2318.1999511719</ele>
        <time>2014-03-02T10:49:22.000Z</time>
      </trkpt>
      <trkpt lat="45.33474" lon="6.19966">
        <ele>2318.3999023438</ele>
        <time>2014-03-02T10:49:23.000Z</time>
      </trkpt>
      <trkpt lat="45.33475" lon="6.19966">
        <ele>2318.6000976562</ele>
        <time>2014-03-02T10:49:24.000Z</time>
      </trkpt>
      <trkpt lat="45.33476" lon="6.19967">
        <ele>2319</ele>
        <time>2014-03-02T10:49:25.000Z</time>
      </trkpt>
      <trkpt lat="45.33476" lon="6.19967">
        <ele>2319.3999023438</ele>
        <time>2014-03-02T10:49:26.000Z</time>
      </trkpt>
      <trkpt lat="45.33477" lon="6.19968">
        <ele>2319.6000976562</ele>
        <time>2014-03-02T10:49:27.000Z</time>
      </trkpt>
      <trkpt lat="45.33478" lon="6.19968">
        <ele>2320</ele>
        <time>2014-03-02T10:49:28.000Z</time>
      </trkpt>
      <trkpt lat="45.33478" lon="6.19968">
        <ele>2320</ele>
        <time>2014-03-02T10:49:29.000Z</time>
      </trkpt>
      <trkpt lat="45.33478" lon="6.19968">
        <ele>2320</ele>
        <time>2014-03-02T10:49:30.000Z</time>
      </trkpt>
      <trkpt lat="45.33479" lon="6.19968">
        <ele>2320.1999511719</ele>
        <time>2014-03-02T10:49:31.000Z</time>
      </trkpt>
      <trkpt lat="45.3348" lon="6.19968">
        <ele>2320.6000976562</ele>
        <time>2014-03-02T10:49:32.000Z</time>
      </trkpt>
      <trkpt lat="45.3348" lon="6.19969">
        <ele>2321</ele>
        <time>2014-03-02T10:49:33.000Z</time>
      </trkpt>
      <trkpt lat="45.33481" lon="6.19969">
        <ele>2321.1999511719</ele>
        <time>2014-03-02T10:49:34.000Z</time>
      </trkpt>
      <trkpt lat="45.33482" lon="6.19969">
        <ele>2321.6000976562</ele>
        <time>2014-03-02T10:49:35.000Z</time>
      </trkpt>
      <trkpt lat="45.33482" lon="6.1997">
        <ele>2322</ele>
        <time>2014-03-02T10:49:36.000Z</time>
      </trkpt>
      <trkpt lat="45.33482" lon="6.1997">
        <ele>2322.1999511719</ele>
        <time>2014-03-02T10:49:37.000Z</time>
      </trkpt>
      <trkpt lat="45.33483" lon="6.19971">
        <ele>2322.3999023438</ele>
        <time>2014-03-02T10:49:38.000Z</time>
      </trkpt>
      <trkpt lat="45.33483" lon="6.19971">
        <ele>2322.3999023438</ele>
        <time>2014-03-02T10:49:39.000Z</time>
      </trkpt>
      <trkpt lat="45.33483" lon="6.19971">
        <ele>2322.6000976562</ele>
        <time>2014-03-02T10:49:40.000Z</time>
      </trkpt>
      <trkpt lat="45.33484" lon="6.19972">
        <ele>2323</ele>
        <time>2014-03-02T10:49:41.000Z</time>
      </trkpt>
      <trkpt lat="45.33484" lon="6.19972">
        <ele>2323.1999511719</ele>
        <time>2014-03-02T10:49:42.000Z</time>
      </trkpt>
      <trkpt lat="45.33485" lon="6.19973">
        <ele>2323.6000976562</ele>
        <time>2014-03-02T10:49:43.000Z</time>
      </trkpt>
      <trkpt lat="45.33486" lon="6.19973">
        <ele>2323.8000488281</ele>
        <time>2014-03-02T10:49:44.000Z</time>
      </trkpt>
      <trkpt lat="45.33487" lon="6.19973">
        <ele>2324.1999511719</ele>
        <time>2014-03-02T10:49:45.000Z</time>
      </trkpt>
      <trkpt lat="45.33487" lon="6.19974">
        <ele>2324.6000976562</ele>
        <time>2014-03-02T10:49:46.000Z</time>
      </trkpt>
      <trkpt lat="45.33488" lon="6.19974">
        <ele>2324.8000488281</ele>
        <time>2014-03-02T10:49:47.000Z</time>
      </trkpt>
      <trkpt lat="45.33488" lon="6.19974">
        <ele>2325</ele>
        <time>2014-03-02T10:49:48.000Z</time>
      </trkpt>
      <trkpt lat="45.33488" lon="6.19974">
        <ele>2325</ele>
        <time>2014-03-02T10:49:49.000Z</time>
      </trkpt>
      <trkpt lat="45.33489" lon="6.19975">
        <ele>2325.3999023438</ele>
        <time>2014-03-02T10:49:50.000Z</time>
      </trkpt>
      <trkpt lat="45.3349" lon="6.19975">
        <ele>2325.6000976562</ele>
        <time>2014-03-02T10:49:51.000Z</time>
      </trkpt>
      <trkpt lat="45.33491" lon="6.19975">
        <ele>2326</ele>
        <time>2014-03-02T10:49:52.000Z</time>
      </trkpt>
      <trkpt lat="45.33492" lon="6.19975">
        <ele>2326.3999023438</ele>
        <time>2014-03-02T10:49:53.000Z</time>
      </trkpt>
      <trkpt lat="45.33493" lon="6.19976">
        <ele>2326.8000488281</ele>
        <time>2014-03-02T10:49:54.000Z</time>
      </trkpt>
      <trkpt lat="45.33493" lon="6.19976">
        <ele>2327</ele>
        <time>2014-03-02T10:49:55.000Z</time>
      </trkpt>
      <trkpt lat="45.33494" lon="6.19977">
        <ele>2327.3999023438</ele>
        <time>2014-03-02T10:49:56.000Z</time>
      </trkpt>
      <trkpt lat="45.33494" lon="6.19977">
        <ele>2327.8000488281</ele>
        <time>2014-03-02T10:49:57.000Z</time>
      </trkpt>
      <trkpt lat="45.33495" lon="6.19978">
        <ele>2328.1999511719</ele>
        <time>2014-03-02T10:49:58.000Z</time>
      </trkpt>
      <trkpt lat="45.33496" lon="6.19978">
        <ele>2328.1999511719</ele>
        <time>2014-03-02T10:49:59.000Z</time>
      </trkpt>
      <trkpt lat="45.33496" lon="6.19978">
        <ele>2328.3999023438</ele>
        <time>2014-03-02T10:50:00.000Z</time>
      </trkpt>
      <trkpt lat="45.33496" lon="6.19978">
        <ele>2328.3999023438</ele>
        <time>2014-03-02T10:50:01.000Z</time>
      </trkpt>
      <trkpt lat="45.33497" lon="6.19978">
        <ele>2328.8000488281</ele>
        <time>2014-03-02T10:50:02.000Z</time>
      </trkpt>
      <trkpt lat="45.33497" lon="6.19978">
        <ele>2329</ele>
        <time>2014-03-02T10:50:03.000Z</time>
      </trkpt>
      <trkpt lat="45.33498" lon="6.19978">
        <ele>2329.1999511719</ele>
        <time>2014-03-02T10:50:04.000Z</time>
      </trkpt>
      <trkpt lat="45.33499" lon="6.19978">
        <ele>2329.3999023438</ele>
        <time>2014-03-02T10:50:05.000Z</time>
      </trkpt>
      <trkpt lat="45.335" lon="6.19978">
        <ele>2329.8000488281</ele>
        <time>2014-03-02T10:50:06.000Z</time>
      </trkpt>
      <trkpt lat="45.33501" lon="6.19978">
        <ele>2330</ele>
        <time>2014-03-02T10:50:07.000Z</time>
      </trkpt>
      <trkpt lat="45.33502" lon="6.19978">
        <ele>2330.1999511719</ele>
        <time>2014-03-02T10:50:08.000Z</time>
      </trkpt>
      <trkpt lat="45.33503" lon="6.19977">
        <ele>2330.3999023438</ele>
        <time>2014-03-02T10:50:09.000Z</time>
      </trkpt>
      <trkpt lat="45.33504" lon="6.19977">
        <ele>2330.6000976562</ele>
        <time>2014-03-02T10:50:10.000Z</time>
      </trkpt>
      <trkpt lat="45.33505" lon="6.19977">
        <ele>2330.8000488281</ele>
        <time>2014-03-02T10:50:11.000Z</time>
      </trkpt>
      <trkpt lat="45.33505" lon="6.19977">
        <ele>2331</ele>
        <time>2014-03-02T10:50:12.000Z</time>
      </trkpt>
      <trkpt lat="45.33506" lon="6.19977">
        <ele>2331.1999511719</ele>
        <time>2014-03-02T10:50:13.000Z</time>
      </trkpt>
      <trkpt lat="45.33507" lon="6.19977">
        <ele>2331.1999511719</ele>
        <time>2014-03-02T10:50:14.000Z</time>
      </trkpt>
      <trkpt lat="45.33508" lon="6.19976">
        <ele>2331.3999023438</ele>
        <time>2014-03-02T10:50:15.000Z</time>
      </trkpt>
      <trkpt lat="45.33508" lon="6.19976">
        <ele>2331.6000976562</ele>
        <time>2014-03-02T10:50:16.000Z</time>
      </trkpt>
      <trkpt lat="45.33509" lon="6.19976">
        <ele>2332</ele>
        <time>2014-03-02T10:50:17.000Z</time>
      </trkpt>
      <trkpt lat="45.3351" lon="6.19976">
        <ele>2332.1999511719</ele>
        <time>2014-03-02T10:50:18.000Z</time>
      </trkpt>
      <trkpt lat="45.33511" lon="6.19976">
        <ele>2332.3999023438</ele>
        <time>2014-03-02T10:50:19.000Z</time>
      </trkpt>
      <trkpt lat="45.33512" lon="6.19976">
        <ele>2332.8000488281</ele>
        <time>2014-03-02T10:50:20.000Z</time>
      </trkpt>
      <trkpt lat="45.33513" lon="6.19977">
        <ele>2333.1999511719</ele>
        <time>2014-03-02T10:50:21.000Z</time>
      </trkpt>
      <trkpt lat="45.33514" lon="6.19977">
        <ele>2333.6000976562</ele>
        <time>2014-03-02T10:50:22.000Z</time>
      </trkpt>
      <trkpt lat="45.33515" lon="6.19977">
        <ele>2333.8000488281</ele>
        <time>2014-03-02T10:50:23.000Z</time>
      </trkpt>
      <trkpt lat="45.33515" lon="6.19977">
        <ele>2334</ele>
        <time>2014-03-02T10:50:24.000Z</time>
      </trkpt>
      <trkpt lat="45.33515" lon="6.19977">
        <ele>2334</ele>
        <time>2014-03-02T10:50:25.000Z</time>
      </trkpt>
      <trkpt lat="45.33516" lon="6.19977">
        <ele>2334.1999511719</ele>
        <time>2014-03-02T10:50:26.000Z</time>
      </trkpt>
      <trkpt lat="45.33517" lon="6.19977">
        <ele>2334.6000976562</ele>
        <time>2014-03-02T10:50:27.000Z</time>
      </trkpt>
      <trkpt lat="45.33517" lon="6.19977">
        <ele>2334.6000976562</ele>
        <time>2014-03-02T10:50:28.000Z</time>
      </trkpt>
      <trkpt lat="45.33518" lon="6.19977">
        <ele>2334.8000488281</ele>
        <time>2014-03-02T10:50:29.000Z</time>
      </trkpt>
      <trkpt lat="45.33519" lon="6.19976">
        <ele>2334.8000488281</ele>
        <time>2014-03-02T10:50:30.000Z</time>
      </trkpt>
      <trkpt lat="45.33519" lon="6.19976">
        <ele>2335</ele>
        <time>2014-03-02T10:50:31.000Z</time>
      </trkpt>
      <trkpt lat="45.3352" lon="6.19976">
        <ele>2335.1999511719</ele>
        <time>2014-03-02T10:50:32.000Z</time>
      </trkpt>
      <trkpt lat="45.33521" lon="6.19976">
        <ele>2335.3999023438</ele>
        <time>2014-03-02T10:50:33.000Z</time>
      </trkpt>
      <trkpt lat="45.33521" lon="6.19977">
        <ele>2335.6000976562</ele>
        <time>2014-03-02T10:50:34.000Z</time>
      </trkpt>
      <trkpt lat="45.33522" lon="6.19977">
        <ele>2335.8000488281</ele>
        <time>2014-03-02T10:50:35.000Z</time>
      </trkpt>
      <trkpt lat="45.33523" lon="6.19977">
        <ele>2336.1999511719</ele>
        <time>2014-03-02T10:50:36.000Z</time>
      </trkpt>
      <trkpt lat="45.33524" lon="6.19977">
        <ele>2336.6000976562</ele>
        <time>2014-03-02T10:50:37.000Z</time>
      </trkpt>
      <trkpt lat="45.33525" lon="6.19977">
        <ele>2337</ele>
        <time>2014-03-02T10:50:38.000Z</time>
      </trkpt>
      <trkpt lat="45.33526" lon="6.19977">
        <ele>2337.1999511719</ele>
        <time>2014-03-02T10:50:39.000Z</time>
      </trkpt>
      <trkpt lat="45.33527" lon="6.19977">
        <ele>2337.6000976562</ele>
        <time>2014-03-02T10:50:40.000Z</time>
      </trkpt>
      <trkpt lat="45.33529" lon="6.19977">
        <ele>2337.8000488281</ele>
        <time>2014-03-02T10:50:41.000Z</time>
      </trkpt>
      <trkpt lat="45.33529" lon="6.19977">
        <ele>2338</ele>
        <time>2014-03-02T10:50:42.000Z</time>
      </trkpt>
      <trkpt lat="45.3353" lon="6.19977">
        <ele>2338.3999023438</ele>
        <time>2014-03-02T10:50:43.000Z</time>
      </trkpt>
      <trkpt lat="45.33531" lon="6.19977">
        <ele>2338.8000488281</ele>
        <time>2014-03-02T10:50:44.000Z</time>
      </trkpt>
      <trkpt lat="45.33532" lon="6.19978">
        <ele>2339.1999511719</ele>
        <time>2014-03-02T10:50:45.000Z</time>
      </trkpt>
      <trkpt lat="45.33532" lon="6.19978">
        <ele>2339.3999023438</ele>
        <time>2014-03-02T10:50:46.000Z</time>
      </trkpt>
      <trkpt lat="45.33533" lon="6.19978">
        <ele>2339.6000976562</ele>
        <time>2014-03-02T10:50:47.000Z</time>
      </trkpt>
      <trkpt lat="45.33534" lon="6.19978">
        <ele>2339.8000488281</ele>
        <time>2014-03-02T10:50:48.000Z</time>
      </trkpt>
      <trkpt lat="45.33534" lon="6.19977">
        <ele>2339.8000488281</ele>
        <time>2014-03-02T10:50:49.000Z</time>
      </trkpt>
      <trkpt lat="45.33535" lon="6.19977">
        <ele>2340</ele>
        <time>2014-03-02T10:50:50.000Z</time>
      </trkpt>
      <trkpt lat="45.33536" lon="6.19977">
        <ele>2340.1999511719</ele>
        <time>2014-03-02T10:50:51.000Z</time>
      </trkpt>
      <trkpt lat="45.33536" lon="6.19977">
        <ele>2340.1999511719</ele>
        <time>2014-03-02T10:50:52.000Z</time>
      </trkpt>
      <trkpt lat="45.33537" lon="6.19977">
        <ele>2340.3999023438</ele>
        <time>2014-03-02T10:50:53.000Z</time>
      </trkpt>
      <trkpt lat="45.33537" lon="6.19977">
        <ele>2340.3999023438</ele>
        <time>2014-03-02T10:50:54.000Z</time>
      </trkpt>
      <trkpt lat="45.33538" lon="6.19977">
        <ele>2340.6000976562</ele>
        <time>2014-03-02T10:50:55.000Z</time>
      </trkpt>
      <trkpt lat="45.33539" lon="6.19977">
        <ele>2340.8000488281</ele>
        <time>2014-03-02T10:50:56.000Z</time>
      </trkpt>
      <trkpt lat="45.33539" lon="6.19976">
        <ele>2341</ele>
        <time>2014-03-02T10:50:57.000Z</time>
      </trkpt>
      <trkpt lat="45.3354" lon="6.19976">
        <ele>2341.1999511719</ele>
        <time>2014-03-02T10:50:58.000Z</time>
      </trkpt>
      <trkpt lat="45.33541" lon="6.19976">
        <ele>2341.1999511719</ele>
        <time>2014-03-02T10:50:59.000Z</time>
      </trkpt>
      <trkpt lat="45.33541" lon="6.19976">
        <ele>2341.3999023438</ele>
        <time>2014-03-02T10:51:00.000Z</time>
      </trkpt>
      <trkpt lat="45.33542" lon="6.19976">
        <ele>2341.6000976562</ele>
        <time>2014-03-02T10:51:01.000Z</time>
      </trkpt>
      <trkpt lat="45.33542" lon="6.19976">
        <ele>2341.8000488281</ele>
        <time>2014-03-02T10:51:02.000Z</time>
      </trkpt>
      <trkpt lat="45.33543" lon="6.19977">
        <ele>2342</ele>
        <time>2014-03-02T10:51:03.000Z</time>
      </trkpt>
      <trkpt lat="45.33543" lon="6.19977">
        <ele>2342.3999023438</ele>
        <time>2014-03-02T10:51:04.000Z</time>
      </trkpt>
      <trkpt lat="45.33543" lon="6.19977">
        <ele>2342.3999023438</ele>
        <time>2014-03-02T10:51:05.000Z</time>
      </trkpt>
      <trkpt lat="45.33544" lon="6.19977">
        <ele>2342.6000976562</ele>
        <time>2014-03-02T10:51:06.000Z</time>
      </trkpt>
      <trkpt lat="45.33544" lon="6.19977">
        <ele>2342.8000488281</ele>
        <time>2014-03-02T10:51:07.000Z</time>
      </trkpt>
      <trkpt lat="45.33545" lon="6.19978">
        <ele>2343</ele>
        <time>2014-03-02T10:51:08.000Z</time>
      </trkpt>
      <trkpt lat="45.33546" lon="6.19978">
        <ele>2343.1999511719</ele>
        <time>2014-03-02T10:51:09.000Z</time>
      </trkpt>
      <trkpt lat="45.33546" lon="6.19978">
        <ele>2343.6000976562</ele>
        <time>2014-03-02T10:51:10.000Z</time>
      </trkpt>
      <trkpt lat="45.33547" lon="6.19978">
        <ele>2343.8000488281</ele>
        <time>2014-03-02T10:51:11.000Z</time>
      </trkpt>
      <trkpt lat="45.33547" lon="6.19979">
        <ele>2344</ele>
        <time>2014-03-02T10:51:12.000Z</time>
      </trkpt>
      <trkpt lat="45.33548" lon="6.19979">
        <ele>2344.3999023438</ele>
        <time>2014-03-02T10:51:13.000Z</time>
      </trkpt>
      <trkpt lat="45.33549" lon="6.1998">
        <ele>2344.8000488281</ele>
        <time>2014-03-02T10:51:14.000Z</time>
      </trkpt>
      <trkpt lat="45.33549" lon="6.1998">
        <ele>2345.1999511719</ele>
        <time>2014-03-02T10:51:15.000Z</time>
      </trkpt>
      <trkpt lat="45.33549" lon="6.1998">
        <ele>2345.1999511719</ele>
        <time>2014-03-02T10:51:16.000Z</time>
      </trkpt>
      <trkpt lat="45.33549" lon="6.1998">
        <ele>2345.1999511719</ele>
        <time>2014-03-02T10:51:17.000Z</time>
      </trkpt>
      <trkpt lat="45.33549" lon="6.1998">
        <ele>2345.1999511719</ele>
        <time>2014-03-02T10:51:18.000Z</time>
      </trkpt>
      <trkpt lat="45.33549" lon="6.1998">
        <ele>2345.1999511719</ele>
        <time>2014-03-02T10:51:19.000Z</time>
      </trkpt>
      <trkpt lat="45.33549" lon="6.1998">
        <ele>2345.1999511719</ele>
        <time>2014-03-02T10:51:20.000Z</time>
      </trkpt>
      <trkpt lat="45.33549" lon="6.1998">
        <ele>2345.1999511719</ele>
        <time>2014-03-02T10:51:21.000Z</time>
      </trkpt>
      <trkpt lat="45.33549" lon="6.1998">
        <ele>2345.1999511719</ele>
        <time>2014-03-02T10:51:22.000Z</time>
      </trkpt>
      <trkpt lat="45.33549" lon="6.1998">
        <ele>2345.1999511719</ele>
        <time>2014-03-02T10:51:23.000Z</time>
      </trkpt>
      <trkpt lat="45.33549" lon="6.1998">
        <ele>2345.1999511719</ele>
        <time>2014-03-02T10:51:24.000Z</time>
      </trkpt>
      <trkpt lat="45.33549" lon="6.1998">
        <ele>2345.1999511719</ele>
        <time>2014-03-02T10:51:25.000Z</time>
      </trkpt>
      <trkpt lat="45.33549" lon="6.1998">
        <ele>2345.1999511719</ele>
        <time>2014-03-02T10:51:26.000Z</time>
      </trkpt>
      <trkpt lat="45.33549" lon="6.1998">
        <ele>2345.1999511719</ele>
        <time>2014-03-02T10:51:27.000Z</time>
      </trkpt>
      <trkpt lat="45.33549" lon="6.1998">
        <ele>2345.1999511719</ele>
        <time>2014-03-02T10:51:31.000Z</time>
      </trkpt>
      <trkpt lat="45.33549" lon="6.1998">
        <ele>2345.1999511719</ele>
        <time>2014-03-02T10:51:32.000Z</time>
      </trkpt>
      <trkpt lat="45.3355" lon="6.19981">
        <ele>2346</ele>
        <time>2014-03-02T10:51:34.000Z</time>
      </trkpt>
      <trkpt lat="45.33551" lon="6.19982">
        <ele>2346.6000976562</ele>
        <time>2014-03-02T10:51:35.000Z</time>
      </trkpt>
      <trkpt lat="45.33552" lon="6.19982">
        <ele>2347</ele>
        <time>2014-03-02T10:51:36.000Z</time>
      </trkpt>
      <trkpt lat="45.33553" lon="6.19983">
        <ele>2347.6000976562</ele>
        <time>2014-03-02T10:51:37.000Z</time>
      </trkpt>
      <trkpt lat="45.33554" lon="6.19983">
        <ele>2348</ele>
        <time>2014-03-02T10:51:38.000Z</time>
      </trkpt>
      <trkpt lat="45.33554" lon="6.19983">
        <ele>2348.3999023438</ele>
        <time>2014-03-02T10:51:39.000Z</time>
      </trkpt>
      <trkpt lat="45.33555" lon="6.19983">
        <ele>2348.6000976562</ele>
        <time>2014-03-02T10:51:40.000Z</time>
      </trkpt>
      <trkpt lat="45.33555" lon="6.19983">
        <ele>2348.6000976562</ele>
        <time>2014-03-02T10:51:41.000Z</time>
      </trkpt>
      <trkpt lat="45.33555" lon="6.19984">
        <ele>2349</ele>
        <time>2014-03-02T10:51:42.000Z</time>
      </trkpt>
      <trkpt lat="45.33556" lon="6.19984">
        <ele>2349.6000976562</ele>
        <time>2014-03-02T10:51:43.000Z</time>
      </trkpt>
      <trkpt lat="45.33557" lon="6.19985">
        <ele>2350</ele>
        <time>2014-03-02T10:51:44.000Z</time>
      </trkpt>
      <trkpt lat="45.33558" lon="6.19985">
        <ele>2350.6000976562</ele>
        <time>2014-03-02T10:51:45.000Z</time>
      </trkpt>
      <trkpt lat="45.33559" lon="6.19986">
        <ele>2351.1999511719</ele>
        <time>2014-03-02T10:51:46.000Z</time>
      </trkpt>
      <trkpt lat="45.33559" lon="6.19986">
        <ele>2351.6000976562</ele>
        <time>2014-03-02T10:51:47.000Z</time>
      </trkpt>
      <trkpt lat="45.3356" lon="6.19986">
        <ele>2351.8000488281</ele>
        <time>2014-03-02T10:51:48.000Z</time>
      </trkpt>
      <trkpt lat="45.3356" lon="6.19986">
        <ele>2352</ele>
        <time>2014-03-02T10:51:49.000Z</time>
      </trkpt>
      <trkpt lat="45.3356" lon="6.19986">
        <ele>2352</ele>
        <time>2014-03-02T10:51:50.000Z</time>
      </trkpt>
      <trkpt lat="45.33561" lon="6.19985">
        <ele>2352</ele>
        <time>2014-03-02T10:51:51.000Z</time>
      </trkpt>
      <trkpt lat="45.33561" lon="6.19985">
        <ele>2352</ele>
        <time>2014-03-02T10:51:52.000Z</time>
      </trkpt>
      <trkpt lat="45.33561" lon="6.19985">
        <ele>2352</ele>
        <time>2014-03-02T10:51:53.000Z</time>
      </trkpt>
      <trkpt lat="45.33561" lon="6.19985">
        <ele>2352</ele>
        <time>2014-03-02T10:51:54.000Z</time>
      </trkpt>
      <trkpt lat="45.33561" lon="6.19985">
        <ele>2352</ele>
        <time>2014-03-02T10:51:55.000Z</time>
      </trkpt>
      <trkpt lat="45.33561" lon="6.19985">
        <ele>2352</ele>
        <time>2014-03-02T10:51:56.000Z</time>
      </trkpt>
      <trkpt lat="45.33561" lon="6.19985">
        <ele>2352</ele>
        <time>2014-03-02T10:51:57.000Z</time>
      </trkpt>
      <trkpt lat="45.33561" lon="6.19985">
        <ele>2352</ele>
        <time>2014-03-02T10:51:58.000Z</time>
      </trkpt>
      <trkpt lat="45.33561" lon="6.19986">
        <ele>2352.1999511719</ele>
        <time>2014-03-02T10:51:59.000Z</time>
      </trkpt>
      <trkpt lat="45.33561" lon="6.19986">
        <ele>2352.6000976562</ele>
        <time>2014-03-02T10:52:00.000Z</time>
      </trkpt>
      <trkpt lat="45.33562" lon="6.19986">
        <ele>2352.8000488281</ele>
        <time>2014-03-02T10:52:01.000Z</time>
      </trkpt>
      <trkpt lat="45.33563" lon="6.19987">
        <ele>2353.3999023438</ele>
        <time>2014-03-02T10:52:02.000Z</time>
      </trkpt>
      <trkpt lat="45.33563" lon="6.19987">
        <ele>2353.8000488281</ele>
        <time>2014-03-02T10:52:03.000Z</time>
      </trkpt>
      <trkpt lat="45.33564" lon="6.19987">
        <ele>2354</ele>
        <time>2014-03-02T10:52:04.000Z</time>
      </trkpt>
      <trkpt lat="45.33564" lon="6.19988">
        <ele>2354.3999023438</ele>
        <time>2014-03-02T10:52:05.000Z</time>
      </trkpt>
      <trkpt lat="45.33565" lon="6.19989">
        <ele>2355</ele>
        <time>2014-03-02T10:52:06.000Z</time>
      </trkpt>
      <trkpt lat="45.33566" lon="6.19989">
        <ele>2355.3999023438</ele>
        <time>2014-03-02T10:52:07.000Z</time>
      </trkpt>
      <trkpt lat="45.33566" lon="6.19989">
        <ele>2355.6000976562</ele>
        <time>2014-03-02T10:52:08.000Z</time>
      </trkpt>
      <trkpt lat="45.33567" lon="6.19989">
        <ele>2356</ele>
        <time>2014-03-02T10:52:09.000Z</time>
      </trkpt>
      <trkpt lat="45.33567" lon="6.1999">
        <ele>2356</ele>
        <time>2014-03-02T10:52:10.000Z</time>
      </trkpt>
      <trkpt lat="45.33567" lon="6.1999">
        <ele>2356</ele>
        <time>2014-03-02T10:52:11.000Z</time>
      </trkpt>
      <trkpt lat="45.33567" lon="6.1999">
        <ele>2356.1999511719</ele>
        <time>2014-03-02T10:52:12.000Z</time>
      </trkpt>
      <trkpt lat="45.33567" lon="6.1999">
        <ele>2356.1999511719</ele>
        <time>2014-03-02T10:52:13.000Z</time>
      </trkpt>
      <trkpt lat="45.33568" lon="6.19989">
        <ele>2356.1999511719</ele>
        <time>2014-03-02T10:52:14.000Z</time>
      </trkpt>
      <trkpt lat="45.33568" lon="6.19989">
        <ele>2356.1999511719</ele>
        <time>2014-03-02T10:52:15.000Z</time>
      </trkpt>
      <trkpt lat="45.33568" lon="6.19989">
        <ele>2356.1999511719</ele>
        <time>2014-03-02T10:52:16.000Z</time>
      </trkpt>
      <trkpt lat="45.33568" lon="6.19989">
        <ele>2356.1999511719</ele>
        <time>2014-03-02T10:52:17.000Z</time>
      </trkpt>
      <trkpt lat="45.33568" lon="6.19989">
        <ele>2356.1999511719</ele>
        <time>2014-03-02T10:52:18.000Z</time>
      </trkpt>
      <trkpt lat="45.33568" lon="6.19989">
        <ele>2356.1999511719</ele>
        <time>2014-03-02T10:52:19.000Z</time>
      </trkpt>
      <trkpt lat="45.33568" lon="6.19989">
        <ele>2356.1999511719</ele>
        <time>2014-03-02T10:52:20.000Z</time>
      </trkpt>
      <trkpt lat="45.33568" lon="6.19989">
        <ele>2356.1999511719</ele>
        <time>2014-03-02T10:52:21.000Z</time>
      </trkpt>
      <trkpt lat="45.33568" lon="6.19989">
        <ele>2356.1999511719</ele>
        <time>2014-03-02T10:52:22.000Z</time>
      </trkpt>
      <trkpt lat="45.33568" lon="6.19989">
        <ele>2356.1999511719</ele>
        <time>2014-03-02T10:52:23.000Z</time>
      </trkpt>
      <trkpt lat="45.33568" lon="6.19989">
        <ele>2356.6000976562</ele>
        <time>2014-03-02T10:52:24.000Z</time>
      </trkpt>
      <trkpt lat="45.33569" lon="6.19989">
        <ele>2357</ele>
        <time>2014-03-02T10:52:25.000Z</time>
      </trkpt>
      <trkpt lat="45.3357" lon="6.1999">
        <ele>2357.6000976562</ele>
        <time>2014-03-02T10:52:26.000Z</time>
      </trkpt>
      <trkpt lat="45.3357" lon="6.19989">
        <ele>2357.6000976562</ele>
        <time>2014-03-02T10:52:27.000Z</time>
      </trkpt>
      <trkpt lat="45.3357" lon="6.19989">
        <ele>2357.6000976562</ele>
        <time>2014-03-02T10:52:28.000Z</time>
      </trkpt>
      <trkpt lat="45.3357" lon="6.19989">
        <ele>2357.6000976562</ele>
        <time>2014-03-02T10:52:29.000Z</time>
      </trkpt>
      <trkpt lat="45.3357" lon="6.19989">
        <ele>2357.6000976562</ele>
        <time>2014-03-02T10:52:30.000Z</time>
      </trkpt>
      <trkpt lat="45.33571" lon="6.19989">
        <ele>2358</ele>
        <time>2014-03-02T10:52:31.000Z</time>
      </trkpt>
      <trkpt lat="45.33571" lon="6.19989">
        <ele>2358</ele>
        <time>2014-03-02T10:52:32.000Z</time>
      </trkpt>
      <trkpt lat="45.33571" lon="6.19989">
        <ele>2358.1999511719</ele>
        <time>2014-03-02T10:52:33.000Z</time>
      </trkpt>
      <trkpt lat="45.33571" lon="6.19989">
        <ele>2358.1999511719</ele>
        <time>2014-03-02T10:52:34.000Z</time>
      </trkpt>
      <trkpt lat="45.33571" lon="6.19989">
        <ele>2358.6000976562</ele>
        <time>2014-03-02T10:52:35.000Z</time>
      </trkpt>
      <trkpt lat="45.33572" lon="6.1999">
        <ele>2358.8000488281</ele>
        <time>2014-03-02T10:52:36.000Z</time>
      </trkpt>
      <trkpt lat="45.33572" lon="6.1999">
        <ele>2358.8000488281</ele>
        <time>2014-03-02T10:52:37.000Z</time>
      </trkpt>
      <trkpt lat="45.33573" lon="6.1999">
        <ele>2359.1999511719</ele>
        <time>2014-03-02T10:52:38.000Z</time>
      </trkpt>
      <trkpt lat="45.33573" lon="6.1999">
        <ele>2359.1999511719</ele>
        <time>2014-03-02T10:52:39.000Z</time>
      </trkpt>
      <trkpt lat="45.33573" lon="6.19991">
        <ele>2359.6000976562</ele>
        <time>2014-03-02T10:52:40.000Z</time>
      </trkpt>
      <trkpt lat="45.33573" lon="6.19991">
        <ele>2359.6000976562</ele>
        <time>2014-03-02T10:52:41.000Z</time>
      </trkpt>
      <trkpt lat="45.33574" lon="6.19991">
        <ele>2359.8000488281</ele>
        <time>2014-03-02T10:52:42.000Z</time>
      </trkpt>
      <trkpt lat="45.33574" lon="6.19991">
        <ele>2359.8000488281</ele>
        <time>2014-03-02T10:52:43.000Z</time>
      </trkpt>
      <trkpt lat="45.33574" lon="6.19992">
        <ele>2360</ele>
        <time>2014-03-02T10:52:44.000Z</time>
      </trkpt>
      <trkpt lat="45.33574" lon="6.19992">
        <ele>2360</ele>
        <time>2014-03-02T10:52:45.000Z</time>
      </trkpt>
      <trkpt lat="45.33574" lon="6.19992">
        <ele>2360</ele>
        <time>2014-03-02T10:52:46.000Z</time>
      </trkpt>
      <trkpt lat="45.33574" lon="6.19992">
        <ele>2360.3999023438</ele>
        <time>2014-03-02T10:52:47.000Z</time>
      </trkpt>
      <trkpt lat="45.33574" lon="6.19992">
        <ele>2360.3999023438</ele>
        <time>2014-03-02T10:52:48.000Z</time>
      </trkpt>
      <trkpt lat="45.33575" lon="6.19992">
        <ele>2360.8000488281</ele>
        <time>2014-03-02T10:52:49.000Z</time>
      </trkpt>
      <trkpt lat="45.33575" lon="6.19992">
        <ele>2360.8000488281</ele>
        <time>2014-03-02T10:52:50.000Z</time>
      </trkpt>
      <trkpt lat="45.33576" lon="6.19993">
        <ele>2361.1999511719</ele>
        <time>2014-03-02T10:52:51.000Z</time>
      </trkpt>
      <trkpt lat="45.33576" lon="6.19993">
        <ele>2361.1999511719</ele>
        <time>2014-03-02T10:52:52.000Z</time>
      </trkpt>
      <trkpt lat="45.33576" lon="6.19993">
        <ele>2361.6000976562</ele>
        <time>2014-03-02T10:52:53.000Z</time>
      </trkpt>
      <trkpt lat="45.33576" lon="6.19993">
        <ele>2361.6000976562</ele>
        <time>2014-03-02T10:52:54.000Z</time>
      </trkpt>
      <trkpt lat="45.33576" lon="6.19993">
        <ele>2361.6000976562</ele>
        <time>2014-03-02T10:52:55.000Z</time>
      </trkpt>
      <trkpt lat="45.33577" lon="6.19994">
        <ele>2362</ele>
        <time>2014-03-02T10:52:56.000Z</time>
      </trkpt>
      <trkpt lat="45.33577" lon="6.19994">
        <ele>2362</ele>
        <time>2014-03-02T10:52:57.000Z</time>
      </trkpt>
      <trkpt lat="45.33578" lon="6.19994">
        <ele>2362.3999023438</ele>
        <time>2014-03-02T10:52:58.000Z</time>
      </trkpt>
      <trkpt lat="45.33578" lon="6.19994">
        <ele>2362.3999023438</ele>
        <time>2014-03-02T10:52:59.000Z</time>
      </trkpt>
      <trkpt lat="45.33578" lon="6.19994">
        <ele>2362.3999023438</ele>
        <time>2014-03-02T10:53:00.000Z</time>
      </trkpt>
      <trkpt lat="45.33578" lon="6.19994">
        <ele>2362.3999023438</ele>
        <time>2014-03-02T10:53:01.000Z</time>
      </trkpt>
      <trkpt lat="45.33578" lon="6.19994">
        <ele>2362.3999023438</ele>
        <time>2014-03-02T10:53:02.000Z</time>
      </trkpt>
      <trkpt lat="45.33578" lon="6.19994">
        <ele>2362.3999023438</ele>
        <time>2014-03-02T10:53:03.000Z</time>
      </trkpt>
      <trkpt lat="45.33578" lon="6.19994">
        <ele>2362.3999023438</ele>
        <time>2014-03-02T10:53:04.000Z</time>
      </trkpt>
      <trkpt lat="45.33578" lon="6.19994">
        <ele>2362.3999023438</ele>
        <time>2014-03-02T10:53:05.000Z</time>
      </trkpt>
      <trkpt lat="45.33578" lon="6.19994">
        <ele>2362.3999023438</ele>
        <time>2014-03-02T10:53:06.000Z</time>
      </trkpt>
      <trkpt lat="45.33578" lon="6.19994">
        <ele>2362.3999023438</ele>
        <time>2014-03-02T10:53:07.000Z</time>
      </trkpt>
      <trkpt lat="45.33579" lon="6.19995">
        <ele>2363.1999511719</ele>
        <time>2014-03-02T10:53:08.000Z</time>
      </trkpt>
      <trkpt lat="45.33579" lon="6.19995">
        <ele>2363.1999511719</ele>
        <time>2014-03-02T10:53:09.000Z</time>
      </trkpt>
      <trkpt lat="45.3358" lon="6.19995">
        <ele>2363.8000488281</ele>
        <time>2014-03-02T10:53:10.000Z</time>
      </trkpt>
      <trkpt lat="45.3358" lon="6.19995">
        <ele>2363.8000488281</ele>
        <time>2014-03-02T10:53:11.000Z</time>
      </trkpt>
      <trkpt lat="45.33581" lon="6.19996">
        <ele>2364.3999023438</ele>
        <time>2014-03-02T10:53:12.000Z</time>
      </trkpt>
      <trkpt lat="45.33581" lon="6.19996">
        <ele>2364.3999023438</ele>
        <time>2014-03-02T10:53:13.000Z</time>
      </trkpt>
      <trkpt lat="45.33582" lon="6.19996">
        <ele>2365</ele>
        <time>2014-03-02T10:53:14.000Z</time>
      </trkpt>
      <trkpt lat="45.33583" lon="6.19997">
        <ele>2365.8000488281</ele>
        <time>2014-03-02T10:53:15.000Z</time>
      </trkpt>
      <trkpt lat="45.33584" lon="6.19997">
        <ele>2366.3999023438</ele>
        <time>2014-03-02T10:53:16.000Z</time>
      </trkpt>
      <trkpt lat="45.33585" lon="6.19997">
        <ele>2366.8000488281</ele>
        <time>2014-03-02T10:53:17.000Z</time>
      </trkpt>
      <trkpt lat="45.33586" lon="6.19997">
        <ele>2367.1999511719</ele>
        <time>2014-03-02T10:53:18.000Z</time>
      </trkpt>
      <trkpt lat="45.33587" lon="6.19997">
        <ele>2367.6000976562</ele>
        <time>2014-03-02T10:53:19.000Z</time>
      </trkpt>
      <trkpt lat="45.33587" lon="6.19997">
        <ele>2367.8000488281</ele>
        <time>2014-03-02T10:53:20.000Z</time>
      </trkpt>
      <trkpt lat="45.33587" lon="6.19997">
        <ele>2367.8000488281</ele>
        <time>2014-03-02T10:53:21.000Z</time>
      </trkpt>
      <trkpt lat="45.33587" lon="6.19997">
        <ele>2367.8000488281</ele>
        <time>2014-03-02T10:53:22.000Z</time>
      </trkpt>
      <trkpt lat="45.33587" lon="6.19998">
        <ele>2368</ele>
        <time>2014-03-02T10:53:23.000Z</time>
      </trkpt>
      <trkpt lat="45.33587" lon="6.19998">
        <ele>2368</ele>
        <time>2014-03-02T10:53:24.000Z</time>
      </trkpt>
      <trkpt lat="45.33587" lon="6.19998">
        <ele>2368.1999511719</ele>
        <time>2014-03-02T10:53:25.000Z</time>
      </trkpt>
      <trkpt lat="45.33587" lon="6.19998">
        <ele>2368.1999511719</ele>
        <time>2014-03-02T10:53:26.000Z</time>
      </trkpt>
      <trkpt lat="45.33587" lon="6.19998">
        <ele>2368.1999511719</ele>
        <time>2014-03-02T10:53:27.000Z</time>
      </trkpt>
      <trkpt lat="45.33587" lon="6.19998">
        <ele>2368.1999511719</ele>
        <time>2014-03-02T10:53:28.000Z</time>
      </trkpt>
      <trkpt lat="45.33587" lon="6.19998">
        <ele>2368.1999511719</ele>
        <time>2014-03-02T10:53:29.000Z</time>
      </trkpt>
      <trkpt lat="45.33587" lon="6.19998">
        <ele>2368.1999511719</ele>
        <time>2014-03-02T10:53:30.000Z</time>
      </trkpt>
      <trkpt lat="45.33587" lon="6.19998">
        <ele>2368.1999511719</ele>
        <time>2014-03-02T10:53:31.000Z</time>
      </trkpt>
      <trkpt lat="45.33588" lon="6.19999">
        <ele>2368.3999023438</ele>
        <time>2014-03-02T10:53:32.000Z</time>
      </trkpt>
      <trkpt lat="45.33588" lon="6.19999">
        <ele>2368.3999023438</ele>
        <time>2014-03-02T10:53:33.000Z</time>
      </trkpt>
      <trkpt lat="45.33588" lon="6.2">
        <ele>2368.8000488281</ele>
        <time>2014-03-02T10:53:34.000Z</time>
      </trkpt>
      <trkpt lat="45.33588" lon="6.2">
        <ele>2368.8000488281</ele>
        <time>2014-03-02T10:53:35.000Z</time>
      </trkpt>
      <trkpt lat="45.33589" lon="6.20001">
        <ele>2369.1999511719</ele>
        <time>2014-03-02T10:53:36.000Z</time>
      </trkpt>
      <trkpt lat="45.33589" lon="6.20001">
        <ele>2369.3999023438</ele>
        <time>2014-03-02T10:53:37.000Z</time>
      </trkpt>
      <trkpt lat="45.33589" lon="6.20001">
        <ele>2369.3999023438</ele>
        <time>2014-03-02T10:53:38.000Z</time>
      </trkpt>
      <trkpt lat="45.33589" lon="6.20002">
        <ele>2369.8000488281</ele>
        <time>2014-03-02T10:53:39.000Z</time>
      </trkpt>
      <trkpt lat="45.3359" lon="6.20003">
        <ele>2370.1999511719</ele>
        <time>2014-03-02T10:53:40.000Z</time>
      </trkpt>
      <trkpt lat="45.33591" lon="6.20004">
        <ele>2370.6000976562</ele>
        <time>2014-03-02T10:53:41.000Z</time>
      </trkpt>
      <trkpt lat="45.33591" lon="6.20005">
        <ele>2371</ele>
        <time>2014-03-02T10:53:42.000Z</time>
      </trkpt>
      <trkpt lat="45.33592" lon="6.20006">
        <ele>2371.3999023438</ele>
        <time>2014-03-02T10:53:43.000Z</time>
      </trkpt>
      <trkpt lat="45.33592" lon="6.20007">
        <ele>2371.8000488281</ele>
        <time>2014-03-02T10:53:44.000Z</time>
      </trkpt>
      <trkpt lat="45.33592" lon="6.20008">
        <ele>2372</ele>
        <time>2014-03-02T10:53:45.000Z</time>
      </trkpt>
      <trkpt lat="45.33593" lon="6.20009">
        <ele>2372.3999023438</ele>
        <time>2014-03-02T10:53:46.000Z</time>
      </trkpt>
      <trkpt lat="45.33593" lon="6.20009">
        <ele>2372.3999023438</ele>
        <time>2014-03-02T10:53:47.000Z</time>
      </trkpt>
      <trkpt lat="45.33593" lon="6.2001">
        <ele>2372.6000976562</ele>
        <time>2014-03-02T10:53:48.000Z</time>
      </trkpt>
      <trkpt lat="45.33593" lon="6.20011">
        <ele>2372.8000488281</ele>
        <time>2014-03-02T10:53:49.000Z</time>
      </trkpt>
      <trkpt lat="45.33593" lon="6.20012">
        <ele>2373</ele>
        <time>2014-03-02T10:53:50.000Z</time>
      </trkpt>
      <trkpt lat="45.33594" lon="6.20013">
        <ele>2373.1999511719</ele>
        <time>2014-03-02T10:53:51.000Z</time>
      </trkpt>
      <trkpt lat="45.33594" lon="6.20013">
        <ele>2373.3999023438</ele>
        <time>2014-03-02T10:53:52.000Z</time>
      </trkpt>
      <trkpt lat="45.33594" lon="6.20014">
        <ele>2373.6000976562</ele>
        <time>2014-03-02T10:53:53.000Z</time>
      </trkpt>
      <trkpt lat="45.33594" lon="6.20014">
        <ele>2373.6000976562</ele>
        <time>2014-03-02T10:53:54.000Z</time>
      </trkpt>
      <trkpt lat="45.33594" lon="6.20015">
        <ele>2374</ele>
        <time>2014-03-02T10:53:55.000Z</time>
      </trkpt>
      <trkpt lat="45.33595" lon="6.20015">
        <ele>2374</ele>
        <time>2014-03-02T10:53:56.000Z</time>
      </trkpt>
      <trkpt lat="45.33595" lon="6.20015">
        <ele>2374</ele>
        <time>2014-03-02T10:53:57.000Z</time>
      </trkpt>
      <trkpt lat="45.33595" lon="6.20016">
        <ele>2374.1999511719</ele>
        <time>2014-03-02T10:53:58.000Z</time>
      </trkpt>
      <trkpt lat="45.33595" lon="6.20016">
        <ele>2374.1999511719</ele>
        <time>2014-03-02T10:53:59.000Z</time>
      </trkpt>
      <trkpt lat="45.33595" lon="6.20017">
        <ele>2374.3999023438</ele>
        <time>2014-03-02T10:54:00.000Z</time>
      </trkpt>
      <trkpt lat="45.33595" lon="6.20017">
        <ele>2374.6000976562</ele>
        <time>2014-03-02T10:54:01.000Z</time>
      </trkpt>
      <trkpt lat="45.33595" lon="6.20017">
        <ele>2374.6000976562</ele>
        <time>2014-03-02T10:54:02.000Z</time>
      </trkpt>
      <trkpt lat="45.33595" lon="6.20018">
        <ele>2374.8000488281</ele>
        <time>2014-03-02T10:54:03.000Z</time>
      </trkpt>
      <trkpt lat="45.33595" lon="6.20018">
        <ele>2374.8000488281</ele>
        <time>2014-03-02T10:54:04.000Z</time>
      </trkpt>
      <trkpt lat="45.33595" lon="6.20018">
        <ele>2374.8000488281</ele>
        <time>2014-03-02T10:54:05.000Z</time>
      </trkpt>
      <trkpt lat="45.33596" lon="6.20018">
        <ele>2375</ele>
        <time>2014-03-02T10:54:06.000Z</time>
      </trkpt>
      <trkpt lat="45.33596" lon="6.20018">
        <ele>2375</ele>
        <time>2014-03-02T10:54:07.000Z</time>
      </trkpt>
      <trkpt lat="45.33596" lon="6.20018">
        <ele>2375</ele>
        <time>2014-03-02T10:54:08.000Z</time>
      </trkpt>
      <trkpt lat="45.33596" lon="6.20018">
        <ele>2375</ele>
        <time>2014-03-02T10:54:09.000Z</time>
      </trkpt>
      <trkpt lat="45.33596" lon="6.20018">
        <ele>2375</ele>
        <time>2014-03-02T10:54:10.000Z</time>
      </trkpt>
      <trkpt lat="45.33596" lon="6.20019">
        <ele>2375.1999511719</ele>
        <time>2014-03-02T10:54:11.000Z</time>
      </trkpt>
      <trkpt lat="45.33596" lon="6.20019">
        <ele>2375.1999511719</ele>
        <time>2014-03-02T10:54:12.000Z</time>
      </trkpt>
      <trkpt lat="45.33596" lon="6.20019">
        <ele>2375.1999511719</ele>
        <time>2014-03-02T10:54:13.000Z</time>
      </trkpt>
      <trkpt lat="45.33596" lon="6.20019">
        <ele>2375.1999511719</ele>
        <time>2014-03-02T10:54:14.000Z</time>
      </trkpt>
      <trkpt lat="45.33596" lon="6.20019">
        <ele>2375.1999511719</ele>
        <time>2014-03-02T10:54:15.000Z</time>
      </trkpt>
      <trkpt lat="45.33596" lon="6.2002">
        <ele>2375.3999023438</ele>
        <time>2014-03-02T10:54:16.000Z</time>
      </trkpt>
      <trkpt lat="45.33596" lon="6.2002">
        <ele>2375.3999023438</ele>
        <time>2014-03-02T10:54:17.000Z</time>
      </trkpt>
      <trkpt lat="45.33596" lon="6.20022">
        <ele>2375.8000488281</ele>
        <time>2014-03-02T10:54:18.000Z</time>
      </trkpt>
      <trkpt lat="45.33596" lon="6.20022">
        <ele>2375.8000488281</ele>
        <time>2014-03-02T10:54:19.000Z</time>
      </trkpt>
      <trkpt lat="45.33596" lon="6.20022">
        <ele>2375.8000488281</ele>
        <time>2014-03-02T10:54:20.000Z</time>
      </trkpt>
      <trkpt lat="45.33597" lon="6.20023">
        <ele>2376</ele>
        <time>2014-03-02T10:54:21.000Z</time>
      </trkpt>
      <trkpt lat="45.33597" lon="6.20023">
        <ele>2376</ele>
        <time>2014-03-02T10:54:22.000Z</time>
      </trkpt>
      <trkpt lat="45.33597" lon="6.20024">
        <ele>2376.1999511719</ele>
        <time>2014-03-02T10:54:23.000Z</time>
      </trkpt>
      <trkpt lat="45.33597" lon="6.20025">
        <ele>2376.3999023438</ele>
        <time>2014-03-02T10:54:24.000Z</time>
      </trkpt>
      <trkpt lat="45.33597" lon="6.20026">
        <ele>2376.6000976562</ele>
        <time>2014-03-02T10:54:25.000Z</time>
      </trkpt>
      <trkpt lat="45.33597" lon="6.20029">
        <ele>2377</ele>
        <time>2014-03-02T10:54:26.000Z</time>
      </trkpt>
      <trkpt lat="45.33597" lon="6.20029">
        <ele>2377</ele>
        <time>2014-03-02T10:54:27.000Z</time>
      </trkpt>
      <trkpt lat="45.33597" lon="6.20031">
        <ele>2377.1999511719</ele>
        <time>2014-03-02T10:54:28.000Z</time>
      </trkpt>
      <trkpt lat="45.33597" lon="6.20031">
        <ele>2377.1999511719</ele>
        <time>2014-03-02T10:54:29.000Z</time>
      </trkpt>
      <trkpt lat="45.33597" lon="6.20031">
        <ele>2377.1999511719</ele>
        <time>2014-03-02T10:54:30.000Z</time>
      </trkpt>
      <trkpt lat="45.33598" lon="6.20032">
        <ele>2377.6000976562</ele>
        <time>2014-03-02T10:54:31.000Z</time>
      </trkpt>
      <trkpt lat="45.33598" lon="6.20032">
        <ele>2377.6000976562</ele>
        <time>2014-03-02T10:54:32.000Z</time>
      </trkpt>
      <trkpt lat="45.33598" lon="6.20034">
        <ele>2378</ele>
        <time>2014-03-02T10:54:33.000Z</time>
      </trkpt>
      <trkpt lat="45.33599" lon="6.20035">
        <ele>2378.3999023438</ele>
        <time>2014-03-02T10:54:34.000Z</time>
      </trkpt>
      <trkpt lat="45.33599" lon="6.20036">
        <ele>2378.8000488281</ele>
        <time>2014-03-02T10:54:35.000Z</time>
      </trkpt>
      <trkpt lat="45.33599" lon="6.20037">
        <ele>2378.8000488281</ele>
        <time>2014-03-02T10:54:36.000Z</time>
      </trkpt>
      <trkpt lat="45.33599" lon="6.20037">
        <ele>2378.8000488281</ele>
        <time>2014-03-02T10:54:37.000Z</time>
      </trkpt>
      <trkpt lat="45.33599" lon="6.20039">
        <ele>2379.1999511719</ele>
        <time>2014-03-02T10:54:38.000Z</time>
      </trkpt>
      <trkpt lat="45.33599" lon="6.20039">
        <ele>2379.1999511719</ele>
        <time>2014-03-02T10:54:39.000Z</time>
      </trkpt>
      <trkpt lat="45.33599" lon="6.2004">
        <ele>2379.1999511719</ele>
        <time>2014-03-02T10:54:40.000Z</time>
      </trkpt>
      <trkpt lat="45.33599" lon="6.20041">
        <ele>2379.3999023438</ele>
        <time>2014-03-02T10:54:41.000Z</time>
      </trkpt>
      <trkpt lat="45.33599" lon="6.20042">
        <ele>2379.1999511719</ele>
        <time>2014-03-02T10:54:42.000Z</time>
      </trkpt>
      <trkpt lat="45.33599" lon="6.20042">
        <ele>2379.1999511719</ele>
        <time>2014-03-02T10:54:43.000Z</time>
      </trkpt>
      <trkpt lat="45.33598" lon="6.20043">
        <ele>2379.1999511719</ele>
        <time>2014-03-02T10:54:44.000Z</time>
      </trkpt>
      <trkpt lat="45.33598" lon="6.20043">
        <ele>2379.1999511719</ele>
        <time>2014-03-02T10:54:45.000Z</time>
      </trkpt>
      <trkpt lat="45.33599" lon="6.20043">
        <ele>2379.1999511719</ele>
        <time>2014-03-02T10:54:46.000Z</time>
      </trkpt>
      <trkpt lat="45.33599" lon="6.20044">
        <ele>2379.3999023438</ele>
        <time>2014-03-02T10:54:47.000Z</time>
      </trkpt>
      <trkpt lat="45.33598" lon="6.20045">
        <ele>2379.3999023438</ele>
        <time>2014-03-02T10:54:48.000Z</time>
      </trkpt>
      <trkpt lat="45.33598" lon="6.20046">
        <ele>2379.3999023438</ele>
        <time>2014-03-02T10:54:49.000Z</time>
      </trkpt>
      <trkpt lat="45.33598" lon="6.20047">
        <ele>2379.3999023438</ele>
        <time>2014-03-02T10:54:50.000Z</time>
      </trkpt>
      <trkpt lat="45.33598" lon="6.20047">
        <ele>2379.3999023438</ele>
        <time>2014-03-02T10:54:51.000Z</time>
      </trkpt>
      <trkpt lat="45.33598" lon="6.20047">
        <ele>2379.3999023438</ele>
        <time>2014-03-02T10:54:52.000Z</time>
      </trkpt>
      <trkpt lat="45.33598" lon="6.20047">
        <ele>2379.3999023438</ele>
        <time>2014-03-02T10:54:53.000Z</time>
      </trkpt>
      <trkpt lat="45.33598" lon="6.20047">
        <ele>2379.3999023438</ele>
        <time>2014-03-02T10:54:54.000Z</time>
      </trkpt>
      <trkpt lat="45.33598" lon="6.20047">
        <ele>2379.3999023438</ele>
        <time>2014-03-02T10:54:55.000Z</time>
      </trkpt>
      <trkpt lat="45.33598" lon="6.20047">
        <ele>2379.3999023438</ele>
        <time>2014-03-02T10:54:56.000Z</time>
      </trkpt>
      <trkpt lat="45.33598" lon="6.20047">
        <ele>2379.3999023438</ele>
        <time>2014-03-02T10:54:57.000Z</time>
      </trkpt>
      <trkpt lat="45.33598" lon="6.20048">
        <ele>2379.6000976562</ele>
        <time>2014-03-02T10:54:58.000Z</time>
      </trkpt>
      <trkpt lat="45.33599" lon="6.20049">
        <ele>2380</ele>
        <time>2014-03-02T10:54:59.000Z</time>
      </trkpt>
      <trkpt lat="45.336" lon="6.20048">
        <ele>2380.3999023438</ele>
        <time>2014-03-02T10:55:00.000Z</time>
      </trkpt>
      <trkpt lat="45.336" lon="6.20049">
        <ele>2380.8000488281</ele>
        <time>2014-03-02T10:55:01.000Z</time>
      </trkpt>
      <trkpt lat="45.33601" lon="6.20048">
        <ele>2381.1999511719</ele>
        <time>2014-03-02T10:55:02.000Z</time>
      </trkpt>
      <trkpt lat="45.33602" lon="6.20048">
        <ele>2381.3999023438</ele>
        <time>2014-03-02T10:55:03.000Z</time>
      </trkpt>
      <trkpt lat="45.33602" lon="6.20048">
        <ele>2381.8000488281</ele>
        <time>2014-03-02T10:55:04.000Z</time>
      </trkpt>
      <trkpt lat="45.33603" lon="6.20048">
        <ele>2382</ele>
        <time>2014-03-02T10:55:05.000Z</time>
      </trkpt>
      <trkpt lat="45.33603" lon="6.20048">
        <ele>2382.1999511719</ele>
        <time>2014-03-02T10:55:06.000Z</time>
      </trkpt>
      <trkpt lat="45.33603" lon="6.20048">
        <ele>2382.1999511719</ele>
        <time>2014-03-02T10:55:07.000Z</time>
      </trkpt>
      <trkpt lat="45.33604" lon="6.20047">
        <ele>2382.6000976562</ele>
        <time>2014-03-02T10:55:08.000Z</time>
      </trkpt>
      <trkpt lat="45.33604" lon="6.20047">
        <ele>2382.6000976562</ele>
        <time>2014-03-02T10:55:09.000Z</time>
      </trkpt>
      <trkpt lat="45.33604" lon="6.20047">
        <ele>2383</ele>
        <time>2014-03-02T10:55:10.000Z</time>
      </trkpt>
      <trkpt lat="45.33605" lon="6.20046">
        <ele>2383</ele>
        <time>2014-03-02T10:55:11.000Z</time>
      </trkpt>
      <trkpt lat="45.33605" lon="6.20046">
        <ele>2383</ele>
        <time>2014-03-02T10:55:12.000Z</time>
      </trkpt>
      <trkpt lat="45.33605" lon="6.20046">
        <ele>2383.3999023438</ele>
        <time>2014-03-02T10:55:14.000Z</time>
      </trkpt>
      <trkpt lat="45.33605" lon="6.20046">
        <ele>2383.3999023438</ele>
        <time>2014-03-02T10:55:15.000Z</time>
      </trkpt>
      <trkpt lat="45.33605" lon="6.20045">
        <ele>2383.3999023438</ele>
        <time>2014-03-02T10:55:16.000Z</time>
      </trkpt>
      <trkpt lat="45.33605" lon="6.20045">
        <ele>2383.3999023438</ele>
        <time>2014-03-02T10:55:17.000Z</time>
      </trkpt>
      <trkpt lat="45.33605" lon="6.20045">
        <ele>2383.3999023438</ele>
        <time>2014-03-02T10:55:18.000Z</time>
      </trkpt>
      <trkpt lat="45.33606" lon="6.20045">
        <ele>2383.6000976562</ele>
        <time>2014-03-02T10:55:19.000Z</time>
      </trkpt>
      <trkpt lat="45.33606" lon="6.20045">
        <ele>2383.6000976562</ele>
        <time>2014-03-02T10:55:20.000Z</time>
      </trkpt>
      <trkpt lat="45.33607" lon="6.20044">
        <ele>2383.8000488281</ele>
        <time>2014-03-02T10:55:21.000Z</time>
      </trkpt>
      <trkpt lat="45.33607" lon="6.20043">
        <ele>2384</ele>
        <time>2014-03-02T10:55:22.000Z</time>
      </trkpt>
      <trkpt lat="45.33607" lon="6.20043">
        <ele>2384</ele>
        <time>2014-03-02T10:55:23.000Z</time>
      </trkpt>
      <trkpt lat="45.33608" lon="6.20042">
        <ele>2384.1999511719</ele>
        <time>2014-03-02T10:55:24.000Z</time>
      </trkpt>
      <trkpt lat="45.33608" lon="6.20041">
        <ele>2384.1999511719</ele>
        <time>2014-03-02T10:55:25.000Z</time>
      </trkpt>
      <trkpt lat="45.33608" lon="6.20041">
        <ele>2384.1999511719</ele>
        <time>2014-03-02T10:55:26.000Z</time>
      </trkpt>
      <trkpt lat="45.33608" lon="6.20041">
        <ele>2384.3999023438</ele>
        <time>2014-03-02T10:55:27.000Z</time>
      </trkpt>
      <trkpt lat="45.33609" lon="6.2004">
        <ele>2384.3999023438</ele>
        <time>2014-03-02T10:55:28.000Z</time>
      </trkpt>
      <trkpt lat="45.33609" lon="6.2004">
        <ele>2384.3999023438</ele>
        <time>2014-03-02T10:55:29.000Z</time>
      </trkpt>
      <trkpt lat="45.33609" lon="6.2004">
        <ele>2384.3999023438</ele>
        <time>2014-03-02T10:55:30.000Z</time>
      </trkpt>
      <trkpt lat="45.33609" lon="6.2004">
        <ele>2384.3999023438</ele>
        <time>2014-03-02T10:55:31.000Z</time>
      </trkpt>
      <trkpt lat="45.33609" lon="6.20039">
        <ele>2384.6000976562</ele>
        <time>2014-03-02T10:55:32.000Z</time>
      </trkpt>
      <trkpt lat="45.3361" lon="6.20038">
        <ele>2384.8000488281</ele>
        <time>2014-03-02T10:55:33.000Z</time>
      </trkpt>
      <trkpt lat="45.3361" lon="6.20038">
        <ele>2384.8000488281</ele>
        <time>2014-03-02T10:55:34.000Z</time>
      </trkpt>
      <trkpt lat="45.3361" lon="6.20038">
        <ele>2385</ele>
        <time>2014-03-02T10:55:35.000Z</time>
      </trkpt>
      <trkpt lat="45.3361" lon="6.20038">
        <ele>2385</ele>
        <time>2014-03-02T10:55:36.000Z</time>
      </trkpt>
      <trkpt lat="45.3361" lon="6.20038">
        <ele>2385</ele>
        <time>2014-03-02T10:55:37.000Z</time>
      </trkpt>
      <trkpt lat="45.3361" lon="6.20038">
        <ele>2385</ele>
        <time>2014-03-02T10:55:38.000Z</time>
      </trkpt>
      <trkpt lat="45.3361" lon="6.20038">
        <ele>2385</ele>
        <time>2014-03-02T10:55:39.000Z</time>
      </trkpt>
      <trkpt lat="45.33611" lon="6.20037">
        <ele>2385.1999511719</ele>
        <time>2014-03-02T10:55:40.000Z</time>
      </trkpt>
      <trkpt lat="45.33611" lon="6.20037">
        <ele>2385.1999511719</ele>
        <time>2014-03-02T10:55:41.000Z</time>
      </trkpt>
      <trkpt lat="45.33611" lon="6.20037">
        <ele>2385.1999511719</ele>
        <time>2014-03-02T10:55:42.000Z</time>
      </trkpt>
      <trkpt lat="45.33611" lon="6.20037">
        <ele>2385.1999511719</ele>
        <time>2014-03-02T10:55:43.000Z</time>
      </trkpt>
      <trkpt lat="45.33611" lon="6.20037">
        <ele>2385.1999511719</ele>
        <time>2014-03-02T10:55:44.000Z</time>
      </trkpt>
      <trkpt lat="45.33611" lon="6.20037">
        <ele>2385.1999511719</ele>
        <time>2014-03-02T10:55:45.000Z</time>
      </trkpt>
      <trkpt lat="45.33611" lon="6.20037">
        <ele>2385.1999511719</ele>
        <time>2014-03-02T10:55:46.000Z</time>
      </trkpt>
      <trkpt lat="45.33611" lon="6.20037">
        <ele>2385.1999511719</ele>
        <time>2014-03-02T10:55:47.000Z</time>
      </trkpt>
      <trkpt lat="45.33611" lon="6.20037">
        <ele>2385.1999511719</ele>
        <time>2014-03-02T10:55:48.000Z</time>
      </trkpt>
      <trkpt lat="45.33611" lon="6.20037">
        <ele>2385.1999511719</ele>
        <time>2014-03-02T10:55:49.000Z</time>
      </trkpt>
      <trkpt lat="45.33611" lon="6.20037">
        <ele>2385.1999511719</ele>
        <time>2014-03-02T10:55:50.000Z</time>
      </trkpt>
      <trkpt lat="45.33611" lon="6.20038">
        <ele>2385.6000976562</ele>
        <time>2014-03-02T10:55:51.000Z</time>
      </trkpt>
      <trkpt lat="45.33611" lon="6.20038">
        <ele>2385.8000488281</ele>
        <time>2014-03-02T10:55:52.000Z</time>
      </trkpt>
      <trkpt lat="45.33612" lon="6.20039">
        <ele>2386</ele>
        <time>2014-03-02T10:55:53.000Z</time>
      </trkpt>
      <trkpt lat="45.33612" lon="6.20039">
        <ele>2386.3999023438</ele>
        <time>2014-03-02T10:55:54.000Z</time>
      </trkpt>
      <trkpt lat="45.33612" lon="6.2004">
        <ele>2386.3999023438</ele>
        <time>2014-03-02T10:55:55.000Z</time>
      </trkpt>
      <trkpt lat="45.33612" lon="6.20042">
        <ele>2386.6000976562</ele>
        <time>2014-03-02T10:55:57.000Z</time>
      </trkpt>
      <trkpt lat="45.33612" lon="6.20043">
        <ele>2386.6000976562</ele>
        <time>2014-03-02T10:55:58.000Z</time>
      </trkpt>
      <trkpt lat="45.33612" lon="6.20044">
        <ele>2386.8000488281</ele>
        <time>2014-03-02T10:55:59.000Z</time>
      </trkpt>
      <trkpt lat="45.33612" lon="6.20044">
        <ele>2387</ele>
        <time>2014-03-02T10:56:00.000Z</time>
      </trkpt>
      <trkpt lat="45.33612" lon="6.20045">
        <ele>2387.1999511719</ele>
        <time>2014-03-02T10:56:01.000Z</time>
      </trkpt>
      <trkpt lat="45.33612" lon="6.20045">
        <ele>2387.1999511719</ele>
        <time>2014-03-02T10:56:02.000Z</time>
      </trkpt>
      <trkpt lat="45.33613" lon="6.20046">
        <ele>2387.3999023438</ele>
        <time>2014-03-02T10:56:03.000Z</time>
      </trkpt>
      <trkpt lat="45.33613" lon="6.20046">
        <ele>2387.3999023438</ele>
        <time>2014-03-02T10:56:04.000Z</time>
      </trkpt>
      <trkpt lat="45.33613" lon="6.20046">
        <ele>2387.3999023438</ele>
        <time>2014-03-02T10:56:05.000Z</time>
      </trkpt>
      <trkpt lat="45.33613" lon="6.20047">
        <ele>2387.6000976562</ele>
        <time>2014-03-02T10:56:06.000Z</time>
      </trkpt>
      <trkpt lat="45.33613" lon="6.20047">
        <ele>2387.6000976562</ele>
        <time>2014-03-02T10:56:07.000Z</time>
      </trkpt>
      <trkpt lat="45.33613" lon="6.20048">
        <ele>2388</ele>
        <time>2014-03-02T10:56:08.000Z</time>
      </trkpt>
      <trkpt lat="45.33613" lon="6.2005">
        <ele>2388</ele>
        <time>2014-03-02T10:56:09.000Z</time>
      </trkpt>
      <trkpt lat="45.33613" lon="6.2005">
        <ele>2388</ele>
        <time>2014-03-02T10:56:10.000Z</time>
      </trkpt>
      <trkpt lat="45.33613" lon="6.2005">
        <ele>2387.8000488281</ele>
        <time>2014-03-02T10:56:11.000Z</time>
      </trkpt>
      <trkpt lat="45.33613" lon="6.2005">
        <ele>2387.8000488281</ele>
        <time>2014-03-02T10:56:12.000Z</time>
      </trkpt>
      <trkpt lat="45.33613" lon="6.2005">
        <ele>2387.8000488281</ele>
        <time>2014-03-02T10:56:13.000Z</time>
      </trkpt>
      <trkpt lat="45.33613" lon="6.2005">
        <ele>2387.8000488281</ele>
        <time>2014-03-02T10:56:14.000Z</time>
      </trkpt>
      <trkpt lat="45.33613" lon="6.2005">
        <ele>2387.8000488281</ele>
        <time>2014-03-02T10:56:15.000Z</time>
      </trkpt>
      <trkpt lat="45.33613" lon="6.2005">
        <ele>2387.8000488281</ele>
        <time>2014-03-02T10:56:16.000Z</time>
      </trkpt>
      <trkpt lat="45.33613" lon="6.2005">
        <ele>2387.8000488281</ele>
        <time>2014-03-02T10:56:17.000Z</time>
      </trkpt>
      <trkpt lat="45.33613" lon="6.2005">
        <ele>2387.8000488281</ele>
        <time>2014-03-02T10:56:18.000Z</time>
      </trkpt>
      <trkpt lat="45.33613" lon="6.2005">
        <ele>2387.8000488281</ele>
        <time>2014-03-02T10:56:19.000Z</time>
      </trkpt>
      <trkpt lat="45.33613" lon="6.2005">
        <ele>2387.8000488281</ele>
        <time>2014-03-02T10:56:20.000Z</time>
      </trkpt>
      <trkpt lat="45.33613" lon="6.2005">
        <ele>2387.8000488281</ele>
        <time>2014-03-02T10:56:21.000Z</time>
      </trkpt>
      <trkpt lat="45.33613" lon="6.2005">
        <ele>2387.8000488281</ele>
        <time>2014-03-02T10:56:22.000Z</time>
      </trkpt>
      <trkpt lat="45.33613" lon="6.2005">
        <ele>2387.8000488281</ele>
        <time>2014-03-02T10:56:23.000Z</time>
      </trkpt>
      <trkpt lat="45.33613" lon="6.2005">
        <ele>2387.8000488281</ele>
        <time>2014-03-02T10:56:25.000Z</time>
      </trkpt>
      <trkpt lat="45.33613" lon="6.2005">
        <ele>2387.8000488281</ele>
        <time>2014-03-02T10:56:26.000Z</time>
      </trkpt>
      <trkpt lat="45.33613" lon="6.2005">
        <ele>2387.8000488281</ele>
        <time>2014-03-02T10:56:27.000Z</time>
      </trkpt>
      <trkpt lat="45.33613" lon="6.20051">
        <ele>2388</ele>
        <time>2014-03-02T10:56:29.000Z</time>
      </trkpt>
      <trkpt lat="45.33613" lon="6.20052">
        <ele>2388</ele>
        <time>2014-03-02T10:56:30.000Z</time>
      </trkpt>
      <trkpt lat="45.33613" lon="6.20052">
        <ele>2388</ele>
        <time>2014-03-02T10:56:31.000Z</time>
      </trkpt>
      <trkpt lat="45.33612" lon="6.20053">
        <ele>2388</ele>
        <time>2014-03-02T10:56:32.000Z</time>
      </trkpt>
      <trkpt lat="45.33612" lon="6.20053">
        <ele>2388</ele>
        <time>2014-03-02T10:56:33.000Z</time>
      </trkpt>
      <trkpt lat="45.33612" lon="6.20054">
        <ele>2388</ele>
        <time>2014-03-02T10:56:34.000Z</time>
      </trkpt>
      <trkpt lat="45.33612" lon="6.20054">
        <ele>2388</ele>
        <time>2014-03-02T10:56:35.000Z</time>
      </trkpt>
      <trkpt lat="45.33612" lon="6.20055">
        <ele>2388.1999511719</ele>
        <time>2014-03-02T10:56:36.000Z</time>
      </trkpt>
      <trkpt lat="45.33612" lon="6.20056">
        <ele>2388.1999511719</ele>
        <time>2014-03-02T10:56:37.000Z</time>
      </trkpt>
      <trkpt lat="45.33612" lon="6.20057">
        <ele>2388.1999511719</ele>
        <time>2014-03-02T10:56:38.000Z</time>
      </trkpt>
      <trkpt lat="45.33612" lon="6.20057">
        <ele>2388</ele>
        <time>2014-03-02T10:56:39.000Z</time>
      </trkpt>
      <trkpt lat="45.33611" lon="6.20058">
        <ele>2388</ele>
        <time>2014-03-02T10:56:40.000Z</time>
      </trkpt>
      <trkpt lat="45.33611" lon="6.2006">
        <ele>2388</ele>
        <time>2014-03-02T10:56:41.000Z</time>
      </trkpt>
      <trkpt lat="45.33611" lon="6.2006">
        <ele>2388</ele>
        <time>2014-03-02T10:56:42.000Z</time>
      </trkpt>
      <trkpt lat="45.33611" lon="6.2006">
        <ele>2388</ele>
        <time>2014-03-02T10:56:43.000Z</time>
      </trkpt>
      <trkpt lat="45.33611" lon="6.2006">
        <ele>2388</ele>
        <time>2014-03-02T10:56:44.000Z</time>
      </trkpt>
      <trkpt lat="45.33611" lon="6.2006">
        <ele>2388</ele>
        <time>2014-03-02T10:56:45.000Z</time>
      </trkpt>
      <trkpt lat="45.33611" lon="6.2006">
        <ele>2388</ele>
        <time>2014-03-02T10:56:46.000Z</time>
      </trkpt>
      <trkpt lat="45.33611" lon="6.2006">
        <ele>2388</ele>
        <time>2014-03-02T10:56:47.000Z</time>
      </trkpt>
      <trkpt lat="45.33611" lon="6.2006">
        <ele>2388</ele>
        <time>2014-03-02T10:56:48.000Z</time>
      </trkpt>
      <trkpt lat="45.33611" lon="6.2006">
        <ele>2388</ele>
        <time>2014-03-02T10:56:49.000Z</time>
      </trkpt>
      <trkpt lat="45.33611" lon="6.2006">
        <ele>2388</ele>
        <time>2014-03-02T10:56:50.000Z</time>
      </trkpt>
      <trkpt lat="45.33611" lon="6.2006">
        <ele>2388</ele>
        <time>2014-03-02T10:56:51.000Z</time>
      </trkpt>
      <trkpt lat="45.33611" lon="6.2006">
        <ele>2388</ele>
        <time>2014-03-02T10:56:52.000Z</time>
      </trkpt>
      <trkpt lat="45.33611" lon="6.2006">
        <ele>2388</ele>
        <time>2014-03-02T10:56:53.000Z</time>
      </trkpt>
      <trkpt lat="45.33611" lon="6.2006">
        <ele>2388</ele>
        <time>2014-03-02T10:56:54.000Z</time>
      </trkpt>
      <trkpt lat="45.33612" lon="6.20059">
        <ele>2388.6000976562</ele>
        <time>2014-03-02T10:56:55.000Z</time>
      </trkpt>
      <trkpt lat="45.33612" lon="6.20059">
        <ele>2388.6000976562</ele>
        <time>2014-03-02T10:56:56.000Z</time>
      </trkpt>
      <trkpt lat="45.33613" lon="6.20058">
        <ele>2389.1999511719</ele>
        <time>2014-03-02T10:56:57.000Z</time>
      </trkpt>
      <trkpt lat="45.33613" lon="6.20058">
        <ele>2389.1999511719</ele>
        <time>2014-03-02T10:56:58.000Z</time>
      </trkpt>
      <trkpt lat="45.33614" lon="6.20058">
        <ele>2389.6000976562</ele>
        <time>2014-03-02T10:56:59.000Z</time>
      </trkpt>
      <trkpt lat="45.33615" lon="6.20057">
        <ele>2390</ele>
        <time>2014-03-02T10:57:00.000Z</time>
      </trkpt>
      <trkpt lat="45.33616" lon="6.20057">
        <ele>2390.3999023438</ele>
        <time>2014-03-02T10:57:01.000Z</time>
      </trkpt>
      <trkpt lat="45.33617" lon="6.20056">
        <ele>2390.6000976562</ele>
        <time>2014-03-02T10:57:02.000Z</time>
      </trkpt>
      <trkpt lat="45.33617" lon="6.20056">
        <ele>2390.6000976562</ele>
        <time>2014-03-02T10:57:03.000Z</time>
      </trkpt>
      <trkpt lat="45.33617" lon="6.20056">
        <ele>2391</ele>
        <time>2014-03-02T10:57:04.000Z</time>
      </trkpt>
      <trkpt lat="45.33617" lon="6.20056">
        <ele>2391</ele>
        <time>2014-03-02T10:57:05.000Z</time>
      </trkpt>
      <trkpt lat="45.33618" lon="6.20056">
        <ele>2391.1999511719</ele>
        <time>2014-03-02T10:57:06.000Z</time>
      </trkpt>
      <trkpt lat="45.33619" lon="6.20055">
        <ele>2391.8000488281</ele>
        <time>2014-03-02T10:57:07.000Z</time>
      </trkpt>
      <trkpt lat="45.3362" lon="6.20055">
        <ele>2392.1999511719</ele>
        <time>2014-03-02T10:57:08.000Z</time>
      </trkpt>
      <trkpt lat="45.33621" lon="6.20054">
        <ele>2392.6000976562</ele>
        <time>2014-03-02T10:57:09.000Z</time>
      </trkpt>
      <trkpt lat="45.33621" lon="6.20054">
        <ele>2393</ele>
        <time>2014-03-02T10:57:10.000Z</time>
      </trkpt>
      <trkpt lat="45.33622" lon="6.20053">
        <ele>2393</ele>
        <time>2014-03-02T10:57:11.000Z</time>
      </trkpt>
      <trkpt lat="45.33622" lon="6.20053">
        <ele>2393.1999511719</ele>
        <time>2014-03-02T10:57:12.000Z</time>
      </trkpt>
      <trkpt lat="45.33622" lon="6.20052">
        <ele>2393.3999023438</ele>
        <time>2014-03-02T10:57:13.000Z</time>
      </trkpt>
      <trkpt lat="45.33623" lon="6.20052">
        <ele>2393.3999023438</ele>
        <time>2014-03-02T10:57:14.000Z</time>
      </trkpt>
      <trkpt lat="45.33623" lon="6.20051">
        <ele>2393.6000976562</ele>
        <time>2014-03-02T10:57:15.000Z</time>
      </trkpt>
      <trkpt lat="45.33623" lon="6.2005">
        <ele>2393.6000976562</ele>
        <time>2014-03-02T10:57:16.000Z</time>
      </trkpt>
      <trkpt lat="45.33623" lon="6.2005">
        <ele>2393.6000976562</ele>
        <time>2014-03-02T10:57:17.000Z</time>
      </trkpt>
      <trkpt lat="45.33624" lon="6.2005">
        <ele>2393.8000488281</ele>
        <time>2014-03-02T10:57:18.000Z</time>
      </trkpt>
      <trkpt lat="45.33624" lon="6.20049">
        <ele>2393.8000488281</ele>
        <time>2014-03-02T10:57:19.000Z</time>
      </trkpt>
      <trkpt lat="45.33624" lon="6.20048">
        <ele>2394</ele>
        <time>2014-03-02T10:57:20.000Z</time>
      </trkpt>
      <trkpt lat="45.33625" lon="6.20048">
        <ele>2394.1999511719</ele>
        <time>2014-03-02T10:57:21.000Z</time>
      </trkpt>
      <trkpt lat="45.33625" lon="6.20047">
        <ele>2394.3999023438</ele>
        <time>2014-03-02T10:57:22.000Z</time>
      </trkpt>
      <trkpt lat="45.33625" lon="6.20047">
        <ele>2394.6000976562</ele>
        <time>2014-03-02T10:57:23.000Z</time>
      </trkpt>
      <trkpt lat="45.33625" lon="6.20047">
        <ele>2394.6000976562</ele>
        <time>2014-03-02T10:57:24.000Z</time>
      </trkpt>
      <trkpt lat="45.33626" lon="6.20046">
        <ele>2394.6000976562</ele>
        <time>2014-03-02T10:57:25.000Z</time>
      </trkpt>
      <trkpt lat="45.33626" lon="6.20046">
        <ele>2394.8000488281</ele>
        <time>2014-03-02T10:57:26.000Z</time>
      </trkpt>
      <trkpt lat="45.33626" lon="6.20046">
        <ele>2394.8000488281</ele>
        <time>2014-03-02T10:57:27.000Z</time>
      </trkpt>
      <trkpt lat="45.33626" lon="6.20045">
        <ele>2394.8000488281</ele>
        <time>2014-03-02T10:57:28.000Z</time>
      </trkpt>
      <trkpt lat="45.33626" lon="6.20045">
        <ele>2394.8000488281</ele>
        <time>2014-03-02T10:57:29.000Z</time>
      </trkpt>
      <trkpt lat="45.33627" lon="6.20044">
        <ele>2395</ele>
        <time>2014-03-02T10:57:30.000Z</time>
      </trkpt>
      <trkpt lat="45.33628" lon="6.20043">
        <ele>2395.3999023438</ele>
        <time>2014-03-02T10:57:31.000Z</time>
      </trkpt>
      <trkpt lat="45.33629" lon="6.20042">
        <ele>2395.8000488281</ele>
        <time>2014-03-02T10:57:32.000Z</time>
      </trkpt>
      <trkpt lat="45.33629" lon="6.20042">
        <ele>2396</ele>
        <time>2014-03-02T10:57:33.000Z</time>
      </trkpt>
      <trkpt lat="45.33629" lon="6.20042">
        <ele>2396</ele>
        <time>2014-03-02T10:57:34.000Z</time>
      </trkpt>
      <trkpt lat="45.3363" lon="6.20041">
        <ele>2396.1999511719</ele>
        <time>2014-03-02T10:57:35.000Z</time>
      </trkpt>
      <trkpt lat="45.3363" lon="6.20041">
        <ele>2396.1999511719</ele>
        <time>2014-03-02T10:57:36.000Z</time>
      </trkpt>
      <trkpt lat="45.3363" lon="6.2004">
        <ele>2396.3999023438</ele>
        <time>2014-03-02T10:57:37.000Z</time>
      </trkpt>
      <trkpt lat="45.33631" lon="6.2004">
        <ele>2396.6000976562</ele>
        <time>2014-03-02T10:57:38.000Z</time>
      </trkpt>
      <trkpt lat="45.33631" lon="6.2004">
        <ele>2396.6000976562</ele>
        <time>2014-03-02T10:57:39.000Z</time>
      </trkpt>
      <trkpt lat="45.33631" lon="6.20039">
        <ele>2396.6000976562</ele>
        <time>2014-03-02T10:57:40.000Z</time>
      </trkpt>
      <trkpt lat="45.33631" lon="6.20039">
        <ele>2396.6000976562</ele>
        <time>2014-03-02T10:57:41.000Z</time>
      </trkpt>
      <trkpt lat="45.33632" lon="6.20039">
        <ele>2396.3999023438</ele>
        <time>2014-03-02T10:57:42.000Z</time>
      </trkpt>
      <trkpt lat="45.33632" lon="6.20038">
        <ele>2396.3999023438</ele>
        <time>2014-03-02T10:57:43.000Z</time>
      </trkpt>
      <trkpt lat="45.33632" lon="6.20038">
        <ele>2396.3999023438</ele>
        <time>2014-03-02T10:57:44.000Z</time>
      </trkpt>
      <trkpt lat="45.33632" lon="6.20038">
        <ele>2396.3999023438</ele>
        <time>2014-03-02T10:57:45.000Z</time>
      </trkpt>
      <trkpt lat="45.33632" lon="6.20038">
        <ele>2396.3999023438</ele>
        <time>2014-03-02T10:57:46.000Z</time>
      </trkpt>
      <trkpt lat="45.33632" lon="6.20038">
        <ele>2396.3999023438</ele>
        <time>2014-03-02T10:57:47.000Z</time>
      </trkpt>
      <trkpt lat="45.33632" lon="6.20038">
        <ele>2396.3999023438</ele>
        <time>2014-03-02T10:57:48.000Z</time>
      </trkpt>
      <trkpt lat="45.33632" lon="6.20038">
        <ele>2396.3999023438</ele>
        <time>2014-03-02T10:57:49.000Z</time>
      </trkpt>
      <trkpt lat="45.33632" lon="6.20037">
        <ele>2396.3999023438</ele>
        <time>2014-03-02T10:57:50.000Z</time>
      </trkpt>
      <trkpt lat="45.33632" lon="6.20037">
        <ele>2396.3999023438</ele>
        <time>2014-03-02T10:57:51.000Z</time>
      </trkpt>
      <trkpt lat="45.33632" lon="6.20037">
        <ele>2396.3999023438</ele>
        <time>2014-03-02T10:57:52.000Z</time>
      </trkpt>
      <trkpt lat="45.33632" lon="6.20037">
        <ele>2396.3999023438</ele>
        <time>2014-03-02T10:57:53.000Z</time>
      </trkpt>
      <trkpt lat="45.33632" lon="6.20037">
        <ele>2396.3999023438</ele>
        <time>2014-03-02T10:57:54.000Z</time>
      </trkpt>
      <trkpt lat="45.33632" lon="6.20037">
        <ele>2396.3999023438</ele>
        <time>2014-03-02T10:57:55.000Z</time>
      </trkpt>
      <trkpt lat="45.33632" lon="6.20037">
        <ele>2396.3999023438</ele>
        <time>2014-03-02T10:57:56.000Z</time>
      </trkpt>
      <trkpt lat="45.33632" lon="6.20037">
        <ele>2396.3999023438</ele>
        <time>2014-03-02T10:57:57.000Z</time>
      </trkpt>
      <trkpt lat="45.33632" lon="6.20037">
        <ele>2396.3999023438</ele>
        <time>2014-03-02T10:57:58.000Z</time>
      </trkpt>
      <trkpt lat="45.33632" lon="6.20037">
        <ele>2396.3999023438</ele>
        <time>2014-03-02T10:57:59.000Z</time>
      </trkpt>
      <trkpt lat="45.33632" lon="6.20037">
        <ele>2396.3999023438</ele>
        <time>2014-03-02T10:58:00.000Z</time>
      </trkpt>
      <trkpt lat="45.33632" lon="6.20037">
        <ele>2396.3999023438</ele>
        <time>2014-03-02T10:58:01.000Z</time>
      </trkpt>
      <trkpt lat="45.33632" lon="6.20037">
        <ele>2396.3999023438</ele>
        <time>2014-03-02T10:58:02.000Z</time>
      </trkpt>
      <trkpt lat="45.33632" lon="6.20037">
        <ele>2396.3999023438</ele>
        <time>2014-03-02T10:58:03.000Z</time>
      </trkpt>
      <trkpt lat="45.33632" lon="6.20037">
        <ele>2396.3999023438</ele>
        <time>2014-03-02T10:58:04.000Z</time>
      </trkpt>
      <trkpt lat="45.33632" lon="6.20037">
        <ele>2396.3999023438</ele>
        <time>2014-03-02T10:58:05.000Z</time>
      </trkpt>
      <trkpt lat="45.33632" lon="6.20037">
        <ele>2396.3999023438</ele>
        <time>2014-03-02T10:58:06.000Z</time>
      </trkpt>
      <trkpt lat="45.33632" lon="6.20037">
        <ele>2396.3999023438</ele>
        <time>2014-03-02T10:58:07.000Z</time>
      </trkpt>
      <trkpt lat="45.33632" lon="6.20037">
        <ele>2396.3999023438</ele>
        <time>2014-03-02T10:58:08.000Z</time>
      </trkpt>
      <trkpt lat="45.33632" lon="6.20037">
        <ele>2396.3999023438</ele>
        <time>2014-03-02T10:58:09.000Z</time>
      </trkpt>
      <trkpt lat="45.33633" lon="6.20038">
        <ele>2396.3999023438</ele>
        <time>2014-03-02T10:58:10.000Z</time>
      </trkpt>
      <trkpt lat="45.33633" lon="6.20038">
        <ele>2396.3999023438</ele>
        <time>2014-03-02T10:58:11.000Z</time>
      </trkpt>
      <trkpt lat="45.33633" lon="6.20038">
        <ele>2396.3999023438</ele>
        <time>2014-03-02T10:58:12.000Z</time>
      </trkpt>
      <trkpt lat="45.33633" lon="6.20038">
        <ele>2396.3999023438</ele>
        <time>2014-03-02T10:58:13.000Z</time>
      </trkpt>
      <trkpt lat="45.33633" lon="6.20038">
        <ele>2396.3999023438</ele>
        <time>2014-03-02T10:58:14.000Z</time>
      </trkpt>
      <trkpt lat="45.33633" lon="6.20038">
        <ele>2396.3999023438</ele>
        <time>2014-03-02T10:58:15.000Z</time>
      </trkpt>
      <trkpt lat="45.33633" lon="6.20039">
        <ele>2396.3999023438</ele>
        <time>2014-03-02T10:58:16.000Z</time>
      </trkpt>
      <trkpt lat="45.33634" lon="6.2004">
        <ele>2396.6000976562</ele>
        <time>2014-03-02T10:58:17.000Z</time>
      </trkpt>
      <trkpt lat="45.33634" lon="6.2004">
        <ele>2396.6000976562</ele>
        <time>2014-03-02T10:58:18.000Z</time>
      </trkpt>
      <trkpt lat="45.33634" lon="6.20041">
        <ele>2396.6000976562</ele>
        <time>2014-03-02T10:58:19.000Z</time>
      </trkpt>
      <trkpt lat="45.33634" lon="6.20042">
        <ele>2396.8000488281</ele>
        <time>2014-03-02T10:58:20.000Z</time>
      </trkpt>
      <trkpt lat="45.33634" lon="6.20044">
        <ele>2397</ele>
        <time>2014-03-02T10:58:21.000Z</time>
      </trkpt>
      <trkpt lat="45.33635" lon="6.20045">
        <ele>2397</ele>
        <time>2014-03-02T10:58:22.000Z</time>
      </trkpt>
      <trkpt lat="45.33635" lon="6.20045">
        <ele>2397</ele>
        <time>2014-03-02T10:58:23.000Z</time>
      </trkpt>
      <trkpt lat="45.33635" lon="6.20046">
        <ele>2397.1999511719</ele>
        <time>2014-03-02T10:58:24.000Z</time>
      </trkpt>
      <trkpt lat="45.33635" lon="6.20046">
        <ele>2397.1999511719</ele>
        <time>2014-03-02T10:58:25.000Z</time>
      </trkpt>
      <trkpt lat="45.33635" lon="6.20047">
        <ele>2397.3999023438</ele>
        <time>2014-03-02T10:58:26.000Z</time>
      </trkpt>
      <trkpt lat="45.33635" lon="6.20048">
        <ele>2397.3999023438</ele>
        <time>2014-03-02T10:58:27.000Z</time>
      </trkpt>
      <trkpt lat="45.33635" lon="6.20048">
        <ele>2397.3999023438</ele>
        <time>2014-03-02T10:58:28.000Z</time>
      </trkpt>
      <trkpt lat="45.33635" lon="6.20049">
        <ele>2397.6000976562</ele>
        <time>2014-03-02T10:58:29.000Z</time>
      </trkpt>
      <trkpt lat="45.33635" lon="6.2005">
        <ele>2397.6000976562</ele>
        <time>2014-03-02T10:58:30.000Z</time>
      </trkpt>
      <trkpt lat="45.33635" lon="6.20052">
        <ele>2397.8000488281</ele>
        <time>2014-03-02T10:58:31.000Z</time>
      </trkpt>
      <trkpt lat="45.33635" lon="6.20053">
        <ele>2398</ele>
        <time>2014-03-02T10:58:32.000Z</time>
      </trkpt>
      <trkpt lat="45.33635" lon="6.20053">
        <ele>2398</ele>
        <time>2014-03-02T10:58:33.000Z</time>
      </trkpt>
      <trkpt lat="45.33635" lon="6.20054">
        <ele>2398</ele>
        <time>2014-03-02T10:58:34.000Z</time>
      </trkpt>
      <trkpt lat="45.33635" lon="6.20055">
        <ele>2398.1999511719</ele>
        <time>2014-03-02T10:58:35.000Z</time>
      </trkpt>
      <trkpt lat="45.33635" lon="6.20056">
        <ele>2398.1999511719</ele>
        <time>2014-03-02T10:58:36.000Z</time>
      </trkpt>
      <trkpt lat="45.33635" lon="6.20056">
        <ele>2398.3999023438</ele>
        <time>2014-03-02T10:58:37.000Z</time>
      </trkpt>
      <trkpt lat="45.33635" lon="6.20056">
        <ele>2398.3999023438</ele>
        <time>2014-03-02T10:58:38.000Z</time>
      </trkpt>
      <trkpt lat="45.33634" lon="6.20057">
        <ele>2398.3999023438</ele>
        <time>2014-03-02T10:58:39.000Z</time>
      </trkpt>
      <trkpt lat="45.33634" lon="6.20057">
        <ele>2398.3999023438</ele>
        <time>2014-03-02T10:58:40.000Z</time>
      </trkpt>
      <trkpt lat="45.33633" lon="6.20058">
        <ele>2398.6000976562</ele>
        <time>2014-03-02T10:58:41.000Z</time>
      </trkpt>
      <trkpt lat="45.33633" lon="6.20058">
        <ele>2398.6000976562</ele>
        <time>2014-03-02T10:58:42.000Z</time>
      </trkpt>
      <trkpt lat="45.33633" lon="6.20059">
        <ele>2398.6000976562</ele>
        <time>2014-03-02T10:58:43.000Z</time>
      </trkpt>
      <trkpt lat="45.33633" lon="6.2006">
        <ele>2398.8000488281</ele>
        <time>2014-03-02T10:58:44.000Z</time>
      </trkpt>
      <trkpt lat="45.33632" lon="6.20061">
        <ele>2398.8000488281</ele>
        <time>2014-03-02T10:58:45.000Z</time>
      </trkpt>
      <trkpt lat="45.33632" lon="6.20061">
        <ele>2399</ele>
        <time>2014-03-02T10:58:46.000Z</time>
      </trkpt>
      <trkpt lat="45.33632" lon="6.20061">
        <ele>2399</ele>
        <time>2014-03-02T10:58:47.000Z</time>
      </trkpt>
      <trkpt lat="45.33632" lon="6.20061">
        <ele>2399</ele>
        <time>2014-03-02T10:58:48.000Z</time>
      </trkpt>
      <trkpt lat="45.33632" lon="6.20061">
        <ele>2399</ele>
        <time>2014-03-02T10:58:49.000Z</time>
      </trkpt>
      <trkpt lat="45.33632" lon="6.20061">
        <ele>2399</ele>
        <time>2014-03-02T10:58:50.000Z</time>
      </trkpt>
      <trkpt lat="45.33632" lon="6.20061">
        <ele>2399</ele>
        <time>2014-03-02T10:58:51.000Z</time>
      </trkpt>
      <trkpt lat="45.33632" lon="6.20061">
        <ele>2399</ele>
        <time>2014-03-02T10:58:52.000Z</time>
      </trkpt>
      <trkpt lat="45.33632" lon="6.20061">
        <ele>2399</ele>
        <time>2014-03-02T10:58:53.000Z</time>
      </trkpt>
      <trkpt lat="45.33632" lon="6.20061">
        <ele>2399</ele>
        <time>2014-03-02T10:58:54.000Z</time>
      </trkpt>
      <trkpt lat="45.33632" lon="6.20061">
        <ele>2399</ele>
        <time>2014-03-02T10:58:55.000Z</time>
      </trkpt>
      <trkpt lat="45.33632" lon="6.20062">
        <ele>2398.8000488281</ele>
        <time>2014-03-02T10:58:56.000Z</time>
      </trkpt>
      <trkpt lat="45.33632" lon="6.20062">
        <ele>2398.8000488281</ele>
        <time>2014-03-02T10:58:57.000Z</time>
      </trkpt>
      <trkpt lat="45.33632" lon="6.20063">
        <ele>2398.1999511719</ele>
        <time>2014-03-02T10:58:58.000Z</time>
      </trkpt>
      <trkpt lat="45.33632" lon="6.20064">
        <ele>2398</ele>
        <time>2014-03-02T10:58:59.000Z</time>
      </trkpt>
      <trkpt lat="45.33632" lon="6.20064">
        <ele>2398</ele>
        <time>2014-03-02T10:59:00.000Z</time>
      </trkpt>
      <trkpt lat="45.33632" lon="6.20065">
        <ele>2397.8000488281</ele>
        <time>2014-03-02T10:59:01.000Z</time>
      </trkpt>
      <trkpt lat="45.33632" lon="6.20065">
        <ele>2397.8000488281</ele>
        <time>2014-03-02T10:59:02.000Z</time>
      </trkpt>
      <trkpt lat="45.33632" lon="6.20067">
        <ele>2397.3999023438</ele>
        <time>2014-03-02T10:59:03.000Z</time>
      </trkpt>
      <trkpt lat="45.33631" lon="6.20068">
        <ele>2397</ele>
        <time>2014-03-02T10:59:04.000Z</time>
      </trkpt>
      <trkpt lat="45.33631" lon="6.20068">
        <ele>2397</ele>
        <time>2014-03-02T10:59:05.000Z</time>
      </trkpt>
      <trkpt lat="45.33631" lon="6.20069">
        <ele>2396.8000488281</ele>
        <time>2014-03-02T10:59:06.000Z</time>
      </trkpt>
      <trkpt lat="45.33631" lon="6.20071">
        <ele>2396.3999023438</ele>
        <time>2014-03-02T10:59:07.000Z</time>
      </trkpt>
      <trkpt lat="45.33631" lon="6.20072">
        <ele>2396.1999511719</ele>
        <time>2014-03-02T10:59:08.000Z</time>
      </trkpt>
      <trkpt lat="45.33631" lon="6.20073">
        <ele>2395.8000488281</ele>
        <time>2014-03-02T10:59:09.000Z</time>
      </trkpt>
      <trkpt lat="45.33631" lon="6.20075">
        <ele>2395.3999023438</ele>
        <time>2014-03-02T10:59:10.000Z</time>
      </trkpt>
      <trkpt lat="45.33631" lon="6.20075">
        <ele>2395.1999511719</ele>
        <time>2014-03-02T10:59:11.000Z</time>
      </trkpt>
      <trkpt lat="45.33631" lon="6.20076">
        <ele>2395</ele>
        <time>2014-03-02T10:59:12.000Z</time>
      </trkpt>
      <trkpt lat="45.33631" lon="6.20077">
        <ele>2394.8000488281</ele>
        <time>2014-03-02T10:59:13.000Z</time>
      </trkpt>
      <trkpt lat="45.33631" lon="6.20077">
        <ele>2394.6000976562</ele>
        <time>2014-03-02T10:59:14.000Z</time>
      </trkpt>
      <trkpt lat="45.33631" lon="6.20078">
        <ele>2394.3999023438</ele>
        <time>2014-03-02T10:59:15.000Z</time>
      </trkpt>
      <trkpt lat="45.33631" lon="6.20079">
        <ele>2394.1999511719</ele>
        <time>2014-03-02T10:59:16.000Z</time>
      </trkpt>
      <trkpt lat="45.3363" lon="6.20079">
        <ele>2394</ele>
        <time>2014-03-02T10:59:17.000Z</time>
      </trkpt>
      <trkpt lat="45.3363" lon="6.20079">
        <ele>2394</ele>
        <time>2014-03-02T10:59:18.000Z</time>
      </trkpt>
      <trkpt lat="45.3363" lon="6.20079">
        <ele>2394</ele>
        <time>2014-03-02T10:59:19.000Z</time>
      </trkpt>
      <trkpt lat="45.3363" lon="6.2008">
        <ele>2393.8000488281</ele>
        <time>2014-03-02T10:59:20.000Z</time>
      </trkpt>
      <trkpt lat="45.3363" lon="6.2008">
        <ele>2393.8000488281</ele>
        <time>2014-03-02T10:59:21.000Z</time>
      </trkpt>
      <trkpt lat="45.3363" lon="6.20081">
        <ele>2393.6000976562</ele>
        <time>2014-03-02T10:59:22.000Z</time>
      </trkpt>
      <trkpt lat="45.3363" lon="6.20082">
        <ele>2393.1999511719</ele>
        <time>2014-03-02T10:59:23.000Z</time>
      </trkpt>
      <trkpt lat="45.3363" lon="6.20082">
        <ele>2393</ele>
        <time>2014-03-02T10:59:24.000Z</time>
      </trkpt>
      <trkpt lat="45.3363" lon="6.20083">
        <ele>2392.8000488281</ele>
        <time>2014-03-02T10:59:25.000Z</time>
      </trkpt>
      <trkpt lat="45.3363" lon="6.20083">
        <ele>2392.8000488281</ele>
        <time>2014-03-02T10:59:26.000Z</time>
      </trkpt>
      <trkpt lat="45.3363" lon="6.20084">
        <ele>2392.6000976562</ele>
        <time>2014-03-02T10:59:27.000Z</time>
      </trkpt>
      <trkpt lat="45.3363" lon="6.20084">
        <ele>2392.3999023438</ele>
        <time>2014-03-02T10:59:28.000Z</time>
      </trkpt>
      <trkpt lat="45.3363" lon="6.20085">
        <ele>2392</ele>
        <time>2014-03-02T10:59:29.000Z</time>
      </trkpt>
      <trkpt lat="45.3363" lon="6.20085">
        <ele>2391.8000488281</ele>
        <time>2014-03-02T10:59:30.000Z</time>
      </trkpt>
      <trkpt lat="45.33629" lon="6.20086">
        <ele>2391.6000976562</ele>
        <time>2014-03-02T10:59:31.000Z</time>
      </trkpt>
      <trkpt lat="45.33629" lon="6.20086">
        <ele>2391.3999023438</ele>
        <time>2014-03-02T10:59:32.000Z</time>
      </trkpt>
      <trkpt lat="45.33629" lon="6.20086">
        <ele>2391.1999511719</ele>
        <time>2014-03-02T10:59:33.000Z</time>
      </trkpt>
      <trkpt lat="45.33629" lon="6.20086">
        <ele>2391.1999511719</ele>
        <time>2014-03-02T10:59:34.000Z</time>
      </trkpt>
      <trkpt lat="45.33629" lon="6.20086">
        <ele>2391.1999511719</ele>
        <time>2014-03-02T10:59:35.000Z</time>
      </trkpt>
      <trkpt lat="45.33629" lon="6.20086">
        <ele>2391.1999511719</ele>
        <time>2014-03-02T10:59:36.000Z</time>
      </trkpt>
      <trkpt lat="45.33629" lon="6.20086">
        <ele>2391.1999511719</ele>
        <time>2014-03-02T10:59:37.000Z</time>
      </trkpt>
      <trkpt lat="45.33629" lon="6.20087">
        <ele>2390.8000488281</ele>
        <time>2014-03-02T10:59:38.000Z</time>
      </trkpt>
      <trkpt lat="45.33628" lon="6.20088">
        <ele>2390.3999023438</ele>
        <time>2014-03-02T10:59:39.000Z</time>
      </trkpt>
      <trkpt lat="45.33627" lon="6.20089">
        <ele>2389.6000976562</ele>
        <time>2014-03-02T10:59:40.000Z</time>
      </trkpt>
      <trkpt lat="45.33627" lon="6.20089">
        <ele>2389.1999511719</ele>
        <time>2014-03-02T10:59:41.000Z</time>
      </trkpt>
      <trkpt lat="45.33627" lon="6.20089">
        <ele>2389.1999511719</ele>
        <time>2014-03-02T10:59:42.000Z</time>
      </trkpt>
      <trkpt lat="45.33627" lon="6.20089">
        <ele>2389.1999511719</ele>
        <time>2014-03-02T10:59:43.000Z</time>
      </trkpt>
      <trkpt lat="45.33627" lon="6.2009">
        <ele>2389.3999023438</ele>
        <time>2014-03-02T10:59:44.000Z</time>
      </trkpt>
      <trkpt lat="45.33627" lon="6.2009">
        <ele>2389.3999023438</ele>
        <time>2014-03-02T10:59:45.000Z</time>
      </trkpt>
      <trkpt lat="45.33627" lon="6.2009">
        <ele>2389.3999023438</ele>
        <time>2014-03-02T10:59:46.000Z</time>
      </trkpt>
      <trkpt lat="45.33627" lon="6.2009">
        <ele>2389.3999023438</ele>
        <time>2014-03-02T10:59:47.000Z</time>
      </trkpt>
      <trkpt lat="45.33627" lon="6.20091">
        <ele>2388.8000488281</ele>
        <time>2014-03-02T10:59:48.000Z</time>
      </trkpt>
      <trkpt lat="45.33627" lon="6.20091">
        <ele>2388.8000488281</ele>
        <time>2014-03-02T10:59:49.000Z</time>
      </trkpt>
      <trkpt lat="45.33627" lon="6.20091">
        <ele>2388.8000488281</ele>
        <time>2014-03-02T10:59:50.000Z</time>
      </trkpt>
      <trkpt lat="45.33627" lon="6.20091">
        <ele>2388.8000488281</ele>
        <time>2014-03-02T10:59:51.000Z</time>
      </trkpt>
      <trkpt lat="45.33627" lon="6.20091">
        <ele>2388.8000488281</ele>
        <time>2014-03-02T10:59:52.000Z</time>
      </trkpt>
      <trkpt lat="45.33627" lon="6.20091">
        <ele>2388.8000488281</ele>
        <time>2014-03-02T10:59:53.000Z</time>
      </trkpt>
      <trkpt lat="45.33627" lon="6.20091">
        <ele>2388.8000488281</ele>
        <time>2014-03-02T10:59:54.000Z</time>
      </trkpt>
      <trkpt lat="45.33627" lon="6.20091">
        <ele>2388.8000488281</ele>
        <time>2014-03-02T10:59:55.000Z</time>
      </trkpt>
      <trkpt lat="45.33627" lon="6.20091">
        <ele>2388.8000488281</ele>
        <time>2014-03-02T10:59:56.000Z</time>
      </trkpt>
      <trkpt lat="45.33627" lon="6.20091">
        <ele>2389</ele>
        <time>2014-03-02T10:59:57.000Z</time>
      </trkpt>
      <trkpt lat="45.33628" lon="6.20092">
        <ele>2389</ele>
        <time>2014-03-02T10:59:58.000Z</time>
      </trkpt>
      <trkpt lat="45.33628" lon="6.20092">
        <ele>2389.1999511719</ele>
        <time>2014-03-02T10:59:59.000Z</time>
      </trkpt>
      <trkpt lat="45.33628" lon="6.20092">
        <ele>2389.1999511719</ele>
        <time>2014-03-02T11:00:00.000Z</time>
      </trkpt>
      <trkpt lat="45.33628" lon="6.20092">
        <ele>2389.1999511719</ele>
        <time>2014-03-02T11:00:01.000Z</time>
      </trkpt>
      <trkpt lat="45.33628" lon="6.20092">
        <ele>2389.1999511719</ele>
        <time>2014-03-02T11:00:02.000Z</time>
      </trkpt>
      <trkpt lat="45.33628" lon="6.20092">
        <ele>2389.1999511719</ele>
        <time>2014-03-02T11:00:03.000Z</time>
      </trkpt>
      <trkpt lat="45.33628" lon="6.20092">
        <ele>2389.1999511719</ele>
        <time>2014-03-02T11:00:04.000Z</time>
      </trkpt>
      <trkpt lat="45.33628" lon="6.20092">
        <ele>2389.1999511719</ele>
        <time>2014-03-02T11:00:05.000Z</time>
      </trkpt>
      <trkpt lat="45.33628" lon="6.20092">
        <ele>2389.1999511719</ele>
        <time>2014-03-02T11:00:06.000Z</time>
      </trkpt>
      <trkpt lat="45.33628" lon="6.20092">
        <ele>2389.1999511719</ele>
        <time>2014-03-02T11:00:07.000Z</time>
      </trkpt>
      <trkpt lat="45.33628" lon="6.20092">
        <ele>2389.1999511719</ele>
        <time>2014-03-02T11:00:08.000Z</time>
      </trkpt>
      <trkpt lat="45.33628" lon="6.20092">
        <ele>2389.1999511719</ele>
        <time>2014-03-02T11:00:09.000Z</time>
      </trkpt>
      <trkpt lat="45.33628" lon="6.20092">
        <ele>2389.1999511719</ele>
        <time>2014-03-02T11:00:10.000Z</time>
      </trkpt>
      <trkpt lat="45.33628" lon="6.20092">
        <ele>2389.1999511719</ele>
        <time>2014-03-02T11:00:11.000Z</time>
      </trkpt>
      <trkpt lat="45.33629" lon="6.20092">
        <ele>2389.6000976562</ele>
        <time>2014-03-02T11:00:12.000Z</time>
      </trkpt>
      <trkpt lat="45.33629" lon="6.20092">
        <ele>2389.6000976562</ele>
        <time>2014-03-02T11:00:13.000Z</time>
      </trkpt>
      <trkpt lat="45.33631" lon="6.2009">
        <ele>2391</ele>
        <time>2014-03-02T11:00:15.000Z</time>
      </trkpt>
      <trkpt lat="45.33631" lon="6.2009">
        <ele>2391</ele>
        <time>2014-03-02T11:00:16.000Z</time>
      </trkpt>
      <trkpt lat="45.33632" lon="6.2009">
        <ele>2391</ele>
        <time>2014-03-02T11:00:17.000Z</time>
      </trkpt>
      <trkpt lat="45.33632" lon="6.2009">
        <ele>2391</ele>
        <time>2014-03-02T11:00:18.000Z</time>
      </trkpt>
      <trkpt lat="45.33633" lon="6.20089">
        <ele>2390.8000488281</ele>
        <time>2014-03-02T11:00:19.000Z</time>
      </trkpt>
      <trkpt lat="45.33633" lon="6.20089">
        <ele>2390.8000488281</ele>
        <time>2014-03-02T11:00:20.000Z</time>
      </trkpt>
      <trkpt lat="45.33633" lon="6.20089">
        <ele>2390.8000488281</ele>
        <time>2014-03-02T11:00:21.000Z</time>
      </trkpt>
      <trkpt lat="45.33634" lon="6.20088">
        <ele>2390.8000488281</ele>
        <time>2014-03-02T11:00:22.000Z</time>
      </trkpt>
      <trkpt lat="45.33634" lon="6.20088">
        <ele>2390.8000488281</ele>
        <time>2014-03-02T11:00:23.000Z</time>
      </trkpt>
      <trkpt lat="45.33634" lon="6.20088">
        <ele>2390.8000488281</ele>
        <time>2014-03-02T11:00:24.000Z</time>
      </trkpt>
      <trkpt lat="45.33635" lon="6.20087">
        <ele>2390.6000976562</ele>
        <time>2014-03-02T11:00:25.000Z</time>
      </trkpt>
      <trkpt lat="45.33635" lon="6.20087">
        <ele>2390.6000976562</ele>
        <time>2014-03-02T11:00:26.000Z</time>
      </trkpt>
      <trkpt lat="45.33635" lon="6.20087">
        <ele>2390.6000976562</ele>
        <time>2014-03-02T11:00:27.000Z</time>
      </trkpt>
      <trkpt lat="45.33635" lon="6.20087">
        <ele>2390.6000976562</ele>
        <time>2014-03-02T11:00:28.000Z</time>
      </trkpt>
      <trkpt lat="45.33635" lon="6.20087">
        <ele>2390.6000976562</ele>
        <time>2014-03-02T11:00:29.000Z</time>
      </trkpt>
      <trkpt lat="45.33636" lon="6.20087">
        <ele>2390.6000976562</ele>
        <time>2014-03-02T11:00:30.000Z</time>
      </trkpt>
      <trkpt lat="45.33637" lon="6.20086">
        <ele>2390.6000976562</ele>
        <time>2014-03-02T11:00:31.000Z</time>
      </trkpt>
      <trkpt lat="45.33637" lon="6.20086">
        <ele>2390.6000976562</ele>
        <time>2014-03-02T11:00:32.000Z</time>
      </trkpt>
      <trkpt lat="45.33638" lon="6.20085">
        <ele>2390.3999023438</ele>
        <time>2014-03-02T11:00:33.000Z</time>
      </trkpt>
      <trkpt lat="45.33638" lon="6.20085">
        <ele>2390.3999023438</ele>
        <time>2014-03-02T11:00:34.000Z</time>
      </trkpt>
      <trkpt lat="45.33638" lon="6.20085">
        <ele>2390.3999023438</ele>
        <time>2014-03-02T11:00:35.000Z</time>
      </trkpt>
      <trkpt lat="45.33639" lon="6.20084">
        <ele>2390.3999023438</ele>
        <time>2014-03-02T11:00:36.000Z</time>
      </trkpt>
      <trkpt lat="45.3364" lon="6.20084">
        <ele>2390.1999511719</ele>
        <time>2014-03-02T11:00:37.000Z</time>
      </trkpt>
      <trkpt lat="45.3364" lon="6.20084">
        <ele>2390.1999511719</ele>
        <time>2014-03-02T11:00:38.000Z</time>
      </trkpt>
      <trkpt lat="45.33641" lon="6.20083">
        <ele>2390</ele>
        <time>2014-03-02T11:00:39.000Z</time>
      </trkpt>
      <trkpt lat="45.33641" lon="6.20083">
        <ele>2390</ele>
        <time>2014-03-02T11:00:40.000Z</time>
      </trkpt>
      <trkpt lat="45.33641" lon="6.20083">
        <ele>2390</ele>
        <time>2014-03-02T11:00:41.000Z</time>
      </trkpt>
      <trkpt lat="45.33642" lon="6.20083">
        <ele>2390</ele>
        <time>2014-03-02T11:00:42.000Z</time>
      </trkpt>
      <trkpt lat="45.33642" lon="6.20083">
        <ele>2390</ele>
        <time>2014-03-02T11:00:43.000Z</time>
      </trkpt>
      <trkpt lat="45.33642" lon="6.20083">
        <ele>2390</ele>
        <time>2014-03-02T11:00:44.000Z</time>
      </trkpt>
      <trkpt lat="45.33642" lon="6.20082">
        <ele>2389.8000488281</ele>
        <time>2014-03-02T11:00:45.000Z</time>
      </trkpt>
      <trkpt lat="45.33642" lon="6.20082">
        <ele>2389.8000488281</ele>
        <time>2014-03-02T11:00:46.000Z</time>
      </trkpt>
      <trkpt lat="45.33642" lon="6.20082">
        <ele>2389.8000488281</ele>
        <time>2014-03-02T11:00:47.000Z</time>
      </trkpt>
      <trkpt lat="45.33642" lon="6.20082">
        <ele>2389.8000488281</ele>
        <time>2014-03-02T11:00:48.000Z</time>
      </trkpt>
      <trkpt lat="45.33642" lon="6.20082">
        <ele>2389.8000488281</ele>
        <time>2014-03-02T11:00:49.000Z</time>
      </trkpt>
      <trkpt lat="45.33642" lon="6.20082">
        <ele>2389.8000488281</ele>
        <time>2014-03-02T11:00:50.000Z</time>
      </trkpt>
      <trkpt lat="45.33642" lon="6.20082">
        <ele>2389.8000488281</ele>
        <time>2014-03-02T11:00:51.000Z</time>
      </trkpt>
      <trkpt lat="45.33642" lon="6.20082">
        <ele>2389.8000488281</ele>
        <time>2014-03-02T11:00:52.000Z</time>
      </trkpt>
      <trkpt lat="45.33642" lon="6.20082">
        <ele>2389.8000488281</ele>
        <time>2014-03-02T11:00:53.000Z</time>
      </trkpt>
      <trkpt lat="45.33642" lon="6.20082">
        <ele>2389.8000488281</ele>
        <time>2014-03-02T11:00:54.000Z</time>
      </trkpt>
      <trkpt lat="45.33643" lon="6.20084">
        <ele>2389.3999023438</ele>
        <time>2014-03-02T11:00:56.000Z</time>
      </trkpt>
      <trkpt lat="45.33643" lon="6.20085">
        <ele>2389</ele>
        <time>2014-03-02T11:00:57.000Z</time>
      </trkpt>
      <trkpt lat="45.33643" lon="6.20086">
        <ele>2388.8000488281</ele>
        <time>2014-03-02T11:00:58.000Z</time>
      </trkpt>
      <trkpt lat="45.33643" lon="6.20087">
        <ele>2388.3999023438</ele>
        <time>2014-03-02T11:00:59.000Z</time>
      </trkpt>
      <trkpt lat="45.33643" lon="6.20088">
        <ele>2388.1999511719</ele>
        <time>2014-03-02T11:01:00.000Z</time>
      </trkpt>
      <trkpt lat="45.33642" lon="6.20089">
        <ele>2388</ele>
        <time>2014-03-02T11:01:01.000Z</time>
      </trkpt>
      <trkpt lat="45.33642" lon="6.2009">
        <ele>2387.8000488281</ele>
        <time>2014-03-02T11:01:02.000Z</time>
      </trkpt>
      <trkpt lat="45.33642" lon="6.20091">
        <ele>2387.6000976562</ele>
        <time>2014-03-02T11:01:03.000Z</time>
      </trkpt>
      <trkpt lat="45.33641" lon="6.20092">
        <ele>2387.3999023438</ele>
        <time>2014-03-02T11:01:04.000Z</time>
      </trkpt>
      <trkpt lat="45.33641" lon="6.20093">
        <ele>2387.1999511719</ele>
        <time>2014-03-02T11:01:05.000Z</time>
      </trkpt>
      <trkpt lat="45.33641" lon="6.20094">
        <ele>2387.1999511719</ele>
        <time>2014-03-02T11:01:06.000Z</time>
      </trkpt>
      <trkpt lat="45.33641" lon="6.20095">
        <ele>2386.8000488281</ele>
        <time>2014-03-02T11:01:07.000Z</time>
      </trkpt>
      <trkpt lat="45.33641" lon="6.20096">
        <ele>2386.6000976562</ele>
        <time>2014-03-02T11:01:08.000Z</time>
      </trkpt>
      <trkpt lat="45.33641" lon="6.20097">
        <ele>2386.3999023438</ele>
        <time>2014-03-02T11:01:09.000Z</time>
      </trkpt>
      <trkpt lat="45.33641" lon="6.20098">
        <ele>2386.1999511719</ele>
        <time>2014-03-02T11:01:10.000Z</time>
      </trkpt>
      <trkpt lat="45.3364" lon="6.20099">
        <ele>2386</ele>
        <time>2014-03-02T11:01:11.000Z</time>
      </trkpt>
      <trkpt lat="45.3364" lon="6.20099">
        <ele>2386</ele>
        <time>2014-03-02T11:01:12.000Z</time>
      </trkpt>
      <trkpt lat="45.33639" lon="6.201">
        <ele>2385.8000488281</ele>
        <time>2014-03-02T11:01:13.000Z</time>
      </trkpt>
      <trkpt lat="45.33639" lon="6.20101">
        <ele>2385.8000488281</ele>
        <time>2014-03-02T11:01:14.000Z</time>
      </trkpt>
      <trkpt lat="45.33639" lon="6.20101">
        <ele>2385.8000488281</ele>
        <time>2014-03-02T11:01:15.000Z</time>
      </trkpt>
      <trkpt lat="45.33638" lon="6.20102">
        <ele>2385.8000488281</ele>
        <time>2014-03-02T11:01:16.000Z</time>
      </trkpt>
      <trkpt lat="45.33638" lon="6.20102">
        <ele>2385.6000976562</ele>
        <time>2014-03-02T11:01:17.000Z</time>
      </trkpt>
      <trkpt lat="45.33638" lon="6.20103">
        <ele>2385.6000976562</ele>
        <time>2014-03-02T11:01:18.000Z</time>
      </trkpt>
      <trkpt lat="45.33637" lon="6.20104">
        <ele>2385.1999511719</ele>
        <time>2014-03-02T11:01:20.000Z</time>
      </trkpt>
      <trkpt lat="45.33637" lon="6.20105">
        <ele>2385</ele>
        <time>2014-03-02T11:01:21.000Z</time>
      </trkpt>
      <trkpt lat="45.33637" lon="6.20106">
        <ele>2384.8000488281</ele>
        <time>2014-03-02T11:01:22.000Z</time>
      </trkpt>
      <trkpt lat="45.33637" lon="6.20107">
        <ele>2384.6000976562</ele>
        <time>2014-03-02T11:01:23.000Z</time>
      </trkpt>
      <trkpt lat="45.33637" lon="6.20108">
        <ele>2384.6000976562</ele>
        <time>2014-03-02T11:01:24.000Z</time>
      </trkpt>
      <trkpt lat="45.33637" lon="6.20108">
        <ele>2384.3999023438</ele>
        <time>2014-03-02T11:01:25.000Z</time>
      </trkpt>
      <trkpt lat="45.33637" lon="6.20108">
        <ele>2384.3999023438</ele>
        <time>2014-03-02T11:01:26.000Z</time>
      </trkpt>
      <trkpt lat="45.33637" lon="6.20108">
        <ele>2384.3999023438</ele>
        <time>2014-03-02T11:01:27.000Z</time>
      </trkpt>
      <trkpt lat="45.33637" lon="6.20108">
        <ele>2384.3999023438</ele>
        <time>2014-03-02T11:01:28.000Z</time>
      </trkpt>
      <trkpt lat="45.33637" lon="6.20108">
        <ele>2384.3999023438</ele>
        <time>2014-03-02T11:01:29.000Z</time>
      </trkpt>
      <trkpt lat="45.33638" lon="6.20106">
        <ele>2384.3999023438</ele>
        <time>2014-03-02T11:01:30.000Z</time>
      </trkpt>
      <trkpt lat="45.33639" lon="6.20105">
        <ele>2384.3999023438</ele>
        <time>2014-03-02T11:01:31.000Z</time>
      </trkpt>
      <trkpt lat="45.3364" lon="6.20104">
        <ele>2384.3999023438</ele>
        <time>2014-03-02T11:01:32.000Z</time>
      </trkpt>
      <trkpt lat="45.33641" lon="6.20104">
        <ele>2384.3999023438</ele>
        <time>2014-03-02T11:01:33.000Z</time>
      </trkpt>
      <trkpt lat="45.33642" lon="6.20103">
        <ele>2384.3999023438</ele>
        <time>2014-03-02T11:01:34.000Z</time>
      </trkpt>
      <trkpt lat="45.33642" lon="6.20102">
        <ele>2384.3999023438</ele>
        <time>2014-03-02T11:01:35.000Z</time>
      </trkpt>
      <trkpt lat="45.33644" lon="6.20101">
        <ele>2384.3999023438</ele>
        <time>2014-03-02T11:01:37.000Z</time>
      </trkpt>
      <trkpt lat="45.33644" lon="6.201">
        <ele>2384.3999023438</ele>
        <time>2014-03-02T11:01:38.000Z</time>
      </trkpt>
      <trkpt lat="45.33645" lon="6.201">
        <ele>2384.1999511719</ele>
        <time>2014-03-02T11:01:39.000Z</time>
      </trkpt>
      <trkpt lat="45.33645" lon="6.20099">
        <ele>2384.1999511719</ele>
        <time>2014-03-02T11:01:40.000Z</time>
      </trkpt>
      <trkpt lat="45.33646" lon="6.20099">
        <ele>2384.1999511719</ele>
        <time>2014-03-02T11:01:41.000Z</time>
      </trkpt>
      <trkpt lat="45.33647" lon="6.20099">
        <ele>2384</ele>
        <time>2014-03-02T11:01:44.000Z</time>
      </trkpt>
      <trkpt lat="45.33647" lon="6.20099">
        <ele>2384</ele>
        <time>2014-03-02T11:01:45.000Z</time>
      </trkpt>
      <trkpt lat="45.33647" lon="6.20099">
        <ele>2384</ele>
        <time>2014-03-02T11:01:46.000Z</time>
      </trkpt>
      <trkpt lat="45.33647" lon="6.20099">
        <ele>2384</ele>
        <time>2014-03-02T11:01:48.000Z</time>
      </trkpt>
      <trkpt lat="45.33647" lon="6.20099">
        <ele>2384</ele>
        <time>2014-03-02T11:01:49.000Z</time>
      </trkpt>
      <trkpt lat="45.33647" lon="6.20099">
        <ele>2384</ele>
        <time>2014-03-02T11:01:50.000Z</time>
      </trkpt>
      <trkpt lat="45.33647" lon="6.20099">
        <ele>2384</ele>
        <time>2014-03-02T11:01:51.000Z</time>
      </trkpt>
      <trkpt lat="45.33647" lon="6.20099">
        <ele>2384</ele>
        <time>2014-03-02T11:01:52.000Z</time>
      </trkpt>
      <trkpt lat="45.33647" lon="6.20099">
        <ele>2384</ele>
        <time>2014-03-02T11:01:53.000Z</time>
      </trkpt>
      <trkpt lat="45.33647" lon="6.20099">
        <ele>2384</ele>
        <time>2014-03-02T11:01:54.000Z</time>
      </trkpt>
      <trkpt lat="45.33647" lon="6.20099">
        <ele>2384</ele>
        <time>2014-03-02T11:01:56.000Z</time>
      </trkpt>
      <trkpt lat="45.33647" lon="6.20099">
        <ele>2384</ele>
        <time>2014-03-02T11:01:57.000Z</time>
      </trkpt>
      <trkpt lat="45.33647" lon="6.20099">
        <ele>2384</ele>
        <time>2014-03-02T11:01:58.000Z</time>
      </trkpt>
      <trkpt lat="45.33647" lon="6.20099">
        <ele>2384</ele>
        <time>2014-03-02T11:01:59.000Z</time>
      </trkpt>
      <trkpt lat="45.33647" lon="6.20099">
        <ele>2384</ele>
        <time>2014-03-02T11:02:00.000Z</time>
      </trkpt>
      <trkpt lat="45.33647" lon="6.20099">
        <ele>2384</ele>
        <time>2014-03-02T11:02:01.000Z</time>
      </trkpt>
      <trkpt lat="45.33647" lon="6.20099">
        <ele>2384</ele>
        <time>2014-03-02T11:02:02.000Z</time>
      </trkpt>
      <trkpt lat="45.33647" lon="6.20099">
        <ele>2384</ele>
        <time>2014-03-02T11:02:03.000Z</time>
      </trkpt>
      <trkpt lat="45.33647" lon="6.20099">
        <ele>2384</ele>
        <time>2014-03-02T11:02:07.000Z</time>
      </trkpt>
      <trkpt lat="45.33647" lon="6.20099">
        <ele>2384</ele>
        <time>2014-03-02T11:02:11.000Z</time>
      </trkpt>
      <trkpt lat="45.33647" lon="6.20099">
        <ele>2384</ele>
        <time>2014-03-02T11:02:14.000Z</time>
      </trkpt>
      <trkpt lat="45.33647" lon="6.20099">
        <ele>2384</ele>
        <time>2014-03-02T11:02:15.000Z</time>
      </trkpt>
      <trkpt lat="45.33647" lon="6.20099">
        <ele>2384</ele>
        <time>2014-03-02T11:02:16.000Z</time>
      </trkpt>
      <trkpt lat="45.33647" lon="6.20099">
        <ele>2384</ele>
        <time>2014-03-02T11:02:17.000Z</time>
      </trkpt>
      <trkpt lat="45.33647" lon="6.20099">
        <ele>2384</ele>
        <time>2014-03-02T11:02:18.000Z</time>
      </trkpt>
      <trkpt lat="45.33647" lon="6.20099">
        <ele>2384</ele>
        <time>2014-03-02T11:02:19.000Z</time>
      </trkpt>
      <trkpt lat="45.33647" lon="6.20099">
        <ele>2384</ele>
        <time>2014-03-02T11:02:20.000Z</time>
      </trkpt>
      <trkpt lat="45.33647" lon="6.20099">
        <ele>2384</ele>
        <time>2014-03-02T11:02:21.000Z</time>
      </trkpt>
      <trkpt lat="45.33647" lon="6.20099">
        <ele>2384</ele>
        <time>2014-03-02T11:02:24.000Z</time>
      </trkpt>
      <trkpt lat="45.33647" lon="6.20099">
        <ele>2384</ele>
        <time>2014-03-02T11:02:25.000Z</time>
      </trkpt>
      <trkpt lat="45.33647" lon="6.20099">
        <ele>2384</ele>
        <time>2014-03-02T11:02:37.000Z</time>
      </trkpt>
      <trkpt lat="45.33647" lon="6.20099">
        <ele>2383.6000976562</ele>
        <time>2014-03-02T11:02:38.000Z</time>
      </trkpt>
      <trkpt lat="45.33648" lon="6.20099">
        <ele>2383.3999023438</ele>
        <time>2014-03-02T11:02:39.000Z</time>
      </trkpt>
      <trkpt lat="45.33648" lon="6.20099">
        <ele>2383.3999023438</ele>
        <time>2014-03-02T11:02:40.000Z</time>
      </trkpt>
      <trkpt lat="45.33648" lon="6.20099">
        <ele>2383.3999023438</ele>
        <time>2014-03-02T11:02:41.000Z</time>
      </trkpt>
      <trkpt lat="45.33648" lon="6.20099">
        <ele>2383.3999023438</ele>
        <time>2014-03-02T11:02:42.000Z</time>
      </trkpt>
      <trkpt lat="45.33649" lon="6.20099">
        <ele>2383.3999023438</ele>
        <time>2014-03-02T11:02:43.000Z</time>
      </trkpt>
      <trkpt lat="45.33649" lon="6.20099">
        <ele>2383.1999511719</ele>
        <time>2014-03-02T11:02:44.000Z</time>
      </trkpt>
      <trkpt lat="45.33649" lon="6.20099">
        <ele>2383.1999511719</ele>
        <time>2014-03-02T11:02:46.000Z</time>
      </trkpt>
      <trkpt lat="45.33649" lon="6.20099">
        <ele>2383.1999511719</ele>
        <time>2014-03-02T11:02:47.000Z</time>
      </trkpt>
      <trkpt lat="45.33649" lon="6.20099">
        <ele>2383.1999511719</ele>
        <time>2014-03-02T11:02:48.000Z</time>
      </trkpt>
      <trkpt lat="45.33649" lon="6.20099">
        <ele>2383.1999511719</ele>
        <time>2014-03-02T11:02:49.000Z</time>
      </trkpt>
      <trkpt lat="45.33649" lon="6.20099">
        <ele>2383.1999511719</ele>
        <time>2014-03-02T11:02:50.000Z</time>
      </trkpt>
      <trkpt lat="45.33649" lon="6.20099">
        <ele>2383.1999511719</ele>
        <time>2014-03-02T11:02:51.000Z</time>
      </trkpt>
      <trkpt lat="45.33649" lon="6.20099">
        <ele>2383.1999511719</ele>
        <time>2014-03-02T11:02:52.000Z</time>
      </trkpt>
      <trkpt lat="45.33649" lon="6.20099">
        <ele>2383.1999511719</ele>
        <time>2014-03-02T11:02:53.000Z</time>
      </trkpt>
      <trkpt lat="45.33649" lon="6.20099">
        <ele>2383.1999511719</ele>
        <time>2014-03-02T11:02:54.000Z</time>
      </trkpt>
      <trkpt lat="45.33649" lon="6.20099">
        <ele>2383.1999511719</ele>
        <time>2014-03-02T11:02:55.000Z</time>
      </trkpt>
      <trkpt lat="45.33649" lon="6.20099">
        <ele>2383.1999511719</ele>
        <time>2014-03-02T11:02:56.000Z</time>
      </trkpt>
      <trkpt lat="45.33649" lon="6.20099">
        <ele>2383.1999511719</ele>
        <time>2014-03-02T11:02:57.000Z</time>
      </trkpt>
      <trkpt lat="45.33649" lon="6.20099">
        <ele>2383.1999511719</ele>
        <time>2014-03-02T11:02:58.000Z</time>
      </trkpt>
      <trkpt lat="45.33649" lon="6.20099">
        <ele>2383.1999511719</ele>
        <time>2014-03-02T11:02:59.000Z</time>
      </trkpt>
      <trkpt lat="45.33649" lon="6.20099">
        <ele>2383.1999511719</ele>
        <time>2014-03-02T11:03:00.000Z</time>
      </trkpt>
      <trkpt lat="45.33649" lon="6.20099">
        <ele>2383.1999511719</ele>
        <time>2014-03-02T11:03:01.000Z</time>
      </trkpt>
      <trkpt lat="45.33649" lon="6.20099">
        <ele>2383.1999511719</ele>
        <time>2014-03-02T11:03:02.000Z</time>
      </trkpt>
      <trkpt lat="45.33649" lon="6.20099">
        <ele>2383.1999511719</ele>
        <time>2014-03-02T11:03:03.000Z</time>
      </trkpt>
      <trkpt lat="45.33649" lon="6.20099">
        <ele>2383.1999511719</ele>
        <time>2014-03-02T11:03:04.000Z</time>
      </trkpt>
      <trkpt lat="45.33649" lon="6.20099">
        <ele>2383.1999511719</ele>
        <time>2014-03-02T11:03:05.000Z</time>
      </trkpt>
      <trkpt lat="45.33649" lon="6.20099">
        <ele>2383.1999511719</ele>
        <time>2014-03-02T11:03:06.000Z</time>
      </trkpt>
      <trkpt lat="45.33649" lon="6.20099">
        <ele>2383.1999511719</ele>
        <time>2014-03-02T11:03:08.000Z</time>
      </trkpt>
      <trkpt lat="45.33649" lon="6.20099">
        <ele>2383.1999511719</ele>
        <time>2014-03-02T11:03:13.000Z</time>
      </trkpt>
      <trkpt lat="45.33649" lon="6.20099">
        <ele>2383.1999511719</ele>
        <time>2014-03-02T11:03:14.000Z</time>
      </trkpt>
      <trkpt lat="45.33649" lon="6.20099">
        <ele>2383.1999511719</ele>
        <time>2014-03-02T11:03:15.000Z</time>
      </trkpt>
      <trkpt lat="45.33649" lon="6.20099">
        <ele>2383.1999511719</ele>
        <time>2014-03-02T11:03:16.000Z</time>
      </trkpt>
      <trkpt lat="45.33649" lon="6.20099">
        <ele>2383.1999511719</ele>
        <time>2014-03-02T11:03:17.000Z</time>
      </trkpt>
      <trkpt lat="45.33649" lon="6.20099">
        <ele>2383.1999511719</ele>
        <time>2014-03-02T11:03:18.000Z</time>
      </trkpt>
      <trkpt lat="45.33649" lon="6.20099">
        <ele>2383.1999511719</ele>
        <time>2014-03-02T11:03:19.000Z</time>
      </trkpt>
      <trkpt lat="45.33649" lon="6.20099">
        <ele>2383.1999511719</ele>
        <time>2014-03-02T11:03:20.000Z</time>
      </trkpt>
      <trkpt lat="45.33649" lon="6.20099">
        <ele>2383.1999511719</ele>
        <time>2014-03-02T11:03:21.000Z</time>
      </trkpt>
      <trkpt lat="45.33649" lon="6.20099">
        <ele>2383.1999511719</ele>
        <time>2014-03-02T11:03:22.000Z</time>
      </trkpt>
      <trkpt lat="45.33649" lon="6.20099">
        <ele>2383.1999511719</ele>
        <time>2014-03-02T11:03:23.000Z</time>
      </trkpt>
      <trkpt lat="45.33649" lon="6.20099">
        <ele>2383.1999511719</ele>
        <time>2014-03-02T11:03:24.000Z</time>
      </trkpt>
      <trkpt lat="45.33649" lon="6.20099">
        <ele>2383.1999511719</ele>
        <time>2014-03-02T11:03:25.000Z</time>
      </trkpt>
      <trkpt lat="45.33649" lon="6.20099">
        <ele>2383.1999511719</ele>
        <time>2014-03-02T11:03:26.000Z</time>
      </trkpt>
      <trkpt lat="45.33649" lon="6.20099">
        <ele>2383.1999511719</ele>
        <time>2014-03-02T11:03:27.000Z</time>
      </trkpt>
      <trkpt lat="45.33649" lon="6.20099">
        <ele>2383.1999511719</ele>
        <time>2014-03-02T11:03:28.000Z</time>
      </trkpt>
      <trkpt lat="45.33649" lon="6.20099">
        <ele>2383.1999511719</ele>
        <time>2014-03-02T11:03:29.000Z</time>
      </trkpt>
      <trkpt lat="45.33649" lon="6.20099">
        <ele>2383.1999511719</ele>
        <time>2014-03-02T11:03:30.000Z</time>
      </trkpt>
      <trkpt lat="45.33649" lon="6.20099">
        <ele>2383.1999511719</ele>
        <time>2014-03-02T11:03:31.000Z</time>
      </trkpt>
      <trkpt lat="45.33649" lon="6.20099">
        <ele>2383.1999511719</ele>
        <time>2014-03-02T11:03:32.000Z</time>
      </trkpt>
      <trkpt lat="45.33649" lon="6.20099">
        <ele>2383.1999511719</ele>
        <time>2014-03-02T11:03:33.000Z</time>
      </trkpt>
      <trkpt lat="45.33649" lon="6.20099">
        <ele>2383.1999511719</ele>
        <time>2014-03-02T11:03:34.000Z</time>
      </trkpt>
      <trkpt lat="45.33649" lon="6.20099">
        <ele>2383.1999511719</ele>
        <time>2014-03-02T11:03:35.000Z</time>
      </trkpt>
      <trkpt lat="45.33649" lon="6.20099">
        <ele>2383.1999511719</ele>
        <time>2014-03-02T11:03:36.000Z</time>
      </trkpt>
      <trkpt lat="45.33649" lon="6.20099">
        <ele>2383.1999511719</ele>
        <time>2014-03-02T11:03:37.000Z</time>
      </trkpt>
      <trkpt lat="45.33649" lon="6.20099">
        <ele>2383.1999511719</ele>
        <time>2014-03-02T11:03:38.000Z</time>
      </trkpt>
      <trkpt lat="45.33649" lon="6.20099">
        <ele>2383.1999511719</ele>
        <time>2014-03-02T11:03:39.000Z</time>
      </trkpt>
      <trkpt lat="45.33649" lon="6.20099">
        <ele>2383.1999511719</ele>
        <time>2014-03-02T11:03:40.000Z</time>
      </trkpt>
      <trkpt lat="45.33649" lon="6.20099">
        <ele>2383.1999511719</ele>
        <time>2014-03-02T11:03:42.000Z</time>
      </trkpt>
      <trkpt lat="45.33649" lon="6.20099">
        <ele>2383.1999511719</ele>
        <time>2014-03-02T11:03:43.000Z</time>
      </trkpt>
      <trkpt lat="45.33649" lon="6.20099">
        <ele>2383.1999511719</ele>
        <time>2014-03-02T11:03:44.000Z</time>
      </trkpt>
      <trkpt lat="45.33649" lon="6.20099">
        <ele>2383.1999511719</ele>
        <time>2014-03-02T11:03:45.000Z</time>
      </trkpt>
      <trkpt lat="45.33649" lon="6.20099">
        <ele>2383.1999511719</ele>
        <time>2014-03-02T11:03:47.000Z</time>
      </trkpt>
      <trkpt lat="45.33649" lon="6.20099">
        <ele>2383.1999511719</ele>
        <time>2014-03-02T11:03:48.000Z</time>
      </trkpt>
      <trkpt lat="45.33649" lon="6.20099">
        <ele>2383.1999511719</ele>
        <time>2014-03-02T11:03:49.000Z</time>
      </trkpt>
      <trkpt lat="45.33649" lon="6.20099">
        <ele>2383.1999511719</ele>
        <time>2014-03-02T11:03:50.000Z</time>
      </trkpt>
      <trkpt lat="45.33649" lon="6.20099">
        <ele>2383.1999511719</ele>
        <time>2014-03-02T11:03:51.000Z</time>
      </trkpt>
      <trkpt lat="45.33649" lon="6.20099">
        <ele>2383.1999511719</ele>
        <time>2014-03-02T11:03:52.000Z</time>
      </trkpt>
      <trkpt lat="45.33649" lon="6.20099">
        <ele>2383.1999511719</ele>
        <time>2014-03-02T11:03:53.000Z</time>
      </trkpt>
      <trkpt lat="45.33649" lon="6.20099">
        <ele>2383.1999511719</ele>
        <time>2014-03-02T11:03:54.000Z</time>
      </trkpt>
      <trkpt lat="45.33649" lon="6.20099">
        <ele>2383.1999511719</ele>
        <time>2014-03-02T11:03:55.000Z</time>
      </trkpt>
      <trkpt lat="45.33649" lon="6.20099">
        <ele>2383.1999511719</ele>
        <time>2014-03-02T11:03:56.000Z</time>
      </trkpt>
      <trkpt lat="45.33649" lon="6.20099">
        <ele>2383.1999511719</ele>
        <time>2014-03-02T11:04:00.000Z</time>
      </trkpt>
      <trkpt lat="45.33649" lon="6.20099">
        <ele>2383.1999511719</ele>
        <time>2014-03-02T11:04:01.000Z</time>
      </trkpt>
      <trkpt lat="45.33649" lon="6.20099">
        <ele>2383.1999511719</ele>
        <time>2014-03-02T11:04:02.000Z</time>
      </trkpt>
      <trkpt lat="45.33649" lon="6.20099">
        <ele>2383.1999511719</ele>
        <time>2014-03-02T11:04:03.000Z</time>
      </trkpt>
      <trkpt lat="45.33648" lon="6.20099">
        <ele>2383.3999023438</ele>
        <time>2014-03-02T11:04:05.000Z</time>
      </trkpt>
      <trkpt lat="45.33648" lon="6.20099">
        <ele>2383.3999023438</ele>
        <time>2014-03-02T11:04:06.000Z</time>
      </trkpt>
      <trkpt lat="45.33648" lon="6.20099">
        <ele>2383.3999023438</ele>
        <time>2014-03-02T11:04:08.000Z</time>
      </trkpt>
      <trkpt lat="45.33648" lon="6.20099">
        <ele>2383.3999023438</ele>
        <time>2014-03-02T11:04:09.000Z</time>
      </trkpt>
      <trkpt lat="45.33648" lon="6.20099">
        <ele>2383.3999023438</ele>
        <time>2014-03-02T11:04:10.000Z</time>
      </trkpt>
      <trkpt lat="45.33648" lon="6.20099">
        <ele>2383.3999023438</ele>
        <time>2014-03-02T11:04:11.000Z</time>
      </trkpt>
      <trkpt lat="45.33648" lon="6.20099">
        <ele>2383.3999023438</ele>
        <time>2014-03-02T11:04:12.000Z</time>
      </trkpt>
      <trkpt lat="45.33648" lon="6.20099">
        <ele>2383.3999023438</ele>
        <time>2014-03-02T11:04:15.000Z</time>
      </trkpt>
      <trkpt lat="45.33648" lon="6.20099">
        <ele>2383.3999023438</ele>
        <time>2014-03-02T11:04:16.000Z</time>
      </trkpt>
      <trkpt lat="45.33648" lon="6.20099">
        <ele>2383.3999023438</ele>
        <time>2014-03-02T11:04:17.000Z</time>
      </trkpt>
      <trkpt lat="45.33648" lon="6.20099">
        <ele>2383.3999023438</ele>
        <time>2014-03-02T11:04:18.000Z</time>
      </trkpt>
      <trkpt lat="45.33648" lon="6.20099">
        <ele>2383.3999023438</ele>
        <time>2014-03-02T11:04:20.000Z</time>
      </trkpt>
      <trkpt lat="45.33648" lon="6.20099">
        <ele>2383.3999023438</ele>
        <time>2014-03-02T11:04:25.000Z</time>
      </trkpt>
      <trkpt lat="45.33648" lon="6.20099">
        <ele>2383.3999023438</ele>
        <time>2014-03-02T11:04:26.000Z</time>
      </trkpt>
      <trkpt lat="45.33648" lon="6.20099">
        <ele>2383.3999023438</ele>
        <time>2014-03-02T11:04:27.000Z</time>
      </trkpt>
      <trkpt lat="45.33648" lon="6.20099">
        <ele>2383.3999023438</ele>
        <time>2014-03-02T11:04:30.000Z</time>
      </trkpt>
      <trkpt lat="45.33648" lon="6.20099">
        <ele>2383.3999023438</ele>
        <time>2014-03-02T11:04:31.000Z</time>
      </trkpt>
      <trkpt lat="45.33648" lon="6.20099">
        <ele>2383.3999023438</ele>
        <time>2014-03-02T11:04:32.000Z</time>
      </trkpt>
      <trkpt lat="45.33648" lon="6.20099">
        <ele>2383.3999023438</ele>
        <time>2014-03-02T11:04:33.000Z</time>
      </trkpt>
      <trkpt lat="45.33648" lon="6.20099">
        <ele>2383.3999023438</ele>
        <time>2014-03-02T11:04:34.000Z</time>
      </trkpt>
      <trkpt lat="45.33648" lon="6.20099">
        <ele>2383.3999023438</ele>
        <time>2014-03-02T11:04:35.000Z</time>
      </trkpt>
      <trkpt lat="45.33648" lon="6.20099">
        <ele>2383.3999023438</ele>
        <time>2014-03-02T11:04:39.000Z</time>
      </trkpt>
      <trkpt lat="45.33648" lon="6.20099">
        <ele>2383.3999023438</ele>
        <time>2014-03-02T11:04:40.000Z</time>
      </trkpt>
      <trkpt lat="45.33648" lon="6.20099">
        <ele>2383.3999023438</ele>
        <time>2014-03-02T11:04:41.000Z</time>
      </trkpt>
      <trkpt lat="45.33648" lon="6.20099">
        <ele>2383.3999023438</ele>
        <time>2014-03-02T11:04:42.000Z</time>
      </trkpt>
      <trkpt lat="45.33648" lon="6.20099">
        <ele>2383.3999023438</ele>
        <time>2014-03-02T11:04:43.000Z</time>
      </trkpt>
      <trkpt lat="45.33648" lon="6.20099">
        <ele>2383.3999023438</ele>
        <time>2014-03-02T11:04:44.000Z</time>
      </trkpt>
      <trkpt lat="45.33648" lon="6.20099">
        <ele>2383.6000976562</ele>
        <time>2014-03-02T11:04:45.000Z</time>
      </trkpt>
      <trkpt lat="45.33648" lon="6.20099">
        <ele>2383.6000976562</ele>
        <time>2014-03-02T11:04:46.000Z</time>
      </trkpt>
      <trkpt lat="45.33648" lon="6.20099">
        <ele>2383.6000976562</ele>
        <time>2014-03-02T11:04:47.000Z</time>
      </trkpt>
      <trkpt lat="45.33648" lon="6.20099">
        <ele>2383.6000976562</ele>
        <time>2014-03-02T11:04:48.000Z</time>
      </trkpt>
      <trkpt lat="45.33648" lon="6.20099">
        <ele>2383.6000976562</ele>
        <time>2014-03-02T11:04:52.000Z</time>
      </trkpt>
      <trkpt lat="45.33648" lon="6.20099">
        <ele>2383.6000976562</ele>
        <time>2014-03-02T11:04:53.000Z</time>
      </trkpt>
      <trkpt lat="45.33648" lon="6.20099">
        <ele>2383.6000976562</ele>
        <time>2014-03-02T11:04:54.000Z</time>
      </trkpt>
      <trkpt lat="45.33648" lon="6.20099">
        <ele>2383.6000976562</ele>
        <time>2014-03-02T11:04:55.000Z</time>
      </trkpt>
      <trkpt lat="45.33648" lon="6.20099">
        <ele>2383.6000976562</ele>
        <time>2014-03-02T11:04:56.000Z</time>
      </trkpt>
      <trkpt lat="45.33648" lon="6.20099">
        <ele>2383.6000976562</ele>
        <time>2014-03-02T11:04:57.000Z</time>
      </trkpt>
      <trkpt lat="45.33648" lon="6.20099">
        <ele>2383.6000976562</ele>
        <time>2014-03-02T11:04:58.000Z</time>
      </trkpt>
      <trkpt lat="45.33648" lon="6.20099">
        <ele>2383.6000976562</ele>
        <time>2014-03-02T11:04:59.000Z</time>
      </trkpt>
      <trkpt lat="45.33648" lon="6.20099">
        <ele>2383.6000976562</ele>
        <time>2014-03-02T11:05:00.000Z</time>
      </trkpt>
      <trkpt lat="45.33648" lon="6.20099">
        <ele>2383.6000976562</ele>
        <time>2014-03-02T11:05:01.000Z</time>
      </trkpt>
      <trkpt lat="45.33648" lon="6.20099">
        <ele>2383.6000976562</ele>
        <time>2014-03-02T11:05:04.000Z</time>
      </trkpt>
      <trkpt lat="45.33648" lon="6.20099">
        <ele>2383.6000976562</ele>
        <time>2014-03-02T11:05:05.000Z</time>
      </trkpt>
      <trkpt lat="45.33648" lon="6.20099">
        <ele>2383.6000976562</ele>
        <time>2014-03-02T11:05:06.000Z</time>
      </trkpt>
      <trkpt lat="45.33648" lon="6.20099">
        <ele>2383.6000976562</ele>
        <time>2014-03-02T11:05:07.000Z</time>
      </trkpt>
      <trkpt lat="45.33648" lon="6.20099">
        <ele>2383.6000976562</ele>
        <time>2014-03-02T11:05:08.000Z</time>
      </trkpt>
      <trkpt lat="45.33648" lon="6.20099">
        <ele>2383.6000976562</ele>
        <time>2014-03-02T11:05:09.000Z</time>
      </trkpt>
      <trkpt lat="45.33648" lon="6.20099">
        <ele>2383.6000976562</ele>
        <time>2014-03-02T11:05:10.000Z</time>
      </trkpt>
      <trkpt lat="45.33648" lon="6.20099">
        <ele>2383.6000976562</ele>
        <time>2014-03-02T11:05:11.000Z</time>
      </trkpt>
      <trkpt lat="45.33648" lon="6.20099">
        <ele>2383.6000976562</ele>
        <time>2014-03-02T11:05:12.000Z</time>
      </trkpt>
      <trkpt lat="45.33648" lon="6.20099">
        <ele>2383.6000976562</ele>
        <time>2014-03-02T11:05:13.000Z</time>
      </trkpt>
      <trkpt lat="45.33648" lon="6.20099">
        <ele>2383.6000976562</ele>
        <time>2014-03-02T11:05:15.000Z</time>
      </trkpt>
      <trkpt lat="45.33648" lon="6.20099">
        <ele>2383.6000976562</ele>
        <time>2014-03-02T11:05:17.000Z</time>
      </trkpt>
      <trkpt lat="45.33648" lon="6.20099">
        <ele>2383.6000976562</ele>
        <time>2014-03-02T11:05:19.000Z</time>
      </trkpt>
      <trkpt lat="45.33648" lon="6.20099">
        <ele>2383.6000976562</ele>
        <time>2014-03-02T11:05:20.000Z</time>
      </trkpt>
      <trkpt lat="45.33648" lon="6.20099">
        <ele>2383.6000976562</ele>
        <time>2014-03-02T11:05:22.000Z</time>
      </trkpt>
      <trkpt lat="45.33648" lon="6.20099">
        <ele>2383.6000976562</ele>
        <time>2014-03-02T11:05:23.000Z</time>
      </trkpt>
      <trkpt lat="45.33648" lon="6.20099">
        <ele>2383.6000976562</ele>
        <time>2014-03-02T11:05:24.000Z</time>
      </trkpt>
      <trkpt lat="45.33648" lon="6.20099">
        <ele>2383.6000976562</ele>
        <time>2014-03-02T11:05:25.000Z</time>
      </trkpt>
      <trkpt lat="45.33648" lon="6.20099">
        <ele>2383.6000976562</ele>
        <time>2014-03-02T11:05:26.000Z</time>
      </trkpt>
      <trkpt lat="45.33648" lon="6.20099">
        <ele>2383.6000976562</ele>
        <time>2014-03-02T11:05:27.000Z</time>
      </trkpt>
      <trkpt lat="45.33648" lon="6.20099">
        <ele>2383.6000976562</ele>
        <time>2014-03-02T11:05:28.000Z</time>
      </trkpt>
      <trkpt lat="45.33648" lon="6.20099">
        <ele>2383.6000976562</ele>
        <time>2014-03-02T11:05:30.000Z</time>
      </trkpt>
      <trkpt lat="45.33648" lon="6.20099">
        <ele>2383.6000976562</ele>
        <time>2014-03-02T11:05:31.000Z</time>
      </trkpt>
      <trkpt lat="45.33648" lon="6.20099">
        <ele>2383.6000976562</ele>
        <time>2014-03-02T11:05:32.000Z</time>
      </trkpt>
      <trkpt lat="45.33648" lon="6.20099">
        <ele>2383.6000976562</ele>
        <time>2014-03-02T11:05:33.000Z</time>
      </trkpt>
      <trkpt lat="45.33648" lon="6.20099">
        <ele>2383.6000976562</ele>
        <time>2014-03-02T11:05:34.000Z</time>
      </trkpt>
      <trkpt lat="45.33648" lon="6.20099">
        <ele>2383.6000976562</ele>
        <time>2014-03-02T11:05:35.000Z</time>
      </trkpt>
      <trkpt lat="45.33648" lon="6.20099">
        <ele>2383.6000976562</ele>
        <time>2014-03-02T11:05:36.000Z</time>
      </trkpt>
      <trkpt lat="45.33648" lon="6.20099">
        <ele>2383.6000976562</ele>
        <time>2014-03-02T11:05:37.000Z</time>
      </trkpt>
      <trkpt lat="45.33648" lon="6.20099">
        <ele>2383.6000976562</ele>
        <time>2014-03-02T11:05:38.000Z</time>
      </trkpt>
      <trkpt lat="45.33648" lon="6.20099">
        <ele>2383.6000976562</ele>
        <time>2014-03-02T11:05:39.000Z</time>
      </trkpt>
      <trkpt lat="45.33648" lon="6.20099">
        <ele>2383.6000976562</ele>
        <time>2014-03-02T11:05:40.000Z</time>
      </trkpt>
      <trkpt lat="45.33648" lon="6.20099">
        <ele>2383.6000976562</ele>
        <time>2014-03-02T11:05:41.000Z</time>
      </trkpt>
      <trkpt lat="45.33648" lon="6.20099">
        <ele>2383.6000976562</ele>
        <time>2014-03-02T11:05:42.000Z</time>
      </trkpt>
      <trkpt lat="45.33648" lon="6.20099">
        <ele>2383.6000976562</ele>
        <time>2014-03-02T11:05:43.000Z</time>
      </trkpt>
      <trkpt lat="45.33648" lon="6.20099">
        <ele>2383.6000976562</ele>
        <time>2014-03-02T11:05:44.000Z</time>
      </trkpt>
      <trkpt lat="45.33648" lon="6.20099">
        <ele>2383.6000976562</ele>
        <time>2014-03-02T11:05:45.000Z</time>
      </trkpt>
      <trkpt lat="45.33648" lon="6.20099">
        <ele>2383.6000976562</ele>
        <time>2014-03-02T11:05:46.000Z</time>
      </trkpt>
      <trkpt lat="45.33648" lon="6.20099">
        <ele>2383.6000976562</ele>
        <time>2014-03-02T11:05:47.000Z</time>
      </trkpt>
      <trkpt lat="45.33648" lon="6.20099">
        <ele>2383.6000976562</ele>
        <time>2014-03-02T11:05:48.000Z</time>
      </trkpt>
      <trkpt lat="45.33648" lon="6.20099">
        <ele>2383.6000976562</ele>
        <time>2014-03-02T11:05:49.000Z</time>
      </trkpt>
      <trkpt lat="45.33648" lon="6.20099">
        <ele>2383.6000976562</ele>
        <time>2014-03-02T11:05:50.000Z</time>
      </trkpt>
      <trkpt lat="45.33648" lon="6.20099">
        <ele>2383.6000976562</ele>
        <time>2014-03-02T11:05:51.000Z</time>
      </trkpt>
      <trkpt lat="45.33648" lon="6.20099">
        <ele>2383.6000976562</ele>
        <time>2014-03-02T11:05:52.000Z</time>
      </trkpt>
      <trkpt lat="45.33648" lon="6.20099">
        <ele>2383.6000976562</ele>
        <time>2014-03-02T11:05:53.000Z</time>
      </trkpt>
      <trkpt lat="45.33648" lon="6.20099">
        <ele>2383.6000976562</ele>
        <time>2014-03-02T11:05:54.000Z</time>
      </trkpt>
      <trkpt lat="45.33648" lon="6.20099">
        <ele>2383.6000976562</ele>
        <time>2014-03-02T11:05:56.000Z</time>
      </trkpt>
      <trkpt lat="45.33648" lon="6.20099">
        <ele>2383.6000976562</ele>
        <time>2014-03-02T11:05:57.000Z</time>
      </trkpt>
      <trkpt lat="45.33648" lon="6.20099">
        <ele>2383.6000976562</ele>
        <time>2014-03-02T11:05:58.000Z</time>
      </trkpt>
      <trkpt lat="45.33648" lon="6.20099">
        <ele>2383.6000976562</ele>
        <time>2014-03-02T11:05:59.000Z</time>
      </trkpt>
      <trkpt lat="45.33648" lon="6.20099">
        <ele>2383.6000976562</ele>
        <time>2014-03-02T11:06:01.000Z</time>
      </trkpt>
      <trkpt lat="45.33648" lon="6.20099">
        <ele>2383.6000976562</ele>
        <time>2014-03-02T11:06:02.000Z</time>
      </trkpt>
      <trkpt lat="45.33648" lon="6.20099">
        <ele>2383.6000976562</ele>
        <time>2014-03-02T11:06:03.000Z</time>
      </trkpt>
      <trkpt lat="45.33648" lon="6.20099">
        <ele>2383.6000976562</ele>
        <time>2014-03-02T11:06:04.000Z</time>
      </trkpt>
      <trkpt lat="45.33648" lon="6.20099">
        <ele>2383.6000976562</ele>
        <time>2014-03-02T11:06:05.000Z</time>
      </trkpt>
      <trkpt lat="45.33648" lon="6.20099">
        <ele>2383.6000976562</ele>
        <time>2014-03-02T11:06:06.000Z</time>
      </trkpt>
      <trkpt lat="45.33648" lon="6.20099">
        <ele>2383.6000976562</ele>
        <time>2014-03-02T11:06:07.000Z</time>
      </trkpt>
      <trkpt lat="45.33648" lon="6.20099">
        <ele>2383.6000976562</ele>
        <time>2014-03-02T11:06:08.000Z</time>
      </trkpt>
      <trkpt lat="45.33648" lon="6.20099">
        <ele>2383.6000976562</ele>
        <time>2014-03-02T11:06:09.000Z</time>
      </trkpt>
      <trkpt lat="45.33648" lon="6.20099">
        <ele>2383.6000976562</ele>
        <time>2014-03-02T11:06:10.000Z</time>
      </trkpt>
      <trkpt lat="45.33648" lon="6.20099">
        <ele>2383.6000976562</ele>
        <time>2014-03-02T11:06:11.000Z</time>
      </trkpt>
      <trkpt lat="45.33648" lon="6.20099">
        <ele>2383.6000976562</ele>
        <time>2014-03-02T11:06:12.000Z</time>
      </trkpt>
      <trkpt lat="45.33648" lon="6.20099">
        <ele>2383.6000976562</ele>
        <time>2014-03-02T11:06:13.000Z</time>
      </trkpt>
      <trkpt lat="45.33648" lon="6.20099">
        <ele>2383.6000976562</ele>
        <time>2014-03-02T11:06:15.000Z</time>
      </trkpt>
      <trkpt lat="45.33648" lon="6.20099">
        <ele>2383.6000976562</ele>
        <time>2014-03-02T11:06:16.000Z</time>
      </trkpt>
      <trkpt lat="45.33648" lon="6.20099">
        <ele>2383.6000976562</ele>
        <time>2014-03-02T11:06:17.000Z</time>
      </trkpt>
      <trkpt lat="45.33648" lon="6.20099">
        <ele>2383.6000976562</ele>
        <time>2014-03-02T11:06:18.000Z</time>
      </trkpt>
      <trkpt lat="45.33648" lon="6.20099">
        <ele>2383.6000976562</ele>
        <time>2014-03-02T11:06:19.000Z</time>
      </trkpt>
      <trkpt lat="45.33648" lon="6.20099">
        <ele>2383.6000976562</ele>
        <time>2014-03-02T11:06:20.000Z</time>
      </trkpt>
      <trkpt lat="45.33648" lon="6.20099">
        <ele>2383.6000976562</ele>
        <time>2014-03-02T11:06:21.000Z</time>
      </trkpt>
      <trkpt lat="45.33648" lon="6.20099">
        <ele>2383.6000976562</ele>
        <time>2014-03-02T11:06:22.000Z</time>
      </trkpt>
      <trkpt lat="45.33648" lon="6.20099">
        <ele>2383.6000976562</ele>
        <time>2014-03-02T11:06:23.000Z</time>
      </trkpt>
      <trkpt lat="45.33648" lon="6.20099">
        <ele>2383.6000976562</ele>
        <time>2014-03-02T11:06:24.000Z</time>
      </trkpt>
      <trkpt lat="45.33648" lon="6.20099">
        <ele>2383.6000976562</ele>
        <time>2014-03-02T11:06:25.000Z</time>
      </trkpt>
      <trkpt lat="45.33648" lon="6.20099">
        <ele>2383.6000976562</ele>
        <time>2014-03-02T11:06:26.000Z</time>
      </trkpt>
      <trkpt lat="45.33648" lon="6.20099">
        <ele>2383.6000976562</ele>
        <time>2014-03-02T11:06:27.000Z</time>
      </trkpt>
      <trkpt lat="45.33648" lon="6.20099">
        <ele>2383.6000976562</ele>
        <time>2014-03-02T11:06:28.000Z</time>
      </trkpt>
      <trkpt lat="45.33648" lon="6.20099">
        <ele>2383.6000976562</ele>
        <time>2014-03-02T11:06:29.000Z</time>
      </trkpt>
      <trkpt lat="45.33648" lon="6.20099">
        <ele>2383.6000976562</ele>
        <time>2014-03-02T11:06:30.000Z</time>
      </trkpt>
      <trkpt lat="45.33648" lon="6.20099">
        <ele>2383.6000976562</ele>
        <time>2014-03-02T11:06:31.000Z</time>
      </trkpt>
      <trkpt lat="45.33648" lon="6.20099">
        <ele>2383.6000976562</ele>
        <time>2014-03-02T11:06:34.000Z</time>
      </trkpt>
      <trkpt lat="45.33648" lon="6.20099">
        <ele>2383.6000976562</ele>
        <time>2014-03-02T11:06:35.000Z</time>
      </trkpt>
      <trkpt lat="45.33648" lon="6.20099">
        <ele>2383.6000976562</ele>
        <time>2014-03-02T11:06:36.000Z</time>
      </trkpt>
      <trkpt lat="45.33648" lon="6.20099">
        <ele>2383.6000976562</ele>
        <time>2014-03-02T11:06:37.000Z</time>
      </trkpt>
      <trkpt lat="45.33648" lon="6.20099">
        <ele>2383.6000976562</ele>
        <time>2014-03-02T11:06:38.000Z</time>
      </trkpt>
      <trkpt lat="45.33648" lon="6.20099">
        <ele>2383.6000976562</ele>
        <time>2014-03-02T11:06:39.000Z</time>
      </trkpt>
      <trkpt lat="45.33648" lon="6.20099">
        <ele>2383.6000976562</ele>
        <time>2014-03-02T11:06:40.000Z</time>
      </trkpt>
      <trkpt lat="45.33648" lon="6.20099">
        <ele>2383.6000976562</ele>
        <time>2014-03-02T11:06:41.000Z</time>
      </trkpt>
      <trkpt lat="45.33648" lon="6.20099">
        <ele>2383.6000976562</ele>
        <time>2014-03-02T11:06:43.000Z</time>
      </trkpt>
      <trkpt lat="45.33648" lon="6.20099">
        <ele>2383.6000976562</ele>
        <time>2014-03-02T11:06:44.000Z</time>
      </trkpt>
      <trkpt lat="45.33648" lon="6.20099">
        <ele>2383.6000976562</ele>
        <time>2014-03-02T11:06:45.000Z</time>
      </trkpt>
      <trkpt lat="45.33648" lon="6.20099">
        <ele>2383.6000976562</ele>
        <time>2014-03-02T11:06:46.000Z</time>
      </trkpt>
      <trkpt lat="45.33648" lon="6.20099">
        <ele>2383.6000976562</ele>
        <time>2014-03-02T11:06:47.000Z</time>
      </trkpt>
      <trkpt lat="45.33648" lon="6.20099">
        <ele>2383.6000976562</ele>
        <time>2014-03-02T11:06:48.000Z</time>
      </trkpt>
      <trkpt lat="45.33648" lon="6.20099">
        <ele>2383.6000976562</ele>
        <time>2014-03-02T11:06:57.000Z</time>
      </trkpt>
      <trkpt lat="45.33648" lon="6.20099">
        <ele>2383.6000976562</ele>
        <time>2014-03-02T11:06:58.000Z</time>
      </trkpt>
      <trkpt lat="45.33648" lon="6.20099">
        <ele>2383.6000976562</ele>
        <time>2014-03-02T11:06:59.000Z</time>
      </trkpt>
      <trkpt lat="45.33648" lon="6.20099">
        <ele>2383.6000976562</ele>
        <time>2014-03-02T11:07:00.000Z</time>
      </trkpt>
      <trkpt lat="45.33648" lon="6.20099">
        <ele>2383.6000976562</ele>
        <time>2014-03-02T11:07:01.000Z</time>
      </trkpt>
      <trkpt lat="45.33648" lon="6.20099">
        <ele>2383.6000976562</ele>
        <time>2014-03-02T11:07:02.000Z</time>
      </trkpt>
      <trkpt lat="45.33648" lon="6.20099">
        <ele>2383.6000976562</ele>
        <time>2014-03-02T11:07:03.000Z</time>
      </trkpt>
      <trkpt lat="45.33648" lon="6.20099">
        <ele>2383.6000976562</ele>
        <time>2014-03-02T11:07:04.000Z</time>
      </trkpt>
      <trkpt lat="45.33648" lon="6.20099">
        <ele>2383.6000976562</ele>
        <time>2014-03-02T11:07:05.000Z</time>
      </trkpt>
      <trkpt lat="45.33648" lon="6.20099">
        <ele>2383.6000976562</ele>
        <time>2014-03-02T11:07:06.000Z</time>
      </trkpt>
      <trkpt lat="45.33648" lon="6.20099">
        <ele>2383.6000976562</ele>
        <time>2014-03-02T11:07:07.000Z</time>
      </trkpt>
      <trkpt lat="45.33648" lon="6.20099">
        <ele>2383.6000976562</ele>
        <time>2014-03-02T11:07:08.000Z</time>
      </trkpt>
      <trkpt lat="45.33648" lon="6.20099">
        <ele>2383.6000976562</ele>
        <time>2014-03-02T11:07:09.000Z</time>
      </trkpt>
      <trkpt lat="45.33648" lon="6.20099">
        <ele>2383.6000976562</ele>
        <time>2014-03-02T11:07:10.000Z</time>
      </trkpt>
      <trkpt lat="45.33648" lon="6.20099">
        <ele>2383.6000976562</ele>
        <time>2014-03-02T11:07:11.000Z</time>
      </trkpt>
      <trkpt lat="45.33648" lon="6.20099">
        <ele>2383.6000976562</ele>
        <time>2014-03-02T11:07:12.000Z</time>
      </trkpt>
      <trkpt lat="45.33648" lon="6.20099">
        <ele>2383.6000976562</ele>
        <time>2014-03-02T11:07:13.000Z</time>
      </trkpt>
      <trkpt lat="45.33648" lon="6.20099">
        <ele>2383.6000976562</ele>
        <time>2014-03-02T11:07:14.000Z</time>
      </trkpt>
      <trkpt lat="45.33648" lon="6.20099">
        <ele>2383.6000976562</ele>
        <time>2014-03-02T11:07:15.000Z</time>
      </trkpt>
      <trkpt lat="45.33648" lon="6.20099">
        <ele>2383.6000976562</ele>
        <time>2014-03-02T11:07:16.000Z</time>
      </trkpt>
      <trkpt lat="45.33648" lon="6.20099">
        <ele>2383.6000976562</ele>
        <time>2014-03-02T11:07:17.000Z</time>
      </trkpt>
      <trkpt lat="45.33648" lon="6.20099">
        <ele>2383.6000976562</ele>
        <time>2014-03-02T11:07:18.000Z</time>
      </trkpt>
      <trkpt lat="45.33648" lon="6.20099">
        <ele>2383.6000976562</ele>
        <time>2014-03-02T11:07:19.000Z</time>
      </trkpt>
      <trkpt lat="45.33648" lon="6.20099">
        <ele>2383.6000976562</ele>
        <time>2014-03-02T11:07:20.000Z</time>
      </trkpt>
      <trkpt lat="45.33648" lon="6.20099">
        <ele>2383.6000976562</ele>
        <time>2014-03-02T11:07:21.000Z</time>
      </trkpt>
      <trkpt lat="45.33648" lon="6.20099">
        <ele>2383.6000976562</ele>
        <time>2014-03-02T11:07:22.000Z</time>
      </trkpt>
      <trkpt lat="45.33648" lon="6.20099">
        <ele>2383.6000976562</ele>
        <time>2014-03-02T11:07:23.000Z</time>
      </trkpt>
      <trkpt lat="45.33648" lon="6.20099">
        <ele>2383.6000976562</ele>
        <time>2014-03-02T11:07:24.000Z</time>
      </trkpt>
      <trkpt lat="45.33647" lon="6.20099">
        <ele>2383.8000488281</ele>
        <time>2014-03-02T11:07:25.000Z</time>
      </trkpt>
      <trkpt lat="45.33647" lon="6.20099">
        <ele>2383.8000488281</ele>
        <time>2014-03-02T11:07:26.000Z</time>
      </trkpt>
      <trkpt lat="45.33647" lon="6.20099">
        <ele>2383.8000488281</ele>
        <time>2014-03-02T11:07:27.000Z</time>
      </trkpt>
      <trkpt lat="45.33647" lon="6.20099">
        <ele>2383.8000488281</ele>
        <time>2014-03-02T11:07:28.000Z</time>
      </trkpt>
      <trkpt lat="45.33647" lon="6.20099">
        <ele>2383.8000488281</ele>
        <time>2014-03-02T11:07:29.000Z</time>
      </trkpt>
      <trkpt lat="45.33647" lon="6.20099">
        <ele>2383.8000488281</ele>
        <time>2014-03-02T11:07:30.000Z</time>
      </trkpt>
      <trkpt lat="45.33647" lon="6.20099">
        <ele>2383.8000488281</ele>
        <time>2014-03-02T11:07:31.000Z</time>
      </trkpt>
      <trkpt lat="45.33647" lon="6.20099">
        <ele>2383.8000488281</ele>
        <time>2014-03-02T11:07:32.000Z</time>
      </trkpt>
      <trkpt lat="45.33647" lon="6.20099">
        <ele>2383.8000488281</ele>
        <time>2014-03-02T11:07:33.000Z</time>
      </trkpt>
      <trkpt lat="45.33647" lon="6.20099">
        <ele>2383.8000488281</ele>
        <time>2014-03-02T11:07:34.000Z</time>
      </trkpt>
      <trkpt lat="45.33647" lon="6.20099">
        <ele>2383.8000488281</ele>
        <time>2014-03-02T11:07:35.000Z</time>
      </trkpt>
      <trkpt lat="45.33647" lon="6.20099">
        <ele>2383.8000488281</ele>
        <time>2014-03-02T11:07:37.000Z</time>
      </trkpt>
      <trkpt lat="45.33647" lon="6.20099">
        <ele>2383.8000488281</ele>
        <time>2014-03-02T11:07:39.000Z</time>
      </trkpt>
      <trkpt lat="45.33647" lon="6.20099">
        <ele>2383.8000488281</ele>
        <time>2014-03-02T11:07:40.000Z</time>
      </trkpt>
      <trkpt lat="45.33647" lon="6.20099">
        <ele>2383.8000488281</ele>
        <time>2014-03-02T11:07:41.000Z</time>
      </trkpt>
      <trkpt lat="45.33647" lon="6.20099">
        <ele>2383.8000488281</ele>
        <time>2014-03-02T11:07:42.000Z</time>
      </trkpt>
      <trkpt lat="45.33647" lon="6.20099">
        <ele>2383.8000488281</ele>
        <time>2014-03-02T11:07:43.000Z</time>
      </trkpt>
      <trkpt lat="45.33647" lon="6.20099">
        <ele>2383.8000488281</ele>
        <time>2014-03-02T11:07:44.000Z</time>
      </trkpt>
      <trkpt lat="45.33647" lon="6.20099">
        <ele>2383.8000488281</ele>
        <time>2014-03-02T11:07:45.000Z</time>
      </trkpt>
      <trkpt lat="45.33647" lon="6.20099">
        <ele>2383.8000488281</ele>
        <time>2014-03-02T11:07:46.000Z</time>
      </trkpt>
      <trkpt lat="45.33647" lon="6.20099">
        <ele>2383.8000488281</ele>
        <time>2014-03-02T11:07:47.000Z</time>
      </trkpt>
      <trkpt lat="45.33647" lon="6.20099">
        <ele>2383.8000488281</ele>
        <time>2014-03-02T11:07:48.000Z</time>
      </trkpt>
      <trkpt lat="45.33647" lon="6.20099">
        <ele>2383.8000488281</ele>
        <time>2014-03-02T11:07:50.000Z</time>
      </trkpt>
      <trkpt lat="45.33647" lon="6.20099">
        <ele>2383.8000488281</ele>
        <time>2014-03-02T11:07:51.000Z</time>
      </trkpt>
      <trkpt lat="45.33647" lon="6.20099">
        <ele>2383.8000488281</ele>
        <time>2014-03-02T11:07:52.000Z</time>
      </trkpt>
      <trkpt lat="45.33647" lon="6.20099">
        <ele>2383.8000488281</ele>
        <time>2014-03-02T11:07:53.000Z</time>
      </trkpt>
      <trkpt lat="45.33647" lon="6.20099">
        <ele>2383.8000488281</ele>
        <time>2014-03-02T11:07:55.000Z</time>
      </trkpt>
      <trkpt lat="45.33647" lon="6.20099">
        <ele>2383.8000488281</ele>
        <time>2014-03-02T11:07:56.000Z</time>
      </trkpt>
      <trkpt lat="45.33647" lon="6.20099">
        <ele>2383.8000488281</ele>
        <time>2014-03-02T11:07:58.000Z</time>
      </trkpt>
      <trkpt lat="45.33647" lon="6.20099">
        <ele>2383.8000488281</ele>
        <time>2014-03-02T11:07:59.000Z</time>
      </trkpt>
      <trkpt lat="45.33647" lon="6.20099">
        <ele>2383.8000488281</ele>
        <time>2014-03-02T11:08:00.000Z</time>
      </trkpt>
      <trkpt lat="45.33647" lon="6.20099">
        <ele>2383.8000488281</ele>
        <time>2014-03-02T11:08:01.000Z</time>
      </trkpt>
      <trkpt lat="45.33647" lon="6.20099">
        <ele>2383.8000488281</ele>
        <time>2014-03-02T11:08:02.000Z</time>
      </trkpt>
      <trkpt lat="45.33647" lon="6.20099">
        <ele>2383.8000488281</ele>
        <time>2014-03-02T11:08:03.000Z</time>
      </trkpt>
      <trkpt lat="45.33647" lon="6.20099">
        <ele>2383.8000488281</ele>
        <time>2014-03-02T11:08:04.000Z</time>
      </trkpt>
      <trkpt lat="45.33647" lon="6.20099">
        <ele>2383.8000488281</ele>
        <time>2014-03-02T11:08:05.000Z</time>
      </trkpt>
      <trkpt lat="45.33647" lon="6.20099">
        <ele>2383.8000488281</ele>
        <time>2014-03-02T11:08:06.000Z</time>
      </trkpt>
      <trkpt lat="45.33647" lon="6.20099">
        <ele>2383.8000488281</ele>
        <time>2014-03-02T11:08:07.000Z</time>
      </trkpt>
      <trkpt lat="45.33647" lon="6.20099">
        <ele>2383.8000488281</ele>
        <time>2014-03-02T11:08:09.000Z</time>
      </trkpt>
      <trkpt lat="45.33647" lon="6.20099">
        <ele>2383.8000488281</ele>
        <time>2014-03-02T11:08:10.000Z</time>
      </trkpt>
      <trkpt lat="45.33647" lon="6.20099">
        <ele>2383.8000488281</ele>
        <time>2014-03-02T11:08:14.000Z</time>
      </trkpt>
      <trkpt lat="45.33647" lon="6.20099">
        <ele>2383.8000488281</ele>
        <time>2014-03-02T11:08:15.000Z</time>
      </trkpt>
      <trkpt lat="45.33647" lon="6.20099">
        <ele>2383.8000488281</ele>
        <time>2014-03-02T11:08:21.000Z</time>
      </trkpt>
      <trkpt lat="45.33647" lon="6.20099">
        <ele>2383.8000488281</ele>
        <time>2014-03-02T11:08:22.000Z</time>
      </trkpt>
      <trkpt lat="45.33647" lon="6.20099">
        <ele>2383.8000488281</ele>
        <time>2014-03-02T11:08:23.000Z</time>
      </trkpt>
      <trkpt lat="45.33647" lon="6.20099">
        <ele>2383.8000488281</ele>
        <time>2014-03-02T11:08:26.000Z</time>
      </trkpt>
      <trkpt lat="45.33647" lon="6.20099">
        <ele>2383.8000488281</ele>
        <time>2014-03-02T11:08:27.000Z</time>
      </trkpt>
      <trkpt lat="45.33647" lon="6.20099">
        <ele>2383.8000488281</ele>
        <time>2014-03-02T11:08:28.000Z</time>
      </trkpt>
      <trkpt lat="45.33647" lon="6.20099">
        <ele>2383.8000488281</ele>
        <time>2014-03-02T11:08:29.000Z</time>
      </trkpt>
      <trkpt lat="45.33647" lon="6.20099">
        <ele>2383.8000488281</ele>
        <time>2014-03-02T11:08:30.000Z</time>
      </trkpt>
      <trkpt lat="45.33647" lon="6.20099">
        <ele>2383.8000488281</ele>
        <time>2014-03-02T11:08:32.000Z</time>
      </trkpt>
      <trkpt lat="45.33647" lon="6.20099">
        <ele>2383.8000488281</ele>
        <time>2014-03-02T11:08:33.000Z</time>
      </trkpt>
      <trkpt lat="45.33647" lon="6.20099">
        <ele>2383.8000488281</ele>
        <time>2014-03-02T11:08:35.000Z</time>
      </trkpt>
      <trkpt lat="45.33647" lon="6.20099">
        <ele>2383.8000488281</ele>
        <time>2014-03-02T11:08:36.000Z</time>
      </trkpt>
      <trkpt lat="45.33647" lon="6.20099">
        <ele>2383.8000488281</ele>
        <time>2014-03-02T11:08:37.000Z</time>
      </trkpt>
      <trkpt lat="45.33647" lon="6.20099">
        <ele>2383.8000488281</ele>
        <time>2014-03-02T11:08:38.000Z</time>
      </trkpt>
      <trkpt lat="45.33647" lon="6.20099">
        <ele>2383.8000488281</ele>
        <time>2014-03-02T11:08:39.000Z</time>
      </trkpt>
      <trkpt lat="45.33647" lon="6.20099">
        <ele>2383.8000488281</ele>
        <time>2014-03-02T11:08:40.000Z</time>
      </trkpt>
      <trkpt lat="45.33647" lon="6.20099">
        <ele>2383.8000488281</ele>
        <time>2014-03-02T11:08:42.000Z</time>
      </trkpt>
      <trkpt lat="45.33647" lon="6.20099">
        <ele>2383.8000488281</ele>
        <time>2014-03-02T11:08:43.000Z</time>
      </trkpt>
      <trkpt lat="45.33647" lon="6.20099">
        <ele>2383.8000488281</ele>
        <time>2014-03-02T11:08:44.000Z</time>
      </trkpt>
      <trkpt lat="45.33647" lon="6.20099">
        <ele>2383.8000488281</ele>
        <time>2014-03-02T11:08:45.000Z</time>
      </trkpt>
      <trkpt lat="45.33647" lon="6.20099">
        <ele>2383.8000488281</ele>
        <time>2014-03-02T11:08:46.000Z</time>
      </trkpt>
      <trkpt lat="45.33647" lon="6.20099">
        <ele>2383.8000488281</ele>
        <time>2014-03-02T11:08:47.000Z</time>
      </trkpt>
      <trkpt lat="45.33647" lon="6.20099">
        <ele>2383.8000488281</ele>
        <time>2014-03-02T11:08:50.000Z</time>
      </trkpt>
      <trkpt lat="45.33647" lon="6.20099">
        <ele>2383.8000488281</ele>
        <time>2014-03-02T11:08:51.000Z</time>
      </trkpt>
      <trkpt lat="45.33647" lon="6.20099">
        <ele>2383.8000488281</ele>
        <time>2014-03-02T11:08:52.000Z</time>
      </trkpt>
      <trkpt lat="45.33647" lon="6.20099">
        <ele>2383.8000488281</ele>
        <time>2014-03-02T11:08:53.000Z</time>
      </trkpt>
      <trkpt lat="45.33647" lon="6.20099">
        <ele>2383.8000488281</ele>
        <time>2014-03-02T11:08:54.000Z</time>
      </trkpt>
      <trkpt lat="45.33647" lon="6.20099">
        <ele>2383.8000488281</ele>
        <time>2014-03-02T11:08:55.000Z</time>
      </trkpt>
      <trkpt lat="45.33647" lon="6.20099">
        <ele>2383.8000488281</ele>
        <time>2014-03-02T11:08:56.000Z</time>
      </trkpt>
      <trkpt lat="45.33647" lon="6.20099">
        <ele>2383.8000488281</ele>
        <time>2014-03-02T11:08:57.000Z</time>
      </trkpt>
      <trkpt lat="45.33647" lon="6.20099">
        <ele>2383.8000488281</ele>
        <time>2014-03-02T11:08:58.000Z</time>
      </trkpt>
      <trkpt lat="45.33647" lon="6.20099">
        <ele>2383.8000488281</ele>
        <time>2014-03-02T11:08:59.000Z</time>
      </trkpt>
      <trkpt lat="45.33647" lon="6.20099">
        <ele>2383.8000488281</ele>
        <time>2014-03-02T11:09:00.000Z</time>
      </trkpt>
      <trkpt lat="45.33647" lon="6.20099">
        <ele>2383.8000488281</ele>
        <time>2014-03-02T11:09:01.000Z</time>
      </trkpt>
      <trkpt lat="45.33647" lon="6.20099">
        <ele>2383.8000488281</ele>
        <time>2014-03-02T11:09:03.000Z</time>
      </trkpt>
      <trkpt lat="45.33647" lon="6.20099">
        <ele>2383.8000488281</ele>
        <time>2014-03-02T11:09:04.000Z</time>
      </trkpt>
      <trkpt lat="45.33647" lon="6.20099">
        <ele>2383.8000488281</ele>
        <time>2014-03-02T11:09:05.000Z</time>
      </trkpt>
      <trkpt lat="45.33647" lon="6.20099">
        <ele>2383.8000488281</ele>
        <time>2014-03-02T11:09:06.000Z</time>
      </trkpt>
      <trkpt lat="45.33647" lon="6.20099">
        <ele>2383.8000488281</ele>
        <time>2014-03-02T11:09:07.000Z</time>
      </trkpt>
      <trkpt lat="45.33647" lon="6.20099">
        <ele>2383.8000488281</ele>
        <time>2014-03-02T11:09:08.000Z</time>
      </trkpt>
      <trkpt lat="45.33647" lon="6.20099">
        <ele>2383.8000488281</ele>
        <time>2014-03-02T11:09:09.000Z</time>
      </trkpt>
      <trkpt lat="45.33647" lon="6.20099">
        <ele>2383.8000488281</ele>
        <time>2014-03-02T11:09:10.000Z</time>
      </trkpt>
      <trkpt lat="45.33647" lon="6.20099">
        <ele>2383.8000488281</ele>
        <time>2014-03-02T11:09:11.000Z</time>
      </trkpt>
      <trkpt lat="45.33647" lon="6.20099">
        <ele>2383.8000488281</ele>
        <time>2014-03-02T11:09:12.000Z</time>
      </trkpt>
      <trkpt lat="45.33647" lon="6.20099">
        <ele>2383.8000488281</ele>
        <time>2014-03-02T11:09:13.000Z</time>
      </trkpt>
      <trkpt lat="45.33647" lon="6.20099">
        <ele>2383.8000488281</ele>
        <time>2014-03-02T11:09:14.000Z</time>
      </trkpt>
      <trkpt lat="45.33647" lon="6.20099">
        <ele>2383.8000488281</ele>
        <time>2014-03-02T11:09:15.000Z</time>
      </trkpt>
      <trkpt lat="45.33647" lon="6.20099">
        <ele>2383.8000488281</ele>
        <time>2014-03-02T11:09:16.000Z</time>
      </trkpt>
      <trkpt lat="45.33647" lon="6.20099">
        <ele>2383.8000488281</ele>
        <time>2014-03-02T11:09:17.000Z</time>
      </trkpt>
      <trkpt lat="45.33647" lon="6.20099">
        <ele>2383.8000488281</ele>
        <time>2014-03-02T11:09:18.000Z</time>
      </trkpt>
      <trkpt lat="45.33647" lon="6.20099">
        <ele>2383.8000488281</ele>
        <time>2014-03-02T11:09:23.000Z</time>
      </trkpt>
      <trkpt lat="45.33647" lon="6.20099">
        <ele>2383.8000488281</ele>
        <time>2014-03-02T11:09:24.000Z</time>
      </trkpt>
      <trkpt lat="45.33647" lon="6.20099">
        <ele>2383.8000488281</ele>
        <time>2014-03-02T11:09:25.000Z</time>
      </trkpt>
      <trkpt lat="45.33647" lon="6.20099">
        <ele>2383.8000488281</ele>
        <time>2014-03-02T11:09:29.000Z</time>
      </trkpt>
      <trkpt lat="45.33647" lon="6.20099">
        <ele>2383.8000488281</ele>
        <time>2014-03-02T11:09:32.000Z</time>
      </trkpt>
      <trkpt lat="45.33647" lon="6.20099">
        <ele>2383.8000488281</ele>
        <time>2014-03-02T11:09:33.000Z</time>
      </trkpt>
      <trkpt lat="45.33647" lon="6.20099">
        <ele>2383.8000488281</ele>
        <time>2014-03-02T11:09:34.000Z</time>
      </trkpt>
      <trkpt lat="45.33647" lon="6.20099">
        <ele>2383.8000488281</ele>
        <time>2014-03-02T11:09:35.000Z</time>
      </trkpt>
      <trkpt lat="45.33647" lon="6.20099">
        <ele>2383.8000488281</ele>
        <time>2014-03-02T11:09:36.000Z</time>
      </trkpt>
      <trkpt lat="45.33647" lon="6.20099">
        <ele>2383.8000488281</ele>
        <time>2014-03-02T11:09:37.000Z</time>
      </trkpt>
      <trkpt lat="45.33647" lon="6.20099">
        <ele>2383.8000488281</ele>
        <time>2014-03-02T11:09:38.000Z</time>
      </trkpt>
      <trkpt lat="45.33647" lon="6.20099">
        <ele>2383.8000488281</ele>
        <time>2014-03-02T11:09:39.000Z</time>
      </trkpt>
      <trkpt lat="45.33647" lon="6.20099">
        <ele>2383.8000488281</ele>
        <time>2014-03-02T11:09:43.000Z</time>
      </trkpt>
      <trkpt lat="45.33647" lon="6.20099">
        <ele>2383.8000488281</ele>
        <time>2014-03-02T11:09:44.000Z</time>
      </trkpt>
      <trkpt lat="45.33647" lon="6.20099">
        <ele>2383.8000488281</ele>
        <time>2014-03-02T11:09:46.000Z</time>
      </trkpt>
      <trkpt lat="45.33647" lon="6.20099">
        <ele>2383.8000488281</ele>
        <time>2014-03-02T11:09:47.000Z</time>
      </trkpt>
      <trkpt lat="45.33647" lon="6.20099">
        <ele>2383.8000488281</ele>
        <time>2014-03-02T11:09:49.000Z</time>
      </trkpt>
      <trkpt lat="45.33647" lon="6.20099">
        <ele>2383.8000488281</ele>
        <time>2014-03-02T11:09:50.000Z</time>
      </trkpt>
      <trkpt lat="45.33647" lon="6.20099">
        <ele>2383.8000488281</ele>
        <time>2014-03-02T11:09:51.000Z</time>
      </trkpt>
      <trkpt lat="45.33647" lon="6.20099">
        <ele>2383.8000488281</ele>
        <time>2014-03-02T11:09:52.000Z</time>
      </trkpt>
      <trkpt lat="45.33647" lon="6.20099">
        <ele>2383.8000488281</ele>
        <time>2014-03-02T11:09:53.000Z</time>
      </trkpt>
      <trkpt lat="45.33647" lon="6.20099">
        <ele>2383.8000488281</ele>
        <time>2014-03-02T11:09:54.000Z</time>
      </trkpt>
      <trkpt lat="45.33647" lon="6.20099">
        <ele>2383.8000488281</ele>
        <time>2014-03-02T11:09:55.000Z</time>
      </trkpt>
      <trkpt lat="45.33647" lon="6.20099">
        <ele>2383.8000488281</ele>
        <time>2014-03-02T11:09:56.000Z</time>
      </trkpt>
      <trkpt lat="45.33647" lon="6.20099">
        <ele>2383.8000488281</ele>
        <time>2014-03-02T11:09:58.000Z</time>
      </trkpt>
      <trkpt lat="45.33647" lon="6.20099">
        <ele>2383.8000488281</ele>
        <time>2014-03-02T11:09:59.000Z</time>
      </trkpt>
      <trkpt lat="45.33647" lon="6.20099">
        <ele>2383.8000488281</ele>
        <time>2014-03-02T11:10:00.000Z</time>
      </trkpt>
      <trkpt lat="45.33647" lon="6.20099">
        <ele>2383.8000488281</ele>
        <time>2014-03-02T11:10:01.000Z</time>
      </trkpt>
      <trkpt lat="45.33647" lon="6.20099">
        <ele>2383.8000488281</ele>
        <time>2014-03-02T11:10:04.000Z</time>
      </trkpt>
      <trkpt lat="45.33647" lon="6.20099">
        <ele>2383.8000488281</ele>
        <time>2014-03-02T11:10:05.000Z</time>
      </trkpt>
      <trkpt lat="45.33647" lon="6.20098">
        <ele>2384</ele>
        <time>2014-03-02T11:10:06.000Z</time>
      </trkpt>
      <trkpt lat="45.33647" lon="6.20098">
        <ele>2384</ele>
        <time>2014-03-02T11:10:07.000Z</time>
      </trkpt>
      <trkpt lat="45.33647" lon="6.20098">
        <ele>2384</ele>
        <time>2014-03-02T11:10:08.000Z</time>
      </trkpt>
      <trkpt lat="45.33647" lon="6.20098">
        <ele>2384</ele>
        <time>2014-03-02T11:10:09.000Z</time>
      </trkpt>
      <trkpt lat="45.33647" lon="6.20098">
        <ele>2384</ele>
        <time>2014-03-02T11:10:10.000Z</time>
      </trkpt>
      <trkpt lat="45.33647" lon="6.20098">
        <ele>2384</ele>
        <time>2014-03-02T11:10:11.000Z</time>
      </trkpt>
      <trkpt lat="45.33647" lon="6.20098">
        <ele>2384</ele>
        <time>2014-03-02T11:10:12.000Z</time>
      </trkpt>
      <trkpt lat="45.33647" lon="6.20098">
        <ele>2384</ele>
        <time>2014-03-02T11:10:13.000Z</time>
      </trkpt>
      <trkpt lat="45.33647" lon="6.20098">
        <ele>2384</ele>
        <time>2014-03-02T11:10:14.000Z</time>
      </trkpt>
      <trkpt lat="45.33647" lon="6.20098">
        <ele>2384</ele>
        <time>2014-03-02T11:10:15.000Z</time>
      </trkpt>
      <trkpt lat="45.33647" lon="6.20098">
        <ele>2384</ele>
        <time>2014-03-02T11:10:18.000Z</time>
      </trkpt>
      <trkpt lat="45.33647" lon="6.20098">
        <ele>2384</ele>
        <time>2014-03-02T11:10:19.000Z</time>
      </trkpt>
      <trkpt lat="45.33647" lon="6.20098">
        <ele>2384</ele>
        <time>2014-03-02T11:10:20.000Z</time>
      </trkpt>
      <trkpt lat="45.33647" lon="6.20098">
        <ele>2384</ele>
        <time>2014-03-02T11:10:21.000Z</time>
      </trkpt>
      <trkpt lat="45.33647" lon="6.20098">
        <ele>2384</ele>
        <time>2014-03-02T11:10:22.000Z</time>
      </trkpt>
      <trkpt lat="45.33647" lon="6.20098">
        <ele>2384</ele>
        <time>2014-03-02T11:10:23.000Z</time>
      </trkpt>
      <trkpt lat="45.33647" lon="6.20098">
        <ele>2384</ele>
        <time>2014-03-02T11:10:24.000Z</time>
      </trkpt>
      <trkpt lat="45.33647" lon="6.20098">
        <ele>2384</ele>
        <time>2014-03-02T11:10:25.000Z</time>
      </trkpt>
      <trkpt lat="45.33647" lon="6.20098">
        <ele>2384</ele>
        <time>2014-03-02T11:10:27.000Z</time>
      </trkpt>
      <trkpt lat="45.33647" lon="6.20098">
        <ele>2384</ele>
        <time>2014-03-02T11:10:28.000Z</time>
      </trkpt>
      <trkpt lat="45.33647" lon="6.20098">
        <ele>2384</ele>
        <time>2014-03-02T11:10:29.000Z</time>
      </trkpt>
      <trkpt lat="45.33647" lon="6.20098">
        <ele>2384</ele>
        <time>2014-03-02T11:10:30.000Z</time>
      </trkpt>
      <trkpt lat="45.33647" lon="6.20098">
        <ele>2384</ele>
        <time>2014-03-02T11:10:32.000Z</time>
      </trkpt>
      <trkpt lat="45.33647" lon="6.20098">
        <ele>2384</ele>
        <time>2014-03-02T11:10:33.000Z</time>
      </trkpt>
      <trkpt lat="45.33647" lon="6.20098">
        <ele>2384</ele>
        <time>2014-03-02T11:10:35.000Z</time>
      </trkpt>
      <trkpt lat="45.33647" lon="6.20098">
        <ele>2384</ele>
        <time>2014-03-02T11:10:37.000Z</time>
      </trkpt>
      <trkpt lat="45.33647" lon="6.20098">
        <ele>2384</ele>
        <time>2014-03-02T11:10:39.000Z</time>
      </trkpt>
      <trkpt lat="45.33647" lon="6.20098">
        <ele>2384</ele>
        <time>2014-03-02T11:10:41.000Z</time>
      </trkpt>
      <trkpt lat="45.33647" lon="6.20098">
        <ele>2384</ele>
        <time>2014-03-02T11:10:42.000Z</time>
      </trkpt>
      <trkpt lat="45.33647" lon="6.20098">
        <ele>2384</ele>
        <time>2014-03-02T11:10:43.000Z</time>
      </trkpt>
      <trkpt lat="45.33647" lon="6.20098">
        <ele>2384</ele>
        <time>2014-03-02T11:10:44.000Z</time>
      </trkpt>
      <trkpt lat="45.33647" lon="6.20098">
        <ele>2384</ele>
        <time>2014-03-02T11:10:45.000Z</time>
      </trkpt>
      <trkpt lat="45.33647" lon="6.20098">
        <ele>2384</ele>
        <time>2014-03-02T11:10:48.000Z</time>
      </trkpt>
      <trkpt lat="45.33647" lon="6.20098">
        <ele>2384</ele>
        <time>2014-03-02T11:10:49.000Z</time>
      </trkpt>
      <trkpt lat="45.33647" lon="6.20098">
        <ele>2384</ele>
        <time>2014-03-02T11:10:50.000Z</time>
      </trkpt>
      <trkpt lat="45.33647" lon="6.20098">
        <ele>2384</ele>
        <time>2014-03-02T11:10:51.000Z</time>
      </trkpt>
      <trkpt lat="45.33647" lon="6.20098">
        <ele>2384</ele>
        <time>2014-03-02T11:10:52.000Z</time>
      </trkpt>
      <trkpt lat="45.33647" lon="6.20098">
        <ele>2384</ele>
        <time>2014-03-02T11:10:53.000Z</time>
      </trkpt>
      <trkpt lat="45.33647" lon="6.20098">
        <ele>2384</ele>
        <time>2014-03-02T11:10:54.000Z</time>
      </trkpt>
      <trkpt lat="45.33647" lon="6.20098">
        <ele>2384</ele>
        <time>2014-03-02T11:10:58.000Z</time>
      </trkpt>
      <trkpt lat="45.33647" lon="6.20098">
        <ele>2384</ele>
        <time>2014-03-02T11:10:59.000Z</time>
      </trkpt>
      <trkpt lat="45.33647" lon="6.20098">
        <ele>2384</ele>
        <time>2014-03-02T11:11:02.000Z</time>
      </trkpt>
      <trkpt lat="45.33647" lon="6.20098">
        <ele>2384</ele>
        <time>2014-03-02T11:11:06.000Z</time>
      </trkpt>
      <trkpt lat="45.33647" lon="6.20098">
        <ele>2384</ele>
        <time>2014-03-02T11:11:07.000Z</time>
      </trkpt>
      <trkpt lat="45.33647" lon="6.20098">
        <ele>2384</ele>
        <time>2014-03-02T11:11:08.000Z</time>
      </trkpt>
      <trkpt lat="45.33647" lon="6.20098">
        <ele>2384</ele>
        <time>2014-03-02T11:11:09.000Z</time>
      </trkpt>
      <trkpt lat="45.33647" lon="6.20098">
        <ele>2384</ele>
        <time>2014-03-02T11:11:10.000Z</time>
      </trkpt>
      <trkpt lat="45.33647" lon="6.20098">
        <ele>2384</ele>
        <time>2014-03-02T11:11:11.000Z</time>
      </trkpt>
      <trkpt lat="45.33647" lon="6.20098">
        <ele>2384</ele>
        <time>2014-03-02T11:11:13.000Z</time>
      </trkpt>
      <trkpt lat="45.33647" lon="6.20098">
        <ele>2384</ele>
        <time>2014-03-02T11:11:14.000Z</time>
      </trkpt>
      <trkpt lat="45.33647" lon="6.20098">
        <ele>2384</ele>
        <time>2014-03-02T11:11:15.000Z</time>
      </trkpt>
      <trkpt lat="45.33647" lon="6.20098">
        <ele>2384</ele>
        <time>2014-03-02T11:11:16.000Z</time>
      </trkpt>
      <trkpt lat="45.33647" lon="6.20098">
        <ele>2384</ele>
        <time>2014-03-02T11:11:17.000Z</time>
      </trkpt>
      <trkpt lat="45.33647" lon="6.20098">
        <ele>2384</ele>
        <time>2014-03-02T11:11:18.000Z</time>
      </trkpt>
      <trkpt lat="45.33647" lon="6.20098">
        <ele>2384</ele>
        <time>2014-03-02T11:11:19.000Z</time>
      </trkpt>
      <trkpt lat="45.33647" lon="6.20098">
        <ele>2384</ele>
        <time>2014-03-02T11:11:20.000Z</time>
      </trkpt>
      <trkpt lat="45.33647" lon="6.20098">
        <ele>2384</ele>
        <time>2014-03-02T11:11:21.000Z</time>
      </trkpt>
      <trkpt lat="45.33647" lon="6.20098">
        <ele>2384</ele>
        <time>2014-03-02T11:11:22.000Z</time>
      </trkpt>
      <trkpt lat="45.33647" lon="6.20098">
        <ele>2384</ele>
        <time>2014-03-02T11:11:23.000Z</time>
      </trkpt>
      <trkpt lat="45.33647" lon="6.20098">
        <ele>2384</ele>
        <time>2014-03-02T11:11:24.000Z</time>
      </trkpt>
      <trkpt lat="45.33647" lon="6.20098">
        <ele>2384</ele>
        <time>2014-03-02T11:11:25.000Z</time>
      </trkpt>
      <trkpt lat="45.33647" lon="6.20099">
        <ele>2384</ele>
        <time>2014-03-02T11:11:26.000Z</time>
      </trkpt>
      <trkpt lat="45.33647" lon="6.20099">
        <ele>2384</ele>
        <time>2014-03-02T11:11:27.000Z</time>
      </trkpt>
      <trkpt lat="45.33647" lon="6.20099">
        <ele>2384</ele>
        <time>2014-03-02T11:11:28.000Z</time>
      </trkpt>
      <trkpt lat="45.33647" lon="6.20099">
        <ele>2384</ele>
        <time>2014-03-02T11:11:29.000Z</time>
      </trkpt>
      <trkpt lat="45.33647" lon="6.20099">
        <ele>2384</ele>
        <time>2014-03-02T11:11:30.000Z</time>
      </trkpt>
      <trkpt lat="45.33647" lon="6.20099">
        <ele>2384</ele>
        <time>2014-03-02T11:11:31.000Z</time>
      </trkpt>
      <trkpt lat="45.33647" lon="6.20099">
        <ele>2384</ele>
        <time>2014-03-02T11:11:32.000Z</time>
      </trkpt>
      <trkpt lat="45.33647" lon="6.20099">
        <ele>2384</ele>
        <time>2014-03-02T11:11:33.000Z</time>
      </trkpt>
      <trkpt lat="45.33647" lon="6.20099">
        <ele>2384</ele>
        <time>2014-03-02T11:11:34.000Z</time>
      </trkpt>
      <trkpt lat="45.33647" lon="6.20099">
        <ele>2384</ele>
        <time>2014-03-02T11:11:35.000Z</time>
      </trkpt>
      <trkpt lat="45.33647" lon="6.20099">
        <ele>2384</ele>
        <time>2014-03-02T11:11:36.000Z</time>
      </trkpt>
      <trkpt lat="45.33647" lon="6.20099">
        <ele>2384</ele>
        <time>2014-03-02T11:11:37.000Z</time>
      </trkpt>
      <trkpt lat="45.33647" lon="6.20099">
        <ele>2384</ele>
        <time>2014-03-02T11:11:38.000Z</time>
      </trkpt>
      <trkpt lat="45.33647" lon="6.20099">
        <ele>2384</ele>
        <time>2014-03-02T11:11:39.000Z</time>
      </trkpt>
      <trkpt lat="45.33647" lon="6.20099">
        <ele>2384</ele>
        <time>2014-03-02T11:11:40.000Z</time>
      </trkpt>
      <trkpt lat="45.33647" lon="6.20099">
        <ele>2384</ele>
        <time>2014-03-02T11:11:41.000Z</time>
      </trkpt>
      <trkpt lat="45.33647" lon="6.20099">
        <ele>2384</ele>
        <time>2014-03-02T11:11:42.000Z</time>
      </trkpt>
      <trkpt lat="45.33647" lon="6.20099">
        <ele>2384</ele>
        <time>2014-03-02T11:11:43.000Z</time>
      </trkpt>
      <trkpt lat="45.33647" lon="6.20099">
        <ele>2384</ele>
        <time>2014-03-02T11:11:44.000Z</time>
      </trkpt>
      <trkpt lat="45.33647" lon="6.20099">
        <ele>2384</ele>
        <time>2014-03-02T11:11:46.000Z</time>
      </trkpt>
      <trkpt lat="45.33647" lon="6.20099">
        <ele>2384</ele>
        <time>2014-03-02T11:11:47.000Z</time>
      </trkpt>
      <trkpt lat="45.33647" lon="6.20099">
        <ele>2384</ele>
        <time>2014-03-02T11:11:48.000Z</time>
      </trkpt>
      <trkpt lat="45.33647" lon="6.20099">
        <ele>2384</ele>
        <time>2014-03-02T11:11:49.000Z</time>
      </trkpt>
      <trkpt lat="45.33647" lon="6.20099">
        <ele>2384</ele>
        <time>2014-03-02T11:11:50.000Z</time>
      </trkpt>
      <trkpt lat="45.33647" lon="6.20099">
        <ele>2384</ele>
        <time>2014-03-02T11:11:51.000Z</time>
      </trkpt>
      <trkpt lat="45.33647" lon="6.20099">
        <ele>2384</ele>
        <time>2014-03-02T11:11:52.000Z</time>
      </trkpt>
      <trkpt lat="45.33647" lon="6.20099">
        <ele>2384</ele>
        <time>2014-03-02T11:11:53.000Z</time>
      </trkpt>
      <trkpt lat="45.33647" lon="6.20099">
        <ele>2384</ele>
        <time>2014-03-02T11:11:54.000Z</time>
      </trkpt>
      <trkpt lat="45.33647" lon="6.20099">
        <ele>2384</ele>
        <time>2014-03-02T11:11:55.000Z</time>
      </trkpt>
      <trkpt lat="45.33647" lon="6.20099">
        <ele>2384</ele>
        <time>2014-03-02T11:11:56.000Z</time>
      </trkpt>
      <trkpt lat="45.33647" lon="6.20099">
        <ele>2384</ele>
        <time>2014-03-02T11:11:57.000Z</time>
      </trkpt>
      <trkpt lat="45.33647" lon="6.20099">
        <ele>2384</ele>
        <time>2014-03-02T11:11:58.000Z</time>
      </trkpt>
      <trkpt lat="45.33647" lon="6.20099">
        <ele>2384</ele>
        <time>2014-03-02T11:11:59.000Z</time>
      </trkpt>
      <trkpt lat="45.33647" lon="6.20099">
        <ele>2384</ele>
        <time>2014-03-02T11:12:00.000Z</time>
      </trkpt>
      <trkpt lat="45.33647" lon="6.20099">
        <ele>2384</ele>
        <time>2014-03-02T11:12:01.000Z</time>
      </trkpt>
      <trkpt lat="45.33647" lon="6.20099">
        <ele>2384</ele>
        <time>2014-03-02T11:12:02.000Z</time>
      </trkpt>
      <trkpt lat="45.33647" lon="6.20099">
        <ele>2384</ele>
        <time>2014-03-02T11:12:03.000Z</time>
      </trkpt>
      <trkpt lat="45.33647" lon="6.20099">
        <ele>2384</ele>
        <time>2014-03-02T11:12:04.000Z</time>
      </trkpt>
      <trkpt lat="45.33647" lon="6.20099">
        <ele>2384</ele>
        <time>2014-03-02T11:12:05.000Z</time>
      </trkpt>
      <trkpt lat="45.33647" lon="6.20099">
        <ele>2384</ele>
        <time>2014-03-02T11:12:06.000Z</time>
      </trkpt>
      <trkpt lat="45.33647" lon="6.20099">
        <ele>2384</ele>
        <time>2014-03-02T11:12:07.000Z</time>
      </trkpt>
      <trkpt lat="45.33647" lon="6.20099">
        <ele>2384</ele>
        <time>2014-03-02T11:12:08.000Z</time>
      </trkpt>
      <trkpt lat="45.33647" lon="6.20099">
        <ele>2384</ele>
        <time>2014-03-02T11:12:09.000Z</time>
      </trkpt>
      <trkpt lat="45.33647" lon="6.20099">
        <ele>2384</ele>
        <time>2014-03-02T11:12:10.000Z</time>
      </trkpt>
      <trkpt lat="45.33647" lon="6.20099">
        <ele>2384</ele>
        <time>2014-03-02T11:12:11.000Z</time>
      </trkpt>
      <trkpt lat="45.33647" lon="6.20099">
        <ele>2384</ele>
        <time>2014-03-02T11:12:12.000Z</time>
      </trkpt>
      <trkpt lat="45.33647" lon="6.20099">
        <ele>2384</ele>
        <time>2014-03-02T11:12:13.000Z</time>
      </trkpt>
      <trkpt lat="45.33647" lon="6.20099">
        <ele>2384</ele>
        <time>2014-03-02T11:12:14.000Z</time>
      </trkpt>
      <trkpt lat="45.33647" lon="6.20099">
        <ele>2384</ele>
        <time>2014-03-02T11:12:15.000Z</time>
      </trkpt>
      <trkpt lat="45.33647" lon="6.20099">
        <ele>2384</ele>
        <time>2014-03-02T11:12:17.000Z</time>
      </trkpt>
      <trkpt lat="45.33647" lon="6.20099">
        <ele>2384</ele>
        <time>2014-03-02T11:12:18.000Z</time>
      </trkpt>
      <trkpt lat="45.33647" lon="6.20099">
        <ele>2384</ele>
        <time>2014-03-02T11:12:19.000Z</time>
      </trkpt>
      <trkpt lat="45.33647" lon="6.20099">
        <ele>2384</ele>
        <time>2014-03-02T11:12:20.000Z</time>
      </trkpt>
      <trkpt lat="45.33647" lon="6.20099">
        <ele>2384</ele>
        <time>2014-03-02T11:12:21.000Z</time>
      </trkpt>
      <trkpt lat="45.33647" lon="6.20099">
        <ele>2384</ele>
        <time>2014-03-02T11:12:22.000Z</time>
      </trkpt>
      <trkpt lat="45.33647" lon="6.20099">
        <ele>2384</ele>
        <time>2014-03-02T11:12:23.000Z</time>
      </trkpt>
      <trkpt lat="45.33647" lon="6.20099">
        <ele>2384</ele>
        <time>2014-03-02T11:12:24.000Z</time>
      </trkpt>
      <trkpt lat="45.33647" lon="6.20099">
        <ele>2384</ele>
        <time>2014-03-02T11:12:25.000Z</time>
      </trkpt>
      <trkpt lat="45.33647" lon="6.20099">
        <ele>2384</ele>
        <time>2014-03-02T11:12:27.000Z</time>
      </trkpt>
      <trkpt lat="45.33647" lon="6.20099">
        <ele>2384</ele>
        <time>2014-03-02T11:12:28.000Z</time>
      </trkpt>
      <trkpt lat="45.33647" lon="6.20099">
        <ele>2384</ele>
        <time>2014-03-02T11:12:29.000Z</time>
      </trkpt>
      <trkpt lat="45.33647" lon="6.20099">
        <ele>2384</ele>
        <time>2014-03-02T11:12:32.000Z</time>
      </trkpt>
      <trkpt lat="45.33647" lon="6.20099">
        <ele>2384</ele>
        <time>2014-03-02T11:12:33.000Z</time>
      </trkpt>
      <trkpt lat="45.33647" lon="6.20099">
        <ele>2384</ele>
        <time>2014-03-02T11:12:34.000Z</time>
      </trkpt>
      <trkpt lat="45.33647" lon="6.20099">
        <ele>2384</ele>
        <time>2014-03-02T11:12:35.000Z</time>
      </trkpt>
      <trkpt lat="45.33647" lon="6.20099">
        <ele>2384</ele>
        <time>2014-03-02T11:12:36.000Z</time>
      </trkpt>
      <trkpt lat="45.33647" lon="6.20099">
        <ele>2384</ele>
        <time>2014-03-02T11:12:37.000Z</time>
      </trkpt>
      <trkpt lat="45.33647" lon="6.20099">
        <ele>2384</ele>
        <time>2014-03-02T11:12:38.000Z</time>
      </trkpt>
      <trkpt lat="45.33647" lon="6.20099">
        <ele>2384</ele>
        <time>2014-03-02T11:12:39.000Z</time>
      </trkpt>
      <trkpt lat="45.33647" lon="6.20099">
        <ele>2384</ele>
        <time>2014-03-02T11:12:40.000Z</time>
      </trkpt>
      <trkpt lat="45.33647" lon="6.20099">
        <ele>2384</ele>
        <time>2014-03-02T11:12:41.000Z</time>
      </trkpt>
      <trkpt lat="45.33647" lon="6.20099">
        <ele>2384</ele>
        <time>2014-03-02T11:12:42.000Z</time>
      </trkpt>
      <trkpt lat="45.33647" lon="6.20099">
        <ele>2384</ele>
        <time>2014-03-02T11:12:43.000Z</time>
      </trkpt>
      <trkpt lat="45.33647" lon="6.20099">
        <ele>2384</ele>
        <time>2014-03-02T11:12:44.000Z</time>
      </trkpt>
      <trkpt lat="45.33647" lon="6.20099">
        <ele>2384</ele>
        <time>2014-03-02T11:12:45.000Z</time>
      </trkpt>
      <trkpt lat="45.33647" lon="6.20099">
        <ele>2384</ele>
        <time>2014-03-02T11:12:46.000Z</time>
      </trkpt>
      <trkpt lat="45.33647" lon="6.20099">
        <ele>2384</ele>
        <time>2014-03-02T11:12:47.000Z</time>
      </trkpt>
      <trkpt lat="45.33647" lon="6.20099">
        <ele>2384</ele>
        <time>2014-03-02T11:12:48.000Z</time>
      </trkpt>
      <trkpt lat="45.33647" lon="6.20099">
        <ele>2384</ele>
        <time>2014-03-02T11:12:49.000Z</time>
      </trkpt>
      <trkpt lat="45.33647" lon="6.20099">
        <ele>2384</ele>
        <time>2014-03-02T11:12:50.000Z</time>
      </trkpt>
      <trkpt lat="45.33647" lon="6.20099">
        <ele>2384</ele>
        <time>2014-03-02T11:12:51.000Z</time>
      </trkpt>
      <trkpt lat="45.33647" lon="6.20099">
        <ele>2384</ele>
        <time>2014-03-02T11:12:52.000Z</time>
      </trkpt>
      <trkpt lat="45.33647" lon="6.20099">
        <ele>2384</ele>
        <time>2014-03-02T11:12:53.000Z</time>
      </trkpt>
      <trkpt lat="45.33647" lon="6.20099">
        <ele>2384</ele>
        <time>2014-03-02T11:12:54.000Z</time>
      </trkpt>
      <trkpt lat="45.33647" lon="6.20099">
        <ele>2384</ele>
        <time>2014-03-02T11:12:55.000Z</time>
      </trkpt>
      <trkpt lat="45.33647" lon="6.20099">
        <ele>2384</ele>
        <time>2014-03-02T11:12:56.000Z</time>
      </trkpt>
      <trkpt lat="45.33647" lon="6.20099">
        <ele>2384</ele>
        <time>2014-03-02T11:12:58.000Z</time>
      </trkpt>
      <trkpt lat="45.33647" lon="6.20099">
        <ele>2384</ele>
        <time>2014-03-02T11:12:59.000Z</time>
      </trkpt>
      <trkpt lat="45.33647" lon="6.20099">
        <ele>2383.8000488281</ele>
        <time>2014-03-02T11:13:00.000Z</time>
      </trkpt>
      <trkpt lat="45.33647" lon="6.201">
        <ele>2383.6000976562</ele>
        <time>2014-03-02T11:13:02.000Z</time>
      </trkpt>
      <trkpt lat="45.33647" lon="6.201">
        <ele>2383.6000976562</ele>
        <time>2014-03-02T11:13:03.000Z</time>
      </trkpt>
      <trkpt lat="45.33647" lon="6.201">
        <ele>2383.6000976562</ele>
        <time>2014-03-02T11:13:04.000Z</time>
      </trkpt>
      <trkpt lat="45.33647" lon="6.201">
        <ele>2383.6000976562</ele>
        <time>2014-03-02T11:13:05.000Z</time>
      </trkpt>
      <trkpt lat="45.33646" lon="6.201">
        <ele>2383.8000488281</ele>
        <time>2014-03-02T11:13:06.000Z</time>
      </trkpt>
      <trkpt lat="45.33646" lon="6.201">
        <ele>2384</ele>
        <time>2014-03-02T11:13:07.000Z</time>
      </trkpt>
      <trkpt lat="45.33643" lon="6.201">
        <ele>2384.6000976562</ele>
        <time>2014-03-02T11:13:09.000Z</time>
      </trkpt>
      <trkpt lat="45.33643" lon="6.201">
        <ele>2384.8000488281</ele>
        <time>2014-03-02T11:13:10.000Z</time>
      </trkpt>
      <trkpt lat="45.33641" lon="6.201">
        <ele>2385.1999511719</ele>
        <time>2014-03-02T11:13:11.000Z</time>
      </trkpt>
      <trkpt lat="45.3364" lon="6.20101">
        <ele>2385.3999023438</ele>
        <time>2014-03-02T11:13:12.000Z</time>
      </trkpt>
      <trkpt lat="45.33639" lon="6.20101">
        <ele>2385.6000976562</ele>
        <time>2014-03-02T11:13:13.000Z</time>
      </trkpt>
      <trkpt lat="45.33639" lon="6.20101">
        <ele>2385.8000488281</ele>
        <time>2014-03-02T11:13:14.000Z</time>
      </trkpt>
      <trkpt lat="45.33638" lon="6.20101">
        <ele>2386</ele>
        <time>2014-03-02T11:13:15.000Z</time>
      </trkpt>
      <trkpt lat="45.33638" lon="6.20101">
        <ele>2386.1999511719</ele>
        <time>2014-03-02T11:13:16.000Z</time>
      </trkpt>
      <trkpt lat="45.33638" lon="6.20101">
        <ele>2386</ele>
        <time>2014-03-02T11:13:17.000Z</time>
      </trkpt>
      <trkpt lat="45.33638" lon="6.20101">
        <ele>2386</ele>
        <time>2014-03-02T11:13:18.000Z</time>
      </trkpt>
      <trkpt lat="45.33639" lon="6.201">
        <ele>2386</ele>
        <time>2014-03-02T11:13:19.000Z</time>
      </trkpt>
      <trkpt lat="45.33639" lon="6.201">
        <ele>2386</ele>
        <time>2014-03-02T11:13:20.000Z</time>
      </trkpt>
      <trkpt lat="45.3364" lon="6.20099">
        <ele>2385.8000488281</ele>
        <time>2014-03-02T11:13:21.000Z</time>
      </trkpt>
      <trkpt lat="45.33641" lon="6.20099">
        <ele>2385.6000976562</ele>
        <time>2014-03-02T11:13:22.000Z</time>
      </trkpt>
      <trkpt lat="45.33642" lon="6.20098">
        <ele>2385.6000976562</ele>
        <time>2014-03-02T11:13:24.000Z</time>
      </trkpt>
      <trkpt lat="45.33641" lon="6.20098">
        <ele>2385.6000976562</ele>
        <time>2014-03-02T11:13:25.000Z</time>
      </trkpt>
      <trkpt lat="45.33641" lon="6.20098">
        <ele>2385.8000488281</ele>
        <time>2014-03-02T11:13:26.000Z</time>
      </trkpt>
      <trkpt lat="45.33642" lon="6.20098">
        <ele>2385.8000488281</ele>
        <time>2014-03-02T11:13:27.000Z</time>
      </trkpt>
      <trkpt lat="45.33642" lon="6.20098">
        <ele>2385.8000488281</ele>
        <time>2014-03-02T11:13:28.000Z</time>
      </trkpt>
      <trkpt lat="45.33642" lon="6.20098">
        <ele>2385.8000488281</ele>
        <time>2014-03-02T11:13:29.000Z</time>
      </trkpt>
      <trkpt lat="45.33642" lon="6.20098">
        <ele>2385.8000488281</ele>
        <time>2014-03-02T11:13:30.000Z</time>
      </trkpt>
      <trkpt lat="45.33642" lon="6.20098">
        <ele>2385.8000488281</ele>
        <time>2014-03-02T11:13:31.000Z</time>
      </trkpt>
      <trkpt lat="45.33642" lon="6.20098">
        <ele>2385.8000488281</ele>
        <time>2014-03-02T11:13:32.000Z</time>
      </trkpt>
      <trkpt lat="45.33642" lon="6.20098">
        <ele>2385.8000488281</ele>
        <time>2014-03-02T11:13:34.000Z</time>
      </trkpt>
      <trkpt lat="45.33642" lon="6.20098">
        <ele>2385.8000488281</ele>
        <time>2014-03-02T11:13:35.000Z</time>
      </trkpt>
      <trkpt lat="45.33642" lon="6.20098">
        <ele>2385.8000488281</ele>
        <time>2014-03-02T11:13:36.000Z</time>
      </trkpt>
      <trkpt lat="45.33642" lon="6.20098">
        <ele>2385.8000488281</ele>
        <time>2014-03-02T11:13:37.000Z</time>
      </trkpt>
      <trkpt lat="45.33642" lon="6.20098">
        <ele>2385.8000488281</ele>
        <time>2014-03-02T11:13:38.000Z</time>
      </trkpt>
      <trkpt lat="45.33642" lon="6.20098">
        <ele>2385.8000488281</ele>
        <time>2014-03-02T11:13:39.000Z</time>
      </trkpt>
      <trkpt lat="45.33642" lon="6.20098">
        <ele>2385.8000488281</ele>
        <time>2014-03-02T11:13:40.000Z</time>
      </trkpt>
      <trkpt lat="45.33642" lon="6.20098">
        <ele>2385.8000488281</ele>
        <time>2014-03-02T11:13:41.000Z</time>
      </trkpt>
      <trkpt lat="45.33642" lon="6.20098">
        <ele>2385.8000488281</ele>
        <time>2014-03-02T11:13:42.000Z</time>
      </trkpt>
      <trkpt lat="45.33642" lon="6.20098">
        <ele>2385.8000488281</ele>
        <time>2014-03-02T11:13:43.000Z</time>
      </trkpt>
      <trkpt lat="45.33642" lon="6.20098">
        <ele>2385.8000488281</ele>
        <time>2014-03-02T11:13:44.000Z</time>
      </trkpt>
      <trkpt lat="45.33642" lon="6.20098">
        <ele>2385.8000488281</ele>
        <time>2014-03-02T11:13:45.000Z</time>
      </trkpt>
      <trkpt lat="45.33642" lon="6.20098">
        <ele>2385.8000488281</ele>
        <time>2014-03-02T11:13:46.000Z</time>
      </trkpt>
      <trkpt lat="45.33642" lon="6.20098">
        <ele>2385.8000488281</ele>
        <time>2014-03-02T11:13:47.000Z</time>
      </trkpt>
      <trkpt lat="45.33642" lon="6.20098">
        <ele>2385.8000488281</ele>
        <time>2014-03-02T11:13:48.000Z</time>
      </trkpt>
      <trkpt lat="45.33642" lon="6.20098">
        <ele>2385.8000488281</ele>
        <time>2014-03-02T11:13:49.000Z</time>
      </trkpt>
      <trkpt lat="45.33642" lon="6.20098">
        <ele>2385.8000488281</ele>
        <time>2014-03-02T11:13:50.000Z</time>
      </trkpt>
      <trkpt lat="45.33642" lon="6.20098">
        <ele>2385.8000488281</ele>
        <time>2014-03-02T11:13:51.000Z</time>
      </trkpt>
      <trkpt lat="45.33642" lon="6.20098">
        <ele>2385.8000488281</ele>
        <time>2014-03-02T11:13:52.000Z</time>
      </trkpt>
      <trkpt lat="45.33642" lon="6.20098">
        <ele>2385.8000488281</ele>
        <time>2014-03-02T11:13:53.000Z</time>
      </trkpt>
      <trkpt lat="45.33642" lon="6.20098">
        <ele>2385.8000488281</ele>
        <time>2014-03-02T11:13:54.000Z</time>
      </trkpt>
      <trkpt lat="45.33642" lon="6.20098">
        <ele>2385.8000488281</ele>
        <time>2014-03-02T11:13:55.000Z</time>
      </trkpt>
      <trkpt lat="45.33642" lon="6.20098">
        <ele>2385.8000488281</ele>
        <time>2014-03-02T11:13:56.000Z</time>
      </trkpt>
      <trkpt lat="45.33642" lon="6.20098">
        <ele>2385.8000488281</ele>
        <time>2014-03-02T11:13:57.000Z</time>
      </trkpt>
      <trkpt lat="45.33642" lon="6.20098">
        <ele>2385.8000488281</ele>
        <time>2014-03-02T11:13:58.000Z</time>
      </trkpt>
      <trkpt lat="45.33642" lon="6.20098">
        <ele>2385.8000488281</ele>
        <time>2014-03-02T11:13:59.000Z</time>
      </trkpt>
      <trkpt lat="45.33642" lon="6.20098">
        <ele>2385.8000488281</ele>
        <time>2014-03-02T11:14:00.000Z</time>
      </trkpt>
      <trkpt lat="45.33642" lon="6.20098">
        <ele>2385.8000488281</ele>
        <time>2014-03-02T11:14:01.000Z</time>
      </trkpt>
      <trkpt lat="45.33642" lon="6.20098">
        <ele>2385.8000488281</ele>
        <time>2014-03-02T11:14:02.000Z</time>
      </trkpt>
      <trkpt lat="45.33642" lon="6.20098">
        <ele>2385.8000488281</ele>
        <time>2014-03-02T11:14:03.000Z</time>
      </trkpt>
      <trkpt lat="45.33642" lon="6.20098">
        <ele>2385.8000488281</ele>
        <time>2014-03-02T11:14:04.000Z</time>
      </trkpt>
      <trkpt lat="45.33642" lon="6.20098">
        <ele>2385.8000488281</ele>
        <time>2014-03-02T11:14:05.000Z</time>
      </trkpt>
      <trkpt lat="45.33642" lon="6.20098">
        <ele>2385.8000488281</ele>
        <time>2014-03-02T11:14:06.000Z</time>
      </trkpt>
      <trkpt lat="45.33642" lon="6.20098">
        <ele>2385.6000976562</ele>
        <time>2014-03-02T11:14:07.000Z</time>
      </trkpt>
      <trkpt lat="45.33642" lon="6.20098">
        <ele>2385.6000976562</ele>
        <time>2014-03-02T11:14:08.000Z</time>
      </trkpt>
      <trkpt lat="45.33642" lon="6.20098">
        <ele>2385.6000976562</ele>
        <time>2014-03-02T11:14:09.000Z</time>
      </trkpt>
      <trkpt lat="45.33642" lon="6.20098">
        <ele>2385.6000976562</ele>
        <time>2014-03-02T11:14:10.000Z</time>
      </trkpt>
      <trkpt lat="45.33642" lon="6.20098">
        <ele>2385.6000976562</ele>
        <time>2014-03-02T11:14:11.000Z</time>
      </trkpt>
      <trkpt lat="45.33642" lon="6.20098">
        <ele>2385.6000976562</ele>
        <time>2014-03-02T11:14:12.000Z</time>
      </trkpt>
      <trkpt lat="45.33642" lon="6.20098">
        <ele>2385.6000976562</ele>
        <time>2014-03-02T11:14:13.000Z</time>
      </trkpt>
      <trkpt lat="45.33642" lon="6.20098">
        <ele>2385.6000976562</ele>
        <time>2014-03-02T11:14:14.000Z</time>
      </trkpt>
      <trkpt lat="45.33642" lon="6.20098">
        <ele>2385.6000976562</ele>
        <time>2014-03-02T11:14:15.000Z</time>
      </trkpt>
      <trkpt lat="45.33642" lon="6.20098">
        <ele>2385.6000976562</ele>
        <time>2014-03-02T11:14:16.000Z</time>
      </trkpt>
      <trkpt lat="45.33642" lon="6.20098">
        <ele>2385.6000976562</ele>
        <time>2014-03-02T11:14:17.000Z</time>
      </trkpt>
      <trkpt lat="45.33642" lon="6.20098">
        <ele>2385.6000976562</ele>
        <time>2014-03-02T11:14:18.000Z</time>
      </trkpt>
      <trkpt lat="45.33642" lon="6.20098">
        <ele>2385.6000976562</ele>
        <time>2014-03-02T11:14:19.000Z</time>
      </trkpt>
      <trkpt lat="45.33642" lon="6.20098">
        <ele>2385.6000976562</ele>
        <time>2014-03-02T11:14:20.000Z</time>
      </trkpt>
      <trkpt lat="45.33643" lon="6.20098">
        <ele>2385.3999023438</ele>
        <time>2014-03-02T11:14:21.000Z</time>
      </trkpt>
      <trkpt lat="45.33644" lon="6.20098">
        <ele>2385</ele>
        <time>2014-03-02T11:14:22.000Z</time>
      </trkpt>
      <trkpt lat="45.33644" lon="6.20098">
        <ele>2385</ele>
        <time>2014-03-02T11:14:23.000Z</time>
      </trkpt>
      <trkpt lat="45.33644" lon="6.20098">
        <ele>2385</ele>
        <time>2014-03-02T11:14:24.000Z</time>
      </trkpt>
      <trkpt lat="45.33644" lon="6.20098">
        <ele>2385</ele>
        <time>2014-03-02T11:14:25.000Z</time>
      </trkpt>
      <trkpt lat="45.33644" lon="6.20098">
        <ele>2385</ele>
        <time>2014-03-02T11:14:26.000Z</time>
      </trkpt>
      <trkpt lat="45.33644" lon="6.20098">
        <ele>2385</ele>
        <time>2014-03-02T11:14:27.000Z</time>
      </trkpt>
      <trkpt lat="45.33644" lon="6.20098">
        <ele>2385</ele>
        <time>2014-03-02T11:14:28.000Z</time>
      </trkpt>
      <trkpt lat="45.33644" lon="6.20098">
        <ele>2385</ele>
        <time>2014-03-02T11:14:29.000Z</time>
      </trkpt>
      <trkpt lat="45.33644" lon="6.20098">
        <ele>2385</ele>
        <time>2014-03-02T11:14:30.000Z</time>
      </trkpt>
      <trkpt lat="45.33644" lon="6.20098">
        <ele>2385</ele>
        <time>2014-03-02T11:14:31.000Z</time>
      </trkpt>
      <trkpt lat="45.33644" lon="6.20098">
        <ele>2385</ele>
        <time>2014-03-02T11:14:32.000Z</time>
      </trkpt>
      <trkpt lat="45.33644" lon="6.20098">
        <ele>2385</ele>
        <time>2014-03-02T11:14:34.000Z</time>
      </trkpt>
      <trkpt lat="45.33645" lon="6.20097">
        <ele>2384.8000488281</ele>
        <time>2014-03-02T11:14:36.000Z</time>
      </trkpt>
      <trkpt lat="45.33645" lon="6.20097">
        <ele>2384.8000488281</ele>
        <time>2014-03-02T11:14:37.000Z</time>
      </trkpt>
      <trkpt lat="45.33646" lon="6.20098">
        <ele>2384.6000976562</ele>
        <time>2014-03-02T11:14:38.000Z</time>
      </trkpt>
      <trkpt lat="45.33646" lon="6.20098">
        <ele>2384.6000976562</ele>
        <time>2014-03-02T11:14:39.000Z</time>
      </trkpt>
      <trkpt lat="45.33646" lon="6.20098">
        <ele>2384.6000976562</ele>
        <time>2014-03-02T11:14:40.000Z</time>
      </trkpt>
      <trkpt lat="45.33646" lon="6.20098">
        <ele>2384.6000976562</ele>
        <time>2014-03-02T11:14:41.000Z</time>
      </trkpt>
      <trkpt lat="45.33646" lon="6.20098">
        <ele>2384.6000976562</ele>
        <time>2014-03-02T11:14:42.000Z</time>
      </trkpt>
      <trkpt lat="45.33646" lon="6.20098">
        <ele>2384.6000976562</ele>
        <time>2014-03-02T11:14:43.000Z</time>
      </trkpt>
      <trkpt lat="45.33646" lon="6.20098">
        <ele>2384.6000976562</ele>
        <time>2014-03-02T11:14:44.000Z</time>
      </trkpt>
      <trkpt lat="45.33646" lon="6.20098">
        <ele>2384.6000976562</ele>
        <time>2014-03-02T11:14:45.000Z</time>
      </trkpt>
      <trkpt lat="45.33646" lon="6.20098">
        <ele>2384.6000976562</ele>
        <time>2014-03-02T11:14:46.000Z</time>
      </trkpt>
      <trkpt lat="45.33646" lon="6.20098">
        <ele>2384.6000976562</ele>
        <time>2014-03-02T11:14:47.000Z</time>
      </trkpt>
      <trkpt lat="45.33646" lon="6.20098">
        <ele>2384.6000976562</ele>
        <time>2014-03-02T11:14:48.000Z</time>
      </trkpt>
      <trkpt lat="45.33646" lon="6.20098">
        <ele>2384.6000976562</ele>
        <time>2014-03-02T11:14:49.000Z</time>
      </trkpt>
      <trkpt lat="45.33646" lon="6.20098">
        <ele>2384.6000976562</ele>
        <time>2014-03-02T11:14:50.000Z</time>
      </trkpt>
      <trkpt lat="45.33646" lon="6.20098">
        <ele>2384.6000976562</ele>
        <time>2014-03-02T11:14:51.000Z</time>
      </trkpt>
      <trkpt lat="45.33646" lon="6.20098">
        <ele>2384.6000976562</ele>
        <time>2014-03-02T11:14:52.000Z</time>
      </trkpt>
      <trkpt lat="45.33646" lon="6.20098">
        <ele>2384.6000976562</ele>
        <time>2014-03-02T11:14:53.000Z</time>
      </trkpt>
      <trkpt lat="45.33646" lon="6.20098">
        <ele>2384.6000976562</ele>
        <time>2014-03-02T11:14:54.000Z</time>
      </trkpt>
      <trkpt lat="45.33646" lon="6.20098">
        <ele>2384.6000976562</ele>
        <time>2014-03-02T11:14:55.000Z</time>
      </trkpt>
      <trkpt lat="45.33646" lon="6.20098">
        <ele>2384.6000976562</ele>
        <time>2014-03-02T11:14:56.000Z</time>
      </trkpt>
      <trkpt lat="45.33646" lon="6.20098">
        <ele>2384.6000976562</ele>
        <time>2014-03-02T11:14:57.000Z</time>
      </trkpt>
      <trkpt lat="45.33646" lon="6.20098">
        <ele>2384.6000976562</ele>
        <time>2014-03-02T11:14:58.000Z</time>
      </trkpt>
      <trkpt lat="45.33646" lon="6.20098">
        <ele>2384.6000976562</ele>
        <time>2014-03-02T11:14:59.000Z</time>
      </trkpt>
      <trkpt lat="45.33646" lon="6.20098">
        <ele>2384.6000976562</ele>
        <time>2014-03-02T11:15:00.000Z</time>
      </trkpt>
      <trkpt lat="45.33646" lon="6.20098">
        <ele>2384.6000976562</ele>
        <time>2014-03-02T11:15:01.000Z</time>
      </trkpt>
      <trkpt lat="45.33646" lon="6.20098">
        <ele>2384.6000976562</ele>
        <time>2014-03-02T11:15:02.000Z</time>
      </trkpt>
      <trkpt lat="45.33646" lon="6.20098">
        <ele>2384.6000976562</ele>
        <time>2014-03-02T11:15:03.000Z</time>
      </trkpt>
      <trkpt lat="45.33646" lon="6.20098">
        <ele>2384.6000976562</ele>
        <time>2014-03-02T11:15:04.000Z</time>
      </trkpt>
      <trkpt lat="45.33646" lon="6.20098">
        <ele>2384.6000976562</ele>
        <time>2014-03-02T11:15:06.000Z</time>
      </trkpt>
      <trkpt lat="45.33646" lon="6.20098">
        <ele>2384.6000976562</ele>
        <time>2014-03-02T11:15:07.000Z</time>
      </trkpt>
      <trkpt lat="45.33646" lon="6.20098">
        <ele>2384.6000976562</ele>
        <time>2014-03-02T11:15:08.000Z</time>
      </trkpt>
      <trkpt lat="45.33646" lon="6.20098">
        <ele>2384.6000976562</ele>
        <time>2014-03-02T11:15:09.000Z</time>
      </trkpt>
      <trkpt lat="45.33646" lon="6.20098">
        <ele>2384.6000976562</ele>
        <time>2014-03-02T11:15:10.000Z</time>
      </trkpt>
      <trkpt lat="45.33646" lon="6.20098">
        <ele>2384.6000976562</ele>
        <time>2014-03-02T11:15:11.000Z</time>
      </trkpt>
      <trkpt lat="45.33646" lon="6.20098">
        <ele>2384.6000976562</ele>
        <time>2014-03-02T11:15:16.000Z</time>
      </trkpt>
      <trkpt lat="45.33646" lon="6.20098">
        <ele>2384.6000976562</ele>
        <time>2014-03-02T11:15:17.000Z</time>
      </trkpt>
      <trkpt lat="45.33645" lon="6.20098">
        <ele>2384.6000976562</ele>
        <time>2014-03-02T11:15:18.000Z</time>
      </trkpt>
      <trkpt lat="45.33645" lon="6.20098">
        <ele>2384.6000976562</ele>
        <time>2014-03-02T11:15:20.000Z</time>
      </trkpt>
      <trkpt lat="45.33645" lon="6.20098">
        <ele>2384.6000976562</ele>
        <time>2014-03-02T11:15:21.000Z</time>
      </trkpt>
      <trkpt lat="45.33645" lon="6.20098">
        <ele>2384.6000976562</ele>
        <time>2014-03-02T11:15:22.000Z</time>
      </trkpt>
      <trkpt lat="45.33645" lon="6.20098">
        <ele>2384.6000976562</ele>
        <time>2014-03-02T11:15:23.000Z</time>
      </trkpt>
      <trkpt lat="45.33645" lon="6.20098">
        <ele>2384.6000976562</ele>
        <time>2014-03-02T11:15:24.000Z</time>
      </trkpt>
      <trkpt lat="45.33645" lon="6.20098">
        <ele>2384.6000976562</ele>
        <time>2014-03-02T11:15:25.000Z</time>
      </trkpt>
      <trkpt lat="45.33645" lon="6.20098">
        <ele>2384.6000976562</ele>
        <time>2014-03-02T11:15:26.000Z</time>
      </trkpt>
      <trkpt lat="45.33645" lon="6.20098">
        <ele>2384.6000976562</ele>
        <time>2014-03-02T11:15:31.000Z</time>
      </trkpt>
      <trkpt lat="45.33645" lon="6.20098">
        <ele>2384.6000976562</ele>
        <time>2014-03-02T11:15:32.000Z</time>
      </trkpt>
      <trkpt lat="45.33645" lon="6.20098">
        <ele>2384.6000976562</ele>
        <time>2014-03-02T11:15:33.000Z</time>
      </trkpt>
      <trkpt lat="45.33645" lon="6.20098">
        <ele>2384.6000976562</ele>
        <time>2014-03-02T11:15:35.000Z</time>
      </trkpt>
      <trkpt lat="45.33645" lon="6.20098">
        <ele>2384.6000976562</ele>
        <time>2014-03-02T11:15:36.000Z</time>
      </trkpt>
      <trkpt lat="45.33645" lon="6.20098">
        <ele>2384.6000976562</ele>
        <time>2014-03-02T11:15:37.000Z</time>
      </trkpt>
      <trkpt lat="45.33645" lon="6.20098">
        <ele>2384.6000976562</ele>
        <time>2014-03-02T11:15:38.000Z</time>
      </trkpt>
      <trkpt lat="45.33645" lon="6.20098">
        <ele>2384.6000976562</ele>
        <time>2014-03-02T11:15:39.000Z</time>
      </trkpt>
      <trkpt lat="45.33645" lon="6.20098">
        <ele>2384.6000976562</ele>
        <time>2014-03-02T11:15:40.000Z</time>
      </trkpt>
      <trkpt lat="45.33645" lon="6.20098">
        <ele>2384.6000976562</ele>
        <time>2014-03-02T11:15:41.000Z</time>
      </trkpt>
      <trkpt lat="45.33645" lon="6.20098">
        <ele>2384.6000976562</ele>
        <time>2014-03-02T11:15:42.000Z</time>
      </trkpt>
      <trkpt lat="45.33645" lon="6.20098">
        <ele>2384.6000976562</ele>
        <time>2014-03-02T11:15:43.000Z</time>
      </trkpt>
      <trkpt lat="45.33645" lon="6.20098">
        <ele>2384.6000976562</ele>
        <time>2014-03-02T11:15:44.000Z</time>
      </trkpt>
      <trkpt lat="45.33645" lon="6.20098">
        <ele>2384.6000976562</ele>
        <time>2014-03-02T11:15:45.000Z</time>
      </trkpt>
      <trkpt lat="45.33645" lon="6.20098">
        <ele>2384.6000976562</ele>
        <time>2014-03-02T11:15:47.000Z</time>
      </trkpt>
      <trkpt lat="45.33645" lon="6.20098">
        <ele>2384.6000976562</ele>
        <time>2014-03-02T11:15:48.000Z</time>
      </trkpt>
      <trkpt lat="45.33645" lon="6.20098">
        <ele>2384.6000976562</ele>
        <time>2014-03-02T11:15:49.000Z</time>
      </trkpt>
      <trkpt lat="45.33645" lon="6.20098">
        <ele>2384.6000976562</ele>
        <time>2014-03-02T11:15:50.000Z</time>
      </trkpt>
      <trkpt lat="45.33645" lon="6.20098">
        <ele>2384.6000976562</ele>
        <time>2014-03-02T11:15:51.000Z</time>
      </trkpt>
      <trkpt lat="45.33645" lon="6.20098">
        <ele>2384.6000976562</ele>
        <time>2014-03-02T11:15:52.000Z</time>
      </trkpt>
      <trkpt lat="45.33645" lon="6.20098">
        <ele>2384.6000976562</ele>
        <time>2014-03-02T11:15:53.000Z</time>
      </trkpt>
      <trkpt lat="45.33645" lon="6.20098">
        <ele>2384.6000976562</ele>
        <time>2014-03-02T11:15:54.000Z</time>
      </trkpt>
      <trkpt lat="45.33645" lon="6.20098">
        <ele>2384.6000976562</ele>
        <time>2014-03-02T11:15:55.000Z</time>
      </trkpt>
      <trkpt lat="45.33645" lon="6.20098">
        <ele>2384.6000976562</ele>
        <time>2014-03-02T11:15:56.000Z</time>
      </trkpt>
      <trkpt lat="45.33645" lon="6.20098">
        <ele>2384.6000976562</ele>
        <time>2014-03-02T11:15:57.000Z</time>
      </trkpt>
      <trkpt lat="45.33646" lon="6.20098">
        <ele>2384.6000976562</ele>
        <time>2014-03-02T11:15:58.000Z</time>
      </trkpt>
      <trkpt lat="45.33646" lon="6.20098">
        <ele>2384.6000976562</ele>
        <time>2014-03-02T11:15:59.000Z</time>
      </trkpt>
      <trkpt lat="45.33646" lon="6.20098">
        <ele>2384.6000976562</ele>
        <time>2014-03-02T11:16:00.000Z</time>
      </trkpt>
      <trkpt lat="45.33646" lon="6.20098">
        <ele>2384.6000976562</ele>
        <time>2014-03-02T11:16:01.000Z</time>
      </trkpt>
      <trkpt lat="45.33646" lon="6.20098">
        <ele>2384.6000976562</ele>
        <time>2014-03-02T11:16:02.000Z</time>
      </trkpt>
      <trkpt lat="45.33646" lon="6.20098">
        <ele>2384.6000976562</ele>
        <time>2014-03-02T11:16:03.000Z</time>
      </trkpt>
      <trkpt lat="45.33646" lon="6.20098">
        <ele>2384.6000976562</ele>
        <time>2014-03-02T11:16:04.000Z</time>
      </trkpt>
      <trkpt lat="45.33646" lon="6.20098">
        <ele>2384.6000976562</ele>
        <time>2014-03-02T11:16:05.000Z</time>
      </trkpt>
      <trkpt lat="45.33646" lon="6.20098">
        <ele>2384.6000976562</ele>
        <time>2014-03-02T11:16:08.000Z</time>
      </trkpt>
      <trkpt lat="45.33646" lon="6.20098">
        <ele>2384.6000976562</ele>
        <time>2014-03-02T11:16:09.000Z</time>
      </trkpt>
      <trkpt lat="45.33646" lon="6.20098">
        <ele>2384.6000976562</ele>
        <time>2014-03-02T11:16:10.000Z</time>
      </trkpt>
      <trkpt lat="45.33646" lon="6.20098">
        <ele>2384.6000976562</ele>
        <time>2014-03-02T11:16:11.000Z</time>
      </trkpt>
      <trkpt lat="45.33646" lon="6.20098">
        <ele>2384.6000976562</ele>
        <time>2014-03-02T11:16:12.000Z</time>
      </trkpt>
      <trkpt lat="45.33646" lon="6.20098">
        <ele>2384.6000976562</ele>
        <time>2014-03-02T11:16:15.000Z</time>
      </trkpt>
      <trkpt lat="45.33646" lon="6.20098">
        <ele>2384.6000976562</ele>
        <time>2014-03-02T11:16:16.000Z</time>
      </trkpt>
      <trkpt lat="45.33646" lon="6.20098">
        <ele>2384.6000976562</ele>
        <time>2014-03-02T11:16:17.000Z</time>
      </trkpt>
      <trkpt lat="45.33646" lon="6.20098">
        <ele>2384.6000976562</ele>
        <time>2014-03-02T11:16:18.000Z</time>
      </trkpt>
      <trkpt lat="45.33646" lon="6.20098">
        <ele>2384.6000976562</ele>
        <time>2014-03-02T11:16:19.000Z</time>
      </trkpt>
      <trkpt lat="45.33646" lon="6.20098">
        <ele>2384.6000976562</ele>
        <time>2014-03-02T11:16:20.000Z</time>
      </trkpt>
      <trkpt lat="45.33646" lon="6.20098">
        <ele>2384.6000976562</ele>
        <time>2014-03-02T11:16:21.000Z</time>
      </trkpt>
      <trkpt lat="45.33646" lon="6.20098">
        <ele>2384.6000976562</ele>
        <time>2014-03-02T11:16:22.000Z</time>
      </trkpt>
      <trkpt lat="45.33646" lon="6.20098">
        <ele>2384.6000976562</ele>
        <time>2014-03-02T11:16:23.000Z</time>
      </trkpt>
      <trkpt lat="45.33646" lon="6.20098">
        <ele>2384.6000976562</ele>
        <time>2014-03-02T11:16:24.000Z</time>
      </trkpt>
      <trkpt lat="45.33646" lon="6.20098">
        <ele>2384.6000976562</ele>
        <time>2014-03-02T11:16:25.000Z</time>
      </trkpt>
      <trkpt lat="45.33646" lon="6.20098">
        <ele>2384.6000976562</ele>
        <time>2014-03-02T11:16:28.000Z</time>
      </trkpt>
      <trkpt lat="45.33646" lon="6.20098">
        <ele>2384.6000976562</ele>
        <time>2014-03-02T11:16:29.000Z</time>
      </trkpt>
      <trkpt lat="45.33646" lon="6.20098">
        <ele>2384.6000976562</ele>
        <time>2014-03-02T11:16:30.000Z</time>
      </trkpt>
      <trkpt lat="45.33646" lon="6.20098">
        <ele>2384.6000976562</ele>
        <time>2014-03-02T11:16:31.000Z</time>
      </trkpt>
      <trkpt lat="45.33646" lon="6.20098">
        <ele>2384.6000976562</ele>
        <time>2014-03-02T11:16:35.000Z</time>
      </trkpt>
      <trkpt lat="45.33646" lon="6.20098">
        <ele>2384.6000976562</ele>
        <time>2014-03-02T11:16:37.000Z</time>
      </trkpt>
      <trkpt lat="45.33646" lon="6.20098">
        <ele>2384.6000976562</ele>
        <time>2014-03-02T11:16:40.000Z</time>
      </trkpt>
      <trkpt lat="45.33646" lon="6.20098">
        <ele>2384.6000976562</ele>
        <time>2014-03-02T11:16:41.000Z</time>
      </trkpt>
      <trkpt lat="45.33646" lon="6.20098">
        <ele>2384.6000976562</ele>
        <time>2014-03-02T11:16:42.000Z</time>
      </trkpt>
      <trkpt lat="45.33646" lon="6.20098">
        <ele>2384.6000976562</ele>
        <time>2014-03-02T11:16:43.000Z</time>
      </trkpt>
      <trkpt lat="45.33646" lon="6.20098">
        <ele>2384.6000976562</ele>
        <time>2014-03-02T11:16:49.000Z</time>
      </trkpt>
      <trkpt lat="45.33646" lon="6.20098">
        <ele>2384.6000976562</ele>
        <time>2014-03-02T11:16:50.000Z</time>
      </trkpt>
      <trkpt lat="45.33646" lon="6.20098">
        <ele>2384.6000976562</ele>
        <time>2014-03-02T11:16:51.000Z</time>
      </trkpt>
      <trkpt lat="45.33646" lon="6.20098">
        <ele>2384.6000976562</ele>
        <time>2014-03-02T11:16:52.000Z</time>
      </trkpt>
      <trkpt lat="45.33646" lon="6.20098">
        <ele>2384.6000976562</ele>
        <time>2014-03-02T11:16:53.000Z</time>
      </trkpt>
      <trkpt lat="45.33646" lon="6.20098">
        <ele>2384.6000976562</ele>
        <time>2014-03-02T11:16:54.000Z</time>
      </trkpt>
      <trkpt lat="45.33646" lon="6.20098">
        <ele>2384.6000976562</ele>
        <time>2014-03-02T11:16:55.000Z</time>
      </trkpt>
      <trkpt lat="45.33646" lon="6.20098">
        <ele>2384.6000976562</ele>
        <time>2014-03-02T11:16:56.000Z</time>
      </trkpt>
      <trkpt lat="45.33646" lon="6.20098">
        <ele>2384.6000976562</ele>
        <time>2014-03-02T11:16:57.000Z</time>
      </trkpt>
      <trkpt lat="45.33646" lon="6.20098">
        <ele>2384.6000976562</ele>
        <time>2014-03-02T11:16:58.000Z</time>
      </trkpt>
      <trkpt lat="45.33646" lon="6.20098">
        <ele>2384.6000976562</ele>
        <time>2014-03-02T11:16:59.000Z</time>
      </trkpt>
      <trkpt lat="45.33646" lon="6.20098">
        <ele>2384.6000976562</ele>
        <time>2014-03-02T11:17:00.000Z</time>
      </trkpt>
      <trkpt lat="45.33646" lon="6.20098">
        <ele>2384.6000976562</ele>
        <time>2014-03-02T11:17:01.000Z</time>
      </trkpt>
      <trkpt lat="45.33646" lon="6.20098">
        <ele>2384.6000976562</ele>
        <time>2014-03-02T11:17:02.000Z</time>
      </trkpt>
      <trkpt lat="45.33646" lon="6.20098">
        <ele>2384.6000976562</ele>
        <time>2014-03-02T11:17:04.000Z</time>
      </trkpt>
      <trkpt lat="45.33646" lon="6.20098">
        <ele>2384.6000976562</ele>
        <time>2014-03-02T11:17:05.000Z</time>
      </trkpt>
      <trkpt lat="45.33646" lon="6.20098">
        <ele>2384.6000976562</ele>
        <time>2014-03-02T11:17:06.000Z</time>
      </trkpt>
      <trkpt lat="45.33646" lon="6.20098">
        <ele>2384.6000976562</ele>
        <time>2014-03-02T11:17:07.000Z</time>
      </trkpt>
      <trkpt lat="45.33646" lon="6.20098">
        <ele>2384.6000976562</ele>
        <time>2014-03-02T11:17:08.000Z</time>
      </trkpt>
      <trkpt lat="45.33646" lon="6.20098">
        <ele>2384.6000976562</ele>
        <time>2014-03-02T11:17:09.000Z</time>
      </trkpt>
      <trkpt lat="45.33646" lon="6.20098">
        <ele>2384.6000976562</ele>
        <time>2014-03-02T11:17:10.000Z</time>
      </trkpt>
      <trkpt lat="45.33646" lon="6.20098">
        <ele>2384.6000976562</ele>
        <time>2014-03-02T11:17:11.000Z</time>
      </trkpt>
      <trkpt lat="45.33646" lon="6.20098">
        <ele>2384.6000976562</ele>
        <time>2014-03-02T11:17:12.000Z</time>
      </trkpt>
      <trkpt lat="45.33646" lon="6.20098">
        <ele>2384.6000976562</ele>
        <time>2014-03-02T11:17:13.000Z</time>
      </trkpt>
      <trkpt lat="45.33646" lon="6.20098">
        <ele>2384.3999023438</ele>
        <time>2014-03-02T11:17:20.000Z</time>
      </trkpt>
      <trkpt lat="45.33646" lon="6.20098">
        <ele>2384.3999023438</ele>
        <time>2014-03-02T11:17:21.000Z</time>
      </trkpt>
      <trkpt lat="45.33646" lon="6.20098">
        <ele>2384.3999023438</ele>
        <time>2014-03-02T11:17:23.000Z</time>
      </trkpt>
      <trkpt lat="45.33646" lon="6.20098">
        <ele>2384.3999023438</ele>
        <time>2014-03-02T11:17:24.000Z</time>
      </trkpt>
      <trkpt lat="45.33646" lon="6.201">
        <ele>2383.8000488281</ele>
        <time>2014-03-02T11:17:25.000Z</time>
      </trkpt>
      <trkpt lat="45.33648" lon="6.20105">
        <ele>2381.8000488281</ele>
        <time>2014-03-02T11:17:26.000Z</time>
      </trkpt>
      <trkpt lat="45.3365" lon="6.20113">
        <ele>2379</ele>
        <time>2014-03-02T11:17:27.000Z</time>
      </trkpt>
      <trkpt lat="45.33652" lon="6.20121">
        <ele>2376.3999023438</ele>
        <time>2014-03-02T11:17:28.000Z</time>
      </trkpt>
      <trkpt lat="45.33654" lon="6.20131">
        <ele>2373.1999511719</ele>
        <time>2014-03-02T11:17:29.000Z</time>
      </trkpt>
      <trkpt lat="45.33655" lon="6.2014">
        <ele>2370</ele>
        <time>2014-03-02T11:17:30.000Z</time>
      </trkpt>
      <trkpt lat="45.33657" lon="6.20151">
        <ele>2366.1999511719</ele>
        <time>2014-03-02T11:17:31.000Z</time>
      </trkpt>
      <trkpt lat="45.33656" lon="6.2016">
        <ele>2362.8000488281</ele>
        <time>2014-03-02T11:17:32.000Z</time>
      </trkpt>
      <trkpt lat="45.33655" lon="6.20167">
        <ele>2360.6000976562</ele>
        <time>2014-03-02T11:17:33.000Z</time>
      </trkpt>
      <trkpt lat="45.33654" lon="6.20174">
        <ele>2358.8000488281</ele>
        <time>2014-03-02T11:17:34.000Z</time>
      </trkpt>
      <trkpt lat="45.33656" lon="6.2018">
        <ele>2356.8000488281</ele>
        <time>2014-03-02T11:17:35.000Z</time>
      </trkpt>
      <trkpt lat="45.33658" lon="6.20188">
        <ele>2354.1999511719</ele>
        <time>2014-03-02T11:17:36.000Z</time>
      </trkpt>
      <trkpt lat="45.3366" lon="6.20195">
        <ele>2351.6000976562</ele>
        <time>2014-03-02T11:17:37.000Z</time>
      </trkpt>
      <trkpt lat="45.33662" lon="6.20203">
        <ele>2349</ele>
        <time>2014-03-02T11:17:38.000Z</time>
      </trkpt>
      <trkpt lat="45.33663" lon="6.20212">
        <ele>2346.1999511719</ele>
        <time>2014-03-02T11:17:39.000Z</time>
      </trkpt>
      <trkpt lat="45.33667" lon="6.2022">
        <ele>2343</ele>
        <time>2014-03-02T11:17:40.000Z</time>
      </trkpt>
      <trkpt lat="45.33671" lon="6.20228">
        <ele>2339.3999023438</ele>
        <time>2014-03-02T11:17:41.000Z</time>
      </trkpt>
      <trkpt lat="45.33675" lon="6.20235">
        <ele>2336</ele>
        <time>2014-03-02T11:17:42.000Z</time>
      </trkpt>
      <trkpt lat="45.3368" lon="6.20241">
        <ele>2332.3999023438</ele>
        <time>2014-03-02T11:17:43.000Z</time>
      </trkpt>
      <trkpt lat="45.33685" lon="6.20247">
        <ele>2329</ele>
        <time>2014-03-02T11:17:44.000Z</time>
      </trkpt>
      <trkpt lat="45.3369" lon="6.20255">
        <ele>2325.3999023438</ele>
        <time>2014-03-02T11:17:45.000Z</time>
      </trkpt>
      <trkpt lat="45.33694" lon="6.2026">
        <ele>2322.3999023438</ele>
        <time>2014-03-02T11:17:46.000Z</time>
      </trkpt>
      <trkpt lat="45.33698" lon="6.20267">
        <ele>2319.1999511719</ele>
        <time>2014-03-02T11:17:47.000Z</time>
      </trkpt>
      <trkpt lat="45.33704" lon="6.20274">
        <ele>2315.1999511719</ele>
        <time>2014-03-02T11:17:48.000Z</time>
      </trkpt>
      <trkpt lat="45.33709" lon="6.20284">
        <ele>2310.8000488281</ele>
        <time>2014-03-02T11:17:49.000Z</time>
      </trkpt>
      <trkpt lat="45.33714" lon="6.20294">
        <ele>2306.6000976562</ele>
        <time>2014-03-02T11:17:50.000Z</time>
      </trkpt>
      <trkpt lat="45.33719" lon="6.20303">
        <ele>2303</ele>
        <time>2014-03-02T11:17:51.000Z</time>
      </trkpt>
      <trkpt lat="45.33724" lon="6.20314">
        <ele>2299.3999023438</ele>
        <time>2014-03-02T11:17:52.000Z</time>
      </trkpt>
      <trkpt lat="45.33729" lon="6.20323">
        <ele>2296.3999023438</ele>
        <time>2014-03-02T11:17:53.000Z</time>
      </trkpt>
      <trkpt lat="45.33734" lon="6.20332">
        <ele>2293.3999023438</ele>
        <time>2014-03-02T11:17:54.000Z</time>
      </trkpt>
      <trkpt lat="45.33739" lon="6.20341">
        <ele>2291</ele>
        <time>2014-03-02T11:17:55.000Z</time>
      </trkpt>
      <trkpt lat="45.33745" lon="6.20349">
        <ele>2288.1999511719</ele>
        <time>2014-03-02T11:17:56.000Z</time>
      </trkpt>
      <trkpt lat="45.33751" lon="6.20356">
        <ele>2285.6000976562</ele>
        <time>2014-03-02T11:17:57.000Z</time>
      </trkpt>
      <trkpt lat="45.33757" lon="6.20363">
        <ele>2282.8000488281</ele>
        <time>2014-03-02T11:17:58.000Z</time>
      </trkpt>
      <trkpt lat="45.33765" lon="6.20367">
        <ele>2278.8000488281</ele>
        <time>2014-03-02T11:17:59.000Z</time>
      </trkpt>
      <trkpt lat="45.33772" lon="6.20367">
        <ele>2275.6000976562</ele>
        <time>2014-03-02T11:18:00.000Z</time>
      </trkpt>
      <trkpt lat="45.33778" lon="6.20368">
        <ele>2273.3999023438</ele>
        <time>2014-03-02T11:18:01.000Z</time>
      </trkpt>
      <trkpt lat="45.33783" lon="6.20366">
        <ele>2272</ele>
        <time>2014-03-02T11:18:02.000Z</time>
      </trkpt>
      <trkpt lat="45.33787" lon="6.20364">
        <ele>2271</ele>
        <time>2014-03-02T11:18:03.000Z</time>
      </trkpt>
      <trkpt lat="45.3379" lon="6.20362">
        <ele>2270.3999023438</ele>
        <time>2014-03-02T11:18:04.000Z</time>
      </trkpt>
      <trkpt lat="45.33792" lon="6.2036">
        <ele>2269.8000488281</ele>
        <time>2014-03-02T11:18:05.000Z</time>
      </trkpt>
      <trkpt lat="45.33795" lon="6.20358">
        <ele>2269.1999511719</ele>
        <time>2014-03-02T11:18:06.000Z</time>
      </trkpt>
      <trkpt lat="45.33797" lon="6.20356">
        <ele>2268.8000488281</ele>
        <time>2014-03-02T11:18:07.000Z</time>
      </trkpt>
      <trkpt lat="45.33799" lon="6.20353">
        <ele>2268.1999511719</ele>
        <time>2014-03-02T11:18:08.000Z</time>
      </trkpt>
      <trkpt lat="45.338" lon="6.20351">
        <ele>2267.8000488281</ele>
        <time>2014-03-02T11:18:09.000Z</time>
      </trkpt>
      <trkpt lat="45.33802" lon="6.20349">
        <ele>2267.1999511719</ele>
        <time>2014-03-02T11:18:10.000Z</time>
      </trkpt>
      <trkpt lat="45.33804" lon="6.20346">
        <ele>2266.8000488281</ele>
        <time>2014-03-02T11:18:11.000Z</time>
      </trkpt>
      <trkpt lat="45.33804" lon="6.20343">
        <ele>2266.6000976562</ele>
        <time>2014-03-02T11:18:12.000Z</time>
      </trkpt>
      <trkpt lat="45.33805" lon="6.20341">
        <ele>2266.6000976562</ele>
        <time>2014-03-02T11:18:13.000Z</time>
      </trkpt>
      <trkpt lat="45.33806" lon="6.2034">
        <ele>2266.3999023438</ele>
        <time>2014-03-02T11:18:14.000Z</time>
      </trkpt>
      <trkpt lat="45.33807" lon="6.20337">
        <ele>2266.1999511719</ele>
        <time>2014-03-02T11:18:15.000Z</time>
      </trkpt>
      <trkpt lat="45.33808" lon="6.20334">
        <ele>2266</ele>
        <time>2014-03-02T11:18:16.000Z</time>
      </trkpt>
      <trkpt lat="45.3381" lon="6.2033">
        <ele>2265.6000976562</ele>
        <time>2014-03-02T11:18:17.000Z</time>
      </trkpt>
      <trkpt lat="45.33811" lon="6.20328">
        <ele>2265.3999023438</ele>
        <time>2014-03-02T11:18:18.000Z</time>
      </trkpt>
      <trkpt lat="45.33811" lon="6.20327">
        <ele>2265.1999511719</ele>
        <time>2014-03-02T11:18:19.000Z</time>
      </trkpt>
      <trkpt lat="45.33812" lon="6.20327">
        <ele>2265</ele>
        <time>2014-03-02T11:18:20.000Z</time>
      </trkpt>
      <trkpt lat="45.33812" lon="6.20327">
        <ele>2265</ele>
        <time>2014-03-02T11:18:21.000Z</time>
      </trkpt>
      <trkpt lat="45.33812" lon="6.20327">
        <ele>2265</ele>
        <time>2014-03-02T11:18:22.000Z</time>
      </trkpt>
      <trkpt lat="45.33812" lon="6.20327">
        <ele>2265</ele>
        <time>2014-03-02T11:18:23.000Z</time>
      </trkpt>
      <trkpt lat="45.33812" lon="6.20327">
        <ele>2265</ele>
        <time>2014-03-02T11:18:24.000Z</time>
      </trkpt>
      <trkpt lat="45.33812" lon="6.20327">
        <ele>2265</ele>
        <time>2014-03-02T11:18:25.000Z</time>
      </trkpt>
      <trkpt lat="45.33812" lon="6.20327">
        <ele>2265</ele>
        <time>2014-03-02T11:18:26.000Z</time>
      </trkpt>
      <trkpt lat="45.33812" lon="6.20327">
        <ele>2265</ele>
        <time>2014-03-02T11:18:27.000Z</time>
      </trkpt>
      <trkpt lat="45.33812" lon="6.20327">
        <ele>2265</ele>
        <time>2014-03-02T11:18:28.000Z</time>
      </trkpt>
      <trkpt lat="45.33812" lon="6.20327">
        <ele>2265</ele>
        <time>2014-03-02T11:18:29.000Z</time>
      </trkpt>
      <trkpt lat="45.33812" lon="6.20327">
        <ele>2265</ele>
        <time>2014-03-02T11:18:30.000Z</time>
      </trkpt>
      <trkpt lat="45.33812" lon="6.20327">
        <ele>2265</ele>
        <time>2014-03-02T11:18:31.000Z</time>
      </trkpt>
      <trkpt lat="45.33812" lon="6.20327">
        <ele>2265</ele>
        <time>2014-03-02T11:18:33.000Z</time>
      </trkpt>
      <trkpt lat="45.33812" lon="6.20327">
        <ele>2265</ele>
        <time>2014-03-02T11:18:34.000Z</time>
      </trkpt>
      <trkpt lat="45.33812" lon="6.20327">
        <ele>2265</ele>
        <time>2014-03-02T11:18:35.000Z</time>
      </trkpt>
      <trkpt lat="45.33812" lon="6.20327">
        <ele>2265</ele>
        <time>2014-03-02T11:18:36.000Z</time>
      </trkpt>
      <trkpt lat="45.33812" lon="6.20327">
        <ele>2265</ele>
        <time>2014-03-02T11:18:40.000Z</time>
      </trkpt>
      <trkpt lat="45.33812" lon="6.20327">
        <ele>2265</ele>
        <time>2014-03-02T11:18:41.000Z</time>
      </trkpt>
      <trkpt lat="45.33812" lon="6.20327">
        <ele>2265</ele>
        <time>2014-03-02T11:18:43.000Z</time>
      </trkpt>
      <trkpt lat="45.33812" lon="6.20327">
        <ele>2265</ele>
        <time>2014-03-02T11:18:44.000Z</time>
      </trkpt>
      <trkpt lat="45.33812" lon="6.20327">
        <ele>2265</ele>
        <time>2014-03-02T11:18:45.000Z</time>
      </trkpt>
      <trkpt lat="45.33812" lon="6.20327">
        <ele>2265</ele>
        <time>2014-03-02T11:18:46.000Z</time>
      </trkpt>
      <trkpt lat="45.33812" lon="6.20327">
        <ele>2265</ele>
        <time>2014-03-02T11:18:47.000Z</time>
      </trkpt>
      <trkpt lat="45.33812" lon="6.20327">
        <ele>2265</ele>
        <time>2014-03-02T11:18:48.000Z</time>
      </trkpt>
      <trkpt lat="45.33812" lon="6.20327">
        <ele>2265</ele>
        <time>2014-03-02T11:18:49.000Z</time>
      </trkpt>
      <trkpt lat="45.33812" lon="6.20327">
        <ele>2265</ele>
        <time>2014-03-02T11:18:50.000Z</time>
      </trkpt>
      <trkpt lat="45.33812" lon="6.20327">
        <ele>2265</ele>
        <time>2014-03-02T11:18:52.000Z</time>
      </trkpt>
      <trkpt lat="45.33812" lon="6.20327">
        <ele>2265</ele>
        <time>2014-03-02T11:18:54.000Z</time>
      </trkpt>
      <trkpt lat="45.33812" lon="6.20327">
        <ele>2265</ele>
        <time>2014-03-02T11:18:55.000Z</time>
      </trkpt>
      <trkpt lat="45.33812" lon="6.20327">
        <ele>2265</ele>
        <time>2014-03-02T11:18:56.000Z</time>
      </trkpt>
      <trkpt lat="45.33812" lon="6.20327">
        <ele>2265</ele>
        <time>2014-03-02T11:18:57.000Z</time>
      </trkpt>
      <trkpt lat="45.33812" lon="6.20327">
        <ele>2265</ele>
        <time>2014-03-02T11:18:58.000Z</time>
      </trkpt>
      <trkpt lat="45.33812" lon="6.20327">
        <ele>2265</ele>
        <time>2014-03-02T11:18:59.000Z</time>
      </trkpt>
      <trkpt lat="45.33812" lon="6.20327">
        <ele>2265</ele>
        <time>2014-03-02T11:19:00.000Z</time>
      </trkpt>
      <trkpt lat="45.33812" lon="6.20327">
        <ele>2265</ele>
        <time>2014-03-02T11:19:01.000Z</time>
      </trkpt>
      <trkpt lat="45.33812" lon="6.20327">
        <ele>2265</ele>
        <time>2014-03-02T11:19:02.000Z</time>
      </trkpt>
      <trkpt lat="45.33812" lon="6.20327">
        <ele>2265</ele>
        <time>2014-03-02T11:19:04.000Z</time>
      </trkpt>
      <trkpt lat="45.33812" lon="6.20327">
        <ele>2265</ele>
        <time>2014-03-02T11:19:05.000Z</time>
      </trkpt>
      <trkpt lat="45.33812" lon="6.20327">
        <ele>2265</ele>
        <time>2014-03-02T11:19:06.000Z</time>
      </trkpt>
      <trkpt lat="45.33812" lon="6.20327">
        <ele>2265</ele>
        <time>2014-03-02T11:19:07.000Z</time>
      </trkpt>
      <trkpt lat="45.33812" lon="6.20327">
        <ele>2265</ele>
        <time>2014-03-02T11:19:09.000Z</time>
      </trkpt>
      <trkpt lat="45.33812" lon="6.20327">
        <ele>2265</ele>
        <time>2014-03-02T11:19:14.000Z</time>
      </trkpt>
      <trkpt lat="45.33812" lon="6.20327">
        <ele>2265</ele>
        <time>2014-03-02T11:19:17.000Z</time>
      </trkpt>
      <trkpt lat="45.33812" lon="6.20327">
        <ele>2265</ele>
        <time>2014-03-02T11:19:18.000Z</time>
      </trkpt>
      <trkpt lat="45.33812" lon="6.20327">
        <ele>2265</ele>
        <time>2014-03-02T11:19:21.000Z</time>
      </trkpt>
      <trkpt lat="45.33812" lon="6.20327">
        <ele>2265</ele>
        <time>2014-03-02T11:19:23.000Z</time>
      </trkpt>
      <trkpt lat="45.33812" lon="6.20327">
        <ele>2265</ele>
        <time>2014-03-02T11:19:26.000Z</time>
      </trkpt>
      <trkpt lat="45.33812" lon="6.20327">
        <ele>2265</ele>
        <time>2014-03-02T11:19:27.000Z</time>
      </trkpt>
      <trkpt lat="45.33812" lon="6.20327">
        <ele>2265</ele>
        <time>2014-03-02T11:19:28.000Z</time>
      </trkpt>
      <trkpt lat="45.33812" lon="6.20327">
        <ele>2265</ele>
        <time>2014-03-02T11:19:29.000Z</time>
      </trkpt>
      <trkpt lat="45.33812" lon="6.20327">
        <ele>2265</ele>
        <time>2014-03-02T11:19:30.000Z</time>
      </trkpt>
      <trkpt lat="45.33812" lon="6.20326">
        <ele>2265.1999511719</ele>
        <time>2014-03-02T11:19:32.000Z</time>
      </trkpt>
      <trkpt lat="45.33812" lon="6.20325">
        <ele>2265.3999023438</ele>
        <time>2014-03-02T11:19:33.000Z</time>
      </trkpt>
      <trkpt lat="45.33812" lon="6.20324">
        <ele>2265.3999023438</ele>
        <time>2014-03-02T11:19:34.000Z</time>
      </trkpt>
      <trkpt lat="45.33813" lon="6.20323">
        <ele>2265</ele>
        <time>2014-03-02T11:19:35.000Z</time>
      </trkpt>
      <trkpt lat="45.33814" lon="6.20322">
        <ele>2264.6000976562</ele>
        <time>2014-03-02T11:19:36.000Z</time>
      </trkpt>
      <trkpt lat="45.33816" lon="6.20321">
        <ele>2263.6000976562</ele>
        <time>2014-03-02T11:19:37.000Z</time>
      </trkpt>
      <trkpt lat="45.33819" lon="6.2032">
        <ele>2262.6000976562</ele>
        <time>2014-03-02T11:19:38.000Z</time>
      </trkpt>
      <trkpt lat="45.3382" lon="6.2032">
        <ele>2261.6000976562</ele>
        <time>2014-03-02T11:19:39.000Z</time>
      </trkpt>
      <trkpt lat="45.33822" lon="6.20319">
        <ele>2261</ele>
        <time>2014-03-02T11:19:40.000Z</time>
      </trkpt>
      <trkpt lat="45.33823" lon="6.20318">
        <ele>2260.1999511719</ele>
        <time>2014-03-02T11:19:41.000Z</time>
      </trkpt>
      <trkpt lat="45.33825" lon="6.20318">
        <ele>2259.3999023438</ele>
        <time>2014-03-02T11:19:42.000Z</time>
      </trkpt>
      <trkpt lat="45.33825" lon="6.20318">
        <ele>2259.1999511719</ele>
        <time>2014-03-02T11:19:43.000Z</time>
      </trkpt>
      <trkpt lat="45.33826" lon="6.20318">
        <ele>2258.8000488281</ele>
        <time>2014-03-02T11:19:44.000Z</time>
      </trkpt>
      <trkpt lat="45.33828" lon="6.20318">
        <ele>2258.1999511719</ele>
        <time>2014-03-02T11:19:45.000Z</time>
      </trkpt>
      <trkpt lat="45.33829" lon="6.20317">
        <ele>2257.3999023438</ele>
        <time>2014-03-02T11:19:46.000Z</time>
      </trkpt>
      <trkpt lat="45.33831" lon="6.20316">
        <ele>2256.3999023438</ele>
        <time>2014-03-02T11:19:47.000Z</time>
      </trkpt>
      <trkpt lat="45.33834" lon="6.20314">
        <ele>2255.3999023438</ele>
        <time>2014-03-02T11:19:48.000Z</time>
      </trkpt>
      <trkpt lat="45.33836" lon="6.20313">
        <ele>2254.6000976562</ele>
        <time>2014-03-02T11:19:49.000Z</time>
      </trkpt>
      <trkpt lat="45.33838" lon="6.20312">
        <ele>2253.6000976562</ele>
        <time>2014-03-02T11:19:50.000Z</time>
      </trkpt>
      <trkpt lat="45.33839" lon="6.20311">
        <ele>2252.8000488281</ele>
        <time>2014-03-02T11:19:51.000Z</time>
      </trkpt>
      <trkpt lat="45.3384" lon="6.2031">
        <ele>2252.8000488281</ele>
        <time>2014-03-02T11:19:52.000Z</time>
      </trkpt>
      <trkpt lat="45.3384" lon="6.20309">
        <ele>2253</ele>
        <time>2014-03-02T11:19:53.000Z</time>
      </trkpt>
      <trkpt lat="45.3384" lon="6.20309">
        <ele>2253</ele>
        <time>2014-03-02T11:19:54.000Z</time>
      </trkpt>
      <trkpt lat="45.3384" lon="6.20307">
        <ele>2253.3999023438</ele>
        <time>2014-03-02T11:19:55.000Z</time>
      </trkpt>
      <trkpt lat="45.3384" lon="6.20306">
        <ele>2253.6000976562</ele>
        <time>2014-03-02T11:19:56.000Z</time>
      </trkpt>
      <trkpt lat="45.33841" lon="6.20305">
        <ele>2253.1999511719</ele>
        <time>2014-03-02T11:19:57.000Z</time>
      </trkpt>
      <trkpt lat="45.33844" lon="6.20305">
        <ele>2252</ele>
        <time>2014-03-02T11:19:58.000Z</time>
      </trkpt>
      <trkpt lat="45.33846" lon="6.20306">
        <ele>2250.6000976562</ele>
        <time>2014-03-02T11:19:59.000Z</time>
      </trkpt>
      <trkpt lat="45.33848" lon="6.20307">
        <ele>2249.1999511719</ele>
        <time>2014-03-02T11:20:00.000Z</time>
      </trkpt>
      <trkpt lat="45.33851" lon="6.20307">
        <ele>2247.8000488281</ele>
        <time>2014-03-02T11:20:01.000Z</time>
      </trkpt>
      <trkpt lat="45.33854" lon="6.20307">
        <ele>2246.3999023438</ele>
        <time>2014-03-02T11:20:02.000Z</time>
      </trkpt>
      <trkpt lat="45.33857" lon="6.20307">
        <ele>2244.8000488281</ele>
        <time>2014-03-02T11:20:03.000Z</time>
      </trkpt>
      <trkpt lat="45.33859" lon="6.20306">
        <ele>2243.6000976562</ele>
        <time>2014-03-02T11:20:04.000Z</time>
      </trkpt>
      <trkpt lat="45.33862" lon="6.20306">
        <ele>2242.3999023438</ele>
        <time>2014-03-02T11:20:05.000Z</time>
      </trkpt>
      <trkpt lat="45.33864" lon="6.20306">
        <ele>2241.1999511719</ele>
        <time>2014-03-02T11:20:06.000Z</time>
      </trkpt>
      <trkpt lat="45.33866" lon="6.20306">
        <ele>2240</ele>
        <time>2014-03-02T11:20:07.000Z</time>
      </trkpt>
      <trkpt lat="45.33866" lon="6.20307">
        <ele>2239.6000976562</ele>
        <time>2014-03-02T11:20:08.000Z</time>
      </trkpt>
      <trkpt lat="45.3387" lon="6.20307">
        <ele>2237.3999023438</ele>
        <time>2014-03-02T11:20:10.000Z</time>
      </trkpt>
      <trkpt lat="45.33873" lon="6.20307">
        <ele>2236.3999023438</ele>
        <time>2014-03-02T11:20:11.000Z</time>
      </trkpt>
      <trkpt lat="45.33875" lon="6.20307">
        <ele>2235.1999511719</ele>
        <time>2014-03-02T11:20:12.000Z</time>
      </trkpt>
      <trkpt lat="45.33877" lon="6.20307">
        <ele>2234</ele>
        <time>2014-03-02T11:20:13.000Z</time>
      </trkpt>
      <trkpt lat="45.3388" lon="6.20306">
        <ele>2232.6000976562</ele>
        <time>2014-03-02T11:20:14.000Z</time>
      </trkpt>
      <trkpt lat="45.33886" lon="6.20303">
        <ele>2231.8000488281</ele>
        <time>2014-03-02T11:20:16.000Z</time>
      </trkpt>
      <trkpt lat="45.33886" lon="6.20303">
        <ele>2231.6000976562</ele>
        <time>2014-03-02T11:20:17.000Z</time>
      </trkpt>
      <trkpt lat="45.33887" lon="6.20302">
        <ele>2231.3999023438</ele>
        <time>2014-03-02T11:20:18.000Z</time>
      </trkpt>
      <trkpt lat="45.33888" lon="6.20302">
        <ele>2231.1999511719</ele>
        <time>2014-03-02T11:20:19.000Z</time>
      </trkpt>
      <trkpt lat="45.33889" lon="6.20303">
        <ele>2231</ele>
        <time>2014-03-02T11:20:20.000Z</time>
      </trkpt>
      <trkpt lat="45.3389" lon="6.20303">
        <ele>2230.3999023438</ele>
        <time>2014-03-02T11:20:21.000Z</time>
      </trkpt>
      <trkpt lat="45.33892" lon="6.20303">
        <ele>2230.1999511719</ele>
        <time>2014-03-02T11:20:22.000Z</time>
      </trkpt>
      <trkpt lat="45.3389" lon="6.20303">
        <ele>2230.3999023438</ele>
        <time>2014-03-02T11:20:23.000Z</time>
      </trkpt>
      <trkpt lat="45.33892" lon="6.20303">
        <ele>2230</ele>
        <time>2014-03-02T11:20:24.000Z</time>
      </trkpt>
      <trkpt lat="45.33894" lon="6.20303">
        <ele>2229.6000976562</ele>
        <time>2014-03-02T11:20:25.000Z</time>
      </trkpt>
      <trkpt lat="45.33896" lon="6.20302">
        <ele>2229.1999511719</ele>
        <time>2014-03-02T11:20:26.000Z</time>
      </trkpt>
      <trkpt lat="45.33899" lon="6.20302">
        <ele>2228.6000976562</ele>
        <time>2014-03-02T11:20:27.000Z</time>
      </trkpt>
      <trkpt lat="45.33899" lon="6.20302">
        <ele>2228.6000976562</ele>
        <time>2014-03-02T11:20:28.000Z</time>
      </trkpt>
      <trkpt lat="45.33899" lon="6.20301">
        <ele>2228.6000976562</ele>
        <time>2014-03-02T11:20:29.000Z</time>
      </trkpt>
      <trkpt lat="45.33899" lon="6.20301">
        <ele>2228.6000976562</ele>
        <time>2014-03-02T11:20:30.000Z</time>
      </trkpt>
      <trkpt lat="45.33902" lon="6.203">
        <ele>2228.1999511719</ele>
        <time>2014-03-02T11:20:31.000Z</time>
      </trkpt>
      <trkpt lat="45.33904" lon="6.20299">
        <ele>2227.8000488281</ele>
        <time>2014-03-02T11:20:32.000Z</time>
      </trkpt>
      <trkpt lat="45.33905" lon="6.20297">
        <ele>2228</ele>
        <time>2014-03-02T11:20:33.000Z</time>
      </trkpt>
      <trkpt lat="45.33908" lon="6.20295">
        <ele>2227.8000488281</ele>
        <time>2014-03-02T11:20:34.000Z</time>
      </trkpt>
      <trkpt lat="45.33911" lon="6.20293">
        <ele>2227.3999023438</ele>
        <time>2014-03-02T11:20:35.000Z</time>
      </trkpt>
      <trkpt lat="45.33914" lon="6.20291">
        <ele>2227</ele>
        <time>2014-03-02T11:20:36.000Z</time>
      </trkpt>
      <trkpt lat="45.33918" lon="6.20289">
        <ele>2226.6000976562</ele>
        <time>2014-03-02T11:20:37.000Z</time>
      </trkpt>
      <trkpt lat="45.33921" lon="6.20288">
        <ele>2226</ele>
        <time>2014-03-02T11:20:38.000Z</time>
      </trkpt>
      <trkpt lat="45.33923" lon="6.20287">
        <ele>2225.6000976562</ele>
        <time>2014-03-02T11:20:39.000Z</time>
      </trkpt>
      <trkpt lat="45.33924" lon="6.20287">
        <ele>2225.6000976562</ele>
        <time>2014-03-02T11:20:40.000Z</time>
      </trkpt>
      <trkpt lat="45.33923" lon="6.20286">
        <ele>2226</ele>
        <time>2014-03-02T11:20:41.000Z</time>
      </trkpt>
      <trkpt lat="45.33926" lon="6.20285">
        <ele>2225.3999023438</ele>
        <time>2014-03-02T11:20:42.000Z</time>
      </trkpt>
      <trkpt lat="45.33928" lon="6.20284">
        <ele>2225</ele>
        <time>2014-03-02T11:20:43.000Z</time>
      </trkpt>
      <trkpt lat="45.3393" lon="6.20283">
        <ele>2224.8000488281</ele>
        <time>2014-03-02T11:20:44.000Z</time>
      </trkpt>
      <trkpt lat="45.33932" lon="6.20282">
        <ele>2224.6000976562</ele>
        <time>2014-03-02T11:20:45.000Z</time>
      </trkpt>
      <trkpt lat="45.33934" lon="6.2028">
        <ele>2224.3999023438</ele>
        <time>2014-03-02T11:20:46.000Z</time>
      </trkpt>
      <trkpt lat="45.33936" lon="6.20278">
        <ele>2223.8000488281</ele>
        <time>2014-03-02T11:20:47.000Z</time>
      </trkpt>
      <trkpt lat="45.33938" lon="6.20276">
        <ele>2223.1999511719</ele>
        <time>2014-03-02T11:20:48.000Z</time>
      </trkpt>
      <trkpt lat="45.33941" lon="6.20274">
        <ele>2222.3999023438</ele>
        <time>2014-03-02T11:20:49.000Z</time>
      </trkpt>
      <trkpt lat="45.33946" lon="6.20271">
        <ele>2220.8000488281</ele>
        <time>2014-03-02T11:20:50.000Z</time>
      </trkpt>
      <trkpt lat="45.33951" lon="6.20268">
        <ele>2219</ele>
        <time>2014-03-02T11:20:51.000Z</time>
      </trkpt>
      <trkpt lat="45.33956" lon="6.20266">
        <ele>2217.3999023438</ele>
        <time>2014-03-02T11:20:52.000Z</time>
      </trkpt>
      <trkpt lat="45.33961" lon="6.20263">
        <ele>2215.6000976562</ele>
        <time>2014-03-02T11:20:53.000Z</time>
      </trkpt>
      <trkpt lat="45.33967" lon="6.20261">
        <ele>2214.6000976562</ele>
        <time>2014-03-02T11:20:54.000Z</time>
      </trkpt>
      <trkpt lat="45.33972" lon="6.20261">
        <ele>2214.1999511719</ele>
        <time>2014-03-02T11:20:55.000Z</time>
      </trkpt>
      <trkpt lat="45.33978" lon="6.20261">
        <ele>2213.6000976562</ele>
        <time>2014-03-02T11:20:56.000Z</time>
      </trkpt>
      <trkpt lat="45.33982" lon="6.20263">
        <ele>2213</ele>
        <time>2014-03-02T11:20:57.000Z</time>
      </trkpt>
      <trkpt lat="45.33987" lon="6.20263">
        <ele>2212.3999023438</ele>
        <time>2014-03-02T11:20:58.000Z</time>
      </trkpt>
      <trkpt lat="45.33991" lon="6.20264">
        <ele>2212</ele>
        <time>2014-03-02T11:20:59.000Z</time>
      </trkpt>
      <trkpt lat="45.33994" lon="6.2026">
        <ele>2212.1999511719</ele>
        <time>2014-03-02T11:21:00.000Z</time>
      </trkpt>
      <trkpt lat="45.33999" lon="6.20257">
        <ele>2211.8000488281</ele>
        <time>2014-03-02T11:21:01.000Z</time>
      </trkpt>
      <trkpt lat="45.34004" lon="6.20257">
        <ele>2211.1999511719</ele>
        <time>2014-03-02T11:21:02.000Z</time>
      </trkpt>
      <trkpt lat="45.34009" lon="6.20255">
        <ele>2210.8000488281</ele>
        <time>2014-03-02T11:21:03.000Z</time>
      </trkpt>
      <trkpt lat="45.34013" lon="6.20255">
        <ele>2210.3999023438</ele>
        <time>2014-03-02T11:21:04.000Z</time>
      </trkpt>
      <trkpt lat="45.34016" lon="6.20256">
        <ele>2210</ele>
        <time>2014-03-02T11:21:05.000Z</time>
      </trkpt>
      <trkpt lat="45.3402" lon="6.20257">
        <ele>2209.6000976562</ele>
        <time>2014-03-02T11:21:06.000Z</time>
      </trkpt>
      <trkpt lat="45.34024" lon="6.20256">
        <ele>2209.1999511719</ele>
        <time>2014-03-02T11:21:07.000Z</time>
      </trkpt>
      <trkpt lat="45.34028" lon="6.20255">
        <ele>2208.8000488281</ele>
        <time>2014-03-02T11:21:08.000Z</time>
      </trkpt>
      <trkpt lat="45.34033" lon="6.20254">
        <ele>2208.3999023438</ele>
        <time>2014-03-02T11:21:09.000Z</time>
      </trkpt>
      <trkpt lat="45.34038" lon="6.20253">
        <ele>2208</ele>
        <time>2014-03-02T11:21:10.000Z</time>
      </trkpt>
      <trkpt lat="45.34043" lon="6.20252">
        <ele>2207.6000976562</ele>
        <time>2014-03-02T11:21:11.000Z</time>
      </trkpt>
      <trkpt lat="45.34048" lon="6.20252">
        <ele>2207</ele>
        <time>2014-03-02T11:21:12.000Z</time>
      </trkpt>
      <trkpt lat="45.34053" lon="6.20251">
        <ele>2206.1999511719</ele>
        <time>2014-03-02T11:21:13.000Z</time>
      </trkpt>
      <trkpt lat="45.34064" lon="6.2025">
        <ele>2204.3999023438</ele>
        <time>2014-03-02T11:21:15.000Z</time>
      </trkpt>
      <trkpt lat="45.34069" lon="6.20249">
        <ele>2203.6000976562</ele>
        <time>2014-03-02T11:21:16.000Z</time>
      </trkpt>
      <trkpt lat="45.34075" lon="6.20249">
        <ele>2203.6000976562</ele>
        <time>2014-03-02T11:21:17.000Z</time>
      </trkpt>
      <trkpt lat="45.34091" lon="6.20244">
        <ele>2203.1999511719</ele>
        <time>2014-03-02T11:21:20.000Z</time>
      </trkpt>
      <trkpt lat="45.34095" lon="6.20241">
        <ele>2203.6000976562</ele>
        <time>2014-03-02T11:21:21.000Z</time>
      </trkpt>
      <trkpt lat="45.341" lon="6.20237">
        <ele>2204.1999511719</ele>
        <time>2014-03-02T11:21:22.000Z</time>
      </trkpt>
      <trkpt lat="45.34104" lon="6.20234">
        <ele>2204.3999023438</ele>
        <time>2014-03-02T11:21:23.000Z</time>
      </trkpt>
      <trkpt lat="45.34109" lon="6.20234">
        <ele>2204.3999023438</ele>
        <time>2014-03-02T11:21:24.000Z</time>
      </trkpt>
      <trkpt lat="45.34118" lon="6.20237">
        <ele>2203.1999511719</ele>
        <time>2014-03-02T11:21:25.000Z</time>
      </trkpt>
      <trkpt lat="45.34126" lon="6.20237">
        <ele>2202.6000976562</ele>
        <time>2014-03-02T11:21:26.000Z</time>
      </trkpt>
      <trkpt lat="45.34133" lon="6.20237">
        <ele>2201.8000488281</ele>
        <time>2014-03-02T11:21:27.000Z</time>
      </trkpt>
      <trkpt lat="45.34139" lon="6.20236">
        <ele>2200</ele>
        <time>2014-03-02T11:21:28.000Z</time>
      </trkpt>
      <trkpt lat="45.34145" lon="6.20235">
        <ele>2198.8000488281</ele>
        <time>2014-03-02T11:21:29.000Z</time>
      </trkpt>
      <trkpt lat="45.34147" lon="6.20237">
        <ele>2197.8000488281</ele>
        <time>2014-03-02T11:21:30.000Z</time>
      </trkpt>
      <trkpt lat="45.34146" lon="6.20238">
        <ele>2197.6000976562</ele>
        <time>2014-03-02T11:21:31.000Z</time>
      </trkpt>
      <trkpt lat="45.34146" lon="6.2024">
        <ele>2197.1999511719</ele>
        <time>2014-03-02T11:21:32.000Z</time>
      </trkpt>
      <trkpt lat="45.34145" lon="6.20241">
        <ele>2197</ele>
        <time>2014-03-02T11:21:33.000Z</time>
      </trkpt>
      <trkpt lat="45.34143" lon="6.20242">
        <ele>2197.3999023438</ele>
        <time>2014-03-02T11:21:34.000Z</time>
      </trkpt>
      <trkpt lat="45.34143" lon="6.20242">
        <ele>2197.3999023438</ele>
        <time>2014-03-02T11:21:35.000Z</time>
      </trkpt>
      <trkpt lat="45.34144" lon="6.20242">
        <ele>2197</ele>
        <time>2014-03-02T11:21:36.000Z</time>
      </trkpt>
      <trkpt lat="45.34144" lon="6.20243">
        <ele>2196.8000488281</ele>
        <time>2014-03-02T11:21:37.000Z</time>
      </trkpt>
      <trkpt lat="45.34144" lon="6.20244">
        <ele>2196.8000488281</ele>
        <time>2014-03-02T11:21:38.000Z</time>
      </trkpt>
      <trkpt lat="45.34143" lon="6.20245">
        <ele>2196.8000488281</ele>
        <time>2014-03-02T11:21:39.000Z</time>
      </trkpt>
      <trkpt lat="45.34142" lon="6.20245">
        <ele>2197.1999511719</ele>
        <time>2014-03-02T11:21:40.000Z</time>
      </trkpt>
      <trkpt lat="45.34142" lon="6.20245">
        <ele>2197.1999511719</ele>
        <time>2014-03-02T11:21:41.000Z</time>
      </trkpt>
      <trkpt lat="45.34142" lon="6.20245">
        <ele>2197.1999511719</ele>
        <time>2014-03-02T11:21:42.000Z</time>
      </trkpt>
      <trkpt lat="45.34141" lon="6.20246">
        <ele>2197.3999023438</ele>
        <time>2014-03-02T11:21:43.000Z</time>
      </trkpt>
      <trkpt lat="45.34141" lon="6.20246">
        <ele>2197.3999023438</ele>
        <time>2014-03-02T11:21:44.000Z</time>
      </trkpt>
      <trkpt lat="45.34141" lon="6.20246">
        <ele>2197.3999023438</ele>
        <time>2014-03-02T11:21:45.000Z</time>
      </trkpt>
      <trkpt lat="45.34141" lon="6.20246">
        <ele>2197.3999023438</ele>
        <time>2014-03-02T11:21:46.000Z</time>
      </trkpt>
      <trkpt lat="45.34141" lon="6.20246">
        <ele>2197.3999023438</ele>
        <time>2014-03-02T11:21:47.000Z</time>
      </trkpt>
      <trkpt lat="45.34141" lon="6.20246">
        <ele>2197.3999023438</ele>
        <time>2014-03-02T11:21:48.000Z</time>
      </trkpt>
      <trkpt lat="45.34141" lon="6.20246">
        <ele>2197.3999023438</ele>
        <time>2014-03-02T11:21:49.000Z</time>
      </trkpt>
      <trkpt lat="45.34141" lon="6.20246">
        <ele>2197.3999023438</ele>
        <time>2014-03-02T11:21:50.000Z</time>
      </trkpt>
      <trkpt lat="45.34141" lon="6.20246">
        <ele>2197.1999511719</ele>
        <time>2014-03-02T11:21:51.000Z</time>
      </trkpt>
      <trkpt lat="45.34141" lon="6.20247">
        <ele>2197.1999511719</ele>
        <time>2014-03-02T11:21:52.000Z</time>
      </trkpt>
      <trkpt lat="45.34131" lon="6.2025">
        <ele>2199.8000488281</ele>
        <time>2014-03-02T11:21:53.000Z</time>
      </trkpt>
      <trkpt lat="45.34124" lon="6.20251">
        <ele>2200</ele>
        <time>2014-03-02T11:21:54.000Z</time>
      </trkpt>
      <trkpt lat="45.34116" lon="6.20254">
        <ele>2200</ele>
        <time>2014-03-02T11:21:55.000Z</time>
      </trkpt>
      <trkpt lat="45.3411" lon="6.20255">
        <ele>2200.1999511719</ele>
        <time>2014-03-02T11:21:56.000Z</time>
      </trkpt>
      <trkpt lat="45.34106" lon="6.20255">
        <ele>2200.3999023438</ele>
        <time>2014-03-02T11:21:57.000Z</time>
      </trkpt>
      <trkpt lat="45.34103" lon="6.20256">
        <ele>2200.3999023438</ele>
        <time>2014-03-02T11:21:58.000Z</time>
      </trkpt>
      <trkpt lat="45.34101" lon="6.20256">
        <ele>2200.6000976562</ele>
        <time>2014-03-02T11:21:59.000Z</time>
      </trkpt>
      <trkpt lat="45.34099" lon="6.20258">
        <ele>2200.1999511719</ele>
        <time>2014-03-02T11:22:00.000Z</time>
      </trkpt>
      <trkpt lat="45.34099" lon="6.2026">
        <ele>2200</ele>
        <time>2014-03-02T11:22:01.000Z</time>
      </trkpt>
      <trkpt lat="45.34093" lon="6.20263">
        <ele>2199.6000976562</ele>
        <time>2014-03-02T11:22:02.000Z</time>
      </trkpt>
      <trkpt lat="45.34089" lon="6.20265">
        <ele>2199.3999023438</ele>
        <time>2014-03-02T11:22:03.000Z</time>
      </trkpt>
      <trkpt lat="45.34088" lon="6.20267">
        <ele>2199.1999511719</ele>
        <time>2014-03-02T11:22:04.000Z</time>
      </trkpt>
      <trkpt lat="45.34094" lon="6.20268">
        <ele>2198.6000976562</ele>
        <time>2014-03-02T11:22:05.000Z</time>
      </trkpt>
      <trkpt lat="45.341" lon="6.20269">
        <ele>2198</ele>
        <time>2014-03-02T11:22:06.000Z</time>
      </trkpt>
      <trkpt lat="45.34107" lon="6.2027">
        <ele>2197.3999023438</ele>
        <time>2014-03-02T11:22:07.000Z</time>
      </trkpt>
      <trkpt lat="45.34113" lon="6.20272">
        <ele>2196.8000488281</ele>
        <time>2014-03-02T11:22:08.000Z</time>
      </trkpt>
      <trkpt lat="45.34119" lon="6.20276">
        <ele>2195.6000976562</ele>
        <time>2014-03-02T11:22:09.000Z</time>
      </trkpt>
      <trkpt lat="45.34123" lon="6.20277">
        <ele>2195.1999511719</ele>
        <time>2014-03-02T11:22:10.000Z</time>
      </trkpt>
      <trkpt lat="45.34128" lon="6.20277">
        <ele>2194.8000488281</ele>
        <time>2014-03-02T11:22:11.000Z</time>
      </trkpt>
      <trkpt lat="45.34133" lon="6.20278">
        <ele>2193.8000488281</ele>
        <time>2014-03-02T11:22:12.000Z</time>
      </trkpt>
      <trkpt lat="45.34136" lon="6.20278">
        <ele>2192.8000488281</ele>
        <time>2014-03-02T11:22:13.000Z</time>
      </trkpt>
      <trkpt lat="45.34138" lon="6.20279">
        <ele>2191.8000488281</ele>
        <time>2014-03-02T11:22:14.000Z</time>
      </trkpt>
      <trkpt lat="45.34141" lon="6.2028">
        <ele>2190.8000488281</ele>
        <time>2014-03-02T11:22:15.000Z</time>
      </trkpt>
      <trkpt lat="45.34141" lon="6.2028">
        <ele>2190.6000976562</ele>
        <time>2014-03-02T11:22:16.000Z</time>
      </trkpt>
      <trkpt lat="45.34141" lon="6.20281">
        <ele>2190.6000976562</ele>
        <time>2014-03-02T11:22:17.000Z</time>
      </trkpt>
      <trkpt lat="45.34141" lon="6.20281">
        <ele>2190.3999023438</ele>
        <time>2014-03-02T11:22:18.000Z</time>
      </trkpt>
      <trkpt lat="45.34141" lon="6.20281">
        <ele>2190.3999023438</ele>
        <time>2014-03-02T11:22:19.000Z</time>
      </trkpt>
      <trkpt lat="45.34142" lon="6.20282">
        <ele>2190.1999511719</ele>
        <time>2014-03-02T11:22:20.000Z</time>
      </trkpt>
      <trkpt lat="45.34141" lon="6.20281">
        <ele>2190.6000976562</ele>
        <time>2014-03-02T11:22:21.000Z</time>
      </trkpt>
      <trkpt lat="45.34141" lon="6.20281">
        <ele>2190.3999023438</ele>
        <time>2014-03-02T11:22:22.000Z</time>
      </trkpt>
      <trkpt lat="45.34141" lon="6.20281">
        <ele>2190.6000976562</ele>
        <time>2014-03-02T11:22:23.000Z</time>
      </trkpt>
      <trkpt lat="45.34141" lon="6.20281">
        <ele>2190.6000976562</ele>
        <time>2014-03-02T11:22:24.000Z</time>
      </trkpt>
      <trkpt lat="45.3414" lon="6.20281">
        <ele>2190.8000488281</ele>
        <time>2014-03-02T11:22:25.000Z</time>
      </trkpt>
      <trkpt lat="45.3414" lon="6.20281">
        <ele>2191</ele>
        <time>2014-03-02T11:22:26.000Z</time>
      </trkpt>
      <trkpt lat="45.3414" lon="6.20281">
        <ele>2191</ele>
        <time>2014-03-02T11:22:27.000Z</time>
      </trkpt>
      <trkpt lat="45.3414" lon="6.20281">
        <ele>2191</ele>
        <time>2014-03-02T11:22:28.000Z</time>
      </trkpt>
      <trkpt lat="45.3414" lon="6.20281">
        <ele>2191</ele>
        <time>2014-03-02T11:22:29.000Z</time>
      </trkpt>
      <trkpt lat="45.3414" lon="6.20281">
        <ele>2191</ele>
        <time>2014-03-02T11:22:30.000Z</time>
      </trkpt>
      <trkpt lat="45.3414" lon="6.20281">
        <ele>2191</ele>
        <time>2014-03-02T11:22:31.000Z</time>
      </trkpt>
      <trkpt lat="45.3414" lon="6.20281">
        <ele>2191</ele>
        <time>2014-03-02T11:22:32.000Z</time>
      </trkpt>
      <trkpt lat="45.3414" lon="6.20281">
        <ele>2191</ele>
        <time>2014-03-02T11:22:33.000Z</time>
      </trkpt>
      <trkpt lat="45.3414" lon="6.20281">
        <ele>2191</ele>
        <time>2014-03-02T11:22:34.000Z</time>
      </trkpt>
      <trkpt lat="45.3414" lon="6.20281">
        <ele>2191</ele>
        <time>2014-03-02T11:22:35.000Z</time>
      </trkpt>
      <trkpt lat="45.3414" lon="6.20281">
        <ele>2191</ele>
        <time>2014-03-02T11:22:36.000Z</time>
      </trkpt>
      <trkpt lat="45.3414" lon="6.20281">
        <ele>2191</ele>
        <time>2014-03-02T11:22:37.000Z</time>
      </trkpt>
      <trkpt lat="45.3414" lon="6.20281">
        <ele>2191</ele>
        <time>2014-03-02T11:22:38.000Z</time>
      </trkpt>
      <trkpt lat="45.3414" lon="6.20281">
        <ele>2191</ele>
        <time>2014-03-02T11:22:39.000Z</time>
      </trkpt>
      <trkpt lat="45.3414" lon="6.20281">
        <ele>2191</ele>
        <time>2014-03-02T11:22:40.000Z</time>
      </trkpt>
      <trkpt lat="45.3414" lon="6.20281">
        <ele>2191</ele>
        <time>2014-03-02T11:22:41.000Z</time>
      </trkpt>
      <trkpt lat="45.3414" lon="6.20281">
        <ele>2191</ele>
        <time>2014-03-02T11:22:42.000Z</time>
      </trkpt>
      <trkpt lat="45.3414" lon="6.20281">
        <ele>2191</ele>
        <time>2014-03-02T11:22:43.000Z</time>
      </trkpt>
      <trkpt lat="45.3414" lon="6.20281">
        <ele>2191</ele>
        <time>2014-03-02T11:22:44.000Z</time>
      </trkpt>
      <trkpt lat="45.3414" lon="6.20281">
        <ele>2191</ele>
        <time>2014-03-02T11:22:45.000Z</time>
      </trkpt>
      <trkpt lat="45.3414" lon="6.20281">
        <ele>2191</ele>
        <time>2014-03-02T11:22:46.000Z</time>
      </trkpt>
      <trkpt lat="45.3414" lon="6.20281">
        <ele>2191</ele>
        <time>2014-03-02T11:22:47.000Z</time>
      </trkpt>
      <trkpt lat="45.3414" lon="6.20281">
        <ele>2191</ele>
        <time>2014-03-02T11:22:48.000Z</time>
      </trkpt>
      <trkpt lat="45.3414" lon="6.20281">
        <ele>2191</ele>
        <time>2014-03-02T11:22:49.000Z</time>
      </trkpt>
      <trkpt lat="45.3414" lon="6.20281">
        <ele>2191</ele>
        <time>2014-03-02T11:22:50.000Z</time>
      </trkpt>
      <trkpt lat="45.3414" lon="6.20281">
        <ele>2191</ele>
        <time>2014-03-02T11:22:51.000Z</time>
      </trkpt>
      <trkpt lat="45.3414" lon="6.20281">
        <ele>2191</ele>
        <time>2014-03-02T11:22:52.000Z</time>
      </trkpt>
      <trkpt lat="45.3414" lon="6.20281">
        <ele>2191</ele>
        <time>2014-03-02T11:22:53.000Z</time>
      </trkpt>
      <trkpt lat="45.3414" lon="6.20281">
        <ele>2191</ele>
        <time>2014-03-02T11:22:54.000Z</time>
      </trkpt>
      <trkpt lat="45.3414" lon="6.20281">
        <ele>2191</ele>
        <time>2014-03-02T11:22:55.000Z</time>
      </trkpt>
      <trkpt lat="45.3414" lon="6.20281">
        <ele>2191</ele>
        <time>2014-03-02T11:22:56.000Z</time>
      </trkpt>
      <trkpt lat="45.3414" lon="6.20281">
        <ele>2191</ele>
        <time>2014-03-02T11:22:59.000Z</time>
      </trkpt>
      <trkpt lat="45.3414" lon="6.20281">
        <ele>2191</ele>
        <time>2014-03-02T11:23:00.000Z</time>
      </trkpt>
      <trkpt lat="45.3414" lon="6.20281">
        <ele>2191</ele>
        <time>2014-03-02T11:23:01.000Z</time>
      </trkpt>
      <trkpt lat="45.3414" lon="6.20281">
        <ele>2191</ele>
        <time>2014-03-02T11:23:02.000Z</time>
      </trkpt>
      <trkpt lat="45.3414" lon="6.20281">
        <ele>2191</ele>
        <time>2014-03-02T11:23:03.000Z</time>
      </trkpt>
      <trkpt lat="45.3414" lon="6.20281">
        <ele>2191</ele>
        <time>2014-03-02T11:23:04.000Z</time>
      </trkpt>
      <trkpt lat="45.3414" lon="6.20281">
        <ele>2191</ele>
        <time>2014-03-02T11:23:05.000Z</time>
      </trkpt>
      <trkpt lat="45.34139" lon="6.2028">
        <ele>2191.3999023438</ele>
        <time>2014-03-02T11:23:06.000Z</time>
      </trkpt>
      <trkpt lat="45.34139" lon="6.2028">
        <ele>2191.3999023438</ele>
        <time>2014-03-02T11:23:07.000Z</time>
      </trkpt>
      <trkpt lat="45.34139" lon="6.2028">
        <ele>2191.3999023438</ele>
        <time>2014-03-02T11:23:08.000Z</time>
      </trkpt>
      <trkpt lat="45.34139" lon="6.2028">
        <ele>2191.3999023438</ele>
        <time>2014-03-02T11:23:09.000Z</time>
      </trkpt>
      <trkpt lat="45.34139" lon="6.2028">
        <ele>2191.3999023438</ele>
        <time>2014-03-02T11:23:10.000Z</time>
      </trkpt>
      <trkpt lat="45.34139" lon="6.2028">
        <ele>2191.3999023438</ele>
        <time>2014-03-02T11:23:12.000Z</time>
      </trkpt>
      <trkpt lat="45.34139" lon="6.2028">
        <ele>2191.3999023438</ele>
        <time>2014-03-02T11:23:13.000Z</time>
      </trkpt>
      <trkpt lat="45.34139" lon="6.2028">
        <ele>2191.3999023438</ele>
        <time>2014-03-02T11:23:14.000Z</time>
      </trkpt>
      <trkpt lat="45.34139" lon="6.2028">
        <ele>2191.3999023438</ele>
        <time>2014-03-02T11:23:15.000Z</time>
      </trkpt>
      <trkpt lat="45.34139" lon="6.2028">
        <ele>2191.3999023438</ele>
        <time>2014-03-02T11:23:16.000Z</time>
      </trkpt>
      <trkpt lat="45.34139" lon="6.2028">
        <ele>2191.3999023438</ele>
        <time>2014-03-02T11:23:17.000Z</time>
      </trkpt>
      <trkpt lat="45.34139" lon="6.2028">
        <ele>2191.3999023438</ele>
        <time>2014-03-02T11:23:18.000Z</time>
      </trkpt>
      <trkpt lat="45.34139" lon="6.2028">
        <ele>2191.3999023438</ele>
        <time>2014-03-02T11:23:19.000Z</time>
      </trkpt>
      <trkpt lat="45.34139" lon="6.2028">
        <ele>2191.3999023438</ele>
        <time>2014-03-02T11:23:20.000Z</time>
      </trkpt>
      <trkpt lat="45.34139" lon="6.2028">
        <ele>2191.3999023438</ele>
        <time>2014-03-02T11:23:21.000Z</time>
      </trkpt>
      <trkpt lat="45.34139" lon="6.2028">
        <ele>2191.3999023438</ele>
        <time>2014-03-02T11:23:22.000Z</time>
      </trkpt>
      <trkpt lat="45.34139" lon="6.2028">
        <ele>2191.3999023438</ele>
        <time>2014-03-02T11:23:23.000Z</time>
      </trkpt>
      <trkpt lat="45.34139" lon="6.2028">
        <ele>2191.3999023438</ele>
        <time>2014-03-02T11:23:24.000Z</time>
      </trkpt>
      <trkpt lat="45.34139" lon="6.2028">
        <ele>2191.3999023438</ele>
        <time>2014-03-02T11:23:25.000Z</time>
      </trkpt>
      <trkpt lat="45.34139" lon="6.2028">
        <ele>2191.3999023438</ele>
        <time>2014-03-02T11:23:26.000Z</time>
      </trkpt>
      <trkpt lat="45.34139" lon="6.2028">
        <ele>2191.3999023438</ele>
        <time>2014-03-02T11:23:27.000Z</time>
      </trkpt>
      <trkpt lat="45.34139" lon="6.2028">
        <ele>2191.3999023438</ele>
        <time>2014-03-02T11:23:28.000Z</time>
      </trkpt>
      <trkpt lat="45.34139" lon="6.2028">
        <ele>2191.3999023438</ele>
        <time>2014-03-02T11:23:29.000Z</time>
      </trkpt>
      <trkpt lat="45.34139" lon="6.2028">
        <ele>2191.3999023438</ele>
        <time>2014-03-02T11:23:30.000Z</time>
      </trkpt>
      <trkpt lat="45.34139" lon="6.2028">
        <ele>2191.3999023438</ele>
        <time>2014-03-02T11:23:31.000Z</time>
      </trkpt>
      <trkpt lat="45.34139" lon="6.2028">
        <ele>2191.3999023438</ele>
        <time>2014-03-02T11:23:32.000Z</time>
      </trkpt>
      <trkpt lat="45.34139" lon="6.2028">
        <ele>2191.3999023438</ele>
        <time>2014-03-02T11:23:33.000Z</time>
      </trkpt>
      <trkpt lat="45.34139" lon="6.2028">
        <ele>2191.3999023438</ele>
        <time>2014-03-02T11:23:34.000Z</time>
      </trkpt>
      <trkpt lat="45.34139" lon="6.2028">
        <ele>2191.3999023438</ele>
        <time>2014-03-02T11:23:35.000Z</time>
      </trkpt>
      <trkpt lat="45.34139" lon="6.2028">
        <ele>2191.3999023438</ele>
        <time>2014-03-02T11:23:36.000Z</time>
      </trkpt>
      <trkpt lat="45.34139" lon="6.2028">
        <ele>2191.3999023438</ele>
        <time>2014-03-02T11:23:37.000Z</time>
      </trkpt>
      <trkpt lat="45.34139" lon="6.2028">
        <ele>2191.3999023438</ele>
        <time>2014-03-02T11:23:38.000Z</time>
      </trkpt>
      <trkpt lat="45.34139" lon="6.2028">
        <ele>2191.3999023438</ele>
        <time>2014-03-02T11:23:39.000Z</time>
      </trkpt>
      <trkpt lat="45.34139" lon="6.2028">
        <ele>2191.3999023438</ele>
        <time>2014-03-02T11:23:41.000Z</time>
      </trkpt>
      <trkpt lat="45.34139" lon="6.2028">
        <ele>2191.3999023438</ele>
        <time>2014-03-02T11:23:42.000Z</time>
      </trkpt>
      <trkpt lat="45.34139" lon="6.2028">
        <ele>2191.3999023438</ele>
        <time>2014-03-02T11:23:43.000Z</time>
      </trkpt>
      <trkpt lat="45.34139" lon="6.2028">
        <ele>2191.3999023438</ele>
        <time>2014-03-02T11:23:44.000Z</time>
      </trkpt>
      <trkpt lat="45.34139" lon="6.2028">
        <ele>2191.3999023438</ele>
        <time>2014-03-02T11:23:45.000Z</time>
      </trkpt>
      <trkpt lat="45.3414" lon="6.20278">
        <ele>2191.6000976562</ele>
        <time>2014-03-02T11:23:46.000Z</time>
      </trkpt>
      <trkpt lat="45.3414" lon="6.20278">
        <ele>2191.6000976562</ele>
        <time>2014-03-02T11:23:47.000Z</time>
      </trkpt>
      <trkpt lat="45.3414" lon="6.20278">
        <ele>2191.6000976562</ele>
        <time>2014-03-02T11:23:48.000Z</time>
      </trkpt>
      <trkpt lat="45.3414" lon="6.20278">
        <ele>2191.6000976562</ele>
        <time>2014-03-02T11:23:49.000Z</time>
      </trkpt>
      <trkpt lat="45.3414" lon="6.20278">
        <ele>2191.6000976562</ele>
        <time>2014-03-02T11:23:52.000Z</time>
      </trkpt>
      <trkpt lat="45.3414" lon="6.20278">
        <ele>2191.6000976562</ele>
        <time>2014-03-02T11:23:55.000Z</time>
      </trkpt>
      <trkpt lat="45.3414" lon="6.20278">
        <ele>2191.6000976562</ele>
        <time>2014-03-02T11:23:56.000Z</time>
      </trkpt>
      <trkpt lat="45.3414" lon="6.20278">
        <ele>2191.6000976562</ele>
        <time>2014-03-02T11:23:57.000Z</time>
      </trkpt>
      <trkpt lat="45.3414" lon="6.20278">
        <ele>2191.6000976562</ele>
        <time>2014-03-02T11:23:58.000Z</time>
      </trkpt>
      <trkpt lat="45.3414" lon="6.20278">
        <ele>2191.6000976562</ele>
        <time>2014-03-02T11:23:59.000Z</time>
      </trkpt>
      <trkpt lat="45.3414" lon="6.20278">
        <ele>2191.6000976562</ele>
        <time>2014-03-02T11:24:00.000Z</time>
      </trkpt>
      <trkpt lat="45.3414" lon="6.20278">
        <ele>2191.6000976562</ele>
        <time>2014-03-02T11:24:01.000Z</time>
      </trkpt>
      <trkpt lat="45.3414" lon="6.20278">
        <ele>2191.6000976562</ele>
        <time>2014-03-02T11:24:02.000Z</time>
      </trkpt>
      <trkpt lat="45.3414" lon="6.20278">
        <ele>2191.6000976562</ele>
        <time>2014-03-02T11:24:03.000Z</time>
      </trkpt>
      <trkpt lat="45.3414" lon="6.20278">
        <ele>2191.6000976562</ele>
        <time>2014-03-02T11:24:04.000Z</time>
      </trkpt>
      <trkpt lat="45.3414" lon="6.20278">
        <ele>2191.6000976562</ele>
        <time>2014-03-02T11:24:05.000Z</time>
      </trkpt>
      <trkpt lat="45.3414" lon="6.20278">
        <ele>2191.6000976562</ele>
        <time>2014-03-02T11:24:06.000Z</time>
      </trkpt>
      <trkpt lat="45.3414" lon="6.20278">
        <ele>2191.6000976562</ele>
        <time>2014-03-02T11:24:07.000Z</time>
      </trkpt>
      <trkpt lat="45.3414" lon="6.20278">
        <ele>2191.6000976562</ele>
        <time>2014-03-02T11:24:08.000Z</time>
      </trkpt>
      <trkpt lat="45.3414" lon="6.20278">
        <ele>2191.6000976562</ele>
        <time>2014-03-02T11:24:09.000Z</time>
      </trkpt>
      <trkpt lat="45.3414" lon="6.20278">
        <ele>2191.6000976562</ele>
        <time>2014-03-02T11:24:10.000Z</time>
      </trkpt>
      <trkpt lat="45.3414" lon="6.20278">
        <ele>2191.6000976562</ele>
        <time>2014-03-02T11:24:11.000Z</time>
      </trkpt>
      <trkpt lat="45.3414" lon="6.20278">
        <ele>2191.6000976562</ele>
        <time>2014-03-02T11:24:12.000Z</time>
      </trkpt>
      <trkpt lat="45.3414" lon="6.20278">
        <ele>2191.6000976562</ele>
        <time>2014-03-02T11:24:13.000Z</time>
      </trkpt>
      <trkpt lat="45.3414" lon="6.20278">
        <ele>2191.6000976562</ele>
        <time>2014-03-02T11:24:14.000Z</time>
      </trkpt>
      <trkpt lat="45.3414" lon="6.20278">
        <ele>2191.6000976562</ele>
        <time>2014-03-02T11:24:15.000Z</time>
      </trkpt>
      <trkpt lat="45.3414" lon="6.20278">
        <ele>2191.6000976562</ele>
        <time>2014-03-02T11:24:20.000Z</time>
      </trkpt>
      <trkpt lat="45.3414" lon="6.20278">
        <ele>2191.6000976562</ele>
        <time>2014-03-02T11:24:21.000Z</time>
      </trkpt>
      <trkpt lat="45.3414" lon="6.20278">
        <ele>2191.6000976562</ele>
        <time>2014-03-02T11:24:22.000Z</time>
      </trkpt>
      <trkpt lat="45.3414" lon="6.20278">
        <ele>2191.6000976562</ele>
        <time>2014-03-02T11:24:23.000Z</time>
      </trkpt>
      <trkpt lat="45.3414" lon="6.20278">
        <ele>2191.6000976562</ele>
        <time>2014-03-02T11:24:24.000Z</time>
      </trkpt>
      <trkpt lat="45.3414" lon="6.20278">
        <ele>2191.6000976562</ele>
        <time>2014-03-02T11:24:25.000Z</time>
      </trkpt>
      <trkpt lat="45.34137" lon="6.20276">
        <ele>2192.8000488281</ele>
        <time>2014-03-02T11:24:26.000Z</time>
      </trkpt>
      <trkpt lat="45.34137" lon="6.20276">
        <ele>2192.8000488281</ele>
        <time>2014-03-02T11:24:27.000Z</time>
      </trkpt>
      <trkpt lat="45.34137" lon="6.20276">
        <ele>2192.8000488281</ele>
        <time>2014-03-02T11:24:28.000Z</time>
      </trkpt>
      <trkpt lat="45.34137" lon="6.20276">
        <ele>2192.8000488281</ele>
        <time>2014-03-02T11:24:30.000Z</time>
      </trkpt>
      <trkpt lat="45.34137" lon="6.20276">
        <ele>2192.8000488281</ele>
        <time>2014-03-02T11:24:31.000Z</time>
      </trkpt>
      <trkpt lat="45.34137" lon="6.20276">
        <ele>2192.8000488281</ele>
        <time>2014-03-02T11:24:32.000Z</time>
      </trkpt>
      <trkpt lat="45.34137" lon="6.20276">
        <ele>2192.8000488281</ele>
        <time>2014-03-02T11:24:33.000Z</time>
      </trkpt>
      <trkpt lat="45.34137" lon="6.20276">
        <ele>2192.8000488281</ele>
        <time>2014-03-02T11:24:34.000Z</time>
      </trkpt>
      <trkpt lat="45.34137" lon="6.20276">
        <ele>2192.8000488281</ele>
        <time>2014-03-02T11:24:35.000Z</time>
      </trkpt>
      <trkpt lat="45.34137" lon="6.20276">
        <ele>2192.8000488281</ele>
        <time>2014-03-02T11:24:36.000Z</time>
      </trkpt>
      <trkpt lat="45.34137" lon="6.20276">
        <ele>2192.8000488281</ele>
        <time>2014-03-02T11:24:37.000Z</time>
      </trkpt>
      <trkpt lat="45.34137" lon="6.20276">
        <ele>2192.8000488281</ele>
        <time>2014-03-02T11:24:38.000Z</time>
      </trkpt>
      <trkpt lat="45.34137" lon="6.20276">
        <ele>2192.8000488281</ele>
        <time>2014-03-02T11:24:39.000Z</time>
      </trkpt>
      <trkpt lat="45.34137" lon="6.20276">
        <ele>2192.8000488281</ele>
        <time>2014-03-02T11:24:40.000Z</time>
      </trkpt>
      <trkpt lat="45.34137" lon="6.20276">
        <ele>2192.8000488281</ele>
        <time>2014-03-02T11:24:41.000Z</time>
      </trkpt>
      <trkpt lat="45.34137" lon="6.20276">
        <ele>2192.8000488281</ele>
        <time>2014-03-02T11:24:42.000Z</time>
      </trkpt>
      <trkpt lat="45.34137" lon="6.20276">
        <ele>2192.8000488281</ele>
        <time>2014-03-02T11:24:43.000Z</time>
      </trkpt>
      <trkpt lat="45.34137" lon="6.20276">
        <ele>2192.8000488281</ele>
        <time>2014-03-02T11:24:44.000Z</time>
      </trkpt>
      <trkpt lat="45.34137" lon="6.20276">
        <ele>2192.8000488281</ele>
        <time>2014-03-02T11:24:45.000Z</time>
      </trkpt>
      <trkpt lat="45.34137" lon="6.20276">
        <ele>2192.8000488281</ele>
        <time>2014-03-02T11:24:46.000Z</time>
      </trkpt>
      <trkpt lat="45.34137" lon="6.20276">
        <ele>2192.8000488281</ele>
        <time>2014-03-02T11:24:47.000Z</time>
      </trkpt>
      <trkpt lat="45.34137" lon="6.20276">
        <ele>2192.8000488281</ele>
        <time>2014-03-02T11:24:48.000Z</time>
      </trkpt>
      <trkpt lat="45.34137" lon="6.20276">
        <ele>2192.8000488281</ele>
        <time>2014-03-02T11:24:49.000Z</time>
      </trkpt>
      <trkpt lat="45.34137" lon="6.20276">
        <ele>2192.8000488281</ele>
        <time>2014-03-02T11:24:50.000Z</time>
      </trkpt>
      <trkpt lat="45.34137" lon="6.20276">
        <ele>2192.8000488281</ele>
        <time>2014-03-02T11:24:51.000Z</time>
      </trkpt>
      <trkpt lat="45.34137" lon="6.20276">
        <ele>2192.8000488281</ele>
        <time>2014-03-02T11:24:52.000Z</time>
      </trkpt>
      <trkpt lat="45.34137" lon="6.20276">
        <ele>2192.8000488281</ele>
        <time>2014-03-02T11:24:53.000Z</time>
      </trkpt>
      <trkpt lat="45.34137" lon="6.20276">
        <ele>2192.8000488281</ele>
        <time>2014-03-02T11:24:54.000Z</time>
      </trkpt>
      <trkpt lat="45.34137" lon="6.20276">
        <ele>2192.8000488281</ele>
        <time>2014-03-02T11:24:55.000Z</time>
      </trkpt>
      <trkpt lat="45.34137" lon="6.20276">
        <ele>2192.8000488281</ele>
        <time>2014-03-02T11:24:56.000Z</time>
      </trkpt>
      <trkpt lat="45.34137" lon="6.20276">
        <ele>2192.8000488281</ele>
        <time>2014-03-02T11:24:57.000Z</time>
      </trkpt>
      <trkpt lat="45.34137" lon="6.20276">
        <ele>2192.8000488281</ele>
        <time>2014-03-02T11:24:58.000Z</time>
      </trkpt>
      <trkpt lat="45.34137" lon="6.20276">
        <ele>2192.8000488281</ele>
        <time>2014-03-02T11:24:59.000Z</time>
      </trkpt>
      <trkpt lat="45.34137" lon="6.20276">
        <ele>2192.8000488281</ele>
        <time>2014-03-02T11:25:00.000Z</time>
      </trkpt>
      <trkpt lat="45.34137" lon="6.20276">
        <ele>2192.8000488281</ele>
        <time>2014-03-02T11:25:01.000Z</time>
      </trkpt>
      <trkpt lat="45.34137" lon="6.20276">
        <ele>2192.8000488281</ele>
        <time>2014-03-02T11:25:02.000Z</time>
      </trkpt>
      <trkpt lat="45.34126" lon="6.20279">
        <ele>2194.6000976562</ele>
        <time>2014-03-02T11:25:03.000Z</time>
      </trkpt>
      <trkpt lat="45.34126" lon="6.20279">
        <ele>2194.6000976562</ele>
        <time>2014-03-02T11:25:04.000Z</time>
      </trkpt>
      <trkpt lat="45.34126" lon="6.20279">
        <ele>2194.6000976562</ele>
        <time>2014-03-02T11:25:05.000Z</time>
      </trkpt>
      <trkpt lat="45.34126" lon="6.20279">
        <ele>2194.6000976562</ele>
        <time>2014-03-02T11:25:06.000Z</time>
      </trkpt>
      <trkpt lat="45.34126" lon="6.20279">
        <ele>2194.6000976562</ele>
        <time>2014-03-02T11:25:07.000Z</time>
      </trkpt>
      <trkpt lat="45.34126" lon="6.20279">
        <ele>2194.6000976562</ele>
        <time>2014-03-02T11:25:08.000Z</time>
      </trkpt>
      <trkpt lat="45.34126" lon="6.20279">
        <ele>2194.6000976562</ele>
        <time>2014-03-02T11:25:09.000Z</time>
      </trkpt>
      <trkpt lat="45.34126" lon="6.20279">
        <ele>2194.6000976562</ele>
        <time>2014-03-02T11:25:10.000Z</time>
      </trkpt>
      <trkpt lat="45.34126" lon="6.20279">
        <ele>2194.6000976562</ele>
        <time>2014-03-02T11:25:11.000Z</time>
      </trkpt>
      <trkpt lat="45.34126" lon="6.20279">
        <ele>2194.6000976562</ele>
        <time>2014-03-02T11:25:12.000Z</time>
      </trkpt>
      <trkpt lat="45.34126" lon="6.20279">
        <ele>2194.6000976562</ele>
        <time>2014-03-02T11:25:14.000Z</time>
      </trkpt>
      <trkpt lat="45.34126" lon="6.20279">
        <ele>2194.6000976562</ele>
        <time>2014-03-02T11:25:15.000Z</time>
      </trkpt>
      <trkpt lat="45.34126" lon="6.20279">
        <ele>2194.6000976562</ele>
        <time>2014-03-02T11:25:16.000Z</time>
      </trkpt>
      <trkpt lat="45.34126" lon="6.20279">
        <ele>2194.6000976562</ele>
        <time>2014-03-02T11:25:17.000Z</time>
      </trkpt>
      <trkpt lat="45.34126" lon="6.20279">
        <ele>2194.6000976562</ele>
        <time>2014-03-02T11:25:18.000Z</time>
      </trkpt>
      <trkpt lat="45.34126" lon="6.20279">
        <ele>2194.6000976562</ele>
        <time>2014-03-02T11:25:19.000Z</time>
      </trkpt>
      <trkpt lat="45.34126" lon="6.20279">
        <ele>2194.6000976562</ele>
        <time>2014-03-02T11:25:20.000Z</time>
      </trkpt>
      <trkpt lat="45.34126" lon="6.20279">
        <ele>2194.6000976562</ele>
        <time>2014-03-02T11:25:21.000Z</time>
      </trkpt>
      <trkpt lat="45.34126" lon="6.20279">
        <ele>2194.6000976562</ele>
        <time>2014-03-02T11:25:22.000Z</time>
      </trkpt>
      <trkpt lat="45.34126" lon="6.20279">
        <ele>2194.6000976562</ele>
        <time>2014-03-02T11:25:23.000Z</time>
      </trkpt>
      <trkpt lat="45.34126" lon="6.20279">
        <ele>2194.6000976562</ele>
        <time>2014-03-02T11:25:24.000Z</time>
      </trkpt>
      <trkpt lat="45.34126" lon="6.20279">
        <ele>2194.6000976562</ele>
        <time>2014-03-02T11:25:25.000Z</time>
      </trkpt>
      <trkpt lat="45.34126" lon="6.20279">
        <ele>2194.6000976562</ele>
        <time>2014-03-02T11:25:26.000Z</time>
      </trkpt>
      <trkpt lat="45.34126" lon="6.20279">
        <ele>2194.6000976562</ele>
        <time>2014-03-02T11:25:27.000Z</time>
      </trkpt>
      <trkpt lat="45.34126" lon="6.20279">
        <ele>2194.6000976562</ele>
        <time>2014-03-02T11:25:28.000Z</time>
      </trkpt>
      <trkpt lat="45.34126" lon="6.20279">
        <ele>2194.6000976562</ele>
        <time>2014-03-02T11:25:29.000Z</time>
      </trkpt>
      <trkpt lat="45.34126" lon="6.20279">
        <ele>2194.6000976562</ele>
        <time>2014-03-02T11:25:30.000Z</time>
      </trkpt>
      <trkpt lat="45.34126" lon="6.20279">
        <ele>2194.6000976562</ele>
        <time>2014-03-02T11:25:31.000Z</time>
      </trkpt>
      <trkpt lat="45.34126" lon="6.20279">
        <ele>2194.6000976562</ele>
        <time>2014-03-02T11:25:33.000Z</time>
      </trkpt>
      <trkpt lat="45.34126" lon="6.20279">
        <ele>2194.6000976562</ele>
        <time>2014-03-02T11:25:34.000Z</time>
      </trkpt>
      <trkpt lat="45.34126" lon="6.20279">
        <ele>2194.6000976562</ele>
        <time>2014-03-02T11:25:35.000Z</time>
      </trkpt>
      <trkpt lat="45.34126" lon="6.20279">
        <ele>2194.6000976562</ele>
        <time>2014-03-02T11:25:36.000Z</time>
      </trkpt>
      <trkpt lat="45.34126" lon="6.20279">
        <ele>2194.6000976562</ele>
        <time>2014-03-02T11:25:38.000Z</time>
      </trkpt>
      <trkpt lat="45.34126" lon="6.20279">
        <ele>2194.6000976562</ele>
        <time>2014-03-02T11:25:39.000Z</time>
      </trkpt>
      <trkpt lat="45.34126" lon="6.20279">
        <ele>2194.6000976562</ele>
        <time>2014-03-02T11:25:41.000Z</time>
      </trkpt>
      <trkpt lat="45.34126" lon="6.20279">
        <ele>2194.6000976562</ele>
        <time>2014-03-02T11:25:42.000Z</time>
      </trkpt>
      <trkpt lat="45.34126" lon="6.20278">
        <ele>2194.8000488281</ele>
        <time>2014-03-02T11:25:43.000Z</time>
      </trkpt>
      <trkpt lat="45.34126" lon="6.20278">
        <ele>2194.8000488281</ele>
        <time>2014-03-02T11:25:44.000Z</time>
      </trkpt>
      <trkpt lat="45.34126" lon="6.20278">
        <ele>2194.8000488281</ele>
        <time>2014-03-02T11:25:45.000Z</time>
      </trkpt>
      <trkpt lat="45.34126" lon="6.20278">
        <ele>2194.8000488281</ele>
        <time>2014-03-02T11:25:46.000Z</time>
      </trkpt>
      <trkpt lat="45.34126" lon="6.20278">
        <ele>2194.8000488281</ele>
        <time>2014-03-02T11:25:49.000Z</time>
      </trkpt>
      <trkpt lat="45.34126" lon="6.20278">
        <ele>2194.8000488281</ele>
        <time>2014-03-02T11:25:50.000Z</time>
      </trkpt>
      <trkpt lat="45.34126" lon="6.20278">
        <ele>2194.8000488281</ele>
        <time>2014-03-02T11:25:51.000Z</time>
      </trkpt>
      <trkpt lat="45.34126" lon="6.20278">
        <ele>2194.8000488281</ele>
        <time>2014-03-02T11:25:52.000Z</time>
      </trkpt>
      <trkpt lat="45.34126" lon="6.20278">
        <ele>2194.8000488281</ele>
        <time>2014-03-02T11:25:53.000Z</time>
      </trkpt>
      <trkpt lat="45.34126" lon="6.20278">
        <ele>2194.8000488281</ele>
        <time>2014-03-02T11:25:54.000Z</time>
      </trkpt>
      <trkpt lat="45.34126" lon="6.20278">
        <ele>2194.8000488281</ele>
        <time>2014-03-02T11:25:55.000Z</time>
      </trkpt>
      <trkpt lat="45.34126" lon="6.20278">
        <ele>2194.8000488281</ele>
        <time>2014-03-02T11:25:56.000Z</time>
      </trkpt>
      <trkpt lat="45.34126" lon="6.20278">
        <ele>2194.8000488281</ele>
        <time>2014-03-02T11:25:57.000Z</time>
      </trkpt>
      <trkpt lat="45.34126" lon="6.20278">
        <ele>2194.8000488281</ele>
        <time>2014-03-02T11:25:58.000Z</time>
      </trkpt>
      <trkpt lat="45.34126" lon="6.20278">
        <ele>2194.8000488281</ele>
        <time>2014-03-02T11:25:59.000Z</time>
      </trkpt>
      <trkpt lat="45.34126" lon="6.20278">
        <ele>2194.8000488281</ele>
        <time>2014-03-02T11:26:00.000Z</time>
      </trkpt>
      <trkpt lat="45.34126" lon="6.20278">
        <ele>2194.8000488281</ele>
        <time>2014-03-02T11:26:01.000Z</time>
      </trkpt>
      <trkpt lat="45.34126" lon="6.20278">
        <ele>2194.8000488281</ele>
        <time>2014-03-02T11:26:02.000Z</time>
      </trkpt>
      <trkpt lat="45.34126" lon="6.20278">
        <ele>2194.8000488281</ele>
        <time>2014-03-02T11:26:03.000Z</time>
      </trkpt>
      <trkpt lat="45.34126" lon="6.20278">
        <ele>2194.8000488281</ele>
        <time>2014-03-02T11:26:04.000Z</time>
      </trkpt>
      <trkpt lat="45.34126" lon="6.20278">
        <ele>2194.8000488281</ele>
        <time>2014-03-02T11:26:05.000Z</time>
      </trkpt>
      <trkpt lat="45.34126" lon="6.20278">
        <ele>2194.8000488281</ele>
        <time>2014-03-02T11:26:06.000Z</time>
      </trkpt>
      <trkpt lat="45.34126" lon="6.20278">
        <ele>2194.8000488281</ele>
        <time>2014-03-02T11:26:07.000Z</time>
      </trkpt>
      <trkpt lat="45.34126" lon="6.20278">
        <ele>2194.8000488281</ele>
        <time>2014-03-02T11:26:08.000Z</time>
      </trkpt>
      <trkpt lat="45.34126" lon="6.20278">
        <ele>2194.8000488281</ele>
        <time>2014-03-02T11:26:09.000Z</time>
      </trkpt>
      <trkpt lat="45.34126" lon="6.20278">
        <ele>2194.8000488281</ele>
        <time>2014-03-02T11:26:10.000Z</time>
      </trkpt>
      <trkpt lat="45.34126" lon="6.20278">
        <ele>2194.8000488281</ele>
        <time>2014-03-02T11:26:11.000Z</time>
      </trkpt>
      <trkpt lat="45.34126" lon="6.20278">
        <ele>2194.8000488281</ele>
        <time>2014-03-02T11:26:12.000Z</time>
      </trkpt>
      <trkpt lat="45.34126" lon="6.20278">
        <ele>2194.8000488281</ele>
        <time>2014-03-02T11:26:13.000Z</time>
      </trkpt>
      <trkpt lat="45.34126" lon="6.20278">
        <ele>2194.8000488281</ele>
        <time>2014-03-02T11:26:15.000Z</time>
      </trkpt>
      <trkpt lat="45.34126" lon="6.20278">
        <ele>2194.8000488281</ele>
        <time>2014-03-02T11:26:17.000Z</time>
      </trkpt>
      <trkpt lat="45.34126" lon="6.20278">
        <ele>2194.8000488281</ele>
        <time>2014-03-02T11:26:19.000Z</time>
      </trkpt>
      <trkpt lat="45.34126" lon="6.20278">
        <ele>2194.8000488281</ele>
        <time>2014-03-02T11:26:20.000Z</time>
      </trkpt>
      <trkpt lat="45.34126" lon="6.20278">
        <ele>2194.8000488281</ele>
        <time>2014-03-02T11:26:21.000Z</time>
      </trkpt>
      <trkpt lat="45.34126" lon="6.20278">
        <ele>2194.8000488281</ele>
        <time>2014-03-02T11:26:22.000Z</time>
      </trkpt>
      <trkpt lat="45.34126" lon="6.20279">
        <ele>2194.6000976562</ele>
        <time>2014-03-02T11:26:23.000Z</time>
      </trkpt>
      <trkpt lat="45.34126" lon="6.20279">
        <ele>2194.6000976562</ele>
        <time>2014-03-02T11:26:24.000Z</time>
      </trkpt>
      <trkpt lat="45.34126" lon="6.20279">
        <ele>2194.6000976562</ele>
        <time>2014-03-02T11:26:25.000Z</time>
      </trkpt>
      <trkpt lat="45.34126" lon="6.20279">
        <ele>2194.6000976562</ele>
        <time>2014-03-02T11:26:26.000Z</time>
      </trkpt>
      <trkpt lat="45.34126" lon="6.20279">
        <ele>2194.6000976562</ele>
        <time>2014-03-02T11:26:27.000Z</time>
      </trkpt>
      <trkpt lat="45.34126" lon="6.20279">
        <ele>2194.6000976562</ele>
        <time>2014-03-02T11:26:28.000Z</time>
      </trkpt>
      <trkpt lat="45.34126" lon="6.20279">
        <ele>2194.6000976562</ele>
        <time>2014-03-02T11:26:29.000Z</time>
      </trkpt>
      <trkpt lat="45.34125" lon="6.2028">
        <ele>2194.3999023438</ele>
        <time>2014-03-02T11:26:30.000Z</time>
      </trkpt>
      <trkpt lat="45.34124" lon="6.20281">
        <ele>2194.3999023438</ele>
        <time>2014-03-02T11:26:31.000Z</time>
      </trkpt>
      <trkpt lat="45.34124" lon="6.20281">
        <ele>2194.3999023438</ele>
        <time>2014-03-02T11:26:32.000Z</time>
      </trkpt>
      <trkpt lat="45.34124" lon="6.20281">
        <ele>2194.3999023438</ele>
        <time>2014-03-02T11:26:34.000Z</time>
      </trkpt>
      <trkpt lat="45.34124" lon="6.20281">
        <ele>2194.3999023438</ele>
        <time>2014-03-02T11:26:35.000Z</time>
      </trkpt>
      <trkpt lat="45.34124" lon="6.20281">
        <ele>2194.3999023438</ele>
        <time>2014-03-02T11:26:36.000Z</time>
      </trkpt>
      <trkpt lat="45.34124" lon="6.20281">
        <ele>2194.3999023438</ele>
        <time>2014-03-02T11:26:37.000Z</time>
      </trkpt>
      <trkpt lat="45.34124" lon="6.20281">
        <ele>2194.3999023438</ele>
        <time>2014-03-02T11:26:38.000Z</time>
      </trkpt>
      <trkpt lat="45.34124" lon="6.20281">
        <ele>2194.3999023438</ele>
        <time>2014-03-02T11:26:39.000Z</time>
      </trkpt>
      <trkpt lat="45.34124" lon="6.20281">
        <ele>2194.3999023438</ele>
        <time>2014-03-02T11:26:40.000Z</time>
      </trkpt>
      <trkpt lat="45.34124" lon="6.20281">
        <ele>2194.3999023438</ele>
        <time>2014-03-02T11:26:41.000Z</time>
      </trkpt>
      <trkpt lat="45.34124" lon="6.20281">
        <ele>2194.3999023438</ele>
        <time>2014-03-02T11:26:42.000Z</time>
      </trkpt>
      <trkpt lat="45.34124" lon="6.20281">
        <ele>2194.3999023438</ele>
        <time>2014-03-02T11:26:43.000Z</time>
      </trkpt>
      <trkpt lat="45.34124" lon="6.20281">
        <ele>2194.3999023438</ele>
        <time>2014-03-02T11:26:44.000Z</time>
      </trkpt>
      <trkpt lat="45.34124" lon="6.20281">
        <ele>2194.3999023438</ele>
        <time>2014-03-02T11:26:45.000Z</time>
      </trkpt>
      <trkpt lat="45.34124" lon="6.20281">
        <ele>2194.3999023438</ele>
        <time>2014-03-02T11:26:46.000Z</time>
      </trkpt>
      <trkpt lat="45.34124" lon="6.20281">
        <ele>2194.3999023438</ele>
        <time>2014-03-02T11:26:48.000Z</time>
      </trkpt>
      <trkpt lat="45.34124" lon="6.20281">
        <ele>2194.3999023438</ele>
        <time>2014-03-02T11:26:49.000Z</time>
      </trkpt>
      <trkpt lat="45.34124" lon="6.20281">
        <ele>2194.3999023438</ele>
        <time>2014-03-02T11:26:50.000Z</time>
      </trkpt>
      <trkpt lat="45.34124" lon="6.20281">
        <ele>2194.3999023438</ele>
        <time>2014-03-02T11:26:51.000Z</time>
      </trkpt>
      <trkpt lat="45.34124" lon="6.20281">
        <ele>2194.3999023438</ele>
        <time>2014-03-02T11:26:52.000Z</time>
      </trkpt>
      <trkpt lat="45.34124" lon="6.20281">
        <ele>2194.3999023438</ele>
        <time>2014-03-02T11:26:53.000Z</time>
      </trkpt>
      <trkpt lat="45.34124" lon="6.20281">
        <ele>2194.3999023438</ele>
        <time>2014-03-02T11:26:54.000Z</time>
      </trkpt>
      <trkpt lat="45.34124" lon="6.20281">
        <ele>2194.3999023438</ele>
        <time>2014-03-02T11:26:55.000Z</time>
      </trkpt>
      <trkpt lat="45.34124" lon="6.20281">
        <ele>2194.3999023438</ele>
        <time>2014-03-02T11:26:56.000Z</time>
      </trkpt>
      <trkpt lat="45.34124" lon="6.20281">
        <ele>2194.3999023438</ele>
        <time>2014-03-02T11:26:57.000Z</time>
      </trkpt>
      <trkpt lat="45.34124" lon="6.20281">
        <ele>2194.3999023438</ele>
        <time>2014-03-02T11:26:58.000Z</time>
      </trkpt>
      <trkpt lat="45.34124" lon="6.20281">
        <ele>2194.3999023438</ele>
        <time>2014-03-02T11:26:59.000Z</time>
      </trkpt>
      <trkpt lat="45.34124" lon="6.20281">
        <ele>2194.3999023438</ele>
        <time>2014-03-02T11:27:00.000Z</time>
      </trkpt>
      <trkpt lat="45.34124" lon="6.20281">
        <ele>2194.3999023438</ele>
        <time>2014-03-02T11:27:01.000Z</time>
      </trkpt>
      <trkpt lat="45.34124" lon="6.20281">
        <ele>2194.3999023438</ele>
        <time>2014-03-02T11:27:02.000Z</time>
      </trkpt>
      <trkpt lat="45.34124" lon="6.20281">
        <ele>2194.3999023438</ele>
        <time>2014-03-02T11:27:03.000Z</time>
      </trkpt>
      <trkpt lat="45.34124" lon="6.20281">
        <ele>2194.3999023438</ele>
        <time>2014-03-02T11:27:04.000Z</time>
      </trkpt>
      <trkpt lat="45.34124" lon="6.20281">
        <ele>2194.3999023438</ele>
        <time>2014-03-02T11:27:05.000Z</time>
      </trkpt>
      <trkpt lat="45.34124" lon="6.20281">
        <ele>2194.3999023438</ele>
        <time>2014-03-02T11:27:06.000Z</time>
      </trkpt>
      <trkpt lat="45.34124" lon="6.20281">
        <ele>2194.3999023438</ele>
        <time>2014-03-02T11:27:07.000Z</time>
      </trkpt>
      <trkpt lat="45.34124" lon="6.20281">
        <ele>2194.3999023438</ele>
        <time>2014-03-02T11:27:08.000Z</time>
      </trkpt>
      <trkpt lat="45.34124" lon="6.20281">
        <ele>2194.3999023438</ele>
        <time>2014-03-02T11:27:09.000Z</time>
      </trkpt>
      <trkpt lat="45.34124" lon="6.20281">
        <ele>2194.3999023438</ele>
        <time>2014-03-02T11:27:10.000Z</time>
      </trkpt>
      <trkpt lat="45.34124" lon="6.20281">
        <ele>2194.3999023438</ele>
        <time>2014-03-02T11:27:11.000Z</time>
      </trkpt>
      <trkpt lat="45.34124" lon="6.20281">
        <ele>2194.3999023438</ele>
        <time>2014-03-02T11:27:12.000Z</time>
      </trkpt>
      <trkpt lat="45.34124" lon="6.20281">
        <ele>2194.3999023438</ele>
        <time>2014-03-02T11:27:13.000Z</time>
      </trkpt>
      <trkpt lat="45.34124" lon="6.20281">
        <ele>2194.3999023438</ele>
        <time>2014-03-02T11:27:14.000Z</time>
      </trkpt>
      <trkpt lat="45.34124" lon="6.20281">
        <ele>2194.3999023438</ele>
        <time>2014-03-02T11:27:15.000Z</time>
      </trkpt>
      <trkpt lat="45.34124" lon="6.20281">
        <ele>2194.3999023438</ele>
        <time>2014-03-02T11:27:16.000Z</time>
      </trkpt>
      <trkpt lat="45.34124" lon="6.20281">
        <ele>2194.3999023438</ele>
        <time>2014-03-02T11:27:17.000Z</time>
      </trkpt>
      <trkpt lat="45.34124" lon="6.20281">
        <ele>2194.3999023438</ele>
        <time>2014-03-02T11:27:18.000Z</time>
      </trkpt>
      <trkpt lat="45.34124" lon="6.20281">
        <ele>2194.3999023438</ele>
        <time>2014-03-02T11:27:19.000Z</time>
      </trkpt>
      <trkpt lat="45.34124" lon="6.20281">
        <ele>2194.3999023438</ele>
        <time>2014-03-02T11:27:20.000Z</time>
      </trkpt>
      <trkpt lat="45.34124" lon="6.20281">
        <ele>2194.3999023438</ele>
        <time>2014-03-02T11:27:21.000Z</time>
      </trkpt>
      <trkpt lat="45.34124" lon="6.20281">
        <ele>2194.3999023438</ele>
        <time>2014-03-02T11:27:22.000Z</time>
      </trkpt>
      <trkpt lat="45.34124" lon="6.20281">
        <ele>2194.3999023438</ele>
        <time>2014-03-02T11:27:23.000Z</time>
      </trkpt>
      <trkpt lat="45.34124" lon="6.20281">
        <ele>2194.3999023438</ele>
        <time>2014-03-02T11:27:24.000Z</time>
      </trkpt>
      <trkpt lat="45.34124" lon="6.20281">
        <ele>2194.3999023438</ele>
        <time>2014-03-02T11:27:25.000Z</time>
      </trkpt>
      <trkpt lat="45.34124" lon="6.20281">
        <ele>2194.3999023438</ele>
        <time>2014-03-02T11:27:26.000Z</time>
      </trkpt>
      <trkpt lat="45.34124" lon="6.20281">
        <ele>2194.3999023438</ele>
        <time>2014-03-02T11:27:27.000Z</time>
      </trkpt>
      <trkpt lat="45.34124" lon="6.20281">
        <ele>2194.3999023438</ele>
        <time>2014-03-02T11:27:28.000Z</time>
      </trkpt>
      <trkpt lat="45.34124" lon="6.20281">
        <ele>2194.3999023438</ele>
        <time>2014-03-02T11:27:29.000Z</time>
      </trkpt>
      <trkpt lat="45.34124" lon="6.20281">
        <ele>2194.3999023438</ele>
        <time>2014-03-02T11:27:30.000Z</time>
      </trkpt>
      <trkpt lat="45.34124" lon="6.20281">
        <ele>2194.3999023438</ele>
        <time>2014-03-02T11:27:31.000Z</time>
      </trkpt>
      <trkpt lat="45.34124" lon="6.20281">
        <ele>2194.3999023438</ele>
        <time>2014-03-02T11:27:32.000Z</time>
      </trkpt>
      <trkpt lat="45.34124" lon="6.20281">
        <ele>2194.3999023438</ele>
        <time>2014-03-02T11:27:33.000Z</time>
      </trkpt>
      <trkpt lat="45.34124" lon="6.20281">
        <ele>2194.3999023438</ele>
        <time>2014-03-02T11:27:34.000Z</time>
      </trkpt>
      <trkpt lat="45.34124" lon="6.20281">
        <ele>2194.3999023438</ele>
        <time>2014-03-02T11:27:35.000Z</time>
      </trkpt>
      <trkpt lat="45.34124" lon="6.20281">
        <ele>2194.3999023438</ele>
        <time>2014-03-02T11:27:37.000Z</time>
      </trkpt>
      <trkpt lat="45.34124" lon="6.20281">
        <ele>2194.3999023438</ele>
        <time>2014-03-02T11:27:38.000Z</time>
      </trkpt>
      <trkpt lat="45.34124" lon="6.20281">
        <ele>2194.3999023438</ele>
        <time>2014-03-02T11:27:39.000Z</time>
      </trkpt>
      <trkpt lat="45.34124" lon="6.20281">
        <ele>2194.3999023438</ele>
        <time>2014-03-02T11:27:41.000Z</time>
      </trkpt>
      <trkpt lat="45.34124" lon="6.20281">
        <ele>2194.3999023438</ele>
        <time>2014-03-02T11:27:42.000Z</time>
      </trkpt>
      <trkpt lat="45.34124" lon="6.20281">
        <ele>2194.3999023438</ele>
        <time>2014-03-02T11:27:43.000Z</time>
      </trkpt>
      <trkpt lat="45.34124" lon="6.20281">
        <ele>2194.3999023438</ele>
        <time>2014-03-02T11:27:44.000Z</time>
      </trkpt>
      <trkpt lat="45.34124" lon="6.20281">
        <ele>2194.3999023438</ele>
        <time>2014-03-02T11:27:45.000Z</time>
      </trkpt>
      <trkpt lat="45.34124" lon="6.20281">
        <ele>2194.3999023438</ele>
        <time>2014-03-02T11:27:46.000Z</time>
      </trkpt>
      <trkpt lat="45.34124" lon="6.20281">
        <ele>2194.3999023438</ele>
        <time>2014-03-02T11:27:47.000Z</time>
      </trkpt>
      <trkpt lat="45.34124" lon="6.20281">
        <ele>2194.3999023438</ele>
        <time>2014-03-02T11:27:48.000Z</time>
      </trkpt>
      <trkpt lat="45.34124" lon="6.20281">
        <ele>2194.3999023438</ele>
        <time>2014-03-02T11:27:49.000Z</time>
      </trkpt>
      <trkpt lat="45.34124" lon="6.20281">
        <ele>2194.3999023438</ele>
        <time>2014-03-02T11:27:50.000Z</time>
      </trkpt>
      <trkpt lat="45.34124" lon="6.20281">
        <ele>2194.3999023438</ele>
        <time>2014-03-02T11:27:51.000Z</time>
      </trkpt>
      <trkpt lat="45.34124" lon="6.20281">
        <ele>2194.3999023438</ele>
        <time>2014-03-02T11:27:52.000Z</time>
      </trkpt>
      <trkpt lat="45.34126" lon="6.20282">
        <ele>2194</ele>
        <time>2014-03-02T11:27:53.000Z</time>
      </trkpt>
      <trkpt lat="45.34126" lon="6.20282">
        <ele>2194</ele>
        <time>2014-03-02T11:27:54.000Z</time>
      </trkpt>
      <trkpt lat="45.34126" lon="6.20282">
        <ele>2194</ele>
        <time>2014-03-02T11:27:55.000Z</time>
      </trkpt>
      <trkpt lat="45.34126" lon="6.20282">
        <ele>2194</ele>
        <time>2014-03-02T11:27:56.000Z</time>
      </trkpt>
      <trkpt lat="45.34126" lon="6.20282">
        <ele>2194</ele>
        <time>2014-03-02T11:27:57.000Z</time>
      </trkpt>
      <trkpt lat="45.34127" lon="6.20282">
        <ele>2193.8000488281</ele>
        <time>2014-03-02T11:27:58.000Z</time>
      </trkpt>
      <trkpt lat="45.34131" lon="6.20284">
        <ele>2193.1999511719</ele>
        <time>2014-03-02T11:27:59.000Z</time>
      </trkpt>
      <trkpt lat="45.34135" lon="6.20287">
        <ele>2191.3999023438</ele>
        <time>2014-03-02T11:28:00.000Z</time>
      </trkpt>
      <trkpt lat="45.34137" lon="6.20292">
        <ele>2189.6000976562</ele>
        <time>2014-03-02T11:28:01.000Z</time>
      </trkpt>
      <trkpt lat="45.3414" lon="6.20299">
        <ele>2187.6000976562</ele>
        <time>2014-03-02T11:28:02.000Z</time>
      </trkpt>
      <trkpt lat="45.34143" lon="6.20304">
        <ele>2185.6000976562</ele>
        <time>2014-03-02T11:28:03.000Z</time>
      </trkpt>
      <trkpt lat="45.34146" lon="6.20309">
        <ele>2183.6000976562</ele>
        <time>2014-03-02T11:28:04.000Z</time>
      </trkpt>
      <trkpt lat="45.34148" lon="6.20313">
        <ele>2182.1999511719</ele>
        <time>2014-03-02T11:28:05.000Z</time>
      </trkpt>
      <trkpt lat="45.34148" lon="6.20315">
        <ele>2182.1999511719</ele>
        <time>2014-03-02T11:28:06.000Z</time>
      </trkpt>
      <trkpt lat="45.34148" lon="6.20314">
        <ele>2182</ele>
        <time>2014-03-02T11:28:07.000Z</time>
      </trkpt>
      <trkpt lat="45.34148" lon="6.20314">
        <ele>2182</ele>
        <time>2014-03-02T11:28:08.000Z</time>
      </trkpt>
      <trkpt lat="45.34148" lon="6.20314">
        <ele>2182</ele>
        <time>2014-03-02T11:28:09.000Z</time>
      </trkpt>
      <trkpt lat="45.34148" lon="6.20314">
        <ele>2182</ele>
        <time>2014-03-02T11:28:10.000Z</time>
      </trkpt>
      <trkpt lat="45.34148" lon="6.20314">
        <ele>2182</ele>
        <time>2014-03-02T11:28:11.000Z</time>
      </trkpt>
      <trkpt lat="45.34148" lon="6.20314">
        <ele>2182</ele>
        <time>2014-03-02T11:28:12.000Z</time>
      </trkpt>
      <trkpt lat="45.34148" lon="6.20314">
        <ele>2182</ele>
        <time>2014-03-02T11:28:13.000Z</time>
      </trkpt>
      <trkpt lat="45.34148" lon="6.20314">
        <ele>2182</ele>
        <time>2014-03-02T11:28:14.000Z</time>
      </trkpt>
      <trkpt lat="45.34149" lon="6.20313">
        <ele>2182.1999511719</ele>
        <time>2014-03-02T11:28:15.000Z</time>
      </trkpt>
      <trkpt lat="45.34149" lon="6.20313">
        <ele>2182</ele>
        <time>2014-03-02T11:28:16.000Z</time>
      </trkpt>
      <trkpt lat="45.34149" lon="6.20312">
        <ele>2182</ele>
        <time>2014-03-02T11:28:17.000Z</time>
      </trkpt>
      <trkpt lat="45.34149" lon="6.20311">
        <ele>2182</ele>
        <time>2014-03-02T11:28:18.000Z</time>
      </trkpt>
      <trkpt lat="45.3415" lon="6.20311">
        <ele>2182</ele>
        <time>2014-03-02T11:28:19.000Z</time>
      </trkpt>
      <trkpt lat="45.3415" lon="6.2031">
        <ele>2182</ele>
        <time>2014-03-02T11:28:20.000Z</time>
      </trkpt>
      <trkpt lat="45.34151" lon="6.2031">
        <ele>2181.8000488281</ele>
        <time>2014-03-02T11:28:21.000Z</time>
      </trkpt>
      <trkpt lat="45.34151" lon="6.2031">
        <ele>2181.8000488281</ele>
        <time>2014-03-02T11:28:22.000Z</time>
      </trkpt>
      <trkpt lat="45.34152" lon="6.20312">
        <ele>2181</ele>
        <time>2014-03-02T11:28:23.000Z</time>
      </trkpt>
      <trkpt lat="45.34153" lon="6.20316">
        <ele>2180.3999023438</ele>
        <time>2014-03-02T11:28:24.000Z</time>
      </trkpt>
      <trkpt lat="45.34154" lon="6.20319">
        <ele>2180</ele>
        <time>2014-03-02T11:28:25.000Z</time>
      </trkpt>
      <trkpt lat="45.34155" lon="6.20324">
        <ele>2179</ele>
        <time>2014-03-02T11:28:26.000Z</time>
      </trkpt>
      <trkpt lat="45.34158" lon="6.20327">
        <ele>2177.8000488281</ele>
        <time>2014-03-02T11:28:27.000Z</time>
      </trkpt>
      <trkpt lat="45.34162" lon="6.20332">
        <ele>2176.3999023438</ele>
        <time>2014-03-02T11:28:28.000Z</time>
      </trkpt>
      <trkpt lat="45.34166" lon="6.20336">
        <ele>2174.6000976562</ele>
        <time>2014-03-02T11:28:29.000Z</time>
      </trkpt>
      <trkpt lat="45.34171" lon="6.20339">
        <ele>2172.8000488281</ele>
        <time>2014-03-02T11:28:30.000Z</time>
      </trkpt>
      <trkpt lat="45.34176" lon="6.20341">
        <ele>2171</ele>
        <time>2014-03-02T11:28:31.000Z</time>
      </trkpt>
      <trkpt lat="45.34181" lon="6.20342">
        <ele>2169</ele>
        <time>2014-03-02T11:28:32.000Z</time>
      </trkpt>
      <trkpt lat="45.34187" lon="6.20343">
        <ele>2167.1999511719</ele>
        <time>2014-03-02T11:28:33.000Z</time>
      </trkpt>
      <trkpt lat="45.34193" lon="6.20343">
        <ele>2165.1999511719</ele>
        <time>2014-03-02T11:28:34.000Z</time>
      </trkpt>
      <trkpt lat="45.34199" lon="6.20342">
        <ele>2163.3999023438</ele>
        <time>2014-03-02T11:28:35.000Z</time>
      </trkpt>
      <trkpt lat="45.34204" lon="6.20341">
        <ele>2161.6000976562</ele>
        <time>2014-03-02T11:28:36.000Z</time>
      </trkpt>
      <trkpt lat="45.3421" lon="6.2034">
        <ele>2160</ele>
        <time>2014-03-02T11:28:37.000Z</time>
      </trkpt>
      <trkpt lat="45.34215" lon="6.20338">
        <ele>2158.6000976562</ele>
        <time>2014-03-02T11:28:38.000Z</time>
      </trkpt>
      <trkpt lat="45.3422" lon="6.20337">
        <ele>2157.6000976562</ele>
        <time>2014-03-02T11:28:39.000Z</time>
      </trkpt>
      <trkpt lat="45.34226" lon="6.20335">
        <ele>2156.3999023438</ele>
        <time>2014-03-02T11:28:40.000Z</time>
      </trkpt>
      <trkpt lat="45.34231" lon="6.20334">
        <ele>2155.3999023438</ele>
        <time>2014-03-02T11:28:41.000Z</time>
      </trkpt>
      <trkpt lat="45.34237" lon="6.20332">
        <ele>2154.6000976562</ele>
        <time>2014-03-02T11:28:42.000Z</time>
      </trkpt>
      <trkpt lat="45.34242" lon="6.2033">
        <ele>2154.3999023438</ele>
        <time>2014-03-02T11:28:43.000Z</time>
      </trkpt>
      <trkpt lat="45.34247" lon="6.20329">
        <ele>2154</ele>
        <time>2014-03-02T11:28:44.000Z</time>
      </trkpt>
      <trkpt lat="45.34253" lon="6.20329">
        <ele>2153.3999023438</ele>
        <time>2014-03-02T11:28:45.000Z</time>
      </trkpt>
      <trkpt lat="45.34259" lon="6.2033">
        <ele>2152.6000976562</ele>
        <time>2014-03-02T11:28:46.000Z</time>
      </trkpt>
      <trkpt lat="45.34265" lon="6.2033">
        <ele>2152</ele>
        <time>2014-03-02T11:28:47.000Z</time>
      </trkpt>
      <trkpt lat="45.3427" lon="6.2033">
        <ele>2151.6000976562</ele>
        <time>2014-03-02T11:28:48.000Z</time>
      </trkpt>
      <trkpt lat="45.34273" lon="6.20328">
        <ele>2151.6000976562</ele>
        <time>2014-03-02T11:28:49.000Z</time>
      </trkpt>
      <trkpt lat="45.34274" lon="6.20327">
        <ele>2151.8000488281</ele>
        <time>2014-03-02T11:28:50.000Z</time>
      </trkpt>
      <trkpt lat="45.34274" lon="6.20327">
        <ele>2151.6000976562</ele>
        <time>2014-03-02T11:28:51.000Z</time>
      </trkpt>
      <trkpt lat="45.34274" lon="6.20327">
        <ele>2151.6000976562</ele>
        <time>2014-03-02T11:28:52.000Z</time>
      </trkpt>
      <trkpt lat="45.34274" lon="6.20327">
        <ele>2151.6000976562</ele>
        <time>2014-03-02T11:28:53.000Z</time>
      </trkpt>
      <trkpt lat="45.34274" lon="6.20327">
        <ele>2151.6000976562</ele>
        <time>2014-03-02T11:28:54.000Z</time>
      </trkpt>
      <trkpt lat="45.34274" lon="6.20327">
        <ele>2151.6000976562</ele>
        <time>2014-03-02T11:28:55.000Z</time>
      </trkpt>
      <trkpt lat="45.34274" lon="6.20327">
        <ele>2151.6000976562</ele>
        <time>2014-03-02T11:28:56.000Z</time>
      </trkpt>
      <trkpt lat="45.34274" lon="6.20327">
        <ele>2151.6000976562</ele>
        <time>2014-03-02T11:28:57.000Z</time>
      </trkpt>
      <trkpt lat="45.34274" lon="6.20327">
        <ele>2151.6000976562</ele>
        <time>2014-03-02T11:28:58.000Z</time>
      </trkpt>
      <trkpt lat="45.34274" lon="6.20327">
        <ele>2151.6000976562</ele>
        <time>2014-03-02T11:28:59.000Z</time>
      </trkpt>
      <trkpt lat="45.34274" lon="6.20327">
        <ele>2151.6000976562</ele>
        <time>2014-03-02T11:29:00.000Z</time>
      </trkpt>
      <trkpt lat="45.34274" lon="6.20327">
        <ele>2151.6000976562</ele>
        <time>2014-03-02T11:29:01.000Z</time>
      </trkpt>
      <trkpt lat="45.34274" lon="6.20327">
        <ele>2151.6000976562</ele>
        <time>2014-03-02T11:29:02.000Z</time>
      </trkpt>
      <trkpt lat="45.34274" lon="6.20327">
        <ele>2151.6000976562</ele>
        <time>2014-03-02T11:29:03.000Z</time>
      </trkpt>
      <trkpt lat="45.34274" lon="6.20327">
        <ele>2151.6000976562</ele>
        <time>2014-03-02T11:29:04.000Z</time>
      </trkpt>
      <trkpt lat="45.34274" lon="6.20327">
        <ele>2151.6000976562</ele>
        <time>2014-03-02T11:29:05.000Z</time>
      </trkpt>
      <trkpt lat="45.34274" lon="6.20327">
        <ele>2151.6000976562</ele>
        <time>2014-03-02T11:29:06.000Z</time>
      </trkpt>
      <trkpt lat="45.34274" lon="6.20327">
        <ele>2151.6000976562</ele>
        <time>2014-03-02T11:29:07.000Z</time>
      </trkpt>
      <trkpt lat="45.34274" lon="6.20327">
        <ele>2151.6000976562</ele>
        <time>2014-03-02T11:29:08.000Z</time>
      </trkpt>
      <trkpt lat="45.34274" lon="6.20327">
        <ele>2151.6000976562</ele>
        <time>2014-03-02T11:29:09.000Z</time>
      </trkpt>
      <trkpt lat="45.34274" lon="6.20327">
        <ele>2151.6000976562</ele>
        <time>2014-03-02T11:29:10.000Z</time>
      </trkpt>
      <trkpt lat="45.34274" lon="6.20327">
        <ele>2151.6000976562</ele>
        <time>2014-03-02T11:29:11.000Z</time>
      </trkpt>
      <trkpt lat="45.34274" lon="6.20327">
        <ele>2151.6000976562</ele>
        <time>2014-03-02T11:29:12.000Z</time>
      </trkpt>
      <trkpt lat="45.34274" lon="6.20327">
        <ele>2151.6000976562</ele>
        <time>2014-03-02T11:29:13.000Z</time>
      </trkpt>
      <trkpt lat="45.34274" lon="6.20327">
        <ele>2151.6000976562</ele>
        <time>2014-03-02T11:29:14.000Z</time>
      </trkpt>
      <trkpt lat="45.34274" lon="6.20327">
        <ele>2151.6000976562</ele>
        <time>2014-03-02T11:29:15.000Z</time>
      </trkpt>
      <trkpt lat="45.34274" lon="6.20327">
        <ele>2151.6000976562</ele>
        <time>2014-03-02T11:29:16.000Z</time>
      </trkpt>
      <trkpt lat="45.34274" lon="6.20327">
        <ele>2151.6000976562</ele>
        <time>2014-03-02T11:29:17.000Z</time>
      </trkpt>
      <trkpt lat="45.34274" lon="6.20327">
        <ele>2151.6000976562</ele>
        <time>2014-03-02T11:29:18.000Z</time>
      </trkpt>
      <trkpt lat="45.34274" lon="6.20327">
        <ele>2151.6000976562</ele>
        <time>2014-03-02T11:29:19.000Z</time>
      </trkpt>
      <trkpt lat="45.34274" lon="6.20327">
        <ele>2151.6000976562</ele>
        <time>2014-03-02T11:29:20.000Z</time>
      </trkpt>
      <trkpt lat="45.34274" lon="6.20327">
        <ele>2151.6000976562</ele>
        <time>2014-03-02T11:29:21.000Z</time>
      </trkpt>
      <trkpt lat="45.34274" lon="6.20327">
        <ele>2151.6000976562</ele>
        <time>2014-03-02T11:29:22.000Z</time>
      </trkpt>
      <trkpt lat="45.34274" lon="6.20327">
        <ele>2151.6000976562</ele>
        <time>2014-03-02T11:29:24.000Z</time>
      </trkpt>
      <trkpt lat="45.34274" lon="6.20327">
        <ele>2151.6000976562</ele>
        <time>2014-03-02T11:29:28.000Z</time>
      </trkpt>
      <trkpt lat="45.34274" lon="6.20327">
        <ele>2151.6000976562</ele>
        <time>2014-03-02T11:29:29.000Z</time>
      </trkpt>
      <trkpt lat="45.34274" lon="6.20327">
        <ele>2151.6000976562</ele>
        <time>2014-03-02T11:29:30.000Z</time>
      </trkpt>
      <trkpt lat="45.34275" lon="6.20327">
        <ele>2151.3999023438</ele>
        <time>2014-03-02T11:29:31.000Z</time>
      </trkpt>
      <trkpt lat="45.34275" lon="6.20327">
        <ele>2151.3999023438</ele>
        <time>2014-03-02T11:29:32.000Z</time>
      </trkpt>
      <trkpt lat="45.34275" lon="6.20327">
        <ele>2151.3999023438</ele>
        <time>2014-03-02T11:29:33.000Z</time>
      </trkpt>
      <trkpt lat="45.34275" lon="6.20327">
        <ele>2151.3999023438</ele>
        <time>2014-03-02T11:29:34.000Z</time>
      </trkpt>
      <trkpt lat="45.34275" lon="6.20327">
        <ele>2151.3999023438</ele>
        <time>2014-03-02T11:29:35.000Z</time>
      </trkpt>
      <trkpt lat="45.34275" lon="6.20327">
        <ele>2151.3999023438</ele>
        <time>2014-03-02T11:29:36.000Z</time>
      </trkpt>
      <trkpt lat="45.34275" lon="6.20327">
        <ele>2151.3999023438</ele>
        <time>2014-03-02T11:29:37.000Z</time>
      </trkpt>
      <trkpt lat="45.34275" lon="6.20327">
        <ele>2151.3999023438</ele>
        <time>2014-03-02T11:29:38.000Z</time>
      </trkpt>
      <trkpt lat="45.34275" lon="6.20327">
        <ele>2151.3999023438</ele>
        <time>2014-03-02T11:29:39.000Z</time>
      </trkpt>
      <trkpt lat="45.34275" lon="6.20327">
        <ele>2151.3999023438</ele>
        <time>2014-03-02T11:29:40.000Z</time>
      </trkpt>
      <trkpt lat="45.34275" lon="6.20327">
        <ele>2151.3999023438</ele>
        <time>2014-03-02T11:29:41.000Z</time>
      </trkpt>
      <trkpt lat="45.34275" lon="6.20327">
        <ele>2151.3999023438</ele>
        <time>2014-03-02T11:29:42.000Z</time>
      </trkpt>
      <trkpt lat="45.34275" lon="6.20327">
        <ele>2151.3999023438</ele>
        <time>2014-03-02T11:29:43.000Z</time>
      </trkpt>
      <trkpt lat="45.34275" lon="6.20327">
        <ele>2151.3999023438</ele>
        <time>2014-03-02T11:29:44.000Z</time>
      </trkpt>
      <trkpt lat="45.34275" lon="6.20327">
        <ele>2151.3999023438</ele>
        <time>2014-03-02T11:29:45.000Z</time>
      </trkpt>
      <trkpt lat="45.34275" lon="6.20327">
        <ele>2151.3999023438</ele>
        <time>2014-03-02T11:29:46.000Z</time>
      </trkpt>
      <trkpt lat="45.34275" lon="6.20327">
        <ele>2151.3999023438</ele>
        <time>2014-03-02T11:29:47.000Z</time>
      </trkpt>
      <trkpt lat="45.34275" lon="6.20327">
        <ele>2151.3999023438</ele>
        <time>2014-03-02T11:29:48.000Z</time>
      </trkpt>
      <trkpt lat="45.34275" lon="6.20327">
        <ele>2151.3999023438</ele>
        <time>2014-03-02T11:29:50.000Z</time>
      </trkpt>
      <trkpt lat="45.34275" lon="6.20327">
        <ele>2151.3999023438</ele>
        <time>2014-03-02T11:29:51.000Z</time>
      </trkpt>
      <trkpt lat="45.34275" lon="6.20327">
        <ele>2151.3999023438</ele>
        <time>2014-03-02T11:29:52.000Z</time>
      </trkpt>
      <trkpt lat="45.34275" lon="6.20327">
        <ele>2151.3999023438</ele>
        <time>2014-03-02T11:29:53.000Z</time>
      </trkpt>
      <trkpt lat="45.34275" lon="6.20327">
        <ele>2151.3999023438</ele>
        <time>2014-03-02T11:29:55.000Z</time>
      </trkpt>
      <trkpt lat="45.34275" lon="6.20327">
        <ele>2151.3999023438</ele>
        <time>2014-03-02T11:29:56.000Z</time>
      </trkpt>
      <trkpt lat="45.34275" lon="6.20327">
        <ele>2151.3999023438</ele>
        <time>2014-03-02T11:29:57.000Z</time>
      </trkpt>
      <trkpt lat="45.34275" lon="6.20327">
        <ele>2151.3999023438</ele>
        <time>2014-03-02T11:29:58.000Z</time>
      </trkpt>
      <trkpt lat="45.34275" lon="6.20327">
        <ele>2151.3999023438</ele>
        <time>2014-03-02T11:29:59.000Z</time>
      </trkpt>
      <trkpt lat="45.34275" lon="6.20327">
        <ele>2151.3999023438</ele>
        <time>2014-03-02T11:30:00.000Z</time>
      </trkpt>
      <trkpt lat="45.34275" lon="6.20327">
        <ele>2151.3999023438</ele>
        <time>2014-03-02T11:30:01.000Z</time>
      </trkpt>
      <trkpt lat="45.34275" lon="6.20327">
        <ele>2151.3999023438</ele>
        <time>2014-03-02T11:30:02.000Z</time>
      </trkpt>
      <trkpt lat="45.34275" lon="6.20327">
        <ele>2151.3999023438</ele>
        <time>2014-03-02T11:30:03.000Z</time>
      </trkpt>
      <trkpt lat="45.34275" lon="6.20327">
        <ele>2151.3999023438</ele>
        <time>2014-03-02T11:30:04.000Z</time>
      </trkpt>
      <trkpt lat="45.34275" lon="6.20327">
        <ele>2151.3999023438</ele>
        <time>2014-03-02T11:30:05.000Z</time>
      </trkpt>
      <trkpt lat="45.34275" lon="6.20327">
        <ele>2151.3999023438</ele>
        <time>2014-03-02T11:30:06.000Z</time>
      </trkpt>
      <trkpt lat="45.34275" lon="6.20327">
        <ele>2151.3999023438</ele>
        <time>2014-03-02T11:30:07.000Z</time>
      </trkpt>
      <trkpt lat="45.34275" lon="6.20327">
        <ele>2151.3999023438</ele>
        <time>2014-03-02T11:30:08.000Z</time>
      </trkpt>
      <trkpt lat="45.34275" lon="6.20327">
        <ele>2151.3999023438</ele>
        <time>2014-03-02T11:30:09.000Z</time>
      </trkpt>
      <trkpt lat="45.34275" lon="6.20327">
        <ele>2151.3999023438</ele>
        <time>2014-03-02T11:30:10.000Z</time>
      </trkpt>
      <trkpt lat="45.34274" lon="6.20333">
        <ele>2150.6000976562</ele>
        <time>2014-03-02T11:30:11.000Z</time>
      </trkpt>
      <trkpt lat="45.34274" lon="6.20333">
        <ele>2150.6000976562</ele>
        <time>2014-03-02T11:30:12.000Z</time>
      </trkpt>
      <trkpt lat="45.34274" lon="6.20333">
        <ele>2150.6000976562</ele>
        <time>2014-03-02T11:30:17.000Z</time>
      </trkpt>
      <trkpt lat="45.34274" lon="6.20333">
        <ele>2150.6000976562</ele>
        <time>2014-03-02T11:30:18.000Z</time>
      </trkpt>
      <trkpt lat="45.34274" lon="6.20333">
        <ele>2150.6000976562</ele>
        <time>2014-03-02T11:30:19.000Z</time>
      </trkpt>
      <trkpt lat="45.34274" lon="6.20333">
        <ele>2150.6000976562</ele>
        <time>2014-03-02T11:30:20.000Z</time>
      </trkpt>
      <trkpt lat="45.34274" lon="6.20333">
        <ele>2150.6000976562</ele>
        <time>2014-03-02T11:30:25.000Z</time>
      </trkpt>
      <trkpt lat="45.34274" lon="6.20333">
        <ele>2150.6000976562</ele>
        <time>2014-03-02T11:30:26.000Z</time>
      </trkpt>
      <trkpt lat="45.34274" lon="6.20333">
        <ele>2150.6000976562</ele>
        <time>2014-03-02T11:30:30.000Z</time>
      </trkpt>
      <trkpt lat="45.34274" lon="6.20333">
        <ele>2150.6000976562</ele>
        <time>2014-03-02T11:30:31.000Z</time>
      </trkpt>
      <trkpt lat="45.34274" lon="6.20333">
        <ele>2150.6000976562</ele>
        <time>2014-03-02T11:30:34.000Z</time>
      </trkpt>
      <trkpt lat="45.34274" lon="6.20333">
        <ele>2150.6000976562</ele>
        <time>2014-03-02T11:30:46.000Z</time>
      </trkpt>
      <trkpt lat="45.34274" lon="6.20333">
        <ele>2150.6000976562</ele>
        <time>2014-03-02T11:30:47.000Z</time>
      </trkpt>
      <trkpt lat="45.34274" lon="6.20333">
        <ele>2150.6000976562</ele>
        <time>2014-03-02T11:30:48.000Z</time>
      </trkpt>
      <trkpt lat="45.34274" lon="6.20334">
        <ele>2150.1999511719</ele>
        <time>2014-03-02T11:30:51.000Z</time>
      </trkpt>
      <trkpt lat="45.34274" lon="6.20334">
        <ele>2150.1999511719</ele>
        <time>2014-03-02T11:30:52.000Z</time>
      </trkpt>
      <trkpt lat="45.34274" lon="6.20334">
        <ele>2150.1999511719</ele>
        <time>2014-03-02T11:30:54.000Z</time>
      </trkpt>
      <trkpt lat="45.34274" lon="6.20334">
        <ele>2150.1999511719</ele>
        <time>2014-03-02T11:30:55.000Z</time>
      </trkpt>
      <trkpt lat="45.34274" lon="6.20334">
        <ele>2150.1999511719</ele>
        <time>2014-03-02T11:30:56.000Z</time>
      </trkpt>
      <trkpt lat="45.34274" lon="6.20334">
        <ele>2150.1999511719</ele>
        <time>2014-03-02T11:30:57.000Z</time>
      </trkpt>
      <trkpt lat="45.34274" lon="6.20334">
        <ele>2150.1999511719</ele>
        <time>2014-03-02T11:30:58.000Z</time>
      </trkpt>
      <trkpt lat="45.34274" lon="6.20334">
        <ele>2150.1999511719</ele>
        <time>2014-03-02T11:30:59.000Z</time>
      </trkpt>
      <trkpt lat="45.34274" lon="6.20334">
        <ele>2150.1999511719</ele>
        <time>2014-03-02T11:31:00.000Z</time>
      </trkpt>
      <trkpt lat="45.34274" lon="6.20334">
        <ele>2150.1999511719</ele>
        <time>2014-03-02T11:31:01.000Z</time>
      </trkpt>
      <trkpt lat="45.34274" lon="6.20334">
        <ele>2150.1999511719</ele>
        <time>2014-03-02T11:31:02.000Z</time>
      </trkpt>
      <trkpt lat="45.34274" lon="6.20334">
        <ele>2150.1999511719</ele>
        <time>2014-03-02T11:31:03.000Z</time>
      </trkpt>
      <trkpt lat="45.34274" lon="6.20334">
        <ele>2150.1999511719</ele>
        <time>2014-03-02T11:31:04.000Z</time>
      </trkpt>
      <trkpt lat="45.34274" lon="6.20334">
        <ele>2150.1999511719</ele>
        <time>2014-03-02T11:31:06.000Z</time>
      </trkpt>
      <trkpt lat="45.34274" lon="6.20334">
        <ele>2150.1999511719</ele>
        <time>2014-03-02T11:31:07.000Z</time>
      </trkpt>
      <trkpt lat="45.34274" lon="6.20334">
        <ele>2150.1999511719</ele>
        <time>2014-03-02T11:31:08.000Z</time>
      </trkpt>
      <trkpt lat="45.34274" lon="6.20334">
        <ele>2150.1999511719</ele>
        <time>2014-03-02T11:31:09.000Z</time>
      </trkpt>
      <trkpt lat="45.34274" lon="6.20334">
        <ele>2150.1999511719</ele>
        <time>2014-03-02T11:31:10.000Z</time>
      </trkpt>
      <trkpt lat="45.34274" lon="6.20334">
        <ele>2150.1999511719</ele>
        <time>2014-03-02T11:31:13.000Z</time>
      </trkpt>
      <trkpt lat="45.34274" lon="6.20334">
        <ele>2150.1999511719</ele>
        <time>2014-03-02T11:31:15.000Z</time>
      </trkpt>
      <trkpt lat="45.34274" lon="6.20334">
        <ele>2150.1999511719</ele>
        <time>2014-03-02T11:31:16.000Z</time>
      </trkpt>
      <trkpt lat="45.34274" lon="6.20334">
        <ele>2150.1999511719</ele>
        <time>2014-03-02T11:31:17.000Z</time>
      </trkpt>
      <trkpt lat="45.34274" lon="6.20334">
        <ele>2150.1999511719</ele>
        <time>2014-03-02T11:31:18.000Z</time>
      </trkpt>
      <trkpt lat="45.34274" lon="6.20334">
        <ele>2150.1999511719</ele>
        <time>2014-03-02T11:31:21.000Z</time>
      </trkpt>
      <trkpt lat="45.34274" lon="6.20334">
        <ele>2150.1999511719</ele>
        <time>2014-03-02T11:31:26.000Z</time>
      </trkpt>
      <trkpt lat="45.34276" lon="6.20335">
        <ele>2149.8000488281</ele>
        <time>2014-03-02T11:31:37.000Z</time>
      </trkpt>
      <trkpt lat="45.34276" lon="6.20335">
        <ele>2149.8000488281</ele>
        <time>2014-03-02T11:31:38.000Z</time>
      </trkpt>
      <trkpt lat="45.34276" lon="6.20335">
        <ele>2149.8000488281</ele>
        <time>2014-03-02T11:31:39.000Z</time>
      </trkpt>
      <trkpt lat="45.34276" lon="6.20335">
        <ele>2149.8000488281</ele>
        <time>2014-03-02T11:31:40.000Z</time>
      </trkpt>
      <trkpt lat="45.34276" lon="6.20335">
        <ele>2149.8000488281</ele>
        <time>2014-03-02T11:31:42.000Z</time>
      </trkpt>
      <trkpt lat="45.34276" lon="6.20335">
        <ele>2149.8000488281</ele>
        <time>2014-03-02T11:31:47.000Z</time>
      </trkpt>
      <trkpt lat="45.34276" lon="6.20335">
        <ele>2149.8000488281</ele>
        <time>2014-03-02T11:31:48.000Z</time>
      </trkpt>
      <trkpt lat="45.34276" lon="6.20335">
        <ele>2149.8000488281</ele>
        <time>2014-03-02T11:31:49.000Z</time>
      </trkpt>
      <trkpt lat="45.34276" lon="6.20335">
        <ele>2149.8000488281</ele>
        <time>2014-03-02T11:31:50.000Z</time>
      </trkpt>
      <trkpt lat="45.34276" lon="6.20335">
        <ele>2149.8000488281</ele>
        <time>2014-03-02T11:31:51.000Z</time>
      </trkpt>
      <trkpt lat="45.34276" lon="6.20335">
        <ele>2149.8000488281</ele>
        <time>2014-03-02T11:31:52.000Z</time>
      </trkpt>
      <trkpt lat="45.34276" lon="6.20335">
        <ele>2149.8000488281</ele>
        <time>2014-03-02T11:31:54.000Z</time>
      </trkpt>
      <trkpt lat="45.34276" lon="6.20335">
        <ele>2149.8000488281</ele>
        <time>2014-03-02T11:31:55.000Z</time>
      </trkpt>
      <trkpt lat="45.34276" lon="6.20335">
        <ele>2149.8000488281</ele>
        <time>2014-03-02T11:31:56.000Z</time>
      </trkpt>
      <trkpt lat="45.34276" lon="6.20335">
        <ele>2149.8000488281</ele>
        <time>2014-03-02T11:31:59.000Z</time>
      </trkpt>
      <trkpt lat="45.34276" lon="6.20335">
        <ele>2149.8000488281</ele>
        <time>2014-03-02T11:32:00.000Z</time>
      </trkpt>
      <trkpt lat="45.34276" lon="6.20335">
        <ele>2149.8000488281</ele>
        <time>2014-03-02T11:32:01.000Z</time>
      </trkpt>
      <trkpt lat="45.34276" lon="6.20335">
        <ele>2149.8000488281</ele>
        <time>2014-03-02T11:32:04.000Z</time>
      </trkpt>
      <trkpt lat="45.34276" lon="6.20335">
        <ele>2149.8000488281</ele>
        <time>2014-03-02T11:32:05.000Z</time>
      </trkpt>
      <trkpt lat="45.34276" lon="6.20335">
        <ele>2149.8000488281</ele>
        <time>2014-03-02T11:32:06.000Z</time>
      </trkpt>
      <trkpt lat="45.34276" lon="6.20335">
        <ele>2149.8000488281</ele>
        <time>2014-03-02T11:32:09.000Z</time>
      </trkpt>
      <trkpt lat="45.34276" lon="6.20336">
        <ele>2149.6000976562</ele>
        <time>2014-03-02T11:32:14.000Z</time>
      </trkpt>
      <trkpt lat="45.34276" lon="6.20336">
        <ele>2149.6000976562</ele>
        <time>2014-03-02T11:32:15.000Z</time>
      </trkpt>
      <trkpt lat="45.34276" lon="6.20336">
        <ele>2149.6000976562</ele>
        <time>2014-03-02T11:32:16.000Z</time>
      </trkpt>
      <trkpt lat="45.34276" lon="6.20336">
        <ele>2149.6000976562</ele>
        <time>2014-03-02T11:32:17.000Z</time>
      </trkpt>
      <trkpt lat="45.34276" lon="6.20336">
        <ele>2149.6000976562</ele>
        <time>2014-03-02T11:32:18.000Z</time>
      </trkpt>
      <trkpt lat="45.34276" lon="6.20336">
        <ele>2149.6000976562</ele>
        <time>2014-03-02T11:32:19.000Z</time>
      </trkpt>
      <trkpt lat="45.34276" lon="6.20336">
        <ele>2149.6000976562</ele>
        <time>2014-03-02T11:32:20.000Z</time>
      </trkpt>
      <trkpt lat="45.34276" lon="6.20336">
        <ele>2149.6000976562</ele>
        <time>2014-03-02T11:32:21.000Z</time>
      </trkpt>
      <trkpt lat="45.34276" lon="6.20336">
        <ele>2149.6000976562</ele>
        <time>2014-03-02T11:32:22.000Z</time>
      </trkpt>
      <trkpt lat="45.34276" lon="6.20336">
        <ele>2149.6000976562</ele>
        <time>2014-03-02T11:32:23.000Z</time>
      </trkpt>
      <trkpt lat="45.34276" lon="6.20336">
        <ele>2149.6000976562</ele>
        <time>2014-03-02T11:32:24.000Z</time>
      </trkpt>
      <trkpt lat="45.34276" lon="6.20336">
        <ele>2149.6000976562</ele>
        <time>2014-03-02T11:32:25.000Z</time>
      </trkpt>
      <trkpt lat="45.34276" lon="6.20336">
        <ele>2149.6000976562</ele>
        <time>2014-03-02T11:32:26.000Z</time>
      </trkpt>
      <trkpt lat="45.34276" lon="6.20336">
        <ele>2149.6000976562</ele>
        <time>2014-03-02T11:32:27.000Z</time>
      </trkpt>
      <trkpt lat="45.34276" lon="6.20336">
        <ele>2149.6000976562</ele>
        <time>2014-03-02T11:32:28.000Z</time>
      </trkpt>
      <trkpt lat="45.34276" lon="6.20336">
        <ele>2149.6000976562</ele>
        <time>2014-03-02T11:32:29.000Z</time>
      </trkpt>
      <trkpt lat="45.34276" lon="6.20336">
        <ele>2149.6000976562</ele>
        <time>2014-03-02T11:32:30.000Z</time>
      </trkpt>
      <trkpt lat="45.34276" lon="6.20336">
        <ele>2149.6000976562</ele>
        <time>2014-03-02T11:32:31.000Z</time>
      </trkpt>
      <trkpt lat="45.34276" lon="6.20336">
        <ele>2149.6000976562</ele>
        <time>2014-03-02T11:32:33.000Z</time>
      </trkpt>
      <trkpt lat="45.34276" lon="6.20336">
        <ele>2149.6000976562</ele>
        <time>2014-03-02T11:32:34.000Z</time>
      </trkpt>
      <trkpt lat="45.34276" lon="6.20336">
        <ele>2149.6000976562</ele>
        <time>2014-03-02T11:32:35.000Z</time>
      </trkpt>
      <trkpt lat="45.34276" lon="6.20336">
        <ele>2149.6000976562</ele>
        <time>2014-03-02T11:32:36.000Z</time>
      </trkpt>
      <trkpt lat="45.34276" lon="6.20336">
        <ele>2149.6000976562</ele>
        <time>2014-03-02T11:32:37.000Z</time>
      </trkpt>
      <trkpt lat="45.34276" lon="6.20336">
        <ele>2149.6000976562</ele>
        <time>2014-03-02T11:32:38.000Z</time>
      </trkpt>
      <trkpt lat="45.34276" lon="6.20336">
        <ele>2149.6000976562</ele>
        <time>2014-03-02T11:32:39.000Z</time>
      </trkpt>
      <trkpt lat="45.34276" lon="6.20336">
        <ele>2149.6000976562</ele>
        <time>2014-03-02T11:32:40.000Z</time>
      </trkpt>
      <trkpt lat="45.34276" lon="6.20336">
        <ele>2149.6000976562</ele>
        <time>2014-03-02T11:32:41.000Z</time>
      </trkpt>
      <trkpt lat="45.34276" lon="6.20336">
        <ele>2149.6000976562</ele>
        <time>2014-03-02T11:32:43.000Z</time>
      </trkpt>
      <trkpt lat="45.34276" lon="6.20336">
        <ele>2149.6000976562</ele>
        <time>2014-03-02T11:32:44.000Z</time>
      </trkpt>
      <trkpt lat="45.34276" lon="6.20336">
        <ele>2149.6000976562</ele>
        <time>2014-03-02T11:32:45.000Z</time>
      </trkpt>
      <trkpt lat="45.34276" lon="6.20336">
        <ele>2149.6000976562</ele>
        <time>2014-03-02T11:32:46.000Z</time>
      </trkpt>
      <trkpt lat="45.34276" lon="6.20336">
        <ele>2149.6000976562</ele>
        <time>2014-03-02T11:32:48.000Z</time>
      </trkpt>
      <trkpt lat="45.34276" lon="6.20336">
        <ele>2149.6000976562</ele>
        <time>2014-03-02T11:32:49.000Z</time>
      </trkpt>
      <trkpt lat="45.34276" lon="6.20336">
        <ele>2149.6000976562</ele>
        <time>2014-03-02T11:32:50.000Z</time>
      </trkpt>
      <trkpt lat="45.34278" lon="6.20336">
        <ele>2149.6000976562</ele>
        <time>2014-03-02T11:32:51.000Z</time>
      </trkpt>
      <trkpt lat="45.34278" lon="6.20336">
        <ele>2149.6000976562</ele>
        <time>2014-03-02T11:32:53.000Z</time>
      </trkpt>
      <trkpt lat="45.34278" lon="6.20336">
        <ele>2149.6000976562</ele>
        <time>2014-03-02T11:32:54.000Z</time>
      </trkpt>
      <trkpt lat="45.34278" lon="6.20336">
        <ele>2149.6000976562</ele>
        <time>2014-03-02T11:32:55.000Z</time>
      </trkpt>
      <trkpt lat="45.34278" lon="6.20336">
        <ele>2149.6000976562</ele>
        <time>2014-03-02T11:32:56.000Z</time>
      </trkpt>
      <trkpt lat="45.34278" lon="6.20336">
        <ele>2149.6000976562</ele>
        <time>2014-03-02T11:32:57.000Z</time>
      </trkpt>
      <trkpt lat="45.34278" lon="6.20336">
        <ele>2149.6000976562</ele>
        <time>2014-03-02T11:32:58.000Z</time>
      </trkpt>
      <trkpt lat="45.34278" lon="6.20336">
        <ele>2149.6000976562</ele>
        <time>2014-03-02T11:32:59.000Z</time>
      </trkpt>
      <trkpt lat="45.34278" lon="6.20336">
        <ele>2149.6000976562</ele>
        <time>2014-03-02T11:33:00.000Z</time>
      </trkpt>
      <trkpt lat="45.34278" lon="6.20336">
        <ele>2149.6000976562</ele>
        <time>2014-03-02T11:33:01.000Z</time>
      </trkpt>
      <trkpt lat="45.34278" lon="6.20336">
        <ele>2149.6000976562</ele>
        <time>2014-03-02T11:33:02.000Z</time>
      </trkpt>
      <trkpt lat="45.34278" lon="6.20336">
        <ele>2149.6000976562</ele>
        <time>2014-03-02T11:33:03.000Z</time>
      </trkpt>
      <trkpt lat="45.34278" lon="6.20336">
        <ele>2149.6000976562</ele>
        <time>2014-03-02T11:33:04.000Z</time>
      </trkpt>
      <trkpt lat="45.34278" lon="6.20336">
        <ele>2149.6000976562</ele>
        <time>2014-03-02T11:33:05.000Z</time>
      </trkpt>
      <trkpt lat="45.34278" lon="6.20336">
        <ele>2149.6000976562</ele>
        <time>2014-03-02T11:33:06.000Z</time>
      </trkpt>
      <trkpt lat="45.34278" lon="6.20336">
        <ele>2149.6000976562</ele>
        <time>2014-03-02T11:33:07.000Z</time>
      </trkpt>
      <trkpt lat="45.34278" lon="6.20336">
        <ele>2149.6000976562</ele>
        <time>2014-03-02T11:33:08.000Z</time>
      </trkpt>
      <trkpt lat="45.34278" lon="6.20336">
        <ele>2149.6000976562</ele>
        <time>2014-03-02T11:33:09.000Z</time>
      </trkpt>
      <trkpt lat="45.34278" lon="6.20336">
        <ele>2149.6000976562</ele>
        <time>2014-03-02T11:33:10.000Z</time>
      </trkpt>
      <trkpt lat="45.34278" lon="6.20336">
        <ele>2149.6000976562</ele>
        <time>2014-03-02T11:33:11.000Z</time>
      </trkpt>
      <trkpt lat="45.34278" lon="6.20336">
        <ele>2149.6000976562</ele>
        <time>2014-03-02T11:33:12.000Z</time>
      </trkpt>
      <trkpt lat="45.34278" lon="6.20336">
        <ele>2149.6000976562</ele>
        <time>2014-03-02T11:33:13.000Z</time>
      </trkpt>
      <trkpt lat="45.34278" lon="6.20336">
        <ele>2149.6000976562</ele>
        <time>2014-03-02T11:33:14.000Z</time>
      </trkpt>
      <trkpt lat="45.34278" lon="6.20336">
        <ele>2149.6000976562</ele>
        <time>2014-03-02T11:33:15.000Z</time>
      </trkpt>
      <trkpt lat="45.34278" lon="6.20336">
        <ele>2149.6000976562</ele>
        <time>2014-03-02T11:33:16.000Z</time>
      </trkpt>
      <trkpt lat="45.34278" lon="6.20336">
        <ele>2149.6000976562</ele>
        <time>2014-03-02T11:33:17.000Z</time>
      </trkpt>
      <trkpt lat="45.34278" lon="6.20336">
        <ele>2149.6000976562</ele>
        <time>2014-03-02T11:33:18.000Z</time>
      </trkpt>
      <trkpt lat="45.34278" lon="6.20336">
        <ele>2149.6000976562</ele>
        <time>2014-03-02T11:33:19.000Z</time>
      </trkpt>
      <trkpt lat="45.34278" lon="6.20336">
        <ele>2149.6000976562</ele>
        <time>2014-03-02T11:33:21.000Z</time>
      </trkpt>
      <trkpt lat="45.34278" lon="6.20336">
        <ele>2149.6000976562</ele>
        <time>2014-03-02T11:33:22.000Z</time>
      </trkpt>
      <trkpt lat="45.34278" lon="6.20336">
        <ele>2149.6000976562</ele>
        <time>2014-03-02T11:33:23.000Z</time>
      </trkpt>
      <trkpt lat="45.34278" lon="6.20336">
        <ele>2149.6000976562</ele>
        <time>2014-03-02T11:33:25.000Z</time>
      </trkpt>
      <trkpt lat="45.34278" lon="6.20336">
        <ele>2149.6000976562</ele>
        <time>2014-03-02T11:33:26.000Z</time>
      </trkpt>
      <trkpt lat="45.34278" lon="6.20336">
        <ele>2149.6000976562</ele>
        <time>2014-03-02T11:33:28.000Z</time>
      </trkpt>
      <trkpt lat="45.34279" lon="6.20335">
        <ele>2149.6000976562</ele>
        <time>2014-03-02T11:33:32.000Z</time>
      </trkpt>
      <trkpt lat="45.34279" lon="6.20335">
        <ele>2149.6000976562</ele>
        <time>2014-03-02T11:33:33.000Z</time>
      </trkpt>
      <trkpt lat="45.34279" lon="6.20335">
        <ele>2149.6000976562</ele>
        <time>2014-03-02T11:33:34.000Z</time>
      </trkpt>
      <trkpt lat="45.34279" lon="6.20335">
        <ele>2149.6000976562</ele>
        <time>2014-03-02T11:33:35.000Z</time>
      </trkpt>
      <trkpt lat="45.34279" lon="6.20335">
        <ele>2149.6000976562</ele>
        <time>2014-03-02T11:33:36.000Z</time>
      </trkpt>
      <trkpt lat="45.34279" lon="6.20335">
        <ele>2149.6000976562</ele>
        <time>2014-03-02T11:33:37.000Z</time>
      </trkpt>
      <trkpt lat="45.34279" lon="6.20335">
        <ele>2149.6000976562</ele>
        <time>2014-03-02T11:33:39.000Z</time>
      </trkpt>
      <trkpt lat="45.34279" lon="6.20335">
        <ele>2149.6000976562</ele>
        <time>2014-03-02T11:33:40.000Z</time>
      </trkpt>
      <trkpt lat="45.34279" lon="6.20335">
        <ele>2149.6000976562</ele>
        <time>2014-03-02T11:33:41.000Z</time>
      </trkpt>
      <trkpt lat="45.34279" lon="6.20335">
        <ele>2149.6000976562</ele>
        <time>2014-03-02T11:33:42.000Z</time>
      </trkpt>
      <trkpt lat="45.34279" lon="6.20335">
        <ele>2149.6000976562</ele>
        <time>2014-03-02T11:33:43.000Z</time>
      </trkpt>
      <trkpt lat="45.34279" lon="6.20335">
        <ele>2149.6000976562</ele>
        <time>2014-03-02T11:33:44.000Z</time>
      </trkpt>
      <trkpt lat="45.34279" lon="6.20335">
        <ele>2149.6000976562</ele>
        <time>2014-03-02T11:33:45.000Z</time>
      </trkpt>
      <trkpt lat="45.34279" lon="6.20335">
        <ele>2149.6000976562</ele>
        <time>2014-03-02T11:33:46.000Z</time>
      </trkpt>
      <trkpt lat="45.34279" lon="6.20335">
        <ele>2149.6000976562</ele>
        <time>2014-03-02T11:33:47.000Z</time>
      </trkpt>
      <trkpt lat="45.34279" lon="6.20335">
        <ele>2149.6000976562</ele>
        <time>2014-03-02T11:33:48.000Z</time>
      </trkpt>
      <trkpt lat="45.34279" lon="6.20335">
        <ele>2149.6000976562</ele>
        <time>2014-03-02T11:33:52.000Z</time>
      </trkpt>
      <trkpt lat="45.34279" lon="6.20335">
        <ele>2149.6000976562</ele>
        <time>2014-03-02T11:34:00.000Z</time>
      </trkpt>
      <trkpt lat="45.34279" lon="6.20335">
        <ele>2149.6000976562</ele>
        <time>2014-03-02T11:34:01.000Z</time>
      </trkpt>
      <trkpt lat="45.34279" lon="6.20335">
        <ele>2149.6000976562</ele>
        <time>2014-03-02T11:34:02.000Z</time>
      </trkpt>
      <trkpt lat="45.34279" lon="6.20335">
        <ele>2149.6000976562</ele>
        <time>2014-03-02T11:34:03.000Z</time>
      </trkpt>
      <trkpt lat="45.34279" lon="6.20335">
        <ele>2149.6000976562</ele>
        <time>2014-03-02T11:34:04.000Z</time>
      </trkpt>
      <trkpt lat="45.34279" lon="6.20335">
        <ele>2149.6000976562</ele>
        <time>2014-03-02T11:34:05.000Z</time>
      </trkpt>
      <trkpt lat="45.34279" lon="6.20335">
        <ele>2149.6000976562</ele>
        <time>2014-03-02T11:34:06.000Z</time>
      </trkpt>
      <trkpt lat="45.34279" lon="6.20334">
        <ele>2149.6000976562</ele>
        <time>2014-03-02T11:34:17.000Z</time>
      </trkpt>
      <trkpt lat="45.34279" lon="6.20334">
        <ele>2149.6000976562</ele>
        <time>2014-03-02T11:34:18.000Z</time>
      </trkpt>
      <trkpt lat="45.34279" lon="6.20334">
        <ele>2149.6000976562</ele>
        <time>2014-03-02T11:34:21.000Z</time>
      </trkpt>
      <trkpt lat="45.34279" lon="6.20334">
        <ele>2149.6000976562</ele>
        <time>2014-03-02T11:34:23.000Z</time>
      </trkpt>
      <trkpt lat="45.34279" lon="6.20334">
        <ele>2149.6000976562</ele>
        <time>2014-03-02T11:34:28.000Z</time>
      </trkpt>
      <trkpt lat="45.34279" lon="6.20334">
        <ele>2149.6000976562</ele>
        <time>2014-03-02T11:34:31.000Z</time>
      </trkpt>
      <trkpt lat="45.34279" lon="6.20334">
        <ele>2149.6000976562</ele>
        <time>2014-03-02T11:34:32.000Z</time>
      </trkpt>
      <trkpt lat="45.34279" lon="6.20334">
        <ele>2149.6000976562</ele>
        <time>2014-03-02T11:34:33.000Z</time>
      </trkpt>
      <trkpt lat="45.34279" lon="6.20334">
        <ele>2149.6000976562</ele>
        <time>2014-03-02T11:34:35.000Z</time>
      </trkpt>
      <trkpt lat="45.34279" lon="6.20334">
        <ele>2149.6000976562</ele>
        <time>2014-03-02T11:34:36.000Z</time>
      </trkpt>
      <trkpt lat="45.34279" lon="6.20334">
        <ele>2149.6000976562</ele>
        <time>2014-03-02T11:34:37.000Z</time>
      </trkpt>
      <trkpt lat="45.34279" lon="6.20334">
        <ele>2149.6000976562</ele>
        <time>2014-03-02T11:34:38.000Z</time>
      </trkpt>
      <trkpt lat="45.34279" lon="6.20334">
        <ele>2149.6000976562</ele>
        <time>2014-03-02T11:34:39.000Z</time>
      </trkpt>
      <trkpt lat="45.34279" lon="6.20334">
        <ele>2149.6000976562</ele>
        <time>2014-03-02T11:34:40.000Z</time>
      </trkpt>
      <trkpt lat="45.34279" lon="6.20334">
        <ele>2149.6000976562</ele>
        <time>2014-03-02T11:34:41.000Z</time>
      </trkpt>
      <trkpt lat="45.34279" lon="6.20334">
        <ele>2149.6000976562</ele>
        <time>2014-03-02T11:34:42.000Z</time>
      </trkpt>
      <trkpt lat="45.34279" lon="6.20334">
        <ele>2149.6000976562</ele>
        <time>2014-03-02T11:34:43.000Z</time>
      </trkpt>
      <trkpt lat="45.34279" lon="6.20334">
        <ele>2149.6000976562</ele>
        <time>2014-03-02T11:34:44.000Z</time>
      </trkpt>
      <trkpt lat="45.34279" lon="6.20334">
        <ele>2149.6000976562</ele>
        <time>2014-03-02T11:34:45.000Z</time>
      </trkpt>
      <trkpt lat="45.34279" lon="6.20334">
        <ele>2149.6000976562</ele>
        <time>2014-03-02T11:34:46.000Z</time>
      </trkpt>
      <trkpt lat="45.34279" lon="6.20334">
        <ele>2149.6000976562</ele>
        <time>2014-03-02T11:34:47.000Z</time>
      </trkpt>
      <trkpt lat="45.34279" lon="6.20334">
        <ele>2149.6000976562</ele>
        <time>2014-03-02T11:34:48.000Z</time>
      </trkpt>
      <trkpt lat="45.34279" lon="6.20334">
        <ele>2149.6000976562</ele>
        <time>2014-03-02T11:34:49.000Z</time>
      </trkpt>
      <trkpt lat="45.34279" lon="6.20334">
        <ele>2149.6000976562</ele>
        <time>2014-03-02T11:34:50.000Z</time>
      </trkpt>
      <trkpt lat="45.3428" lon="6.20334">
        <ele>2149.6000976562</ele>
        <time>2014-03-02T11:34:51.000Z</time>
      </trkpt>
      <trkpt lat="45.3428" lon="6.20334">
        <ele>2149.6000976562</ele>
        <time>2014-03-02T11:34:52.000Z</time>
      </trkpt>
      <trkpt lat="45.3428" lon="6.20334">
        <ele>2149.6000976562</ele>
        <time>2014-03-02T11:34:55.000Z</time>
      </trkpt>
      <trkpt lat="45.3428" lon="6.20334">
        <ele>2149.6000976562</ele>
        <time>2014-03-02T11:34:56.000Z</time>
      </trkpt>
      <trkpt lat="45.3428" lon="6.20334">
        <ele>2149.6000976562</ele>
        <time>2014-03-02T11:34:57.000Z</time>
      </trkpt>
      <trkpt lat="45.3428" lon="6.20334">
        <ele>2149.6000976562</ele>
        <time>2014-03-02T11:35:04.000Z</time>
      </trkpt>
      <trkpt lat="45.3428" lon="6.20334">
        <ele>2149.6000976562</ele>
        <time>2014-03-02T11:35:05.000Z</time>
      </trkpt>
      <trkpt lat="45.3428" lon="6.20334">
        <ele>2149.6000976562</ele>
        <time>2014-03-02T11:35:06.000Z</time>
      </trkpt>
      <trkpt lat="45.3428" lon="6.20334">
        <ele>2149.6000976562</ele>
        <time>2014-03-02T11:35:07.000Z</time>
      </trkpt>
      <trkpt lat="45.3428" lon="6.20334">
        <ele>2149.6000976562</ele>
        <time>2014-03-02T11:35:08.000Z</time>
      </trkpt>
      <trkpt lat="45.3428" lon="6.20334">
        <ele>2149.6000976562</ele>
        <time>2014-03-02T11:35:09.000Z</time>
      </trkpt>
      <trkpt lat="45.3428" lon="6.20334">
        <ele>2149.6000976562</ele>
        <time>2014-03-02T11:35:10.000Z</time>
      </trkpt>
      <trkpt lat="45.3428" lon="6.20334">
        <ele>2149.6000976562</ele>
        <time>2014-03-02T11:35:17.000Z</time>
      </trkpt>
      <trkpt lat="45.3428" lon="6.20334">
        <ele>2149.6000976562</ele>
        <time>2014-03-02T11:35:24.000Z</time>
      </trkpt>
      <trkpt lat="45.3428" lon="6.20334">
        <ele>2149.6000976562</ele>
        <time>2014-03-02T11:35:25.000Z</time>
      </trkpt>
      <trkpt lat="45.3428" lon="6.20334">
        <ele>2149.6000976562</ele>
        <time>2014-03-02T11:35:28.000Z</time>
      </trkpt>
      <trkpt lat="45.3428" lon="6.20334">
        <ele>2149.6000976562</ele>
        <time>2014-03-02T11:35:29.000Z</time>
      </trkpt>
      <trkpt lat="45.3428" lon="6.20333">
        <ele>2149.8000488281</ele>
        <time>2014-03-02T11:35:32.000Z</time>
      </trkpt>
      <trkpt lat="45.3428" lon="6.20333">
        <ele>2149.8000488281</ele>
        <time>2014-03-02T11:35:41.000Z</time>
      </trkpt>
      <trkpt lat="45.3428" lon="6.20333">
        <ele>2149.8000488281</ele>
        <time>2014-03-02T11:35:42.000Z</time>
      </trkpt>
      <trkpt lat="45.3428" lon="6.20333">
        <ele>2149.8000488281</ele>
        <time>2014-03-02T11:35:43.000Z</time>
      </trkpt>
      <trkpt lat="45.3428" lon="6.20333">
        <ele>2149.8000488281</ele>
        <time>2014-03-02T11:35:44.000Z</time>
      </trkpt>
      <trkpt lat="45.3428" lon="6.20333">
        <ele>2149.8000488281</ele>
        <time>2014-03-02T11:35:45.000Z</time>
      </trkpt>
      <trkpt lat="45.3428" lon="6.20333">
        <ele>2149.8000488281</ele>
        <time>2014-03-02T11:35:46.000Z</time>
      </trkpt>
      <trkpt lat="45.3428" lon="6.20333">
        <ele>2149.8000488281</ele>
        <time>2014-03-02T11:35:47.000Z</time>
      </trkpt>
      <trkpt lat="45.3428" lon="6.20333">
        <ele>2149.8000488281</ele>
        <time>2014-03-02T11:35:48.000Z</time>
      </trkpt>
      <trkpt lat="45.3428" lon="6.20333">
        <ele>2149.8000488281</ele>
        <time>2014-03-02T11:35:54.000Z</time>
      </trkpt>
      <trkpt lat="45.3428" lon="6.20333">
        <ele>2149.8000488281</ele>
        <time>2014-03-02T11:35:56.000Z</time>
      </trkpt>
      <trkpt lat="45.3428" lon="6.20333">
        <ele>2149.8000488281</ele>
        <time>2014-03-02T11:35:57.000Z</time>
      </trkpt>
      <trkpt lat="45.3428" lon="6.20333">
        <ele>2149.8000488281</ele>
        <time>2014-03-02T11:35:59.000Z</time>
      </trkpt>
      <trkpt lat="45.3428" lon="6.20333">
        <ele>2149.8000488281</ele>
        <time>2014-03-02T11:36:00.000Z</time>
      </trkpt>
      <trkpt lat="45.3428" lon="6.20333">
        <ele>2149.8000488281</ele>
        <time>2014-03-02T11:36:01.000Z</time>
      </trkpt>
      <trkpt lat="45.3428" lon="6.20333">
        <ele>2149.8000488281</ele>
        <time>2014-03-02T11:36:02.000Z</time>
      </trkpt>
      <trkpt lat="45.3428" lon="6.20333">
        <ele>2149.8000488281</ele>
        <time>2014-03-02T11:36:03.000Z</time>
      </trkpt>
      <trkpt lat="45.3428" lon="6.20333">
        <ele>2149.8000488281</ele>
        <time>2014-03-02T11:36:04.000Z</time>
      </trkpt>
      <trkpt lat="45.3428" lon="6.20333">
        <ele>2149.8000488281</ele>
        <time>2014-03-02T11:36:05.000Z</time>
      </trkpt>
      <trkpt lat="45.3428" lon="6.20333">
        <ele>2149.8000488281</ele>
        <time>2014-03-02T11:36:11.000Z</time>
      </trkpt>
      <trkpt lat="45.3428" lon="6.20333">
        <ele>2149.8000488281</ele>
        <time>2014-03-02T11:36:16.000Z</time>
      </trkpt>
      <trkpt lat="45.3428" lon="6.20333">
        <ele>2149.8000488281</ele>
        <time>2014-03-02T11:36:17.000Z</time>
      </trkpt>
      <trkpt lat="45.3428" lon="6.20333">
        <ele>2149.8000488281</ele>
        <time>2014-03-02T11:36:18.000Z</time>
      </trkpt>
      <trkpt lat="45.3428" lon="6.20333">
        <ele>2149.8000488281</ele>
        <time>2014-03-02T11:36:19.000Z</time>
      </trkpt>
      <trkpt lat="45.3428" lon="6.20333">
        <ele>2149.8000488281</ele>
        <time>2014-03-02T11:36:20.000Z</time>
      </trkpt>
      <trkpt lat="45.3428" lon="6.20333">
        <ele>2149.8000488281</ele>
        <time>2014-03-02T11:36:21.000Z</time>
      </trkpt>
      <trkpt lat="45.3428" lon="6.20333">
        <ele>2149.8000488281</ele>
        <time>2014-03-02T11:36:23.000Z</time>
      </trkpt>
      <trkpt lat="45.3428" lon="6.20333">
        <ele>2149.8000488281</ele>
        <time>2014-03-02T11:36:24.000Z</time>
      </trkpt>
      <trkpt lat="45.3428" lon="6.20333">
        <ele>2149.8000488281</ele>
        <time>2014-03-02T11:36:25.000Z</time>
      </trkpt>
      <trkpt lat="45.3428" lon="6.20333">
        <ele>2149.8000488281</ele>
        <time>2014-03-02T11:36:26.000Z</time>
      </trkpt>
      <trkpt lat="45.3428" lon="6.20333">
        <ele>2149.8000488281</ele>
        <time>2014-03-02T11:36:27.000Z</time>
      </trkpt>
      <trkpt lat="45.3428" lon="6.20333">
        <ele>2149.8000488281</ele>
        <time>2014-03-02T11:36:28.000Z</time>
      </trkpt>
      <trkpt lat="45.3428" lon="6.20333">
        <ele>2149.8000488281</ele>
        <time>2014-03-02T11:36:30.000Z</time>
      </trkpt>
      <trkpt lat="45.3428" lon="6.20333">
        <ele>2149.8000488281</ele>
        <time>2014-03-02T11:36:31.000Z</time>
      </trkpt>
      <trkpt lat="45.3428" lon="6.20333">
        <ele>2149.8000488281</ele>
        <time>2014-03-02T11:36:32.000Z</time>
      </trkpt>
      <trkpt lat="45.3428" lon="6.20333">
        <ele>2149.8000488281</ele>
        <time>2014-03-02T11:36:34.000Z</time>
      </trkpt>
      <trkpt lat="45.3428" lon="6.20333">
        <ele>2149.8000488281</ele>
        <time>2014-03-02T11:36:36.000Z</time>
      </trkpt>
      <trkpt lat="45.3428" lon="6.20333">
        <ele>2149.8000488281</ele>
        <time>2014-03-02T11:36:38.000Z</time>
      </trkpt>
      <trkpt lat="45.3428" lon="6.20333">
        <ele>2149.8000488281</ele>
        <time>2014-03-02T11:36:39.000Z</time>
      </trkpt>
      <trkpt lat="45.3428" lon="6.20333">
        <ele>2149.8000488281</ele>
        <time>2014-03-02T11:36:40.000Z</time>
      </trkpt>
      <trkpt lat="45.3428" lon="6.20333">
        <ele>2149.8000488281</ele>
        <time>2014-03-02T11:36:41.000Z</time>
      </trkpt>
      <trkpt lat="45.3428" lon="6.20333">
        <ele>2149.8000488281</ele>
        <time>2014-03-02T11:36:42.000Z</time>
      </trkpt>
      <trkpt lat="45.3428" lon="6.20333">
        <ele>2149.8000488281</ele>
        <time>2014-03-02T11:36:43.000Z</time>
      </trkpt>
      <trkpt lat="45.3428" lon="6.20333">
        <ele>2149.8000488281</ele>
        <time>2014-03-02T11:36:44.000Z</time>
      </trkpt>
      <trkpt lat="45.3428" lon="6.20333">
        <ele>2149.8000488281</ele>
        <time>2014-03-02T11:36:45.000Z</time>
      </trkpt>
      <trkpt lat="45.3428" lon="6.20333">
        <ele>2149.8000488281</ele>
        <time>2014-03-02T11:36:46.000Z</time>
      </trkpt>
      <trkpt lat="45.3428" lon="6.20333">
        <ele>2149.8000488281</ele>
        <time>2014-03-02T11:36:47.000Z</time>
      </trkpt>
      <trkpt lat="45.3428" lon="6.20333">
        <ele>2149.8000488281</ele>
        <time>2014-03-02T11:36:48.000Z</time>
      </trkpt>
      <trkpt lat="45.3428" lon="6.20333">
        <ele>2149.8000488281</ele>
        <time>2014-03-02T11:36:49.000Z</time>
      </trkpt>
      <trkpt lat="45.34281" lon="6.20332">
        <ele>2149.8000488281</ele>
        <time>2014-03-02T11:36:50.000Z</time>
      </trkpt>
      <trkpt lat="45.34281" lon="6.20332">
        <ele>2149.8000488281</ele>
        <time>2014-03-02T11:36:53.000Z</time>
      </trkpt>
      <trkpt lat="45.34281" lon="6.20332">
        <ele>2149.8000488281</ele>
        <time>2014-03-02T11:36:54.000Z</time>
      </trkpt>
      <trkpt lat="45.34281" lon="6.20332">
        <ele>2149.8000488281</ele>
        <time>2014-03-02T11:36:55.000Z</time>
      </trkpt>
      <trkpt lat="45.34281" lon="6.20332">
        <ele>2149.8000488281</ele>
        <time>2014-03-02T11:36:56.000Z</time>
      </trkpt>
      <trkpt lat="45.34281" lon="6.20332">
        <ele>2149.8000488281</ele>
        <time>2014-03-02T11:36:57.000Z</time>
      </trkpt>
      <trkpt lat="45.34281" lon="6.20332">
        <ele>2149.8000488281</ele>
        <time>2014-03-02T11:36:58.000Z</time>
      </trkpt>
      <trkpt lat="45.34281" lon="6.20332">
        <ele>2149.8000488281</ele>
        <time>2014-03-02T11:36:59.000Z</time>
      </trkpt>
      <trkpt lat="45.34281" lon="6.20332">
        <ele>2149.8000488281</ele>
        <time>2014-03-02T11:37:01.000Z</time>
      </trkpt>
      <trkpt lat="45.34281" lon="6.20332">
        <ele>2149.8000488281</ele>
        <time>2014-03-02T11:37:02.000Z</time>
      </trkpt>
      <trkpt lat="45.34281" lon="6.20332">
        <ele>2149.8000488281</ele>
        <time>2014-03-02T11:37:03.000Z</time>
      </trkpt>
      <trkpt lat="45.34281" lon="6.20332">
        <ele>2149.8000488281</ele>
        <time>2014-03-02T11:37:04.000Z</time>
      </trkpt>
      <trkpt lat="45.34281" lon="6.20332">
        <ele>2149.8000488281</ele>
        <time>2014-03-02T11:37:05.000Z</time>
      </trkpt>
      <trkpt lat="45.34281" lon="6.20332">
        <ele>2149.8000488281</ele>
        <time>2014-03-02T11:37:07.000Z</time>
      </trkpt>
      <trkpt lat="45.34281" lon="6.20332">
        <ele>2149.8000488281</ele>
        <time>2014-03-02T11:37:08.000Z</time>
      </trkpt>
      <trkpt lat="45.34281" lon="6.20332">
        <ele>2149.8000488281</ele>
        <time>2014-03-02T11:37:09.000Z</time>
      </trkpt>
      <trkpt lat="45.34281" lon="6.20332">
        <ele>2149.8000488281</ele>
        <time>2014-03-02T11:37:10.000Z</time>
      </trkpt>
      <trkpt lat="45.34281" lon="6.20332">
        <ele>2149.8000488281</ele>
        <time>2014-03-02T11:37:11.000Z</time>
      </trkpt>
      <trkpt lat="45.34281" lon="6.20332">
        <ele>2149.8000488281</ele>
        <time>2014-03-02T11:37:12.000Z</time>
      </trkpt>
      <trkpt lat="45.34281" lon="6.20332">
        <ele>2149.8000488281</ele>
        <time>2014-03-02T11:37:14.000Z</time>
      </trkpt>
      <trkpt lat="45.34281" lon="6.20332">
        <ele>2149.8000488281</ele>
        <time>2014-03-02T11:37:15.000Z</time>
      </trkpt>
      <trkpt lat="45.34281" lon="6.20332">
        <ele>2149.8000488281</ele>
        <time>2014-03-02T11:37:16.000Z</time>
      </trkpt>
      <trkpt lat="45.34281" lon="6.20332">
        <ele>2149.8000488281</ele>
        <time>2014-03-02T11:37:17.000Z</time>
      </trkpt>
      <trkpt lat="45.34281" lon="6.20332">
        <ele>2149.8000488281</ele>
        <time>2014-03-02T11:37:19.000Z</time>
      </trkpt>
      <trkpt lat="45.34281" lon="6.20332">
        <ele>2149.8000488281</ele>
        <time>2014-03-02T11:37:20.000Z</time>
      </trkpt>
      <trkpt lat="45.34281" lon="6.20332">
        <ele>2149.8000488281</ele>
        <time>2014-03-02T11:37:21.000Z</time>
      </trkpt>
      <trkpt lat="45.34281" lon="6.20332">
        <ele>2149.8000488281</ele>
        <time>2014-03-02T11:37:22.000Z</time>
      </trkpt>
      <trkpt lat="45.34281" lon="6.20332">
        <ele>2149.8000488281</ele>
        <time>2014-03-02T11:37:23.000Z</time>
      </trkpt>
      <trkpt lat="45.34281" lon="6.20332">
        <ele>2149.8000488281</ele>
        <time>2014-03-02T11:37:24.000Z</time>
      </trkpt>
      <trkpt lat="45.34281" lon="6.20332">
        <ele>2149.8000488281</ele>
        <time>2014-03-02T11:37:25.000Z</time>
      </trkpt>
      <trkpt lat="45.34281" lon="6.20332">
        <ele>2149.8000488281</ele>
        <time>2014-03-02T11:37:28.000Z</time>
      </trkpt>
      <trkpt lat="45.34281" lon="6.20332">
        <ele>2149.8000488281</ele>
        <time>2014-03-02T11:37:29.000Z</time>
      </trkpt>
      <trkpt lat="45.34281" lon="6.20332">
        <ele>2150</ele>
        <time>2014-03-02T11:37:30.000Z</time>
      </trkpt>
      <trkpt lat="45.34281" lon="6.20332">
        <ele>2150</ele>
        <time>2014-03-02T11:37:31.000Z</time>
      </trkpt>
      <trkpt lat="45.34281" lon="6.20332">
        <ele>2150</ele>
        <time>2014-03-02T11:37:32.000Z</time>
      </trkpt>
      <trkpt lat="45.34281" lon="6.20332">
        <ele>2150</ele>
        <time>2014-03-02T11:37:34.000Z</time>
      </trkpt>
      <trkpt lat="45.34281" lon="6.20332">
        <ele>2150</ele>
        <time>2014-03-02T11:37:35.000Z</time>
      </trkpt>
      <trkpt lat="45.34281" lon="6.20332">
        <ele>2150</ele>
        <time>2014-03-02T11:37:36.000Z</time>
      </trkpt>
      <trkpt lat="45.34281" lon="6.20332">
        <ele>2150</ele>
        <time>2014-03-02T11:37:37.000Z</time>
      </trkpt>
      <trkpt lat="45.34281" lon="6.20332">
        <ele>2150</ele>
        <time>2014-03-02T11:37:38.000Z</time>
      </trkpt>
      <trkpt lat="45.34281" lon="6.20332">
        <ele>2150</ele>
        <time>2014-03-02T11:37:39.000Z</time>
      </trkpt>
      <trkpt lat="45.34281" lon="6.20332">
        <ele>2150</ele>
        <time>2014-03-02T11:37:40.000Z</time>
      </trkpt>
      <trkpt lat="45.34281" lon="6.20332">
        <ele>2150</ele>
        <time>2014-03-02T11:37:41.000Z</time>
      </trkpt>
      <trkpt lat="45.34281" lon="6.20332">
        <ele>2150</ele>
        <time>2014-03-02T11:37:42.000Z</time>
      </trkpt>
      <trkpt lat="45.34281" lon="6.20332">
        <ele>2150</ele>
        <time>2014-03-02T11:37:43.000Z</time>
      </trkpt>
      <trkpt lat="45.34281" lon="6.20332">
        <ele>2150</ele>
        <time>2014-03-02T11:37:44.000Z</time>
      </trkpt>
      <trkpt lat="45.34281" lon="6.20332">
        <ele>2150</ele>
        <time>2014-03-02T11:37:45.000Z</time>
      </trkpt>
      <trkpt lat="45.34281" lon="6.20332">
        <ele>2150</ele>
        <time>2014-03-02T11:37:46.000Z</time>
      </trkpt>
      <trkpt lat="45.34281" lon="6.20332">
        <ele>2150</ele>
        <time>2014-03-02T11:37:47.000Z</time>
      </trkpt>
      <trkpt lat="45.34281" lon="6.20332">
        <ele>2150</ele>
        <time>2014-03-02T11:37:48.000Z</time>
      </trkpt>
      <trkpt lat="45.34281" lon="6.20332">
        <ele>2150</ele>
        <time>2014-03-02T11:37:49.000Z</time>
      </trkpt>
      <trkpt lat="45.34281" lon="6.20332">
        <ele>2150</ele>
        <time>2014-03-02T11:37:50.000Z</time>
      </trkpt>
      <trkpt lat="45.34281" lon="6.20332">
        <ele>2150</ele>
        <time>2014-03-02T11:37:51.000Z</time>
      </trkpt>
      <trkpt lat="45.34281" lon="6.20332">
        <ele>2150</ele>
        <time>2014-03-02T11:37:52.000Z</time>
      </trkpt>
      <trkpt lat="45.34281" lon="6.20332">
        <ele>2150</ele>
        <time>2014-03-02T11:37:53.000Z</time>
      </trkpt>
      <trkpt lat="45.34281" lon="6.20332">
        <ele>2150</ele>
        <time>2014-03-02T11:37:54.000Z</time>
      </trkpt>
      <trkpt lat="45.34281" lon="6.20332">
        <ele>2150</ele>
        <time>2014-03-02T11:37:55.000Z</time>
      </trkpt>
      <trkpt lat="45.34281" lon="6.20332">
        <ele>2150</ele>
        <time>2014-03-02T11:37:56.000Z</time>
      </trkpt>
      <trkpt lat="45.34281" lon="6.20332">
        <ele>2150</ele>
        <time>2014-03-02T11:37:57.000Z</time>
      </trkpt>
      <trkpt lat="45.34281" lon="6.20332">
        <ele>2150</ele>
        <time>2014-03-02T11:37:58.000Z</time>
      </trkpt>
      <trkpt lat="45.34281" lon="6.20332">
        <ele>2150</ele>
        <time>2014-03-02T11:37:59.000Z</time>
      </trkpt>
      <trkpt lat="45.34281" lon="6.20332">
        <ele>2150</ele>
        <time>2014-03-02T11:38:01.000Z</time>
      </trkpt>
      <trkpt lat="45.34281" lon="6.20332">
        <ele>2150</ele>
        <time>2014-03-02T11:38:02.000Z</time>
      </trkpt>
      <trkpt lat="45.34281" lon="6.20332">
        <ele>2150</ele>
        <time>2014-03-02T11:38:03.000Z</time>
      </trkpt>
      <trkpt lat="45.34281" lon="6.20332">
        <ele>2150</ele>
        <time>2014-03-02T11:38:04.000Z</time>
      </trkpt>
      <trkpt lat="45.34281" lon="6.20332">
        <ele>2150</ele>
        <time>2014-03-02T11:38:05.000Z</time>
      </trkpt>
      <trkpt lat="45.34281" lon="6.20332">
        <ele>2150</ele>
        <time>2014-03-02T11:38:06.000Z</time>
      </trkpt>
      <trkpt lat="45.34281" lon="6.20332">
        <ele>2150</ele>
        <time>2014-03-02T11:38:07.000Z</time>
      </trkpt>
      <trkpt lat="45.34281" lon="6.20332">
        <ele>2150</ele>
        <time>2014-03-02T11:38:08.000Z</time>
      </trkpt>
      <trkpt lat="45.34281" lon="6.20332">
        <ele>2150</ele>
        <time>2014-03-02T11:38:09.000Z</time>
      </trkpt>
      <trkpt lat="45.34281" lon="6.20332">
        <ele>2150</ele>
        <time>2014-03-02T11:38:10.000Z</time>
      </trkpt>
      <trkpt lat="45.34281" lon="6.20332">
        <ele>2150</ele>
        <time>2014-03-02T11:38:11.000Z</time>
      </trkpt>
      <trkpt lat="45.34281" lon="6.20332">
        <ele>2150</ele>
        <time>2014-03-02T11:38:12.000Z</time>
      </trkpt>
      <trkpt lat="45.34281" lon="6.20332">
        <ele>2150</ele>
        <time>2014-03-02T11:38:13.000Z</time>
      </trkpt>
      <trkpt lat="45.34281" lon="6.20332">
        <ele>2150</ele>
        <time>2014-03-02T11:38:14.000Z</time>
      </trkpt>
      <trkpt lat="45.34281" lon="6.20332">
        <ele>2150</ele>
        <time>2014-03-02T11:38:15.000Z</time>
      </trkpt>
      <trkpt lat="45.34281" lon="6.20332">
        <ele>2150</ele>
        <time>2014-03-02T11:38:16.000Z</time>
      </trkpt>
      <trkpt lat="45.34281" lon="6.20332">
        <ele>2150</ele>
        <time>2014-03-02T11:38:18.000Z</time>
      </trkpt>
      <trkpt lat="45.34281" lon="6.20332">
        <ele>2150</ele>
        <time>2014-03-02T11:38:19.000Z</time>
      </trkpt>
      <trkpt lat="45.34281" lon="6.20332">
        <ele>2150</ele>
        <time>2014-03-02T11:38:20.000Z</time>
      </trkpt>
      <trkpt lat="45.34281" lon="6.20332">
        <ele>2150</ele>
        <time>2014-03-02T11:38:21.000Z</time>
      </trkpt>
      <trkpt lat="45.34281" lon="6.20332">
        <ele>2150</ele>
        <time>2014-03-02T11:38:22.000Z</time>
      </trkpt>
      <trkpt lat="45.34281" lon="6.20332">
        <ele>2150</ele>
        <time>2014-03-02T11:38:23.000Z</time>
      </trkpt>
      <trkpt lat="45.34281" lon="6.20332">
        <ele>2150</ele>
        <time>2014-03-02T11:38:24.000Z</time>
      </trkpt>
      <trkpt lat="45.34281" lon="6.20332">
        <ele>2150</ele>
        <time>2014-03-02T11:38:25.000Z</time>
      </trkpt>
      <trkpt lat="45.34281" lon="6.20332">
        <ele>2150</ele>
        <time>2014-03-02T11:38:26.000Z</time>
      </trkpt>
      <trkpt lat="45.34281" lon="6.20332">
        <ele>2150</ele>
        <time>2014-03-02T11:38:27.000Z</time>
      </trkpt>
      <trkpt lat="45.34281" lon="6.20332">
        <ele>2150</ele>
        <time>2014-03-02T11:38:28.000Z</time>
      </trkpt>
      <trkpt lat="45.34281" lon="6.20332">
        <ele>2150</ele>
        <time>2014-03-02T11:38:29.000Z</time>
      </trkpt>
      <trkpt lat="45.34281" lon="6.20332">
        <ele>2150</ele>
        <time>2014-03-02T11:38:30.000Z</time>
      </trkpt>
      <trkpt lat="45.34281" lon="6.20331">
        <ele>2150</ele>
        <time>2014-03-02T11:38:31.000Z</time>
      </trkpt>
      <trkpt lat="45.34281" lon="6.20331">
        <ele>2150</ele>
        <time>2014-03-02T11:38:32.000Z</time>
      </trkpt>
      <trkpt lat="45.34281" lon="6.20331">
        <ele>2150</ele>
        <time>2014-03-02T11:38:33.000Z</time>
      </trkpt>
      <trkpt lat="45.34281" lon="6.20331">
        <ele>2150</ele>
        <time>2014-03-02T11:38:34.000Z</time>
      </trkpt>
      <trkpt lat="45.34281" lon="6.20331">
        <ele>2150</ele>
        <time>2014-03-02T11:38:35.000Z</time>
      </trkpt>
      <trkpt lat="45.34281" lon="6.20331">
        <ele>2150</ele>
        <time>2014-03-02T11:38:36.000Z</time>
      </trkpt>
      <trkpt lat="45.34281" lon="6.20331">
        <ele>2150</ele>
        <time>2014-03-02T11:38:37.000Z</time>
      </trkpt>
      <trkpt lat="45.34281" lon="6.20331">
        <ele>2150</ele>
        <time>2014-03-02T11:38:38.000Z</time>
      </trkpt>
      <trkpt lat="45.34281" lon="6.20331">
        <ele>2150</ele>
        <time>2014-03-02T11:38:39.000Z</time>
      </trkpt>
      <trkpt lat="45.34281" lon="6.20331">
        <ele>2150</ele>
        <time>2014-03-02T11:38:40.000Z</time>
      </trkpt>
      <trkpt lat="45.34281" lon="6.20331">
        <ele>2150</ele>
        <time>2014-03-02T11:38:41.000Z</time>
      </trkpt>
      <trkpt lat="45.34281" lon="6.20331">
        <ele>2150</ele>
        <time>2014-03-02T11:38:42.000Z</time>
      </trkpt>
      <trkpt lat="45.34281" lon="6.20331">
        <ele>2150</ele>
        <time>2014-03-02T11:38:43.000Z</time>
      </trkpt>
      <trkpt lat="45.34281" lon="6.20331">
        <ele>2150</ele>
        <time>2014-03-02T11:38:44.000Z</time>
      </trkpt>
      <trkpt lat="45.34281" lon="6.20331">
        <ele>2150</ele>
        <time>2014-03-02T11:38:45.000Z</time>
      </trkpt>
      <trkpt lat="45.34281" lon="6.20331">
        <ele>2150</ele>
        <time>2014-03-02T11:38:46.000Z</time>
      </trkpt>
      <trkpt lat="45.34281" lon="6.20331">
        <ele>2150</ele>
        <time>2014-03-02T11:38:47.000Z</time>
      </trkpt>
      <trkpt lat="45.34281" lon="6.20331">
        <ele>2150</ele>
        <time>2014-03-02T11:38:48.000Z</time>
      </trkpt>
      <trkpt lat="45.34281" lon="6.20331">
        <ele>2150</ele>
        <time>2014-03-02T11:38:49.000Z</time>
      </trkpt>
      <trkpt lat="45.34281" lon="6.20331">
        <ele>2150</ele>
        <time>2014-03-02T11:38:50.000Z</time>
      </trkpt>
      <trkpt lat="45.34281" lon="6.20331">
        <ele>2150</ele>
        <time>2014-03-02T11:38:52.000Z</time>
      </trkpt>
      <trkpt lat="45.34281" lon="6.20331">
        <ele>2150</ele>
        <time>2014-03-02T11:38:53.000Z</time>
      </trkpt>
      <trkpt lat="45.34281" lon="6.20331">
        <ele>2150</ele>
        <time>2014-03-02T11:38:54.000Z</time>
      </trkpt>
      <trkpt lat="45.34281" lon="6.20331">
        <ele>2150</ele>
        <time>2014-03-02T11:38:55.000Z</time>
      </trkpt>
      <trkpt lat="45.34281" lon="6.20331">
        <ele>2150</ele>
        <time>2014-03-02T11:38:56.000Z</time>
      </trkpt>
      <trkpt lat="45.34281" lon="6.20331">
        <ele>2150</ele>
        <time>2014-03-02T11:38:57.000Z</time>
      </trkpt>
      <trkpt lat="45.34281" lon="6.20331">
        <ele>2150</ele>
        <time>2014-03-02T11:38:58.000Z</time>
      </trkpt>
      <trkpt lat="45.34281" lon="6.20331">
        <ele>2150</ele>
        <time>2014-03-02T11:38:59.000Z</time>
      </trkpt>
      <trkpt lat="45.34281" lon="6.20331">
        <ele>2150</ele>
        <time>2014-03-02T11:39:00.000Z</time>
      </trkpt>
      <trkpt lat="45.34281" lon="6.20331">
        <ele>2150</ele>
        <time>2014-03-02T11:39:01.000Z</time>
      </trkpt>
      <trkpt lat="45.34281" lon="6.20331">
        <ele>2150</ele>
        <time>2014-03-02T11:39:02.000Z</time>
      </trkpt>
      <trkpt lat="45.34281" lon="6.20331">
        <ele>2150</ele>
        <time>2014-03-02T11:39:03.000Z</time>
      </trkpt>
      <trkpt lat="45.34281" lon="6.20331">
        <ele>2150</ele>
        <time>2014-03-02T11:39:04.000Z</time>
      </trkpt>
      <trkpt lat="45.34281" lon="6.20331">
        <ele>2150</ele>
        <time>2014-03-02T11:39:05.000Z</time>
      </trkpt>
      <trkpt lat="45.34281" lon="6.20331">
        <ele>2150</ele>
        <time>2014-03-02T11:39:11.000Z</time>
      </trkpt>
      <trkpt lat="45.34281" lon="6.20331">
        <ele>2150</ele>
        <time>2014-03-02T11:39:15.000Z</time>
      </trkpt>
      <trkpt lat="45.34281" lon="6.20331">
        <ele>2150</ele>
        <time>2014-03-02T11:39:16.000Z</time>
      </trkpt>
      <trkpt lat="45.34281" lon="6.20331">
        <ele>2150</ele>
        <time>2014-03-02T11:39:17.000Z</time>
      </trkpt>
      <trkpt lat="45.34281" lon="6.20331">
        <ele>2150</ele>
        <time>2014-03-02T11:39:18.000Z</time>
      </trkpt>
      <trkpt lat="45.34281" lon="6.20331">
        <ele>2150</ele>
        <time>2014-03-02T11:39:20.000Z</time>
      </trkpt>
      <trkpt lat="45.34281" lon="6.20331">
        <ele>2150</ele>
        <time>2014-03-02T11:39:22.000Z</time>
      </trkpt>
      <trkpt lat="45.34281" lon="6.20331">
        <ele>2150</ele>
        <time>2014-03-02T11:39:24.000Z</time>
      </trkpt>
      <trkpt lat="45.34281" lon="6.20331">
        <ele>2150</ele>
        <time>2014-03-02T11:39:25.000Z</time>
      </trkpt>
      <trkpt lat="45.34281" lon="6.20331">
        <ele>2150</ele>
        <time>2014-03-02T11:39:29.000Z</time>
      </trkpt>
      <trkpt lat="45.34281" lon="6.20331">
        <ele>2150</ele>
        <time>2014-03-02T11:39:30.000Z</time>
      </trkpt>
      <trkpt lat="45.34281" lon="6.20331">
        <ele>2150</ele>
        <time>2014-03-02T11:39:31.000Z</time>
      </trkpt>
      <trkpt lat="45.34281" lon="6.20331">
        <ele>2150</ele>
        <time>2014-03-02T11:39:33.000Z</time>
      </trkpt>
      <trkpt lat="45.34282" lon="6.20331">
        <ele>2150</ele>
        <time>2014-03-02T11:39:34.000Z</time>
      </trkpt>
      <trkpt lat="45.34282" lon="6.20331">
        <ele>2150</ele>
        <time>2014-03-02T11:39:35.000Z</time>
      </trkpt>
      <trkpt lat="45.34282" lon="6.20331">
        <ele>2150</ele>
        <time>2014-03-02T11:39:36.000Z</time>
      </trkpt>
      <trkpt lat="45.34282" lon="6.20331">
        <ele>2150</ele>
        <time>2014-03-02T11:39:37.000Z</time>
      </trkpt>
      <trkpt lat="45.34282" lon="6.20331">
        <ele>2150</ele>
        <time>2014-03-02T11:39:40.000Z</time>
      </trkpt>
      <trkpt lat="45.34282" lon="6.20331">
        <ele>2150</ele>
        <time>2014-03-02T11:39:41.000Z</time>
      </trkpt>
      <trkpt lat="45.34282" lon="6.20331">
        <ele>2150</ele>
        <time>2014-03-02T11:39:42.000Z</time>
      </trkpt>
      <trkpt lat="45.34282" lon="6.20331">
        <ele>2150</ele>
        <time>2014-03-02T11:39:43.000Z</time>
      </trkpt>
      <trkpt lat="45.34282" lon="6.20331">
        <ele>2150</ele>
        <time>2014-03-02T11:39:49.000Z</time>
      </trkpt>
      <trkpt lat="45.34282" lon="6.20331">
        <ele>2150</ele>
        <time>2014-03-02T11:39:51.000Z</time>
      </trkpt>
      <trkpt lat="45.34282" lon="6.20331">
        <ele>2150</ele>
        <time>2014-03-02T11:39:56.000Z</time>
      </trkpt>
      <trkpt lat="45.34282" lon="6.20331">
        <ele>2150</ele>
        <time>2014-03-02T11:39:59.000Z</time>
      </trkpt>
      <trkpt lat="45.34282" lon="6.20331">
        <ele>2150</ele>
        <time>2014-03-02T11:40:03.000Z</time>
      </trkpt>
      <trkpt lat="45.34282" lon="6.20331">
        <ele>2150</ele>
        <time>2014-03-02T11:40:04.000Z</time>
      </trkpt>
      <trkpt lat="45.34282" lon="6.20331">
        <ele>2150</ele>
        <time>2014-03-02T11:40:05.000Z</time>
      </trkpt>
      <trkpt lat="45.34282" lon="6.20331">
        <ele>2150</ele>
        <time>2014-03-02T11:40:06.000Z</time>
      </trkpt>
      <trkpt lat="45.34282" lon="6.20331">
        <ele>2150</ele>
        <time>2014-03-02T11:40:07.000Z</time>
      </trkpt>
      <trkpt lat="45.34282" lon="6.20331">
        <ele>2150</ele>
        <time>2014-03-02T11:40:08.000Z</time>
      </trkpt>
      <trkpt lat="45.34282" lon="6.20331">
        <ele>2150</ele>
        <time>2014-03-02T11:40:09.000Z</time>
      </trkpt>
      <trkpt lat="45.34282" lon="6.20331">
        <ele>2150</ele>
        <time>2014-03-02T11:40:10.000Z</time>
      </trkpt>
      <trkpt lat="45.34282" lon="6.20329">
        <ele>2150.1999511719</ele>
        <time>2014-03-02T11:40:13.000Z</time>
      </trkpt>
      <trkpt lat="45.34282" lon="6.20329">
        <ele>2150.1999511719</ele>
        <time>2014-03-02T11:40:14.000Z</time>
      </trkpt>
      <trkpt lat="45.34282" lon="6.20329">
        <ele>2150.1999511719</ele>
        <time>2014-03-02T11:40:15.000Z</time>
      </trkpt>
      <trkpt lat="45.34282" lon="6.20329">
        <ele>2150.1999511719</ele>
        <time>2014-03-02T11:40:16.000Z</time>
      </trkpt>
      <trkpt lat="45.34282" lon="6.20329">
        <ele>2150.1999511719</ele>
        <time>2014-03-02T11:40:17.000Z</time>
      </trkpt>
      <trkpt lat="45.34282" lon="6.20329">
        <ele>2150.1999511719</ele>
        <time>2014-03-02T11:40:18.000Z</time>
      </trkpt>
      <trkpt lat="45.34282" lon="6.20329">
        <ele>2150.1999511719</ele>
        <time>2014-03-02T11:40:19.000Z</time>
      </trkpt>
      <trkpt lat="45.34282" lon="6.20329">
        <ele>2150.1999511719</ele>
        <time>2014-03-02T11:40:20.000Z</time>
      </trkpt>
      <trkpt lat="45.34282" lon="6.20329">
        <ele>2150.1999511719</ele>
        <time>2014-03-02T11:40:24.000Z</time>
      </trkpt>
      <trkpt lat="45.34282" lon="6.20329">
        <ele>2150.1999511719</ele>
        <time>2014-03-02T11:40:25.000Z</time>
      </trkpt>
      <trkpt lat="45.34282" lon="6.20329">
        <ele>2150.1999511719</ele>
        <time>2014-03-02T11:40:26.000Z</time>
      </trkpt>
      <trkpt lat="45.34282" lon="6.20329">
        <ele>2150.1999511719</ele>
        <time>2014-03-02T11:40:27.000Z</time>
      </trkpt>
      <trkpt lat="45.34282" lon="6.20329">
        <ele>2150.1999511719</ele>
        <time>2014-03-02T11:40:28.000Z</time>
      </trkpt>
      <trkpt lat="45.34282" lon="6.20329">
        <ele>2150.1999511719</ele>
        <time>2014-03-02T11:40:29.000Z</time>
      </trkpt>
      <trkpt lat="45.34282" lon="6.20329">
        <ele>2150.1999511719</ele>
        <time>2014-03-02T11:40:30.000Z</time>
      </trkpt>
      <trkpt lat="45.34282" lon="6.20329">
        <ele>2150.1999511719</ele>
        <time>2014-03-02T11:40:31.000Z</time>
      </trkpt>
      <trkpt lat="45.34282" lon="6.20329">
        <ele>2150.1999511719</ele>
        <time>2014-03-02T11:40:32.000Z</time>
      </trkpt>
      <trkpt lat="45.34282" lon="6.20329">
        <ele>2150.1999511719</ele>
        <time>2014-03-02T11:40:33.000Z</time>
      </trkpt>
      <trkpt lat="45.34282" lon="6.20329">
        <ele>2150.1999511719</ele>
        <time>2014-03-02T11:40:34.000Z</time>
      </trkpt>
      <trkpt lat="45.34282" lon="6.20329">
        <ele>2150.1999511719</ele>
        <time>2014-03-02T11:40:35.000Z</time>
      </trkpt>
      <trkpt lat="45.34282" lon="6.20329">
        <ele>2150.1999511719</ele>
        <time>2014-03-02T11:40:36.000Z</time>
      </trkpt>
      <trkpt lat="45.34282" lon="6.20329">
        <ele>2150.1999511719</ele>
        <time>2014-03-02T11:40:37.000Z</time>
      </trkpt>
      <trkpt lat="45.34282" lon="6.20329">
        <ele>2150.1999511719</ele>
        <time>2014-03-02T11:40:38.000Z</time>
      </trkpt>
      <trkpt lat="45.34282" lon="6.20329">
        <ele>2150.1999511719</ele>
        <time>2014-03-02T11:40:39.000Z</time>
      </trkpt>
      <trkpt lat="45.34282" lon="6.20329">
        <ele>2150.1999511719</ele>
        <time>2014-03-02T11:40:40.000Z</time>
      </trkpt>
      <trkpt lat="45.34282" lon="6.20329">
        <ele>2150.1999511719</ele>
        <time>2014-03-02T11:40:41.000Z</time>
      </trkpt>
      <trkpt lat="45.34282" lon="6.20329">
        <ele>2150.1999511719</ele>
        <time>2014-03-02T11:40:42.000Z</time>
      </trkpt>
      <trkpt lat="45.34282" lon="6.20329">
        <ele>2150.1999511719</ele>
        <time>2014-03-02T11:40:43.000Z</time>
      </trkpt>
      <trkpt lat="45.34282" lon="6.20329">
        <ele>2150.1999511719</ele>
        <time>2014-03-02T11:40:44.000Z</time>
      </trkpt>
      <trkpt lat="45.34282" lon="6.20329">
        <ele>2150.1999511719</ele>
        <time>2014-03-02T11:40:45.000Z</time>
      </trkpt>
      <trkpt lat="45.34282" lon="6.20329">
        <ele>2150.1999511719</ele>
        <time>2014-03-02T11:40:46.000Z</time>
      </trkpt>
      <trkpt lat="45.34282" lon="6.20329">
        <ele>2150.1999511719</ele>
        <time>2014-03-02T11:40:47.000Z</time>
      </trkpt>
      <trkpt lat="45.34282" lon="6.20329">
        <ele>2150.1999511719</ele>
        <time>2014-03-02T11:40:48.000Z</time>
      </trkpt>
      <trkpt lat="45.34282" lon="6.20329">
        <ele>2150.1999511719</ele>
        <time>2014-03-02T11:40:49.000Z</time>
      </trkpt>
      <trkpt lat="45.34282" lon="6.20329">
        <ele>2150.1999511719</ele>
        <time>2014-03-02T11:40:50.000Z</time>
      </trkpt>
      <trkpt lat="45.34282" lon="6.20329">
        <ele>2150.1999511719</ele>
        <time>2014-03-02T11:40:51.000Z</time>
      </trkpt>
      <trkpt lat="45.34282" lon="6.20329">
        <ele>2150.3999023438</ele>
        <time>2014-03-02T11:40:52.000Z</time>
      </trkpt>
      <trkpt lat="45.34282" lon="6.20327">
        <ele>2150.6000976562</ele>
        <time>2014-03-02T11:40:53.000Z</time>
      </trkpt>
      <trkpt lat="45.34283" lon="6.20326">
        <ele>2150.8000488281</ele>
        <time>2014-03-02T11:40:54.000Z</time>
      </trkpt>
      <trkpt lat="45.34283" lon="6.20326">
        <ele>2150.8000488281</ele>
        <time>2014-03-02T11:40:55.000Z</time>
      </trkpt>
      <trkpt lat="45.34283" lon="6.20325">
        <ele>2151</ele>
        <time>2014-03-02T11:40:56.000Z</time>
      </trkpt>
      <trkpt lat="45.34284" lon="6.20323">
        <ele>2151.1999511719</ele>
        <time>2014-03-02T11:40:57.000Z</time>
      </trkpt>
      <trkpt lat="45.34285" lon="6.2032">
        <ele>2151.8000488281</ele>
        <time>2014-03-02T11:40:58.000Z</time>
      </trkpt>
      <trkpt lat="45.34285" lon="6.20318">
        <ele>2152</ele>
        <time>2014-03-02T11:40:59.000Z</time>
      </trkpt>
      <trkpt lat="45.34286" lon="6.20316">
        <ele>2152.3999023438</ele>
        <time>2014-03-02T11:41:00.000Z</time>
      </trkpt>
      <trkpt lat="45.34287" lon="6.20315">
        <ele>2152.6000976562</ele>
        <time>2014-03-02T11:41:01.000Z</time>
      </trkpt>
      <trkpt lat="45.34288" lon="6.20313">
        <ele>2152.8000488281</ele>
        <time>2014-03-02T11:41:02.000Z</time>
      </trkpt>
      <trkpt lat="45.34289" lon="6.20311">
        <ele>2153</ele>
        <time>2014-03-02T11:41:03.000Z</time>
      </trkpt>
      <trkpt lat="45.34289" lon="6.2031">
        <ele>2153.3999023438</ele>
        <time>2014-03-02T11:41:04.000Z</time>
      </trkpt>
      <trkpt lat="45.34289" lon="6.20309">
        <ele>2153.6000976562</ele>
        <time>2014-03-02T11:41:05.000Z</time>
      </trkpt>
      <trkpt lat="45.3429" lon="6.20308">
        <ele>2154</ele>
        <time>2014-03-02T11:41:06.000Z</time>
      </trkpt>
      <trkpt lat="45.3429" lon="6.20306">
        <ele>2154.3999023438</ele>
        <time>2014-03-02T11:41:07.000Z</time>
      </trkpt>
      <trkpt lat="45.34291" lon="6.20304">
        <ele>2154.8000488281</ele>
        <time>2014-03-02T11:41:08.000Z</time>
      </trkpt>
      <trkpt lat="45.34291" lon="6.20303">
        <ele>2155</ele>
        <time>2014-03-02T11:41:09.000Z</time>
      </trkpt>
      <trkpt lat="45.34292" lon="6.20301">
        <ele>2155.3999023438</ele>
        <time>2014-03-02T11:41:10.000Z</time>
      </trkpt>
      <trkpt lat="45.34292" lon="6.203">
        <ele>2155.6000976562</ele>
        <time>2014-03-02T11:41:11.000Z</time>
      </trkpt>
      <trkpt lat="45.34292" lon="6.20299">
        <ele>2155.8000488281</ele>
        <time>2014-03-02T11:41:12.000Z</time>
      </trkpt>
      <trkpt lat="45.34293" lon="6.20298">
        <ele>2156</ele>
        <time>2014-03-02T11:41:13.000Z</time>
      </trkpt>
      <trkpt lat="45.34293" lon="6.20297">
        <ele>2156.1999511719</ele>
        <time>2014-03-02T11:41:14.000Z</time>
      </trkpt>
      <trkpt lat="45.34293" lon="6.20297">
        <ele>2156.1999511719</ele>
        <time>2014-03-02T11:41:15.000Z</time>
      </trkpt>
      <trkpt lat="45.34293" lon="6.20297">
        <ele>2156.3999023438</ele>
        <time>2014-03-02T11:41:16.000Z</time>
      </trkpt>
      <trkpt lat="45.34293" lon="6.20296">
        <ele>2156.6000976562</ele>
        <time>2014-03-02T11:41:17.000Z</time>
      </trkpt>
      <trkpt lat="45.34293" lon="6.20296">
        <ele>2156.6000976562</ele>
        <time>2014-03-02T11:41:18.000Z</time>
      </trkpt>
      <trkpt lat="45.34293" lon="6.20296">
        <ele>2156.6000976562</ele>
        <time>2014-03-02T11:41:19.000Z</time>
      </trkpt>
      <trkpt lat="45.34293" lon="6.20295">
        <ele>2157</ele>
        <time>2014-03-02T11:41:20.000Z</time>
      </trkpt>
      <trkpt lat="45.34293" lon="6.20294">
        <ele>2157.1999511719</ele>
        <time>2014-03-02T11:41:21.000Z</time>
      </trkpt>
      <trkpt lat="45.34293" lon="6.20293">
        <ele>2157.1999511719</ele>
        <time>2014-03-02T11:41:22.000Z</time>
      </trkpt>
      <trkpt lat="45.34294" lon="6.20292">
        <ele>2157.3999023438</ele>
        <time>2014-03-02T11:41:23.000Z</time>
      </trkpt>
      <trkpt lat="45.34294" lon="6.20292">
        <ele>2157.6000976562</ele>
        <time>2014-03-02T11:41:24.000Z</time>
      </trkpt>
      <trkpt lat="45.34294" lon="6.20291">
        <ele>2157.6000976562</ele>
        <time>2014-03-02T11:41:25.000Z</time>
      </trkpt>
      <trkpt lat="45.34294" lon="6.20291">
        <ele>2157.6000976562</ele>
        <time>2014-03-02T11:41:26.000Z</time>
      </trkpt>
      <trkpt lat="45.34294" lon="6.20291">
        <ele>2157.6000976562</ele>
        <time>2014-03-02T11:41:27.000Z</time>
      </trkpt>
      <trkpt lat="45.34294" lon="6.20291">
        <ele>2157.6000976562</ele>
        <time>2014-03-02T11:41:28.000Z</time>
      </trkpt>
      <trkpt lat="45.34294" lon="6.20291">
        <ele>2157.6000976562</ele>
        <time>2014-03-02T11:41:29.000Z</time>
      </trkpt>
      <trkpt lat="45.34294" lon="6.20291">
        <ele>2157.6000976562</ele>
        <time>2014-03-02T11:41:30.000Z</time>
      </trkpt>
      <trkpt lat="45.34295" lon="6.2029">
        <ele>2157.8000488281</ele>
        <time>2014-03-02T11:41:31.000Z</time>
      </trkpt>
      <trkpt lat="45.34295" lon="6.20289">
        <ele>2158</ele>
        <time>2014-03-02T11:41:32.000Z</time>
      </trkpt>
      <trkpt lat="45.34295" lon="6.20289">
        <ele>2158</ele>
        <time>2014-03-02T11:41:33.000Z</time>
      </trkpt>
      <trkpt lat="45.34295" lon="6.20289">
        <ele>2158</ele>
        <time>2014-03-02T11:41:34.000Z</time>
      </trkpt>
      <trkpt lat="45.34296" lon="6.20288">
        <ele>2158.1999511719</ele>
        <time>2014-03-02T11:41:35.000Z</time>
      </trkpt>
      <trkpt lat="45.34296" lon="6.20287">
        <ele>2158.3999023438</ele>
        <time>2014-03-02T11:41:37.000Z</time>
      </trkpt>
      <trkpt lat="45.34296" lon="6.20287">
        <ele>2158.3999023438</ele>
        <time>2014-03-02T11:41:38.000Z</time>
      </trkpt>
      <trkpt lat="45.34296" lon="6.20286">
        <ele>2158.8000488281</ele>
        <time>2014-03-02T11:41:39.000Z</time>
      </trkpt>
      <trkpt lat="45.34296" lon="6.20285">
        <ele>2159</ele>
        <time>2014-03-02T11:41:40.000Z</time>
      </trkpt>
      <trkpt lat="45.34296" lon="6.20285">
        <ele>2159</ele>
        <time>2014-03-02T11:41:41.000Z</time>
      </trkpt>
      <trkpt lat="45.34296" lon="6.20284">
        <ele>2159.1999511719</ele>
        <time>2014-03-02T11:41:42.000Z</time>
      </trkpt>
      <trkpt lat="45.34296" lon="6.20284">
        <ele>2159.1999511719</ele>
        <time>2014-03-02T11:41:43.000Z</time>
      </trkpt>
      <trkpt lat="45.34297" lon="6.20283">
        <ele>2159.3999023438</ele>
        <time>2014-03-02T11:41:44.000Z</time>
      </trkpt>
      <trkpt lat="45.34297" lon="6.20283">
        <ele>2159.3999023438</ele>
        <time>2014-03-02T11:41:45.000Z</time>
      </trkpt>
      <trkpt lat="45.34297" lon="6.20282">
        <ele>2159.6000976562</ele>
        <time>2014-03-02T11:41:46.000Z</time>
      </trkpt>
      <trkpt lat="45.34297" lon="6.20282">
        <ele>2159.6000976562</ele>
        <time>2014-03-02T11:41:47.000Z</time>
      </trkpt>
      <trkpt lat="45.34297" lon="6.20281">
        <ele>2159.8000488281</ele>
        <time>2014-03-02T11:41:48.000Z</time>
      </trkpt>
      <trkpt lat="45.34297" lon="6.20281">
        <ele>2159.8000488281</ele>
        <time>2014-03-02T11:41:49.000Z</time>
      </trkpt>
      <trkpt lat="45.34298" lon="6.2028">
        <ele>2160.1999511719</ele>
        <time>2014-03-02T11:41:50.000Z</time>
      </trkpt>
      <trkpt lat="45.34298" lon="6.20279">
        <ele>2160.3999023438</ele>
        <time>2014-03-02T11:41:51.000Z</time>
      </trkpt>
      <trkpt lat="45.34298" lon="6.20278">
        <ele>2160.3999023438</ele>
        <time>2014-03-02T11:41:52.000Z</time>
      </trkpt>
      <trkpt lat="45.34299" lon="6.20278">
        <ele>2160.6000976562</ele>
        <time>2014-03-02T11:41:53.000Z</time>
      </trkpt>
      <trkpt lat="45.34299" lon="6.20277">
        <ele>2160.8000488281</ele>
        <time>2014-03-02T11:41:54.000Z</time>
      </trkpt>
      <trkpt lat="45.34299" lon="6.20277">
        <ele>2161</ele>
        <time>2014-03-02T11:41:55.000Z</time>
      </trkpt>
      <trkpt lat="45.343" lon="6.20276">
        <ele>2161.1999511719</ele>
        <time>2014-03-02T11:41:56.000Z</time>
      </trkpt>
      <trkpt lat="45.343" lon="6.20275">
        <ele>2161.3999023438</ele>
        <time>2014-03-02T11:41:57.000Z</time>
      </trkpt>
      <trkpt lat="45.34301" lon="6.20274">
        <ele>2161.8000488281</ele>
        <time>2014-03-02T11:41:58.000Z</time>
      </trkpt>
      <trkpt lat="45.34302" lon="6.20273">
        <ele>2162</ele>
        <time>2014-03-02T11:41:59.000Z</time>
      </trkpt>
      <trkpt lat="45.34302" lon="6.20273">
        <ele>2162.1999511719</ele>
        <time>2014-03-02T11:42:00.000Z</time>
      </trkpt>
      <trkpt lat="45.34303" lon="6.20272">
        <ele>2162.3999023438</ele>
        <time>2014-03-02T11:42:01.000Z</time>
      </trkpt>
      <trkpt lat="45.34303" lon="6.20271">
        <ele>2162.6000976562</ele>
        <time>2014-03-02T11:42:02.000Z</time>
      </trkpt>
      <trkpt lat="45.34304" lon="6.20271">
        <ele>2162.8000488281</ele>
        <time>2014-03-02T11:42:03.000Z</time>
      </trkpt>
      <trkpt lat="45.34304" lon="6.20271">
        <ele>2162.8000488281</ele>
        <time>2014-03-02T11:42:04.000Z</time>
      </trkpt>
      <trkpt lat="45.34304" lon="6.2027">
        <ele>2163.1999511719</ele>
        <time>2014-03-02T11:42:05.000Z</time>
      </trkpt>
      <trkpt lat="45.34304" lon="6.2027">
        <ele>2163.1999511719</ele>
        <time>2014-03-02T11:42:06.000Z</time>
      </trkpt>
      <trkpt lat="45.34305" lon="6.20268">
        <ele>2163.6000976562</ele>
        <time>2014-03-02T11:42:07.000Z</time>
      </trkpt>
      <trkpt lat="45.34306" lon="6.20266">
        <ele>2164.1999511719</ele>
        <time>2014-03-02T11:42:08.000Z</time>
      </trkpt>
      <trkpt lat="45.34307" lon="6.20264">
        <ele>2164.6000976562</ele>
        <time>2014-03-02T11:42:09.000Z</time>
      </trkpt>
      <trkpt lat="45.34307" lon="6.20263">
        <ele>2165</ele>
        <time>2014-03-02T11:42:10.000Z</time>
      </trkpt>
      <trkpt lat="45.34308" lon="6.20262">
        <ele>2165.3999023438</ele>
        <time>2014-03-02T11:42:11.000Z</time>
      </trkpt>
      <trkpt lat="45.34308" lon="6.20261">
        <ele>2165.6000976562</ele>
        <time>2014-03-02T11:42:12.000Z</time>
      </trkpt>
      <trkpt lat="45.34309" lon="6.20259">
        <ele>2166</ele>
        <time>2014-03-02T11:42:13.000Z</time>
      </trkpt>
      <trkpt lat="45.3431" lon="6.20258">
        <ele>2166.3999023438</ele>
        <time>2014-03-02T11:42:14.000Z</time>
      </trkpt>
      <trkpt lat="45.3431" lon="6.20257">
        <ele>2166.8000488281</ele>
        <time>2014-03-02T11:42:15.000Z</time>
      </trkpt>
      <trkpt lat="45.34311" lon="6.20256">
        <ele>2167</ele>
        <time>2014-03-02T11:42:16.000Z</time>
      </trkpt>
      <trkpt lat="45.34311" lon="6.20256">
        <ele>2167</ele>
        <time>2014-03-02T11:42:17.000Z</time>
      </trkpt>
      <trkpt lat="45.34311" lon="6.20256">
        <ele>2167</ele>
        <time>2014-03-02T11:42:18.000Z</time>
      </trkpt>
      <trkpt lat="45.34311" lon="6.20256">
        <ele>2167</ele>
        <time>2014-03-02T11:42:19.000Z</time>
      </trkpt>
      <trkpt lat="45.34311" lon="6.20256">
        <ele>2167</ele>
        <time>2014-03-02T11:42:20.000Z</time>
      </trkpt>
      <trkpt lat="45.34311" lon="6.20256">
        <ele>2167</ele>
        <time>2014-03-02T11:42:21.000Z</time>
      </trkpt>
      <trkpt lat="45.34311" lon="6.20256">
        <ele>2167</ele>
        <time>2014-03-02T11:42:22.000Z</time>
      </trkpt>
      <trkpt lat="45.34311" lon="6.20256">
        <ele>2167</ele>
        <time>2014-03-02T11:42:23.000Z</time>
      </trkpt>
      <trkpt lat="45.34311" lon="6.20256">
        <ele>2167</ele>
        <time>2014-03-02T11:42:24.000Z</time>
      </trkpt>
      <trkpt lat="45.34311" lon="6.20256">
        <ele>2167</ele>
        <time>2014-03-02T11:42:25.000Z</time>
      </trkpt>
      <trkpt lat="45.34311" lon="6.20256">
        <ele>2167</ele>
        <time>2014-03-02T11:42:26.000Z</time>
      </trkpt>
      <trkpt lat="45.34311" lon="6.20254">
        <ele>2167.6000976562</ele>
        <time>2014-03-02T11:42:27.000Z</time>
      </trkpt>
      <trkpt lat="45.34311" lon="6.20252">
        <ele>2168</ele>
        <time>2014-03-02T11:42:28.000Z</time>
      </trkpt>
      <trkpt lat="45.34312" lon="6.20251">
        <ele>2168.3999023438</ele>
        <time>2014-03-02T11:42:29.000Z</time>
      </trkpt>
      <trkpt lat="45.34312" lon="6.2025">
        <ele>2168.6000976562</ele>
        <time>2014-03-02T11:42:30.000Z</time>
      </trkpt>
      <trkpt lat="45.34312" lon="6.20248">
        <ele>2169.1999511719</ele>
        <time>2014-03-02T11:42:31.000Z</time>
      </trkpt>
      <trkpt lat="45.34312" lon="6.20246">
        <ele>2169.6000976562</ele>
        <time>2014-03-02T11:42:32.000Z</time>
      </trkpt>
      <trkpt lat="45.34313" lon="6.20246">
        <ele>2169.8000488281</ele>
        <time>2014-03-02T11:42:33.000Z</time>
      </trkpt>
      <trkpt lat="45.34313" lon="6.20245">
        <ele>2170</ele>
        <time>2014-03-02T11:42:34.000Z</time>
      </trkpt>
      <trkpt lat="45.34314" lon="6.20244">
        <ele>2170.3999023438</ele>
        <time>2014-03-02T11:42:35.000Z</time>
      </trkpt>
      <trkpt lat="45.34314" lon="6.20243">
        <ele>2170.8000488281</ele>
        <time>2014-03-02T11:42:36.000Z</time>
      </trkpt>
      <trkpt lat="45.34314" lon="6.20242">
        <ele>2171.1999511719</ele>
        <time>2014-03-02T11:42:37.000Z</time>
      </trkpt>
      <trkpt lat="45.34314" lon="6.20242">
        <ele>2171.1999511719</ele>
        <time>2014-03-02T11:42:38.000Z</time>
      </trkpt>
      <trkpt lat="45.34315" lon="6.20241">
        <ele>2171.6000976562</ele>
        <time>2014-03-02T11:42:39.000Z</time>
      </trkpt>
      <trkpt lat="45.34315" lon="6.20241">
        <ele>2171.6000976562</ele>
        <time>2014-03-02T11:42:40.000Z</time>
      </trkpt>
      <trkpt lat="45.34315" lon="6.2024">
        <ele>2172</ele>
        <time>2014-03-02T11:42:41.000Z</time>
      </trkpt>
      <trkpt lat="45.34315" lon="6.2024">
        <ele>2172</ele>
        <time>2014-03-02T11:42:42.000Z</time>
      </trkpt>
      <trkpt lat="45.34315" lon="6.20238">
        <ele>2172.6000976562</ele>
        <time>2014-03-02T11:42:43.000Z</time>
      </trkpt>
      <trkpt lat="45.34315" lon="6.20238">
        <ele>2172.6000976562</ele>
        <time>2014-03-02T11:42:44.000Z</time>
      </trkpt>
      <trkpt lat="45.34315" lon="6.20237">
        <ele>2172.8000488281</ele>
        <time>2014-03-02T11:42:45.000Z</time>
      </trkpt>
      <trkpt lat="45.34315" lon="6.20237">
        <ele>2172.8000488281</ele>
        <time>2014-03-02T11:42:46.000Z</time>
      </trkpt>
      <trkpt lat="45.34315" lon="6.20236">
        <ele>2173.1999511719</ele>
        <time>2014-03-02T11:42:47.000Z</time>
      </trkpt>
      <trkpt lat="45.34315" lon="6.20236">
        <ele>2173.1999511719</ele>
        <time>2014-03-02T11:42:48.000Z</time>
      </trkpt>
      <trkpt lat="45.34315" lon="6.20235">
        <ele>2173.8000488281</ele>
        <time>2014-03-02T11:42:49.000Z</time>
      </trkpt>
      <trkpt lat="45.34315" lon="6.20235">
        <ele>2173.8000488281</ele>
        <time>2014-03-02T11:42:50.000Z</time>
      </trkpt>
      <trkpt lat="45.34315" lon="6.20234">
        <ele>2174.1999511719</ele>
        <time>2014-03-02T11:42:51.000Z</time>
      </trkpt>
      <trkpt lat="45.34315" lon="6.20234">
        <ele>2174.1999511719</ele>
        <time>2014-03-02T11:42:52.000Z</time>
      </trkpt>
      <trkpt lat="45.34314" lon="6.20232">
        <ele>2174.6000976562</ele>
        <time>2014-03-02T11:42:53.000Z</time>
      </trkpt>
      <trkpt lat="45.34314" lon="6.20232">
        <ele>2174.6000976562</ele>
        <time>2014-03-02T11:42:54.000Z</time>
      </trkpt>
      <trkpt lat="45.34314" lon="6.20231">
        <ele>2175</ele>
        <time>2014-03-02T11:42:55.000Z</time>
      </trkpt>
      <trkpt lat="45.34314" lon="6.20231">
        <ele>2175</ele>
        <time>2014-03-02T11:42:56.000Z</time>
      </trkpt>
      <trkpt lat="45.34313" lon="6.2023">
        <ele>2175.3999023438</ele>
        <time>2014-03-02T11:42:57.000Z</time>
      </trkpt>
      <trkpt lat="45.34313" lon="6.2023">
        <ele>2175.3999023438</ele>
        <time>2014-03-02T11:42:58.000Z</time>
      </trkpt>
      <trkpt lat="45.34313" lon="6.20228">
        <ele>2175.8000488281</ele>
        <time>2014-03-02T11:42:59.000Z</time>
      </trkpt>
      <trkpt lat="45.34313" lon="6.20228">
        <ele>2175.8000488281</ele>
        <time>2014-03-02T11:43:00.000Z</time>
      </trkpt>
      <trkpt lat="45.34313" lon="6.20227">
        <ele>2176.1999511719</ele>
        <time>2014-03-02T11:43:01.000Z</time>
      </trkpt>
      <trkpt lat="45.34313" lon="6.20227">
        <ele>2176.1999511719</ele>
        <time>2014-03-02T11:43:02.000Z</time>
      </trkpt>
      <trkpt lat="45.34312" lon="6.20225">
        <ele>2176.6000976562</ele>
        <time>2014-03-02T11:43:03.000Z</time>
      </trkpt>
      <trkpt lat="45.34312" lon="6.20225">
        <ele>2176.6000976562</ele>
        <time>2014-03-02T11:43:04.000Z</time>
      </trkpt>
      <trkpt lat="45.34312" lon="6.20224">
        <ele>2177</ele>
        <time>2014-03-02T11:43:05.000Z</time>
      </trkpt>
      <trkpt lat="45.34312" lon="6.20224">
        <ele>2177</ele>
        <time>2014-03-02T11:43:06.000Z</time>
      </trkpt>
      <trkpt lat="45.34313" lon="6.20223">
        <ele>2177.1999511719</ele>
        <time>2014-03-02T11:43:07.000Z</time>
      </trkpt>
      <trkpt lat="45.34313" lon="6.20223">
        <ele>2177.1999511719</ele>
        <time>2014-03-02T11:43:08.000Z</time>
      </trkpt>
      <trkpt lat="45.34313" lon="6.20222">
        <ele>2177.6000976562</ele>
        <time>2014-03-02T11:43:09.000Z</time>
      </trkpt>
      <trkpt lat="45.34313" lon="6.20222">
        <ele>2177.6000976562</ele>
        <time>2014-03-02T11:43:10.000Z</time>
      </trkpt>
      <trkpt lat="45.34314" lon="6.20221">
        <ele>2177.8000488281</ele>
        <time>2014-03-02T11:43:11.000Z</time>
      </trkpt>
      <trkpt lat="45.34314" lon="6.20221">
        <ele>2177.8000488281</ele>
        <time>2014-03-02T11:43:12.000Z</time>
      </trkpt>
      <trkpt lat="45.34314" lon="6.20221">
        <ele>2178.1999511719</ele>
        <time>2014-03-02T11:43:13.000Z</time>
      </trkpt>
      <trkpt lat="45.34314" lon="6.20221">
        <ele>2178.1999511719</ele>
        <time>2014-03-02T11:43:14.000Z</time>
      </trkpt>
      <trkpt lat="45.34315" lon="6.2022">
        <ele>2178.3999023438</ele>
        <time>2014-03-02T11:43:15.000Z</time>
      </trkpt>
      <trkpt lat="45.34315" lon="6.20219">
        <ele>2178.6000976562</ele>
        <time>2014-03-02T11:43:16.000Z</time>
      </trkpt>
      <trkpt lat="45.34316" lon="6.20218">
        <ele>2179</ele>
        <time>2014-03-02T11:43:17.000Z</time>
      </trkpt>
      <trkpt lat="45.34316" lon="6.20218">
        <ele>2179</ele>
        <time>2014-03-02T11:43:18.000Z</time>
      </trkpt>
      <trkpt lat="45.34316" lon="6.20217">
        <ele>2179.3999023438</ele>
        <time>2014-03-02T11:43:19.000Z</time>
      </trkpt>
      <trkpt lat="45.34316" lon="6.20217">
        <ele>2179.3999023438</ele>
        <time>2014-03-02T11:43:20.000Z</time>
      </trkpt>
      <trkpt lat="45.34316" lon="6.20216">
        <ele>2179.8000488281</ele>
        <time>2014-03-02T11:43:21.000Z</time>
      </trkpt>
      <trkpt lat="45.34316" lon="6.20216">
        <ele>2179.8000488281</ele>
        <time>2014-03-02T11:43:22.000Z</time>
      </trkpt>
      <trkpt lat="45.34317" lon="6.20215">
        <ele>2180.1999511719</ele>
        <time>2014-03-02T11:43:23.000Z</time>
      </trkpt>
      <trkpt lat="45.34317" lon="6.20214">
        <ele>2180.1999511719</ele>
        <time>2014-03-02T11:43:24.000Z</time>
      </trkpt>
      <trkpt lat="45.34317" lon="6.20213">
        <ele>2180.6000976562</ele>
        <time>2014-03-02T11:43:25.000Z</time>
      </trkpt>
      <trkpt lat="45.34317" lon="6.20213">
        <ele>2180.6000976562</ele>
        <time>2014-03-02T11:43:26.000Z</time>
      </trkpt>
      <trkpt lat="45.34317" lon="6.20211">
        <ele>2181</ele>
        <time>2014-03-02T11:43:27.000Z</time>
      </trkpt>
      <trkpt lat="45.34317" lon="6.20211">
        <ele>2181.1999511719</ele>
        <time>2014-03-02T11:43:28.000Z</time>
      </trkpt>
      <trkpt lat="45.34317" lon="6.20209">
        <ele>2181.6000976562</ele>
        <time>2014-03-02T11:43:29.000Z</time>
      </trkpt>
      <trkpt lat="45.34317" lon="6.20209">
        <ele>2181.6000976562</ele>
        <time>2014-03-02T11:43:30.000Z</time>
      </trkpt>
      <trkpt lat="45.34317" lon="6.20208">
        <ele>2181.8000488281</ele>
        <time>2014-03-02T11:43:31.000Z</time>
      </trkpt>
      <trkpt lat="45.34317" lon="6.20208">
        <ele>2181.8000488281</ele>
        <time>2014-03-02T11:43:32.000Z</time>
      </trkpt>
      <trkpt lat="45.34317" lon="6.20207">
        <ele>2182.1999511719</ele>
        <time>2014-03-02T11:43:33.000Z</time>
      </trkpt>
      <trkpt lat="45.34317" lon="6.20206">
        <ele>2182.1999511719</ele>
        <time>2014-03-02T11:43:34.000Z</time>
      </trkpt>
      <trkpt lat="45.34316" lon="6.20205">
        <ele>2182.6000976562</ele>
        <time>2014-03-02T11:43:35.000Z</time>
      </trkpt>
      <trkpt lat="45.34316" lon="6.20205">
        <ele>2182.6000976562</ele>
        <time>2014-03-02T11:43:36.000Z</time>
      </trkpt>
      <trkpt lat="45.34316" lon="6.20203">
        <ele>2183</ele>
        <time>2014-03-02T11:43:37.000Z</time>
      </trkpt>
      <trkpt lat="45.34316" lon="6.20203">
        <ele>2183</ele>
        <time>2014-03-02T11:43:38.000Z</time>
      </trkpt>
      <trkpt lat="45.34316" lon="6.20202">
        <ele>2183.3999023438</ele>
        <time>2014-03-02T11:43:39.000Z</time>
      </trkpt>
      <trkpt lat="45.34316" lon="6.20201">
        <ele>2183.6000976562</ele>
        <time>2014-03-02T11:43:40.000Z</time>
      </trkpt>
      <trkpt lat="45.34316" lon="6.202">
        <ele>2184</ele>
        <time>2014-03-02T11:43:41.000Z</time>
      </trkpt>
      <trkpt lat="45.34316" lon="6.20199">
        <ele>2184</ele>
        <time>2014-03-02T11:43:42.000Z</time>
      </trkpt>
      <trkpt lat="45.34316" lon="6.20198">
        <ele>2184.3999023438</ele>
        <time>2014-03-02T11:43:43.000Z</time>
      </trkpt>
      <trkpt lat="45.34316" lon="6.20198">
        <ele>2184.3999023438</ele>
        <time>2014-03-02T11:43:44.000Z</time>
      </trkpt>
      <trkpt lat="45.34315" lon="6.20196">
        <ele>2184.8000488281</ele>
        <time>2014-03-02T11:43:45.000Z</time>
      </trkpt>
      <trkpt lat="45.34315" lon="6.20196">
        <ele>2184.8000488281</ele>
        <time>2014-03-02T11:43:46.000Z</time>
      </trkpt>
      <trkpt lat="45.34315" lon="6.20195">
        <ele>2185</ele>
        <time>2014-03-02T11:43:47.000Z</time>
      </trkpt>
      <trkpt lat="45.34315" lon="6.20195">
        <ele>2185</ele>
        <time>2014-03-02T11:43:48.000Z</time>
      </trkpt>
      <trkpt lat="45.34315" lon="6.20194">
        <ele>2185.3999023438</ele>
        <time>2014-03-02T11:43:49.000Z</time>
      </trkpt>
      <trkpt lat="45.34315" lon="6.20194">
        <ele>2185.3999023438</ele>
        <time>2014-03-02T11:43:50.000Z</time>
      </trkpt>
      <trkpt lat="45.34315" lon="6.20192">
        <ele>2185.6000976562</ele>
        <time>2014-03-02T11:43:51.000Z</time>
      </trkpt>
      <trkpt lat="45.34315" lon="6.20191">
        <ele>2186</ele>
        <time>2014-03-02T11:43:52.000Z</time>
      </trkpt>
      <trkpt lat="45.34314" lon="6.2019">
        <ele>2186.1999511719</ele>
        <time>2014-03-02T11:43:53.000Z</time>
      </trkpt>
      <trkpt lat="45.34314" lon="6.2019">
        <ele>2186.1999511719</ele>
        <time>2014-03-02T11:43:54.000Z</time>
      </trkpt>
      <trkpt lat="45.34314" lon="6.20189">
        <ele>2186.3999023438</ele>
        <time>2014-03-02T11:43:55.000Z</time>
      </trkpt>
      <trkpt lat="45.34313" lon="6.20188">
        <ele>2186.6000976562</ele>
        <time>2014-03-02T11:43:56.000Z</time>
      </trkpt>
      <trkpt lat="45.34313" lon="6.20188">
        <ele>2186.6000976562</ele>
        <time>2014-03-02T11:43:57.000Z</time>
      </trkpt>
      <trkpt lat="45.34313" lon="6.20188">
        <ele>2186.6000976562</ele>
        <time>2014-03-02T11:43:58.000Z</time>
      </trkpt>
      <trkpt lat="45.34313" lon="6.20186">
        <ele>2187</ele>
        <time>2014-03-02T11:43:59.000Z</time>
      </trkpt>
      <trkpt lat="45.34313" lon="6.20186">
        <ele>2187</ele>
        <time>2014-03-02T11:44:00.000Z</time>
      </trkpt>
      <trkpt lat="45.34313" lon="6.20185">
        <ele>2187.3999023438</ele>
        <time>2014-03-02T11:44:01.000Z</time>
      </trkpt>
      <trkpt lat="45.34313" lon="6.20183">
        <ele>2187.8000488281</ele>
        <time>2014-03-02T11:44:02.000Z</time>
      </trkpt>
      <trkpt lat="45.34313" lon="6.20183">
        <ele>2187.8000488281</ele>
        <time>2014-03-02T11:44:03.000Z</time>
      </trkpt>
      <trkpt lat="45.34313" lon="6.20181">
        <ele>2188.1999511719</ele>
        <time>2014-03-02T11:44:04.000Z</time>
      </trkpt>
      <trkpt lat="45.34312" lon="6.2018">
        <ele>2188.3999023438</ele>
        <time>2014-03-02T11:44:05.000Z</time>
      </trkpt>
      <trkpt lat="45.34312" lon="6.20179">
        <ele>2188.8000488281</ele>
        <time>2014-03-02T11:44:06.000Z</time>
      </trkpt>
      <trkpt lat="45.34312" lon="6.20179">
        <ele>2188.8000488281</ele>
        <time>2014-03-02T11:44:07.000Z</time>
      </trkpt>
      <trkpt lat="45.34313" lon="6.20178">
        <ele>2189</ele>
        <time>2014-03-02T11:44:08.000Z</time>
      </trkpt>
      <trkpt lat="45.34313" lon="6.20178">
        <ele>2189.1999511719</ele>
        <time>2014-03-02T11:44:09.000Z</time>
      </trkpt>
      <trkpt lat="45.34314" lon="6.20177">
        <ele>2189.3999023438</ele>
        <time>2014-03-02T11:44:10.000Z</time>
      </trkpt>
      <trkpt lat="45.34314" lon="6.20177">
        <ele>2189.3999023438</ele>
        <time>2014-03-02T11:44:11.000Z</time>
      </trkpt>
      <trkpt lat="45.34314" lon="6.20176">
        <ele>2189.8000488281</ele>
        <time>2014-03-02T11:44:12.000Z</time>
      </trkpt>
      <trkpt lat="45.34314" lon="6.20176">
        <ele>2189.8000488281</ele>
        <time>2014-03-02T11:44:13.000Z</time>
      </trkpt>
      <trkpt lat="45.34314" lon="6.20176">
        <ele>2189.8000488281</ele>
        <time>2014-03-02T11:44:14.000Z</time>
      </trkpt>
      <trkpt lat="45.34315" lon="6.20176">
        <ele>2190</ele>
        <time>2014-03-02T11:44:15.000Z</time>
      </trkpt>
      <trkpt lat="45.34315" lon="6.20176">
        <ele>2190</ele>
        <time>2014-03-02T11:44:16.000Z</time>
      </trkpt>
      <trkpt lat="45.34315" lon="6.20176">
        <ele>2190</ele>
        <time>2014-03-02T11:44:17.000Z</time>
      </trkpt>
      <trkpt lat="45.34315" lon="6.20176">
        <ele>2190</ele>
        <time>2014-03-02T11:44:18.000Z</time>
      </trkpt>
      <trkpt lat="45.34317" lon="6.20175">
        <ele>2190.3999023438</ele>
        <time>2014-03-02T11:44:20.000Z</time>
      </trkpt>
      <trkpt lat="45.34317" lon="6.20175">
        <ele>2190.6000976562</ele>
        <time>2014-03-02T11:44:21.000Z</time>
      </trkpt>
      <trkpt lat="45.34317" lon="6.20175">
        <ele>2190.6000976562</ele>
        <time>2014-03-02T11:44:22.000Z</time>
      </trkpt>
      <trkpt lat="45.34318" lon="6.20175">
        <ele>2190.8000488281</ele>
        <time>2014-03-02T11:44:23.000Z</time>
      </trkpt>
      <trkpt lat="45.34318" lon="6.20175">
        <ele>2190.8000488281</ele>
        <time>2014-03-02T11:44:24.000Z</time>
      </trkpt>
      <trkpt lat="45.34319" lon="6.20174">
        <ele>2191</ele>
        <time>2014-03-02T11:44:25.000Z</time>
      </trkpt>
      <trkpt lat="45.34319" lon="6.20174">
        <ele>2191</ele>
        <time>2014-03-02T11:44:26.000Z</time>
      </trkpt>
      <trkpt lat="45.34319" lon="6.20174">
        <ele>2191</ele>
        <time>2014-03-02T11:44:27.000Z</time>
      </trkpt>
      <trkpt lat="45.34319" lon="6.20174">
        <ele>2191</ele>
        <time>2014-03-02T11:44:28.000Z</time>
      </trkpt>
      <trkpt lat="45.34319" lon="6.20174">
        <ele>2191</ele>
        <time>2014-03-02T11:44:29.000Z</time>
      </trkpt>
      <trkpt lat="45.34319" lon="6.20174">
        <ele>2191</ele>
        <time>2014-03-02T11:44:30.000Z</time>
      </trkpt>
      <trkpt lat="45.34319" lon="6.20174">
        <ele>2191</ele>
        <time>2014-03-02T11:44:31.000Z</time>
      </trkpt>
      <trkpt lat="45.34319" lon="6.20174">
        <ele>2191.3999023438</ele>
        <time>2014-03-02T11:44:32.000Z</time>
      </trkpt>
      <trkpt lat="45.34319" lon="6.20174">
        <ele>2191.3999023438</ele>
        <time>2014-03-02T11:44:33.000Z</time>
      </trkpt>
      <trkpt lat="45.3432" lon="6.20173">
        <ele>2191.8000488281</ele>
        <time>2014-03-02T11:44:34.000Z</time>
      </trkpt>
      <trkpt lat="45.3432" lon="6.20173">
        <ele>2191.8000488281</ele>
        <time>2014-03-02T11:44:35.000Z</time>
      </trkpt>
      <trkpt lat="45.34321" lon="6.20172">
        <ele>2192.1999511719</ele>
        <time>2014-03-02T11:44:36.000Z</time>
      </trkpt>
      <trkpt lat="45.34321" lon="6.20172">
        <ele>2192.1999511719</ele>
        <time>2014-03-02T11:44:37.000Z</time>
      </trkpt>
      <trkpt lat="45.34323" lon="6.20171">
        <ele>2192.6000976562</ele>
        <time>2014-03-02T11:44:38.000Z</time>
      </trkpt>
      <trkpt lat="45.34323" lon="6.20171">
        <ele>2192.6000976562</ele>
        <time>2014-03-02T11:44:39.000Z</time>
      </trkpt>
      <trkpt lat="45.34324" lon="6.20171">
        <ele>2193</ele>
        <time>2014-03-02T11:44:40.000Z</time>
      </trkpt>
      <trkpt lat="45.34324" lon="6.20171">
        <ele>2193</ele>
        <time>2014-03-02T11:44:41.000Z</time>
      </trkpt>
      <trkpt lat="45.34326" lon="6.20169">
        <ele>2194</ele>
        <time>2014-03-02T11:44:42.000Z</time>
      </trkpt>
      <trkpt lat="45.34326" lon="6.20169">
        <ele>2194</ele>
        <time>2014-03-02T11:44:43.000Z</time>
      </trkpt>
      <trkpt lat="45.34326" lon="6.20169">
        <ele>2194</ele>
        <time>2014-03-02T11:44:44.000Z</time>
      </trkpt>
      <trkpt lat="45.34326" lon="6.20167">
        <ele>2194.6000976562</ele>
        <time>2014-03-02T11:44:45.000Z</time>
      </trkpt>
      <trkpt lat="45.34326" lon="6.20167">
        <ele>2194.6000976562</ele>
        <time>2014-03-02T11:44:46.000Z</time>
      </trkpt>
      <trkpt lat="45.34326" lon="6.20166">
        <ele>2195.1999511719</ele>
        <time>2014-03-02T11:44:47.000Z</time>
      </trkpt>
      <trkpt lat="45.34326" lon="6.20166">
        <ele>2195.1999511719</ele>
        <time>2014-03-02T11:44:48.000Z</time>
      </trkpt>
      <trkpt lat="45.34326" lon="6.20164">
        <ele>2195.3999023438</ele>
        <time>2014-03-02T11:44:49.000Z</time>
      </trkpt>
      <trkpt lat="45.34326" lon="6.20164">
        <ele>2195.6000976562</ele>
        <time>2014-03-02T11:44:50.000Z</time>
      </trkpt>
      <trkpt lat="45.34326" lon="6.20163">
        <ele>2196</ele>
        <time>2014-03-02T11:44:51.000Z</time>
      </trkpt>
      <trkpt lat="45.34326" lon="6.20163">
        <ele>2196</ele>
        <time>2014-03-02T11:44:52.000Z</time>
      </trkpt>
      <trkpt lat="45.34326" lon="6.20162">
        <ele>2196.1999511719</ele>
        <time>2014-03-02T11:44:53.000Z</time>
      </trkpt>
      <trkpt lat="45.34326" lon="6.20162">
        <ele>2196.1999511719</ele>
        <time>2014-03-02T11:44:54.000Z</time>
      </trkpt>
      <trkpt lat="45.34326" lon="6.20161">
        <ele>2196.6000976562</ele>
        <time>2014-03-02T11:44:55.000Z</time>
      </trkpt>
      <trkpt lat="45.34326" lon="6.20161">
        <ele>2196.6000976562</ele>
        <time>2014-03-02T11:44:56.000Z</time>
      </trkpt>
      <trkpt lat="45.34325" lon="6.20159">
        <ele>2196.8000488281</ele>
        <time>2014-03-02T11:44:57.000Z</time>
      </trkpt>
      <trkpt lat="45.34325" lon="6.20159">
        <ele>2196.8000488281</ele>
        <time>2014-03-02T11:44:58.000Z</time>
      </trkpt>
      <trkpt lat="45.34325" lon="6.20159">
        <ele>2196.8000488281</ele>
        <time>2014-03-02T11:44:59.000Z</time>
      </trkpt>
      <trkpt lat="45.34325" lon="6.20158">
        <ele>2197.1999511719</ele>
        <time>2014-03-02T11:45:00.000Z</time>
      </trkpt>
      <trkpt lat="45.34325" lon="6.20158">
        <ele>2197.1999511719</ele>
        <time>2014-03-02T11:45:01.000Z</time>
      </trkpt>
      <trkpt lat="45.34325" lon="6.20156">
        <ele>2197.6000976562</ele>
        <time>2014-03-02T11:45:02.000Z</time>
      </trkpt>
      <trkpt lat="45.34325" lon="6.20156">
        <ele>2197.6000976562</ele>
        <time>2014-03-02T11:45:03.000Z</time>
      </trkpt>
      <trkpt lat="45.34324" lon="6.20155">
        <ele>2198</ele>
        <time>2014-03-02T11:45:04.000Z</time>
      </trkpt>
      <trkpt lat="45.34324" lon="6.20155">
        <ele>2198</ele>
        <time>2014-03-02T11:45:05.000Z</time>
      </trkpt>
      <trkpt lat="45.34324" lon="6.20154">
        <ele>2198.3999023438</ele>
        <time>2014-03-02T11:45:06.000Z</time>
      </trkpt>
      <trkpt lat="45.34324" lon="6.20154">
        <ele>2198.3999023438</ele>
        <time>2014-03-02T11:45:07.000Z</time>
      </trkpt>
      <trkpt lat="45.34324" lon="6.20154">
        <ele>2198.3999023438</ele>
        <time>2014-03-02T11:45:08.000Z</time>
      </trkpt>
      <trkpt lat="45.34324" lon="6.20154">
        <ele>2198.3999023438</ele>
        <time>2014-03-02T11:45:09.000Z</time>
      </trkpt>
      <trkpt lat="45.34323" lon="6.20152">
        <ele>2198.6000976562</ele>
        <time>2014-03-02T11:45:10.000Z</time>
      </trkpt>
      <trkpt lat="45.34323" lon="6.20152">
        <ele>2198.6000976562</ele>
        <time>2014-03-02T11:45:11.000Z</time>
      </trkpt>
      <trkpt lat="45.34323" lon="6.2015">
        <ele>2199</ele>
        <time>2014-03-02T11:45:12.000Z</time>
      </trkpt>
      <trkpt lat="45.34323" lon="6.2015">
        <ele>2199</ele>
        <time>2014-03-02T11:45:13.000Z</time>
      </trkpt>
      <trkpt lat="45.34323" lon="6.2015">
        <ele>2199</ele>
        <time>2014-03-02T11:45:14.000Z</time>
      </trkpt>
      <trkpt lat="45.34322" lon="6.20149">
        <ele>2199.1999511719</ele>
        <time>2014-03-02T11:45:15.000Z</time>
      </trkpt>
      <trkpt lat="45.34322" lon="6.20149">
        <ele>2199.1999511719</ele>
        <time>2014-03-02T11:45:16.000Z</time>
      </trkpt>
      <trkpt lat="45.34321" lon="6.20148">
        <ele>2199.6000976562</ele>
        <time>2014-03-02T11:45:17.000Z</time>
      </trkpt>
      <trkpt lat="45.34321" lon="6.20148">
        <ele>2199.6000976562</ele>
        <time>2014-03-02T11:45:18.000Z</time>
      </trkpt>
      <trkpt lat="45.3432" lon="6.20146">
        <ele>2199.8000488281</ele>
        <time>2014-03-02T11:45:19.000Z</time>
      </trkpt>
      <trkpt lat="45.3432" lon="6.20146">
        <ele>2200</ele>
        <time>2014-03-02T11:45:20.000Z</time>
      </trkpt>
      <trkpt lat="45.3432" lon="6.20144">
        <ele>2200.3999023438</ele>
        <time>2014-03-02T11:45:21.000Z</time>
      </trkpt>
      <trkpt lat="45.3432" lon="6.20144">
        <ele>2200.3999023438</ele>
        <time>2014-03-02T11:45:22.000Z</time>
      </trkpt>
      <trkpt lat="45.34319" lon="6.20143">
        <ele>2200.8000488281</ele>
        <time>2014-03-02T11:45:23.000Z</time>
      </trkpt>
      <trkpt lat="45.34319" lon="6.20143">
        <ele>2200.8000488281</ele>
        <time>2014-03-02T11:45:24.000Z</time>
      </trkpt>
      <trkpt lat="45.34318" lon="6.20141">
        <ele>2201.1999511719</ele>
        <time>2014-03-02T11:45:25.000Z</time>
      </trkpt>
      <trkpt lat="45.34318" lon="6.20141">
        <ele>2201.1999511719</ele>
        <time>2014-03-02T11:45:26.000Z</time>
      </trkpt>
      <trkpt lat="45.34318" lon="6.2014">
        <ele>2201.3999023438</ele>
        <time>2014-03-02T11:45:27.000Z</time>
      </trkpt>
      <trkpt lat="45.34318" lon="6.2014">
        <ele>2201.3999023438</ele>
        <time>2014-03-02T11:45:28.000Z</time>
      </trkpt>
      <trkpt lat="45.34318" lon="6.20139">
        <ele>2201.6000976562</ele>
        <time>2014-03-02T11:45:29.000Z</time>
      </trkpt>
      <trkpt lat="45.34318" lon="6.20139">
        <ele>2201.6000976562</ele>
        <time>2014-03-02T11:45:30.000Z</time>
      </trkpt>
      <trkpt lat="45.34318" lon="6.20139">
        <ele>2201.6000976562</ele>
        <time>2014-03-02T11:45:31.000Z</time>
      </trkpt>
      <trkpt lat="45.34318" lon="6.20139">
        <ele>2201.6000976562</ele>
        <time>2014-03-02T11:45:32.000Z</time>
      </trkpt>
      <trkpt lat="45.34318" lon="6.20139">
        <ele>2201.6000976562</ele>
        <time>2014-03-02T11:45:33.000Z</time>
      </trkpt>
      <trkpt lat="45.34318" lon="6.20138">
        <ele>2201.8000488281</ele>
        <time>2014-03-02T11:45:34.000Z</time>
      </trkpt>
      <trkpt lat="45.34318" lon="6.20138">
        <ele>2201.8000488281</ele>
        <time>2014-03-02T11:45:35.000Z</time>
      </trkpt>
      <trkpt lat="45.34318" lon="6.20138">
        <ele>2202</ele>
        <time>2014-03-02T11:45:37.000Z</time>
      </trkpt>
      <trkpt lat="45.34318" lon="6.20137">
        <ele>2202.3999023438</ele>
        <time>2014-03-02T11:45:38.000Z</time>
      </trkpt>
      <trkpt lat="45.34318" lon="6.20137">
        <ele>2202.3999023438</ele>
        <time>2014-03-02T11:45:39.000Z</time>
      </trkpt>
      <trkpt lat="45.34319" lon="6.20136">
        <ele>2202.6000976562</ele>
        <time>2014-03-02T11:45:40.000Z</time>
      </trkpt>
      <trkpt lat="45.34319" lon="6.20136">
        <ele>2202.6000976562</ele>
        <time>2014-03-02T11:45:41.000Z</time>
      </trkpt>
      <trkpt lat="45.34319" lon="6.20136">
        <ele>2202.8000488281</ele>
        <time>2014-03-02T11:45:42.000Z</time>
      </trkpt>
      <trkpt lat="45.34319" lon="6.20136">
        <ele>2202.8000488281</ele>
        <time>2014-03-02T11:45:43.000Z</time>
      </trkpt>
      <trkpt lat="45.34319" lon="6.20136">
        <ele>2203</ele>
        <time>2014-03-02T11:45:44.000Z</time>
      </trkpt>
      <trkpt lat="45.34319" lon="6.20136">
        <ele>2203</ele>
        <time>2014-03-02T11:45:45.000Z</time>
      </trkpt>
      <trkpt lat="45.34319" lon="6.20135">
        <ele>2203.1999511719</ele>
        <time>2014-03-02T11:45:46.000Z</time>
      </trkpt>
      <trkpt lat="45.34319" lon="6.20135">
        <ele>2203.1999511719</ele>
        <time>2014-03-02T11:45:47.000Z</time>
      </trkpt>
      <trkpt lat="45.3432" lon="6.20134">
        <ele>2203.6000976562</ele>
        <time>2014-03-02T11:45:48.000Z</time>
      </trkpt>
      <trkpt lat="45.3432" lon="6.20134">
        <ele>2203.6000976562</ele>
        <time>2014-03-02T11:45:49.000Z</time>
      </trkpt>
      <trkpt lat="45.3432" lon="6.20134">
        <ele>2203.6000976562</ele>
        <time>2014-03-02T11:45:50.000Z</time>
      </trkpt>
      <trkpt lat="45.3432" lon="6.20134">
        <ele>2203.6000976562</ele>
        <time>2014-03-02T11:45:51.000Z</time>
      </trkpt>
      <trkpt lat="45.3432" lon="6.20134">
        <ele>2203.6000976562</ele>
        <time>2014-03-02T11:45:52.000Z</time>
      </trkpt>
      <trkpt lat="45.3432" lon="6.20134">
        <ele>2203.6000976562</ele>
        <time>2014-03-02T11:45:53.000Z</time>
      </trkpt>
      <trkpt lat="45.3432" lon="6.20134">
        <ele>2203.6000976562</ele>
        <time>2014-03-02T11:45:54.000Z</time>
      </trkpt>
      <trkpt lat="45.3432" lon="6.20134">
        <ele>2203.6000976562</ele>
        <time>2014-03-02T11:45:55.000Z</time>
      </trkpt>
      <trkpt lat="45.3432" lon="6.20134">
        <ele>2203.6000976562</ele>
        <time>2014-03-02T11:45:56.000Z</time>
      </trkpt>
      <trkpt lat="45.3432" lon="6.20133">
        <ele>2204</ele>
        <time>2014-03-02T11:45:57.000Z</time>
      </trkpt>
      <trkpt lat="45.3432" lon="6.20132">
        <ele>2204.3999023438</ele>
        <time>2014-03-02T11:45:58.000Z</time>
      </trkpt>
      <trkpt lat="45.34321" lon="6.20132">
        <ele>2204.6000976562</ele>
        <time>2014-03-02T11:45:59.000Z</time>
      </trkpt>
      <trkpt lat="45.34322" lon="6.20131">
        <ele>2205.1999511719</ele>
        <time>2014-03-02T11:46:00.000Z</time>
      </trkpt>
      <trkpt lat="45.34322" lon="6.2013">
        <ele>2205.6000976562</ele>
        <time>2014-03-02T11:46:01.000Z</time>
      </trkpt>
      <trkpt lat="45.34324" lon="6.20129">
        <ele>2206.1999511719</ele>
        <time>2014-03-02T11:46:02.000Z</time>
      </trkpt>
      <trkpt lat="45.34325" lon="6.20128">
        <ele>2206.6000976562</ele>
        <time>2014-03-02T11:46:03.000Z</time>
      </trkpt>
      <trkpt lat="45.34325" lon="6.20128">
        <ele>2206.6000976562</ele>
        <time>2014-03-02T11:46:04.000Z</time>
      </trkpt>
      <trkpt lat="45.34325" lon="6.20128">
        <ele>2207</ele>
        <time>2014-03-02T11:46:05.000Z</time>
      </trkpt>
      <trkpt lat="45.34326" lon="6.20126">
        <ele>2207.8000488281</ele>
        <time>2014-03-02T11:46:06.000Z</time>
      </trkpt>
      <trkpt lat="45.34328" lon="6.20125">
        <ele>2208.6000976562</ele>
        <time>2014-03-02T11:46:07.000Z</time>
      </trkpt>
      <trkpt lat="45.34329" lon="6.20123">
        <ele>2209.3999023438</ele>
        <time>2014-03-02T11:46:08.000Z</time>
      </trkpt>
      <trkpt lat="45.3433" lon="6.20121">
        <ele>2210</ele>
        <time>2014-03-02T11:46:09.000Z</time>
      </trkpt>
      <trkpt lat="45.3433" lon="6.2012">
        <ele>2210.6000976562</ele>
        <time>2014-03-02T11:46:10.000Z</time>
      </trkpt>
      <trkpt lat="45.34332" lon="6.20119">
        <ele>2211.1999511719</ele>
        <time>2014-03-02T11:46:11.000Z</time>
      </trkpt>
      <trkpt lat="45.34332" lon="6.20118">
        <ele>2211.6000976562</ele>
        <time>2014-03-02T11:46:12.000Z</time>
      </trkpt>
      <trkpt lat="45.34334" lon="6.20117">
        <ele>2212.6000976562</ele>
        <time>2014-03-02T11:46:13.000Z</time>
      </trkpt>
      <trkpt lat="45.34335" lon="6.20115">
        <ele>2213.1999511719</ele>
        <time>2014-03-02T11:46:14.000Z</time>
      </trkpt>
      <trkpt lat="45.34335" lon="6.20115">
        <ele>2213.3999023438</ele>
        <time>2014-03-02T11:46:15.000Z</time>
      </trkpt>
      <trkpt lat="45.34335" lon="6.20114">
        <ele>2213.8000488281</ele>
        <time>2014-03-02T11:46:16.000Z</time>
      </trkpt>
      <trkpt lat="45.34335" lon="6.20112">
        <ele>2214.1999511719</ele>
        <time>2014-03-02T11:46:17.000Z</time>
      </trkpt>
      <trkpt lat="45.34335" lon="6.20111">
        <ele>2214.6000976562</ele>
        <time>2014-03-02T11:46:18.000Z</time>
      </trkpt>
      <trkpt lat="45.34335" lon="6.2011">
        <ele>2215</ele>
        <time>2014-03-02T11:46:19.000Z</time>
      </trkpt>
      <trkpt lat="45.34335" lon="6.20109">
        <ele>2215.3999023438</ele>
        <time>2014-03-02T11:46:20.000Z</time>
      </trkpt>
      <trkpt lat="45.34335" lon="6.20108">
        <ele>2215.6000976562</ele>
        <time>2014-03-02T11:46:21.000Z</time>
      </trkpt>
      <trkpt lat="45.34335" lon="6.20107">
        <ele>2215.8000488281</ele>
        <time>2014-03-02T11:46:22.000Z</time>
      </trkpt>
      <trkpt lat="45.34334" lon="6.20106">
        <ele>2216.1999511719</ele>
        <time>2014-03-02T11:46:23.000Z</time>
      </trkpt>
      <trkpt lat="45.34334" lon="6.20104">
        <ele>2216.3999023438</ele>
        <time>2014-03-02T11:46:24.000Z</time>
      </trkpt>
      <trkpt lat="45.34333" lon="6.20103">
        <ele>2216.6000976562</ele>
        <time>2014-03-02T11:46:25.000Z</time>
      </trkpt>
      <trkpt lat="45.34333" lon="6.20103">
        <ele>2216.6000976562</ele>
        <time>2014-03-02T11:46:26.000Z</time>
      </trkpt>
      <trkpt lat="45.34333" lon="6.20103">
        <ele>2216.6000976562</ele>
        <time>2014-03-02T11:46:27.000Z</time>
      </trkpt>
      <trkpt lat="45.34332" lon="6.20102">
        <ele>2217</ele>
        <time>2014-03-02T11:46:28.000Z</time>
      </trkpt>
      <trkpt lat="45.34332" lon="6.20101">
        <ele>2217.1999511719</ele>
        <time>2014-03-02T11:46:29.000Z</time>
      </trkpt>
      <trkpt lat="45.34332" lon="6.201">
        <ele>2217.3999023438</ele>
        <time>2014-03-02T11:46:30.000Z</time>
      </trkpt>
      <trkpt lat="45.34332" lon="6.201">
        <ele>2217.3999023438</ele>
        <time>2014-03-02T11:46:31.000Z</time>
      </trkpt>
      <trkpt lat="45.34331" lon="6.201">
        <ele>2217.3999023438</ele>
        <time>2014-03-02T11:46:32.000Z</time>
      </trkpt>
      <trkpt lat="45.34331" lon="6.201">
        <ele>2217.3999023438</ele>
        <time>2014-03-02T11:46:33.000Z</time>
      </trkpt>
      <trkpt lat="45.34331" lon="6.20099">
        <ele>2217.3999023438</ele>
        <time>2014-03-02T11:46:34.000Z</time>
      </trkpt>
      <trkpt lat="45.3433" lon="6.20098">
        <ele>2217.6000976562</ele>
        <time>2014-03-02T11:46:35.000Z</time>
      </trkpt>
      <trkpt lat="45.3433" lon="6.20098">
        <ele>2217.8000488281</ele>
        <time>2014-03-02T11:46:36.000Z</time>
      </trkpt>
      <trkpt lat="45.34329" lon="6.20096">
        <ele>2218</ele>
        <time>2014-03-02T11:46:37.000Z</time>
      </trkpt>
      <trkpt lat="45.34329" lon="6.20096">
        <ele>2218</ele>
        <time>2014-03-02T11:46:38.000Z</time>
      </trkpt>
      <trkpt lat="45.34329" lon="6.20095">
        <ele>2218.3999023438</ele>
        <time>2014-03-02T11:46:39.000Z</time>
      </trkpt>
      <trkpt lat="45.34329" lon="6.20094">
        <ele>2218.6000976562</ele>
        <time>2014-03-02T11:46:40.000Z</time>
      </trkpt>
      <trkpt lat="45.34329" lon="6.20094">
        <ele>2218.6000976562</ele>
        <time>2014-03-02T11:46:41.000Z</time>
      </trkpt>
      <trkpt lat="45.34329" lon="6.20093">
        <ele>2219</ele>
        <time>2014-03-02T11:46:42.000Z</time>
      </trkpt>
      <trkpt lat="45.34329" lon="6.20093">
        <ele>2219</ele>
        <time>2014-03-02T11:46:43.000Z</time>
      </trkpt>
      <trkpt lat="45.34328" lon="6.20092">
        <ele>2219</ele>
        <time>2014-03-02T11:46:44.000Z</time>
      </trkpt>
      <trkpt lat="45.34328" lon="6.20092">
        <ele>2219.1999511719</ele>
        <time>2014-03-02T11:46:45.000Z</time>
      </trkpt>
      <trkpt lat="45.34327" lon="6.20091">
        <ele>2219.1999511719</ele>
        <time>2014-03-02T11:46:46.000Z</time>
      </trkpt>
      <trkpt lat="45.34327" lon="6.20091">
        <ele>2219.1999511719</ele>
        <time>2014-03-02T11:46:47.000Z</time>
      </trkpt>
      <trkpt lat="45.34327" lon="6.20091">
        <ele>2219.3999023438</ele>
        <time>2014-03-02T11:46:48.000Z</time>
      </trkpt>
      <trkpt lat="45.34327" lon="6.20091">
        <ele>2219.3999023438</ele>
        <time>2014-03-02T11:46:49.000Z</time>
      </trkpt>
      <trkpt lat="45.34327" lon="6.20091">
        <ele>2219.3999023438</ele>
        <time>2014-03-02T11:46:50.000Z</time>
      </trkpt>
      <trkpt lat="45.34327" lon="6.2009">
        <ele>2219.3999023438</ele>
        <time>2014-03-02T11:46:51.000Z</time>
      </trkpt>
      <trkpt lat="45.34326" lon="6.2009">
        <ele>2219.3999023438</ele>
        <time>2014-03-02T11:46:52.000Z</time>
      </trkpt>
      <trkpt lat="45.34326" lon="6.2009">
        <ele>2219.3999023438</ele>
        <time>2014-03-02T11:46:53.000Z</time>
      </trkpt>
      <trkpt lat="45.34327" lon="6.2009">
        <ele>2219.8000488281</ele>
        <time>2014-03-02T11:46:54.000Z</time>
      </trkpt>
      <trkpt lat="45.34328" lon="6.20089">
        <ele>2220</ele>
        <time>2014-03-02T11:46:55.000Z</time>
      </trkpt>
      <trkpt lat="45.34328" lon="6.20089">
        <ele>2220</ele>
        <time>2014-03-02T11:46:56.000Z</time>
      </trkpt>
      <trkpt lat="45.34328" lon="6.20089">
        <ele>2220</ele>
        <time>2014-03-02T11:46:57.000Z</time>
      </trkpt>
      <trkpt lat="45.34328" lon="6.20089">
        <ele>2220</ele>
        <time>2014-03-02T11:46:58.000Z</time>
      </trkpt>
      <trkpt lat="45.34328" lon="6.20089">
        <ele>2220</ele>
        <time>2014-03-02T11:46:59.000Z</time>
      </trkpt>
      <trkpt lat="45.34328" lon="6.20089">
        <ele>2220</ele>
        <time>2014-03-02T11:47:00.000Z</time>
      </trkpt>
      <trkpt lat="45.34328" lon="6.20089">
        <ele>2220</ele>
        <time>2014-03-02T11:47:01.000Z</time>
      </trkpt>
      <trkpt lat="45.34328" lon="6.20089">
        <ele>2220.1999511719</ele>
        <time>2014-03-02T11:47:02.000Z</time>
      </trkpt>
      <trkpt lat="45.34328" lon="6.20088">
        <ele>2220.6000976562</ele>
        <time>2014-03-02T11:47:03.000Z</time>
      </trkpt>
      <trkpt lat="45.34329" lon="6.20087">
        <ele>2221.1999511719</ele>
        <time>2014-03-02T11:47:04.000Z</time>
      </trkpt>
      <trkpt lat="45.34329" lon="6.20085">
        <ele>2221.8000488281</ele>
        <time>2014-03-02T11:47:05.000Z</time>
      </trkpt>
      <trkpt lat="45.3433" lon="6.20084">
        <ele>2222.3999023438</ele>
        <time>2014-03-02T11:47:06.000Z</time>
      </trkpt>
      <trkpt lat="45.3433" lon="6.20083">
        <ele>2222.8000488281</ele>
        <time>2014-03-02T11:47:07.000Z</time>
      </trkpt>
      <trkpt lat="45.34331" lon="6.20082">
        <ele>2223.3999023438</ele>
        <time>2014-03-02T11:47:08.000Z</time>
      </trkpt>
      <trkpt lat="45.34331" lon="6.20081">
        <ele>2223.8000488281</ele>
        <time>2014-03-02T11:47:09.000Z</time>
      </trkpt>
      <trkpt lat="45.34332" lon="6.2008">
        <ele>2224.3999023438</ele>
        <time>2014-03-02T11:47:10.000Z</time>
      </trkpt>
      <trkpt lat="45.34334" lon="6.20079">
        <ele>2225</ele>
        <time>2014-03-02T11:47:11.000Z</time>
      </trkpt>
      <trkpt lat="45.34335" lon="6.20077">
        <ele>2226</ele>
        <time>2014-03-02T11:47:12.000Z</time>
      </trkpt>
      <trkpt lat="45.34337" lon="6.20075">
        <ele>2227</ele>
        <time>2014-03-02T11:47:13.000Z</time>
      </trkpt>
      <trkpt lat="45.34338" lon="6.20074">
        <ele>2227.8000488281</ele>
        <time>2014-03-02T11:47:14.000Z</time>
      </trkpt>
      <trkpt lat="45.3434" lon="6.20072">
        <ele>2228.6000976562</ele>
        <time>2014-03-02T11:47:15.000Z</time>
      </trkpt>
      <trkpt lat="45.34341" lon="6.20071">
        <ele>2229.1999511719</ele>
        <time>2014-03-02T11:47:16.000Z</time>
      </trkpt>
      <trkpt lat="45.34342" lon="6.2007">
        <ele>2229.8000488281</ele>
        <time>2014-03-02T11:47:17.000Z</time>
      </trkpt>
      <trkpt lat="45.34343" lon="6.20069">
        <ele>2230.6000976562</ele>
        <time>2014-03-02T11:47:18.000Z</time>
      </trkpt>
      <trkpt lat="45.34344" lon="6.20067">
        <ele>2231.3999023438</ele>
        <time>2014-03-02T11:47:19.000Z</time>
      </trkpt>
      <trkpt lat="45.34345" lon="6.20065">
        <ele>2232.1999511719</ele>
        <time>2014-03-02T11:47:20.000Z</time>
      </trkpt>
      <trkpt lat="45.34346" lon="6.20064">
        <ele>2233</ele>
        <time>2014-03-02T11:47:21.000Z</time>
      </trkpt>
      <trkpt lat="45.34347" lon="6.20062">
        <ele>2234</ele>
        <time>2014-03-02T11:47:22.000Z</time>
      </trkpt>
      <trkpt lat="45.34349" lon="6.2006">
        <ele>2235</ele>
        <time>2014-03-02T11:47:23.000Z</time>
      </trkpt>
      <trkpt lat="45.3435" lon="6.20059">
        <ele>2236</ele>
        <time>2014-03-02T11:47:24.000Z</time>
      </trkpt>
      <trkpt lat="45.34351" lon="6.20056">
        <ele>2237.1999511719</ele>
        <time>2014-03-02T11:47:25.000Z</time>
      </trkpt>
      <trkpt lat="45.34352" lon="6.20055">
        <ele>2238</ele>
        <time>2014-03-02T11:47:26.000Z</time>
      </trkpt>
      <trkpt lat="45.34353" lon="6.20054">
        <ele>2238.8000488281</ele>
        <time>2014-03-02T11:47:27.000Z</time>
      </trkpt>
      <trkpt lat="45.34354" lon="6.20053">
        <ele>2239.3999023438</ele>
        <time>2014-03-02T11:47:28.000Z</time>
      </trkpt>
      <trkpt lat="45.34355" lon="6.20051">
        <ele>2240.1999511719</ele>
        <time>2014-03-02T11:47:29.000Z</time>
      </trkpt>
      <trkpt lat="45.34356" lon="6.2005">
        <ele>2241.1999511719</ele>
        <time>2014-03-02T11:47:30.000Z</time>
      </trkpt>
      <trkpt lat="45.34357" lon="6.20048">
        <ele>2242.1999511719</ele>
        <time>2014-03-02T11:47:31.000Z</time>
      </trkpt>
      <trkpt lat="45.34359" lon="6.20047">
        <ele>2243.1999511719</ele>
        <time>2014-03-02T11:47:32.000Z</time>
      </trkpt>
      <trkpt lat="45.3436" lon="6.20046">
        <ele>2243.8000488281</ele>
        <time>2014-03-02T11:47:33.000Z</time>
      </trkpt>
      <trkpt lat="45.34361" lon="6.20045">
        <ele>2244.6000976562</ele>
        <time>2014-03-02T11:47:34.000Z</time>
      </trkpt>
      <trkpt lat="45.34363" lon="6.20044">
        <ele>2245.1999511719</ele>
        <time>2014-03-02T11:47:35.000Z</time>
      </trkpt>
      <trkpt lat="45.34364" lon="6.20043">
        <ele>2245.8000488281</ele>
        <time>2014-03-02T11:47:36.000Z</time>
      </trkpt>
      <trkpt lat="45.34364" lon="6.20042">
        <ele>2246.6000976562</ele>
        <time>2014-03-02T11:47:37.000Z</time>
      </trkpt>
      <trkpt lat="45.34365" lon="6.2004">
        <ele>2247.8000488281</ele>
        <time>2014-03-02T11:47:38.000Z</time>
      </trkpt>
      <trkpt lat="45.34366" lon="6.20038">
        <ele>2249</ele>
        <time>2014-03-02T11:47:39.000Z</time>
      </trkpt>
      <trkpt lat="45.34366" lon="6.20036">
        <ele>2249.8000488281</ele>
        <time>2014-03-02T11:47:40.000Z</time>
      </trkpt>
      <trkpt lat="45.34366" lon="6.20035">
        <ele>2250.3999023438</ele>
        <time>2014-03-02T11:47:41.000Z</time>
      </trkpt>
      <trkpt lat="45.34367" lon="6.20034">
        <ele>2250.8000488281</ele>
        <time>2014-03-02T11:47:42.000Z</time>
      </trkpt>
      <trkpt lat="45.34366" lon="6.20035">
        <ele>2250.1999511719</ele>
        <time>2014-03-02T11:47:43.000Z</time>
      </trkpt>
      <trkpt lat="45.34365" lon="6.20035">
        <ele>2250.1999511719</ele>
        <time>2014-03-02T11:47:44.000Z</time>
      </trkpt>
      <trkpt lat="45.34364" lon="6.20034">
        <ele>2250</ele>
        <time>2014-03-02T11:47:45.000Z</time>
      </trkpt>
      <trkpt lat="45.34363" lon="6.20033">
        <ele>2250.3999023438</ele>
        <time>2014-03-02T11:47:46.000Z</time>
      </trkpt>
      <trkpt lat="45.34363" lon="6.20033">
        <ele>2250.3999023438</ele>
        <time>2014-03-02T11:47:47.000Z</time>
      </trkpt>
      <trkpt lat="45.34362" lon="6.20033">
        <ele>2250.3999023438</ele>
        <time>2014-03-02T11:47:48.000Z</time>
      </trkpt>
      <trkpt lat="45.34363" lon="6.20031">
        <ele>2251.1999511719</ele>
        <time>2014-03-02T11:47:49.000Z</time>
      </trkpt>
      <trkpt lat="45.34363" lon="6.20029">
        <ele>2252</ele>
        <time>2014-03-02T11:47:50.000Z</time>
      </trkpt>
      <trkpt lat="45.34367" lon="6.20026">
        <ele>2254.3999023438</ele>
        <time>2014-03-02T11:47:51.000Z</time>
      </trkpt>
      <trkpt lat="45.34368" lon="6.20025">
        <ele>2255.3999023438</ele>
        <time>2014-03-02T11:47:52.000Z</time>
      </trkpt>
      <trkpt lat="45.34369" lon="6.20024">
        <ele>2256</ele>
        <time>2014-03-02T11:47:53.000Z</time>
      </trkpt>
      <trkpt lat="45.34369" lon="6.20026">
        <ele>2255.1999511719</ele>
        <time>2014-03-02T11:47:54.000Z</time>
      </trkpt>
      <trkpt lat="45.34373" lon="6.20027">
        <ele>2255.8000488281</ele>
        <time>2014-03-02T11:47:57.000Z</time>
      </trkpt>
      <trkpt lat="45.34374" lon="6.20025">
        <ele>2257.1999511719</ele>
        <time>2014-03-02T11:47:58.000Z</time>
      </trkpt>
      <trkpt lat="45.34375" lon="6.20025">
        <ele>2257.1999511719</ele>
        <time>2014-03-02T11:47:59.000Z</time>
      </trkpt>
      <trkpt lat="45.34375" lon="6.20025">
        <ele>2257.1999511719</ele>
        <time>2014-03-02T11:48:00.000Z</time>
      </trkpt>
      <trkpt lat="45.34375" lon="6.20027">
        <ele>2256.6000976562</ele>
        <time>2014-03-02T11:48:01.000Z</time>
      </trkpt>
      <trkpt lat="45.34374" lon="6.20027">
        <ele>2256</ele>
        <time>2014-03-02T11:48:02.000Z</time>
      </trkpt>
      <trkpt lat="45.34374" lon="6.20028">
        <ele>2255.3999023438</ele>
        <time>2014-03-02T11:48:03.000Z</time>
      </trkpt>
      <trkpt lat="45.34373" lon="6.20028">
        <ele>2255.1999511719</ele>
        <time>2014-03-02T11:48:04.000Z</time>
      </trkpt>
      <trkpt lat="45.34373" lon="6.2003">
        <ele>2254.3999023438</ele>
        <time>2014-03-02T11:48:05.000Z</time>
      </trkpt>
      <trkpt lat="45.34373" lon="6.20029">
        <ele>2254.8000488281</ele>
        <time>2014-03-02T11:48:06.000Z</time>
      </trkpt>
      <trkpt lat="45.34374" lon="6.20026">
        <ele>2256.1999511719</ele>
        <time>2014-03-02T11:48:07.000Z</time>
      </trkpt>
      <trkpt lat="45.34373" lon="6.20025">
        <ele>2256.6000976562</ele>
        <time>2014-03-02T11:48:08.000Z</time>
      </trkpt>
      <trkpt lat="45.34374" lon="6.20023">
        <ele>2258</ele>
        <time>2014-03-02T11:48:09.000Z</time>
      </trkpt>
      <trkpt lat="45.34374" lon="6.20021">
        <ele>2258.8000488281</ele>
        <time>2014-03-02T11:48:10.000Z</time>
      </trkpt>
      <trkpt lat="45.34375" lon="6.2002">
        <ele>2259.3999023438</ele>
        <time>2014-03-02T11:48:11.000Z</time>
      </trkpt>
      <trkpt lat="45.34375" lon="6.20021">
        <ele>2259</ele>
        <time>2014-03-02T11:48:12.000Z</time>
      </trkpt>
      <trkpt lat="45.34374" lon="6.20022">
        <ele>2258</ele>
        <time>2014-03-02T11:48:13.000Z</time>
      </trkpt>
      <trkpt lat="45.34374" lon="6.20021">
        <ele>2259</ele>
        <time>2014-03-02T11:48:14.000Z</time>
      </trkpt>
      <trkpt lat="45.34375" lon="6.20017">
        <ele>2260.8000488281</ele>
        <time>2014-03-02T11:48:15.000Z</time>
      </trkpt>
      <trkpt lat="45.34376" lon="6.20014">
        <ele>2262.3999023438</ele>
        <time>2014-03-02T11:48:16.000Z</time>
      </trkpt>
      <trkpt lat="45.34377" lon="6.20011">
        <ele>2264.1999511719</ele>
        <time>2014-03-02T11:48:17.000Z</time>
      </trkpt>
      <trkpt lat="45.34377" lon="6.20007">
        <ele>2266</ele>
        <time>2014-03-02T11:48:18.000Z</time>
      </trkpt>
      <trkpt lat="45.34378" lon="6.20005">
        <ele>2267.1999511719</ele>
        <time>2014-03-02T11:48:19.000Z</time>
      </trkpt>
      <trkpt lat="45.34379" lon="6.20003">
        <ele>2268.1999511719</ele>
        <time>2014-03-02T11:48:20.000Z</time>
      </trkpt>
      <trkpt lat="45.3438" lon="6.20002">
        <ele>2269.1999511719</ele>
        <time>2014-03-02T11:48:21.000Z</time>
      </trkpt>
      <trkpt lat="45.3438" lon="6.20003">
        <ele>2268.6000976562</ele>
        <time>2014-03-02T11:48:22.000Z</time>
      </trkpt>
      <trkpt lat="45.3438" lon="6.20005">
        <ele>2267.8000488281</ele>
        <time>2014-03-02T11:48:23.000Z</time>
      </trkpt>
      <trkpt lat="45.34382" lon="6.20006">
        <ele>2267.8000488281</ele>
        <time>2014-03-02T11:48:24.000Z</time>
      </trkpt>
      <trkpt lat="45.34383" lon="6.20005">
        <ele>2269</ele>
        <time>2014-03-02T11:48:25.000Z</time>
      </trkpt>
      <trkpt lat="45.34385" lon="6.20006">
        <ele>2269.6000976562</ele>
        <time>2014-03-02T11:48:26.000Z</time>
      </trkpt>
      <trkpt lat="45.34387" lon="6.20007">
        <ele>2270</ele>
        <time>2014-03-02T11:48:27.000Z</time>
      </trkpt>
      <trkpt lat="45.34389" lon="6.20007">
        <ele>2270.8000488281</ele>
        <time>2014-03-02T11:48:28.000Z</time>
      </trkpt>
      <trkpt lat="45.34391" lon="6.20008">
        <ele>2271.8000488281</ele>
        <time>2014-03-02T11:48:29.000Z</time>
      </trkpt>
      <trkpt lat="45.34394" lon="6.20008">
        <ele>2273</ele>
        <time>2014-03-02T11:48:30.000Z</time>
      </trkpt>
      <trkpt lat="45.34396" lon="6.20008">
        <ele>2274.3999023438</ele>
        <time>2014-03-02T11:48:31.000Z</time>
      </trkpt>
      <trkpt lat="45.34399" lon="6.20007">
        <ele>2275.8000488281</ele>
        <time>2014-03-02T11:48:32.000Z</time>
      </trkpt>
      <trkpt lat="45.34401" lon="6.20008">
        <ele>2277</ele>
        <time>2014-03-02T11:48:33.000Z</time>
      </trkpt>
      <trkpt lat="45.34404" lon="6.20008">
        <ele>2277.8000488281</ele>
        <time>2014-03-02T11:48:34.000Z</time>
      </trkpt>
      <trkpt lat="45.34406" lon="6.2001">
        <ele>2278.1999511719</ele>
        <time>2014-03-02T11:48:35.000Z</time>
      </trkpt>
      <trkpt lat="45.34408" lon="6.20009">
        <ele>2279.6000976562</ele>
        <time>2014-03-02T11:48:36.000Z</time>
      </trkpt>
      <trkpt lat="45.3441" lon="6.20007">
        <ele>2281.6000976562</ele>
        <time>2014-03-02T11:48:37.000Z</time>
      </trkpt>
      <trkpt lat="45.34412" lon="6.20005">
        <ele>2283.3999023438</ele>
        <time>2014-03-02T11:48:38.000Z</time>
      </trkpt>
      <trkpt lat="45.34415" lon="6.20005">
        <ele>2284.6000976562</ele>
        <time>2014-03-02T11:48:39.000Z</time>
      </trkpt>
      <trkpt lat="45.34416" lon="6.20003">
        <ele>2286</ele>
        <time>2014-03-02T11:48:40.000Z</time>
      </trkpt>
      <trkpt lat="45.34417" lon="6.20004">
        <ele>2286.1999511719</ele>
        <time>2014-03-02T11:48:41.000Z</time>
      </trkpt>
      <trkpt lat="45.34419" lon="6.20005">
        <ele>2286.6000976562</ele>
        <time>2014-03-02T11:48:42.000Z</time>
      </trkpt>
      <trkpt lat="45.34418" lon="6.20007">
        <ele>2285.3999023438</ele>
        <time>2014-03-02T11:48:43.000Z</time>
      </trkpt>
      <trkpt lat="45.34419" lon="6.20008">
        <ele>2285.8000488281</ele>
        <time>2014-03-02T11:48:44.000Z</time>
      </trkpt>
      <trkpt lat="45.34421" lon="6.20006">
        <ele>2287.3999023438</ele>
        <time>2014-03-02T11:48:45.000Z</time>
      </trkpt>
      <trkpt lat="45.34427" lon="6.19998">
        <ele>2293.1999511719</ele>
        <time>2014-03-02T11:48:47.000Z</time>
      </trkpt>
      <trkpt lat="45.3443" lon="6.19993">
        <ele>2297.1999511719</ele>
        <time>2014-03-02T11:48:48.000Z</time>
      </trkpt>
      <trkpt lat="45.34434" lon="6.19986">
        <ele>2301.3999023438</ele>
        <time>2014-03-02T11:48:49.000Z</time>
      </trkpt>
      <trkpt lat="45.34438" lon="6.19979">
        <ele>2306.1999511719</ele>
        <time>2014-03-02T11:48:50.000Z</time>
      </trkpt>
      <trkpt lat="45.34441" lon="6.19971">
        <ele>2310.6000976562</ele>
        <time>2014-03-02T11:48:51.000Z</time>
      </trkpt>
      <trkpt lat="45.34445" lon="6.19963">
        <ele>2315.1999511719</ele>
        <time>2014-03-02T11:48:52.000Z</time>
      </trkpt>
      <trkpt lat="45.3445" lon="6.19954">
        <ele>2319.8000488281</ele>
        <time>2014-03-02T11:48:53.000Z</time>
      </trkpt>
      <trkpt lat="45.3446" lon="6.19938">
        <ele>2328.1999511719</ele>
        <time>2014-03-02T11:48:55.000Z</time>
      </trkpt>
      <trkpt lat="45.34465" lon="6.1993">
        <ele>2332.1999511719</ele>
        <time>2014-03-02T11:48:56.000Z</time>
      </trkpt>
      <trkpt lat="45.3447" lon="6.19923">
        <ele>2336</ele>
        <time>2014-03-02T11:48:57.000Z</time>
      </trkpt>
      <trkpt lat="45.34475" lon="6.19915">
        <ele>2340</ele>
        <time>2014-03-02T11:48:58.000Z</time>
      </trkpt>
      <trkpt lat="45.34479" lon="6.19908">
        <ele>2343.8000488281</ele>
        <time>2014-03-02T11:48:59.000Z</time>
      </trkpt>
      <trkpt lat="45.34484" lon="6.199">
        <ele>2347.3999023438</ele>
        <time>2014-03-02T11:49:00.000Z</time>
      </trkpt>
      <trkpt lat="45.34488" lon="6.19893">
        <ele>2351</ele>
        <time>2014-03-02T11:49:01.000Z</time>
      </trkpt>
      <trkpt lat="45.34492" lon="6.19886">
        <ele>2354.6000976562</ele>
        <time>2014-03-02T11:49:02.000Z</time>
      </trkpt>
      <trkpt lat="45.34497" lon="6.19879">
        <ele>2358.1999511719</ele>
        <time>2014-03-02T11:49:03.000Z</time>
      </trkpt>
      <trkpt lat="45.34501" lon="6.19873">
        <ele>2361.6000976562</ele>
        <time>2014-03-02T11:49:04.000Z</time>
      </trkpt>
      <trkpt lat="45.34506" lon="6.19866">
        <ele>2365</ele>
        <time>2014-03-02T11:49:05.000Z</time>
      </trkpt>
      <trkpt lat="45.3451" lon="6.19859">
        <ele>2368.6000976562</ele>
        <time>2014-03-02T11:49:06.000Z</time>
      </trkpt>
      <trkpt lat="45.34514" lon="6.19853">
        <ele>2370.8000488281</ele>
        <time>2014-03-02T11:49:07.000Z</time>
      </trkpt>
      <trkpt lat="45.34518" lon="6.19847">
        <ele>2373</ele>
        <time>2014-03-02T11:49:08.000Z</time>
      </trkpt>
      <trkpt lat="45.34523" lon="6.1984">
        <ele>2375</ele>
        <time>2014-03-02T11:49:09.000Z</time>
      </trkpt>
      <trkpt lat="45.34527" lon="6.19834">
        <ele>2377</ele>
        <time>2014-03-02T11:49:10.000Z</time>
      </trkpt>
      <trkpt lat="45.34531" lon="6.19829">
        <ele>2379</ele>
        <time>2014-03-02T11:49:11.000Z</time>
      </trkpt>
      <trkpt lat="45.34535" lon="6.19823">
        <ele>2380.8000488281</ele>
        <time>2014-03-02T11:49:12.000Z</time>
      </trkpt>
      <trkpt lat="45.3453" lon="6.19823">
        <ele>2379.6000976562</ele>
        <time>2014-03-02T11:49:13.000Z</time>
      </trkpt>
      <trkpt lat="45.34526" lon="6.19823">
        <ele>2378.3999023438</ele>
        <time>2014-03-02T11:49:14.000Z</time>
      </trkpt>
      <trkpt lat="45.34523" lon="6.19823">
        <ele>2377.6000976562</ele>
        <time>2014-03-02T11:49:15.000Z</time>
      </trkpt>
      <trkpt lat="45.34511" lon="6.19829">
        <ele>2373.3999023438</ele>
        <time>2014-03-02T11:49:16.000Z</time>
      </trkpt>
      <trkpt lat="45.34504" lon="6.19832">
        <ele>2371</ele>
        <time>2014-03-02T11:49:17.000Z</time>
      </trkpt>
      <trkpt lat="45.34496" lon="6.19836">
        <ele>2368.3999023438</ele>
        <time>2014-03-02T11:49:18.000Z</time>
      </trkpt>
      <trkpt lat="45.3449" lon="6.1984">
        <ele>2365.6000976562</ele>
        <time>2014-03-02T11:49:19.000Z</time>
      </trkpt>
      <trkpt lat="45.34482" lon="6.19845">
        <ele>2361.3999023438</ele>
        <time>2014-03-02T11:49:20.000Z</time>
      </trkpt>
      <trkpt lat="45.34473" lon="6.19855">
        <ele>2355</ele>
        <time>2014-03-02T11:49:21.000Z</time>
      </trkpt>
      <trkpt lat="45.34468" lon="6.19859">
        <ele>2351.8000488281</ele>
        <time>2014-03-02T11:49:22.000Z</time>
      </trkpt>
      <trkpt lat="45.3446" lon="6.19869">
        <ele>2346.8000488281</ele>
        <time>2014-03-02T11:49:23.000Z</time>
      </trkpt>
      <trkpt lat="45.34455" lon="6.19874">
        <ele>2344.1999511719</ele>
        <time>2014-03-02T11:49:24.000Z</time>
      </trkpt>
      <trkpt lat="45.3445" lon="6.1988">
        <ele>2341.3999023438</ele>
        <time>2014-03-02T11:49:25.000Z</time>
      </trkpt>
      <trkpt lat="45.34445" lon="6.19885">
        <ele>2337.8000488281</ele>
        <time>2014-03-02T11:49:26.000Z</time>
      </trkpt>
      <trkpt lat="45.34442" lon="6.19889">
        <ele>2334.8000488281</ele>
        <time>2014-03-02T11:49:27.000Z</time>
      </trkpt>
      <trkpt lat="45.34438" lon="6.19893">
        <ele>2331.3999023438</ele>
        <time>2014-03-02T11:49:28.000Z</time>
      </trkpt>
      <trkpt lat="45.34434" lon="6.19897">
        <ele>2328.3999023438</ele>
        <time>2014-03-02T11:49:29.000Z</time>
      </trkpt>
      <trkpt lat="45.3443" lon="6.19902">
        <ele>2325.8000488281</ele>
        <time>2014-03-02T11:49:30.000Z</time>
      </trkpt>
      <trkpt lat="45.34429" lon="6.19904">
        <ele>2324.8000488281</ele>
        <time>2014-03-02T11:49:31.000Z</time>
      </trkpt>
      <trkpt lat="45.34428" lon="6.19905">
        <ele>2324</ele>
        <time>2014-03-02T11:49:32.000Z</time>
      </trkpt>
      <trkpt lat="45.34428" lon="6.19905">
        <ele>2324</ele>
        <time>2014-03-02T11:49:33.000Z</time>
      </trkpt>
      <trkpt lat="45.34426" lon="6.19908">
        <ele>2322.6000976562</ele>
        <time>2014-03-02T11:49:34.000Z</time>
      </trkpt>
      <trkpt lat="45.34425" lon="6.19909">
        <ele>2321.6000976562</ele>
        <time>2014-03-02T11:49:35.000Z</time>
      </trkpt>
      <trkpt lat="45.34423" lon="6.19912">
        <ele>2320.1999511719</ele>
        <time>2014-03-02T11:49:36.000Z</time>
      </trkpt>
      <trkpt lat="45.3442" lon="6.19914">
        <ele>2318.6000976562</ele>
        <time>2014-03-02T11:49:37.000Z</time>
      </trkpt>
      <trkpt lat="45.3442" lon="6.19914">
        <ele>2318.6000976562</ele>
        <time>2014-03-02T11:49:38.000Z</time>
      </trkpt>
      <trkpt lat="45.34419" lon="6.19917">
        <ele>2317.3999023438</ele>
        <time>2014-03-02T11:49:39.000Z</time>
      </trkpt>
      <trkpt lat="45.34418" lon="6.19918">
        <ele>2316.8000488281</ele>
        <time>2014-03-02T11:49:40.000Z</time>
      </trkpt>
      <trkpt lat="45.34417" lon="6.1992">
        <ele>2316</ele>
        <time>2014-03-02T11:49:41.000Z</time>
      </trkpt>
      <trkpt lat="45.34417" lon="6.1992">
        <ele>2316</ele>
        <time>2014-03-02T11:49:42.000Z</time>
      </trkpt>
      <trkpt lat="45.34417" lon="6.1992">
        <ele>2316</ele>
        <time>2014-03-02T11:49:43.000Z</time>
      </trkpt>
      <trkpt lat="45.34417" lon="6.1992">
        <ele>2316</ele>
        <time>2014-03-02T11:49:44.000Z</time>
      </trkpt>
      <trkpt lat="45.34417" lon="6.1992">
        <ele>2316</ele>
        <time>2014-03-02T11:49:45.000Z</time>
      </trkpt>
      <trkpt lat="45.34417" lon="6.19922">
        <ele>2315</ele>
        <time>2014-03-02T11:49:46.000Z</time>
      </trkpt>
      <trkpt lat="45.34417" lon="6.19922">
        <ele>2315</ele>
        <time>2014-03-02T11:49:47.000Z</time>
      </trkpt>
      <trkpt lat="45.34416" lon="6.19924">
        <ele>2314.1999511719</ele>
        <time>2014-03-02T11:49:48.000Z</time>
      </trkpt>
      <trkpt lat="45.34416" lon="6.19924">
        <ele>2314.1999511719</ele>
        <time>2014-03-02T11:49:49.000Z</time>
      </trkpt>
      <trkpt lat="45.34415" lon="6.19926">
        <ele>2313.3999023438</ele>
        <time>2014-03-02T11:49:50.000Z</time>
      </trkpt>
      <trkpt lat="45.34415" lon="6.19928">
        <ele>2312.8000488281</ele>
        <time>2014-03-02T11:49:51.000Z</time>
      </trkpt>
      <trkpt lat="45.34414" lon="6.19931">
        <ele>2311.8000488281</ele>
        <time>2014-03-02T11:49:52.000Z</time>
      </trkpt>
      <trkpt lat="45.34414" lon="6.19933">
        <ele>2310.8000488281</ele>
        <time>2014-03-02T11:49:53.000Z</time>
      </trkpt>
      <trkpt lat="45.34414" lon="6.19933">
        <ele>2310.8000488281</ele>
        <time>2014-03-02T11:49:54.000Z</time>
      </trkpt>
      <trkpt lat="45.34414" lon="6.19933">
        <ele>2310.8000488281</ele>
        <time>2014-03-02T11:49:55.000Z</time>
      </trkpt>
      <trkpt lat="45.34414" lon="6.19933">
        <ele>2310.8000488281</ele>
        <time>2014-03-02T11:49:56.000Z</time>
      </trkpt>
      <trkpt lat="45.34414" lon="6.19935">
        <ele>2309.8000488281</ele>
        <time>2014-03-02T11:49:57.000Z</time>
      </trkpt>
      <trkpt lat="45.34413" lon="6.19937">
        <ele>2308.8000488281</ele>
        <time>2014-03-02T11:49:58.000Z</time>
      </trkpt>
      <trkpt lat="45.34413" lon="6.19937">
        <ele>2308.8000488281</ele>
        <time>2014-03-02T11:49:59.000Z</time>
      </trkpt>
      <trkpt lat="45.34413" lon="6.19937">
        <ele>2308.8000488281</ele>
        <time>2014-03-02T11:50:00.000Z</time>
      </trkpt>
      <trkpt lat="45.34413" lon="6.19937">
        <ele>2308.8000488281</ele>
        <time>2014-03-02T11:50:01.000Z</time>
      </trkpt>
      <trkpt lat="45.34413" lon="6.19937">
        <ele>2308.8000488281</ele>
        <time>2014-03-02T11:50:02.000Z</time>
      </trkpt>
      <trkpt lat="45.34411" lon="6.1994">
        <ele>2307.3999023438</ele>
        <time>2014-03-02T11:50:03.000Z</time>
      </trkpt>
      <trkpt lat="45.34411" lon="6.19941">
        <ele>2306.3999023438</ele>
        <time>2014-03-02T11:50:04.000Z</time>
      </trkpt>
      <trkpt lat="45.3441" lon="6.19943">
        <ele>2305.8000488281</ele>
        <time>2014-03-02T11:50:05.000Z</time>
      </trkpt>
      <trkpt lat="45.3441" lon="6.19943">
        <ele>2305.6000976562</ele>
        <time>2014-03-02T11:50:06.000Z</time>
      </trkpt>
      <trkpt lat="45.34409" lon="6.19948">
        <ele>2303.3999023438</ele>
        <time>2014-03-02T11:50:07.000Z</time>
      </trkpt>
      <trkpt lat="45.34409" lon="6.19951">
        <ele>2302.3999023438</ele>
        <time>2014-03-02T11:50:08.000Z</time>
      </trkpt>
      <trkpt lat="45.34408" lon="6.19955">
        <ele>2300.6000976562</ele>
        <time>2014-03-02T11:50:09.000Z</time>
      </trkpt>
      <trkpt lat="45.34408" lon="6.19957">
        <ele>2299.8000488281</ele>
        <time>2014-03-02T11:50:10.000Z</time>
      </trkpt>
      <trkpt lat="45.34408" lon="6.1996">
        <ele>2299</ele>
        <time>2014-03-02T11:50:11.000Z</time>
      </trkpt>
      <trkpt lat="45.34409" lon="6.19962">
        <ele>2298.8000488281</ele>
        <time>2014-03-02T11:50:12.000Z</time>
      </trkpt>
      <trkpt lat="45.34408" lon="6.19965">
        <ele>2297.1999511719</ele>
        <time>2014-03-02T11:50:13.000Z</time>
      </trkpt>
      <trkpt lat="45.34408" lon="6.19965">
        <ele>2297.1999511719</ele>
        <time>2014-03-02T11:50:14.000Z</time>
      </trkpt>
      <trkpt lat="45.34409" lon="6.19966">
        <ele>2297</ele>
        <time>2014-03-02T11:50:15.000Z</time>
      </trkpt>
      <trkpt lat="45.34409" lon="6.19967">
        <ele>2297.1999511719</ele>
        <time>2014-03-02T11:50:16.000Z</time>
      </trkpt>
      <trkpt lat="45.3441" lon="6.19967">
        <ele>2297.3999023438</ele>
        <time>2014-03-02T11:50:17.000Z</time>
      </trkpt>
      <trkpt lat="45.3441" lon="6.19967">
        <ele>2297.6000976562</ele>
        <time>2014-03-02T11:50:18.000Z</time>
      </trkpt>
      <trkpt lat="45.3441" lon="6.19967">
        <ele>2297.6000976562</ele>
        <time>2014-03-02T11:50:19.000Z</time>
      </trkpt>
      <trkpt lat="45.34411" lon="6.19968">
        <ele>2297.6000976562</ele>
        <time>2014-03-02T11:50:20.000Z</time>
      </trkpt>
      <trkpt lat="45.34409" lon="6.19972">
        <ele>2295.3999023438</ele>
        <time>2014-03-02T11:50:21.000Z</time>
      </trkpt>
      <trkpt lat="45.34409" lon="6.19972">
        <ele>2295.3999023438</ele>
        <time>2014-03-02T11:50:22.000Z</time>
      </trkpt>
      <trkpt lat="45.34409" lon="6.19972">
        <ele>2295.3999023438</ele>
        <time>2014-03-02T11:50:23.000Z</time>
      </trkpt>
      <trkpt lat="45.34407" lon="6.19976">
        <ele>2293.1999511719</ele>
        <time>2014-03-02T11:50:24.000Z</time>
      </trkpt>
      <trkpt lat="45.34407" lon="6.19976">
        <ele>2293.1999511719</ele>
        <time>2014-03-02T11:50:25.000Z</time>
      </trkpt>
      <trkpt lat="45.34405" lon="6.19979">
        <ele>2291.1999511719</ele>
        <time>2014-03-02T11:50:26.000Z</time>
      </trkpt>
      <trkpt lat="45.34404" lon="6.19982">
        <ele>2289.1999511719</ele>
        <time>2014-03-02T11:50:27.000Z</time>
      </trkpt>
      <trkpt lat="45.34402" lon="6.19984">
        <ele>2287.3999023438</ele>
        <time>2014-03-02T11:50:28.000Z</time>
      </trkpt>
      <trkpt lat="45.34402" lon="6.19984">
        <ele>2287.3999023438</ele>
        <time>2014-03-02T11:50:29.000Z</time>
      </trkpt>
      <trkpt lat="45.34401" lon="6.19986">
        <ele>2286.3999023438</ele>
        <time>2014-03-02T11:50:30.000Z</time>
      </trkpt>
      <trkpt lat="45.344" lon="6.19986">
        <ele>2285.8000488281</ele>
        <time>2014-03-02T11:50:31.000Z</time>
      </trkpt>
      <trkpt lat="45.344" lon="6.19988">
        <ele>2285</ele>
        <time>2014-03-02T11:50:32.000Z</time>
      </trkpt>
      <trkpt lat="45.34398" lon="6.19993">
        <ele>2281.6000976562</ele>
        <time>2014-03-02T11:50:33.000Z</time>
      </trkpt>
      <trkpt lat="45.34398" lon="6.19993">
        <ele>2281.6000976562</ele>
        <time>2014-03-02T11:50:34.000Z</time>
      </trkpt>
      <trkpt lat="45.34398" lon="6.19993">
        <ele>2281.6000976562</ele>
        <time>2014-03-02T11:50:35.000Z</time>
      </trkpt>
      <trkpt lat="45.34398" lon="6.19993">
        <ele>2281.6000976562</ele>
        <time>2014-03-02T11:50:36.000Z</time>
      </trkpt>
      <trkpt lat="45.34398" lon="6.19993">
        <ele>2281.6000976562</ele>
        <time>2014-03-02T11:50:37.000Z</time>
      </trkpt>
      <trkpt lat="45.34398" lon="6.19993">
        <ele>2281.6000976562</ele>
        <time>2014-03-02T11:50:38.000Z</time>
      </trkpt>
      <trkpt lat="45.34398" lon="6.19993">
        <ele>2281.6000976562</ele>
        <time>2014-03-02T11:50:39.000Z</time>
      </trkpt>
      <trkpt lat="45.34397" lon="6.19994">
        <ele>2281</ele>
        <time>2014-03-02T11:50:40.000Z</time>
      </trkpt>
      <trkpt lat="45.34397" lon="6.19994">
        <ele>2281</ele>
        <time>2014-03-02T11:50:41.000Z</time>
      </trkpt>
      <trkpt lat="45.34396" lon="6.19995">
        <ele>2280</ele>
        <time>2014-03-02T11:50:42.000Z</time>
      </trkpt>
      <trkpt lat="45.34396" lon="6.19995">
        <ele>2280</ele>
        <time>2014-03-02T11:50:43.000Z</time>
      </trkpt>
      <trkpt lat="45.34395" lon="6.19995">
        <ele>2279.1999511719</ele>
        <time>2014-03-02T11:50:44.000Z</time>
      </trkpt>
      <trkpt lat="45.34393" lon="6.19995">
        <ele>2278.8000488281</ele>
        <time>2014-03-02T11:50:45.000Z</time>
      </trkpt>
      <trkpt lat="45.34392" lon="6.19995">
        <ele>2277.8000488281</ele>
        <time>2014-03-02T11:50:46.000Z</time>
      </trkpt>
      <trkpt lat="45.34392" lon="6.19995">
        <ele>2277.8000488281</ele>
        <time>2014-03-02T11:50:47.000Z</time>
      </trkpt>
      <trkpt lat="45.3439" lon="6.19995">
        <ele>2277.1999511719</ele>
        <time>2014-03-02T11:50:48.000Z</time>
      </trkpt>
      <trkpt lat="45.3439" lon="6.19994">
        <ele>2277.3999023438</ele>
        <time>2014-03-02T11:50:49.000Z</time>
      </trkpt>
      <trkpt lat="45.34388" lon="6.19995">
        <ele>2276.1999511719</ele>
        <time>2014-03-02T11:50:50.000Z</time>
      </trkpt>
      <trkpt lat="45.34387" lon="6.19995">
        <ele>2275.6000976562</ele>
        <time>2014-03-02T11:50:51.000Z</time>
      </trkpt>
      <trkpt lat="45.34386" lon="6.19996">
        <ele>2274.8000488281</ele>
        <time>2014-03-02T11:50:52.000Z</time>
      </trkpt>
      <trkpt lat="45.34385" lon="6.19995">
        <ele>2274.3999023438</ele>
        <time>2014-03-02T11:50:53.000Z</time>
      </trkpt>
      <trkpt lat="45.34384" lon="6.19995">
        <ele>2274</ele>
        <time>2014-03-02T11:50:54.000Z</time>
      </trkpt>
      <trkpt lat="45.34383" lon="6.19995">
        <ele>2273.3999023438</ele>
        <time>2014-03-02T11:50:55.000Z</time>
      </trkpt>
      <trkpt lat="45.34383" lon="6.19996">
        <ele>2273.1999511719</ele>
        <time>2014-03-02T11:50:56.000Z</time>
      </trkpt>
      <trkpt lat="45.34382" lon="6.19995">
        <ele>2273</ele>
        <time>2014-03-02T11:50:57.000Z</time>
      </trkpt>
      <trkpt lat="45.34382" lon="6.19994">
        <ele>2273.1999511719</ele>
        <time>2014-03-02T11:50:58.000Z</time>
      </trkpt>
      <trkpt lat="45.34381" lon="6.19994">
        <ele>2273</ele>
        <time>2014-03-02T11:50:59.000Z</time>
      </trkpt>
      <trkpt lat="45.34381" lon="6.19993">
        <ele>2273.3999023438</ele>
        <time>2014-03-02T11:51:00.000Z</time>
      </trkpt>
      <trkpt lat="45.34381" lon="6.19994">
        <ele>2273</ele>
        <time>2014-03-02T11:51:01.000Z</time>
      </trkpt>
      <trkpt lat="45.34381" lon="6.19995">
        <ele>2272.3999023438</ele>
        <time>2014-03-02T11:51:02.000Z</time>
      </trkpt>
      <trkpt lat="45.34381" lon="6.19995">
        <ele>2272.3999023438</ele>
        <time>2014-03-02T11:51:03.000Z</time>
      </trkpt>
      <trkpt lat="45.34381" lon="6.19996">
        <ele>2272</ele>
        <time>2014-03-02T11:51:04.000Z</time>
      </trkpt>
      <trkpt lat="45.34381" lon="6.19996">
        <ele>2272</ele>
        <time>2014-03-02T11:51:05.000Z</time>
      </trkpt>
      <trkpt lat="45.34381" lon="6.19996">
        <ele>2272</ele>
        <time>2014-03-02T11:51:06.000Z</time>
      </trkpt>
      <trkpt lat="45.34381" lon="6.19995">
        <ele>2272.6000976562</ele>
        <time>2014-03-02T11:51:07.000Z</time>
      </trkpt>
      <trkpt lat="45.34381" lon="6.19994">
        <ele>2273</ele>
        <time>2014-03-02T11:51:08.000Z</time>
      </trkpt>
      <trkpt lat="45.34381" lon="6.19994">
        <ele>2273.1999511719</ele>
        <time>2014-03-02T11:51:09.000Z</time>
      </trkpt>
      <trkpt lat="45.34381" lon="6.19993">
        <ele>2273.1999511719</ele>
        <time>2014-03-02T11:51:10.000Z</time>
      </trkpt>
      <trkpt lat="45.34381" lon="6.19993">
        <ele>2273.1999511719</ele>
        <time>2014-03-02T11:51:11.000Z</time>
      </trkpt>
      <trkpt lat="45.34381" lon="6.19993">
        <ele>2273.1999511719</ele>
        <time>2014-03-02T11:51:12.000Z</time>
      </trkpt>
      <trkpt lat="45.34381" lon="6.19993">
        <ele>2273.3999023438</ele>
        <time>2014-03-02T11:51:13.000Z</time>
      </trkpt>
      <trkpt lat="45.34381" lon="6.19993">
        <ele>2273.3999023438</ele>
        <time>2014-03-02T11:51:14.000Z</time>
      </trkpt>
      <trkpt lat="45.34381" lon="6.19993">
        <ele>2273.3999023438</ele>
        <time>2014-03-02T11:51:15.000Z</time>
      </trkpt>
      <trkpt lat="45.34381" lon="6.19993">
        <ele>2273.3999023438</ele>
        <time>2014-03-02T11:51:16.000Z</time>
      </trkpt>
      <trkpt lat="45.34381" lon="6.19993">
        <ele>2273.3999023438</ele>
        <time>2014-03-02T11:51:17.000Z</time>
      </trkpt>
      <trkpt lat="45.3438" lon="6.19992">
        <ele>2273.6000976562</ele>
        <time>2014-03-02T11:51:18.000Z</time>
      </trkpt>
      <trkpt lat="45.34379" lon="6.19992">
        <ele>2273.6000976562</ele>
        <time>2014-03-02T11:51:19.000Z</time>
      </trkpt>
      <trkpt lat="45.34378" lon="6.1999">
        <ele>2274.1999511719</ele>
        <time>2014-03-02T11:51:20.000Z</time>
      </trkpt>
      <trkpt lat="45.34378" lon="6.19989">
        <ele>2274.1999511719</ele>
        <time>2014-03-02T11:51:21.000Z</time>
      </trkpt>
      <trkpt lat="45.34378" lon="6.1999">
        <ele>2274</ele>
        <time>2014-03-02T11:51:22.000Z</time>
      </trkpt>
      <trkpt lat="45.34378" lon="6.1999">
        <ele>2273.8000488281</ele>
        <time>2014-03-02T11:51:23.000Z</time>
      </trkpt>
      <trkpt lat="45.34379" lon="6.19991">
        <ele>2273.8000488281</ele>
        <time>2014-03-02T11:51:24.000Z</time>
      </trkpt>
      <trkpt lat="45.34379" lon="6.1999">
        <ele>2274.3999023438</ele>
        <time>2014-03-02T11:51:25.000Z</time>
      </trkpt>
      <trkpt lat="45.34379" lon="6.19989">
        <ele>2274.6000976562</ele>
        <time>2014-03-02T11:51:26.000Z</time>
      </trkpt>
      <trkpt lat="45.34379" lon="6.19989">
        <ele>2274.8000488281</ele>
        <time>2014-03-02T11:51:27.000Z</time>
      </trkpt>
      <trkpt lat="45.34379" lon="6.19989">
        <ele>2274.8000488281</ele>
        <time>2014-03-02T11:51:28.000Z</time>
      </trkpt>
      <trkpt lat="45.34378" lon="6.19988">
        <ele>2274.8000488281</ele>
        <time>2014-03-02T11:51:29.000Z</time>
      </trkpt>
      <trkpt lat="45.34378" lon="6.19988">
        <ele>2274.8000488281</ele>
        <time>2014-03-02T11:51:30.000Z</time>
      </trkpt>
      <trkpt lat="45.34379" lon="6.19987">
        <ele>2275.3999023438</ele>
        <time>2014-03-02T11:51:31.000Z</time>
      </trkpt>
      <trkpt lat="45.34379" lon="6.19986">
        <ele>2276</ele>
        <time>2014-03-02T11:51:32.000Z</time>
      </trkpt>
      <trkpt lat="45.34379" lon="6.19985">
        <ele>2276.3999023438</ele>
        <time>2014-03-02T11:51:33.000Z</time>
      </trkpt>
      <trkpt lat="45.3438" lon="6.19985">
        <ele>2276.8000488281</ele>
        <time>2014-03-02T11:51:34.000Z</time>
      </trkpt>
      <trkpt lat="45.3438" lon="6.19984">
        <ele>2277</ele>
        <time>2014-03-02T11:51:35.000Z</time>
      </trkpt>
      <trkpt lat="45.3438" lon="6.19984">
        <ele>2277.3999023438</ele>
        <time>2014-03-02T11:51:36.000Z</time>
      </trkpt>
      <trkpt lat="45.34381" lon="6.19984">
        <ele>2277.6000976562</ele>
        <time>2014-03-02T11:51:37.000Z</time>
      </trkpt>
      <trkpt lat="45.34381" lon="6.19983">
        <ele>2277.8000488281</ele>
        <time>2014-03-02T11:51:38.000Z</time>
      </trkpt>
      <trkpt lat="45.34381" lon="6.19983">
        <ele>2277.8000488281</ele>
        <time>2014-03-02T11:51:39.000Z</time>
      </trkpt>
      <trkpt lat="45.34381" lon="6.19983">
        <ele>2278</ele>
        <time>2014-03-02T11:51:40.000Z</time>
      </trkpt>
      <trkpt lat="45.34381" lon="6.19983">
        <ele>2278</ele>
        <time>2014-03-02T11:51:41.000Z</time>
      </trkpt>
      <trkpt lat="45.34381" lon="6.19983">
        <ele>2278</ele>
        <time>2014-03-02T11:51:42.000Z</time>
      </trkpt>
      <trkpt lat="45.3438" lon="6.19983">
        <ele>2277.8000488281</ele>
        <time>2014-03-02T11:51:43.000Z</time>
      </trkpt>
      <trkpt lat="45.34381" lon="6.19983">
        <ele>2277.8000488281</ele>
        <time>2014-03-02T11:51:44.000Z</time>
      </trkpt>
      <trkpt lat="45.34381" lon="6.19982">
        <ele>2278</ele>
        <time>2014-03-02T11:51:45.000Z</time>
      </trkpt>
      <trkpt lat="45.34381" lon="6.19982">
        <ele>2278.3999023438</ele>
        <time>2014-03-02T11:51:46.000Z</time>
      </trkpt>
      <trkpt lat="45.34382" lon="6.19982">
        <ele>2278.6000976562</ele>
        <time>2014-03-02T11:51:47.000Z</time>
      </trkpt>
      <trkpt lat="45.34382" lon="6.19982">
        <ele>2278.6000976562</ele>
        <time>2014-03-02T11:51:48.000Z</time>
      </trkpt>
      <trkpt lat="45.34382" lon="6.19982">
        <ele>2278.6000976562</ele>
        <time>2014-03-02T11:51:49.000Z</time>
      </trkpt>
      <trkpt lat="45.34382" lon="6.19982">
        <ele>2278.6000976562</ele>
        <time>2014-03-02T11:51:50.000Z</time>
      </trkpt>
      <trkpt lat="45.34382" lon="6.19982">
        <ele>2278.6000976562</ele>
        <time>2014-03-02T11:51:51.000Z</time>
      </trkpt>
      <trkpt lat="45.34382" lon="6.19982">
        <ele>2278.6000976562</ele>
        <time>2014-03-02T11:51:52.000Z</time>
      </trkpt>
      <trkpt lat="45.34382" lon="6.19982">
        <ele>2278.8000488281</ele>
        <time>2014-03-02T11:51:53.000Z</time>
      </trkpt>
      <trkpt lat="45.34382" lon="6.19981">
        <ele>2279.3999023438</ele>
        <time>2014-03-02T11:51:54.000Z</time>
      </trkpt>
      <trkpt lat="45.34382" lon="6.19981">
        <ele>2279.8000488281</ele>
        <time>2014-03-02T11:51:55.000Z</time>
      </trkpt>
      <trkpt lat="45.34383" lon="6.1998">
        <ele>2280.6000976562</ele>
        <time>2014-03-02T11:51:56.000Z</time>
      </trkpt>
      <trkpt lat="45.34384" lon="6.19979">
        <ele>2281.1999511719</ele>
        <time>2014-03-02T11:51:57.000Z</time>
      </trkpt>
      <trkpt lat="45.34385" lon="6.1998">
        <ele>2281.3999023438</ele>
        <time>2014-03-02T11:51:58.000Z</time>
      </trkpt>
      <trkpt lat="45.34386" lon="6.1998">
        <ele>2281.6000976562</ele>
        <time>2014-03-02T11:51:59.000Z</time>
      </trkpt>
      <trkpt lat="45.34387" lon="6.19979">
        <ele>2282.6000976562</ele>
        <time>2014-03-02T11:52:00.000Z</time>
      </trkpt>
      <trkpt lat="45.34388" lon="6.19979">
        <ele>2283.1999511719</ele>
        <time>2014-03-02T11:52:01.000Z</time>
      </trkpt>
      <trkpt lat="45.34389" lon="6.19979">
        <ele>2283.6000976562</ele>
        <time>2014-03-02T11:52:02.000Z</time>
      </trkpt>
      <trkpt lat="45.34389" lon="6.19978">
        <ele>2284</ele>
        <time>2014-03-02T11:52:03.000Z</time>
      </trkpt>
      <trkpt lat="45.34389" lon="6.19979">
        <ele>2283.6000976562</ele>
        <time>2014-03-02T11:52:04.000Z</time>
      </trkpt>
      <trkpt lat="45.3439" lon="6.1998">
        <ele>2283.6000976562</ele>
        <time>2014-03-02T11:52:05.000Z</time>
      </trkpt>
      <trkpt lat="45.3439" lon="6.1998">
        <ele>2283.8000488281</ele>
        <time>2014-03-02T11:52:06.000Z</time>
      </trkpt>
      <trkpt lat="45.34391" lon="6.19981">
        <ele>2283.8000488281</ele>
        <time>2014-03-02T11:52:07.000Z</time>
      </trkpt>
      <trkpt lat="45.34391" lon="6.19981">
        <ele>2283.6000976562</ele>
        <time>2014-03-02T11:52:08.000Z</time>
      </trkpt>
      <trkpt lat="45.34392" lon="6.19982">
        <ele>2283.6000976562</ele>
        <time>2014-03-02T11:52:09.000Z</time>
      </trkpt>
      <trkpt lat="45.34392" lon="6.19982">
        <ele>2283.8000488281</ele>
        <time>2014-03-02T11:52:10.000Z</time>
      </trkpt>
      <trkpt lat="45.34392" lon="6.19982">
        <ele>2283.8000488281</ele>
        <time>2014-03-02T11:52:11.000Z</time>
      </trkpt>
      <trkpt lat="45.34392" lon="6.19982">
        <ele>2284</ele>
        <time>2014-03-02T11:52:12.000Z</time>
      </trkpt>
      <trkpt lat="45.34393" lon="6.19982">
        <ele>2284.1999511719</ele>
        <time>2014-03-02T11:52:13.000Z</time>
      </trkpt>
      <trkpt lat="45.34392" lon="6.19983">
        <ele>2283.6000976562</ele>
        <time>2014-03-02T11:52:14.000Z</time>
      </trkpt>
      <trkpt lat="45.34392" lon="6.19985">
        <ele>2282.6000976562</ele>
        <time>2014-03-02T11:52:15.000Z</time>
      </trkpt>
      <trkpt lat="45.34392" lon="6.19987">
        <ele>2281.3999023438</ele>
        <time>2014-03-02T11:52:16.000Z</time>
      </trkpt>
      <trkpt lat="45.34391" lon="6.19989">
        <ele>2280.1999511719</ele>
        <time>2014-03-02T11:52:17.000Z</time>
      </trkpt>
      <trkpt lat="45.34391" lon="6.19989">
        <ele>2280.1999511719</ele>
        <time>2014-03-02T11:52:18.000Z</time>
      </trkpt>
      <trkpt lat="45.34391" lon="6.19989">
        <ele>2280.1999511719</ele>
        <time>2014-03-02T11:52:19.000Z</time>
      </trkpt>
      <trkpt lat="45.34391" lon="6.19989">
        <ele>2280.1999511719</ele>
        <time>2014-03-02T11:52:20.000Z</time>
      </trkpt>
      <trkpt lat="45.34391" lon="6.19989">
        <ele>2280.1999511719</ele>
        <time>2014-03-02T11:52:21.000Z</time>
      </trkpt>
      <trkpt lat="45.34391" lon="6.19989">
        <ele>2280.1999511719</ele>
        <time>2014-03-02T11:52:22.000Z</time>
      </trkpt>
      <trkpt lat="45.34391" lon="6.19989">
        <ele>2280.1999511719</ele>
        <time>2014-03-02T11:52:23.000Z</time>
      </trkpt>
      <trkpt lat="45.3439" lon="6.19992">
        <ele>2278.6000976562</ele>
        <time>2014-03-02T11:52:24.000Z</time>
      </trkpt>
      <trkpt lat="45.3439" lon="6.19992">
        <ele>2278.6000976562</ele>
        <time>2014-03-02T11:52:25.000Z</time>
      </trkpt>
      <trkpt lat="45.3439" lon="6.19994">
        <ele>2277.1999511719</ele>
        <time>2014-03-02T11:52:26.000Z</time>
      </trkpt>
      <trkpt lat="45.3439" lon="6.19996">
        <ele>2276.3999023438</ele>
        <time>2014-03-02T11:52:27.000Z</time>
      </trkpt>
      <trkpt lat="45.3439" lon="6.19998">
        <ele>2275.8000488281</ele>
        <time>2014-03-02T11:52:28.000Z</time>
      </trkpt>
      <trkpt lat="45.34391" lon="6.19999">
        <ele>2275.6000976562</ele>
        <time>2014-03-02T11:52:29.000Z</time>
      </trkpt>
      <trkpt lat="45.34391" lon="6.20001">
        <ele>2275</ele>
        <time>2014-03-02T11:52:30.000Z</time>
      </trkpt>
      <trkpt lat="45.34391" lon="6.20002">
        <ele>2274.6000976562</ele>
        <time>2014-03-02T11:52:31.000Z</time>
      </trkpt>
      <trkpt lat="45.34391" lon="6.20003">
        <ele>2274</ele>
        <time>2014-03-02T11:52:32.000Z</time>
      </trkpt>
      <trkpt lat="45.34391" lon="6.20004">
        <ele>2273.3999023438</ele>
        <time>2014-03-02T11:52:33.000Z</time>
      </trkpt>
      <trkpt lat="45.34391" lon="6.20004">
        <ele>2273.3999023438</ele>
        <time>2014-03-02T11:52:34.000Z</time>
      </trkpt>
      <trkpt lat="45.34391" lon="6.20004">
        <ele>2273.3999023438</ele>
        <time>2014-03-02T11:52:35.000Z</time>
      </trkpt>
      <trkpt lat="45.34391" lon="6.20004">
        <ele>2273.3999023438</ele>
        <time>2014-03-02T11:52:36.000Z</time>
      </trkpt>
      <trkpt lat="45.34391" lon="6.20004">
        <ele>2273.3999023438</ele>
        <time>2014-03-02T11:52:37.000Z</time>
      </trkpt>
      <trkpt lat="45.34391" lon="6.20004">
        <ele>2273.3999023438</ele>
        <time>2014-03-02T11:52:38.000Z</time>
      </trkpt>
      <trkpt lat="45.34391" lon="6.20004">
        <ele>2273.3999023438</ele>
        <time>2014-03-02T11:52:39.000Z</time>
      </trkpt>
      <trkpt lat="45.34391" lon="6.20004">
        <ele>2273.3999023438</ele>
        <time>2014-03-02T11:52:41.000Z</time>
      </trkpt>
      <trkpt lat="45.34391" lon="6.20005">
        <ele>2273</ele>
        <time>2014-03-02T11:52:42.000Z</time>
      </trkpt>
      <trkpt lat="45.34391" lon="6.20005">
        <ele>2273</ele>
        <time>2014-03-02T11:52:43.000Z</time>
      </trkpt>
      <trkpt lat="45.34392" lon="6.20006">
        <ele>2273</ele>
        <time>2014-03-02T11:52:44.000Z</time>
      </trkpt>
      <trkpt lat="45.34392" lon="6.20006">
        <ele>2273</ele>
        <time>2014-03-02T11:52:45.000Z</time>
      </trkpt>
      <trkpt lat="45.34392" lon="6.20006">
        <ele>2273</ele>
        <time>2014-03-02T11:52:46.000Z</time>
      </trkpt>
      <trkpt lat="45.34392" lon="6.20006">
        <ele>2273</ele>
        <time>2014-03-02T11:52:47.000Z</time>
      </trkpt>
      <trkpt lat="45.34392" lon="6.20006">
        <ele>2273</ele>
        <time>2014-03-02T11:52:48.000Z</time>
      </trkpt>
      <trkpt lat="45.34392" lon="6.20006">
        <ele>2273</ele>
        <time>2014-03-02T11:52:49.000Z</time>
      </trkpt>
      <trkpt lat="45.34392" lon="6.20006">
        <ele>2273</ele>
        <time>2014-03-02T11:52:50.000Z</time>
      </trkpt>
      <trkpt lat="45.34392" lon="6.20006">
        <ele>2273</ele>
        <time>2014-03-02T11:52:51.000Z</time>
      </trkpt>
      <trkpt lat="45.34392" lon="6.20006">
        <ele>2273</ele>
        <time>2014-03-02T11:52:52.000Z</time>
      </trkpt>
      <trkpt lat="45.34393" lon="6.20006">
        <ele>2273.3999023438</ele>
        <time>2014-03-02T11:52:53.000Z</time>
      </trkpt>
      <trkpt lat="45.34393" lon="6.20006">
        <ele>2273.3999023438</ele>
        <time>2014-03-02T11:52:54.000Z</time>
      </trkpt>
      <trkpt lat="45.34393" lon="6.20006">
        <ele>2273.3999023438</ele>
        <time>2014-03-02T11:52:55.000Z</time>
      </trkpt>
      <trkpt lat="45.34393" lon="6.20006">
        <ele>2273.3999023438</ele>
        <time>2014-03-02T11:52:56.000Z</time>
      </trkpt>
      <trkpt lat="45.34392" lon="6.20005">
        <ele>2273.6000976562</ele>
        <time>2014-03-02T11:52:57.000Z</time>
      </trkpt>
      <trkpt lat="45.34392" lon="6.20005">
        <ele>2273.6000976562</ele>
        <time>2014-03-02T11:52:58.000Z</time>
      </trkpt>
      <trkpt lat="45.34392" lon="6.20005">
        <ele>2273.8000488281</ele>
        <time>2014-03-02T11:52:59.000Z</time>
      </trkpt>
      <trkpt lat="45.34392" lon="6.20005">
        <ele>2273.8000488281</ele>
        <time>2014-03-02T11:53:00.000Z</time>
      </trkpt>
      <trkpt lat="45.34393" lon="6.20003">
        <ele>2274.6000976562</ele>
        <time>2014-03-02T11:53:01.000Z</time>
      </trkpt>
      <trkpt lat="45.34393" lon="6.20003">
        <ele>2274.6000976562</ele>
        <time>2014-03-02T11:53:02.000Z</time>
      </trkpt>
      <trkpt lat="45.34392" lon="6.20002">
        <ele>2275</ele>
        <time>2014-03-02T11:53:03.000Z</time>
      </trkpt>
      <trkpt lat="45.34392" lon="6.20002">
        <ele>2275</ele>
        <time>2014-03-02T11:53:04.000Z</time>
      </trkpt>
      <trkpt lat="45.34392" lon="6.20001">
        <ele>2275.3999023438</ele>
        <time>2014-03-02T11:53:05.000Z</time>
      </trkpt>
      <trkpt lat="45.34392" lon="6.2">
        <ele>2275.6000976562</ele>
        <time>2014-03-02T11:53:06.000Z</time>
      </trkpt>
      <trkpt lat="45.34392" lon="6.19999">
        <ele>2275.8000488281</ele>
        <time>2014-03-02T11:53:07.000Z</time>
      </trkpt>
      <trkpt lat="45.34392" lon="6.19999">
        <ele>2276</ele>
        <time>2014-03-02T11:53:08.000Z</time>
      </trkpt>
      <trkpt lat="45.34391" lon="6.19998">
        <ele>2276.1999511719</ele>
        <time>2014-03-02T11:53:09.000Z</time>
      </trkpt>
      <trkpt lat="45.34391" lon="6.19998">
        <ele>2276.3999023438</ele>
        <time>2014-03-02T11:53:10.000Z</time>
      </trkpt>
      <trkpt lat="45.34391" lon="6.19998">
        <ele>2276.3999023438</ele>
        <time>2014-03-02T11:53:11.000Z</time>
      </trkpt>
      <trkpt lat="45.34391" lon="6.19998">
        <ele>2276.3999023438</ele>
        <time>2014-03-02T11:53:12.000Z</time>
      </trkpt>
      <trkpt lat="45.34391" lon="6.19998">
        <ele>2276.3999023438</ele>
        <time>2014-03-02T11:53:13.000Z</time>
      </trkpt>
      <trkpt lat="45.34391" lon="6.19998">
        <ele>2276.3999023438</ele>
        <time>2014-03-02T11:53:14.000Z</time>
      </trkpt>
      <trkpt lat="45.34391" lon="6.19997">
        <ele>2276.8000488281</ele>
        <time>2014-03-02T11:53:15.000Z</time>
      </trkpt>
      <trkpt lat="45.34391" lon="6.19997">
        <ele>2276.8000488281</ele>
        <time>2014-03-02T11:53:16.000Z</time>
      </trkpt>
      <trkpt lat="45.34391" lon="6.19996">
        <ele>2277.1999511719</ele>
        <time>2014-03-02T11:53:17.000Z</time>
      </trkpt>
      <trkpt lat="45.34391" lon="6.19996">
        <ele>2277.1999511719</ele>
        <time>2014-03-02T11:53:18.000Z</time>
      </trkpt>
      <trkpt lat="45.34391" lon="6.19996">
        <ele>2277.1999511719</ele>
        <time>2014-03-02T11:53:19.000Z</time>
      </trkpt>
      <trkpt lat="45.34391" lon="6.19996">
        <ele>2277.1999511719</ele>
        <time>2014-03-02T11:53:20.000Z</time>
      </trkpt>
      <trkpt lat="45.34391" lon="6.19996">
        <ele>2277.1999511719</ele>
        <time>2014-03-02T11:53:21.000Z</time>
      </trkpt>
      <trkpt lat="45.34391" lon="6.19996">
        <ele>2277.1999511719</ele>
        <time>2014-03-02T11:53:22.000Z</time>
      </trkpt>
      <trkpt lat="45.34391" lon="6.19996">
        <ele>2277.1999511719</ele>
        <time>2014-03-02T11:53:24.000Z</time>
      </trkpt>
      <trkpt lat="45.34391" lon="6.19995">
        <ele>2277.6000976562</ele>
        <time>2014-03-02T11:53:25.000Z</time>
      </trkpt>
      <trkpt lat="45.34391" lon="6.19995">
        <ele>2277.6000976562</ele>
        <time>2014-03-02T11:53:26.000Z</time>
      </trkpt>
      <trkpt lat="45.34391" lon="6.19994">
        <ele>2278</ele>
        <time>2014-03-02T11:53:27.000Z</time>
      </trkpt>
      <trkpt lat="45.34391" lon="6.19993">
        <ele>2278.3999023438</ele>
        <time>2014-03-02T11:53:28.000Z</time>
      </trkpt>
      <trkpt lat="45.34391" lon="6.19992">
        <ele>2278.8000488281</ele>
        <time>2014-03-02T11:53:29.000Z</time>
      </trkpt>
      <trkpt lat="45.3439" lon="6.1999">
        <ele>2279.1999511719</ele>
        <time>2014-03-02T11:53:30.000Z</time>
      </trkpt>
      <trkpt lat="45.3439" lon="6.19989">
        <ele>2279.8000488281</ele>
        <time>2014-03-02T11:53:31.000Z</time>
      </trkpt>
      <trkpt lat="45.3439" lon="6.19989">
        <ele>2279.8000488281</ele>
        <time>2014-03-02T11:53:32.000Z</time>
      </trkpt>
      <trkpt lat="45.3439" lon="6.19988">
        <ele>2280</ele>
        <time>2014-03-02T11:53:33.000Z</time>
      </trkpt>
      <trkpt lat="45.3439" lon="6.19988">
        <ele>2280</ele>
        <time>2014-03-02T11:53:34.000Z</time>
      </trkpt>
      <trkpt lat="45.34389" lon="6.19987">
        <ele>2280.3999023438</ele>
        <time>2014-03-02T11:53:35.000Z</time>
      </trkpt>
      <trkpt lat="45.34389" lon="6.19985">
        <ele>2281</ele>
        <time>2014-03-02T11:53:36.000Z</time>
      </trkpt>
      <trkpt lat="45.34388" lon="6.19984">
        <ele>2281.3999023438</ele>
        <time>2014-03-02T11:53:37.000Z</time>
      </trkpt>
      <trkpt lat="45.34388" lon="6.19981">
        <ele>2282</ele>
        <time>2014-03-02T11:53:38.000Z</time>
      </trkpt>
      <trkpt lat="45.34388" lon="6.19981">
        <ele>2282</ele>
        <time>2014-03-02T11:53:39.000Z</time>
      </trkpt>
      <trkpt lat="45.34388" lon="6.19981">
        <ele>2282</ele>
        <time>2014-03-02T11:53:40.000Z</time>
      </trkpt>
      <trkpt lat="45.34388" lon="6.19981">
        <ele>2282</ele>
        <time>2014-03-02T11:53:41.000Z</time>
      </trkpt>
      <trkpt lat="45.34388" lon="6.19981">
        <ele>2282</ele>
        <time>2014-03-02T11:53:42.000Z</time>
      </trkpt>
      <trkpt lat="45.34388" lon="6.19981">
        <ele>2282</ele>
        <time>2014-03-02T11:53:43.000Z</time>
      </trkpt>
      <trkpt lat="45.34388" lon="6.19981">
        <ele>2282</ele>
        <time>2014-03-02T11:53:44.000Z</time>
      </trkpt>
      <trkpt lat="45.34388" lon="6.19981">
        <ele>2282</ele>
        <time>2014-03-02T11:53:45.000Z</time>
      </trkpt>
      <trkpt lat="45.34388" lon="6.19981">
        <ele>2282</ele>
        <time>2014-03-02T11:53:46.000Z</time>
      </trkpt>
      <trkpt lat="45.34388" lon="6.19981">
        <ele>2282</ele>
        <time>2014-03-02T11:53:47.000Z</time>
      </trkpt>
      <trkpt lat="45.34388" lon="6.19981">
        <ele>2282</ele>
        <time>2014-03-02T11:53:48.000Z</time>
      </trkpt>
      <trkpt lat="45.34388" lon="6.19981">
        <ele>2282</ele>
        <time>2014-03-02T11:53:49.000Z</time>
      </trkpt>
      <trkpt lat="45.34387" lon="6.1998">
        <ele>2282.3999023438</ele>
        <time>2014-03-02T11:53:50.000Z</time>
      </trkpt>
      <trkpt lat="45.34387" lon="6.19978">
        <ele>2283</ele>
        <time>2014-03-02T11:53:51.000Z</time>
      </trkpt>
      <trkpt lat="45.34387" lon="6.19977">
        <ele>2283.3999023438</ele>
        <time>2014-03-02T11:53:52.000Z</time>
      </trkpt>
      <trkpt lat="45.34387" lon="6.19976">
        <ele>2283.8000488281</ele>
        <time>2014-03-02T11:53:53.000Z</time>
      </trkpt>
      <trkpt lat="45.34387" lon="6.19975">
        <ele>2284.1999511719</ele>
        <time>2014-03-02T11:53:54.000Z</time>
      </trkpt>
      <trkpt lat="45.34388" lon="6.19974">
        <ele>2284.6000976562</ele>
        <time>2014-03-02T11:53:55.000Z</time>
      </trkpt>
      <trkpt lat="45.34388" lon="6.19973">
        <ele>2285</ele>
        <time>2014-03-02T11:53:56.000Z</time>
      </trkpt>
      <trkpt lat="45.34388" lon="6.19972">
        <ele>2285.6000976562</ele>
        <time>2014-03-02T11:53:57.000Z</time>
      </trkpt>
      <trkpt lat="45.34389" lon="6.19971">
        <ele>2286</ele>
        <time>2014-03-02T11:53:58.000Z</time>
      </trkpt>
      <trkpt lat="45.3439" lon="6.19971">
        <ele>2286.6000976562</ele>
        <time>2014-03-02T11:53:59.000Z</time>
      </trkpt>
      <trkpt lat="45.3439" lon="6.1997">
        <ele>2287.1999511719</ele>
        <time>2014-03-02T11:54:00.000Z</time>
      </trkpt>
      <trkpt lat="45.34391" lon="6.19969">
        <ele>2287.8000488281</ele>
        <time>2014-03-02T11:54:01.000Z</time>
      </trkpt>
      <trkpt lat="45.34391" lon="6.19969">
        <ele>2288.1999511719</ele>
        <time>2014-03-02T11:54:02.000Z</time>
      </trkpt>
      <trkpt lat="45.34392" lon="6.19968">
        <ele>2288.6000976562</ele>
        <time>2014-03-02T11:54:03.000Z</time>
      </trkpt>
      <trkpt lat="45.34393" lon="6.19968">
        <ele>2289.1999511719</ele>
        <time>2014-03-02T11:54:04.000Z</time>
      </trkpt>
      <trkpt lat="45.34394" lon="6.19967">
        <ele>2289.8000488281</ele>
        <time>2014-03-02T11:54:05.000Z</time>
      </trkpt>
      <trkpt lat="45.34394" lon="6.19967">
        <ele>2290</ele>
        <time>2014-03-02T11:54:06.000Z</time>
      </trkpt>
      <trkpt lat="45.34394" lon="6.19967">
        <ele>2290</ele>
        <time>2014-03-02T11:54:07.000Z</time>
      </trkpt>
      <trkpt lat="45.34394" lon="6.19966">
        <ele>2290.3999023438</ele>
        <time>2014-03-02T11:54:08.000Z</time>
      </trkpt>
      <trkpt lat="45.34395" lon="6.19966">
        <ele>2291</ele>
        <time>2014-03-02T11:54:09.000Z</time>
      </trkpt>
      <trkpt lat="45.34395" lon="6.19967">
        <ele>2290.8000488281</ele>
        <time>2014-03-02T11:54:10.000Z</time>
      </trkpt>
      <trkpt lat="45.34395" lon="6.19967">
        <ele>2290.8000488281</ele>
        <time>2014-03-02T11:54:11.000Z</time>
      </trkpt>
      <trkpt lat="45.34395" lon="6.19967">
        <ele>2290.8000488281</ele>
        <time>2014-03-02T11:54:12.000Z</time>
      </trkpt>
      <trkpt lat="45.34395" lon="6.19967">
        <ele>2290.8000488281</ele>
        <time>2014-03-02T11:54:13.000Z</time>
      </trkpt>
      <trkpt lat="45.34395" lon="6.19967">
        <ele>2290.8000488281</ele>
        <time>2014-03-02T11:54:14.000Z</time>
      </trkpt>
      <trkpt lat="45.34395" lon="6.19967">
        <ele>2290.8000488281</ele>
        <time>2014-03-02T11:54:15.000Z</time>
      </trkpt>
      <trkpt lat="45.34395" lon="6.19967">
        <ele>2290.8000488281</ele>
        <time>2014-03-02T11:54:16.000Z</time>
      </trkpt>
      <trkpt lat="45.34395" lon="6.19967">
        <ele>2290.8000488281</ele>
        <time>2014-03-02T11:54:17.000Z</time>
      </trkpt>
      <trkpt lat="45.34395" lon="6.19967">
        <ele>2290.8000488281</ele>
        <time>2014-03-02T11:54:18.000Z</time>
      </trkpt>
      <trkpt lat="45.34395" lon="6.19967">
        <ele>2290.8000488281</ele>
        <time>2014-03-02T11:54:19.000Z</time>
      </trkpt>
      <trkpt lat="45.34395" lon="6.19967">
        <ele>2290.8000488281</ele>
        <time>2014-03-02T11:54:20.000Z</time>
      </trkpt>
      <trkpt lat="45.34395" lon="6.19967">
        <ele>2290.8000488281</ele>
        <time>2014-03-02T11:54:21.000Z</time>
      </trkpt>
      <trkpt lat="45.34395" lon="6.19967">
        <ele>2290.8000488281</ele>
        <time>2014-03-02T11:54:22.000Z</time>
      </trkpt>
      <trkpt lat="45.34396" lon="6.19968">
        <ele>2290.6000976562</ele>
        <time>2014-03-02T11:54:23.000Z</time>
      </trkpt>
      <trkpt lat="45.34396" lon="6.19968">
        <ele>2290.6000976562</ele>
        <time>2014-03-02T11:54:24.000Z</time>
      </trkpt>
      <trkpt lat="45.34396" lon="6.19971">
        <ele>2289.6000976562</ele>
        <time>2014-03-02T11:54:25.000Z</time>
      </trkpt>
      <trkpt lat="45.34397" lon="6.19971">
        <ele>2289.8000488281</ele>
        <time>2014-03-02T11:54:26.000Z</time>
      </trkpt>
      <trkpt lat="45.34397" lon="6.19971">
        <ele>2289.8000488281</ele>
        <time>2014-03-02T11:54:27.000Z</time>
      </trkpt>
      <trkpt lat="45.34397" lon="6.19971">
        <ele>2289.8000488281</ele>
        <time>2014-03-02T11:54:28.000Z</time>
      </trkpt>
      <trkpt lat="45.34397" lon="6.19971">
        <ele>2289.8000488281</ele>
        <time>2014-03-02T11:54:29.000Z</time>
      </trkpt>
      <trkpt lat="45.34397" lon="6.19971">
        <ele>2289.8000488281</ele>
        <time>2014-03-02T11:54:30.000Z</time>
      </trkpt>
      <trkpt lat="45.34397" lon="6.19971">
        <ele>2289.8000488281</ele>
        <time>2014-03-02T11:54:31.000Z</time>
      </trkpt>
      <trkpt lat="45.34397" lon="6.19971">
        <ele>2289.8000488281</ele>
        <time>2014-03-02T11:54:32.000Z</time>
      </trkpt>
      <trkpt lat="45.34397" lon="6.19971">
        <ele>2289.8000488281</ele>
        <time>2014-03-02T11:54:33.000Z</time>
      </trkpt>
      <trkpt lat="45.34397" lon="6.19971">
        <ele>2289.8000488281</ele>
        <time>2014-03-02T11:54:34.000Z</time>
      </trkpt>
      <trkpt lat="45.34397" lon="6.19971">
        <ele>2289.8000488281</ele>
        <time>2014-03-02T11:54:35.000Z</time>
      </trkpt>
      <trkpt lat="45.34397" lon="6.19971">
        <ele>2289.8000488281</ele>
        <time>2014-03-02T11:54:36.000Z</time>
      </trkpt>
      <trkpt lat="45.34397" lon="6.19971">
        <ele>2289.8000488281</ele>
        <time>2014-03-02T11:54:37.000Z</time>
      </trkpt>
      <trkpt lat="45.34397" lon="6.19971">
        <ele>2289.8000488281</ele>
        <time>2014-03-02T11:54:38.000Z</time>
      </trkpt>
      <trkpt lat="45.34397" lon="6.19971">
        <ele>2289.8000488281</ele>
        <time>2014-03-02T11:54:39.000Z</time>
      </trkpt>
      <trkpt lat="45.34397" lon="6.19971">
        <ele>2289.8000488281</ele>
        <time>2014-03-02T11:54:40.000Z</time>
      </trkpt>
      <trkpt lat="45.34397" lon="6.19972">
        <ele>2289.8000488281</ele>
        <time>2014-03-02T11:54:41.000Z</time>
      </trkpt>
      <trkpt lat="45.34397" lon="6.19972">
        <ele>2289.8000488281</ele>
        <time>2014-03-02T11:54:42.000Z</time>
      </trkpt>
      <trkpt lat="45.34397" lon="6.19972">
        <ele>2289.8000488281</ele>
        <time>2014-03-02T11:54:43.000Z</time>
      </trkpt>
      <trkpt lat="45.34398" lon="6.19973">
        <ele>2290</ele>
        <time>2014-03-02T11:54:44.000Z</time>
      </trkpt>
      <trkpt lat="45.34398" lon="6.19973">
        <ele>2290</ele>
        <time>2014-03-02T11:54:45.000Z</time>
      </trkpt>
      <trkpt lat="45.34399" lon="6.19973">
        <ele>2290.3999023438</ele>
        <time>2014-03-02T11:54:46.000Z</time>
      </trkpt>
      <trkpt lat="45.344" lon="6.19972">
        <ele>2291</ele>
        <time>2014-03-02T11:54:47.000Z</time>
      </trkpt>
      <trkpt lat="45.344" lon="6.19972">
        <ele>2291</ele>
        <time>2014-03-02T11:54:48.000Z</time>
      </trkpt>
      <trkpt lat="45.34401" lon="6.19972">
        <ele>2291.3999023438</ele>
        <time>2014-03-02T11:54:49.000Z</time>
      </trkpt>
      <trkpt lat="45.34401" lon="6.19972">
        <ele>2291.3999023438</ele>
        <time>2014-03-02T11:54:50.000Z</time>
      </trkpt>
      <trkpt lat="45.34401" lon="6.19972">
        <ele>2291.3999023438</ele>
        <time>2014-03-02T11:54:51.000Z</time>
      </trkpt>
      <trkpt lat="45.34401" lon="6.19972">
        <ele>2291.3999023438</ele>
        <time>2014-03-02T11:54:52.000Z</time>
      </trkpt>
      <trkpt lat="45.34401" lon="6.19972">
        <ele>2291.3999023438</ele>
        <time>2014-03-02T11:54:53.000Z</time>
      </trkpt>
      <trkpt lat="45.34402" lon="6.19973">
        <ele>2291.8000488281</ele>
        <time>2014-03-02T11:54:54.000Z</time>
      </trkpt>
      <trkpt lat="45.34402" lon="6.19973">
        <ele>2291.8000488281</ele>
        <time>2014-03-02T11:54:55.000Z</time>
      </trkpt>
      <trkpt lat="45.34402" lon="6.19973">
        <ele>2291.8000488281</ele>
        <time>2014-03-02T11:54:56.000Z</time>
      </trkpt>
      <trkpt lat="45.34404" lon="6.19974">
        <ele>2292.1999511719</ele>
        <time>2014-03-02T11:54:57.000Z</time>
      </trkpt>
      <trkpt lat="45.34404" lon="6.19974">
        <ele>2292.1999511719</ele>
        <time>2014-03-02T11:54:58.000Z</time>
      </trkpt>
      <trkpt lat="45.34404" lon="6.19974">
        <ele>2292.1999511719</ele>
        <time>2014-03-02T11:54:59.000Z</time>
      </trkpt>
      <trkpt lat="45.34404" lon="6.19974">
        <ele>2292.1999511719</ele>
        <time>2014-03-02T11:55:00.000Z</time>
      </trkpt>
      <trkpt lat="45.34404" lon="6.19974">
        <ele>2292.1999511719</ele>
        <time>2014-03-02T11:55:01.000Z</time>
      </trkpt>
      <trkpt lat="45.34405" lon="6.19975">
        <ele>2292.3999023438</ele>
        <time>2014-03-02T11:55:02.000Z</time>
      </trkpt>
      <trkpt lat="45.34406" lon="6.19975">
        <ele>2293</ele>
        <time>2014-03-02T11:55:03.000Z</time>
      </trkpt>
      <trkpt lat="45.34407" lon="6.19975">
        <ele>2293.1999511719</ele>
        <time>2014-03-02T11:55:04.000Z</time>
      </trkpt>
      <trkpt lat="45.34408" lon="6.19976">
        <ele>2293.8000488281</ele>
        <time>2014-03-02T11:55:05.000Z</time>
      </trkpt>
      <trkpt lat="45.34408" lon="6.19976">
        <ele>2293.8000488281</ele>
        <time>2014-03-02T11:55:06.000Z</time>
      </trkpt>
      <trkpt lat="45.3441" lon="6.19976">
        <ele>2294.3999023438</ele>
        <time>2014-03-02T11:55:07.000Z</time>
      </trkpt>
      <trkpt lat="45.3441" lon="6.19976">
        <ele>2294.3999023438</ele>
        <time>2014-03-02T11:55:08.000Z</time>
      </trkpt>
      <trkpt lat="45.3441" lon="6.19976">
        <ele>2294.3999023438</ele>
        <time>2014-03-02T11:55:09.000Z</time>
      </trkpt>
      <trkpt lat="45.3441" lon="6.19976">
        <ele>2294.3999023438</ele>
        <time>2014-03-02T11:55:10.000Z</time>
      </trkpt>
      <trkpt lat="45.3441" lon="6.19976">
        <ele>2294.3999023438</ele>
        <time>2014-03-02T11:55:11.000Z</time>
      </trkpt>
      <trkpt lat="45.3441" lon="6.19976">
        <ele>2294.3999023438</ele>
        <time>2014-03-02T11:55:12.000Z</time>
      </trkpt>
      <trkpt lat="45.3441" lon="6.19976">
        <ele>2294.3999023438</ele>
        <time>2014-03-02T11:55:13.000Z</time>
      </trkpt>
      <trkpt lat="45.3441" lon="6.19976">
        <ele>2294.3999023438</ele>
        <time>2014-03-02T11:55:14.000Z</time>
      </trkpt>
      <trkpt lat="45.3441" lon="6.19976">
        <ele>2294.3999023438</ele>
        <time>2014-03-02T11:55:15.000Z</time>
      </trkpt>
      <trkpt lat="45.3441" lon="6.19976">
        <ele>2294.3999023438</ele>
        <time>2014-03-02T11:55:16.000Z</time>
      </trkpt>
      <trkpt lat="45.3441" lon="6.19976">
        <ele>2294.3999023438</ele>
        <time>2014-03-02T11:55:17.000Z</time>
      </trkpt>
      <trkpt lat="45.3441" lon="6.19976">
        <ele>2294.3999023438</ele>
        <time>2014-03-02T11:55:18.000Z</time>
      </trkpt>
      <trkpt lat="45.3441" lon="6.19976">
        <ele>2294.3999023438</ele>
        <time>2014-03-02T11:55:19.000Z</time>
      </trkpt>
      <trkpt lat="45.3441" lon="6.19976">
        <ele>2294.3999023438</ele>
        <time>2014-03-02T11:55:20.000Z</time>
      </trkpt>
      <trkpt lat="45.3441" lon="6.19976">
        <ele>2294.3999023438</ele>
        <time>2014-03-02T11:55:21.000Z</time>
      </trkpt>
      <trkpt lat="45.3441" lon="6.19977">
        <ele>2294.3999023438</ele>
        <time>2014-03-02T11:55:22.000Z</time>
      </trkpt>
      <trkpt lat="45.3441" lon="6.19976">
        <ele>2294.6000976562</ele>
        <time>2014-03-02T11:55:23.000Z</time>
      </trkpt>
      <trkpt lat="45.34411" lon="6.19976">
        <ele>2294.8000488281</ele>
        <time>2014-03-02T11:55:24.000Z</time>
      </trkpt>
      <trkpt lat="45.34411" lon="6.19976">
        <ele>2295</ele>
        <time>2014-03-02T11:55:25.000Z</time>
      </trkpt>
      <trkpt lat="45.34412" lon="6.19976">
        <ele>2295.1999511719</ele>
        <time>2014-03-02T11:55:26.000Z</time>
      </trkpt>
      <trkpt lat="45.34412" lon="6.19975">
        <ele>2295.3999023438</ele>
        <time>2014-03-02T11:55:27.000Z</time>
      </trkpt>
      <trkpt lat="45.34412" lon="6.19975">
        <ele>2295.6000976562</ele>
        <time>2014-03-02T11:55:28.000Z</time>
      </trkpt>
      <trkpt lat="45.34412" lon="6.19975">
        <ele>2295.6000976562</ele>
        <time>2014-03-02T11:55:29.000Z</time>
      </trkpt>
      <trkpt lat="45.34412" lon="6.19975">
        <ele>2295.6000976562</ele>
        <time>2014-03-02T11:55:30.000Z</time>
      </trkpt>
      <trkpt lat="45.34413" lon="6.19975">
        <ele>2296.1999511719</ele>
        <time>2014-03-02T11:55:31.000Z</time>
      </trkpt>
      <trkpt lat="45.34413" lon="6.19975">
        <ele>2296.1999511719</ele>
        <time>2014-03-02T11:55:32.000Z</time>
      </trkpt>
      <trkpt lat="45.34413" lon="6.19975">
        <ele>2296.1999511719</ele>
        <time>2014-03-02T11:55:33.000Z</time>
      </trkpt>
      <trkpt lat="45.34414" lon="6.19975">
        <ele>2296.3999023438</ele>
        <time>2014-03-02T11:55:34.000Z</time>
      </trkpt>
      <trkpt lat="45.34414" lon="6.19975">
        <ele>2296.3999023438</ele>
        <time>2014-03-02T11:55:35.000Z</time>
      </trkpt>
      <trkpt lat="45.34414" lon="6.19975">
        <ele>2296.3999023438</ele>
        <time>2014-03-02T11:55:36.000Z</time>
      </trkpt>
      <trkpt lat="45.34414" lon="6.19975">
        <ele>2296.3999023438</ele>
        <time>2014-03-02T11:55:37.000Z</time>
      </trkpt>
      <trkpt lat="45.34414" lon="6.19974">
        <ele>2296.6000976562</ele>
        <time>2014-03-02T11:55:38.000Z</time>
      </trkpt>
      <trkpt lat="45.34414" lon="6.19974">
        <ele>2296.8000488281</ele>
        <time>2014-03-02T11:55:39.000Z</time>
      </trkpt>
      <trkpt lat="45.34414" lon="6.19973">
        <ele>2297</ele>
        <time>2014-03-02T11:55:40.000Z</time>
      </trkpt>
      <trkpt lat="45.34414" lon="6.19973">
        <ele>2297.1999511719</ele>
        <time>2014-03-02T11:55:41.000Z</time>
      </trkpt>
      <trkpt lat="45.34414" lon="6.19972">
        <ele>2297.3999023438</ele>
        <time>2014-03-02T11:55:42.000Z</time>
      </trkpt>
      <trkpt lat="45.34414" lon="6.19972">
        <ele>2297.8000488281</ele>
        <time>2014-03-02T11:55:43.000Z</time>
      </trkpt>
      <trkpt lat="45.34414" lon="6.19971">
        <ele>2298</ele>
        <time>2014-03-02T11:55:44.000Z</time>
      </trkpt>
      <trkpt lat="45.34414" lon="6.1997">
        <ele>2298.3999023438</ele>
        <time>2014-03-02T11:55:45.000Z</time>
      </trkpt>
      <trkpt lat="45.34414" lon="6.1997">
        <ele>2298.3999023438</ele>
        <time>2014-03-02T11:55:46.000Z</time>
      </trkpt>
      <trkpt lat="45.34414" lon="6.19969">
        <ele>2298.6000976562</ele>
        <time>2014-03-02T11:55:47.000Z</time>
      </trkpt>
      <trkpt lat="45.34414" lon="6.19968">
        <ele>2298.8000488281</ele>
        <time>2014-03-02T11:55:48.000Z</time>
      </trkpt>
      <trkpt lat="45.34414" lon="6.19967">
        <ele>2299.1999511719</ele>
        <time>2014-03-02T11:55:49.000Z</time>
      </trkpt>
      <trkpt lat="45.34414" lon="6.19967">
        <ele>2299.1999511719</ele>
        <time>2014-03-02T11:55:50.000Z</time>
      </trkpt>
      <trkpt lat="45.34414" lon="6.19966">
        <ele>2299.6000976562</ele>
        <time>2014-03-02T11:55:51.000Z</time>
      </trkpt>
      <trkpt lat="45.34414" lon="6.19965">
        <ele>2300.1999511719</ele>
        <time>2014-03-02T11:55:52.000Z</time>
      </trkpt>
      <trkpt lat="45.34414" lon="6.19965">
        <ele>2300.1999511719</ele>
        <time>2014-03-02T11:55:53.000Z</time>
      </trkpt>
      <trkpt lat="45.34414" lon="6.19964">
        <ele>2300.3999023438</ele>
        <time>2014-03-02T11:55:54.000Z</time>
      </trkpt>
      <trkpt lat="45.34414" lon="6.19964">
        <ele>2300.3999023438</ele>
        <time>2014-03-02T11:55:55.000Z</time>
      </trkpt>
      <trkpt lat="45.34414" lon="6.19963">
        <ele>2300.8000488281</ele>
        <time>2014-03-02T11:55:56.000Z</time>
      </trkpt>
      <trkpt lat="45.34414" lon="6.19963">
        <ele>2300.8000488281</ele>
        <time>2014-03-02T11:55:57.000Z</time>
      </trkpt>
      <trkpt lat="45.34414" lon="6.19963">
        <ele>2300.8000488281</ele>
        <time>2014-03-02T11:55:58.000Z</time>
      </trkpt>
      <trkpt lat="45.34414" lon="6.19962">
        <ele>2301.1999511719</ele>
        <time>2014-03-02T11:55:59.000Z</time>
      </trkpt>
      <trkpt lat="45.34414" lon="6.19962">
        <ele>2301.1999511719</ele>
        <time>2014-03-02T11:56:00.000Z</time>
      </trkpt>
      <trkpt lat="45.34414" lon="6.1996">
        <ele>2301.8000488281</ele>
        <time>2014-03-02T11:56:01.000Z</time>
      </trkpt>
      <trkpt lat="45.34414" lon="6.1996">
        <ele>2301.8000488281</ele>
        <time>2014-03-02T11:56:02.000Z</time>
      </trkpt>
      <trkpt lat="45.34414" lon="6.1996">
        <ele>2301.8000488281</ele>
        <time>2014-03-02T11:56:03.000Z</time>
      </trkpt>
      <trkpt lat="45.34414" lon="6.19959">
        <ele>2302.1999511719</ele>
        <time>2014-03-02T11:56:04.000Z</time>
      </trkpt>
      <trkpt lat="45.34414" lon="6.19959">
        <ele>2302.3999023438</ele>
        <time>2014-03-02T11:56:05.000Z</time>
      </trkpt>
      <trkpt lat="45.34414" lon="6.19958">
        <ele>2302.3999023438</ele>
        <time>2014-03-02T11:56:06.000Z</time>
      </trkpt>
      <trkpt lat="45.34414" lon="6.19958">
        <ele>2302.3999023438</ele>
        <time>2014-03-02T11:56:07.000Z</time>
      </trkpt>
      <trkpt lat="45.34414" lon="6.19958">
        <ele>2302.3999023438</ele>
        <time>2014-03-02T11:56:08.000Z</time>
      </trkpt>
      <trkpt lat="45.34414" lon="6.19958">
        <ele>2302.3999023438</ele>
        <time>2014-03-02T11:56:09.000Z</time>
      </trkpt>
      <trkpt lat="45.34414" lon="6.19958">
        <ele>2302.3999023438</ele>
        <time>2014-03-02T11:56:10.000Z</time>
      </trkpt>
      <trkpt lat="45.34414" lon="6.19958">
        <ele>2302.3999023438</ele>
        <time>2014-03-02T11:56:11.000Z</time>
      </trkpt>
      <trkpt lat="45.34414" lon="6.19958">
        <ele>2302.3999023438</ele>
        <time>2014-03-02T11:56:12.000Z</time>
      </trkpt>
      <trkpt lat="45.34414" lon="6.19958">
        <ele>2302.3999023438</ele>
        <time>2014-03-02T11:56:13.000Z</time>
      </trkpt>
      <trkpt lat="45.34414" lon="6.19958">
        <ele>2302.3999023438</ele>
        <time>2014-03-02T11:56:14.000Z</time>
      </trkpt>
      <trkpt lat="45.34414" lon="6.19957">
        <ele>2302.8000488281</ele>
        <time>2014-03-02T11:56:15.000Z</time>
      </trkpt>
      <trkpt lat="45.34414" lon="6.19957">
        <ele>2302.8000488281</ele>
        <time>2014-03-02T11:56:16.000Z</time>
      </trkpt>
      <trkpt lat="45.34414" lon="6.19956">
        <ele>2303</ele>
        <time>2014-03-02T11:56:17.000Z</time>
      </trkpt>
      <trkpt lat="45.34414" lon="6.19956">
        <ele>2303</ele>
        <time>2014-03-02T11:56:18.000Z</time>
      </trkpt>
      <trkpt lat="45.34414" lon="6.19955">
        <ele>2303.3999023438</ele>
        <time>2014-03-02T11:56:19.000Z</time>
      </trkpt>
      <trkpt lat="45.34414" lon="6.19955">
        <ele>2303.3999023438</ele>
        <time>2014-03-02T11:56:20.000Z</time>
      </trkpt>
      <trkpt lat="45.34414" lon="6.19955">
        <ele>2303.3999023438</ele>
        <time>2014-03-02T11:56:21.000Z</time>
      </trkpt>
      <trkpt lat="45.34414" lon="6.19955">
        <ele>2303.3999023438</ele>
        <time>2014-03-02T11:56:22.000Z</time>
      </trkpt>
      <trkpt lat="45.34414" lon="6.19955">
        <ele>2303.3999023438</ele>
        <time>2014-03-02T11:56:23.000Z</time>
      </trkpt>
      <trkpt lat="45.34414" lon="6.19955">
        <ele>2303.3999023438</ele>
        <time>2014-03-02T11:56:24.000Z</time>
      </trkpt>
      <trkpt lat="45.34414" lon="6.19955">
        <ele>2303.3999023438</ele>
        <time>2014-03-02T11:56:25.000Z</time>
      </trkpt>
      <trkpt lat="45.34414" lon="6.19955">
        <ele>2303.3999023438</ele>
        <time>2014-03-02T11:56:26.000Z</time>
      </trkpt>
      <trkpt lat="45.34414" lon="6.19954">
        <ele>2303.3999023438</ele>
        <time>2014-03-02T11:56:27.000Z</time>
      </trkpt>
      <trkpt lat="45.34414" lon="6.19954">
        <ele>2303.3999023438</ele>
        <time>2014-03-02T11:56:28.000Z</time>
      </trkpt>
      <trkpt lat="45.34414" lon="6.19954">
        <ele>2303.3999023438</ele>
        <time>2014-03-02T11:56:29.000Z</time>
      </trkpt>
      <trkpt lat="45.34414" lon="6.19954">
        <ele>2303.6000976562</ele>
        <time>2014-03-02T11:56:30.000Z</time>
      </trkpt>
      <trkpt lat="45.34413" lon="6.19954">
        <ele>2303.6000976562</ele>
        <time>2014-03-02T11:56:31.000Z</time>
      </trkpt>
      <trkpt lat="45.34413" lon="6.19954">
        <ele>2303.6000976562</ele>
        <time>2014-03-02T11:56:32.000Z</time>
      </trkpt>
      <trkpt lat="45.34413" lon="6.19952">
        <ele>2304</ele>
        <time>2014-03-02T11:56:33.000Z</time>
      </trkpt>
      <trkpt lat="45.34413" lon="6.19951">
        <ele>2304.3999023438</ele>
        <time>2014-03-02T11:56:34.000Z</time>
      </trkpt>
      <trkpt lat="45.34413" lon="6.1995">
        <ele>2304.8000488281</ele>
        <time>2014-03-02T11:56:35.000Z</time>
      </trkpt>
      <trkpt lat="45.34413" lon="6.19948">
        <ele>2305</ele>
        <time>2014-03-02T11:56:36.000Z</time>
      </trkpt>
      <trkpt lat="45.34413" lon="6.19948">
        <ele>2305</ele>
        <time>2014-03-02T11:56:37.000Z</time>
      </trkpt>
      <trkpt lat="45.34412" lon="6.19947">
        <ele>2305.3999023438</ele>
        <time>2014-03-02T11:56:38.000Z</time>
      </trkpt>
      <trkpt lat="45.34412" lon="6.19947">
        <ele>2305.3999023438</ele>
        <time>2014-03-02T11:56:39.000Z</time>
      </trkpt>
      <trkpt lat="45.34412" lon="6.19947">
        <ele>2305.3999023438</ele>
        <time>2014-03-02T11:56:40.000Z</time>
      </trkpt>
      <trkpt lat="45.34412" lon="6.19947">
        <ele>2305.3999023438</ele>
        <time>2014-03-02T11:56:41.000Z</time>
      </trkpt>
      <trkpt lat="45.34412" lon="6.19947">
        <ele>2305.3999023438</ele>
        <time>2014-03-02T11:56:42.000Z</time>
      </trkpt>
      <trkpt lat="45.34412" lon="6.19947">
        <ele>2305.3999023438</ele>
        <time>2014-03-02T11:56:43.000Z</time>
      </trkpt>
      <trkpt lat="45.34412" lon="6.19947">
        <ele>2305.3999023438</ele>
        <time>2014-03-02T11:56:44.000Z</time>
      </trkpt>
      <trkpt lat="45.34412" lon="6.19947">
        <ele>2305.3999023438</ele>
        <time>2014-03-02T11:56:45.000Z</time>
      </trkpt>
      <trkpt lat="45.34412" lon="6.19947">
        <ele>2305.3999023438</ele>
        <time>2014-03-02T11:56:46.000Z</time>
      </trkpt>
      <trkpt lat="45.34412" lon="6.19947">
        <ele>2305.3999023438</ele>
        <time>2014-03-02T11:56:47.000Z</time>
      </trkpt>
      <trkpt lat="45.34412" lon="6.19945">
        <ele>2305.8000488281</ele>
        <time>2014-03-02T11:56:48.000Z</time>
      </trkpt>
      <trkpt lat="45.34411" lon="6.19942">
        <ele>2306.3999023438</ele>
        <time>2014-03-02T11:56:49.000Z</time>
      </trkpt>
      <trkpt lat="45.34411" lon="6.1994">
        <ele>2307</ele>
        <time>2014-03-02T11:56:50.000Z</time>
      </trkpt>
      <trkpt lat="45.34411" lon="6.1994">
        <ele>2307</ele>
        <time>2014-03-02T11:56:51.000Z</time>
      </trkpt>
      <trkpt lat="45.34411" lon="6.1994">
        <ele>2307</ele>
        <time>2014-03-02T11:56:52.000Z</time>
      </trkpt>
      <trkpt lat="45.34411" lon="6.1994">
        <ele>2307</ele>
        <time>2014-03-02T11:56:53.000Z</time>
      </trkpt>
      <trkpt lat="45.34411" lon="6.1994">
        <ele>2307</ele>
        <time>2014-03-02T11:56:54.000Z</time>
      </trkpt>
      <trkpt lat="45.34411" lon="6.1994">
        <ele>2307</ele>
        <time>2014-03-02T11:56:55.000Z</time>
      </trkpt>
      <trkpt lat="45.34411" lon="6.1994">
        <ele>2307</ele>
        <time>2014-03-02T11:56:56.000Z</time>
      </trkpt>
      <trkpt lat="45.34411" lon="6.1994">
        <ele>2307</ele>
        <time>2014-03-02T11:56:57.000Z</time>
      </trkpt>
      <trkpt lat="45.34412" lon="6.1994">
        <ele>2307.1999511719</ele>
        <time>2014-03-02T11:56:58.000Z</time>
      </trkpt>
      <trkpt lat="45.34412" lon="6.1994">
        <ele>2307.1999511719</ele>
        <time>2014-03-02T11:56:59.000Z</time>
      </trkpt>
      <trkpt lat="45.34412" lon="6.1994">
        <ele>2307.1999511719</ele>
        <time>2014-03-02T11:57:00.000Z</time>
      </trkpt>
      <trkpt lat="45.34412" lon="6.1994">
        <ele>2307.1999511719</ele>
        <time>2014-03-02T11:57:01.000Z</time>
      </trkpt>
      <trkpt lat="45.34412" lon="6.1994">
        <ele>2307.1999511719</ele>
        <time>2014-03-02T11:57:02.000Z</time>
      </trkpt>
      <trkpt lat="45.34412" lon="6.1994">
        <ele>2307.1999511719</ele>
        <time>2014-03-02T11:57:03.000Z</time>
      </trkpt>
      <trkpt lat="45.34412" lon="6.1994">
        <ele>2307.1999511719</ele>
        <time>2014-03-02T11:57:04.000Z</time>
      </trkpt>
      <trkpt lat="45.34412" lon="6.1994">
        <ele>2307.1999511719</ele>
        <time>2014-03-02T11:57:05.000Z</time>
      </trkpt>
      <trkpt lat="45.34412" lon="6.1994">
        <ele>2307.1999511719</ele>
        <time>2014-03-02T11:57:06.000Z</time>
      </trkpt>
      <trkpt lat="45.34412" lon="6.1994">
        <ele>2307.1999511719</ele>
        <time>2014-03-02T11:57:07.000Z</time>
      </trkpt>
      <trkpt lat="45.34412" lon="6.1994">
        <ele>2307.1999511719</ele>
        <time>2014-03-02T11:57:08.000Z</time>
      </trkpt>
      <trkpt lat="45.34412" lon="6.1994">
        <ele>2307.1999511719</ele>
        <time>2014-03-02T11:57:09.000Z</time>
      </trkpt>
      <trkpt lat="45.34412" lon="6.19939">
        <ele>2308</ele>
        <time>2014-03-02T11:57:10.000Z</time>
      </trkpt>
      <trkpt lat="45.34412" lon="6.19939">
        <ele>2308</ele>
        <time>2014-03-02T11:57:11.000Z</time>
      </trkpt>
      <trkpt lat="45.34412" lon="6.19939">
        <ele>2308</ele>
        <time>2014-03-02T11:57:12.000Z</time>
      </trkpt>
      <trkpt lat="45.34412" lon="6.19939">
        <ele>2308</ele>
        <time>2014-03-02T11:57:13.000Z</time>
      </trkpt>
      <trkpt lat="45.34412" lon="6.19939">
        <ele>2308</ele>
        <time>2014-03-02T11:57:14.000Z</time>
      </trkpt>
      <trkpt lat="45.34414" lon="6.19937">
        <ele>2309.3999023438</ele>
        <time>2014-03-02T11:57:15.000Z</time>
      </trkpt>
      <trkpt lat="45.34414" lon="6.19937">
        <ele>2309.3999023438</ele>
        <time>2014-03-02T11:57:16.000Z</time>
      </trkpt>
      <trkpt lat="45.34414" lon="6.19937">
        <ele>2309.3999023438</ele>
        <time>2014-03-02T11:57:17.000Z</time>
      </trkpt>
      <trkpt lat="45.34414" lon="6.19937">
        <ele>2309.3999023438</ele>
        <time>2014-03-02T11:57:18.000Z</time>
      </trkpt>
      <trkpt lat="45.34414" lon="6.19937">
        <ele>2309.3999023438</ele>
        <time>2014-03-02T11:57:19.000Z</time>
      </trkpt>
      <trkpt lat="45.34414" lon="6.19937">
        <ele>2309.3999023438</ele>
        <time>2014-03-02T11:57:20.000Z</time>
      </trkpt>
      <trkpt lat="45.34414" lon="6.19937">
        <ele>2309.3999023438</ele>
        <time>2014-03-02T11:57:21.000Z</time>
      </trkpt>
      <trkpt lat="45.34414" lon="6.19937">
        <ele>2309.3999023438</ele>
        <time>2014-03-02T11:57:22.000Z</time>
      </trkpt>
      <trkpt lat="45.34414" lon="6.19937">
        <ele>2309.3999023438</ele>
        <time>2014-03-02T11:57:23.000Z</time>
      </trkpt>
      <trkpt lat="45.34414" lon="6.19937">
        <ele>2309.3999023438</ele>
        <time>2014-03-02T11:57:24.000Z</time>
      </trkpt>
      <trkpt lat="45.34414" lon="6.19937">
        <ele>2309.3999023438</ele>
        <time>2014-03-02T11:57:25.000Z</time>
      </trkpt>
      <trkpt lat="45.34414" lon="6.19937">
        <ele>2309.3999023438</ele>
        <time>2014-03-02T11:57:26.000Z</time>
      </trkpt>
      <trkpt lat="45.34416" lon="6.19937">
        <ele>2310.6000976562</ele>
        <time>2014-03-02T11:57:27.000Z</time>
      </trkpt>
      <trkpt lat="45.34418" lon="6.19936">
        <ele>2311.8000488281</ele>
        <time>2014-03-02T11:57:28.000Z</time>
      </trkpt>
      <trkpt lat="45.3442" lon="6.19935">
        <ele>2313</ele>
        <time>2014-03-02T11:57:29.000Z</time>
      </trkpt>
      <trkpt lat="45.34421" lon="6.19934">
        <ele>2313.8000488281</ele>
        <time>2014-03-02T11:57:30.000Z</time>
      </trkpt>
      <trkpt lat="45.34423" lon="6.19933">
        <ele>2314.3999023438</ele>
        <time>2014-03-02T11:57:31.000Z</time>
      </trkpt>
      <trkpt lat="45.34423" lon="6.19933">
        <ele>2314.3999023438</ele>
        <time>2014-03-02T11:57:32.000Z</time>
      </trkpt>
      <trkpt lat="45.34424" lon="6.19933">
        <ele>2315.1999511719</ele>
        <time>2014-03-02T11:57:33.000Z</time>
      </trkpt>
      <trkpt lat="45.34424" lon="6.19933">
        <ele>2315.1999511719</ele>
        <time>2014-03-02T11:57:34.000Z</time>
      </trkpt>
      <trkpt lat="45.34424" lon="6.19933">
        <ele>2315.1999511719</ele>
        <time>2014-03-02T11:57:35.000Z</time>
      </trkpt>
      <trkpt lat="45.34424" lon="6.19933">
        <ele>2315.1999511719</ele>
        <time>2014-03-02T11:57:36.000Z</time>
      </trkpt>
      <trkpt lat="45.34425" lon="6.19932">
        <ele>2315.8000488281</ele>
        <time>2014-03-02T11:57:37.000Z</time>
      </trkpt>
      <trkpt lat="45.34426" lon="6.1993">
        <ele>2316.6000976562</ele>
        <time>2014-03-02T11:57:38.000Z</time>
      </trkpt>
      <trkpt lat="45.34426" lon="6.1993">
        <ele>2316.8000488281</ele>
        <time>2014-03-02T11:57:39.000Z</time>
      </trkpt>
      <trkpt lat="45.34426" lon="6.1993">
        <ele>2316.8000488281</ele>
        <time>2014-03-02T11:57:40.000Z</time>
      </trkpt>
      <trkpt lat="45.34426" lon="6.19929">
        <ele>2317</ele>
        <time>2014-03-02T11:57:41.000Z</time>
      </trkpt>
      <trkpt lat="45.34426" lon="6.19929">
        <ele>2317</ele>
        <time>2014-03-02T11:57:42.000Z</time>
      </trkpt>
      <trkpt lat="45.34427" lon="6.19929">
        <ele>2317.3999023438</ele>
        <time>2014-03-02T11:57:43.000Z</time>
      </trkpt>
      <trkpt lat="45.34427" lon="6.19929">
        <ele>2317.3999023438</ele>
        <time>2014-03-02T11:57:44.000Z</time>
      </trkpt>
      <trkpt lat="45.34428" lon="6.19928">
        <ele>2317.8000488281</ele>
        <time>2014-03-02T11:57:45.000Z</time>
      </trkpt>
      <trkpt lat="45.34428" lon="6.19927">
        <ele>2318</ele>
        <time>2014-03-02T11:57:46.000Z</time>
      </trkpt>
      <trkpt lat="45.34428" lon="6.19927">
        <ele>2318.1999511719</ele>
        <time>2014-03-02T11:57:47.000Z</time>
      </trkpt>
      <trkpt lat="45.34428" lon="6.19926">
        <ele>2318.1999511719</ele>
        <time>2014-03-02T11:57:48.000Z</time>
      </trkpt>
      <trkpt lat="45.34427" lon="6.19926">
        <ele>2318.3999023438</ele>
        <time>2014-03-02T11:57:49.000Z</time>
      </trkpt>
      <trkpt lat="45.34427" lon="6.19926">
        <ele>2318.3999023438</ele>
        <time>2014-03-02T11:57:50.000Z</time>
      </trkpt>
      <trkpt lat="45.34427" lon="6.19925">
        <ele>2318.6000976562</ele>
        <time>2014-03-02T11:57:51.000Z</time>
      </trkpt>
      <trkpt lat="45.34427" lon="6.19925">
        <ele>2318.6000976562</ele>
        <time>2014-03-02T11:57:52.000Z</time>
      </trkpt>
      <trkpt lat="45.34427" lon="6.19924">
        <ele>2318.8000488281</ele>
        <time>2014-03-02T11:57:53.000Z</time>
      </trkpt>
      <trkpt lat="45.34427" lon="6.19922">
        <ele>2319.1999511719</ele>
        <time>2014-03-02T11:57:54.000Z</time>
      </trkpt>
      <trkpt lat="45.34427" lon="6.19922">
        <ele>2319.1999511719</ele>
        <time>2014-03-02T11:57:55.000Z</time>
      </trkpt>
      <trkpt lat="45.34427" lon="6.19921">
        <ele>2319.1999511719</ele>
        <time>2014-03-02T11:57:56.000Z</time>
      </trkpt>
      <trkpt lat="45.34426" lon="6.19921">
        <ele>2319.1999511719</ele>
        <time>2014-03-02T11:57:57.000Z</time>
      </trkpt>
      <trkpt lat="45.34426" lon="6.1992">
        <ele>2319.3999023438</ele>
        <time>2014-03-02T11:57:58.000Z</time>
      </trkpt>
      <trkpt lat="45.34426" lon="6.1992">
        <ele>2319.3999023438</ele>
        <time>2014-03-02T11:57:59.000Z</time>
      </trkpt>
      <trkpt lat="45.34426" lon="6.1992">
        <ele>2319.3999023438</ele>
        <time>2014-03-02T11:58:00.000Z</time>
      </trkpt>
      <trkpt lat="45.34426" lon="6.1992">
        <ele>2319.1999511719</ele>
        <time>2014-03-02T11:58:01.000Z</time>
      </trkpt>
      <trkpt lat="45.34426" lon="6.1992">
        <ele>2319.1999511719</ele>
        <time>2014-03-02T11:58:02.000Z</time>
      </trkpt>
      <trkpt lat="45.34426" lon="6.1992">
        <ele>2319.1999511719</ele>
        <time>2014-03-02T11:58:03.000Z</time>
      </trkpt>
      <trkpt lat="45.34426" lon="6.1992">
        <ele>2319.1999511719</ele>
        <time>2014-03-02T11:58:04.000Z</time>
      </trkpt>
      <trkpt lat="45.34426" lon="6.1992">
        <ele>2319.1999511719</ele>
        <time>2014-03-02T11:58:05.000Z</time>
      </trkpt>
      <trkpt lat="45.34426" lon="6.1992">
        <ele>2319.1999511719</ele>
        <time>2014-03-02T11:58:06.000Z</time>
      </trkpt>
      <trkpt lat="45.34426" lon="6.1992">
        <ele>2319.1999511719</ele>
        <time>2014-03-02T11:58:07.000Z</time>
      </trkpt>
      <trkpt lat="45.34426" lon="6.19919">
        <ele>2319.3999023438</ele>
        <time>2014-03-02T11:58:08.000Z</time>
      </trkpt>
      <trkpt lat="45.34426" lon="6.19919">
        <ele>2319.3999023438</ele>
        <time>2014-03-02T11:58:09.000Z</time>
      </trkpt>
      <trkpt lat="45.34426" lon="6.19919">
        <ele>2319.3999023438</ele>
        <time>2014-03-02T11:58:10.000Z</time>
      </trkpt>
      <trkpt lat="45.34426" lon="6.19919">
        <ele>2319.3999023438</ele>
        <time>2014-03-02T11:58:11.000Z</time>
      </trkpt>
      <trkpt lat="45.34426" lon="6.19919">
        <ele>2319.3999023438</ele>
        <time>2014-03-02T11:58:12.000Z</time>
      </trkpt>
      <trkpt lat="45.34426" lon="6.19919">
        <ele>2319.3999023438</ele>
        <time>2014-03-02T11:58:13.000Z</time>
      </trkpt>
      <trkpt lat="45.34426" lon="6.19919">
        <ele>2319.3999023438</ele>
        <time>2014-03-02T11:58:14.000Z</time>
      </trkpt>
      <trkpt lat="45.34425" lon="6.19918">
        <ele>2319.6000976562</ele>
        <time>2014-03-02T11:58:15.000Z</time>
      </trkpt>
      <trkpt lat="45.34425" lon="6.19918">
        <ele>2319.6000976562</ele>
        <time>2014-03-02T11:58:16.000Z</time>
      </trkpt>
      <trkpt lat="45.34425" lon="6.19918">
        <ele>2319.6000976562</ele>
        <time>2014-03-02T11:58:17.000Z</time>
      </trkpt>
      <trkpt lat="45.34425" lon="6.19918">
        <ele>2319.6000976562</ele>
        <time>2014-03-02T11:58:18.000Z</time>
      </trkpt>
      <trkpt lat="45.34426" lon="6.19917">
        <ele>2319.8000488281</ele>
        <time>2014-03-02T11:58:19.000Z</time>
      </trkpt>
      <trkpt lat="45.34426" lon="6.19917">
        <ele>2320</ele>
        <time>2014-03-02T11:58:20.000Z</time>
      </trkpt>
      <trkpt lat="45.34426" lon="6.19917">
        <ele>2320.1999511719</ele>
        <time>2014-03-02T11:58:21.000Z</time>
      </trkpt>
      <trkpt lat="45.34426" lon="6.19917">
        <ele>2320.1999511719</ele>
        <time>2014-03-02T11:58:22.000Z</time>
      </trkpt>
      <trkpt lat="45.34426" lon="6.19917">
        <ele>2320.1999511719</ele>
        <time>2014-03-02T11:58:23.000Z</time>
      </trkpt>
      <trkpt lat="45.34426" lon="6.19917">
        <ele>2320.1999511719</ele>
        <time>2014-03-02T11:58:24.000Z</time>
      </trkpt>
      <trkpt lat="45.34426" lon="6.19915">
        <ele>2320.6000976562</ele>
        <time>2014-03-02T11:58:25.000Z</time>
      </trkpt>
      <trkpt lat="45.34427" lon="6.19914">
        <ele>2321.1999511719</ele>
        <time>2014-03-02T11:58:26.000Z</time>
      </trkpt>
      <trkpt lat="45.34427" lon="6.19914">
        <ele>2321.6000976562</ele>
        <time>2014-03-02T11:58:27.000Z</time>
      </trkpt>
      <trkpt lat="45.34427" lon="6.19914">
        <ele>2321.6000976562</ele>
        <time>2014-03-02T11:58:28.000Z</time>
      </trkpt>
      <trkpt lat="45.34427" lon="6.19914">
        <ele>2321.6000976562</ele>
        <time>2014-03-02T11:58:29.000Z</time>
      </trkpt>
      <trkpt lat="45.34427" lon="6.19914">
        <ele>2321.6000976562</ele>
        <time>2014-03-02T11:58:30.000Z</time>
      </trkpt>
      <trkpt lat="45.34428" lon="6.19913">
        <ele>2322</ele>
        <time>2014-03-02T11:58:31.000Z</time>
      </trkpt>
      <trkpt lat="45.34428" lon="6.19913">
        <ele>2322</ele>
        <time>2014-03-02T11:58:32.000Z</time>
      </trkpt>
      <trkpt lat="45.34428" lon="6.19913">
        <ele>2322</ele>
        <time>2014-03-02T11:58:33.000Z</time>
      </trkpt>
      <trkpt lat="45.34428" lon="6.19913">
        <ele>2322</ele>
        <time>2014-03-02T11:58:34.000Z</time>
      </trkpt>
      <trkpt lat="45.34428" lon="6.19913">
        <ele>2322</ele>
        <time>2014-03-02T11:58:35.000Z</time>
      </trkpt>
      <trkpt lat="45.34428" lon="6.19913">
        <ele>2322</ele>
        <time>2014-03-02T11:58:36.000Z</time>
      </trkpt>
      <trkpt lat="45.34428" lon="6.19913">
        <ele>2322</ele>
        <time>2014-03-02T11:58:37.000Z</time>
      </trkpt>
      <trkpt lat="45.34428" lon="6.19913">
        <ele>2322</ele>
        <time>2014-03-02T11:58:38.000Z</time>
      </trkpt>
      <trkpt lat="45.34428" lon="6.19913">
        <ele>2322</ele>
        <time>2014-03-02T11:58:39.000Z</time>
      </trkpt>
      <trkpt lat="45.34428" lon="6.19913">
        <ele>2322</ele>
        <time>2014-03-02T11:58:40.000Z</time>
      </trkpt>
      <trkpt lat="45.34428" lon="6.19913">
        <ele>2322</ele>
        <time>2014-03-02T11:58:41.000Z</time>
      </trkpt>
      <trkpt lat="45.34428" lon="6.19913">
        <ele>2322</ele>
        <time>2014-03-02T11:58:42.000Z</time>
      </trkpt>
      <trkpt lat="45.34428" lon="6.19913">
        <ele>2322</ele>
        <time>2014-03-02T11:58:43.000Z</time>
      </trkpt>
      <trkpt lat="45.34428" lon="6.19913">
        <ele>2322</ele>
        <time>2014-03-02T11:58:44.000Z</time>
      </trkpt>
      <trkpt lat="45.34428" lon="6.19913">
        <ele>2322</ele>
        <time>2014-03-02T11:58:45.000Z</time>
      </trkpt>
      <trkpt lat="45.34428" lon="6.19913">
        <ele>2322</ele>
        <time>2014-03-02T11:58:46.000Z</time>
      </trkpt>
      <trkpt lat="45.34428" lon="6.19913">
        <ele>2322</ele>
        <time>2014-03-02T11:58:47.000Z</time>
      </trkpt>
      <trkpt lat="45.34428" lon="6.19913">
        <ele>2322</ele>
        <time>2014-03-02T11:58:48.000Z</time>
      </trkpt>
      <trkpt lat="45.34428" lon="6.19913">
        <ele>2322</ele>
        <time>2014-03-02T11:58:49.000Z</time>
      </trkpt>
      <trkpt lat="45.34428" lon="6.19913">
        <ele>2322</ele>
        <time>2014-03-02T11:58:50.000Z</time>
      </trkpt>
      <trkpt lat="45.34428" lon="6.19913">
        <ele>2322</ele>
        <time>2014-03-02T11:58:51.000Z</time>
      </trkpt>
      <trkpt lat="45.34428" lon="6.19913">
        <ele>2322</ele>
        <time>2014-03-02T11:58:52.000Z</time>
      </trkpt>
      <trkpt lat="45.34428" lon="6.19913">
        <ele>2322</ele>
        <time>2014-03-02T11:58:53.000Z</time>
      </trkpt>
      <trkpt lat="45.34428" lon="6.19913">
        <ele>2322</ele>
        <time>2014-03-02T11:58:54.000Z</time>
      </trkpt>
      <trkpt lat="45.34428" lon="6.19913">
        <ele>2322</ele>
        <time>2014-03-02T11:58:55.000Z</time>
      </trkpt>
      <trkpt lat="45.34428" lon="6.19913">
        <ele>2322</ele>
        <time>2014-03-02T11:58:57.000Z</time>
      </trkpt>
      <trkpt lat="45.34428" lon="6.19913">
        <ele>2322</ele>
        <time>2014-03-02T11:58:58.000Z</time>
      </trkpt>
      <trkpt lat="45.34428" lon="6.19913">
        <ele>2322</ele>
        <time>2014-03-02T11:58:59.000Z</time>
      </trkpt>
      <trkpt lat="45.34428" lon="6.19913">
        <ele>2322</ele>
        <time>2014-03-02T11:59:00.000Z</time>
      </trkpt>
      <trkpt lat="45.34429" lon="6.19912">
        <ele>2322.3999023438</ele>
        <time>2014-03-02T11:59:01.000Z</time>
      </trkpt>
      <trkpt lat="45.34429" lon="6.19912">
        <ele>2322.3999023438</ele>
        <time>2014-03-02T11:59:02.000Z</time>
      </trkpt>
      <trkpt lat="45.34429" lon="6.19912">
        <ele>2322.8000488281</ele>
        <time>2014-03-02T11:59:03.000Z</time>
      </trkpt>
      <trkpt lat="45.34429" lon="6.19912">
        <ele>2322.8000488281</ele>
        <time>2014-03-02T11:59:04.000Z</time>
      </trkpt>
      <trkpt lat="45.34429" lon="6.19912">
        <ele>2322.8000488281</ele>
        <time>2014-03-02T11:59:05.000Z</time>
      </trkpt>
      <trkpt lat="45.34429" lon="6.19912">
        <ele>2322.8000488281</ele>
        <time>2014-03-02T11:59:06.000Z</time>
      </trkpt>
      <trkpt lat="45.3443" lon="6.19912">
        <ele>2323</ele>
        <time>2014-03-02T11:59:07.000Z</time>
      </trkpt>
      <trkpt lat="45.34431" lon="6.19911">
        <ele>2323.3999023438</ele>
        <time>2014-03-02T11:59:08.000Z</time>
      </trkpt>
      <trkpt lat="45.34432" lon="6.19911">
        <ele>2324</ele>
        <time>2014-03-02T11:59:09.000Z</time>
      </trkpt>
      <trkpt lat="45.34432" lon="6.19911">
        <ele>2324</ele>
        <time>2014-03-02T11:59:10.000Z</time>
      </trkpt>
      <trkpt lat="45.34432" lon="6.19911">
        <ele>2324</ele>
        <time>2014-03-02T11:59:11.000Z</time>
      </trkpt>
      <trkpt lat="45.34432" lon="6.19911">
        <ele>2324</ele>
        <time>2014-03-02T11:59:12.000Z</time>
      </trkpt>
      <trkpt lat="45.34432" lon="6.19911">
        <ele>2324</ele>
        <time>2014-03-02T11:59:13.000Z</time>
      </trkpt>
      <trkpt lat="45.34432" lon="6.19911">
        <ele>2324</ele>
        <time>2014-03-02T11:59:14.000Z</time>
      </trkpt>
      <trkpt lat="45.34432" lon="6.19911">
        <ele>2324</ele>
        <time>2014-03-02T11:59:15.000Z</time>
      </trkpt>
      <trkpt lat="45.34432" lon="6.19911">
        <ele>2324</ele>
        <time>2014-03-02T11:59:16.000Z</time>
      </trkpt>
      <trkpt lat="45.34432" lon="6.19911">
        <ele>2324</ele>
        <time>2014-03-02T11:59:17.000Z</time>
      </trkpt>
      <trkpt lat="45.34434" lon="6.1991">
        <ele>2325</ele>
        <time>2014-03-02T11:59:18.000Z</time>
      </trkpt>
      <trkpt lat="45.34433" lon="6.19909">
        <ele>2325</ele>
        <time>2014-03-02T11:59:19.000Z</time>
      </trkpt>
      <trkpt lat="45.34435" lon="6.19909">
        <ele>2326</ele>
        <time>2014-03-02T11:59:20.000Z</time>
      </trkpt>
      <trkpt lat="45.34435" lon="6.19908">
        <ele>2326.1999511719</ele>
        <time>2014-03-02T11:59:21.000Z</time>
      </trkpt>
      <trkpt lat="45.34436" lon="6.19907">
        <ele>2326.3999023438</ele>
        <time>2014-03-02T11:59:22.000Z</time>
      </trkpt>
      <trkpt lat="45.34435" lon="6.19907">
        <ele>2326.6000976562</ele>
        <time>2014-03-02T11:59:23.000Z</time>
      </trkpt>
      <trkpt lat="45.34436" lon="6.19906">
        <ele>2326.8000488281</ele>
        <time>2014-03-02T11:59:24.000Z</time>
      </trkpt>
      <trkpt lat="45.34436" lon="6.19906">
        <ele>2326.8000488281</ele>
        <time>2014-03-02T11:59:25.000Z</time>
      </trkpt>
      <trkpt lat="45.34436" lon="6.19906">
        <ele>2326.8000488281</ele>
        <time>2014-03-02T11:59:26.000Z</time>
      </trkpt>
      <trkpt lat="45.34436" lon="6.19906">
        <ele>2326.8000488281</ele>
        <time>2014-03-02T11:59:27.000Z</time>
      </trkpt>
      <trkpt lat="45.34436" lon="6.19906">
        <ele>2326.8000488281</ele>
        <time>2014-03-02T11:59:28.000Z</time>
      </trkpt>
      <trkpt lat="45.34435" lon="6.19905">
        <ele>2327</ele>
        <time>2014-03-02T11:59:29.000Z</time>
      </trkpt>
      <trkpt lat="45.34435" lon="6.19905">
        <ele>2327</ele>
        <time>2014-03-02T11:59:30.000Z</time>
      </trkpt>
      <trkpt lat="45.34435" lon="6.19904">
        <ele>2327.1999511719</ele>
        <time>2014-03-02T11:59:31.000Z</time>
      </trkpt>
      <trkpt lat="45.34435" lon="6.19904">
        <ele>2327.1999511719</ele>
        <time>2014-03-02T11:59:32.000Z</time>
      </trkpt>
      <trkpt lat="45.34435" lon="6.19902">
        <ele>2327.3999023438</ele>
        <time>2014-03-02T11:59:33.000Z</time>
      </trkpt>
      <trkpt lat="45.34434" lon="6.19902">
        <ele>2327.3999023438</ele>
        <time>2014-03-02T11:59:34.000Z</time>
      </trkpt>
      <trkpt lat="45.34434" lon="6.19901">
        <ele>2327.6000976562</ele>
        <time>2014-03-02T11:59:35.000Z</time>
      </trkpt>
      <trkpt lat="45.34434" lon="6.19901">
        <ele>2327.6000976562</ele>
        <time>2014-03-02T11:59:36.000Z</time>
      </trkpt>
      <trkpt lat="45.34434" lon="6.199">
        <ele>2327.8000488281</ele>
        <time>2014-03-02T11:59:37.000Z</time>
      </trkpt>
      <trkpt lat="45.34434" lon="6.199">
        <ele>2327.8000488281</ele>
        <time>2014-03-02T11:59:38.000Z</time>
      </trkpt>
      <trkpt lat="45.34434" lon="6.199">
        <ele>2327.8000488281</ele>
        <time>2014-03-02T11:59:39.000Z</time>
      </trkpt>
      <trkpt lat="45.34433" lon="6.19898">
        <ele>2327.8000488281</ele>
        <time>2014-03-02T11:59:40.000Z</time>
      </trkpt>
      <trkpt lat="45.34433" lon="6.19898">
        <ele>2327.8000488281</ele>
        <time>2014-03-02T11:59:41.000Z</time>
      </trkpt>
      <trkpt lat="45.34432" lon="6.19897">
        <ele>2328</ele>
        <time>2014-03-02T11:59:43.000Z</time>
      </trkpt>
      <trkpt lat="45.34432" lon="6.19897">
        <ele>2328</ele>
        <time>2014-03-02T11:59:44.000Z</time>
      </trkpt>
      <trkpt lat="45.34432" lon="6.19897">
        <ele>2328</ele>
        <time>2014-03-02T11:59:45.000Z</time>
      </trkpt>
      <trkpt lat="45.34432" lon="6.19896">
        <ele>2328</ele>
        <time>2014-03-02T11:59:46.000Z</time>
      </trkpt>
      <trkpt lat="45.34432" lon="6.19896">
        <ele>2328</ele>
        <time>2014-03-02T11:59:47.000Z</time>
      </trkpt>
      <trkpt lat="45.34432" lon="6.19896">
        <ele>2328</ele>
        <time>2014-03-02T11:59:48.000Z</time>
      </trkpt>
      <trkpt lat="45.34432" lon="6.19896">
        <ele>2328</ele>
        <time>2014-03-02T11:59:49.000Z</time>
      </trkpt>
      <trkpt lat="45.34432" lon="6.19896">
        <ele>2328</ele>
        <time>2014-03-02T11:59:50.000Z</time>
      </trkpt>
      <trkpt lat="45.34432" lon="6.19896">
        <ele>2328</ele>
        <time>2014-03-02T11:59:51.000Z</time>
      </trkpt>
      <trkpt lat="45.34432" lon="6.19896">
        <ele>2328</ele>
        <time>2014-03-02T11:59:52.000Z</time>
      </trkpt>
      <trkpt lat="45.34432" lon="6.19896">
        <ele>2328</ele>
        <time>2014-03-02T11:59:53.000Z</time>
      </trkpt>
      <trkpt lat="45.34432" lon="6.19896">
        <ele>2328</ele>
        <time>2014-03-02T11:59:54.000Z</time>
      </trkpt>
      <trkpt lat="45.34432" lon="6.19896">
        <ele>2328</ele>
        <time>2014-03-02T11:59:55.000Z</time>
      </trkpt>
      <trkpt lat="45.34432" lon="6.19896">
        <ele>2328</ele>
        <time>2014-03-02T11:59:56.000Z</time>
      </trkpt>
      <trkpt lat="45.34432" lon="6.19896">
        <ele>2328</ele>
        <time>2014-03-02T11:59:57.000Z</time>
      </trkpt>
      <trkpt lat="45.34432" lon="6.19896">
        <ele>2328.1999511719</ele>
        <time>2014-03-02T11:59:58.000Z</time>
      </trkpt>
      <trkpt lat="45.34432" lon="6.19896">
        <ele>2328</ele>
        <time>2014-03-02T11:59:59.000Z</time>
      </trkpt>
      <trkpt lat="45.34432" lon="6.19896">
        <ele>2328</ele>
        <time>2014-03-02T12:00:00.000Z</time>
      </trkpt>
      <trkpt lat="45.34432" lon="6.19895">
        <ele>2328.1999511719</ele>
        <time>2014-03-02T12:00:01.000Z</time>
      </trkpt>
      <trkpt lat="45.34432" lon="6.19895">
        <ele>2328.1999511719</ele>
        <time>2014-03-02T12:00:02.000Z</time>
      </trkpt>
      <trkpt lat="45.34432" lon="6.19894">
        <ele>2328.3999023438</ele>
        <time>2014-03-02T12:00:03.000Z</time>
      </trkpt>
      <trkpt lat="45.34431" lon="6.19894">
        <ele>2328.3999023438</ele>
        <time>2014-03-02T12:00:04.000Z</time>
      </trkpt>
      <trkpt lat="45.34431" lon="6.19893">
        <ele>2328.6000976562</ele>
        <time>2014-03-02T12:00:05.000Z</time>
      </trkpt>
      <trkpt lat="45.34431" lon="6.19893">
        <ele>2328.6000976562</ele>
        <time>2014-03-02T12:00:06.000Z</time>
      </trkpt>
      <trkpt lat="45.34431" lon="6.19893">
        <ele>2328.6000976562</ele>
        <time>2014-03-02T12:00:07.000Z</time>
      </trkpt>
      <trkpt lat="45.34431" lon="6.19893">
        <ele>2328.6000976562</ele>
        <time>2014-03-02T12:00:08.000Z</time>
      </trkpt>
      <trkpt lat="45.34431" lon="6.19893">
        <ele>2328.6000976562</ele>
        <time>2014-03-02T12:00:09.000Z</time>
      </trkpt>
      <trkpt lat="45.34431" lon="6.19893">
        <ele>2328.6000976562</ele>
        <time>2014-03-02T12:00:10.000Z</time>
      </trkpt>
      <trkpt lat="45.34431" lon="6.19892">
        <ele>2329</ele>
        <time>2014-03-02T12:00:11.000Z</time>
      </trkpt>
      <trkpt lat="45.34432" lon="6.19891">
        <ele>2329.8000488281</ele>
        <time>2014-03-02T12:00:12.000Z</time>
      </trkpt>
      <trkpt lat="45.34432" lon="6.1989">
        <ele>2330.3999023438</ele>
        <time>2014-03-02T12:00:13.000Z</time>
      </trkpt>
      <trkpt lat="45.34433" lon="6.19889">
        <ele>2331</ele>
        <time>2014-03-02T12:00:14.000Z</time>
      </trkpt>
      <trkpt lat="45.34434" lon="6.19889">
        <ele>2331.3999023438</ele>
        <time>2014-03-02T12:00:15.000Z</time>
      </trkpt>
      <trkpt lat="45.34435" lon="6.19887">
        <ele>2332.6000976562</ele>
        <time>2014-03-02T12:00:16.000Z</time>
      </trkpt>
      <trkpt lat="45.34436" lon="6.19886">
        <ele>2333.3999023438</ele>
        <time>2014-03-02T12:00:17.000Z</time>
      </trkpt>
      <trkpt lat="45.34437" lon="6.19885">
        <ele>2334.1999511719</ele>
        <time>2014-03-02T12:00:18.000Z</time>
      </trkpt>
      <trkpt lat="45.34438" lon="6.19885">
        <ele>2334.8000488281</ele>
        <time>2014-03-02T12:00:19.000Z</time>
      </trkpt>
      <trkpt lat="45.34439" lon="6.19884">
        <ele>2335.8000488281</ele>
        <time>2014-03-02T12:00:20.000Z</time>
      </trkpt>
      <trkpt lat="45.3444" lon="6.19883">
        <ele>2336.6000976562</ele>
        <time>2014-03-02T12:00:21.000Z</time>
      </trkpt>
      <trkpt lat="45.34441" lon="6.19882">
        <ele>2337.1999511719</ele>
        <time>2014-03-02T12:00:22.000Z</time>
      </trkpt>
      <trkpt lat="45.34442" lon="6.19882">
        <ele>2337.6000976562</ele>
        <time>2014-03-02T12:00:23.000Z</time>
      </trkpt>
      <trkpt lat="45.34442" lon="6.19882">
        <ele>2337.8000488281</ele>
        <time>2014-03-02T12:00:24.000Z</time>
      </trkpt>
      <trkpt lat="45.34443" lon="6.19882">
        <ele>2337.8000488281</ele>
        <time>2014-03-02T12:00:25.000Z</time>
      </trkpt>
      <trkpt lat="45.34443" lon="6.19882">
        <ele>2337.8000488281</ele>
        <time>2014-03-02T12:00:26.000Z</time>
      </trkpt>
      <trkpt lat="45.34443" lon="6.19882">
        <ele>2337.8000488281</ele>
        <time>2014-03-02T12:00:27.000Z</time>
      </trkpt>
      <trkpt lat="45.34443" lon="6.19882">
        <ele>2337.8000488281</ele>
        <time>2014-03-02T12:00:28.000Z</time>
      </trkpt>
      <trkpt lat="45.34443" lon="6.19882">
        <ele>2337.8000488281</ele>
        <time>2014-03-02T12:00:29.000Z</time>
      </trkpt>
      <trkpt lat="45.34443" lon="6.19882">
        <ele>2337.8000488281</ele>
        <time>2014-03-02T12:00:30.000Z</time>
      </trkpt>
      <trkpt lat="45.34443" lon="6.19882">
        <ele>2337.8000488281</ele>
        <time>2014-03-02T12:00:31.000Z</time>
      </trkpt>
      <trkpt lat="45.34443" lon="6.19882">
        <ele>2338</ele>
        <time>2014-03-02T12:00:32.000Z</time>
      </trkpt>
      <trkpt lat="45.34444" lon="6.19882">
        <ele>2338.1999511719</ele>
        <time>2014-03-02T12:00:33.000Z</time>
      </trkpt>
      <trkpt lat="45.34444" lon="6.19882">
        <ele>2338.3999023438</ele>
        <time>2014-03-02T12:00:34.000Z</time>
      </trkpt>
      <trkpt lat="45.34444" lon="6.19882">
        <ele>2338.3999023438</ele>
        <time>2014-03-02T12:00:35.000Z</time>
      </trkpt>
      <trkpt lat="45.34445" lon="6.19882">
        <ele>2338.8000488281</ele>
        <time>2014-03-02T12:00:36.000Z</time>
      </trkpt>
      <trkpt lat="45.34445" lon="6.19881">
        <ele>2339</ele>
        <time>2014-03-02T12:00:37.000Z</time>
      </trkpt>
      <trkpt lat="45.34445" lon="6.19881">
        <ele>2339</ele>
        <time>2014-03-02T12:00:38.000Z</time>
      </trkpt>
      <trkpt lat="45.34445" lon="6.19881">
        <ele>2339</ele>
        <time>2014-03-02T12:00:39.000Z</time>
      </trkpt>
      <trkpt lat="45.34445" lon="6.19881">
        <ele>2339</ele>
        <time>2014-03-02T12:00:40.000Z</time>
      </trkpt>
      <trkpt lat="45.34445" lon="6.19881">
        <ele>2339</ele>
        <time>2014-03-02T12:00:41.000Z</time>
      </trkpt>
      <trkpt lat="45.34445" lon="6.19881">
        <ele>2339</ele>
        <time>2014-03-02T12:00:42.000Z</time>
      </trkpt>
      <trkpt lat="45.34446" lon="6.19879">
        <ele>2340.3999023438</ele>
        <time>2014-03-02T12:00:43.000Z</time>
      </trkpt>
      <trkpt lat="45.34447" lon="6.19878">
        <ele>2341</ele>
        <time>2014-03-02T12:00:44.000Z</time>
      </trkpt>
      <trkpt lat="45.34448" lon="6.19878">
        <ele>2341.3999023438</ele>
        <time>2014-03-02T12:00:45.000Z</time>
      </trkpt>
      <trkpt lat="45.34449" lon="6.19876">
        <ele>2342.1999511719</ele>
        <time>2014-03-02T12:00:47.000Z</time>
      </trkpt>
      <trkpt lat="45.3445" lon="6.19876">
        <ele>2342.3999023438</ele>
        <time>2014-03-02T12:00:48.000Z</time>
      </trkpt>
      <trkpt lat="45.34451" lon="6.19875">
        <ele>2342.8000488281</ele>
        <time>2014-03-02T12:00:49.000Z</time>
      </trkpt>
      <trkpt lat="45.3445" lon="6.19877">
        <ele>2342.1999511719</ele>
        <time>2014-03-02T12:00:50.000Z</time>
      </trkpt>
      <trkpt lat="45.3445" lon="6.19877">
        <ele>2342.1999511719</ele>
        <time>2014-03-02T12:00:51.000Z</time>
      </trkpt>
      <trkpt lat="45.3445" lon="6.19877">
        <ele>2342.1999511719</ele>
        <time>2014-03-02T12:00:52.000Z</time>
      </trkpt>
      <trkpt lat="45.3445" lon="6.19877">
        <ele>2342.1999511719</ele>
        <time>2014-03-02T12:00:53.000Z</time>
      </trkpt>
      <trkpt lat="45.3445" lon="6.19878">
        <ele>2341.8000488281</ele>
        <time>2014-03-02T12:00:54.000Z</time>
      </trkpt>
      <trkpt lat="45.3445" lon="6.19878">
        <ele>2341.8000488281</ele>
        <time>2014-03-02T12:00:56.000Z</time>
      </trkpt>
      <trkpt lat="45.34449" lon="6.19879">
        <ele>2341.3999023438</ele>
        <time>2014-03-02T12:00:57.000Z</time>
      </trkpt>
      <trkpt lat="45.34448" lon="6.19879">
        <ele>2341.1999511719</ele>
        <time>2014-03-02T12:00:59.000Z</time>
      </trkpt>
      <trkpt lat="45.34449" lon="6.19879">
        <ele>2341.3999023438</ele>
        <time>2014-03-02T12:01:00.000Z</time>
      </trkpt>
      <trkpt lat="45.34448" lon="6.19879">
        <ele>2341</ele>
        <time>2014-03-02T12:01:01.000Z</time>
      </trkpt>
      <trkpt lat="45.34448" lon="6.19879">
        <ele>2341.1999511719</ele>
        <time>2014-03-02T12:01:02.000Z</time>
      </trkpt>
      <trkpt lat="45.34448" lon="6.19879">
        <ele>2341.3999023438</ele>
        <time>2014-03-02T12:01:03.000Z</time>
      </trkpt>
      <trkpt lat="45.34448" lon="6.19878">
        <ele>2341.3999023438</ele>
        <time>2014-03-02T12:01:04.000Z</time>
      </trkpt>
      <trkpt lat="45.34448" lon="6.19877">
        <ele>2341.6000976562</ele>
        <time>2014-03-02T12:01:05.000Z</time>
      </trkpt>
      <trkpt lat="45.34449" lon="6.19876">
        <ele>2342</ele>
        <time>2014-03-02T12:01:06.000Z</time>
      </trkpt>
      <trkpt lat="45.34448" lon="6.19875">
        <ele>2342.1999511719</ele>
        <time>2014-03-02T12:01:07.000Z</time>
      </trkpt>
      <trkpt lat="45.34449" lon="6.19874">
        <ele>2342.6000976562</ele>
        <time>2014-03-02T12:01:08.000Z</time>
      </trkpt>
      <trkpt lat="45.34448" lon="6.19874">
        <ele>2342.6000976562</ele>
        <time>2014-03-02T12:01:09.000Z</time>
      </trkpt>
      <trkpt lat="45.34448" lon="6.19872">
        <ele>2342.8000488281</ele>
        <time>2014-03-02T12:01:10.000Z</time>
      </trkpt>
      <trkpt lat="45.34448" lon="6.19872">
        <ele>2343</ele>
        <time>2014-03-02T12:01:11.000Z</time>
      </trkpt>
      <trkpt lat="45.34447" lon="6.1987">
        <ele>2343.1999511719</ele>
        <time>2014-03-02T12:01:12.000Z</time>
      </trkpt>
      <trkpt lat="45.34447" lon="6.19869">
        <ele>2343.6000976562</ele>
        <time>2014-03-02T12:01:14.000Z</time>
      </trkpt>
      <trkpt lat="45.34447" lon="6.19869">
        <ele>2343.6000976562</ele>
        <time>2014-03-02T12:01:15.000Z</time>
      </trkpt>
      <trkpt lat="45.34447" lon="6.19868">
        <ele>2343.8000488281</ele>
        <time>2014-03-02T12:01:16.000Z</time>
      </trkpt>
      <trkpt lat="45.34447" lon="6.19868">
        <ele>2343.8000488281</ele>
        <time>2014-03-02T12:01:17.000Z</time>
      </trkpt>
      <trkpt lat="45.34446" lon="6.19867">
        <ele>2343.8000488281</ele>
        <time>2014-03-02T12:01:18.000Z</time>
      </trkpt>
      <trkpt lat="45.34446" lon="6.19867">
        <ele>2343.8000488281</ele>
        <time>2014-03-02T12:01:19.000Z</time>
      </trkpt>
      <trkpt lat="45.34446" lon="6.19867">
        <ele>2344</ele>
        <time>2014-03-02T12:01:20.000Z</time>
      </trkpt>
      <trkpt lat="45.34446" lon="6.19867">
        <ele>2344</ele>
        <time>2014-03-02T12:01:21.000Z</time>
      </trkpt>
      <trkpt lat="45.34446" lon="6.19866">
        <ele>2344.1999511719</ele>
        <time>2014-03-02T12:01:22.000Z</time>
      </trkpt>
      <trkpt lat="45.34447" lon="6.19864">
        <ele>2344.8000488281</ele>
        <time>2014-03-02T12:01:23.000Z</time>
      </trkpt>
      <trkpt lat="45.34447" lon="6.19863">
        <ele>2345</ele>
        <time>2014-03-02T12:01:24.000Z</time>
      </trkpt>
      <trkpt lat="45.34447" lon="6.19863">
        <ele>2345</ele>
        <time>2014-03-02T12:01:25.000Z</time>
      </trkpt>
      <trkpt lat="45.34447" lon="6.19863">
        <ele>2345</ele>
        <time>2014-03-02T12:01:26.000Z</time>
      </trkpt>
      <trkpt lat="45.34447" lon="6.19863">
        <ele>2345</ele>
        <time>2014-03-02T12:01:27.000Z</time>
      </trkpt>
      <trkpt lat="45.34447" lon="6.19863">
        <ele>2345</ele>
        <time>2014-03-02T12:01:28.000Z</time>
      </trkpt>
      <trkpt lat="45.34447" lon="6.19863">
        <ele>2345</ele>
        <time>2014-03-02T12:01:29.000Z</time>
      </trkpt>
      <trkpt lat="45.34447" lon="6.19863">
        <ele>2345</ele>
        <time>2014-03-02T12:01:30.000Z</time>
      </trkpt>
      <trkpt lat="45.34447" lon="6.19863">
        <ele>2345</ele>
        <time>2014-03-02T12:01:31.000Z</time>
      </trkpt>
      <trkpt lat="45.34446" lon="6.19862">
        <ele>2345.1999511719</ele>
        <time>2014-03-02T12:01:32.000Z</time>
      </trkpt>
      <trkpt lat="45.34446" lon="6.19861">
        <ele>2345.3999023438</ele>
        <time>2014-03-02T12:01:33.000Z</time>
      </trkpt>
      <trkpt lat="45.34447" lon="6.19861">
        <ele>2345.6000976562</ele>
        <time>2014-03-02T12:01:34.000Z</time>
      </trkpt>
      <trkpt lat="45.34447" lon="6.19861">
        <ele>2345.6000976562</ele>
        <time>2014-03-02T12:01:35.000Z</time>
      </trkpt>
      <trkpt lat="45.34447" lon="6.19861">
        <ele>2345.6000976562</ele>
        <time>2014-03-02T12:01:36.000Z</time>
      </trkpt>
      <trkpt lat="45.34447" lon="6.19861">
        <ele>2345.6000976562</ele>
        <time>2014-03-02T12:01:37.000Z</time>
      </trkpt>
      <trkpt lat="45.34447" lon="6.19861">
        <ele>2345.6000976562</ele>
        <time>2014-03-02T12:01:38.000Z</time>
      </trkpt>
      <trkpt lat="45.34447" lon="6.19861">
        <ele>2345.6000976562</ele>
        <time>2014-03-02T12:01:39.000Z</time>
      </trkpt>
      <trkpt lat="45.34447" lon="6.19861">
        <ele>2345.6000976562</ele>
        <time>2014-03-02T12:01:40.000Z</time>
      </trkpt>
      <trkpt lat="45.34447" lon="6.19861">
        <ele>2345.6000976562</ele>
        <time>2014-03-02T12:01:41.000Z</time>
      </trkpt>
      <trkpt lat="45.34447" lon="6.19861">
        <ele>2345.6000976562</ele>
        <time>2014-03-02T12:01:42.000Z</time>
      </trkpt>
      <trkpt lat="45.34447" lon="6.19861">
        <ele>2345.6000976562</ele>
        <time>2014-03-02T12:01:43.000Z</time>
      </trkpt>
      <trkpt lat="45.34447" lon="6.19861">
        <ele>2345.6000976562</ele>
        <time>2014-03-02T12:01:44.000Z</time>
      </trkpt>
      <trkpt lat="45.34447" lon="6.19861">
        <ele>2345.6000976562</ele>
        <time>2014-03-02T12:01:45.000Z</time>
      </trkpt>
      <trkpt lat="45.34447" lon="6.19861">
        <ele>2345.6000976562</ele>
        <time>2014-03-02T12:01:46.000Z</time>
      </trkpt>
      <trkpt lat="45.34447" lon="6.19861">
        <ele>2345.6000976562</ele>
        <time>2014-03-02T12:01:47.000Z</time>
      </trkpt>
      <trkpt lat="45.34447" lon="6.19861">
        <ele>2345.6000976562</ele>
        <time>2014-03-02T12:01:48.000Z</time>
      </trkpt>
      <trkpt lat="45.34447" lon="6.19861">
        <ele>2345.6000976562</ele>
        <time>2014-03-02T12:01:49.000Z</time>
      </trkpt>
      <trkpt lat="45.34447" lon="6.19861">
        <ele>2345.6000976562</ele>
        <time>2014-03-02T12:01:52.000Z</time>
      </trkpt>
      <trkpt lat="45.34447" lon="6.19861">
        <ele>2345.6000976562</ele>
        <time>2014-03-02T12:02:00.000Z</time>
      </trkpt>
      <trkpt lat="45.34447" lon="6.19861">
        <ele>2345.6000976562</ele>
        <time>2014-03-02T12:02:01.000Z</time>
      </trkpt>
      <trkpt lat="45.34447" lon="6.19861">
        <ele>2345.6000976562</ele>
        <time>2014-03-02T12:02:02.000Z</time>
      </trkpt>
      <trkpt lat="45.34447" lon="6.19861">
        <ele>2345.6000976562</ele>
        <time>2014-03-02T12:02:03.000Z</time>
      </trkpt>
      <trkpt lat="45.34447" lon="6.19861">
        <ele>2345.6000976562</ele>
        <time>2014-03-02T12:02:04.000Z</time>
      </trkpt>
      <trkpt lat="45.34447" lon="6.19861">
        <ele>2345.6000976562</ele>
        <time>2014-03-02T12:02:05.000Z</time>
      </trkpt>
      <trkpt lat="45.34447" lon="6.19861">
        <ele>2345.6000976562</ele>
        <time>2014-03-02T12:02:06.000Z</time>
      </trkpt>
      <trkpt lat="45.34447" lon="6.19861">
        <ele>2345.6000976562</ele>
        <time>2014-03-02T12:02:07.000Z</time>
      </trkpt>
      <trkpt lat="45.34447" lon="6.19861">
        <ele>2345.6000976562</ele>
        <time>2014-03-02T12:02:08.000Z</time>
      </trkpt>
      <trkpt lat="45.34447" lon="6.19861">
        <ele>2345.6000976562</ele>
        <time>2014-03-02T12:02:09.000Z</time>
      </trkpt>
      <trkpt lat="45.34447" lon="6.19861">
        <ele>2345.6000976562</ele>
        <time>2014-03-02T12:02:10.000Z</time>
      </trkpt>
      <trkpt lat="45.34447" lon="6.19861">
        <ele>2345.6000976562</ele>
        <time>2014-03-02T12:02:11.000Z</time>
      </trkpt>
      <trkpt lat="45.34447" lon="6.19861">
        <ele>2345.6000976562</ele>
        <time>2014-03-02T12:02:12.000Z</time>
      </trkpt>
      <trkpt lat="45.34447" lon="6.19861">
        <ele>2345.6000976562</ele>
        <time>2014-03-02T12:02:13.000Z</time>
      </trkpt>
      <trkpt lat="45.34446" lon="6.19861">
        <ele>2345.6000976562</ele>
        <time>2014-03-02T12:02:14.000Z</time>
      </trkpt>
      <trkpt lat="45.34446" lon="6.19861">
        <ele>2345.6000976562</ele>
        <time>2014-03-02T12:02:16.000Z</time>
      </trkpt>
      <trkpt lat="45.34446" lon="6.19861">
        <ele>2345.6000976562</ele>
        <time>2014-03-02T12:02:17.000Z</time>
      </trkpt>
      <trkpt lat="45.34446" lon="6.19861">
        <ele>2345.6000976562</ele>
        <time>2014-03-02T12:02:18.000Z</time>
      </trkpt>
      <trkpt lat="45.34446" lon="6.19861">
        <ele>2345.6000976562</ele>
        <time>2014-03-02T12:02:19.000Z</time>
      </trkpt>
      <trkpt lat="45.34446" lon="6.19861">
        <ele>2345.6000976562</ele>
        <time>2014-03-02T12:02:20.000Z</time>
      </trkpt>
      <trkpt lat="45.34446" lon="6.19861">
        <ele>2345.6000976562</ele>
        <time>2014-03-02T12:02:21.000Z</time>
      </trkpt>
      <trkpt lat="45.34446" lon="6.19861">
        <ele>2345.6000976562</ele>
        <time>2014-03-02T12:02:22.000Z</time>
      </trkpt>
      <trkpt lat="45.34446" lon="6.19861">
        <ele>2345.6000976562</ele>
        <time>2014-03-02T12:02:23.000Z</time>
      </trkpt>
      <trkpt lat="45.34446" lon="6.19861">
        <ele>2345.6000976562</ele>
        <time>2014-03-02T12:02:24.000Z</time>
      </trkpt>
      <trkpt lat="45.34446" lon="6.19861">
        <ele>2345.6000976562</ele>
        <time>2014-03-02T12:02:27.000Z</time>
      </trkpt>
      <trkpt lat="45.34446" lon="6.19861">
        <ele>2345.6000976562</ele>
        <time>2014-03-02T12:02:28.000Z</time>
      </trkpt>
      <trkpt lat="45.34446" lon="6.19861">
        <ele>2345.6000976562</ele>
        <time>2014-03-02T12:02:30.000Z</time>
      </trkpt>
      <trkpt lat="45.34446" lon="6.19861">
        <ele>2345.6000976562</ele>
        <time>2014-03-02T12:02:31.000Z</time>
      </trkpt>
      <trkpt lat="45.34446" lon="6.19861">
        <ele>2345.6000976562</ele>
        <time>2014-03-02T12:02:32.000Z</time>
      </trkpt>
      <trkpt lat="45.34446" lon="6.19861">
        <ele>2345.6000976562</ele>
        <time>2014-03-02T12:02:33.000Z</time>
      </trkpt>
      <trkpt lat="45.34446" lon="6.19861">
        <ele>2345.6000976562</ele>
        <time>2014-03-02T12:02:34.000Z</time>
      </trkpt>
      <trkpt lat="45.34446" lon="6.19861">
        <ele>2345.6000976562</ele>
        <time>2014-03-02T12:02:35.000Z</time>
      </trkpt>
      <trkpt lat="45.34446" lon="6.19861">
        <ele>2345.6000976562</ele>
        <time>2014-03-02T12:02:36.000Z</time>
      </trkpt>
      <trkpt lat="45.34446" lon="6.19861">
        <ele>2345.6000976562</ele>
        <time>2014-03-02T12:02:37.000Z</time>
      </trkpt>
      <trkpt lat="45.34446" lon="6.19861">
        <ele>2345.6000976562</ele>
        <time>2014-03-02T12:02:38.000Z</time>
      </trkpt>
      <trkpt lat="45.34446" lon="6.19861">
        <ele>2345.6000976562</ele>
        <time>2014-03-02T12:02:39.000Z</time>
      </trkpt>
      <trkpt lat="45.34446" lon="6.19861">
        <ele>2345.6000976562</ele>
        <time>2014-03-02T12:02:40.000Z</time>
      </trkpt>
      <trkpt lat="45.34446" lon="6.19861">
        <ele>2345.6000976562</ele>
        <time>2014-03-02T12:02:41.000Z</time>
      </trkpt>
      <trkpt lat="45.34446" lon="6.19861">
        <ele>2345.6000976562</ele>
        <time>2014-03-02T12:02:42.000Z</time>
      </trkpt>
      <trkpt lat="45.34446" lon="6.19861">
        <ele>2345.6000976562</ele>
        <time>2014-03-02T12:02:44.000Z</time>
      </trkpt>
      <trkpt lat="45.34446" lon="6.19861">
        <ele>2345.6000976562</ele>
        <time>2014-03-02T12:02:45.000Z</time>
      </trkpt>
      <trkpt lat="45.34446" lon="6.19861">
        <ele>2345.6000976562</ele>
        <time>2014-03-02T12:02:47.000Z</time>
      </trkpt>
      <trkpt lat="45.34446" lon="6.19861">
        <ele>2345.6000976562</ele>
        <time>2014-03-02T12:02:48.000Z</time>
      </trkpt>
      <trkpt lat="45.34446" lon="6.19861">
        <ele>2345.6000976562</ele>
        <time>2014-03-02T12:02:53.000Z</time>
      </trkpt>
      <trkpt lat="45.34446" lon="6.1986">
        <ele>2345.6000976562</ele>
        <time>2014-03-02T12:02:56.000Z</time>
      </trkpt>
      <trkpt lat="45.34446" lon="6.1986">
        <ele>2345.6000976562</ele>
        <time>2014-03-02T12:02:57.000Z</time>
      </trkpt>
      <trkpt lat="45.34446" lon="6.1986">
        <ele>2345.6000976562</ele>
        <time>2014-03-02T12:02:58.000Z</time>
      </trkpt>
      <trkpt lat="45.34446" lon="6.1986">
        <ele>2345.6000976562</ele>
        <time>2014-03-02T12:02:59.000Z</time>
      </trkpt>
      <trkpt lat="45.34446" lon="6.1986">
        <ele>2345.6000976562</ele>
        <time>2014-03-02T12:03:00.000Z</time>
      </trkpt>
      <trkpt lat="45.34446" lon="6.1986">
        <ele>2345.6000976562</ele>
        <time>2014-03-02T12:03:01.000Z</time>
      </trkpt>
      <trkpt lat="45.34446" lon="6.1986">
        <ele>2345.6000976562</ele>
        <time>2014-03-02T12:03:03.000Z</time>
      </trkpt>
      <trkpt lat="45.34446" lon="6.1986">
        <ele>2345.6000976562</ele>
        <time>2014-03-02T12:03:04.000Z</time>
      </trkpt>
      <trkpt lat="45.34446" lon="6.1986">
        <ele>2345.6000976562</ele>
        <time>2014-03-02T12:03:05.000Z</time>
      </trkpt>
      <trkpt lat="45.34446" lon="6.1986">
        <ele>2345.6000976562</ele>
        <time>2014-03-02T12:03:06.000Z</time>
      </trkpt>
      <trkpt lat="45.34446" lon="6.1986">
        <ele>2345.6000976562</ele>
        <time>2014-03-02T12:03:07.000Z</time>
      </trkpt>
      <trkpt lat="45.34446" lon="6.1986">
        <ele>2345.6000976562</ele>
        <time>2014-03-02T12:03:09.000Z</time>
      </trkpt>
      <trkpt lat="45.34446" lon="6.1986">
        <ele>2345.6000976562</ele>
        <time>2014-03-02T12:03:10.000Z</time>
      </trkpt>
      <trkpt lat="45.34446" lon="6.1986">
        <ele>2345.6000976562</ele>
        <time>2014-03-02T12:03:11.000Z</time>
      </trkpt>
      <trkpt lat="45.34446" lon="6.1986">
        <ele>2345.6000976562</ele>
        <time>2014-03-02T12:03:14.000Z</time>
      </trkpt>
      <trkpt lat="45.34446" lon="6.1986">
        <ele>2345.6000976562</ele>
        <time>2014-03-02T12:03:15.000Z</time>
      </trkpt>
      <trkpt lat="45.34446" lon="6.1986">
        <ele>2345.6000976562</ele>
        <time>2014-03-02T12:03:16.000Z</time>
      </trkpt>
      <trkpt lat="45.34446" lon="6.1986">
        <ele>2345.6000976562</ele>
        <time>2014-03-02T12:03:17.000Z</time>
      </trkpt>
      <trkpt lat="45.34446" lon="6.1986">
        <ele>2345.6000976562</ele>
        <time>2014-03-02T12:03:18.000Z</time>
      </trkpt>
      <trkpt lat="45.34446" lon="6.1986">
        <ele>2345.6000976562</ele>
        <time>2014-03-02T12:03:19.000Z</time>
      </trkpt>
      <trkpt lat="45.34446" lon="6.1986">
        <ele>2345.6000976562</ele>
        <time>2014-03-02T12:03:20.000Z</time>
      </trkpt>
      <trkpt lat="45.34446" lon="6.1986">
        <ele>2345.6000976562</ele>
        <time>2014-03-02T12:03:21.000Z</time>
      </trkpt>
      <trkpt lat="45.34446" lon="6.1986">
        <ele>2345.6000976562</ele>
        <time>2014-03-02T12:03:24.000Z</time>
      </trkpt>
      <trkpt lat="45.34446" lon="6.1986">
        <ele>2345.6000976562</ele>
        <time>2014-03-02T12:03:25.000Z</time>
      </trkpt>
      <trkpt lat="45.34446" lon="6.1986">
        <ele>2345.6000976562</ele>
        <time>2014-03-02T12:03:26.000Z</time>
      </trkpt>
      <trkpt lat="45.34446" lon="6.1986">
        <ele>2345.6000976562</ele>
        <time>2014-03-02T12:03:29.000Z</time>
      </trkpt>
      <trkpt lat="45.34446" lon="6.1986">
        <ele>2345.6000976562</ele>
        <time>2014-03-02T12:03:30.000Z</time>
      </trkpt>
      <trkpt lat="45.34446" lon="6.1986">
        <ele>2345.6000976562</ele>
        <time>2014-03-02T12:03:31.000Z</time>
      </trkpt>
      <trkpt lat="45.34446" lon="6.1986">
        <ele>2345.6000976562</ele>
        <time>2014-03-02T12:03:32.000Z</time>
      </trkpt>
      <trkpt lat="45.34446" lon="6.19859">
        <ele>2345.8000488281</ele>
        <time>2014-03-02T12:03:34.000Z</time>
      </trkpt>
      <trkpt lat="45.34446" lon="6.19859">
        <ele>2345.8000488281</ele>
        <time>2014-03-02T12:03:36.000Z</time>
      </trkpt>
      <trkpt lat="45.34446" lon="6.19859">
        <ele>2345.8000488281</ele>
        <time>2014-03-02T12:03:37.000Z</time>
      </trkpt>
      <trkpt lat="45.34446" lon="6.19859">
        <ele>2345.8000488281</ele>
        <time>2014-03-02T12:03:39.000Z</time>
      </trkpt>
      <trkpt lat="45.34446" lon="6.19859">
        <ele>2345.8000488281</ele>
        <time>2014-03-02T12:03:40.000Z</time>
      </trkpt>
      <trkpt lat="45.34446" lon="6.19859">
        <ele>2345.8000488281</ele>
        <time>2014-03-02T12:03:42.000Z</time>
      </trkpt>
      <trkpt lat="45.34446" lon="6.19859">
        <ele>2345.8000488281</ele>
        <time>2014-03-02T12:03:43.000Z</time>
      </trkpt>
      <trkpt lat="45.34446" lon="6.19859">
        <ele>2345.8000488281</ele>
        <time>2014-03-02T12:03:44.000Z</time>
      </trkpt>
      <trkpt lat="45.34446" lon="6.19859">
        <ele>2345.8000488281</ele>
        <time>2014-03-02T12:03:45.000Z</time>
      </trkpt>
      <trkpt lat="45.34446" lon="6.19859">
        <ele>2345.8000488281</ele>
        <time>2014-03-02T12:03:46.000Z</time>
      </trkpt>
      <trkpt lat="45.34446" lon="6.19859">
        <ele>2345.8000488281</ele>
        <time>2014-03-02T12:03:47.000Z</time>
      </trkpt>
      <trkpt lat="45.34446" lon="6.19859">
        <ele>2345.8000488281</ele>
        <time>2014-03-02T12:03:48.000Z</time>
      </trkpt>
      <trkpt lat="45.34446" lon="6.19859">
        <ele>2345.8000488281</ele>
        <time>2014-03-02T12:03:49.000Z</time>
      </trkpt>
      <trkpt lat="45.34446" lon="6.19859">
        <ele>2345.8000488281</ele>
        <time>2014-03-02T12:03:54.000Z</time>
      </trkpt>
      <trkpt lat="45.34446" lon="6.19859">
        <ele>2345.8000488281</ele>
        <time>2014-03-02T12:03:55.000Z</time>
      </trkpt>
      <trkpt lat="45.34446" lon="6.19859">
        <ele>2345.8000488281</ele>
        <time>2014-03-02T12:03:56.000Z</time>
      </trkpt>
      <trkpt lat="45.34446" lon="6.19859">
        <ele>2345.8000488281</ele>
        <time>2014-03-02T12:04:00.000Z</time>
      </trkpt>
      <trkpt lat="45.34446" lon="6.19859">
        <ele>2345.8000488281</ele>
        <time>2014-03-02T12:04:01.000Z</time>
      </trkpt>
      <trkpt lat="45.34446" lon="6.19859">
        <ele>2345.8000488281</ele>
        <time>2014-03-02T12:04:02.000Z</time>
      </trkpt>
      <trkpt lat="45.34446" lon="6.19859">
        <ele>2345.8000488281</ele>
        <time>2014-03-02T12:04:03.000Z</time>
      </trkpt>
      <trkpt lat="45.34446" lon="6.19859">
        <ele>2345.8000488281</ele>
        <time>2014-03-02T12:04:04.000Z</time>
      </trkpt>
      <trkpt lat="45.34446" lon="6.19859">
        <ele>2345.8000488281</ele>
        <time>2014-03-02T12:04:05.000Z</time>
      </trkpt>
      <trkpt lat="45.34446" lon="6.19859">
        <ele>2345.8000488281</ele>
        <time>2014-03-02T12:04:06.000Z</time>
      </trkpt>
      <trkpt lat="45.34446" lon="6.19859">
        <ele>2345.8000488281</ele>
        <time>2014-03-02T12:04:07.000Z</time>
      </trkpt>
      <trkpt lat="45.34446" lon="6.19859">
        <ele>2345.8000488281</ele>
        <time>2014-03-02T12:04:08.000Z</time>
      </trkpt>
      <trkpt lat="45.34446" lon="6.19859">
        <ele>2345.8000488281</ele>
        <time>2014-03-02T12:04:09.000Z</time>
      </trkpt>
      <trkpt lat="45.34446" lon="6.19859">
        <ele>2345.8000488281</ele>
        <time>2014-03-02T12:04:10.000Z</time>
      </trkpt>
      <trkpt lat="45.34446" lon="6.19859">
        <ele>2345.8000488281</ele>
        <time>2014-03-02T12:04:11.000Z</time>
      </trkpt>
      <trkpt lat="45.34446" lon="6.19859">
        <ele>2345.8000488281</ele>
        <time>2014-03-02T12:04:12.000Z</time>
      </trkpt>
      <trkpt lat="45.34446" lon="6.19859">
        <ele>2345.8000488281</ele>
        <time>2014-03-02T12:04:13.000Z</time>
      </trkpt>
      <trkpt lat="45.34446" lon="6.19859">
        <ele>2345.8000488281</ele>
        <time>2014-03-02T12:04:15.000Z</time>
      </trkpt>
      <trkpt lat="45.34446" lon="6.19859">
        <ele>2345.8000488281</ele>
        <time>2014-03-02T12:04:18.000Z</time>
      </trkpt>
      <trkpt lat="45.34446" lon="6.19859">
        <ele>2345.8000488281</ele>
        <time>2014-03-02T12:04:19.000Z</time>
      </trkpt>
      <trkpt lat="45.34446" lon="6.19859">
        <ele>2345.8000488281</ele>
        <time>2014-03-02T12:04:20.000Z</time>
      </trkpt>
      <trkpt lat="45.34445" lon="6.19858">
        <ele>2346</ele>
        <time>2014-03-02T12:04:21.000Z</time>
      </trkpt>
      <trkpt lat="45.34445" lon="6.19858">
        <ele>2346</ele>
        <time>2014-03-02T12:04:22.000Z</time>
      </trkpt>
      <trkpt lat="45.34445" lon="6.19858">
        <ele>2346.1999511719</ele>
        <time>2014-03-02T12:04:23.000Z</time>
      </trkpt>
      <trkpt lat="45.34445" lon="6.19857">
        <ele>2346.3999023438</ele>
        <time>2014-03-02T12:04:24.000Z</time>
      </trkpt>
      <trkpt lat="45.34445" lon="6.19857">
        <ele>2346.3999023438</ele>
        <time>2014-03-02T12:04:25.000Z</time>
      </trkpt>
      <trkpt lat="45.34445" lon="6.19857">
        <ele>2346.3999023438</ele>
        <time>2014-03-02T12:04:26.000Z</time>
      </trkpt>
      <trkpt lat="45.34445" lon="6.19857">
        <ele>2346.3999023438</ele>
        <time>2014-03-02T12:04:27.000Z</time>
      </trkpt>
      <trkpt lat="45.34445" lon="6.19857">
        <ele>2346.3999023438</ele>
        <time>2014-03-02T12:04:28.000Z</time>
      </trkpt>
      <trkpt lat="45.34445" lon="6.19857">
        <ele>2346.3999023438</ele>
        <time>2014-03-02T12:04:29.000Z</time>
      </trkpt>
      <trkpt lat="45.34445" lon="6.19857">
        <ele>2346.3999023438</ele>
        <time>2014-03-02T12:04:30.000Z</time>
      </trkpt>
      <trkpt lat="45.34445" lon="6.19857">
        <ele>2346.3999023438</ele>
        <time>2014-03-02T12:04:31.000Z</time>
      </trkpt>
      <trkpt lat="45.34445" lon="6.19856">
        <ele>2346.6000976562</ele>
        <time>2014-03-02T12:04:32.000Z</time>
      </trkpt>
      <trkpt lat="45.34446" lon="6.19854">
        <ele>2347</ele>
        <time>2014-03-02T12:04:33.000Z</time>
      </trkpt>
      <trkpt lat="45.34446" lon="6.19853">
        <ele>2347.3999023438</ele>
        <time>2014-03-02T12:04:34.000Z</time>
      </trkpt>
      <trkpt lat="45.34446" lon="6.19853">
        <ele>2347.3999023438</ele>
        <time>2014-03-02T12:04:35.000Z</time>
      </trkpt>
      <trkpt lat="45.34446" lon="6.19853">
        <ele>2347.3999023438</ele>
        <time>2014-03-02T12:04:36.000Z</time>
      </trkpt>
      <trkpt lat="45.34445" lon="6.19852">
        <ele>2347.6000976562</ele>
        <time>2014-03-02T12:04:37.000Z</time>
      </trkpt>
      <trkpt lat="45.34445" lon="6.19852">
        <ele>2347.8000488281</ele>
        <time>2014-03-02T12:04:38.000Z</time>
      </trkpt>
      <trkpt lat="45.34445" lon="6.19852">
        <ele>2347.8000488281</ele>
        <time>2014-03-02T12:04:39.000Z</time>
      </trkpt>
      <trkpt lat="45.34445" lon="6.19852">
        <ele>2347.8000488281</ele>
        <time>2014-03-02T12:04:40.000Z</time>
      </trkpt>
      <trkpt lat="45.34445" lon="6.19852">
        <ele>2347.8000488281</ele>
        <time>2014-03-02T12:04:41.000Z</time>
      </trkpt>
      <trkpt lat="45.34445" lon="6.19852">
        <ele>2347.8000488281</ele>
        <time>2014-03-02T12:04:42.000Z</time>
      </trkpt>
      <trkpt lat="45.34445" lon="6.19852">
        <ele>2347.8000488281</ele>
        <time>2014-03-02T12:04:43.000Z</time>
      </trkpt>
      <trkpt lat="45.34445" lon="6.19852">
        <ele>2347.8000488281</ele>
        <time>2014-03-02T12:04:44.000Z</time>
      </trkpt>
      <trkpt lat="45.34445" lon="6.19852">
        <ele>2347.8000488281</ele>
        <time>2014-03-02T12:04:45.000Z</time>
      </trkpt>
      <trkpt lat="45.34445" lon="6.19852">
        <ele>2347.8000488281</ele>
        <time>2014-03-02T12:04:46.000Z</time>
      </trkpt>
      <trkpt lat="45.34445" lon="6.19852">
        <ele>2347.8000488281</ele>
        <time>2014-03-02T12:04:47.000Z</time>
      </trkpt>
      <trkpt lat="45.34445" lon="6.19852">
        <ele>2347.8000488281</ele>
        <time>2014-03-02T12:04:48.000Z</time>
      </trkpt>
      <trkpt lat="45.34445" lon="6.19852">
        <ele>2347.8000488281</ele>
        <time>2014-03-02T12:04:49.000Z</time>
      </trkpt>
      <trkpt lat="45.34445" lon="6.19852">
        <ele>2347.8000488281</ele>
        <time>2014-03-02T12:04:50.000Z</time>
      </trkpt>
      <trkpt lat="45.34445" lon="6.19852">
        <ele>2347.8000488281</ele>
        <time>2014-03-02T12:04:51.000Z</time>
      </trkpt>
      <trkpt lat="45.34445" lon="6.19852">
        <ele>2347.8000488281</ele>
        <time>2014-03-02T12:04:52.000Z</time>
      </trkpt>
      <trkpt lat="45.34445" lon="6.19852">
        <ele>2347.8000488281</ele>
        <time>2014-03-02T12:04:53.000Z</time>
      </trkpt>
      <trkpt lat="45.34445" lon="6.19852">
        <ele>2347.8000488281</ele>
        <time>2014-03-02T12:04:54.000Z</time>
      </trkpt>
      <trkpt lat="45.34445" lon="6.19852">
        <ele>2347.8000488281</ele>
        <time>2014-03-02T12:04:55.000Z</time>
      </trkpt>
      <trkpt lat="45.34445" lon="6.19852">
        <ele>2347.8000488281</ele>
        <time>2014-03-02T12:04:56.000Z</time>
      </trkpt>
      <trkpt lat="45.34445" lon="6.19852">
        <ele>2347.8000488281</ele>
        <time>2014-03-02T12:04:57.000Z</time>
      </trkpt>
      <trkpt lat="45.34445" lon="6.19852">
        <ele>2347.8000488281</ele>
        <time>2014-03-02T12:04:58.000Z</time>
      </trkpt>
      <trkpt lat="45.34445" lon="6.19852">
        <ele>2347.8000488281</ele>
        <time>2014-03-02T12:04:59.000Z</time>
      </trkpt>
      <trkpt lat="45.34445" lon="6.19852">
        <ele>2347.8000488281</ele>
        <time>2014-03-02T12:05:00.000Z</time>
      </trkpt>
      <trkpt lat="45.34445" lon="6.19852">
        <ele>2347.8000488281</ele>
        <time>2014-03-02T12:05:01.000Z</time>
      </trkpt>
      <trkpt lat="45.34445" lon="6.19852">
        <ele>2347.8000488281</ele>
        <time>2014-03-02T12:05:02.000Z</time>
      </trkpt>
      <trkpt lat="45.34445" lon="6.19852">
        <ele>2347.8000488281</ele>
        <time>2014-03-02T12:05:03.000Z</time>
      </trkpt>
      <trkpt lat="45.34445" lon="6.19852">
        <ele>2347.8000488281</ele>
        <time>2014-03-02T12:05:04.000Z</time>
      </trkpt>
      <trkpt lat="45.34445" lon="6.19852">
        <ele>2347.8000488281</ele>
        <time>2014-03-02T12:05:05.000Z</time>
      </trkpt>
      <trkpt lat="45.34445" lon="6.19852">
        <ele>2347.8000488281</ele>
        <time>2014-03-02T12:05:06.000Z</time>
      </trkpt>
      <trkpt lat="45.34445" lon="6.19852">
        <ele>2347.8000488281</ele>
        <time>2014-03-02T12:05:07.000Z</time>
      </trkpt>
      <trkpt lat="45.34445" lon="6.19852">
        <ele>2347.8000488281</ele>
        <time>2014-03-02T12:05:08.000Z</time>
      </trkpt>
      <trkpt lat="45.34445" lon="6.19852">
        <ele>2347.8000488281</ele>
        <time>2014-03-02T12:05:09.000Z</time>
      </trkpt>
      <trkpt lat="45.34445" lon="6.19852">
        <ele>2347.8000488281</ele>
        <time>2014-03-02T12:05:10.000Z</time>
      </trkpt>
      <trkpt lat="45.34445" lon="6.19852">
        <ele>2347.8000488281</ele>
        <time>2014-03-02T12:05:11.000Z</time>
      </trkpt>
      <trkpt lat="45.34445" lon="6.19852">
        <ele>2347.8000488281</ele>
        <time>2014-03-02T12:05:12.000Z</time>
      </trkpt>
      <trkpt lat="45.34445" lon="6.19852">
        <ele>2347.8000488281</ele>
        <time>2014-03-02T12:05:13.000Z</time>
      </trkpt>
      <trkpt lat="45.34445" lon="6.19852">
        <ele>2347.8000488281</ele>
        <time>2014-03-02T12:05:14.000Z</time>
      </trkpt>
      <trkpt lat="45.34445" lon="6.19852">
        <ele>2347.8000488281</ele>
        <time>2014-03-02T12:05:15.000Z</time>
      </trkpt>
      <trkpt lat="45.34445" lon="6.19852">
        <ele>2347.8000488281</ele>
        <time>2014-03-02T12:05:16.000Z</time>
      </trkpt>
      <trkpt lat="45.34445" lon="6.19852">
        <ele>2347.8000488281</ele>
        <time>2014-03-02T12:05:17.000Z</time>
      </trkpt>
      <trkpt lat="45.34445" lon="6.1985">
        <ele>2348</ele>
        <time>2014-03-02T12:05:18.000Z</time>
      </trkpt>
      <trkpt lat="45.34445" lon="6.1985">
        <ele>2348</ele>
        <time>2014-03-02T12:05:19.000Z</time>
      </trkpt>
      <trkpt lat="45.34445" lon="6.1985">
        <ele>2348</ele>
        <time>2014-03-02T12:05:21.000Z</time>
      </trkpt>
      <trkpt lat="45.34445" lon="6.1985">
        <ele>2348</ele>
        <time>2014-03-02T12:05:22.000Z</time>
      </trkpt>
      <trkpt lat="45.34444" lon="6.19841">
        <ele>2350</ele>
        <time>2014-03-02T12:05:25.000Z</time>
      </trkpt>
      <trkpt lat="45.34445" lon="6.19839">
        <ele>2351</ele>
        <time>2014-03-02T12:05:26.000Z</time>
      </trkpt>
      <trkpt lat="45.34446" lon="6.19837">
        <ele>2351.6000976562</ele>
        <time>2014-03-02T12:05:27.000Z</time>
      </trkpt>
      <trkpt lat="45.34446" lon="6.19837">
        <ele>2351.6000976562</ele>
        <time>2014-03-02T12:05:28.000Z</time>
      </trkpt>
      <trkpt lat="45.34446" lon="6.19837">
        <ele>2351.6000976562</ele>
        <time>2014-03-02T12:05:29.000Z</time>
      </trkpt>
      <trkpt lat="45.34446" lon="6.19837">
        <ele>2351.6000976562</ele>
        <time>2014-03-02T12:05:30.000Z</time>
      </trkpt>
      <trkpt lat="45.34446" lon="6.19837">
        <ele>2351.6000976562</ele>
        <time>2014-03-02T12:05:31.000Z</time>
      </trkpt>
      <trkpt lat="45.34446" lon="6.19837">
        <ele>2351.6000976562</ele>
        <time>2014-03-02T12:05:32.000Z</time>
      </trkpt>
      <trkpt lat="45.34446" lon="6.19837">
        <ele>2351.6000976562</ele>
        <time>2014-03-02T12:05:33.000Z</time>
      </trkpt>
      <trkpt lat="45.34445" lon="6.19834">
        <ele>2352.3999023438</ele>
        <time>2014-03-02T12:05:34.000Z</time>
      </trkpt>
      <trkpt lat="45.34445" lon="6.19834">
        <ele>2352.3999023438</ele>
        <time>2014-03-02T12:05:35.000Z</time>
      </trkpt>
      <trkpt lat="45.34445" lon="6.19834">
        <ele>2352.3999023438</ele>
        <time>2014-03-02T12:05:36.000Z</time>
      </trkpt>
      <trkpt lat="45.34445" lon="6.19834">
        <ele>2352.3999023438</ele>
        <time>2014-03-02T12:05:37.000Z</time>
      </trkpt>
      <trkpt lat="45.34445" lon="6.19834">
        <ele>2352.3999023438</ele>
        <time>2014-03-02T12:05:38.000Z</time>
      </trkpt>
      <trkpt lat="45.34445" lon="6.19834">
        <ele>2352.3999023438</ele>
        <time>2014-03-02T12:05:39.000Z</time>
      </trkpt>
      <trkpt lat="45.34446" lon="6.19832">
        <ele>2353</ele>
        <time>2014-03-02T12:05:40.000Z</time>
      </trkpt>
      <trkpt lat="45.34445" lon="6.19831">
        <ele>2353.1999511719</ele>
        <time>2014-03-02T12:05:41.000Z</time>
      </trkpt>
      <trkpt lat="45.34445" lon="6.19829">
        <ele>2353.6000976562</ele>
        <time>2014-03-02T12:05:42.000Z</time>
      </trkpt>
      <trkpt lat="45.34445" lon="6.19829">
        <ele>2353.6000976562</ele>
        <time>2014-03-02T12:05:43.000Z</time>
      </trkpt>
      <trkpt lat="45.34445" lon="6.19828">
        <ele>2354</ele>
        <time>2014-03-02T12:05:44.000Z</time>
      </trkpt>
      <trkpt lat="45.34445" lon="6.19826">
        <ele>2354.1999511719</ele>
        <time>2014-03-02T12:05:45.000Z</time>
      </trkpt>
      <trkpt lat="45.34444" lon="6.19826">
        <ele>2354.1999511719</ele>
        <time>2014-03-02T12:05:46.000Z</time>
      </trkpt>
      <trkpt lat="45.34444" lon="6.19825">
        <ele>2354.3999023438</ele>
        <time>2014-03-02T12:05:47.000Z</time>
      </trkpt>
      <trkpt lat="45.34444" lon="6.19825">
        <ele>2354.3999023438</ele>
        <time>2014-03-02T12:05:48.000Z</time>
      </trkpt>
      <trkpt lat="45.34444" lon="6.19824">
        <ele>2354.8000488281</ele>
        <time>2014-03-02T12:05:49.000Z</time>
      </trkpt>
      <trkpt lat="45.34444" lon="6.19822">
        <ele>2355.1999511719</ele>
        <time>2014-03-02T12:05:50.000Z</time>
      </trkpt>
      <trkpt lat="45.34444" lon="6.19822">
        <ele>2355.1999511719</ele>
        <time>2014-03-02T12:05:51.000Z</time>
      </trkpt>
      <trkpt lat="45.34444" lon="6.19822">
        <ele>2355.3999023438</ele>
        <time>2014-03-02T12:05:52.000Z</time>
      </trkpt>
      <trkpt lat="45.34443" lon="6.19821">
        <ele>2355.1999511719</ele>
        <time>2014-03-02T12:05:53.000Z</time>
      </trkpt>
      <trkpt lat="45.34443" lon="6.1982">
        <ele>2355.3999023438</ele>
        <time>2014-03-02T12:05:54.000Z</time>
      </trkpt>
      <trkpt lat="45.34443" lon="6.1982">
        <ele>2355.3999023438</ele>
        <time>2014-03-02T12:05:55.000Z</time>
      </trkpt>
      <trkpt lat="45.34442" lon="6.1982">
        <ele>2355.3999023438</ele>
        <time>2014-03-02T12:05:56.000Z</time>
      </trkpt>
      <trkpt lat="45.34442" lon="6.19819">
        <ele>2355.3999023438</ele>
        <time>2014-03-02T12:05:57.000Z</time>
      </trkpt>
      <trkpt lat="45.34441" lon="6.19819">
        <ele>2355.3999023438</ele>
        <time>2014-03-02T12:05:58.000Z</time>
      </trkpt>
      <trkpt lat="45.34441" lon="6.19819">
        <ele>2355.3999023438</ele>
        <time>2014-03-02T12:05:59.000Z</time>
      </trkpt>
      <trkpt lat="45.34441" lon="6.19818">
        <ele>2355.3999023438</ele>
        <time>2014-03-02T12:06:00.000Z</time>
      </trkpt>
      <trkpt lat="45.3444" lon="6.19818">
        <ele>2355.3999023438</ele>
        <time>2014-03-02T12:06:02.000Z</time>
      </trkpt>
      <trkpt lat="45.3444" lon="6.19817">
        <ele>2355.1999511719</ele>
        <time>2014-03-02T12:06:03.000Z</time>
      </trkpt>
      <trkpt lat="45.34439" lon="6.19817">
        <ele>2355.1999511719</ele>
        <time>2014-03-02T12:06:04.000Z</time>
      </trkpt>
      <trkpt lat="45.34439" lon="6.19817">
        <ele>2355.1999511719</ele>
        <time>2014-03-02T12:06:05.000Z</time>
      </trkpt>
      <trkpt lat="45.34439" lon="6.19817">
        <ele>2355.1999511719</ele>
        <time>2014-03-02T12:06:06.000Z</time>
      </trkpt>
      <trkpt lat="45.34439" lon="6.19817">
        <ele>2355.1999511719</ele>
        <time>2014-03-02T12:06:07.000Z</time>
      </trkpt>
      <trkpt lat="45.34439" lon="6.19817">
        <ele>2355.1999511719</ele>
        <time>2014-03-02T12:06:08.000Z</time>
      </trkpt>
      <trkpt lat="45.34439" lon="6.19817">
        <ele>2355.1999511719</ele>
        <time>2014-03-02T12:06:09.000Z</time>
      </trkpt>
      <trkpt lat="45.34439" lon="6.19817">
        <ele>2355.1999511719</ele>
        <time>2014-03-02T12:06:10.000Z</time>
      </trkpt>
      <trkpt lat="45.34439" lon="6.19817">
        <ele>2355.1999511719</ele>
        <time>2014-03-02T12:06:11.000Z</time>
      </trkpt>
      <trkpt lat="45.34439" lon="6.19817">
        <ele>2355.1999511719</ele>
        <time>2014-03-02T12:06:12.000Z</time>
      </trkpt>
      <trkpt lat="45.34439" lon="6.19817">
        <ele>2355.1999511719</ele>
        <time>2014-03-02T12:06:13.000Z</time>
      </trkpt>
      <trkpt lat="45.34439" lon="6.19817">
        <ele>2355.1999511719</ele>
        <time>2014-03-02T12:06:14.000Z</time>
      </trkpt>
      <trkpt lat="45.34439" lon="6.19817">
        <ele>2355.1999511719</ele>
        <time>2014-03-02T12:06:15.000Z</time>
      </trkpt>
      <trkpt lat="45.34439" lon="6.19817">
        <ele>2355.1999511719</ele>
        <time>2014-03-02T12:06:16.000Z</time>
      </trkpt>
      <trkpt lat="45.34439" lon="6.19817">
        <ele>2355.1999511719</ele>
        <time>2014-03-02T12:06:17.000Z</time>
      </trkpt>
      <trkpt lat="45.34439" lon="6.19817">
        <ele>2355.1999511719</ele>
        <time>2014-03-02T12:06:18.000Z</time>
      </trkpt>
      <trkpt lat="45.34439" lon="6.19817">
        <ele>2355.1999511719</ele>
        <time>2014-03-02T12:06:19.000Z</time>
      </trkpt>
      <trkpt lat="45.34439" lon="6.19817">
        <ele>2355.1999511719</ele>
        <time>2014-03-02T12:06:20.000Z</time>
      </trkpt>
      <trkpt lat="45.34439" lon="6.19817">
        <ele>2355.1999511719</ele>
        <time>2014-03-02T12:06:21.000Z</time>
      </trkpt>
      <trkpt lat="45.34439" lon="6.19817">
        <ele>2355.1999511719</ele>
        <time>2014-03-02T12:06:22.000Z</time>
      </trkpt>
      <trkpt lat="45.34439" lon="6.19817">
        <ele>2355.1999511719</ele>
        <time>2014-03-02T12:06:23.000Z</time>
      </trkpt>
      <trkpt lat="45.34439" lon="6.19817">
        <ele>2355.1999511719</ele>
        <time>2014-03-02T12:06:24.000Z</time>
      </trkpt>
      <trkpt lat="45.34439" lon="6.19817">
        <ele>2355.1999511719</ele>
        <time>2014-03-02T12:06:25.000Z</time>
      </trkpt>
      <trkpt lat="45.34439" lon="6.19817">
        <ele>2355.1999511719</ele>
        <time>2014-03-02T12:06:26.000Z</time>
      </trkpt>
      <trkpt lat="45.34439" lon="6.19817">
        <ele>2355.1999511719</ele>
        <time>2014-03-02T12:06:27.000Z</time>
      </trkpt>
      <trkpt lat="45.34439" lon="6.19817">
        <ele>2355.1999511719</ele>
        <time>2014-03-02T12:06:28.000Z</time>
      </trkpt>
      <trkpt lat="45.34439" lon="6.19817">
        <ele>2355.1999511719</ele>
        <time>2014-03-02T12:06:29.000Z</time>
      </trkpt>
      <trkpt lat="45.34439" lon="6.19817">
        <ele>2355.1999511719</ele>
        <time>2014-03-02T12:06:30.000Z</time>
      </trkpt>
      <trkpt lat="45.34439" lon="6.19817">
        <ele>2355.1999511719</ele>
        <time>2014-03-02T12:06:31.000Z</time>
      </trkpt>
      <trkpt lat="45.34439" lon="6.19817">
        <ele>2355.1999511719</ele>
        <time>2014-03-02T12:06:32.000Z</time>
      </trkpt>
      <trkpt lat="45.34439" lon="6.19817">
        <ele>2355.1999511719</ele>
        <time>2014-03-02T12:06:33.000Z</time>
      </trkpt>
      <trkpt lat="45.34439" lon="6.19817">
        <ele>2355.1999511719</ele>
        <time>2014-03-02T12:06:34.000Z</time>
      </trkpt>
      <trkpt lat="45.34439" lon="6.19817">
        <ele>2355.1999511719</ele>
        <time>2014-03-02T12:06:35.000Z</time>
      </trkpt>
      <trkpt lat="45.34439" lon="6.19817">
        <ele>2355.1999511719</ele>
        <time>2014-03-02T12:06:36.000Z</time>
      </trkpt>
      <trkpt lat="45.34439" lon="6.19817">
        <ele>2355.1999511719</ele>
        <time>2014-03-02T12:06:37.000Z</time>
      </trkpt>
      <trkpt lat="45.34439" lon="6.19817">
        <ele>2355.1999511719</ele>
        <time>2014-03-02T12:06:39.000Z</time>
      </trkpt>
      <trkpt lat="45.34439" lon="6.19817">
        <ele>2355.1999511719</ele>
        <time>2014-03-02T12:06:40.000Z</time>
      </trkpt>
      <trkpt lat="45.34439" lon="6.19817">
        <ele>2355.1999511719</ele>
        <time>2014-03-02T12:06:41.000Z</time>
      </trkpt>
      <trkpt lat="45.34439" lon="6.19817">
        <ele>2355.1999511719</ele>
        <time>2014-03-02T12:06:42.000Z</time>
      </trkpt>
      <trkpt lat="45.34439" lon="6.19817">
        <ele>2355.1999511719</ele>
        <time>2014-03-02T12:06:44.000Z</time>
      </trkpt>
      <trkpt lat="45.34439" lon="6.19817">
        <ele>2355.1999511719</ele>
        <time>2014-03-02T12:06:47.000Z</time>
      </trkpt>
      <trkpt lat="45.34439" lon="6.19817">
        <ele>2355.1999511719</ele>
        <time>2014-03-02T12:06:48.000Z</time>
      </trkpt>
      <trkpt lat="45.34439" lon="6.19817">
        <ele>2355.1999511719</ele>
        <time>2014-03-02T12:06:49.000Z</time>
      </trkpt>
      <trkpt lat="45.34439" lon="6.19817">
        <ele>2355.1999511719</ele>
        <time>2014-03-02T12:06:50.000Z</time>
      </trkpt>
      <trkpt lat="45.34439" lon="6.19817">
        <ele>2355.1999511719</ele>
        <time>2014-03-02T12:06:51.000Z</time>
      </trkpt>
      <trkpt lat="45.34439" lon="6.19817">
        <ele>2355.1999511719</ele>
        <time>2014-03-02T12:06:52.000Z</time>
      </trkpt>
      <trkpt lat="45.34439" lon="6.19817">
        <ele>2355.1999511719</ele>
        <time>2014-03-02T12:06:53.000Z</time>
      </trkpt>
      <trkpt lat="45.34439" lon="6.19817">
        <ele>2355.1999511719</ele>
        <time>2014-03-02T12:06:54.000Z</time>
      </trkpt>
      <trkpt lat="45.34439" lon="6.19817">
        <ele>2355.1999511719</ele>
        <time>2014-03-02T12:06:55.000Z</time>
      </trkpt>
      <trkpt lat="45.34439" lon="6.19817">
        <ele>2355.1999511719</ele>
        <time>2014-03-02T12:06:56.000Z</time>
      </trkpt>
      <trkpt lat="45.34439" lon="6.19817">
        <ele>2355.1999511719</ele>
        <time>2014-03-02T12:06:57.000Z</time>
      </trkpt>
      <trkpt lat="45.34439" lon="6.19817">
        <ele>2355.1999511719</ele>
        <time>2014-03-02T12:06:58.000Z</time>
      </trkpt>
      <trkpt lat="45.34439" lon="6.19817">
        <ele>2355.1999511719</ele>
        <time>2014-03-02T12:06:59.000Z</time>
      </trkpt>
      <trkpt lat="45.34439" lon="6.19817">
        <ele>2355.1999511719</ele>
        <time>2014-03-02T12:07:00.000Z</time>
      </trkpt>
      <trkpt lat="45.34439" lon="6.19817">
        <ele>2355.1999511719</ele>
        <time>2014-03-02T12:07:01.000Z</time>
      </trkpt>
      <trkpt lat="45.34439" lon="6.19814">
        <ele>2356</ele>
        <time>2014-03-02T12:07:02.000Z</time>
      </trkpt>
      <trkpt lat="45.34439" lon="6.19814">
        <ele>2356</ele>
        <time>2014-03-02T12:07:03.000Z</time>
      </trkpt>
      <trkpt lat="45.34439" lon="6.19812">
        <ele>2356.6000976562</ele>
        <time>2014-03-02T12:07:04.000Z</time>
      </trkpt>
      <trkpt lat="45.34439" lon="6.1981">
        <ele>2357</ele>
        <time>2014-03-02T12:07:05.000Z</time>
      </trkpt>
      <trkpt lat="45.34439" lon="6.1981">
        <ele>2357</ele>
        <time>2014-03-02T12:07:06.000Z</time>
      </trkpt>
      <trkpt lat="45.34439" lon="6.1981">
        <ele>2357</ele>
        <time>2014-03-02T12:07:07.000Z</time>
      </trkpt>
      <trkpt lat="45.34439" lon="6.1981">
        <ele>2357</ele>
        <time>2014-03-02T12:07:08.000Z</time>
      </trkpt>
      <trkpt lat="45.34439" lon="6.1981">
        <ele>2357</ele>
        <time>2014-03-02T12:07:09.000Z</time>
      </trkpt>
      <trkpt lat="45.34439" lon="6.1981">
        <ele>2357</ele>
        <time>2014-03-02T12:07:10.000Z</time>
      </trkpt>
      <trkpt lat="45.34439" lon="6.1981">
        <ele>2357</ele>
        <time>2014-03-02T12:07:11.000Z</time>
      </trkpt>
      <trkpt lat="45.34439" lon="6.1981">
        <ele>2357</ele>
        <time>2014-03-02T12:07:12.000Z</time>
      </trkpt>
      <trkpt lat="45.34439" lon="6.1981">
        <ele>2357</ele>
        <time>2014-03-02T12:07:13.000Z</time>
      </trkpt>
      <trkpt lat="45.34439" lon="6.1981">
        <ele>2357</ele>
        <time>2014-03-02T12:07:14.000Z</time>
      </trkpt>
      <trkpt lat="45.34439" lon="6.1981">
        <ele>2357</ele>
        <time>2014-03-02T12:07:15.000Z</time>
      </trkpt>
      <trkpt lat="45.34439" lon="6.19809">
        <ele>2357.6000976562</ele>
        <time>2014-03-02T12:07:16.000Z</time>
      </trkpt>
      <trkpt lat="45.34439" lon="6.19809">
        <ele>2357.6000976562</ele>
        <time>2014-03-02T12:07:17.000Z</time>
      </trkpt>
      <trkpt lat="45.3444" lon="6.19807">
        <ele>2358.3999023438</ele>
        <time>2014-03-02T12:07:18.000Z</time>
      </trkpt>
      <trkpt lat="45.34442" lon="6.19806">
        <ele>2359</ele>
        <time>2014-03-02T12:07:19.000Z</time>
      </trkpt>
      <trkpt lat="45.34443" lon="6.19805">
        <ele>2359.3999023438</ele>
        <time>2014-03-02T12:07:20.000Z</time>
      </trkpt>
      <trkpt lat="45.34444" lon="6.19804">
        <ele>2360</ele>
        <time>2014-03-02T12:07:21.000Z</time>
      </trkpt>
      <trkpt lat="45.34445" lon="6.19803">
        <ele>2360.6000976562</ele>
        <time>2014-03-02T12:07:22.000Z</time>
      </trkpt>
      <trkpt lat="45.34446" lon="6.19802">
        <ele>2361.1999511719</ele>
        <time>2014-03-02T12:07:23.000Z</time>
      </trkpt>
      <trkpt lat="45.34448" lon="6.19801">
        <ele>2361.6000976562</ele>
        <time>2014-03-02T12:07:24.000Z</time>
      </trkpt>
      <trkpt lat="45.34448" lon="6.198">
        <ele>2362</ele>
        <time>2014-03-02T12:07:25.000Z</time>
      </trkpt>
      <trkpt lat="45.3445" lon="6.198">
        <ele>2362.6000976562</ele>
        <time>2014-03-02T12:07:26.000Z</time>
      </trkpt>
      <trkpt lat="45.34451" lon="6.19799">
        <ele>2363</ele>
        <time>2014-03-02T12:07:27.000Z</time>
      </trkpt>
      <trkpt lat="45.34452" lon="6.19798">
        <ele>2363.1999511719</ele>
        <time>2014-03-02T12:07:28.000Z</time>
      </trkpt>
      <trkpt lat="45.34452" lon="6.19798">
        <ele>2363.3999023438</ele>
        <time>2014-03-02T12:07:29.000Z</time>
      </trkpt>
      <trkpt lat="45.34453" lon="6.19797">
        <ele>2363.6000976562</ele>
        <time>2014-03-02T12:07:30.000Z</time>
      </trkpt>
      <trkpt lat="45.34455" lon="6.19797">
        <ele>2364</ele>
        <time>2014-03-02T12:07:31.000Z</time>
      </trkpt>
      <trkpt lat="45.34455" lon="6.19796">
        <ele>2364</ele>
        <time>2014-03-02T12:07:32.000Z</time>
      </trkpt>
      <trkpt lat="45.34457" lon="6.19796">
        <ele>2364.6000976562</ele>
        <time>2014-03-02T12:07:33.000Z</time>
      </trkpt>
      <trkpt lat="45.34459" lon="6.19795">
        <ele>2364.8000488281</ele>
        <time>2014-03-02T12:07:34.000Z</time>
      </trkpt>
      <trkpt lat="45.34461" lon="6.19794">
        <ele>2365.1999511719</ele>
        <time>2014-03-02T12:07:35.000Z</time>
      </trkpt>
      <trkpt lat="45.34461" lon="6.19794">
        <ele>2365.1999511719</ele>
        <time>2014-03-02T12:07:36.000Z</time>
      </trkpt>
      <trkpt lat="45.34461" lon="6.19794">
        <ele>2365.1999511719</ele>
        <time>2014-03-02T12:07:37.000Z</time>
      </trkpt>
      <trkpt lat="45.34461" lon="6.19794">
        <ele>2365.1999511719</ele>
        <time>2014-03-02T12:07:38.000Z</time>
      </trkpt>
      <trkpt lat="45.34461" lon="6.19794">
        <ele>2365.1999511719</ele>
        <time>2014-03-02T12:07:39.000Z</time>
      </trkpt>
      <trkpt lat="45.34461" lon="6.19794">
        <ele>2365.1999511719</ele>
        <time>2014-03-02T12:07:40.000Z</time>
      </trkpt>
      <trkpt lat="45.34461" lon="6.19794">
        <ele>2365.1999511719</ele>
        <time>2014-03-02T12:07:41.000Z</time>
      </trkpt>
      <trkpt lat="45.34461" lon="6.19794">
        <ele>2365.1999511719</ele>
        <time>2014-03-02T12:07:42.000Z</time>
      </trkpt>
      <trkpt lat="45.34461" lon="6.19794">
        <ele>2365.1999511719</ele>
        <time>2014-03-02T12:07:43.000Z</time>
      </trkpt>
      <trkpt lat="45.34461" lon="6.19794">
        <ele>2365.1999511719</ele>
        <time>2014-03-02T12:07:44.000Z</time>
      </trkpt>
      <trkpt lat="45.34461" lon="6.19794">
        <ele>2365.1999511719</ele>
        <time>2014-03-02T12:07:45.000Z</time>
      </trkpt>
      <trkpt lat="45.34461" lon="6.19794">
        <ele>2365.1999511719</ele>
        <time>2014-03-02T12:07:46.000Z</time>
      </trkpt>
      <trkpt lat="45.34461" lon="6.19794">
        <ele>2365.1999511719</ele>
        <time>2014-03-02T12:07:47.000Z</time>
      </trkpt>
      <trkpt lat="45.34461" lon="6.19794">
        <ele>2365.1999511719</ele>
        <time>2014-03-02T12:07:48.000Z</time>
      </trkpt>
      <trkpt lat="45.34461" lon="6.19794">
        <ele>2365.1999511719</ele>
        <time>2014-03-02T12:07:49.000Z</time>
      </trkpt>
      <trkpt lat="45.34461" lon="6.19794">
        <ele>2365.1999511719</ele>
        <time>2014-03-02T12:07:50.000Z</time>
      </trkpt>
      <trkpt lat="45.34462" lon="6.19794">
        <ele>2365.3999023438</ele>
        <time>2014-03-02T12:07:51.000Z</time>
      </trkpt>
      <trkpt lat="45.34463" lon="6.19795">
        <ele>2365.6000976562</ele>
        <time>2014-03-02T12:07:52.000Z</time>
      </trkpt>
      <trkpt lat="45.34466" lon="6.19794">
        <ele>2366.1999511719</ele>
        <time>2014-03-02T12:07:54.000Z</time>
      </trkpt>
      <trkpt lat="45.34466" lon="6.19794">
        <ele>2366.1999511719</ele>
        <time>2014-03-02T12:07:55.000Z</time>
      </trkpt>
      <trkpt lat="45.34466" lon="6.19794">
        <ele>2366.3999023438</ele>
        <time>2014-03-02T12:07:56.000Z</time>
      </trkpt>
      <trkpt lat="45.34466" lon="6.19794">
        <ele>2366.1999511719</ele>
        <time>2014-03-02T12:07:57.000Z</time>
      </trkpt>
      <trkpt lat="45.34466" lon="6.19794">
        <ele>2366.1999511719</ele>
        <time>2014-03-02T12:07:58.000Z</time>
      </trkpt>
      <trkpt lat="45.34466" lon="6.19794">
        <ele>2366.1999511719</ele>
        <time>2014-03-02T12:07:59.000Z</time>
      </trkpt>
      <trkpt lat="45.34466" lon="6.19794">
        <ele>2366.3999023438</ele>
        <time>2014-03-02T12:08:00.000Z</time>
      </trkpt>
      <trkpt lat="45.34468" lon="6.19795">
        <ele>2366.6000976562</ele>
        <time>2014-03-02T12:08:01.000Z</time>
      </trkpt>
      <trkpt lat="45.34468" lon="6.19795">
        <ele>2366.6000976562</ele>
        <time>2014-03-02T12:08:02.000Z</time>
      </trkpt>
      <trkpt lat="45.34468" lon="6.19795">
        <ele>2366.8000488281</ele>
        <time>2014-03-02T12:08:03.000Z</time>
      </trkpt>
      <trkpt lat="45.34468" lon="6.19795">
        <ele>2366.6000976562</ele>
        <time>2014-03-02T12:08:04.000Z</time>
      </trkpt>
      <trkpt lat="45.34469" lon="6.19795">
        <ele>2366.8000488281</ele>
        <time>2014-03-02T12:08:05.000Z</time>
      </trkpt>
      <trkpt lat="45.3447" lon="6.19795">
        <ele>2367.1999511719</ele>
        <time>2014-03-02T12:08:06.000Z</time>
      </trkpt>
      <trkpt lat="45.34471" lon="6.19796">
        <ele>2367.3999023438</ele>
        <time>2014-03-02T12:08:07.000Z</time>
      </trkpt>
      <trkpt lat="45.34471" lon="6.19796">
        <ele>2367.3999023438</ele>
        <time>2014-03-02T12:08:08.000Z</time>
      </trkpt>
      <trkpt lat="45.34471" lon="6.19797">
        <ele>2367.3999023438</ele>
        <time>2014-03-02T12:08:09.000Z</time>
      </trkpt>
      <trkpt lat="45.34472" lon="6.19797">
        <ele>2367.3999023438</ele>
        <time>2014-03-02T12:08:10.000Z</time>
      </trkpt>
      <trkpt lat="45.34472" lon="6.19798">
        <ele>2367.3999023438</ele>
        <time>2014-03-02T12:08:11.000Z</time>
      </trkpt>
      <trkpt lat="45.34472" lon="6.19799">
        <ele>2367.1999511719</ele>
        <time>2014-03-02T12:08:12.000Z</time>
      </trkpt>
      <trkpt lat="45.34472" lon="6.19799">
        <ele>2367.1999511719</ele>
        <time>2014-03-02T12:08:13.000Z</time>
      </trkpt>
      <trkpt lat="45.34473" lon="6.198">
        <ele>2367.1999511719</ele>
        <time>2014-03-02T12:08:14.000Z</time>
      </trkpt>
      <trkpt lat="45.34473" lon="6.198">
        <ele>2367.1999511719</ele>
        <time>2014-03-02T12:08:15.000Z</time>
      </trkpt>
      <trkpt lat="45.34473" lon="6.198">
        <ele>2367.1999511719</ele>
        <time>2014-03-02T12:08:16.000Z</time>
      </trkpt>
      <trkpt lat="45.34473" lon="6.19802">
        <ele>2367</ele>
        <time>2014-03-02T12:08:17.000Z</time>
      </trkpt>
      <trkpt lat="45.34473" lon="6.19802">
        <ele>2367</ele>
        <time>2014-03-02T12:08:18.000Z</time>
      </trkpt>
      <trkpt lat="45.34474" lon="6.19803">
        <ele>2367</ele>
        <time>2014-03-02T12:08:19.000Z</time>
      </trkpt>
      <trkpt lat="45.34474" lon="6.19803">
        <ele>2366.8000488281</ele>
        <time>2014-03-02T12:08:20.000Z</time>
      </trkpt>
      <trkpt lat="45.34474" lon="6.19804">
        <ele>2366.8000488281</ele>
        <time>2014-03-02T12:08:21.000Z</time>
      </trkpt>
      <trkpt lat="45.34474" lon="6.19805">
        <ele>2366.6000976562</ele>
        <time>2014-03-02T12:08:22.000Z</time>
      </trkpt>
      <trkpt lat="45.34473" lon="6.19805">
        <ele>2366.6000976562</ele>
        <time>2014-03-02T12:08:23.000Z</time>
      </trkpt>
      <trkpt lat="45.34474" lon="6.19806">
        <ele>2366.6000976562</ele>
        <time>2014-03-02T12:08:24.000Z</time>
      </trkpt>
      <trkpt lat="45.34474" lon="6.19806">
        <ele>2366.6000976562</ele>
        <time>2014-03-02T12:08:25.000Z</time>
      </trkpt>
      <trkpt lat="45.34474" lon="6.19806">
        <ele>2366.6000976562</ele>
        <time>2014-03-02T12:08:26.000Z</time>
      </trkpt>
      <trkpt lat="45.34474" lon="6.19806">
        <ele>2366.6000976562</ele>
        <time>2014-03-02T12:08:27.000Z</time>
      </trkpt>
      <trkpt lat="45.34474" lon="6.19807">
        <ele>2366.3999023438</ele>
        <time>2014-03-02T12:08:28.000Z</time>
      </trkpt>
      <trkpt lat="45.34474" lon="6.19807">
        <ele>2366.3999023438</ele>
        <time>2014-03-02T12:08:29.000Z</time>
      </trkpt>
      <trkpt lat="45.34474" lon="6.19807">
        <ele>2366.3999023438</ele>
        <time>2014-03-02T12:08:30.000Z</time>
      </trkpt>
      <trkpt lat="45.34474" lon="6.19807">
        <ele>2366.3999023438</ele>
        <time>2014-03-02T12:08:31.000Z</time>
      </trkpt>
      <trkpt lat="45.34474" lon="6.19807">
        <ele>2366.3999023438</ele>
        <time>2014-03-02T12:08:32.000Z</time>
      </trkpt>
      <trkpt lat="45.34474" lon="6.19807">
        <ele>2366.3999023438</ele>
        <time>2014-03-02T12:08:33.000Z</time>
      </trkpt>
      <trkpt lat="45.34474" lon="6.19808">
        <ele>2366.3999023438</ele>
        <time>2014-03-02T12:08:34.000Z</time>
      </trkpt>
      <trkpt lat="45.34474" lon="6.19808">
        <ele>2366.3999023438</ele>
        <time>2014-03-02T12:08:35.000Z</time>
      </trkpt>
      <trkpt lat="45.34474" lon="6.19808">
        <ele>2366.3999023438</ele>
        <time>2014-03-02T12:08:36.000Z</time>
      </trkpt>
      <trkpt lat="45.34474" lon="6.19808">
        <ele>2366.3999023438</ele>
        <time>2014-03-02T12:08:37.000Z</time>
      </trkpt>
      <trkpt lat="45.34474" lon="6.19808">
        <ele>2366.3999023438</ele>
        <time>2014-03-02T12:08:38.000Z</time>
      </trkpt>
      <trkpt lat="45.34474" lon="6.19808">
        <ele>2366.3999023438</ele>
        <time>2014-03-02T12:08:39.000Z</time>
      </trkpt>
      <trkpt lat="45.34474" lon="6.19808">
        <ele>2366.3999023438</ele>
        <time>2014-03-02T12:08:40.000Z</time>
      </trkpt>
      <trkpt lat="45.34474" lon="6.19808">
        <ele>2366.3999023438</ele>
        <time>2014-03-02T12:08:41.000Z</time>
      </trkpt>
      <trkpt lat="45.34474" lon="6.19809">
        <ele>2366.3999023438</ele>
        <time>2014-03-02T12:08:42.000Z</time>
      </trkpt>
      <trkpt lat="45.34474" lon="6.19809">
        <ele>2366.3999023438</ele>
        <time>2014-03-02T12:08:43.000Z</time>
      </trkpt>
      <trkpt lat="45.34475" lon="6.19809">
        <ele>2366.3999023438</ele>
        <time>2014-03-02T12:08:44.000Z</time>
      </trkpt>
      <trkpt lat="45.34475" lon="6.1981">
        <ele>2366.3999023438</ele>
        <time>2014-03-02T12:08:45.000Z</time>
      </trkpt>
      <trkpt lat="45.34475" lon="6.1981">
        <ele>2366.3999023438</ele>
        <time>2014-03-02T12:08:46.000Z</time>
      </trkpt>
      <trkpt lat="45.34476" lon="6.19811">
        <ele>2366.3999023438</ele>
        <time>2014-03-02T12:08:47.000Z</time>
      </trkpt>
      <trkpt lat="45.34476" lon="6.19811">
        <ele>2366.3999023438</ele>
        <time>2014-03-02T12:08:48.000Z</time>
      </trkpt>
      <trkpt lat="45.34476" lon="6.19812">
        <ele>2366.1999511719</ele>
        <time>2014-03-02T12:08:49.000Z</time>
      </trkpt>
      <trkpt lat="45.34476" lon="6.19812">
        <ele>2366.1999511719</ele>
        <time>2014-03-02T12:08:50.000Z</time>
      </trkpt>
      <trkpt lat="45.34476" lon="6.19812">
        <ele>2366.1999511719</ele>
        <time>2014-03-02T12:08:51.000Z</time>
      </trkpt>
      <trkpt lat="45.34476" lon="6.19812">
        <ele>2366.1999511719</ele>
        <time>2014-03-02T12:08:52.000Z</time>
      </trkpt>
      <trkpt lat="45.34476" lon="6.19812">
        <ele>2366.1999511719</ele>
        <time>2014-03-02T12:08:53.000Z</time>
      </trkpt>
      <trkpt lat="45.34476" lon="6.19813">
        <ele>2366</ele>
        <time>2014-03-02T12:08:54.000Z</time>
      </trkpt>
      <trkpt lat="45.34476" lon="6.19813">
        <ele>2366</ele>
        <time>2014-03-02T12:08:55.000Z</time>
      </trkpt>
      <trkpt lat="45.34476" lon="6.19813">
        <ele>2366</ele>
        <time>2014-03-02T12:08:56.000Z</time>
      </trkpt>
      <trkpt lat="45.34476" lon="6.19813">
        <ele>2366</ele>
        <time>2014-03-02T12:08:57.000Z</time>
      </trkpt>
      <trkpt lat="45.34476" lon="6.19813">
        <ele>2366</ele>
        <time>2014-03-02T12:08:58.000Z</time>
      </trkpt>
      <trkpt lat="45.34476" lon="6.19813">
        <ele>2366</ele>
        <time>2014-03-02T12:08:59.000Z</time>
      </trkpt>
      <trkpt lat="45.34476" lon="6.19813">
        <ele>2366</ele>
        <time>2014-03-02T12:09:00.000Z</time>
      </trkpt>
      <trkpt lat="45.34476" lon="6.19813">
        <ele>2366</ele>
        <time>2014-03-02T12:09:01.000Z</time>
      </trkpt>
      <trkpt lat="45.34476" lon="6.19813">
        <ele>2366</ele>
        <time>2014-03-02T12:09:02.000Z</time>
      </trkpt>
      <trkpt lat="45.34476" lon="6.19813">
        <ele>2366</ele>
        <time>2014-03-02T12:09:03.000Z</time>
      </trkpt>
      <trkpt lat="45.34476" lon="6.19813">
        <ele>2366</ele>
        <time>2014-03-02T12:09:04.000Z</time>
      </trkpt>
      <trkpt lat="45.34477" lon="6.19812">
        <ele>2366.3999023438</ele>
        <time>2014-03-02T12:09:05.000Z</time>
      </trkpt>
      <trkpt lat="45.34477" lon="6.19812">
        <ele>2366.3999023438</ele>
        <time>2014-03-02T12:09:06.000Z</time>
      </trkpt>
      <trkpt lat="45.34477" lon="6.19812">
        <ele>2366.6000976562</ele>
        <time>2014-03-02T12:09:07.000Z</time>
      </trkpt>
      <trkpt lat="45.34477" lon="6.19812">
        <ele>2366.3999023438</ele>
        <time>2014-03-02T12:09:08.000Z</time>
      </trkpt>
      <trkpt lat="45.34477" lon="6.19812">
        <ele>2366.3999023438</ele>
        <time>2014-03-02T12:09:09.000Z</time>
      </trkpt>
      <trkpt lat="45.34477" lon="6.19812">
        <ele>2366.3999023438</ele>
        <time>2014-03-02T12:09:11.000Z</time>
      </trkpt>
      <trkpt lat="45.34477" lon="6.19812">
        <ele>2366.3999023438</ele>
        <time>2014-03-02T12:09:12.000Z</time>
      </trkpt>
      <trkpt lat="45.34477" lon="6.19812">
        <ele>2366.3999023438</ele>
        <time>2014-03-02T12:09:13.000Z</time>
      </trkpt>
      <trkpt lat="45.34477" lon="6.19812">
        <ele>2366.3999023438</ele>
        <time>2014-03-02T12:09:14.000Z</time>
      </trkpt>
      <trkpt lat="45.34477" lon="6.19811">
        <ele>2366.6000976562</ele>
        <time>2014-03-02T12:09:15.000Z</time>
      </trkpt>
      <trkpt lat="45.34477" lon="6.19811">
        <ele>2366.8000488281</ele>
        <time>2014-03-02T12:09:16.000Z</time>
      </trkpt>
      <trkpt lat="45.34478" lon="6.1981">
        <ele>2367</ele>
        <time>2014-03-02T12:09:17.000Z</time>
      </trkpt>
      <trkpt lat="45.34478" lon="6.1981">
        <ele>2367</ele>
        <time>2014-03-02T12:09:18.000Z</time>
      </trkpt>
      <trkpt lat="45.34478" lon="6.19809">
        <ele>2367.1999511719</ele>
        <time>2014-03-02T12:09:19.000Z</time>
      </trkpt>
      <trkpt lat="45.34478" lon="6.19809">
        <ele>2367.3999023438</ele>
        <time>2014-03-02T12:09:20.000Z</time>
      </trkpt>
      <trkpt lat="45.34478" lon="6.19808">
        <ele>2367.3999023438</ele>
        <time>2014-03-02T12:09:21.000Z</time>
      </trkpt>
      <trkpt lat="45.34479" lon="6.19808">
        <ele>2367.6000976562</ele>
        <time>2014-03-02T12:09:22.000Z</time>
      </trkpt>
      <trkpt lat="45.34479" lon="6.19808">
        <ele>2367.6000976562</ele>
        <time>2014-03-02T12:09:23.000Z</time>
      </trkpt>
      <trkpt lat="45.34479" lon="6.19807">
        <ele>2367.8000488281</ele>
        <time>2014-03-02T12:09:24.000Z</time>
      </trkpt>
      <trkpt lat="45.34479" lon="6.19807">
        <ele>2367.8000488281</ele>
        <time>2014-03-02T12:09:25.000Z</time>
      </trkpt>
      <trkpt lat="45.34479" lon="6.19807">
        <ele>2367.8000488281</ele>
        <time>2014-03-02T12:09:26.000Z</time>
      </trkpt>
      <trkpt lat="45.34479" lon="6.19807">
        <ele>2367.8000488281</ele>
        <time>2014-03-02T12:09:27.000Z</time>
      </trkpt>
      <trkpt lat="45.34479" lon="6.19806">
        <ele>2367.8000488281</ele>
        <time>2014-03-02T12:09:28.000Z</time>
      </trkpt>
      <trkpt lat="45.34479" lon="6.19806">
        <ele>2367.8000488281</ele>
        <time>2014-03-02T12:09:29.000Z</time>
      </trkpt>
      <trkpt lat="45.34479" lon="6.19805">
        <ele>2368</ele>
        <time>2014-03-02T12:09:30.000Z</time>
      </trkpt>
      <trkpt lat="45.34479" lon="6.19805">
        <ele>2368.1999511719</ele>
        <time>2014-03-02T12:09:31.000Z</time>
      </trkpt>
      <trkpt lat="45.34479" lon="6.19804">
        <ele>2368.1999511719</ele>
        <time>2014-03-02T12:09:32.000Z</time>
      </trkpt>
      <trkpt lat="45.34479" lon="6.19804">
        <ele>2368.1999511719</ele>
        <time>2014-03-02T12:09:33.000Z</time>
      </trkpt>
      <trkpt lat="45.34479" lon="6.19804">
        <ele>2368.1999511719</ele>
        <time>2014-03-02T12:09:34.000Z</time>
      </trkpt>
      <trkpt lat="45.34479" lon="6.19803">
        <ele>2368.3999023438</ele>
        <time>2014-03-02T12:09:35.000Z</time>
      </trkpt>
      <trkpt lat="45.34479" lon="6.19803">
        <ele>2368.3999023438</ele>
        <time>2014-03-02T12:09:36.000Z</time>
      </trkpt>
      <trkpt lat="45.34479" lon="6.19803">
        <ele>2368.3999023438</ele>
        <time>2014-03-02T12:09:37.000Z</time>
      </trkpt>
      <trkpt lat="45.34479" lon="6.19803">
        <ele>2368.3999023438</ele>
        <time>2014-03-02T12:09:38.000Z</time>
      </trkpt>
      <trkpt lat="45.34478" lon="6.19802">
        <ele>2368.3999023438</ele>
        <time>2014-03-02T12:09:39.000Z</time>
      </trkpt>
      <trkpt lat="45.34478" lon="6.19802">
        <ele>2368.3999023438</ele>
        <time>2014-03-02T12:09:40.000Z</time>
      </trkpt>
      <trkpt lat="45.34478" lon="6.19802">
        <ele>2368.3999023438</ele>
        <time>2014-03-02T12:09:41.000Z</time>
      </trkpt>
      <trkpt lat="45.34478" lon="6.19801">
        <ele>2368.3999023438</ele>
        <time>2014-03-02T12:09:42.000Z</time>
      </trkpt>
      <trkpt lat="45.34478" lon="6.19801">
        <ele>2368.3999023438</ele>
        <time>2014-03-02T12:09:43.000Z</time>
      </trkpt>
      <trkpt lat="45.34478" lon="6.198">
        <ele>2368.3999023438</ele>
        <time>2014-03-02T12:09:44.000Z</time>
      </trkpt>
      <trkpt lat="45.34477" lon="6.19799">
        <ele>2368.6000976562</ele>
        <time>2014-03-02T12:09:45.000Z</time>
      </trkpt>
      <trkpt lat="45.34477" lon="6.19799">
        <ele>2368.6000976562</ele>
        <time>2014-03-02T12:09:46.000Z</time>
      </trkpt>
      <trkpt lat="45.34477" lon="6.19798">
        <ele>2368.6000976562</ele>
        <time>2014-03-02T12:09:47.000Z</time>
      </trkpt>
      <trkpt lat="45.34477" lon="6.19798">
        <ele>2368.6000976562</ele>
        <time>2014-03-02T12:09:48.000Z</time>
      </trkpt>
      <trkpt lat="45.34477" lon="6.19798">
        <ele>2368.6000976562</ele>
        <time>2014-03-02T12:09:49.000Z</time>
      </trkpt>
      <trkpt lat="45.34477" lon="6.19798">
        <ele>2368.6000976562</ele>
        <time>2014-03-02T12:09:50.000Z</time>
      </trkpt>
      <trkpt lat="45.34477" lon="6.19798">
        <ele>2368.6000976562</ele>
        <time>2014-03-02T12:09:51.000Z</time>
      </trkpt>
      <trkpt lat="45.34477" lon="6.19798">
        <ele>2368.6000976562</ele>
        <time>2014-03-02T12:09:52.000Z</time>
      </trkpt>
      <trkpt lat="45.34477" lon="6.19798">
        <ele>2368.6000976562</ele>
        <time>2014-03-02T12:09:53.000Z</time>
      </trkpt>
      <trkpt lat="45.34477" lon="6.19798">
        <ele>2368.6000976562</ele>
        <time>2014-03-02T12:09:54.000Z</time>
      </trkpt>
      <trkpt lat="45.34477" lon="6.19798">
        <ele>2368.6000976562</ele>
        <time>2014-03-02T12:09:55.000Z</time>
      </trkpt>
      <trkpt lat="45.34477" lon="6.19798">
        <ele>2368.6000976562</ele>
        <time>2014-03-02T12:09:56.000Z</time>
      </trkpt>
      <trkpt lat="45.34478" lon="6.19798">
        <ele>2368.8000488281</ele>
        <time>2014-03-02T12:09:57.000Z</time>
      </trkpt>
      <trkpt lat="45.34478" lon="6.19799">
        <ele>2369</ele>
        <time>2014-03-02T12:09:58.000Z</time>
      </trkpt>
      <trkpt lat="45.34478" lon="6.19799">
        <ele>2369</ele>
        <time>2014-03-02T12:09:59.000Z</time>
      </trkpt>
      <trkpt lat="45.34479" lon="6.19799">
        <ele>2369</ele>
        <time>2014-03-02T12:10:00.000Z</time>
      </trkpt>
      <trkpt lat="45.34479" lon="6.19799">
        <ele>2369</ele>
        <time>2014-03-02T12:10:01.000Z</time>
      </trkpt>
      <trkpt lat="45.34479" lon="6.198">
        <ele>2369</ele>
        <time>2014-03-02T12:10:02.000Z</time>
      </trkpt>
      <trkpt lat="45.34479" lon="6.198">
        <ele>2369</ele>
        <time>2014-03-02T12:10:03.000Z</time>
      </trkpt>
      <trkpt lat="45.34479" lon="6.198">
        <ele>2369</ele>
        <time>2014-03-02T12:10:04.000Z</time>
      </trkpt>
      <trkpt lat="45.3448" lon="6.198">
        <ele>2369</ele>
        <time>2014-03-02T12:10:05.000Z</time>
      </trkpt>
      <trkpt lat="45.3448" lon="6.198">
        <ele>2369.1999511719</ele>
        <time>2014-03-02T12:10:06.000Z</time>
      </trkpt>
      <trkpt lat="45.3448" lon="6.198">
        <ele>2369.1999511719</ele>
        <time>2014-03-02T12:10:07.000Z</time>
      </trkpt>
      <trkpt lat="45.34481" lon="6.19801">
        <ele>2369.3999023438</ele>
        <time>2014-03-02T12:10:08.000Z</time>
      </trkpt>
      <trkpt lat="45.34481" lon="6.19801">
        <ele>2369.3999023438</ele>
        <time>2014-03-02T12:10:09.000Z</time>
      </trkpt>
      <trkpt lat="45.34481" lon="6.19801">
        <ele>2369.3999023438</ele>
        <time>2014-03-02T12:10:10.000Z</time>
      </trkpt>
      <trkpt lat="45.34481" lon="6.19801">
        <ele>2369.3999023438</ele>
        <time>2014-03-02T12:10:11.000Z</time>
      </trkpt>
      <trkpt lat="45.34482" lon="6.19802">
        <ele>2369.3999023438</ele>
        <time>2014-03-02T12:10:12.000Z</time>
      </trkpt>
      <trkpt lat="45.34483" lon="6.19802">
        <ele>2369.6000976562</ele>
        <time>2014-03-02T12:10:13.000Z</time>
      </trkpt>
      <trkpt lat="45.34483" lon="6.19803">
        <ele>2369.8000488281</ele>
        <time>2014-03-02T12:10:14.000Z</time>
      </trkpt>
      <trkpt lat="45.34484" lon="6.19803">
        <ele>2370</ele>
        <time>2014-03-02T12:10:15.000Z</time>
      </trkpt>
      <trkpt lat="45.34486" lon="6.19803">
        <ele>2370.3999023438</ele>
        <time>2014-03-02T12:10:17.000Z</time>
      </trkpt>
      <trkpt lat="45.34487" lon="6.19803">
        <ele>2370.6000976562</ele>
        <time>2014-03-02T12:10:18.000Z</time>
      </trkpt>
      <trkpt lat="45.34488" lon="6.19803">
        <ele>2370.8000488281</ele>
        <time>2014-03-02T12:10:19.000Z</time>
      </trkpt>
      <trkpt lat="45.34489" lon="6.19803">
        <ele>2371.1999511719</ele>
        <time>2014-03-02T12:10:20.000Z</time>
      </trkpt>
      <trkpt lat="45.34489" lon="6.19803">
        <ele>2371.1999511719</ele>
        <time>2014-03-02T12:10:21.000Z</time>
      </trkpt>
      <trkpt lat="45.3449" lon="6.19803">
        <ele>2371.3999023438</ele>
        <time>2014-03-02T12:10:22.000Z</time>
      </trkpt>
      <trkpt lat="45.3449" lon="6.19803">
        <ele>2371.3999023438</ele>
        <time>2014-03-02T12:10:23.000Z</time>
      </trkpt>
      <trkpt lat="45.34491" lon="6.19803">
        <ele>2371.6000976562</ele>
        <time>2014-03-02T12:10:24.000Z</time>
      </trkpt>
      <trkpt lat="45.34491" lon="6.19803">
        <ele>2371.6000976562</ele>
        <time>2014-03-02T12:10:25.000Z</time>
      </trkpt>
      <trkpt lat="45.34491" lon="6.19803">
        <ele>2371.6000976562</ele>
        <time>2014-03-02T12:10:26.000Z</time>
      </trkpt>
      <trkpt lat="45.34492" lon="6.19803">
        <ele>2372</ele>
        <time>2014-03-02T12:10:27.000Z</time>
      </trkpt>
      <trkpt lat="45.34492" lon="6.19803">
        <ele>2372</ele>
        <time>2014-03-02T12:10:28.000Z</time>
      </trkpt>
      <trkpt lat="45.34492" lon="6.19802">
        <ele>2372.1999511719</ele>
        <time>2014-03-02T12:10:29.000Z</time>
      </trkpt>
      <trkpt lat="45.34492" lon="6.19802">
        <ele>2372.1999511719</ele>
        <time>2014-03-02T12:10:30.000Z</time>
      </trkpt>
      <trkpt lat="45.34493" lon="6.19801">
        <ele>2372.6000976562</ele>
        <time>2014-03-02T12:10:31.000Z</time>
      </trkpt>
      <trkpt lat="45.34494" lon="6.19801">
        <ele>2372.8000488281</ele>
        <time>2014-03-02T12:10:32.000Z</time>
      </trkpt>
      <trkpt lat="45.34494" lon="6.19801">
        <ele>2372.8000488281</ele>
        <time>2014-03-02T12:10:33.000Z</time>
      </trkpt>
      <trkpt lat="45.34494" lon="6.19801">
        <ele>2373</ele>
        <time>2014-03-02T12:10:34.000Z</time>
      </trkpt>
      <trkpt lat="45.34495" lon="6.198">
        <ele>2373.1999511719</ele>
        <time>2014-03-02T12:10:35.000Z</time>
      </trkpt>
      <trkpt lat="45.34495" lon="6.198">
        <ele>2373.3999023438</ele>
        <time>2014-03-02T12:10:36.000Z</time>
      </trkpt>
      <trkpt lat="45.34495" lon="6.198">
        <ele>2373.3999023438</ele>
        <time>2014-03-02T12:10:37.000Z</time>
      </trkpt>
      <trkpt lat="45.34495" lon="6.198">
        <ele>2373.3999023438</ele>
        <time>2014-03-02T12:10:38.000Z</time>
      </trkpt>
      <trkpt lat="45.34497" lon="6.198">
        <ele>2373.8000488281</ele>
        <time>2014-03-02T12:10:39.000Z</time>
      </trkpt>
      <trkpt lat="45.34498" lon="6.19799">
        <ele>2374.1999511719</ele>
        <time>2014-03-02T12:10:41.000Z</time>
      </trkpt>
      <trkpt lat="45.34498" lon="6.19799">
        <ele>2374.3999023438</ele>
        <time>2014-03-02T12:10:42.000Z</time>
      </trkpt>
      <trkpt lat="45.34498" lon="6.19799">
        <ele>2374.3999023438</ele>
        <time>2014-03-02T12:10:43.000Z</time>
      </trkpt>
      <trkpt lat="45.34498" lon="6.19799">
        <ele>2374.3999023438</ele>
        <time>2014-03-02T12:10:44.000Z</time>
      </trkpt>
      <trkpt lat="45.34498" lon="6.19799">
        <ele>2374.3999023438</ele>
        <time>2014-03-02T12:10:45.000Z</time>
      </trkpt>
      <trkpt lat="45.34498" lon="6.19799">
        <ele>2374.3999023438</ele>
        <time>2014-03-02T12:10:46.000Z</time>
      </trkpt>
      <trkpt lat="45.34498" lon="6.19799">
        <ele>2374.3999023438</ele>
        <time>2014-03-02T12:10:47.000Z</time>
      </trkpt>
      <trkpt lat="45.34498" lon="6.19799">
        <ele>2374.3999023438</ele>
        <time>2014-03-02T12:10:48.000Z</time>
      </trkpt>
      <trkpt lat="45.34498" lon="6.19799">
        <ele>2374.3999023438</ele>
        <time>2014-03-02T12:10:49.000Z</time>
      </trkpt>
      <trkpt lat="45.34498" lon="6.19799">
        <ele>2374.3999023438</ele>
        <time>2014-03-02T12:10:50.000Z</time>
      </trkpt>
      <trkpt lat="45.34498" lon="6.19799">
        <ele>2374.3999023438</ele>
        <time>2014-03-02T12:10:51.000Z</time>
      </trkpt>
      <trkpt lat="45.34498" lon="6.19799">
        <ele>2374.3999023438</ele>
        <time>2014-03-02T12:10:52.000Z</time>
      </trkpt>
      <trkpt lat="45.34498" lon="6.19799">
        <ele>2374.3999023438</ele>
        <time>2014-03-02T12:10:53.000Z</time>
      </trkpt>
      <trkpt lat="45.34498" lon="6.19799">
        <ele>2374.3999023438</ele>
        <time>2014-03-02T12:10:56.000Z</time>
      </trkpt>
      <trkpt lat="45.34498" lon="6.19799">
        <ele>2374.3999023438</ele>
        <time>2014-03-02T12:10:57.000Z</time>
      </trkpt>
      <trkpt lat="45.34498" lon="6.19799">
        <ele>2374.3999023438</ele>
        <time>2014-03-02T12:10:58.000Z</time>
      </trkpt>
      <trkpt lat="45.34498" lon="6.19799">
        <ele>2374.3999023438</ele>
        <time>2014-03-02T12:10:59.000Z</time>
      </trkpt>
      <trkpt lat="45.34498" lon="6.19799">
        <ele>2374.3999023438</ele>
        <time>2014-03-02T12:11:00.000Z</time>
      </trkpt>
      <trkpt lat="45.34498" lon="6.19799">
        <ele>2374.3999023438</ele>
        <time>2014-03-02T12:11:01.000Z</time>
      </trkpt>
      <trkpt lat="45.34498" lon="6.19799">
        <ele>2374.3999023438</ele>
        <time>2014-03-02T12:11:02.000Z</time>
      </trkpt>
      <trkpt lat="45.34498" lon="6.19799">
        <ele>2374.3999023438</ele>
        <time>2014-03-02T12:11:03.000Z</time>
      </trkpt>
      <trkpt lat="45.34498" lon="6.19799">
        <ele>2374.3999023438</ele>
        <time>2014-03-02T12:11:04.000Z</time>
      </trkpt>
      <trkpt lat="45.34498" lon="6.19799">
        <ele>2374.3999023438</ele>
        <time>2014-03-02T12:11:05.000Z</time>
      </trkpt>
      <trkpt lat="45.34498" lon="6.19799">
        <ele>2374.3999023438</ele>
        <time>2014-03-02T12:11:06.000Z</time>
      </trkpt>
      <trkpt lat="45.34498" lon="6.19799">
        <ele>2374.3999023438</ele>
        <time>2014-03-02T12:11:07.000Z</time>
      </trkpt>
      <trkpt lat="45.34499" lon="6.19798">
        <ele>2374.6000976562</ele>
        <time>2014-03-02T12:11:08.000Z</time>
      </trkpt>
      <trkpt lat="45.34499" lon="6.19798">
        <ele>2374.8000488281</ele>
        <time>2014-03-02T12:11:09.000Z</time>
      </trkpt>
      <trkpt lat="45.34499" lon="6.19798">
        <ele>2374.8000488281</ele>
        <time>2014-03-02T12:11:10.000Z</time>
      </trkpt>
      <trkpt lat="45.345" lon="6.19797">
        <ele>2375.1999511719</ele>
        <time>2014-03-02T12:11:11.000Z</time>
      </trkpt>
      <trkpt lat="45.345" lon="6.19797">
        <ele>2375.1999511719</ele>
        <time>2014-03-02T12:11:12.000Z</time>
      </trkpt>
      <trkpt lat="45.345" lon="6.19796">
        <ele>2375.3999023438</ele>
        <time>2014-03-02T12:11:13.000Z</time>
      </trkpt>
      <trkpt lat="45.345" lon="6.19796">
        <ele>2375.3999023438</ele>
        <time>2014-03-02T12:11:14.000Z</time>
      </trkpt>
      <trkpt lat="45.34501" lon="6.19796">
        <ele>2375.6000976562</ele>
        <time>2014-03-02T12:11:15.000Z</time>
      </trkpt>
      <trkpt lat="45.34502" lon="6.19796">
        <ele>2375.8000488281</ele>
        <time>2014-03-02T12:11:16.000Z</time>
      </trkpt>
      <trkpt lat="45.34502" lon="6.19796">
        <ele>2375.8000488281</ele>
        <time>2014-03-02T12:11:17.000Z</time>
      </trkpt>
      <trkpt lat="45.34502" lon="6.19795">
        <ele>2376</ele>
        <time>2014-03-02T12:11:18.000Z</time>
      </trkpt>
      <trkpt lat="45.34502" lon="6.19795">
        <ele>2376</ele>
        <time>2014-03-02T12:11:19.000Z</time>
      </trkpt>
      <trkpt lat="45.34503" lon="6.19795">
        <ele>2376.3999023438</ele>
        <time>2014-03-02T12:11:20.000Z</time>
      </trkpt>
      <trkpt lat="45.34503" lon="6.19795">
        <ele>2376.3999023438</ele>
        <time>2014-03-02T12:11:21.000Z</time>
      </trkpt>
      <trkpt lat="45.34504" lon="6.19794">
        <ele>2376.8000488281</ele>
        <time>2014-03-02T12:11:22.000Z</time>
      </trkpt>
      <trkpt lat="45.34505" lon="6.19793">
        <ele>2377.1999511719</ele>
        <time>2014-03-02T12:11:23.000Z</time>
      </trkpt>
      <trkpt lat="45.34506" lon="6.19792">
        <ele>2377.6000976562</ele>
        <time>2014-03-02T12:11:24.000Z</time>
      </trkpt>
      <trkpt lat="45.34507" lon="6.19791">
        <ele>2378</ele>
        <time>2014-03-02T12:11:25.000Z</time>
      </trkpt>
      <trkpt lat="45.34508" lon="6.19791">
        <ele>2378.3999023438</ele>
        <time>2014-03-02T12:11:26.000Z</time>
      </trkpt>
      <trkpt lat="45.34509" lon="6.1979">
        <ele>2378.8000488281</ele>
        <time>2014-03-02T12:11:27.000Z</time>
      </trkpt>
      <trkpt lat="45.34509" lon="6.1979">
        <ele>2378.8000488281</ele>
        <time>2014-03-02T12:11:28.000Z</time>
      </trkpt>
      <trkpt lat="45.34509" lon="6.1979">
        <ele>2378.8000488281</ele>
        <time>2014-03-02T12:11:29.000Z</time>
      </trkpt>
      <trkpt lat="45.34509" lon="6.1979">
        <ele>2378.8000488281</ele>
        <time>2014-03-02T12:11:30.000Z</time>
      </trkpt>
      <trkpt lat="45.34509" lon="6.1979">
        <ele>2378.8000488281</ele>
        <time>2014-03-02T12:11:31.000Z</time>
      </trkpt>
      <trkpt lat="45.34509" lon="6.1979">
        <ele>2378.8000488281</ele>
        <time>2014-03-02T12:11:32.000Z</time>
      </trkpt>
      <trkpt lat="45.34509" lon="6.1979">
        <ele>2378.8000488281</ele>
        <time>2014-03-02T12:11:33.000Z</time>
      </trkpt>
      <trkpt lat="45.34509" lon="6.1979">
        <ele>2378.8000488281</ele>
        <time>2014-03-02T12:11:34.000Z</time>
      </trkpt>
      <trkpt lat="45.34509" lon="6.1979">
        <ele>2378.8000488281</ele>
        <time>2014-03-02T12:11:35.000Z</time>
      </trkpt>
      <trkpt lat="45.34509" lon="6.1979">
        <ele>2378.8000488281</ele>
        <time>2014-03-02T12:11:36.000Z</time>
      </trkpt>
      <trkpt lat="45.34509" lon="6.1979">
        <ele>2378.8000488281</ele>
        <time>2014-03-02T12:11:37.000Z</time>
      </trkpt>
      <trkpt lat="45.34509" lon="6.1979">
        <ele>2378.8000488281</ele>
        <time>2014-03-02T12:11:42.000Z</time>
      </trkpt>
      <trkpt lat="45.34509" lon="6.1979">
        <ele>2378.8000488281</ele>
        <time>2014-03-02T12:11:43.000Z</time>
      </trkpt>
      <trkpt lat="45.34509" lon="6.1979">
        <ele>2378.8000488281</ele>
        <time>2014-03-02T12:11:44.000Z</time>
      </trkpt>
      <trkpt lat="45.34509" lon="6.1979">
        <ele>2378.8000488281</ele>
        <time>2014-03-02T12:11:45.000Z</time>
      </trkpt>
      <trkpt lat="45.34509" lon="6.1979">
        <ele>2378.8000488281</ele>
        <time>2014-03-02T12:11:46.000Z</time>
      </trkpt>
      <trkpt lat="45.34509" lon="6.1979">
        <ele>2378.8000488281</ele>
        <time>2014-03-02T12:11:47.000Z</time>
      </trkpt>
      <trkpt lat="45.34509" lon="6.1979">
        <ele>2378.8000488281</ele>
        <time>2014-03-02T12:11:49.000Z</time>
      </trkpt>
      <trkpt lat="45.34509" lon="6.1979">
        <ele>2378.8000488281</ele>
        <time>2014-03-02T12:11:50.000Z</time>
      </trkpt>
      <trkpt lat="45.34509" lon="6.1979">
        <ele>2378.8000488281</ele>
        <time>2014-03-02T12:11:52.000Z</time>
      </trkpt>
      <trkpt lat="45.34509" lon="6.1979">
        <ele>2378.8000488281</ele>
        <time>2014-03-02T12:11:53.000Z</time>
      </trkpt>
      <trkpt lat="45.34509" lon="6.1979">
        <ele>2378.8000488281</ele>
        <time>2014-03-02T12:11:54.000Z</time>
      </trkpt>
      <trkpt lat="45.3451" lon="6.19791">
        <ele>2378.8000488281</ele>
        <time>2014-03-02T12:11:55.000Z</time>
      </trkpt>
      <trkpt lat="45.3451" lon="6.19791">
        <ele>2379</ele>
        <time>2014-03-02T12:11:56.000Z</time>
      </trkpt>
      <trkpt lat="45.34511" lon="6.19791">
        <ele>2379</ele>
        <time>2014-03-02T12:11:57.000Z</time>
      </trkpt>
      <trkpt lat="45.34512" lon="6.19791">
        <ele>2379.1999511719</ele>
        <time>2014-03-02T12:11:58.000Z</time>
      </trkpt>
      <trkpt lat="45.34512" lon="6.19792">
        <ele>2379.3999023438</ele>
        <time>2014-03-02T12:11:59.000Z</time>
      </trkpt>
      <trkpt lat="45.34513" lon="6.19792">
        <ele>2379.3999023438</ele>
        <time>2014-03-02T12:12:00.000Z</time>
      </trkpt>
      <trkpt lat="45.34514" lon="6.19792">
        <ele>2379.6000976562</ele>
        <time>2014-03-02T12:12:01.000Z</time>
      </trkpt>
      <trkpt lat="45.34515" lon="6.19793">
        <ele>2379.8000488281</ele>
        <time>2014-03-02T12:12:02.000Z</time>
      </trkpt>
      <trkpt lat="45.34515" lon="6.19793">
        <ele>2380</ele>
        <time>2014-03-02T12:12:03.000Z</time>
      </trkpt>
      <trkpt lat="45.34515" lon="6.19794">
        <ele>2379.8000488281</ele>
        <time>2014-03-02T12:12:04.000Z</time>
      </trkpt>
      <trkpt lat="45.34516" lon="6.19795">
        <ele>2379.8000488281</ele>
        <time>2014-03-02T12:12:05.000Z</time>
      </trkpt>
      <trkpt lat="45.34516" lon="6.19796">
        <ele>2379.8000488281</ele>
        <time>2014-03-02T12:12:06.000Z</time>
      </trkpt>
      <trkpt lat="45.34516" lon="6.19796">
        <ele>2379.8000488281</ele>
        <time>2014-03-02T12:12:07.000Z</time>
      </trkpt>
      <trkpt lat="45.34516" lon="6.19796">
        <ele>2379.8000488281</ele>
        <time>2014-03-02T12:12:08.000Z</time>
      </trkpt>
      <trkpt lat="45.34516" lon="6.19796">
        <ele>2379.8000488281</ele>
        <time>2014-03-02T12:12:09.000Z</time>
      </trkpt>
      <trkpt lat="45.34517" lon="6.19797">
        <ele>2380</ele>
        <time>2014-03-02T12:12:10.000Z</time>
      </trkpt>
      <trkpt lat="45.34518" lon="6.19798">
        <ele>2380</ele>
        <time>2014-03-02T12:12:11.000Z</time>
      </trkpt>
      <trkpt lat="45.34518" lon="6.19798">
        <ele>2380</ele>
        <time>2014-03-02T12:12:12.000Z</time>
      </trkpt>
      <trkpt lat="45.34519" lon="6.19799">
        <ele>2380.1999511719</ele>
        <time>2014-03-02T12:12:13.000Z</time>
      </trkpt>
      <trkpt lat="45.3452" lon="6.19799">
        <ele>2380.3999023438</ele>
        <time>2014-03-02T12:12:14.000Z</time>
      </trkpt>
      <trkpt lat="45.3452" lon="6.19799">
        <ele>2380.3999023438</ele>
        <time>2014-03-02T12:12:15.000Z</time>
      </trkpt>
      <trkpt lat="45.34522" lon="6.19801">
        <ele>2380.8000488281</ele>
        <time>2014-03-02T12:12:17.000Z</time>
      </trkpt>
      <trkpt lat="45.34523" lon="6.19801">
        <ele>2381</ele>
        <time>2014-03-02T12:12:18.000Z</time>
      </trkpt>
      <trkpt lat="45.34524" lon="6.19801">
        <ele>2381.1999511719</ele>
        <time>2014-03-02T12:12:19.000Z</time>
      </trkpt>
      <trkpt lat="45.34525" lon="6.19801">
        <ele>2381.3999023438</ele>
        <time>2014-03-02T12:12:20.000Z</time>
      </trkpt>
      <trkpt lat="45.34526" lon="6.19801">
        <ele>2381.6000976562</ele>
        <time>2014-03-02T12:12:21.000Z</time>
      </trkpt>
      <trkpt lat="45.34527" lon="6.19802">
        <ele>2381.8000488281</ele>
        <time>2014-03-02T12:12:22.000Z</time>
      </trkpt>
      <trkpt lat="45.34527" lon="6.19802">
        <ele>2382</ele>
        <time>2014-03-02T12:12:23.000Z</time>
      </trkpt>
      <trkpt lat="45.34528" lon="6.19802">
        <ele>2382.1999511719</ele>
        <time>2014-03-02T12:12:24.000Z</time>
      </trkpt>
      <trkpt lat="45.34529" lon="6.19802">
        <ele>2382.3999023438</ele>
        <time>2014-03-02T12:12:25.000Z</time>
      </trkpt>
      <trkpt lat="45.3453" lon="6.19802">
        <ele>2382.8000488281</ele>
        <time>2014-03-02T12:12:26.000Z</time>
      </trkpt>
      <trkpt lat="45.34531" lon="6.19802">
        <ele>2383</ele>
        <time>2014-03-02T12:12:27.000Z</time>
      </trkpt>
      <trkpt lat="45.34533" lon="6.19802">
        <ele>2383.3999023438</ele>
        <time>2014-03-02T12:12:28.000Z</time>
      </trkpt>
      <trkpt lat="45.34533" lon="6.19803">
        <ele>2383.3999023438</ele>
        <time>2014-03-02T12:12:29.000Z</time>
      </trkpt>
      <trkpt lat="45.34535" lon="6.19803">
        <ele>2383.8000488281</ele>
        <time>2014-03-02T12:12:30.000Z</time>
      </trkpt>
      <trkpt lat="45.34535" lon="6.19803">
        <ele>2383.8000488281</ele>
        <time>2014-03-02T12:12:31.000Z</time>
      </trkpt>
      <trkpt lat="45.34535" lon="6.19803">
        <ele>2383.8000488281</ele>
        <time>2014-03-02T12:12:32.000Z</time>
      </trkpt>
      <trkpt lat="45.34535" lon="6.19803">
        <ele>2383.8000488281</ele>
        <time>2014-03-02T12:12:33.000Z</time>
      </trkpt>
      <trkpt lat="45.34536" lon="6.19803">
        <ele>2384</ele>
        <time>2014-03-02T12:12:34.000Z</time>
      </trkpt>
      <trkpt lat="45.34536" lon="6.19803">
        <ele>2384</ele>
        <time>2014-03-02T12:12:35.000Z</time>
      </trkpt>
      <trkpt lat="45.34536" lon="6.19804">
        <ele>2384.1999511719</ele>
        <time>2014-03-02T12:12:36.000Z</time>
      </trkpt>
      <trkpt lat="45.34536" lon="6.19804">
        <ele>2384.1999511719</ele>
        <time>2014-03-02T12:12:37.000Z</time>
      </trkpt>
      <trkpt lat="45.34537" lon="6.19804">
        <ele>2384.1999511719</ele>
        <time>2014-03-02T12:12:38.000Z</time>
      </trkpt>
      <trkpt lat="45.34537" lon="6.19804">
        <ele>2384.3999023438</ele>
        <time>2014-03-02T12:12:39.000Z</time>
      </trkpt>
      <trkpt lat="45.34537" lon="6.19804">
        <ele>2384.1999511719</ele>
        <time>2014-03-02T12:12:40.000Z</time>
      </trkpt>
      <trkpt lat="45.34537" lon="6.19805">
        <ele>2384.1999511719</ele>
        <time>2014-03-02T12:12:41.000Z</time>
      </trkpt>
      <trkpt lat="45.34537" lon="6.19805">
        <ele>2384.1999511719</ele>
        <time>2014-03-02T12:12:42.000Z</time>
      </trkpt>
      <trkpt lat="45.34538" lon="6.19805">
        <ele>2384.3999023438</ele>
        <time>2014-03-02T12:12:43.000Z</time>
      </trkpt>
      <trkpt lat="45.34539" lon="6.19805">
        <ele>2384.8000488281</ele>
        <time>2014-03-02T12:12:44.000Z</time>
      </trkpt>
      <trkpt lat="45.3454" lon="6.19805">
        <ele>2385</ele>
        <time>2014-03-02T12:12:45.000Z</time>
      </trkpt>
      <trkpt lat="45.34541" lon="6.19805">
        <ele>2385.1999511719</ele>
        <time>2014-03-02T12:12:46.000Z</time>
      </trkpt>
      <trkpt lat="45.34541" lon="6.19805">
        <ele>2385.3999023438</ele>
        <time>2014-03-02T12:12:47.000Z</time>
      </trkpt>
      <trkpt lat="45.34542" lon="6.19806">
        <ele>2385.3999023438</ele>
        <time>2014-03-02T12:12:48.000Z</time>
      </trkpt>
      <trkpt lat="45.34542" lon="6.19806">
        <ele>2385.3999023438</ele>
        <time>2014-03-02T12:12:49.000Z</time>
      </trkpt>
      <trkpt lat="45.34542" lon="6.19806">
        <ele>2385.6000976562</ele>
        <time>2014-03-02T12:12:50.000Z</time>
      </trkpt>
      <trkpt lat="45.34543" lon="6.19806">
        <ele>2385.8000488281</ele>
        <time>2014-03-02T12:12:51.000Z</time>
      </trkpt>
      <trkpt lat="45.34544" lon="6.19806">
        <ele>2386</ele>
        <time>2014-03-02T12:12:52.000Z</time>
      </trkpt>
      <trkpt lat="45.34545" lon="6.19806">
        <ele>2386.1999511719</ele>
        <time>2014-03-02T12:12:53.000Z</time>
      </trkpt>
      <trkpt lat="45.34545" lon="6.19806">
        <ele>2386.1999511719</ele>
        <time>2014-03-02T12:12:54.000Z</time>
      </trkpt>
      <trkpt lat="45.34546" lon="6.19806">
        <ele>2386.6000976562</ele>
        <time>2014-03-02T12:12:55.000Z</time>
      </trkpt>
      <trkpt lat="45.34546" lon="6.19806">
        <ele>2386.8000488281</ele>
        <time>2014-03-02T12:12:56.000Z</time>
      </trkpt>
      <trkpt lat="45.34547" lon="6.19807">
        <ele>2386.8000488281</ele>
        <time>2014-03-02T12:12:57.000Z</time>
      </trkpt>
      <trkpt lat="45.34547" lon="6.19808">
        <ele>2386.6000976562</ele>
        <time>2014-03-02T12:12:58.000Z</time>
      </trkpt>
      <trkpt lat="45.34548" lon="6.19809">
        <ele>2386.6000976562</ele>
        <time>2014-03-02T12:12:59.000Z</time>
      </trkpt>
      <trkpt lat="45.34548" lon="6.19809">
        <ele>2386.6000976562</ele>
        <time>2014-03-02T12:13:00.000Z</time>
      </trkpt>
      <trkpt lat="45.34548" lon="6.1981">
        <ele>2386.3999023438</ele>
        <time>2014-03-02T12:13:01.000Z</time>
      </trkpt>
      <trkpt lat="45.34548" lon="6.19811">
        <ele>2386.1999511719</ele>
        <time>2014-03-02T12:13:02.000Z</time>
      </trkpt>
      <trkpt lat="45.34548" lon="6.19812">
        <ele>2386.1999511719</ele>
        <time>2014-03-02T12:13:03.000Z</time>
      </trkpt>
      <trkpt lat="45.34548" lon="6.19812">
        <ele>2386.1999511719</ele>
        <time>2014-03-02T12:13:04.000Z</time>
      </trkpt>
      <trkpt lat="45.34548" lon="6.19813">
        <ele>2386</ele>
        <time>2014-03-02T12:13:05.000Z</time>
      </trkpt>
      <trkpt lat="45.34548" lon="6.19813">
        <ele>2386</ele>
        <time>2014-03-02T12:13:06.000Z</time>
      </trkpt>
      <trkpt lat="45.34548" lon="6.19813">
        <ele>2386</ele>
        <time>2014-03-02T12:13:07.000Z</time>
      </trkpt>
      <trkpt lat="45.34548" lon="6.19813">
        <ele>2386</ele>
        <time>2014-03-02T12:13:08.000Z</time>
      </trkpt>
      <trkpt lat="45.34548" lon="6.19813">
        <ele>2386</ele>
        <time>2014-03-02T12:13:09.000Z</time>
      </trkpt>
      <trkpt lat="45.34549" lon="6.19813">
        <ele>2386</ele>
        <time>2014-03-02T12:13:10.000Z</time>
      </trkpt>
      <trkpt lat="45.34549" lon="6.19813">
        <ele>2386</ele>
        <time>2014-03-02T12:13:11.000Z</time>
      </trkpt>
      <trkpt lat="45.34549" lon="6.19813">
        <ele>2386</ele>
        <time>2014-03-02T12:13:12.000Z</time>
      </trkpt>
      <trkpt lat="45.34549" lon="6.19813">
        <ele>2386</ele>
        <time>2014-03-02T12:13:13.000Z</time>
      </trkpt>
      <trkpt lat="45.34549" lon="6.19813">
        <ele>2386</ele>
        <time>2014-03-02T12:13:14.000Z</time>
      </trkpt>
      <trkpt lat="45.34549" lon="6.19813">
        <ele>2386</ele>
        <time>2014-03-02T12:13:15.000Z</time>
      </trkpt>
      <trkpt lat="45.34549" lon="6.19813">
        <ele>2386</ele>
        <time>2014-03-02T12:13:16.000Z</time>
      </trkpt>
      <trkpt lat="45.3455" lon="6.19813">
        <ele>2386.3999023438</ele>
        <time>2014-03-02T12:13:17.000Z</time>
      </trkpt>
      <trkpt lat="45.34552" lon="6.19813">
        <ele>2386.6000976562</ele>
        <time>2014-03-02T12:13:18.000Z</time>
      </trkpt>
      <trkpt lat="45.34552" lon="6.19813">
        <ele>2386.8000488281</ele>
        <time>2014-03-02T12:13:19.000Z</time>
      </trkpt>
      <trkpt lat="45.34553" lon="6.19814">
        <ele>2386.8000488281</ele>
        <time>2014-03-02T12:13:20.000Z</time>
      </trkpt>
      <trkpt lat="45.34554" lon="6.19814">
        <ele>2386.8000488281</ele>
        <time>2014-03-02T12:13:21.000Z</time>
      </trkpt>
      <trkpt lat="45.34554" lon="6.19814">
        <ele>2387</ele>
        <time>2014-03-02T12:13:22.000Z</time>
      </trkpt>
      <trkpt lat="45.34554" lon="6.19814">
        <ele>2387</ele>
        <time>2014-03-02T12:13:23.000Z</time>
      </trkpt>
      <trkpt lat="45.34554" lon="6.19814">
        <ele>2387</ele>
        <time>2014-03-02T12:13:24.000Z</time>
      </trkpt>
      <trkpt lat="45.34554" lon="6.19814">
        <ele>2387</ele>
        <time>2014-03-02T12:13:25.000Z</time>
      </trkpt>
      <trkpt lat="45.34555" lon="6.19814">
        <ele>2387.1999511719</ele>
        <time>2014-03-02T12:13:26.000Z</time>
      </trkpt>
      <trkpt lat="45.34555" lon="6.19814">
        <ele>2387.1999511719</ele>
        <time>2014-03-02T12:13:27.000Z</time>
      </trkpt>
      <trkpt lat="45.34555" lon="6.19814">
        <ele>2387.1999511719</ele>
        <time>2014-03-02T12:13:28.000Z</time>
      </trkpt>
      <trkpt lat="45.34556" lon="6.19814">
        <ele>2387.3999023438</ele>
        <time>2014-03-02T12:13:29.000Z</time>
      </trkpt>
      <trkpt lat="45.34558" lon="6.19814">
        <ele>2388</ele>
        <time>2014-03-02T12:13:30.000Z</time>
      </trkpt>
      <trkpt lat="45.34559" lon="6.19814">
        <ele>2388</ele>
        <time>2014-03-02T12:13:31.000Z</time>
      </trkpt>
      <trkpt lat="45.3456" lon="6.19814">
        <ele>2388.1999511719</ele>
        <time>2014-03-02T12:13:32.000Z</time>
      </trkpt>
      <trkpt lat="45.3456" lon="6.19814">
        <ele>2388.3999023438</ele>
        <time>2014-03-02T12:13:33.000Z</time>
      </trkpt>
      <trkpt lat="45.3456" lon="6.19814">
        <ele>2388.3999023438</ele>
        <time>2014-03-02T12:13:34.000Z</time>
      </trkpt>
      <trkpt lat="45.3456" lon="6.19814">
        <ele>2388.3999023438</ele>
        <time>2014-03-02T12:13:35.000Z</time>
      </trkpt>
      <trkpt lat="45.3456" lon="6.19814">
        <ele>2388.3999023438</ele>
        <time>2014-03-02T12:13:36.000Z</time>
      </trkpt>
      <trkpt lat="45.3456" lon="6.19814">
        <ele>2388.3999023438</ele>
        <time>2014-03-02T12:13:37.000Z</time>
      </trkpt>
      <trkpt lat="45.34561" lon="6.19815">
        <ele>2388.1999511719</ele>
        <time>2014-03-02T12:13:38.000Z</time>
      </trkpt>
      <trkpt lat="45.34561" lon="6.19816">
        <ele>2388.1999511719</ele>
        <time>2014-03-02T12:13:39.000Z</time>
      </trkpt>
      <trkpt lat="45.34562" lon="6.19817">
        <ele>2388.1999511719</ele>
        <time>2014-03-02T12:13:40.000Z</time>
      </trkpt>
      <trkpt lat="45.34562" lon="6.19818">
        <ele>2388</ele>
        <time>2014-03-02T12:13:41.000Z</time>
      </trkpt>
      <trkpt lat="45.34562" lon="6.19818">
        <ele>2388</ele>
        <time>2014-03-02T12:13:42.000Z</time>
      </trkpt>
      <trkpt lat="45.34561" lon="6.19819">
        <ele>2387.6000976562</ele>
        <time>2014-03-02T12:13:43.000Z</time>
      </trkpt>
      <trkpt lat="45.34561" lon="6.19819">
        <ele>2387.6000976562</ele>
        <time>2014-03-02T12:13:44.000Z</time>
      </trkpt>
      <trkpt lat="45.34562" lon="6.1982">
        <ele>2387.3999023438</ele>
        <time>2014-03-02T12:13:45.000Z</time>
      </trkpt>
      <trkpt lat="45.34562" lon="6.1982">
        <ele>2387.3999023438</ele>
        <time>2014-03-02T12:13:46.000Z</time>
      </trkpt>
      <trkpt lat="45.34563" lon="6.19821">
        <ele>2387.6000976562</ele>
        <time>2014-03-02T12:13:47.000Z</time>
      </trkpt>
      <trkpt lat="45.34564" lon="6.19821">
        <ele>2387.8000488281</ele>
        <time>2014-03-02T12:13:48.000Z</time>
      </trkpt>
      <trkpt lat="45.34565" lon="6.19822">
        <ele>2387.6000976562</ele>
        <time>2014-03-02T12:13:49.000Z</time>
      </trkpt>
      <trkpt lat="45.34564" lon="6.19822">
        <ele>2387.6000976562</ele>
        <time>2014-03-02T12:13:50.000Z</time>
      </trkpt>
      <trkpt lat="45.34565" lon="6.19822">
        <ele>2387.6000976562</ele>
        <time>2014-03-02T12:13:51.000Z</time>
      </trkpt>
      <trkpt lat="45.34564" lon="6.19823">
        <ele>2387.3999023438</ele>
        <time>2014-03-02T12:13:52.000Z</time>
      </trkpt>
      <trkpt lat="45.34564" lon="6.19823">
        <ele>2387.6000976562</ele>
        <time>2014-03-02T12:13:53.000Z</time>
      </trkpt>
      <trkpt lat="45.34565" lon="6.19822">
        <ele>2387.6000976562</ele>
        <time>2014-03-02T12:13:54.000Z</time>
      </trkpt>
      <trkpt lat="45.34565" lon="6.19822">
        <ele>2387.6000976562</ele>
        <time>2014-03-02T12:13:55.000Z</time>
      </trkpt>
      <trkpt lat="45.34566" lon="6.19822">
        <ele>2387.8000488281</ele>
        <time>2014-03-02T12:13:56.000Z</time>
      </trkpt>
      <trkpt lat="45.34566" lon="6.19822">
        <ele>2388</ele>
        <time>2014-03-02T12:13:57.000Z</time>
      </trkpt>
      <trkpt lat="45.34567" lon="6.19822">
        <ele>2388.1999511719</ele>
        <time>2014-03-02T12:13:58.000Z</time>
      </trkpt>
      <trkpt lat="45.34567" lon="6.19822">
        <ele>2388.1999511719</ele>
        <time>2014-03-02T12:13:59.000Z</time>
      </trkpt>
      <trkpt lat="45.34568" lon="6.19822">
        <ele>2388.3999023438</ele>
        <time>2014-03-02T12:14:00.000Z</time>
      </trkpt>
      <trkpt lat="45.34568" lon="6.19822">
        <ele>2388.3999023438</ele>
        <time>2014-03-02T12:14:01.000Z</time>
      </trkpt>
      <trkpt lat="45.34568" lon="6.19822">
        <ele>2388.6000976562</ele>
        <time>2014-03-02T12:14:02.000Z</time>
      </trkpt>
      <trkpt lat="45.34568" lon="6.19822">
        <ele>2388.6000976562</ele>
        <time>2014-03-02T12:14:03.000Z</time>
      </trkpt>
      <trkpt lat="45.34568" lon="6.19822">
        <ele>2388.6000976562</ele>
        <time>2014-03-02T12:14:04.000Z</time>
      </trkpt>
      <trkpt lat="45.34568" lon="6.19822">
        <ele>2388.6000976562</ele>
        <time>2014-03-02T12:14:05.000Z</time>
      </trkpt>
      <trkpt lat="45.34568" lon="6.19822">
        <ele>2388.6000976562</ele>
        <time>2014-03-02T12:14:06.000Z</time>
      </trkpt>
      <trkpt lat="45.34568" lon="6.19822">
        <ele>2388.6000976562</ele>
        <time>2014-03-02T12:14:07.000Z</time>
      </trkpt>
      <trkpt lat="45.34568" lon="6.19822">
        <ele>2388.6000976562</ele>
        <time>2014-03-02T12:14:08.000Z</time>
      </trkpt>
      <trkpt lat="45.34568" lon="6.19822">
        <ele>2388.6000976562</ele>
        <time>2014-03-02T12:14:09.000Z</time>
      </trkpt>
      <trkpt lat="45.34568" lon="6.19822">
        <ele>2388.6000976562</ele>
        <time>2014-03-02T12:14:10.000Z</time>
      </trkpt>
      <trkpt lat="45.34568" lon="6.19822">
        <ele>2388.6000976562</ele>
        <time>2014-03-02T12:14:11.000Z</time>
      </trkpt>
      <trkpt lat="45.34568" lon="6.19822">
        <ele>2388.6000976562</ele>
        <time>2014-03-02T12:14:14.000Z</time>
      </trkpt>
      <trkpt lat="45.34568" lon="6.19822">
        <ele>2388.6000976562</ele>
        <time>2014-03-02T12:14:15.000Z</time>
      </trkpt>
      <trkpt lat="45.34568" lon="6.19822">
        <ele>2388.6000976562</ele>
        <time>2014-03-02T12:14:16.000Z</time>
      </trkpt>
      <trkpt lat="45.34568" lon="6.19822">
        <ele>2388.6000976562</ele>
        <time>2014-03-02T12:14:17.000Z</time>
      </trkpt>
      <trkpt lat="45.34568" lon="6.19822">
        <ele>2388.6000976562</ele>
        <time>2014-03-02T12:14:18.000Z</time>
      </trkpt>
      <trkpt lat="45.34568" lon="6.19822">
        <ele>2388.6000976562</ele>
        <time>2014-03-02T12:14:19.000Z</time>
      </trkpt>
      <trkpt lat="45.34568" lon="6.19822">
        <ele>2388.6000976562</ele>
        <time>2014-03-02T12:14:20.000Z</time>
      </trkpt>
      <trkpt lat="45.34568" lon="6.19822">
        <ele>2388.6000976562</ele>
        <time>2014-03-02T12:14:21.000Z</time>
      </trkpt>
      <trkpt lat="45.34568" lon="6.19822">
        <ele>2388.6000976562</ele>
        <time>2014-03-02T12:14:22.000Z</time>
      </trkpt>
      <trkpt lat="45.34568" lon="6.19822">
        <ele>2388.6000976562</ele>
        <time>2014-03-02T12:14:23.000Z</time>
      </trkpt>
      <trkpt lat="45.34568" lon="6.19822">
        <ele>2388.6000976562</ele>
        <time>2014-03-02T12:14:24.000Z</time>
      </trkpt>
      <trkpt lat="45.34568" lon="6.19822">
        <ele>2388.6000976562</ele>
        <time>2014-03-02T12:14:26.000Z</time>
      </trkpt>
      <trkpt lat="45.34568" lon="6.19822">
        <ele>2388.6000976562</ele>
        <time>2014-03-02T12:14:27.000Z</time>
      </trkpt>
      <trkpt lat="45.34568" lon="6.19822">
        <ele>2388.6000976562</ele>
        <time>2014-03-02T12:14:28.000Z</time>
      </trkpt>
      <trkpt lat="45.34568" lon="6.19822">
        <ele>2388.6000976562</ele>
        <time>2014-03-02T12:14:29.000Z</time>
      </trkpt>
      <trkpt lat="45.34568" lon="6.19822">
        <ele>2388.6000976562</ele>
        <time>2014-03-02T12:14:30.000Z</time>
      </trkpt>
      <trkpt lat="45.34568" lon="6.19822">
        <ele>2388.6000976562</ele>
        <time>2014-03-02T12:14:31.000Z</time>
      </trkpt>
      <trkpt lat="45.34568" lon="6.19821">
        <ele>2388.6000976562</ele>
        <time>2014-03-02T12:14:32.000Z</time>
      </trkpt>
      <trkpt lat="45.34568" lon="6.19821">
        <ele>2388.6000976562</ele>
        <time>2014-03-02T12:14:33.000Z</time>
      </trkpt>
      <trkpt lat="45.34568" lon="6.1982">
        <ele>2388.8000488281</ele>
        <time>2014-03-02T12:14:34.000Z</time>
      </trkpt>
      <trkpt lat="45.34568" lon="6.1982">
        <ele>2388.8000488281</ele>
        <time>2014-03-02T12:14:35.000Z</time>
      </trkpt>
      <trkpt lat="45.34569" lon="6.1982">
        <ele>2389</ele>
        <time>2014-03-02T12:14:36.000Z</time>
      </trkpt>
      <trkpt lat="45.34569" lon="6.1982">
        <ele>2389</ele>
        <time>2014-03-02T12:14:37.000Z</time>
      </trkpt>
      <trkpt lat="45.34569" lon="6.19818">
        <ele>2389.6000976562</ele>
        <time>2014-03-02T12:14:38.000Z</time>
      </trkpt>
      <trkpt lat="45.3457" lon="6.19818">
        <ele>2389.8000488281</ele>
        <time>2014-03-02T12:14:39.000Z</time>
      </trkpt>
      <trkpt lat="45.34571" lon="6.19818">
        <ele>2390</ele>
        <time>2014-03-02T12:14:40.000Z</time>
      </trkpt>
      <trkpt lat="45.34572" lon="6.19817">
        <ele>2390.3999023438</ele>
        <time>2014-03-02T12:14:41.000Z</time>
      </trkpt>
      <trkpt lat="45.34572" lon="6.19816">
        <ele>2390.6000976562</ele>
        <time>2014-03-02T12:14:42.000Z</time>
      </trkpt>
      <trkpt lat="45.34573" lon="6.19816">
        <ele>2390.8000488281</ele>
        <time>2014-03-02T12:14:43.000Z</time>
      </trkpt>
      <trkpt lat="45.34573" lon="6.19815">
        <ele>2391</ele>
        <time>2014-03-02T12:14:44.000Z</time>
      </trkpt>
      <trkpt lat="45.34573" lon="6.19815">
        <ele>2391</ele>
        <time>2014-03-02T12:14:45.000Z</time>
      </trkpt>
      <trkpt lat="45.34573" lon="6.19815">
        <ele>2391</ele>
        <time>2014-03-02T12:14:46.000Z</time>
      </trkpt>
      <trkpt lat="45.34574" lon="6.19815">
        <ele>2391.1999511719</ele>
        <time>2014-03-02T12:14:47.000Z</time>
      </trkpt>
      <trkpt lat="45.34574" lon="6.19815">
        <ele>2391.1999511719</ele>
        <time>2014-03-02T12:14:48.000Z</time>
      </trkpt>
      <trkpt lat="45.34574" lon="6.19815">
        <ele>2391.1999511719</ele>
        <time>2014-03-02T12:14:49.000Z</time>
      </trkpt>
      <trkpt lat="45.34574" lon="6.19815">
        <ele>2391.1999511719</ele>
        <time>2014-03-02T12:14:50.000Z</time>
      </trkpt>
      <trkpt lat="45.34574" lon="6.19815">
        <ele>2391.1999511719</ele>
        <time>2014-03-02T12:14:51.000Z</time>
      </trkpt>
      <trkpt lat="45.34574" lon="6.19815">
        <ele>2391.1999511719</ele>
        <time>2014-03-02T12:14:52.000Z</time>
      </trkpt>
      <trkpt lat="45.34574" lon="6.19815">
        <ele>2391.1999511719</ele>
        <time>2014-03-02T12:14:53.000Z</time>
      </trkpt>
      <trkpt lat="45.34574" lon="6.19815">
        <ele>2391.1999511719</ele>
        <time>2014-03-02T12:14:54.000Z</time>
      </trkpt>
      <trkpt lat="45.34574" lon="6.19815">
        <ele>2391.1999511719</ele>
        <time>2014-03-02T12:14:55.000Z</time>
      </trkpt>
      <trkpt lat="45.34574" lon="6.19814">
        <ele>2391.6000976562</ele>
        <time>2014-03-02T12:14:56.000Z</time>
      </trkpt>
      <trkpt lat="45.34575" lon="6.19814">
        <ele>2391.8000488281</ele>
        <time>2014-03-02T12:14:57.000Z</time>
      </trkpt>
      <trkpt lat="45.34576" lon="6.19813">
        <ele>2392.1999511719</ele>
        <time>2014-03-02T12:14:58.000Z</time>
      </trkpt>
      <trkpt lat="45.34577" lon="6.19813">
        <ele>2392.3999023438</ele>
        <time>2014-03-02T12:14:59.000Z</time>
      </trkpt>
      <trkpt lat="45.34577" lon="6.19813">
        <ele>2392.3999023438</ele>
        <time>2014-03-02T12:15:00.000Z</time>
      </trkpt>
      <trkpt lat="45.34577" lon="6.19812">
        <ele>2392.6000976562</ele>
        <time>2014-03-02T12:15:01.000Z</time>
      </trkpt>
      <trkpt lat="45.34578" lon="6.19812">
        <ele>2393</ele>
        <time>2014-03-02T12:15:02.000Z</time>
      </trkpt>
      <trkpt lat="45.34579" lon="6.19811">
        <ele>2393.1999511719</ele>
        <time>2014-03-02T12:15:03.000Z</time>
      </trkpt>
      <trkpt lat="45.3458" lon="6.19811">
        <ele>2393.6000976562</ele>
        <time>2014-03-02T12:15:04.000Z</time>
      </trkpt>
      <trkpt lat="45.34581" lon="6.1981">
        <ele>2394</ele>
        <time>2014-03-02T12:15:05.000Z</time>
      </trkpt>
      <trkpt lat="45.34582" lon="6.19809">
        <ele>2394.3999023438</ele>
        <time>2014-03-02T12:15:06.000Z</time>
      </trkpt>
      <trkpt lat="45.34583" lon="6.19809">
        <ele>2394.8000488281</ele>
        <time>2014-03-02T12:15:07.000Z</time>
      </trkpt>
      <trkpt lat="45.34584" lon="6.19808">
        <ele>2395</ele>
        <time>2014-03-02T12:15:08.000Z</time>
      </trkpt>
      <trkpt lat="45.34584" lon="6.19808">
        <ele>2395.1999511719</ele>
        <time>2014-03-02T12:15:09.000Z</time>
      </trkpt>
      <trkpt lat="45.34585" lon="6.19808">
        <ele>2395.3999023438</ele>
        <time>2014-03-02T12:15:10.000Z</time>
      </trkpt>
      <trkpt lat="45.34586" lon="6.19808">
        <ele>2395.3999023438</ele>
        <time>2014-03-02T12:15:11.000Z</time>
      </trkpt>
      <trkpt lat="45.34586" lon="6.19808">
        <ele>2395.3999023438</ele>
        <time>2014-03-02T12:15:12.000Z</time>
      </trkpt>
      <trkpt lat="45.34586" lon="6.19808">
        <ele>2395.6000976562</ele>
        <time>2014-03-02T12:15:13.000Z</time>
      </trkpt>
      <trkpt lat="45.34586" lon="6.19808">
        <ele>2395.6000976562</ele>
        <time>2014-03-02T12:15:14.000Z</time>
      </trkpt>
      <trkpt lat="45.34587" lon="6.19808">
        <ele>2395.8000488281</ele>
        <time>2014-03-02T12:15:15.000Z</time>
      </trkpt>
      <trkpt lat="45.34587" lon="6.19807">
        <ele>2395.8000488281</ele>
        <time>2014-03-02T12:15:16.000Z</time>
      </trkpt>
      <trkpt lat="45.34587" lon="6.19807">
        <ele>2396</ele>
        <time>2014-03-02T12:15:17.000Z</time>
      </trkpt>
      <trkpt lat="45.34588" lon="6.19806">
        <ele>2396.1999511719</ele>
        <time>2014-03-02T12:15:18.000Z</time>
      </trkpt>
      <trkpt lat="45.34589" lon="6.19806">
        <ele>2396.6000976562</ele>
        <time>2014-03-02T12:15:19.000Z</time>
      </trkpt>
      <trkpt lat="45.3459" lon="6.19806">
        <ele>2396.8000488281</ele>
        <time>2014-03-02T12:15:20.000Z</time>
      </trkpt>
      <trkpt lat="45.3459" lon="6.19805">
        <ele>2397</ele>
        <time>2014-03-02T12:15:21.000Z</time>
      </trkpt>
      <trkpt lat="45.3459" lon="6.19805">
        <ele>2397</ele>
        <time>2014-03-02T12:15:22.000Z</time>
      </trkpt>
      <trkpt lat="45.34591" lon="6.19805">
        <ele>2397.1999511719</ele>
        <time>2014-03-02T12:15:23.000Z</time>
      </trkpt>
      <trkpt lat="45.34591" lon="6.19805">
        <ele>2397.1999511719</ele>
        <time>2014-03-02T12:15:24.000Z</time>
      </trkpt>
      <trkpt lat="45.34591" lon="6.19804">
        <ele>2397.3999023438</ele>
        <time>2014-03-02T12:15:25.000Z</time>
      </trkpt>
      <trkpt lat="45.34591" lon="6.19804">
        <ele>2397.3999023438</ele>
        <time>2014-03-02T12:15:26.000Z</time>
      </trkpt>
      <trkpt lat="45.34591" lon="6.19804">
        <ele>2397.3999023438</ele>
        <time>2014-03-02T12:15:27.000Z</time>
      </trkpt>
      <trkpt lat="45.34591" lon="6.19804">
        <ele>2397.3999023438</ele>
        <time>2014-03-02T12:15:28.000Z</time>
      </trkpt>
      <trkpt lat="45.34591" lon="6.19804">
        <ele>2397.3999023438</ele>
        <time>2014-03-02T12:15:29.000Z</time>
      </trkpt>
      <trkpt lat="45.34591" lon="6.19804">
        <ele>2397.3999023438</ele>
        <time>2014-03-02T12:15:30.000Z</time>
      </trkpt>
      <trkpt lat="45.34591" lon="6.19804">
        <ele>2397.3999023438</ele>
        <time>2014-03-02T12:15:31.000Z</time>
      </trkpt>
      <trkpt lat="45.34591" lon="6.19804">
        <ele>2397.3999023438</ele>
        <time>2014-03-02T12:15:32.000Z</time>
      </trkpt>
      <trkpt lat="45.34591" lon="6.19804">
        <ele>2397.3999023438</ele>
        <time>2014-03-02T12:15:33.000Z</time>
      </trkpt>
      <trkpt lat="45.34592" lon="6.19804">
        <ele>2397.3999023438</ele>
        <time>2014-03-02T12:15:34.000Z</time>
      </trkpt>
      <trkpt lat="45.34592" lon="6.19804">
        <ele>2397.3999023438</ele>
        <time>2014-03-02T12:15:35.000Z</time>
      </trkpt>
      <trkpt lat="45.34592" lon="6.19804">
        <ele>2397.3999023438</ele>
        <time>2014-03-02T12:15:36.000Z</time>
      </trkpt>
      <trkpt lat="45.34592" lon="6.19804">
        <ele>2397.3999023438</ele>
        <time>2014-03-02T12:15:37.000Z</time>
      </trkpt>
      <trkpt lat="45.34592" lon="6.19804">
        <ele>2397.6000976562</ele>
        <time>2014-03-02T12:15:38.000Z</time>
      </trkpt>
      <trkpt lat="45.34592" lon="6.19804">
        <ele>2397.6000976562</ele>
        <time>2014-03-02T12:15:39.000Z</time>
      </trkpt>
      <trkpt lat="45.34592" lon="6.19804">
        <ele>2397.6000976562</ele>
        <time>2014-03-02T12:15:40.000Z</time>
      </trkpt>
      <trkpt lat="45.34592" lon="6.19804">
        <ele>2397.6000976562</ele>
        <time>2014-03-02T12:15:41.000Z</time>
      </trkpt>
      <trkpt lat="45.34592" lon="6.19804">
        <ele>2397.6000976562</ele>
        <time>2014-03-02T12:15:42.000Z</time>
      </trkpt>
      <trkpt lat="45.34592" lon="6.19804">
        <ele>2397.6000976562</ele>
        <time>2014-03-02T12:15:43.000Z</time>
      </trkpt>
      <trkpt lat="45.34592" lon="6.19804">
        <ele>2397.6000976562</ele>
        <time>2014-03-02T12:15:44.000Z</time>
      </trkpt>
      <trkpt lat="45.34592" lon="6.19804">
        <ele>2397.6000976562</ele>
        <time>2014-03-02T12:15:45.000Z</time>
      </trkpt>
      <trkpt lat="45.34592" lon="6.19804">
        <ele>2397.6000976562</ele>
        <time>2014-03-02T12:15:46.000Z</time>
      </trkpt>
      <trkpt lat="45.34592" lon="6.19804">
        <ele>2397.6000976562</ele>
        <time>2014-03-02T12:15:47.000Z</time>
      </trkpt>
      <trkpt lat="45.34592" lon="6.19804">
        <ele>2397.6000976562</ele>
        <time>2014-03-02T12:15:49.000Z</time>
      </trkpt>
      <trkpt lat="45.34592" lon="6.19804">
        <ele>2397.6000976562</ele>
        <time>2014-03-02T12:15:50.000Z</time>
      </trkpt>
      <trkpt lat="45.34592" lon="6.19804">
        <ele>2397.6000976562</ele>
        <time>2014-03-02T12:15:51.000Z</time>
      </trkpt>
      <trkpt lat="45.34592" lon="6.19804">
        <ele>2397.6000976562</ele>
        <time>2014-03-02T12:15:52.000Z</time>
      </trkpt>
      <trkpt lat="45.34592" lon="6.19804">
        <ele>2397.6000976562</ele>
        <time>2014-03-02T12:15:53.000Z</time>
      </trkpt>
      <trkpt lat="45.34592" lon="6.19804">
        <ele>2397.6000976562</ele>
        <time>2014-03-02T12:15:54.000Z</time>
      </trkpt>
      <trkpt lat="45.34592" lon="6.19804">
        <ele>2397.6000976562</ele>
        <time>2014-03-02T12:15:55.000Z</time>
      </trkpt>
      <trkpt lat="45.34592" lon="6.19804">
        <ele>2397.6000976562</ele>
        <time>2014-03-02T12:15:56.000Z</time>
      </trkpt>
      <trkpt lat="45.34592" lon="6.19804">
        <ele>2397.6000976562</ele>
        <time>2014-03-02T12:15:57.000Z</time>
      </trkpt>
      <trkpt lat="45.34593" lon="6.19804">
        <ele>2397.8000488281</ele>
        <time>2014-03-02T12:15:58.000Z</time>
      </trkpt>
      <trkpt lat="45.34594" lon="6.19805">
        <ele>2398</ele>
        <time>2014-03-02T12:15:59.000Z</time>
      </trkpt>
      <trkpt lat="45.34595" lon="6.19805">
        <ele>2398</ele>
        <time>2014-03-02T12:16:00.000Z</time>
      </trkpt>
      <trkpt lat="45.34595" lon="6.19805">
        <ele>2398.1999511719</ele>
        <time>2014-03-02T12:16:01.000Z</time>
      </trkpt>
      <trkpt lat="45.34597" lon="6.19805">
        <ele>2398.3999023438</ele>
        <time>2014-03-02T12:16:02.000Z</time>
      </trkpt>
      <trkpt lat="45.34598" lon="6.19805">
        <ele>2398.8000488281</ele>
        <time>2014-03-02T12:16:04.000Z</time>
      </trkpt>
      <trkpt lat="45.34599" lon="6.19805">
        <ele>2399</ele>
        <time>2014-03-02T12:16:05.000Z</time>
      </trkpt>
      <trkpt lat="45.346" lon="6.19805">
        <ele>2399.1999511719</ele>
        <time>2014-03-02T12:16:06.000Z</time>
      </trkpt>
      <trkpt lat="45.346" lon="6.19805">
        <ele>2399.1999511719</ele>
        <time>2014-03-02T12:16:08.000Z</time>
      </trkpt>
      <trkpt lat="45.346" lon="6.19805">
        <ele>2399.1999511719</ele>
        <time>2014-03-02T12:16:10.000Z</time>
      </trkpt>
      <trkpt lat="45.346" lon="6.19805">
        <ele>2399.1999511719</ele>
        <time>2014-03-02T12:16:11.000Z</time>
      </trkpt>
      <trkpt lat="45.346" lon="6.19805">
        <ele>2399.1999511719</ele>
        <time>2014-03-02T12:16:13.000Z</time>
      </trkpt>
      <trkpt lat="45.346" lon="6.19805">
        <ele>2399.1999511719</ele>
        <time>2014-03-02T12:16:14.000Z</time>
      </trkpt>
      <trkpt lat="45.346" lon="6.19805">
        <ele>2399.1999511719</ele>
        <time>2014-03-02T12:16:15.000Z</time>
      </trkpt>
      <trkpt lat="45.346" lon="6.19805">
        <ele>2399.1999511719</ele>
        <time>2014-03-02T12:16:16.000Z</time>
      </trkpt>
      <trkpt lat="45.346" lon="6.19805">
        <ele>2399.1999511719</ele>
        <time>2014-03-02T12:16:17.000Z</time>
      </trkpt>
      <trkpt lat="45.346" lon="6.19805">
        <ele>2399.1999511719</ele>
        <time>2014-03-02T12:16:18.000Z</time>
      </trkpt>
      <trkpt lat="45.346" lon="6.19805">
        <ele>2399.1999511719</ele>
        <time>2014-03-02T12:16:19.000Z</time>
      </trkpt>
      <trkpt lat="45.346" lon="6.19805">
        <ele>2399.1999511719</ele>
        <time>2014-03-02T12:16:20.000Z</time>
      </trkpt>
      <trkpt lat="45.346" lon="6.19805">
        <ele>2399.1999511719</ele>
        <time>2014-03-02T12:16:21.000Z</time>
      </trkpt>
      <trkpt lat="45.346" lon="6.19805">
        <ele>2399.1999511719</ele>
        <time>2014-03-02T12:16:22.000Z</time>
      </trkpt>
      <trkpt lat="45.346" lon="6.19805">
        <ele>2399.1999511719</ele>
        <time>2014-03-02T12:16:23.000Z</time>
      </trkpt>
      <trkpt lat="45.346" lon="6.19805">
        <ele>2399.1999511719</ele>
        <time>2014-03-02T12:16:24.000Z</time>
      </trkpt>
      <trkpt lat="45.346" lon="6.19805">
        <ele>2399.1999511719</ele>
        <time>2014-03-02T12:16:25.000Z</time>
      </trkpt>
      <trkpt lat="45.34601" lon="6.19805">
        <ele>2399.3999023438</ele>
        <time>2014-03-02T12:16:26.000Z</time>
      </trkpt>
      <trkpt lat="45.34602" lon="6.19805">
        <ele>2399.6000976562</ele>
        <time>2014-03-02T12:16:27.000Z</time>
      </trkpt>
      <trkpt lat="45.34602" lon="6.19804">
        <ele>2399.8000488281</ele>
        <time>2014-03-02T12:16:28.000Z</time>
      </trkpt>
      <trkpt lat="45.34603" lon="6.19804">
        <ele>2400.1999511719</ele>
        <time>2014-03-02T12:16:29.000Z</time>
      </trkpt>
      <trkpt lat="45.34604" lon="6.19803">
        <ele>2400.3999023438</ele>
        <time>2014-03-02T12:16:30.000Z</time>
      </trkpt>
      <trkpt lat="45.34604" lon="6.19803">
        <ele>2400.6000976562</ele>
        <time>2014-03-02T12:16:31.000Z</time>
      </trkpt>
      <trkpt lat="45.34605" lon="6.19803">
        <ele>2400.8000488281</ele>
        <time>2014-03-02T12:16:32.000Z</time>
      </trkpt>
      <trkpt lat="45.34606" lon="6.19803">
        <ele>2401</ele>
        <time>2014-03-02T12:16:33.000Z</time>
      </trkpt>
      <trkpt lat="45.34607" lon="6.19803">
        <ele>2401.1999511719</ele>
        <time>2014-03-02T12:16:34.000Z</time>
      </trkpt>
      <trkpt lat="45.34607" lon="6.19803">
        <ele>2401.3999023438</ele>
        <time>2014-03-02T12:16:35.000Z</time>
      </trkpt>
      <trkpt lat="45.34608" lon="6.19802">
        <ele>2401.6000976562</ele>
        <time>2014-03-02T12:16:36.000Z</time>
      </trkpt>
      <trkpt lat="45.34609" lon="6.19802">
        <ele>2401.8000488281</ele>
        <time>2014-03-02T12:16:37.000Z</time>
      </trkpt>
      <trkpt lat="45.34609" lon="6.19802">
        <ele>2401.8000488281</ele>
        <time>2014-03-02T12:16:38.000Z</time>
      </trkpt>
      <trkpt lat="45.3461" lon="6.19802">
        <ele>2402</ele>
        <time>2014-03-02T12:16:39.000Z</time>
      </trkpt>
      <trkpt lat="45.34611" lon="6.19803">
        <ele>2402.1999511719</ele>
        <time>2014-03-02T12:16:40.000Z</time>
      </trkpt>
      <trkpt lat="45.34612" lon="6.19803">
        <ele>2402.3999023438</ele>
        <time>2014-03-02T12:16:41.000Z</time>
      </trkpt>
      <trkpt lat="45.34613" lon="6.19803">
        <ele>2402.6000976562</ele>
        <time>2014-03-02T12:16:42.000Z</time>
      </trkpt>
      <trkpt lat="45.34613" lon="6.19803">
        <ele>2402.8000488281</ele>
        <time>2014-03-02T12:16:43.000Z</time>
      </trkpt>
      <trkpt lat="45.34614" lon="6.19803">
        <ele>2403</ele>
        <time>2014-03-02T12:16:44.000Z</time>
      </trkpt>
      <trkpt lat="45.34615" lon="6.19803">
        <ele>2403.1999511719</ele>
        <time>2014-03-02T12:16:45.000Z</time>
      </trkpt>
      <trkpt lat="45.34616" lon="6.19803">
        <ele>2403.1999511719</ele>
        <time>2014-03-02T12:16:46.000Z</time>
      </trkpt>
      <trkpt lat="45.34616" lon="6.19803">
        <ele>2403.3999023438</ele>
        <time>2014-03-02T12:16:47.000Z</time>
      </trkpt>
      <trkpt lat="45.34616" lon="6.19803">
        <ele>2403.3999023438</ele>
        <time>2014-03-02T12:16:48.000Z</time>
      </trkpt>
      <trkpt lat="45.34616" lon="6.19803">
        <ele>2403.3999023438</ele>
        <time>2014-03-02T12:16:49.000Z</time>
      </trkpt>
      <trkpt lat="45.34616" lon="6.19803">
        <ele>2403.3999023438</ele>
        <time>2014-03-02T12:16:50.000Z</time>
      </trkpt>
      <trkpt lat="45.34616" lon="6.19803">
        <ele>2403.3999023438</ele>
        <time>2014-03-02T12:16:51.000Z</time>
      </trkpt>
      <trkpt lat="45.34616" lon="6.19803">
        <ele>2403.3999023438</ele>
        <time>2014-03-02T12:16:52.000Z</time>
      </trkpt>
      <trkpt lat="45.34616" lon="6.19803">
        <ele>2403.3999023438</ele>
        <time>2014-03-02T12:16:53.000Z</time>
      </trkpt>
      <trkpt lat="45.34616" lon="6.19803">
        <ele>2403.3999023438</ele>
        <time>2014-03-02T12:16:57.000Z</time>
      </trkpt>
      <trkpt lat="45.34616" lon="6.19803">
        <ele>2403.3999023438</ele>
        <time>2014-03-02T12:16:58.000Z</time>
      </trkpt>
      <trkpt lat="45.34616" lon="6.19803">
        <ele>2403.3999023438</ele>
        <time>2014-03-02T12:16:59.000Z</time>
      </trkpt>
      <trkpt lat="45.34616" lon="6.19803">
        <ele>2403.3999023438</ele>
        <time>2014-03-02T12:17:02.000Z</time>
      </trkpt>
      <trkpt lat="45.34616" lon="6.19803">
        <ele>2403.3999023438</ele>
        <time>2014-03-02T12:17:03.000Z</time>
      </trkpt>
      <trkpt lat="45.34616" lon="6.19803">
        <ele>2403.3999023438</ele>
        <time>2014-03-02T12:17:04.000Z</time>
      </trkpt>
      <trkpt lat="45.34616" lon="6.19803">
        <ele>2403.3999023438</ele>
        <time>2014-03-02T12:17:05.000Z</time>
      </trkpt>
      <trkpt lat="45.34616" lon="6.19803">
        <ele>2403.3999023438</ele>
        <time>2014-03-02T12:17:08.000Z</time>
      </trkpt>
      <trkpt lat="45.34616" lon="6.19803">
        <ele>2403.3999023438</ele>
        <time>2014-03-02T12:17:09.000Z</time>
      </trkpt>
      <trkpt lat="45.34616" lon="6.19803">
        <ele>2403.3999023438</ele>
        <time>2014-03-02T12:17:11.000Z</time>
      </trkpt>
      <trkpt lat="45.34616" lon="6.19803">
        <ele>2403.3999023438</ele>
        <time>2014-03-02T12:17:12.000Z</time>
      </trkpt>
      <trkpt lat="45.34616" lon="6.19803">
        <ele>2403.3999023438</ele>
        <time>2014-03-02T12:17:13.000Z</time>
      </trkpt>
      <trkpt lat="45.34616" lon="6.19803">
        <ele>2403.3999023438</ele>
        <time>2014-03-02T12:17:14.000Z</time>
      </trkpt>
      <trkpt lat="45.34616" lon="6.19803">
        <ele>2403.3999023438</ele>
        <time>2014-03-02T12:17:15.000Z</time>
      </trkpt>
      <trkpt lat="45.34616" lon="6.19803">
        <ele>2403.3999023438</ele>
        <time>2014-03-02T12:17:16.000Z</time>
      </trkpt>
      <trkpt lat="45.34617" lon="6.19802">
        <ele>2403.6000976562</ele>
        <time>2014-03-02T12:17:17.000Z</time>
      </trkpt>
      <trkpt lat="45.34619" lon="6.19802">
        <ele>2404.1999511719</ele>
        <time>2014-03-02T12:17:18.000Z</time>
      </trkpt>
      <trkpt lat="45.3462" lon="6.19801">
        <ele>2404.3999023438</ele>
        <time>2014-03-02T12:17:19.000Z</time>
      </trkpt>
      <trkpt lat="45.34621" lon="6.19801">
        <ele>2405</ele>
        <time>2014-03-02T12:17:20.000Z</time>
      </trkpt>
      <trkpt lat="45.34621" lon="6.19801">
        <ele>2405.1999511719</ele>
        <time>2014-03-02T12:17:21.000Z</time>
      </trkpt>
      <trkpt lat="45.34622" lon="6.19801">
        <ele>2405.8000488281</ele>
        <time>2014-03-02T12:17:22.000Z</time>
      </trkpt>
      <trkpt lat="45.34624" lon="6.198">
        <ele>2406.1999511719</ele>
        <time>2014-03-02T12:17:23.000Z</time>
      </trkpt>
      <trkpt lat="45.34625" lon="6.198">
        <ele>2406.8000488281</ele>
        <time>2014-03-02T12:17:24.000Z</time>
      </trkpt>
      <trkpt lat="45.34626" lon="6.198">
        <ele>2407.3999023438</ele>
        <time>2014-03-02T12:17:25.000Z</time>
      </trkpt>
      <trkpt lat="45.34627" lon="6.198">
        <ele>2407.8000488281</ele>
        <time>2014-03-02T12:17:26.000Z</time>
      </trkpt>
      <trkpt lat="45.34628" lon="6.198">
        <ele>2408.1999511719</ele>
        <time>2014-03-02T12:17:27.000Z</time>
      </trkpt>
      <trkpt lat="45.34628" lon="6.198">
        <ele>2408.3999023438</ele>
        <time>2014-03-02T12:17:28.000Z</time>
      </trkpt>
      <trkpt lat="45.34628" lon="6.198">
        <ele>2408.3999023438</ele>
        <time>2014-03-02T12:17:29.000Z</time>
      </trkpt>
      <trkpt lat="45.34629" lon="6.198">
        <ele>2408.6000976562</ele>
        <time>2014-03-02T12:17:30.000Z</time>
      </trkpt>
      <trkpt lat="45.34629" lon="6.198">
        <ele>2408.6000976562</ele>
        <time>2014-03-02T12:17:31.000Z</time>
      </trkpt>
      <trkpt lat="45.34629" lon="6.198">
        <ele>2408.6000976562</ele>
        <time>2014-03-02T12:17:32.000Z</time>
      </trkpt>
      <trkpt lat="45.34629" lon="6.198">
        <ele>2408.6000976562</ele>
        <time>2014-03-02T12:17:33.000Z</time>
      </trkpt>
      <trkpt lat="45.3463" lon="6.198">
        <ele>2408.8000488281</ele>
        <time>2014-03-02T12:17:34.000Z</time>
      </trkpt>
      <trkpt lat="45.3463" lon="6.198">
        <ele>2409</ele>
        <time>2014-03-02T12:17:35.000Z</time>
      </trkpt>
      <trkpt lat="45.34631" lon="6.198">
        <ele>2409.1999511719</ele>
        <time>2014-03-02T12:17:36.000Z</time>
      </trkpt>
      <trkpt lat="45.34631" lon="6.198">
        <ele>2409.3999023438</ele>
        <time>2014-03-02T12:17:37.000Z</time>
      </trkpt>
      <trkpt lat="45.34632" lon="6.198">
        <ele>2409.6000976562</ele>
        <time>2014-03-02T12:17:38.000Z</time>
      </trkpt>
      <trkpt lat="45.34632" lon="6.198">
        <ele>2409.8000488281</ele>
        <time>2014-03-02T12:17:39.000Z</time>
      </trkpt>
      <trkpt lat="45.34633" lon="6.198">
        <ele>2410.1999511719</ele>
        <time>2014-03-02T12:17:40.000Z</time>
      </trkpt>
      <trkpt lat="45.34634" lon="6.198">
        <ele>2410.3999023438</ele>
        <time>2014-03-02T12:17:41.000Z</time>
      </trkpt>
      <trkpt lat="45.34634" lon="6.198">
        <ele>2410.6000976562</ele>
        <time>2014-03-02T12:17:42.000Z</time>
      </trkpt>
      <trkpt lat="45.34635" lon="6.19799">
        <ele>2411</ele>
        <time>2014-03-02T12:17:43.000Z</time>
      </trkpt>
      <trkpt lat="45.34636" lon="6.19799">
        <ele>2411.3999023438</ele>
        <time>2014-03-02T12:17:44.000Z</time>
      </trkpt>
      <trkpt lat="45.34636" lon="6.19798">
        <ele>2411.8000488281</ele>
        <time>2014-03-02T12:17:45.000Z</time>
      </trkpt>
      <trkpt lat="45.34636" lon="6.19798">
        <ele>2412</ele>
        <time>2014-03-02T12:17:46.000Z</time>
      </trkpt>
      <trkpt lat="45.34636" lon="6.19798">
        <ele>2412</ele>
        <time>2014-03-02T12:17:47.000Z</time>
      </trkpt>
      <trkpt lat="45.34637" lon="6.19797">
        <ele>2412.1999511719</ele>
        <time>2014-03-02T12:17:48.000Z</time>
      </trkpt>
      <trkpt lat="45.34637" lon="6.19797">
        <ele>2412.6000976562</ele>
        <time>2014-03-02T12:17:49.000Z</time>
      </trkpt>
      <trkpt lat="45.34638" lon="6.19797">
        <ele>2412.8000488281</ele>
        <time>2014-03-02T12:17:50.000Z</time>
      </trkpt>
      <trkpt lat="45.34638" lon="6.19797">
        <ele>2412.8000488281</ele>
        <time>2014-03-02T12:17:51.000Z</time>
      </trkpt>
      <trkpt lat="45.34638" lon="6.19797">
        <ele>2413</ele>
        <time>2014-03-02T12:17:52.000Z</time>
      </trkpt>
      <trkpt lat="45.34639" lon="6.19796">
        <ele>2413.3999023438</ele>
        <time>2014-03-02T12:17:53.000Z</time>
      </trkpt>
      <trkpt lat="45.34639" lon="6.19796">
        <ele>2413.6000976562</ele>
        <time>2014-03-02T12:17:54.000Z</time>
      </trkpt>
      <trkpt lat="45.3464" lon="6.19797">
        <ele>2413.6000976562</ele>
        <time>2014-03-02T12:17:55.000Z</time>
      </trkpt>
      <trkpt lat="45.3464" lon="6.19797">
        <ele>2413.8000488281</ele>
        <time>2014-03-02T12:17:56.000Z</time>
      </trkpt>
      <trkpt lat="45.34641" lon="6.19796">
        <ele>2414</ele>
        <time>2014-03-02T12:17:57.000Z</time>
      </trkpt>
      <trkpt lat="45.34641" lon="6.19796">
        <ele>2414.3999023438</ele>
        <time>2014-03-02T12:17:58.000Z</time>
      </trkpt>
      <trkpt lat="45.34642" lon="6.19796">
        <ele>2414.6000976562</ele>
        <time>2014-03-02T12:17:59.000Z</time>
      </trkpt>
      <trkpt lat="45.34642" lon="6.19796">
        <ele>2414.8000488281</ele>
        <time>2014-03-02T12:18:00.000Z</time>
      </trkpt>
      <trkpt lat="45.34643" lon="6.19796">
        <ele>2415</ele>
        <time>2014-03-02T12:18:01.000Z</time>
      </trkpt>
      <trkpt lat="45.34643" lon="6.19795">
        <ele>2415.1999511719</ele>
        <time>2014-03-02T12:18:02.000Z</time>
      </trkpt>
      <trkpt lat="45.34644" lon="6.19795">
        <ele>2415.3999023438</ele>
        <time>2014-03-02T12:18:03.000Z</time>
      </trkpt>
      <trkpt lat="45.34645" lon="6.19795">
        <ele>2415.6000976562</ele>
        <time>2014-03-02T12:18:04.000Z</time>
      </trkpt>
      <trkpt lat="45.34645" lon="6.19795">
        <ele>2415.8000488281</ele>
        <time>2014-03-02T12:18:05.000Z</time>
      </trkpt>
      <trkpt lat="45.34645" lon="6.19795">
        <ele>2416</ele>
        <time>2014-03-02T12:18:06.000Z</time>
      </trkpt>
      <trkpt lat="45.34646" lon="6.19795">
        <ele>2416.1999511719</ele>
        <time>2014-03-02T12:18:07.000Z</time>
      </trkpt>
      <trkpt lat="45.34646" lon="6.19795">
        <ele>2416.3999023438</ele>
        <time>2014-03-02T12:18:08.000Z</time>
      </trkpt>
      <trkpt lat="45.34647" lon="6.19795">
        <ele>2416.6000976562</ele>
        <time>2014-03-02T12:18:09.000Z</time>
      </trkpt>
      <trkpt lat="45.34647" lon="6.19795">
        <ele>2416.8000488281</ele>
        <time>2014-03-02T12:18:10.000Z</time>
      </trkpt>
      <trkpt lat="45.34648" lon="6.19795">
        <ele>2417.1999511719</ele>
        <time>2014-03-02T12:18:11.000Z</time>
      </trkpt>
      <trkpt lat="45.34649" lon="6.19795">
        <ele>2417.3999023438</ele>
        <time>2014-03-02T12:18:12.000Z</time>
      </trkpt>
      <trkpt lat="45.3465" lon="6.19795">
        <ele>2417.6000976562</ele>
        <time>2014-03-02T12:18:13.000Z</time>
      </trkpt>
      <trkpt lat="45.3465" lon="6.19795">
        <ele>2417.8000488281</ele>
        <time>2014-03-02T12:18:14.000Z</time>
      </trkpt>
      <trkpt lat="45.34651" lon="6.19795">
        <ele>2418</ele>
        <time>2014-03-02T12:18:15.000Z</time>
      </trkpt>
      <trkpt lat="45.34651" lon="6.19795">
        <ele>2418.1999511719</ele>
        <time>2014-03-02T12:18:16.000Z</time>
      </trkpt>
      <trkpt lat="45.34652" lon="6.19795">
        <ele>2418.3999023438</ele>
        <time>2014-03-02T12:18:17.000Z</time>
      </trkpt>
      <trkpt lat="45.34652" lon="6.19794">
        <ele>2418.6000976562</ele>
        <time>2014-03-02T12:18:18.000Z</time>
      </trkpt>
      <trkpt lat="45.34653" lon="6.19794">
        <ele>2419</ele>
        <time>2014-03-02T12:18:20.000Z</time>
      </trkpt>
      <trkpt lat="45.34654" lon="6.19794">
        <ele>2419.1999511719</ele>
        <time>2014-03-02T12:18:21.000Z</time>
      </trkpt>
      <trkpt lat="45.34654" lon="6.19794">
        <ele>2419.3999023438</ele>
        <time>2014-03-02T12:18:22.000Z</time>
      </trkpt>
      <trkpt lat="45.34655" lon="6.19794">
        <ele>2419.6000976562</ele>
        <time>2014-03-02T12:18:23.000Z</time>
      </trkpt>
      <trkpt lat="45.34655" lon="6.19794">
        <ele>2419.6000976562</ele>
        <time>2014-03-02T12:18:24.000Z</time>
      </trkpt>
      <trkpt lat="45.34655" lon="6.19794">
        <ele>2419.6000976562</ele>
        <time>2014-03-02T12:18:25.000Z</time>
      </trkpt>
      <trkpt lat="45.34655" lon="6.19794">
        <ele>2419.6000976562</ele>
        <time>2014-03-02T12:18:26.000Z</time>
      </trkpt>
      <trkpt lat="45.34655" lon="6.19794">
        <ele>2419.6000976562</ele>
        <time>2014-03-02T12:18:27.000Z</time>
      </trkpt>
      <trkpt lat="45.34655" lon="6.19794">
        <ele>2419.6000976562</ele>
        <time>2014-03-02T12:18:28.000Z</time>
      </trkpt>
      <trkpt lat="45.34655" lon="6.19794">
        <ele>2419.6000976562</ele>
        <time>2014-03-02T12:18:29.000Z</time>
      </trkpt>
      <trkpt lat="45.34655" lon="6.19794">
        <ele>2419.6000976562</ele>
        <time>2014-03-02T12:18:31.000Z</time>
      </trkpt>
      <trkpt lat="45.34655" lon="6.19794">
        <ele>2419.6000976562</ele>
        <time>2014-03-02T12:18:32.000Z</time>
      </trkpt>
      <trkpt lat="45.34655" lon="6.19794">
        <ele>2419.6000976562</ele>
        <time>2014-03-02T12:18:33.000Z</time>
      </trkpt>
      <trkpt lat="45.34655" lon="6.19794">
        <ele>2419.6000976562</ele>
        <time>2014-03-02T12:18:34.000Z</time>
      </trkpt>
      <trkpt lat="45.34655" lon="6.19794">
        <ele>2419.6000976562</ele>
        <time>2014-03-02T12:18:35.000Z</time>
      </trkpt>
      <trkpt lat="45.34655" lon="6.19794">
        <ele>2419.6000976562</ele>
        <time>2014-03-02T12:18:36.000Z</time>
      </trkpt>
      <trkpt lat="45.34655" lon="6.19794">
        <ele>2419.6000976562</ele>
        <time>2014-03-02T12:18:37.000Z</time>
      </trkpt>
      <trkpt lat="45.34655" lon="6.19794">
        <ele>2419.6000976562</ele>
        <time>2014-03-02T12:18:38.000Z</time>
      </trkpt>
      <trkpt lat="45.34656" lon="6.19795">
        <ele>2419.6000976562</ele>
        <time>2014-03-02T12:18:39.000Z</time>
      </trkpt>
      <trkpt lat="45.34656" lon="6.19795">
        <ele>2419.6000976562</ele>
        <time>2014-03-02T12:18:40.000Z</time>
      </trkpt>
      <trkpt lat="45.34656" lon="6.19795">
        <ele>2419.3999023438</ele>
        <time>2014-03-02T12:18:41.000Z</time>
      </trkpt>
      <trkpt lat="45.34655" lon="6.19795">
        <ele>2419.3999023438</ele>
        <time>2014-03-02T12:18:42.000Z</time>
      </trkpt>
      <trkpt lat="45.34656" lon="6.19795">
        <ele>2419.3999023438</ele>
        <time>2014-03-02T12:18:43.000Z</time>
      </trkpt>
      <trkpt lat="45.34655" lon="6.19795">
        <ele>2419.3999023438</ele>
        <time>2014-03-02T12:18:44.000Z</time>
      </trkpt>
      <trkpt lat="45.34655" lon="6.19795">
        <ele>2419.3999023438</ele>
        <time>2014-03-02T12:18:45.000Z</time>
      </trkpt>
      <trkpt lat="45.34654" lon="6.19794">
        <ele>2419.3999023438</ele>
        <time>2014-03-02T12:18:47.000Z</time>
      </trkpt>
      <trkpt lat="45.34653" lon="6.19794">
        <ele>2419</ele>
        <time>2014-03-02T12:18:48.000Z</time>
      </trkpt>
      <trkpt lat="45.34653" lon="6.19795">
        <ele>2418.6000976562</ele>
        <time>2014-03-02T12:18:49.000Z</time>
      </trkpt>
      <trkpt lat="45.34653" lon="6.19795">
        <ele>2418.6000976562</ele>
        <time>2014-03-02T12:18:50.000Z</time>
      </trkpt>
      <trkpt lat="45.34654" lon="6.19796">
        <ele>2418.6000976562</ele>
        <time>2014-03-02T12:18:51.000Z</time>
      </trkpt>
      <trkpt lat="45.34654" lon="6.19796">
        <ele>2418.6000976562</ele>
        <time>2014-03-02T12:18:52.000Z</time>
      </trkpt>
      <trkpt lat="45.34654" lon="6.19796">
        <ele>2418.8000488281</ele>
        <time>2014-03-02T12:18:53.000Z</time>
      </trkpt>
      <trkpt lat="45.34655" lon="6.19796">
        <ele>2419</ele>
        <time>2014-03-02T12:18:54.000Z</time>
      </trkpt>
      <trkpt lat="45.34656" lon="6.19796">
        <ele>2419.1999511719</ele>
        <time>2014-03-02T12:18:55.000Z</time>
      </trkpt>
      <trkpt lat="45.34657" lon="6.19796">
        <ele>2419.3999023438</ele>
        <time>2014-03-02T12:18:56.000Z</time>
      </trkpt>
      <trkpt lat="45.34658" lon="6.19797">
        <ele>2419.6000976562</ele>
        <time>2014-03-02T12:18:57.000Z</time>
      </trkpt>
      <trkpt lat="45.34659" lon="6.19797">
        <ele>2419.8000488281</ele>
        <time>2014-03-02T12:18:58.000Z</time>
      </trkpt>
      <trkpt lat="45.3466" lon="6.19797">
        <ele>2420.1999511719</ele>
        <time>2014-03-02T12:18:59.000Z</time>
      </trkpt>
      <trkpt lat="45.34661" lon="6.19797">
        <ele>2420.6000976562</ele>
        <time>2014-03-02T12:19:00.000Z</time>
      </trkpt>
      <trkpt lat="45.34661" lon="6.19797">
        <ele>2420.8000488281</ele>
        <time>2014-03-02T12:19:01.000Z</time>
      </trkpt>
      <trkpt lat="45.34662" lon="6.19796">
        <ele>2421.1999511719</ele>
        <time>2014-03-02T12:19:02.000Z</time>
      </trkpt>
      <trkpt lat="45.34662" lon="6.19796">
        <ele>2421.1999511719</ele>
        <time>2014-03-02T12:19:03.000Z</time>
      </trkpt>
      <trkpt lat="45.34662" lon="6.19796">
        <ele>2421.3999023438</ele>
        <time>2014-03-02T12:19:04.000Z</time>
      </trkpt>
      <trkpt lat="45.34662" lon="6.19796">
        <ele>2421.3999023438</ele>
        <time>2014-03-02T12:19:05.000Z</time>
      </trkpt>
      <trkpt lat="45.34662" lon="6.19796">
        <ele>2421.3999023438</ele>
        <time>2014-03-02T12:19:06.000Z</time>
      </trkpt>
      <trkpt lat="45.34663" lon="6.19796">
        <ele>2421.8000488281</ele>
        <time>2014-03-02T12:19:07.000Z</time>
      </trkpt>
      <trkpt lat="45.34663" lon="6.19796">
        <ele>2421.8000488281</ele>
        <time>2014-03-02T12:19:08.000Z</time>
      </trkpt>
      <trkpt lat="45.34664" lon="6.19796">
        <ele>2421.8000488281</ele>
        <time>2014-03-02T12:19:09.000Z</time>
      </trkpt>
      <trkpt lat="45.34664" lon="6.19796">
        <ele>2421.8000488281</ele>
        <time>2014-03-02T12:19:10.000Z</time>
      </trkpt>
      <trkpt lat="45.34664" lon="6.19796">
        <ele>2421.8000488281</ele>
        <time>2014-03-02T12:19:11.000Z</time>
      </trkpt>
      <trkpt lat="45.34664" lon="6.19796">
        <ele>2421.8000488281</ele>
        <time>2014-03-02T12:19:12.000Z</time>
      </trkpt>
      <trkpt lat="45.34664" lon="6.19796">
        <ele>2421.8000488281</ele>
        <time>2014-03-02T12:19:13.000Z</time>
      </trkpt>
      <trkpt lat="45.34664" lon="6.19796">
        <ele>2422</ele>
        <time>2014-03-02T12:19:14.000Z</time>
      </trkpt>
      <trkpt lat="45.34664" lon="6.19796">
        <ele>2422</ele>
        <time>2014-03-02T12:19:15.000Z</time>
      </trkpt>
      <trkpt lat="45.34665" lon="6.19796">
        <ele>2422.1999511719</ele>
        <time>2014-03-02T12:19:16.000Z</time>
      </trkpt>
      <trkpt lat="45.34665" lon="6.19796">
        <ele>2422.3999023438</ele>
        <time>2014-03-02T12:19:17.000Z</time>
      </trkpt>
      <trkpt lat="45.34666" lon="6.19796">
        <ele>2422.6000976562</ele>
        <time>2014-03-02T12:19:18.000Z</time>
      </trkpt>
      <trkpt lat="45.34667" lon="6.19796">
        <ele>2422.8000488281</ele>
        <time>2014-03-02T12:19:19.000Z</time>
      </trkpt>
      <trkpt lat="45.34667" lon="6.19796">
        <ele>2422.8000488281</ele>
        <time>2014-03-02T12:19:20.000Z</time>
      </trkpt>
      <trkpt lat="45.34667" lon="6.19796">
        <ele>2422.8000488281</ele>
        <time>2014-03-02T12:19:21.000Z</time>
      </trkpt>
      <trkpt lat="45.34667" lon="6.19796">
        <ele>2423.1999511719</ele>
        <time>2014-03-02T12:19:22.000Z</time>
      </trkpt>
      <trkpt lat="45.34668" lon="6.19796">
        <ele>2423.3999023438</ele>
        <time>2014-03-02T12:19:23.000Z</time>
      </trkpt>
      <trkpt lat="45.34668" lon="6.19796">
        <ele>2423.3999023438</ele>
        <time>2014-03-02T12:19:24.000Z</time>
      </trkpt>
      <trkpt lat="45.34667" lon="6.19796">
        <ele>2422.8000488281</ele>
        <time>2014-03-02T12:19:25.000Z</time>
      </trkpt>
      <trkpt lat="45.34667" lon="6.19796">
        <ele>2422.8000488281</ele>
        <time>2014-03-02T12:19:26.000Z</time>
      </trkpt>
      <trkpt lat="45.34667" lon="6.19796">
        <ele>2422.8000488281</ele>
        <time>2014-03-02T12:19:27.000Z</time>
      </trkpt>
      <trkpt lat="45.34667" lon="6.19796">
        <ele>2422.8000488281</ele>
        <time>2014-03-02T12:19:28.000Z</time>
      </trkpt>
      <trkpt lat="45.34667" lon="6.19796">
        <ele>2422.8000488281</ele>
        <time>2014-03-02T12:19:29.000Z</time>
      </trkpt>
      <trkpt lat="45.34667" lon="6.19796">
        <ele>2422.8000488281</ele>
        <time>2014-03-02T12:19:31.000Z</time>
      </trkpt>
      <trkpt lat="45.34667" lon="6.19796">
        <ele>2422.8000488281</ele>
        <time>2014-03-02T12:19:32.000Z</time>
      </trkpt>
      <trkpt lat="45.34667" lon="6.19797">
        <ele>2422.8000488281</ele>
        <time>2014-03-02T12:19:33.000Z</time>
      </trkpt>
      <trkpt lat="45.34667" lon="6.19797">
        <ele>2422.8000488281</ele>
        <time>2014-03-02T12:19:34.000Z</time>
      </trkpt>
      <trkpt lat="45.34668" lon="6.19797">
        <ele>2422.8000488281</ele>
        <time>2014-03-02T12:19:35.000Z</time>
      </trkpt>
      <trkpt lat="45.34668" lon="6.19797">
        <ele>2422.8000488281</ele>
        <time>2014-03-02T12:19:36.000Z</time>
      </trkpt>
      <trkpt lat="45.34668" lon="6.19798">
        <ele>2422.8000488281</ele>
        <time>2014-03-02T12:19:37.000Z</time>
      </trkpt>
      <trkpt lat="45.34669" lon="6.19798">
        <ele>2422.8000488281</ele>
        <time>2014-03-02T12:19:38.000Z</time>
      </trkpt>
      <trkpt lat="45.3467" lon="6.19798">
        <ele>2423</ele>
        <time>2014-03-02T12:19:39.000Z</time>
      </trkpt>
      <trkpt lat="45.34671" lon="6.19799">
        <ele>2423.1999511719</ele>
        <time>2014-03-02T12:19:40.000Z</time>
      </trkpt>
      <trkpt lat="45.34672" lon="6.198">
        <ele>2423.1999511719</ele>
        <time>2014-03-02T12:19:41.000Z</time>
      </trkpt>
      <trkpt lat="45.34673" lon="6.19801">
        <ele>2423.1999511719</ele>
        <time>2014-03-02T12:19:42.000Z</time>
      </trkpt>
      <trkpt lat="45.34674" lon="6.19801">
        <ele>2423.6000976562</ele>
        <time>2014-03-02T12:19:43.000Z</time>
      </trkpt>
      <trkpt lat="45.34675" lon="6.19801">
        <ele>2424</ele>
        <time>2014-03-02T12:19:44.000Z</time>
      </trkpt>
      <trkpt lat="45.34675" lon="6.19801">
        <ele>2424</ele>
        <time>2014-03-02T12:19:45.000Z</time>
      </trkpt>
      <trkpt lat="45.34675" lon="6.19801">
        <ele>2424</ele>
        <time>2014-03-02T12:19:46.000Z</time>
      </trkpt>
      <trkpt lat="45.34675" lon="6.19801">
        <ele>2424</ele>
        <time>2014-03-02T12:19:47.000Z</time>
      </trkpt>
      <trkpt lat="45.34675" lon="6.19801">
        <ele>2424</ele>
        <time>2014-03-02T12:19:48.000Z</time>
      </trkpt>
      <trkpt lat="45.34675" lon="6.19802">
        <ele>2423.3999023438</ele>
        <time>2014-03-02T12:19:49.000Z</time>
      </trkpt>
      <trkpt lat="45.34674" lon="6.19803">
        <ele>2423</ele>
        <time>2014-03-02T12:19:50.000Z</time>
      </trkpt>
      <trkpt lat="45.34673" lon="6.19804">
        <ele>2422</ele>
        <time>2014-03-02T12:19:52.000Z</time>
      </trkpt>
      <trkpt lat="45.34672" lon="6.19805">
        <ele>2421.3999023438</ele>
        <time>2014-03-02T12:19:53.000Z</time>
      </trkpt>
      <trkpt lat="45.34671" lon="6.19806">
        <ele>2420.6000976562</ele>
        <time>2014-03-02T12:19:56.000Z</time>
      </trkpt>
      <trkpt lat="45.34671" lon="6.19807">
        <ele>2420.3999023438</ele>
        <time>2014-03-02T12:19:58.000Z</time>
      </trkpt>
      <trkpt lat="45.34672" lon="6.19807">
        <ele>2420.3999023438</ele>
        <time>2014-03-02T12:19:59.000Z</time>
      </trkpt>
      <trkpt lat="45.34673" lon="6.19809">
        <ele>2420.3999023438</ele>
        <time>2014-03-02T12:20:02.000Z</time>
      </trkpt>
      <trkpt lat="45.34674" lon="6.19809">
        <ele>2420.6000976562</ele>
        <time>2014-03-02T12:20:03.000Z</time>
      </trkpt>
      <trkpt lat="45.34675" lon="6.19809">
        <ele>2420.6000976562</ele>
        <time>2014-03-02T12:20:04.000Z</time>
      </trkpt>
      <trkpt lat="45.34675" lon="6.1981">
        <ele>2420.6000976562</ele>
        <time>2014-03-02T12:20:05.000Z</time>
      </trkpt>
      <trkpt lat="45.34675" lon="6.1981">
        <ele>2420.6000976562</ele>
        <time>2014-03-02T12:20:06.000Z</time>
      </trkpt>
      <trkpt lat="45.34676" lon="6.19811">
        <ele>2420.6000976562</ele>
        <time>2014-03-02T12:20:07.000Z</time>
      </trkpt>
      <trkpt lat="45.34677" lon="6.19811">
        <ele>2420.6000976562</ele>
        <time>2014-03-02T12:20:08.000Z</time>
      </trkpt>
      <trkpt lat="45.34677" lon="6.19811">
        <ele>2420.8000488281</ele>
        <time>2014-03-02T12:20:09.000Z</time>
      </trkpt>
      <trkpt lat="45.34678" lon="6.19812">
        <ele>2420.8000488281</ele>
        <time>2014-03-02T12:20:10.000Z</time>
      </trkpt>
      <trkpt lat="45.34678" lon="6.19812">
        <ele>2420.8000488281</ele>
        <time>2014-03-02T12:20:11.000Z</time>
      </trkpt>
      <trkpt lat="45.34679" lon="6.19813">
        <ele>2420.6000976562</ele>
        <time>2014-03-02T12:20:12.000Z</time>
      </trkpt>
      <trkpt lat="45.34679" lon="6.19814">
        <ele>2420.3999023438</ele>
        <time>2014-03-02T12:20:13.000Z</time>
      </trkpt>
      <trkpt lat="45.34679" lon="6.19814">
        <ele>2420.3999023438</ele>
        <time>2014-03-02T12:20:14.000Z</time>
      </trkpt>
      <trkpt lat="45.34679" lon="6.19815">
        <ele>2420.1999511719</ele>
        <time>2014-03-02T12:20:15.000Z</time>
      </trkpt>
      <trkpt lat="45.34679" lon="6.19815">
        <ele>2420.1999511719</ele>
        <time>2014-03-02T12:20:16.000Z</time>
      </trkpt>
      <trkpt lat="45.34679" lon="6.19815">
        <ele>2420</ele>
        <time>2014-03-02T12:20:17.000Z</time>
      </trkpt>
      <trkpt lat="45.34679" lon="6.19816">
        <ele>2419.8000488281</ele>
        <time>2014-03-02T12:20:18.000Z</time>
      </trkpt>
      <trkpt lat="45.34678" lon="6.19816">
        <ele>2419.6000976562</ele>
        <time>2014-03-02T12:20:19.000Z</time>
      </trkpt>
      <trkpt lat="45.34678" lon="6.19816">
        <ele>2419.3999023438</ele>
        <time>2014-03-02T12:20:20.000Z</time>
      </trkpt>
      <trkpt lat="45.34678" lon="6.19819">
        <ele>2418.3999023438</ele>
        <time>2014-03-02T12:20:29.000Z</time>
      </trkpt>
      <trkpt lat="45.34678" lon="6.1982">
        <ele>2418.3999023438</ele>
        <time>2014-03-02T12:20:30.000Z</time>
      </trkpt>
      <trkpt lat="45.34679" lon="6.1982">
        <ele>2418.6000976562</ele>
        <time>2014-03-02T12:20:32.000Z</time>
      </trkpt>
      <trkpt lat="45.3468" lon="6.1982">
        <ele>2418.6000976562</ele>
        <time>2014-03-02T12:20:33.000Z</time>
      </trkpt>
      <trkpt lat="45.3468" lon="6.1982">
        <ele>2418.8000488281</ele>
        <time>2014-03-02T12:20:34.000Z</time>
      </trkpt>
      <trkpt lat="45.3468" lon="6.1982">
        <ele>2419</ele>
        <time>2014-03-02T12:20:35.000Z</time>
      </trkpt>
      <trkpt lat="45.3468" lon="6.19819">
        <ele>2419.1999511719</ele>
        <time>2014-03-02T12:20:36.000Z</time>
      </trkpt>
      <trkpt lat="45.3468" lon="6.19819">
        <ele>2419.1999511719</ele>
        <time>2014-03-02T12:20:37.000Z</time>
      </trkpt>
      <trkpt lat="45.34681" lon="6.19819">
        <ele>2419.1999511719</ele>
        <time>2014-03-02T12:20:38.000Z</time>
      </trkpt>
      <trkpt lat="45.34681" lon="6.1982">
        <ele>2419.1999511719</ele>
        <time>2014-03-02T12:20:39.000Z</time>
      </trkpt>
      <trkpt lat="45.34681" lon="6.1982">
        <ele>2419.3999023438</ele>
        <time>2014-03-02T12:20:40.000Z</time>
      </trkpt>
      <trkpt lat="45.34681" lon="6.1982">
        <ele>2419.3999023438</ele>
        <time>2014-03-02T12:20:41.000Z</time>
      </trkpt>
      <trkpt lat="45.34681" lon="6.1982">
        <ele>2419.3999023438</ele>
        <time>2014-03-02T12:20:42.000Z</time>
      </trkpt>
      <trkpt lat="45.34682" lon="6.1982">
        <ele>2419.6000976562</ele>
        <time>2014-03-02T12:20:43.000Z</time>
      </trkpt>
      <trkpt lat="45.34682" lon="6.19819">
        <ele>2419.8000488281</ele>
        <time>2014-03-02T12:20:44.000Z</time>
      </trkpt>
      <trkpt lat="45.34682" lon="6.1982">
        <ele>2419.6000976562</ele>
        <time>2014-03-02T12:20:45.000Z</time>
      </trkpt>
      <trkpt lat="45.34682" lon="6.1982">
        <ele>2419.6000976562</ele>
        <time>2014-03-02T12:20:46.000Z</time>
      </trkpt>
      <trkpt lat="45.34682" lon="6.19821">
        <ele>2419.3999023438</ele>
        <time>2014-03-02T12:20:47.000Z</time>
      </trkpt>
      <trkpt lat="45.34682" lon="6.19821">
        <ele>2419.1999511719</ele>
        <time>2014-03-02T12:20:48.000Z</time>
      </trkpt>
      <trkpt lat="45.34683" lon="6.19822">
        <ele>2419</ele>
        <time>2014-03-02T12:20:49.000Z</time>
      </trkpt>
      <trkpt lat="45.34684" lon="6.19823">
        <ele>2419.3999023438</ele>
        <time>2014-03-02T12:20:53.000Z</time>
      </trkpt>
      <trkpt lat="45.34685" lon="6.19823">
        <ele>2419.6000976562</ele>
        <time>2014-03-02T12:20:54.000Z</time>
      </trkpt>
      <trkpt lat="45.34686" lon="6.19824">
        <ele>2419.6000976562</ele>
        <time>2014-03-02T12:20:55.000Z</time>
      </trkpt>
      <trkpt lat="45.34686" lon="6.19824">
        <ele>2419.6000976562</ele>
        <time>2014-03-02T12:20:56.000Z</time>
      </trkpt>
      <trkpt lat="45.34687" lon="6.19825">
        <ele>2419.6000976562</ele>
        <time>2014-03-02T12:20:57.000Z</time>
      </trkpt>
      <trkpt lat="45.34688" lon="6.19825">
        <ele>2419.8000488281</ele>
        <time>2014-03-02T12:20:58.000Z</time>
      </trkpt>
      <trkpt lat="45.34688" lon="6.19825">
        <ele>2419.8000488281</ele>
        <time>2014-03-02T12:20:59.000Z</time>
      </trkpt>
      <trkpt lat="45.34688" lon="6.19826">
        <ele>2419.6000976562</ele>
        <time>2014-03-02T12:21:00.000Z</time>
      </trkpt>
      <trkpt lat="45.34692" lon="6.1982">
        <ele>2423</ele>
        <time>2014-03-02T12:21:01.000Z</time>
      </trkpt>
      <trkpt lat="45.34695" lon="6.19814">
        <ele>2425.8000488281</ele>
        <time>2014-03-02T12:21:02.000Z</time>
      </trkpt>
      <trkpt lat="45.34695" lon="6.19814">
        <ele>2425.8000488281</ele>
        <time>2014-03-02T12:21:03.000Z</time>
      </trkpt>
      <trkpt lat="45.34696" lon="6.19812">
        <ele>2426.6000976562</ele>
        <time>2014-03-02T12:21:04.000Z</time>
      </trkpt>
      <trkpt lat="45.34697" lon="6.19811">
        <ele>2427.1999511719</ele>
        <time>2014-03-02T12:21:05.000Z</time>
      </trkpt>
      <trkpt lat="45.34697" lon="6.19811">
        <ele>2427.1999511719</ele>
        <time>2014-03-02T12:21:06.000Z</time>
      </trkpt>
      <trkpt lat="45.34697" lon="6.19811">
        <ele>2427.1999511719</ele>
        <time>2014-03-02T12:21:07.000Z</time>
      </trkpt>
      <trkpt lat="45.34697" lon="6.19812">
        <ele>2427.1999511719</ele>
        <time>2014-03-02T12:21:12.000Z</time>
      </trkpt>
      <trkpt lat="45.34697" lon="6.19812">
        <ele>2427.1999511719</ele>
        <time>2014-03-02T12:21:13.000Z</time>
      </trkpt>
      <trkpt lat="45.34698" lon="6.19812">
        <ele>2427.3999023438</ele>
        <time>2014-03-02T12:21:14.000Z</time>
      </trkpt>
      <trkpt lat="45.34699" lon="6.19812">
        <ele>2427.6000976562</ele>
        <time>2014-03-02T12:21:15.000Z</time>
      </trkpt>
      <trkpt lat="45.34699" lon="6.19812">
        <ele>2427.8000488281</ele>
        <time>2014-03-02T12:21:16.000Z</time>
      </trkpt>
      <trkpt lat="45.347" lon="6.19812">
        <ele>2428</ele>
        <time>2014-03-02T12:21:17.000Z</time>
      </trkpt>
      <trkpt lat="45.34701" lon="6.19812">
        <ele>2428.1999511719</ele>
        <time>2014-03-02T12:21:18.000Z</time>
      </trkpt>
      <trkpt lat="45.34701" lon="6.19812">
        <ele>2428.3999023438</ele>
        <time>2014-03-02T12:21:19.000Z</time>
      </trkpt>
      <trkpt lat="45.34702" lon="6.19812">
        <ele>2428.6000976562</ele>
        <time>2014-03-02T12:21:20.000Z</time>
      </trkpt>
      <trkpt lat="45.34702" lon="6.19811">
        <ele>2429</ele>
        <time>2014-03-02T12:21:21.000Z</time>
      </trkpt>
      <trkpt lat="45.34703" lon="6.19811">
        <ele>2429.3999023438</ele>
        <time>2014-03-02T12:21:22.000Z</time>
      </trkpt>
      <trkpt lat="45.34703" lon="6.19811">
        <ele>2429.3999023438</ele>
        <time>2014-03-02T12:21:23.000Z</time>
      </trkpt>
      <trkpt lat="45.34703" lon="6.19811">
        <ele>2429.3999023438</ele>
        <time>2014-03-02T12:21:24.000Z</time>
      </trkpt>
      <trkpt lat="45.34703" lon="6.19811">
        <ele>2429.3999023438</ele>
        <time>2014-03-02T12:21:25.000Z</time>
      </trkpt>
      <trkpt lat="45.34703" lon="6.19811">
        <ele>2429.3999023438</ele>
        <time>2014-03-02T12:21:26.000Z</time>
      </trkpt>
      <trkpt lat="45.34703" lon="6.19811">
        <ele>2429.3999023438</ele>
        <time>2014-03-02T12:21:27.000Z</time>
      </trkpt>
      <trkpt lat="45.34703" lon="6.19811">
        <ele>2429.3999023438</ele>
        <time>2014-03-02T12:21:28.000Z</time>
      </trkpt>
      <trkpt lat="45.34703" lon="6.19811">
        <ele>2429.3999023438</ele>
        <time>2014-03-02T12:21:29.000Z</time>
      </trkpt>
      <trkpt lat="45.34703" lon="6.19811">
        <ele>2429.3999023438</ele>
        <time>2014-03-02T12:21:30.000Z</time>
      </trkpt>
      <trkpt lat="45.34703" lon="6.19811">
        <ele>2429.3999023438</ele>
        <time>2014-03-02T12:21:31.000Z</time>
      </trkpt>
      <trkpt lat="45.34703" lon="6.19811">
        <ele>2429.3999023438</ele>
        <time>2014-03-02T12:21:32.000Z</time>
      </trkpt>
      <trkpt lat="45.34703" lon="6.19811">
        <ele>2429.3999023438</ele>
        <time>2014-03-02T12:21:33.000Z</time>
      </trkpt>
      <trkpt lat="45.34703" lon="6.19811">
        <ele>2429.3999023438</ele>
        <time>2014-03-02T12:21:34.000Z</time>
      </trkpt>
      <trkpt lat="45.34703" lon="6.19811">
        <ele>2429.3999023438</ele>
        <time>2014-03-02T12:21:35.000Z</time>
      </trkpt>
      <trkpt lat="45.34703" lon="6.19811">
        <ele>2429.3999023438</ele>
        <time>2014-03-02T12:21:36.000Z</time>
      </trkpt>
      <trkpt lat="45.34703" lon="6.19811">
        <ele>2429.3999023438</ele>
        <time>2014-03-02T12:21:37.000Z</time>
      </trkpt>
      <trkpt lat="45.34703" lon="6.19811">
        <ele>2429.3999023438</ele>
        <time>2014-03-02T12:21:38.000Z</time>
      </trkpt>
      <trkpt lat="45.34703" lon="6.19811">
        <ele>2429.3999023438</ele>
        <time>2014-03-02T12:21:39.000Z</time>
      </trkpt>
      <trkpt lat="45.34703" lon="6.19811">
        <ele>2429.3999023438</ele>
        <time>2014-03-02T12:21:40.000Z</time>
      </trkpt>
      <trkpt lat="45.34703" lon="6.19811">
        <ele>2429.3999023438</ele>
        <time>2014-03-02T12:21:41.000Z</time>
      </trkpt>
      <trkpt lat="45.34703" lon="6.19811">
        <ele>2429.3999023438</ele>
        <time>2014-03-02T12:21:42.000Z</time>
      </trkpt>
      <trkpt lat="45.34703" lon="6.19811">
        <ele>2429.3999023438</ele>
        <time>2014-03-02T12:21:43.000Z</time>
      </trkpt>
      <trkpt lat="45.34703" lon="6.19811">
        <ele>2429.3999023438</ele>
        <time>2014-03-02T12:21:47.000Z</time>
      </trkpt>
      <trkpt lat="45.34703" lon="6.19811">
        <ele>2429.3999023438</ele>
        <time>2014-03-02T12:21:48.000Z</time>
      </trkpt>
      <trkpt lat="45.34703" lon="6.19811">
        <ele>2429.3999023438</ele>
        <time>2014-03-02T12:21:49.000Z</time>
      </trkpt>
      <trkpt lat="45.347" lon="6.19807">
        <ele>2429.8000488281</ele>
        <time>2014-03-02T12:21:50.000Z</time>
      </trkpt>
      <trkpt lat="45.347" lon="6.19807">
        <ele>2429.8000488281</ele>
        <time>2014-03-02T12:21:51.000Z</time>
      </trkpt>
      <trkpt lat="45.34699" lon="6.19804">
        <ele>2430.6000976562</ele>
        <time>2014-03-02T12:21:52.000Z</time>
      </trkpt>
      <trkpt lat="45.34699" lon="6.19802">
        <ele>2431.3999023438</ele>
        <time>2014-03-02T12:21:53.000Z</time>
      </trkpt>
      <trkpt lat="45.347" lon="6.198">
        <ele>2432.6000976562</ele>
        <time>2014-03-02T12:21:54.000Z</time>
      </trkpt>
      <trkpt lat="45.347" lon="6.19797">
        <ele>2433.6000976562</ele>
        <time>2014-03-02T12:21:55.000Z</time>
      </trkpt>
      <trkpt lat="45.34699" lon="6.19796">
        <ele>2434.1999511719</ele>
        <time>2014-03-02T12:21:56.000Z</time>
      </trkpt>
      <trkpt lat="45.347" lon="6.19795">
        <ele>2434.6000976562</ele>
        <time>2014-03-02T12:21:57.000Z</time>
      </trkpt>
      <trkpt lat="45.34699" lon="6.19794">
        <ele>2435</ele>
        <time>2014-03-02T12:21:58.000Z</time>
      </trkpt>
      <trkpt lat="45.34699" lon="6.19794">
        <ele>2435</ele>
        <time>2014-03-02T12:21:59.000Z</time>
      </trkpt>
      <trkpt lat="45.34699" lon="6.19793">
        <ele>2435.1999511719</ele>
        <time>2014-03-02T12:22:00.000Z</time>
      </trkpt>
      <trkpt lat="45.34699" lon="6.19792">
        <ele>2435.8000488281</ele>
        <time>2014-03-02T12:22:01.000Z</time>
      </trkpt>
      <trkpt lat="45.34699" lon="6.19791">
        <ele>2436.3999023438</ele>
        <time>2014-03-02T12:22:02.000Z</time>
      </trkpt>
      <trkpt lat="45.34699" lon="6.19789">
        <ele>2437</ele>
        <time>2014-03-02T12:22:03.000Z</time>
      </trkpt>
      <trkpt lat="45.34699" lon="6.19788">
        <ele>2437.3999023438</ele>
        <time>2014-03-02T12:22:04.000Z</time>
      </trkpt>
      <trkpt lat="45.34699" lon="6.19788">
        <ele>2437.3999023438</ele>
        <time>2014-03-02T12:22:05.000Z</time>
      </trkpt>
      <trkpt lat="45.34699" lon="6.19788">
        <ele>2437.3999023438</ele>
        <time>2014-03-02T12:22:06.000Z</time>
      </trkpt>
      <trkpt lat="45.34699" lon="6.19788">
        <ele>2437.6000976562</ele>
        <time>2014-03-02T12:22:07.000Z</time>
      </trkpt>
      <trkpt lat="45.34698" lon="6.19787">
        <ele>2437.8000488281</ele>
        <time>2014-03-02T12:22:08.000Z</time>
      </trkpt>
      <trkpt lat="45.34698" lon="6.19787">
        <ele>2437.8000488281</ele>
        <time>2014-03-02T12:22:09.000Z</time>
      </trkpt>
      <trkpt lat="45.34698" lon="6.19787">
        <ele>2437.8000488281</ele>
        <time>2014-03-02T12:22:10.000Z</time>
      </trkpt>
      <trkpt lat="45.34698" lon="6.19787">
        <ele>2437.8000488281</ele>
        <time>2014-03-02T12:22:11.000Z</time>
      </trkpt>
      <trkpt lat="45.34698" lon="6.19786">
        <ele>2438.1999511719</ele>
        <time>2014-03-02T12:22:12.000Z</time>
      </trkpt>
      <trkpt lat="45.34698" lon="6.19785">
        <ele>2438.8000488281</ele>
        <time>2014-03-02T12:22:13.000Z</time>
      </trkpt>
      <trkpt lat="45.34698" lon="6.19784">
        <ele>2439.1999511719</ele>
        <time>2014-03-02T12:22:14.000Z</time>
      </trkpt>
      <trkpt lat="45.34698" lon="6.19783">
        <ele>2439.6000976562</ele>
        <time>2014-03-02T12:22:15.000Z</time>
      </trkpt>
      <trkpt lat="45.34698" lon="6.19783">
        <ele>2440</ele>
        <time>2014-03-02T12:22:16.000Z</time>
      </trkpt>
      <trkpt lat="45.34698" lon="6.19782">
        <ele>2440.1999511719</ele>
        <time>2014-03-02T12:22:17.000Z</time>
      </trkpt>
      <trkpt lat="45.34699" lon="6.19782">
        <ele>2440.3999023438</ele>
        <time>2014-03-02T12:22:18.000Z</time>
      </trkpt>
      <trkpt lat="45.34699" lon="6.19782">
        <ele>2440.6000976562</ele>
        <time>2014-03-02T12:22:19.000Z</time>
      </trkpt>
      <trkpt lat="45.34699" lon="6.19782">
        <ele>2440.6000976562</ele>
        <time>2014-03-02T12:22:20.000Z</time>
      </trkpt>
      <trkpt lat="45.34699" lon="6.19782">
        <ele>2440.6000976562</ele>
        <time>2014-03-02T12:22:21.000Z</time>
      </trkpt>
      <trkpt lat="45.34699" lon="6.19782">
        <ele>2440.6000976562</ele>
        <time>2014-03-02T12:22:22.000Z</time>
      </trkpt>
      <trkpt lat="45.34699" lon="6.19782">
        <ele>2440.6000976562</ele>
        <time>2014-03-02T12:22:23.000Z</time>
      </trkpt>
      <trkpt lat="45.34699" lon="6.19782">
        <ele>2440.6000976562</ele>
        <time>2014-03-02T12:22:24.000Z</time>
      </trkpt>
      <trkpt lat="45.34699" lon="6.19782">
        <ele>2440.6000976562</ele>
        <time>2014-03-02T12:22:25.000Z</time>
      </trkpt>
      <trkpt lat="45.34699" lon="6.19782">
        <ele>2440.6000976562</ele>
        <time>2014-03-02T12:22:27.000Z</time>
      </trkpt>
      <trkpt lat="45.34699" lon="6.19782">
        <ele>2440.6000976562</ele>
        <time>2014-03-02T12:22:28.000Z</time>
      </trkpt>
      <trkpt lat="45.34699" lon="6.19782">
        <ele>2440.6000976562</ele>
        <time>2014-03-02T12:22:29.000Z</time>
      </trkpt>
      <trkpt lat="45.34699" lon="6.19782">
        <ele>2440.6000976562</ele>
        <time>2014-03-02T12:22:30.000Z</time>
      </trkpt>
      <trkpt lat="45.34699" lon="6.19782">
        <ele>2440.6000976562</ele>
        <time>2014-03-02T12:22:31.000Z</time>
      </trkpt>
      <trkpt lat="45.34699" lon="6.19782">
        <ele>2440.6000976562</ele>
        <time>2014-03-02T12:22:32.000Z</time>
      </trkpt>
      <trkpt lat="45.34699" lon="6.19782">
        <ele>2440.6000976562</ele>
        <time>2014-03-02T12:22:33.000Z</time>
      </trkpt>
      <trkpt lat="45.34699" lon="6.19782">
        <ele>2440.6000976562</ele>
        <time>2014-03-02T12:22:34.000Z</time>
      </trkpt>
      <trkpt lat="45.34699" lon="6.19782">
        <ele>2440.6000976562</ele>
        <time>2014-03-02T12:22:35.000Z</time>
      </trkpt>
      <trkpt lat="45.34699" lon="6.19782">
        <ele>2440.6000976562</ele>
        <time>2014-03-02T12:22:36.000Z</time>
      </trkpt>
      <trkpt lat="45.34699" lon="6.19782">
        <ele>2440.6000976562</ele>
        <time>2014-03-02T12:22:37.000Z</time>
      </trkpt>
      <trkpt lat="45.34699" lon="6.19782">
        <ele>2440.6000976562</ele>
        <time>2014-03-02T12:22:38.000Z</time>
      </trkpt>
      <trkpt lat="45.34698" lon="6.19781">
        <ele>2440.8000488281</ele>
        <time>2014-03-02T12:22:39.000Z</time>
      </trkpt>
      <trkpt lat="45.34698" lon="6.19781">
        <ele>2440.8000488281</ele>
        <time>2014-03-02T12:22:40.000Z</time>
      </trkpt>
      <trkpt lat="45.34698" lon="6.19781">
        <ele>2440.8000488281</ele>
        <time>2014-03-02T12:22:41.000Z</time>
      </trkpt>
      <trkpt lat="45.34698" lon="6.19781">
        <ele>2440.8000488281</ele>
        <time>2014-03-02T12:22:42.000Z</time>
      </trkpt>
      <trkpt lat="45.34698" lon="6.19781">
        <ele>2440.8000488281</ele>
        <time>2014-03-02T12:22:43.000Z</time>
      </trkpt>
      <trkpt lat="45.34698" lon="6.19781">
        <ele>2440.6000976562</ele>
        <time>2014-03-02T12:22:44.000Z</time>
      </trkpt>
      <trkpt lat="45.34698" lon="6.19781">
        <ele>2440.6000976562</ele>
        <time>2014-03-02T12:22:45.000Z</time>
      </trkpt>
      <trkpt lat="45.34698" lon="6.19781">
        <ele>2440.6000976562</ele>
        <time>2014-03-02T12:22:46.000Z</time>
      </trkpt>
      <trkpt lat="45.34698" lon="6.19781">
        <ele>2440.6000976562</ele>
        <time>2014-03-02T12:22:47.000Z</time>
      </trkpt>
      <trkpt lat="45.34698" lon="6.19781">
        <ele>2440.6000976562</ele>
        <time>2014-03-02T12:22:48.000Z</time>
      </trkpt>
      <trkpt lat="45.34698" lon="6.19781">
        <ele>2440.6000976562</ele>
        <time>2014-03-02T12:22:49.000Z</time>
      </trkpt>
      <trkpt lat="45.34699" lon="6.19782">
        <ele>2440.8000488281</ele>
        <time>2014-03-02T12:22:50.000Z</time>
      </trkpt>
      <trkpt lat="45.34699" lon="6.19782">
        <ele>2441</ele>
        <time>2014-03-02T12:22:51.000Z</time>
      </trkpt>
      <trkpt lat="45.347" lon="6.19782">
        <ele>2441.1999511719</ele>
        <time>2014-03-02T12:22:52.000Z</time>
      </trkpt>
      <trkpt lat="45.34701" lon="6.19782">
        <ele>2441.6000976562</ele>
        <time>2014-03-02T12:22:53.000Z</time>
      </trkpt>
      <trkpt lat="45.34701" lon="6.19782">
        <ele>2441.8000488281</ele>
        <time>2014-03-02T12:22:54.000Z</time>
      </trkpt>
      <trkpt lat="45.34702" lon="6.19782">
        <ele>2442.1999511719</ele>
        <time>2014-03-02T12:22:55.000Z</time>
      </trkpt>
      <trkpt lat="45.34703" lon="6.19782">
        <ele>2442.6000976562</ele>
        <time>2014-03-02T12:22:56.000Z</time>
      </trkpt>
      <trkpt lat="45.34703" lon="6.19782">
        <ele>2442.8000488281</ele>
        <time>2014-03-02T12:22:57.000Z</time>
      </trkpt>
      <trkpt lat="45.34704" lon="6.19782">
        <ele>2443.1999511719</ele>
        <time>2014-03-02T12:22:58.000Z</time>
      </trkpt>
      <trkpt lat="45.34705" lon="6.19782">
        <ele>2443.3999023438</ele>
        <time>2014-03-02T12:22:59.000Z</time>
      </trkpt>
      <trkpt lat="45.34705" lon="6.19781">
        <ele>2443.8000488281</ele>
        <time>2014-03-02T12:23:00.000Z</time>
      </trkpt>
      <trkpt lat="45.34706" lon="6.19781">
        <ele>2444.1999511719</ele>
        <time>2014-03-02T12:23:01.000Z</time>
      </trkpt>
      <trkpt lat="45.34706" lon="6.19781">
        <ele>2444.3999023438</ele>
        <time>2014-03-02T12:23:02.000Z</time>
      </trkpt>
      <trkpt lat="45.34707" lon="6.19781">
        <ele>2444.6000976562</ele>
        <time>2014-03-02T12:23:03.000Z</time>
      </trkpt>
      <trkpt lat="45.34707" lon="6.19781">
        <ele>2444.8000488281</ele>
        <time>2014-03-02T12:23:04.000Z</time>
      </trkpt>
      <trkpt lat="45.34708" lon="6.19781">
        <ele>2445</ele>
        <time>2014-03-02T12:23:05.000Z</time>
      </trkpt>
      <trkpt lat="45.34708" lon="6.19781">
        <ele>2445.3999023438</ele>
        <time>2014-03-02T12:23:06.000Z</time>
      </trkpt>
      <trkpt lat="45.34709" lon="6.19781">
        <ele>2445.6000976562</ele>
        <time>2014-03-02T12:23:07.000Z</time>
      </trkpt>
      <trkpt lat="45.34709" lon="6.19781">
        <ele>2445.6000976562</ele>
        <time>2014-03-02T12:23:08.000Z</time>
      </trkpt>
      <trkpt lat="45.34709" lon="6.1978">
        <ele>2446.1999511719</ele>
        <time>2014-03-02T12:23:09.000Z</time>
      </trkpt>
      <trkpt lat="45.34709" lon="6.1978">
        <ele>2446.1999511719</ele>
        <time>2014-03-02T12:23:10.000Z</time>
      </trkpt>
      <trkpt lat="45.3471" lon="6.1978">
        <ele>2446.8000488281</ele>
        <time>2014-03-02T12:23:11.000Z</time>
      </trkpt>
      <trkpt lat="45.3471" lon="6.19779">
        <ele>2447.3999023438</ele>
        <time>2014-03-02T12:23:12.000Z</time>
      </trkpt>
      <trkpt lat="45.34711" lon="6.19778">
        <ele>2447.8000488281</ele>
        <time>2014-03-02T12:23:13.000Z</time>
      </trkpt>
      <trkpt lat="45.34711" lon="6.19778">
        <ele>2448.1999511719</ele>
        <time>2014-03-02T12:23:14.000Z</time>
      </trkpt>
      <trkpt lat="45.34712" lon="6.19778">
        <ele>2448.6000976562</ele>
        <time>2014-03-02T12:23:15.000Z</time>
      </trkpt>
      <trkpt lat="45.34712" lon="6.19778">
        <ele>2448.8000488281</ele>
        <time>2014-03-02T12:23:16.000Z</time>
      </trkpt>
      <trkpt lat="45.34713" lon="6.19778">
        <ele>2448.8000488281</ele>
        <time>2014-03-02T12:23:17.000Z</time>
      </trkpt>
      <trkpt lat="45.34713" lon="6.19778">
        <ele>2449</ele>
        <time>2014-03-02T12:23:18.000Z</time>
      </trkpt>
      <trkpt lat="45.34713" lon="6.19778">
        <ele>2449.1999511719</ele>
        <time>2014-03-02T12:23:19.000Z</time>
      </trkpt>
      <trkpt lat="45.34713" lon="6.19779">
        <ele>2448.6000976562</ele>
        <time>2014-03-02T12:23:20.000Z</time>
      </trkpt>
      <trkpt lat="45.34713" lon="6.19779">
        <ele>2448.1999511719</ele>
        <time>2014-03-02T12:23:21.000Z</time>
      </trkpt>
      <trkpt lat="45.34713" lon="6.1978">
        <ele>2448</ele>
        <time>2014-03-02T12:23:22.000Z</time>
      </trkpt>
      <trkpt lat="45.34713" lon="6.1978">
        <ele>2448</ele>
        <time>2014-03-02T12:23:23.000Z</time>
      </trkpt>
      <trkpt lat="45.34714" lon="6.1978">
        <ele>2448.1999511719</ele>
        <time>2014-03-02T12:23:24.000Z</time>
      </trkpt>
      <trkpt lat="45.34714" lon="6.1978">
        <ele>2448.1999511719</ele>
        <time>2014-03-02T12:23:25.000Z</time>
      </trkpt>
      <trkpt lat="45.34714" lon="6.19781">
        <ele>2448.3999023438</ele>
        <time>2014-03-02T12:23:26.000Z</time>
      </trkpt>
      <trkpt lat="45.34715" lon="6.1978">
        <ele>2448.6000976562</ele>
        <time>2014-03-02T12:23:27.000Z</time>
      </trkpt>
      <trkpt lat="45.34715" lon="6.1978">
        <ele>2448.8000488281</ele>
        <time>2014-03-02T12:23:28.000Z</time>
      </trkpt>
      <trkpt lat="45.34716" lon="6.1978">
        <ele>2449</ele>
        <time>2014-03-02T12:23:29.000Z</time>
      </trkpt>
      <trkpt lat="45.34717" lon="6.1978">
        <ele>2449.3999023438</ele>
        <time>2014-03-02T12:23:30.000Z</time>
      </trkpt>
      <trkpt lat="45.34717" lon="6.1978">
        <ele>2449.3999023438</ele>
        <time>2014-03-02T12:23:31.000Z</time>
      </trkpt>
      <trkpt lat="45.34717" lon="6.1978">
        <ele>2449.6000976562</ele>
        <time>2014-03-02T12:23:32.000Z</time>
      </trkpt>
      <trkpt lat="45.34718" lon="6.1978">
        <ele>2449.8000488281</ele>
        <time>2014-03-02T12:23:33.000Z</time>
      </trkpt>
      <trkpt lat="45.34718" lon="6.1978">
        <ele>2450</ele>
        <time>2014-03-02T12:23:34.000Z</time>
      </trkpt>
      <trkpt lat="45.34718" lon="6.1978">
        <ele>2450.1999511719</ele>
        <time>2014-03-02T12:23:35.000Z</time>
      </trkpt>
      <trkpt lat="45.34719" lon="6.19779">
        <ele>2450.3999023438</ele>
        <time>2014-03-02T12:23:36.000Z</time>
      </trkpt>
      <trkpt lat="45.34719" lon="6.19779">
        <ele>2450.8000488281</ele>
        <time>2014-03-02T12:23:37.000Z</time>
      </trkpt>
      <trkpt lat="45.34718" lon="6.19778">
        <ele>2450.8000488281</ele>
        <time>2014-03-02T12:23:38.000Z</time>
      </trkpt>
      <trkpt lat="45.34718" lon="6.19778">
        <ele>2450.8000488281</ele>
        <time>2014-03-02T12:23:39.000Z</time>
      </trkpt>
      <trkpt lat="45.34718" lon="6.19778">
        <ele>2450.8000488281</ele>
        <time>2014-03-02T12:23:40.000Z</time>
      </trkpt>
      <trkpt lat="45.34718" lon="6.19778">
        <ele>2450.8000488281</ele>
        <time>2014-03-02T12:23:41.000Z</time>
      </trkpt>
      <trkpt lat="45.34718" lon="6.19778">
        <ele>2450.8000488281</ele>
        <time>2014-03-02T12:23:42.000Z</time>
      </trkpt>
      <trkpt lat="45.34718" lon="6.19778">
        <ele>2450.8000488281</ele>
        <time>2014-03-02T12:23:43.000Z</time>
      </trkpt>
      <trkpt lat="45.34718" lon="6.19778">
        <ele>2450.8000488281</ele>
        <time>2014-03-02T12:23:44.000Z</time>
      </trkpt>
      <trkpt lat="45.34718" lon="6.19778">
        <ele>2450.8000488281</ele>
        <time>2014-03-02T12:23:45.000Z</time>
      </trkpt>
      <trkpt lat="45.34718" lon="6.19778">
        <ele>2450.8000488281</ele>
        <time>2014-03-02T12:23:46.000Z</time>
      </trkpt>
      <trkpt lat="45.34718" lon="6.19778">
        <ele>2450.8000488281</ele>
        <time>2014-03-02T12:23:47.000Z</time>
      </trkpt>
      <trkpt lat="45.34718" lon="6.19778">
        <ele>2450.8000488281</ele>
        <time>2014-03-02T12:23:49.000Z</time>
      </trkpt>
      <trkpt lat="45.34718" lon="6.19778">
        <ele>2450.8000488281</ele>
        <time>2014-03-02T12:23:50.000Z</time>
      </trkpt>
      <trkpt lat="45.34718" lon="6.19778">
        <ele>2450.8000488281</ele>
        <time>2014-03-02T12:23:51.000Z</time>
      </trkpt>
      <trkpt lat="45.34718" lon="6.19778">
        <ele>2450.8000488281</ele>
        <time>2014-03-02T12:23:52.000Z</time>
      </trkpt>
      <trkpt lat="45.34718" lon="6.19778">
        <ele>2450.8000488281</ele>
        <time>2014-03-02T12:23:53.000Z</time>
      </trkpt>
      <trkpt lat="45.34718" lon="6.19778">
        <ele>2450.8000488281</ele>
        <time>2014-03-02T12:23:54.000Z</time>
      </trkpt>
      <trkpt lat="45.34718" lon="6.19778">
        <ele>2450.8000488281</ele>
        <time>2014-03-02T12:23:55.000Z</time>
      </trkpt>
      <trkpt lat="45.34718" lon="6.19778">
        <ele>2450.8000488281</ele>
        <time>2014-03-02T12:23:57.000Z</time>
      </trkpt>
      <trkpt lat="45.34718" lon="6.19778">
        <ele>2450.8000488281</ele>
        <time>2014-03-02T12:23:58.000Z</time>
      </trkpt>
      <trkpt lat="45.34718" lon="6.19778">
        <ele>2450.8000488281</ele>
        <time>2014-03-02T12:23:59.000Z</time>
      </trkpt>
      <trkpt lat="45.34718" lon="6.19778">
        <ele>2450.8000488281</ele>
        <time>2014-03-02T12:24:00.000Z</time>
      </trkpt>
      <trkpt lat="45.34718" lon="6.19778">
        <ele>2450.8000488281</ele>
        <time>2014-03-02T12:24:01.000Z</time>
      </trkpt>
      <trkpt lat="45.34717" lon="6.19777">
        <ele>2451.1999511719</ele>
        <time>2014-03-02T12:24:02.000Z</time>
      </trkpt>
      <trkpt lat="45.34717" lon="6.19776">
        <ele>2451.6000976562</ele>
        <time>2014-03-02T12:24:03.000Z</time>
      </trkpt>
      <trkpt lat="45.34716" lon="6.19775">
        <ele>2452</ele>
        <time>2014-03-02T12:24:04.000Z</time>
      </trkpt>
      <trkpt lat="45.34716" lon="6.19774">
        <ele>2452.1999511719</ele>
        <time>2014-03-02T12:24:05.000Z</time>
      </trkpt>
      <trkpt lat="45.34716" lon="6.19774">
        <ele>2452.1999511719</ele>
        <time>2014-03-02T12:24:06.000Z</time>
      </trkpt>
      <trkpt lat="45.34715" lon="6.19773">
        <ele>2452.6000976562</ele>
        <time>2014-03-02T12:24:07.000Z</time>
      </trkpt>
      <trkpt lat="45.34715" lon="6.19773">
        <ele>2452.6000976562</ele>
        <time>2014-03-02T12:24:08.000Z</time>
      </trkpt>
      <trkpt lat="45.34715" lon="6.19772">
        <ele>2452.8000488281</ele>
        <time>2014-03-02T12:24:09.000Z</time>
      </trkpt>
      <trkpt lat="45.34714" lon="6.19771">
        <ele>2453.3999023438</ele>
        <time>2014-03-02T12:24:10.000Z</time>
      </trkpt>
      <trkpt lat="45.34714" lon="6.1977">
        <ele>2453.6000976562</ele>
        <time>2014-03-02T12:24:11.000Z</time>
      </trkpt>
      <trkpt lat="45.34714" lon="6.19769">
        <ele>2453.8000488281</ele>
        <time>2014-03-02T12:24:12.000Z</time>
      </trkpt>
      <trkpt lat="45.34714" lon="6.19769">
        <ele>2453.8000488281</ele>
        <time>2014-03-02T12:24:13.000Z</time>
      </trkpt>
      <trkpt lat="45.34714" lon="6.19769">
        <ele>2453.8000488281</ele>
        <time>2014-03-02T12:24:14.000Z</time>
      </trkpt>
      <trkpt lat="45.34714" lon="6.19769">
        <ele>2453.8000488281</ele>
        <time>2014-03-02T12:24:15.000Z</time>
      </trkpt>
      <trkpt lat="45.34714" lon="6.19769">
        <ele>2453.8000488281</ele>
        <time>2014-03-02T12:24:16.000Z</time>
      </trkpt>
      <trkpt lat="45.34714" lon="6.19769">
        <ele>2453.8000488281</ele>
        <time>2014-03-02T12:24:17.000Z</time>
      </trkpt>
      <trkpt lat="45.34714" lon="6.19769">
        <ele>2453.8000488281</ele>
        <time>2014-03-02T12:24:18.000Z</time>
      </trkpt>
      <trkpt lat="45.34714" lon="6.19769">
        <ele>2453.8000488281</ele>
        <time>2014-03-02T12:24:19.000Z</time>
      </trkpt>
      <trkpt lat="45.34714" lon="6.19769">
        <ele>2453.8000488281</ele>
        <time>2014-03-02T12:24:20.000Z</time>
      </trkpt>
      <trkpt lat="45.34714" lon="6.19769">
        <ele>2453.8000488281</ele>
        <time>2014-03-02T12:24:21.000Z</time>
      </trkpt>
      <trkpt lat="45.34714" lon="6.19769">
        <ele>2453.8000488281</ele>
        <time>2014-03-02T12:24:22.000Z</time>
      </trkpt>
      <trkpt lat="45.34714" lon="6.19769">
        <ele>2453.8000488281</ele>
        <time>2014-03-02T12:24:24.000Z</time>
      </trkpt>
      <trkpt lat="45.34714" lon="6.19769">
        <ele>2453.8000488281</ele>
        <time>2014-03-02T12:24:25.000Z</time>
      </trkpt>
      <trkpt lat="45.34714" lon="6.19769">
        <ele>2454</ele>
        <time>2014-03-02T12:24:26.000Z</time>
      </trkpt>
      <trkpt lat="45.34714" lon="6.19769">
        <ele>2454</ele>
        <time>2014-03-02T12:24:27.000Z</time>
      </trkpt>
      <trkpt lat="45.34714" lon="6.19769">
        <ele>2454</ele>
        <time>2014-03-02T12:24:28.000Z</time>
      </trkpt>
      <trkpt lat="45.34714" lon="6.19769">
        <ele>2454</ele>
        <time>2014-03-02T12:24:29.000Z</time>
      </trkpt>
      <trkpt lat="45.34714" lon="6.19769">
        <ele>2454</ele>
        <time>2014-03-02T12:24:30.000Z</time>
      </trkpt>
      <trkpt lat="45.34714" lon="6.19769">
        <ele>2454</ele>
        <time>2014-03-02T12:24:31.000Z</time>
      </trkpt>
      <trkpt lat="45.34714" lon="6.19769">
        <ele>2454</ele>
        <time>2014-03-02T12:24:32.000Z</time>
      </trkpt>
      <trkpt lat="45.34714" lon="6.19769">
        <ele>2454</ele>
        <time>2014-03-02T12:24:33.000Z</time>
      </trkpt>
      <trkpt lat="45.34714" lon="6.19769">
        <ele>2454</ele>
        <time>2014-03-02T12:24:34.000Z</time>
      </trkpt>
      <trkpt lat="45.34714" lon="6.19769">
        <ele>2454</ele>
        <time>2014-03-02T12:24:35.000Z</time>
      </trkpt>
      <trkpt lat="45.34714" lon="6.19769">
        <ele>2454</ele>
        <time>2014-03-02T12:24:36.000Z</time>
      </trkpt>
      <trkpt lat="45.34714" lon="6.19769">
        <ele>2454</ele>
        <time>2014-03-02T12:24:37.000Z</time>
      </trkpt>
      <trkpt lat="45.34714" lon="6.19769">
        <ele>2454</ele>
        <time>2014-03-02T12:24:38.000Z</time>
      </trkpt>
      <trkpt lat="45.34714" lon="6.19769">
        <ele>2454</ele>
        <time>2014-03-02T12:24:39.000Z</time>
      </trkpt>
      <trkpt lat="45.34714" lon="6.19769">
        <ele>2454</ele>
        <time>2014-03-02T12:24:40.000Z</time>
      </trkpt>
      <trkpt lat="45.34714" lon="6.19769">
        <ele>2454</ele>
        <time>2014-03-02T12:24:41.000Z</time>
      </trkpt>
      <trkpt lat="45.34714" lon="6.19768">
        <ele>2454.1999511719</ele>
        <time>2014-03-02T12:24:42.000Z</time>
      </trkpt>
      <trkpt lat="45.34713" lon="6.19767">
        <ele>2454.3999023438</ele>
        <time>2014-03-02T12:24:43.000Z</time>
      </trkpt>
      <trkpt lat="45.34713" lon="6.19766">
        <ele>2455</ele>
        <time>2014-03-02T12:24:44.000Z</time>
      </trkpt>
      <trkpt lat="45.34713" lon="6.19764">
        <ele>2455.6000976562</ele>
        <time>2014-03-02T12:24:45.000Z</time>
      </trkpt>
      <trkpt lat="45.34712" lon="6.19763">
        <ele>2456.1999511719</ele>
        <time>2014-03-02T12:24:46.000Z</time>
      </trkpt>
      <trkpt lat="45.34712" lon="6.19761">
        <ele>2457</ele>
        <time>2014-03-02T12:24:47.000Z</time>
      </trkpt>
      <trkpt lat="45.34712" lon="6.1976">
        <ele>2457.3999023438</ele>
        <time>2014-03-02T12:24:48.000Z</time>
      </trkpt>
      <trkpt lat="45.34712" lon="6.19759">
        <ele>2457.6000976562</ele>
        <time>2014-03-02T12:24:49.000Z</time>
      </trkpt>
      <trkpt lat="45.34711" lon="6.19758">
        <ele>2458</ele>
        <time>2014-03-02T12:24:50.000Z</time>
      </trkpt>
      <trkpt lat="45.34711" lon="6.19758">
        <ele>2458.1999511719</ele>
        <time>2014-03-02T12:24:51.000Z</time>
      </trkpt>
      <trkpt lat="45.34711" lon="6.19757">
        <ele>2458.3999023438</ele>
        <time>2014-03-02T12:24:52.000Z</time>
      </trkpt>
      <trkpt lat="45.34711" lon="6.19757">
        <ele>2458.3999023438</ele>
        <time>2014-03-02T12:24:53.000Z</time>
      </trkpt>
      <trkpt lat="45.34711" lon="6.19757">
        <ele>2458.3999023438</ele>
        <time>2014-03-02T12:24:54.000Z</time>
      </trkpt>
      <trkpt lat="45.34711" lon="6.19757">
        <ele>2458.3999023438</ele>
        <time>2014-03-02T12:24:55.000Z</time>
      </trkpt>
      <trkpt lat="45.34711" lon="6.19757">
        <ele>2458.3999023438</ele>
        <time>2014-03-02T12:24:56.000Z</time>
      </trkpt>
      <trkpt lat="45.34711" lon="6.19757">
        <ele>2458.6000976562</ele>
        <time>2014-03-02T12:24:57.000Z</time>
      </trkpt>
      <trkpt lat="45.34712" lon="6.19757">
        <ele>2459</ele>
        <time>2014-03-02T12:24:58.000Z</time>
      </trkpt>
      <trkpt lat="45.34712" lon="6.19756">
        <ele>2459.3999023438</ele>
        <time>2014-03-02T12:24:59.000Z</time>
      </trkpt>
      <trkpt lat="45.34713" lon="6.19756">
        <ele>2459.8000488281</ele>
        <time>2014-03-02T12:25:00.000Z</time>
      </trkpt>
      <trkpt lat="45.34713" lon="6.19756">
        <ele>2460.1999511719</ele>
        <time>2014-03-02T12:25:01.000Z</time>
      </trkpt>
      <trkpt lat="45.34714" lon="6.19755">
        <ele>2460.3999023438</ele>
        <time>2014-03-02T12:25:02.000Z</time>
      </trkpt>
      <trkpt lat="45.34715" lon="6.19755">
        <ele>2460.8000488281</ele>
        <time>2014-03-02T12:25:03.000Z</time>
      </trkpt>
      <trkpt lat="45.34715" lon="6.19755">
        <ele>2461.1999511719</ele>
        <time>2014-03-02T12:25:04.000Z</time>
      </trkpt>
      <trkpt lat="45.34717" lon="6.19755">
        <ele>2461.3999023438</ele>
        <time>2014-03-02T12:25:05.000Z</time>
      </trkpt>
      <trkpt lat="45.34717" lon="6.19756">
        <ele>2461.8000488281</ele>
        <time>2014-03-02T12:25:06.000Z</time>
      </trkpt>
      <trkpt lat="45.34718" lon="6.19756">
        <ele>2462</ele>
        <time>2014-03-02T12:25:07.000Z</time>
      </trkpt>
      <trkpt lat="45.34719" lon="6.19756">
        <ele>2462.1999511719</ele>
        <time>2014-03-02T12:25:08.000Z</time>
      </trkpt>
      <trkpt lat="45.34719" lon="6.19756">
        <ele>2462.1999511719</ele>
        <time>2014-03-02T12:25:09.000Z</time>
      </trkpt>
      <trkpt lat="45.34719" lon="6.19756">
        <ele>2462.1999511719</ele>
        <time>2014-03-02T12:25:10.000Z</time>
      </trkpt>
      <trkpt lat="45.34719" lon="6.19756">
        <ele>2462.1999511719</ele>
        <time>2014-03-02T12:25:11.000Z</time>
      </trkpt>
      <trkpt lat="45.34719" lon="6.19756">
        <ele>2462.1999511719</ele>
        <time>2014-03-02T12:25:12.000Z</time>
      </trkpt>
      <trkpt lat="45.34719" lon="6.19756">
        <ele>2462.1999511719</ele>
        <time>2014-03-02T12:25:13.000Z</time>
      </trkpt>
      <trkpt lat="45.34719" lon="6.19756">
        <ele>2462.1999511719</ele>
        <time>2014-03-02T12:25:14.000Z</time>
      </trkpt>
      <trkpt lat="45.34719" lon="6.19756">
        <ele>2462.1999511719</ele>
        <time>2014-03-02T12:25:15.000Z</time>
      </trkpt>
      <trkpt lat="45.3472" lon="6.19755">
        <ele>2462.8000488281</ele>
        <time>2014-03-02T12:25:18.000Z</time>
      </trkpt>
      <trkpt lat="45.34721" lon="6.19755">
        <ele>2463</ele>
        <time>2014-03-02T12:25:19.000Z</time>
      </trkpt>
      <trkpt lat="45.34721" lon="6.19755">
        <ele>2463</ele>
        <time>2014-03-02T12:25:20.000Z</time>
      </trkpt>
      <trkpt lat="45.34721" lon="6.19755">
        <ele>2463</ele>
        <time>2014-03-02T12:25:21.000Z</time>
      </trkpt>
      <trkpt lat="45.34721" lon="6.19755">
        <ele>2463.1999511719</ele>
        <time>2014-03-02T12:25:22.000Z</time>
      </trkpt>
      <trkpt lat="45.34721" lon="6.19755">
        <ele>2463.1999511719</ele>
        <time>2014-03-02T12:25:23.000Z</time>
      </trkpt>
      <trkpt lat="45.34721" lon="6.19755">
        <ele>2463.1999511719</ele>
        <time>2014-03-02T12:25:24.000Z</time>
      </trkpt>
      <trkpt lat="45.34722" lon="6.19755">
        <ele>2463.8000488281</ele>
        <time>2014-03-02T12:25:25.000Z</time>
      </trkpt>
      <trkpt lat="45.34722" lon="6.19755">
        <ele>2463.8000488281</ele>
        <time>2014-03-02T12:25:26.000Z</time>
      </trkpt>
      <trkpt lat="45.34723" lon="6.19754">
        <ele>2464.1999511719</ele>
        <time>2014-03-02T12:25:27.000Z</time>
      </trkpt>
      <trkpt lat="45.34723" lon="6.19754">
        <ele>2464.6000976562</ele>
        <time>2014-03-02T12:25:28.000Z</time>
      </trkpt>
      <trkpt lat="45.34725" lon="6.19753">
        <ele>2465.6000976562</ele>
        <time>2014-03-02T12:25:31.000Z</time>
      </trkpt>
      <trkpt lat="45.34726" lon="6.19752">
        <ele>2466.1999511719</ele>
        <time>2014-03-02T12:25:32.000Z</time>
      </trkpt>
      <trkpt lat="45.34727" lon="6.19752">
        <ele>2466.8000488281</ele>
        <time>2014-03-02T12:25:33.000Z</time>
      </trkpt>
      <trkpt lat="45.34728" lon="6.19752">
        <ele>2467.3999023438</ele>
        <time>2014-03-02T12:25:34.000Z</time>
      </trkpt>
      <trkpt lat="45.34729" lon="6.19751">
        <ele>2467.6000976562</ele>
        <time>2014-03-02T12:25:35.000Z</time>
      </trkpt>
      <trkpt lat="45.34729" lon="6.19751">
        <ele>2468</ele>
        <time>2014-03-02T12:25:36.000Z</time>
      </trkpt>
      <trkpt lat="45.3473" lon="6.19751">
        <ele>2468.1999511719</ele>
        <time>2014-03-02T12:25:37.000Z</time>
      </trkpt>
      <trkpt lat="45.3473" lon="6.19751">
        <ele>2468.6000976562</ele>
        <time>2014-03-02T12:25:38.000Z</time>
      </trkpt>
      <trkpt lat="45.3473" lon="6.1975">
        <ele>2469</ele>
        <time>2014-03-02T12:25:39.000Z</time>
      </trkpt>
      <trkpt lat="45.34731" lon="6.19749">
        <ele>2469.3999023438</ele>
        <time>2014-03-02T12:25:40.000Z</time>
      </trkpt>
      <trkpt lat="45.34731" lon="6.19749">
        <ele>2469.3999023438</ele>
        <time>2014-03-02T12:25:41.000Z</time>
      </trkpt>
      <trkpt lat="45.34731" lon="6.19749">
        <ele>2469.3999023438</ele>
        <time>2014-03-02T12:25:42.000Z</time>
      </trkpt>
      <trkpt lat="45.34731" lon="6.19749">
        <ele>2469.3999023438</ele>
        <time>2014-03-02T12:25:47.000Z</time>
      </trkpt>
      <trkpt lat="45.34731" lon="6.19749">
        <ele>2469.3999023438</ele>
        <time>2014-03-02T12:25:48.000Z</time>
      </trkpt>
      <trkpt lat="45.34731" lon="6.19749">
        <ele>2469.3999023438</ele>
        <time>2014-03-02T12:25:50.000Z</time>
      </trkpt>
      <trkpt lat="45.34731" lon="6.19749">
        <ele>2469.3999023438</ele>
        <time>2014-03-02T12:25:51.000Z</time>
      </trkpt>
      <trkpt lat="45.34731" lon="6.19749">
        <ele>2469.3999023438</ele>
        <time>2014-03-02T12:25:52.000Z</time>
      </trkpt>
      <trkpt lat="45.34731" lon="6.19749">
        <ele>2469.3999023438</ele>
        <time>2014-03-02T12:25:53.000Z</time>
      </trkpt>
      <trkpt lat="45.34731" lon="6.19749">
        <ele>2469.3999023438</ele>
        <time>2014-03-02T12:25:54.000Z</time>
      </trkpt>
      <trkpt lat="45.34731" lon="6.19749">
        <ele>2469.3999023438</ele>
        <time>2014-03-02T12:25:55.000Z</time>
      </trkpt>
      <trkpt lat="45.34731" lon="6.19749">
        <ele>2469.3999023438</ele>
        <time>2014-03-02T12:25:56.000Z</time>
      </trkpt>
      <trkpt lat="45.34731" lon="6.19749">
        <ele>2469.3999023438</ele>
        <time>2014-03-02T12:25:57.000Z</time>
      </trkpt>
      <trkpt lat="45.34731" lon="6.1975">
        <ele>2468.8000488281</ele>
        <time>2014-03-02T12:25:58.000Z</time>
      </trkpt>
      <trkpt lat="45.34731" lon="6.1975">
        <ele>2468.8000488281</ele>
        <time>2014-03-02T12:25:59.000Z</time>
      </trkpt>
      <trkpt lat="45.3473" lon="6.19752">
        <ele>2468</ele>
        <time>2014-03-02T12:26:00.000Z</time>
      </trkpt>
      <trkpt lat="45.3473" lon="6.19754">
        <ele>2467.1999511719</ele>
        <time>2014-03-02T12:26:01.000Z</time>
      </trkpt>
      <trkpt lat="45.3473" lon="6.19755">
        <ele>2466.6000976562</ele>
        <time>2014-03-02T12:26:02.000Z</time>
      </trkpt>
      <trkpt lat="45.34731" lon="6.19755">
        <ele>2466.3999023438</ele>
        <time>2014-03-02T12:26:03.000Z</time>
      </trkpt>
      <trkpt lat="45.34731" lon="6.19756">
        <ele>2466</ele>
        <time>2014-03-02T12:26:04.000Z</time>
      </trkpt>
      <trkpt lat="45.34731" lon="6.19758">
        <ele>2465.3999023438</ele>
        <time>2014-03-02T12:26:05.000Z</time>
      </trkpt>
      <trkpt lat="45.34731" lon="6.19759">
        <ele>2465</ele>
        <time>2014-03-02T12:26:06.000Z</time>
      </trkpt>
      <trkpt lat="45.34731" lon="6.19759">
        <ele>2465</ele>
        <time>2014-03-02T12:26:07.000Z</time>
      </trkpt>
      <trkpt lat="45.34731" lon="6.19759">
        <ele>2465</ele>
        <time>2014-03-02T12:26:08.000Z</time>
      </trkpt>
      <trkpt lat="45.34731" lon="6.19759">
        <ele>2465</ele>
        <time>2014-03-02T12:26:09.000Z</time>
      </trkpt>
      <trkpt lat="45.34731" lon="6.19759">
        <ele>2465</ele>
        <time>2014-03-02T12:26:10.000Z</time>
      </trkpt>
      <trkpt lat="45.34731" lon="6.19759">
        <ele>2465</ele>
        <time>2014-03-02T12:26:11.000Z</time>
      </trkpt>
      <trkpt lat="45.34731" lon="6.19759">
        <ele>2465</ele>
        <time>2014-03-02T12:26:12.000Z</time>
      </trkpt>
      <trkpt lat="45.34731" lon="6.19759">
        <ele>2465</ele>
        <time>2014-03-02T12:26:13.000Z</time>
      </trkpt>
      <trkpt lat="45.34731" lon="6.19759">
        <ele>2465</ele>
        <time>2014-03-02T12:26:19.000Z</time>
      </trkpt>
      <trkpt lat="45.34731" lon="6.19759">
        <ele>2465</ele>
        <time>2014-03-02T12:26:20.000Z</time>
      </trkpt>
      <trkpt lat="45.34731" lon="6.19759">
        <ele>2465</ele>
        <time>2014-03-02T12:26:21.000Z</time>
      </trkpt>
      <trkpt lat="45.34731" lon="6.19759">
        <ele>2465</ele>
        <time>2014-03-02T12:26:22.000Z</time>
      </trkpt>
      <trkpt lat="45.34731" lon="6.19759">
        <ele>2465</ele>
        <time>2014-03-02T12:26:23.000Z</time>
      </trkpt>
      <trkpt lat="45.34731" lon="6.19759">
        <ele>2465</ele>
        <time>2014-03-02T12:26:24.000Z</time>
      </trkpt>
      <trkpt lat="45.34731" lon="6.19759">
        <ele>2465</ele>
        <time>2014-03-02T12:26:28.000Z</time>
      </trkpt>
      <trkpt lat="45.34731" lon="6.19759">
        <ele>2465</ele>
        <time>2014-03-02T12:26:29.000Z</time>
      </trkpt>
      <trkpt lat="45.34731" lon="6.1976">
        <ele>2464.6000976562</ele>
        <time>2014-03-02T12:26:30.000Z</time>
      </trkpt>
      <trkpt lat="45.34731" lon="6.19762">
        <ele>2463.3999023438</ele>
        <time>2014-03-02T12:26:32.000Z</time>
      </trkpt>
      <trkpt lat="45.34731" lon="6.19765">
        <ele>2461.6000976562</ele>
        <time>2014-03-02T12:26:33.000Z</time>
      </trkpt>
      <trkpt lat="45.34731" lon="6.19766">
        <ele>2461.1999511719</ele>
        <time>2014-03-02T12:26:34.000Z</time>
      </trkpt>
      <trkpt lat="45.34731" lon="6.19766">
        <ele>2461.1999511719</ele>
        <time>2014-03-02T12:26:35.000Z</time>
      </trkpt>
      <trkpt lat="45.34731" lon="6.19767">
        <ele>2461</ele>
        <time>2014-03-02T12:26:36.000Z</time>
      </trkpt>
      <trkpt lat="45.34731" lon="6.19767">
        <ele>2461</ele>
        <time>2014-03-02T12:26:37.000Z</time>
      </trkpt>
      <trkpt lat="45.34731" lon="6.19767">
        <ele>2461</ele>
        <time>2014-03-02T12:26:38.000Z</time>
      </trkpt>
      <trkpt lat="45.34731" lon="6.19767">
        <ele>2461</ele>
        <time>2014-03-02T12:26:39.000Z</time>
      </trkpt>
      <trkpt lat="45.34731" lon="6.19767">
        <ele>2461</ele>
        <time>2014-03-02T12:26:40.000Z</time>
      </trkpt>
      <trkpt lat="45.34731" lon="6.19767">
        <ele>2461</ele>
        <time>2014-03-02T12:26:41.000Z</time>
      </trkpt>
      <trkpt lat="45.34731" lon="6.19767">
        <ele>2461</ele>
        <time>2014-03-02T12:26:42.000Z</time>
      </trkpt>
      <trkpt lat="45.34731" lon="6.19767">
        <ele>2461</ele>
        <time>2014-03-02T12:26:43.000Z</time>
      </trkpt>
      <trkpt lat="45.34731" lon="6.19767">
        <ele>2461</ele>
        <time>2014-03-02T12:26:44.000Z</time>
      </trkpt>
      <trkpt lat="45.34731" lon="6.19767">
        <ele>2461</ele>
        <time>2014-03-02T12:26:45.000Z</time>
      </trkpt>
      <trkpt lat="45.34731" lon="6.19767">
        <ele>2461</ele>
        <time>2014-03-02T12:26:46.000Z</time>
      </trkpt>
      <trkpt lat="45.34731" lon="6.19766">
        <ele>2461</ele>
        <time>2014-03-02T12:26:47.000Z</time>
      </trkpt>
      <trkpt lat="45.34731" lon="6.19766">
        <ele>2461</ele>
        <time>2014-03-02T12:26:48.000Z</time>
      </trkpt>
      <trkpt lat="45.34731" lon="6.19766">
        <ele>2461.3999023438</ele>
        <time>2014-03-02T12:26:49.000Z</time>
      </trkpt>
      <trkpt lat="45.34731" lon="6.19765">
        <ele>2461.8000488281</ele>
        <time>2014-03-02T12:26:50.000Z</time>
      </trkpt>
      <trkpt lat="45.3473" lon="6.19764">
        <ele>2462.1999511719</ele>
        <time>2014-03-02T12:26:51.000Z</time>
      </trkpt>
      <trkpt lat="45.3473" lon="6.19764">
        <ele>2462.1999511719</ele>
        <time>2014-03-02T12:26:52.000Z</time>
      </trkpt>
      <trkpt lat="45.3473" lon="6.19762">
        <ele>2463</ele>
        <time>2014-03-02T12:26:53.000Z</time>
      </trkpt>
      <trkpt lat="45.3473" lon="6.1976">
        <ele>2464</ele>
        <time>2014-03-02T12:26:54.000Z</time>
      </trkpt>
      <trkpt lat="45.3473" lon="6.19759">
        <ele>2464.6000976562</ele>
        <time>2014-03-02T12:26:55.000Z</time>
      </trkpt>
      <trkpt lat="45.3473" lon="6.19757">
        <ele>2465.1999511719</ele>
        <time>2014-03-02T12:26:56.000Z</time>
      </trkpt>
      <trkpt lat="45.3473" lon="6.19756">
        <ele>2465.8000488281</ele>
        <time>2014-03-02T12:26:57.000Z</time>
      </trkpt>
      <trkpt lat="45.3473" lon="6.19755">
        <ele>2466.1999511719</ele>
        <time>2014-03-02T12:26:58.000Z</time>
      </trkpt>
      <trkpt lat="45.34729" lon="6.19755">
        <ele>2466.1999511719</ele>
        <time>2014-03-02T12:26:59.000Z</time>
      </trkpt>
      <trkpt lat="45.34729" lon="6.19755">
        <ele>2466.1999511719</ele>
        <time>2014-03-02T12:27:00.000Z</time>
      </trkpt>
      <trkpt lat="45.34729" lon="6.19754">
        <ele>2466.6000976562</ele>
        <time>2014-03-02T12:27:01.000Z</time>
      </trkpt>
      <trkpt lat="45.34729" lon="6.19753">
        <ele>2466.8000488281</ele>
        <time>2014-03-02T12:27:02.000Z</time>
      </trkpt>
      <trkpt lat="45.34729" lon="6.19753">
        <ele>2466.8000488281</ele>
        <time>2014-03-02T12:27:03.000Z</time>
      </trkpt>
      <trkpt lat="45.34729" lon="6.19753">
        <ele>2467</ele>
        <time>2014-03-02T12:27:04.000Z</time>
      </trkpt>
      <trkpt lat="45.34729" lon="6.19753">
        <ele>2467</ele>
        <time>2014-03-02T12:27:05.000Z</time>
      </trkpt>
      <trkpt lat="45.34729" lon="6.19752">
        <ele>2467.3999023438</ele>
        <time>2014-03-02T12:27:06.000Z</time>
      </trkpt>
      <trkpt lat="45.34729" lon="6.19752">
        <ele>2467.6000976562</ele>
        <time>2014-03-02T12:27:07.000Z</time>
      </trkpt>
      <trkpt lat="45.34729" lon="6.19752">
        <ele>2467.6000976562</ele>
        <time>2014-03-02T12:27:08.000Z</time>
      </trkpt>
      <trkpt lat="45.34729" lon="6.19752">
        <ele>2467.6000976562</ele>
        <time>2014-03-02T12:27:09.000Z</time>
      </trkpt>
      <trkpt lat="45.34729" lon="6.19752">
        <ele>2467.6000976562</ele>
        <time>2014-03-02T12:27:10.000Z</time>
      </trkpt>
      <trkpt lat="45.34729" lon="6.19752">
        <ele>2467.6000976562</ele>
        <time>2014-03-02T12:27:11.000Z</time>
      </trkpt>
      <trkpt lat="45.34729" lon="6.19752">
        <ele>2467.6000976562</ele>
        <time>2014-03-02T12:27:12.000Z</time>
      </trkpt>
      <trkpt lat="45.34728" lon="6.19751">
        <ele>2468</ele>
        <time>2014-03-02T12:27:13.000Z</time>
      </trkpt>
      <trkpt lat="45.34728" lon="6.1975">
        <ele>2468.3999023438</ele>
        <time>2014-03-02T12:27:14.000Z</time>
      </trkpt>
      <trkpt lat="45.34728" lon="6.19749">
        <ele>2468.8000488281</ele>
        <time>2014-03-02T12:27:15.000Z</time>
      </trkpt>
      <trkpt lat="45.34728" lon="6.19749">
        <ele>2468.8000488281</ele>
        <time>2014-03-02T12:27:16.000Z</time>
      </trkpt>
      <trkpt lat="45.34728" lon="6.19749">
        <ele>2468.8000488281</ele>
        <time>2014-03-02T12:27:17.000Z</time>
      </trkpt>
      <trkpt lat="45.34728" lon="6.19749">
        <ele>2468.8000488281</ele>
        <time>2014-03-02T12:27:19.000Z</time>
      </trkpt>
      <trkpt lat="45.34728" lon="6.19749">
        <ele>2468.8000488281</ele>
        <time>2014-03-02T12:27:20.000Z</time>
      </trkpt>
      <trkpt lat="45.34727" lon="6.19747">
        <ele>2469.3999023438</ele>
        <time>2014-03-02T12:27:21.000Z</time>
      </trkpt>
      <trkpt lat="45.34727" lon="6.19747">
        <ele>2469.3999023438</ele>
        <time>2014-03-02T12:27:22.000Z</time>
      </trkpt>
      <trkpt lat="45.34727" lon="6.19747">
        <ele>2469.3999023438</ele>
        <time>2014-03-02T12:27:23.000Z</time>
      </trkpt>
      <trkpt lat="45.34727" lon="6.19747">
        <ele>2469.1999511719</ele>
        <time>2014-03-02T12:27:24.000Z</time>
      </trkpt>
      <trkpt lat="45.34727" lon="6.19747">
        <ele>2469.1999511719</ele>
        <time>2014-03-02T12:27:25.000Z</time>
      </trkpt>
      <trkpt lat="45.34727" lon="6.19747">
        <ele>2469.1999511719</ele>
        <time>2014-03-02T12:27:26.000Z</time>
      </trkpt>
      <trkpt lat="45.34727" lon="6.19747">
        <ele>2469.1999511719</ele>
        <time>2014-03-02T12:27:27.000Z</time>
      </trkpt>
      <trkpt lat="45.34727" lon="6.19747">
        <ele>2469.1999511719</ele>
        <time>2014-03-02T12:27:28.000Z</time>
      </trkpt>
      <trkpt lat="45.34727" lon="6.19747">
        <ele>2469.1999511719</ele>
        <time>2014-03-02T12:27:29.000Z</time>
      </trkpt>
      <trkpt lat="45.34727" lon="6.19747">
        <ele>2469.1999511719</ele>
        <time>2014-03-02T12:27:30.000Z</time>
      </trkpt>
      <trkpt lat="45.34727" lon="6.19747">
        <ele>2469.1999511719</ele>
        <time>2014-03-02T12:27:31.000Z</time>
      </trkpt>
      <trkpt lat="45.34727" lon="6.19747">
        <ele>2469.1999511719</ele>
        <time>2014-03-02T12:27:32.000Z</time>
      </trkpt>
      <trkpt lat="45.34727" lon="6.19747">
        <ele>2469.1999511719</ele>
        <time>2014-03-02T12:27:33.000Z</time>
      </trkpt>
      <trkpt lat="45.34727" lon="6.19747">
        <ele>2469.1999511719</ele>
        <time>2014-03-02T12:27:34.000Z</time>
      </trkpt>
      <trkpt lat="45.34727" lon="6.19747">
        <ele>2469.1999511719</ele>
        <time>2014-03-02T12:27:35.000Z</time>
      </trkpt>
      <trkpt lat="45.34727" lon="6.19747">
        <ele>2469.1999511719</ele>
        <time>2014-03-02T12:27:36.000Z</time>
      </trkpt>
      <trkpt lat="45.34727" lon="6.19747">
        <ele>2469.1999511719</ele>
        <time>2014-03-02T12:27:37.000Z</time>
      </trkpt>
      <trkpt lat="45.34727" lon="6.19747">
        <ele>2469.1999511719</ele>
        <time>2014-03-02T12:27:38.000Z</time>
      </trkpt>
      <trkpt lat="45.34727" lon="6.19747">
        <ele>2469.1999511719</ele>
        <time>2014-03-02T12:27:39.000Z</time>
      </trkpt>
      <trkpt lat="45.34727" lon="6.19747">
        <ele>2469.1999511719</ele>
        <time>2014-03-02T12:27:40.000Z</time>
      </trkpt>
      <trkpt lat="45.34727" lon="6.19747">
        <ele>2469.1999511719</ele>
        <time>2014-03-02T12:27:41.000Z</time>
      </trkpt>
      <trkpt lat="45.34727" lon="6.19747">
        <ele>2469.1999511719</ele>
        <time>2014-03-02T12:27:42.000Z</time>
      </trkpt>
      <trkpt lat="45.34727" lon="6.19747">
        <ele>2469.1999511719</ele>
        <time>2014-03-02T12:27:43.000Z</time>
      </trkpt>
      <trkpt lat="45.34727" lon="6.19747">
        <ele>2469.1999511719</ele>
        <time>2014-03-02T12:27:44.000Z</time>
      </trkpt>
      <trkpt lat="45.34727" lon="6.19747">
        <ele>2469.1999511719</ele>
        <time>2014-03-02T12:27:45.000Z</time>
      </trkpt>
      <trkpt lat="45.34727" lon="6.19748">
        <ele>2469</ele>
        <time>2014-03-02T12:27:46.000Z</time>
      </trkpt>
      <trkpt lat="45.34728" lon="6.19747">
        <ele>2469.3999023438</ele>
        <time>2014-03-02T12:27:47.000Z</time>
      </trkpt>
      <trkpt lat="45.34728" lon="6.19747">
        <ele>2469.3999023438</ele>
        <time>2014-03-02T12:27:48.000Z</time>
      </trkpt>
      <trkpt lat="45.34729" lon="6.19748">
        <ele>2469.6000976562</ele>
        <time>2014-03-02T12:27:49.000Z</time>
      </trkpt>
      <trkpt lat="45.34729" lon="6.19748">
        <ele>2469.6000976562</ele>
        <time>2014-03-02T12:27:50.000Z</time>
      </trkpt>
      <trkpt lat="45.34729" lon="6.19748">
        <ele>2469.6000976562</ele>
        <time>2014-03-02T12:27:51.000Z</time>
      </trkpt>
      <trkpt lat="45.34729" lon="6.19748">
        <ele>2469.6000976562</ele>
        <time>2014-03-02T12:27:52.000Z</time>
      </trkpt>
      <trkpt lat="45.34729" lon="6.19748">
        <ele>2469.6000976562</ele>
        <time>2014-03-02T12:27:53.000Z</time>
      </trkpt>
      <trkpt lat="45.34729" lon="6.19748">
        <ele>2469.3999023438</ele>
        <time>2014-03-02T12:27:54.000Z</time>
      </trkpt>
      <trkpt lat="45.34729" lon="6.19748">
        <ele>2469.3999023438</ele>
        <time>2014-03-02T12:27:55.000Z</time>
      </trkpt>
      <trkpt lat="45.34729" lon="6.19748">
        <ele>2469.3999023438</ele>
        <time>2014-03-02T12:27:56.000Z</time>
      </trkpt>
      <trkpt lat="45.34729" lon="6.19748">
        <ele>2469.3999023438</ele>
        <time>2014-03-02T12:27:57.000Z</time>
      </trkpt>
      <trkpt lat="45.34729" lon="6.19748">
        <ele>2469.3999023438</ele>
        <time>2014-03-02T12:27:58.000Z</time>
      </trkpt>
      <trkpt lat="45.3473" lon="6.19749">
        <ele>2469.3999023438</ele>
        <time>2014-03-02T12:27:59.000Z</time>
      </trkpt>
      <trkpt lat="45.34731" lon="6.1975">
        <ele>2469.3999023438</ele>
        <time>2014-03-02T12:28:00.000Z</time>
      </trkpt>
      <trkpt lat="45.34731" lon="6.1975">
        <ele>2469.3999023438</ele>
        <time>2014-03-02T12:28:01.000Z</time>
      </trkpt>
      <trkpt lat="45.34731" lon="6.1975">
        <ele>2469.3999023438</ele>
        <time>2014-03-02T12:28:02.000Z</time>
      </trkpt>
      <trkpt lat="45.34731" lon="6.1975">
        <ele>2469.3999023438</ele>
        <time>2014-03-02T12:28:03.000Z</time>
      </trkpt>
      <trkpt lat="45.34731" lon="6.1975">
        <ele>2469.3999023438</ele>
        <time>2014-03-02T12:28:04.000Z</time>
      </trkpt>
      <trkpt lat="45.34732" lon="6.1975">
        <ele>2469.3999023438</ele>
        <time>2014-03-02T12:28:05.000Z</time>
      </trkpt>
      <trkpt lat="45.34733" lon="6.19751">
        <ele>2469.3999023438</ele>
        <time>2014-03-02T12:28:06.000Z</time>
      </trkpt>
      <trkpt lat="45.34734" lon="6.19751">
        <ele>2470</ele>
        <time>2014-03-02T12:28:07.000Z</time>
      </trkpt>
      <trkpt lat="45.34735" lon="6.19752">
        <ele>2470</ele>
        <time>2014-03-02T12:28:08.000Z</time>
      </trkpt>
      <trkpt lat="45.34736" lon="6.19752">
        <ele>2469.8000488281</ele>
        <time>2014-03-02T12:28:09.000Z</time>
      </trkpt>
      <trkpt lat="45.34736" lon="6.19752">
        <ele>2469.8000488281</ele>
        <time>2014-03-02T12:28:10.000Z</time>
      </trkpt>
      <trkpt lat="45.34737" lon="6.19753">
        <ele>2469.8000488281</ele>
        <time>2014-03-02T12:28:11.000Z</time>
      </trkpt>
      <trkpt lat="45.34737" lon="6.19753">
        <ele>2469.8000488281</ele>
        <time>2014-03-02T12:28:12.000Z</time>
      </trkpt>
      <trkpt lat="45.34737" lon="6.19753">
        <ele>2469.8000488281</ele>
        <time>2014-03-02T12:28:13.000Z</time>
      </trkpt>
      <trkpt lat="45.34737" lon="6.19753">
        <ele>2469.8000488281</ele>
        <time>2014-03-02T12:28:14.000Z</time>
      </trkpt>
      <trkpt lat="45.34737" lon="6.19754">
        <ele>2469.1999511719</ele>
        <time>2014-03-02T12:28:15.000Z</time>
      </trkpt>
      <trkpt lat="45.34738" lon="6.19755">
        <ele>2469</ele>
        <time>2014-03-02T12:28:16.000Z</time>
      </trkpt>
      <trkpt lat="45.34738" lon="6.19755">
        <ele>2469</ele>
        <time>2014-03-02T12:28:17.000Z</time>
      </trkpt>
      <trkpt lat="45.34738" lon="6.19756">
        <ele>2468.6000976562</ele>
        <time>2014-03-02T12:28:18.000Z</time>
      </trkpt>
      <trkpt lat="45.34739" lon="6.19757">
        <ele>2468.6000976562</ele>
        <time>2014-03-02T12:28:19.000Z</time>
      </trkpt>
      <trkpt lat="45.34739" lon="6.19757">
        <ele>2468.6000976562</ele>
        <time>2014-03-02T12:28:20.000Z</time>
      </trkpt>
      <trkpt lat="45.34739" lon="6.19757">
        <ele>2468.6000976562</ele>
        <time>2014-03-02T12:28:21.000Z</time>
      </trkpt>
      <trkpt lat="45.34739" lon="6.19757">
        <ele>2468.6000976562</ele>
        <time>2014-03-02T12:28:22.000Z</time>
      </trkpt>
      <trkpt lat="45.34739" lon="6.19757">
        <ele>2468.6000976562</ele>
        <time>2014-03-02T12:28:23.000Z</time>
      </trkpt>
      <trkpt lat="45.3474" lon="6.19758">
        <ele>2468.6000976562</ele>
        <time>2014-03-02T12:28:24.000Z</time>
      </trkpt>
      <trkpt lat="45.3474" lon="6.19758">
        <ele>2468.6000976562</ele>
        <time>2014-03-02T12:28:25.000Z</time>
      </trkpt>
      <trkpt lat="45.3474" lon="6.19758">
        <ele>2468.6000976562</ele>
        <time>2014-03-02T12:28:26.000Z</time>
      </trkpt>
      <trkpt lat="45.3474" lon="6.19758">
        <ele>2468.6000976562</ele>
        <time>2014-03-02T12:28:27.000Z</time>
      </trkpt>
      <trkpt lat="45.3474" lon="6.19758">
        <ele>2468.6000976562</ele>
        <time>2014-03-02T12:28:28.000Z</time>
      </trkpt>
      <trkpt lat="45.3474" lon="6.19758">
        <ele>2468.6000976562</ele>
        <time>2014-03-02T12:28:32.000Z</time>
      </trkpt>
      <trkpt lat="45.3474" lon="6.19758">
        <ele>2468.6000976562</ele>
        <time>2014-03-02T12:28:33.000Z</time>
      </trkpt>
      <trkpt lat="45.3474" lon="6.19758">
        <ele>2468.6000976562</ele>
        <time>2014-03-02T12:28:34.000Z</time>
      </trkpt>
      <trkpt lat="45.3474" lon="6.19758">
        <ele>2468.6000976562</ele>
        <time>2014-03-02T12:28:35.000Z</time>
      </trkpt>
      <trkpt lat="45.3474" lon="6.19758">
        <ele>2468.6000976562</ele>
        <time>2014-03-02T12:28:36.000Z</time>
      </trkpt>
      <trkpt lat="45.3474" lon="6.19758">
        <ele>2468.6000976562</ele>
        <time>2014-03-02T12:28:37.000Z</time>
      </trkpt>
      <trkpt lat="45.3474" lon="6.19758">
        <ele>2468.6000976562</ele>
        <time>2014-03-02T12:28:38.000Z</time>
      </trkpt>
      <trkpt lat="45.3474" lon="6.19758">
        <ele>2468.6000976562</ele>
        <time>2014-03-02T12:28:39.000Z</time>
      </trkpt>
      <trkpt lat="45.3474" lon="6.19758">
        <ele>2468.6000976562</ele>
        <time>2014-03-02T12:28:40.000Z</time>
      </trkpt>
      <trkpt lat="45.3474" lon="6.19757">
        <ele>2469</ele>
        <time>2014-03-02T12:28:41.000Z</time>
      </trkpt>
      <trkpt lat="45.3474" lon="6.19756">
        <ele>2469.1999511719</ele>
        <time>2014-03-02T12:28:42.000Z</time>
      </trkpt>
      <trkpt lat="45.3474" lon="6.19755">
        <ele>2469.6000976562</ele>
        <time>2014-03-02T12:28:43.000Z</time>
      </trkpt>
      <trkpt lat="45.34739" lon="6.19755">
        <ele>2469.8000488281</ele>
        <time>2014-03-02T12:28:44.000Z</time>
      </trkpt>
      <trkpt lat="45.34739" lon="6.19754">
        <ele>2470</ele>
        <time>2014-03-02T12:28:45.000Z</time>
      </trkpt>
      <trkpt lat="45.34739" lon="6.19754">
        <ele>2470</ele>
        <time>2014-03-02T12:28:46.000Z</time>
      </trkpt>
      <trkpt lat="45.34739" lon="6.19753">
        <ele>2470.3999023438</ele>
        <time>2014-03-02T12:28:47.000Z</time>
      </trkpt>
      <trkpt lat="45.34739" lon="6.19753">
        <ele>2470.8000488281</ele>
        <time>2014-03-02T12:28:49.000Z</time>
      </trkpt>
      <trkpt lat="45.34739" lon="6.19751">
        <ele>2471.1999511719</ele>
        <time>2014-03-02T12:28:50.000Z</time>
      </trkpt>
      <trkpt lat="45.34739" lon="6.19751">
        <ele>2471.6000976562</ele>
        <time>2014-03-02T12:28:52.000Z</time>
      </trkpt>
      <trkpt lat="45.34738" lon="6.19749">
        <ele>2472.1999511719</ele>
        <time>2014-03-02T12:28:53.000Z</time>
      </trkpt>
      <trkpt lat="45.34739" lon="6.19748">
        <ele>2472.8000488281</ele>
        <time>2014-03-02T12:28:54.000Z</time>
      </trkpt>
      <trkpt lat="45.34738" lon="6.19747">
        <ele>2473.1999511719</ele>
        <time>2014-03-02T12:28:55.000Z</time>
      </trkpt>
      <trkpt lat="45.34738" lon="6.19747">
        <ele>2473.3999023438</ele>
        <time>2014-03-02T12:28:56.000Z</time>
      </trkpt>
      <trkpt lat="45.34738" lon="6.19746">
        <ele>2473.6000976562</ele>
        <time>2014-03-02T12:28:57.000Z</time>
      </trkpt>
      <trkpt lat="45.34738" lon="6.19746">
        <ele>2473.6000976562</ele>
        <time>2014-03-02T12:28:58.000Z</time>
      </trkpt>
      <trkpt lat="45.34738" lon="6.19746">
        <ele>2473.8000488281</ele>
        <time>2014-03-02T12:28:59.000Z</time>
      </trkpt>
      <trkpt lat="45.34738" lon="6.19746">
        <ele>2473.8000488281</ele>
        <time>2014-03-02T12:29:00.000Z</time>
      </trkpt>
      <trkpt lat="45.34738" lon="6.19746">
        <ele>2473.8000488281</ele>
        <time>2014-03-02T12:29:01.000Z</time>
      </trkpt>
      <trkpt lat="45.34738" lon="6.19745">
        <ele>2473.8000488281</ele>
        <time>2014-03-02T12:29:02.000Z</time>
      </trkpt>
      <trkpt lat="45.34738" lon="6.19745">
        <ele>2474</ele>
        <time>2014-03-02T12:29:03.000Z</time>
      </trkpt>
      <trkpt lat="45.34738" lon="6.19745">
        <ele>2474</ele>
        <time>2014-03-02T12:29:04.000Z</time>
      </trkpt>
      <trkpt lat="45.34738" lon="6.19744">
        <ele>2474.1999511719</ele>
        <time>2014-03-02T12:29:05.000Z</time>
      </trkpt>
      <trkpt lat="45.34737" lon="6.19744">
        <ele>2474.3999023438</ele>
        <time>2014-03-02T12:29:06.000Z</time>
      </trkpt>
      <trkpt lat="45.34737" lon="6.19743">
        <ele>2474.3999023438</ele>
        <time>2014-03-02T12:29:07.000Z</time>
      </trkpt>
      <trkpt lat="45.34737" lon="6.19743">
        <ele>2474.3999023438</ele>
        <time>2014-03-02T12:29:08.000Z</time>
      </trkpt>
      <trkpt lat="45.34737" lon="6.19743">
        <ele>2474.3999023438</ele>
        <time>2014-03-02T12:29:09.000Z</time>
      </trkpt>
      <trkpt lat="45.34736" lon="6.19743">
        <ele>2474.8000488281</ele>
        <time>2014-03-02T12:29:10.000Z</time>
      </trkpt>
      <trkpt lat="45.34736" lon="6.19743">
        <ele>2474.8000488281</ele>
        <time>2014-03-02T12:29:11.000Z</time>
      </trkpt>
      <trkpt lat="45.34736" lon="6.19743">
        <ele>2474.8000488281</ele>
        <time>2014-03-02T12:29:12.000Z</time>
      </trkpt>
      <trkpt lat="45.34736" lon="6.19741">
        <ele>2475.1999511719</ele>
        <time>2014-03-02T12:29:13.000Z</time>
      </trkpt>
      <trkpt lat="45.34736" lon="6.1974">
        <ele>2475.8000488281</ele>
        <time>2014-03-02T12:29:14.000Z</time>
      </trkpt>
      <trkpt lat="45.34735" lon="6.19738">
        <ele>2476.3999023438</ele>
        <time>2014-03-02T12:29:15.000Z</time>
      </trkpt>
      <trkpt lat="45.34735" lon="6.19738">
        <ele>2476.3999023438</ele>
        <time>2014-03-02T12:29:16.000Z</time>
      </trkpt>
      <trkpt lat="45.34735" lon="6.19738">
        <ele>2476.3999023438</ele>
        <time>2014-03-02T12:29:17.000Z</time>
      </trkpt>
      <trkpt lat="45.34735" lon="6.19738">
        <ele>2476.8000488281</ele>
        <time>2014-03-02T12:29:18.000Z</time>
      </trkpt>
      <trkpt lat="45.34735" lon="6.19738">
        <ele>2476.8000488281</ele>
        <time>2014-03-02T12:29:19.000Z</time>
      </trkpt>
      <trkpt lat="45.34735" lon="6.19737">
        <ele>2476.8000488281</ele>
        <time>2014-03-02T12:29:20.000Z</time>
      </trkpt>
      <trkpt lat="45.34735" lon="6.19737">
        <ele>2476.8000488281</ele>
        <time>2014-03-02T12:29:21.000Z</time>
      </trkpt>
      <trkpt lat="45.34735" lon="6.19737">
        <ele>2476.8000488281</ele>
        <time>2014-03-02T12:29:22.000Z</time>
      </trkpt>
      <trkpt lat="45.34734" lon="6.19736">
        <ele>2477.1999511719</ele>
        <time>2014-03-02T12:29:23.000Z</time>
      </trkpt>
      <trkpt lat="45.34734" lon="6.19735">
        <ele>2477.6000976562</ele>
        <time>2014-03-02T12:29:24.000Z</time>
      </trkpt>
      <trkpt lat="45.34734" lon="6.19734">
        <ele>2478.1999511719</ele>
        <time>2014-03-02T12:29:25.000Z</time>
      </trkpt>
      <trkpt lat="45.34734" lon="6.19734">
        <ele>2478.1999511719</ele>
        <time>2014-03-02T12:29:26.000Z</time>
      </trkpt>
      <trkpt lat="45.34733" lon="6.19733">
        <ele>2478.3999023438</ele>
        <time>2014-03-02T12:29:27.000Z</time>
      </trkpt>
      <trkpt lat="45.34733" lon="6.19733">
        <ele>2478.3999023438</ele>
        <time>2014-03-02T12:29:28.000Z</time>
      </trkpt>
      <trkpt lat="45.34733" lon="6.19733">
        <ele>2478.3999023438</ele>
        <time>2014-03-02T12:29:29.000Z</time>
      </trkpt>
      <trkpt lat="45.34734" lon="6.19732">
        <ele>2478.8000488281</ele>
        <time>2014-03-02T12:29:30.000Z</time>
      </trkpt>
      <trkpt lat="45.34734" lon="6.19732">
        <ele>2478.8000488281</ele>
        <time>2014-03-02T12:29:31.000Z</time>
      </trkpt>
      <trkpt lat="45.34734" lon="6.19732">
        <ele>2478.8000488281</ele>
        <time>2014-03-02T12:29:32.000Z</time>
      </trkpt>
      <trkpt lat="45.34734" lon="6.19732">
        <ele>2478.8000488281</ele>
        <time>2014-03-02T12:29:33.000Z</time>
      </trkpt>
      <trkpt lat="45.34734" lon="6.19732">
        <ele>2478.8000488281</ele>
        <time>2014-03-02T12:29:34.000Z</time>
      </trkpt>
      <trkpt lat="45.34734" lon="6.19732">
        <ele>2478.8000488281</ele>
        <time>2014-03-02T12:29:36.000Z</time>
      </trkpt>
      <trkpt lat="45.34734" lon="6.19732">
        <ele>2478.8000488281</ele>
        <time>2014-03-02T12:29:37.000Z</time>
      </trkpt>
      <trkpt lat="45.34734" lon="6.19732">
        <ele>2478.8000488281</ele>
        <time>2014-03-02T12:29:38.000Z</time>
      </trkpt>
      <trkpt lat="45.34734" lon="6.19732">
        <ele>2478.8000488281</ele>
        <time>2014-03-02T12:29:39.000Z</time>
      </trkpt>
      <trkpt lat="45.34734" lon="6.19732">
        <ele>2478.8000488281</ele>
        <time>2014-03-02T12:29:40.000Z</time>
      </trkpt>
      <trkpt lat="45.34734" lon="6.19732">
        <ele>2478.8000488281</ele>
        <time>2014-03-02T12:29:41.000Z</time>
      </trkpt>
      <trkpt lat="45.34734" lon="6.19732">
        <ele>2478.8000488281</ele>
        <time>2014-03-02T12:29:42.000Z</time>
      </trkpt>
      <trkpt lat="45.34734" lon="6.19732">
        <ele>2478.8000488281</ele>
        <time>2014-03-02T12:29:43.000Z</time>
      </trkpt>
      <trkpt lat="45.34734" lon="6.19732">
        <ele>2478.8000488281</ele>
        <time>2014-03-02T12:29:44.000Z</time>
      </trkpt>
      <trkpt lat="45.34734" lon="6.19732">
        <ele>2478.8000488281</ele>
        <time>2014-03-02T12:29:45.000Z</time>
      </trkpt>
      <trkpt lat="45.34734" lon="6.19732">
        <ele>2478.8000488281</ele>
        <time>2014-03-02T12:29:46.000Z</time>
      </trkpt>
      <trkpt lat="45.34734" lon="6.19732">
        <ele>2478.8000488281</ele>
        <time>2014-03-02T12:29:47.000Z</time>
      </trkpt>
      <trkpt lat="45.34734" lon="6.19732">
        <ele>2478.8000488281</ele>
        <time>2014-03-02T12:29:48.000Z</time>
      </trkpt>
      <trkpt lat="45.34734" lon="6.19732">
        <ele>2478.8000488281</ele>
        <time>2014-03-02T12:29:51.000Z</time>
      </trkpt>
      <trkpt lat="45.34734" lon="6.19732">
        <ele>2478.8000488281</ele>
        <time>2014-03-02T12:29:52.000Z</time>
      </trkpt>
      <trkpt lat="45.34734" lon="6.19732">
        <ele>2478.8000488281</ele>
        <time>2014-03-02T12:29:53.000Z</time>
      </trkpt>
      <trkpt lat="45.34734" lon="6.19732">
        <ele>2478.8000488281</ele>
        <time>2014-03-02T12:29:54.000Z</time>
      </trkpt>
      <trkpt lat="45.34734" lon="6.19732">
        <ele>2478.8000488281</ele>
        <time>2014-03-02T12:29:55.000Z</time>
      </trkpt>
      <trkpt lat="45.34734" lon="6.19732">
        <ele>2478.8000488281</ele>
        <time>2014-03-02T12:29:56.000Z</time>
      </trkpt>
      <trkpt lat="45.34734" lon="6.19732">
        <ele>2478.8000488281</ele>
        <time>2014-03-02T12:29:57.000Z</time>
      </trkpt>
      <trkpt lat="45.34734" lon="6.19732">
        <ele>2478.8000488281</ele>
        <time>2014-03-02T12:29:58.000Z</time>
      </trkpt>
      <trkpt lat="45.34734" lon="6.19732">
        <ele>2478.8000488281</ele>
        <time>2014-03-02T12:29:59.000Z</time>
      </trkpt>
      <trkpt lat="45.34734" lon="6.19732">
        <ele>2478.8000488281</ele>
        <time>2014-03-02T12:30:00.000Z</time>
      </trkpt>
      <trkpt lat="45.34734" lon="6.19732">
        <ele>2478.8000488281</ele>
        <time>2014-03-02T12:30:01.000Z</time>
      </trkpt>
      <trkpt lat="45.34734" lon="6.19732">
        <ele>2478.8000488281</ele>
        <time>2014-03-02T12:30:02.000Z</time>
      </trkpt>
      <trkpt lat="45.34734" lon="6.19732">
        <ele>2478.8000488281</ele>
        <time>2014-03-02T12:30:03.000Z</time>
      </trkpt>
      <trkpt lat="45.34734" lon="6.19732">
        <ele>2478.8000488281</ele>
        <time>2014-03-02T12:30:07.000Z</time>
      </trkpt>
      <trkpt lat="45.34734" lon="6.19732">
        <ele>2478.8000488281</ele>
        <time>2014-03-02T12:30:08.000Z</time>
      </trkpt>
      <trkpt lat="45.34733" lon="6.19732">
        <ele>2478.8000488281</ele>
        <time>2014-03-02T12:30:10.000Z</time>
      </trkpt>
      <trkpt lat="45.34733" lon="6.19732">
        <ele>2478.8000488281</ele>
        <time>2014-03-02T12:30:11.000Z</time>
      </trkpt>
      <trkpt lat="45.34733" lon="6.19732">
        <ele>2478.8000488281</ele>
        <time>2014-03-02T12:30:12.000Z</time>
      </trkpt>
      <trkpt lat="45.34733" lon="6.19732">
        <ele>2478.8000488281</ele>
        <time>2014-03-02T12:30:13.000Z</time>
      </trkpt>
      <trkpt lat="45.34733" lon="6.19732">
        <ele>2478.8000488281</ele>
        <time>2014-03-02T12:30:17.000Z</time>
      </trkpt>
      <trkpt lat="45.34733" lon="6.19732">
        <ele>2478.8000488281</ele>
        <time>2014-03-02T12:30:18.000Z</time>
      </trkpt>
      <trkpt lat="45.34733" lon="6.19732">
        <ele>2478.8000488281</ele>
        <time>2014-03-02T12:30:19.000Z</time>
      </trkpt>
      <trkpt lat="45.34733" lon="6.19732">
        <ele>2478.8000488281</ele>
        <time>2014-03-02T12:30:21.000Z</time>
      </trkpt>
      <trkpt lat="45.34733" lon="6.19732">
        <ele>2478.8000488281</ele>
        <time>2014-03-02T12:30:22.000Z</time>
      </trkpt>
      <trkpt lat="45.34733" lon="6.19732">
        <ele>2478.8000488281</ele>
        <time>2014-03-02T12:30:23.000Z</time>
      </trkpt>
      <trkpt lat="45.34733" lon="6.19732">
        <ele>2478.8000488281</ele>
        <time>2014-03-02T12:30:24.000Z</time>
      </trkpt>
      <trkpt lat="45.34733" lon="6.19732">
        <ele>2478.8000488281</ele>
        <time>2014-03-02T12:30:25.000Z</time>
      </trkpt>
      <trkpt lat="45.34733" lon="6.19732">
        <ele>2478.8000488281</ele>
        <time>2014-03-02T12:30:26.000Z</time>
      </trkpt>
      <trkpt lat="45.34733" lon="6.19732">
        <ele>2478.8000488281</ele>
        <time>2014-03-02T12:30:27.000Z</time>
      </trkpt>
      <trkpt lat="45.34733" lon="6.19732">
        <ele>2478.8000488281</ele>
        <time>2014-03-02T12:30:28.000Z</time>
      </trkpt>
      <trkpt lat="45.34733" lon="6.19732">
        <ele>2478.8000488281</ele>
        <time>2014-03-02T12:30:29.000Z</time>
      </trkpt>
      <trkpt lat="45.34733" lon="6.19732">
        <ele>2478.8000488281</ele>
        <time>2014-03-02T12:30:30.000Z</time>
      </trkpt>
      <trkpt lat="45.34733" lon="6.19732">
        <ele>2478.8000488281</ele>
        <time>2014-03-02T12:30:31.000Z</time>
      </trkpt>
      <trkpt lat="45.34733" lon="6.19732">
        <ele>2478.8000488281</ele>
        <time>2014-03-02T12:30:32.000Z</time>
      </trkpt>
      <trkpt lat="45.34733" lon="6.19732">
        <ele>2478.8000488281</ele>
        <time>2014-03-02T12:30:33.000Z</time>
      </trkpt>
      <trkpt lat="45.34734" lon="6.19733">
        <ele>2478.8000488281</ele>
        <time>2014-03-02T12:30:34.000Z</time>
      </trkpt>
      <trkpt lat="45.34735" lon="6.19734">
        <ele>2478.6000976562</ele>
        <time>2014-03-02T12:30:35.000Z</time>
      </trkpt>
      <trkpt lat="45.34736" lon="6.19734">
        <ele>2478.6000976562</ele>
        <time>2014-03-02T12:30:36.000Z</time>
      </trkpt>
      <trkpt lat="45.34737" lon="6.19735">
        <ele>2478.8000488281</ele>
        <time>2014-03-02T12:30:37.000Z</time>
      </trkpt>
      <trkpt lat="45.34738" lon="6.19735">
        <ele>2479.1999511719</ele>
        <time>2014-03-02T12:30:38.000Z</time>
      </trkpt>
      <trkpt lat="45.34739" lon="6.19735">
        <ele>2479.3999023438</ele>
        <time>2014-03-02T12:30:39.000Z</time>
      </trkpt>
      <trkpt lat="45.3474" lon="6.19735">
        <ele>2479.6000976562</ele>
        <time>2014-03-02T12:30:40.000Z</time>
      </trkpt>
      <trkpt lat="45.34741" lon="6.19736">
        <ele>2479.8000488281</ele>
        <time>2014-03-02T12:30:41.000Z</time>
      </trkpt>
      <trkpt lat="45.34742" lon="6.19736">
        <ele>2480</ele>
        <time>2014-03-02T12:30:42.000Z</time>
      </trkpt>
      <trkpt lat="45.34742" lon="6.19736">
        <ele>2479.8000488281</ele>
        <time>2014-03-02T12:30:43.000Z</time>
      </trkpt>
      <trkpt lat="45.34742" lon="6.19736">
        <ele>2479.8000488281</ele>
        <time>2014-03-02T12:30:44.000Z</time>
      </trkpt>
      <trkpt lat="45.34743" lon="6.19737">
        <ele>2479.6000976562</ele>
        <time>2014-03-02T12:30:45.000Z</time>
      </trkpt>
      <trkpt lat="45.34743" lon="6.19738">
        <ele>2479.1999511719</ele>
        <time>2014-03-02T12:30:46.000Z</time>
      </trkpt>
      <trkpt lat="45.34744" lon="6.1974">
        <ele>2478.6000976562</ele>
        <time>2014-03-02T12:30:47.000Z</time>
      </trkpt>
      <trkpt lat="45.34745" lon="6.19741">
        <ele>2478.8000488281</ele>
        <time>2014-03-02T12:30:48.000Z</time>
      </trkpt>
      <trkpt lat="45.34745" lon="6.19742">
        <ele>2478.1999511719</ele>
        <time>2014-03-02T12:30:49.000Z</time>
      </trkpt>
      <trkpt lat="45.34746" lon="6.19743">
        <ele>2478</ele>
        <time>2014-03-02T12:30:50.000Z</time>
      </trkpt>
      <trkpt lat="45.34746" lon="6.19743">
        <ele>2477.6000976562</ele>
        <time>2014-03-02T12:30:51.000Z</time>
      </trkpt>
      <trkpt lat="45.34746" lon="6.19744">
        <ele>2477.1999511719</ele>
        <time>2014-03-02T12:30:52.000Z</time>
      </trkpt>
      <trkpt lat="45.34746" lon="6.19744">
        <ele>2477.1999511719</ele>
        <time>2014-03-02T12:30:53.000Z</time>
      </trkpt>
      <trkpt lat="45.34746" lon="6.19745">
        <ele>2476.8000488281</ele>
        <time>2014-03-02T12:30:54.000Z</time>
      </trkpt>
      <trkpt lat="45.34746" lon="6.19745">
        <ele>2476.6000976562</ele>
        <time>2014-03-02T12:30:55.000Z</time>
      </trkpt>
      <trkpt lat="45.34746" lon="6.19745">
        <ele>2476.6000976562</ele>
        <time>2014-03-02T12:30:56.000Z</time>
      </trkpt>
      <trkpt lat="45.34746" lon="6.19746">
        <ele>2476.6000976562</ele>
        <time>2014-03-02T12:30:57.000Z</time>
      </trkpt>
      <trkpt lat="45.34746" lon="6.19746">
        <ele>2476.6000976562</ele>
        <time>2014-03-02T12:30:58.000Z</time>
      </trkpt>
      <trkpt lat="45.34747" lon="6.19747">
        <ele>2476.1999511719</ele>
        <time>2014-03-02T12:30:59.000Z</time>
      </trkpt>
      <trkpt lat="45.34747" lon="6.19747">
        <ele>2476.1999511719</ele>
        <time>2014-03-02T12:31:00.000Z</time>
      </trkpt>
      <trkpt lat="45.34748" lon="6.19748">
        <ele>2476</ele>
        <time>2014-03-02T12:31:01.000Z</time>
      </trkpt>
      <trkpt lat="45.34748" lon="6.19749">
        <ele>2475.8000488281</ele>
        <time>2014-03-02T12:31:02.000Z</time>
      </trkpt>
      <trkpt lat="45.34748" lon="6.19749">
        <ele>2475.6000976562</ele>
        <time>2014-03-02T12:31:03.000Z</time>
      </trkpt>
      <trkpt lat="45.34748" lon="6.19749">
        <ele>2475.6000976562</ele>
        <time>2014-03-02T12:31:04.000Z</time>
      </trkpt>
      <trkpt lat="45.34748" lon="6.19749">
        <ele>2475.6000976562</ele>
        <time>2014-03-02T12:31:05.000Z</time>
      </trkpt>
      <trkpt lat="45.34748" lon="6.19749">
        <ele>2475.6000976562</ele>
        <time>2014-03-02T12:31:06.000Z</time>
      </trkpt>
      <trkpt lat="45.34749" lon="6.1975">
        <ele>2475.3999023438</ele>
        <time>2014-03-02T12:31:07.000Z</time>
      </trkpt>
      <trkpt lat="45.34749" lon="6.19751">
        <ele>2475.1999511719</ele>
        <time>2014-03-02T12:31:08.000Z</time>
      </trkpt>
      <trkpt lat="45.34749" lon="6.19751">
        <ele>2475.1999511719</ele>
        <time>2014-03-02T12:31:09.000Z</time>
      </trkpt>
      <trkpt lat="45.3475" lon="6.19751">
        <ele>2475</ele>
        <time>2014-03-02T12:31:10.000Z</time>
      </trkpt>
      <trkpt lat="45.3475" lon="6.19752">
        <ele>2474.8000488281</ele>
        <time>2014-03-02T12:31:11.000Z</time>
      </trkpt>
      <trkpt lat="45.3475" lon="6.19753">
        <ele>2474.6000976562</ele>
        <time>2014-03-02T12:31:12.000Z</time>
      </trkpt>
      <trkpt lat="45.3475" lon="6.19753">
        <ele>2474.3999023438</ele>
        <time>2014-03-02T12:31:13.000Z</time>
      </trkpt>
      <trkpt lat="45.3475" lon="6.19754">
        <ele>2474.1999511719</ele>
        <time>2014-03-02T12:31:14.000Z</time>
      </trkpt>
      <trkpt lat="45.34751" lon="6.19754">
        <ele>2473.8000488281</ele>
        <time>2014-03-02T12:31:15.000Z</time>
      </trkpt>
      <trkpt lat="45.34751" lon="6.19755">
        <ele>2473.6000976562</ele>
        <time>2014-03-02T12:31:16.000Z</time>
      </trkpt>
      <trkpt lat="45.34751" lon="6.19755">
        <ele>2473.6000976562</ele>
        <time>2014-03-02T12:31:17.000Z</time>
      </trkpt>
      <trkpt lat="45.34751" lon="6.19756">
        <ele>2473.6000976562</ele>
        <time>2014-03-02T12:31:18.000Z</time>
      </trkpt>
      <trkpt lat="45.34752" lon="6.19756">
        <ele>2473.6000976562</ele>
        <time>2014-03-02T12:31:19.000Z</time>
      </trkpt>
      <trkpt lat="45.34752" lon="6.19756">
        <ele>2473.6000976562</ele>
        <time>2014-03-02T12:31:20.000Z</time>
      </trkpt>
      <trkpt lat="45.34753" lon="6.19756">
        <ele>2473.8000488281</ele>
        <time>2014-03-02T12:31:21.000Z</time>
      </trkpt>
      <trkpt lat="45.34754" lon="6.19757">
        <ele>2473.8000488281</ele>
        <time>2014-03-02T12:31:22.000Z</time>
      </trkpt>
      <trkpt lat="45.34754" lon="6.19756">
        <ele>2474.1999511719</ele>
        <time>2014-03-02T12:31:23.000Z</time>
      </trkpt>
      <trkpt lat="45.34755" lon="6.19756">
        <ele>2474.6000976562</ele>
        <time>2014-03-02T12:31:24.000Z</time>
      </trkpt>
      <trkpt lat="45.34756" lon="6.19756">
        <ele>2475</ele>
        <time>2014-03-02T12:31:25.000Z</time>
      </trkpt>
      <trkpt lat="45.34757" lon="6.19756">
        <ele>2475.1999511719</ele>
        <time>2014-03-02T12:31:26.000Z</time>
      </trkpt>
      <trkpt lat="45.34757" lon="6.19756">
        <ele>2475.3999023438</ele>
        <time>2014-03-02T12:31:27.000Z</time>
      </trkpt>
      <trkpt lat="45.34757" lon="6.19756">
        <ele>2475.6000976562</ele>
        <time>2014-03-02T12:31:28.000Z</time>
      </trkpt>
      <trkpt lat="45.34758" lon="6.19756">
        <ele>2475.6000976562</ele>
        <time>2014-03-02T12:31:29.000Z</time>
      </trkpt>
      <trkpt lat="45.34759" lon="6.19756">
        <ele>2475.8000488281</ele>
        <time>2014-03-02T12:31:30.000Z</time>
      </trkpt>
      <trkpt lat="45.34759" lon="6.19756">
        <ele>2476</ele>
        <time>2014-03-02T12:31:31.000Z</time>
      </trkpt>
      <trkpt lat="45.3476" lon="6.19756">
        <ele>2476.3999023438</ele>
        <time>2014-03-02T12:31:32.000Z</time>
      </trkpt>
      <trkpt lat="45.3476" lon="6.19756">
        <ele>2476.3999023438</ele>
        <time>2014-03-02T12:31:33.000Z</time>
      </trkpt>
      <trkpt lat="45.3476" lon="6.19756">
        <ele>2476.3999023438</ele>
        <time>2014-03-02T12:31:34.000Z</time>
      </trkpt>
      <trkpt lat="45.3476" lon="6.19756">
        <ele>2476.3999023438</ele>
        <time>2014-03-02T12:31:35.000Z</time>
      </trkpt>
      <trkpt lat="45.3476" lon="6.19756">
        <ele>2476.3999023438</ele>
        <time>2014-03-02T12:31:36.000Z</time>
      </trkpt>
      <trkpt lat="45.34761" lon="6.19756">
        <ele>2476.6000976562</ele>
        <time>2014-03-02T12:31:37.000Z</time>
      </trkpt>
      <trkpt lat="45.34762" lon="6.19757">
        <ele>2476.6000976562</ele>
        <time>2014-03-02T12:31:38.000Z</time>
      </trkpt>
      <trkpt lat="45.34762" lon="6.19757">
        <ele>2476.8000488281</ele>
        <time>2014-03-02T12:31:39.000Z</time>
      </trkpt>
      <trkpt lat="45.34763" lon="6.19756">
        <ele>2477.1999511719</ele>
        <time>2014-03-02T12:31:40.000Z</time>
      </trkpt>
      <trkpt lat="45.34764" lon="6.19756">
        <ele>2477.3999023438</ele>
        <time>2014-03-02T12:31:41.000Z</time>
      </trkpt>
      <trkpt lat="45.34764" lon="6.19756">
        <ele>2477.8000488281</ele>
        <time>2014-03-02T12:31:42.000Z</time>
      </trkpt>
      <trkpt lat="45.34764" lon="6.19756">
        <ele>2477.8000488281</ele>
        <time>2014-03-02T12:31:43.000Z</time>
      </trkpt>
      <trkpt lat="45.34765" lon="6.19756">
        <ele>2477.8000488281</ele>
        <time>2014-03-02T12:31:44.000Z</time>
      </trkpt>
      <trkpt lat="45.34765" lon="6.19756">
        <ele>2478.1999511719</ele>
        <time>2014-03-02T12:31:46.000Z</time>
      </trkpt>
      <trkpt lat="45.34766" lon="6.19756">
        <ele>2478.1999511719</ele>
        <time>2014-03-02T12:31:47.000Z</time>
      </trkpt>
      <trkpt lat="45.34766" lon="6.19756">
        <ele>2478.1999511719</ele>
        <time>2014-03-02T12:31:48.000Z</time>
      </trkpt>
      <trkpt lat="45.34766" lon="6.19756">
        <ele>2478.3999023438</ele>
        <time>2014-03-02T12:31:49.000Z</time>
      </trkpt>
      <trkpt lat="45.34767" lon="6.19756">
        <ele>2478.6000976562</ele>
        <time>2014-03-02T12:31:50.000Z</time>
      </trkpt>
      <trkpt lat="45.34767" lon="6.19756">
        <ele>2478.8000488281</ele>
        <time>2014-03-02T12:31:51.000Z</time>
      </trkpt>
      <trkpt lat="45.34767" lon="6.19756">
        <ele>2478.8000488281</ele>
        <time>2014-03-02T12:31:52.000Z</time>
      </trkpt>
      <trkpt lat="45.34767" lon="6.19756">
        <ele>2478.8000488281</ele>
        <time>2014-03-02T12:31:53.000Z</time>
      </trkpt>
      <trkpt lat="45.34768" lon="6.19756">
        <ele>2479</ele>
        <time>2014-03-02T12:31:54.000Z</time>
      </trkpt>
      <trkpt lat="45.34768" lon="6.19756">
        <ele>2479</ele>
        <time>2014-03-02T12:31:55.000Z</time>
      </trkpt>
      <trkpt lat="45.34768" lon="6.19756">
        <ele>2479</ele>
        <time>2014-03-02T12:31:56.000Z</time>
      </trkpt>
      <trkpt lat="45.34769" lon="6.19756">
        <ele>2479.1999511719</ele>
        <time>2014-03-02T12:31:57.000Z</time>
      </trkpt>
      <trkpt lat="45.34769" lon="6.19756">
        <ele>2479.1999511719</ele>
        <time>2014-03-02T12:31:58.000Z</time>
      </trkpt>
      <trkpt lat="45.34769" lon="6.19756">
        <ele>2479.1999511719</ele>
        <time>2014-03-02T12:31:59.000Z</time>
      </trkpt>
      <trkpt lat="45.34769" lon="6.19756">
        <ele>2479.1999511719</ele>
        <time>2014-03-02T12:32:00.000Z</time>
      </trkpt>
      <trkpt lat="45.3477" lon="6.19757">
        <ele>2479.1999511719</ele>
        <time>2014-03-02T12:32:01.000Z</time>
      </trkpt>
      <trkpt lat="45.3477" lon="6.19757">
        <ele>2479.1999511719</ele>
        <time>2014-03-02T12:32:02.000Z</time>
      </trkpt>
      <trkpt lat="45.34771" lon="6.19757">
        <ele>2479.3999023438</ele>
        <time>2014-03-02T12:32:03.000Z</time>
      </trkpt>
      <trkpt lat="45.34771" lon="6.19757">
        <ele>2479.3999023438</ele>
        <time>2014-03-02T12:32:04.000Z</time>
      </trkpt>
      <trkpt lat="45.34771" lon="6.19758">
        <ele>2479.3999023438</ele>
        <time>2014-03-02T12:32:05.000Z</time>
      </trkpt>
      <trkpt lat="45.34771" lon="6.19757">
        <ele>2479.3999023438</ele>
        <time>2014-03-02T12:32:06.000Z</time>
      </trkpt>
      <trkpt lat="45.34771" lon="6.19757">
        <ele>2479.3999023438</ele>
        <time>2014-03-02T12:32:07.000Z</time>
      </trkpt>
      <trkpt lat="45.34772" lon="6.19757">
        <ele>2479.6000976562</ele>
        <time>2014-03-02T12:32:08.000Z</time>
      </trkpt>
      <trkpt lat="45.34772" lon="6.19757">
        <ele>2479.6000976562</ele>
        <time>2014-03-02T12:32:09.000Z</time>
      </trkpt>
      <trkpt lat="45.34772" lon="6.19757">
        <ele>2479.6000976562</ele>
        <time>2014-03-02T12:32:10.000Z</time>
      </trkpt>
      <trkpt lat="45.34772" lon="6.19758">
        <ele>2479.8000488281</ele>
        <time>2014-03-02T12:32:11.000Z</time>
      </trkpt>
      <trkpt lat="45.34772" lon="6.19758">
        <ele>2479.8000488281</ele>
        <time>2014-03-02T12:32:12.000Z</time>
      </trkpt>
      <trkpt lat="45.34773" lon="6.19758">
        <ele>2479.8000488281</ele>
        <time>2014-03-02T12:32:13.000Z</time>
      </trkpt>
      <trkpt lat="45.34773" lon="6.19758">
        <ele>2480</ele>
        <time>2014-03-02T12:32:14.000Z</time>
      </trkpt>
      <trkpt lat="45.34774" lon="6.19758">
        <ele>2480</ele>
        <time>2014-03-02T12:32:15.000Z</time>
      </trkpt>
      <trkpt lat="45.34775" lon="6.19759">
        <ele>2480.1999511719</ele>
        <time>2014-03-02T12:32:16.000Z</time>
      </trkpt>
      <trkpt lat="45.34775" lon="6.19759">
        <ele>2480.1999511719</ele>
        <time>2014-03-02T12:32:17.000Z</time>
      </trkpt>
      <trkpt lat="45.34775" lon="6.19759">
        <ele>2480.1999511719</ele>
        <time>2014-03-02T12:32:18.000Z</time>
      </trkpt>
      <trkpt lat="45.34776" lon="6.19758">
        <ele>2480.6000976562</ele>
        <time>2014-03-02T12:32:19.000Z</time>
      </trkpt>
      <trkpt lat="45.34776" lon="6.19758">
        <ele>2480.6000976562</ele>
        <time>2014-03-02T12:32:20.000Z</time>
      </trkpt>
      <trkpt lat="45.34777" lon="6.19758">
        <ele>2481</ele>
        <time>2014-03-02T12:32:21.000Z</time>
      </trkpt>
      <trkpt lat="45.34777" lon="6.19759">
        <ele>2481.1999511719</ele>
        <time>2014-03-02T12:32:22.000Z</time>
      </trkpt>
      <trkpt lat="45.34777" lon="6.19759">
        <ele>2481.1999511719</ele>
        <time>2014-03-02T12:32:23.000Z</time>
      </trkpt>
      <trkpt lat="45.34778" lon="6.19759">
        <ele>2481</ele>
        <time>2014-03-02T12:32:24.000Z</time>
      </trkpt>
      <trkpt lat="45.34779" lon="6.19759">
        <ele>2481.3999023438</ele>
        <time>2014-03-02T12:32:25.000Z</time>
      </trkpt>
      <trkpt lat="45.34779" lon="6.19759">
        <ele>2481.6000976562</ele>
        <time>2014-03-02T12:32:26.000Z</time>
      </trkpt>
      <trkpt lat="45.3478" lon="6.19759">
        <ele>2481.8000488281</ele>
        <time>2014-03-02T12:32:27.000Z</time>
      </trkpt>
      <trkpt lat="45.3478" lon="6.19759">
        <ele>2481.8000488281</ele>
        <time>2014-03-02T12:32:28.000Z</time>
      </trkpt>
      <trkpt lat="45.3478" lon="6.19759">
        <ele>2482</ele>
        <time>2014-03-02T12:32:29.000Z</time>
      </trkpt>
      <trkpt lat="45.3478" lon="6.19759">
        <ele>2482.1999511719</ele>
        <time>2014-03-02T12:32:30.000Z</time>
      </trkpt>
      <trkpt lat="45.34781" lon="6.19758">
        <ele>2482.3999023438</ele>
        <time>2014-03-02T12:32:31.000Z</time>
      </trkpt>
      <trkpt lat="45.34781" lon="6.19758">
        <ele>2482.6000976562</ele>
        <time>2014-03-02T12:32:32.000Z</time>
      </trkpt>
      <trkpt lat="45.34781" lon="6.19758">
        <ele>2482.6000976562</ele>
        <time>2014-03-02T12:32:33.000Z</time>
      </trkpt>
      <trkpt lat="45.34781" lon="6.19759">
        <ele>2482.3999023438</ele>
        <time>2014-03-02T12:32:34.000Z</time>
      </trkpt>
      <trkpt lat="45.34781" lon="6.19759">
        <ele>2482.3999023438</ele>
        <time>2014-03-02T12:32:35.000Z</time>
      </trkpt>
      <trkpt lat="45.34781" lon="6.19759">
        <ele>2482.3999023438</ele>
        <time>2014-03-02T12:32:36.000Z</time>
      </trkpt>
      <trkpt lat="45.34781" lon="6.19759">
        <ele>2482.3999023438</ele>
        <time>2014-03-02T12:32:37.000Z</time>
      </trkpt>
      <trkpt lat="45.34781" lon="6.19759">
        <ele>2482.3999023438</ele>
        <time>2014-03-02T12:32:38.000Z</time>
      </trkpt>
      <trkpt lat="45.34781" lon="6.19759">
        <ele>2482.3999023438</ele>
        <time>2014-03-02T12:32:39.000Z</time>
      </trkpt>
      <trkpt lat="45.34781" lon="6.19759">
        <ele>2482.3999023438</ele>
        <time>2014-03-02T12:32:40.000Z</time>
      </trkpt>
      <trkpt lat="45.34781" lon="6.19759">
        <ele>2482.3999023438</ele>
        <time>2014-03-02T12:32:41.000Z</time>
      </trkpt>
      <trkpt lat="45.34781" lon="6.19759">
        <ele>2482.3999023438</ele>
        <time>2014-03-02T12:32:42.000Z</time>
      </trkpt>
      <trkpt lat="45.34782" lon="6.19759">
        <ele>2482.6000976562</ele>
        <time>2014-03-02T12:32:43.000Z</time>
      </trkpt>
      <trkpt lat="45.34782" lon="6.19759">
        <ele>2482.6000976562</ele>
        <time>2014-03-02T12:32:44.000Z</time>
      </trkpt>
      <trkpt lat="45.34783" lon="6.19759">
        <ele>2482.6000976562</ele>
        <time>2014-03-02T12:32:45.000Z</time>
      </trkpt>
      <trkpt lat="45.34783" lon="6.19759">
        <ele>2482.8000488281</ele>
        <time>2014-03-02T12:32:46.000Z</time>
      </trkpt>
      <trkpt lat="45.34784" lon="6.1976">
        <ele>2482.8000488281</ele>
        <time>2014-03-02T12:32:47.000Z</time>
      </trkpt>
      <trkpt lat="45.34785" lon="6.1976">
        <ele>2483</ele>
        <time>2014-03-02T12:32:48.000Z</time>
      </trkpt>
      <trkpt lat="45.34786" lon="6.1976">
        <ele>2483.1999511719</ele>
        <time>2014-03-02T12:32:49.000Z</time>
      </trkpt>
      <trkpt lat="45.34787" lon="6.1976">
        <ele>2483.6000976562</ele>
        <time>2014-03-02T12:32:50.000Z</time>
      </trkpt>
      <trkpt lat="45.34787" lon="6.19761">
        <ele>2483.6000976562</ele>
        <time>2014-03-02T12:32:51.000Z</time>
      </trkpt>
      <trkpt lat="45.34788" lon="6.19761">
        <ele>2483.6000976562</ele>
        <time>2014-03-02T12:32:52.000Z</time>
      </trkpt>
      <trkpt lat="45.34788" lon="6.19761">
        <ele>2483.6000976562</ele>
        <time>2014-03-02T12:32:53.000Z</time>
      </trkpt>
      <trkpt lat="45.34788" lon="6.19761">
        <ele>2483.6000976562</ele>
        <time>2014-03-02T12:32:54.000Z</time>
      </trkpt>
      <trkpt lat="45.34788" lon="6.19761">
        <ele>2483.6000976562</ele>
        <time>2014-03-02T12:32:55.000Z</time>
      </trkpt>
      <trkpt lat="45.34788" lon="6.19761">
        <ele>2483.6000976562</ele>
        <time>2014-03-02T12:32:56.000Z</time>
      </trkpt>
      <trkpt lat="45.34788" lon="6.19761">
        <ele>2483.6000976562</ele>
        <time>2014-03-02T12:32:57.000Z</time>
      </trkpt>
      <trkpt lat="45.34788" lon="6.19761">
        <ele>2483.6000976562</ele>
        <time>2014-03-02T12:32:58.000Z</time>
      </trkpt>
      <trkpt lat="45.34788" lon="6.19761">
        <ele>2483.6000976562</ele>
        <time>2014-03-02T12:32:59.000Z</time>
      </trkpt>
      <trkpt lat="45.34788" lon="6.19761">
        <ele>2483.6000976562</ele>
        <time>2014-03-02T12:33:00.000Z</time>
      </trkpt>
      <trkpt lat="45.34788" lon="6.19761">
        <ele>2483.6000976562</ele>
        <time>2014-03-02T12:33:01.000Z</time>
      </trkpt>
      <trkpt lat="45.34788" lon="6.19761">
        <ele>2483.6000976562</ele>
        <time>2014-03-02T12:33:06.000Z</time>
      </trkpt>
      <trkpt lat="45.34788" lon="6.19761">
        <ele>2483.6000976562</ele>
        <time>2014-03-02T12:33:07.000Z</time>
      </trkpt>
      <trkpt lat="45.34788" lon="6.19761">
        <ele>2483.6000976562</ele>
        <time>2014-03-02T12:33:10.000Z</time>
      </trkpt>
      <trkpt lat="45.34789" lon="6.19761">
        <ele>2483.8000488281</ele>
        <time>2014-03-02T12:33:13.000Z</time>
      </trkpt>
      <trkpt lat="45.34789" lon="6.19761">
        <ele>2483.8000488281</ele>
        <time>2014-03-02T12:33:14.000Z</time>
      </trkpt>
      <trkpt lat="45.3479" lon="6.19762">
        <ele>2483.8000488281</ele>
        <time>2014-03-02T12:33:15.000Z</time>
      </trkpt>
      <trkpt lat="45.3479" lon="6.19762">
        <ele>2484</ele>
        <time>2014-03-02T12:33:16.000Z</time>
      </trkpt>
      <trkpt lat="45.34791" lon="6.19761">
        <ele>2484.3999023438</ele>
        <time>2014-03-02T12:33:18.000Z</time>
      </trkpt>
      <trkpt lat="45.34791" lon="6.19761">
        <ele>2484.8000488281</ele>
        <time>2014-03-02T12:33:19.000Z</time>
      </trkpt>
      <trkpt lat="45.34791" lon="6.1976">
        <ele>2485.1999511719</ele>
        <time>2014-03-02T12:33:20.000Z</time>
      </trkpt>
      <trkpt lat="45.34791" lon="6.1976">
        <ele>2485.1999511719</ele>
        <time>2014-03-02T12:33:21.000Z</time>
      </trkpt>
      <trkpt lat="45.34791" lon="6.1976">
        <ele>2485.1999511719</ele>
        <time>2014-03-02T12:33:22.000Z</time>
      </trkpt>
      <trkpt lat="45.34791" lon="6.1976">
        <ele>2485.1999511719</ele>
        <time>2014-03-02T12:33:23.000Z</time>
      </trkpt>
      <trkpt lat="45.34791" lon="6.1976">
        <ele>2485.1999511719</ele>
        <time>2014-03-02T12:33:24.000Z</time>
      </trkpt>
      <trkpt lat="45.34791" lon="6.1976">
        <ele>2485.1999511719</ele>
        <time>2014-03-02T12:33:25.000Z</time>
      </trkpt>
      <trkpt lat="45.34791" lon="6.1976">
        <ele>2485.1999511719</ele>
        <time>2014-03-02T12:33:26.000Z</time>
      </trkpt>
      <trkpt lat="45.34791" lon="6.1976">
        <ele>2485.1999511719</ele>
        <time>2014-03-02T12:33:27.000Z</time>
      </trkpt>
      <trkpt lat="45.34791" lon="6.1976">
        <ele>2485.1999511719</ele>
        <time>2014-03-02T12:33:28.000Z</time>
      </trkpt>
      <trkpt lat="45.34791" lon="6.1976">
        <ele>2485.1999511719</ele>
        <time>2014-03-02T12:33:29.000Z</time>
      </trkpt>
      <trkpt lat="45.34791" lon="6.1976">
        <ele>2485.1999511719</ele>
        <time>2014-03-02T12:33:30.000Z</time>
      </trkpt>
      <trkpt lat="45.34791" lon="6.1976">
        <ele>2485.1999511719</ele>
        <time>2014-03-02T12:33:31.000Z</time>
      </trkpt>
      <trkpt lat="45.34791" lon="6.1976">
        <ele>2485.1999511719</ele>
        <time>2014-03-02T12:33:34.000Z</time>
      </trkpt>
      <trkpt lat="45.34791" lon="6.1976">
        <ele>2485.1999511719</ele>
        <time>2014-03-02T12:33:35.000Z</time>
      </trkpt>
      <trkpt lat="45.34791" lon="6.1976">
        <ele>2485.1999511719</ele>
        <time>2014-03-02T12:33:36.000Z</time>
      </trkpt>
      <trkpt lat="45.34791" lon="6.1976">
        <ele>2485.1999511719</ele>
        <time>2014-03-02T12:33:37.000Z</time>
      </trkpt>
      <trkpt lat="45.34791" lon="6.1976">
        <ele>2485.1999511719</ele>
        <time>2014-03-02T12:33:38.000Z</time>
      </trkpt>
      <trkpt lat="45.34791" lon="6.1976">
        <ele>2485.1999511719</ele>
        <time>2014-03-02T12:33:39.000Z</time>
      </trkpt>
      <trkpt lat="45.34791" lon="6.1976">
        <ele>2485.1999511719</ele>
        <time>2014-03-02T12:33:40.000Z</time>
      </trkpt>
      <trkpt lat="45.34791" lon="6.1976">
        <ele>2485.1999511719</ele>
        <time>2014-03-02T12:33:41.000Z</time>
      </trkpt>
      <trkpt lat="45.34791" lon="6.1976">
        <ele>2485.1999511719</ele>
        <time>2014-03-02T12:33:45.000Z</time>
      </trkpt>
      <trkpt lat="45.34791" lon="6.1976">
        <ele>2485.1999511719</ele>
        <time>2014-03-02T12:33:46.000Z</time>
      </trkpt>
      <trkpt lat="45.34791" lon="6.1976">
        <ele>2485.1999511719</ele>
        <time>2014-03-02T12:33:47.000Z</time>
      </trkpt>
      <trkpt lat="45.34791" lon="6.1976">
        <ele>2485.1999511719</ele>
        <time>2014-03-02T12:33:49.000Z</time>
      </trkpt>
      <trkpt lat="45.34791" lon="6.1976">
        <ele>2485.1999511719</ele>
        <time>2014-03-02T12:33:50.000Z</time>
      </trkpt>
      <trkpt lat="45.34791" lon="6.1976">
        <ele>2485.1999511719</ele>
        <time>2014-03-02T12:33:51.000Z</time>
      </trkpt>
      <trkpt lat="45.34791" lon="6.1976">
        <ele>2485.1999511719</ele>
        <time>2014-03-02T12:33:53.000Z</time>
      </trkpt>
      <trkpt lat="45.34791" lon="6.1976">
        <ele>2485.1999511719</ele>
        <time>2014-03-02T12:33:54.000Z</time>
      </trkpt>
      <trkpt lat="45.34791" lon="6.1976">
        <ele>2485.1999511719</ele>
        <time>2014-03-02T12:33:55.000Z</time>
      </trkpt>
      <trkpt lat="45.34791" lon="6.1976">
        <ele>2485.1999511719</ele>
        <time>2014-03-02T12:33:56.000Z</time>
      </trkpt>
      <trkpt lat="45.34791" lon="6.1976">
        <ele>2485.1999511719</ele>
        <time>2014-03-02T12:33:57.000Z</time>
      </trkpt>
      <trkpt lat="45.34791" lon="6.1976">
        <ele>2485.1999511719</ele>
        <time>2014-03-02T12:33:59.000Z</time>
      </trkpt>
      <trkpt lat="45.34791" lon="6.1976">
        <ele>2485.1999511719</ele>
        <time>2014-03-02T12:34:00.000Z</time>
      </trkpt>
      <trkpt lat="45.34791" lon="6.1976">
        <ele>2485.1999511719</ele>
        <time>2014-03-02T12:34:02.000Z</time>
      </trkpt>
      <trkpt lat="45.34791" lon="6.1976">
        <ele>2485.1999511719</ele>
        <time>2014-03-02T12:34:05.000Z</time>
      </trkpt>
      <trkpt lat="45.34791" lon="6.1976">
        <ele>2485.1999511719</ele>
        <time>2014-03-02T12:34:08.000Z</time>
      </trkpt>
      <trkpt lat="45.34792" lon="6.19761">
        <ele>2485</ele>
        <time>2014-03-02T12:34:09.000Z</time>
      </trkpt>
      <trkpt lat="45.34793" lon="6.19761">
        <ele>2485</ele>
        <time>2014-03-02T12:34:10.000Z</time>
      </trkpt>
      <trkpt lat="45.34793" lon="6.19762">
        <ele>2485.1999511719</ele>
        <time>2014-03-02T12:34:11.000Z</time>
      </trkpt>
      <trkpt lat="45.34794" lon="6.19762">
        <ele>2485</ele>
        <time>2014-03-02T12:34:12.000Z</time>
      </trkpt>
      <trkpt lat="45.34794" lon="6.19763">
        <ele>2484.8000488281</ele>
        <time>2014-03-02T12:34:13.000Z</time>
      </trkpt>
      <trkpt lat="45.34795" lon="6.19763">
        <ele>2484.8000488281</ele>
        <time>2014-03-02T12:34:14.000Z</time>
      </trkpt>
      <trkpt lat="45.34795" lon="6.19764">
        <ele>2484.8000488281</ele>
        <time>2014-03-02T12:34:15.000Z</time>
      </trkpt>
      <trkpt lat="45.34795" lon="6.19764">
        <ele>2484.8000488281</ele>
        <time>2014-03-02T12:34:16.000Z</time>
      </trkpt>
      <trkpt lat="45.34796" lon="6.19764">
        <ele>2485</ele>
        <time>2014-03-02T12:34:17.000Z</time>
      </trkpt>
      <trkpt lat="45.34796" lon="6.19764">
        <ele>2485</ele>
        <time>2014-03-02T12:34:18.000Z</time>
      </trkpt>
      <trkpt lat="45.34797" lon="6.19764">
        <ele>2485.1999511719</ele>
        <time>2014-03-02T12:34:19.000Z</time>
      </trkpt>
      <trkpt lat="45.34797" lon="6.19764">
        <ele>2485.1999511719</ele>
        <time>2014-03-02T12:34:20.000Z</time>
      </trkpt>
      <trkpt lat="45.34798" lon="6.19765">
        <ele>2485.1999511719</ele>
        <time>2014-03-02T12:34:21.000Z</time>
      </trkpt>
      <trkpt lat="45.34799" lon="6.19765">
        <ele>2485</ele>
        <time>2014-03-02T12:34:22.000Z</time>
      </trkpt>
      <trkpt lat="45.34799" lon="6.19765">
        <ele>2485.1999511719</ele>
        <time>2014-03-02T12:34:23.000Z</time>
      </trkpt>
      <trkpt lat="45.348" lon="6.19765">
        <ele>2485</ele>
        <time>2014-03-02T12:34:24.000Z</time>
      </trkpt>
      <trkpt lat="45.34801" lon="6.19766">
        <ele>2484.8000488281</ele>
        <time>2014-03-02T12:34:25.000Z</time>
      </trkpt>
      <trkpt lat="45.34802" lon="6.19766">
        <ele>2484.8000488281</ele>
        <time>2014-03-02T12:34:26.000Z</time>
      </trkpt>
      <trkpt lat="45.34803" lon="6.19767">
        <ele>2484.6000976562</ele>
        <time>2014-03-02T12:34:27.000Z</time>
      </trkpt>
      <trkpt lat="45.34803" lon="6.19767">
        <ele>2484.3999023438</ele>
        <time>2014-03-02T12:34:28.000Z</time>
      </trkpt>
      <trkpt lat="45.34804" lon="6.19767">
        <ele>2484.3999023438</ele>
        <time>2014-03-02T12:34:29.000Z</time>
      </trkpt>
      <trkpt lat="45.34805" lon="6.19768">
        <ele>2484.1999511719</ele>
        <time>2014-03-02T12:34:30.000Z</time>
      </trkpt>
      <trkpt lat="45.34806" lon="6.19768">
        <ele>2484.1999511719</ele>
        <time>2014-03-02T12:34:31.000Z</time>
      </trkpt>
      <trkpt lat="45.34806" lon="6.19768">
        <ele>2484.1999511719</ele>
        <time>2014-03-02T12:34:32.000Z</time>
      </trkpt>
      <trkpt lat="45.34807" lon="6.19768">
        <ele>2484.1999511719</ele>
        <time>2014-03-02T12:34:33.000Z</time>
      </trkpt>
      <trkpt lat="45.34807" lon="6.19768">
        <ele>2484.1999511719</ele>
        <time>2014-03-02T12:34:34.000Z</time>
      </trkpt>
      <trkpt lat="45.34807" lon="6.19768">
        <ele>2484.1999511719</ele>
        <time>2014-03-02T12:34:35.000Z</time>
      </trkpt>
      <trkpt lat="45.34807" lon="6.19768">
        <ele>2484.1999511719</ele>
        <time>2014-03-02T12:34:36.000Z</time>
      </trkpt>
      <trkpt lat="45.34807" lon="6.19768">
        <ele>2484.1999511719</ele>
        <time>2014-03-02T12:34:37.000Z</time>
      </trkpt>
      <trkpt lat="45.34807" lon="6.19768">
        <ele>2484.1999511719</ele>
        <time>2014-03-02T12:34:38.000Z</time>
      </trkpt>
      <trkpt lat="45.34807" lon="6.19768">
        <ele>2484.1999511719</ele>
        <time>2014-03-02T12:34:39.000Z</time>
      </trkpt>
      <trkpt lat="45.34807" lon="6.19768">
        <ele>2484.1999511719</ele>
        <time>2014-03-02T12:34:40.000Z</time>
      </trkpt>
      <trkpt lat="45.34807" lon="6.19768">
        <ele>2484.1999511719</ele>
        <time>2014-03-02T12:34:41.000Z</time>
      </trkpt>
      <trkpt lat="45.34807" lon="6.19768">
        <ele>2484.1999511719</ele>
        <time>2014-03-02T12:34:42.000Z</time>
      </trkpt>
      <trkpt lat="45.34807" lon="6.19768">
        <ele>2484.1999511719</ele>
        <time>2014-03-02T12:34:43.000Z</time>
      </trkpt>
      <trkpt lat="45.34807" lon="6.19768">
        <ele>2484.1999511719</ele>
        <time>2014-03-02T12:34:44.000Z</time>
      </trkpt>
      <trkpt lat="45.34807" lon="6.19768">
        <ele>2484.1999511719</ele>
        <time>2014-03-02T12:34:45.000Z</time>
      </trkpt>
      <trkpt lat="45.34807" lon="6.19768">
        <ele>2484.1999511719</ele>
        <time>2014-03-02T12:34:47.000Z</time>
      </trkpt>
      <trkpt lat="45.34807" lon="6.19768">
        <ele>2484.1999511719</ele>
        <time>2014-03-02T12:34:48.000Z</time>
      </trkpt>
      <trkpt lat="45.34807" lon="6.19768">
        <ele>2484.1999511719</ele>
        <time>2014-03-02T12:34:49.000Z</time>
      </trkpt>
      <trkpt lat="45.34807" lon="6.19768">
        <ele>2484.1999511719</ele>
        <time>2014-03-02T12:34:50.000Z</time>
      </trkpt>
      <trkpt lat="45.34807" lon="6.19768">
        <ele>2484.1999511719</ele>
        <time>2014-03-02T12:34:51.000Z</time>
      </trkpt>
      <trkpt lat="45.34807" lon="6.19768">
        <ele>2484.1999511719</ele>
        <time>2014-03-02T12:34:52.000Z</time>
      </trkpt>
      <trkpt lat="45.34807" lon="6.19768">
        <ele>2484.1999511719</ele>
        <time>2014-03-02T12:34:53.000Z</time>
      </trkpt>
      <trkpt lat="45.34807" lon="6.19768">
        <ele>2484.1999511719</ele>
        <time>2014-03-02T12:34:56.000Z</time>
      </trkpt>
      <trkpt lat="45.34808" lon="6.19769">
        <ele>2484</ele>
        <time>2014-03-02T12:34:57.000Z</time>
      </trkpt>
      <trkpt lat="45.34808" lon="6.19769">
        <ele>2483.8000488281</ele>
        <time>2014-03-02T12:34:58.000Z</time>
      </trkpt>
      <trkpt lat="45.34809" lon="6.19769">
        <ele>2483.8000488281</ele>
        <time>2014-03-02T12:34:59.000Z</time>
      </trkpt>
      <trkpt lat="45.3481" lon="6.19769">
        <ele>2483.8000488281</ele>
        <time>2014-03-02T12:35:00.000Z</time>
      </trkpt>
      <trkpt lat="45.3481" lon="6.1977">
        <ele>2483.8000488281</ele>
        <time>2014-03-02T12:35:01.000Z</time>
      </trkpt>
      <trkpt lat="45.34811" lon="6.1977">
        <ele>2483.6000976562</ele>
        <time>2014-03-02T12:35:02.000Z</time>
      </trkpt>
      <trkpt lat="45.34812" lon="6.1977">
        <ele>2483.6000976562</ele>
        <time>2014-03-02T12:35:03.000Z</time>
      </trkpt>
      <trkpt lat="45.34813" lon="6.19771">
        <ele>2483.6000976562</ele>
        <time>2014-03-02T12:35:04.000Z</time>
      </trkpt>
      <trkpt lat="45.34814" lon="6.19771">
        <ele>2483.6000976562</ele>
        <time>2014-03-02T12:35:05.000Z</time>
      </trkpt>
      <trkpt lat="45.34814" lon="6.19771">
        <ele>2483.6000976562</ele>
        <time>2014-03-02T12:35:06.000Z</time>
      </trkpt>
      <trkpt lat="45.34815" lon="6.19771">
        <ele>2483.8000488281</ele>
        <time>2014-03-02T12:35:07.000Z</time>
      </trkpt>
      <trkpt lat="45.34816" lon="6.19771">
        <ele>2483.6000976562</ele>
        <time>2014-03-02T12:35:08.000Z</time>
      </trkpt>
      <trkpt lat="45.34816" lon="6.19771">
        <ele>2483.3999023438</ele>
        <time>2014-03-02T12:35:09.000Z</time>
      </trkpt>
      <trkpt lat="45.34816" lon="6.19772">
        <ele>2483.1999511719</ele>
        <time>2014-03-02T12:35:10.000Z</time>
      </trkpt>
      <trkpt lat="45.34817" lon="6.19772">
        <ele>2483</ele>
        <time>2014-03-02T12:35:11.000Z</time>
      </trkpt>
      <trkpt lat="45.34817" lon="6.19773">
        <ele>2482.8000488281</ele>
        <time>2014-03-02T12:35:12.000Z</time>
      </trkpt>
      <trkpt lat="45.34817" lon="6.19773">
        <ele>2482.8000488281</ele>
        <time>2014-03-02T12:35:13.000Z</time>
      </trkpt>
      <trkpt lat="45.34817" lon="6.19773">
        <ele>2482.8000488281</ele>
        <time>2014-03-02T12:35:14.000Z</time>
      </trkpt>
      <trkpt lat="45.34817" lon="6.19773">
        <ele>2482.8000488281</ele>
        <time>2014-03-02T12:35:15.000Z</time>
      </trkpt>
      <trkpt lat="45.34817" lon="6.19773">
        <ele>2482.8000488281</ele>
        <time>2014-03-02T12:35:16.000Z</time>
      </trkpt>
      <trkpt lat="45.34817" lon="6.19773">
        <ele>2482.8000488281</ele>
        <time>2014-03-02T12:35:17.000Z</time>
      </trkpt>
      <trkpt lat="45.34817" lon="6.19773">
        <ele>2482.8000488281</ele>
        <time>2014-03-02T12:35:18.000Z</time>
      </trkpt>
      <trkpt lat="45.34817" lon="6.19773">
        <ele>2482.8000488281</ele>
        <time>2014-03-02T12:35:22.000Z</time>
      </trkpt>
      <trkpt lat="45.34818" lon="6.19773">
        <ele>2482.8000488281</ele>
        <time>2014-03-02T12:35:25.000Z</time>
      </trkpt>
      <trkpt lat="45.34819" lon="6.19774">
        <ele>2482.6000976562</ele>
        <time>2014-03-02T12:35:26.000Z</time>
      </trkpt>
      <trkpt lat="45.34819" lon="6.19774">
        <ele>2482.6000976562</ele>
        <time>2014-03-02T12:35:27.000Z</time>
      </trkpt>
      <trkpt lat="45.34819" lon="6.19774">
        <ele>2482.6000976562</ele>
        <time>2014-03-02T12:35:28.000Z</time>
      </trkpt>
      <trkpt lat="45.34819" lon="6.19774">
        <ele>2482.6000976562</ele>
        <time>2014-03-02T12:35:29.000Z</time>
      </trkpt>
      <trkpt lat="45.34819" lon="6.19773">
        <ele>2483</ele>
        <time>2014-03-02T12:35:30.000Z</time>
      </trkpt>
      <trkpt lat="45.34819" lon="6.19771">
        <ele>2483.6000976562</ele>
        <time>2014-03-02T12:35:31.000Z</time>
      </trkpt>
      <trkpt lat="45.34818" lon="6.19769">
        <ele>2484.6000976562</ele>
        <time>2014-03-02T12:35:32.000Z</time>
      </trkpt>
      <trkpt lat="45.34817" lon="6.19766">
        <ele>2486.1999511719</ele>
        <time>2014-03-02T12:35:34.000Z</time>
      </trkpt>
      <trkpt lat="45.34817" lon="6.19765">
        <ele>2486.8000488281</ele>
        <time>2014-03-02T12:35:35.000Z</time>
      </trkpt>
      <trkpt lat="45.34817" lon="6.19765">
        <ele>2486.8000488281</ele>
        <time>2014-03-02T12:35:36.000Z</time>
      </trkpt>
      <trkpt lat="45.34817" lon="6.19764">
        <ele>2487.1999511719</ele>
        <time>2014-03-02T12:35:37.000Z</time>
      </trkpt>
      <trkpt lat="45.34817" lon="6.19764">
        <ele>2487.1999511719</ele>
        <time>2014-03-02T12:35:38.000Z</time>
      </trkpt>
      <trkpt lat="45.34817" lon="6.19764">
        <ele>2487.3999023438</ele>
        <time>2014-03-02T12:35:39.000Z</time>
      </trkpt>
      <trkpt lat="45.34816" lon="6.19762">
        <ele>2487.8000488281</ele>
        <time>2014-03-02T12:35:40.000Z</time>
      </trkpt>
      <trkpt lat="45.34816" lon="6.19762">
        <ele>2488</ele>
        <time>2014-03-02T12:35:41.000Z</time>
      </trkpt>
      <trkpt lat="45.34816" lon="6.19761">
        <ele>2488.3999023438</ele>
        <time>2014-03-02T12:35:42.000Z</time>
      </trkpt>
      <trkpt lat="45.34816" lon="6.19761">
        <ele>2488.3999023438</ele>
        <time>2014-03-02T12:35:43.000Z</time>
      </trkpt>
      <trkpt lat="45.34816" lon="6.19761">
        <ele>2488.3999023438</ele>
        <time>2014-03-02T12:35:44.000Z</time>
      </trkpt>
      <trkpt lat="45.34816" lon="6.19761">
        <ele>2488.3999023438</ele>
        <time>2014-03-02T12:35:45.000Z</time>
      </trkpt>
      <trkpt lat="45.34816" lon="6.19761">
        <ele>2488.3999023438</ele>
        <time>2014-03-02T12:35:46.000Z</time>
      </trkpt>
      <trkpt lat="45.34816" lon="6.19761">
        <ele>2488.3999023438</ele>
        <time>2014-03-02T12:35:47.000Z</time>
      </trkpt>
      <trkpt lat="45.34816" lon="6.19761">
        <ele>2488.6000976562</ele>
        <time>2014-03-02T12:35:48.000Z</time>
      </trkpt>
      <trkpt lat="45.34816" lon="6.1976">
        <ele>2489.1999511719</ele>
        <time>2014-03-02T12:35:49.000Z</time>
      </trkpt>
      <trkpt lat="45.34816" lon="6.19758">
        <ele>2490</ele>
        <time>2014-03-02T12:35:50.000Z</time>
      </trkpt>
      <trkpt lat="45.34816" lon="6.19757">
        <ele>2490.3999023438</ele>
        <time>2014-03-02T12:35:51.000Z</time>
      </trkpt>
      <trkpt lat="45.34816" lon="6.19757">
        <ele>2490.6000976562</ele>
        <time>2014-03-02T12:35:52.000Z</time>
      </trkpt>
      <trkpt lat="45.34816" lon="6.19756">
        <ele>2491</ele>
        <time>2014-03-02T12:35:53.000Z</time>
      </trkpt>
      <trkpt lat="45.34816" lon="6.19755">
        <ele>2491.6000976562</ele>
        <time>2014-03-02T12:35:54.000Z</time>
      </trkpt>
      <trkpt lat="45.34816" lon="6.19754">
        <ele>2492</ele>
        <time>2014-03-02T12:35:55.000Z</time>
      </trkpt>
      <trkpt lat="45.34816" lon="6.19754">
        <ele>2492</ele>
        <time>2014-03-02T12:35:56.000Z</time>
      </trkpt>
      <trkpt lat="45.34816" lon="6.19754">
        <ele>2492</ele>
        <time>2014-03-02T12:35:57.000Z</time>
      </trkpt>
      <trkpt lat="45.34816" lon="6.19754">
        <ele>2492</ele>
        <time>2014-03-02T12:35:58.000Z</time>
      </trkpt>
      <trkpt lat="45.34815" lon="6.19753">
        <ele>2492.3999023438</ele>
        <time>2014-03-02T12:35:59.000Z</time>
      </trkpt>
      <trkpt lat="45.34815" lon="6.19753">
        <ele>2492.3999023438</ele>
        <time>2014-03-02T12:36:00.000Z</time>
      </trkpt>
      <trkpt lat="45.34815" lon="6.19752">
        <ele>2493</ele>
        <time>2014-03-02T12:36:01.000Z</time>
      </trkpt>
      <trkpt lat="45.34815" lon="6.19752">
        <ele>2493</ele>
        <time>2014-03-02T12:36:02.000Z</time>
      </trkpt>
      <trkpt lat="45.34815" lon="6.19752">
        <ele>2493</ele>
        <time>2014-03-02T12:36:03.000Z</time>
      </trkpt>
      <trkpt lat="45.34815" lon="6.19752">
        <ele>2493</ele>
        <time>2014-03-02T12:36:04.000Z</time>
      </trkpt>
      <trkpt lat="45.34815" lon="6.19752">
        <ele>2493</ele>
        <time>2014-03-02T12:36:05.000Z</time>
      </trkpt>
      <trkpt lat="45.34815" lon="6.19752">
        <ele>2493</ele>
        <time>2014-03-02T12:36:06.000Z</time>
      </trkpt>
      <trkpt lat="45.34815" lon="6.19752">
        <ele>2493</ele>
        <time>2014-03-02T12:36:07.000Z</time>
      </trkpt>
      <trkpt lat="45.34815" lon="6.19752">
        <ele>2493</ele>
        <time>2014-03-02T12:36:08.000Z</time>
      </trkpt>
      <trkpt lat="45.34815" lon="6.19752">
        <ele>2493</ele>
        <time>2014-03-02T12:36:09.000Z</time>
      </trkpt>
      <trkpt lat="45.34815" lon="6.19752">
        <ele>2493</ele>
        <time>2014-03-02T12:36:10.000Z</time>
      </trkpt>
      <trkpt lat="45.34815" lon="6.19752">
        <ele>2493</ele>
        <time>2014-03-02T12:36:11.000Z</time>
      </trkpt>
      <trkpt lat="45.34815" lon="6.19752">
        <ele>2493</ele>
        <time>2014-03-02T12:36:12.000Z</time>
      </trkpt>
      <trkpt lat="45.34815" lon="6.19752">
        <ele>2493</ele>
        <time>2014-03-02T12:36:13.000Z</time>
      </trkpt>
      <trkpt lat="45.34815" lon="6.19752">
        <ele>2493</ele>
        <time>2014-03-02T12:36:17.000Z</time>
      </trkpt>
      <trkpt lat="45.34815" lon="6.19752">
        <ele>2493</ele>
        <time>2014-03-02T12:36:18.000Z</time>
      </trkpt>
      <trkpt lat="45.34815" lon="6.19752">
        <ele>2493</ele>
        <time>2014-03-02T12:36:19.000Z</time>
      </trkpt>
      <trkpt lat="45.34815" lon="6.19752">
        <ele>2493</ele>
        <time>2014-03-02T12:36:20.000Z</time>
      </trkpt>
      <trkpt lat="45.34815" lon="6.19752">
        <ele>2493</ele>
        <time>2014-03-02T12:36:21.000Z</time>
      </trkpt>
      <trkpt lat="45.34815" lon="6.19752">
        <ele>2493</ele>
        <time>2014-03-02T12:36:24.000Z</time>
      </trkpt>
      <trkpt lat="45.34815" lon="6.19752">
        <ele>2493</ele>
        <time>2014-03-02T12:36:25.000Z</time>
      </trkpt>
      <trkpt lat="45.34815" lon="6.19752">
        <ele>2493</ele>
        <time>2014-03-02T12:36:26.000Z</time>
      </trkpt>
      <trkpt lat="45.34815" lon="6.19752">
        <ele>2493</ele>
        <time>2014-03-02T12:36:27.000Z</time>
      </trkpt>
      <trkpt lat="45.34815" lon="6.19752">
        <ele>2493</ele>
        <time>2014-03-02T12:36:28.000Z</time>
      </trkpt>
      <trkpt lat="45.34815" lon="6.19752">
        <ele>2493</ele>
        <time>2014-03-02T12:36:29.000Z</time>
      </trkpt>
      <trkpt lat="45.34815" lon="6.19752">
        <ele>2493</ele>
        <time>2014-03-02T12:36:30.000Z</time>
      </trkpt>
      <trkpt lat="45.34815" lon="6.19752">
        <ele>2493</ele>
        <time>2014-03-02T12:36:31.000Z</time>
      </trkpt>
      <trkpt lat="45.34815" lon="6.19752">
        <ele>2493</ele>
        <time>2014-03-02T12:36:32.000Z</time>
      </trkpt>
      <trkpt lat="45.34815" lon="6.19752">
        <ele>2493</ele>
        <time>2014-03-02T12:36:33.000Z</time>
      </trkpt>
      <trkpt lat="45.34815" lon="6.19752">
        <ele>2493</ele>
        <time>2014-03-02T12:36:34.000Z</time>
      </trkpt>
      <trkpt lat="45.34815" lon="6.19752">
        <ele>2493</ele>
        <time>2014-03-02T12:36:35.000Z</time>
      </trkpt>
      <trkpt lat="45.34815" lon="6.19752">
        <ele>2493</ele>
        <time>2014-03-02T12:36:36.000Z</time>
      </trkpt>
      <trkpt lat="45.34815" lon="6.19752">
        <ele>2493</ele>
        <time>2014-03-02T12:36:37.000Z</time>
      </trkpt>
      <trkpt lat="45.34815" lon="6.19752">
        <ele>2493</ele>
        <time>2014-03-02T12:36:38.000Z</time>
      </trkpt>
      <trkpt lat="45.34815" lon="6.19752">
        <ele>2493</ele>
        <time>2014-03-02T12:36:39.000Z</time>
      </trkpt>
      <trkpt lat="45.34815" lon="6.19752">
        <ele>2493</ele>
        <time>2014-03-02T12:36:40.000Z</time>
      </trkpt>
      <trkpt lat="45.34815" lon="6.19752">
        <ele>2493</ele>
        <time>2014-03-02T12:36:41.000Z</time>
      </trkpt>
      <trkpt lat="45.34815" lon="6.19752">
        <ele>2493</ele>
        <time>2014-03-02T12:36:42.000Z</time>
      </trkpt>
      <trkpt lat="45.34815" lon="6.19752">
        <ele>2493</ele>
        <time>2014-03-02T12:36:43.000Z</time>
      </trkpt>
      <trkpt lat="45.34815" lon="6.19752">
        <ele>2493</ele>
        <time>2014-03-02T12:36:44.000Z</time>
      </trkpt>
      <trkpt lat="45.34815" lon="6.19752">
        <ele>2493</ele>
        <time>2014-03-02T12:36:45.000Z</time>
      </trkpt>
      <trkpt lat="45.34815" lon="6.19752">
        <ele>2493</ele>
        <time>2014-03-02T12:36:46.000Z</time>
      </trkpt>
      <trkpt lat="45.34815" lon="6.19752">
        <ele>2493</ele>
        <time>2014-03-02T12:36:47.000Z</time>
      </trkpt>
      <trkpt lat="45.34815" lon="6.19752">
        <ele>2493</ele>
        <time>2014-03-02T12:36:48.000Z</time>
      </trkpt>
      <trkpt lat="45.34815" lon="6.19752">
        <ele>2493</ele>
        <time>2014-03-02T12:36:49.000Z</time>
      </trkpt>
      <trkpt lat="45.34815" lon="6.19752">
        <ele>2493</ele>
        <time>2014-03-02T12:36:50.000Z</time>
      </trkpt>
      <trkpt lat="45.34815" lon="6.19752">
        <ele>2493</ele>
        <time>2014-03-02T12:36:51.000Z</time>
      </trkpt>
      <trkpt lat="45.34815" lon="6.19752">
        <ele>2493</ele>
        <time>2014-03-02T12:36:52.000Z</time>
      </trkpt>
      <trkpt lat="45.34815" lon="6.19752">
        <ele>2493</ele>
        <time>2014-03-02T12:36:53.000Z</time>
      </trkpt>
      <trkpt lat="45.34815" lon="6.19752">
        <ele>2493</ele>
        <time>2014-03-02T12:36:54.000Z</time>
      </trkpt>
      <trkpt lat="45.34815" lon="6.19752">
        <ele>2493</ele>
        <time>2014-03-02T12:36:55.000Z</time>
      </trkpt>
      <trkpt lat="45.34815" lon="6.19752">
        <ele>2493</ele>
        <time>2014-03-02T12:36:57.000Z</time>
      </trkpt>
      <trkpt lat="45.34815" lon="6.19752">
        <ele>2493</ele>
        <time>2014-03-02T12:36:58.000Z</time>
      </trkpt>
      <trkpt lat="45.34815" lon="6.19752">
        <ele>2493</ele>
        <time>2014-03-02T12:36:59.000Z</time>
      </trkpt>
      <trkpt lat="45.34815" lon="6.19752">
        <ele>2493</ele>
        <time>2014-03-02T12:37:00.000Z</time>
      </trkpt>
      <trkpt lat="45.34815" lon="6.1975">
        <ele>2493.8000488281</ele>
        <time>2014-03-02T12:37:01.000Z</time>
      </trkpt>
      <trkpt lat="45.34815" lon="6.1975">
        <ele>2493.8000488281</ele>
        <time>2014-03-02T12:37:02.000Z</time>
      </trkpt>
      <trkpt lat="45.34815" lon="6.19748">
        <ele>2495</ele>
        <time>2014-03-02T12:37:03.000Z</time>
      </trkpt>
      <trkpt lat="45.34814" lon="6.19746">
        <ele>2495.8000488281</ele>
        <time>2014-03-02T12:37:04.000Z</time>
      </trkpt>
      <trkpt lat="45.34814" lon="6.19744">
        <ele>2496.6000976562</ele>
        <time>2014-03-02T12:37:05.000Z</time>
      </trkpt>
      <trkpt lat="45.34813" lon="6.19742">
        <ele>2497.8000488281</ele>
        <time>2014-03-02T12:37:06.000Z</time>
      </trkpt>
      <trkpt lat="45.34813" lon="6.19742">
        <ele>2497.8000488281</ele>
        <time>2014-03-02T12:37:07.000Z</time>
      </trkpt>
      <trkpt lat="45.34813" lon="6.19742">
        <ele>2497.8000488281</ele>
        <time>2014-03-02T12:37:08.000Z</time>
      </trkpt>
      <trkpt lat="45.34813" lon="6.19742">
        <ele>2497.8000488281</ele>
        <time>2014-03-02T12:37:09.000Z</time>
      </trkpt>
      <trkpt lat="45.34813" lon="6.19742">
        <ele>2497.8000488281</ele>
        <time>2014-03-02T12:37:10.000Z</time>
      </trkpt>
      <trkpt lat="45.34813" lon="6.19742">
        <ele>2497.8000488281</ele>
        <time>2014-03-02T12:37:11.000Z</time>
      </trkpt>
      <trkpt lat="45.34813" lon="6.19742">
        <ele>2497.8000488281</ele>
        <time>2014-03-02T12:37:12.000Z</time>
      </trkpt>
      <trkpt lat="45.34813" lon="6.19742">
        <ele>2497.8000488281</ele>
        <time>2014-03-02T12:37:14.000Z</time>
      </trkpt>
      <trkpt lat="45.34813" lon="6.19742">
        <ele>2497.8000488281</ele>
        <time>2014-03-02T12:37:15.000Z</time>
      </trkpt>
      <trkpt lat="45.34813" lon="6.19742">
        <ele>2497.8000488281</ele>
        <time>2014-03-02T12:37:16.000Z</time>
      </trkpt>
      <trkpt lat="45.34813" lon="6.19742">
        <ele>2497.8000488281</ele>
        <time>2014-03-02T12:37:17.000Z</time>
      </trkpt>
      <trkpt lat="45.34813" lon="6.19742">
        <ele>2497.8000488281</ele>
        <time>2014-03-02T12:37:18.000Z</time>
      </trkpt>
      <trkpt lat="45.34813" lon="6.19742">
        <ele>2497.8000488281</ele>
        <time>2014-03-02T12:37:19.000Z</time>
      </trkpt>
      <trkpt lat="45.34813" lon="6.19742">
        <ele>2498.1999511719</ele>
        <time>2014-03-02T12:37:20.000Z</time>
      </trkpt>
      <trkpt lat="45.34813" lon="6.19742">
        <ele>2498.1999511719</ele>
        <time>2014-03-02T12:37:21.000Z</time>
      </trkpt>
      <trkpt lat="45.34813" lon="6.19742">
        <ele>2498.1999511719</ele>
        <time>2014-03-02T12:37:22.000Z</time>
      </trkpt>
      <trkpt lat="45.34813" lon="6.19742">
        <ele>2498.1999511719</ele>
        <time>2014-03-02T12:37:23.000Z</time>
      </trkpt>
      <trkpt lat="45.34813" lon="6.19742">
        <ele>2498.1999511719</ele>
        <time>2014-03-02T12:37:24.000Z</time>
      </trkpt>
      <trkpt lat="45.34813" lon="6.19742">
        <ele>2498.1999511719</ele>
        <time>2014-03-02T12:37:25.000Z</time>
      </trkpt>
      <trkpt lat="45.34813" lon="6.19741">
        <ele>2498.3999023438</ele>
        <time>2014-03-02T12:37:26.000Z</time>
      </trkpt>
      <trkpt lat="45.34813" lon="6.19741">
        <ele>2498.8000488281</ele>
        <time>2014-03-02T12:37:27.000Z</time>
      </trkpt>
      <trkpt lat="45.34813" lon="6.1974">
        <ele>2499</ele>
        <time>2014-03-02T12:37:28.000Z</time>
      </trkpt>
      <trkpt lat="45.34813" lon="6.1974">
        <ele>2499.3999023438</ele>
        <time>2014-03-02T12:37:29.000Z</time>
      </trkpt>
      <trkpt lat="45.34813" lon="6.1974">
        <ele>2499.3999023438</ele>
        <time>2014-03-02T12:37:30.000Z</time>
      </trkpt>
      <trkpt lat="45.34813" lon="6.1974">
        <ele>2499.3999023438</ele>
        <time>2014-03-02T12:37:31.000Z</time>
      </trkpt>
      <trkpt lat="45.34813" lon="6.1974">
        <ele>2499.3999023438</ele>
        <time>2014-03-02T12:37:32.000Z</time>
      </trkpt>
      <trkpt lat="45.34813" lon="6.1974">
        <ele>2499.3999023438</ele>
        <time>2014-03-02T12:37:33.000Z</time>
      </trkpt>
      <trkpt lat="45.34813" lon="6.1974">
        <ele>2499.3999023438</ele>
        <time>2014-03-02T12:37:34.000Z</time>
      </trkpt>
      <trkpt lat="45.34813" lon="6.1974">
        <ele>2499.3999023438</ele>
        <time>2014-03-02T12:37:35.000Z</time>
      </trkpt>
      <trkpt lat="45.34813" lon="6.19739">
        <ele>2500</ele>
        <time>2014-03-02T12:37:36.000Z</time>
      </trkpt>
      <trkpt lat="45.34813" lon="6.19739">
        <ele>2500</ele>
        <time>2014-03-02T12:37:37.000Z</time>
      </trkpt>
      <trkpt lat="45.34813" lon="6.19737">
        <ele>2500.8000488281</ele>
        <time>2014-03-02T12:37:38.000Z</time>
      </trkpt>
      <trkpt lat="45.34813" lon="6.19737">
        <ele>2500.8000488281</ele>
        <time>2014-03-02T12:37:39.000Z</time>
      </trkpt>
      <trkpt lat="45.34812" lon="6.19735">
        <ele>2502</ele>
        <time>2014-03-02T12:37:40.000Z</time>
      </trkpt>
      <trkpt lat="45.34812" lon="6.19735">
        <ele>2502</ele>
        <time>2014-03-02T12:37:41.000Z</time>
      </trkpt>
      <trkpt lat="45.34811" lon="6.19732">
        <ele>2503.6000976562</ele>
        <time>2014-03-02T12:37:42.000Z</time>
      </trkpt>
      <trkpt lat="45.34809" lon="6.19729">
        <ele>2505.1999511719</ele>
        <time>2014-03-02T12:37:43.000Z</time>
      </trkpt>
      <trkpt lat="45.34808" lon="6.19726">
        <ele>2505.8000488281</ele>
        <time>2014-03-02T12:37:44.000Z</time>
      </trkpt>
      <trkpt lat="45.34807" lon="6.19724">
        <ele>2506.1999511719</ele>
        <time>2014-03-02T12:37:45.000Z</time>
      </trkpt>
      <trkpt lat="45.34805" lon="6.19721">
        <ele>2506.6000976562</ele>
        <time>2014-03-02T12:37:46.000Z</time>
      </trkpt>
      <trkpt lat="45.34804" lon="6.19719">
        <ele>2506.6000976562</ele>
        <time>2014-03-02T12:37:47.000Z</time>
      </trkpt>
      <trkpt lat="45.34804" lon="6.19719">
        <ele>2506.6000976562</ele>
        <time>2014-03-02T12:37:48.000Z</time>
      </trkpt>
      <trkpt lat="45.34803" lon="6.19718">
        <ele>2506.8000488281</ele>
        <time>2014-03-02T12:37:49.000Z</time>
      </trkpt>
      <trkpt lat="45.34803" lon="6.19717">
        <ele>2506.8000488281</ele>
        <time>2014-03-02T12:37:50.000Z</time>
      </trkpt>
      <trkpt lat="45.34802" lon="6.19716">
        <ele>2507</ele>
        <time>2014-03-02T12:37:51.000Z</time>
      </trkpt>
      <trkpt lat="45.34802" lon="6.19716">
        <ele>2507</ele>
        <time>2014-03-02T12:37:52.000Z</time>
      </trkpt>
      <trkpt lat="45.34801" lon="6.19715">
        <ele>2507</ele>
        <time>2014-03-02T12:37:53.000Z</time>
      </trkpt>
      <trkpt lat="45.34801" lon="6.19715">
        <ele>2507</ele>
        <time>2014-03-02T12:37:54.000Z</time>
      </trkpt>
      <trkpt lat="45.34801" lon="6.19714">
        <ele>2507.1999511719</ele>
        <time>2014-03-02T12:37:55.000Z</time>
      </trkpt>
      <trkpt lat="45.34801" lon="6.19714">
        <ele>2507.1999511719</ele>
        <time>2014-03-02T12:37:56.000Z</time>
      </trkpt>
      <trkpt lat="45.348" lon="6.19712">
        <ele>2507.3999023438</ele>
        <time>2014-03-02T12:37:57.000Z</time>
      </trkpt>
      <trkpt lat="45.34799" lon="6.19711">
        <ele>2507.6000976562</ele>
        <time>2014-03-02T12:37:58.000Z</time>
      </trkpt>
      <trkpt lat="45.34798" lon="6.19709">
        <ele>2507.8000488281</ele>
        <time>2014-03-02T12:37:59.000Z</time>
      </trkpt>
      <trkpt lat="45.34797" lon="6.19708">
        <ele>2508</ele>
        <time>2014-03-02T12:38:00.000Z</time>
      </trkpt>
      <trkpt lat="45.34796" lon="6.19706">
        <ele>2508.1999511719</ele>
        <time>2014-03-02T12:38:01.000Z</time>
      </trkpt>
      <trkpt lat="45.34795" lon="6.19705">
        <ele>2508.1999511719</ele>
        <time>2014-03-02T12:38:02.000Z</time>
      </trkpt>
      <trkpt lat="45.34795" lon="6.19704">
        <ele>2508.1999511719</ele>
        <time>2014-03-02T12:38:03.000Z</time>
      </trkpt>
      <trkpt lat="45.34795" lon="6.19704">
        <ele>2508.1999511719</ele>
        <time>2014-03-02T12:38:04.000Z</time>
      </trkpt>
      <trkpt lat="45.34795" lon="6.19704">
        <ele>2508.1999511719</ele>
        <time>2014-03-02T12:38:05.000Z</time>
      </trkpt>
      <trkpt lat="45.34794" lon="6.19703">
        <ele>2508.3999023438</ele>
        <time>2014-03-02T12:38:06.000Z</time>
      </trkpt>
      <trkpt lat="45.34794" lon="6.19703">
        <ele>2508.3999023438</ele>
        <time>2014-03-02T12:38:07.000Z</time>
      </trkpt>
      <trkpt lat="45.34793" lon="6.19702">
        <ele>2508.6000976562</ele>
        <time>2014-03-02T12:38:08.000Z</time>
      </trkpt>
      <trkpt lat="45.34793" lon="6.19702">
        <ele>2508.6000976562</ele>
        <time>2014-03-02T12:38:09.000Z</time>
      </trkpt>
      <trkpt lat="45.34793" lon="6.19701">
        <ele>2508.6000976562</ele>
        <time>2014-03-02T12:38:10.000Z</time>
      </trkpt>
      <trkpt lat="45.34793" lon="6.19701">
        <ele>2508.6000976562</ele>
        <time>2014-03-02T12:38:11.000Z</time>
      </trkpt>
      <trkpt lat="45.34793" lon="6.197">
        <ele>2508.6000976562</ele>
        <time>2014-03-02T12:38:12.000Z</time>
      </trkpt>
      <trkpt lat="45.34792" lon="6.197">
        <ele>2508.8000488281</ele>
        <time>2014-03-02T12:38:14.000Z</time>
      </trkpt>
      <trkpt lat="45.34792" lon="6.19699">
        <ele>2508.8000488281</ele>
        <time>2014-03-02T12:38:15.000Z</time>
      </trkpt>
      <trkpt lat="45.34792" lon="6.19699">
        <ele>2508.8000488281</ele>
        <time>2014-03-02T12:38:16.000Z</time>
      </trkpt>
      <trkpt lat="45.34792" lon="6.19699">
        <ele>2508.8000488281</ele>
        <time>2014-03-02T12:38:17.000Z</time>
      </trkpt>
      <trkpt lat="45.34791" lon="6.19698">
        <ele>2508.8000488281</ele>
        <time>2014-03-02T12:38:18.000Z</time>
      </trkpt>
      <trkpt lat="45.34791" lon="6.19698">
        <ele>2509</ele>
        <time>2014-03-02T12:38:19.000Z</time>
      </trkpt>
      <trkpt lat="45.3479" lon="6.19697">
        <ele>2509</ele>
        <time>2014-03-02T12:38:20.000Z</time>
      </trkpt>
      <trkpt lat="45.3479" lon="6.19697">
        <ele>2509</ele>
        <time>2014-03-02T12:38:21.000Z</time>
      </trkpt>
      <trkpt lat="45.34789" lon="6.19695">
        <ele>2509.1999511719</ele>
        <time>2014-03-02T12:38:22.000Z</time>
      </trkpt>
      <trkpt lat="45.34789" lon="6.19694">
        <ele>2509.3999023438</ele>
        <time>2014-03-02T12:38:24.000Z</time>
      </trkpt>
      <trkpt lat="45.34788" lon="6.19693">
        <ele>2509.6000976562</ele>
        <time>2014-03-02T12:38:25.000Z</time>
      </trkpt>
      <trkpt lat="45.34788" lon="6.19693">
        <ele>2509.6000976562</ele>
        <time>2014-03-02T12:38:26.000Z</time>
      </trkpt>
      <trkpt lat="45.34787" lon="6.19691">
        <ele>2509.6000976562</ele>
        <time>2014-03-02T12:38:27.000Z</time>
      </trkpt>
      <trkpt lat="45.34787" lon="6.19691">
        <ele>2509.6000976562</ele>
        <time>2014-03-02T12:38:28.000Z</time>
      </trkpt>
      <trkpt lat="45.34787" lon="6.1969">
        <ele>2510</ele>
        <time>2014-03-02T12:38:29.000Z</time>
      </trkpt>
      <trkpt lat="45.34786" lon="6.19688">
        <ele>2510.1999511719</ele>
        <time>2014-03-02T12:38:30.000Z</time>
      </trkpt>
      <trkpt lat="45.34785" lon="6.19687">
        <ele>2510.3999023438</ele>
        <time>2014-03-02T12:38:31.000Z</time>
      </trkpt>
      <trkpt lat="45.34784" lon="6.19685">
        <ele>2510.6000976562</ele>
        <time>2014-03-02T12:38:32.000Z</time>
      </trkpt>
      <trkpt lat="45.34783" lon="6.19683">
        <ele>2510.8000488281</ele>
        <time>2014-03-02T12:38:33.000Z</time>
      </trkpt>
      <trkpt lat="45.34782" lon="6.19681">
        <ele>2511</ele>
        <time>2014-03-02T12:38:34.000Z</time>
      </trkpt>
      <trkpt lat="45.34782" lon="6.19681">
        <ele>2511</ele>
        <time>2014-03-02T12:38:35.000Z</time>
      </trkpt>
      <trkpt lat="45.34781" lon="6.1968">
        <ele>2511</ele>
        <time>2014-03-02T12:38:36.000Z</time>
      </trkpt>
      <trkpt lat="45.34781" lon="6.1968">
        <ele>2511</ele>
        <time>2014-03-02T12:38:37.000Z</time>
      </trkpt>
      <trkpt lat="45.34781" lon="6.19679">
        <ele>2511.3999023438</ele>
        <time>2014-03-02T12:38:38.000Z</time>
      </trkpt>
      <trkpt lat="45.34781" lon="6.19679">
        <ele>2511.3999023438</ele>
        <time>2014-03-02T12:38:39.000Z</time>
      </trkpt>
      <trkpt lat="45.34781" lon="6.19678">
        <ele>2511.3999023438</ele>
        <time>2014-03-02T12:38:40.000Z</time>
      </trkpt>
      <trkpt lat="45.34781" lon="6.19678">
        <ele>2511.3999023438</ele>
        <time>2014-03-02T12:38:41.000Z</time>
      </trkpt>
      <trkpt lat="45.34781" lon="6.19677">
        <ele>2511.6000976562</ele>
        <time>2014-03-02T12:38:42.000Z</time>
      </trkpt>
      <trkpt lat="45.3478" lon="6.19677">
        <ele>2511.8000488281</ele>
        <time>2014-03-02T12:38:43.000Z</time>
      </trkpt>
      <trkpt lat="45.3478" lon="6.19676">
        <ele>2511.8000488281</ele>
        <time>2014-03-02T12:38:44.000Z</time>
      </trkpt>
      <trkpt lat="45.3478" lon="6.19675">
        <ele>2512</ele>
        <time>2014-03-02T12:38:45.000Z</time>
      </trkpt>
      <trkpt lat="45.3478" lon="6.19675">
        <ele>2512</ele>
        <time>2014-03-02T12:38:46.000Z</time>
      </trkpt>
      <trkpt lat="45.3478" lon="6.19675">
        <ele>2512</ele>
        <time>2014-03-02T12:38:47.000Z</time>
      </trkpt>
      <trkpt lat="45.3478" lon="6.19675">
        <ele>2512</ele>
        <time>2014-03-02T12:38:48.000Z</time>
      </trkpt>
      <trkpt lat="45.3478" lon="6.19675">
        <ele>2512</ele>
        <time>2014-03-02T12:38:49.000Z</time>
      </trkpt>
      <trkpt lat="45.3478" lon="6.19675">
        <ele>2512</ele>
        <time>2014-03-02T12:38:50.000Z</time>
      </trkpt>
      <trkpt lat="45.3478" lon="6.19675">
        <ele>2512</ele>
        <time>2014-03-02T12:38:51.000Z</time>
      </trkpt>
      <trkpt lat="45.3478" lon="6.19675">
        <ele>2512</ele>
        <time>2014-03-02T12:38:52.000Z</time>
      </trkpt>
      <trkpt lat="45.3478" lon="6.19675">
        <ele>2512</ele>
        <time>2014-03-02T12:38:53.000Z</time>
      </trkpt>
      <trkpt lat="45.3478" lon="6.19675">
        <ele>2512</ele>
        <time>2014-03-02T12:38:54.000Z</time>
      </trkpt>
      <trkpt lat="45.3478" lon="6.19675">
        <ele>2512</ele>
        <time>2014-03-02T12:38:55.000Z</time>
      </trkpt>
      <trkpt lat="45.3478" lon="6.19675">
        <ele>2512</ele>
        <time>2014-03-02T12:38:56.000Z</time>
      </trkpt>
      <trkpt lat="45.3478" lon="6.19675">
        <ele>2512</ele>
        <time>2014-03-02T12:38:57.000Z</time>
      </trkpt>
      <trkpt lat="45.3478" lon="6.19675">
        <ele>2512</ele>
        <time>2014-03-02T12:38:58.000Z</time>
      </trkpt>
      <trkpt lat="45.34781" lon="6.19671">
        <ele>2513.1999511719</ele>
        <time>2014-03-02T12:39:00.000Z</time>
      </trkpt>
      <trkpt lat="45.34781" lon="6.1967">
        <ele>2513.3999023438</ele>
        <time>2014-03-02T12:39:01.000Z</time>
      </trkpt>
      <trkpt lat="45.34782" lon="6.19668">
        <ele>2514.1999511719</ele>
        <time>2014-03-02T12:39:02.000Z</time>
      </trkpt>
      <trkpt lat="45.34782" lon="6.19668">
        <ele>2514.1999511719</ele>
        <time>2014-03-02T12:39:03.000Z</time>
      </trkpt>
      <trkpt lat="45.34782" lon="6.19664">
        <ele>2515</ele>
        <time>2014-03-02T12:39:04.000Z</time>
      </trkpt>
      <trkpt lat="45.34782" lon="6.19664">
        <ele>2515</ele>
        <time>2014-03-02T12:39:05.000Z</time>
      </trkpt>
      <trkpt lat="45.34782" lon="6.19661">
        <ele>2515.6000976562</ele>
        <time>2014-03-02T12:39:06.000Z</time>
      </trkpt>
      <trkpt lat="45.34782" lon="6.19659">
        <ele>2516.1999511719</ele>
        <time>2014-03-02T12:39:07.000Z</time>
      </trkpt>
      <trkpt lat="45.34782" lon="6.19659">
        <ele>2516.1999511719</ele>
        <time>2014-03-02T12:39:08.000Z</time>
      </trkpt>
      <trkpt lat="45.34782" lon="6.19657">
        <ele>2516.6000976562</ele>
        <time>2014-03-02T12:39:09.000Z</time>
      </trkpt>
      <trkpt lat="45.34782" lon="6.19657">
        <ele>2516.6000976562</ele>
        <time>2014-03-02T12:39:10.000Z</time>
      </trkpt>
      <trkpt lat="45.34782" lon="6.19657">
        <ele>2516.6000976562</ele>
        <time>2014-03-02T12:39:11.000Z</time>
      </trkpt>
      <trkpt lat="45.34782" lon="6.19657">
        <ele>2516.6000976562</ele>
        <time>2014-03-02T12:39:12.000Z</time>
      </trkpt>
      <trkpt lat="45.34782" lon="6.19657">
        <ele>2516.6000976562</ele>
        <time>2014-03-02T12:39:16.000Z</time>
      </trkpt>
      <trkpt lat="45.34782" lon="6.19657">
        <ele>2516.6000976562</ele>
        <time>2014-03-02T12:39:17.000Z</time>
      </trkpt>
      <trkpt lat="45.34782" lon="6.19657">
        <ele>2516.6000976562</ele>
        <time>2014-03-02T12:39:20.000Z</time>
      </trkpt>
      <trkpt lat="45.34782" lon="6.19655">
        <ele>2517.1999511719</ele>
        <time>2014-03-02T12:39:21.000Z</time>
      </trkpt>
      <trkpt lat="45.34782" lon="6.19653">
        <ele>2517.8000488281</ele>
        <time>2014-03-02T12:39:23.000Z</time>
      </trkpt>
      <trkpt lat="45.34782" lon="6.19652">
        <ele>2518</ele>
        <time>2014-03-02T12:39:24.000Z</time>
      </trkpt>
      <trkpt lat="45.34782" lon="6.19651">
        <ele>2518.3999023438</ele>
        <time>2014-03-02T12:39:25.000Z</time>
      </trkpt>
      <trkpt lat="45.34782" lon="6.19649">
        <ele>2518.8000488281</ele>
        <time>2014-03-02T12:39:26.000Z</time>
      </trkpt>
      <trkpt lat="45.34782" lon="6.19648">
        <ele>2519</ele>
        <time>2014-03-02T12:39:27.000Z</time>
      </trkpt>
      <trkpt lat="45.34783" lon="6.19646">
        <ele>2519.3999023438</ele>
        <time>2014-03-02T12:39:28.000Z</time>
      </trkpt>
      <trkpt lat="45.34782" lon="6.19645">
        <ele>2519.6000976562</ele>
        <time>2014-03-02T12:39:29.000Z</time>
      </trkpt>
      <trkpt lat="45.34783" lon="6.19644">
        <ele>2519.8000488281</ele>
        <time>2014-03-02T12:39:30.000Z</time>
      </trkpt>
      <trkpt lat="45.34783" lon="6.19643">
        <ele>2520</ele>
        <time>2014-03-02T12:39:31.000Z</time>
      </trkpt>
      <trkpt lat="45.34783" lon="6.19642">
        <ele>2520.3999023438</ele>
        <time>2014-03-02T12:39:32.000Z</time>
      </trkpt>
      <trkpt lat="45.34784" lon="6.19641">
        <ele>2520.6000976562</ele>
        <time>2014-03-02T12:39:33.000Z</time>
      </trkpt>
      <trkpt lat="45.34784" lon="6.1964">
        <ele>2520.8000488281</ele>
        <time>2014-03-02T12:39:34.000Z</time>
      </trkpt>
      <trkpt lat="45.34784" lon="6.19639">
        <ele>2521</ele>
        <time>2014-03-02T12:39:35.000Z</time>
      </trkpt>
      <trkpt lat="45.34784" lon="6.19638">
        <ele>2521.1999511719</ele>
        <time>2014-03-02T12:39:36.000Z</time>
      </trkpt>
      <trkpt lat="45.34785" lon="6.19637">
        <ele>2521.3999023438</ele>
        <time>2014-03-02T12:39:37.000Z</time>
      </trkpt>
      <trkpt lat="45.34785" lon="6.19637">
        <ele>2521.3999023438</ele>
        <time>2014-03-02T12:39:38.000Z</time>
      </trkpt>
      <trkpt lat="45.34785" lon="6.19636">
        <ele>2521.6000976562</ele>
        <time>2014-03-02T12:39:39.000Z</time>
      </trkpt>
      <trkpt lat="45.34785" lon="6.19636">
        <ele>2521.6000976562</ele>
        <time>2014-03-02T12:39:40.000Z</time>
      </trkpt>
      <trkpt lat="45.34785" lon="6.19634">
        <ele>2522</ele>
        <time>2014-03-02T12:39:41.000Z</time>
      </trkpt>
      <trkpt lat="45.34785" lon="6.19634">
        <ele>2522</ele>
        <time>2014-03-02T12:39:42.000Z</time>
      </trkpt>
      <trkpt lat="45.34785" lon="6.19634">
        <ele>2522</ele>
        <time>2014-03-02T12:39:43.000Z</time>
      </trkpt>
      <trkpt lat="45.34785" lon="6.19634">
        <ele>2522</ele>
        <time>2014-03-02T12:39:44.000Z</time>
      </trkpt>
      <trkpt lat="45.34785" lon="6.19634">
        <ele>2522</ele>
        <time>2014-03-02T12:39:45.000Z</time>
      </trkpt>
      <trkpt lat="45.34785" lon="6.19634">
        <ele>2522</ele>
        <time>2014-03-02T12:39:46.000Z</time>
      </trkpt>
      <trkpt lat="45.34785" lon="6.19634">
        <ele>2522</ele>
        <time>2014-03-02T12:39:47.000Z</time>
      </trkpt>
      <trkpt lat="45.34785" lon="6.19634">
        <ele>2522</ele>
        <time>2014-03-02T12:39:49.000Z</time>
      </trkpt>
      <trkpt lat="45.34785" lon="6.19634">
        <ele>2522</ele>
        <time>2014-03-02T12:39:50.000Z</time>
      </trkpt>
      <trkpt lat="45.34785" lon="6.19634">
        <ele>2522</ele>
        <time>2014-03-02T12:39:51.000Z</time>
      </trkpt>
      <trkpt lat="45.34785" lon="6.19634">
        <ele>2522</ele>
        <time>2014-03-02T12:39:52.000Z</time>
      </trkpt>
      <trkpt lat="45.34786" lon="6.19632">
        <ele>2522.3999023438</ele>
        <time>2014-03-02T12:39:53.000Z</time>
      </trkpt>
      <trkpt lat="45.34786" lon="6.19632">
        <ele>2522.6000976562</ele>
        <time>2014-03-02T12:39:54.000Z</time>
      </trkpt>
      <trkpt lat="45.34786" lon="6.1963">
        <ele>2523</ele>
        <time>2014-03-02T12:39:56.000Z</time>
      </trkpt>
      <trkpt lat="45.34787" lon="6.19628">
        <ele>2523.1999511719</ele>
        <time>2014-03-02T12:39:57.000Z</time>
      </trkpt>
      <trkpt lat="45.34787" lon="6.19628">
        <ele>2523.1999511719</ele>
        <time>2014-03-02T12:39:58.000Z</time>
      </trkpt>
      <trkpt lat="45.34787" lon="6.19627">
        <ele>2523.6000976562</ele>
        <time>2014-03-02T12:39:59.000Z</time>
      </trkpt>
      <trkpt lat="45.34787" lon="6.19627">
        <ele>2523.8000488281</ele>
        <time>2014-03-02T12:40:00.000Z</time>
      </trkpt>
      <trkpt lat="45.34787" lon="6.19626">
        <ele>2524</ele>
        <time>2014-03-02T12:40:01.000Z</time>
      </trkpt>
      <trkpt lat="45.34787" lon="6.19626">
        <ele>2524</ele>
        <time>2014-03-02T12:40:02.000Z</time>
      </trkpt>
      <trkpt lat="45.34787" lon="6.19624">
        <ele>2524.3999023438</ele>
        <time>2014-03-02T12:40:03.000Z</time>
      </trkpt>
      <trkpt lat="45.34787" lon="6.19623">
        <ele>2524.6000976562</ele>
        <time>2014-03-02T12:40:04.000Z</time>
      </trkpt>
      <trkpt lat="45.34787" lon="6.19622">
        <ele>2524.6000976562</ele>
        <time>2014-03-02T12:40:05.000Z</time>
      </trkpt>
      <trkpt lat="45.34787" lon="6.19621">
        <ele>2524.8000488281</ele>
        <time>2014-03-02T12:40:06.000Z</time>
      </trkpt>
      <trkpt lat="45.34787" lon="6.19621">
        <ele>2524.8000488281</ele>
        <time>2014-03-02T12:40:07.000Z</time>
      </trkpt>
      <trkpt lat="45.34787" lon="6.19621">
        <ele>2525</ele>
        <time>2014-03-02T12:40:08.000Z</time>
      </trkpt>
      <trkpt lat="45.34787" lon="6.19621">
        <ele>2525</ele>
        <time>2014-03-02T12:40:09.000Z</time>
      </trkpt>
      <trkpt lat="45.34787" lon="6.19619">
        <ele>2525.1999511719</ele>
        <time>2014-03-02T12:40:10.000Z</time>
      </trkpt>
      <trkpt lat="45.34787" lon="6.19619">
        <ele>2525.1999511719</ele>
        <time>2014-03-02T12:40:11.000Z</time>
      </trkpt>
      <trkpt lat="45.34787" lon="6.19618">
        <ele>2525.3999023438</ele>
        <time>2014-03-02T12:40:12.000Z</time>
      </trkpt>
      <trkpt lat="45.34787" lon="6.19618">
        <ele>2525.3999023438</ele>
        <time>2014-03-02T12:40:13.000Z</time>
      </trkpt>
      <trkpt lat="45.34787" lon="6.19617">
        <ele>2525.6000976562</ele>
        <time>2014-03-02T12:40:14.000Z</time>
      </trkpt>
      <trkpt lat="45.34787" lon="6.19617">
        <ele>2525.8000488281</ele>
        <time>2014-03-02T12:40:15.000Z</time>
      </trkpt>
      <trkpt lat="45.34788" lon="6.19616">
        <ele>2525.8000488281</ele>
        <time>2014-03-02T12:40:16.000Z</time>
      </trkpt>
      <trkpt lat="45.34788" lon="6.19616">
        <ele>2525.8000488281</ele>
        <time>2014-03-02T12:40:17.000Z</time>
      </trkpt>
      <trkpt lat="45.34788" lon="6.19615">
        <ele>2526.1999511719</ele>
        <time>2014-03-02T12:40:18.000Z</time>
      </trkpt>
      <trkpt lat="45.34788" lon="6.19614">
        <ele>2526.3999023438</ele>
        <time>2014-03-02T12:40:19.000Z</time>
      </trkpt>
      <trkpt lat="45.34788" lon="6.19614">
        <ele>2526.3999023438</ele>
        <time>2014-03-02T12:40:20.000Z</time>
      </trkpt>
      <trkpt lat="45.34788" lon="6.19613">
        <ele>2526.6000976562</ele>
        <time>2014-03-02T12:40:21.000Z</time>
      </trkpt>
      <trkpt lat="45.34788" lon="6.19612">
        <ele>2526.6000976562</ele>
        <time>2014-03-02T12:40:22.000Z</time>
      </trkpt>
      <trkpt lat="45.34788" lon="6.19612">
        <ele>2526.8000488281</ele>
        <time>2014-03-02T12:40:23.000Z</time>
      </trkpt>
      <trkpt lat="45.34788" lon="6.19612">
        <ele>2526.8000488281</ele>
        <time>2014-03-02T12:40:24.000Z</time>
      </trkpt>
      <trkpt lat="45.34788" lon="6.1961">
        <ele>2527</ele>
        <time>2014-03-02T12:40:25.000Z</time>
      </trkpt>
      <trkpt lat="45.34788" lon="6.1961">
        <ele>2527.1999511719</ele>
        <time>2014-03-02T12:40:26.000Z</time>
      </trkpt>
      <trkpt lat="45.34788" lon="6.1961">
        <ele>2527.1999511719</ele>
        <time>2014-03-02T12:40:27.000Z</time>
      </trkpt>
      <trkpt lat="45.34788" lon="6.19609">
        <ele>2527.1999511719</ele>
        <time>2014-03-02T12:40:28.000Z</time>
      </trkpt>
      <trkpt lat="45.34788" lon="6.19609">
        <ele>2527.1999511719</ele>
        <time>2014-03-02T12:40:29.000Z</time>
      </trkpt>
      <trkpt lat="45.34788" lon="6.19609">
        <ele>2527.1999511719</ele>
        <time>2014-03-02T12:40:30.000Z</time>
      </trkpt>
      <trkpt lat="45.34788" lon="6.19609">
        <ele>2527.1999511719</ele>
        <time>2014-03-02T12:40:31.000Z</time>
      </trkpt>
      <trkpt lat="45.34788" lon="6.19609">
        <ele>2527.1999511719</ele>
        <time>2014-03-02T12:40:32.000Z</time>
      </trkpt>
      <trkpt lat="45.34788" lon="6.19609">
        <ele>2527.1999511719</ele>
        <time>2014-03-02T12:40:33.000Z</time>
      </trkpt>
      <trkpt lat="45.34788" lon="6.19609">
        <ele>2527.1999511719</ele>
        <time>2014-03-02T12:40:34.000Z</time>
      </trkpt>
      <trkpt lat="45.34788" lon="6.19609">
        <ele>2527.1999511719</ele>
        <time>2014-03-02T12:40:35.000Z</time>
      </trkpt>
      <trkpt lat="45.34788" lon="6.19609">
        <ele>2527.1999511719</ele>
        <time>2014-03-02T12:40:36.000Z</time>
      </trkpt>
      <trkpt lat="45.34788" lon="6.19609">
        <ele>2527.1999511719</ele>
        <time>2014-03-02T12:40:37.000Z</time>
      </trkpt>
      <trkpt lat="45.34788" lon="6.19609">
        <ele>2527.1999511719</ele>
        <time>2014-03-02T12:40:38.000Z</time>
      </trkpt>
      <trkpt lat="45.34788" lon="6.19609">
        <ele>2527.1999511719</ele>
        <time>2014-03-02T12:40:39.000Z</time>
      </trkpt>
      <trkpt lat="45.34788" lon="6.19609">
        <ele>2527.1999511719</ele>
        <time>2014-03-02T12:40:41.000Z</time>
      </trkpt>
      <trkpt lat="45.34788" lon="6.19609">
        <ele>2527.1999511719</ele>
        <time>2014-03-02T12:40:42.000Z</time>
      </trkpt>
      <trkpt lat="45.34788" lon="6.19609">
        <ele>2527.1999511719</ele>
        <time>2014-03-02T12:40:43.000Z</time>
      </trkpt>
      <trkpt lat="45.34788" lon="6.19609">
        <ele>2527.1999511719</ele>
        <time>2014-03-02T12:40:44.000Z</time>
      </trkpt>
      <trkpt lat="45.34788" lon="6.19608">
        <ele>2527.6000976562</ele>
        <time>2014-03-02T12:40:45.000Z</time>
      </trkpt>
      <trkpt lat="45.34788" lon="6.19608">
        <ele>2527.6000976562</ele>
        <time>2014-03-02T12:40:46.000Z</time>
      </trkpt>
      <trkpt lat="45.34788" lon="6.19607">
        <ele>2527.8000488281</ele>
        <time>2014-03-02T12:40:49.000Z</time>
      </trkpt>
      <trkpt lat="45.34788" lon="6.19605">
        <ele>2528.1999511719</ele>
        <time>2014-03-02T12:40:50.000Z</time>
      </trkpt>
      <trkpt lat="45.34788" lon="6.19605">
        <ele>2528.1999511719</ele>
        <time>2014-03-02T12:40:51.000Z</time>
      </trkpt>
      <trkpt lat="45.34788" lon="6.19603">
        <ele>2528.6000976562</ele>
        <time>2014-03-02T12:40:52.000Z</time>
      </trkpt>
      <trkpt lat="45.34788" lon="6.19603">
        <ele>2528.6000976562</ele>
        <time>2014-03-02T12:40:53.000Z</time>
      </trkpt>
      <trkpt lat="45.34788" lon="6.19602">
        <ele>2528.8000488281</ele>
        <time>2014-03-02T12:40:54.000Z</time>
      </trkpt>
      <trkpt lat="45.34788" lon="6.19602">
        <ele>2528.8000488281</ele>
        <time>2014-03-02T12:40:55.000Z</time>
      </trkpt>
      <trkpt lat="45.34789" lon="6.19601">
        <ele>2529.1999511719</ele>
        <time>2014-03-02T12:40:56.000Z</time>
      </trkpt>
      <trkpt lat="45.34789" lon="6.196">
        <ele>2529.3999023438</ele>
        <time>2014-03-02T12:40:57.000Z</time>
      </trkpt>
      <trkpt lat="45.34789" lon="6.196">
        <ele>2529.6000976562</ele>
        <time>2014-03-02T12:40:58.000Z</time>
      </trkpt>
      <trkpt lat="45.34789" lon="6.196">
        <ele>2529.6000976562</ele>
        <time>2014-03-02T12:40:59.000Z</time>
      </trkpt>
      <trkpt lat="45.34789" lon="6.19598">
        <ele>2529.8000488281</ele>
        <time>2014-03-02T12:41:00.000Z</time>
      </trkpt>
      <trkpt lat="45.34789" lon="6.19598">
        <ele>2529.8000488281</ele>
        <time>2014-03-02T12:41:01.000Z</time>
      </trkpt>
      <trkpt lat="45.3479" lon="6.19597">
        <ele>2530.1999511719</ele>
        <time>2014-03-02T12:41:02.000Z</time>
      </trkpt>
      <trkpt lat="45.3479" lon="6.19597">
        <ele>2530.1999511719</ele>
        <time>2014-03-02T12:41:03.000Z</time>
      </trkpt>
      <trkpt lat="45.3479" lon="6.19596">
        <ele>2530.3999023438</ele>
        <time>2014-03-02T12:41:04.000Z</time>
      </trkpt>
      <trkpt lat="45.3479" lon="6.19596">
        <ele>2530.3999023438</ele>
        <time>2014-03-02T12:41:05.000Z</time>
      </trkpt>
      <trkpt lat="45.3479" lon="6.19596">
        <ele>2530.3999023438</ele>
        <time>2014-03-02T12:41:06.000Z</time>
      </trkpt>
      <trkpt lat="45.3479" lon="6.19596">
        <ele>2530.3999023438</ele>
        <time>2014-03-02T12:41:07.000Z</time>
      </trkpt>
      <trkpt lat="45.3479" lon="6.19596">
        <ele>2530.3999023438</ele>
        <time>2014-03-02T12:41:08.000Z</time>
      </trkpt>
      <trkpt lat="45.3479" lon="6.19596">
        <ele>2530.3999023438</ele>
        <time>2014-03-02T12:41:09.000Z</time>
      </trkpt>
      <trkpt lat="45.3479" lon="6.19596">
        <ele>2530.3999023438</ele>
        <time>2014-03-02T12:41:10.000Z</time>
      </trkpt>
      <trkpt lat="45.34789" lon="6.19595">
        <ele>2530.3999023438</ele>
        <time>2014-03-02T12:41:11.000Z</time>
      </trkpt>
      <trkpt lat="45.34789" lon="6.19595">
        <ele>2530.3999023438</ele>
        <time>2014-03-02T12:41:12.000Z</time>
      </trkpt>
      <trkpt lat="45.34789" lon="6.19595">
        <ele>2530.6000976562</ele>
        <time>2014-03-02T12:41:13.000Z</time>
      </trkpt>
      <trkpt lat="45.34789" lon="6.19595">
        <ele>2530.6000976562</ele>
        <time>2014-03-02T12:41:14.000Z</time>
      </trkpt>
      <trkpt lat="45.34789" lon="6.19594">
        <ele>2530.6000976562</ele>
        <time>2014-03-02T12:41:15.000Z</time>
      </trkpt>
      <trkpt lat="45.34789" lon="6.19594">
        <ele>2530.6000976562</ele>
        <time>2014-03-02T12:41:16.000Z</time>
      </trkpt>
      <trkpt lat="45.34789" lon="6.19593">
        <ele>2530.8000488281</ele>
        <time>2014-03-02T12:41:17.000Z</time>
      </trkpt>
      <trkpt lat="45.34788" lon="6.19591">
        <ele>2530.8000488281</ele>
        <time>2014-03-02T12:41:18.000Z</time>
      </trkpt>
      <trkpt lat="45.34788" lon="6.1959">
        <ele>2531</ele>
        <time>2014-03-02T12:41:19.000Z</time>
      </trkpt>
      <trkpt lat="45.34787" lon="6.19588">
        <ele>2531.1999511719</ele>
        <time>2014-03-02T12:41:20.000Z</time>
      </trkpt>
      <trkpt lat="45.34787" lon="6.19588">
        <ele>2531.1999511719</ele>
        <time>2014-03-02T12:41:21.000Z</time>
      </trkpt>
      <trkpt lat="45.34787" lon="6.19588">
        <ele>2531.1999511719</ele>
        <time>2014-03-02T12:41:22.000Z</time>
      </trkpt>
      <trkpt lat="45.34787" lon="6.19588">
        <ele>2531.1999511719</ele>
        <time>2014-03-02T12:41:23.000Z</time>
      </trkpt>
      <trkpt lat="45.34787" lon="6.19587">
        <ele>2531.3999023438</ele>
        <time>2014-03-02T12:41:24.000Z</time>
      </trkpt>
      <trkpt lat="45.34787" lon="6.19586">
        <ele>2531.3999023438</ele>
        <time>2014-03-02T12:41:25.000Z</time>
      </trkpt>
      <trkpt lat="45.34787" lon="6.19585">
        <ele>2531.6000976562</ele>
        <time>2014-03-02T12:41:26.000Z</time>
      </trkpt>
      <trkpt lat="45.34787" lon="6.19585">
        <ele>2531.6000976562</ele>
        <time>2014-03-02T12:41:27.000Z</time>
      </trkpt>
      <trkpt lat="45.34787" lon="6.19584">
        <ele>2531.8000488281</ele>
        <time>2014-03-02T12:41:28.000Z</time>
      </trkpt>
      <trkpt lat="45.34787" lon="6.19584">
        <ele>2531.8000488281</ele>
        <time>2014-03-02T12:41:29.000Z</time>
      </trkpt>
      <trkpt lat="45.34787" lon="6.19584">
        <ele>2531.8000488281</ele>
        <time>2014-03-02T12:41:30.000Z</time>
      </trkpt>
      <trkpt lat="45.34787" lon="6.19584">
        <ele>2531.8000488281</ele>
        <time>2014-03-02T12:41:33.000Z</time>
      </trkpt>
      <trkpt lat="45.34787" lon="6.19584">
        <ele>2531.8000488281</ele>
        <time>2014-03-02T12:41:34.000Z</time>
      </trkpt>
      <trkpt lat="45.34787" lon="6.19584">
        <ele>2531.8000488281</ele>
        <time>2014-03-02T12:41:35.000Z</time>
      </trkpt>
      <trkpt lat="45.34787" lon="6.19584">
        <ele>2531.8000488281</ele>
        <time>2014-03-02T12:41:36.000Z</time>
      </trkpt>
      <trkpt lat="45.34787" lon="6.19584">
        <ele>2531.8000488281</ele>
        <time>2014-03-02T12:41:37.000Z</time>
      </trkpt>
      <trkpt lat="45.34787" lon="6.19584">
        <ele>2531.8000488281</ele>
        <time>2014-03-02T12:41:38.000Z</time>
      </trkpt>
      <trkpt lat="45.34787" lon="6.19584">
        <ele>2531.8000488281</ele>
        <time>2014-03-02T12:41:39.000Z</time>
      </trkpt>
      <trkpt lat="45.34787" lon="6.19584">
        <ele>2531.8000488281</ele>
        <time>2014-03-02T12:41:40.000Z</time>
      </trkpt>
      <trkpt lat="45.34787" lon="6.19584">
        <ele>2531.8000488281</ele>
        <time>2014-03-02T12:41:41.000Z</time>
      </trkpt>
      <trkpt lat="45.34787" lon="6.19584">
        <ele>2531.8000488281</ele>
        <time>2014-03-02T12:41:42.000Z</time>
      </trkpt>
      <trkpt lat="45.34787" lon="6.19584">
        <ele>2531.8000488281</ele>
        <time>2014-03-02T12:41:43.000Z</time>
      </trkpt>
      <trkpt lat="45.34787" lon="6.19584">
        <ele>2531.8000488281</ele>
        <time>2014-03-02T12:41:44.000Z</time>
      </trkpt>
      <trkpt lat="45.34787" lon="6.19584">
        <ele>2531.8000488281</ele>
        <time>2014-03-02T12:41:45.000Z</time>
      </trkpt>
      <trkpt lat="45.34787" lon="6.19584">
        <ele>2531.8000488281</ele>
        <time>2014-03-02T12:41:47.000Z</time>
      </trkpt>
      <trkpt lat="45.34787" lon="6.19584">
        <ele>2531.8000488281</ele>
        <time>2014-03-02T12:41:48.000Z</time>
      </trkpt>
      <trkpt lat="45.34787" lon="6.19584">
        <ele>2531.8000488281</ele>
        <time>2014-03-02T12:41:49.000Z</time>
      </trkpt>
      <trkpt lat="45.34787" lon="6.19584">
        <ele>2531.8000488281</ele>
        <time>2014-03-02T12:41:50.000Z</time>
      </trkpt>
      <trkpt lat="45.34787" lon="6.19584">
        <ele>2531.8000488281</ele>
        <time>2014-03-02T12:41:51.000Z</time>
      </trkpt>
      <trkpt lat="45.34787" lon="6.19584">
        <ele>2531.8000488281</ele>
        <time>2014-03-02T12:41:52.000Z</time>
      </trkpt>
      <trkpt lat="45.34787" lon="6.19584">
        <ele>2531.8000488281</ele>
        <time>2014-03-02T12:41:53.000Z</time>
      </trkpt>
      <trkpt lat="45.34787" lon="6.19584">
        <ele>2531.8000488281</ele>
        <time>2014-03-02T12:41:54.000Z</time>
      </trkpt>
      <trkpt lat="45.34787" lon="6.19584">
        <ele>2531.8000488281</ele>
        <time>2014-03-02T12:41:55.000Z</time>
      </trkpt>
      <trkpt lat="45.34787" lon="6.19584">
        <ele>2531.8000488281</ele>
        <time>2014-03-02T12:41:56.000Z</time>
      </trkpt>
      <trkpt lat="45.34787" lon="6.19584">
        <ele>2531.8000488281</ele>
        <time>2014-03-02T12:41:57.000Z</time>
      </trkpt>
      <trkpt lat="45.34787" lon="6.19584">
        <ele>2531.8000488281</ele>
        <time>2014-03-02T12:41:58.000Z</time>
      </trkpt>
      <trkpt lat="45.34787" lon="6.19584">
        <ele>2531.8000488281</ele>
        <time>2014-03-02T12:41:59.000Z</time>
      </trkpt>
      <trkpt lat="45.34787" lon="6.19584">
        <ele>2531.8000488281</ele>
        <time>2014-03-02T12:42:00.000Z</time>
      </trkpt>
      <trkpt lat="45.34787" lon="6.19584">
        <ele>2531.8000488281</ele>
        <time>2014-03-02T12:42:01.000Z</time>
      </trkpt>
      <trkpt lat="45.34787" lon="6.19584">
        <ele>2531.8000488281</ele>
        <time>2014-03-02T12:42:02.000Z</time>
      </trkpt>
      <trkpt lat="45.34787" lon="6.19584">
        <ele>2531.8000488281</ele>
        <time>2014-03-02T12:42:03.000Z</time>
      </trkpt>
      <trkpt lat="45.34787" lon="6.19584">
        <ele>2531.8000488281</ele>
        <time>2014-03-02T12:42:04.000Z</time>
      </trkpt>
      <trkpt lat="45.34787" lon="6.19584">
        <ele>2531.8000488281</ele>
        <time>2014-03-02T12:42:05.000Z</time>
      </trkpt>
      <trkpt lat="45.34787" lon="6.19584">
        <ele>2531.8000488281</ele>
        <time>2014-03-02T12:42:06.000Z</time>
      </trkpt>
      <trkpt lat="45.34787" lon="6.19584">
        <ele>2531.8000488281</ele>
        <time>2014-03-02T12:42:07.000Z</time>
      </trkpt>
      <trkpt lat="45.34787" lon="6.19584">
        <ele>2531.8000488281</ele>
        <time>2014-03-02T12:42:08.000Z</time>
      </trkpt>
      <trkpt lat="45.34787" lon="6.19584">
        <ele>2531.8000488281</ele>
        <time>2014-03-02T12:42:09.000Z</time>
      </trkpt>
      <trkpt lat="45.34787" lon="6.19584">
        <ele>2531.8000488281</ele>
        <time>2014-03-02T12:42:10.000Z</time>
      </trkpt>
      <trkpt lat="45.34787" lon="6.19584">
        <ele>2531.8000488281</ele>
        <time>2014-03-02T12:42:11.000Z</time>
      </trkpt>
      <trkpt lat="45.34787" lon="6.19584">
        <ele>2531.8000488281</ele>
        <time>2014-03-02T12:42:12.000Z</time>
      </trkpt>
      <trkpt lat="45.34787" lon="6.19584">
        <ele>2531.8000488281</ele>
        <time>2014-03-02T12:42:13.000Z</time>
      </trkpt>
      <trkpt lat="45.34787" lon="6.19584">
        <ele>2531.8000488281</ele>
        <time>2014-03-02T12:42:14.000Z</time>
      </trkpt>
      <trkpt lat="45.34787" lon="6.19584">
        <ele>2531.8000488281</ele>
        <time>2014-03-02T12:42:15.000Z</time>
      </trkpt>
      <trkpt lat="45.34787" lon="6.19584">
        <ele>2531.8000488281</ele>
        <time>2014-03-02T12:42:16.000Z</time>
      </trkpt>
      <trkpt lat="45.34787" lon="6.19584">
        <ele>2531.8000488281</ele>
        <time>2014-03-02T12:42:17.000Z</time>
      </trkpt>
      <trkpt lat="45.34787" lon="6.19584">
        <ele>2531.8000488281</ele>
        <time>2014-03-02T12:42:18.000Z</time>
      </trkpt>
      <trkpt lat="45.34787" lon="6.19584">
        <ele>2531.8000488281</ele>
        <time>2014-03-02T12:42:19.000Z</time>
      </trkpt>
      <trkpt lat="45.34787" lon="6.19584">
        <ele>2531.8000488281</ele>
        <time>2014-03-02T12:42:20.000Z</time>
      </trkpt>
      <trkpt lat="45.34787" lon="6.19584">
        <ele>2531.8000488281</ele>
        <time>2014-03-02T12:42:21.000Z</time>
      </trkpt>
      <trkpt lat="45.34787" lon="6.19584">
        <ele>2531.8000488281</ele>
        <time>2014-03-02T12:42:22.000Z</time>
      </trkpt>
      <trkpt lat="45.34787" lon="6.19584">
        <ele>2531.8000488281</ele>
        <time>2014-03-02T12:42:23.000Z</time>
      </trkpt>
      <trkpt lat="45.34787" lon="6.19584">
        <ele>2531.8000488281</ele>
        <time>2014-03-02T12:42:24.000Z</time>
      </trkpt>
      <trkpt lat="45.34787" lon="6.19584">
        <ele>2531.8000488281</ele>
        <time>2014-03-02T12:42:25.000Z</time>
      </trkpt>
      <trkpt lat="45.34787" lon="6.19584">
        <ele>2531.8000488281</ele>
        <time>2014-03-02T12:42:26.000Z</time>
      </trkpt>
      <trkpt lat="45.34787" lon="6.19584">
        <ele>2531.8000488281</ele>
        <time>2014-03-02T12:42:27.000Z</time>
      </trkpt>
      <trkpt lat="45.34787" lon="6.19584">
        <ele>2531.8000488281</ele>
        <time>2014-03-02T12:42:28.000Z</time>
      </trkpt>
      <trkpt lat="45.34787" lon="6.19584">
        <ele>2531.8000488281</ele>
        <time>2014-03-02T12:42:29.000Z</time>
      </trkpt>
      <trkpt lat="45.34787" lon="6.19584">
        <ele>2531.8000488281</ele>
        <time>2014-03-02T12:42:30.000Z</time>
      </trkpt>
      <trkpt lat="45.34787" lon="6.19584">
        <ele>2531.8000488281</ele>
        <time>2014-03-02T12:42:31.000Z</time>
      </trkpt>
      <trkpt lat="45.34787" lon="6.19584">
        <ele>2531.8000488281</ele>
        <time>2014-03-02T12:42:32.000Z</time>
      </trkpt>
      <trkpt lat="45.34787" lon="6.19584">
        <ele>2531.8000488281</ele>
        <time>2014-03-02T12:42:33.000Z</time>
      </trkpt>
      <trkpt lat="45.34787" lon="6.19584">
        <ele>2531.8000488281</ele>
        <time>2014-03-02T12:42:34.000Z</time>
      </trkpt>
      <trkpt lat="45.34787" lon="6.19584">
        <ele>2531.8000488281</ele>
        <time>2014-03-02T12:42:35.000Z</time>
      </trkpt>
      <trkpt lat="45.34787" lon="6.19584">
        <ele>2531.8000488281</ele>
        <time>2014-03-02T12:42:36.000Z</time>
      </trkpt>
      <trkpt lat="45.34787" lon="6.19584">
        <ele>2531.8000488281</ele>
        <time>2014-03-02T12:42:37.000Z</time>
      </trkpt>
      <trkpt lat="45.34787" lon="6.19584">
        <ele>2531.8000488281</ele>
        <time>2014-03-02T12:42:38.000Z</time>
      </trkpt>
      <trkpt lat="45.34787" lon="6.19584">
        <ele>2531.8000488281</ele>
        <time>2014-03-02T12:42:39.000Z</time>
      </trkpt>
      <trkpt lat="45.34787" lon="6.19584">
        <ele>2531.8000488281</ele>
        <time>2014-03-02T12:42:40.000Z</time>
      </trkpt>
      <trkpt lat="45.34787" lon="6.19584">
        <ele>2531.8000488281</ele>
        <time>2014-03-02T12:42:41.000Z</time>
      </trkpt>
      <trkpt lat="45.34787" lon="6.19584">
        <ele>2531.8000488281</ele>
        <time>2014-03-02T12:42:42.000Z</time>
      </trkpt>
      <trkpt lat="45.34787" lon="6.19584">
        <ele>2531.8000488281</ele>
        <time>2014-03-02T12:42:43.000Z</time>
      </trkpt>
      <trkpt lat="45.34787" lon="6.19584">
        <ele>2531.8000488281</ele>
        <time>2014-03-02T12:42:44.000Z</time>
      </trkpt>
      <trkpt lat="45.34787" lon="6.19584">
        <ele>2531.8000488281</ele>
        <time>2014-03-02T12:42:45.000Z</time>
      </trkpt>
      <trkpt lat="45.34787" lon="6.19584">
        <ele>2531.8000488281</ele>
        <time>2014-03-02T12:42:46.000Z</time>
      </trkpt>
      <trkpt lat="45.34787" lon="6.19583">
        <ele>2532</ele>
        <time>2014-03-02T12:42:48.000Z</time>
      </trkpt>
      <trkpt lat="45.34787" lon="6.19583">
        <ele>2532</ele>
        <time>2014-03-02T12:42:49.000Z</time>
      </trkpt>
      <trkpt lat="45.34787" lon="6.19583">
        <ele>2532</ele>
        <time>2014-03-02T12:42:50.000Z</time>
      </trkpt>
      <trkpt lat="45.34787" lon="6.19583">
        <ele>2532</ele>
        <time>2014-03-02T12:42:51.000Z</time>
      </trkpt>
      <trkpt lat="45.34787" lon="6.19583">
        <ele>2532</ele>
        <time>2014-03-02T12:42:52.000Z</time>
      </trkpt>
      <trkpt lat="45.34787" lon="6.19583">
        <ele>2532</ele>
        <time>2014-03-02T12:42:53.000Z</time>
      </trkpt>
      <trkpt lat="45.34787" lon="6.19583">
        <ele>2532</ele>
        <time>2014-03-02T12:42:54.000Z</time>
      </trkpt>
      <trkpt lat="45.34787" lon="6.19583">
        <ele>2532</ele>
        <time>2014-03-02T12:42:57.000Z</time>
      </trkpt>
      <trkpt lat="45.34787" lon="6.19583">
        <ele>2532</ele>
        <time>2014-03-02T12:42:58.000Z</time>
      </trkpt>
      <trkpt lat="45.34787" lon="6.19583">
        <ele>2532</ele>
        <time>2014-03-02T12:42:59.000Z</time>
      </trkpt>
      <trkpt lat="45.34787" lon="6.19583">
        <ele>2532</ele>
        <time>2014-03-02T12:43:00.000Z</time>
      </trkpt>
      <trkpt lat="45.34787" lon="6.19583">
        <ele>2532</ele>
        <time>2014-03-02T12:43:01.000Z</time>
      </trkpt>
      <trkpt lat="45.34787" lon="6.19583">
        <ele>2532</ele>
        <time>2014-03-02T12:43:02.000Z</time>
      </trkpt>
      <trkpt lat="45.34787" lon="6.19583">
        <ele>2532</ele>
        <time>2014-03-02T12:43:03.000Z</time>
      </trkpt>
      <trkpt lat="45.34787" lon="6.19583">
        <ele>2532</ele>
        <time>2014-03-02T12:43:04.000Z</time>
      </trkpt>
      <trkpt lat="45.34787" lon="6.19583">
        <ele>2532</ele>
        <time>2014-03-02T12:43:05.000Z</time>
      </trkpt>
      <trkpt lat="45.34787" lon="6.19583">
        <ele>2532</ele>
        <time>2014-03-02T12:43:06.000Z</time>
      </trkpt>
      <trkpt lat="45.34787" lon="6.19583">
        <ele>2532</ele>
        <time>2014-03-02T12:43:07.000Z</time>
      </trkpt>
      <trkpt lat="45.34787" lon="6.19583">
        <ele>2532</ele>
        <time>2014-03-02T12:43:08.000Z</time>
      </trkpt>
      <trkpt lat="45.34787" lon="6.19583">
        <ele>2532</ele>
        <time>2014-03-02T12:43:09.000Z</time>
      </trkpt>
      <trkpt lat="45.34787" lon="6.19583">
        <ele>2532</ele>
        <time>2014-03-02T12:43:10.000Z</time>
      </trkpt>
      <trkpt lat="45.34787" lon="6.19583">
        <ele>2532</ele>
        <time>2014-03-02T12:43:11.000Z</time>
      </trkpt>
      <trkpt lat="45.34787" lon="6.19583">
        <ele>2532</ele>
        <time>2014-03-02T12:43:12.000Z</time>
      </trkpt>
      <trkpt lat="45.34787" lon="6.19583">
        <ele>2532</ele>
        <time>2014-03-02T12:43:13.000Z</time>
      </trkpt>
      <trkpt lat="45.34787" lon="6.19583">
        <ele>2532</ele>
        <time>2014-03-02T12:43:14.000Z</time>
      </trkpt>
      <trkpt lat="45.34787" lon="6.19583">
        <ele>2532</ele>
        <time>2014-03-02T12:43:15.000Z</time>
      </trkpt>
      <trkpt lat="45.34787" lon="6.19583">
        <ele>2532</ele>
        <time>2014-03-02T12:43:16.000Z</time>
      </trkpt>
      <trkpt lat="45.34787" lon="6.19583">
        <ele>2532</ele>
        <time>2014-03-02T12:43:17.000Z</time>
      </trkpt>
      <trkpt lat="45.34787" lon="6.19583">
        <ele>2532</ele>
        <time>2014-03-02T12:43:18.000Z</time>
      </trkpt>
      <trkpt lat="45.34787" lon="6.19583">
        <ele>2532</ele>
        <time>2014-03-02T12:43:19.000Z</time>
      </trkpt>
      <trkpt lat="45.34787" lon="6.19583">
        <ele>2532</ele>
        <time>2014-03-02T12:43:20.000Z</time>
      </trkpt>
      <trkpt lat="45.34787" lon="6.19583">
        <ele>2532</ele>
        <time>2014-03-02T12:43:21.000Z</time>
      </trkpt>
      <trkpt lat="45.34787" lon="6.19583">
        <ele>2532</ele>
        <time>2014-03-02T12:43:22.000Z</time>
      </trkpt>
      <trkpt lat="45.34787" lon="6.19583">
        <ele>2532</ele>
        <time>2014-03-02T12:43:23.000Z</time>
      </trkpt>
      <trkpt lat="45.34787" lon="6.19583">
        <ele>2532</ele>
        <time>2014-03-02T12:43:24.000Z</time>
      </trkpt>
      <trkpt lat="45.34787" lon="6.19583">
        <ele>2532</ele>
        <time>2014-03-02T12:43:25.000Z</time>
      </trkpt>
      <trkpt lat="45.34787" lon="6.19583">
        <ele>2532.1999511719</ele>
        <time>2014-03-02T12:43:26.000Z</time>
      </trkpt>
      <trkpt lat="45.34788" lon="6.19578">
        <ele>2533.1999511719</ele>
        <time>2014-03-02T12:43:27.000Z</time>
      </trkpt>
      <trkpt lat="45.3479" lon="6.19574">
        <ele>2534.6000976562</ele>
        <time>2014-03-02T12:43:28.000Z</time>
      </trkpt>
      <trkpt lat="45.34791" lon="6.19571">
        <ele>2535.3999023438</ele>
        <time>2014-03-02T12:43:29.000Z</time>
      </trkpt>
      <trkpt lat="45.34791" lon="6.1957">
        <ele>2535.3999023438</ele>
        <time>2014-03-02T12:43:30.000Z</time>
      </trkpt>
      <trkpt lat="45.34791" lon="6.19568">
        <ele>2536.1999511719</ele>
        <time>2014-03-02T12:43:31.000Z</time>
      </trkpt>
      <trkpt lat="45.34791" lon="6.19567">
        <ele>2536.1999511719</ele>
        <time>2014-03-02T12:43:32.000Z</time>
      </trkpt>
      <trkpt lat="45.34792" lon="6.19565">
        <ele>2537</ele>
        <time>2014-03-02T12:43:33.000Z</time>
      </trkpt>
      <trkpt lat="45.34792" lon="6.19565">
        <ele>2537</ele>
        <time>2014-03-02T12:43:34.000Z</time>
      </trkpt>
      <trkpt lat="45.34792" lon="6.19565">
        <ele>2537</ele>
        <time>2014-03-02T12:43:35.000Z</time>
      </trkpt>
      <trkpt lat="45.34792" lon="6.19565">
        <ele>2537</ele>
        <time>2014-03-02T12:43:36.000Z</time>
      </trkpt>
      <trkpt lat="45.34792" lon="6.19565">
        <ele>2537</ele>
        <time>2014-03-02T12:43:37.000Z</time>
      </trkpt>
      <trkpt lat="45.34792" lon="6.19565">
        <ele>2537</ele>
        <time>2014-03-02T12:43:38.000Z</time>
      </trkpt>
      <trkpt lat="45.34792" lon="6.19564">
        <ele>2537</ele>
        <time>2014-03-02T12:43:39.000Z</time>
      </trkpt>
      <trkpt lat="45.34792" lon="6.19563">
        <ele>2537.1999511719</ele>
        <time>2014-03-02T12:43:40.000Z</time>
      </trkpt>
      <trkpt lat="45.34792" lon="6.19561">
        <ele>2537.8000488281</ele>
        <time>2014-03-02T12:43:41.000Z</time>
      </trkpt>
      <trkpt lat="45.34793" lon="6.1956">
        <ele>2538.1999511719</ele>
        <time>2014-03-02T12:43:42.000Z</time>
      </trkpt>
      <trkpt lat="45.34793" lon="6.1956">
        <ele>2538.1999511719</ele>
        <time>2014-03-02T12:43:43.000Z</time>
      </trkpt>
      <trkpt lat="45.34794" lon="6.19558">
        <ele>2538.8000488281</ele>
        <time>2014-03-02T12:43:44.000Z</time>
      </trkpt>
      <trkpt lat="45.34794" lon="6.19557">
        <ele>2539.3999023438</ele>
        <time>2014-03-02T12:43:45.000Z</time>
      </trkpt>
      <trkpt lat="45.34795" lon="6.19555">
        <ele>2540</ele>
        <time>2014-03-02T12:43:46.000Z</time>
      </trkpt>
      <trkpt lat="45.34795" lon="6.19554">
        <ele>2540.3999023438</ele>
        <time>2014-03-02T12:43:47.000Z</time>
      </trkpt>
      <trkpt lat="45.34796" lon="6.19553">
        <ele>2540.8000488281</ele>
        <time>2014-03-02T12:43:48.000Z</time>
      </trkpt>
      <trkpt lat="45.34796" lon="6.19551">
        <ele>2541.1999511719</ele>
        <time>2014-03-02T12:43:49.000Z</time>
      </trkpt>
      <trkpt lat="45.34796" lon="6.19551">
        <ele>2541.1999511719</ele>
        <time>2014-03-02T12:43:50.000Z</time>
      </trkpt>
      <trkpt lat="45.34796" lon="6.19551">
        <ele>2541.1999511719</ele>
        <time>2014-03-02T12:43:51.000Z</time>
      </trkpt>
      <trkpt lat="45.34796" lon="6.19551">
        <ele>2541.1999511719</ele>
        <time>2014-03-02T12:43:52.000Z</time>
      </trkpt>
      <trkpt lat="45.34796" lon="6.19551">
        <ele>2541.1999511719</ele>
        <time>2014-03-02T12:43:53.000Z</time>
      </trkpt>
      <trkpt lat="45.34796" lon="6.19551">
        <ele>2541.1999511719</ele>
        <time>2014-03-02T12:43:54.000Z</time>
      </trkpt>
      <trkpt lat="45.34796" lon="6.19551">
        <ele>2541.1999511719</ele>
        <time>2014-03-02T12:43:55.000Z</time>
      </trkpt>
      <trkpt lat="45.34796" lon="6.19551">
        <ele>2541.1999511719</ele>
        <time>2014-03-02T12:43:56.000Z</time>
      </trkpt>
      <trkpt lat="45.34796" lon="6.19551">
        <ele>2541.1999511719</ele>
        <time>2014-03-02T12:43:57.000Z</time>
      </trkpt>
      <trkpt lat="45.34797" lon="6.1955">
        <ele>2541.8000488281</ele>
        <time>2014-03-02T12:43:58.000Z</time>
      </trkpt>
      <trkpt lat="45.34798" lon="6.19548">
        <ele>2542.6000976562</ele>
        <time>2014-03-02T12:43:59.000Z</time>
      </trkpt>
      <trkpt lat="45.34799" lon="6.19546">
        <ele>2543.3999023438</ele>
        <time>2014-03-02T12:44:00.000Z</time>
      </trkpt>
      <trkpt lat="45.34799" lon="6.19544">
        <ele>2544.1999511719</ele>
        <time>2014-03-02T12:44:01.000Z</time>
      </trkpt>
      <trkpt lat="45.348" lon="6.19543">
        <ele>2544.8000488281</ele>
        <time>2014-03-02T12:44:02.000Z</time>
      </trkpt>
      <trkpt lat="45.34801" lon="6.19541">
        <ele>2545.3999023438</ele>
        <time>2014-03-02T12:44:03.000Z</time>
      </trkpt>
      <trkpt lat="45.34801" lon="6.19539">
        <ele>2546</ele>
        <time>2014-03-02T12:44:04.000Z</time>
      </trkpt>
      <trkpt lat="45.34801" lon="6.19538">
        <ele>2546.6000976562</ele>
        <time>2014-03-02T12:44:05.000Z</time>
      </trkpt>
      <trkpt lat="45.34802" lon="6.19536">
        <ele>2547</ele>
        <time>2014-03-02T12:44:06.000Z</time>
      </trkpt>
      <trkpt lat="45.34802" lon="6.19535">
        <ele>2547.3999023438</ele>
        <time>2014-03-02T12:44:07.000Z</time>
      </trkpt>
      <trkpt lat="45.34802" lon="6.19535">
        <ele>2547.3999023438</ele>
        <time>2014-03-02T12:44:08.000Z</time>
      </trkpt>
      <trkpt lat="45.34802" lon="6.19534">
        <ele>2548</ele>
        <time>2014-03-02T12:44:09.000Z</time>
      </trkpt>
      <trkpt lat="45.34802" lon="6.19534">
        <ele>2548</ele>
        <time>2014-03-02T12:44:10.000Z</time>
      </trkpt>
      <trkpt lat="45.34802" lon="6.19533">
        <ele>2548.3999023438</ele>
        <time>2014-03-02T12:44:11.000Z</time>
      </trkpt>
      <trkpt lat="45.34802" lon="6.19533">
        <ele>2548.3999023438</ele>
        <time>2014-03-02T12:44:12.000Z</time>
      </trkpt>
      <trkpt lat="45.34802" lon="6.19531">
        <ele>2548.6000976562</ele>
        <time>2014-03-02T12:44:13.000Z</time>
      </trkpt>
      <trkpt lat="45.34802" lon="6.19531">
        <ele>2548.6000976562</ele>
        <time>2014-03-02T12:44:14.000Z</time>
      </trkpt>
      <trkpt lat="45.34803" lon="6.1953">
        <ele>2549</ele>
        <time>2014-03-02T12:44:15.000Z</time>
      </trkpt>
      <trkpt lat="45.34802" lon="6.19529">
        <ele>2549.1999511719</ele>
        <time>2014-03-02T12:44:16.000Z</time>
      </trkpt>
      <trkpt lat="45.34803" lon="6.19523">
        <ele>2551</ele>
        <time>2014-03-02T12:44:17.000Z</time>
      </trkpt>
      <trkpt lat="45.34804" lon="6.19518">
        <ele>2552.6000976562</ele>
        <time>2014-03-02T12:44:18.000Z</time>
      </trkpt>
      <trkpt lat="45.34804" lon="6.19515">
        <ele>2553.3999023438</ele>
        <time>2014-03-02T12:44:19.000Z</time>
      </trkpt>
      <trkpt lat="45.34805" lon="6.19512">
        <ele>2554.1999511719</ele>
        <time>2014-03-02T12:44:20.000Z</time>
      </trkpt>
      <trkpt lat="45.34805" lon="6.1951">
        <ele>2555</ele>
        <time>2014-03-02T12:44:21.000Z</time>
      </trkpt>
      <trkpt lat="45.34805" lon="6.19508">
        <ele>2555.6000976562</ele>
        <time>2014-03-02T12:44:22.000Z</time>
      </trkpt>
      <trkpt lat="45.34805" lon="6.19507">
        <ele>2555.6000976562</ele>
        <time>2014-03-02T12:44:23.000Z</time>
      </trkpt>
      <trkpt lat="45.34805" lon="6.19506">
        <ele>2556</ele>
        <time>2014-03-02T12:44:24.000Z</time>
      </trkpt>
      <trkpt lat="45.34805" lon="6.19505">
        <ele>2556.1999511719</ele>
        <time>2014-03-02T12:44:25.000Z</time>
      </trkpt>
      <trkpt lat="45.34804" lon="6.19504">
        <ele>2556.3999023438</ele>
        <time>2014-03-02T12:44:26.000Z</time>
      </trkpt>
      <trkpt lat="45.34804" lon="6.19504">
        <ele>2556.3999023438</ele>
        <time>2014-03-02T12:44:27.000Z</time>
      </trkpt>
      <trkpt lat="45.34804" lon="6.19503">
        <ele>2556.6000976562</ele>
        <time>2014-03-02T12:44:28.000Z</time>
      </trkpt>
      <trkpt lat="45.34805" lon="6.19502">
        <ele>2556.8000488281</ele>
        <time>2014-03-02T12:44:29.000Z</time>
      </trkpt>
      <trkpt lat="45.34805" lon="6.19501">
        <ele>2557.1999511719</ele>
        <time>2014-03-02T12:44:30.000Z</time>
      </trkpt>
      <trkpt lat="45.34805" lon="6.19501">
        <ele>2557.3999023438</ele>
        <time>2014-03-02T12:44:31.000Z</time>
      </trkpt>
      <trkpt lat="45.34805" lon="6.19501">
        <ele>2557.3999023438</ele>
        <time>2014-03-02T12:44:32.000Z</time>
      </trkpt>
      <trkpt lat="45.34805" lon="6.19501">
        <ele>2557.3999023438</ele>
        <time>2014-03-02T12:44:33.000Z</time>
      </trkpt>
      <trkpt lat="45.34805" lon="6.195">
        <ele>2557.3999023438</ele>
        <time>2014-03-02T12:44:34.000Z</time>
      </trkpt>
      <trkpt lat="45.34805" lon="6.195">
        <ele>2557.6000976562</ele>
        <time>2014-03-02T12:44:35.000Z</time>
      </trkpt>
      <trkpt lat="45.34805" lon="6.195">
        <ele>2557.6000976562</ele>
        <time>2014-03-02T12:44:36.000Z</time>
      </trkpt>
      <trkpt lat="45.34805" lon="6.195">
        <ele>2557.6000976562</ele>
        <time>2014-03-02T12:44:37.000Z</time>
      </trkpt>
      <trkpt lat="45.34805" lon="6.195">
        <ele>2557.6000976562</ele>
        <time>2014-03-02T12:44:38.000Z</time>
      </trkpt>
      <trkpt lat="45.34805" lon="6.195">
        <ele>2557.6000976562</ele>
        <time>2014-03-02T12:44:39.000Z</time>
      </trkpt>
      <trkpt lat="45.34805" lon="6.195">
        <ele>2557.6000976562</ele>
        <time>2014-03-02T12:44:40.000Z</time>
      </trkpt>
      <trkpt lat="45.34805" lon="6.195">
        <ele>2557.6000976562</ele>
        <time>2014-03-02T12:44:41.000Z</time>
      </trkpt>
      <trkpt lat="45.34805" lon="6.195">
        <ele>2557.6000976562</ele>
        <time>2014-03-02T12:44:42.000Z</time>
      </trkpt>
      <trkpt lat="45.34805" lon="6.19499">
        <ele>2557.6000976562</ele>
        <time>2014-03-02T12:44:43.000Z</time>
      </trkpt>
      <trkpt lat="45.34804" lon="6.19499">
        <ele>2557.8000488281</ele>
        <time>2014-03-02T12:44:44.000Z</time>
      </trkpt>
      <trkpt lat="45.34804" lon="6.19499">
        <ele>2557.8000488281</ele>
        <time>2014-03-02T12:44:45.000Z</time>
      </trkpt>
      <trkpt lat="45.34804" lon="6.19497">
        <ele>2558</ele>
        <time>2014-03-02T12:44:46.000Z</time>
      </trkpt>
      <trkpt lat="45.34804" lon="6.19496">
        <ele>2558.1999511719</ele>
        <time>2014-03-02T12:44:47.000Z</time>
      </trkpt>
      <trkpt lat="45.34804" lon="6.19496">
        <ele>2558.1999511719</ele>
        <time>2014-03-02T12:44:48.000Z</time>
      </trkpt>
      <trkpt lat="45.34804" lon="6.19496">
        <ele>2558.1999511719</ele>
        <time>2014-03-02T12:44:49.000Z</time>
      </trkpt>
      <trkpt lat="45.34804" lon="6.19496">
        <ele>2558.1999511719</ele>
        <time>2014-03-02T12:44:50.000Z</time>
      </trkpt>
      <trkpt lat="45.34804" lon="6.19496">
        <ele>2558.1999511719</ele>
        <time>2014-03-02T12:44:51.000Z</time>
      </trkpt>
      <trkpt lat="45.34804" lon="6.19496">
        <ele>2558.1999511719</ele>
        <time>2014-03-02T12:44:52.000Z</time>
      </trkpt>
      <trkpt lat="45.34804" lon="6.19496">
        <ele>2558.1999511719</ele>
        <time>2014-03-02T12:44:53.000Z</time>
      </trkpt>
      <trkpt lat="45.34804" lon="6.19496">
        <ele>2558.1999511719</ele>
        <time>2014-03-02T12:44:54.000Z</time>
      </trkpt>
      <trkpt lat="45.34804" lon="6.19496">
        <ele>2558.1999511719</ele>
        <time>2014-03-02T12:44:55.000Z</time>
      </trkpt>
      <trkpt lat="45.34804" lon="6.19496">
        <ele>2558.1999511719</ele>
        <time>2014-03-02T12:44:56.000Z</time>
      </trkpt>
      <trkpt lat="45.34804" lon="6.19496">
        <ele>2558.1999511719</ele>
        <time>2014-03-02T12:44:57.000Z</time>
      </trkpt>
      <trkpt lat="45.34804" lon="6.19496">
        <ele>2558.1999511719</ele>
        <time>2014-03-02T12:44:58.000Z</time>
      </trkpt>
      <trkpt lat="45.34804" lon="6.19496">
        <ele>2558.3999023438</ele>
        <time>2014-03-02T12:44:59.000Z</time>
      </trkpt>
      <trkpt lat="45.34804" lon="6.19494">
        <ele>2558.6000976562</ele>
        <time>2014-03-02T12:45:00.000Z</time>
      </trkpt>
      <trkpt lat="45.34804" lon="6.19494">
        <ele>2558.8000488281</ele>
        <time>2014-03-02T12:45:01.000Z</time>
      </trkpt>
      <trkpt lat="45.34804" lon="6.19493">
        <ele>2559.1999511719</ele>
        <time>2014-03-02T12:45:02.000Z</time>
      </trkpt>
      <trkpt lat="45.34804" lon="6.19492">
        <ele>2559.1999511719</ele>
        <time>2014-03-02T12:45:03.000Z</time>
      </trkpt>
      <trkpt lat="45.34804" lon="6.19491">
        <ele>2559.6000976562</ele>
        <time>2014-03-02T12:45:04.000Z</time>
      </trkpt>
      <trkpt lat="45.34804" lon="6.19489">
        <ele>2560</ele>
        <time>2014-03-02T12:45:05.000Z</time>
      </trkpt>
      <trkpt lat="45.34804" lon="6.19488">
        <ele>2560.1999511719</ele>
        <time>2014-03-02T12:45:06.000Z</time>
      </trkpt>
      <trkpt lat="45.34804" lon="6.19486">
        <ele>2560.6000976562</ele>
        <time>2014-03-02T12:45:07.000Z</time>
      </trkpt>
      <trkpt lat="45.34804" lon="6.19486">
        <ele>2560.6000976562</ele>
        <time>2014-03-02T12:45:08.000Z</time>
      </trkpt>
      <trkpt lat="45.34804" lon="6.19486">
        <ele>2560.6000976562</ele>
        <time>2014-03-02T12:45:09.000Z</time>
      </trkpt>
      <trkpt lat="45.34804" lon="6.19486">
        <ele>2560.6000976562</ele>
        <time>2014-03-02T12:45:10.000Z</time>
      </trkpt>
      <trkpt lat="45.34804" lon="6.19486">
        <ele>2560.6000976562</ele>
        <time>2014-03-02T12:45:11.000Z</time>
      </trkpt>
      <trkpt lat="45.34804" lon="6.19486">
        <ele>2560.6000976562</ele>
        <time>2014-03-02T12:45:12.000Z</time>
      </trkpt>
      <trkpt lat="45.34804" lon="6.19485">
        <ele>2561</ele>
        <time>2014-03-02T12:45:13.000Z</time>
      </trkpt>
      <trkpt lat="45.34804" lon="6.19483">
        <ele>2561.6000976562</ele>
        <time>2014-03-02T12:45:14.000Z</time>
      </trkpt>
      <trkpt lat="45.34804" lon="6.19482">
        <ele>2562.1999511719</ele>
        <time>2014-03-02T12:45:15.000Z</time>
      </trkpt>
      <trkpt lat="45.34804" lon="6.1948">
        <ele>2562.8000488281</ele>
        <time>2014-03-02T12:45:16.000Z</time>
      </trkpt>
      <trkpt lat="45.34804" lon="6.19479">
        <ele>2563.1999511719</ele>
        <time>2014-03-02T12:45:17.000Z</time>
      </trkpt>
      <trkpt lat="45.34804" lon="6.19478">
        <ele>2563.8000488281</ele>
        <time>2014-03-02T12:45:18.000Z</time>
      </trkpt>
      <trkpt lat="45.34804" lon="6.19478">
        <ele>2563.8000488281</ele>
        <time>2014-03-02T12:45:19.000Z</time>
      </trkpt>
      <trkpt lat="45.34804" lon="6.19476">
        <ele>2564.3999023438</ele>
        <time>2014-03-02T12:45:20.000Z</time>
      </trkpt>
      <trkpt lat="45.34804" lon="6.19476">
        <ele>2564.3999023438</ele>
        <time>2014-03-02T12:45:21.000Z</time>
      </trkpt>
      <trkpt lat="45.34804" lon="6.19476">
        <ele>2564.3999023438</ele>
        <time>2014-03-02T12:45:22.000Z</time>
      </trkpt>
      <trkpt lat="45.34804" lon="6.19476">
        <ele>2564.3999023438</ele>
        <time>2014-03-02T12:45:23.000Z</time>
      </trkpt>
      <trkpt lat="45.34804" lon="6.19476">
        <ele>2564.3999023438</ele>
        <time>2014-03-02T12:45:24.000Z</time>
      </trkpt>
      <trkpt lat="45.34804" lon="6.19476">
        <ele>2564.3999023438</ele>
        <time>2014-03-02T12:45:25.000Z</time>
      </trkpt>
      <trkpt lat="45.34804" lon="6.19476">
        <ele>2564.3999023438</ele>
        <time>2014-03-02T12:45:26.000Z</time>
      </trkpt>
      <trkpt lat="45.34804" lon="6.19476">
        <ele>2564.3999023438</ele>
        <time>2014-03-02T12:45:27.000Z</time>
      </trkpt>
      <trkpt lat="45.34804" lon="6.19476">
        <ele>2564.3999023438</ele>
        <time>2014-03-02T12:45:28.000Z</time>
      </trkpt>
      <trkpt lat="45.34804" lon="6.19476">
        <ele>2564.3999023438</ele>
        <time>2014-03-02T12:45:29.000Z</time>
      </trkpt>
      <trkpt lat="45.34804" lon="6.19476">
        <ele>2564.3999023438</ele>
        <time>2014-03-02T12:45:30.000Z</time>
      </trkpt>
      <trkpt lat="45.34804" lon="6.19476">
        <ele>2564.3999023438</ele>
        <time>2014-03-02T12:45:31.000Z</time>
      </trkpt>
      <trkpt lat="45.34804" lon="6.19476">
        <ele>2564.3999023438</ele>
        <time>2014-03-02T12:45:32.000Z</time>
      </trkpt>
      <trkpt lat="45.34804" lon="6.19476">
        <ele>2564.3999023438</ele>
        <time>2014-03-02T12:45:33.000Z</time>
      </trkpt>
      <trkpt lat="45.34804" lon="6.19476">
        <ele>2564.3999023438</ele>
        <time>2014-03-02T12:45:34.000Z</time>
      </trkpt>
      <trkpt lat="45.34804" lon="6.19476">
        <ele>2564.3999023438</ele>
        <time>2014-03-02T12:45:35.000Z</time>
      </trkpt>
      <trkpt lat="45.34804" lon="6.19476">
        <ele>2564.3999023438</ele>
        <time>2014-03-02T12:45:36.000Z</time>
      </trkpt>
      <trkpt lat="45.34804" lon="6.19476">
        <ele>2564.3999023438</ele>
        <time>2014-03-02T12:45:37.000Z</time>
      </trkpt>
      <trkpt lat="45.34804" lon="6.19476">
        <ele>2564.3999023438</ele>
        <time>2014-03-02T12:45:38.000Z</time>
      </trkpt>
      <trkpt lat="45.34804" lon="6.19476">
        <ele>2564.3999023438</ele>
        <time>2014-03-02T12:45:39.000Z</time>
      </trkpt>
      <trkpt lat="45.34804" lon="6.19476">
        <ele>2564.3999023438</ele>
        <time>2014-03-02T12:45:40.000Z</time>
      </trkpt>
      <trkpt lat="45.34804" lon="6.19476">
        <ele>2564.3999023438</ele>
        <time>2014-03-02T12:45:41.000Z</time>
      </trkpt>
      <trkpt lat="45.34804" lon="6.19476">
        <ele>2564.3999023438</ele>
        <time>2014-03-02T12:45:42.000Z</time>
      </trkpt>
      <trkpt lat="45.34804" lon="6.19476">
        <ele>2564.3999023438</ele>
        <time>2014-03-02T12:45:43.000Z</time>
      </trkpt>
      <trkpt lat="45.34804" lon="6.19476">
        <ele>2564.3999023438</ele>
        <time>2014-03-02T12:45:44.000Z</time>
      </trkpt>
      <trkpt lat="45.34804" lon="6.19476">
        <ele>2564.3999023438</ele>
        <time>2014-03-02T12:45:45.000Z</time>
      </trkpt>
      <trkpt lat="45.34804" lon="6.19476">
        <ele>2564.3999023438</ele>
        <time>2014-03-02T12:45:46.000Z</time>
      </trkpt>
      <trkpt lat="45.34804" lon="6.19476">
        <ele>2564.3999023438</ele>
        <time>2014-03-02T12:45:47.000Z</time>
      </trkpt>
      <trkpt lat="45.34804" lon="6.19476">
        <ele>2564.3999023438</ele>
        <time>2014-03-02T12:45:48.000Z</time>
      </trkpt>
      <trkpt lat="45.34804" lon="6.19476">
        <ele>2564.3999023438</ele>
        <time>2014-03-02T12:45:49.000Z</time>
      </trkpt>
      <trkpt lat="45.34804" lon="6.19476">
        <ele>2564.3999023438</ele>
        <time>2014-03-02T12:45:50.000Z</time>
      </trkpt>
      <trkpt lat="45.34804" lon="6.19476">
        <ele>2564.3999023438</ele>
        <time>2014-03-02T12:45:51.000Z</time>
      </trkpt>
      <trkpt lat="45.34804" lon="6.19476">
        <ele>2564.3999023438</ele>
        <time>2014-03-02T12:45:52.000Z</time>
      </trkpt>
      <trkpt lat="45.34804" lon="6.19476">
        <ele>2564.3999023438</ele>
        <time>2014-03-02T12:45:53.000Z</time>
      </trkpt>
      <trkpt lat="45.34804" lon="6.19476">
        <ele>2564.3999023438</ele>
        <time>2014-03-02T12:45:54.000Z</time>
      </trkpt>
      <trkpt lat="45.34804" lon="6.19476">
        <ele>2564.3999023438</ele>
        <time>2014-03-02T12:45:55.000Z</time>
      </trkpt>
      <trkpt lat="45.34804" lon="6.19476">
        <ele>2564.3999023438</ele>
        <time>2014-03-02T12:45:56.000Z</time>
      </trkpt>
      <trkpt lat="45.34804" lon="6.19476">
        <ele>2564.3999023438</ele>
        <time>2014-03-02T12:45:57.000Z</time>
      </trkpt>
      <trkpt lat="45.34804" lon="6.19476">
        <ele>2564.3999023438</ele>
        <time>2014-03-02T12:45:58.000Z</time>
      </trkpt>
      <trkpt lat="45.34804" lon="6.19476">
        <ele>2564.3999023438</ele>
        <time>2014-03-02T12:45:59.000Z</time>
      </trkpt>
      <trkpt lat="45.34804" lon="6.19475">
        <ele>2564.6000976562</ele>
        <time>2014-03-02T12:46:00.000Z</time>
      </trkpt>
      <trkpt lat="45.34804" lon="6.19475">
        <ele>2564.6000976562</ele>
        <time>2014-03-02T12:46:01.000Z</time>
      </trkpt>
      <trkpt lat="45.34804" lon="6.19475">
        <ele>2564.6000976562</ele>
        <time>2014-03-02T12:46:02.000Z</time>
      </trkpt>
      <trkpt lat="45.34804" lon="6.19475">
        <ele>2564.6000976562</ele>
        <time>2014-03-02T12:46:03.000Z</time>
      </trkpt>
      <trkpt lat="45.34804" lon="6.19475">
        <ele>2564.6000976562</ele>
        <time>2014-03-02T12:46:04.000Z</time>
      </trkpt>
      <trkpt lat="45.34804" lon="6.19475">
        <ele>2564.6000976562</ele>
        <time>2014-03-02T12:46:05.000Z</time>
      </trkpt>
      <trkpt lat="45.34804" lon="6.19475">
        <ele>2564.6000976562</ele>
        <time>2014-03-02T12:46:06.000Z</time>
      </trkpt>
      <trkpt lat="45.34804" lon="6.19475">
        <ele>2564.6000976562</ele>
        <time>2014-03-02T12:46:07.000Z</time>
      </trkpt>
      <trkpt lat="45.34804" lon="6.19475">
        <ele>2564.6000976562</ele>
        <time>2014-03-02T12:46:08.000Z</time>
      </trkpt>
      <trkpt lat="45.34804" lon="6.19475">
        <ele>2564.6000976562</ele>
        <time>2014-03-02T12:46:09.000Z</time>
      </trkpt>
      <trkpt lat="45.34804" lon="6.19475">
        <ele>2564.6000976562</ele>
        <time>2014-03-02T12:46:10.000Z</time>
      </trkpt>
      <trkpt lat="45.34804" lon="6.19475">
        <ele>2564.6000976562</ele>
        <time>2014-03-02T12:46:11.000Z</time>
      </trkpt>
      <trkpt lat="45.34804" lon="6.19475">
        <ele>2564.6000976562</ele>
        <time>2014-03-02T12:46:12.000Z</time>
      </trkpt>
      <trkpt lat="45.34804" lon="6.19475">
        <ele>2564.6000976562</ele>
        <time>2014-03-02T12:46:13.000Z</time>
      </trkpt>
      <trkpt lat="45.34804" lon="6.19475">
        <ele>2564.6000976562</ele>
        <time>2014-03-02T12:46:14.000Z</time>
      </trkpt>
      <trkpt lat="45.34804" lon="6.19475">
        <ele>2564.6000976562</ele>
        <time>2014-03-02T12:46:15.000Z</time>
      </trkpt>
      <trkpt lat="45.34804" lon="6.19475">
        <ele>2564.6000976562</ele>
        <time>2014-03-02T12:46:16.000Z</time>
      </trkpt>
      <trkpt lat="45.34804" lon="6.19475">
        <ele>2564.6000976562</ele>
        <time>2014-03-02T12:46:17.000Z</time>
      </trkpt>
      <trkpt lat="45.34804" lon="6.19475">
        <ele>2564.6000976562</ele>
        <time>2014-03-02T12:46:18.000Z</time>
      </trkpt>
      <trkpt lat="45.34804" lon="6.19475">
        <ele>2564.6000976562</ele>
        <time>2014-03-02T12:46:20.000Z</time>
      </trkpt>
      <trkpt lat="45.34804" lon="6.19475">
        <ele>2564.6000976562</ele>
        <time>2014-03-02T12:46:21.000Z</time>
      </trkpt>
      <trkpt lat="45.34804" lon="6.19475">
        <ele>2564.6000976562</ele>
        <time>2014-03-02T12:46:22.000Z</time>
      </trkpt>
      <trkpt lat="45.34804" lon="6.19475">
        <ele>2564.6000976562</ele>
        <time>2014-03-02T12:46:23.000Z</time>
      </trkpt>
      <trkpt lat="45.34804" lon="6.19475">
        <ele>2564.6000976562</ele>
        <time>2014-03-02T12:46:24.000Z</time>
      </trkpt>
      <trkpt lat="45.34804" lon="6.19475">
        <ele>2564.6000976562</ele>
        <time>2014-03-02T12:46:25.000Z</time>
      </trkpt>
      <trkpt lat="45.34804" lon="6.19475">
        <ele>2564.6000976562</ele>
        <time>2014-03-02T12:46:26.000Z</time>
      </trkpt>
      <trkpt lat="45.34804" lon="6.19475">
        <ele>2564.6000976562</ele>
        <time>2014-03-02T12:46:27.000Z</time>
      </trkpt>
      <trkpt lat="45.34804" lon="6.19475">
        <ele>2564.6000976562</ele>
        <time>2014-03-02T12:46:28.000Z</time>
      </trkpt>
      <trkpt lat="45.34804" lon="6.19475">
        <ele>2564.6000976562</ele>
        <time>2014-03-02T12:46:29.000Z</time>
      </trkpt>
      <trkpt lat="45.34804" lon="6.19475">
        <ele>2564.6000976562</ele>
        <time>2014-03-02T12:46:30.000Z</time>
      </trkpt>
      <trkpt lat="45.34804" lon="6.19475">
        <ele>2564.6000976562</ele>
        <time>2014-03-02T12:46:31.000Z</time>
      </trkpt>
      <trkpt lat="45.34804" lon="6.19473">
        <ele>2566</ele>
        <time>2014-03-02T12:46:32.000Z</time>
      </trkpt>
      <trkpt lat="45.34804" lon="6.19473">
        <ele>2566</ele>
        <time>2014-03-02T12:46:33.000Z</time>
      </trkpt>
      <trkpt lat="45.34804" lon="6.19473">
        <ele>2566</ele>
        <time>2014-03-02T12:46:34.000Z</time>
      </trkpt>
      <trkpt lat="45.34804" lon="6.19473">
        <ele>2566</ele>
        <time>2014-03-02T12:46:35.000Z</time>
      </trkpt>
      <trkpt lat="45.34804" lon="6.19473">
        <ele>2566</ele>
        <time>2014-03-02T12:46:36.000Z</time>
      </trkpt>
      <trkpt lat="45.34804" lon="6.19473">
        <ele>2566</ele>
        <time>2014-03-02T12:46:37.000Z</time>
      </trkpt>
      <trkpt lat="45.34804" lon="6.19473">
        <ele>2566</ele>
        <time>2014-03-02T12:46:38.000Z</time>
      </trkpt>
      <trkpt lat="45.34805" lon="6.19471">
        <ele>2566.8000488281</ele>
        <time>2014-03-02T12:46:39.000Z</time>
      </trkpt>
      <trkpt lat="45.34805" lon="6.19471">
        <ele>2566.8000488281</ele>
        <time>2014-03-02T12:46:40.000Z</time>
      </trkpt>
      <trkpt lat="45.34805" lon="6.19471">
        <ele>2566.8000488281</ele>
        <time>2014-03-02T12:46:41.000Z</time>
      </trkpt>
      <trkpt lat="45.34805" lon="6.19471">
        <ele>2566.8000488281</ele>
        <time>2014-03-02T12:46:42.000Z</time>
      </trkpt>
      <trkpt lat="45.34805" lon="6.19471">
        <ele>2566.8000488281</ele>
        <time>2014-03-02T12:46:43.000Z</time>
      </trkpt>
      <trkpt lat="45.34805" lon="6.19471">
        <ele>2566.8000488281</ele>
        <time>2014-03-02T12:46:44.000Z</time>
      </trkpt>
      <trkpt lat="45.34805" lon="6.19471">
        <ele>2566.8000488281</ele>
        <time>2014-03-02T12:46:45.000Z</time>
      </trkpt>
      <trkpt lat="45.34805" lon="6.19471">
        <ele>2566.8000488281</ele>
        <time>2014-03-02T12:46:46.000Z</time>
      </trkpt>
      <trkpt lat="45.34805" lon="6.19471">
        <ele>2566.8000488281</ele>
        <time>2014-03-02T12:46:47.000Z</time>
      </trkpt>
      <trkpt lat="45.34805" lon="6.19471">
        <ele>2566.8000488281</ele>
        <time>2014-03-02T12:46:48.000Z</time>
      </trkpt>
      <trkpt lat="45.34805" lon="6.19471">
        <ele>2566.8000488281</ele>
        <time>2014-03-02T12:46:49.000Z</time>
      </trkpt>
      <trkpt lat="45.34805" lon="6.19471">
        <ele>2566.8000488281</ele>
        <time>2014-03-02T12:46:50.000Z</time>
      </trkpt>
      <trkpt lat="45.34805" lon="6.19471">
        <ele>2566.8000488281</ele>
        <time>2014-03-02T12:46:51.000Z</time>
      </trkpt>
      <trkpt lat="45.34805" lon="6.19471">
        <ele>2566.8000488281</ele>
        <time>2014-03-02T12:46:52.000Z</time>
      </trkpt>
      <trkpt lat="45.34805" lon="6.19471">
        <ele>2566.8000488281</ele>
        <time>2014-03-02T12:46:53.000Z</time>
      </trkpt>
      <trkpt lat="45.34805" lon="6.19471">
        <ele>2566.8000488281</ele>
        <time>2014-03-02T12:46:54.000Z</time>
      </trkpt>
      <trkpt lat="45.34805" lon="6.19471">
        <ele>2566.8000488281</ele>
        <time>2014-03-02T12:46:55.000Z</time>
      </trkpt>
      <trkpt lat="45.34805" lon="6.19471">
        <ele>2566.8000488281</ele>
        <time>2014-03-02T12:46:56.000Z</time>
      </trkpt>
      <trkpt lat="45.34805" lon="6.19471">
        <ele>2566.8000488281</ele>
        <time>2014-03-02T12:46:57.000Z</time>
      </trkpt>
      <trkpt lat="45.34805" lon="6.19471">
        <ele>2566.8000488281</ele>
        <time>2014-03-02T12:46:58.000Z</time>
      </trkpt>
      <trkpt lat="45.34806" lon="6.19465">
        <ele>2570.1999511719</ele>
        <time>2014-03-02T12:46:59.000Z</time>
      </trkpt>
      <trkpt lat="45.34806" lon="6.19465">
        <ele>2570.1999511719</ele>
        <time>2014-03-02T12:47:00.000Z</time>
      </trkpt>
      <trkpt lat="45.34806" lon="6.19465">
        <ele>2570.1999511719</ele>
        <time>2014-03-02T12:47:01.000Z</time>
      </trkpt>
      <trkpt lat="45.34806" lon="6.19465">
        <ele>2570.1999511719</ele>
        <time>2014-03-02T12:47:02.000Z</time>
      </trkpt>
      <trkpt lat="45.34806" lon="6.19465">
        <ele>2570.1999511719</ele>
        <time>2014-03-02T12:47:03.000Z</time>
      </trkpt>
      <trkpt lat="45.34806" lon="6.19465">
        <ele>2570.1999511719</ele>
        <time>2014-03-02T12:47:04.000Z</time>
      </trkpt>
      <trkpt lat="45.34807" lon="6.19459">
        <ele>2573</ele>
        <time>2014-03-02T12:47:05.000Z</time>
      </trkpt>
      <trkpt lat="45.34808" lon="6.19456">
        <ele>2575</ele>
        <time>2014-03-02T12:47:06.000Z</time>
      </trkpt>
      <trkpt lat="45.34808" lon="6.19453">
        <ele>2576.1999511719</ele>
        <time>2014-03-02T12:47:07.000Z</time>
      </trkpt>
      <trkpt lat="45.34809" lon="6.1945">
        <ele>2578</ele>
        <time>2014-03-02T12:47:08.000Z</time>
      </trkpt>
      <trkpt lat="45.34809" lon="6.19447">
        <ele>2579.3999023438</ele>
        <time>2014-03-02T12:47:09.000Z</time>
      </trkpt>
      <trkpt lat="45.34809" lon="6.19447">
        <ele>2579.3999023438</ele>
        <time>2014-03-02T12:47:10.000Z</time>
      </trkpt>
      <trkpt lat="45.34809" lon="6.19447">
        <ele>2579.3999023438</ele>
        <time>2014-03-02T12:47:11.000Z</time>
      </trkpt>
      <trkpt lat="45.3481" lon="6.19444">
        <ele>2581</ele>
        <time>2014-03-02T12:47:12.000Z</time>
      </trkpt>
      <trkpt lat="45.3481" lon="6.19444">
        <ele>2581</ele>
        <time>2014-03-02T12:47:13.000Z</time>
      </trkpt>
      <trkpt lat="45.3481" lon="6.19444">
        <ele>2581</ele>
        <time>2014-03-02T12:47:14.000Z</time>
      </trkpt>
      <trkpt lat="45.34811" lon="6.19441">
        <ele>2582.3999023438</ele>
        <time>2014-03-02T12:47:15.000Z</time>
      </trkpt>
      <trkpt lat="45.34811" lon="6.19441">
        <ele>2582.3999023438</ele>
        <time>2014-03-02T12:47:16.000Z</time>
      </trkpt>
      <trkpt lat="45.34811" lon="6.19441">
        <ele>2582.3999023438</ele>
        <time>2014-03-02T12:47:17.000Z</time>
      </trkpt>
      <trkpt lat="45.34811" lon="6.19441">
        <ele>2582.3999023438</ele>
        <time>2014-03-02T12:47:18.000Z</time>
      </trkpt>
      <trkpt lat="45.34811" lon="6.19441">
        <ele>2582.3999023438</ele>
        <time>2014-03-02T12:47:19.000Z</time>
      </trkpt>
      <trkpt lat="45.34811" lon="6.19441">
        <ele>2582.3999023438</ele>
        <time>2014-03-02T12:47:20.000Z</time>
      </trkpt>
      <trkpt lat="45.34811" lon="6.19441">
        <ele>2582.3999023438</ele>
        <time>2014-03-02T12:47:21.000Z</time>
      </trkpt>
      <trkpt lat="45.34811" lon="6.19441">
        <ele>2582.3999023438</ele>
        <time>2014-03-02T12:47:22.000Z</time>
      </trkpt>
      <trkpt lat="45.34808" lon="6.19437">
        <ele>2582.8000488281</ele>
        <time>2014-03-02T12:47:23.000Z</time>
      </trkpt>
      <trkpt lat="45.34808" lon="6.19437">
        <ele>2582.8000488281</ele>
        <time>2014-03-02T12:47:24.000Z</time>
      </trkpt>
      <trkpt lat="45.34808" lon="6.19437">
        <ele>2582.8000488281</ele>
        <time>2014-03-02T12:47:25.000Z</time>
      </trkpt>
      <trkpt lat="45.34806" lon="6.19433">
        <ele>2583.6000976562</ele>
        <time>2014-03-02T12:47:26.000Z</time>
      </trkpt>
      <trkpt lat="45.34806" lon="6.19433">
        <ele>2583.6000976562</ele>
        <time>2014-03-02T12:47:27.000Z</time>
      </trkpt>
      <trkpt lat="45.34805" lon="6.1943">
        <ele>2584.3999023438</ele>
        <time>2014-03-02T12:47:28.000Z</time>
      </trkpt>
      <trkpt lat="45.34805" lon="6.1943">
        <ele>2584.3999023438</ele>
        <time>2014-03-02T12:47:29.000Z</time>
      </trkpt>
      <trkpt lat="45.34805" lon="6.1943">
        <ele>2584.3999023438</ele>
        <time>2014-03-02T12:47:30.000Z</time>
      </trkpt>
      <trkpt lat="45.34804" lon="6.19427">
        <ele>2585</ele>
        <time>2014-03-02T12:47:31.000Z</time>
      </trkpt>
      <trkpt lat="45.34804" lon="6.19427">
        <ele>2585</ele>
        <time>2014-03-02T12:47:32.000Z</time>
      </trkpt>
      <trkpt lat="45.34804" lon="6.19427">
        <ele>2585</ele>
        <time>2014-03-02T12:47:33.000Z</time>
      </trkpt>
      <trkpt lat="45.34803" lon="6.19424">
        <ele>2586</ele>
        <time>2014-03-02T12:47:34.000Z</time>
      </trkpt>
      <trkpt lat="45.34803" lon="6.19424">
        <ele>2586</ele>
        <time>2014-03-02T12:47:35.000Z</time>
      </trkpt>
      <trkpt lat="45.34802" lon="6.1942">
        <ele>2587</ele>
        <time>2014-03-02T12:47:36.000Z</time>
      </trkpt>
      <trkpt lat="45.34802" lon="6.1942">
        <ele>2587</ele>
        <time>2014-03-02T12:47:37.000Z</time>
      </trkpt>
      <trkpt lat="45.34801" lon="6.19417">
        <ele>2587.6000976562</ele>
        <time>2014-03-02T12:47:39.000Z</time>
      </trkpt>
      <trkpt lat="45.34801" lon="6.19417">
        <ele>2587.6000976562</ele>
        <time>2014-03-02T12:47:40.000Z</time>
      </trkpt>
      <trkpt lat="45.34801" lon="6.19417">
        <ele>2587.6000976562</ele>
        <time>2014-03-02T12:47:41.000Z</time>
      </trkpt>
      <trkpt lat="45.348" lon="6.19414">
        <ele>2588.1999511719</ele>
        <time>2014-03-02T12:47:42.000Z</time>
      </trkpt>
      <trkpt lat="45.348" lon="6.19414">
        <ele>2588.1999511719</ele>
        <time>2014-03-02T12:47:43.000Z</time>
      </trkpt>
      <trkpt lat="45.34799" lon="6.19411">
        <ele>2588.8000488281</ele>
        <time>2014-03-02T12:47:44.000Z</time>
      </trkpt>
      <trkpt lat="45.34799" lon="6.19411">
        <ele>2588.8000488281</ele>
        <time>2014-03-02T12:47:45.000Z</time>
      </trkpt>
      <trkpt lat="45.34799" lon="6.19411">
        <ele>2588.8000488281</ele>
        <time>2014-03-02T12:47:46.000Z</time>
      </trkpt>
      <trkpt lat="45.34798" lon="6.19408">
        <ele>2589.3999023438</ele>
        <time>2014-03-02T12:47:47.000Z</time>
      </trkpt>
      <trkpt lat="45.34798" lon="6.19408">
        <ele>2589.3999023438</ele>
        <time>2014-03-02T12:47:48.000Z</time>
      </trkpt>
      <trkpt lat="45.34798" lon="6.19408">
        <ele>2589.3999023438</ele>
        <time>2014-03-02T12:47:49.000Z</time>
      </trkpt>
      <trkpt lat="45.34798" lon="6.19408">
        <ele>2589.3999023438</ele>
        <time>2014-03-02T12:47:50.000Z</time>
      </trkpt>
      <trkpt lat="45.34798" lon="6.19408">
        <ele>2589.3999023438</ele>
        <time>2014-03-02T12:47:51.000Z</time>
      </trkpt>
      <trkpt lat="45.34798" lon="6.19408">
        <ele>2589.3999023438</ele>
        <time>2014-03-02T12:47:52.000Z</time>
      </trkpt>
      <trkpt lat="45.34798" lon="6.19408">
        <ele>2589.3999023438</ele>
        <time>2014-03-02T12:47:53.000Z</time>
      </trkpt>
      <trkpt lat="45.34798" lon="6.19408">
        <ele>2589.3999023438</ele>
        <time>2014-03-02T12:47:54.000Z</time>
      </trkpt>
      <trkpt lat="45.34797" lon="6.19406">
        <ele>2589.8000488281</ele>
        <time>2014-03-02T12:47:55.000Z</time>
      </trkpt>
      <trkpt lat="45.34797" lon="6.19406">
        <ele>2589.8000488281</ele>
        <time>2014-03-02T12:47:56.000Z</time>
      </trkpt>
      <trkpt lat="45.34797" lon="6.19406">
        <ele>2589.8000488281</ele>
        <time>2014-03-02T12:47:57.000Z</time>
      </trkpt>
      <trkpt lat="45.34795" lon="6.19404">
        <ele>2590.6000976562</ele>
        <time>2014-03-02T12:47:58.000Z</time>
      </trkpt>
      <trkpt lat="45.34795" lon="6.19402">
        <ele>2591.1999511719</ele>
        <time>2014-03-02T12:47:59.000Z</time>
      </trkpt>
      <trkpt lat="45.34795" lon="6.19402">
        <ele>2591.1999511719</ele>
        <time>2014-03-02T12:48:00.000Z</time>
      </trkpt>
      <trkpt lat="45.34795" lon="6.19402">
        <ele>2591.1999511719</ele>
        <time>2014-03-02T12:48:01.000Z</time>
      </trkpt>
      <trkpt lat="45.34795" lon="6.19402">
        <ele>2591.1999511719</ele>
        <time>2014-03-02T12:48:02.000Z</time>
      </trkpt>
      <trkpt lat="45.34795" lon="6.19402">
        <ele>2591.1999511719</ele>
        <time>2014-03-02T12:48:03.000Z</time>
      </trkpt>
      <trkpt lat="45.34795" lon="6.19402">
        <ele>2591.1999511719</ele>
        <time>2014-03-02T12:48:04.000Z</time>
      </trkpt>
      <trkpt lat="45.34795" lon="6.194">
        <ele>2592</ele>
        <time>2014-03-02T12:48:05.000Z</time>
      </trkpt>
      <trkpt lat="45.34795" lon="6.194">
        <ele>2592</ele>
        <time>2014-03-02T12:48:06.000Z</time>
      </trkpt>
      <trkpt lat="45.34795" lon="6.19399">
        <ele>2592.6000976562</ele>
        <time>2014-03-02T12:48:07.000Z</time>
      </trkpt>
      <trkpt lat="45.34795" lon="6.19399">
        <ele>2592.6000976562</ele>
        <time>2014-03-02T12:48:08.000Z</time>
      </trkpt>
      <trkpt lat="45.34795" lon="6.19398">
        <ele>2592.8000488281</ele>
        <time>2014-03-02T12:48:09.000Z</time>
      </trkpt>
      <trkpt lat="45.34795" lon="6.19396">
        <ele>2593.6000976562</ele>
        <time>2014-03-02T12:48:10.000Z</time>
      </trkpt>
      <trkpt lat="45.34795" lon="6.19396">
        <ele>2593.6000976562</ele>
        <time>2014-03-02T12:48:11.000Z</time>
      </trkpt>
      <trkpt lat="45.34795" lon="6.19396">
        <ele>2593.6000976562</ele>
        <time>2014-03-02T12:48:12.000Z</time>
      </trkpt>
      <trkpt lat="45.34796" lon="6.19395">
        <ele>2594.3999023438</ele>
        <time>2014-03-02T12:48:13.000Z</time>
      </trkpt>
      <trkpt lat="45.34796" lon="6.19395">
        <ele>2594.3999023438</ele>
        <time>2014-03-02T12:48:14.000Z</time>
      </trkpt>
      <trkpt lat="45.34796" lon="6.19394">
        <ele>2594.6000976562</ele>
        <time>2014-03-02T12:48:15.000Z</time>
      </trkpt>
      <trkpt lat="45.34796" lon="6.19394">
        <ele>2594.6000976562</ele>
        <time>2014-03-02T12:48:16.000Z</time>
      </trkpt>
      <trkpt lat="45.34796" lon="6.19394">
        <ele>2594.6000976562</ele>
        <time>2014-03-02T12:48:17.000Z</time>
      </trkpt>
      <trkpt lat="45.34796" lon="6.19394">
        <ele>2594.6000976562</ele>
        <time>2014-03-02T12:48:18.000Z</time>
      </trkpt>
      <trkpt lat="45.34795" lon="6.1939">
        <ele>2594.8000488281</ele>
        <time>2014-03-02T12:48:19.000Z</time>
      </trkpt>
      <trkpt lat="45.34794" lon="6.19389">
        <ele>2594.8000488281</ele>
        <time>2014-03-02T12:48:20.000Z</time>
      </trkpt>
      <trkpt lat="45.34794" lon="6.19389">
        <ele>2594.8000488281</ele>
        <time>2014-03-02T12:48:21.000Z</time>
      </trkpt>
      <trkpt lat="45.34794" lon="6.19388">
        <ele>2594.8000488281</ele>
        <time>2014-03-02T12:48:22.000Z</time>
      </trkpt>
      <trkpt lat="45.34794" lon="6.19388">
        <ele>2595</ele>
        <time>2014-03-02T12:48:23.000Z</time>
      </trkpt>
      <trkpt lat="45.34793" lon="6.19387">
        <ele>2595</ele>
        <time>2014-03-02T12:48:24.000Z</time>
      </trkpt>
      <trkpt lat="45.34793" lon="6.19387">
        <ele>2595</ele>
        <time>2014-03-02T12:48:25.000Z</time>
      </trkpt>
      <trkpt lat="45.34794" lon="6.19386">
        <ele>2595.3999023438</ele>
        <time>2014-03-02T12:48:26.000Z</time>
      </trkpt>
      <trkpt lat="45.34794" lon="6.19386">
        <ele>2595.3999023438</ele>
        <time>2014-03-02T12:48:27.000Z</time>
      </trkpt>
      <trkpt lat="45.34794" lon="6.19386">
        <ele>2595.3999023438</ele>
        <time>2014-03-02T12:48:28.000Z</time>
      </trkpt>
      <trkpt lat="45.34794" lon="6.19385">
        <ele>2596</ele>
        <time>2014-03-02T12:48:29.000Z</time>
      </trkpt>
      <trkpt lat="45.34795" lon="6.19383">
        <ele>2596.8000488281</ele>
        <time>2014-03-02T12:48:30.000Z</time>
      </trkpt>
      <trkpt lat="45.34795" lon="6.19383">
        <ele>2596.8000488281</ele>
        <time>2014-03-02T12:48:31.000Z</time>
      </trkpt>
      <trkpt lat="45.34795" lon="6.19383">
        <ele>2596.8000488281</ele>
        <time>2014-03-02T12:48:32.000Z</time>
      </trkpt>
      <trkpt lat="45.34795" lon="6.19383">
        <ele>2596.8000488281</ele>
        <time>2014-03-02T12:48:33.000Z</time>
      </trkpt>
      <trkpt lat="45.34795" lon="6.19383">
        <ele>2596.8000488281</ele>
        <time>2014-03-02T12:48:34.000Z</time>
      </trkpt>
      <trkpt lat="45.34795" lon="6.19383">
        <ele>2596.8000488281</ele>
        <time>2014-03-02T12:48:35.000Z</time>
      </trkpt>
      <trkpt lat="45.34795" lon="6.19383">
        <ele>2596.8000488281</ele>
        <time>2014-03-02T12:48:36.000Z</time>
      </trkpt>
      <trkpt lat="45.34794" lon="6.1938">
        <ele>2596.8000488281</ele>
        <time>2014-03-02T12:48:37.000Z</time>
      </trkpt>
      <trkpt lat="45.34794" lon="6.1938">
        <ele>2596.8000488281</ele>
        <time>2014-03-02T12:48:38.000Z</time>
      </trkpt>
      <trkpt lat="45.34794" lon="6.1938">
        <ele>2596.8000488281</ele>
        <time>2014-03-02T12:48:39.000Z</time>
      </trkpt>
      <trkpt lat="45.34794" lon="6.1938">
        <ele>2596.8000488281</ele>
        <time>2014-03-02T12:48:40.000Z</time>
      </trkpt>
      <trkpt lat="45.34794" lon="6.1938">
        <ele>2596.8000488281</ele>
        <time>2014-03-02T12:48:41.000Z</time>
      </trkpt>
      <trkpt lat="45.34794" lon="6.1938">
        <ele>2596.8000488281</ele>
        <time>2014-03-02T12:48:42.000Z</time>
      </trkpt>
      <trkpt lat="45.34794" lon="6.1938">
        <ele>2596.8000488281</ele>
        <time>2014-03-02T12:48:43.000Z</time>
      </trkpt>
      <trkpt lat="45.34794" lon="6.1938">
        <ele>2596.8000488281</ele>
        <time>2014-03-02T12:48:44.000Z</time>
      </trkpt>
      <trkpt lat="45.34793" lon="6.19378">
        <ele>2597</ele>
        <time>2014-03-02T12:48:45.000Z</time>
      </trkpt>
      <trkpt lat="45.34793" lon="6.19378">
        <ele>2597</ele>
        <time>2014-03-02T12:48:46.000Z</time>
      </trkpt>
      <trkpt lat="45.34793" lon="6.19378">
        <ele>2597</ele>
        <time>2014-03-02T12:48:47.000Z</time>
      </trkpt>
      <trkpt lat="45.34792" lon="6.19376">
        <ele>2597</ele>
        <time>2014-03-02T12:48:48.000Z</time>
      </trkpt>
      <trkpt lat="45.34792" lon="6.19376">
        <ele>2597</ele>
        <time>2014-03-02T12:48:49.000Z</time>
      </trkpt>
      <trkpt lat="45.34792" lon="6.19376">
        <ele>2597</ele>
        <time>2014-03-02T12:48:50.000Z</time>
      </trkpt>
      <trkpt lat="45.34792" lon="6.19376">
        <ele>2597</ele>
        <time>2014-03-02T12:48:51.000Z</time>
      </trkpt>
      <trkpt lat="45.34792" lon="6.19376">
        <ele>2597</ele>
        <time>2014-03-02T12:48:52.000Z</time>
      </trkpt>
      <trkpt lat="45.34792" lon="6.19376">
        <ele>2597</ele>
        <time>2014-03-02T12:48:53.000Z</time>
      </trkpt>
      <trkpt lat="45.34792" lon="6.19376">
        <ele>2597</ele>
        <time>2014-03-02T12:48:54.000Z</time>
      </trkpt>
      <trkpt lat="45.34792" lon="6.19376">
        <ele>2597</ele>
        <time>2014-03-02T12:48:55.000Z</time>
      </trkpt>
      <trkpt lat="45.34791" lon="6.19375">
        <ele>2597</ele>
        <time>2014-03-02T12:48:56.000Z</time>
      </trkpt>
      <trkpt lat="45.34791" lon="6.19375">
        <ele>2597</ele>
        <time>2014-03-02T12:48:57.000Z</time>
      </trkpt>
      <trkpt lat="45.3479" lon="6.19373">
        <ele>2596.8000488281</ele>
        <time>2014-03-02T12:48:58.000Z</time>
      </trkpt>
      <trkpt lat="45.3479" lon="6.19373">
        <ele>2596.8000488281</ele>
        <time>2014-03-02T12:48:59.000Z</time>
      </trkpt>
      <trkpt lat="45.3479" lon="6.19373">
        <ele>2596.8000488281</ele>
        <time>2014-03-02T12:49:00.000Z</time>
      </trkpt>
      <trkpt lat="45.3479" lon="6.19372">
        <ele>2597.1999511719</ele>
        <time>2014-03-02T12:49:01.000Z</time>
      </trkpt>
      <trkpt lat="45.3479" lon="6.19372">
        <ele>2597.1999511719</ele>
        <time>2014-03-02T12:49:02.000Z</time>
      </trkpt>
      <trkpt lat="45.3479" lon="6.19372">
        <ele>2597.1999511719</ele>
        <time>2014-03-02T12:49:03.000Z</time>
      </trkpt>
      <trkpt lat="45.34789" lon="6.1937">
        <ele>2597.3999023438</ele>
        <time>2014-03-02T12:49:04.000Z</time>
      </trkpt>
      <trkpt lat="45.3479" lon="6.19369">
        <ele>2597.6000976562</ele>
        <time>2014-03-02T12:49:05.000Z</time>
      </trkpt>
      <trkpt lat="45.3479" lon="6.19369">
        <ele>2597.8000488281</ele>
        <time>2014-03-02T12:49:06.000Z</time>
      </trkpt>
      <trkpt lat="45.3479" lon="6.19368">
        <ele>2598</ele>
        <time>2014-03-02T12:49:07.000Z</time>
      </trkpt>
      <trkpt lat="45.3479" lon="6.19368">
        <ele>2598</ele>
        <time>2014-03-02T12:49:08.000Z</time>
      </trkpt>
      <trkpt lat="45.3479" lon="6.19368">
        <ele>2598</ele>
        <time>2014-03-02T12:49:09.000Z</time>
      </trkpt>
      <trkpt lat="45.3479" lon="6.19368">
        <ele>2598</ele>
        <time>2014-03-02T12:49:10.000Z</time>
      </trkpt>
      <trkpt lat="45.3479" lon="6.19368">
        <ele>2598</ele>
        <time>2014-03-02T12:49:11.000Z</time>
      </trkpt>
      <trkpt lat="45.34789" lon="6.19368">
        <ele>2597.8000488281</ele>
        <time>2014-03-02T12:49:12.000Z</time>
      </trkpt>
      <trkpt lat="45.3479" lon="6.19367">
        <ele>2598.1999511719</ele>
        <time>2014-03-02T12:49:13.000Z</time>
      </trkpt>
      <trkpt lat="45.3479" lon="6.19367">
        <ele>2598.6000976562</ele>
        <time>2014-03-02T12:49:14.000Z</time>
      </trkpt>
      <trkpt lat="45.34791" lon="6.19366">
        <ele>2599.1999511719</ele>
        <time>2014-03-02T12:49:15.000Z</time>
      </trkpt>
      <trkpt lat="45.34792" lon="6.19366">
        <ele>2599.6000976562</ele>
        <time>2014-03-02T12:49:16.000Z</time>
      </trkpt>
      <trkpt lat="45.34792" lon="6.19365">
        <ele>2600</ele>
        <time>2014-03-02T12:49:17.000Z</time>
      </trkpt>
      <trkpt lat="45.34793" lon="6.19364">
        <ele>2600.3999023438</ele>
        <time>2014-03-02T12:49:19.000Z</time>
      </trkpt>
      <trkpt lat="45.34793" lon="6.19364">
        <ele>2600.8000488281</ele>
        <time>2014-03-02T12:49:20.000Z</time>
      </trkpt>
      <trkpt lat="45.34794" lon="6.19364">
        <ele>2601.1999511719</ele>
        <time>2014-03-02T12:49:21.000Z</time>
      </trkpt>
      <trkpt lat="45.34795" lon="6.19363">
        <ele>2601.6000976562</ele>
        <time>2014-03-02T12:49:22.000Z</time>
      </trkpt>
      <trkpt lat="45.34795" lon="6.19363">
        <ele>2601.6000976562</ele>
        <time>2014-03-02T12:49:23.000Z</time>
      </trkpt>
      <trkpt lat="45.34795" lon="6.19363">
        <ele>2601.6000976562</ele>
        <time>2014-03-02T12:49:24.000Z</time>
      </trkpt>
      <trkpt lat="45.34795" lon="6.19363">
        <ele>2601.6000976562</ele>
        <time>2014-03-02T12:49:25.000Z</time>
      </trkpt>
      <trkpt lat="45.34796" lon="6.19363">
        <ele>2602.1999511719</ele>
        <time>2014-03-02T12:49:26.000Z</time>
      </trkpt>
      <trkpt lat="45.34796" lon="6.19363">
        <ele>2602.1999511719</ele>
        <time>2014-03-02T12:49:27.000Z</time>
      </trkpt>
      <trkpt lat="45.34797" lon="6.19363">
        <ele>2602.8000488281</ele>
        <time>2014-03-02T12:49:28.000Z</time>
      </trkpt>
      <trkpt lat="45.34797" lon="6.19363">
        <ele>2603</ele>
        <time>2014-03-02T12:49:29.000Z</time>
      </trkpt>
      <trkpt lat="45.34797" lon="6.19363">
        <ele>2603</ele>
        <time>2014-03-02T12:49:30.000Z</time>
      </trkpt>
      <trkpt lat="45.34798" lon="6.19363">
        <ele>2603.1999511719</ele>
        <time>2014-03-02T12:49:31.000Z</time>
      </trkpt>
      <trkpt lat="45.34798" lon="6.19363">
        <ele>2603.1999511719</ele>
        <time>2014-03-02T12:49:32.000Z</time>
      </trkpt>
      <trkpt lat="45.34799" lon="6.19362">
        <ele>2604</ele>
        <time>2014-03-02T12:49:33.000Z</time>
      </trkpt>
      <trkpt lat="45.348" lon="6.19361">
        <ele>2604.6000976562</ele>
        <time>2014-03-02T12:49:34.000Z</time>
      </trkpt>
      <trkpt lat="45.348" lon="6.1936">
        <ele>2605</ele>
        <time>2014-03-02T12:49:35.000Z</time>
      </trkpt>
      <trkpt lat="45.34801" lon="6.1936">
        <ele>2605.1999511719</ele>
        <time>2014-03-02T12:49:36.000Z</time>
      </trkpt>
      <trkpt lat="45.34801" lon="6.1936">
        <ele>2605.1999511719</ele>
        <time>2014-03-02T12:49:37.000Z</time>
      </trkpt>
      <trkpt lat="45.34801" lon="6.19357">
        <ele>2606</ele>
        <time>2014-03-02T12:49:38.000Z</time>
      </trkpt>
      <trkpt lat="45.34802" lon="6.19356">
        <ele>2606.8000488281</ele>
        <time>2014-03-02T12:49:39.000Z</time>
      </trkpt>
      <trkpt lat="45.34803" lon="6.19355">
        <ele>2607.3999023438</ele>
        <time>2014-03-02T12:49:40.000Z</time>
      </trkpt>
      <trkpt lat="45.34803" lon="6.19355">
        <ele>2607.3999023438</ele>
        <time>2014-03-02T12:49:42.000Z</time>
      </trkpt>
      <trkpt lat="45.34803" lon="6.19355">
        <ele>2607.3999023438</ele>
        <time>2014-03-02T12:49:43.000Z</time>
      </trkpt>
      <trkpt lat="45.34803" lon="6.19355">
        <ele>2607.6000976562</ele>
        <time>2014-03-02T12:49:44.000Z</time>
      </trkpt>
      <trkpt lat="45.34803" lon="6.19355">
        <ele>2607.6000976562</ele>
        <time>2014-03-02T12:49:45.000Z</time>
      </trkpt>
      <trkpt lat="45.34803" lon="6.19355">
        <ele>2607.6000976562</ele>
        <time>2014-03-02T12:49:46.000Z</time>
      </trkpt>
      <trkpt lat="45.34803" lon="6.19355">
        <ele>2607.8000488281</ele>
        <time>2014-03-02T12:49:47.000Z</time>
      </trkpt>
      <trkpt lat="45.34803" lon="6.19355">
        <ele>2607.8000488281</ele>
        <time>2014-03-02T12:49:48.000Z</time>
      </trkpt>
      <trkpt lat="45.34803" lon="6.19355">
        <ele>2607.8000488281</ele>
        <time>2014-03-02T12:49:49.000Z</time>
      </trkpt>
      <trkpt lat="45.34803" lon="6.19355">
        <ele>2607.8000488281</ele>
        <time>2014-03-02T12:49:50.000Z</time>
      </trkpt>
      <trkpt lat="45.34803" lon="6.19355">
        <ele>2607.8000488281</ele>
        <time>2014-03-02T12:49:51.000Z</time>
      </trkpt>
      <trkpt lat="45.34803" lon="6.19355">
        <ele>2607.8000488281</ele>
        <time>2014-03-02T12:49:52.000Z</time>
      </trkpt>
      <trkpt lat="45.34803" lon="6.19355">
        <ele>2607.8000488281</ele>
        <time>2014-03-02T12:49:53.000Z</time>
      </trkpt>
      <trkpt lat="45.34803" lon="6.19355">
        <ele>2607.8000488281</ele>
        <time>2014-03-02T12:49:54.000Z</time>
      </trkpt>
      <trkpt lat="45.34803" lon="6.19355">
        <ele>2607.8000488281</ele>
        <time>2014-03-02T12:49:55.000Z</time>
      </trkpt>
      <trkpt lat="45.34803" lon="6.19355">
        <ele>2607.8000488281</ele>
        <time>2014-03-02T12:49:56.000Z</time>
      </trkpt>
      <trkpt lat="45.34803" lon="6.19355">
        <ele>2607.8000488281</ele>
        <time>2014-03-02T12:49:57.000Z</time>
      </trkpt>
      <trkpt lat="45.34803" lon="6.19355">
        <ele>2607.8000488281</ele>
        <time>2014-03-02T12:49:58.000Z</time>
      </trkpt>
      <trkpt lat="45.34803" lon="6.19355">
        <ele>2607.8000488281</ele>
        <time>2014-03-02T12:49:59.000Z</time>
      </trkpt>
      <trkpt lat="45.34803" lon="6.19355">
        <ele>2607.8000488281</ele>
        <time>2014-03-02T12:50:00.000Z</time>
      </trkpt>
      <trkpt lat="45.34803" lon="6.19355">
        <ele>2607.8000488281</ele>
        <time>2014-03-02T12:50:01.000Z</time>
      </trkpt>
      <trkpt lat="45.34803" lon="6.19355">
        <ele>2607.8000488281</ele>
        <time>2014-03-02T12:50:02.000Z</time>
      </trkpt>
      <trkpt lat="45.34803" lon="6.19355">
        <ele>2607.8000488281</ele>
        <time>2014-03-02T12:50:03.000Z</time>
      </trkpt>
      <trkpt lat="45.34803" lon="6.19355">
        <ele>2607.8000488281</ele>
        <time>2014-03-02T12:50:04.000Z</time>
      </trkpt>
      <trkpt lat="45.34803" lon="6.19355">
        <ele>2607.8000488281</ele>
        <time>2014-03-02T12:50:05.000Z</time>
      </trkpt>
      <trkpt lat="45.34803" lon="6.19355">
        <ele>2607.8000488281</ele>
        <time>2014-03-02T12:50:06.000Z</time>
      </trkpt>
      <trkpt lat="45.34803" lon="6.19355">
        <ele>2607.8000488281</ele>
        <time>2014-03-02T12:50:07.000Z</time>
      </trkpt>
      <trkpt lat="45.34803" lon="6.19355">
        <ele>2607.8000488281</ele>
        <time>2014-03-02T12:50:08.000Z</time>
      </trkpt>
      <trkpt lat="45.34803" lon="6.19355">
        <ele>2607.8000488281</ele>
        <time>2014-03-02T12:50:09.000Z</time>
      </trkpt>
      <trkpt lat="45.34803" lon="6.19355">
        <ele>2607.8000488281</ele>
        <time>2014-03-02T12:50:15.000Z</time>
      </trkpt>
      <trkpt lat="45.34803" lon="6.19355">
        <ele>2607.8000488281</ele>
        <time>2014-03-02T12:50:16.000Z</time>
      </trkpt>
      <trkpt lat="45.34803" lon="6.19355">
        <ele>2607.8000488281</ele>
        <time>2014-03-02T12:50:20.000Z</time>
      </trkpt>
      <trkpt lat="45.34803" lon="6.19355">
        <ele>2607.8000488281</ele>
        <time>2014-03-02T12:50:21.000Z</time>
      </trkpt>
      <trkpt lat="45.34804" lon="6.19355">
        <ele>2607.8000488281</ele>
        <time>2014-03-02T12:50:28.000Z</time>
      </trkpt>
      <trkpt lat="45.34804" lon="6.19355">
        <ele>2607.8000488281</ele>
        <time>2014-03-02T12:50:29.000Z</time>
      </trkpt>
      <trkpt lat="45.34804" lon="6.19355">
        <ele>2607.8000488281</ele>
        <time>2014-03-02T12:50:30.000Z</time>
      </trkpt>
      <trkpt lat="45.34804" lon="6.19355">
        <ele>2607.8000488281</ele>
        <time>2014-03-02T12:50:31.000Z</time>
      </trkpt>
      <trkpt lat="45.34804" lon="6.19355">
        <ele>2607.8000488281</ele>
        <time>2014-03-02T12:50:32.000Z</time>
      </trkpt>
      <trkpt lat="45.34804" lon="6.19355">
        <ele>2607.8000488281</ele>
        <time>2014-03-02T12:50:33.000Z</time>
      </trkpt>
      <trkpt lat="45.34804" lon="6.19355">
        <ele>2607.8000488281</ele>
        <time>2014-03-02T12:50:35.000Z</time>
      </trkpt>
      <trkpt lat="45.34804" lon="6.19355">
        <ele>2607.8000488281</ele>
        <time>2014-03-02T12:50:36.000Z</time>
      </trkpt>
      <trkpt lat="45.34804" lon="6.19355">
        <ele>2607.8000488281</ele>
        <time>2014-03-02T12:50:37.000Z</time>
      </trkpt>
      <trkpt lat="45.34804" lon="6.19355">
        <ele>2607.8000488281</ele>
        <time>2014-03-02T12:50:38.000Z</time>
      </trkpt>
      <trkpt lat="45.34804" lon="6.19355">
        <ele>2607.8000488281</ele>
        <time>2014-03-02T12:50:39.000Z</time>
      </trkpt>
      <trkpt lat="45.34804" lon="6.19355">
        <ele>2607.8000488281</ele>
        <time>2014-03-02T12:50:40.000Z</time>
      </trkpt>
      <trkpt lat="45.34804" lon="6.19355">
        <ele>2607.8000488281</ele>
        <time>2014-03-02T12:50:41.000Z</time>
      </trkpt>
      <trkpt lat="45.34804" lon="6.19355">
        <ele>2607.8000488281</ele>
        <time>2014-03-02T12:50:42.000Z</time>
      </trkpt>
      <trkpt lat="45.34804" lon="6.19355">
        <ele>2607.8000488281</ele>
        <time>2014-03-02T12:50:43.000Z</time>
      </trkpt>
      <trkpt lat="45.34804" lon="6.19355">
        <ele>2607.8000488281</ele>
        <time>2014-03-02T12:50:45.000Z</time>
      </trkpt>
      <trkpt lat="45.34804" lon="6.19355">
        <ele>2607.8000488281</ele>
        <time>2014-03-02T12:50:46.000Z</time>
      </trkpt>
      <trkpt lat="45.34804" lon="6.19355">
        <ele>2607.8000488281</ele>
        <time>2014-03-02T12:50:47.000Z</time>
      </trkpt>
      <trkpt lat="45.34804" lon="6.19355">
        <ele>2607.8000488281</ele>
        <time>2014-03-02T12:50:48.000Z</time>
      </trkpt>
      <trkpt lat="45.34804" lon="6.19355">
        <ele>2607.8000488281</ele>
        <time>2014-03-02T12:50:49.000Z</time>
      </trkpt>
      <trkpt lat="45.34804" lon="6.19355">
        <ele>2607.8000488281</ele>
        <time>2014-03-02T12:50:50.000Z</time>
      </trkpt>
      <trkpt lat="45.34804" lon="6.19355">
        <ele>2607.8000488281</ele>
        <time>2014-03-02T12:50:51.000Z</time>
      </trkpt>
      <trkpt lat="45.34804" lon="6.19355">
        <ele>2607.8000488281</ele>
        <time>2014-03-02T12:50:52.000Z</time>
      </trkpt>
      <trkpt lat="45.34804" lon="6.19355">
        <ele>2607.8000488281</ele>
        <time>2014-03-02T12:50:53.000Z</time>
      </trkpt>
      <trkpt lat="45.34804" lon="6.19355">
        <ele>2607.8000488281</ele>
        <time>2014-03-02T12:50:56.000Z</time>
      </trkpt>
      <trkpt lat="45.34804" lon="6.19355">
        <ele>2607.8000488281</ele>
        <time>2014-03-02T12:50:57.000Z</time>
      </trkpt>
      <trkpt lat="45.34804" lon="6.19355">
        <ele>2607.8000488281</ele>
        <time>2014-03-02T12:50:58.000Z</time>
      </trkpt>
      <trkpt lat="45.34804" lon="6.19355">
        <ele>2607.8000488281</ele>
        <time>2014-03-02T12:50:59.000Z</time>
      </trkpt>
      <trkpt lat="45.34804" lon="6.19355">
        <ele>2607.8000488281</ele>
        <time>2014-03-02T12:51:00.000Z</time>
      </trkpt>
      <trkpt lat="45.34804" lon="6.19355">
        <ele>2607.8000488281</ele>
        <time>2014-03-02T12:51:03.000Z</time>
      </trkpt>
      <trkpt lat="45.34804" lon="6.19355">
        <ele>2607.8000488281</ele>
        <time>2014-03-02T12:51:04.000Z</time>
      </trkpt>
      <trkpt lat="45.34804" lon="6.19355">
        <ele>2607.8000488281</ele>
        <time>2014-03-02T12:51:05.000Z</time>
      </trkpt>
      <trkpt lat="45.34804" lon="6.19355">
        <ele>2607.8000488281</ele>
        <time>2014-03-02T12:51:06.000Z</time>
      </trkpt>
      <trkpt lat="45.34804" lon="6.19355">
        <ele>2607.8000488281</ele>
        <time>2014-03-02T12:51:07.000Z</time>
      </trkpt>
      <trkpt lat="45.34804" lon="6.19355">
        <ele>2607.8000488281</ele>
        <time>2014-03-02T12:51:08.000Z</time>
      </trkpt>
      <trkpt lat="45.34804" lon="6.19355">
        <ele>2607.8000488281</ele>
        <time>2014-03-02T12:51:09.000Z</time>
      </trkpt>
      <trkpt lat="45.34804" lon="6.19355">
        <ele>2607.8000488281</ele>
        <time>2014-03-02T12:51:10.000Z</time>
      </trkpt>
      <trkpt lat="45.34804" lon="6.19355">
        <ele>2607.8000488281</ele>
        <time>2014-03-02T12:51:11.000Z</time>
      </trkpt>
      <trkpt lat="45.34804" lon="6.19355">
        <ele>2607.8000488281</ele>
        <time>2014-03-02T12:51:12.000Z</time>
      </trkpt>
      <trkpt lat="45.34804" lon="6.19355">
        <ele>2607.8000488281</ele>
        <time>2014-03-02T12:51:13.000Z</time>
      </trkpt>
      <trkpt lat="45.34804" lon="6.19355">
        <ele>2607.8000488281</ele>
        <time>2014-03-02T12:51:14.000Z</time>
      </trkpt>
      <trkpt lat="45.34804" lon="6.19355">
        <ele>2607.8000488281</ele>
        <time>2014-03-02T12:51:16.000Z</time>
      </trkpt>
      <trkpt lat="45.34804" lon="6.19355">
        <ele>2607.8000488281</ele>
        <time>2014-03-02T12:51:17.000Z</time>
      </trkpt>
      <trkpt lat="45.34804" lon="6.19355">
        <ele>2607.8000488281</ele>
        <time>2014-03-02T12:51:18.000Z</time>
      </trkpt>
      <trkpt lat="45.34804" lon="6.19355">
        <ele>2607.8000488281</ele>
        <time>2014-03-02T12:51:19.000Z</time>
      </trkpt>
      <trkpt lat="45.34804" lon="6.19355">
        <ele>2607.8000488281</ele>
        <time>2014-03-02T12:51:20.000Z</time>
      </trkpt>
      <trkpt lat="45.34804" lon="6.19355">
        <ele>2607.8000488281</ele>
        <time>2014-03-02T12:51:21.000Z</time>
      </trkpt>
      <trkpt lat="45.34804" lon="6.19355">
        <ele>2607.8000488281</ele>
        <time>2014-03-02T12:51:22.000Z</time>
      </trkpt>
      <trkpt lat="45.34804" lon="6.19355">
        <ele>2607.8000488281</ele>
        <time>2014-03-02T12:51:23.000Z</time>
      </trkpt>
      <trkpt lat="45.34804" lon="6.19355">
        <ele>2607.8000488281</ele>
        <time>2014-03-02T12:51:27.000Z</time>
      </trkpt>
      <trkpt lat="45.34804" lon="6.19355">
        <ele>2607.8000488281</ele>
        <time>2014-03-02T12:51:39.000Z</time>
      </trkpt>
      <trkpt lat="45.34804" lon="6.19355">
        <ele>2607.8000488281</ele>
        <time>2014-03-02T12:51:40.000Z</time>
      </trkpt>
      <trkpt lat="45.34804" lon="6.19355">
        <ele>2607.8000488281</ele>
        <time>2014-03-02T12:51:41.000Z</time>
      </trkpt>
      <trkpt lat="45.34804" lon="6.19355">
        <ele>2607.8000488281</ele>
        <time>2014-03-02T12:51:42.000Z</time>
      </trkpt>
      <trkpt lat="45.34804" lon="6.19355">
        <ele>2607.8000488281</ele>
        <time>2014-03-02T12:51:44.000Z</time>
      </trkpt>
      <trkpt lat="45.34804" lon="6.19355">
        <ele>2607.8000488281</ele>
        <time>2014-03-02T12:51:45.000Z</time>
      </trkpt>
      <trkpt lat="45.34804" lon="6.19355">
        <ele>2607.8000488281</ele>
        <time>2014-03-02T12:51:46.000Z</time>
      </trkpt>
      <trkpt lat="45.34803" lon="6.19355">
        <ele>2607.6000976562</ele>
        <time>2014-03-02T12:51:47.000Z</time>
      </trkpt>
      <trkpt lat="45.34803" lon="6.19355">
        <ele>2607.6000976562</ele>
        <time>2014-03-02T12:51:49.000Z</time>
      </trkpt>
      <trkpt lat="45.34803" lon="6.19355">
        <ele>2607.6000976562</ele>
        <time>2014-03-02T12:51:50.000Z</time>
      </trkpt>
      <trkpt lat="45.34803" lon="6.19355">
        <ele>2607.6000976562</ele>
        <time>2014-03-02T12:51:51.000Z</time>
      </trkpt>
      <trkpt lat="45.34803" lon="6.19355">
        <ele>2607.6000976562</ele>
        <time>2014-03-02T12:51:52.000Z</time>
      </trkpt>
      <trkpt lat="45.34803" lon="6.19355">
        <ele>2607.6000976562</ele>
        <time>2014-03-02T12:51:53.000Z</time>
      </trkpt>
      <trkpt lat="45.34803" lon="6.19355">
        <ele>2607.6000976562</ele>
        <time>2014-03-02T12:51:55.000Z</time>
      </trkpt>
      <trkpt lat="45.34803" lon="6.19355">
        <ele>2607.6000976562</ele>
        <time>2014-03-02T12:51:57.000Z</time>
      </trkpt>
      <trkpt lat="45.34803" lon="6.19355">
        <ele>2607.6000976562</ele>
        <time>2014-03-02T12:51:58.000Z</time>
      </trkpt>
      <trkpt lat="45.34803" lon="6.19355">
        <ele>2607.6000976562</ele>
        <time>2014-03-02T12:51:59.000Z</time>
      </trkpt>
      <trkpt lat="45.34803" lon="6.19355">
        <ele>2607.6000976562</ele>
        <time>2014-03-02T12:52:00.000Z</time>
      </trkpt>
      <trkpt lat="45.34803" lon="6.19355">
        <ele>2607.6000976562</ele>
        <time>2014-03-02T12:52:01.000Z</time>
      </trkpt>
      <trkpt lat="45.34803" lon="6.19355">
        <ele>2607.6000976562</ele>
        <time>2014-03-02T12:52:02.000Z</time>
      </trkpt>
      <trkpt lat="45.34803" lon="6.19355">
        <ele>2607.6000976562</ele>
        <time>2014-03-02T12:52:03.000Z</time>
      </trkpt>
      <trkpt lat="45.34803" lon="6.19355">
        <ele>2607.6000976562</ele>
        <time>2014-03-02T12:52:05.000Z</time>
      </trkpt>
      <trkpt lat="45.34803" lon="6.19355">
        <ele>2607.6000976562</ele>
        <time>2014-03-02T12:52:06.000Z</time>
      </trkpt>
      <trkpt lat="45.34803" lon="6.19355">
        <ele>2607.6000976562</ele>
        <time>2014-03-02T12:52:07.000Z</time>
      </trkpt>
      <trkpt lat="45.34803" lon="6.19355">
        <ele>2607.6000976562</ele>
        <time>2014-03-02T12:52:08.000Z</time>
      </trkpt>
      <trkpt lat="45.34803" lon="6.19355">
        <ele>2607.6000976562</ele>
        <time>2014-03-02T12:52:10.000Z</time>
      </trkpt>
      <trkpt lat="45.34803" lon="6.19355">
        <ele>2607.6000976562</ele>
        <time>2014-03-02T12:52:11.000Z</time>
      </trkpt>
      <trkpt lat="45.34803" lon="6.19355">
        <ele>2607.6000976562</ele>
        <time>2014-03-02T12:52:12.000Z</time>
      </trkpt>
      <trkpt lat="45.34803" lon="6.19355">
        <ele>2607.6000976562</ele>
        <time>2014-03-02T12:52:13.000Z</time>
      </trkpt>
      <trkpt lat="45.34803" lon="6.19355">
        <ele>2607.6000976562</ele>
        <time>2014-03-02T12:52:14.000Z</time>
      </trkpt>
      <trkpt lat="45.34803" lon="6.19355">
        <ele>2607.6000976562</ele>
        <time>2014-03-02T12:52:15.000Z</time>
      </trkpt>
      <trkpt lat="45.34803" lon="6.19355">
        <ele>2607.6000976562</ele>
        <time>2014-03-02T12:52:21.000Z</time>
      </trkpt>
      <trkpt lat="45.34803" lon="6.19355">
        <ele>2607.6000976562</ele>
        <time>2014-03-02T12:52:23.000Z</time>
      </trkpt>
      <trkpt lat="45.34803" lon="6.19355">
        <ele>2607.6000976562</ele>
        <time>2014-03-02T12:52:24.000Z</time>
      </trkpt>
      <trkpt lat="45.34803" lon="6.19355">
        <ele>2607.6000976562</ele>
        <time>2014-03-02T12:52:25.000Z</time>
      </trkpt>
      <trkpt lat="45.34803" lon="6.19355">
        <ele>2607.6000976562</ele>
        <time>2014-03-02T12:52:26.000Z</time>
      </trkpt>
      <trkpt lat="45.34803" lon="6.19355">
        <ele>2607.6000976562</ele>
        <time>2014-03-02T12:52:27.000Z</time>
      </trkpt>
      <trkpt lat="45.34803" lon="6.19355">
        <ele>2607.6000976562</ele>
        <time>2014-03-02T12:52:28.000Z</time>
      </trkpt>
      <trkpt lat="45.34803" lon="6.19355">
        <ele>2607.6000976562</ele>
        <time>2014-03-02T12:52:31.000Z</time>
      </trkpt>
      <trkpt lat="45.34803" lon="6.19355">
        <ele>2607.6000976562</ele>
        <time>2014-03-02T12:52:32.000Z</time>
      </trkpt>
      <trkpt lat="45.34803" lon="6.19355">
        <ele>2607.6000976562</ele>
        <time>2014-03-02T12:52:33.000Z</time>
      </trkpt>
      <trkpt lat="45.34803" lon="6.19355">
        <ele>2607.6000976562</ele>
        <time>2014-03-02T12:52:34.000Z</time>
      </trkpt>
      <trkpt lat="45.34803" lon="6.19355">
        <ele>2607.6000976562</ele>
        <time>2014-03-02T12:52:35.000Z</time>
      </trkpt>
      <trkpt lat="45.34803" lon="6.19355">
        <ele>2607.6000976562</ele>
        <time>2014-03-02T12:52:36.000Z</time>
      </trkpt>
      <trkpt lat="45.34803" lon="6.19355">
        <ele>2607.6000976562</ele>
        <time>2014-03-02T12:52:37.000Z</time>
      </trkpt>
      <trkpt lat="45.34803" lon="6.19355">
        <ele>2607.6000976562</ele>
        <time>2014-03-02T12:52:39.000Z</time>
      </trkpt>
      <trkpt lat="45.34803" lon="6.19355">
        <ele>2607.6000976562</ele>
        <time>2014-03-02T12:52:42.000Z</time>
      </trkpt>
      <trkpt lat="45.34803" lon="6.19355">
        <ele>2607.6000976562</ele>
        <time>2014-03-02T12:52:43.000Z</time>
      </trkpt>
      <trkpt lat="45.34803" lon="6.19355">
        <ele>2607.6000976562</ele>
        <time>2014-03-02T12:52:44.000Z</time>
      </trkpt>
      <trkpt lat="45.34803" lon="6.19355">
        <ele>2607.6000976562</ele>
        <time>2014-03-02T12:52:46.000Z</time>
      </trkpt>
      <trkpt lat="45.34803" lon="6.19355">
        <ele>2607.6000976562</ele>
        <time>2014-03-02T12:52:49.000Z</time>
      </trkpt>
      <trkpt lat="45.34804" lon="6.19355">
        <ele>2607.8000488281</ele>
        <time>2014-03-02T12:52:50.000Z</time>
      </trkpt>
      <trkpt lat="45.34804" lon="6.19355">
        <ele>2607.8000488281</ele>
        <time>2014-03-02T12:52:51.000Z</time>
      </trkpt>
      <trkpt lat="45.34804" lon="6.19355">
        <ele>2607.8000488281</ele>
        <time>2014-03-02T12:52:52.000Z</time>
      </trkpt>
      <trkpt lat="45.34804" lon="6.19355">
        <ele>2607.8000488281</ele>
        <time>2014-03-02T12:52:53.000Z</time>
      </trkpt>
      <trkpt lat="45.34804" lon="6.19355">
        <ele>2607.8000488281</ele>
        <time>2014-03-02T12:52:54.000Z</time>
      </trkpt>
      <trkpt lat="45.34804" lon="6.19355">
        <ele>2607.8000488281</ele>
        <time>2014-03-02T12:52:55.000Z</time>
      </trkpt>
      <trkpt lat="45.34804" lon="6.19355">
        <ele>2608</ele>
        <time>2014-03-02T12:52:56.000Z</time>
      </trkpt>
      <trkpt lat="45.34804" lon="6.19355">
        <ele>2608</ele>
        <time>2014-03-02T12:52:57.000Z</time>
      </trkpt>
      <trkpt lat="45.34806" lon="6.19355">
        <ele>2609</ele>
        <time>2014-03-02T12:52:58.000Z</time>
      </trkpt>
      <trkpt lat="45.34806" lon="6.19355">
        <ele>2609</ele>
        <time>2014-03-02T12:52:59.000Z</time>
      </trkpt>
      <trkpt lat="45.34806" lon="6.19354">
        <ele>2609.1999511719</ele>
        <time>2014-03-02T12:53:00.000Z</time>
      </trkpt>
      <trkpt lat="45.34806" lon="6.19354">
        <ele>2609.1999511719</ele>
        <time>2014-03-02T12:53:01.000Z</time>
      </trkpt>
      <trkpt lat="45.34806" lon="6.19354">
        <ele>2609.1999511719</ele>
        <time>2014-03-02T12:53:02.000Z</time>
      </trkpt>
      <trkpt lat="45.34806" lon="6.19354">
        <ele>2609.1999511719</ele>
        <time>2014-03-02T12:53:03.000Z</time>
      </trkpt>
      <trkpt lat="45.34806" lon="6.19354">
        <ele>2609.1999511719</ele>
        <time>2014-03-02T12:53:04.000Z</time>
      </trkpt>
      <trkpt lat="45.34806" lon="6.19354">
        <ele>2609.1999511719</ele>
        <time>2014-03-02T12:53:05.000Z</time>
      </trkpt>
      <trkpt lat="45.34806" lon="6.19354">
        <ele>2609.1999511719</ele>
        <time>2014-03-02T12:53:06.000Z</time>
      </trkpt>
      <trkpt lat="45.34806" lon="6.19354">
        <ele>2609.1999511719</ele>
        <time>2014-03-02T12:53:07.000Z</time>
      </trkpt>
      <trkpt lat="45.34806" lon="6.19354">
        <ele>2609.1999511719</ele>
        <time>2014-03-02T12:53:08.000Z</time>
      </trkpt>
      <trkpt lat="45.34806" lon="6.19354">
        <ele>2609.1999511719</ele>
        <time>2014-03-02T12:53:09.000Z</time>
      </trkpt>
      <trkpt lat="45.34806" lon="6.19354">
        <ele>2609.1999511719</ele>
        <time>2014-03-02T12:53:10.000Z</time>
      </trkpt>
      <trkpt lat="45.34806" lon="6.19354">
        <ele>2609.1999511719</ele>
        <time>2014-03-02T12:53:11.000Z</time>
      </trkpt>
      <trkpt lat="45.34806" lon="6.19354">
        <ele>2609.1999511719</ele>
        <time>2014-03-02T12:53:12.000Z</time>
      </trkpt>
      <trkpt lat="45.34806" lon="6.19354">
        <ele>2609.1999511719</ele>
        <time>2014-03-02T12:53:13.000Z</time>
      </trkpt>
      <trkpt lat="45.34806" lon="6.19354">
        <ele>2609.1999511719</ele>
        <time>2014-03-02T12:53:14.000Z</time>
      </trkpt>
      <trkpt lat="45.34806" lon="6.19354">
        <ele>2609.1999511719</ele>
        <time>2014-03-02T12:53:15.000Z</time>
      </trkpt>
      <trkpt lat="45.34806" lon="6.19354">
        <ele>2609.1999511719</ele>
        <time>2014-03-02T12:53:16.000Z</time>
      </trkpt>
      <trkpt lat="45.34806" lon="6.19354">
        <ele>2609.1999511719</ele>
        <time>2014-03-02T12:53:17.000Z</time>
      </trkpt>
      <trkpt lat="45.34806" lon="6.19354">
        <ele>2609.1999511719</ele>
        <time>2014-03-02T12:53:20.000Z</time>
      </trkpt>
      <trkpt lat="45.34806" lon="6.19354">
        <ele>2609.1999511719</ele>
        <time>2014-03-02T12:53:21.000Z</time>
      </trkpt>
      <trkpt lat="45.34806" lon="6.19354">
        <ele>2609.1999511719</ele>
        <time>2014-03-02T12:53:22.000Z</time>
      </trkpt>
      <trkpt lat="45.34806" lon="6.19354">
        <ele>2609.1999511719</ele>
        <time>2014-03-02T12:53:23.000Z</time>
      </trkpt>
      <trkpt lat="45.34806" lon="6.19354">
        <ele>2609.1999511719</ele>
        <time>2014-03-02T12:53:24.000Z</time>
      </trkpt>
      <trkpt lat="45.34806" lon="6.19354">
        <ele>2609.1999511719</ele>
        <time>2014-03-02T12:53:26.000Z</time>
      </trkpt>
      <trkpt lat="45.34806" lon="6.19352">
        <ele>2609.6000976562</ele>
        <time>2014-03-02T12:53:27.000Z</time>
      </trkpt>
      <trkpt lat="45.34806" lon="6.19351">
        <ele>2610</ele>
        <time>2014-03-02T12:53:28.000Z</time>
      </trkpt>
      <trkpt lat="45.34806" lon="6.19351">
        <ele>2610</ele>
        <time>2014-03-02T12:53:29.000Z</time>
      </trkpt>
      <trkpt lat="45.34806" lon="6.19351">
        <ele>2610</ele>
        <time>2014-03-02T12:53:30.000Z</time>
      </trkpt>
      <trkpt lat="45.34805" lon="6.19348">
        <ele>2610.1999511719</ele>
        <time>2014-03-02T12:53:31.000Z</time>
      </trkpt>
      <trkpt lat="45.34805" lon="6.19348">
        <ele>2610.1999511719</ele>
        <time>2014-03-02T12:53:32.000Z</time>
      </trkpt>
      <trkpt lat="45.34803" lon="6.19344">
        <ele>2610.3999023438</ele>
        <time>2014-03-02T12:53:33.000Z</time>
      </trkpt>
      <trkpt lat="45.34802" lon="6.19341">
        <ele>2610.3999023438</ele>
        <time>2014-03-02T12:53:34.000Z</time>
      </trkpt>
      <trkpt lat="45.34801" lon="6.19339">
        <ele>2610.6000976562</ele>
        <time>2014-03-02T12:53:35.000Z</time>
      </trkpt>
      <trkpt lat="45.34801" lon="6.19339">
        <ele>2610.6000976562</ele>
        <time>2014-03-02T12:53:36.000Z</time>
      </trkpt>
      <trkpt lat="45.34801" lon="6.19338">
        <ele>2610.6000976562</ele>
        <time>2014-03-02T12:53:37.000Z</time>
      </trkpt>
      <trkpt lat="45.34801" lon="6.19338">
        <ele>2610.6000976562</ele>
        <time>2014-03-02T12:53:38.000Z</time>
      </trkpt>
      <trkpt lat="45.348" lon="6.19336">
        <ele>2610.8000488281</ele>
        <time>2014-03-02T12:53:39.000Z</time>
      </trkpt>
      <trkpt lat="45.348" lon="6.19336">
        <ele>2610.8000488281</ele>
        <time>2014-03-02T12:53:40.000Z</time>
      </trkpt>
      <trkpt lat="45.34799" lon="6.19335">
        <ele>2611</ele>
        <time>2014-03-02T12:53:41.000Z</time>
      </trkpt>
      <trkpt lat="45.34799" lon="6.19335">
        <ele>2611</ele>
        <time>2014-03-02T12:53:42.000Z</time>
      </trkpt>
      <trkpt lat="45.34799" lon="6.19334">
        <ele>2611</ele>
        <time>2014-03-02T12:53:43.000Z</time>
      </trkpt>
      <trkpt lat="45.34799" lon="6.19334">
        <ele>2611</ele>
        <time>2014-03-02T12:53:44.000Z</time>
      </trkpt>
      <trkpt lat="45.34799" lon="6.19334">
        <ele>2611</ele>
        <time>2014-03-02T12:53:45.000Z</time>
      </trkpt>
      <trkpt lat="45.34799" lon="6.19334">
        <ele>2611</ele>
        <time>2014-03-02T12:53:46.000Z</time>
      </trkpt>
      <trkpt lat="45.34799" lon="6.19334">
        <ele>2611</ele>
        <time>2014-03-02T12:53:47.000Z</time>
      </trkpt>
      <trkpt lat="45.34799" lon="6.19334">
        <ele>2611</ele>
        <time>2014-03-02T12:53:48.000Z</time>
      </trkpt>
      <trkpt lat="45.34799" lon="6.19334">
        <ele>2611</ele>
        <time>2014-03-02T12:53:49.000Z</time>
      </trkpt>
      <trkpt lat="45.34797" lon="6.19332">
        <ele>2610.8000488281</ele>
        <time>2014-03-02T12:53:50.000Z</time>
      </trkpt>
      <trkpt lat="45.34797" lon="6.19332">
        <ele>2610.8000488281</ele>
        <time>2014-03-02T12:53:51.000Z</time>
      </trkpt>
      <trkpt lat="45.34797" lon="6.19332">
        <ele>2610.8000488281</ele>
        <time>2014-03-02T12:53:52.000Z</time>
      </trkpt>
      <trkpt lat="45.34797" lon="6.19332">
        <ele>2610.8000488281</ele>
        <time>2014-03-02T12:53:53.000Z</time>
      </trkpt>
      <trkpt lat="45.34797" lon="6.19332">
        <ele>2610.8000488281</ele>
        <time>2014-03-02T12:53:54.000Z</time>
      </trkpt>
      <trkpt lat="45.34796" lon="6.19331">
        <ele>2610.3999023438</ele>
        <time>2014-03-02T12:53:55.000Z</time>
      </trkpt>
      <trkpt lat="45.34796" lon="6.19331">
        <ele>2610.3999023438</ele>
        <time>2014-03-02T12:53:56.000Z</time>
      </trkpt>
      <trkpt lat="45.34795" lon="6.19329">
        <ele>2610.3999023438</ele>
        <time>2014-03-02T12:53:57.000Z</time>
      </trkpt>
      <trkpt lat="45.34795" lon="6.19329">
        <ele>2610.3999023438</ele>
        <time>2014-03-02T12:53:58.000Z</time>
      </trkpt>
      <trkpt lat="45.34795" lon="6.19329">
        <ele>2610.3999023438</ele>
        <time>2014-03-02T12:53:59.000Z</time>
      </trkpt>
      <trkpt lat="45.34795" lon="6.19329">
        <ele>2610.3999023438</ele>
        <time>2014-03-02T12:54:00.000Z</time>
      </trkpt>
      <trkpt lat="45.34795" lon="6.19329">
        <ele>2610.3999023438</ele>
        <time>2014-03-02T12:54:01.000Z</time>
      </trkpt>
      <trkpt lat="45.34795" lon="6.19329">
        <ele>2610.3999023438</ele>
        <time>2014-03-02T12:54:02.000Z</time>
      </trkpt>
      <trkpt lat="45.34795" lon="6.19329">
        <ele>2610.3999023438</ele>
        <time>2014-03-02T12:54:03.000Z</time>
      </trkpt>
      <trkpt lat="45.34795" lon="6.19329">
        <ele>2610.3999023438</ele>
        <time>2014-03-02T12:54:04.000Z</time>
      </trkpt>
      <trkpt lat="45.34795" lon="6.19329">
        <ele>2610.3999023438</ele>
        <time>2014-03-02T12:54:05.000Z</time>
      </trkpt>
      <trkpt lat="45.34795" lon="6.19329">
        <ele>2610.3999023438</ele>
        <time>2014-03-02T12:54:06.000Z</time>
      </trkpt>
      <trkpt lat="45.34795" lon="6.19329">
        <ele>2610.3999023438</ele>
        <time>2014-03-02T12:54:07.000Z</time>
      </trkpt>
      <trkpt lat="45.34795" lon="6.19329">
        <ele>2610.3999023438</ele>
        <time>2014-03-02T12:54:08.000Z</time>
      </trkpt>
      <trkpt lat="45.34795" lon="6.19329">
        <ele>2610.3999023438</ele>
        <time>2014-03-02T12:54:09.000Z</time>
      </trkpt>
      <trkpt lat="45.34795" lon="6.19329">
        <ele>2610.3999023438</ele>
        <time>2014-03-02T12:54:10.000Z</time>
      </trkpt>
      <trkpt lat="45.34795" lon="6.19329">
        <ele>2610.3999023438</ele>
        <time>2014-03-02T12:54:11.000Z</time>
      </trkpt>
      <trkpt lat="45.34795" lon="6.19329">
        <ele>2610.3999023438</ele>
        <time>2014-03-02T12:54:12.000Z</time>
      </trkpt>
      <trkpt lat="45.34795" lon="6.19328">
        <ele>2610.6000976562</ele>
        <time>2014-03-02T12:54:13.000Z</time>
      </trkpt>
      <trkpt lat="45.34795" lon="6.19328">
        <ele>2610.8000488281</ele>
        <time>2014-03-02T12:54:15.000Z</time>
      </trkpt>
      <trkpt lat="45.34796" lon="6.19327">
        <ele>2611.1999511719</ele>
        <time>2014-03-02T12:54:16.000Z</time>
      </trkpt>
      <trkpt lat="45.34796" lon="6.19328">
        <ele>2611.1999511719</ele>
        <time>2014-03-02T12:54:17.000Z</time>
      </trkpt>
      <trkpt lat="45.34796" lon="6.19328">
        <ele>2611.1999511719</ele>
        <time>2014-03-02T12:54:18.000Z</time>
      </trkpt>
      <trkpt lat="45.34797" lon="6.19327">
        <ele>2612</ele>
        <time>2014-03-02T12:54:19.000Z</time>
      </trkpt>
      <trkpt lat="45.34798" lon="6.19326">
        <ele>2612.8000488281</ele>
        <time>2014-03-02T12:54:20.000Z</time>
      </trkpt>
      <trkpt lat="45.34799" lon="6.19325">
        <ele>2613.1999511719</ele>
        <time>2014-03-02T12:54:21.000Z</time>
      </trkpt>
      <trkpt lat="45.34799" lon="6.19325">
        <ele>2613.1999511719</ele>
        <time>2014-03-02T12:54:22.000Z</time>
      </trkpt>
      <trkpt lat="45.348" lon="6.19325">
        <ele>2613.6000976562</ele>
        <time>2014-03-02T12:54:23.000Z</time>
      </trkpt>
      <trkpt lat="45.348" lon="6.19325">
        <ele>2613.6000976562</ele>
        <time>2014-03-02T12:54:24.000Z</time>
      </trkpt>
      <trkpt lat="45.348" lon="6.19324">
        <ele>2614.1999511719</ele>
        <time>2014-03-02T12:54:25.000Z</time>
      </trkpt>
      <trkpt lat="45.348" lon="6.19324">
        <ele>2614.1999511719</ele>
        <time>2014-03-02T12:54:26.000Z</time>
      </trkpt>
      <trkpt lat="45.34801" lon="6.19324">
        <ele>2614.3999023438</ele>
        <time>2014-03-02T12:54:27.000Z</time>
      </trkpt>
      <trkpt lat="45.34801" lon="6.19324">
        <ele>2614.3999023438</ele>
        <time>2014-03-02T12:54:28.000Z</time>
      </trkpt>
      <trkpt lat="45.34801" lon="6.19324">
        <ele>2614.3999023438</ele>
        <time>2014-03-02T12:54:29.000Z</time>
      </trkpt>
      <trkpt lat="45.34801" lon="6.19324">
        <ele>2614.6000976562</ele>
        <time>2014-03-02T12:54:30.000Z</time>
      </trkpt>
      <trkpt lat="45.34801" lon="6.19324">
        <ele>2614.6000976562</ele>
        <time>2014-03-02T12:54:31.000Z</time>
      </trkpt>
      <trkpt lat="45.34801" lon="6.19324">
        <ele>2614.8000488281</ele>
        <time>2014-03-02T12:54:32.000Z</time>
      </trkpt>
      <trkpt lat="45.34801" lon="6.19324">
        <ele>2614.8000488281</ele>
        <time>2014-03-02T12:54:33.000Z</time>
      </trkpt>
      <trkpt lat="45.34801" lon="6.19324">
        <ele>2614.8000488281</ele>
        <time>2014-03-02T12:54:34.000Z</time>
      </trkpt>
      <trkpt lat="45.34801" lon="6.19324">
        <ele>2614.8000488281</ele>
        <time>2014-03-02T12:54:35.000Z</time>
      </trkpt>
      <trkpt lat="45.34802" lon="6.19323">
        <ele>2615</ele>
        <time>2014-03-02T12:54:36.000Z</time>
      </trkpt>
      <trkpt lat="45.34802" lon="6.19323">
        <ele>2615</ele>
        <time>2014-03-02T12:54:37.000Z</time>
      </trkpt>
      <trkpt lat="45.34803" lon="6.19323">
        <ele>2615.6000976562</ele>
        <time>2014-03-02T12:54:38.000Z</time>
      </trkpt>
      <trkpt lat="45.34803" lon="6.19323">
        <ele>2615.6000976562</ele>
        <time>2014-03-02T12:54:39.000Z</time>
      </trkpt>
      <trkpt lat="45.34804" lon="6.19323">
        <ele>2616</ele>
        <time>2014-03-02T12:54:40.000Z</time>
      </trkpt>
      <trkpt lat="45.34804" lon="6.19323">
        <ele>2616</ele>
        <time>2014-03-02T12:54:41.000Z</time>
      </trkpt>
      <trkpt lat="45.34805" lon="6.19323">
        <ele>2616.3999023438</ele>
        <time>2014-03-02T12:54:42.000Z</time>
      </trkpt>
      <trkpt lat="45.34805" lon="6.19323">
        <ele>2616.3999023438</ele>
        <time>2014-03-02T12:54:43.000Z</time>
      </trkpt>
      <trkpt lat="45.34806" lon="6.19322">
        <ele>2617</ele>
        <time>2014-03-02T12:54:44.000Z</time>
      </trkpt>
      <trkpt lat="45.34806" lon="6.19322">
        <ele>2617</ele>
        <time>2014-03-02T12:54:45.000Z</time>
      </trkpt>
      <trkpt lat="45.34806" lon="6.19322">
        <ele>2617.1999511719</ele>
        <time>2014-03-02T12:54:46.000Z</time>
      </trkpt>
      <trkpt lat="45.34807" lon="6.19322">
        <ele>2617.8000488281</ele>
        <time>2014-03-02T12:54:47.000Z</time>
      </trkpt>
      <trkpt lat="45.34807" lon="6.19322">
        <ele>2617.8000488281</ele>
        <time>2014-03-02T12:54:48.000Z</time>
      </trkpt>
      <trkpt lat="45.34809" lon="6.19322">
        <ele>2618.3999023438</ele>
        <time>2014-03-02T12:54:49.000Z</time>
      </trkpt>
      <trkpt lat="45.34809" lon="6.19322">
        <ele>2618.3999023438</ele>
        <time>2014-03-02T12:54:50.000Z</time>
      </trkpt>
      <trkpt lat="45.3481" lon="6.19322">
        <ele>2619.1999511719</ele>
        <time>2014-03-02T12:54:51.000Z</time>
      </trkpt>
      <trkpt lat="45.3481" lon="6.19322">
        <ele>2619.1999511719</ele>
        <time>2014-03-02T12:54:52.000Z</time>
      </trkpt>
      <trkpt lat="45.34811" lon="6.19321">
        <ele>2619.8000488281</ele>
        <time>2014-03-02T12:54:53.000Z</time>
      </trkpt>
      <trkpt lat="45.34811" lon="6.19321">
        <ele>2619.8000488281</ele>
        <time>2014-03-02T12:54:54.000Z</time>
      </trkpt>
      <trkpt lat="45.34812" lon="6.19321">
        <ele>2620.3999023438</ele>
        <time>2014-03-02T12:54:55.000Z</time>
      </trkpt>
      <trkpt lat="45.34812" lon="6.19321">
        <ele>2620.3999023438</ele>
        <time>2014-03-02T12:54:56.000Z</time>
      </trkpt>
      <trkpt lat="45.34814" lon="6.19321">
        <ele>2621.1999511719</ele>
        <time>2014-03-02T12:54:57.000Z</time>
      </trkpt>
      <trkpt lat="45.34814" lon="6.19321">
        <ele>2621.1999511719</ele>
        <time>2014-03-02T12:54:58.000Z</time>
      </trkpt>
      <trkpt lat="45.34814" lon="6.19321">
        <ele>2621.1999511719</ele>
        <time>2014-03-02T12:54:59.000Z</time>
      </trkpt>
      <trkpt lat="45.34814" lon="6.19321">
        <ele>2621.1999511719</ele>
        <time>2014-03-02T12:55:00.000Z</time>
      </trkpt>
      <trkpt lat="45.34814" lon="6.19321">
        <ele>2621.1999511719</ele>
        <time>2014-03-02T12:55:01.000Z</time>
      </trkpt>
      <trkpt lat="45.34814" lon="6.19321">
        <ele>2621.1999511719</ele>
        <time>2014-03-02T12:55:02.000Z</time>
      </trkpt>
      <trkpt lat="45.34814" lon="6.19321">
        <ele>2621.1999511719</ele>
        <time>2014-03-02T12:55:03.000Z</time>
      </trkpt>
      <trkpt lat="45.34814" lon="6.19321">
        <ele>2621.1999511719</ele>
        <time>2014-03-02T12:55:04.000Z</time>
      </trkpt>
      <trkpt lat="45.34816" lon="6.1932">
        <ele>2622.1999511719</ele>
        <time>2014-03-02T12:55:05.000Z</time>
      </trkpt>
      <trkpt lat="45.34816" lon="6.1932">
        <ele>2622.1999511719</ele>
        <time>2014-03-02T12:55:06.000Z</time>
      </trkpt>
      <trkpt lat="45.34816" lon="6.1932">
        <ele>2622.1999511719</ele>
        <time>2014-03-02T12:55:07.000Z</time>
      </trkpt>
      <trkpt lat="45.34816" lon="6.1932">
        <ele>2622.1999511719</ele>
        <time>2014-03-02T12:55:08.000Z</time>
      </trkpt>
      <trkpt lat="45.34816" lon="6.1932">
        <ele>2622.1999511719</ele>
        <time>2014-03-02T12:55:09.000Z</time>
      </trkpt>
      <trkpt lat="45.34816" lon="6.1932">
        <ele>2622.1999511719</ele>
        <time>2014-03-02T12:55:10.000Z</time>
      </trkpt>
      <trkpt lat="45.34816" lon="6.1932">
        <ele>2622.1999511719</ele>
        <time>2014-03-02T12:55:11.000Z</time>
      </trkpt>
      <trkpt lat="45.34816" lon="6.1932">
        <ele>2622.1999511719</ele>
        <time>2014-03-02T12:55:12.000Z</time>
      </trkpt>
      <trkpt lat="45.34815" lon="6.19318">
        <ele>2622.6000976562</ele>
        <time>2014-03-02T12:55:13.000Z</time>
      </trkpt>
      <trkpt lat="45.34814" lon="6.19316">
        <ele>2622.6000976562</ele>
        <time>2014-03-02T12:55:14.000Z</time>
      </trkpt>
      <trkpt lat="45.34814" lon="6.19315">
        <ele>2623.1999511719</ele>
        <time>2014-03-02T12:55:15.000Z</time>
      </trkpt>
      <trkpt lat="45.34814" lon="6.19313">
        <ele>2623.3999023438</ele>
        <time>2014-03-02T12:55:16.000Z</time>
      </trkpt>
      <trkpt lat="45.34814" lon="6.19311">
        <ele>2623.8000488281</ele>
        <time>2014-03-02T12:55:17.000Z</time>
      </trkpt>
      <trkpt lat="45.34813" lon="6.1931">
        <ele>2623.6000976562</ele>
        <time>2014-03-02T12:55:18.000Z</time>
      </trkpt>
      <trkpt lat="45.34813" lon="6.19309">
        <ele>2623.8000488281</ele>
        <time>2014-03-02T12:55:19.000Z</time>
      </trkpt>
      <trkpt lat="45.34813" lon="6.19309">
        <ele>2623.8000488281</ele>
        <time>2014-03-02T12:55:20.000Z</time>
      </trkpt>
      <trkpt lat="45.34813" lon="6.19307">
        <ele>2623.8000488281</ele>
        <time>2014-03-02T12:55:21.000Z</time>
      </trkpt>
      <trkpt lat="45.34812" lon="6.19305">
        <ele>2623.8000488281</ele>
        <time>2014-03-02T12:55:22.000Z</time>
      </trkpt>
      <trkpt lat="45.34811" lon="6.19303">
        <ele>2623.8000488281</ele>
        <time>2014-03-02T12:55:23.000Z</time>
      </trkpt>
      <trkpt lat="45.34811" lon="6.19303">
        <ele>2623.8000488281</ele>
        <time>2014-03-02T12:55:24.000Z</time>
      </trkpt>
      <trkpt lat="45.34811" lon="6.19303">
        <ele>2623.8000488281</ele>
        <time>2014-03-02T12:55:25.000Z</time>
      </trkpt>
      <trkpt lat="45.34811" lon="6.19303">
        <ele>2623.8000488281</ele>
        <time>2014-03-02T12:55:26.000Z</time>
      </trkpt>
      <trkpt lat="45.3481" lon="6.19301">
        <ele>2623.6000976562</ele>
        <time>2014-03-02T12:55:27.000Z</time>
      </trkpt>
      <trkpt lat="45.3481" lon="6.19301">
        <ele>2623.6000976562</ele>
        <time>2014-03-02T12:55:28.000Z</time>
      </trkpt>
      <trkpt lat="45.34809" lon="6.193">
        <ele>2623.3999023438</ele>
        <time>2014-03-02T12:55:29.000Z</time>
      </trkpt>
      <trkpt lat="45.34809" lon="6.193">
        <ele>2623.3999023438</ele>
        <time>2014-03-02T12:55:30.000Z</time>
      </trkpt>
      <trkpt lat="45.34808" lon="6.19298">
        <ele>2623.1999511719</ele>
        <time>2014-03-02T12:55:31.000Z</time>
      </trkpt>
      <trkpt lat="45.34808" lon="6.19298">
        <ele>2623.1999511719</ele>
        <time>2014-03-02T12:55:32.000Z</time>
      </trkpt>
      <trkpt lat="45.34808" lon="6.19298">
        <ele>2623.1999511719</ele>
        <time>2014-03-02T12:55:33.000Z</time>
      </trkpt>
      <trkpt lat="45.34808" lon="6.19298">
        <ele>2623.1999511719</ele>
        <time>2014-03-02T12:55:34.000Z</time>
      </trkpt>
      <trkpt lat="45.34807" lon="6.19297">
        <ele>2623</ele>
        <time>2014-03-02T12:55:35.000Z</time>
      </trkpt>
      <trkpt lat="45.34807" lon="6.19297">
        <ele>2622.8000488281</ele>
        <time>2014-03-02T12:55:36.000Z</time>
      </trkpt>
      <trkpt lat="45.34807" lon="6.19297">
        <ele>2622.8000488281</ele>
        <time>2014-03-02T12:55:37.000Z</time>
      </trkpt>
      <trkpt lat="45.34806" lon="6.19296">
        <ele>2622.8000488281</ele>
        <time>2014-03-02T12:55:38.000Z</time>
      </trkpt>
      <trkpt lat="45.34806" lon="6.19296">
        <ele>2622.8000488281</ele>
        <time>2014-03-02T12:55:39.000Z</time>
      </trkpt>
      <trkpt lat="45.34806" lon="6.19296">
        <ele>2622.8000488281</ele>
        <time>2014-03-02T12:55:40.000Z</time>
      </trkpt>
      <trkpt lat="45.34806" lon="6.19296">
        <ele>2622.8000488281</ele>
        <time>2014-03-02T12:55:41.000Z</time>
      </trkpt>
      <trkpt lat="45.34806" lon="6.19296">
        <ele>2622.8000488281</ele>
        <time>2014-03-02T12:55:42.000Z</time>
      </trkpt>
      <trkpt lat="45.34806" lon="6.19296">
        <ele>2622.8000488281</ele>
        <time>2014-03-02T12:55:43.000Z</time>
      </trkpt>
      <trkpt lat="45.34806" lon="6.19296">
        <ele>2622.8000488281</ele>
        <time>2014-03-02T12:55:44.000Z</time>
      </trkpt>
      <trkpt lat="45.34806" lon="6.19296">
        <ele>2622.8000488281</ele>
        <time>2014-03-02T12:55:45.000Z</time>
      </trkpt>
      <trkpt lat="45.34806" lon="6.19296">
        <ele>2622.8000488281</ele>
        <time>2014-03-02T12:55:46.000Z</time>
      </trkpt>
      <trkpt lat="45.34807" lon="6.19297">
        <ele>2623</ele>
        <time>2014-03-02T12:55:47.000Z</time>
      </trkpt>
      <trkpt lat="45.34807" lon="6.19297">
        <ele>2623</ele>
        <time>2014-03-02T12:55:48.000Z</time>
      </trkpt>
      <trkpt lat="45.34808" lon="6.19297">
        <ele>2623.3999023438</ele>
        <time>2014-03-02T12:55:49.000Z</time>
      </trkpt>
      <trkpt lat="45.34808" lon="6.19297">
        <ele>2623.3999023438</ele>
        <time>2014-03-02T12:55:50.000Z</time>
      </trkpt>
      <trkpt lat="45.34809" lon="6.19297">
        <ele>2623.8000488281</ele>
        <time>2014-03-02T12:55:51.000Z</time>
      </trkpt>
      <trkpt lat="45.3481" lon="6.19297">
        <ele>2624.3999023438</ele>
        <time>2014-03-02T12:55:52.000Z</time>
      </trkpt>
      <trkpt lat="45.34812" lon="6.19297">
        <ele>2625</ele>
        <time>2014-03-02T12:55:53.000Z</time>
      </trkpt>
      <trkpt lat="45.34813" lon="6.19298">
        <ele>2625.3999023438</ele>
        <time>2014-03-02T12:55:54.000Z</time>
      </trkpt>
      <trkpt lat="45.34813" lon="6.19298">
        <ele>2625.8000488281</ele>
        <time>2014-03-02T12:55:55.000Z</time>
      </trkpt>
      <trkpt lat="45.34813" lon="6.19298">
        <ele>2625.8000488281</ele>
        <time>2014-03-02T12:55:56.000Z</time>
      </trkpt>
      <trkpt lat="45.34813" lon="6.19298">
        <ele>2625.8000488281</ele>
        <time>2014-03-02T12:55:57.000Z</time>
      </trkpt>
      <trkpt lat="45.34813" lon="6.19298">
        <ele>2625.8000488281</ele>
        <time>2014-03-02T12:55:58.000Z</time>
      </trkpt>
      <trkpt lat="45.34813" lon="6.19298">
        <ele>2625.8000488281</ele>
        <time>2014-03-02T12:55:59.000Z</time>
      </trkpt>
      <trkpt lat="45.34815" lon="6.19298">
        <ele>2626.1999511719</ele>
        <time>2014-03-02T12:56:00.000Z</time>
      </trkpt>
      <trkpt lat="45.34815" lon="6.19298">
        <ele>2626.1999511719</ele>
        <time>2014-03-02T12:56:01.000Z</time>
      </trkpt>
      <trkpt lat="45.34815" lon="6.19297">
        <ele>2626.6000976562</ele>
        <time>2014-03-02T12:56:02.000Z</time>
      </trkpt>
      <trkpt lat="45.34815" lon="6.19297">
        <ele>2626.6000976562</ele>
        <time>2014-03-02T12:56:03.000Z</time>
      </trkpt>
      <trkpt lat="45.34815" lon="6.19297">
        <ele>2626.6000976562</ele>
        <time>2014-03-02T12:56:04.000Z</time>
      </trkpt>
      <trkpt lat="45.34815" lon="6.19297">
        <ele>2626.6000976562</ele>
        <time>2014-03-02T12:56:05.000Z</time>
      </trkpt>
      <trkpt lat="45.34815" lon="6.19297">
        <ele>2626.6000976562</ele>
        <time>2014-03-02T12:56:06.000Z</time>
      </trkpt>
      <trkpt lat="45.34816" lon="6.19297">
        <ele>2627.1999511719</ele>
        <time>2014-03-02T12:56:07.000Z</time>
      </trkpt>
      <trkpt lat="45.34816" lon="6.19297">
        <ele>2627.1999511719</ele>
        <time>2014-03-02T12:56:08.000Z</time>
      </trkpt>
      <trkpt lat="45.34817" lon="6.19297">
        <ele>2627.1999511719</ele>
        <time>2014-03-02T12:56:09.000Z</time>
      </trkpt>
      <trkpt lat="45.34817" lon="6.19297">
        <ele>2627.1999511719</ele>
        <time>2014-03-02T12:56:10.000Z</time>
      </trkpt>
      <trkpt lat="45.34817" lon="6.19297">
        <ele>2627.3999023438</ele>
        <time>2014-03-02T12:56:11.000Z</time>
      </trkpt>
      <trkpt lat="45.34817" lon="6.19297">
        <ele>2627.3999023438</ele>
        <time>2014-03-02T12:56:12.000Z</time>
      </trkpt>
      <trkpt lat="45.34817" lon="6.19297">
        <ele>2627.3999023438</ele>
        <time>2014-03-02T12:56:13.000Z</time>
      </trkpt>
      <trkpt lat="45.34817" lon="6.19297">
        <ele>2627.3999023438</ele>
        <time>2014-03-02T12:56:14.000Z</time>
      </trkpt>
      <trkpt lat="45.34817" lon="6.19297">
        <ele>2627.3999023438</ele>
        <time>2014-03-02T12:56:15.000Z</time>
      </trkpt>
      <trkpt lat="45.34818" lon="6.19297">
        <ele>2628</ele>
        <time>2014-03-02T12:56:16.000Z</time>
      </trkpt>
      <trkpt lat="45.34818" lon="6.19297">
        <ele>2628</ele>
        <time>2014-03-02T12:56:17.000Z</time>
      </trkpt>
      <trkpt lat="45.34819" lon="6.19297">
        <ele>2628.6000976562</ele>
        <time>2014-03-02T12:56:18.000Z</time>
      </trkpt>
      <trkpt lat="45.3482" lon="6.19298">
        <ele>2628.8000488281</ele>
        <time>2014-03-02T12:56:19.000Z</time>
      </trkpt>
      <trkpt lat="45.3482" lon="6.19298">
        <ele>2629</ele>
        <time>2014-03-02T12:56:20.000Z</time>
      </trkpt>
      <trkpt lat="45.34821" lon="6.19298">
        <ele>2629.3999023438</ele>
        <time>2014-03-02T12:56:21.000Z</time>
      </trkpt>
      <trkpt lat="45.34821" lon="6.19298">
        <ele>2629.3999023438</ele>
        <time>2014-03-02T12:56:22.000Z</time>
      </trkpt>
      <trkpt lat="45.34822" lon="6.19298">
        <ele>2629.8000488281</ele>
        <time>2014-03-02T12:56:23.000Z</time>
      </trkpt>
      <trkpt lat="45.34822" lon="6.19298">
        <ele>2629.8000488281</ele>
        <time>2014-03-02T12:56:24.000Z</time>
      </trkpt>
      <trkpt lat="45.34823" lon="6.19298">
        <ele>2630.1999511719</ele>
        <time>2014-03-02T12:56:25.000Z</time>
      </trkpt>
      <trkpt lat="45.34824" lon="6.19298">
        <ele>2630.6000976562</ele>
        <time>2014-03-02T12:56:26.000Z</time>
      </trkpt>
      <trkpt lat="45.34824" lon="6.19298">
        <ele>2630.6000976562</ele>
        <time>2014-03-02T12:56:27.000Z</time>
      </trkpt>
      <trkpt lat="45.34825" lon="6.19298">
        <ele>2631</ele>
        <time>2014-03-02T12:56:28.000Z</time>
      </trkpt>
      <trkpt lat="45.34825" lon="6.19298">
        <ele>2631</ele>
        <time>2014-03-02T12:56:29.000Z</time>
      </trkpt>
      <trkpt lat="45.34826" lon="6.19298">
        <ele>2631.6000976562</ele>
        <time>2014-03-02T12:56:30.000Z</time>
      </trkpt>
      <trkpt lat="45.34826" lon="6.19298">
        <ele>2631.6000976562</ele>
        <time>2014-03-02T12:56:31.000Z</time>
      </trkpt>
      <trkpt lat="45.34826" lon="6.19298">
        <ele>2631.6000976562</ele>
        <time>2014-03-02T12:56:32.000Z</time>
      </trkpt>
      <trkpt lat="45.34826" lon="6.19298">
        <ele>2631.6000976562</ele>
        <time>2014-03-02T12:56:33.000Z</time>
      </trkpt>
      <trkpt lat="45.34826" lon="6.19298">
        <ele>2631.6000976562</ele>
        <time>2014-03-02T12:56:34.000Z</time>
      </trkpt>
      <trkpt lat="45.34828" lon="6.19298">
        <ele>2632.3999023438</ele>
        <time>2014-03-02T12:56:35.000Z</time>
      </trkpt>
      <trkpt lat="45.34828" lon="6.19298">
        <ele>2632.3999023438</ele>
        <time>2014-03-02T12:56:36.000Z</time>
      </trkpt>
      <trkpt lat="45.34828" lon="6.19298">
        <ele>2632.3999023438</ele>
        <time>2014-03-02T12:56:37.000Z</time>
      </trkpt>
      <trkpt lat="45.34829" lon="6.19298">
        <ele>2632.8000488281</ele>
        <time>2014-03-02T12:56:38.000Z</time>
      </trkpt>
      <trkpt lat="45.34829" lon="6.19298">
        <ele>2632.8000488281</ele>
        <time>2014-03-02T12:56:39.000Z</time>
      </trkpt>
      <trkpt lat="45.3483" lon="6.19298">
        <ele>2633.3999023438</ele>
        <time>2014-03-02T12:56:40.000Z</time>
      </trkpt>
      <trkpt lat="45.34831" lon="6.19298">
        <ele>2634</ele>
        <time>2014-03-02T12:56:41.000Z</time>
      </trkpt>
      <trkpt lat="45.34831" lon="6.19298">
        <ele>2634.1999511719</ele>
        <time>2014-03-02T12:56:42.000Z</time>
      </trkpt>
      <trkpt lat="45.34831" lon="6.19298">
        <ele>2634.1999511719</ele>
        <time>2014-03-02T12:56:43.000Z</time>
      </trkpt>
      <trkpt lat="45.34831" lon="6.19298">
        <ele>2634.1999511719</ele>
        <time>2014-03-02T12:56:44.000Z</time>
      </trkpt>
      <trkpt lat="45.34832" lon="6.19298">
        <ele>2634.3999023438</ele>
        <time>2014-03-02T12:56:45.000Z</time>
      </trkpt>
      <trkpt lat="45.34832" lon="6.19298">
        <ele>2634.3999023438</ele>
        <time>2014-03-02T12:56:46.000Z</time>
      </trkpt>
      <trkpt lat="45.34833" lon="6.19299">
        <ele>2634.6000976562</ele>
        <time>2014-03-02T12:56:47.000Z</time>
      </trkpt>
      <trkpt lat="45.34833" lon="6.19299">
        <ele>2634.6000976562</ele>
        <time>2014-03-02T12:56:48.000Z</time>
      </trkpt>
      <trkpt lat="45.34833" lon="6.19299">
        <ele>2634.6000976562</ele>
        <time>2014-03-02T12:56:49.000Z</time>
      </trkpt>
      <trkpt lat="45.34833" lon="6.19299">
        <ele>2634.6000976562</ele>
        <time>2014-03-02T12:56:50.000Z</time>
      </trkpt>
      <trkpt lat="45.34833" lon="6.19299">
        <ele>2634.6000976562</ele>
        <time>2014-03-02T12:56:51.000Z</time>
      </trkpt>
      <trkpt lat="45.34833" lon="6.19299">
        <ele>2634.8000488281</ele>
        <time>2014-03-02T12:56:52.000Z</time>
      </trkpt>
      <trkpt lat="45.34833" lon="6.19299">
        <ele>2634.8000488281</ele>
        <time>2014-03-02T12:56:53.000Z</time>
      </trkpt>
      <trkpt lat="45.34834" lon="6.193">
        <ele>2635.1999511719</ele>
        <time>2014-03-02T12:56:54.000Z</time>
      </trkpt>
      <trkpt lat="45.34835" lon="6.193">
        <ele>2635.3999023438</ele>
        <time>2014-03-02T12:56:55.000Z</time>
      </trkpt>
      <trkpt lat="45.34836" lon="6.19301">
        <ele>2635.8000488281</ele>
        <time>2014-03-02T12:56:56.000Z</time>
      </trkpt>
      <trkpt lat="45.34836" lon="6.19301">
        <ele>2636</ele>
        <time>2014-03-02T12:56:57.000Z</time>
      </trkpt>
      <trkpt lat="45.34836" lon="6.19301">
        <ele>2636</ele>
        <time>2014-03-02T12:56:58.000Z</time>
      </trkpt>
      <trkpt lat="45.34837" lon="6.19302">
        <ele>2636.1999511719</ele>
        <time>2014-03-02T12:56:59.000Z</time>
      </trkpt>
      <trkpt lat="45.34837" lon="6.19302">
        <ele>2636.1999511719</ele>
        <time>2014-03-02T12:57:00.000Z</time>
      </trkpt>
      <trkpt lat="45.34838" lon="6.19302">
        <ele>2636.3999023438</ele>
        <time>2014-03-02T12:57:01.000Z</time>
      </trkpt>
      <trkpt lat="45.34839" lon="6.19303">
        <ele>2636.8000488281</ele>
        <time>2014-03-02T12:57:02.000Z</time>
      </trkpt>
      <trkpt lat="45.3484" lon="6.19303">
        <ele>2637</ele>
        <time>2014-03-02T12:57:03.000Z</time>
      </trkpt>
      <trkpt lat="45.3484" lon="6.19304">
        <ele>2637.3999023438</ele>
        <time>2014-03-02T12:57:04.000Z</time>
      </trkpt>
      <trkpt lat="45.34841" lon="6.19304">
        <ele>2637.6000976562</ele>
        <time>2014-03-02T12:57:05.000Z</time>
      </trkpt>
      <trkpt lat="45.34842" lon="6.19304">
        <ele>2637.8000488281</ele>
        <time>2014-03-02T12:57:06.000Z</time>
      </trkpt>
      <trkpt lat="45.34842" lon="6.19304">
        <ele>2637.8000488281</ele>
        <time>2014-03-02T12:57:07.000Z</time>
      </trkpt>
      <trkpt lat="45.34842" lon="6.19305">
        <ele>2638.1999511719</ele>
        <time>2014-03-02T12:57:08.000Z</time>
      </trkpt>
      <trkpt lat="45.34843" lon="6.19305">
        <ele>2638.3999023438</ele>
        <time>2014-03-02T12:57:09.000Z</time>
      </trkpt>
      <trkpt lat="45.34844" lon="6.19305">
        <ele>2638.8000488281</ele>
        <time>2014-03-02T12:57:10.000Z</time>
      </trkpt>
      <trkpt lat="45.34845" lon="6.19305">
        <ele>2639.1999511719</ele>
        <time>2014-03-02T12:57:11.000Z</time>
      </trkpt>
      <trkpt lat="45.34845" lon="6.19305">
        <ele>2639.1999511719</ele>
        <time>2014-03-02T12:57:12.000Z</time>
      </trkpt>
      <trkpt lat="45.34846" lon="6.19306">
        <ele>2639.6000976562</ele>
        <time>2014-03-02T12:57:13.000Z</time>
      </trkpt>
      <trkpt lat="45.34846" lon="6.19306">
        <ele>2639.6000976562</ele>
        <time>2014-03-02T12:57:14.000Z</time>
      </trkpt>
      <trkpt lat="45.34847" lon="6.19306">
        <ele>2639.8000488281</ele>
        <time>2014-03-02T12:57:15.000Z</time>
      </trkpt>
      <trkpt lat="45.34847" lon="6.19307">
        <ele>2640.1999511719</ele>
        <time>2014-03-02T12:57:16.000Z</time>
      </trkpt>
      <trkpt lat="45.34848" lon="6.19307">
        <ele>2640.6000976562</ele>
        <time>2014-03-02T12:57:17.000Z</time>
      </trkpt>
      <trkpt lat="45.34848" lon="6.19307">
        <ele>2640.6000976562</ele>
        <time>2014-03-02T12:57:18.000Z</time>
      </trkpt>
      <trkpt lat="45.34848" lon="6.19307">
        <ele>2640.6000976562</ele>
        <time>2014-03-02T12:57:19.000Z</time>
      </trkpt>
      <trkpt lat="45.34848" lon="6.19307">
        <ele>2640.6000976562</ele>
        <time>2014-03-02T12:57:20.000Z</time>
      </trkpt>
      <trkpt lat="45.34848" lon="6.19307">
        <ele>2640.6000976562</ele>
        <time>2014-03-02T12:57:21.000Z</time>
      </trkpt>
      <trkpt lat="45.34848" lon="6.19307">
        <ele>2640.6000976562</ele>
        <time>2014-03-02T12:57:22.000Z</time>
      </trkpt>
      <trkpt lat="45.34848" lon="6.19307">
        <ele>2640.6000976562</ele>
        <time>2014-03-02T12:57:23.000Z</time>
      </trkpt>
      <trkpt lat="45.34848" lon="6.19307">
        <ele>2640.6000976562</ele>
        <time>2014-03-02T12:57:24.000Z</time>
      </trkpt>
      <trkpt lat="45.34848" lon="6.19307">
        <ele>2640.6000976562</ele>
        <time>2014-03-02T12:57:25.000Z</time>
      </trkpt>
      <trkpt lat="45.34848" lon="6.19307">
        <ele>2640.6000976562</ele>
        <time>2014-03-02T12:57:26.000Z</time>
      </trkpt>
      <trkpt lat="45.34848" lon="6.19307">
        <ele>2640.6000976562</ele>
        <time>2014-03-02T12:57:27.000Z</time>
      </trkpt>
      <trkpt lat="45.34848" lon="6.19307">
        <ele>2640.6000976562</ele>
        <time>2014-03-02T12:57:28.000Z</time>
      </trkpt>
      <trkpt lat="45.34848" lon="6.19307">
        <ele>2640.6000976562</ele>
        <time>2014-03-02T12:57:30.000Z</time>
      </trkpt>
      <trkpt lat="45.34848" lon="6.19307">
        <ele>2640.6000976562</ele>
        <time>2014-03-02T12:57:32.000Z</time>
      </trkpt>
      <trkpt lat="45.34849" lon="6.19306">
        <ele>2641</ele>
        <time>2014-03-02T12:57:33.000Z</time>
      </trkpt>
      <trkpt lat="45.34849" lon="6.19306">
        <ele>2641</ele>
        <time>2014-03-02T12:57:34.000Z</time>
      </trkpt>
      <trkpt lat="45.34849" lon="6.19306">
        <ele>2641</ele>
        <time>2014-03-02T12:57:35.000Z</time>
      </trkpt>
      <trkpt lat="45.34849" lon="6.19306">
        <ele>2641</ele>
        <time>2014-03-02T12:57:36.000Z</time>
      </trkpt>
      <trkpt lat="45.34849" lon="6.19306">
        <ele>2641</ele>
        <time>2014-03-02T12:57:37.000Z</time>
      </trkpt>
      <trkpt lat="45.34849" lon="6.19306">
        <ele>2641</ele>
        <time>2014-03-02T12:57:38.000Z</time>
      </trkpt>
      <trkpt lat="45.34849" lon="6.19306">
        <ele>2641</ele>
        <time>2014-03-02T12:57:39.000Z</time>
      </trkpt>
      <trkpt lat="45.34849" lon="6.19306">
        <ele>2641</ele>
        <time>2014-03-02T12:57:40.000Z</time>
      </trkpt>
      <trkpt lat="45.34849" lon="6.19306">
        <ele>2641</ele>
        <time>2014-03-02T12:57:41.000Z</time>
      </trkpt>
      <trkpt lat="45.34849" lon="6.19306">
        <ele>2641</ele>
        <time>2014-03-02T12:57:42.000Z</time>
      </trkpt>
      <trkpt lat="45.34849" lon="6.19306">
        <ele>2641</ele>
        <time>2014-03-02T12:57:43.000Z</time>
      </trkpt>
      <trkpt lat="45.34849" lon="6.19306">
        <ele>2641</ele>
        <time>2014-03-02T12:57:45.000Z</time>
      </trkpt>
      <trkpt lat="45.34849" lon="6.19306">
        <ele>2641</ele>
        <time>2014-03-02T12:57:46.000Z</time>
      </trkpt>
      <trkpt lat="45.34849" lon="6.19306">
        <ele>2641</ele>
        <time>2014-03-02T12:57:47.000Z</time>
      </trkpt>
      <trkpt lat="45.34849" lon="6.19306">
        <ele>2641</ele>
        <time>2014-03-02T12:57:48.000Z</time>
      </trkpt>
      <trkpt lat="45.34849" lon="6.19306">
        <ele>2641</ele>
        <time>2014-03-02T12:57:49.000Z</time>
      </trkpt>
      <trkpt lat="45.34849" lon="6.19306">
        <ele>2641</ele>
        <time>2014-03-02T12:57:50.000Z</time>
      </trkpt>
      <trkpt lat="45.34849" lon="6.19306">
        <ele>2641</ele>
        <time>2014-03-02T12:57:51.000Z</time>
      </trkpt>
      <trkpt lat="45.34849" lon="6.19306">
        <ele>2641</ele>
        <time>2014-03-02T12:57:52.000Z</time>
      </trkpt>
      <trkpt lat="45.34849" lon="6.19306">
        <ele>2641</ele>
        <time>2014-03-02T12:57:53.000Z</time>
      </trkpt>
      <trkpt lat="45.34849" lon="6.19306">
        <ele>2641</ele>
        <time>2014-03-02T12:57:54.000Z</time>
      </trkpt>
      <trkpt lat="45.34849" lon="6.19306">
        <ele>2641</ele>
        <time>2014-03-02T12:57:55.000Z</time>
      </trkpt>
      <trkpt lat="45.34849" lon="6.19306">
        <ele>2641</ele>
        <time>2014-03-02T12:57:56.000Z</time>
      </trkpt>
      <trkpt lat="45.34849" lon="6.19306">
        <ele>2641</ele>
        <time>2014-03-02T12:57:57.000Z</time>
      </trkpt>
      <trkpt lat="45.34849" lon="6.19306">
        <ele>2641</ele>
        <time>2014-03-02T12:57:58.000Z</time>
      </trkpt>
      <trkpt lat="45.34849" lon="6.19306">
        <ele>2641</ele>
        <time>2014-03-02T12:57:59.000Z</time>
      </trkpt>
      <trkpt lat="45.34849" lon="6.19306">
        <ele>2641</ele>
        <time>2014-03-02T12:58:00.000Z</time>
      </trkpt>
      <trkpt lat="45.34849" lon="6.19306">
        <ele>2641</ele>
        <time>2014-03-02T12:58:01.000Z</time>
      </trkpt>
      <trkpt lat="45.34849" lon="6.19306">
        <ele>2641</ele>
        <time>2014-03-02T12:58:02.000Z</time>
      </trkpt>
      <trkpt lat="45.34849" lon="6.19306">
        <ele>2641</ele>
        <time>2014-03-02T12:58:03.000Z</time>
      </trkpt>
      <trkpt lat="45.34849" lon="6.19306">
        <ele>2641</ele>
        <time>2014-03-02T12:58:04.000Z</time>
      </trkpt>
      <trkpt lat="45.34849" lon="6.19306">
        <ele>2641</ele>
        <time>2014-03-02T12:58:05.000Z</time>
      </trkpt>
      <trkpt lat="45.34849" lon="6.19306">
        <ele>2641</ele>
        <time>2014-03-02T12:58:06.000Z</time>
      </trkpt>
      <trkpt lat="45.34849" lon="6.19306">
        <ele>2641</ele>
        <time>2014-03-02T12:58:07.000Z</time>
      </trkpt>
      <trkpt lat="45.34849" lon="6.19306">
        <ele>2641</ele>
        <time>2014-03-02T12:58:08.000Z</time>
      </trkpt>
      <trkpt lat="45.34849" lon="6.19306">
        <ele>2641</ele>
        <time>2014-03-02T12:58:09.000Z</time>
      </trkpt>
      <trkpt lat="45.34849" lon="6.19306">
        <ele>2641</ele>
        <time>2014-03-02T12:58:10.000Z</time>
      </trkpt>
      <trkpt lat="45.34849" lon="6.19306">
        <ele>2641</ele>
        <time>2014-03-02T12:58:11.000Z</time>
      </trkpt>
      <trkpt lat="45.34849" lon="6.19306">
        <ele>2641</ele>
        <time>2014-03-02T12:58:12.000Z</time>
      </trkpt>
      <trkpt lat="45.34849" lon="6.19304">
        <ele>2641.3999023438</ele>
        <time>2014-03-02T12:58:13.000Z</time>
      </trkpt>
      <trkpt lat="45.34849" lon="6.19304">
        <ele>2641.3999023438</ele>
        <time>2014-03-02T12:58:14.000Z</time>
      </trkpt>
      <trkpt lat="45.34849" lon="6.19304">
        <ele>2641.3999023438</ele>
        <time>2014-03-02T12:58:15.000Z</time>
      </trkpt>
      <trkpt lat="45.34849" lon="6.19304">
        <ele>2641.3999023438</ele>
        <time>2014-03-02T12:58:16.000Z</time>
      </trkpt>
      <trkpt lat="45.34849" lon="6.19304">
        <ele>2641.3999023438</ele>
        <time>2014-03-02T12:58:17.000Z</time>
      </trkpt>
      <trkpt lat="45.34849" lon="6.19304">
        <ele>2641.3999023438</ele>
        <time>2014-03-02T12:58:18.000Z</time>
      </trkpt>
      <trkpt lat="45.34849" lon="6.19304">
        <ele>2641.3999023438</ele>
        <time>2014-03-02T12:58:19.000Z</time>
      </trkpt>
      <trkpt lat="45.34849" lon="6.19304">
        <ele>2641.3999023438</ele>
        <time>2014-03-02T12:58:20.000Z</time>
      </trkpt>
      <trkpt lat="45.34849" lon="6.19304">
        <ele>2641.3999023438</ele>
        <time>2014-03-02T12:58:21.000Z</time>
      </trkpt>
      <trkpt lat="45.3485" lon="6.19303">
        <ele>2641.8000488281</ele>
        <time>2014-03-02T12:58:22.000Z</time>
      </trkpt>
      <trkpt lat="45.3485" lon="6.19303">
        <ele>2641.8000488281</ele>
        <time>2014-03-02T12:58:23.000Z</time>
      </trkpt>
      <trkpt lat="45.34851" lon="6.19303">
        <ele>2642.6000976562</ele>
        <time>2014-03-02T12:58:24.000Z</time>
      </trkpt>
      <trkpt lat="45.34851" lon="6.19303">
        <ele>2642.6000976562</ele>
        <time>2014-03-02T12:58:25.000Z</time>
      </trkpt>
      <trkpt lat="45.34853" lon="6.19301">
        <ele>2643.8000488281</ele>
        <time>2014-03-02T12:58:26.000Z</time>
      </trkpt>
      <trkpt lat="45.34853" lon="6.19301">
        <ele>2643.8000488281</ele>
        <time>2014-03-02T12:58:27.000Z</time>
      </trkpt>
      <trkpt lat="45.34855" lon="6.19299">
        <ele>2645</ele>
        <time>2014-03-02T12:58:28.000Z</time>
      </trkpt>
      <trkpt lat="45.34857" lon="6.19298">
        <ele>2646.1999511719</ele>
        <time>2014-03-02T12:58:29.000Z</time>
      </trkpt>
      <trkpt lat="45.34858" lon="6.19297">
        <ele>2646.8000488281</ele>
        <time>2014-03-02T12:58:30.000Z</time>
      </trkpt>
      <trkpt lat="45.34859" lon="6.19297">
        <ele>2647.3999023438</ele>
        <time>2014-03-02T12:58:31.000Z</time>
      </trkpt>
      <trkpt lat="45.3486" lon="6.19296">
        <ele>2648</ele>
        <time>2014-03-02T12:58:32.000Z</time>
      </trkpt>
      <trkpt lat="45.34861" lon="6.19295">
        <ele>2648.6000976562</ele>
        <time>2014-03-02T12:58:33.000Z</time>
      </trkpt>
      <trkpt lat="45.34862" lon="6.19295">
        <ele>2649</ele>
        <time>2014-03-02T12:58:34.000Z</time>
      </trkpt>
      <trkpt lat="45.34863" lon="6.19294">
        <ele>2649.3999023438</ele>
        <time>2014-03-02T12:58:35.000Z</time>
      </trkpt>
      <trkpt lat="45.34864" lon="6.19294">
        <ele>2649.8000488281</ele>
        <time>2014-03-02T12:58:36.000Z</time>
      </trkpt>
      <trkpt lat="45.34865" lon="6.19294">
        <ele>2649.6000976562</ele>
        <time>2014-03-02T12:58:37.000Z</time>
      </trkpt>
      <trkpt lat="45.34865" lon="6.19294">
        <ele>2649.6000976562</ele>
        <time>2014-03-02T12:58:38.000Z</time>
      </trkpt>
      <trkpt lat="45.34866" lon="6.19294">
        <ele>2649.6000976562</ele>
        <time>2014-03-02T12:58:39.000Z</time>
      </trkpt>
      <trkpt lat="45.34866" lon="6.19294">
        <ele>2649.3999023438</ele>
        <time>2014-03-02T12:58:40.000Z</time>
      </trkpt>
      <trkpt lat="45.34866" lon="6.19294">
        <ele>2649.3999023438</ele>
        <time>2014-03-02T12:58:41.000Z</time>
      </trkpt>
      <trkpt lat="45.34866" lon="6.19294">
        <ele>2649.3999023438</ele>
        <time>2014-03-02T12:58:42.000Z</time>
      </trkpt>
      <trkpt lat="45.34866" lon="6.19294">
        <ele>2649.3999023438</ele>
        <time>2014-03-02T12:58:43.000Z</time>
      </trkpt>
      <trkpt lat="45.34866" lon="6.19294">
        <ele>2649.3999023438</ele>
        <time>2014-03-02T12:58:44.000Z</time>
      </trkpt>
      <trkpt lat="45.34866" lon="6.19294">
        <ele>2649.3999023438</ele>
        <time>2014-03-02T12:58:45.000Z</time>
      </trkpt>
      <trkpt lat="45.34866" lon="6.19294">
        <ele>2649.3999023438</ele>
        <time>2014-03-02T12:58:46.000Z</time>
      </trkpt>
      <trkpt lat="45.34866" lon="6.19294">
        <ele>2649.3999023438</ele>
        <time>2014-03-02T12:58:47.000Z</time>
      </trkpt>
      <trkpt lat="45.34866" lon="6.19294">
        <ele>2649.3999023438</ele>
        <time>2014-03-02T12:58:49.000Z</time>
      </trkpt>
      <trkpt lat="45.34866" lon="6.19294">
        <ele>2649.3999023438</ele>
        <time>2014-03-02T12:58:50.000Z</time>
      </trkpt>
      <trkpt lat="45.34866" lon="6.19294">
        <ele>2649.3999023438</ele>
        <time>2014-03-02T12:58:51.000Z</time>
      </trkpt>
      <trkpt lat="45.34866" lon="6.19294">
        <ele>2649.3999023438</ele>
        <time>2014-03-02T12:58:52.000Z</time>
      </trkpt>
      <trkpt lat="45.34866" lon="6.19294">
        <ele>2649.3999023438</ele>
        <time>2014-03-02T12:58:53.000Z</time>
      </trkpt>
      <trkpt lat="45.34866" lon="6.19294">
        <ele>2649.3999023438</ele>
        <time>2014-03-02T12:58:54.000Z</time>
      </trkpt>
      <trkpt lat="45.34866" lon="6.19294">
        <ele>2649.3999023438</ele>
        <time>2014-03-02T12:58:55.000Z</time>
      </trkpt>
      <trkpt lat="45.34866" lon="6.19294">
        <ele>2649.3999023438</ele>
        <time>2014-03-02T12:58:56.000Z</time>
      </trkpt>
      <trkpt lat="45.34866" lon="6.19294">
        <ele>2649.3999023438</ele>
        <time>2014-03-02T12:58:57.000Z</time>
      </trkpt>
      <trkpt lat="45.34866" lon="6.19294">
        <ele>2649.3999023438</ele>
        <time>2014-03-02T12:58:58.000Z</time>
      </trkpt>
      <trkpt lat="45.34866" lon="6.19294">
        <ele>2649.3999023438</ele>
        <time>2014-03-02T12:58:59.000Z</time>
      </trkpt>
      <trkpt lat="45.34866" lon="6.19294">
        <ele>2649.3999023438</ele>
        <time>2014-03-02T12:59:00.000Z</time>
      </trkpt>
      <trkpt lat="45.34866" lon="6.19294">
        <ele>2649.3999023438</ele>
        <time>2014-03-02T12:59:01.000Z</time>
      </trkpt>
      <trkpt lat="45.34866" lon="6.19294">
        <ele>2649.3999023438</ele>
        <time>2014-03-02T12:59:02.000Z</time>
      </trkpt>
      <trkpt lat="45.34866" lon="6.19294">
        <ele>2649.3999023438</ele>
        <time>2014-03-02T12:59:03.000Z</time>
      </trkpt>
      <trkpt lat="45.34866" lon="6.19294">
        <ele>2649.3999023438</ele>
        <time>2014-03-02T12:59:04.000Z</time>
      </trkpt>
      <trkpt lat="45.34866" lon="6.19294">
        <ele>2649.3999023438</ele>
        <time>2014-03-02T12:59:05.000Z</time>
      </trkpt>
      <trkpt lat="45.34866" lon="6.19294">
        <ele>2649.3999023438</ele>
        <time>2014-03-02T12:59:09.000Z</time>
      </trkpt>
      <trkpt lat="45.34866" lon="6.19294">
        <ele>2649.3999023438</ele>
        <time>2014-03-02T12:59:10.000Z</time>
      </trkpt>
      <trkpt lat="45.34866" lon="6.19294">
        <ele>2649.3999023438</ele>
        <time>2014-03-02T12:59:11.000Z</time>
      </trkpt>
      <trkpt lat="45.34866" lon="6.19294">
        <ele>2649.3999023438</ele>
        <time>2014-03-02T12:59:12.000Z</time>
      </trkpt>
      <trkpt lat="45.34866" lon="6.19294">
        <ele>2649.3999023438</ele>
        <time>2014-03-02T12:59:13.000Z</time>
      </trkpt>
      <trkpt lat="45.34866" lon="6.19294">
        <ele>2649.3999023438</ele>
        <time>2014-03-02T12:59:14.000Z</time>
      </trkpt>
      <trkpt lat="45.34866" lon="6.19294">
        <ele>2649.3999023438</ele>
        <time>2014-03-02T12:59:15.000Z</time>
      </trkpt>
      <trkpt lat="45.34866" lon="6.19294">
        <ele>2649.3999023438</ele>
        <time>2014-03-02T12:59:16.000Z</time>
      </trkpt>
      <trkpt lat="45.34866" lon="6.19294">
        <ele>2649.3999023438</ele>
        <time>2014-03-02T12:59:17.000Z</time>
      </trkpt>
      <trkpt lat="45.34866" lon="6.19294">
        <ele>2649.3999023438</ele>
        <time>2014-03-02T12:59:18.000Z</time>
      </trkpt>
      <trkpt lat="45.34866" lon="6.19294">
        <ele>2649.3999023438</ele>
        <time>2014-03-02T12:59:19.000Z</time>
      </trkpt>
      <trkpt lat="45.34866" lon="6.19293">
        <ele>2649.1999511719</ele>
        <time>2014-03-02T12:59:20.000Z</time>
      </trkpt>
      <trkpt lat="45.34866" lon="6.19293">
        <ele>2649.1999511719</ele>
        <time>2014-03-02T12:59:21.000Z</time>
      </trkpt>
      <trkpt lat="45.34866" lon="6.19293">
        <ele>2649.1999511719</ele>
        <time>2014-03-02T12:59:22.000Z</time>
      </trkpt>
      <trkpt lat="45.34866" lon="6.19293">
        <ele>2649.1999511719</ele>
        <time>2014-03-02T12:59:23.000Z</time>
      </trkpt>
      <trkpt lat="45.34866" lon="6.19293">
        <ele>2649.1999511719</ele>
        <time>2014-03-02T12:59:24.000Z</time>
      </trkpt>
      <trkpt lat="45.34866" lon="6.19293">
        <ele>2649.1999511719</ele>
        <time>2014-03-02T12:59:25.000Z</time>
      </trkpt>
      <trkpt lat="45.34865" lon="6.19292">
        <ele>2649</ele>
        <time>2014-03-02T12:59:26.000Z</time>
      </trkpt>
      <trkpt lat="45.34865" lon="6.19291">
        <ele>2648.6000976562</ele>
        <time>2014-03-02T12:59:27.000Z</time>
      </trkpt>
      <trkpt lat="45.34864" lon="6.1929">
        <ele>2648.1999511719</ele>
        <time>2014-03-02T12:59:28.000Z</time>
      </trkpt>
      <trkpt lat="45.34864" lon="6.1929">
        <ele>2648.1999511719</ele>
        <time>2014-03-02T12:59:29.000Z</time>
      </trkpt>
      <trkpt lat="45.34864" lon="6.1929">
        <ele>2648.1999511719</ele>
        <time>2014-03-02T12:59:30.000Z</time>
      </trkpt>
      <trkpt lat="45.34864" lon="6.1929">
        <ele>2648.1999511719</ele>
        <time>2014-03-02T12:59:31.000Z</time>
      </trkpt>
      <trkpt lat="45.34864" lon="6.1929">
        <ele>2648.1999511719</ele>
        <time>2014-03-02T12:59:32.000Z</time>
      </trkpt>
      <trkpt lat="45.34864" lon="6.1929">
        <ele>2648.1999511719</ele>
        <time>2014-03-02T12:59:33.000Z</time>
      </trkpt>
      <trkpt lat="45.34864" lon="6.1929">
        <ele>2648.1999511719</ele>
        <time>2014-03-02T12:59:34.000Z</time>
      </trkpt>
      <trkpt lat="45.34864" lon="6.1929">
        <ele>2648.1999511719</ele>
        <time>2014-03-02T12:59:35.000Z</time>
      </trkpt>
      <trkpt lat="45.34864" lon="6.1929">
        <ele>2648.1999511719</ele>
        <time>2014-03-02T12:59:36.000Z</time>
      </trkpt>
      <trkpt lat="45.34864" lon="6.1929">
        <ele>2648.1999511719</ele>
        <time>2014-03-02T12:59:37.000Z</time>
      </trkpt>
      <trkpt lat="45.34864" lon="6.1929">
        <ele>2648.1999511719</ele>
        <time>2014-03-02T12:59:38.000Z</time>
      </trkpt>
      <trkpt lat="45.34864" lon="6.1929">
        <ele>2648.1999511719</ele>
        <time>2014-03-02T12:59:39.000Z</time>
      </trkpt>
      <trkpt lat="45.34864" lon="6.1929">
        <ele>2648.1999511719</ele>
        <time>2014-03-02T12:59:40.000Z</time>
      </trkpt>
      <trkpt lat="45.34864" lon="6.1929">
        <ele>2648.1999511719</ele>
        <time>2014-03-02T12:59:41.000Z</time>
      </trkpt>
      <trkpt lat="45.34864" lon="6.1929">
        <ele>2648.1999511719</ele>
        <time>2014-03-02T12:59:42.000Z</time>
      </trkpt>
      <trkpt lat="45.34864" lon="6.1929">
        <ele>2648.1999511719</ele>
        <time>2014-03-02T12:59:43.000Z</time>
      </trkpt>
      <trkpt lat="45.34864" lon="6.1929">
        <ele>2648.1999511719</ele>
        <time>2014-03-02T12:59:44.000Z</time>
      </trkpt>
      <trkpt lat="45.34864" lon="6.19288">
        <ele>2647.8000488281</ele>
        <time>2014-03-02T12:59:45.000Z</time>
      </trkpt>
      <trkpt lat="45.34863" lon="6.19287">
        <ele>2647.1999511719</ele>
        <time>2014-03-02T12:59:47.000Z</time>
      </trkpt>
      <trkpt lat="45.34862" lon="6.19283">
        <ele>2646</ele>
        <time>2014-03-02T12:59:49.000Z</time>
      </trkpt>
      <trkpt lat="45.34861" lon="6.19281">
        <ele>2645.3999023438</ele>
        <time>2014-03-02T12:59:50.000Z</time>
      </trkpt>
      <trkpt lat="45.34861" lon="6.1928">
        <ele>2645</ele>
        <time>2014-03-02T12:59:51.000Z</time>
      </trkpt>
      <trkpt lat="45.3486" lon="6.19278">
        <ele>2644.3999023438</ele>
        <time>2014-03-02T12:59:52.000Z</time>
      </trkpt>
      <trkpt lat="45.3486" lon="6.19277">
        <ele>2644.1999511719</ele>
        <time>2014-03-02T12:59:53.000Z</time>
      </trkpt>
      <trkpt lat="45.34859" lon="6.19276">
        <ele>2643.6000976562</ele>
        <time>2014-03-02T12:59:54.000Z</time>
      </trkpt>
      <trkpt lat="45.34858" lon="6.19273">
        <ele>2642.6000976562</ele>
        <time>2014-03-02T12:59:55.000Z</time>
      </trkpt>
      <trkpt lat="45.34858" lon="6.19272">
        <ele>2642.3999023438</ele>
        <time>2014-03-02T12:59:56.000Z</time>
      </trkpt>
      <trkpt lat="45.34858" lon="6.19271">
        <ele>2642</ele>
        <time>2014-03-02T12:59:57.000Z</time>
      </trkpt>
      <trkpt lat="45.34858" lon="6.19271">
        <ele>2641.8000488281</ele>
        <time>2014-03-02T12:59:58.000Z</time>
      </trkpt>
      <trkpt lat="45.34858" lon="6.19271">
        <ele>2641.8000488281</ele>
        <time>2014-03-02T12:59:59.000Z</time>
      </trkpt>
      <trkpt lat="45.34858" lon="6.19271">
        <ele>2641.8000488281</ele>
        <time>2014-03-02T13:00:00.000Z</time>
      </trkpt>
      <trkpt lat="45.34857" lon="6.1927">
        <ele>2641.6000976562</ele>
        <time>2014-03-02T13:00:01.000Z</time>
      </trkpt>
      <trkpt lat="45.34857" lon="6.19268">
        <ele>2641</ele>
        <time>2014-03-02T13:00:02.000Z</time>
      </trkpt>
      <trkpt lat="45.34857" lon="6.19268">
        <ele>2640.8000488281</ele>
        <time>2014-03-02T13:00:03.000Z</time>
      </trkpt>
      <trkpt lat="45.34856" lon="6.19266">
        <ele>2640.1999511719</ele>
        <time>2014-03-02T13:00:04.000Z</time>
      </trkpt>
      <trkpt lat="45.34856" lon="6.19266">
        <ele>2640.1999511719</ele>
        <time>2014-03-02T13:00:05.000Z</time>
      </trkpt>
      <trkpt lat="45.34856" lon="6.19266">
        <ele>2640.1999511719</ele>
        <time>2014-03-02T13:00:06.000Z</time>
      </trkpt>
      <trkpt lat="45.34856" lon="6.19266">
        <ele>2640.1999511719</ele>
        <time>2014-03-02T13:00:07.000Z</time>
      </trkpt>
      <trkpt lat="45.34856" lon="6.19266">
        <ele>2640.1999511719</ele>
        <time>2014-03-02T13:00:08.000Z</time>
      </trkpt>
      <trkpt lat="45.34856" lon="6.19266">
        <ele>2640.1999511719</ele>
        <time>2014-03-02T13:00:09.000Z</time>
      </trkpt>
      <trkpt lat="45.34855" lon="6.19265">
        <ele>2640</ele>
        <time>2014-03-02T13:00:10.000Z</time>
      </trkpt>
      <trkpt lat="45.34855" lon="6.19264">
        <ele>2639.8000488281</ele>
        <time>2014-03-02T13:00:11.000Z</time>
      </trkpt>
      <trkpt lat="45.34855" lon="6.19264">
        <ele>2639.6000976562</ele>
        <time>2014-03-02T13:00:12.000Z</time>
      </trkpt>
      <trkpt lat="45.34853" lon="6.19262">
        <ele>2639</ele>
        <time>2014-03-02T13:00:13.000Z</time>
      </trkpt>
      <trkpt lat="45.34853" lon="6.19262">
        <ele>2639</ele>
        <time>2014-03-02T13:00:14.000Z</time>
      </trkpt>
      <trkpt lat="45.34852" lon="6.1926">
        <ele>2638.6000976562</ele>
        <time>2014-03-02T13:00:15.000Z</time>
      </trkpt>
      <trkpt lat="45.34852" lon="6.1926">
        <ele>2638.6000976562</ele>
        <time>2014-03-02T13:00:16.000Z</time>
      </trkpt>
      <trkpt lat="45.34852" lon="6.1926">
        <ele>2638.3999023438</ele>
        <time>2014-03-02T13:00:17.000Z</time>
      </trkpt>
      <trkpt lat="45.34852" lon="6.1926">
        <ele>2638.3999023438</ele>
        <time>2014-03-02T13:00:18.000Z</time>
      </trkpt>
      <trkpt lat="45.34852" lon="6.1926">
        <ele>2638.3999023438</ele>
        <time>2014-03-02T13:00:19.000Z</time>
      </trkpt>
      <trkpt lat="45.34852" lon="6.1926">
        <ele>2638.3999023438</ele>
        <time>2014-03-02T13:00:20.000Z</time>
      </trkpt>
      <trkpt lat="45.34852" lon="6.1926">
        <ele>2638.3999023438</ele>
        <time>2014-03-02T13:00:21.000Z</time>
      </trkpt>
      <trkpt lat="45.34852" lon="6.1926">
        <ele>2638.3999023438</ele>
        <time>2014-03-02T13:00:22.000Z</time>
      </trkpt>
      <trkpt lat="45.34852" lon="6.1926">
        <ele>2638.3999023438</ele>
        <time>2014-03-02T13:00:23.000Z</time>
      </trkpt>
      <trkpt lat="45.34852" lon="6.1926">
        <ele>2638.3999023438</ele>
        <time>2014-03-02T13:00:24.000Z</time>
      </trkpt>
      <trkpt lat="45.34852" lon="6.1926">
        <ele>2638.3999023438</ele>
        <time>2014-03-02T13:00:25.000Z</time>
      </trkpt>
      <trkpt lat="45.34852" lon="6.1926">
        <ele>2638.3999023438</ele>
        <time>2014-03-02T13:00:26.000Z</time>
      </trkpt>
      <trkpt lat="45.34852" lon="6.1926">
        <ele>2638.3999023438</ele>
        <time>2014-03-02T13:00:27.000Z</time>
      </trkpt>
      <trkpt lat="45.34852" lon="6.1926">
        <ele>2638.3999023438</ele>
        <time>2014-03-02T13:00:28.000Z</time>
      </trkpt>
      <trkpt lat="45.34852" lon="6.1926">
        <ele>2638.3999023438</ele>
        <time>2014-03-02T13:00:30.000Z</time>
      </trkpt>
      <trkpt lat="45.34852" lon="6.1926">
        <ele>2638.3999023438</ele>
        <time>2014-03-02T13:00:31.000Z</time>
      </trkpt>
      <trkpt lat="45.34852" lon="6.1926">
        <ele>2638.3999023438</ele>
        <time>2014-03-02T13:00:32.000Z</time>
      </trkpt>
      <trkpt lat="45.34852" lon="6.1926">
        <ele>2638.3999023438</ele>
        <time>2014-03-02T13:00:33.000Z</time>
      </trkpt>
      <trkpt lat="45.34852" lon="6.1926">
        <ele>2638.3999023438</ele>
        <time>2014-03-02T13:00:34.000Z</time>
      </trkpt>
      <trkpt lat="45.34852" lon="6.1926">
        <ele>2638.3999023438</ele>
        <time>2014-03-02T13:00:35.000Z</time>
      </trkpt>
      <trkpt lat="45.34852" lon="6.1926">
        <ele>2638.3999023438</ele>
        <time>2014-03-02T13:00:36.000Z</time>
      </trkpt>
      <trkpt lat="45.34852" lon="6.1926">
        <ele>2638.3999023438</ele>
        <time>2014-03-02T13:00:37.000Z</time>
      </trkpt>
      <trkpt lat="45.34852" lon="6.1926">
        <ele>2638.3999023438</ele>
        <time>2014-03-02T13:00:38.000Z</time>
      </trkpt>
      <trkpt lat="45.34852" lon="6.1926">
        <ele>2638.3999023438</ele>
        <time>2014-03-02T13:00:39.000Z</time>
      </trkpt>
      <trkpt lat="45.34852" lon="6.1926">
        <ele>2638.3999023438</ele>
        <time>2014-03-02T13:00:40.000Z</time>
      </trkpt>
      <trkpt lat="45.34852" lon="6.1926">
        <ele>2638.3999023438</ele>
        <time>2014-03-02T13:00:41.000Z</time>
      </trkpt>
      <trkpt lat="45.34852" lon="6.1926">
        <ele>2638.3999023438</ele>
        <time>2014-03-02T13:00:44.000Z</time>
      </trkpt>
      <trkpt lat="45.34852" lon="6.1926">
        <ele>2638.6000976562</ele>
        <time>2014-03-02T13:00:45.000Z</time>
      </trkpt>
      <trkpt lat="45.34851" lon="6.1926">
        <ele>2638.6000976562</ele>
        <time>2014-03-02T13:00:46.000Z</time>
      </trkpt>
      <trkpt lat="45.34851" lon="6.1926">
        <ele>2638.6000976562</ele>
        <time>2014-03-02T13:00:47.000Z</time>
      </trkpt>
      <trkpt lat="45.3485" lon="6.1926">
        <ele>2638.6000976562</ele>
        <time>2014-03-02T13:00:48.000Z</time>
      </trkpt>
      <trkpt lat="45.3485" lon="6.1926">
        <ele>2638.6000976562</ele>
        <time>2014-03-02T13:00:49.000Z</time>
      </trkpt>
      <trkpt lat="45.3485" lon="6.1926">
        <ele>2638.6000976562</ele>
        <time>2014-03-02T13:00:50.000Z</time>
      </trkpt>
      <trkpt lat="45.3485" lon="6.1926">
        <ele>2638.6000976562</ele>
        <time>2014-03-02T13:00:51.000Z</time>
      </trkpt>
      <trkpt lat="45.3485" lon="6.1926">
        <ele>2638.6000976562</ele>
        <time>2014-03-02T13:00:52.000Z</time>
      </trkpt>
      <trkpt lat="45.3485" lon="6.1926">
        <ele>2638.6000976562</ele>
        <time>2014-03-02T13:00:53.000Z</time>
      </trkpt>
      <trkpt lat="45.3485" lon="6.1926">
        <ele>2638.6000976562</ele>
        <time>2014-03-02T13:00:55.000Z</time>
      </trkpt>
      <trkpt lat="45.3485" lon="6.1926">
        <ele>2638.6000976562</ele>
        <time>2014-03-02T13:00:56.000Z</time>
      </trkpt>
      <trkpt lat="45.3485" lon="6.1926">
        <ele>2638.6000976562</ele>
        <time>2014-03-02T13:00:57.000Z</time>
      </trkpt>
      <trkpt lat="45.3485" lon="6.1926">
        <ele>2638.6000976562</ele>
        <time>2014-03-02T13:00:58.000Z</time>
      </trkpt>
      <trkpt lat="45.3485" lon="6.1926">
        <ele>2638.6000976562</ele>
        <time>2014-03-02T13:00:59.000Z</time>
      </trkpt>
      <trkpt lat="45.3485" lon="6.1926">
        <ele>2638.6000976562</ele>
        <time>2014-03-02T13:01:00.000Z</time>
      </trkpt>
      <trkpt lat="45.3485" lon="6.1926">
        <ele>2638.6000976562</ele>
        <time>2014-03-02T13:01:01.000Z</time>
      </trkpt>
      <trkpt lat="45.3485" lon="6.1926">
        <ele>2638.6000976562</ele>
        <time>2014-03-02T13:01:04.000Z</time>
      </trkpt>
      <trkpt lat="45.3485" lon="6.1926">
        <ele>2638.6000976562</ele>
        <time>2014-03-02T13:01:05.000Z</time>
      </trkpt>
      <trkpt lat="45.3485" lon="6.1926">
        <ele>2638.6000976562</ele>
        <time>2014-03-02T13:01:06.000Z</time>
      </trkpt>
      <trkpt lat="45.3485" lon="6.1926">
        <ele>2638.6000976562</ele>
        <time>2014-03-02T13:01:07.000Z</time>
      </trkpt>
      <trkpt lat="45.3485" lon="6.1926">
        <ele>2638.6000976562</ele>
        <time>2014-03-02T13:01:08.000Z</time>
      </trkpt>
      <trkpt lat="45.3485" lon="6.1926">
        <ele>2638.6000976562</ele>
        <time>2014-03-02T13:01:09.000Z</time>
      </trkpt>
      <trkpt lat="45.3485" lon="6.1926">
        <ele>2638.6000976562</ele>
        <time>2014-03-02T13:01:10.000Z</time>
      </trkpt>
      <trkpt lat="45.3485" lon="6.1926">
        <ele>2638.6000976562</ele>
        <time>2014-03-02T13:01:11.000Z</time>
      </trkpt>
      <trkpt lat="45.3485" lon="6.1926">
        <ele>2638.6000976562</ele>
        <time>2014-03-02T13:01:12.000Z</time>
      </trkpt>
      <trkpt lat="45.3485" lon="6.1926">
        <ele>2638.6000976562</ele>
        <time>2014-03-02T13:01:13.000Z</time>
      </trkpt>
      <trkpt lat="45.3485" lon="6.1926">
        <ele>2638.6000976562</ele>
        <time>2014-03-02T13:01:14.000Z</time>
      </trkpt>
      <trkpt lat="45.3485" lon="6.1926">
        <ele>2638.6000976562</ele>
        <time>2014-03-02T13:01:15.000Z</time>
      </trkpt>
      <trkpt lat="45.3485" lon="6.1926">
        <ele>2638.6000976562</ele>
        <time>2014-03-02T13:01:16.000Z</time>
      </trkpt>
      <trkpt lat="45.3485" lon="6.1926">
        <ele>2638.6000976562</ele>
        <time>2014-03-02T13:01:17.000Z</time>
      </trkpt>
      <trkpt lat="45.3485" lon="6.1926">
        <ele>2638.6000976562</ele>
        <time>2014-03-02T13:01:18.000Z</time>
      </trkpt>
      <trkpt lat="45.3485" lon="6.1926">
        <ele>2638.6000976562</ele>
        <time>2014-03-02T13:01:19.000Z</time>
      </trkpt>
      <trkpt lat="45.3485" lon="6.1926">
        <ele>2638.6000976562</ele>
        <time>2014-03-02T13:01:20.000Z</time>
      </trkpt>
      <trkpt lat="45.3485" lon="6.1926">
        <ele>2638.6000976562</ele>
        <time>2014-03-02T13:01:21.000Z</time>
      </trkpt>
      <trkpt lat="45.3485" lon="6.1926">
        <ele>2638.6000976562</ele>
        <time>2014-03-02T13:01:22.000Z</time>
      </trkpt>
      <trkpt lat="45.3485" lon="6.1926">
        <ele>2638.6000976562</ele>
        <time>2014-03-02T13:01:23.000Z</time>
      </trkpt>
      <trkpt lat="45.3485" lon="6.1926">
        <ele>2638.6000976562</ele>
        <time>2014-03-02T13:01:24.000Z</time>
      </trkpt>
      <trkpt lat="45.3485" lon="6.1926">
        <ele>2638.6000976562</ele>
        <time>2014-03-02T13:01:25.000Z</time>
      </trkpt>
      <trkpt lat="45.3485" lon="6.1926">
        <ele>2638.6000976562</ele>
        <time>2014-03-02T13:01:26.000Z</time>
      </trkpt>
      <trkpt lat="45.3485" lon="6.1926">
        <ele>2638.6000976562</ele>
        <time>2014-03-02T13:01:27.000Z</time>
      </trkpt>
      <trkpt lat="45.3485" lon="6.1926">
        <ele>2638.6000976562</ele>
        <time>2014-03-02T13:01:28.000Z</time>
      </trkpt>
      <trkpt lat="45.3485" lon="6.1926">
        <ele>2638.6000976562</ele>
        <time>2014-03-02T13:01:29.000Z</time>
      </trkpt>
      <trkpt lat="45.3485" lon="6.1926">
        <ele>2638.6000976562</ele>
        <time>2014-03-02T13:01:30.000Z</time>
      </trkpt>
      <trkpt lat="45.3485" lon="6.1926">
        <ele>2638.6000976562</ele>
        <time>2014-03-02T13:01:31.000Z</time>
      </trkpt>
      <trkpt lat="45.3485" lon="6.1926">
        <ele>2638.6000976562</ele>
        <time>2014-03-02T13:01:32.000Z</time>
      </trkpt>
      <trkpt lat="45.3485" lon="6.1926">
        <ele>2638.6000976562</ele>
        <time>2014-03-02T13:01:33.000Z</time>
      </trkpt>
      <trkpt lat="45.3485" lon="6.1926">
        <ele>2638.6000976562</ele>
        <time>2014-03-02T13:01:34.000Z</time>
      </trkpt>
      <trkpt lat="45.3485" lon="6.1926">
        <ele>2638.6000976562</ele>
        <time>2014-03-02T13:01:35.000Z</time>
      </trkpt>
      <trkpt lat="45.3485" lon="6.1926">
        <ele>2638.6000976562</ele>
        <time>2014-03-02T13:01:36.000Z</time>
      </trkpt>
      <trkpt lat="45.3485" lon="6.1926">
        <ele>2638.6000976562</ele>
        <time>2014-03-02T13:01:37.000Z</time>
      </trkpt>
      <trkpt lat="45.3485" lon="6.1926">
        <ele>2638.6000976562</ele>
        <time>2014-03-02T13:01:39.000Z</time>
      </trkpt>
      <trkpt lat="45.3485" lon="6.1926">
        <ele>2638.6000976562</ele>
        <time>2014-03-02T13:01:40.000Z</time>
      </trkpt>
      <trkpt lat="45.3485" lon="6.1926">
        <ele>2638.6000976562</ele>
        <time>2014-03-02T13:01:41.000Z</time>
      </trkpt>
      <trkpt lat="45.3485" lon="6.1926">
        <ele>2638.6000976562</ele>
        <time>2014-03-02T13:01:42.000Z</time>
      </trkpt>
      <trkpt lat="45.3485" lon="6.1926">
        <ele>2638.6000976562</ele>
        <time>2014-03-02T13:01:43.000Z</time>
      </trkpt>
      <trkpt lat="45.3485" lon="6.1926">
        <ele>2638.6000976562</ele>
        <time>2014-03-02T13:01:44.000Z</time>
      </trkpt>
      <trkpt lat="45.3485" lon="6.1926">
        <ele>2638.6000976562</ele>
        <time>2014-03-02T13:01:45.000Z</time>
      </trkpt>
      <trkpt lat="45.3485" lon="6.1926">
        <ele>2638.6000976562</ele>
        <time>2014-03-02T13:01:46.000Z</time>
      </trkpt>
      <trkpt lat="45.3485" lon="6.1926">
        <ele>2638.6000976562</ele>
        <time>2014-03-02T13:01:47.000Z</time>
      </trkpt>
      <trkpt lat="45.3485" lon="6.1926">
        <ele>2638.6000976562</ele>
        <time>2014-03-02T13:01:48.000Z</time>
      </trkpt>
      <trkpt lat="45.3485" lon="6.1926">
        <ele>2638.6000976562</ele>
        <time>2014-03-02T13:01:49.000Z</time>
      </trkpt>
      <trkpt lat="45.3485" lon="6.1926">
        <ele>2638.6000976562</ele>
        <time>2014-03-02T13:01:50.000Z</time>
      </trkpt>
      <trkpt lat="45.3485" lon="6.1926">
        <ele>2638.6000976562</ele>
        <time>2014-03-02T13:01:51.000Z</time>
      </trkpt>
      <trkpt lat="45.3485" lon="6.1926">
        <ele>2638.6000976562</ele>
        <time>2014-03-02T13:01:52.000Z</time>
      </trkpt>
      <trkpt lat="45.3485" lon="6.1926">
        <ele>2638.6000976562</ele>
        <time>2014-03-02T13:01:53.000Z</time>
      </trkpt>
      <trkpt lat="45.3485" lon="6.1926">
        <ele>2638.6000976562</ele>
        <time>2014-03-02T13:01:54.000Z</time>
      </trkpt>
      <trkpt lat="45.3485" lon="6.1926">
        <ele>2638.6000976562</ele>
        <time>2014-03-02T13:01:55.000Z</time>
      </trkpt>
      <trkpt lat="45.3485" lon="6.1926">
        <ele>2638.6000976562</ele>
        <time>2014-03-02T13:01:56.000Z</time>
      </trkpt>
      <trkpt lat="45.3485" lon="6.1926">
        <ele>2638.6000976562</ele>
        <time>2014-03-02T13:01:57.000Z</time>
      </trkpt>
      <trkpt lat="45.3485" lon="6.1926">
        <ele>2638.6000976562</ele>
        <time>2014-03-02T13:01:58.000Z</time>
      </trkpt>
      <trkpt lat="45.3485" lon="6.1926">
        <ele>2638.6000976562</ele>
        <time>2014-03-02T13:01:59.000Z</time>
      </trkpt>
      <trkpt lat="45.3485" lon="6.1926">
        <ele>2638.6000976562</ele>
        <time>2014-03-02T13:02:00.000Z</time>
      </trkpt>
      <trkpt lat="45.3485" lon="6.1926">
        <ele>2638.6000976562</ele>
        <time>2014-03-02T13:02:01.000Z</time>
      </trkpt>
      <trkpt lat="45.3485" lon="6.1926">
        <ele>2638.6000976562</ele>
        <time>2014-03-02T13:02:02.000Z</time>
      </trkpt>
      <trkpt lat="45.3485" lon="6.1926">
        <ele>2638.6000976562</ele>
        <time>2014-03-02T13:02:03.000Z</time>
      </trkpt>
      <trkpt lat="45.3485" lon="6.1926">
        <ele>2638.6000976562</ele>
        <time>2014-03-02T13:02:04.000Z</time>
      </trkpt>
      <trkpt lat="45.3485" lon="6.1926">
        <ele>2638.6000976562</ele>
        <time>2014-03-02T13:02:05.000Z</time>
      </trkpt>
      <trkpt lat="45.3485" lon="6.1926">
        <ele>2638.6000976562</ele>
        <time>2014-03-02T13:02:06.000Z</time>
      </trkpt>
      <trkpt lat="45.3485" lon="6.1926">
        <ele>2638.6000976562</ele>
        <time>2014-03-02T13:02:07.000Z</time>
      </trkpt>
      <trkpt lat="45.34849" lon="6.1926">
        <ele>2638.6000976562</ele>
        <time>2014-03-02T13:02:08.000Z</time>
      </trkpt>
      <trkpt lat="45.34849" lon="6.1926">
        <ele>2638.6000976562</ele>
        <time>2014-03-02T13:02:09.000Z</time>
      </trkpt>
      <trkpt lat="45.34849" lon="6.1926">
        <ele>2638.6000976562</ele>
        <time>2014-03-02T13:02:10.000Z</time>
      </trkpt>
      <trkpt lat="45.34849" lon="6.1926">
        <ele>2638.6000976562</ele>
        <time>2014-03-02T13:02:11.000Z</time>
      </trkpt>
      <trkpt lat="45.34849" lon="6.1926">
        <ele>2638.6000976562</ele>
        <time>2014-03-02T13:02:12.000Z</time>
      </trkpt>
      <trkpt lat="45.34849" lon="6.1926">
        <ele>2638.6000976562</ele>
        <time>2014-03-02T13:02:13.000Z</time>
      </trkpt>
      <trkpt lat="45.34849" lon="6.1926">
        <ele>2638.6000976562</ele>
        <time>2014-03-02T13:02:14.000Z</time>
      </trkpt>
      <trkpt lat="45.34849" lon="6.1926">
        <ele>2638.6000976562</ele>
        <time>2014-03-02T13:02:15.000Z</time>
      </trkpt>
      <trkpt lat="45.34849" lon="6.1926">
        <ele>2638.6000976562</ele>
        <time>2014-03-02T13:02:16.000Z</time>
      </trkpt>
      <trkpt lat="45.34849" lon="6.1926">
        <ele>2638.6000976562</ele>
        <time>2014-03-02T13:02:17.000Z</time>
      </trkpt>
      <trkpt lat="45.34849" lon="6.1926">
        <ele>2638.6000976562</ele>
        <time>2014-03-02T13:02:18.000Z</time>
      </trkpt>
      <trkpt lat="45.34849" lon="6.1926">
        <ele>2638.6000976562</ele>
        <time>2014-03-02T13:02:19.000Z</time>
      </trkpt>
      <trkpt lat="45.34849" lon="6.1926">
        <ele>2638.6000976562</ele>
        <time>2014-03-02T13:02:20.000Z</time>
      </trkpt>
      <trkpt lat="45.34849" lon="6.1926">
        <ele>2638.6000976562</ele>
        <time>2014-03-02T13:02:21.000Z</time>
      </trkpt>
      <trkpt lat="45.34849" lon="6.1926">
        <ele>2638.6000976562</ele>
        <time>2014-03-02T13:02:22.000Z</time>
      </trkpt>
      <trkpt lat="45.34849" lon="6.1926">
        <ele>2638.6000976562</ele>
        <time>2014-03-02T13:02:23.000Z</time>
      </trkpt>
      <trkpt lat="45.34849" lon="6.1926">
        <ele>2638.6000976562</ele>
        <time>2014-03-02T13:02:24.000Z</time>
      </trkpt>
      <trkpt lat="45.34849" lon="6.1926">
        <ele>2638.6000976562</ele>
        <time>2014-03-02T13:02:25.000Z</time>
      </trkpt>
      <trkpt lat="45.34849" lon="6.1926">
        <ele>2638.6000976562</ele>
        <time>2014-03-02T13:02:26.000Z</time>
      </trkpt>
      <trkpt lat="45.34849" lon="6.1926">
        <ele>2638.6000976562</ele>
        <time>2014-03-02T13:02:27.000Z</time>
      </trkpt>
      <trkpt lat="45.34849" lon="6.1926">
        <ele>2638.6000976562</ele>
        <time>2014-03-02T13:02:28.000Z</time>
      </trkpt>
      <trkpt lat="45.34849" lon="6.1926">
        <ele>2638.6000976562</ele>
        <time>2014-03-02T13:02:29.000Z</time>
      </trkpt>
      <trkpt lat="45.34849" lon="6.1926">
        <ele>2638.6000976562</ele>
        <time>2014-03-02T13:02:30.000Z</time>
      </trkpt>
      <trkpt lat="45.34849" lon="6.1926">
        <ele>2638.6000976562</ele>
        <time>2014-03-02T13:02:31.000Z</time>
      </trkpt>
      <trkpt lat="45.34849" lon="6.1926">
        <ele>2638.6000976562</ele>
        <time>2014-03-02T13:02:32.000Z</time>
      </trkpt>
      <trkpt lat="45.34849" lon="6.1926">
        <ele>2638.6000976562</ele>
        <time>2014-03-02T13:02:33.000Z</time>
      </trkpt>
      <trkpt lat="45.34849" lon="6.1926">
        <ele>2638.6000976562</ele>
        <time>2014-03-02T13:02:34.000Z</time>
      </trkpt>
      <trkpt lat="45.34849" lon="6.1926">
        <ele>2638.6000976562</ele>
        <time>2014-03-02T13:02:35.000Z</time>
      </trkpt>
      <trkpt lat="45.34849" lon="6.1926">
        <ele>2638.6000976562</ele>
        <time>2014-03-02T13:02:36.000Z</time>
      </trkpt>
      <trkpt lat="45.34849" lon="6.1926">
        <ele>2638.6000976562</ele>
        <time>2014-03-02T13:02:37.000Z</time>
      </trkpt>
      <trkpt lat="45.34849" lon="6.1926">
        <ele>2638.6000976562</ele>
        <time>2014-03-02T13:02:38.000Z</time>
      </trkpt>
      <trkpt lat="45.34849" lon="6.1926">
        <ele>2638.6000976562</ele>
        <time>2014-03-02T13:02:39.000Z</time>
      </trkpt>
      <trkpt lat="45.34849" lon="6.1926">
        <ele>2638.6000976562</ele>
        <time>2014-03-02T13:02:40.000Z</time>
      </trkpt>
      <trkpt lat="45.34849" lon="6.1926">
        <ele>2638.6000976562</ele>
        <time>2014-03-02T13:02:41.000Z</time>
      </trkpt>
      <trkpt lat="45.34849" lon="6.1926">
        <ele>2638.6000976562</ele>
        <time>2014-03-02T13:02:42.000Z</time>
      </trkpt>
      <trkpt lat="45.34849" lon="6.1926">
        <ele>2638.6000976562</ele>
        <time>2014-03-02T13:02:43.000Z</time>
      </trkpt>
      <trkpt lat="45.34849" lon="6.1926">
        <ele>2638.6000976562</ele>
        <time>2014-03-02T13:02:44.000Z</time>
      </trkpt>
      <trkpt lat="45.34849" lon="6.1926">
        <ele>2638.6000976562</ele>
        <time>2014-03-02T13:02:45.000Z</time>
      </trkpt>
      <trkpt lat="45.34849" lon="6.1926">
        <ele>2638.6000976562</ele>
        <time>2014-03-02T13:02:46.000Z</time>
      </trkpt>
      <trkpt lat="45.34849" lon="6.1926">
        <ele>2638.6000976562</ele>
        <time>2014-03-02T13:02:47.000Z</time>
      </trkpt>
      <trkpt lat="45.34849" lon="6.1926">
        <ele>2638.3999023438</ele>
        <time>2014-03-02T13:02:48.000Z</time>
      </trkpt>
      <trkpt lat="45.34849" lon="6.1926">
        <ele>2638.3999023438</ele>
        <time>2014-03-02T13:02:49.000Z</time>
      </trkpt>
      <trkpt lat="45.34849" lon="6.1926">
        <ele>2638.3999023438</ele>
        <time>2014-03-02T13:02:50.000Z</time>
      </trkpt>
      <trkpt lat="45.34849" lon="6.1926">
        <ele>2638.3999023438</ele>
        <time>2014-03-02T13:02:51.000Z</time>
      </trkpt>
      <trkpt lat="45.34849" lon="6.1926">
        <ele>2638.3999023438</ele>
        <time>2014-03-02T13:02:52.000Z</time>
      </trkpt>
      <trkpt lat="45.34849" lon="6.1926">
        <ele>2638.3999023438</ele>
        <time>2014-03-02T13:02:53.000Z</time>
      </trkpt>
      <trkpt lat="45.34849" lon="6.1926">
        <ele>2638.3999023438</ele>
        <time>2014-03-02T13:02:54.000Z</time>
      </trkpt>
      <trkpt lat="45.34849" lon="6.1926">
        <ele>2638.3999023438</ele>
        <time>2014-03-02T13:02:55.000Z</time>
      </trkpt>
      <trkpt lat="45.34849" lon="6.1926">
        <ele>2638.3999023438</ele>
        <time>2014-03-02T13:02:56.000Z</time>
      </trkpt>
      <trkpt lat="45.34849" lon="6.1926">
        <ele>2638.3999023438</ele>
        <time>2014-03-02T13:02:57.000Z</time>
      </trkpt>
      <trkpt lat="45.34849" lon="6.1926">
        <ele>2638.3999023438</ele>
        <time>2014-03-02T13:02:58.000Z</time>
      </trkpt>
      <trkpt lat="45.34849" lon="6.1926">
        <ele>2638.3999023438</ele>
        <time>2014-03-02T13:02:59.000Z</time>
      </trkpt>
      <trkpt lat="45.34849" lon="6.1926">
        <ele>2638.3999023438</ele>
        <time>2014-03-02T13:03:00.000Z</time>
      </trkpt>
      <trkpt lat="45.34849" lon="6.1926">
        <ele>2638.3999023438</ele>
        <time>2014-03-02T13:03:01.000Z</time>
      </trkpt>
      <trkpt lat="45.34849" lon="6.1926">
        <ele>2638.3999023438</ele>
        <time>2014-03-02T13:03:02.000Z</time>
      </trkpt>
      <trkpt lat="45.34849" lon="6.1926">
        <ele>2638.3999023438</ele>
        <time>2014-03-02T13:03:03.000Z</time>
      </trkpt>
      <trkpt lat="45.34849" lon="6.1926">
        <ele>2638.3999023438</ele>
        <time>2014-03-02T13:03:04.000Z</time>
      </trkpt>
      <trkpt lat="45.34849" lon="6.1926">
        <ele>2638.3999023438</ele>
        <time>2014-03-02T13:03:05.000Z</time>
      </trkpt>
      <trkpt lat="45.34849" lon="6.1926">
        <ele>2638.3999023438</ele>
        <time>2014-03-02T13:03:06.000Z</time>
      </trkpt>
      <trkpt lat="45.34849" lon="6.1926">
        <ele>2638.3999023438</ele>
        <time>2014-03-02T13:03:07.000Z</time>
      </trkpt>
      <trkpt lat="45.34849" lon="6.1926">
        <ele>2638.3999023438</ele>
        <time>2014-03-02T13:03:08.000Z</time>
      </trkpt>
      <trkpt lat="45.34849" lon="6.1926">
        <ele>2638.3999023438</ele>
        <time>2014-03-02T13:03:09.000Z</time>
      </trkpt>
      <trkpt lat="45.34849" lon="6.1926">
        <ele>2638.3999023438</ele>
        <time>2014-03-02T13:03:10.000Z</time>
      </trkpt>
      <trkpt lat="45.34849" lon="6.1926">
        <ele>2638.3999023438</ele>
        <time>2014-03-02T13:03:11.000Z</time>
      </trkpt>
      <trkpt lat="45.34849" lon="6.1926">
        <ele>2638.3999023438</ele>
        <time>2014-03-02T13:03:12.000Z</time>
      </trkpt>
      <trkpt lat="45.34849" lon="6.1926">
        <ele>2638.3999023438</ele>
        <time>2014-03-02T13:03:13.000Z</time>
      </trkpt>
      <trkpt lat="45.34849" lon="6.1926">
        <ele>2638.3999023438</ele>
        <time>2014-03-02T13:03:14.000Z</time>
      </trkpt>
      <trkpt lat="45.34849" lon="6.1926">
        <ele>2638.3999023438</ele>
        <time>2014-03-02T13:03:15.000Z</time>
      </trkpt>
      <trkpt lat="45.34849" lon="6.1926">
        <ele>2638.3999023438</ele>
        <time>2014-03-02T13:03:16.000Z</time>
      </trkpt>
      <trkpt lat="45.34849" lon="6.1926">
        <ele>2638.3999023438</ele>
        <time>2014-03-02T13:03:17.000Z</time>
      </trkpt>
      <trkpt lat="45.34849" lon="6.1926">
        <ele>2638.3999023438</ele>
        <time>2014-03-02T13:03:18.000Z</time>
      </trkpt>
      <trkpt lat="45.34849" lon="6.1926">
        <ele>2638.3999023438</ele>
        <time>2014-03-02T13:03:19.000Z</time>
      </trkpt>
      <trkpt lat="45.34849" lon="6.1926">
        <ele>2638.3999023438</ele>
        <time>2014-03-02T13:03:23.000Z</time>
      </trkpt>
      <trkpt lat="45.34849" lon="6.1926">
        <ele>2638.3999023438</ele>
        <time>2014-03-02T13:03:24.000Z</time>
      </trkpt>
      <trkpt lat="45.34849" lon="6.1926">
        <ele>2638.3999023438</ele>
        <time>2014-03-02T13:03:25.000Z</time>
      </trkpt>
      <trkpt lat="45.34849" lon="6.1926">
        <ele>2638.3999023438</ele>
        <time>2014-03-02T13:03:26.000Z</time>
      </trkpt>
      <trkpt lat="45.34849" lon="6.1926">
        <ele>2638.3999023438</ele>
        <time>2014-03-02T13:03:28.000Z</time>
      </trkpt>
      <trkpt lat="45.34849" lon="6.1926">
        <ele>2638.3999023438</ele>
        <time>2014-03-02T13:03:29.000Z</time>
      </trkpt>
      <trkpt lat="45.34849" lon="6.1926">
        <ele>2638.3999023438</ele>
        <time>2014-03-02T13:03:30.000Z</time>
      </trkpt>
      <trkpt lat="45.34849" lon="6.1926">
        <ele>2638.3999023438</ele>
        <time>2014-03-02T13:03:31.000Z</time>
      </trkpt>
      <trkpt lat="45.34849" lon="6.1926">
        <ele>2638.3999023438</ele>
        <time>2014-03-02T13:03:32.000Z</time>
      </trkpt>
      <trkpt lat="45.34849" lon="6.1926">
        <ele>2638.3999023438</ele>
        <time>2014-03-02T13:03:33.000Z</time>
      </trkpt>
      <trkpt lat="45.34849" lon="6.1926">
        <ele>2638.3999023438</ele>
        <time>2014-03-02T13:03:34.000Z</time>
      </trkpt>
      <trkpt lat="45.34849" lon="6.1926">
        <ele>2638.3999023438</ele>
        <time>2014-03-02T13:03:35.000Z</time>
      </trkpt>
      <trkpt lat="45.34849" lon="6.1926">
        <ele>2638.3999023438</ele>
        <time>2014-03-02T13:03:36.000Z</time>
      </trkpt>
      <trkpt lat="45.34849" lon="6.1926">
        <ele>2638.3999023438</ele>
        <time>2014-03-02T13:03:37.000Z</time>
      </trkpt>
      <trkpt lat="45.34849" lon="6.1926">
        <ele>2638.3999023438</ele>
        <time>2014-03-02T13:03:38.000Z</time>
      </trkpt>
      <trkpt lat="45.34849" lon="6.1926">
        <ele>2638.3999023438</ele>
        <time>2014-03-02T13:03:39.000Z</time>
      </trkpt>
      <trkpt lat="45.34849" lon="6.1926">
        <ele>2638.3999023438</ele>
        <time>2014-03-02T13:03:41.000Z</time>
      </trkpt>
      <trkpt lat="45.34849" lon="6.1926">
        <ele>2638.3999023438</ele>
        <time>2014-03-02T13:03:42.000Z</time>
      </trkpt>
      <trkpt lat="45.34849" lon="6.1926">
        <ele>2638.3999023438</ele>
        <time>2014-03-02T13:03:43.000Z</time>
      </trkpt>
      <trkpt lat="45.34849" lon="6.1926">
        <ele>2638.3999023438</ele>
        <time>2014-03-02T13:03:46.000Z</time>
      </trkpt>
      <trkpt lat="45.34849" lon="6.1926">
        <ele>2638.3999023438</ele>
        <time>2014-03-02T13:03:47.000Z</time>
      </trkpt>
      <trkpt lat="45.34849" lon="6.1926">
        <ele>2638.3999023438</ele>
        <time>2014-03-02T13:03:48.000Z</time>
      </trkpt>
      <trkpt lat="45.34849" lon="6.1926">
        <ele>2638.3999023438</ele>
        <time>2014-03-02T13:03:52.000Z</time>
      </trkpt>
      <trkpt lat="45.34849" lon="6.1926">
        <ele>2638.3999023438</ele>
        <time>2014-03-02T13:03:56.000Z</time>
      </trkpt>
      <trkpt lat="45.34849" lon="6.1926">
        <ele>2638.3999023438</ele>
        <time>2014-03-02T13:03:59.000Z</time>
      </trkpt>
      <trkpt lat="45.34849" lon="6.1926">
        <ele>2638.3999023438</ele>
        <time>2014-03-02T13:04:02.000Z</time>
      </trkpt>
      <trkpt lat="45.34849" lon="6.1926">
        <ele>2638.3999023438</ele>
        <time>2014-03-02T13:04:06.000Z</time>
      </trkpt>
      <trkpt lat="45.34849" lon="6.19259">
        <ele>2638.1999511719</ele>
        <time>2014-03-02T13:04:08.000Z</time>
      </trkpt>
      <trkpt lat="45.34849" lon="6.19259">
        <ele>2638.1999511719</ele>
        <time>2014-03-02T13:04:09.000Z</time>
      </trkpt>
      <trkpt lat="45.34849" lon="6.19259">
        <ele>2638.1999511719</ele>
        <time>2014-03-02T13:04:10.000Z</time>
      </trkpt>
      <trkpt lat="45.34849" lon="6.19259">
        <ele>2638.1999511719</ele>
        <time>2014-03-02T13:04:11.000Z</time>
      </trkpt>
      <trkpt lat="45.34849" lon="6.19259">
        <ele>2638.1999511719</ele>
        <time>2014-03-02T13:04:12.000Z</time>
      </trkpt>
      <trkpt lat="45.34849" lon="6.19259">
        <ele>2638.1999511719</ele>
        <time>2014-03-02T13:04:13.000Z</time>
      </trkpt>
      <trkpt lat="45.34849" lon="6.19259">
        <ele>2638.1999511719</ele>
        <time>2014-03-02T13:04:18.000Z</time>
      </trkpt>
      <trkpt lat="45.34849" lon="6.19259">
        <ele>2638.1999511719</ele>
        <time>2014-03-02T13:04:19.000Z</time>
      </trkpt>
      <trkpt lat="45.34849" lon="6.19259">
        <ele>2638.1999511719</ele>
        <time>2014-03-02T13:04:23.000Z</time>
      </trkpt>
      <trkpt lat="45.34849" lon="6.19259">
        <ele>2638.1999511719</ele>
        <time>2014-03-02T13:04:24.000Z</time>
      </trkpt>
      <trkpt lat="45.34849" lon="6.19259">
        <ele>2638.1999511719</ele>
        <time>2014-03-02T13:04:25.000Z</time>
      </trkpt>
      <trkpt lat="45.34849" lon="6.19259">
        <ele>2638.1999511719</ele>
        <time>2014-03-02T13:04:26.000Z</time>
      </trkpt>
      <trkpt lat="45.34849" lon="6.19259">
        <ele>2638.1999511719</ele>
        <time>2014-03-02T13:04:27.000Z</time>
      </trkpt>
      <trkpt lat="45.34849" lon="6.19259">
        <ele>2638.1999511719</ele>
        <time>2014-03-02T13:04:29.000Z</time>
      </trkpt>
      <trkpt lat="45.34849" lon="6.19259">
        <ele>2638.1999511719</ele>
        <time>2014-03-02T13:04:30.000Z</time>
      </trkpt>
      <trkpt lat="45.34849" lon="6.19259">
        <ele>2638.1999511719</ele>
        <time>2014-03-02T13:04:31.000Z</time>
      </trkpt>
      <trkpt lat="45.34849" lon="6.19259">
        <ele>2638.1999511719</ele>
        <time>2014-03-02T13:04:34.000Z</time>
      </trkpt>
      <trkpt lat="45.34849" lon="6.19259">
        <ele>2638.1999511719</ele>
        <time>2014-03-02T13:04:35.000Z</time>
      </trkpt>
      <trkpt lat="45.34849" lon="6.19259">
        <ele>2638.1999511719</ele>
        <time>2014-03-02T13:04:36.000Z</time>
      </trkpt>
      <trkpt lat="45.34849" lon="6.19259">
        <ele>2638.1999511719</ele>
        <time>2014-03-02T13:04:37.000Z</time>
      </trkpt>
      <trkpt lat="45.34849" lon="6.19259">
        <ele>2638.1999511719</ele>
        <time>2014-03-02T13:04:38.000Z</time>
      </trkpt>
      <trkpt lat="45.34849" lon="6.19259">
        <ele>2638.1999511719</ele>
        <time>2014-03-02T13:04:39.000Z</time>
      </trkpt>
      <trkpt lat="45.34849" lon="6.19259">
        <ele>2638.1999511719</ele>
        <time>2014-03-02T13:04:40.000Z</time>
      </trkpt>
      <trkpt lat="45.34849" lon="6.19259">
        <ele>2638.1999511719</ele>
        <time>2014-03-02T13:04:41.000Z</time>
      </trkpt>
      <trkpt lat="45.34849" lon="6.19259">
        <ele>2638.1999511719</ele>
        <time>2014-03-02T13:04:42.000Z</time>
      </trkpt>
      <trkpt lat="45.34849" lon="6.19259">
        <ele>2638.1999511719</ele>
        <time>2014-03-02T13:04:43.000Z</time>
      </trkpt>
      <trkpt lat="45.34849" lon="6.19259">
        <ele>2638.1999511719</ele>
        <time>2014-03-02T13:04:44.000Z</time>
      </trkpt>
      <trkpt lat="45.34849" lon="6.19259">
        <ele>2638.1999511719</ele>
        <time>2014-03-02T13:04:45.000Z</time>
      </trkpt>
      <trkpt lat="45.34849" lon="6.19259">
        <ele>2638.1999511719</ele>
        <time>2014-03-02T13:04:46.000Z</time>
      </trkpt>
      <trkpt lat="45.34849" lon="6.19259">
        <ele>2638.1999511719</ele>
        <time>2014-03-02T13:04:47.000Z</time>
      </trkpt>
      <trkpt lat="45.34849" lon="6.19258">
        <ele>2638</ele>
        <time>2014-03-02T13:04:48.000Z</time>
      </trkpt>
      <trkpt lat="45.34849" lon="6.19258">
        <ele>2638</ele>
        <time>2014-03-02T13:04:49.000Z</time>
      </trkpt>
      <trkpt lat="45.34849" lon="6.19258">
        <ele>2638</ele>
        <time>2014-03-02T13:04:52.000Z</time>
      </trkpt>
      <trkpt lat="45.34849" lon="6.19258">
        <ele>2638</ele>
        <time>2014-03-02T13:04:53.000Z</time>
      </trkpt>
      <trkpt lat="45.34849" lon="6.19258">
        <ele>2638</ele>
        <time>2014-03-02T13:04:55.000Z</time>
      </trkpt>
      <trkpt lat="45.34849" lon="6.19258">
        <ele>2638</ele>
        <time>2014-03-02T13:04:56.000Z</time>
      </trkpt>
      <trkpt lat="45.34849" lon="6.19258">
        <ele>2638</ele>
        <time>2014-03-02T13:04:57.000Z</time>
      </trkpt>
      <trkpt lat="45.34849" lon="6.19258">
        <ele>2638</ele>
        <time>2014-03-02T13:04:58.000Z</time>
      </trkpt>
      <trkpt lat="45.34849" lon="6.19258">
        <ele>2638</ele>
        <time>2014-03-02T13:04:59.000Z</time>
      </trkpt>
      <trkpt lat="45.34849" lon="6.19258">
        <ele>2638</ele>
        <time>2014-03-02T13:05:00.000Z</time>
      </trkpt>
      <trkpt lat="45.34849" lon="6.19258">
        <ele>2638</ele>
        <time>2014-03-02T13:05:01.000Z</time>
      </trkpt>
      <trkpt lat="45.34849" lon="6.19258">
        <ele>2638</ele>
        <time>2014-03-02T13:05:02.000Z</time>
      </trkpt>
      <trkpt lat="45.34849" lon="6.19258">
        <ele>2638</ele>
        <time>2014-03-02T13:05:03.000Z</time>
      </trkpt>
      <trkpt lat="45.34849" lon="6.19258">
        <ele>2638</ele>
        <time>2014-03-02T13:05:04.000Z</time>
      </trkpt>
      <trkpt lat="45.34849" lon="6.19258">
        <ele>2638</ele>
        <time>2014-03-02T13:05:10.000Z</time>
      </trkpt>
      <trkpt lat="45.34849" lon="6.19258">
        <ele>2638</ele>
        <time>2014-03-02T13:05:12.000Z</time>
      </trkpt>
      <trkpt lat="45.34849" lon="6.19258">
        <ele>2638</ele>
        <time>2014-03-02T13:05:15.000Z</time>
      </trkpt>
      <trkpt lat="45.34849" lon="6.19258">
        <ele>2638</ele>
        <time>2014-03-02T13:05:17.000Z</time>
      </trkpt>
      <trkpt lat="45.34849" lon="6.19258">
        <ele>2638</ele>
        <time>2014-03-02T13:05:18.000Z</time>
      </trkpt>
      <trkpt lat="45.34849" lon="6.19258">
        <ele>2638</ele>
        <time>2014-03-02T13:05:19.000Z</time>
      </trkpt>
      <trkpt lat="45.34849" lon="6.19258">
        <ele>2638</ele>
        <time>2014-03-02T13:05:20.000Z</time>
      </trkpt>
      <trkpt lat="45.34849" lon="6.19258">
        <ele>2638</ele>
        <time>2014-03-02T13:05:21.000Z</time>
      </trkpt>
      <trkpt lat="45.34849" lon="6.19258">
        <ele>2638</ele>
        <time>2014-03-02T13:05:22.000Z</time>
      </trkpt>
      <trkpt lat="45.34849" lon="6.19258">
        <ele>2638</ele>
        <time>2014-03-02T13:05:23.000Z</time>
      </trkpt>
      <trkpt lat="45.34849" lon="6.19258">
        <ele>2638</ele>
        <time>2014-03-02T13:05:24.000Z</time>
      </trkpt>
      <trkpt lat="45.34849" lon="6.19258">
        <ele>2638</ele>
        <time>2014-03-02T13:05:25.000Z</time>
      </trkpt>
      <trkpt lat="45.34849" lon="6.19258">
        <ele>2638</ele>
        <time>2014-03-02T13:05:26.000Z</time>
      </trkpt>
      <trkpt lat="45.34849" lon="6.19258">
        <ele>2638</ele>
        <time>2014-03-02T13:05:27.000Z</time>
      </trkpt>
      <trkpt lat="45.34849" lon="6.19257">
        <ele>2637.6000976562</ele>
        <time>2014-03-02T13:05:28.000Z</time>
      </trkpt>
      <trkpt lat="45.34849" lon="6.19257">
        <ele>2637.6000976562</ele>
        <time>2014-03-02T13:05:29.000Z</time>
      </trkpt>
      <trkpt lat="45.34849" lon="6.19257">
        <ele>2637.6000976562</ele>
        <time>2014-03-02T13:05:31.000Z</time>
      </trkpt>
      <trkpt lat="45.34849" lon="6.19257">
        <ele>2637.6000976562</ele>
        <time>2014-03-02T13:05:34.000Z</time>
      </trkpt>
      <trkpt lat="45.34849" lon="6.19257">
        <ele>2637.6000976562</ele>
        <time>2014-03-02T13:05:35.000Z</time>
      </trkpt>
      <trkpt lat="45.34849" lon="6.19257">
        <ele>2637.6000976562</ele>
        <time>2014-03-02T13:05:37.000Z</time>
      </trkpt>
      <trkpt lat="45.34849" lon="6.19257">
        <ele>2637.6000976562</ele>
        <time>2014-03-02T13:05:38.000Z</time>
      </trkpt>
      <trkpt lat="45.34849" lon="6.19257">
        <ele>2637.6000976562</ele>
        <time>2014-03-02T13:05:39.000Z</time>
      </trkpt>
      <trkpt lat="45.34849" lon="6.19257">
        <ele>2637.6000976562</ele>
        <time>2014-03-02T13:05:40.000Z</time>
      </trkpt>
      <trkpt lat="45.34849" lon="6.19257">
        <ele>2637.6000976562</ele>
        <time>2014-03-02T13:05:41.000Z</time>
      </trkpt>
      <trkpt lat="45.34849" lon="6.19257">
        <ele>2637.6000976562</ele>
        <time>2014-03-02T13:05:42.000Z</time>
      </trkpt>
      <trkpt lat="45.34849" lon="6.19257">
        <ele>2637.6000976562</ele>
        <time>2014-03-02T13:05:43.000Z</time>
      </trkpt>
      <trkpt lat="45.34849" lon="6.19257">
        <ele>2637.6000976562</ele>
        <time>2014-03-02T13:05:44.000Z</time>
      </trkpt>
      <trkpt lat="45.34849" lon="6.19257">
        <ele>2637.6000976562</ele>
        <time>2014-03-02T13:05:52.000Z</time>
      </trkpt>
      <trkpt lat="45.34849" lon="6.19257">
        <ele>2637.6000976562</ele>
        <time>2014-03-02T13:05:53.000Z</time>
      </trkpt>
      <trkpt lat="45.34849" lon="6.19257">
        <ele>2637.6000976562</ele>
        <time>2014-03-02T13:05:54.000Z</time>
      </trkpt>
      <trkpt lat="45.34849" lon="6.19257">
        <ele>2637.6000976562</ele>
        <time>2014-03-02T13:05:55.000Z</time>
      </trkpt>
      <trkpt lat="45.34849" lon="6.19257">
        <ele>2637.6000976562</ele>
        <time>2014-03-02T13:05:56.000Z</time>
      </trkpt>
      <trkpt lat="45.34849" lon="6.19257">
        <ele>2637.6000976562</ele>
        <time>2014-03-02T13:05:57.000Z</time>
      </trkpt>
      <trkpt lat="45.34849" lon="6.19257">
        <ele>2637.6000976562</ele>
        <time>2014-03-02T13:05:58.000Z</time>
      </trkpt>
      <trkpt lat="45.34849" lon="6.19257">
        <ele>2637.6000976562</ele>
        <time>2014-03-02T13:05:59.000Z</time>
      </trkpt>
      <trkpt lat="45.34849" lon="6.19257">
        <ele>2637.6000976562</ele>
        <time>2014-03-02T13:06:00.000Z</time>
      </trkpt>
      <trkpt lat="45.34849" lon="6.19257">
        <ele>2637.6000976562</ele>
        <time>2014-03-02T13:06:01.000Z</time>
      </trkpt>
      <trkpt lat="45.34849" lon="6.19257">
        <ele>2637.6000976562</ele>
        <time>2014-03-02T13:06:02.000Z</time>
      </trkpt>
      <trkpt lat="45.34849" lon="6.19257">
        <ele>2637.6000976562</ele>
        <time>2014-03-02T13:06:03.000Z</time>
      </trkpt>
      <trkpt lat="45.34849" lon="6.19257">
        <ele>2637.6000976562</ele>
        <time>2014-03-02T13:06:04.000Z</time>
      </trkpt>
      <trkpt lat="45.34849" lon="6.19257">
        <ele>2637.6000976562</ele>
        <time>2014-03-02T13:06:05.000Z</time>
      </trkpt>
      <trkpt lat="45.34849" lon="6.19257">
        <ele>2637.6000976562</ele>
        <time>2014-03-02T13:06:06.000Z</time>
      </trkpt>
      <trkpt lat="45.34849" lon="6.19257">
        <ele>2637.6000976562</ele>
        <time>2014-03-02T13:06:07.000Z</time>
      </trkpt>
      <trkpt lat="45.34849" lon="6.19257">
        <ele>2637.6000976562</ele>
        <time>2014-03-02T13:06:08.000Z</time>
      </trkpt>
      <trkpt lat="45.34849" lon="6.19257">
        <ele>2637.6000976562</ele>
        <time>2014-03-02T13:06:09.000Z</time>
      </trkpt>
      <trkpt lat="45.34849" lon="6.19257">
        <ele>2637.6000976562</ele>
        <time>2014-03-02T13:06:11.000Z</time>
      </trkpt>
      <trkpt lat="45.34849" lon="6.19257">
        <ele>2637.6000976562</ele>
        <time>2014-03-02T13:06:13.000Z</time>
      </trkpt>
      <trkpt lat="45.34849" lon="6.19257">
        <ele>2637.6000976562</ele>
        <time>2014-03-02T13:06:14.000Z</time>
      </trkpt>
      <trkpt lat="45.34849" lon="6.19257">
        <ele>2637.6000976562</ele>
        <time>2014-03-02T13:06:15.000Z</time>
      </trkpt>
      <trkpt lat="45.34849" lon="6.19257">
        <ele>2637.6000976562</ele>
        <time>2014-03-02T13:06:16.000Z</time>
      </trkpt>
      <trkpt lat="45.34849" lon="6.19257">
        <ele>2637.6000976562</ele>
        <time>2014-03-02T13:06:17.000Z</time>
      </trkpt>
      <trkpt lat="45.34849" lon="6.19257">
        <ele>2637.6000976562</ele>
        <time>2014-03-02T13:06:22.000Z</time>
      </trkpt>
      <trkpt lat="45.34849" lon="6.19257">
        <ele>2637.6000976562</ele>
        <time>2014-03-02T13:06:25.000Z</time>
      </trkpt>
      <trkpt lat="45.34849" lon="6.19257">
        <ele>2637.6000976562</ele>
        <time>2014-03-02T13:06:27.000Z</time>
      </trkpt>
      <trkpt lat="45.34849" lon="6.19257">
        <ele>2637.6000976562</ele>
        <time>2014-03-02T13:06:28.000Z</time>
      </trkpt>
      <trkpt lat="45.34849" lon="6.19257">
        <ele>2637.6000976562</ele>
        <time>2014-03-02T13:06:31.000Z</time>
      </trkpt>
      <trkpt lat="45.34849" lon="6.19257">
        <ele>2637.6000976562</ele>
        <time>2014-03-02T13:06:32.000Z</time>
      </trkpt>
      <trkpt lat="45.34849" lon="6.19257">
        <ele>2637.6000976562</ele>
        <time>2014-03-02T13:06:33.000Z</time>
      </trkpt>
      <trkpt lat="45.34849" lon="6.19257">
        <ele>2637.6000976562</ele>
        <time>2014-03-02T13:06:34.000Z</time>
      </trkpt>
      <trkpt lat="45.34849" lon="6.19257">
        <ele>2637.6000976562</ele>
        <time>2014-03-02T13:06:35.000Z</time>
      </trkpt>
      <trkpt lat="45.34849" lon="6.19257">
        <ele>2637.6000976562</ele>
        <time>2014-03-02T13:06:36.000Z</time>
      </trkpt>
      <trkpt lat="45.34849" lon="6.19257">
        <ele>2637.6000976562</ele>
        <time>2014-03-02T13:06:37.000Z</time>
      </trkpt>
      <trkpt lat="45.34849" lon="6.19257">
        <ele>2637.6000976562</ele>
        <time>2014-03-02T13:06:38.000Z</time>
      </trkpt>
      <trkpt lat="45.34849" lon="6.19257">
        <ele>2637.6000976562</ele>
        <time>2014-03-02T13:06:39.000Z</time>
      </trkpt>
      <trkpt lat="45.34849" lon="6.19257">
        <ele>2637.6000976562</ele>
        <time>2014-03-02T13:06:40.000Z</time>
      </trkpt>
      <trkpt lat="45.34849" lon="6.19257">
        <ele>2637.6000976562</ele>
        <time>2014-03-02T13:06:41.000Z</time>
      </trkpt>
      <trkpt lat="45.34848" lon="6.19255">
        <ele>2637</ele>
        <time>2014-03-02T13:06:42.000Z</time>
      </trkpt>
      <trkpt lat="45.34847" lon="6.19254">
        <ele>2636.3999023438</ele>
        <time>2014-03-02T13:06:43.000Z</time>
      </trkpt>
      <trkpt lat="45.34846" lon="6.19253">
        <ele>2636.1999511719</ele>
        <time>2014-03-02T13:06:44.000Z</time>
      </trkpt>
      <trkpt lat="45.34846" lon="6.19252">
        <ele>2635.8000488281</ele>
        <time>2014-03-02T13:06:45.000Z</time>
      </trkpt>
      <trkpt lat="45.34847" lon="6.19251">
        <ele>2635.3999023438</ele>
        <time>2014-03-02T13:06:46.000Z</time>
      </trkpt>
      <trkpt lat="45.34846" lon="6.19249">
        <ele>2635</ele>
        <time>2014-03-02T13:06:47.000Z</time>
      </trkpt>
      <trkpt lat="45.34845" lon="6.19249">
        <ele>2634.8000488281</ele>
        <time>2014-03-02T13:06:48.000Z</time>
      </trkpt>
      <trkpt lat="45.34844" lon="6.19249">
        <ele>2634.8000488281</ele>
        <time>2014-03-02T13:06:49.000Z</time>
      </trkpt>
      <trkpt lat="45.34844" lon="6.19249">
        <ele>2634.8000488281</ele>
        <time>2014-03-02T13:06:50.000Z</time>
      </trkpt>
      <trkpt lat="45.34844" lon="6.19249">
        <ele>2634.8000488281</ele>
        <time>2014-03-02T13:06:51.000Z</time>
      </trkpt>
      <trkpt lat="45.34844" lon="6.19249">
        <ele>2634.8000488281</ele>
        <time>2014-03-02T13:06:52.000Z</time>
      </trkpt>
      <trkpt lat="45.34844" lon="6.19249">
        <ele>2634.8000488281</ele>
        <time>2014-03-02T13:06:53.000Z</time>
      </trkpt>
      <trkpt lat="45.34844" lon="6.19249">
        <ele>2634.8000488281</ele>
        <time>2014-03-02T13:06:54.000Z</time>
      </trkpt>
      <trkpt lat="45.34844" lon="6.19249">
        <ele>2634.8000488281</ele>
        <time>2014-03-02T13:06:55.000Z</time>
      </trkpt>
      <trkpt lat="45.34844" lon="6.19249">
        <ele>2634.8000488281</ele>
        <time>2014-03-02T13:06:56.000Z</time>
      </trkpt>
      <trkpt lat="45.34844" lon="6.19249">
        <ele>2634.8000488281</ele>
        <time>2014-03-02T13:06:57.000Z</time>
      </trkpt>
      <trkpt lat="45.34844" lon="6.19249">
        <ele>2634.8000488281</ele>
        <time>2014-03-02T13:06:58.000Z</time>
      </trkpt>
      <trkpt lat="45.34844" lon="6.19249">
        <ele>2634.8000488281</ele>
        <time>2014-03-02T13:07:00.000Z</time>
      </trkpt>
      <trkpt lat="45.34844" lon="6.19249">
        <ele>2634.8000488281</ele>
        <time>2014-03-02T13:07:01.000Z</time>
      </trkpt>
      <trkpt lat="45.34844" lon="6.19249">
        <ele>2634.8000488281</ele>
        <time>2014-03-02T13:07:02.000Z</time>
      </trkpt>
      <trkpt lat="45.34844" lon="6.19249">
        <ele>2634.8000488281</ele>
        <time>2014-03-02T13:07:03.000Z</time>
      </trkpt>
      <trkpt lat="45.34844" lon="6.19249">
        <ele>2634.8000488281</ele>
        <time>2014-03-02T13:07:04.000Z</time>
      </trkpt>
      <trkpt lat="45.34844" lon="6.19249">
        <ele>2634.8000488281</ele>
        <time>2014-03-02T13:07:05.000Z</time>
      </trkpt>
      <trkpt lat="45.34844" lon="6.19249">
        <ele>2634.8000488281</ele>
        <time>2014-03-02T13:07:06.000Z</time>
      </trkpt>
      <trkpt lat="45.34844" lon="6.19249">
        <ele>2634.8000488281</ele>
        <time>2014-03-02T13:07:07.000Z</time>
      </trkpt>
      <trkpt lat="45.34844" lon="6.19249">
        <ele>2634.8000488281</ele>
        <time>2014-03-02T13:07:08.000Z</time>
      </trkpt>
      <trkpt lat="45.34844" lon="6.19248">
        <ele>2634.6000976562</ele>
        <time>2014-03-02T13:07:09.000Z</time>
      </trkpt>
      <trkpt lat="45.34844" lon="6.19248">
        <ele>2634.6000976562</ele>
        <time>2014-03-02T13:07:10.000Z</time>
      </trkpt>
      <trkpt lat="45.34844" lon="6.19247">
        <ele>2634.3999023438</ele>
        <time>2014-03-02T13:07:11.000Z</time>
      </trkpt>
      <trkpt lat="45.34844" lon="6.19247">
        <ele>2634.3999023438</ele>
        <time>2014-03-02T13:07:12.000Z</time>
      </trkpt>
      <trkpt lat="45.34844" lon="6.19247">
        <ele>2634.3999023438</ele>
        <time>2014-03-02T13:07:13.000Z</time>
      </trkpt>
      <trkpt lat="45.34844" lon="6.19247">
        <ele>2634.3999023438</ele>
        <time>2014-03-02T13:07:14.000Z</time>
      </trkpt>
      <trkpt lat="45.34844" lon="6.19247">
        <ele>2634.3999023438</ele>
        <time>2014-03-02T13:07:15.000Z</time>
      </trkpt>
      <trkpt lat="45.34844" lon="6.19247">
        <ele>2634.3999023438</ele>
        <time>2014-03-02T13:07:16.000Z</time>
      </trkpt>
      <trkpt lat="45.34844" lon="6.19247">
        <ele>2634.3999023438</ele>
        <time>2014-03-02T13:07:17.000Z</time>
      </trkpt>
      <trkpt lat="45.34844" lon="6.19247">
        <ele>2634.3999023438</ele>
        <time>2014-03-02T13:07:18.000Z</time>
      </trkpt>
      <trkpt lat="45.34844" lon="6.19247">
        <ele>2634.3999023438</ele>
        <time>2014-03-02T13:07:19.000Z</time>
      </trkpt>
      <trkpt lat="45.34844" lon="6.19247">
        <ele>2634.3999023438</ele>
        <time>2014-03-02T13:07:20.000Z</time>
      </trkpt>
      <trkpt lat="45.34844" lon="6.19247">
        <ele>2634.3999023438</ele>
        <time>2014-03-02T13:07:21.000Z</time>
      </trkpt>
      <trkpt lat="45.34844" lon="6.19247">
        <ele>2634.3999023438</ele>
        <time>2014-03-02T13:07:22.000Z</time>
      </trkpt>
      <trkpt lat="45.34844" lon="6.19247">
        <ele>2634.3999023438</ele>
        <time>2014-03-02T13:07:25.000Z</time>
      </trkpt>
      <trkpt lat="45.34844" lon="6.19247">
        <ele>2634.3999023438</ele>
        <time>2014-03-02T13:07:26.000Z</time>
      </trkpt>
      <trkpt lat="45.34844" lon="6.19247">
        <ele>2634.3999023438</ele>
        <time>2014-03-02T13:07:27.000Z</time>
      </trkpt>
      <trkpt lat="45.34844" lon="6.19247">
        <ele>2634.3999023438</ele>
        <time>2014-03-02T13:07:28.000Z</time>
      </trkpt>
      <trkpt lat="45.34844" lon="6.19247">
        <ele>2634.3999023438</ele>
        <time>2014-03-02T13:07:31.000Z</time>
      </trkpt>
      <trkpt lat="45.34844" lon="6.19247">
        <ele>2634.3999023438</ele>
        <time>2014-03-02T13:07:32.000Z</time>
      </trkpt>
      <trkpt lat="45.34844" lon="6.19247">
        <ele>2634.3999023438</ele>
        <time>2014-03-02T13:07:33.000Z</time>
      </trkpt>
      <trkpt lat="45.34844" lon="6.19247">
        <ele>2634.3999023438</ele>
        <time>2014-03-02T13:07:34.000Z</time>
      </trkpt>
      <trkpt lat="45.34844" lon="6.19247">
        <ele>2634.3999023438</ele>
        <time>2014-03-02T13:07:35.000Z</time>
      </trkpt>
      <trkpt lat="45.34844" lon="6.19247">
        <ele>2634.3999023438</ele>
        <time>2014-03-02T13:07:36.000Z</time>
      </trkpt>
      <trkpt lat="45.34844" lon="6.19247">
        <ele>2634.3999023438</ele>
        <time>2014-03-02T13:07:37.000Z</time>
      </trkpt>
      <trkpt lat="45.34844" lon="6.19247">
        <ele>2634.3999023438</ele>
        <time>2014-03-02T13:07:38.000Z</time>
      </trkpt>
      <trkpt lat="45.34844" lon="6.19247">
        <ele>2634.3999023438</ele>
        <time>2014-03-02T13:07:39.000Z</time>
      </trkpt>
      <trkpt lat="45.34844" lon="6.19247">
        <ele>2634.3999023438</ele>
        <time>2014-03-02T13:07:40.000Z</time>
      </trkpt>
      <trkpt lat="45.34844" lon="6.19247">
        <ele>2634.3999023438</ele>
        <time>2014-03-02T13:07:41.000Z</time>
      </trkpt>
      <trkpt lat="45.34844" lon="6.19247">
        <ele>2634.3999023438</ele>
        <time>2014-03-02T13:07:42.000Z</time>
      </trkpt>
      <trkpt lat="45.34844" lon="6.19247">
        <ele>2634.3999023438</ele>
        <time>2014-03-02T13:07:43.000Z</time>
      </trkpt>
      <trkpt lat="45.34844" lon="6.19247">
        <ele>2634.3999023438</ele>
        <time>2014-03-02T13:07:44.000Z</time>
      </trkpt>
      <trkpt lat="45.34844" lon="6.19247">
        <ele>2634.3999023438</ele>
        <time>2014-03-02T13:07:45.000Z</time>
      </trkpt>
      <trkpt lat="45.34844" lon="6.19247">
        <ele>2634.3999023438</ele>
        <time>2014-03-02T13:07:46.000Z</time>
      </trkpt>
      <trkpt lat="45.34844" lon="6.19247">
        <ele>2634.3999023438</ele>
        <time>2014-03-02T13:07:47.000Z</time>
      </trkpt>
      <trkpt lat="45.34844" lon="6.19247">
        <ele>2634.3999023438</ele>
        <time>2014-03-02T13:07:48.000Z</time>
      </trkpt>
      <trkpt lat="45.34844" lon="6.19247">
        <ele>2634.3999023438</ele>
        <time>2014-03-02T13:07:49.000Z</time>
      </trkpt>
      <trkpt lat="45.34844" lon="6.19247">
        <ele>2634.3999023438</ele>
        <time>2014-03-02T13:07:50.000Z</time>
      </trkpt>
      <trkpt lat="45.34844" lon="6.19247">
        <ele>2634.3999023438</ele>
        <time>2014-03-02T13:07:51.000Z</time>
      </trkpt>
      <trkpt lat="45.34844" lon="6.19247">
        <ele>2634.3999023438</ele>
        <time>2014-03-02T13:07:52.000Z</time>
      </trkpt>
      <trkpt lat="45.34844" lon="6.19247">
        <ele>2634.3999023438</ele>
        <time>2014-03-02T13:07:53.000Z</time>
      </trkpt>
      <trkpt lat="45.34844" lon="6.19247">
        <ele>2634.3999023438</ele>
        <time>2014-03-02T13:07:54.000Z</time>
      </trkpt>
      <trkpt lat="45.34844" lon="6.19247">
        <ele>2634.3999023438</ele>
        <time>2014-03-02T13:07:55.000Z</time>
      </trkpt>
      <trkpt lat="45.34844" lon="6.19247">
        <ele>2634.3999023438</ele>
        <time>2014-03-02T13:07:56.000Z</time>
      </trkpt>
      <trkpt lat="45.34844" lon="6.19247">
        <ele>2634.3999023438</ele>
        <time>2014-03-02T13:07:57.000Z</time>
      </trkpt>
      <trkpt lat="45.34844" lon="6.19247">
        <ele>2634.3999023438</ele>
        <time>2014-03-02T13:07:58.000Z</time>
      </trkpt>
      <trkpt lat="45.34844" lon="6.19247">
        <ele>2634.3999023438</ele>
        <time>2014-03-02T13:07:59.000Z</time>
      </trkpt>
      <trkpt lat="45.34844" lon="6.19247">
        <ele>2634.3999023438</ele>
        <time>2014-03-02T13:08:01.000Z</time>
      </trkpt>
      <trkpt lat="45.34844" lon="6.19247">
        <ele>2634.3999023438</ele>
        <time>2014-03-02T13:08:02.000Z</time>
      </trkpt>
      <trkpt lat="45.34844" lon="6.19247">
        <ele>2634.3999023438</ele>
        <time>2014-03-02T13:08:03.000Z</time>
      </trkpt>
      <trkpt lat="45.34844" lon="6.19247">
        <ele>2634.3999023438</ele>
        <time>2014-03-02T13:08:04.000Z</time>
      </trkpt>
      <trkpt lat="45.34844" lon="6.19247">
        <ele>2634.3999023438</ele>
        <time>2014-03-02T13:08:05.000Z</time>
      </trkpt>
      <trkpt lat="45.34844" lon="6.19247">
        <ele>2634.3999023438</ele>
        <time>2014-03-02T13:08:06.000Z</time>
      </trkpt>
      <trkpt lat="45.34844" lon="6.19247">
        <ele>2634.3999023438</ele>
        <time>2014-03-02T13:08:07.000Z</time>
      </trkpt>
      <trkpt lat="45.34844" lon="6.19247">
        <ele>2634.3999023438</ele>
        <time>2014-03-02T13:08:08.000Z</time>
      </trkpt>
      <trkpt lat="45.34844" lon="6.19247">
        <ele>2634.3999023438</ele>
        <time>2014-03-02T13:08:09.000Z</time>
      </trkpt>
      <trkpt lat="45.34844" lon="6.19247">
        <ele>2634.3999023438</ele>
        <time>2014-03-02T13:08:10.000Z</time>
      </trkpt>
      <trkpt lat="45.34844" lon="6.19247">
        <ele>2634.3999023438</ele>
        <time>2014-03-02T13:08:11.000Z</time>
      </trkpt>
      <trkpt lat="45.34844" lon="6.19247">
        <ele>2634.3999023438</ele>
        <time>2014-03-02T13:08:12.000Z</time>
      </trkpt>
      <trkpt lat="45.34844" lon="6.19247">
        <ele>2634.3999023438</ele>
        <time>2014-03-02T13:08:13.000Z</time>
      </trkpt>
      <trkpt lat="45.34844" lon="6.19247">
        <ele>2634.3999023438</ele>
        <time>2014-03-02T13:08:16.000Z</time>
      </trkpt>
      <trkpt lat="45.34844" lon="6.19246">
        <ele>2633.8000488281</ele>
        <time>2014-03-02T13:08:17.000Z</time>
      </trkpt>
      <trkpt lat="45.34844" lon="6.19246">
        <ele>2633.8000488281</ele>
        <time>2014-03-02T13:08:18.000Z</time>
      </trkpt>
      <trkpt lat="45.34844" lon="6.19246">
        <ele>2633.8000488281</ele>
        <time>2014-03-02T13:08:19.000Z</time>
      </trkpt>
      <trkpt lat="45.34844" lon="6.19246">
        <ele>2633.8000488281</ele>
        <time>2014-03-02T13:08:20.000Z</time>
      </trkpt>
      <trkpt lat="45.34844" lon="6.19246">
        <ele>2633.8000488281</ele>
        <time>2014-03-02T13:08:21.000Z</time>
      </trkpt>
      <trkpt lat="45.34844" lon="6.19246">
        <ele>2633.8000488281</ele>
        <time>2014-03-02T13:08:22.000Z</time>
      </trkpt>
      <trkpt lat="45.34844" lon="6.19246">
        <ele>2633.8000488281</ele>
        <time>2014-03-02T13:08:23.000Z</time>
      </trkpt>
      <trkpt lat="45.34844" lon="6.19246">
        <ele>2633.8000488281</ele>
        <time>2014-03-02T13:08:24.000Z</time>
      </trkpt>
      <trkpt lat="45.34844" lon="6.19246">
        <ele>2633.8000488281</ele>
        <time>2014-03-02T13:08:25.000Z</time>
      </trkpt>
      <trkpt lat="45.34844" lon="6.19246">
        <ele>2633.8000488281</ele>
        <time>2014-03-02T13:08:26.000Z</time>
      </trkpt>
      <trkpt lat="45.34844" lon="6.19246">
        <ele>2633.8000488281</ele>
        <time>2014-03-02T13:08:27.000Z</time>
      </trkpt>
      <trkpt lat="45.34844" lon="6.19246">
        <ele>2633.8000488281</ele>
        <time>2014-03-02T13:08:28.000Z</time>
      </trkpt>
      <trkpt lat="45.34844" lon="6.19246">
        <ele>2633.8000488281</ele>
        <time>2014-03-02T13:08:29.000Z</time>
      </trkpt>
      <trkpt lat="45.34844" lon="6.19246">
        <ele>2633.8000488281</ele>
        <time>2014-03-02T13:08:30.000Z</time>
      </trkpt>
      <trkpt lat="45.34844" lon="6.19246">
        <ele>2633.8000488281</ele>
        <time>2014-03-02T13:08:33.000Z</time>
      </trkpt>
      <trkpt lat="45.34844" lon="6.19246">
        <ele>2633.8000488281</ele>
        <time>2014-03-02T13:08:34.000Z</time>
      </trkpt>
      <trkpt lat="45.34844" lon="6.19246">
        <ele>2633.8000488281</ele>
        <time>2014-03-02T13:08:35.000Z</time>
      </trkpt>
      <trkpt lat="45.34844" lon="6.19246">
        <ele>2633.8000488281</ele>
        <time>2014-03-02T13:08:37.000Z</time>
      </trkpt>
      <trkpt lat="45.34844" lon="6.19246">
        <ele>2633.8000488281</ele>
        <time>2014-03-02T13:08:38.000Z</time>
      </trkpt>
      <trkpt lat="45.34844" lon="6.19246">
        <ele>2633.8000488281</ele>
        <time>2014-03-02T13:08:39.000Z</time>
      </trkpt>
      <trkpt lat="45.34844" lon="6.19246">
        <ele>2633.8000488281</ele>
        <time>2014-03-02T13:08:40.000Z</time>
      </trkpt>
      <trkpt lat="45.34844" lon="6.19246">
        <ele>2633.8000488281</ele>
        <time>2014-03-02T13:08:41.000Z</time>
      </trkpt>
      <trkpt lat="45.34844" lon="6.19246">
        <ele>2633.8000488281</ele>
        <time>2014-03-02T13:08:42.000Z</time>
      </trkpt>
      <trkpt lat="45.34844" lon="6.19246">
        <ele>2633.8000488281</ele>
        <time>2014-03-02T13:08:43.000Z</time>
      </trkpt>
      <trkpt lat="45.34844" lon="6.19246">
        <ele>2633.8000488281</ele>
        <time>2014-03-02T13:08:44.000Z</time>
      </trkpt>
      <trkpt lat="45.34844" lon="6.19246">
        <ele>2634</ele>
        <time>2014-03-02T13:08:45.000Z</time>
      </trkpt>
      <trkpt lat="45.34844" lon="6.19246">
        <ele>2634</ele>
        <time>2014-03-02T13:08:46.000Z</time>
      </trkpt>
      <trkpt lat="45.34844" lon="6.19246">
        <ele>2634</ele>
        <time>2014-03-02T13:08:47.000Z</time>
      </trkpt>
      <trkpt lat="45.34844" lon="6.19246">
        <ele>2633.8000488281</ele>
        <time>2014-03-02T13:08:48.000Z</time>
      </trkpt>
      <trkpt lat="45.34844" lon="6.19246">
        <ele>2633.8000488281</ele>
        <time>2014-03-02T13:08:49.000Z</time>
      </trkpt>
      <trkpt lat="45.34844" lon="6.19246">
        <ele>2633.8000488281</ele>
        <time>2014-03-02T13:08:50.000Z</time>
      </trkpt>
      <trkpt lat="45.34843" lon="6.19246">
        <ele>2633.8000488281</ele>
        <time>2014-03-02T13:08:51.000Z</time>
      </trkpt>
      <trkpt lat="45.34842" lon="6.19244">
        <ele>2633.1999511719</ele>
        <time>2014-03-02T13:08:53.000Z</time>
      </trkpt>
      <trkpt lat="45.34842" lon="6.19244">
        <ele>2633.1999511719</ele>
        <time>2014-03-02T13:08:54.000Z</time>
      </trkpt>
      <trkpt lat="45.34842" lon="6.19244">
        <ele>2633.1999511719</ele>
        <time>2014-03-02T13:08:55.000Z</time>
      </trkpt>
      <trkpt lat="45.34842" lon="6.19244">
        <ele>2633.1999511719</ele>
        <time>2014-03-02T13:08:56.000Z</time>
      </trkpt>
      <trkpt lat="45.34842" lon="6.19244">
        <ele>2633.1999511719</ele>
        <time>2014-03-02T13:08:57.000Z</time>
      </trkpt>
      <trkpt lat="45.34842" lon="6.19244">
        <ele>2633.1999511719</ele>
        <time>2014-03-02T13:08:58.000Z</time>
      </trkpt>
      <trkpt lat="45.34842" lon="6.19244">
        <ele>2633.1999511719</ele>
        <time>2014-03-02T13:08:59.000Z</time>
      </trkpt>
      <trkpt lat="45.34842" lon="6.19244">
        <ele>2633.1999511719</ele>
        <time>2014-03-02T13:09:00.000Z</time>
      </trkpt>
      <trkpt lat="45.34842" lon="6.19244">
        <ele>2633.1999511719</ele>
        <time>2014-03-02T13:09:01.000Z</time>
      </trkpt>
      <trkpt lat="45.34842" lon="6.19244">
        <ele>2633.1999511719</ele>
        <time>2014-03-02T13:09:02.000Z</time>
      </trkpt>
      <trkpt lat="45.34842" lon="6.19244">
        <ele>2633.1999511719</ele>
        <time>2014-03-02T13:09:03.000Z</time>
      </trkpt>
      <trkpt lat="45.34842" lon="6.19244">
        <ele>2633.1999511719</ele>
        <time>2014-03-02T13:09:04.000Z</time>
      </trkpt>
      <trkpt lat="45.34842" lon="6.19244">
        <ele>2633.1999511719</ele>
        <time>2014-03-02T13:09:05.000Z</time>
      </trkpt>
      <trkpt lat="45.34842" lon="6.19244">
        <ele>2633.1999511719</ele>
        <time>2014-03-02T13:09:06.000Z</time>
      </trkpt>
      <trkpt lat="45.34842" lon="6.19244">
        <ele>2633.1999511719</ele>
        <time>2014-03-02T13:09:07.000Z</time>
      </trkpt>
      <trkpt lat="45.34842" lon="6.19244">
        <ele>2633.1999511719</ele>
        <time>2014-03-02T13:09:11.000Z</time>
      </trkpt>
      <trkpt lat="45.34842" lon="6.19244">
        <ele>2633.1999511719</ele>
        <time>2014-03-02T13:09:12.000Z</time>
      </trkpt>
      <trkpt lat="45.34842" lon="6.19244">
        <ele>2633.1999511719</ele>
        <time>2014-03-02T13:09:13.000Z</time>
      </trkpt>
      <trkpt lat="45.34842" lon="6.19244">
        <ele>2633.1999511719</ele>
        <time>2014-03-02T13:09:14.000Z</time>
      </trkpt>
      <trkpt lat="45.34842" lon="6.19244">
        <ele>2633.1999511719</ele>
        <time>2014-03-02T13:09:16.000Z</time>
      </trkpt>
      <trkpt lat="45.34842" lon="6.19244">
        <ele>2633.1999511719</ele>
        <time>2014-03-02T13:09:17.000Z</time>
      </trkpt>
      <trkpt lat="45.34842" lon="6.19244">
        <ele>2633.1999511719</ele>
        <time>2014-03-02T13:09:18.000Z</time>
      </trkpt>
      <trkpt lat="45.34842" lon="6.19244">
        <ele>2633.1999511719</ele>
        <time>2014-03-02T13:09:19.000Z</time>
      </trkpt>
      <trkpt lat="45.34842" lon="6.19244">
        <ele>2633.1999511719</ele>
        <time>2014-03-02T13:09:20.000Z</time>
      </trkpt>
      <trkpt lat="45.34842" lon="6.19244">
        <ele>2633.1999511719</ele>
        <time>2014-03-02T13:09:21.000Z</time>
      </trkpt>
      <trkpt lat="45.34842" lon="6.19244">
        <ele>2633.1999511719</ele>
        <time>2014-03-02T13:09:22.000Z</time>
      </trkpt>
      <trkpt lat="45.34842" lon="6.19244">
        <ele>2633.1999511719</ele>
        <time>2014-03-02T13:09:23.000Z</time>
      </trkpt>
      <trkpt lat="45.34842" lon="6.19244">
        <ele>2633.1999511719</ele>
        <time>2014-03-02T13:09:24.000Z</time>
      </trkpt>
      <trkpt lat="45.34842" lon="6.19244">
        <ele>2633.1999511719</ele>
        <time>2014-03-02T13:09:25.000Z</time>
      </trkpt>
      <trkpt lat="45.34842" lon="6.19244">
        <ele>2633.1999511719</ele>
        <time>2014-03-02T13:09:26.000Z</time>
      </trkpt>
      <trkpt lat="45.34842" lon="6.19244">
        <ele>2633.1999511719</ele>
        <time>2014-03-02T13:09:27.000Z</time>
      </trkpt>
      <trkpt lat="45.34842" lon="6.19244">
        <ele>2633.1999511719</ele>
        <time>2014-03-02T13:09:28.000Z</time>
      </trkpt>
      <trkpt lat="45.34842" lon="6.19244">
        <ele>2633.1999511719</ele>
        <time>2014-03-02T13:09:29.000Z</time>
      </trkpt>
      <trkpt lat="45.34842" lon="6.19244">
        <ele>2633.1999511719</ele>
        <time>2014-03-02T13:09:30.000Z</time>
      </trkpt>
      <trkpt lat="45.34842" lon="6.19244">
        <ele>2633.1999511719</ele>
        <time>2014-03-02T13:09:31.000Z</time>
      </trkpt>
      <trkpt lat="45.34842" lon="6.19244">
        <ele>2633.1999511719</ele>
        <time>2014-03-02T13:09:32.000Z</time>
      </trkpt>
      <trkpt lat="45.34842" lon="6.19245">
        <ele>2633.6000976562</ele>
        <time>2014-03-02T13:09:34.000Z</time>
      </trkpt>
      <trkpt lat="45.34842" lon="6.19245">
        <ele>2633.6000976562</ele>
        <time>2014-03-02T13:09:35.000Z</time>
      </trkpt>
      <trkpt lat="45.34842" lon="6.19245">
        <ele>2633.6000976562</ele>
        <time>2014-03-02T13:09:36.000Z</time>
      </trkpt>
      <trkpt lat="45.34842" lon="6.19245">
        <ele>2633.6000976562</ele>
        <time>2014-03-02T13:09:37.000Z</time>
      </trkpt>
      <trkpt lat="45.34842" lon="6.19245">
        <ele>2633.6000976562</ele>
        <time>2014-03-02T13:09:38.000Z</time>
      </trkpt>
      <trkpt lat="45.34842" lon="6.19245">
        <ele>2633.6000976562</ele>
        <time>2014-03-02T13:09:39.000Z</time>
      </trkpt>
      <trkpt lat="45.34842" lon="6.19245">
        <ele>2633.6000976562</ele>
        <time>2014-03-02T13:09:40.000Z</time>
      </trkpt>
      <trkpt lat="45.34842" lon="6.19245">
        <ele>2633.6000976562</ele>
        <time>2014-03-02T13:09:41.000Z</time>
      </trkpt>
      <trkpt lat="45.34842" lon="6.19245">
        <ele>2633.6000976562</ele>
        <time>2014-03-02T13:09:43.000Z</time>
      </trkpt>
      <trkpt lat="45.34842" lon="6.19245">
        <ele>2633.6000976562</ele>
        <time>2014-03-02T13:09:44.000Z</time>
      </trkpt>
      <trkpt lat="45.34842" lon="6.19245">
        <ele>2633.6000976562</ele>
        <time>2014-03-02T13:09:45.000Z</time>
      </trkpt>
      <trkpt lat="45.34842" lon="6.19245">
        <ele>2633.6000976562</ele>
        <time>2014-03-02T13:09:46.000Z</time>
      </trkpt>
      <trkpt lat="45.34842" lon="6.19245">
        <ele>2633.6000976562</ele>
        <time>2014-03-02T13:09:47.000Z</time>
      </trkpt>
      <trkpt lat="45.34842" lon="6.19245">
        <ele>2633.6000976562</ele>
        <time>2014-03-02T13:09:48.000Z</time>
      </trkpt>
      <trkpt lat="45.34842" lon="6.19245">
        <ele>2633.6000976562</ele>
        <time>2014-03-02T13:09:49.000Z</time>
      </trkpt>
      <trkpt lat="45.34842" lon="6.19245">
        <ele>2633.6000976562</ele>
        <time>2014-03-02T13:09:50.000Z</time>
      </trkpt>
      <trkpt lat="45.34842" lon="6.19245">
        <ele>2633.6000976562</ele>
        <time>2014-03-02T13:09:51.000Z</time>
      </trkpt>
      <trkpt lat="45.34842" lon="6.19245">
        <ele>2633.6000976562</ele>
        <time>2014-03-02T13:09:52.000Z</time>
      </trkpt>
      <trkpt lat="45.34842" lon="6.19245">
        <ele>2633.6000976562</ele>
        <time>2014-03-02T13:09:53.000Z</time>
      </trkpt>
      <trkpt lat="45.34842" lon="6.19245">
        <ele>2633.6000976562</ele>
        <time>2014-03-02T13:09:54.000Z</time>
      </trkpt>
      <trkpt lat="45.34842" lon="6.19245">
        <ele>2633.6000976562</ele>
        <time>2014-03-02T13:09:55.000Z</time>
      </trkpt>
      <trkpt lat="45.34842" lon="6.19245">
        <ele>2633.6000976562</ele>
        <time>2014-03-02T13:09:56.000Z</time>
      </trkpt>
      <trkpt lat="45.34842" lon="6.19245">
        <ele>2633.6000976562</ele>
        <time>2014-03-02T13:09:57.000Z</time>
      </trkpt>
      <trkpt lat="45.34842" lon="6.19245">
        <ele>2633.6000976562</ele>
        <time>2014-03-02T13:09:59.000Z</time>
      </trkpt>
      <trkpt lat="45.34842" lon="6.19245">
        <ele>2633.6000976562</ele>
        <time>2014-03-02T13:10:00.000Z</time>
      </trkpt>
      <trkpt lat="45.34842" lon="6.19245">
        <ele>2633.6000976562</ele>
        <time>2014-03-02T13:10:04.000Z</time>
      </trkpt>
      <trkpt lat="45.34842" lon="6.19245">
        <ele>2633.6000976562</ele>
        <time>2014-03-02T13:10:05.000Z</time>
      </trkpt>
      <trkpt lat="45.34842" lon="6.19245">
        <ele>2633.6000976562</ele>
        <time>2014-03-02T13:10:06.000Z</time>
      </trkpt>
      <trkpt lat="45.34842" lon="6.19245">
        <ele>2633.6000976562</ele>
        <time>2014-03-02T13:10:07.000Z</time>
      </trkpt>
      <trkpt lat="45.34842" lon="6.19245">
        <ele>2633.6000976562</ele>
        <time>2014-03-02T13:10:08.000Z</time>
      </trkpt>
      <trkpt lat="45.34842" lon="6.19245">
        <ele>2633.6000976562</ele>
        <time>2014-03-02T13:10:09.000Z</time>
      </trkpt>
      <trkpt lat="45.34842" lon="6.19245">
        <ele>2633.6000976562</ele>
        <time>2014-03-02T13:10:10.000Z</time>
      </trkpt>
      <trkpt lat="45.34842" lon="6.19245">
        <ele>2633.6000976562</ele>
        <time>2014-03-02T13:10:12.000Z</time>
      </trkpt>
      <trkpt lat="45.34842" lon="6.19245">
        <ele>2633.6000976562</ele>
        <time>2014-03-02T13:10:13.000Z</time>
      </trkpt>
      <trkpt lat="45.34842" lon="6.19245">
        <ele>2633.6000976562</ele>
        <time>2014-03-02T13:10:14.000Z</time>
      </trkpt>
      <trkpt lat="45.34842" lon="6.19245">
        <ele>2633.6000976562</ele>
        <time>2014-03-02T13:10:15.000Z</time>
      </trkpt>
      <trkpt lat="45.34842" lon="6.19245">
        <ele>2633.6000976562</ele>
        <time>2014-03-02T13:10:16.000Z</time>
      </trkpt>
      <trkpt lat="45.34842" lon="6.19245">
        <ele>2633.6000976562</ele>
        <time>2014-03-02T13:10:17.000Z</time>
      </trkpt>
      <trkpt lat="45.34842" lon="6.19245">
        <ele>2633.6000976562</ele>
        <time>2014-03-02T13:10:18.000Z</time>
      </trkpt>
      <trkpt lat="45.34842" lon="6.19245">
        <ele>2633.6000976562</ele>
        <time>2014-03-02T13:10:19.000Z</time>
      </trkpt>
      <trkpt lat="45.34842" lon="6.19245">
        <ele>2633.6000976562</ele>
        <time>2014-03-02T13:10:20.000Z</time>
      </trkpt>
      <trkpt lat="45.34842" lon="6.19245">
        <ele>2633.6000976562</ele>
        <time>2014-03-02T13:10:21.000Z</time>
      </trkpt>
      <trkpt lat="45.34842" lon="6.19245">
        <ele>2633.6000976562</ele>
        <time>2014-03-02T13:10:22.000Z</time>
      </trkpt>
      <trkpt lat="45.34842" lon="6.19245">
        <ele>2633.6000976562</ele>
        <time>2014-03-02T13:10:23.000Z</time>
      </trkpt>
      <trkpt lat="45.34842" lon="6.19245">
        <ele>2633.6000976562</ele>
        <time>2014-03-02T13:10:24.000Z</time>
      </trkpt>
      <trkpt lat="45.34842" lon="6.19245">
        <ele>2633.6000976562</ele>
        <time>2014-03-02T13:10:25.000Z</time>
      </trkpt>
      <trkpt lat="45.34842" lon="6.19245">
        <ele>2633.6000976562</ele>
        <time>2014-03-02T13:10:26.000Z</time>
      </trkpt>
      <trkpt lat="45.34842" lon="6.19245">
        <ele>2633.6000976562</ele>
        <time>2014-03-02T13:10:27.000Z</time>
      </trkpt>
      <trkpt lat="45.34842" lon="6.19245">
        <ele>2633.6000976562</ele>
        <time>2014-03-02T13:10:28.000Z</time>
      </trkpt>
      <trkpt lat="45.34842" lon="6.19245">
        <ele>2633.6000976562</ele>
        <time>2014-03-02T13:10:30.000Z</time>
      </trkpt>
      <trkpt lat="45.34842" lon="6.19245">
        <ele>2633.6000976562</ele>
        <time>2014-03-02T13:10:31.000Z</time>
      </trkpt>
      <trkpt lat="45.34842" lon="6.19245">
        <ele>2633.6000976562</ele>
        <time>2014-03-02T13:10:32.000Z</time>
      </trkpt>
      <trkpt lat="45.34842" lon="6.19245">
        <ele>2633.6000976562</ele>
        <time>2014-03-02T13:10:33.000Z</time>
      </trkpt>
      <trkpt lat="45.34842" lon="6.19245">
        <ele>2633.6000976562</ele>
        <time>2014-03-02T13:10:34.000Z</time>
      </trkpt>
      <trkpt lat="45.34842" lon="6.19245">
        <ele>2633.6000976562</ele>
        <time>2014-03-02T13:10:35.000Z</time>
      </trkpt>
      <trkpt lat="45.34842" lon="6.19245">
        <ele>2633.6000976562</ele>
        <time>2014-03-02T13:10:36.000Z</time>
      </trkpt>
      <trkpt lat="45.34842" lon="6.19245">
        <ele>2633.6000976562</ele>
        <time>2014-03-02T13:10:37.000Z</time>
      </trkpt>
      <trkpt lat="45.34842" lon="6.19245">
        <ele>2633.6000976562</ele>
        <time>2014-03-02T13:10:38.000Z</time>
      </trkpt>
      <trkpt lat="45.34842" lon="6.19245">
        <ele>2633.6000976562</ele>
        <time>2014-03-02T13:10:39.000Z</time>
      </trkpt>
      <trkpt lat="45.34842" lon="6.19245">
        <ele>2633.6000976562</ele>
        <time>2014-03-02T13:10:41.000Z</time>
      </trkpt>
      <trkpt lat="45.34842" lon="6.19245">
        <ele>2633.6000976562</ele>
        <time>2014-03-02T13:10:42.000Z</time>
      </trkpt>
      <trkpt lat="45.34842" lon="6.19245">
        <ele>2633.6000976562</ele>
        <time>2014-03-02T13:10:43.000Z</time>
      </trkpt>
      <trkpt lat="45.34842" lon="6.19245">
        <ele>2633.6000976562</ele>
        <time>2014-03-02T13:10:44.000Z</time>
      </trkpt>
      <trkpt lat="45.34842" lon="6.19245">
        <ele>2633.6000976562</ele>
        <time>2014-03-02T13:10:45.000Z</time>
      </trkpt>
      <trkpt lat="45.34842" lon="6.19245">
        <ele>2633.6000976562</ele>
        <time>2014-03-02T13:10:48.000Z</time>
      </trkpt>
      <trkpt lat="45.34842" lon="6.19245">
        <ele>2633.6000976562</ele>
        <time>2014-03-02T13:10:51.000Z</time>
      </trkpt>
      <trkpt lat="45.34842" lon="6.19245">
        <ele>2633.6000976562</ele>
        <time>2014-03-02T13:10:52.000Z</time>
      </trkpt>
      <trkpt lat="45.34843" lon="6.19242">
        <ele>2632.3999023438</ele>
        <time>2014-03-02T13:10:53.000Z</time>
      </trkpt>
      <trkpt lat="45.34843" lon="6.19242">
        <ele>2632.3999023438</ele>
        <time>2014-03-02T13:10:54.000Z</time>
      </trkpt>
      <trkpt lat="45.34843" lon="6.19242">
        <ele>2632.3999023438</ele>
        <time>2014-03-02T13:10:55.000Z</time>
      </trkpt>
      <trkpt lat="45.34843" lon="6.19242">
        <ele>2632.3999023438</ele>
        <time>2014-03-02T13:10:56.000Z</time>
      </trkpt>
      <trkpt lat="45.34843" lon="6.19242">
        <ele>2632.3999023438</ele>
        <time>2014-03-02T13:10:57.000Z</time>
      </trkpt>
      <trkpt lat="45.34843" lon="6.19242">
        <ele>2632.3999023438</ele>
        <time>2014-03-02T13:10:58.000Z</time>
      </trkpt>
      <trkpt lat="45.34843" lon="6.19242">
        <ele>2632.3999023438</ele>
        <time>2014-03-02T13:10:59.000Z</time>
      </trkpt>
      <trkpt lat="45.34843" lon="6.19242">
        <ele>2632.3999023438</ele>
        <time>2014-03-02T13:11:00.000Z</time>
      </trkpt>
      <trkpt lat="45.34843" lon="6.19242">
        <ele>2632.3999023438</ele>
        <time>2014-03-02T13:11:01.000Z</time>
      </trkpt>
      <trkpt lat="45.34843" lon="6.19242">
        <ele>2632.3999023438</ele>
        <time>2014-03-02T13:11:05.000Z</time>
      </trkpt>
      <trkpt lat="45.34843" lon="6.19242">
        <ele>2632.3999023438</ele>
        <time>2014-03-02T13:11:06.000Z</time>
      </trkpt>
      <trkpt lat="45.34843" lon="6.19242">
        <ele>2632.3999023438</ele>
        <time>2014-03-02T13:11:10.000Z</time>
      </trkpt>
      <trkpt lat="45.34843" lon="6.19242">
        <ele>2632.3999023438</ele>
        <time>2014-03-02T13:11:11.000Z</time>
      </trkpt>
      <trkpt lat="45.34843" lon="6.19242">
        <ele>2632.3999023438</ele>
        <time>2014-03-02T13:11:12.000Z</time>
      </trkpt>
      <trkpt lat="45.34843" lon="6.19242">
        <ele>2632.3999023438</ele>
        <time>2014-03-02T13:11:13.000Z</time>
      </trkpt>
      <trkpt lat="45.34843" lon="6.19242">
        <ele>2632.3999023438</ele>
        <time>2014-03-02T13:11:14.000Z</time>
      </trkpt>
      <trkpt lat="45.34843" lon="6.19242">
        <ele>2632.3999023438</ele>
        <time>2014-03-02T13:11:17.000Z</time>
      </trkpt>
      <trkpt lat="45.34843" lon="6.19242">
        <ele>2632.3999023438</ele>
        <time>2014-03-02T13:11:20.000Z</time>
      </trkpt>
      <trkpt lat="45.34843" lon="6.19242">
        <ele>2632.3999023438</ele>
        <time>2014-03-02T13:11:21.000Z</time>
      </trkpt>
      <trkpt lat="45.34843" lon="6.19242">
        <ele>2632.3999023438</ele>
        <time>2014-03-02T13:11:22.000Z</time>
      </trkpt>
      <trkpt lat="45.34843" lon="6.19242">
        <ele>2632.3999023438</ele>
        <time>2014-03-02T13:11:24.000Z</time>
      </trkpt>
      <trkpt lat="45.34843" lon="6.19242">
        <ele>2632.3999023438</ele>
        <time>2014-03-02T13:11:25.000Z</time>
      </trkpt>
      <trkpt lat="45.34843" lon="6.19242">
        <ele>2632.3999023438</ele>
        <time>2014-03-02T13:11:26.000Z</time>
      </trkpt>
      <trkpt lat="45.34843" lon="6.19242">
        <ele>2632.3999023438</ele>
        <time>2014-03-02T13:11:27.000Z</time>
      </trkpt>
      <trkpt lat="45.34843" lon="6.19242">
        <ele>2632.3999023438</ele>
        <time>2014-03-02T13:11:28.000Z</time>
      </trkpt>
      <trkpt lat="45.34843" lon="6.19242">
        <ele>2632.3999023438</ele>
        <time>2014-03-02T13:11:29.000Z</time>
      </trkpt>
      <trkpt lat="45.34843" lon="6.19242">
        <ele>2632.3999023438</ele>
        <time>2014-03-02T13:11:30.000Z</time>
      </trkpt>
      <trkpt lat="45.34843" lon="6.19242">
        <ele>2632.3999023438</ele>
        <time>2014-03-02T13:11:31.000Z</time>
      </trkpt>
      <trkpt lat="45.34843" lon="6.19242">
        <ele>2632.3999023438</ele>
        <time>2014-03-02T13:11:32.000Z</time>
      </trkpt>
      <trkpt lat="45.34843" lon="6.1924">
        <ele>2631.8000488281</ele>
        <time>2014-03-02T13:11:35.000Z</time>
      </trkpt>
      <trkpt lat="45.34843" lon="6.1924">
        <ele>2631.8000488281</ele>
        <time>2014-03-02T13:11:36.000Z</time>
      </trkpt>
      <trkpt lat="45.34843" lon="6.1924">
        <ele>2631.8000488281</ele>
        <time>2014-03-02T13:11:37.000Z</time>
      </trkpt>
      <trkpt lat="45.34843" lon="6.1924">
        <ele>2631.8000488281</ele>
        <time>2014-03-02T13:11:38.000Z</time>
      </trkpt>
      <trkpt lat="45.34843" lon="6.1924">
        <ele>2631.8000488281</ele>
        <time>2014-03-02T13:11:39.000Z</time>
      </trkpt>
      <trkpt lat="45.34843" lon="6.1924">
        <ele>2631.8000488281</ele>
        <time>2014-03-02T13:11:40.000Z</time>
      </trkpt>
      <trkpt lat="45.34843" lon="6.1924">
        <ele>2631.8000488281</ele>
        <time>2014-03-02T13:11:41.000Z</time>
      </trkpt>
      <trkpt lat="45.34843" lon="6.1924">
        <ele>2631.8000488281</ele>
        <time>2014-03-02T13:11:44.000Z</time>
      </trkpt>
      <trkpt lat="45.34843" lon="6.1924">
        <ele>2631.8000488281</ele>
        <time>2014-03-02T13:11:45.000Z</time>
      </trkpt>
      <trkpt lat="45.34843" lon="6.1924">
        <ele>2631.8000488281</ele>
        <time>2014-03-02T13:11:47.000Z</time>
      </trkpt>
      <trkpt lat="45.34843" lon="6.1924">
        <ele>2631.8000488281</ele>
        <time>2014-03-02T13:11:48.000Z</time>
      </trkpt>
      <trkpt lat="45.34843" lon="6.1924">
        <ele>2631.8000488281</ele>
        <time>2014-03-02T13:11:49.000Z</time>
      </trkpt>
      <trkpt lat="45.34843" lon="6.1924">
        <ele>2631.8000488281</ele>
        <time>2014-03-02T13:11:50.000Z</time>
      </trkpt>
      <trkpt lat="45.34843" lon="6.1924">
        <ele>2631.8000488281</ele>
        <time>2014-03-02T13:11:52.000Z</time>
      </trkpt>
      <trkpt lat="45.34843" lon="6.1924">
        <ele>2631.8000488281</ele>
        <time>2014-03-02T13:11:53.000Z</time>
      </trkpt>
      <trkpt lat="45.34843" lon="6.1924">
        <ele>2631.8000488281</ele>
        <time>2014-03-02T13:11:55.000Z</time>
      </trkpt>
      <trkpt lat="45.34843" lon="6.1924">
        <ele>2631.8000488281</ele>
        <time>2014-03-02T13:11:56.000Z</time>
      </trkpt>
      <trkpt lat="45.34843" lon="6.1924">
        <ele>2631.8000488281</ele>
        <time>2014-03-02T13:11:57.000Z</time>
      </trkpt>
      <trkpt lat="45.34843" lon="6.1924">
        <ele>2631.8000488281</ele>
        <time>2014-03-02T13:11:59.000Z</time>
      </trkpt>
      <trkpt lat="45.34843" lon="6.1924">
        <ele>2631.8000488281</ele>
        <time>2014-03-02T13:12:01.000Z</time>
      </trkpt>
      <trkpt lat="45.34843" lon="6.1924">
        <ele>2631.8000488281</ele>
        <time>2014-03-02T13:12:02.000Z</time>
      </trkpt>
      <trkpt lat="45.34843" lon="6.1924">
        <ele>2631.8000488281</ele>
        <time>2014-03-02T13:12:03.000Z</time>
      </trkpt>
      <trkpt lat="45.34843" lon="6.1924">
        <ele>2631.8000488281</ele>
        <time>2014-03-02T13:12:04.000Z</time>
      </trkpt>
      <trkpt lat="45.34843" lon="6.1924">
        <ele>2631.8000488281</ele>
        <time>2014-03-02T13:12:05.000Z</time>
      </trkpt>
      <trkpt lat="45.34843" lon="6.1924">
        <ele>2631.8000488281</ele>
        <time>2014-03-02T13:12:06.000Z</time>
      </trkpt>
      <trkpt lat="45.34843" lon="6.1924">
        <ele>2631.8000488281</ele>
        <time>2014-03-02T13:12:07.000Z</time>
      </trkpt>
      <trkpt lat="45.34843" lon="6.1924">
        <ele>2631.8000488281</ele>
        <time>2014-03-02T13:12:08.000Z</time>
      </trkpt>
      <trkpt lat="45.34843" lon="6.1924">
        <ele>2631.8000488281</ele>
        <time>2014-03-02T13:12:11.000Z</time>
      </trkpt>
      <trkpt lat="45.34843" lon="6.1924">
        <ele>2631.8000488281</ele>
        <time>2014-03-02T13:12:12.000Z</time>
      </trkpt>
      <trkpt lat="45.34843" lon="6.19239">
        <ele>2631.6000976562</ele>
        <time>2014-03-02T13:12:13.000Z</time>
      </trkpt>
      <trkpt lat="45.34843" lon="6.19239">
        <ele>2631.6000976562</ele>
        <time>2014-03-02T13:12:14.000Z</time>
      </trkpt>
      <trkpt lat="45.34843" lon="6.19239">
        <ele>2631.6000976562</ele>
        <time>2014-03-02T13:12:16.000Z</time>
      </trkpt>
      <trkpt lat="45.34843" lon="6.19239">
        <ele>2631.6000976562</ele>
        <time>2014-03-02T13:12:17.000Z</time>
      </trkpt>
      <trkpt lat="45.34843" lon="6.19239">
        <ele>2631.6000976562</ele>
        <time>2014-03-02T13:12:18.000Z</time>
      </trkpt>
      <trkpt lat="45.34843" lon="6.19239">
        <ele>2631.6000976562</ele>
        <time>2014-03-02T13:12:19.000Z</time>
      </trkpt>
      <trkpt lat="45.34843" lon="6.19239">
        <ele>2631.6000976562</ele>
        <time>2014-03-02T13:12:20.000Z</time>
      </trkpt>
      <trkpt lat="45.34843" lon="6.19239">
        <ele>2631.6000976562</ele>
        <time>2014-03-02T13:12:21.000Z</time>
      </trkpt>
      <trkpt lat="45.34843" lon="6.19239">
        <ele>2631.6000976562</ele>
        <time>2014-03-02T13:12:22.000Z</time>
      </trkpt>
      <trkpt lat="45.34843" lon="6.19239">
        <ele>2631.6000976562</ele>
        <time>2014-03-02T13:12:23.000Z</time>
      </trkpt>
      <trkpt lat="45.34843" lon="6.19239">
        <ele>2631.6000976562</ele>
        <time>2014-03-02T13:12:24.000Z</time>
      </trkpt>
      <trkpt lat="45.34843" lon="6.19239">
        <ele>2631.6000976562</ele>
        <time>2014-03-02T13:12:25.000Z</time>
      </trkpt>
      <trkpt lat="45.34843" lon="6.19239">
        <ele>2631.6000976562</ele>
        <time>2014-03-02T13:12:27.000Z</time>
      </trkpt>
      <trkpt lat="45.34843" lon="6.19239">
        <ele>2631.6000976562</ele>
        <time>2014-03-02T13:12:28.000Z</time>
      </trkpt>
      <trkpt lat="45.34843" lon="6.19239">
        <ele>2631.6000976562</ele>
        <time>2014-03-02T13:12:29.000Z</time>
      </trkpt>
      <trkpt lat="45.34843" lon="6.19239">
        <ele>2631.6000976562</ele>
        <time>2014-03-02T13:12:30.000Z</time>
      </trkpt>
      <trkpt lat="45.34843" lon="6.19239">
        <ele>2631.6000976562</ele>
        <time>2014-03-02T13:12:31.000Z</time>
      </trkpt>
      <trkpt lat="45.34843" lon="6.19239">
        <ele>2631.6000976562</ele>
        <time>2014-03-02T13:12:32.000Z</time>
      </trkpt>
      <trkpt lat="45.34843" lon="6.19239">
        <ele>2631.6000976562</ele>
        <time>2014-03-02T13:12:33.000Z</time>
      </trkpt>
      <trkpt lat="45.34843" lon="6.19239">
        <ele>2631.6000976562</ele>
        <time>2014-03-02T13:12:34.000Z</time>
      </trkpt>
      <trkpt lat="45.34843" lon="6.19239">
        <ele>2631.6000976562</ele>
        <time>2014-03-02T13:12:35.000Z</time>
      </trkpt>
      <trkpt lat="45.34843" lon="6.19239">
        <ele>2631.6000976562</ele>
        <time>2014-03-02T13:12:36.000Z</time>
      </trkpt>
      <trkpt lat="45.34843" lon="6.19239">
        <ele>2631.6000976562</ele>
        <time>2014-03-02T13:12:37.000Z</time>
      </trkpt>
      <trkpt lat="45.34843" lon="6.19239">
        <ele>2631.6000976562</ele>
        <time>2014-03-02T13:12:39.000Z</time>
      </trkpt>
      <trkpt lat="45.34843" lon="6.19239">
        <ele>2631.6000976562</ele>
        <time>2014-03-02T13:12:40.000Z</time>
      </trkpt>
      <trkpt lat="45.34843" lon="6.19239">
        <ele>2631.6000976562</ele>
        <time>2014-03-02T13:12:41.000Z</time>
      </trkpt>
      <trkpt lat="45.34843" lon="6.19239">
        <ele>2631.6000976562</ele>
        <time>2014-03-02T13:12:42.000Z</time>
      </trkpt>
      <trkpt lat="45.34843" lon="6.19239">
        <ele>2631.6000976562</ele>
        <time>2014-03-02T13:12:44.000Z</time>
      </trkpt>
      <trkpt lat="45.34843" lon="6.19239">
        <ele>2631.6000976562</ele>
        <time>2014-03-02T13:12:45.000Z</time>
      </trkpt>
      <trkpt lat="45.34843" lon="6.19239">
        <ele>2631.6000976562</ele>
        <time>2014-03-02T13:12:46.000Z</time>
      </trkpt>
      <trkpt lat="45.34843" lon="6.19239">
        <ele>2631.6000976562</ele>
        <time>2014-03-02T13:12:47.000Z</time>
      </trkpt>
      <trkpt lat="45.34843" lon="6.19239">
        <ele>2631.6000976562</ele>
        <time>2014-03-02T13:12:48.000Z</time>
      </trkpt>
      <trkpt lat="45.34843" lon="6.19239">
        <ele>2631.6000976562</ele>
        <time>2014-03-02T13:12:49.000Z</time>
      </trkpt>
      <trkpt lat="45.34843" lon="6.19239">
        <ele>2631.6000976562</ele>
        <time>2014-03-02T13:12:50.000Z</time>
      </trkpt>
      <trkpt lat="45.34843" lon="6.19239">
        <ele>2631.6000976562</ele>
        <time>2014-03-02T13:12:51.000Z</time>
      </trkpt>
      <trkpt lat="45.34843" lon="6.19242">
        <ele>2632.6000976562</ele>
        <time>2014-03-02T13:12:53.000Z</time>
      </trkpt>
      <trkpt lat="45.34843" lon="6.19242">
        <ele>2632.6000976562</ele>
        <time>2014-03-02T13:12:54.000Z</time>
      </trkpt>
      <trkpt lat="45.34843" lon="6.19242">
        <ele>2632.6000976562</ele>
        <time>2014-03-02T13:12:55.000Z</time>
      </trkpt>
      <trkpt lat="45.34843" lon="6.19242">
        <ele>2632.6000976562</ele>
        <time>2014-03-02T13:12:57.000Z</time>
      </trkpt>
      <trkpt lat="45.34843" lon="6.19242">
        <ele>2632.6000976562</ele>
        <time>2014-03-02T13:13:02.000Z</time>
      </trkpt>
      <trkpt lat="45.34843" lon="6.19242">
        <ele>2632.6000976562</ele>
        <time>2014-03-02T13:13:03.000Z</time>
      </trkpt>
      <trkpt lat="45.34843" lon="6.19242">
        <ele>2632.6000976562</ele>
        <time>2014-03-02T13:13:07.000Z</time>
      </trkpt>
      <trkpt lat="45.34843" lon="6.19242">
        <ele>2632.6000976562</ele>
        <time>2014-03-02T13:13:08.000Z</time>
      </trkpt>
      <trkpt lat="45.34843" lon="6.19242">
        <ele>2632.6000976562</ele>
        <time>2014-03-02T13:13:09.000Z</time>
      </trkpt>
      <trkpt lat="45.34843" lon="6.19242">
        <ele>2632.6000976562</ele>
        <time>2014-03-02T13:13:10.000Z</time>
      </trkpt>
      <trkpt lat="45.34843" lon="6.19242">
        <ele>2632.6000976562</ele>
        <time>2014-03-02T13:13:11.000Z</time>
      </trkpt>
      <trkpt lat="45.34843" lon="6.19242">
        <ele>2632.6000976562</ele>
        <time>2014-03-02T13:13:12.000Z</time>
      </trkpt>
      <trkpt lat="45.34843" lon="6.19242">
        <ele>2632.6000976562</ele>
        <time>2014-03-02T13:13:15.000Z</time>
      </trkpt>
      <trkpt lat="45.34843" lon="6.19242">
        <ele>2632.6000976562</ele>
        <time>2014-03-02T13:13:20.000Z</time>
      </trkpt>
      <trkpt lat="45.34843" lon="6.19242">
        <ele>2632.6000976562</ele>
        <time>2014-03-02T13:13:21.000Z</time>
      </trkpt>
      <trkpt lat="45.34843" lon="6.19242">
        <ele>2632.6000976562</ele>
        <time>2014-03-02T13:13:22.000Z</time>
      </trkpt>
      <trkpt lat="45.34843" lon="6.19242">
        <ele>2632.6000976562</ele>
        <time>2014-03-02T13:13:23.000Z</time>
      </trkpt>
      <trkpt lat="45.34843" lon="6.19242">
        <ele>2632.6000976562</ele>
        <time>2014-03-02T13:13:24.000Z</time>
      </trkpt>
      <trkpt lat="45.34843" lon="6.19242">
        <ele>2632.6000976562</ele>
        <time>2014-03-02T13:13:25.000Z</time>
      </trkpt>
      <trkpt lat="45.34843" lon="6.19242">
        <ele>2632.6000976562</ele>
        <time>2014-03-02T13:13:26.000Z</time>
      </trkpt>
      <trkpt lat="45.34843" lon="6.19242">
        <ele>2632.6000976562</ele>
        <time>2014-03-02T13:13:27.000Z</time>
      </trkpt>
      <trkpt lat="45.34843" lon="6.19242">
        <ele>2632.6000976562</ele>
        <time>2014-03-02T13:13:28.000Z</time>
      </trkpt>
      <trkpt lat="45.34843" lon="6.19242">
        <ele>2632.6000976562</ele>
        <time>2014-03-02T13:13:29.000Z</time>
      </trkpt>
      <trkpt lat="45.34843" lon="6.19242">
        <ele>2632.6000976562</ele>
        <time>2014-03-02T13:13:32.000Z</time>
      </trkpt>
      <trkpt lat="45.34843" lon="6.19242">
        <ele>2632.6000976562</ele>
        <time>2014-03-02T13:13:33.000Z</time>
      </trkpt>
      <trkpt lat="45.34843" lon="6.19242">
        <ele>2632.6000976562</ele>
        <time>2014-03-02T13:13:34.000Z</time>
      </trkpt>
      <trkpt lat="45.34843" lon="6.19242">
        <ele>2632.6000976562</ele>
        <time>2014-03-02T13:13:35.000Z</time>
      </trkpt>
      <trkpt lat="45.34843" lon="6.19242">
        <ele>2632.6000976562</ele>
        <time>2014-03-02T13:13:36.000Z</time>
      </trkpt>
      <trkpt lat="45.34843" lon="6.19242">
        <ele>2632.6000976562</ele>
        <time>2014-03-02T13:13:37.000Z</time>
      </trkpt>
      <trkpt lat="45.34843" lon="6.19242">
        <ele>2632.6000976562</ele>
        <time>2014-03-02T13:13:38.000Z</time>
      </trkpt>
      <trkpt lat="45.34843" lon="6.19242">
        <ele>2632.6000976562</ele>
        <time>2014-03-02T13:13:39.000Z</time>
      </trkpt>
      <trkpt lat="45.34843" lon="6.19242">
        <ele>2632.6000976562</ele>
        <time>2014-03-02T13:13:40.000Z</time>
      </trkpt>
      <trkpt lat="45.34843" lon="6.19242">
        <ele>2632.6000976562</ele>
        <time>2014-03-02T13:13:42.000Z</time>
      </trkpt>
      <trkpt lat="45.34843" lon="6.19242">
        <ele>2632.6000976562</ele>
        <time>2014-03-02T13:13:43.000Z</time>
      </trkpt>
      <trkpt lat="45.34843" lon="6.19242">
        <ele>2632.6000976562</ele>
        <time>2014-03-02T13:13:44.000Z</time>
      </trkpt>
      <trkpt lat="45.34843" lon="6.19242">
        <ele>2632.6000976562</ele>
        <time>2014-03-02T13:13:45.000Z</time>
      </trkpt>
      <trkpt lat="45.34843" lon="6.19242">
        <ele>2632.6000976562</ele>
        <time>2014-03-02T13:13:46.000Z</time>
      </trkpt>
      <trkpt lat="45.34843" lon="6.19242">
        <ele>2632.6000976562</ele>
        <time>2014-03-02T13:13:47.000Z</time>
      </trkpt>
      <trkpt lat="45.34843" lon="6.19242">
        <ele>2632.6000976562</ele>
        <time>2014-03-02T13:13:48.000Z</time>
      </trkpt>
      <trkpt lat="45.34843" lon="6.19242">
        <ele>2632.6000976562</ele>
        <time>2014-03-02T13:13:49.000Z</time>
      </trkpt>
      <trkpt lat="45.34843" lon="6.19242">
        <ele>2632.6000976562</ele>
        <time>2014-03-02T13:13:50.000Z</time>
      </trkpt>
      <trkpt lat="45.34843" lon="6.19242">
        <ele>2632.6000976562</ele>
        <time>2014-03-02T13:13:51.000Z</time>
      </trkpt>
      <trkpt lat="45.34843" lon="6.19242">
        <ele>2632.6000976562</ele>
        <time>2014-03-02T13:13:52.000Z</time>
      </trkpt>
      <trkpt lat="45.34843" lon="6.19242">
        <ele>2632.6000976562</ele>
        <time>2014-03-02T13:13:53.000Z</time>
      </trkpt>
      <trkpt lat="45.34843" lon="6.19242">
        <ele>2632.6000976562</ele>
        <time>2014-03-02T13:13:56.000Z</time>
      </trkpt>
      <trkpt lat="45.34843" lon="6.19242">
        <ele>2632.6000976562</ele>
        <time>2014-03-02T13:13:57.000Z</time>
      </trkpt>
      <trkpt lat="45.34843" lon="6.19242">
        <ele>2632.6000976562</ele>
        <time>2014-03-02T13:13:58.000Z</time>
      </trkpt>
      <trkpt lat="45.34843" lon="6.19242">
        <ele>2632.6000976562</ele>
        <time>2014-03-02T13:13:59.000Z</time>
      </trkpt>
      <trkpt lat="45.34843" lon="6.19242">
        <ele>2632.6000976562</ele>
        <time>2014-03-02T13:14:00.000Z</time>
      </trkpt>
      <trkpt lat="45.34843" lon="6.19242">
        <ele>2632.6000976562</ele>
        <time>2014-03-02T13:14:02.000Z</time>
      </trkpt>
      <trkpt lat="45.34843" lon="6.19242">
        <ele>2632.6000976562</ele>
        <time>2014-03-02T13:14:04.000Z</time>
      </trkpt>
      <trkpt lat="45.34843" lon="6.19242">
        <ele>2632.6000976562</ele>
        <time>2014-03-02T13:14:05.000Z</time>
      </trkpt>
      <trkpt lat="45.34843" lon="6.19242">
        <ele>2632.6000976562</ele>
        <time>2014-03-02T13:14:06.000Z</time>
      </trkpt>
      <trkpt lat="45.34843" lon="6.19242">
        <ele>2632.6000976562</ele>
        <time>2014-03-02T13:14:11.000Z</time>
      </trkpt>
      <trkpt lat="45.34843" lon="6.19242">
        <ele>2632.6000976562</ele>
        <time>2014-03-02T13:14:12.000Z</time>
      </trkpt>
      <trkpt lat="45.34843" lon="6.19244">
        <ele>2633.1999511719</ele>
        <time>2014-03-02T13:14:13.000Z</time>
      </trkpt>
      <trkpt lat="45.34843" lon="6.19244">
        <ele>2633.1999511719</ele>
        <time>2014-03-02T13:14:14.000Z</time>
      </trkpt>
      <trkpt lat="45.34843" lon="6.19244">
        <ele>2633.1999511719</ele>
        <time>2014-03-02T13:14:15.000Z</time>
      </trkpt>
      <trkpt lat="45.34843" lon="6.19244">
        <ele>2633.1999511719</ele>
        <time>2014-03-02T13:14:17.000Z</time>
      </trkpt>
      <trkpt lat="45.34843" lon="6.19244">
        <ele>2633.1999511719</ele>
        <time>2014-03-02T13:14:18.000Z</time>
      </trkpt>
      <trkpt lat="45.34843" lon="6.19244">
        <ele>2633.1999511719</ele>
        <time>2014-03-02T13:14:19.000Z</time>
      </trkpt>
      <trkpt lat="45.34843" lon="6.19244">
        <ele>2633.1999511719</ele>
        <time>2014-03-02T13:14:20.000Z</time>
      </trkpt>
      <trkpt lat="45.34842" lon="6.19244">
        <ele>2633.3999023438</ele>
        <time>2014-03-02T13:14:21.000Z</time>
      </trkpt>
      <trkpt lat="45.34842" lon="6.19244">
        <ele>2633.3999023438</ele>
        <time>2014-03-02T13:14:22.000Z</time>
      </trkpt>
      <trkpt lat="45.34842" lon="6.19244">
        <ele>2633.3999023438</ele>
        <time>2014-03-02T13:14:23.000Z</time>
      </trkpt>
      <trkpt lat="45.34842" lon="6.19244">
        <ele>2633.3999023438</ele>
        <time>2014-03-02T13:14:24.000Z</time>
      </trkpt>
      <trkpt lat="45.34842" lon="6.19244">
        <ele>2633.3999023438</ele>
        <time>2014-03-02T13:14:25.000Z</time>
      </trkpt>
      <trkpt lat="45.34842" lon="6.19244">
        <ele>2633.3999023438</ele>
        <time>2014-03-02T13:14:26.000Z</time>
      </trkpt>
      <trkpt lat="45.34842" lon="6.19244">
        <ele>2633.3999023438</ele>
        <time>2014-03-02T13:14:27.000Z</time>
      </trkpt>
      <trkpt lat="45.34842" lon="6.19244">
        <ele>2633.3999023438</ele>
        <time>2014-03-02T13:14:28.000Z</time>
      </trkpt>
      <trkpt lat="45.34842" lon="6.19244">
        <ele>2633.3999023438</ele>
        <time>2014-03-02T13:14:29.000Z</time>
      </trkpt>
      <trkpt lat="45.34842" lon="6.19244">
        <ele>2633.3999023438</ele>
        <time>2014-03-02T13:14:30.000Z</time>
      </trkpt>
      <trkpt lat="45.34842" lon="6.19244">
        <ele>2633.3999023438</ele>
        <time>2014-03-02T13:14:31.000Z</time>
      </trkpt>
      <trkpt lat="45.34842" lon="6.19244">
        <ele>2633.3999023438</ele>
        <time>2014-03-02T13:14:32.000Z</time>
      </trkpt>
      <trkpt lat="45.34842" lon="6.19244">
        <ele>2633.3999023438</ele>
        <time>2014-03-02T13:14:33.000Z</time>
      </trkpt>
      <trkpt lat="45.34842" lon="6.19244">
        <ele>2633.3999023438</ele>
        <time>2014-03-02T13:14:34.000Z</time>
      </trkpt>
      <trkpt lat="45.34842" lon="6.19244">
        <ele>2633.3999023438</ele>
        <time>2014-03-02T13:14:35.000Z</time>
      </trkpt>
      <trkpt lat="45.34842" lon="6.19244">
        <ele>2633.3999023438</ele>
        <time>2014-03-02T13:14:36.000Z</time>
      </trkpt>
      <trkpt lat="45.34842" lon="6.19244">
        <ele>2633.3999023438</ele>
        <time>2014-03-02T13:14:37.000Z</time>
      </trkpt>
      <trkpt lat="45.34842" lon="6.19244">
        <ele>2633.3999023438</ele>
        <time>2014-03-02T13:14:38.000Z</time>
      </trkpt>
      <trkpt lat="45.34842" lon="6.19244">
        <ele>2633.3999023438</ele>
        <time>2014-03-02T13:14:39.000Z</time>
      </trkpt>
      <trkpt lat="45.34842" lon="6.19244">
        <ele>2633.3999023438</ele>
        <time>2014-03-02T13:14:40.000Z</time>
      </trkpt>
      <trkpt lat="45.34842" lon="6.19244">
        <ele>2633.3999023438</ele>
        <time>2014-03-02T13:14:41.000Z</time>
      </trkpt>
      <trkpt lat="45.34842" lon="6.19244">
        <ele>2633.3999023438</ele>
        <time>2014-03-02T13:14:42.000Z</time>
      </trkpt>
      <trkpt lat="45.34842" lon="6.19244">
        <ele>2633.3999023438</ele>
        <time>2014-03-02T13:14:43.000Z</time>
      </trkpt>
      <trkpt lat="45.34842" lon="6.19244">
        <ele>2633.3999023438</ele>
        <time>2014-03-02T13:14:44.000Z</time>
      </trkpt>
      <trkpt lat="45.34842" lon="6.19244">
        <ele>2633.3999023438</ele>
        <time>2014-03-02T13:14:45.000Z</time>
      </trkpt>
      <trkpt lat="45.34842" lon="6.19244">
        <ele>2633.3999023438</ele>
        <time>2014-03-02T13:14:46.000Z</time>
      </trkpt>
      <trkpt lat="45.34842" lon="6.19244">
        <ele>2633.3999023438</ele>
        <time>2014-03-02T13:14:51.000Z</time>
      </trkpt>
      <trkpt lat="45.34842" lon="6.19244">
        <ele>2633.3999023438</ele>
        <time>2014-03-02T13:14:52.000Z</time>
      </trkpt>
      <trkpt lat="45.34842" lon="6.19244">
        <ele>2633.3999023438</ele>
        <time>2014-03-02T13:14:53.000Z</time>
      </trkpt>
      <trkpt lat="45.34842" lon="6.19244">
        <ele>2633.3999023438</ele>
        <time>2014-03-02T13:14:54.000Z</time>
      </trkpt>
      <trkpt lat="45.34842" lon="6.19244">
        <ele>2633.3999023438</ele>
        <time>2014-03-02T13:14:55.000Z</time>
      </trkpt>
      <trkpt lat="45.34842" lon="6.19244">
        <ele>2633.3999023438</ele>
        <time>2014-03-02T13:14:56.000Z</time>
      </trkpt>
      <trkpt lat="45.34842" lon="6.19244">
        <ele>2633.3999023438</ele>
        <time>2014-03-02T13:14:57.000Z</time>
      </trkpt>
      <trkpt lat="45.34842" lon="6.19244">
        <ele>2633.3999023438</ele>
        <time>2014-03-02T13:14:58.000Z</time>
      </trkpt>
      <trkpt lat="45.34842" lon="6.19244">
        <ele>2633.3999023438</ele>
        <time>2014-03-02T13:14:59.000Z</time>
      </trkpt>
      <trkpt lat="45.34843" lon="6.19244">
        <ele>2633.3999023438</ele>
        <time>2014-03-02T13:15:01.000Z</time>
      </trkpt>
      <trkpt lat="45.34843" lon="6.19244">
        <ele>2633.3999023438</ele>
        <time>2014-03-02T13:15:02.000Z</time>
      </trkpt>
      <trkpt lat="45.34843" lon="6.19244">
        <ele>2633.3999023438</ele>
        <time>2014-03-02T13:15:03.000Z</time>
      </trkpt>
      <trkpt lat="45.34843" lon="6.19244">
        <ele>2633.3999023438</ele>
        <time>2014-03-02T13:15:04.000Z</time>
      </trkpt>
      <trkpt lat="45.34843" lon="6.19244">
        <ele>2633.3999023438</ele>
        <time>2014-03-02T13:15:06.000Z</time>
      </trkpt>
      <trkpt lat="45.34843" lon="6.19244">
        <ele>2633.3999023438</ele>
        <time>2014-03-02T13:15:07.000Z</time>
      </trkpt>
      <trkpt lat="45.34843" lon="6.19244">
        <ele>2633.3999023438</ele>
        <time>2014-03-02T13:15:08.000Z</time>
      </trkpt>
      <trkpt lat="45.34843" lon="6.19244">
        <ele>2633.3999023438</ele>
        <time>2014-03-02T13:15:09.000Z</time>
      </trkpt>
      <trkpt lat="45.34843" lon="6.19244">
        <ele>2633.3999023438</ele>
        <time>2014-03-02T13:15:10.000Z</time>
      </trkpt>
      <trkpt lat="45.34843" lon="6.19244">
        <ele>2633.3999023438</ele>
        <time>2014-03-02T13:15:12.000Z</time>
      </trkpt>
      <trkpt lat="45.34843" lon="6.19244">
        <ele>2633.3999023438</ele>
        <time>2014-03-02T13:15:15.000Z</time>
      </trkpt>
      <trkpt lat="45.34843" lon="6.19244">
        <ele>2633.3999023438</ele>
        <time>2014-03-02T13:15:16.000Z</time>
      </trkpt>
      <trkpt lat="45.34843" lon="6.19244">
        <ele>2633.3999023438</ele>
        <time>2014-03-02T13:15:17.000Z</time>
      </trkpt>
      <trkpt lat="45.34843" lon="6.19244">
        <ele>2633.3999023438</ele>
        <time>2014-03-02T13:15:21.000Z</time>
      </trkpt>
      <trkpt lat="45.34843" lon="6.19244">
        <ele>2633.3999023438</ele>
        <time>2014-03-02T13:15:22.000Z</time>
      </trkpt>
      <trkpt lat="45.34843" lon="6.19244">
        <ele>2633.3999023438</ele>
        <time>2014-03-02T13:15:23.000Z</time>
      </trkpt>
      <trkpt lat="45.34843" lon="6.19244">
        <ele>2633.3999023438</ele>
        <time>2014-03-02T13:15:24.000Z</time>
      </trkpt>
      <trkpt lat="45.34843" lon="6.19244">
        <ele>2633.3999023438</ele>
        <time>2014-03-02T13:15:26.000Z</time>
      </trkpt>
      <trkpt lat="45.34843" lon="6.19244">
        <ele>2633.3999023438</ele>
        <time>2014-03-02T13:15:27.000Z</time>
      </trkpt>
      <trkpt lat="45.34843" lon="6.19244">
        <ele>2633.3999023438</ele>
        <time>2014-03-02T13:15:28.000Z</time>
      </trkpt>
      <trkpt lat="45.34843" lon="6.19244">
        <ele>2633.3999023438</ele>
        <time>2014-03-02T13:15:29.000Z</time>
      </trkpt>
      <trkpt lat="45.34843" lon="6.19244">
        <ele>2633.3999023438</ele>
        <time>2014-03-02T13:15:34.000Z</time>
      </trkpt>
      <trkpt lat="45.34843" lon="6.19244">
        <ele>2633.3999023438</ele>
        <time>2014-03-02T13:15:35.000Z</time>
      </trkpt>
      <trkpt lat="45.34843" lon="6.19244">
        <ele>2633.3999023438</ele>
        <time>2014-03-02T13:15:37.000Z</time>
      </trkpt>
      <trkpt lat="45.34843" lon="6.19245">
        <ele>2633.3999023438</ele>
        <time>2014-03-02T13:15:41.000Z</time>
      </trkpt>
      <trkpt lat="45.34843" lon="6.19245">
        <ele>2633.3999023438</ele>
        <time>2014-03-02T13:15:42.000Z</time>
      </trkpt>
      <trkpt lat="45.34843" lon="6.19245">
        <ele>2633.3999023438</ele>
        <time>2014-03-02T13:15:43.000Z</time>
      </trkpt>
      <trkpt lat="45.34843" lon="6.19245">
        <ele>2633.3999023438</ele>
        <time>2014-03-02T13:15:44.000Z</time>
      </trkpt>
      <trkpt lat="45.34843" lon="6.19245">
        <ele>2633.3999023438</ele>
        <time>2014-03-02T13:15:48.000Z</time>
      </trkpt>
      <trkpt lat="45.34843" lon="6.19245">
        <ele>2633.3999023438</ele>
        <time>2014-03-02T13:15:51.000Z</time>
      </trkpt>
      <trkpt lat="45.34843" lon="6.19245">
        <ele>2633.3999023438</ele>
        <time>2014-03-02T13:15:52.000Z</time>
      </trkpt>
      <trkpt lat="45.34843" lon="6.19245">
        <ele>2633.3999023438</ele>
        <time>2014-03-02T13:15:53.000Z</time>
      </trkpt>
      <trkpt lat="45.34843" lon="6.19245">
        <ele>2633.3999023438</ele>
        <time>2014-03-02T13:15:54.000Z</time>
      </trkpt>
      <trkpt lat="45.34843" lon="6.19245">
        <ele>2633.3999023438</ele>
        <time>2014-03-02T13:15:55.000Z</time>
      </trkpt>
      <trkpt lat="45.34843" lon="6.19245">
        <ele>2633.3999023438</ele>
        <time>2014-03-02T13:15:56.000Z</time>
      </trkpt>
      <trkpt lat="45.34843" lon="6.19245">
        <ele>2633.3999023438</ele>
        <time>2014-03-02T13:15:57.000Z</time>
      </trkpt>
      <trkpt lat="45.34843" lon="6.19245">
        <ele>2633.3999023438</ele>
        <time>2014-03-02T13:15:58.000Z</time>
      </trkpt>
      <trkpt lat="45.34843" lon="6.19245">
        <ele>2633.3999023438</ele>
        <time>2014-03-02T13:15:59.000Z</time>
      </trkpt>
      <trkpt lat="45.34843" lon="6.19245">
        <ele>2633.3999023438</ele>
        <time>2014-03-02T13:16:00.000Z</time>
      </trkpt>
      <trkpt lat="45.34843" lon="6.19245">
        <ele>2633.3999023438</ele>
        <time>2014-03-02T13:16:01.000Z</time>
      </trkpt>
      <trkpt lat="45.34843" lon="6.19245">
        <ele>2633.3999023438</ele>
        <time>2014-03-02T13:16:05.000Z</time>
      </trkpt>
      <trkpt lat="45.34843" lon="6.19245">
        <ele>2633.3999023438</ele>
        <time>2014-03-02T13:16:06.000Z</time>
      </trkpt>
      <trkpt lat="45.34843" lon="6.19245">
        <ele>2633.3999023438</ele>
        <time>2014-03-02T13:16:07.000Z</time>
      </trkpt>
      <trkpt lat="45.34843" lon="6.19245">
        <ele>2633.3999023438</ele>
        <time>2014-03-02T13:16:08.000Z</time>
      </trkpt>
      <trkpt lat="45.34843" lon="6.19245">
        <ele>2633.3999023438</ele>
        <time>2014-03-02T13:16:09.000Z</time>
      </trkpt>
      <trkpt lat="45.34843" lon="6.19245">
        <ele>2633.3999023438</ele>
        <time>2014-03-02T13:16:12.000Z</time>
      </trkpt>
      <trkpt lat="45.34843" lon="6.19245">
        <ele>2633.3999023438</ele>
        <time>2014-03-02T13:16:14.000Z</time>
      </trkpt>
      <trkpt lat="45.34843" lon="6.19245">
        <ele>2633.3999023438</ele>
        <time>2014-03-02T13:16:15.000Z</time>
      </trkpt>
      <trkpt lat="45.34843" lon="6.19245">
        <ele>2633.3999023438</ele>
        <time>2014-03-02T13:16:16.000Z</time>
      </trkpt>
      <trkpt lat="45.34843" lon="6.19244">
        <ele>2633.3999023438</ele>
        <time>2014-03-02T13:16:21.000Z</time>
      </trkpt>
      <trkpt lat="45.34843" lon="6.19244">
        <ele>2633.3999023438</ele>
        <time>2014-03-02T13:16:22.000Z</time>
      </trkpt>
      <trkpt lat="45.34843" lon="6.19244">
        <ele>2633.3999023438</ele>
        <time>2014-03-02T13:16:23.000Z</time>
      </trkpt>
      <trkpt lat="45.34843" lon="6.19244">
        <ele>2633.3999023438</ele>
        <time>2014-03-02T13:16:24.000Z</time>
      </trkpt>
      <trkpt lat="45.34843" lon="6.19244">
        <ele>2633.3999023438</ele>
        <time>2014-03-02T13:16:25.000Z</time>
      </trkpt>
      <trkpt lat="45.34843" lon="6.19244">
        <ele>2633.3999023438</ele>
        <time>2014-03-02T13:16:27.000Z</time>
      </trkpt>
      <trkpt lat="45.34843" lon="6.19244">
        <ele>2633.3999023438</ele>
        <time>2014-03-02T13:16:29.000Z</time>
      </trkpt>
      <trkpt lat="45.34843" lon="6.19244">
        <ele>2633.3999023438</ele>
        <time>2014-03-02T13:16:30.000Z</time>
      </trkpt>
      <trkpt lat="45.34843" lon="6.19244">
        <ele>2633.3999023438</ele>
        <time>2014-03-02T13:16:34.000Z</time>
      </trkpt>
      <trkpt lat="45.34843" lon="6.19244">
        <ele>2633.3999023438</ele>
        <time>2014-03-02T13:16:35.000Z</time>
      </trkpt>
      <trkpt lat="45.34843" lon="6.19244">
        <ele>2633.3999023438</ele>
        <time>2014-03-02T13:16:36.000Z</time>
      </trkpt>
      <trkpt lat="45.34843" lon="6.19244">
        <ele>2633.3999023438</ele>
        <time>2014-03-02T13:16:38.000Z</time>
      </trkpt>
      <trkpt lat="45.34843" lon="6.19244">
        <ele>2633.3999023438</ele>
        <time>2014-03-02T13:16:39.000Z</time>
      </trkpt>
      <trkpt lat="45.34843" lon="6.19244">
        <ele>2633.3999023438</ele>
        <time>2014-03-02T13:16:40.000Z</time>
      </trkpt>
      <trkpt lat="45.34843" lon="6.19244">
        <ele>2633.3999023438</ele>
        <time>2014-03-02T13:16:41.000Z</time>
      </trkpt>
      <trkpt lat="45.34843" lon="6.19244">
        <ele>2633.3999023438</ele>
        <time>2014-03-02T13:16:42.000Z</time>
      </trkpt>
      <trkpt lat="45.34843" lon="6.19244">
        <ele>2633.3999023438</ele>
        <time>2014-03-02T13:16:43.000Z</time>
      </trkpt>
      <trkpt lat="45.34843" lon="6.19244">
        <ele>2633.3999023438</ele>
        <time>2014-03-02T13:16:44.000Z</time>
      </trkpt>
      <trkpt lat="45.34843" lon="6.19244">
        <ele>2633.3999023438</ele>
        <time>2014-03-02T13:16:45.000Z</time>
      </trkpt>
      <trkpt lat="45.34843" lon="6.19244">
        <ele>2633.3999023438</ele>
        <time>2014-03-02T13:16:47.000Z</time>
      </trkpt>
      <trkpt lat="45.34843" lon="6.19244">
        <ele>2633.3999023438</ele>
        <time>2014-03-02T13:16:48.000Z</time>
      </trkpt>
      <trkpt lat="45.34843" lon="6.19244">
        <ele>2633.3999023438</ele>
        <time>2014-03-02T13:16:49.000Z</time>
      </trkpt>
      <trkpt lat="45.34843" lon="6.19244">
        <ele>2633.3999023438</ele>
        <time>2014-03-02T13:16:50.000Z</time>
      </trkpt>
      <trkpt lat="45.34843" lon="6.19244">
        <ele>2633.3999023438</ele>
        <time>2014-03-02T13:16:54.000Z</time>
      </trkpt>
      <trkpt lat="45.34843" lon="6.19244">
        <ele>2633.3999023438</ele>
        <time>2014-03-02T13:16:55.000Z</time>
      </trkpt>
      <trkpt lat="45.34843" lon="6.19244">
        <ele>2633.3999023438</ele>
        <time>2014-03-02T13:16:56.000Z</time>
      </trkpt>
      <trkpt lat="45.34843" lon="6.19244">
        <ele>2633.3999023438</ele>
        <time>2014-03-02T13:16:57.000Z</time>
      </trkpt>
      <trkpt lat="45.34843" lon="6.19244">
        <ele>2633.3999023438</ele>
        <time>2014-03-02T13:16:58.000Z</time>
      </trkpt>
      <trkpt lat="45.34843" lon="6.19244">
        <ele>2633.3999023438</ele>
        <time>2014-03-02T13:16:59.000Z</time>
      </trkpt>
      <trkpt lat="45.34843" lon="6.19244">
        <ele>2633.3999023438</ele>
        <time>2014-03-02T13:17:00.000Z</time>
      </trkpt>
      <trkpt lat="45.34843" lon="6.19244">
        <ele>2633.3999023438</ele>
        <time>2014-03-02T13:17:01.000Z</time>
      </trkpt>
      <trkpt lat="45.34843" lon="6.19244">
        <ele>2633.3999023438</ele>
        <time>2014-03-02T13:17:02.000Z</time>
      </trkpt>
      <trkpt lat="45.34843" lon="6.19244">
        <ele>2633.3999023438</ele>
        <time>2014-03-02T13:17:03.000Z</time>
      </trkpt>
      <trkpt lat="45.34843" lon="6.19244">
        <ele>2633.3999023438</ele>
        <time>2014-03-02T13:17:04.000Z</time>
      </trkpt>
      <trkpt lat="45.34843" lon="6.19244">
        <ele>2633.3999023438</ele>
        <time>2014-03-02T13:17:05.000Z</time>
      </trkpt>
      <trkpt lat="45.34843" lon="6.19244">
        <ele>2633.3999023438</ele>
        <time>2014-03-02T13:17:06.000Z</time>
      </trkpt>
      <trkpt lat="45.34843" lon="6.19244">
        <ele>2633.3999023438</ele>
        <time>2014-03-02T13:17:07.000Z</time>
      </trkpt>
      <trkpt lat="45.34843" lon="6.19244">
        <ele>2633.3999023438</ele>
        <time>2014-03-02T13:17:08.000Z</time>
      </trkpt>
      <trkpt lat="45.34843" lon="6.19244">
        <ele>2633.3999023438</ele>
        <time>2014-03-02T13:17:09.000Z</time>
      </trkpt>
      <trkpt lat="45.34843" lon="6.19244">
        <ele>2633.3999023438</ele>
        <time>2014-03-02T13:17:16.000Z</time>
      </trkpt>
      <trkpt lat="45.34843" lon="6.19244">
        <ele>2633.3999023438</ele>
        <time>2014-03-02T13:17:17.000Z</time>
      </trkpt>
      <trkpt lat="45.34843" lon="6.19244">
        <ele>2633.3999023438</ele>
        <time>2014-03-02T13:17:18.000Z</time>
      </trkpt>
      <trkpt lat="45.34843" lon="6.19244">
        <ele>2633.3999023438</ele>
        <time>2014-03-02T13:17:19.000Z</time>
      </trkpt>
      <trkpt lat="45.34843" lon="6.19244">
        <ele>2633.3999023438</ele>
        <time>2014-03-02T13:17:20.000Z</time>
      </trkpt>
      <trkpt lat="45.34843" lon="6.19244">
        <ele>2633.3999023438</ele>
        <time>2014-03-02T13:17:21.000Z</time>
      </trkpt>
      <trkpt lat="45.34843" lon="6.19244">
        <ele>2633.3999023438</ele>
        <time>2014-03-02T13:17:22.000Z</time>
      </trkpt>
      <trkpt lat="45.34843" lon="6.19244">
        <ele>2633.3999023438</ele>
        <time>2014-03-02T13:17:23.000Z</time>
      </trkpt>
      <trkpt lat="45.34843" lon="6.19244">
        <ele>2633.3999023438</ele>
        <time>2014-03-02T13:17:24.000Z</time>
      </trkpt>
      <trkpt lat="45.34843" lon="6.19244">
        <ele>2633.3999023438</ele>
        <time>2014-03-02T13:17:25.000Z</time>
      </trkpt>
      <trkpt lat="45.34843" lon="6.19244">
        <ele>2633.3999023438</ele>
        <time>2014-03-02T13:17:26.000Z</time>
      </trkpt>
      <trkpt lat="45.34843" lon="6.19244">
        <ele>2633.3999023438</ele>
        <time>2014-03-02T13:17:27.000Z</time>
      </trkpt>
      <trkpt lat="45.34843" lon="6.19244">
        <ele>2633.3999023438</ele>
        <time>2014-03-02T13:17:28.000Z</time>
      </trkpt>
      <trkpt lat="45.34843" lon="6.19244">
        <ele>2633.3999023438</ele>
        <time>2014-03-02T13:17:29.000Z</time>
      </trkpt>
      <trkpt lat="45.34843" lon="6.19244">
        <ele>2633.3999023438</ele>
        <time>2014-03-02T13:17:30.000Z</time>
      </trkpt>
      <trkpt lat="45.34843" lon="6.19244">
        <ele>2633.3999023438</ele>
        <time>2014-03-02T13:17:31.000Z</time>
      </trkpt>
      <trkpt lat="45.34843" lon="6.19244">
        <ele>2633.3999023438</ele>
        <time>2014-03-02T13:17:32.000Z</time>
      </trkpt>
      <trkpt lat="45.34843" lon="6.19244">
        <ele>2633.3999023438</ele>
        <time>2014-03-02T13:17:33.000Z</time>
      </trkpt>
      <trkpt lat="45.34843" lon="6.19244">
        <ele>2633.3999023438</ele>
        <time>2014-03-02T13:17:34.000Z</time>
      </trkpt>
      <trkpt lat="45.34843" lon="6.19244">
        <ele>2633.3999023438</ele>
        <time>2014-03-02T13:17:35.000Z</time>
      </trkpt>
      <trkpt lat="45.34843" lon="6.19244">
        <ele>2633.3999023438</ele>
        <time>2014-03-02T13:17:36.000Z</time>
      </trkpt>
      <trkpt lat="45.34843" lon="6.19244">
        <ele>2633.3999023438</ele>
        <time>2014-03-02T13:17:37.000Z</time>
      </trkpt>
      <trkpt lat="45.34843" lon="6.19244">
        <ele>2633.3999023438</ele>
        <time>2014-03-02T13:17:38.000Z</time>
      </trkpt>
      <trkpt lat="45.34843" lon="6.19245">
        <ele>2633.6000976562</ele>
        <time>2014-03-02T13:17:42.000Z</time>
      </trkpt>
      <trkpt lat="45.34843" lon="6.19245">
        <ele>2633.6000976562</ele>
        <time>2014-03-02T13:17:43.000Z</time>
      </trkpt>
      <trkpt lat="45.34843" lon="6.19245">
        <ele>2633.6000976562</ele>
        <time>2014-03-02T13:17:44.000Z</time>
      </trkpt>
      <trkpt lat="45.34843" lon="6.19245">
        <ele>2633.6000976562</ele>
        <time>2014-03-02T13:17:45.000Z</time>
      </trkpt>
      <trkpt lat="45.34843" lon="6.19245">
        <ele>2633.6000976562</ele>
        <time>2014-03-02T13:17:46.000Z</time>
      </trkpt>
      <trkpt lat="45.34843" lon="6.19245">
        <ele>2633.6000976562</ele>
        <time>2014-03-02T13:17:47.000Z</time>
      </trkpt>
      <trkpt lat="45.34843" lon="6.19245">
        <ele>2633.6000976562</ele>
        <time>2014-03-02T13:17:48.000Z</time>
      </trkpt>
      <trkpt lat="45.34843" lon="6.19245">
        <ele>2633.6000976562</ele>
        <time>2014-03-02T13:17:50.000Z</time>
      </trkpt>
      <trkpt lat="45.34843" lon="6.19245">
        <ele>2633.6000976562</ele>
        <time>2014-03-02T13:17:51.000Z</time>
      </trkpt>
      <trkpt lat="45.34843" lon="6.19245">
        <ele>2633.6000976562</ele>
        <time>2014-03-02T13:17:53.000Z</time>
      </trkpt>
      <trkpt lat="45.34843" lon="6.19245">
        <ele>2633.6000976562</ele>
        <time>2014-03-02T13:17:54.000Z</time>
      </trkpt>
      <trkpt lat="45.34843" lon="6.19245">
        <ele>2633.6000976562</ele>
        <time>2014-03-02T13:17:55.000Z</time>
      </trkpt>
      <trkpt lat="45.34843" lon="6.19245">
        <ele>2633.6000976562</ele>
        <time>2014-03-02T13:17:56.000Z</time>
      </trkpt>
      <trkpt lat="45.34843" lon="6.19245">
        <ele>2633.6000976562</ele>
        <time>2014-03-02T13:17:57.000Z</time>
      </trkpt>
      <trkpt lat="45.34843" lon="6.19245">
        <ele>2633.6000976562</ele>
        <time>2014-03-02T13:17:58.000Z</time>
      </trkpt>
      <trkpt lat="45.34843" lon="6.19245">
        <ele>2633.6000976562</ele>
        <time>2014-03-02T13:17:59.000Z</time>
      </trkpt>
      <trkpt lat="45.34843" lon="6.19245">
        <ele>2633.6000976562</ele>
        <time>2014-03-02T13:18:00.000Z</time>
      </trkpt>
      <trkpt lat="45.34843" lon="6.19245">
        <ele>2633.6000976562</ele>
        <time>2014-03-02T13:18:03.000Z</time>
      </trkpt>
      <trkpt lat="45.34843" lon="6.19245">
        <ele>2633.6000976562</ele>
        <time>2014-03-02T13:18:07.000Z</time>
      </trkpt>
      <trkpt lat="45.34843" lon="6.19245">
        <ele>2633.6000976562</ele>
        <time>2014-03-02T13:18:08.000Z</time>
      </trkpt>
      <trkpt lat="45.34843" lon="6.19245">
        <ele>2633.6000976562</ele>
        <time>2014-03-02T13:18:09.000Z</time>
      </trkpt>
      <trkpt lat="45.34843" lon="6.19245">
        <ele>2633.6000976562</ele>
        <time>2014-03-02T13:18:10.000Z</time>
      </trkpt>
      <trkpt lat="45.34843" lon="6.19245">
        <ele>2633.6000976562</ele>
        <time>2014-03-02T13:18:11.000Z</time>
      </trkpt>
      <trkpt lat="45.34843" lon="6.19245">
        <ele>2633.6000976562</ele>
        <time>2014-03-02T13:18:12.000Z</time>
      </trkpt>
      <trkpt lat="45.34843" lon="6.19245">
        <ele>2633.6000976562</ele>
        <time>2014-03-02T13:18:13.000Z</time>
      </trkpt>
      <trkpt lat="45.34843" lon="6.19245">
        <ele>2633.6000976562</ele>
        <time>2014-03-02T13:18:14.000Z</time>
      </trkpt>
      <trkpt lat="45.34843" lon="6.19245">
        <ele>2633.6000976562</ele>
        <time>2014-03-02T13:18:15.000Z</time>
      </trkpt>
      <trkpt lat="45.34843" lon="6.19245">
        <ele>2633.6000976562</ele>
        <time>2014-03-02T13:18:16.000Z</time>
      </trkpt>
      <trkpt lat="45.34843" lon="6.19245">
        <ele>2633.6000976562</ele>
        <time>2014-03-02T13:18:17.000Z</time>
      </trkpt>
      <trkpt lat="45.34843" lon="6.19245">
        <ele>2633.6000976562</ele>
        <time>2014-03-02T13:18:18.000Z</time>
      </trkpt>
      <trkpt lat="45.34843" lon="6.19245">
        <ele>2633.6000976562</ele>
        <time>2014-03-02T13:18:19.000Z</time>
      </trkpt>
      <trkpt lat="45.34843" lon="6.19245">
        <ele>2633.8000488281</ele>
        <time>2014-03-02T13:18:20.000Z</time>
      </trkpt>
      <trkpt lat="45.34843" lon="6.19245">
        <ele>2633.8000488281</ele>
        <time>2014-03-02T13:18:21.000Z</time>
      </trkpt>
      <trkpt lat="45.34843" lon="6.19245">
        <ele>2633.8000488281</ele>
        <time>2014-03-02T13:18:22.000Z</time>
      </trkpt>
      <trkpt lat="45.34843" lon="6.19245">
        <ele>2633.8000488281</ele>
        <time>2014-03-02T13:18:23.000Z</time>
      </trkpt>
      <trkpt lat="45.34843" lon="6.19245">
        <ele>2633.8000488281</ele>
        <time>2014-03-02T13:18:24.000Z</time>
      </trkpt>
      <trkpt lat="45.34843" lon="6.19245">
        <ele>2633.8000488281</ele>
        <time>2014-03-02T13:18:25.000Z</time>
      </trkpt>
      <trkpt lat="45.34843" lon="6.19245">
        <ele>2633.8000488281</ele>
        <time>2014-03-02T13:18:26.000Z</time>
      </trkpt>
      <trkpt lat="45.34843" lon="6.19245">
        <ele>2633.8000488281</ele>
        <time>2014-03-02T13:18:29.000Z</time>
      </trkpt>
      <trkpt lat="45.34843" lon="6.19245">
        <ele>2633.8000488281</ele>
        <time>2014-03-02T13:18:30.000Z</time>
      </trkpt>
      <trkpt lat="45.34843" lon="6.19245">
        <ele>2633.8000488281</ele>
        <time>2014-03-02T13:18:31.000Z</time>
      </trkpt>
      <trkpt lat="45.34843" lon="6.19245">
        <ele>2633.8000488281</ele>
        <time>2014-03-02T13:18:32.000Z</time>
      </trkpt>
      <trkpt lat="45.34843" lon="6.19245">
        <ele>2633.8000488281</ele>
        <time>2014-03-02T13:18:33.000Z</time>
      </trkpt>
      <trkpt lat="45.34843" lon="6.19245">
        <ele>2633.8000488281</ele>
        <time>2014-03-02T13:18:34.000Z</time>
      </trkpt>
      <trkpt lat="45.34843" lon="6.19245">
        <ele>2633.8000488281</ele>
        <time>2014-03-02T13:18:35.000Z</time>
      </trkpt>
      <trkpt lat="45.34843" lon="6.19245">
        <ele>2633.8000488281</ele>
        <time>2014-03-02T13:18:36.000Z</time>
      </trkpt>
      <trkpt lat="45.34843" lon="6.19245">
        <ele>2633.8000488281</ele>
        <time>2014-03-02T13:18:38.000Z</time>
      </trkpt>
      <trkpt lat="45.34843" lon="6.19245">
        <ele>2633.8000488281</ele>
        <time>2014-03-02T13:18:39.000Z</time>
      </trkpt>
      <trkpt lat="45.34843" lon="6.19245">
        <ele>2633.8000488281</ele>
        <time>2014-03-02T13:18:40.000Z</time>
      </trkpt>
      <trkpt lat="45.34843" lon="6.19245">
        <ele>2633.8000488281</ele>
        <time>2014-03-02T13:18:41.000Z</time>
      </trkpt>
      <trkpt lat="45.34843" lon="6.19245">
        <ele>2633.6000976562</ele>
        <time>2014-03-02T13:18:42.000Z</time>
      </trkpt>
      <trkpt lat="45.34843" lon="6.19243">
        <ele>2633</ele>
        <time>2014-03-02T13:18:43.000Z</time>
      </trkpt>
      <trkpt lat="45.34844" lon="6.19241">
        <ele>2632.1999511719</ele>
        <time>2014-03-02T13:18:44.000Z</time>
      </trkpt>
      <trkpt lat="45.34844" lon="6.1924">
        <ele>2631.8000488281</ele>
        <time>2014-03-02T13:18:45.000Z</time>
      </trkpt>
      <trkpt lat="45.34844" lon="6.1924">
        <ele>2631.8000488281</ele>
        <time>2014-03-02T13:18:46.000Z</time>
      </trkpt>
      <trkpt lat="45.34844" lon="6.1924">
        <ele>2631.8000488281</ele>
        <time>2014-03-02T13:18:47.000Z</time>
      </trkpt>
      <trkpt lat="45.34844" lon="6.1924">
        <ele>2631.8000488281</ele>
        <time>2014-03-02T13:18:48.000Z</time>
      </trkpt>
      <trkpt lat="45.34844" lon="6.1924">
        <ele>2631.8000488281</ele>
        <time>2014-03-02T13:18:49.000Z</time>
      </trkpt>
      <trkpt lat="45.34844" lon="6.1924">
        <ele>2631.8000488281</ele>
        <time>2014-03-02T13:18:50.000Z</time>
      </trkpt>
      <trkpt lat="45.34844" lon="6.1924">
        <ele>2631.8000488281</ele>
        <time>2014-03-02T13:18:51.000Z</time>
      </trkpt>
      <trkpt lat="45.34844" lon="6.1924">
        <ele>2631.8000488281</ele>
        <time>2014-03-02T13:18:52.000Z</time>
      </trkpt>
      <trkpt lat="45.34844" lon="6.1924">
        <ele>2631.8000488281</ele>
        <time>2014-03-02T13:18:53.000Z</time>
      </trkpt>
      <trkpt lat="45.34844" lon="6.1924">
        <ele>2631.8000488281</ele>
        <time>2014-03-02T13:18:54.000Z</time>
      </trkpt>
      <trkpt lat="45.34844" lon="6.1924">
        <ele>2631.8000488281</ele>
        <time>2014-03-02T13:18:55.000Z</time>
      </trkpt>
      <trkpt lat="45.34844" lon="6.1924">
        <ele>2631.8000488281</ele>
        <time>2014-03-02T13:18:56.000Z</time>
      </trkpt>
      <trkpt lat="45.34844" lon="6.1924">
        <ele>2631.8000488281</ele>
        <time>2014-03-02T13:18:57.000Z</time>
      </trkpt>
      <trkpt lat="45.34844" lon="6.1924">
        <ele>2631.8000488281</ele>
        <time>2014-03-02T13:18:58.000Z</time>
      </trkpt>
      <trkpt lat="45.34844" lon="6.1924">
        <ele>2631.8000488281</ele>
        <time>2014-03-02T13:18:59.000Z</time>
      </trkpt>
      <trkpt lat="45.34844" lon="6.1924">
        <ele>2631.8000488281</ele>
        <time>2014-03-02T13:19:00.000Z</time>
      </trkpt>
      <trkpt lat="45.34844" lon="6.1924">
        <ele>2631.8000488281</ele>
        <time>2014-03-02T13:19:01.000Z</time>
      </trkpt>
      <trkpt lat="45.34844" lon="6.1924">
        <ele>2631.8000488281</ele>
        <time>2014-03-02T13:19:02.000Z</time>
      </trkpt>
      <trkpt lat="45.34844" lon="6.1924">
        <ele>2631.8000488281</ele>
        <time>2014-03-02T13:19:05.000Z</time>
      </trkpt>
      <trkpt lat="45.34844" lon="6.1924">
        <ele>2631.8000488281</ele>
        <time>2014-03-02T13:19:06.000Z</time>
      </trkpt>
      <trkpt lat="45.34844" lon="6.1924">
        <ele>2631.8000488281</ele>
        <time>2014-03-02T13:19:07.000Z</time>
      </trkpt>
      <trkpt lat="45.34844" lon="6.1924">
        <ele>2631.8000488281</ele>
        <time>2014-03-02T13:19:10.000Z</time>
      </trkpt>
      <trkpt lat="45.34844" lon="6.1924">
        <ele>2631.8000488281</ele>
        <time>2014-03-02T13:19:11.000Z</time>
      </trkpt>
      <trkpt lat="45.34844" lon="6.19238">
        <ele>2631.1999511719</ele>
        <time>2014-03-02T13:19:12.000Z</time>
      </trkpt>
      <trkpt lat="45.34844" lon="6.19235">
        <ele>2630</ele>
        <time>2014-03-02T13:19:13.000Z</time>
      </trkpt>
      <trkpt lat="45.34842" lon="6.19232">
        <ele>2629.1999511719</ele>
        <time>2014-03-02T13:19:14.000Z</time>
      </trkpt>
      <trkpt lat="45.3484" lon="6.19231">
        <ele>2629</ele>
        <time>2014-03-02T13:19:15.000Z</time>
      </trkpt>
      <trkpt lat="45.34839" lon="6.19229">
        <ele>2628.3999023438</ele>
        <time>2014-03-02T13:19:16.000Z</time>
      </trkpt>
      <trkpt lat="45.34838" lon="6.19226">
        <ele>2627.8000488281</ele>
        <time>2014-03-02T13:19:17.000Z</time>
      </trkpt>
      <trkpt lat="45.34837" lon="6.19223">
        <ele>2627.6000976562</ele>
        <time>2014-03-02T13:19:18.000Z</time>
      </trkpt>
      <trkpt lat="45.34835" lon="6.19221">
        <ele>2627.3999023438</ele>
        <time>2014-03-02T13:19:19.000Z</time>
      </trkpt>
      <trkpt lat="45.34833" lon="6.1922">
        <ele>2627.3999023438</ele>
        <time>2014-03-02T13:19:20.000Z</time>
      </trkpt>
      <trkpt lat="45.34832" lon="6.19219">
        <ele>2627.3999023438</ele>
        <time>2014-03-02T13:19:21.000Z</time>
      </trkpt>
      <trkpt lat="45.34831" lon="6.19219">
        <ele>2627.3999023438</ele>
        <time>2014-03-02T13:19:22.000Z</time>
      </trkpt>
      <trkpt lat="45.34831" lon="6.19218">
        <ele>2627.3999023438</ele>
        <time>2014-03-02T13:19:23.000Z</time>
      </trkpt>
      <trkpt lat="45.34831" lon="6.19217">
        <ele>2627.3999023438</ele>
        <time>2014-03-02T13:19:24.000Z</time>
      </trkpt>
      <trkpt lat="45.34831" lon="6.19215">
        <ele>2627</ele>
        <time>2014-03-02T13:19:25.000Z</time>
      </trkpt>
      <trkpt lat="45.3483" lon="6.19212">
        <ele>2626.8000488281</ele>
        <time>2014-03-02T13:19:26.000Z</time>
      </trkpt>
      <trkpt lat="45.3483" lon="6.1921">
        <ele>2626.8000488281</ele>
        <time>2014-03-02T13:19:27.000Z</time>
      </trkpt>
      <trkpt lat="45.34829" lon="6.19209">
        <ele>2626.6000976562</ele>
        <time>2014-03-02T13:19:28.000Z</time>
      </trkpt>
      <trkpt lat="45.34828" lon="6.19208">
        <ele>2626.6000976562</ele>
        <time>2014-03-02T13:19:29.000Z</time>
      </trkpt>
      <trkpt lat="45.34828" lon="6.19206">
        <ele>2626.3999023438</ele>
        <time>2014-03-02T13:19:30.000Z</time>
      </trkpt>
      <trkpt lat="45.34829" lon="6.19206">
        <ele>2626.3999023438</ele>
        <time>2014-03-02T13:19:31.000Z</time>
      </trkpt>
      <trkpt lat="45.34828" lon="6.19203">
        <ele>2626.1999511719</ele>
        <time>2014-03-02T13:19:32.000Z</time>
      </trkpt>
      <trkpt lat="45.34827" lon="6.19201">
        <ele>2626</ele>
        <time>2014-03-02T13:19:33.000Z</time>
      </trkpt>
      <trkpt lat="45.34827" lon="6.19198">
        <ele>2625.6000976562</ele>
        <time>2014-03-02T13:19:34.000Z</time>
      </trkpt>
      <trkpt lat="45.34827" lon="6.19194">
        <ele>2625.3999023438</ele>
        <time>2014-03-02T13:19:35.000Z</time>
      </trkpt>
      <trkpt lat="45.34826" lon="6.19189">
        <ele>2625</ele>
        <time>2014-03-02T13:19:36.000Z</time>
      </trkpt>
      <trkpt lat="45.34825" lon="6.19185">
        <ele>2624.6000976562</ele>
        <time>2014-03-02T13:19:37.000Z</time>
      </trkpt>
      <trkpt lat="45.34824" lon="6.19182">
        <ele>2624.1999511719</ele>
        <time>2014-03-02T13:19:38.000Z</time>
      </trkpt>
      <trkpt lat="45.34822" lon="6.1918">
        <ele>2624.1999511719</ele>
        <time>2014-03-02T13:19:39.000Z</time>
      </trkpt>
      <trkpt lat="45.34821" lon="6.19178">
        <ele>2624</ele>
        <time>2014-03-02T13:19:40.000Z</time>
      </trkpt>
      <trkpt lat="45.34819" lon="6.19177">
        <ele>2624</ele>
        <time>2014-03-02T13:19:41.000Z</time>
      </trkpt>
      <trkpt lat="45.34823" lon="6.19181">
        <ele>2624.1999511719</ele>
        <time>2014-03-02T13:19:42.000Z</time>
      </trkpt>
      <trkpt lat="45.34825" lon="6.19184">
        <ele>2624.3999023438</ele>
        <time>2014-03-02T13:19:43.000Z</time>
      </trkpt>
      <trkpt lat="45.34827" lon="6.19186">
        <ele>2624.3999023438</ele>
        <time>2014-03-02T13:19:44.000Z</time>
      </trkpt>
      <trkpt lat="45.34829" lon="6.19187">
        <ele>2624.6000976562</ele>
        <time>2014-03-02T13:19:45.000Z</time>
      </trkpt>
      <trkpt lat="45.3483" lon="6.19188">
        <ele>2624.6000976562</ele>
        <time>2014-03-02T13:19:46.000Z</time>
      </trkpt>
      <trkpt lat="45.34831" lon="6.19189">
        <ele>2624.6000976562</ele>
        <time>2014-03-02T13:19:47.000Z</time>
      </trkpt>
      <trkpt lat="45.34832" lon="6.1919">
        <ele>2624.8000488281</ele>
        <time>2014-03-02T13:19:48.000Z</time>
      </trkpt>
      <trkpt lat="45.34832" lon="6.19191">
        <ele>2624.8000488281</ele>
        <time>2014-03-02T13:19:49.000Z</time>
      </trkpt>
      <trkpt lat="45.34833" lon="6.19192">
        <ele>2624.8000488281</ele>
        <time>2014-03-02T13:19:50.000Z</time>
      </trkpt>
      <trkpt lat="45.34833" lon="6.19192">
        <ele>2624.8000488281</ele>
        <time>2014-03-02T13:19:51.000Z</time>
      </trkpt>
      <trkpt lat="45.34833" lon="6.19193">
        <ele>2625</ele>
        <time>2014-03-02T13:19:52.000Z</time>
      </trkpt>
      <trkpt lat="45.34833" lon="6.19194">
        <ele>2625</ele>
        <time>2014-03-02T13:19:53.000Z</time>
      </trkpt>
      <trkpt lat="45.34833" lon="6.19195">
        <ele>2625</ele>
        <time>2014-03-02T13:19:54.000Z</time>
      </trkpt>
      <trkpt lat="45.34833" lon="6.19195">
        <ele>2625</ele>
        <time>2014-03-02T13:19:55.000Z</time>
      </trkpt>
      <trkpt lat="45.34834" lon="6.19193">
        <ele>2625</ele>
        <time>2014-03-02T13:19:56.000Z</time>
      </trkpt>
      <trkpt lat="45.34834" lon="6.1919">
        <ele>2624.6000976562</ele>
        <time>2014-03-02T13:19:57.000Z</time>
      </trkpt>
      <trkpt lat="45.34834" lon="6.19187">
        <ele>2624.1999511719</ele>
        <time>2014-03-02T13:19:58.000Z</time>
      </trkpt>
      <trkpt lat="45.34835" lon="6.19183">
        <ele>2623.8000488281</ele>
        <time>2014-03-02T13:19:59.000Z</time>
      </trkpt>
      <trkpt lat="45.34835" lon="6.19179">
        <ele>2622.8000488281</ele>
        <time>2014-03-02T13:20:00.000Z</time>
      </trkpt>
      <trkpt lat="45.34834" lon="6.19175">
        <ele>2621.8000488281</ele>
        <time>2014-03-02T13:20:01.000Z</time>
      </trkpt>
      <trkpt lat="45.34833" lon="6.19171">
        <ele>2620.6000976562</ele>
        <time>2014-03-02T13:20:02.000Z</time>
      </trkpt>
      <trkpt lat="45.34831" lon="6.19166">
        <ele>2620</ele>
        <time>2014-03-02T13:20:03.000Z</time>
      </trkpt>
      <trkpt lat="45.34829" lon="6.19162">
        <ele>2619</ele>
        <time>2014-03-02T13:20:04.000Z</time>
      </trkpt>
      <trkpt lat="45.34828" lon="6.19157">
        <ele>2618</ele>
        <time>2014-03-02T13:20:05.000Z</time>
      </trkpt>
      <trkpt lat="45.34827" lon="6.19153">
        <ele>2616.8000488281</ele>
        <time>2014-03-02T13:20:06.000Z</time>
      </trkpt>
      <trkpt lat="45.34826" lon="6.19148">
        <ele>2615.8000488281</ele>
        <time>2014-03-02T13:20:07.000Z</time>
      </trkpt>
      <trkpt lat="45.34825" lon="6.19143">
        <ele>2614.1999511719</ele>
        <time>2014-03-02T13:20:08.000Z</time>
      </trkpt>
      <trkpt lat="45.34824" lon="6.19138">
        <ele>2612.3999023438</ele>
        <time>2014-03-02T13:20:09.000Z</time>
      </trkpt>
      <trkpt lat="45.34823" lon="6.19134">
        <ele>2610.8000488281</ele>
        <time>2014-03-02T13:20:10.000Z</time>
      </trkpt>
      <trkpt lat="45.34821" lon="6.1913">
        <ele>2609.6000976562</ele>
        <time>2014-03-02T13:20:11.000Z</time>
      </trkpt>
      <trkpt lat="45.3482" lon="6.19125">
        <ele>2607.8000488281</ele>
        <time>2014-03-02T13:20:12.000Z</time>
      </trkpt>
      <trkpt lat="45.34819" lon="6.1912">
        <ele>2606.3999023438</ele>
        <time>2014-03-02T13:20:13.000Z</time>
      </trkpt>
      <trkpt lat="45.34817" lon="6.19115">
        <ele>2604.3999023438</ele>
        <time>2014-03-02T13:20:14.000Z</time>
      </trkpt>
      <trkpt lat="45.34818" lon="6.19115">
        <ele>2604.1999511719</ele>
        <time>2014-03-02T13:20:15.000Z</time>
      </trkpt>
      <trkpt lat="45.34818" lon="6.19111">
        <ele>2602.6000976562</ele>
        <time>2014-03-02T13:20:16.000Z</time>
      </trkpt>
      <trkpt lat="45.34818" lon="6.19107">
        <ele>2601</ele>
        <time>2014-03-02T13:20:17.000Z</time>
      </trkpt>
      <trkpt lat="45.34818" lon="6.19101">
        <ele>2598.3999023438</ele>
        <time>2014-03-02T13:20:18.000Z</time>
      </trkpt>
      <trkpt lat="45.34818" lon="6.19097">
        <ele>2596.8000488281</ele>
        <time>2014-03-02T13:20:19.000Z</time>
      </trkpt>
      <trkpt lat="45.34818" lon="6.19094">
        <ele>2595.1999511719</ele>
        <time>2014-03-02T13:20:20.000Z</time>
      </trkpt>
      <trkpt lat="45.34819" lon="6.19089">
        <ele>2593</ele>
        <time>2014-03-02T13:20:21.000Z</time>
      </trkpt>
      <trkpt lat="45.34818" lon="6.19083">
        <ele>2590.8000488281</ele>
        <time>2014-03-02T13:20:22.000Z</time>
      </trkpt>
      <trkpt lat="45.34817" lon="6.19076">
        <ele>2583.8000488281</ele>
        <time>2014-03-02T13:20:23.000Z</time>
      </trkpt>
      <trkpt lat="45.34817" lon="6.19071">
        <ele>2577.1999511719</ele>
        <time>2014-03-02T13:20:24.000Z</time>
      </trkpt>
      <trkpt lat="45.34818" lon="6.19067">
        <ele>2572</ele>
        <time>2014-03-02T13:20:25.000Z</time>
      </trkpt>
      <trkpt lat="45.34819" lon="6.1906">
        <ele>2563</ele>
        <time>2014-03-02T13:20:26.000Z</time>
      </trkpt>
      <trkpt lat="45.34819" lon="6.19054">
        <ele>2554.8000488281</ele>
        <time>2014-03-02T13:20:27.000Z</time>
      </trkpt>
      <trkpt lat="45.34819" lon="6.19047">
        <ele>2546.3999023438</ele>
        <time>2014-03-02T13:20:28.000Z</time>
      </trkpt>
      <trkpt lat="45.34819" lon="6.1904">
        <ele>2536.8000488281</ele>
        <time>2014-03-02T13:20:29.000Z</time>
      </trkpt>
      <trkpt lat="45.34819" lon="6.19033">
        <ele>2527.1999511719</ele>
        <time>2014-03-02T13:20:30.000Z</time>
      </trkpt>
      <trkpt lat="45.3482" lon="6.19025">
        <ele>2517.6000976562</ele>
        <time>2014-03-02T13:20:31.000Z</time>
      </trkpt>
      <trkpt lat="45.3482" lon="6.19017">
        <ele>2506.1999511719</ele>
        <time>2014-03-02T13:20:32.000Z</time>
      </trkpt>
      <trkpt lat="45.3482" lon="6.19008">
        <ele>2494.8000488281</ele>
        <time>2014-03-02T13:20:33.000Z</time>
      </trkpt>
      <trkpt lat="45.34821" lon="6.18999">
        <ele>2485.8000488281</ele>
        <time>2014-03-02T13:20:34.000Z</time>
      </trkpt>
      <trkpt lat="45.34819" lon="6.18991">
        <ele>2484.1999511719</ele>
        <time>2014-03-02T13:20:35.000Z</time>
      </trkpt>
      <trkpt lat="45.34816" lon="6.18985">
        <ele>2483.1999511719</ele>
        <time>2014-03-02T13:20:36.000Z</time>
      </trkpt>
      <trkpt lat="45.34813" lon="6.18982">
        <ele>2482.3999023438</ele>
        <time>2014-03-02T13:20:37.000Z</time>
      </trkpt>
      <trkpt lat="45.34811" lon="6.18981">
        <ele>2482.1999511719</ele>
        <time>2014-03-02T13:20:38.000Z</time>
      </trkpt>
      <trkpt lat="45.34809" lon="6.18981">
        <ele>2482</ele>
        <time>2014-03-02T13:20:39.000Z</time>
      </trkpt>
      <trkpt lat="45.34809" lon="6.18981">
        <ele>2482</ele>
        <time>2014-03-02T13:20:40.000Z</time>
      </trkpt>
      <trkpt lat="45.34809" lon="6.18981">
        <ele>2482</ele>
        <time>2014-03-02T13:20:41.000Z</time>
      </trkpt>
      <trkpt lat="45.34809" lon="6.18982">
        <ele>2482.1999511719</ele>
        <time>2014-03-02T13:20:42.000Z</time>
      </trkpt>
      <trkpt lat="45.34809" lon="6.18982">
        <ele>2482.1999511719</ele>
        <time>2014-03-02T13:20:43.000Z</time>
      </trkpt>
      <trkpt lat="45.34809" lon="6.18983">
        <ele>2482.3999023438</ele>
        <time>2014-03-02T13:20:44.000Z</time>
      </trkpt>
      <trkpt lat="45.34808" lon="6.18984">
        <ele>2482.6000976562</ele>
        <time>2014-03-02T13:20:45.000Z</time>
      </trkpt>
      <trkpt lat="45.34808" lon="6.18985">
        <ele>2482.8000488281</ele>
        <time>2014-03-02T13:20:46.000Z</time>
      </trkpt>
      <trkpt lat="45.34808" lon="6.18986">
        <ele>2482.8000488281</ele>
        <time>2014-03-02T13:20:47.000Z</time>
      </trkpt>
      <trkpt lat="45.34808" lon="6.18986">
        <ele>2482.8000488281</ele>
        <time>2014-03-02T13:20:48.000Z</time>
      </trkpt>
      <trkpt lat="45.34808" lon="6.18986">
        <ele>2482.8000488281</ele>
        <time>2014-03-02T13:20:49.000Z</time>
      </trkpt>
      <trkpt lat="45.34808" lon="6.18986">
        <ele>2482.8000488281</ele>
        <time>2014-03-02T13:20:50.000Z</time>
      </trkpt>
      <trkpt lat="45.34808" lon="6.18986">
        <ele>2482.8000488281</ele>
        <time>2014-03-02T13:20:52.000Z</time>
      </trkpt>
      <trkpt lat="45.34808" lon="6.18986">
        <ele>2482.8000488281</ele>
        <time>2014-03-02T13:20:53.000Z</time>
      </trkpt>
      <trkpt lat="45.34808" lon="6.18986">
        <ele>2482.8000488281</ele>
        <time>2014-03-02T13:20:54.000Z</time>
      </trkpt>
      <trkpt lat="45.34808" lon="6.18986">
        <ele>2482.8000488281</ele>
        <time>2014-03-02T13:20:55.000Z</time>
      </trkpt>
      <trkpt lat="45.34808" lon="6.18986">
        <ele>2482.8000488281</ele>
        <time>2014-03-02T13:20:56.000Z</time>
      </trkpt>
      <trkpt lat="45.34808" lon="6.18986">
        <ele>2482.8000488281</ele>
        <time>2014-03-02T13:20:57.000Z</time>
      </trkpt>
      <trkpt lat="45.34808" lon="6.18986">
        <ele>2482.8000488281</ele>
        <time>2014-03-02T13:20:58.000Z</time>
      </trkpt>
      <trkpt lat="45.34808" lon="6.18986">
        <ele>2482.8000488281</ele>
        <time>2014-03-02T13:20:59.000Z</time>
      </trkpt>
      <trkpt lat="45.34808" lon="6.18986">
        <ele>2482.8000488281</ele>
        <time>2014-03-02T13:21:00.000Z</time>
      </trkpt>
      <trkpt lat="45.34808" lon="6.18986">
        <ele>2482.8000488281</ele>
        <time>2014-03-02T13:21:01.000Z</time>
      </trkpt>
      <trkpt lat="45.34808" lon="6.18986">
        <ele>2482.8000488281</ele>
        <time>2014-03-02T13:21:02.000Z</time>
      </trkpt>
      <trkpt lat="45.34808" lon="6.18986">
        <ele>2482.8000488281</ele>
        <time>2014-03-02T13:21:03.000Z</time>
      </trkpt>
      <trkpt lat="45.34808" lon="6.18986">
        <ele>2482.8000488281</ele>
        <time>2014-03-02T13:21:04.000Z</time>
      </trkpt>
      <trkpt lat="45.34808" lon="6.18986">
        <ele>2482.8000488281</ele>
        <time>2014-03-02T13:21:11.000Z</time>
      </trkpt>
      <trkpt lat="45.34808" lon="6.18986">
        <ele>2482.8000488281</ele>
        <time>2014-03-02T13:21:12.000Z</time>
      </trkpt>
      <trkpt lat="45.34808" lon="6.18986">
        <ele>2482.8000488281</ele>
        <time>2014-03-02T13:21:14.000Z</time>
      </trkpt>
      <trkpt lat="45.34808" lon="6.18986">
        <ele>2482.8000488281</ele>
        <time>2014-03-02T13:21:15.000Z</time>
      </trkpt>
      <trkpt lat="45.34808" lon="6.18986">
        <ele>2482.8000488281</ele>
        <time>2014-03-02T13:21:16.000Z</time>
      </trkpt>
      <trkpt lat="45.34808" lon="6.18986">
        <ele>2482.8000488281</ele>
        <time>2014-03-02T13:21:17.000Z</time>
      </trkpt>
      <trkpt lat="45.34808" lon="6.18986">
        <ele>2482.8000488281</ele>
        <time>2014-03-02T13:21:19.000Z</time>
      </trkpt>
      <trkpt lat="45.34808" lon="6.18986">
        <ele>2482.8000488281</ele>
        <time>2014-03-02T13:21:20.000Z</time>
      </trkpt>
      <trkpt lat="45.34808" lon="6.18986">
        <ele>2482.8000488281</ele>
        <time>2014-03-02T13:21:21.000Z</time>
      </trkpt>
      <trkpt lat="45.34808" lon="6.18986">
        <ele>2482.8000488281</ele>
        <time>2014-03-02T13:21:22.000Z</time>
      </trkpt>
      <trkpt lat="45.34808" lon="6.18986">
        <ele>2482.8000488281</ele>
        <time>2014-03-02T13:21:23.000Z</time>
      </trkpt>
      <trkpt lat="45.34808" lon="6.18986">
        <ele>2482.8000488281</ele>
        <time>2014-03-02T13:21:24.000Z</time>
      </trkpt>
      <trkpt lat="45.34808" lon="6.18986">
        <ele>2482.8000488281</ele>
        <time>2014-03-02T13:21:25.000Z</time>
      </trkpt>
      <trkpt lat="45.34808" lon="6.18986">
        <ele>2482.8000488281</ele>
        <time>2014-03-02T13:21:26.000Z</time>
      </trkpt>
      <trkpt lat="45.34809" lon="6.18986">
        <ele>2482.8000488281</ele>
        <time>2014-03-02T13:21:27.000Z</time>
      </trkpt>
      <trkpt lat="45.34809" lon="6.18986">
        <ele>2482.8000488281</ele>
        <time>2014-03-02T13:21:28.000Z</time>
      </trkpt>
      <trkpt lat="45.34809" lon="6.18986">
        <ele>2482.8000488281</ele>
        <time>2014-03-02T13:21:29.000Z</time>
      </trkpt>
      <trkpt lat="45.34809" lon="6.18986">
        <ele>2482.8000488281</ele>
        <time>2014-03-02T13:21:30.000Z</time>
      </trkpt>
      <trkpt lat="45.34809" lon="6.18986">
        <ele>2482.8000488281</ele>
        <time>2014-03-02T13:21:31.000Z</time>
      </trkpt>
      <trkpt lat="45.34809" lon="6.18986">
        <ele>2482.8000488281</ele>
        <time>2014-03-02T13:21:32.000Z</time>
      </trkpt>
      <trkpt lat="45.34809" lon="6.18986">
        <ele>2482.8000488281</ele>
        <time>2014-03-02T13:21:33.000Z</time>
      </trkpt>
      <trkpt lat="45.34809" lon="6.18986">
        <ele>2482.8000488281</ele>
        <time>2014-03-02T13:21:34.000Z</time>
      </trkpt>
      <trkpt lat="45.34809" lon="6.18986">
        <ele>2482.8000488281</ele>
        <time>2014-03-02T13:21:35.000Z</time>
      </trkpt>
      <trkpt lat="45.34809" lon="6.18986">
        <ele>2482.8000488281</ele>
        <time>2014-03-02T13:21:36.000Z</time>
      </trkpt>
      <trkpt lat="45.34809" lon="6.18986">
        <ele>2482.8000488281</ele>
        <time>2014-03-02T13:21:37.000Z</time>
      </trkpt>
      <trkpt lat="45.34809" lon="6.18986">
        <ele>2482.8000488281</ele>
        <time>2014-03-02T13:21:38.000Z</time>
      </trkpt>
      <trkpt lat="45.34809" lon="6.18986">
        <ele>2482.8000488281</ele>
        <time>2014-03-02T13:21:39.000Z</time>
      </trkpt>
      <trkpt lat="45.34809" lon="6.18986">
        <ele>2482.8000488281</ele>
        <time>2014-03-02T13:21:40.000Z</time>
      </trkpt>
      <trkpt lat="45.34809" lon="6.18986">
        <ele>2482.8000488281</ele>
        <time>2014-03-02T13:21:41.000Z</time>
      </trkpt>
      <trkpt lat="45.34809" lon="6.18986">
        <ele>2482.8000488281</ele>
        <time>2014-03-02T13:21:42.000Z</time>
      </trkpt>
      <trkpt lat="45.34809" lon="6.18986">
        <ele>2482.8000488281</ele>
        <time>2014-03-02T13:21:47.000Z</time>
      </trkpt>
      <trkpt lat="45.34809" lon="6.18986">
        <ele>2482.8000488281</ele>
        <time>2014-03-02T13:21:48.000Z</time>
      </trkpt>
      <trkpt lat="45.34809" lon="6.18985">
        <ele>2482.8000488281</ele>
        <time>2014-03-02T13:21:49.000Z</time>
      </trkpt>
      <trkpt lat="45.34808" lon="6.18982">
        <ele>2482.1999511719</ele>
        <time>2014-03-02T13:21:50.000Z</time>
      </trkpt>
      <trkpt lat="45.34806" lon="6.18977">
        <ele>2481.1999511719</ele>
        <time>2014-03-02T13:21:51.000Z</time>
      </trkpt>
      <trkpt lat="45.34805" lon="6.1897">
        <ele>2480</ele>
        <time>2014-03-02T13:21:52.000Z</time>
      </trkpt>
      <trkpt lat="45.34803" lon="6.18964">
        <ele>2478.6000976562</ele>
        <time>2014-03-02T13:21:53.000Z</time>
      </trkpt>
      <trkpt lat="45.34801" lon="6.18957">
        <ele>2477.1999511719</ele>
        <time>2014-03-02T13:21:54.000Z</time>
      </trkpt>
      <trkpt lat="45.348" lon="6.18949">
        <ele>2475.8000488281</ele>
        <time>2014-03-02T13:21:55.000Z</time>
      </trkpt>
      <trkpt lat="45.34799" lon="6.18941">
        <ele>2474.3999023438</ele>
        <time>2014-03-02T13:21:56.000Z</time>
      </trkpt>
      <trkpt lat="45.34798" lon="6.18932">
        <ele>2472.6000976562</ele>
        <time>2014-03-02T13:21:57.000Z</time>
      </trkpt>
      <trkpt lat="45.34798" lon="6.18922">
        <ele>2470.8000488281</ele>
        <time>2014-03-02T13:21:58.000Z</time>
      </trkpt>
      <trkpt lat="45.34798" lon="6.18913">
        <ele>2469.1999511719</ele>
        <time>2014-03-02T13:21:59.000Z</time>
      </trkpt>
      <trkpt lat="45.34797" lon="6.18904">
        <ele>2467.8000488281</ele>
        <time>2014-03-02T13:22:00.000Z</time>
      </trkpt>
      <trkpt lat="45.34796" lon="6.18897">
        <ele>2466.6000976562</ele>
        <time>2014-03-02T13:22:01.000Z</time>
      </trkpt>
      <trkpt lat="45.34794" lon="6.18889">
        <ele>2464.8000488281</ele>
        <time>2014-03-02T13:22:02.000Z</time>
      </trkpt>
      <trkpt lat="45.34793" lon="6.18881">
        <ele>2463.1999511719</ele>
        <time>2014-03-02T13:22:03.000Z</time>
      </trkpt>
      <trkpt lat="45.34791" lon="6.18875">
        <ele>2461.8000488281</ele>
        <time>2014-03-02T13:22:04.000Z</time>
      </trkpt>
      <trkpt lat="45.3479" lon="6.18869">
        <ele>2460.6000976562</ele>
        <time>2014-03-02T13:22:05.000Z</time>
      </trkpt>
      <trkpt lat="45.34787" lon="6.18864">
        <ele>2459.8000488281</ele>
        <time>2014-03-02T13:22:06.000Z</time>
      </trkpt>
      <trkpt lat="45.34783" lon="6.18861">
        <ele>2459</ele>
        <time>2014-03-02T13:22:07.000Z</time>
      </trkpt>
      <trkpt lat="45.34779" lon="6.1886">
        <ele>2458.6000976562</ele>
        <time>2014-03-02T13:22:08.000Z</time>
      </trkpt>
      <trkpt lat="45.34775" lon="6.18858">
        <ele>2458.1999511719</ele>
        <time>2014-03-02T13:22:09.000Z</time>
      </trkpt>
      <trkpt lat="45.34772" lon="6.18857">
        <ele>2457.8000488281</ele>
        <time>2014-03-02T13:22:10.000Z</time>
      </trkpt>
      <trkpt lat="45.34771" lon="6.18856">
        <ele>2457.6000976562</ele>
        <time>2014-03-02T13:22:11.000Z</time>
      </trkpt>
      <trkpt lat="45.3477" lon="6.18856">
        <ele>2457.3999023438</ele>
        <time>2014-03-02T13:22:12.000Z</time>
      </trkpt>
      <trkpt lat="45.34769" lon="6.18856">
        <ele>2457.3999023438</ele>
        <time>2014-03-02T13:22:13.000Z</time>
      </trkpt>
      <trkpt lat="45.34769" lon="6.18857">
        <ele>2457.6000976562</ele>
        <time>2014-03-02T13:22:14.000Z</time>
      </trkpt>
      <trkpt lat="45.3477" lon="6.18858">
        <ele>2457.8000488281</ele>
        <time>2014-03-02T13:22:15.000Z</time>
      </trkpt>
      <trkpt lat="45.34771" lon="6.18859">
        <ele>2458</ele>
        <time>2014-03-02T13:22:16.000Z</time>
      </trkpt>
      <trkpt lat="45.34772" lon="6.18859">
        <ele>2458.1999511719</ele>
        <time>2014-03-02T13:22:17.000Z</time>
      </trkpt>
      <trkpt lat="45.34772" lon="6.1886">
        <ele>2458.3999023438</ele>
        <time>2014-03-02T13:22:18.000Z</time>
      </trkpt>
      <trkpt lat="45.34773" lon="6.18861">
        <ele>2458.6000976562</ele>
        <time>2014-03-02T13:22:19.000Z</time>
      </trkpt>
      <trkpt lat="45.34773" lon="6.18861">
        <ele>2458.6000976562</ele>
        <time>2014-03-02T13:22:20.000Z</time>
      </trkpt>
      <trkpt lat="45.34773" lon="6.18862">
        <ele>2458.8000488281</ele>
        <time>2014-03-02T13:22:21.000Z</time>
      </trkpt>
      <trkpt lat="45.34773" lon="6.18862">
        <ele>2458.8000488281</ele>
        <time>2014-03-02T13:22:22.000Z</time>
      </trkpt>
      <trkpt lat="45.34774" lon="6.18864">
        <ele>2459.1999511719</ele>
        <time>2014-03-02T13:22:24.000Z</time>
      </trkpt>
      <trkpt lat="45.34774" lon="6.18865">
        <ele>2459.3999023438</ele>
        <time>2014-03-02T13:22:25.000Z</time>
      </trkpt>
      <trkpt lat="45.34774" lon="6.18865">
        <ele>2459.3999023438</ele>
        <time>2014-03-02T13:22:26.000Z</time>
      </trkpt>
      <trkpt lat="45.34774" lon="6.18866">
        <ele>2459.8000488281</ele>
        <time>2014-03-02T13:22:31.000Z</time>
      </trkpt>
      <trkpt lat="45.34774" lon="6.18866">
        <ele>2459.8000488281</ele>
        <time>2014-03-02T13:22:32.000Z</time>
      </trkpt>
      <trkpt lat="45.34774" lon="6.18866">
        <ele>2459.8000488281</ele>
        <time>2014-03-02T13:22:33.000Z</time>
      </trkpt>
      <trkpt lat="45.34774" lon="6.18866">
        <ele>2459.8000488281</ele>
        <time>2014-03-02T13:22:34.000Z</time>
      </trkpt>
      <trkpt lat="45.34774" lon="6.18866">
        <ele>2459.8000488281</ele>
        <time>2014-03-02T13:22:35.000Z</time>
      </trkpt>
      <trkpt lat="45.34774" lon="6.18866">
        <ele>2459.8000488281</ele>
        <time>2014-03-02T13:22:37.000Z</time>
      </trkpt>
      <trkpt lat="45.34774" lon="6.18866">
        <ele>2459.8000488281</ele>
        <time>2014-03-02T13:22:41.000Z</time>
      </trkpt>
      <trkpt lat="45.34774" lon="6.18866">
        <ele>2459.8000488281</ele>
        <time>2014-03-02T13:22:44.000Z</time>
      </trkpt>
      <trkpt lat="45.34774" lon="6.18866">
        <ele>2459.8000488281</ele>
        <time>2014-03-02T13:22:45.000Z</time>
      </trkpt>
      <trkpt lat="45.34774" lon="6.18866">
        <ele>2459.8000488281</ele>
        <time>2014-03-02T13:22:47.000Z</time>
      </trkpt>
      <trkpt lat="45.34774" lon="6.18866">
        <ele>2459.8000488281</ele>
        <time>2014-03-02T13:22:54.000Z</time>
      </trkpt>
      <trkpt lat="45.34774" lon="6.18866">
        <ele>2459.8000488281</ele>
        <time>2014-03-02T13:22:58.000Z</time>
      </trkpt>
      <trkpt lat="45.34774" lon="6.18866">
        <ele>2459.8000488281</ele>
        <time>2014-03-02T13:22:59.000Z</time>
      </trkpt>
      <trkpt lat="45.34774" lon="6.18866">
        <ele>2459.8000488281</ele>
        <time>2014-03-02T13:23:00.000Z</time>
      </trkpt>
      <trkpt lat="45.34774" lon="6.18866">
        <ele>2459.8000488281</ele>
        <time>2014-03-02T13:23:01.000Z</time>
      </trkpt>
      <trkpt lat="45.34774" lon="6.18866">
        <ele>2459.8000488281</ele>
        <time>2014-03-02T13:23:07.000Z</time>
      </trkpt>
      <trkpt lat="45.34775" lon="6.18866">
        <ele>2459.6000976562</ele>
        <time>2014-03-02T13:23:13.000Z</time>
      </trkpt>
      <trkpt lat="45.34775" lon="6.18866">
        <ele>2459.6000976562</ele>
        <time>2014-03-02T13:23:15.000Z</time>
      </trkpt>
      <trkpt lat="45.34775" lon="6.18866">
        <ele>2459.6000976562</ele>
        <time>2014-03-02T13:23:16.000Z</time>
      </trkpt>
      <trkpt lat="45.34775" lon="6.18866">
        <ele>2459.6000976562</ele>
        <time>2014-03-02T13:23:19.000Z</time>
      </trkpt>
      <trkpt lat="45.34775" lon="6.18866">
        <ele>2459.6000976562</ele>
        <time>2014-03-02T13:23:21.000Z</time>
      </trkpt>
      <trkpt lat="45.34775" lon="6.18866">
        <ele>2459.6000976562</ele>
        <time>2014-03-02T13:23:22.000Z</time>
      </trkpt>
      <trkpt lat="45.34775" lon="6.18866">
        <ele>2459.6000976562</ele>
        <time>2014-03-02T13:23:23.000Z</time>
      </trkpt>
      <trkpt lat="45.34775" lon="6.18866">
        <ele>2459.6000976562</ele>
        <time>2014-03-02T13:23:25.000Z</time>
      </trkpt>
      <trkpt lat="45.34775" lon="6.18866">
        <ele>2459.6000976562</ele>
        <time>2014-03-02T13:23:26.000Z</time>
      </trkpt>
      <trkpt lat="45.34775" lon="6.18866">
        <ele>2459.6000976562</ele>
        <time>2014-03-02T13:23:27.000Z</time>
      </trkpt>
      <trkpt lat="45.34775" lon="6.18866">
        <ele>2459.6000976562</ele>
        <time>2014-03-02T13:23:28.000Z</time>
      </trkpt>
      <trkpt lat="45.34775" lon="6.18866">
        <ele>2459.6000976562</ele>
        <time>2014-03-02T13:23:29.000Z</time>
      </trkpt>
      <trkpt lat="45.34775" lon="6.18866">
        <ele>2459.6000976562</ele>
        <time>2014-03-02T13:23:30.000Z</time>
      </trkpt>
      <trkpt lat="45.34775" lon="6.18866">
        <ele>2459.6000976562</ele>
        <time>2014-03-02T13:23:34.000Z</time>
      </trkpt>
      <trkpt lat="45.34775" lon="6.18866">
        <ele>2459.6000976562</ele>
        <time>2014-03-02T13:23:39.000Z</time>
      </trkpt>
      <trkpt lat="45.34775" lon="6.18866">
        <ele>2459.6000976562</ele>
        <time>2014-03-02T13:23:40.000Z</time>
      </trkpt>
      <trkpt lat="45.34775" lon="6.18863">
        <ele>2459.1999511719</ele>
        <time>2014-03-02T13:23:41.000Z</time>
      </trkpt>
      <trkpt lat="45.34774" lon="6.1886">
        <ele>2458.3999023438</ele>
        <time>2014-03-02T13:23:42.000Z</time>
      </trkpt>
      <trkpt lat="45.34773" lon="6.18852">
        <ele>2457</ele>
        <time>2014-03-02T13:23:43.000Z</time>
      </trkpt>
      <trkpt lat="45.34772" lon="6.18848">
        <ele>2456</ele>
        <time>2014-03-02T13:23:44.000Z</time>
      </trkpt>
      <trkpt lat="45.34771" lon="6.18846">
        <ele>2455.6000976562</ele>
        <time>2014-03-02T13:23:45.000Z</time>
      </trkpt>
      <trkpt lat="45.34771" lon="6.18845">
        <ele>2455.3999023438</ele>
        <time>2014-03-02T13:23:46.000Z</time>
      </trkpt>
      <trkpt lat="45.3477" lon="6.18845">
        <ele>2455.3999023438</ele>
        <time>2014-03-02T13:23:47.000Z</time>
      </trkpt>
      <trkpt lat="45.3477" lon="6.18845">
        <ele>2455.3999023438</ele>
        <time>2014-03-02T13:23:48.000Z</time>
      </trkpt>
      <trkpt lat="45.3477" lon="6.18845">
        <ele>2455.3999023438</ele>
        <time>2014-03-02T13:23:49.000Z</time>
      </trkpt>
      <trkpt lat="45.3477" lon="6.18845">
        <ele>2455.3999023438</ele>
        <time>2014-03-02T13:23:50.000Z</time>
      </trkpt>
      <trkpt lat="45.3477" lon="6.18845">
        <ele>2455.3999023438</ele>
        <time>2014-03-02T13:23:51.000Z</time>
      </trkpt>
      <trkpt lat="45.3477" lon="6.18845">
        <ele>2455.3999023438</ele>
        <time>2014-03-02T13:23:52.000Z</time>
      </trkpt>
      <trkpt lat="45.3477" lon="6.18845">
        <ele>2455.3999023438</ele>
        <time>2014-03-02T13:23:53.000Z</time>
      </trkpt>
      <trkpt lat="45.3477" lon="6.18845">
        <ele>2455.3999023438</ele>
        <time>2014-03-02T13:23:54.000Z</time>
      </trkpt>
      <trkpt lat="45.3477" lon="6.18845">
        <ele>2455.3999023438</ele>
        <time>2014-03-02T13:23:56.000Z</time>
      </trkpt>
      <trkpt lat="45.3477" lon="6.18845">
        <ele>2455.3999023438</ele>
        <time>2014-03-02T13:24:00.000Z</time>
      </trkpt>
      <trkpt lat="45.3477" lon="6.18845">
        <ele>2455.3999023438</ele>
        <time>2014-03-02T13:24:03.000Z</time>
      </trkpt>
      <trkpt lat="45.3477" lon="6.18845">
        <ele>2455.3999023438</ele>
        <time>2014-03-02T13:24:04.000Z</time>
      </trkpt>
      <trkpt lat="45.3477" lon="6.18845">
        <ele>2455.3999023438</ele>
        <time>2014-03-02T13:24:05.000Z</time>
      </trkpt>
      <trkpt lat="45.3477" lon="6.18845">
        <ele>2455.3999023438</ele>
        <time>2014-03-02T13:24:06.000Z</time>
      </trkpt>
      <trkpt lat="45.3477" lon="6.18845">
        <ele>2455.3999023438</ele>
        <time>2014-03-02T13:24:07.000Z</time>
      </trkpt>
      <trkpt lat="45.3477" lon="6.18845">
        <ele>2455.3999023438</ele>
        <time>2014-03-02T13:24:12.000Z</time>
      </trkpt>
      <trkpt lat="45.3477" lon="6.18845">
        <ele>2455.3999023438</ele>
        <time>2014-03-02T13:24:13.000Z</time>
      </trkpt>
      <trkpt lat="45.3477" lon="6.18841">
        <ele>2454.6000976562</ele>
        <time>2014-03-02T13:24:15.000Z</time>
      </trkpt>
      <trkpt lat="45.34768" lon="6.18835">
        <ele>2453.3999023438</ele>
        <time>2014-03-02T13:24:17.000Z</time>
      </trkpt>
      <trkpt lat="45.34766" lon="6.18831">
        <ele>2452.6000976562</ele>
        <time>2014-03-02T13:24:18.000Z</time>
      </trkpt>
      <trkpt lat="45.34764" lon="6.18827">
        <ele>2451.8000488281</ele>
        <time>2014-03-02T13:24:19.000Z</time>
      </trkpt>
      <trkpt lat="45.34762" lon="6.18824">
        <ele>2451.1999511719</ele>
        <time>2014-03-02T13:24:20.000Z</time>
      </trkpt>
      <trkpt lat="45.3476" lon="6.18821">
        <ele>2450.3999023438</ele>
        <time>2014-03-02T13:24:21.000Z</time>
      </trkpt>
      <trkpt lat="45.34759" lon="6.18818">
        <ele>2450</ele>
        <time>2014-03-02T13:24:22.000Z</time>
      </trkpt>
      <trkpt lat="45.34758" lon="6.18816">
        <ele>2449.3999023438</ele>
        <time>2014-03-02T13:24:23.000Z</time>
      </trkpt>
      <trkpt lat="45.34758" lon="6.18815">
        <ele>2449.1999511719</ele>
        <time>2014-03-02T13:24:24.000Z</time>
      </trkpt>
      <trkpt lat="45.34758" lon="6.18815">
        <ele>2449.1999511719</ele>
        <time>2014-03-02T13:24:25.000Z</time>
      </trkpt>
      <trkpt lat="45.34758" lon="6.18815">
        <ele>2449.1999511719</ele>
        <time>2014-03-02T13:24:26.000Z</time>
      </trkpt>
      <trkpt lat="45.34758" lon="6.18815">
        <ele>2449.3999023438</ele>
        <time>2014-03-02T13:24:27.000Z</time>
      </trkpt>
      <trkpt lat="45.34758" lon="6.18816">
        <ele>2449.3999023438</ele>
        <time>2014-03-02T13:24:28.000Z</time>
      </trkpt>
      <trkpt lat="45.34757" lon="6.18817">
        <ele>2449.6000976562</ele>
        <time>2014-03-02T13:24:29.000Z</time>
      </trkpt>
      <trkpt lat="45.34757" lon="6.18817">
        <ele>2449.6000976562</ele>
        <time>2014-03-02T13:24:30.000Z</time>
      </trkpt>
      <trkpt lat="45.34757" lon="6.18817">
        <ele>2449.6000976562</ele>
        <time>2014-03-02T13:24:31.000Z</time>
      </trkpt>
      <trkpt lat="45.34757" lon="6.18817">
        <ele>2449.6000976562</ele>
        <time>2014-03-02T13:24:32.000Z</time>
      </trkpt>
      <trkpt lat="45.34757" lon="6.18817">
        <ele>2449.6000976562</ele>
        <time>2014-03-02T13:24:33.000Z</time>
      </trkpt>
      <trkpt lat="45.34757" lon="6.18816">
        <ele>2449.3999023438</ele>
        <time>2014-03-02T13:24:34.000Z</time>
      </trkpt>
      <trkpt lat="45.34758" lon="6.18814">
        <ele>2449</ele>
        <time>2014-03-02T13:24:35.000Z</time>
      </trkpt>
      <trkpt lat="45.34759" lon="6.1881">
        <ele>2448</ele>
        <time>2014-03-02T13:24:36.000Z</time>
      </trkpt>
      <trkpt lat="45.3476" lon="6.18804">
        <ele>2445.8000488281</ele>
        <time>2014-03-02T13:24:37.000Z</time>
      </trkpt>
      <trkpt lat="45.34763" lon="6.18799">
        <ele>2444</ele>
        <time>2014-03-02T13:24:38.000Z</time>
      </trkpt>
      <trkpt lat="45.34766" lon="6.18794">
        <ele>2442</ele>
        <time>2014-03-02T13:24:39.000Z</time>
      </trkpt>
      <trkpt lat="45.34768" lon="6.18787">
        <ele>2439.3999023438</ele>
        <time>2014-03-02T13:24:40.000Z</time>
      </trkpt>
      <trkpt lat="45.34771" lon="6.1878">
        <ele>2437.8000488281</ele>
        <time>2014-03-02T13:24:41.000Z</time>
      </trkpt>
      <trkpt lat="45.34773" lon="6.18773">
        <ele>2437</ele>
        <time>2014-03-02T13:24:42.000Z</time>
      </trkpt>
      <trkpt lat="45.34775" lon="6.18765">
        <ele>2436</ele>
        <time>2014-03-02T13:24:43.000Z</time>
      </trkpt>
      <trkpt lat="45.34776" lon="6.18757">
        <ele>2434.6000976562</ele>
        <time>2014-03-02T13:24:44.000Z</time>
      </trkpt>
      <trkpt lat="45.34776" lon="6.18748">
        <ele>2433</ele>
        <time>2014-03-02T13:24:45.000Z</time>
      </trkpt>
      <trkpt lat="45.34776" lon="6.18739">
        <ele>2431.1999511719</ele>
        <time>2014-03-02T13:24:46.000Z</time>
      </trkpt>
      <trkpt lat="45.34777" lon="6.1873">
        <ele>2429.6000976562</ele>
        <time>2014-03-02T13:24:47.000Z</time>
      </trkpt>
      <trkpt lat="45.34777" lon="6.18719">
        <ele>2425.6000976562</ele>
        <time>2014-03-02T13:24:48.000Z</time>
      </trkpt>
      <trkpt lat="45.34777" lon="6.18708">
        <ele>2421</ele>
        <time>2014-03-02T13:24:49.000Z</time>
      </trkpt>
      <trkpt lat="45.34777" lon="6.18697">
        <ele>2415.8000488281</ele>
        <time>2014-03-02T13:24:50.000Z</time>
      </trkpt>
      <trkpt lat="45.34777" lon="6.18686">
        <ele>2410.1999511719</ele>
        <time>2014-03-02T13:24:51.000Z</time>
      </trkpt>
      <trkpt lat="45.34777" lon="6.18673">
        <ele>2404.6000976562</ele>
        <time>2014-03-02T13:24:52.000Z</time>
      </trkpt>
      <trkpt lat="45.34776" lon="6.18661">
        <ele>2398.6000976562</ele>
        <time>2014-03-02T13:24:53.000Z</time>
      </trkpt>
      <trkpt lat="45.34777" lon="6.18648">
        <ele>2392.6000976562</ele>
        <time>2014-03-02T13:24:54.000Z</time>
      </trkpt>
      <trkpt lat="45.34777" lon="6.18634">
        <ele>2388.6000976562</ele>
        <time>2014-03-02T13:24:55.000Z</time>
      </trkpt>
      <trkpt lat="45.34779" lon="6.18619">
        <ele>2383.8000488281</ele>
        <time>2014-03-02T13:24:56.000Z</time>
      </trkpt>
      <trkpt lat="45.34781" lon="6.18604">
        <ele>2377.1999511719</ele>
        <time>2014-03-02T13:24:57.000Z</time>
      </trkpt>
      <trkpt lat="45.34783" lon="6.18589">
        <ele>2370</ele>
        <time>2014-03-02T13:24:58.000Z</time>
      </trkpt>
      <trkpt lat="45.34783" lon="6.18572">
        <ele>2362.3999023438</ele>
        <time>2014-03-02T13:24:59.000Z</time>
      </trkpt>
      <trkpt lat="45.34784" lon="6.18554">
        <ele>2355.3999023438</ele>
        <time>2014-03-02T13:25:00.000Z</time>
      </trkpt>
      <trkpt lat="45.34785" lon="6.18536">
        <ele>2348.1999511719</ele>
        <time>2014-03-02T13:25:01.000Z</time>
      </trkpt>
      <trkpt lat="45.34786" lon="6.18519">
        <ele>2340.1999511719</ele>
        <time>2014-03-02T13:25:02.000Z</time>
      </trkpt>
      <trkpt lat="45.34786" lon="6.18503">
        <ele>2333</ele>
        <time>2014-03-02T13:25:03.000Z</time>
      </trkpt>
      <trkpt lat="45.34785" lon="6.18488">
        <ele>2326.6000976562</ele>
        <time>2014-03-02T13:25:04.000Z</time>
      </trkpt>
      <trkpt lat="45.34784" lon="6.18474">
        <ele>2321.1999511719</ele>
        <time>2014-03-02T13:25:05.000Z</time>
      </trkpt>
      <trkpt lat="45.34782" lon="6.18462">
        <ele>2317</ele>
        <time>2014-03-02T13:25:06.000Z</time>
      </trkpt>
      <trkpt lat="45.34781" lon="6.1845">
        <ele>2313.3999023438</ele>
        <time>2014-03-02T13:25:07.000Z</time>
      </trkpt>
      <trkpt lat="45.3478" lon="6.18437">
        <ele>2309.8000488281</ele>
        <time>2014-03-02T13:25:08.000Z</time>
      </trkpt>
      <trkpt lat="45.3478" lon="6.18426">
        <ele>2306.1999511719</ele>
        <time>2014-03-02T13:25:09.000Z</time>
      </trkpt>
      <trkpt lat="45.3478" lon="6.18416">
        <ele>2303.1999511719</ele>
        <time>2014-03-02T13:25:10.000Z</time>
      </trkpt>
      <trkpt lat="45.3478" lon="6.18407">
        <ele>2300.3999023438</ele>
        <time>2014-03-02T13:25:11.000Z</time>
      </trkpt>
      <trkpt lat="45.34779" lon="6.18397">
        <ele>2297.3999023438</ele>
        <time>2014-03-02T13:25:12.000Z</time>
      </trkpt>
      <trkpt lat="45.34778" lon="6.18387">
        <ele>2293.1999511719</ele>
        <time>2014-03-02T13:25:13.000Z</time>
      </trkpt>
      <trkpt lat="45.34776" lon="6.18379">
        <ele>2289.3999023438</ele>
        <time>2014-03-02T13:25:14.000Z</time>
      </trkpt>
      <trkpt lat="45.34774" lon="6.18373">
        <ele>2287</ele>
        <time>2014-03-02T13:25:15.000Z</time>
      </trkpt>
      <trkpt lat="45.34772" lon="6.18369">
        <ele>2285.6000976562</ele>
        <time>2014-03-02T13:25:16.000Z</time>
      </trkpt>
      <trkpt lat="45.34773" lon="6.18372">
        <ele>2286.6000976562</ele>
        <time>2014-03-02T13:25:17.000Z</time>
      </trkpt>
      <trkpt lat="45.34776" lon="6.18376">
        <ele>2288</ele>
        <time>2014-03-02T13:25:18.000Z</time>
      </trkpt>
      <trkpt lat="45.34779" lon="6.1838">
        <ele>2289.6000976562</ele>
        <time>2014-03-02T13:25:19.000Z</time>
      </trkpt>
      <trkpt lat="45.34782" lon="6.18383">
        <ele>2290.8000488281</ele>
        <time>2014-03-02T13:25:20.000Z</time>
      </trkpt>
      <trkpt lat="45.34784" lon="6.18386">
        <ele>2291.8000488281</ele>
        <time>2014-03-02T13:25:21.000Z</time>
      </trkpt>
      <trkpt lat="45.34786" lon="6.18389">
        <ele>2292.8000488281</ele>
        <time>2014-03-02T13:25:22.000Z</time>
      </trkpt>
      <trkpt lat="45.34788" lon="6.18392">
        <ele>2294</ele>
        <time>2014-03-02T13:25:23.000Z</time>
      </trkpt>
      <trkpt lat="45.3479" lon="6.18395">
        <ele>2295</ele>
        <time>2014-03-02T13:25:24.000Z</time>
      </trkpt>
      <trkpt lat="45.34791" lon="6.18398">
        <ele>2295.8000488281</ele>
        <time>2014-03-02T13:25:25.000Z</time>
      </trkpt>
      <trkpt lat="45.34792" lon="6.184">
        <ele>2296.6000976562</ele>
        <time>2014-03-02T13:25:26.000Z</time>
      </trkpt>
      <trkpt lat="45.34792" lon="6.18403">
        <ele>2297.3999023438</ele>
        <time>2014-03-02T13:25:27.000Z</time>
      </trkpt>
      <trkpt lat="45.34793" lon="6.18406">
        <ele>2298</ele>
        <time>2014-03-02T13:25:28.000Z</time>
      </trkpt>
      <trkpt lat="45.34792" lon="6.18408">
        <ele>2299.1999511719</ele>
        <time>2014-03-02T13:25:29.000Z</time>
      </trkpt>
      <trkpt lat="45.34792" lon="6.18408">
        <ele>2299.1999511719</ele>
        <time>2014-03-02T13:25:30.000Z</time>
      </trkpt>
      <trkpt lat="45.34792" lon="6.18408">
        <ele>2299.1999511719</ele>
        <time>2014-03-02T13:25:31.000Z</time>
      </trkpt>
      <trkpt lat="45.34792" lon="6.18408">
        <ele>2299.1999511719</ele>
        <time>2014-03-02T13:25:32.000Z</time>
      </trkpt>
      <trkpt lat="45.34792" lon="6.18408">
        <ele>2299.1999511719</ele>
        <time>2014-03-02T13:25:33.000Z</time>
      </trkpt>
      <trkpt lat="45.34792" lon="6.18408">
        <ele>2299.1999511719</ele>
        <time>2014-03-02T13:25:34.000Z</time>
      </trkpt>
      <trkpt lat="45.34792" lon="6.18408">
        <ele>2299.1999511719</ele>
        <time>2014-03-02T13:25:35.000Z</time>
      </trkpt>
      <trkpt lat="45.34792" lon="6.18408">
        <ele>2299.1999511719</ele>
        <time>2014-03-02T13:25:36.000Z</time>
      </trkpt>
      <trkpt lat="45.34792" lon="6.18408">
        <ele>2299.1999511719</ele>
        <time>2014-03-02T13:25:37.000Z</time>
      </trkpt>
      <trkpt lat="45.34792" lon="6.18408">
        <ele>2299.1999511719</ele>
        <time>2014-03-02T13:25:38.000Z</time>
      </trkpt>
      <trkpt lat="45.34792" lon="6.18408">
        <ele>2299.1999511719</ele>
        <time>2014-03-02T13:25:39.000Z</time>
      </trkpt>
      <trkpt lat="45.34792" lon="6.18408">
        <ele>2299.1999511719</ele>
        <time>2014-03-02T13:25:40.000Z</time>
      </trkpt>
      <trkpt lat="45.34793" lon="6.1841">
        <ele>2299.3999023438</ele>
        <time>2014-03-02T13:25:41.000Z</time>
      </trkpt>
      <trkpt lat="45.34793" lon="6.1841">
        <ele>2299.3999023438</ele>
        <time>2014-03-02T13:25:42.000Z</time>
      </trkpt>
      <trkpt lat="45.34793" lon="6.1841">
        <ele>2299.3999023438</ele>
        <time>2014-03-02T13:25:43.000Z</time>
      </trkpt>
      <trkpt lat="45.348" lon="6.18413">
        <ele>2300.8000488281</ele>
        <time>2014-03-02T13:25:45.000Z</time>
      </trkpt>
      <trkpt lat="45.34801" lon="6.18415">
        <ele>2302</ele>
        <time>2014-03-02T13:25:46.000Z</time>
      </trkpt>
      <trkpt lat="45.34803" lon="6.18416">
        <ele>2303.1999511719</ele>
        <time>2014-03-02T13:25:47.000Z</time>
      </trkpt>
      <trkpt lat="45.34803" lon="6.18417">
        <ele>2303.3999023438</ele>
        <time>2014-03-02T13:25:48.000Z</time>
      </trkpt>
      <trkpt lat="45.34803" lon="6.18418">
        <ele>2304</ele>
        <time>2014-03-02T13:25:49.000Z</time>
      </trkpt>
      <trkpt lat="45.34803" lon="6.18419">
        <ele>2304.3999023438</ele>
        <time>2014-03-02T13:25:52.000Z</time>
      </trkpt>
      <trkpt lat="45.34803" lon="6.18419">
        <ele>2304.3999023438</ele>
        <time>2014-03-02T13:25:53.000Z</time>
      </trkpt>
      <trkpt lat="45.34803" lon="6.18419">
        <ele>2304.3999023438</ele>
        <time>2014-03-02T13:25:54.000Z</time>
      </trkpt>
      <trkpt lat="45.34803" lon="6.18419">
        <ele>2304.3999023438</ele>
        <time>2014-03-02T13:25:58.000Z</time>
      </trkpt>
      <trkpt lat="45.34803" lon="6.18419">
        <ele>2304.3999023438</ele>
        <time>2014-03-02T13:25:59.000Z</time>
      </trkpt>
      <trkpt lat="45.34803" lon="6.18419">
        <ele>2304.3999023438</ele>
        <time>2014-03-02T13:26:00.000Z</time>
      </trkpt>
      <trkpt lat="45.34803" lon="6.18419">
        <ele>2304.3999023438</ele>
        <time>2014-03-02T13:26:01.000Z</time>
      </trkpt>
      <trkpt lat="45.34803" lon="6.18419">
        <ele>2304.3999023438</ele>
        <time>2014-03-02T13:26:02.000Z</time>
      </trkpt>
      <trkpt lat="45.34803" lon="6.18419">
        <ele>2304.3999023438</ele>
        <time>2014-03-02T13:26:03.000Z</time>
      </trkpt>
      <trkpt lat="45.34803" lon="6.18419">
        <ele>2304.3999023438</ele>
        <time>2014-03-02T13:26:04.000Z</time>
      </trkpt>
      <trkpt lat="45.34803" lon="6.18419">
        <ele>2304.3999023438</ele>
        <time>2014-03-02T13:26:05.000Z</time>
      </trkpt>
      <trkpt lat="45.34803" lon="6.18419">
        <ele>2304.3999023438</ele>
        <time>2014-03-02T13:26:06.000Z</time>
      </trkpt>
      <trkpt lat="45.34803" lon="6.18419">
        <ele>2304.3999023438</ele>
        <time>2014-03-02T13:26:12.000Z</time>
      </trkpt>
      <trkpt lat="45.34803" lon="6.18419">
        <ele>2304.3999023438</ele>
        <time>2014-03-02T13:26:13.000Z</time>
      </trkpt>
      <trkpt lat="45.34803" lon="6.18419">
        <ele>2304.3999023438</ele>
        <time>2014-03-02T13:26:14.000Z</time>
      </trkpt>
      <trkpt lat="45.34803" lon="6.18419">
        <ele>2304.3999023438</ele>
        <time>2014-03-02T13:26:15.000Z</time>
      </trkpt>
      <trkpt lat="45.34803" lon="6.18419">
        <ele>2304.3999023438</ele>
        <time>2014-03-02T13:26:18.000Z</time>
      </trkpt>
      <trkpt lat="45.34803" lon="6.18419">
        <ele>2304.3999023438</ele>
        <time>2014-03-02T13:26:19.000Z</time>
      </trkpt>
      <trkpt lat="45.34803" lon="6.18419">
        <ele>2304.3999023438</ele>
        <time>2014-03-02T13:26:20.000Z</time>
      </trkpt>
      <trkpt lat="45.34803" lon="6.18419">
        <ele>2304.3999023438</ele>
        <time>2014-03-02T13:26:21.000Z</time>
      </trkpt>
      <trkpt lat="45.34803" lon="6.18419">
        <ele>2304.3999023438</ele>
        <time>2014-03-02T13:26:22.000Z</time>
      </trkpt>
      <trkpt lat="45.34803" lon="6.18419">
        <ele>2304.3999023438</ele>
        <time>2014-03-02T13:26:26.000Z</time>
      </trkpt>
      <trkpt lat="45.34803" lon="6.18419">
        <ele>2304.3999023438</ele>
        <time>2014-03-02T13:26:27.000Z</time>
      </trkpt>
      <trkpt lat="45.34803" lon="6.18419">
        <ele>2304.3999023438</ele>
        <time>2014-03-02T13:26:28.000Z</time>
      </trkpt>
      <trkpt lat="45.34803" lon="6.18419">
        <ele>2304.3999023438</ele>
        <time>2014-03-02T13:26:29.000Z</time>
      </trkpt>
      <trkpt lat="45.34803" lon="6.18419">
        <ele>2304.3999023438</ele>
        <time>2014-03-02T13:26:30.000Z</time>
      </trkpt>
      <trkpt lat="45.34803" lon="6.1842">
        <ele>2304.8000488281</ele>
        <time>2014-03-02T13:26:31.000Z</time>
      </trkpt>
      <trkpt lat="45.34803" lon="6.1842">
        <ele>2304.8000488281</ele>
        <time>2014-03-02T13:26:33.000Z</time>
      </trkpt>
      <trkpt lat="45.34803" lon="6.1842">
        <ele>2304.8000488281</ele>
        <time>2014-03-02T13:26:34.000Z</time>
      </trkpt>
      <trkpt lat="45.34803" lon="6.1842">
        <ele>2304.8000488281</ele>
        <time>2014-03-02T13:26:35.000Z</time>
      </trkpt>
      <trkpt lat="45.34803" lon="6.1842">
        <ele>2304.8000488281</ele>
        <time>2014-03-02T13:26:36.000Z</time>
      </trkpt>
      <trkpt lat="45.34803" lon="6.1842">
        <ele>2304.8000488281</ele>
        <time>2014-03-02T13:26:37.000Z</time>
      </trkpt>
      <trkpt lat="45.34803" lon="6.1842">
        <ele>2304.8000488281</ele>
        <time>2014-03-02T13:26:38.000Z</time>
      </trkpt>
      <trkpt lat="45.34803" lon="6.1842">
        <ele>2304.8000488281</ele>
        <time>2014-03-02T13:26:39.000Z</time>
      </trkpt>
      <trkpt lat="45.34803" lon="6.1842">
        <ele>2304.8000488281</ele>
        <time>2014-03-02T13:26:40.000Z</time>
      </trkpt>
      <trkpt lat="45.34803" lon="6.1842">
        <ele>2304.8000488281</ele>
        <time>2014-03-02T13:26:41.000Z</time>
      </trkpt>
      <trkpt lat="45.34803" lon="6.1842">
        <ele>2304.8000488281</ele>
        <time>2014-03-02T13:26:42.000Z</time>
      </trkpt>
      <trkpt lat="45.34803" lon="6.1842">
        <ele>2304.8000488281</ele>
        <time>2014-03-02T13:26:43.000Z</time>
      </trkpt>
      <trkpt lat="45.34803" lon="6.1842">
        <ele>2304.8000488281</ele>
        <time>2014-03-02T13:26:46.000Z</time>
      </trkpt>
      <trkpt lat="45.34803" lon="6.1842">
        <ele>2304.8000488281</ele>
        <time>2014-03-02T13:26:47.000Z</time>
      </trkpt>
      <trkpt lat="45.34803" lon="6.1842">
        <ele>2304.8000488281</ele>
        <time>2014-03-02T13:26:48.000Z</time>
      </trkpt>
      <trkpt lat="45.34803" lon="6.1842">
        <ele>2304.8000488281</ele>
        <time>2014-03-02T13:26:49.000Z</time>
      </trkpt>
      <trkpt lat="45.34803" lon="6.1842">
        <ele>2304.8000488281</ele>
        <time>2014-03-02T13:26:50.000Z</time>
      </trkpt>
      <trkpt lat="45.34803" lon="6.1842">
        <ele>2304.8000488281</ele>
        <time>2014-03-02T13:26:51.000Z</time>
      </trkpt>
      <trkpt lat="45.34803" lon="6.1842">
        <ele>2304.8000488281</ele>
        <time>2014-03-02T13:26:52.000Z</time>
      </trkpt>
      <trkpt lat="45.34803" lon="6.1842">
        <ele>2304.8000488281</ele>
        <time>2014-03-02T13:26:53.000Z</time>
      </trkpt>
      <trkpt lat="45.34803" lon="6.1842">
        <ele>2304.8000488281</ele>
        <time>2014-03-02T13:26:54.000Z</time>
      </trkpt>
      <trkpt lat="45.34803" lon="6.1842">
        <ele>2304.8000488281</ele>
        <time>2014-03-02T13:26:56.000Z</time>
      </trkpt>
      <trkpt lat="45.34803" lon="6.1842">
        <ele>2304.8000488281</ele>
        <time>2014-03-02T13:26:57.000Z</time>
      </trkpt>
      <trkpt lat="45.34803" lon="6.1842">
        <ele>2304.8000488281</ele>
        <time>2014-03-02T13:26:58.000Z</time>
      </trkpt>
      <trkpt lat="45.34803" lon="6.1842">
        <ele>2304.8000488281</ele>
        <time>2014-03-02T13:26:59.000Z</time>
      </trkpt>
      <trkpt lat="45.34803" lon="6.1842">
        <ele>2304.8000488281</ele>
        <time>2014-03-02T13:27:00.000Z</time>
      </trkpt>
      <trkpt lat="45.34803" lon="6.1842">
        <ele>2304.8000488281</ele>
        <time>2014-03-02T13:27:01.000Z</time>
      </trkpt>
      <trkpt lat="45.34803" lon="6.1842">
        <ele>2304.8000488281</ele>
        <time>2014-03-02T13:27:03.000Z</time>
      </trkpt>
      <trkpt lat="45.34803" lon="6.1842">
        <ele>2304.8000488281</ele>
        <time>2014-03-02T13:27:04.000Z</time>
      </trkpt>
      <trkpt lat="45.34803" lon="6.1842">
        <ele>2304.8000488281</ele>
        <time>2014-03-02T13:27:05.000Z</time>
      </trkpt>
      <trkpt lat="45.34803" lon="6.18421">
        <ele>2304.8000488281</ele>
        <time>2014-03-02T13:27:11.000Z</time>
      </trkpt>
      <trkpt lat="45.34802" lon="6.18421">
        <ele>2304.6000976562</ele>
        <time>2014-03-02T13:27:12.000Z</time>
      </trkpt>
      <trkpt lat="45.34802" lon="6.18417">
        <ele>2303.1999511719</ele>
        <time>2014-03-02T13:27:13.000Z</time>
      </trkpt>
      <trkpt lat="45.34802" lon="6.18411">
        <ele>2301.1999511719</ele>
        <time>2014-03-02T13:27:14.000Z</time>
      </trkpt>
      <trkpt lat="45.34801" lon="6.18404">
        <ele>2298.6000976562</ele>
        <time>2014-03-02T13:27:15.000Z</time>
      </trkpt>
      <trkpt lat="45.34801" lon="6.18396">
        <ele>2295.8000488281</ele>
        <time>2014-03-02T13:27:16.000Z</time>
      </trkpt>
      <trkpt lat="45.348" lon="6.18387">
        <ele>2293</ele>
        <time>2014-03-02T13:27:17.000Z</time>
      </trkpt>
      <trkpt lat="45.348" lon="6.18378">
        <ele>2290</ele>
        <time>2014-03-02T13:27:18.000Z</time>
      </trkpt>
      <trkpt lat="45.34799" lon="6.18368">
        <ele>2286.6000976562</ele>
        <time>2014-03-02T13:27:19.000Z</time>
      </trkpt>
      <trkpt lat="45.34798" lon="6.18358">
        <ele>2283.3999023438</ele>
        <time>2014-03-02T13:27:20.000Z</time>
      </trkpt>
      <trkpt lat="45.34798" lon="6.18348">
        <ele>2280</ele>
        <time>2014-03-02T13:27:21.000Z</time>
      </trkpt>
      <trkpt lat="45.34797" lon="6.18338">
        <ele>2277</ele>
        <time>2014-03-02T13:27:22.000Z</time>
      </trkpt>
      <trkpt lat="45.34795" lon="6.1833">
        <ele>2274.3999023438</ele>
        <time>2014-03-02T13:27:23.000Z</time>
      </trkpt>
      <trkpt lat="45.34794" lon="6.18321">
        <ele>2271.8000488281</ele>
        <time>2014-03-02T13:27:24.000Z</time>
      </trkpt>
      <trkpt lat="45.34793" lon="6.18313">
        <ele>2269.3999023438</ele>
        <time>2014-03-02T13:27:25.000Z</time>
      </trkpt>
      <trkpt lat="45.34791" lon="6.18305">
        <ele>2265.3999023438</ele>
        <time>2014-03-02T13:27:26.000Z</time>
      </trkpt>
      <trkpt lat="45.3479" lon="6.18296">
        <ele>2261.6000976562</ele>
        <time>2014-03-02T13:27:27.000Z</time>
      </trkpt>
      <trkpt lat="45.34788" lon="6.18286">
        <ele>2257.8000488281</ele>
        <time>2014-03-02T13:27:28.000Z</time>
      </trkpt>
      <trkpt lat="45.34786" lon="6.18277">
        <ele>2253.8000488281</ele>
        <time>2014-03-02T13:27:29.000Z</time>
      </trkpt>
      <trkpt lat="45.34784" lon="6.18268">
        <ele>2250</ele>
        <time>2014-03-02T13:27:30.000Z</time>
      </trkpt>
      <trkpt lat="45.34782" lon="6.18258">
        <ele>2246</ele>
        <time>2014-03-02T13:27:31.000Z</time>
      </trkpt>
      <trkpt lat="45.3478" lon="6.18249">
        <ele>2241.8000488281</ele>
        <time>2014-03-02T13:27:32.000Z</time>
      </trkpt>
      <trkpt lat="45.34777" lon="6.18239">
        <ele>2237.6000976562</ele>
        <time>2014-03-02T13:27:33.000Z</time>
      </trkpt>
      <trkpt lat="45.34775" lon="6.18229">
        <ele>2233.1999511719</ele>
        <time>2014-03-02T13:27:34.000Z</time>
      </trkpt>
      <trkpt lat="45.34771" lon="6.18218">
        <ele>2229.3999023438</ele>
        <time>2014-03-02T13:27:35.000Z</time>
      </trkpt>
      <trkpt lat="45.34767" lon="6.18207">
        <ele>2225.3999023438</ele>
        <time>2014-03-02T13:27:36.000Z</time>
      </trkpt>
      <trkpt lat="45.34763" lon="6.18196">
        <ele>2221.6000976562</ele>
        <time>2014-03-02T13:27:37.000Z</time>
      </trkpt>
      <trkpt lat="45.34759" lon="6.18185">
        <ele>2217.1999511719</ele>
        <time>2014-03-02T13:27:38.000Z</time>
      </trkpt>
      <trkpt lat="45.34755" lon="6.18172">
        <ele>2212.6000976562</ele>
        <time>2014-03-02T13:27:39.000Z</time>
      </trkpt>
      <trkpt lat="45.34751" lon="6.18159">
        <ele>2207.8000488281</ele>
        <time>2014-03-02T13:27:40.000Z</time>
      </trkpt>
      <trkpt lat="45.34748" lon="6.18147">
        <ele>2203.1999511719</ele>
        <time>2014-03-02T13:27:41.000Z</time>
      </trkpt>
      <trkpt lat="45.34745" lon="6.18134">
        <ele>2199.3999023438</ele>
        <time>2014-03-02T13:27:42.000Z</time>
      </trkpt>
      <trkpt lat="45.34741" lon="6.18122">
        <ele>2195.8000488281</ele>
        <time>2014-03-02T13:27:43.000Z</time>
      </trkpt>
      <trkpt lat="45.34738" lon="6.18111">
        <ele>2192.6000976562</ele>
        <time>2014-03-02T13:27:44.000Z</time>
      </trkpt>
      <trkpt lat="45.34736" lon="6.18099">
        <ele>2189.1999511719</ele>
        <time>2014-03-02T13:27:45.000Z</time>
      </trkpt>
      <trkpt lat="45.34733" lon="6.18087">
        <ele>2186</ele>
        <time>2014-03-02T13:27:46.000Z</time>
      </trkpt>
      <trkpt lat="45.34731" lon="6.18075">
        <ele>2182</ele>
        <time>2014-03-02T13:27:47.000Z</time>
      </trkpt>
      <trkpt lat="45.34727" lon="6.18062">
        <ele>2176.6000976562</ele>
        <time>2014-03-02T13:27:48.000Z</time>
      </trkpt>
      <trkpt lat="45.34722" lon="6.18049">
        <ele>2172.6000976562</ele>
        <time>2014-03-02T13:27:49.000Z</time>
      </trkpt>
      <trkpt lat="45.34718" lon="6.18035">
        <ele>2168.6000976562</ele>
        <time>2014-03-02T13:27:50.000Z</time>
      </trkpt>
      <trkpt lat="45.34714" lon="6.18024">
        <ele>2165.3999023438</ele>
        <time>2014-03-02T13:27:51.000Z</time>
      </trkpt>
      <trkpt lat="45.34711" lon="6.18016">
        <ele>2164.1999511719</ele>
        <time>2014-03-02T13:27:52.000Z</time>
      </trkpt>
      <trkpt lat="45.34707" lon="6.18012">
        <ele>2164.1999511719</ele>
        <time>2014-03-02T13:27:53.000Z</time>
      </trkpt>
      <trkpt lat="45.34705" lon="6.1801">
        <ele>2164.8000488281</ele>
        <time>2014-03-02T13:27:54.000Z</time>
      </trkpt>
      <trkpt lat="45.34703" lon="6.18008">
        <ele>2164.8000488281</ele>
        <time>2014-03-02T13:27:55.000Z</time>
      </trkpt>
      <trkpt lat="45.34703" lon="6.18007">
        <ele>2164.6000976562</ele>
        <time>2014-03-02T13:27:56.000Z</time>
      </trkpt>
      <trkpt lat="45.34703" lon="6.18006">
        <ele>2164.3999023438</ele>
        <time>2014-03-02T13:27:57.000Z</time>
      </trkpt>
      <trkpt lat="45.34702" lon="6.18007">
        <ele>2164.8000488281</ele>
        <time>2014-03-02T13:27:58.000Z</time>
      </trkpt>
      <trkpt lat="45.34702" lon="6.18007">
        <ele>2164.8000488281</ele>
        <time>2014-03-02T13:27:59.000Z</time>
      </trkpt>
      <trkpt lat="45.34702" lon="6.18007">
        <ele>2164.8000488281</ele>
        <time>2014-03-02T13:28:00.000Z</time>
      </trkpt>
      <trkpt lat="45.34702" lon="6.18007">
        <ele>2164.8000488281</ele>
        <time>2014-03-02T13:28:01.000Z</time>
      </trkpt>
      <trkpt lat="45.34702" lon="6.18007">
        <ele>2164.8000488281</ele>
        <time>2014-03-02T13:28:02.000Z</time>
      </trkpt>
      <trkpt lat="45.34702" lon="6.18007">
        <ele>2164.8000488281</ele>
        <time>2014-03-02T13:28:03.000Z</time>
      </trkpt>
      <trkpt lat="45.34702" lon="6.18007">
        <ele>2164.8000488281</ele>
        <time>2014-03-02T13:28:04.000Z</time>
      </trkpt>
      <trkpt lat="45.34702" lon="6.18007">
        <ele>2164.8000488281</ele>
        <time>2014-03-02T13:28:06.000Z</time>
      </trkpt>
      <trkpt lat="45.34702" lon="6.18007">
        <ele>2164.8000488281</ele>
        <time>2014-03-02T13:28:07.000Z</time>
      </trkpt>
      <trkpt lat="45.34702" lon="6.18007">
        <ele>2164.8000488281</ele>
        <time>2014-03-02T13:28:08.000Z</time>
      </trkpt>
      <trkpt lat="45.34702" lon="6.18007">
        <ele>2164.8000488281</ele>
        <time>2014-03-02T13:28:09.000Z</time>
      </trkpt>
      <trkpt lat="45.34702" lon="6.18007">
        <ele>2164.8000488281</ele>
        <time>2014-03-02T13:28:10.000Z</time>
      </trkpt>
      <trkpt lat="45.34702" lon="6.18007">
        <ele>2164.8000488281</ele>
        <time>2014-03-02T13:28:11.000Z</time>
      </trkpt>
      <trkpt lat="45.34702" lon="6.18007">
        <ele>2164.8000488281</ele>
        <time>2014-03-02T13:28:12.000Z</time>
      </trkpt>
      <trkpt lat="45.34702" lon="6.18007">
        <ele>2164.8000488281</ele>
        <time>2014-03-02T13:28:13.000Z</time>
      </trkpt>
      <trkpt lat="45.34702" lon="6.18007">
        <ele>2164.8000488281</ele>
        <time>2014-03-02T13:28:14.000Z</time>
      </trkpt>
      <trkpt lat="45.34702" lon="6.18007">
        <ele>2164.8000488281</ele>
        <time>2014-03-02T13:28:15.000Z</time>
      </trkpt>
      <trkpt lat="45.34702" lon="6.18007">
        <ele>2164.8000488281</ele>
        <time>2014-03-02T13:28:16.000Z</time>
      </trkpt>
      <trkpt lat="45.34702" lon="6.18007">
        <ele>2164.8000488281</ele>
        <time>2014-03-02T13:28:17.000Z</time>
      </trkpt>
      <trkpt lat="45.34702" lon="6.18007">
        <ele>2164.8000488281</ele>
        <time>2014-03-02T13:28:19.000Z</time>
      </trkpt>
      <trkpt lat="45.34702" lon="6.18007">
        <ele>2164.8000488281</ele>
        <time>2014-03-02T13:28:20.000Z</time>
      </trkpt>
      <trkpt lat="45.34702" lon="6.18007">
        <ele>2164.8000488281</ele>
        <time>2014-03-02T13:28:21.000Z</time>
      </trkpt>
      <trkpt lat="45.34702" lon="6.18007">
        <ele>2164.8000488281</ele>
        <time>2014-03-02T13:28:22.000Z</time>
      </trkpt>
      <trkpt lat="45.34702" lon="6.18007">
        <ele>2164.8000488281</ele>
        <time>2014-03-02T13:28:23.000Z</time>
      </trkpt>
      <trkpt lat="45.34702" lon="6.18007">
        <ele>2164.8000488281</ele>
        <time>2014-03-02T13:28:24.000Z</time>
      </trkpt>
      <trkpt lat="45.34702" lon="6.18007">
        <ele>2164.8000488281</ele>
        <time>2014-03-02T13:28:25.000Z</time>
      </trkpt>
      <trkpt lat="45.34702" lon="6.18007">
        <ele>2164.8000488281</ele>
        <time>2014-03-02T13:28:26.000Z</time>
      </trkpt>
      <trkpt lat="45.34702" lon="6.18007">
        <ele>2164.8000488281</ele>
        <time>2014-03-02T13:28:27.000Z</time>
      </trkpt>
      <trkpt lat="45.34702" lon="6.18007">
        <ele>2164.8000488281</ele>
        <time>2014-03-02T13:28:28.000Z</time>
      </trkpt>
      <trkpt lat="45.34702" lon="6.18007">
        <ele>2164.8000488281</ele>
        <time>2014-03-02T13:28:29.000Z</time>
      </trkpt>
      <trkpt lat="45.34702" lon="6.18007">
        <ele>2164.8000488281</ele>
        <time>2014-03-02T13:28:30.000Z</time>
      </trkpt>
      <trkpt lat="45.34702" lon="6.18007">
        <ele>2164.8000488281</ele>
        <time>2014-03-02T13:28:31.000Z</time>
      </trkpt>
      <trkpt lat="45.34702" lon="6.18007">
        <ele>2164.8000488281</ele>
        <time>2014-03-02T13:28:32.000Z</time>
      </trkpt>
      <trkpt lat="45.34702" lon="6.18007">
        <ele>2164.8000488281</ele>
        <time>2014-03-02T13:28:36.000Z</time>
      </trkpt>
      <trkpt lat="45.34702" lon="6.18007">
        <ele>2164.8000488281</ele>
        <time>2014-03-02T13:28:37.000Z</time>
      </trkpt>
      <trkpt lat="45.34704" lon="6.18008">
        <ele>2164.6000976562</ele>
        <time>2014-03-02T13:28:38.000Z</time>
      </trkpt>
      <trkpt lat="45.34704" lon="6.18008">
        <ele>2164.6000976562</ele>
        <time>2014-03-02T13:28:39.000Z</time>
      </trkpt>
      <trkpt lat="45.34704" lon="6.18008">
        <ele>2164.6000976562</ele>
        <time>2014-03-02T13:28:40.000Z</time>
      </trkpt>
      <trkpt lat="45.34704" lon="6.18008">
        <ele>2164.6000976562</ele>
        <time>2014-03-02T13:28:41.000Z</time>
      </trkpt>
      <trkpt lat="45.34704" lon="6.18008">
        <ele>2164.6000976562</ele>
        <time>2014-03-02T13:28:42.000Z</time>
      </trkpt>
      <trkpt lat="45.34704" lon="6.18008">
        <ele>2164.6000976562</ele>
        <time>2014-03-02T13:28:43.000Z</time>
      </trkpt>
      <trkpt lat="45.34704" lon="6.18008">
        <ele>2164.6000976562</ele>
        <time>2014-03-02T13:28:45.000Z</time>
      </trkpt>
      <trkpt lat="45.34704" lon="6.18008">
        <ele>2164.6000976562</ele>
        <time>2014-03-02T13:28:46.000Z</time>
      </trkpt>
      <trkpt lat="45.34704" lon="6.18008">
        <ele>2164.6000976562</ele>
        <time>2014-03-02T13:28:47.000Z</time>
      </trkpt>
      <trkpt lat="45.34704" lon="6.18008">
        <ele>2164.6000976562</ele>
        <time>2014-03-02T13:28:48.000Z</time>
      </trkpt>
      <trkpt lat="45.34704" lon="6.18008">
        <ele>2164.6000976562</ele>
        <time>2014-03-02T13:28:49.000Z</time>
      </trkpt>
      <trkpt lat="45.34704" lon="6.18008">
        <ele>2164.6000976562</ele>
        <time>2014-03-02T13:28:53.000Z</time>
      </trkpt>
      <trkpt lat="45.34704" lon="6.18008">
        <ele>2164.6000976562</ele>
        <time>2014-03-02T13:28:54.000Z</time>
      </trkpt>
      <trkpt lat="45.34704" lon="6.18008">
        <ele>2164.6000976562</ele>
        <time>2014-03-02T13:28:55.000Z</time>
      </trkpt>
      <trkpt lat="45.34704" lon="6.18008">
        <ele>2164.6000976562</ele>
        <time>2014-03-02T13:28:56.000Z</time>
      </trkpt>
      <trkpt lat="45.34704" lon="6.18008">
        <ele>2164.6000976562</ele>
        <time>2014-03-02T13:28:57.000Z</time>
      </trkpt>
      <trkpt lat="45.34704" lon="6.18008">
        <ele>2164.6000976562</ele>
        <time>2014-03-02T13:28:58.000Z</time>
      </trkpt>
      <trkpt lat="45.34704" lon="6.18008">
        <ele>2164.6000976562</ele>
        <time>2014-03-02T13:28:59.000Z</time>
      </trkpt>
      <trkpt lat="45.34704" lon="6.18008">
        <ele>2164.6000976562</ele>
        <time>2014-03-02T13:29:02.000Z</time>
      </trkpt>
      <trkpt lat="45.34704" lon="6.18008">
        <ele>2164.6000976562</ele>
        <time>2014-03-02T13:29:03.000Z</time>
      </trkpt>
      <trkpt lat="45.34704" lon="6.18008">
        <ele>2164.6000976562</ele>
        <time>2014-03-02T13:29:06.000Z</time>
      </trkpt>
      <trkpt lat="45.34704" lon="6.18008">
        <ele>2164.6000976562</ele>
        <time>2014-03-02T13:29:07.000Z</time>
      </trkpt>
      <trkpt lat="45.34704" lon="6.18008">
        <ele>2164.6000976562</ele>
        <time>2014-03-02T13:29:09.000Z</time>
      </trkpt>
      <trkpt lat="45.34704" lon="6.18008">
        <ele>2164.6000976562</ele>
        <time>2014-03-02T13:29:10.000Z</time>
      </trkpt>
      <trkpt lat="45.34704" lon="6.18008">
        <ele>2164.6000976562</ele>
        <time>2014-03-02T13:29:11.000Z</time>
      </trkpt>
      <trkpt lat="45.34704" lon="6.18008">
        <ele>2164.6000976562</ele>
        <time>2014-03-02T13:29:12.000Z</time>
      </trkpt>
      <trkpt lat="45.34704" lon="6.18008">
        <ele>2164.6000976562</ele>
        <time>2014-03-02T13:29:13.000Z</time>
      </trkpt>
      <trkpt lat="45.34704" lon="6.18008">
        <ele>2164.6000976562</ele>
        <time>2014-03-02T13:29:15.000Z</time>
      </trkpt>
      <trkpt lat="45.34704" lon="6.18008">
        <ele>2164.6000976562</ele>
        <time>2014-03-02T13:29:17.000Z</time>
      </trkpt>
      <trkpt lat="45.34704" lon="6.18011">
        <ele>2165.1999511719</ele>
        <time>2014-03-02T13:29:18.000Z</time>
      </trkpt>
      <trkpt lat="45.34704" lon="6.18011">
        <ele>2165.1999511719</ele>
        <time>2014-03-02T13:29:19.000Z</time>
      </trkpt>
      <trkpt lat="45.34704" lon="6.18011">
        <ele>2165.1999511719</ele>
        <time>2014-03-02T13:29:20.000Z</time>
      </trkpt>
      <trkpt lat="45.34704" lon="6.18011">
        <ele>2165.1999511719</ele>
        <time>2014-03-02T13:29:21.000Z</time>
      </trkpt>
      <trkpt lat="45.34704" lon="6.18011">
        <ele>2165.1999511719</ele>
        <time>2014-03-02T13:29:22.000Z</time>
      </trkpt>
      <trkpt lat="45.34704" lon="6.18011">
        <ele>2165.1999511719</ele>
        <time>2014-03-02T13:29:23.000Z</time>
      </trkpt>
      <trkpt lat="45.34704" lon="6.18011">
        <ele>2165.1999511719</ele>
        <time>2014-03-02T13:29:24.000Z</time>
      </trkpt>
      <trkpt lat="45.34704" lon="6.18011">
        <ele>2165.1999511719</ele>
        <time>2014-03-02T13:29:25.000Z</time>
      </trkpt>
      <trkpt lat="45.34704" lon="6.18011">
        <ele>2165.1999511719</ele>
        <time>2014-03-02T13:29:26.000Z</time>
      </trkpt>
      <trkpt lat="45.34704" lon="6.18011">
        <ele>2165.1999511719</ele>
        <time>2014-03-02T13:29:27.000Z</time>
      </trkpt>
      <trkpt lat="45.34704" lon="6.18011">
        <ele>2165.1999511719</ele>
        <time>2014-03-02T13:29:33.000Z</time>
      </trkpt>
      <trkpt lat="45.34704" lon="6.18011">
        <ele>2165.1999511719</ele>
        <time>2014-03-02T13:29:34.000Z</time>
      </trkpt>
      <trkpt lat="45.34704" lon="6.18011">
        <ele>2165.1999511719</ele>
        <time>2014-03-02T13:29:35.000Z</time>
      </trkpt>
      <trkpt lat="45.34704" lon="6.18011">
        <ele>2165.1999511719</ele>
        <time>2014-03-02T13:29:36.000Z</time>
      </trkpt>
      <trkpt lat="45.34704" lon="6.18011">
        <ele>2165.1999511719</ele>
        <time>2014-03-02T13:29:37.000Z</time>
      </trkpt>
      <trkpt lat="45.34704" lon="6.18011">
        <ele>2165.1999511719</ele>
        <time>2014-03-02T13:29:39.000Z</time>
      </trkpt>
      <trkpt lat="45.34704" lon="6.18011">
        <ele>2165.1999511719</ele>
        <time>2014-03-02T13:29:41.000Z</time>
      </trkpt>
      <trkpt lat="45.34704" lon="6.18011">
        <ele>2165.1999511719</ele>
        <time>2014-03-02T13:29:42.000Z</time>
      </trkpt>
      <trkpt lat="45.34704" lon="6.18011">
        <ele>2165.1999511719</ele>
        <time>2014-03-02T13:29:43.000Z</time>
      </trkpt>
      <trkpt lat="45.34704" lon="6.18011">
        <ele>2165.1999511719</ele>
        <time>2014-03-02T13:29:44.000Z</time>
      </trkpt>
      <trkpt lat="45.34704" lon="6.18011">
        <ele>2165.1999511719</ele>
        <time>2014-03-02T13:29:45.000Z</time>
      </trkpt>
      <trkpt lat="45.34704" lon="6.18011">
        <ele>2165.1999511719</ele>
        <time>2014-03-02T13:29:46.000Z</time>
      </trkpt>
      <trkpt lat="45.34704" lon="6.18011">
        <ele>2165.1999511719</ele>
        <time>2014-03-02T13:29:48.000Z</time>
      </trkpt>
      <trkpt lat="45.34704" lon="6.18011">
        <ele>2165.1999511719</ele>
        <time>2014-03-02T13:29:50.000Z</time>
      </trkpt>
      <trkpt lat="45.34704" lon="6.18011">
        <ele>2165.1999511719</ele>
        <time>2014-03-02T13:29:51.000Z</time>
      </trkpt>
      <trkpt lat="45.34704" lon="6.18011">
        <ele>2165.1999511719</ele>
        <time>2014-03-02T13:29:54.000Z</time>
      </trkpt>
      <trkpt lat="45.34704" lon="6.18011">
        <ele>2165.1999511719</ele>
        <time>2014-03-02T13:29:55.000Z</time>
      </trkpt>
      <trkpt lat="45.34704" lon="6.18011">
        <ele>2165.3999023438</ele>
        <time>2014-03-02T13:29:58.000Z</time>
      </trkpt>
      <trkpt lat="45.34704" lon="6.18011">
        <ele>2165.3999023438</ele>
        <time>2014-03-02T13:30:00.000Z</time>
      </trkpt>
      <trkpt lat="45.34704" lon="6.18011">
        <ele>2165.3999023438</ele>
        <time>2014-03-02T13:30:01.000Z</time>
      </trkpt>
      <trkpt lat="45.34704" lon="6.18011">
        <ele>2165.3999023438</ele>
        <time>2014-03-02T13:30:02.000Z</time>
      </trkpt>
      <trkpt lat="45.34704" lon="6.18011">
        <ele>2165.3999023438</ele>
        <time>2014-03-02T13:30:03.000Z</time>
      </trkpt>
      <trkpt lat="45.34704" lon="6.18011">
        <ele>2165.3999023438</ele>
        <time>2014-03-02T13:30:06.000Z</time>
      </trkpt>
      <trkpt lat="45.34704" lon="6.18011">
        <ele>2165.3999023438</ele>
        <time>2014-03-02T13:30:07.000Z</time>
      </trkpt>
      <trkpt lat="45.34704" lon="6.18011">
        <ele>2165.3999023438</ele>
        <time>2014-03-02T13:30:08.000Z</time>
      </trkpt>
      <trkpt lat="45.34704" lon="6.18011">
        <ele>2165.3999023438</ele>
        <time>2014-03-02T13:30:12.000Z</time>
      </trkpt>
      <trkpt lat="45.34704" lon="6.18011">
        <ele>2165.3999023438</ele>
        <time>2014-03-02T13:30:13.000Z</time>
      </trkpt>
      <trkpt lat="45.34704" lon="6.18011">
        <ele>2165.3999023438</ele>
        <time>2014-03-02T13:30:14.000Z</time>
      </trkpt>
      <trkpt lat="45.34704" lon="6.18011">
        <ele>2165.3999023438</ele>
        <time>2014-03-02T13:30:15.000Z</time>
      </trkpt>
      <trkpt lat="45.34704" lon="6.18011">
        <ele>2165.3999023438</ele>
        <time>2014-03-02T13:30:18.000Z</time>
      </trkpt>
      <trkpt lat="45.34704" lon="6.18011">
        <ele>2165.3999023438</ele>
        <time>2014-03-02T13:30:19.000Z</time>
      </trkpt>
      <trkpt lat="45.34704" lon="6.18011">
        <ele>2165.3999023438</ele>
        <time>2014-03-02T13:30:22.000Z</time>
      </trkpt>
      <trkpt lat="45.34704" lon="6.18011">
        <ele>2165.3999023438</ele>
        <time>2014-03-02T13:30:23.000Z</time>
      </trkpt>
      <trkpt lat="45.34704" lon="6.18011">
        <ele>2165.3999023438</ele>
        <time>2014-03-02T13:30:24.000Z</time>
      </trkpt>
      <trkpt lat="45.34704" lon="6.18011">
        <ele>2165.3999023438</ele>
        <time>2014-03-02T13:30:25.000Z</time>
      </trkpt>
      <trkpt lat="45.34704" lon="6.18011">
        <ele>2165.3999023438</ele>
        <time>2014-03-02T13:30:26.000Z</time>
      </trkpt>
      <trkpt lat="45.34704" lon="6.18011">
        <ele>2165.3999023438</ele>
        <time>2014-03-02T13:30:28.000Z</time>
      </trkpt>
      <trkpt lat="45.34704" lon="6.18011">
        <ele>2165.3999023438</ele>
        <time>2014-03-02T13:30:29.000Z</time>
      </trkpt>
      <trkpt lat="45.34704" lon="6.18011">
        <ele>2165.3999023438</ele>
        <time>2014-03-02T13:30:30.000Z</time>
      </trkpt>
      <trkpt lat="45.34704" lon="6.18011">
        <ele>2165.3999023438</ele>
        <time>2014-03-02T13:30:31.000Z</time>
      </trkpt>
      <trkpt lat="45.34704" lon="6.18011">
        <ele>2165.3999023438</ele>
        <time>2014-03-02T13:30:32.000Z</time>
      </trkpt>
      <trkpt lat="45.34704" lon="6.18011">
        <ele>2165.3999023438</ele>
        <time>2014-03-02T13:30:34.000Z</time>
      </trkpt>
      <trkpt lat="45.34704" lon="6.18011">
        <ele>2165.3999023438</ele>
        <time>2014-03-02T13:30:35.000Z</time>
      </trkpt>
      <trkpt lat="45.34704" lon="6.18012">
        <ele>2165.6000976562</ele>
        <time>2014-03-02T13:30:39.000Z</time>
      </trkpt>
      <trkpt lat="45.34704" lon="6.18012">
        <ele>2165.6000976562</ele>
        <time>2014-03-02T13:30:40.000Z</time>
      </trkpt>
      <trkpt lat="45.34704" lon="6.18012">
        <ele>2165.6000976562</ele>
        <time>2014-03-02T13:30:45.000Z</time>
      </trkpt>
      <trkpt lat="45.34704" lon="6.18012">
        <ele>2165.6000976562</ele>
        <time>2014-03-02T13:30:46.000Z</time>
      </trkpt>
      <trkpt lat="45.34704" lon="6.18012">
        <ele>2165.6000976562</ele>
        <time>2014-03-02T13:30:47.000Z</time>
      </trkpt>
      <trkpt lat="45.34704" lon="6.18012">
        <ele>2165.6000976562</ele>
        <time>2014-03-02T13:30:48.000Z</time>
      </trkpt>
      <trkpt lat="45.34704" lon="6.18012">
        <ele>2165.6000976562</ele>
        <time>2014-03-02T13:30:49.000Z</time>
      </trkpt>
      <trkpt lat="45.34704" lon="6.18012">
        <ele>2165.6000976562</ele>
        <time>2014-03-02T13:30:50.000Z</time>
      </trkpt>
      <trkpt lat="45.34704" lon="6.18012">
        <ele>2165.6000976562</ele>
        <time>2014-03-02T13:30:51.000Z</time>
      </trkpt>
      <trkpt lat="45.34704" lon="6.18012">
        <ele>2165.6000976562</ele>
        <time>2014-03-02T13:30:52.000Z</time>
      </trkpt>
      <trkpt lat="45.34704" lon="6.18012">
        <ele>2165.6000976562</ele>
        <time>2014-03-02T13:30:53.000Z</time>
      </trkpt>
      <trkpt lat="45.34704" lon="6.18012">
        <ele>2165.6000976562</ele>
        <time>2014-03-02T13:30:54.000Z</time>
      </trkpt>
      <trkpt lat="45.34704" lon="6.18012">
        <ele>2165.6000976562</ele>
        <time>2014-03-02T13:30:55.000Z</time>
      </trkpt>
      <trkpt lat="45.34704" lon="6.18012">
        <ele>2165.6000976562</ele>
        <time>2014-03-02T13:30:56.000Z</time>
      </trkpt>
      <trkpt lat="45.34704" lon="6.18012">
        <ele>2165.6000976562</ele>
        <time>2014-03-02T13:30:57.000Z</time>
      </trkpt>
      <trkpt lat="45.34704" lon="6.18012">
        <ele>2165.6000976562</ele>
        <time>2014-03-02T13:30:58.000Z</time>
      </trkpt>
      <trkpt lat="45.34704" lon="6.18012">
        <ele>2165.6000976562</ele>
        <time>2014-03-02T13:30:59.000Z</time>
      </trkpt>
      <trkpt lat="45.34704" lon="6.18012">
        <ele>2165.6000976562</ele>
        <time>2014-03-02T13:31:00.000Z</time>
      </trkpt>
      <trkpt lat="45.34704" lon="6.18012">
        <ele>2165.6000976562</ele>
        <time>2014-03-02T13:31:01.000Z</time>
      </trkpt>
      <trkpt lat="45.34704" lon="6.18012">
        <ele>2165.6000976562</ele>
        <time>2014-03-02T13:31:03.000Z</time>
      </trkpt>
      <trkpt lat="45.34704" lon="6.18012">
        <ele>2165.6000976562</ele>
        <time>2014-03-02T13:31:04.000Z</time>
      </trkpt>
      <trkpt lat="45.34704" lon="6.18012">
        <ele>2165.6000976562</ele>
        <time>2014-03-02T13:31:06.000Z</time>
      </trkpt>
      <trkpt lat="45.34704" lon="6.18012">
        <ele>2165.6000976562</ele>
        <time>2014-03-02T13:31:07.000Z</time>
      </trkpt>
      <trkpt lat="45.34704" lon="6.18012">
        <ele>2165.6000976562</ele>
        <time>2014-03-02T13:31:08.000Z</time>
      </trkpt>
      <trkpt lat="45.34704" lon="6.18012">
        <ele>2165.6000976562</ele>
        <time>2014-03-02T13:31:09.000Z</time>
      </trkpt>
      <trkpt lat="45.34704" lon="6.18012">
        <ele>2165.6000976562</ele>
        <time>2014-03-02T13:31:10.000Z</time>
      </trkpt>
      <trkpt lat="45.34704" lon="6.18012">
        <ele>2165.6000976562</ele>
        <time>2014-03-02T13:31:11.000Z</time>
      </trkpt>
      <trkpt lat="45.34704" lon="6.18012">
        <ele>2165.6000976562</ele>
        <time>2014-03-02T13:31:12.000Z</time>
      </trkpt>
      <trkpt lat="45.34704" lon="6.18012">
        <ele>2165.6000976562</ele>
        <time>2014-03-02T13:31:14.000Z</time>
      </trkpt>
      <trkpt lat="45.34704" lon="6.18012">
        <ele>2165.6000976562</ele>
        <time>2014-03-02T13:31:15.000Z</time>
      </trkpt>
      <trkpt lat="45.34704" lon="6.18012">
        <ele>2165.6000976562</ele>
        <time>2014-03-02T13:31:17.000Z</time>
      </trkpt>
      <trkpt lat="45.34703" lon="6.18013">
        <ele>2166.1999511719</ele>
        <time>2014-03-02T13:31:19.000Z</time>
      </trkpt>
      <trkpt lat="45.34703" lon="6.18013">
        <ele>2166.1999511719</ele>
        <time>2014-03-02T13:31:20.000Z</time>
      </trkpt>
      <trkpt lat="45.34703" lon="6.18013">
        <ele>2166.1999511719</ele>
        <time>2014-03-02T13:31:26.000Z</time>
      </trkpt>
      <trkpt lat="45.34703" lon="6.18013">
        <ele>2166.1999511719</ele>
        <time>2014-03-02T13:31:27.000Z</time>
      </trkpt>
      <trkpt lat="45.34703" lon="6.18013">
        <ele>2166.1999511719</ele>
        <time>2014-03-02T13:31:30.000Z</time>
      </trkpt>
      <trkpt lat="45.34703" lon="6.18013">
        <ele>2166.1999511719</ele>
        <time>2014-03-02T13:31:33.000Z</time>
      </trkpt>
      <trkpt lat="45.34703" lon="6.18013">
        <ele>2166.1999511719</ele>
        <time>2014-03-02T13:31:35.000Z</time>
      </trkpt>
      <trkpt lat="45.34703" lon="6.18013">
        <ele>2166.1999511719</ele>
        <time>2014-03-02T13:31:36.000Z</time>
      </trkpt>
      <trkpt lat="45.34703" lon="6.18013">
        <ele>2166.1999511719</ele>
        <time>2014-03-02T13:31:37.000Z</time>
      </trkpt>
      <trkpt lat="45.34703" lon="6.18013">
        <ele>2166.1999511719</ele>
        <time>2014-03-02T13:31:38.000Z</time>
      </trkpt>
      <trkpt lat="45.34703" lon="6.18013">
        <ele>2166.1999511719</ele>
        <time>2014-03-02T13:31:39.000Z</time>
      </trkpt>
      <trkpt lat="45.34703" lon="6.18013">
        <ele>2166.1999511719</ele>
        <time>2014-03-02T13:31:40.000Z</time>
      </trkpt>
      <trkpt lat="45.34703" lon="6.18013">
        <ele>2166.1999511719</ele>
        <time>2014-03-02T13:31:41.000Z</time>
      </trkpt>
      <trkpt lat="45.34703" lon="6.18013">
        <ele>2166.1999511719</ele>
        <time>2014-03-02T13:31:42.000Z</time>
      </trkpt>
      <trkpt lat="45.34703" lon="6.18013">
        <ele>2166.1999511719</ele>
        <time>2014-03-02T13:31:43.000Z</time>
      </trkpt>
      <trkpt lat="45.34703" lon="6.18013">
        <ele>2166.1999511719</ele>
        <time>2014-03-02T13:31:44.000Z</time>
      </trkpt>
      <trkpt lat="45.34703" lon="6.18013">
        <ele>2166.1999511719</ele>
        <time>2014-03-02T13:31:45.000Z</time>
      </trkpt>
      <trkpt lat="45.34703" lon="6.18013">
        <ele>2166.1999511719</ele>
        <time>2014-03-02T13:31:46.000Z</time>
      </trkpt>
      <trkpt lat="45.34703" lon="6.18013">
        <ele>2166.1999511719</ele>
        <time>2014-03-02T13:31:47.000Z</time>
      </trkpt>
      <trkpt lat="45.34703" lon="6.18013">
        <ele>2166.1999511719</ele>
        <time>2014-03-02T13:31:48.000Z</time>
      </trkpt>
      <trkpt lat="45.34703" lon="6.18013">
        <ele>2166.1999511719</ele>
        <time>2014-03-02T13:31:49.000Z</time>
      </trkpt>
      <trkpt lat="45.34703" lon="6.18013">
        <ele>2166.1999511719</ele>
        <time>2014-03-02T13:31:50.000Z</time>
      </trkpt>
      <trkpt lat="45.34703" lon="6.18013">
        <ele>2166.1999511719</ele>
        <time>2014-03-02T13:31:51.000Z</time>
      </trkpt>
      <trkpt lat="45.34703" lon="6.18013">
        <ele>2166.1999511719</ele>
        <time>2014-03-02T13:31:52.000Z</time>
      </trkpt>
      <trkpt lat="45.34703" lon="6.18013">
        <ele>2166.1999511719</ele>
        <time>2014-03-02T13:31:53.000Z</time>
      </trkpt>
      <trkpt lat="45.34706" lon="6.18014">
        <ele>2165.3999023438</ele>
        <time>2014-03-02T13:31:54.000Z</time>
      </trkpt>
      <trkpt lat="45.34708" lon="6.18014">
        <ele>2164.8000488281</ele>
        <time>2014-03-02T13:31:55.000Z</time>
      </trkpt>
      <trkpt lat="45.3471" lon="6.18014">
        <ele>2164</ele>
        <time>2014-03-02T13:31:56.000Z</time>
      </trkpt>
      <trkpt lat="45.34711" lon="6.18013">
        <ele>2163.1999511719</ele>
        <time>2014-03-02T13:31:57.000Z</time>
      </trkpt>
      <trkpt lat="45.34713" lon="6.18011">
        <ele>2162</ele>
        <time>2014-03-02T13:31:58.000Z</time>
      </trkpt>
      <trkpt lat="45.34714" lon="6.18009">
        <ele>2160.6000976562</ele>
        <time>2014-03-02T13:31:59.000Z</time>
      </trkpt>
      <trkpt lat="45.34716" lon="6.18007">
        <ele>2159.8000488281</ele>
        <time>2014-03-02T13:32:00.000Z</time>
      </trkpt>
      <trkpt lat="45.34718" lon="6.18004">
        <ele>2158.8000488281</ele>
        <time>2014-03-02T13:32:01.000Z</time>
      </trkpt>
      <trkpt lat="45.34719" lon="6.18001">
        <ele>2157.8000488281</ele>
        <time>2014-03-02T13:32:02.000Z</time>
      </trkpt>
      <trkpt lat="45.34719" lon="6.17997">
        <ele>2156.3999023438</ele>
        <time>2014-03-02T13:32:03.000Z</time>
      </trkpt>
      <trkpt lat="45.34721" lon="6.17992">
        <ele>2155</ele>
        <time>2014-03-02T13:32:04.000Z</time>
      </trkpt>
      <trkpt lat="45.34722" lon="6.17987">
        <ele>2153.1999511719</ele>
        <time>2014-03-02T13:32:05.000Z</time>
      </trkpt>
      <trkpt lat="45.34722" lon="6.17981">
        <ele>2150.6000976562</ele>
        <time>2014-03-02T13:32:06.000Z</time>
      </trkpt>
      <trkpt lat="45.34723" lon="6.17976">
        <ele>2148.1999511719</ele>
        <time>2014-03-02T13:32:07.000Z</time>
      </trkpt>
      <trkpt lat="45.34724" lon="6.1797">
        <ele>2146.6000976562</ele>
        <time>2014-03-02T13:32:08.000Z</time>
      </trkpt>
      <trkpt lat="45.34727" lon="6.17964">
        <ele>2144.6000976562</ele>
        <time>2014-03-02T13:32:09.000Z</time>
      </trkpt>
      <trkpt lat="45.3473" lon="6.17957">
        <ele>2142.3999023438</ele>
        <time>2014-03-02T13:32:10.000Z</time>
      </trkpt>
      <trkpt lat="45.34733" lon="6.1795">
        <ele>2139.8000488281</ele>
        <time>2014-03-02T13:32:11.000Z</time>
      </trkpt>
      <trkpt lat="45.34737" lon="6.17943">
        <ele>2137.1999511719</ele>
        <time>2014-03-02T13:32:12.000Z</time>
      </trkpt>
      <trkpt lat="45.34742" lon="6.17938">
        <ele>2134.6000976562</ele>
        <time>2014-03-02T13:32:13.000Z</time>
      </trkpt>
      <trkpt lat="45.34746" lon="6.1793">
        <ele>2132</ele>
        <time>2014-03-02T13:32:14.000Z</time>
      </trkpt>
      <trkpt lat="45.34751" lon="6.17923">
        <ele>2129</ele>
        <time>2014-03-02T13:32:15.000Z</time>
      </trkpt>
      <trkpt lat="45.34756" lon="6.17915">
        <ele>2125.8000488281</ele>
        <time>2014-03-02T13:32:16.000Z</time>
      </trkpt>
      <trkpt lat="45.3476" lon="6.17905">
        <ele>2122.6000976562</ele>
        <time>2014-03-02T13:32:17.000Z</time>
      </trkpt>
      <trkpt lat="45.34764" lon="6.17895">
        <ele>2119.1999511719</ele>
        <time>2014-03-02T13:32:18.000Z</time>
      </trkpt>
      <trkpt lat="45.34767" lon="6.17885">
        <ele>2117.8000488281</ele>
        <time>2014-03-02T13:32:19.000Z</time>
      </trkpt>
      <trkpt lat="45.34771" lon="6.17876">
        <ele>2116.3999023438</ele>
        <time>2014-03-02T13:32:20.000Z</time>
      </trkpt>
      <trkpt lat="45.34778" lon="6.17869">
        <ele>2113.3999023438</ele>
        <time>2014-03-02T13:32:21.000Z</time>
      </trkpt>
      <trkpt lat="45.34782" lon="6.1786">
        <ele>2109.6000976562</ele>
        <time>2014-03-02T13:32:22.000Z</time>
      </trkpt>
      <trkpt lat="45.34788" lon="6.17854">
        <ele>2105.6000976562</ele>
        <time>2014-03-02T13:32:23.000Z</time>
      </trkpt>
      <trkpt lat="45.34793" lon="6.17845">
        <ele>2101.8000488281</ele>
        <time>2014-03-02T13:32:24.000Z</time>
      </trkpt>
      <trkpt lat="45.34798" lon="6.17836">
        <ele>2097.6000976562</ele>
        <time>2014-03-02T13:32:25.000Z</time>
      </trkpt>
      <trkpt lat="45.34803" lon="6.17826">
        <ele>2096</ele>
        <time>2014-03-02T13:32:26.000Z</time>
      </trkpt>
      <trkpt lat="45.34806" lon="6.17817">
        <ele>2094.3999023438</ele>
        <time>2014-03-02T13:32:27.000Z</time>
      </trkpt>
      <trkpt lat="45.34809" lon="6.17808">
        <ele>2093</ele>
        <time>2014-03-02T13:32:28.000Z</time>
      </trkpt>
      <trkpt lat="45.34811" lon="6.17798">
        <ele>2091</ele>
        <time>2014-03-02T13:32:29.000Z</time>
      </trkpt>
      <trkpt lat="45.34813" lon="6.17787">
        <ele>2088.8000488281</ele>
        <time>2014-03-02T13:32:30.000Z</time>
      </trkpt>
      <trkpt lat="45.34815" lon="6.17775">
        <ele>2086.1999511719</ele>
        <time>2014-03-02T13:32:31.000Z</time>
      </trkpt>
      <trkpt lat="45.34817" lon="6.17762">
        <ele>2083.3999023438</ele>
        <time>2014-03-02T13:32:32.000Z</time>
      </trkpt>
      <trkpt lat="45.3482" lon="6.17748">
        <ele>2081</ele>
        <time>2014-03-02T13:32:33.000Z</time>
      </trkpt>
      <trkpt lat="45.34822" lon="6.17734">
        <ele>2080</ele>
        <time>2014-03-02T13:32:34.000Z</time>
      </trkpt>
      <trkpt lat="45.34824" lon="6.1772">
        <ele>2078.1999511719</ele>
        <time>2014-03-02T13:32:35.000Z</time>
      </trkpt>
      <trkpt lat="45.34825" lon="6.17707">
        <ele>2075.3999023438</ele>
        <time>2014-03-02T13:32:36.000Z</time>
      </trkpt>
      <trkpt lat="45.34827" lon="6.17695">
        <ele>2073.3999023438</ele>
        <time>2014-03-02T13:32:37.000Z</time>
      </trkpt>
      <trkpt lat="45.34827" lon="6.17685">
        <ele>2071.1999511719</ele>
        <time>2014-03-02T13:32:38.000Z</time>
      </trkpt>
      <trkpt lat="45.34826" lon="6.17677">
        <ele>2068.8000488281</ele>
        <time>2014-03-02T13:32:39.000Z</time>
      </trkpt>
      <trkpt lat="45.34823" lon="6.1767">
        <ele>2066.3999023438</ele>
        <time>2014-03-02T13:32:40.000Z</time>
      </trkpt>
      <trkpt lat="45.34819" lon="6.17664">
        <ele>2063.8000488281</ele>
        <time>2014-03-02T13:32:41.000Z</time>
      </trkpt>
      <trkpt lat="45.34815" lon="6.17659">
        <ele>2061.6000976562</ele>
        <time>2014-03-02T13:32:42.000Z</time>
      </trkpt>
      <trkpt lat="45.34811" lon="6.17655">
        <ele>2059.8000488281</ele>
        <time>2014-03-02T13:32:43.000Z</time>
      </trkpt>
      <trkpt lat="45.34808" lon="6.17654">
        <ele>2058.8000488281</ele>
        <time>2014-03-02T13:32:44.000Z</time>
      </trkpt>
      <trkpt lat="45.34805" lon="6.17652">
        <ele>2057.8000488281</ele>
        <time>2014-03-02T13:32:45.000Z</time>
      </trkpt>
      <trkpt lat="45.34803" lon="6.17651">
        <ele>2057</ele>
        <time>2014-03-02T13:32:46.000Z</time>
      </trkpt>
      <trkpt lat="45.34801" lon="6.1765">
        <ele>2056</ele>
        <time>2014-03-02T13:32:47.000Z</time>
      </trkpt>
      <trkpt lat="45.34799" lon="6.17647">
        <ele>2054.8000488281</ele>
        <time>2014-03-02T13:32:48.000Z</time>
      </trkpt>
      <trkpt lat="45.34796" lon="6.17644">
        <ele>2054.1999511719</ele>
        <time>2014-03-02T13:32:49.000Z</time>
      </trkpt>
      <trkpt lat="45.34794" lon="6.17642">
        <ele>2053.6000976562</ele>
        <time>2014-03-02T13:32:50.000Z</time>
      </trkpt>
      <trkpt lat="45.34792" lon="6.1764">
        <ele>2053</ele>
        <time>2014-03-02T13:32:51.000Z</time>
      </trkpt>
      <trkpt lat="45.3479" lon="6.17637">
        <ele>2052.3999023438</ele>
        <time>2014-03-02T13:32:52.000Z</time>
      </trkpt>
      <trkpt lat="45.34789" lon="6.17633">
        <ele>2051.8000488281</ele>
        <time>2014-03-02T13:32:53.000Z</time>
      </trkpt>
      <trkpt lat="45.34788" lon="6.1763">
        <ele>2051.1999511719</ele>
        <time>2014-03-02T13:32:54.000Z</time>
      </trkpt>
      <trkpt lat="45.34786" lon="6.17625">
        <ele>2050.3999023438</ele>
        <time>2014-03-02T13:32:55.000Z</time>
      </trkpt>
      <trkpt lat="45.34784" lon="6.17621">
        <ele>2049.6000976562</ele>
        <time>2014-03-02T13:32:56.000Z</time>
      </trkpt>
      <trkpt lat="45.34782" lon="6.17616">
        <ele>2048.8000488281</ele>
        <time>2014-03-02T13:32:57.000Z</time>
      </trkpt>
      <trkpt lat="45.34781" lon="6.17611">
        <ele>2048</ele>
        <time>2014-03-02T13:32:58.000Z</time>
      </trkpt>
      <trkpt lat="45.34779" lon="6.17608">
        <ele>2047.4000244141</ele>
        <time>2014-03-02T13:32:59.000Z</time>
      </trkpt>
      <trkpt lat="45.34778" lon="6.17605">
        <ele>2046.8000488281</ele>
        <time>2014-03-02T13:33:00.000Z</time>
      </trkpt>
      <trkpt lat="45.34777" lon="6.17603">
        <ele>2046.4000244141</ele>
        <time>2014-03-02T13:33:01.000Z</time>
      </trkpt>
      <trkpt lat="45.34776" lon="6.17601">
        <ele>2046.1999511719</ele>
        <time>2014-03-02T13:33:02.000Z</time>
      </trkpt>
      <trkpt lat="45.34775" lon="6.176">
        <ele>2045.8000488281</ele>
        <time>2014-03-02T13:33:03.000Z</time>
      </trkpt>
      <trkpt lat="45.34775" lon="6.17599">
        <ele>2045.8000488281</ele>
        <time>2014-03-02T13:33:04.000Z</time>
      </trkpt>
      <trkpt lat="45.34774" lon="6.17598">
        <ele>2045.5999755859</ele>
        <time>2014-03-02T13:33:05.000Z</time>
      </trkpt>
      <trkpt lat="45.34774" lon="6.17598">
        <ele>2045.5999755859</ele>
        <time>2014-03-02T13:33:06.000Z</time>
      </trkpt>
      <trkpt lat="45.34774" lon="6.17597">
        <ele>2045.4000244141</ele>
        <time>2014-03-02T13:33:07.000Z</time>
      </trkpt>
      <trkpt lat="45.34773" lon="6.17597">
        <ele>2045.4000244141</ele>
        <time>2014-03-02T13:33:08.000Z</time>
      </trkpt>
      <trkpt lat="45.34773" lon="6.17596">
        <ele>2045.1999511719</ele>
        <time>2014-03-02T13:33:09.000Z</time>
      </trkpt>
      <trkpt lat="45.34772" lon="6.17595">
        <ele>2045</ele>
        <time>2014-03-02T13:33:10.000Z</time>
      </trkpt>
      <trkpt lat="45.34771" lon="6.17594">
        <ele>2044.8000488281</ele>
        <time>2014-03-02T13:33:11.000Z</time>
      </trkpt>
      <trkpt lat="45.3477" lon="6.17594">
        <ele>2044.8000488281</ele>
        <time>2014-03-02T13:33:12.000Z</time>
      </trkpt>
      <trkpt lat="45.34769" lon="6.17593">
        <ele>2044.5999755859</ele>
        <time>2014-03-02T13:33:13.000Z</time>
      </trkpt>
      <trkpt lat="45.34768" lon="6.17591">
        <ele>2044.1999511719</ele>
        <time>2014-03-02T13:33:14.000Z</time>
      </trkpt>
      <trkpt lat="45.34767" lon="6.1759">
        <ele>2044</ele>
        <time>2014-03-02T13:33:15.000Z</time>
      </trkpt>
      <trkpt lat="45.34766" lon="6.17588">
        <ele>2043.8000488281</ele>
        <time>2014-03-02T13:33:16.000Z</time>
      </trkpt>
      <trkpt lat="45.34765" lon="6.17587">
        <ele>2043.5999755859</ele>
        <time>2014-03-02T13:33:17.000Z</time>
      </trkpt>
      <trkpt lat="45.34763" lon="6.17585">
        <ele>2043.1999511719</ele>
        <time>2014-03-02T13:33:18.000Z</time>
      </trkpt>
      <trkpt lat="45.34762" lon="6.17584">
        <ele>2043</ele>
        <time>2014-03-02T13:33:19.000Z</time>
      </trkpt>
      <trkpt lat="45.3476" lon="6.17582">
        <ele>2042.5999755859</ele>
        <time>2014-03-02T13:33:20.000Z</time>
      </trkpt>
      <trkpt lat="45.34759" lon="6.17581">
        <ele>2042.4000244141</ele>
        <time>2014-03-02T13:33:21.000Z</time>
      </trkpt>
      <trkpt lat="45.34757" lon="6.17579">
        <ele>2042</ele>
        <time>2014-03-02T13:33:22.000Z</time>
      </trkpt>
      <trkpt lat="45.34756" lon="6.17578">
        <ele>2041.8000488281</ele>
        <time>2014-03-02T13:33:23.000Z</time>
      </trkpt>
      <trkpt lat="45.34756" lon="6.17576">
        <ele>2041.5999755859</ele>
        <time>2014-03-02T13:33:24.000Z</time>
      </trkpt>
      <trkpt lat="45.34755" lon="6.17575">
        <ele>2041.1999511719</ele>
        <time>2014-03-02T13:33:25.000Z</time>
      </trkpt>
      <trkpt lat="45.34754" lon="6.17573">
        <ele>2041</ele>
        <time>2014-03-02T13:33:26.000Z</time>
      </trkpt>
      <trkpt lat="45.34753" lon="6.17572">
        <ele>2040.8000488281</ele>
        <time>2014-03-02T13:33:27.000Z</time>
      </trkpt>
      <trkpt lat="45.34753" lon="6.17571">
        <ele>2040.5999755859</ele>
        <time>2014-03-02T13:33:28.000Z</time>
      </trkpt>
      <trkpt lat="45.34753" lon="6.17571">
        <ele>2040.5999755859</ele>
        <time>2014-03-02T13:33:29.000Z</time>
      </trkpt>
      <trkpt lat="45.34752" lon="6.17569">
        <ele>2040.1999511719</ele>
        <time>2014-03-02T13:33:30.000Z</time>
      </trkpt>
      <trkpt lat="45.34752" lon="6.17568">
        <ele>2040</ele>
        <time>2014-03-02T13:33:31.000Z</time>
      </trkpt>
      <trkpt lat="45.34751" lon="6.17566">
        <ele>2039.5999755859</ele>
        <time>2014-03-02T13:33:32.000Z</time>
      </trkpt>
      <trkpt lat="45.3475" lon="6.17565">
        <ele>2039.4000244141</ele>
        <time>2014-03-02T13:33:33.000Z</time>
      </trkpt>
      <trkpt lat="45.34749" lon="6.17564">
        <ele>2039.4000244141</ele>
        <time>2014-03-02T13:33:34.000Z</time>
      </trkpt>
      <trkpt lat="45.34749" lon="6.17564">
        <ele>2039.1999511719</ele>
        <time>2014-03-02T13:33:35.000Z</time>
      </trkpt>
      <trkpt lat="45.34749" lon="6.17564">
        <ele>2039.1999511719</ele>
        <time>2014-03-02T13:33:36.000Z</time>
      </trkpt>
      <trkpt lat="45.34749" lon="6.17564">
        <ele>2039.1999511719</ele>
        <time>2014-03-02T13:33:37.000Z</time>
      </trkpt>
      <trkpt lat="45.34749" lon="6.17564">
        <ele>2039.1999511719</ele>
        <time>2014-03-02T13:33:38.000Z</time>
      </trkpt>
      <trkpt lat="45.34749" lon="6.17564">
        <ele>2039.1999511719</ele>
        <time>2014-03-02T13:33:39.000Z</time>
      </trkpt>
      <trkpt lat="45.34749" lon="6.17564">
        <ele>2039.1999511719</ele>
        <time>2014-03-02T13:33:40.000Z</time>
      </trkpt>
      <trkpt lat="45.34749" lon="6.17564">
        <ele>2039.1999511719</ele>
        <time>2014-03-02T13:33:41.000Z</time>
      </trkpt>
      <trkpt lat="45.34749" lon="6.17564">
        <ele>2039.1999511719</ele>
        <time>2014-03-02T13:33:42.000Z</time>
      </trkpt>
      <trkpt lat="45.34749" lon="6.17564">
        <ele>2039.1999511719</ele>
        <time>2014-03-02T13:33:43.000Z</time>
      </trkpt>
      <trkpt lat="45.34749" lon="6.17564">
        <ele>2039.1999511719</ele>
        <time>2014-03-02T13:33:44.000Z</time>
      </trkpt>
      <trkpt lat="45.34749" lon="6.17564">
        <ele>2039.1999511719</ele>
        <time>2014-03-02T13:33:45.000Z</time>
      </trkpt>
      <trkpt lat="45.34749" lon="6.17564">
        <ele>2039.1999511719</ele>
        <time>2014-03-02T13:33:46.000Z</time>
      </trkpt>
      <trkpt lat="45.34749" lon="6.17564">
        <ele>2039.1999511719</ele>
        <time>2014-03-02T13:33:47.000Z</time>
      </trkpt>
      <trkpt lat="45.34749" lon="6.17564">
        <ele>2039.1999511719</ele>
        <time>2014-03-02T13:33:48.000Z</time>
      </trkpt>
      <trkpt lat="45.34749" lon="6.17564">
        <ele>2039.1999511719</ele>
        <time>2014-03-02T13:33:49.000Z</time>
      </trkpt>
      <trkpt lat="45.34749" lon="6.17564">
        <ele>2039.1999511719</ele>
        <time>2014-03-02T13:33:50.000Z</time>
      </trkpt>
      <trkpt lat="45.34749" lon="6.17564">
        <ele>2039.1999511719</ele>
        <time>2014-03-02T13:33:53.000Z</time>
      </trkpt>
      <trkpt lat="45.34749" lon="6.17564">
        <ele>2039.1999511719</ele>
        <time>2014-03-02T13:33:54.000Z</time>
      </trkpt>
      <trkpt lat="45.34749" lon="6.17564">
        <ele>2039.1999511719</ele>
        <time>2014-03-02T13:33:55.000Z</time>
      </trkpt>
      <trkpt lat="45.34749" lon="6.17564">
        <ele>2039.1999511719</ele>
        <time>2014-03-02T13:33:56.000Z</time>
      </trkpt>
      <trkpt lat="45.34749" lon="6.17564">
        <ele>2039.1999511719</ele>
        <time>2014-03-02T13:33:57.000Z</time>
      </trkpt>
      <trkpt lat="45.34749" lon="6.17564">
        <ele>2039.1999511719</ele>
        <time>2014-03-02T13:33:58.000Z</time>
      </trkpt>
      <trkpt lat="45.34749" lon="6.17564">
        <ele>2039.1999511719</ele>
        <time>2014-03-02T13:34:02.000Z</time>
      </trkpt>
      <trkpt lat="45.34749" lon="6.17564">
        <ele>2039.1999511719</ele>
        <time>2014-03-02T13:34:03.000Z</time>
      </trkpt>
      <trkpt lat="45.34749" lon="6.17564">
        <ele>2039.1999511719</ele>
        <time>2014-03-02T13:34:06.000Z</time>
      </trkpt>
      <trkpt lat="45.34749" lon="6.17564">
        <ele>2039.1999511719</ele>
        <time>2014-03-02T13:34:10.000Z</time>
      </trkpt>
      <trkpt lat="45.34749" lon="6.17564">
        <ele>2039.1999511719</ele>
        <time>2014-03-02T13:34:11.000Z</time>
      </trkpt>
      <trkpt lat="45.34749" lon="6.17564">
        <ele>2039.1999511719</ele>
        <time>2014-03-02T13:34:12.000Z</time>
      </trkpt>
      <trkpt lat="45.34749" lon="6.17564">
        <ele>2039.1999511719</ele>
        <time>2014-03-02T13:34:13.000Z</time>
      </trkpt>
      <trkpt lat="45.34749" lon="6.17564">
        <ele>2039.4000244141</ele>
        <time>2014-03-02T13:34:16.000Z</time>
      </trkpt>
      <trkpt lat="45.34749" lon="6.17564">
        <ele>2039.4000244141</ele>
        <time>2014-03-02T13:34:17.000Z</time>
      </trkpt>
      <trkpt lat="45.34749" lon="6.17564">
        <ele>2039.4000244141</ele>
        <time>2014-03-02T13:34:18.000Z</time>
      </trkpt>
      <trkpt lat="45.34749" lon="6.17564">
        <ele>2039.4000244141</ele>
        <time>2014-03-02T13:34:19.000Z</time>
      </trkpt>
      <trkpt lat="45.34749" lon="6.17564">
        <ele>2039.4000244141</ele>
        <time>2014-03-02T13:34:20.000Z</time>
      </trkpt>
      <trkpt lat="45.34749" lon="6.17564">
        <ele>2039.4000244141</ele>
        <time>2014-03-02T13:34:25.000Z</time>
      </trkpt>
      <trkpt lat="45.34749" lon="6.17564">
        <ele>2039.1999511719</ele>
        <time>2014-03-02T13:34:29.000Z</time>
      </trkpt>
      <trkpt lat="45.34748" lon="6.17564">
        <ele>2039.1999511719</ele>
        <time>2014-03-02T13:34:30.000Z</time>
      </trkpt>
      <trkpt lat="45.34747" lon="6.17564">
        <ele>2039.1999511719</ele>
        <time>2014-03-02T13:34:31.000Z</time>
      </trkpt>
      <trkpt lat="45.34747" lon="6.17564">
        <ele>2039.1999511719</ele>
        <time>2014-03-02T13:34:32.000Z</time>
      </trkpt>
      <trkpt lat="45.34744" lon="6.17564">
        <ele>2039.1999511719</ele>
        <time>2014-03-02T13:34:34.000Z</time>
      </trkpt>
      <trkpt lat="45.34743" lon="6.17564">
        <ele>2039.1999511719</ele>
        <time>2014-03-02T13:34:35.000Z</time>
      </trkpt>
      <trkpt lat="45.3474" lon="6.17564">
        <ele>2039.1999511719</ele>
        <time>2014-03-02T13:34:36.000Z</time>
      </trkpt>
      <trkpt lat="45.34736" lon="6.17565">
        <ele>2039.1999511719</ele>
        <time>2014-03-02T13:34:37.000Z</time>
      </trkpt>
      <trkpt lat="45.34732" lon="6.17565">
        <ele>2039.1999511719</ele>
        <time>2014-03-02T13:34:38.000Z</time>
      </trkpt>
      <trkpt lat="45.34726" lon="6.17564">
        <ele>2038.8000488281</ele>
        <time>2014-03-02T13:34:39.000Z</time>
      </trkpt>
      <trkpt lat="45.34721" lon="6.17561">
        <ele>2038.1999511719</ele>
        <time>2014-03-02T13:34:40.000Z</time>
      </trkpt>
      <trkpt lat="45.34716" lon="6.17558">
        <ele>2037.1999511719</ele>
        <time>2014-03-02T13:34:41.000Z</time>
      </trkpt>
      <trkpt lat="45.34712" lon="6.17555">
        <ele>2036</ele>
        <time>2014-03-02T13:34:42.000Z</time>
      </trkpt>
      <trkpt lat="45.34707" lon="6.17554">
        <ele>2034.4000244141</ele>
        <time>2014-03-02T13:34:43.000Z</time>
      </trkpt>
      <trkpt lat="45.34702" lon="6.17554">
        <ele>2033</ele>
        <time>2014-03-02T13:34:44.000Z</time>
      </trkpt>
      <trkpt lat="45.34698" lon="6.17554">
        <ele>2031.8000488281</ele>
        <time>2014-03-02T13:34:45.000Z</time>
      </trkpt>
      <trkpt lat="45.34694" lon="6.17555">
        <ele>2030.8000488281</ele>
        <time>2014-03-02T13:34:46.000Z</time>
      </trkpt>
      <trkpt lat="45.34692" lon="6.17557">
        <ele>2030.5999755859</ele>
        <time>2014-03-02T13:34:47.000Z</time>
      </trkpt>
      <trkpt lat="45.3469" lon="6.17559">
        <ele>2030.4000244141</ele>
        <time>2014-03-02T13:34:48.000Z</time>
      </trkpt>
      <trkpt lat="45.34689" lon="6.17561">
        <ele>2030.4000244141</ele>
        <time>2014-03-02T13:34:49.000Z</time>
      </trkpt>
      <trkpt lat="45.34688" lon="6.17562">
        <ele>2030.4000244141</ele>
        <time>2014-03-02T13:34:50.000Z</time>
      </trkpt>
      <trkpt lat="45.34688" lon="6.17563">
        <ele>2030.5999755859</ele>
        <time>2014-03-02T13:34:51.000Z</time>
      </trkpt>
      <trkpt lat="45.34688" lon="6.17564">
        <ele>2031</ele>
        <time>2014-03-02T13:34:52.000Z</time>
      </trkpt>
      <trkpt lat="45.34688" lon="6.17565">
        <ele>2031.4000244141</ele>
        <time>2014-03-02T13:34:53.000Z</time>
      </trkpt>
      <trkpt lat="45.34688" lon="6.17565">
        <ele>2031.5999755859</ele>
        <time>2014-03-02T13:34:54.000Z</time>
      </trkpt>
      <trkpt lat="45.34689" lon="6.17565">
        <ele>2031.5999755859</ele>
        <time>2014-03-02T13:34:55.000Z</time>
      </trkpt>
      <trkpt lat="45.34689" lon="6.17565">
        <ele>2031.8000488281</ele>
        <time>2014-03-02T13:34:56.000Z</time>
      </trkpt>
      <trkpt lat="45.34689" lon="6.17565">
        <ele>2031.8000488281</ele>
        <time>2014-03-02T13:34:57.000Z</time>
      </trkpt>
      <trkpt lat="45.3469" lon="6.17566">
        <ele>2032.1999511719</ele>
        <time>2014-03-02T13:34:58.000Z</time>
      </trkpt>
      <trkpt lat="45.3469" lon="6.17567">
        <ele>2032.4000244141</ele>
        <time>2014-03-02T13:34:59.000Z</time>
      </trkpt>
      <trkpt lat="45.3469" lon="6.17568">
        <ele>2032.8000488281</ele>
        <time>2014-03-02T13:35:00.000Z</time>
      </trkpt>
      <trkpt lat="45.3469" lon="6.17569">
        <ele>2033</ele>
        <time>2014-03-02T13:35:01.000Z</time>
      </trkpt>
      <trkpt lat="45.3469" lon="6.17569">
        <ele>2033</ele>
        <time>2014-03-02T13:35:02.000Z</time>
      </trkpt>
      <trkpt lat="45.3469" lon="6.17569">
        <ele>2033</ele>
        <time>2014-03-02T13:35:03.000Z</time>
      </trkpt>
      <trkpt lat="45.3469" lon="6.17569">
        <ele>2033</ele>
        <time>2014-03-02T13:35:04.000Z</time>
      </trkpt>
      <trkpt lat="45.3469" lon="6.17569">
        <ele>2033</ele>
        <time>2014-03-02T13:35:05.000Z</time>
      </trkpt>
      <trkpt lat="45.34688" lon="6.1757">
        <ele>2033</ele>
        <time>2014-03-02T13:35:07.000Z</time>
      </trkpt>
      <trkpt lat="45.34684" lon="6.17573">
        <ele>2032.8000488281</ele>
        <time>2014-03-02T13:35:09.000Z</time>
      </trkpt>
      <trkpt lat="45.34681" lon="6.17576">
        <ele>2033</ele>
        <time>2014-03-02T13:35:10.000Z</time>
      </trkpt>
      <trkpt lat="45.34678" lon="6.1758">
        <ele>2033</ele>
        <time>2014-03-02T13:35:11.000Z</time>
      </trkpt>
      <trkpt lat="45.34673" lon="6.17584">
        <ele>2032.8000488281</ele>
        <time>2014-03-02T13:35:12.000Z</time>
      </trkpt>
      <trkpt lat="45.34667" lon="6.17588">
        <ele>2032.5999755859</ele>
        <time>2014-03-02T13:35:13.000Z</time>
      </trkpt>
      <trkpt lat="45.34661" lon="6.17592">
        <ele>2032</ele>
        <time>2014-03-02T13:35:14.000Z</time>
      </trkpt>
      <trkpt lat="45.34656" lon="6.17596">
        <ele>2030.8000488281</ele>
        <time>2014-03-02T13:35:15.000Z</time>
      </trkpt>
      <trkpt lat="45.34652" lon="6.17599">
        <ele>2029.8000488281</ele>
        <time>2014-03-02T13:35:16.000Z</time>
      </trkpt>
      <trkpt lat="45.34648" lon="6.17602">
        <ele>2029</ele>
        <time>2014-03-02T13:35:17.000Z</time>
      </trkpt>
      <trkpt lat="45.34644" lon="6.17604">
        <ele>2027.8000488281</ele>
        <time>2014-03-02T13:35:18.000Z</time>
      </trkpt>
      <trkpt lat="45.3464" lon="6.17606">
        <ele>2026.5999755859</ele>
        <time>2014-03-02T13:35:19.000Z</time>
      </trkpt>
      <trkpt lat="45.34635" lon="6.17607">
        <ele>2025.4000244141</ele>
        <time>2014-03-02T13:35:20.000Z</time>
      </trkpt>
      <trkpt lat="45.34631" lon="6.17608">
        <ele>2024</ele>
        <time>2014-03-02T13:35:21.000Z</time>
      </trkpt>
      <trkpt lat="45.34628" lon="6.17608">
        <ele>2023.4000244141</ele>
        <time>2014-03-02T13:35:22.000Z</time>
      </trkpt>
      <trkpt lat="45.34626" lon="6.17608">
        <ele>2023</ele>
        <time>2014-03-02T13:35:23.000Z</time>
      </trkpt>
      <trkpt lat="45.34623" lon="6.17607">
        <ele>2022.8000488281</ele>
        <time>2014-03-02T13:35:24.000Z</time>
      </trkpt>
      <trkpt lat="45.3462" lon="6.17607">
        <ele>2022.4000244141</ele>
        <time>2014-03-02T13:35:25.000Z</time>
      </trkpt>
      <trkpt lat="45.34618" lon="6.17607">
        <ele>2022.1999511719</ele>
        <time>2014-03-02T13:35:26.000Z</time>
      </trkpt>
      <trkpt lat="45.34616" lon="6.17607">
        <ele>2022</ele>
        <time>2014-03-02T13:35:27.000Z</time>
      </trkpt>
      <trkpt lat="45.34614" lon="6.17606">
        <ele>2021.8000488281</ele>
        <time>2014-03-02T13:35:28.000Z</time>
      </trkpt>
      <trkpt lat="45.34612" lon="6.17606">
        <ele>2021.5999755859</ele>
        <time>2014-03-02T13:35:29.000Z</time>
      </trkpt>
      <trkpt lat="45.34611" lon="6.17606">
        <ele>2021.5999755859</ele>
        <time>2014-03-02T13:35:30.000Z</time>
      </trkpt>
      <trkpt lat="45.34611" lon="6.17606">
        <ele>2021.5999755859</ele>
        <time>2014-03-02T13:35:31.000Z</time>
      </trkpt>
      <trkpt lat="45.34611" lon="6.17606">
        <ele>2021.4000244141</ele>
        <time>2014-03-02T13:35:32.000Z</time>
      </trkpt>
      <trkpt lat="45.34611" lon="6.17605">
        <ele>2021.4000244141</ele>
        <time>2014-03-02T13:35:33.000Z</time>
      </trkpt>
      <trkpt lat="45.34611" lon="6.17605">
        <ele>2021.4000244141</ele>
        <time>2014-03-02T13:35:34.000Z</time>
      </trkpt>
      <trkpt lat="45.34611" lon="6.17605">
        <ele>2021.4000244141</ele>
        <time>2014-03-02T13:35:35.000Z</time>
      </trkpt>
      <trkpt lat="45.34611" lon="6.17605">
        <ele>2021.4000244141</ele>
        <time>2014-03-02T13:35:36.000Z</time>
      </trkpt>
      <trkpt lat="45.34611" lon="6.17605">
        <ele>2021.4000244141</ele>
        <time>2014-03-02T13:35:37.000Z</time>
      </trkpt>
      <trkpt lat="45.34611" lon="6.17605">
        <ele>2021.4000244141</ele>
        <time>2014-03-02T13:35:38.000Z</time>
      </trkpt>
      <trkpt lat="45.34611" lon="6.17605">
        <ele>2021.4000244141</ele>
        <time>2014-03-02T13:35:39.000Z</time>
      </trkpt>
      <trkpt lat="45.34611" lon="6.17605">
        <ele>2021.4000244141</ele>
        <time>2014-03-02T13:35:40.000Z</time>
      </trkpt>
      <trkpt lat="45.34611" lon="6.17605">
        <ele>2021.4000244141</ele>
        <time>2014-03-02T13:35:41.000Z</time>
      </trkpt>
      <trkpt lat="45.34611" lon="6.17605">
        <ele>2021.4000244141</ele>
        <time>2014-03-02T13:35:42.000Z</time>
      </trkpt>
      <trkpt lat="45.34611" lon="6.17605">
        <ele>2021.4000244141</ele>
        <time>2014-03-02T13:35:43.000Z</time>
      </trkpt>
      <trkpt lat="45.34611" lon="6.17605">
        <ele>2021.4000244141</ele>
        <time>2014-03-02T13:35:44.000Z</time>
      </trkpt>
      <trkpt lat="45.34611" lon="6.17605">
        <ele>2021.4000244141</ele>
        <time>2014-03-02T13:35:45.000Z</time>
      </trkpt>
      <trkpt lat="45.34611" lon="6.17605">
        <ele>2021.4000244141</ele>
        <time>2014-03-02T13:35:46.000Z</time>
      </trkpt>
      <trkpt lat="45.34611" lon="6.17605">
        <ele>2021.4000244141</ele>
        <time>2014-03-02T13:35:47.000Z</time>
      </trkpt>
      <trkpt lat="45.34611" lon="6.17605">
        <ele>2021.4000244141</ele>
        <time>2014-03-02T13:35:50.000Z</time>
      </trkpt>
      <trkpt lat="45.34611" lon="6.17605">
        <ele>2021.4000244141</ele>
        <time>2014-03-02T13:35:51.000Z</time>
      </trkpt>
      <trkpt lat="45.34611" lon="6.17605">
        <ele>2021.4000244141</ele>
        <time>2014-03-02T13:35:52.000Z</time>
      </trkpt>
      <trkpt lat="45.34611" lon="6.17605">
        <ele>2021.4000244141</ele>
        <time>2014-03-02T13:35:55.000Z</time>
      </trkpt>
      <trkpt lat="45.34611" lon="6.17605">
        <ele>2021.4000244141</ele>
        <time>2014-03-02T13:35:56.000Z</time>
      </trkpt>
      <trkpt lat="45.34611" lon="6.17605">
        <ele>2021.4000244141</ele>
        <time>2014-03-02T13:35:58.000Z</time>
      </trkpt>
      <trkpt lat="45.34611" lon="6.17605">
        <ele>2021.4000244141</ele>
        <time>2014-03-02T13:35:59.000Z</time>
      </trkpt>
      <trkpt lat="45.34611" lon="6.17605">
        <ele>2021.4000244141</ele>
        <time>2014-03-02T13:36:00.000Z</time>
      </trkpt>
      <trkpt lat="45.34611" lon="6.17605">
        <ele>2021.4000244141</ele>
        <time>2014-03-02T13:36:01.000Z</time>
      </trkpt>
      <trkpt lat="45.34611" lon="6.17605">
        <ele>2021.4000244141</ele>
        <time>2014-03-02T13:36:02.000Z</time>
      </trkpt>
      <trkpt lat="45.34611" lon="6.17605">
        <ele>2021.4000244141</ele>
        <time>2014-03-02T13:36:03.000Z</time>
      </trkpt>
      <trkpt lat="45.34611" lon="6.17605">
        <ele>2021.4000244141</ele>
        <time>2014-03-02T13:36:04.000Z</time>
      </trkpt>
      <trkpt lat="45.34611" lon="6.17605">
        <ele>2021.4000244141</ele>
        <time>2014-03-02T13:36:05.000Z</time>
      </trkpt>
      <trkpt lat="45.34611" lon="6.17605">
        <ele>2021.4000244141</ele>
        <time>2014-03-02T13:36:06.000Z</time>
      </trkpt>
      <trkpt lat="45.34611" lon="6.17605">
        <ele>2021.4000244141</ele>
        <time>2014-03-02T13:36:07.000Z</time>
      </trkpt>
      <trkpt lat="45.34611" lon="6.17605">
        <ele>2021.4000244141</ele>
        <time>2014-03-02T13:36:08.000Z</time>
      </trkpt>
      <trkpt lat="45.34611" lon="6.17605">
        <ele>2021.4000244141</ele>
        <time>2014-03-02T13:36:09.000Z</time>
      </trkpt>
      <trkpt lat="45.34611" lon="6.17605">
        <ele>2021.4000244141</ele>
        <time>2014-03-02T13:36:10.000Z</time>
      </trkpt>
      <trkpt lat="45.34611" lon="6.17605">
        <ele>2021.4000244141</ele>
        <time>2014-03-02T13:36:11.000Z</time>
      </trkpt>
      <trkpt lat="45.34611" lon="6.17605">
        <ele>2021.4000244141</ele>
        <time>2014-03-02T13:36:12.000Z</time>
      </trkpt>
      <trkpt lat="45.34611" lon="6.17605">
        <ele>2021.4000244141</ele>
        <time>2014-03-02T13:36:13.000Z</time>
      </trkpt>
      <trkpt lat="45.34611" lon="6.17605">
        <ele>2021.4000244141</ele>
        <time>2014-03-02T13:36:14.000Z</time>
      </trkpt>
      <trkpt lat="45.34611" lon="6.17605">
        <ele>2021.4000244141</ele>
        <time>2014-03-02T13:36:15.000Z</time>
      </trkpt>
      <trkpt lat="45.34611" lon="6.17605">
        <ele>2021.4000244141</ele>
        <time>2014-03-02T13:36:17.000Z</time>
      </trkpt>
      <trkpt lat="45.34611" lon="6.17605">
        <ele>2021.4000244141</ele>
        <time>2014-03-02T13:36:18.000Z</time>
      </trkpt>
      <trkpt lat="45.34611" lon="6.17605">
        <ele>2021.4000244141</ele>
        <time>2014-03-02T13:36:19.000Z</time>
      </trkpt>
      <trkpt lat="45.34611" lon="6.17605">
        <ele>2021.4000244141</ele>
        <time>2014-03-02T13:36:20.000Z</time>
      </trkpt>
      <trkpt lat="45.34611" lon="6.17605">
        <ele>2021.4000244141</ele>
        <time>2014-03-02T13:36:21.000Z</time>
      </trkpt>
      <trkpt lat="45.34611" lon="6.17605">
        <ele>2021.4000244141</ele>
        <time>2014-03-02T13:36:22.000Z</time>
      </trkpt>
      <trkpt lat="45.34611" lon="6.17605">
        <ele>2021.4000244141</ele>
        <time>2014-03-02T13:36:23.000Z</time>
      </trkpt>
      <trkpt lat="45.34611" lon="6.17605">
        <ele>2021.4000244141</ele>
        <time>2014-03-02T13:36:24.000Z</time>
      </trkpt>
      <trkpt lat="45.34611" lon="6.17605">
        <ele>2021.4000244141</ele>
        <time>2014-03-02T13:36:25.000Z</time>
      </trkpt>
      <trkpt lat="45.34611" lon="6.17605">
        <ele>2021.4000244141</ele>
        <time>2014-03-02T13:36:26.000Z</time>
      </trkpt>
      <trkpt lat="45.34611" lon="6.17605">
        <ele>2021.4000244141</ele>
        <time>2014-03-02T13:36:27.000Z</time>
      </trkpt>
      <trkpt lat="45.34611" lon="6.17605">
        <ele>2021.4000244141</ele>
        <time>2014-03-02T13:36:28.000Z</time>
      </trkpt>
      <trkpt lat="45.34611" lon="6.17605">
        <ele>2021.4000244141</ele>
        <time>2014-03-02T13:36:30.000Z</time>
      </trkpt>
      <trkpt lat="45.34611" lon="6.17605">
        <ele>2021.4000244141</ele>
        <time>2014-03-02T13:36:31.000Z</time>
      </trkpt>
      <trkpt lat="45.34611" lon="6.17605">
        <ele>2021.4000244141</ele>
        <time>2014-03-02T13:36:32.000Z</time>
      </trkpt>
      <trkpt lat="45.34611" lon="6.17605">
        <ele>2021.4000244141</ele>
        <time>2014-03-02T13:36:33.000Z</time>
      </trkpt>
      <trkpt lat="45.34611" lon="6.17605">
        <ele>2021.4000244141</ele>
        <time>2014-03-02T13:36:34.000Z</time>
      </trkpt>
      <trkpt lat="45.34611" lon="6.17605">
        <ele>2021.4000244141</ele>
        <time>2014-03-02T13:36:36.000Z</time>
      </trkpt>
      <trkpt lat="45.34611" lon="6.17605">
        <ele>2021.4000244141</ele>
        <time>2014-03-02T13:36:37.000Z</time>
      </trkpt>
      <trkpt lat="45.34611" lon="6.17605">
        <ele>2021.4000244141</ele>
        <time>2014-03-02T13:36:38.000Z</time>
      </trkpt>
      <trkpt lat="45.34611" lon="6.17605">
        <ele>2021.4000244141</ele>
        <time>2014-03-02T13:36:39.000Z</time>
      </trkpt>
      <trkpt lat="45.34611" lon="6.17605">
        <ele>2021.4000244141</ele>
        <time>2014-03-02T13:36:40.000Z</time>
      </trkpt>
      <trkpt lat="45.34611" lon="6.17605">
        <ele>2021.4000244141</ele>
        <time>2014-03-02T13:36:41.000Z</time>
      </trkpt>
      <trkpt lat="45.34611" lon="6.17605">
        <ele>2021.4000244141</ele>
        <time>2014-03-02T13:36:42.000Z</time>
      </trkpt>
      <trkpt lat="45.34611" lon="6.17605">
        <ele>2021.4000244141</ele>
        <time>2014-03-02T13:36:43.000Z</time>
      </trkpt>
      <trkpt lat="45.34611" lon="6.17605">
        <ele>2021.4000244141</ele>
        <time>2014-03-02T13:36:44.000Z</time>
      </trkpt>
      <trkpt lat="45.34611" lon="6.17605">
        <ele>2021.4000244141</ele>
        <time>2014-03-02T13:36:45.000Z</time>
      </trkpt>
      <trkpt lat="45.34611" lon="6.17605">
        <ele>2021.4000244141</ele>
        <time>2014-03-02T13:36:46.000Z</time>
      </trkpt>
      <trkpt lat="45.34611" lon="6.17605">
        <ele>2021.4000244141</ele>
        <time>2014-03-02T13:36:47.000Z</time>
      </trkpt>
      <trkpt lat="45.34611" lon="6.17605">
        <ele>2021.4000244141</ele>
        <time>2014-03-02T13:36:48.000Z</time>
      </trkpt>
      <trkpt lat="45.34611" lon="6.17605">
        <ele>2021.4000244141</ele>
        <time>2014-03-02T13:36:49.000Z</time>
      </trkpt>
      <trkpt lat="45.34611" lon="6.17605">
        <ele>2021.4000244141</ele>
        <time>2014-03-02T13:36:50.000Z</time>
      </trkpt>
      <trkpt lat="45.34611" lon="6.17605">
        <ele>2021.4000244141</ele>
        <time>2014-03-02T13:36:51.000Z</time>
      </trkpt>
      <trkpt lat="45.34611" lon="6.17605">
        <ele>2021.4000244141</ele>
        <time>2014-03-02T13:36:52.000Z</time>
      </trkpt>
      <trkpt lat="45.34612" lon="6.17605">
        <ele>2021.4000244141</ele>
        <time>2014-03-02T13:36:53.000Z</time>
      </trkpt>
      <trkpt lat="45.34612" lon="6.17605">
        <ele>2021.4000244141</ele>
        <time>2014-03-02T13:36:54.000Z</time>
      </trkpt>
      <trkpt lat="45.34612" lon="6.17605">
        <ele>2021.4000244141</ele>
        <time>2014-03-02T13:36:55.000Z</time>
      </trkpt>
      <trkpt lat="45.34612" lon="6.17605">
        <ele>2021.4000244141</ele>
        <time>2014-03-02T13:36:56.000Z</time>
      </trkpt>
      <trkpt lat="45.34612" lon="6.17605">
        <ele>2021.4000244141</ele>
        <time>2014-03-02T13:36:57.000Z</time>
      </trkpt>
      <trkpt lat="45.34612" lon="6.17605">
        <ele>2021.4000244141</ele>
        <time>2014-03-02T13:36:58.000Z</time>
      </trkpt>
      <trkpt lat="45.34612" lon="6.17605">
        <ele>2021.4000244141</ele>
        <time>2014-03-02T13:36:59.000Z</time>
      </trkpt>
      <trkpt lat="45.34612" lon="6.17605">
        <ele>2021.4000244141</ele>
        <time>2014-03-02T13:37:00.000Z</time>
      </trkpt>
      <trkpt lat="45.34612" lon="6.17605">
        <ele>2021.4000244141</ele>
        <time>2014-03-02T13:37:01.000Z</time>
      </trkpt>
      <trkpt lat="45.34612" lon="6.17605">
        <ele>2021.4000244141</ele>
        <time>2014-03-02T13:37:02.000Z</time>
      </trkpt>
      <trkpt lat="45.34612" lon="6.17605">
        <ele>2021.4000244141</ele>
        <time>2014-03-02T13:37:03.000Z</time>
      </trkpt>
      <trkpt lat="45.34612" lon="6.17605">
        <ele>2021.4000244141</ele>
        <time>2014-03-02T13:37:04.000Z</time>
      </trkpt>
      <trkpt lat="45.34612" lon="6.17605">
        <ele>2021.4000244141</ele>
        <time>2014-03-02T13:37:05.000Z</time>
      </trkpt>
      <trkpt lat="45.34612" lon="6.17605">
        <ele>2021.4000244141</ele>
        <time>2014-03-02T13:37:06.000Z</time>
      </trkpt>
      <trkpt lat="45.34612" lon="6.17605">
        <ele>2021.4000244141</ele>
        <time>2014-03-02T13:37:07.000Z</time>
      </trkpt>
      <trkpt lat="45.34612" lon="6.17605">
        <ele>2021.4000244141</ele>
        <time>2014-03-02T13:37:08.000Z</time>
      </trkpt>
      <trkpt lat="45.34612" lon="6.17605">
        <ele>2021.4000244141</ele>
        <time>2014-03-02T13:37:09.000Z</time>
      </trkpt>
      <trkpt lat="45.34612" lon="6.17605">
        <ele>2021.4000244141</ele>
        <time>2014-03-02T13:37:10.000Z</time>
      </trkpt>
      <trkpt lat="45.34612" lon="6.17605">
        <ele>2021.4000244141</ele>
        <time>2014-03-02T13:37:11.000Z</time>
      </trkpt>
      <trkpt lat="45.34612" lon="6.17605">
        <ele>2021.4000244141</ele>
        <time>2014-03-02T13:37:12.000Z</time>
      </trkpt>
      <trkpt lat="45.34612" lon="6.17605">
        <ele>2021.4000244141</ele>
        <time>2014-03-02T13:37:13.000Z</time>
      </trkpt>
      <trkpt lat="45.34612" lon="6.17605">
        <ele>2021.4000244141</ele>
        <time>2014-03-02T13:37:14.000Z</time>
      </trkpt>
      <trkpt lat="45.34612" lon="6.17605">
        <ele>2021.4000244141</ele>
        <time>2014-03-02T13:37:15.000Z</time>
      </trkpt>
      <trkpt lat="45.34612" lon="6.17605">
        <ele>2021.4000244141</ele>
        <time>2014-03-02T13:37:16.000Z</time>
      </trkpt>
      <trkpt lat="45.34612" lon="6.17605">
        <ele>2021.4000244141</ele>
        <time>2014-03-02T13:37:17.000Z</time>
      </trkpt>
      <trkpt lat="45.34612" lon="6.17605">
        <ele>2021.4000244141</ele>
        <time>2014-03-02T13:37:18.000Z</time>
      </trkpt>
      <trkpt lat="45.34612" lon="6.17605">
        <ele>2021.4000244141</ele>
        <time>2014-03-02T13:37:19.000Z</time>
      </trkpt>
      <trkpt lat="45.34612" lon="6.17605">
        <ele>2021.4000244141</ele>
        <time>2014-03-02T13:37:20.000Z</time>
      </trkpt>
      <trkpt lat="45.34612" lon="6.17605">
        <ele>2021.4000244141</ele>
        <time>2014-03-02T13:37:21.000Z</time>
      </trkpt>
      <trkpt lat="45.34612" lon="6.17605">
        <ele>2021.4000244141</ele>
        <time>2014-03-02T13:37:22.000Z</time>
      </trkpt>
      <trkpt lat="45.34612" lon="6.17605">
        <ele>2021.4000244141</ele>
        <time>2014-03-02T13:37:23.000Z</time>
      </trkpt>
      <trkpt lat="45.34612" lon="6.17605">
        <ele>2021.4000244141</ele>
        <time>2014-03-02T13:37:24.000Z</time>
      </trkpt>
      <trkpt lat="45.34612" lon="6.17605">
        <ele>2021.4000244141</ele>
        <time>2014-03-02T13:37:25.000Z</time>
      </trkpt>
      <trkpt lat="45.34612" lon="6.17605">
        <ele>2021.4000244141</ele>
        <time>2014-03-02T13:37:26.000Z</time>
      </trkpt>
      <trkpt lat="45.34612" lon="6.17605">
        <ele>2021.4000244141</ele>
        <time>2014-03-02T13:37:27.000Z</time>
      </trkpt>
      <trkpt lat="45.34612" lon="6.17605">
        <ele>2021.4000244141</ele>
        <time>2014-03-02T13:37:28.000Z</time>
      </trkpt>
      <trkpt lat="45.34612" lon="6.17605">
        <ele>2021.4000244141</ele>
        <time>2014-03-02T13:37:29.000Z</time>
      </trkpt>
      <trkpt lat="45.34612" lon="6.17605">
        <ele>2021.4000244141</ele>
        <time>2014-03-02T13:37:30.000Z</time>
      </trkpt>
      <trkpt lat="45.34612" lon="6.17605">
        <ele>2021.4000244141</ele>
        <time>2014-03-02T13:37:31.000Z</time>
      </trkpt>
      <trkpt lat="45.34612" lon="6.17605">
        <ele>2021.4000244141</ele>
        <time>2014-03-02T13:37:32.000Z</time>
      </trkpt>
      <trkpt lat="45.34612" lon="6.17604">
        <ele>2021.1999511719</ele>
        <time>2014-03-02T13:37:33.000Z</time>
      </trkpt>
      <trkpt lat="45.34612" lon="6.17604">
        <ele>2021.1999511719</ele>
        <time>2014-03-02T13:37:34.000Z</time>
      </trkpt>
      <trkpt lat="45.34612" lon="6.17604">
        <ele>2021.1999511719</ele>
        <time>2014-03-02T13:37:35.000Z</time>
      </trkpt>
      <trkpt lat="45.34612" lon="6.17604">
        <ele>2021.1999511719</ele>
        <time>2014-03-02T13:37:36.000Z</time>
      </trkpt>
      <trkpt lat="45.34612" lon="6.17604">
        <ele>2021.1999511719</ele>
        <time>2014-03-02T13:37:37.000Z</time>
      </trkpt>
      <trkpt lat="45.34612" lon="6.17604">
        <ele>2021.1999511719</ele>
        <time>2014-03-02T13:37:38.000Z</time>
      </trkpt>
      <trkpt lat="45.34612" lon="6.17604">
        <ele>2021.1999511719</ele>
        <time>2014-03-02T13:37:39.000Z</time>
      </trkpt>
      <trkpt lat="45.34612" lon="6.17604">
        <ele>2021.1999511719</ele>
        <time>2014-03-02T13:37:40.000Z</time>
      </trkpt>
      <trkpt lat="45.34612" lon="6.17604">
        <ele>2021.1999511719</ele>
        <time>2014-03-02T13:37:41.000Z</time>
      </trkpt>
      <trkpt lat="45.34612" lon="6.17604">
        <ele>2021.1999511719</ele>
        <time>2014-03-02T13:37:42.000Z</time>
      </trkpt>
      <trkpt lat="45.34612" lon="6.17604">
        <ele>2021.1999511719</ele>
        <time>2014-03-02T13:37:43.000Z</time>
      </trkpt>
      <trkpt lat="45.34612" lon="6.17604">
        <ele>2021.1999511719</ele>
        <time>2014-03-02T13:37:44.000Z</time>
      </trkpt>
      <trkpt lat="45.34612" lon="6.17604">
        <ele>2021.1999511719</ele>
        <time>2014-03-02T13:37:45.000Z</time>
      </trkpt>
      <trkpt lat="45.34612" lon="6.17604">
        <ele>2021.1999511719</ele>
        <time>2014-03-02T13:37:46.000Z</time>
      </trkpt>
      <trkpt lat="45.34612" lon="6.17604">
        <ele>2021.1999511719</ele>
        <time>2014-03-02T13:37:47.000Z</time>
      </trkpt>
      <trkpt lat="45.34612" lon="6.17604">
        <ele>2021.1999511719</ele>
        <time>2014-03-02T13:37:48.000Z</time>
      </trkpt>
      <trkpt lat="45.34612" lon="6.17604">
        <ele>2021.1999511719</ele>
        <time>2014-03-02T13:37:49.000Z</time>
      </trkpt>
      <trkpt lat="45.34612" lon="6.17604">
        <ele>2021.1999511719</ele>
        <time>2014-03-02T13:37:50.000Z</time>
      </trkpt>
      <trkpt lat="45.34612" lon="6.17604">
        <ele>2021.1999511719</ele>
        <time>2014-03-02T13:37:51.000Z</time>
      </trkpt>
      <trkpt lat="45.34612" lon="6.17604">
        <ele>2021.1999511719</ele>
        <time>2014-03-02T13:37:52.000Z</time>
      </trkpt>
      <trkpt lat="45.34612" lon="6.17604">
        <ele>2021.1999511719</ele>
        <time>2014-03-02T13:37:53.000Z</time>
      </trkpt>
      <trkpt lat="45.34612" lon="6.17604">
        <ele>2021.1999511719</ele>
        <time>2014-03-02T13:37:54.000Z</time>
      </trkpt>
      <trkpt lat="45.34612" lon="6.17604">
        <ele>2021.1999511719</ele>
        <time>2014-03-02T13:37:55.000Z</time>
      </trkpt>
      <trkpt lat="45.34612" lon="6.17604">
        <ele>2021.1999511719</ele>
        <time>2014-03-02T13:37:56.000Z</time>
      </trkpt>
      <trkpt lat="45.34612" lon="6.17604">
        <ele>2021.1999511719</ele>
        <time>2014-03-02T13:37:57.000Z</time>
      </trkpt>
      <trkpt lat="45.34612" lon="6.17604">
        <ele>2021.1999511719</ele>
        <time>2014-03-02T13:37:58.000Z</time>
      </trkpt>
      <trkpt lat="45.34612" lon="6.17604">
        <ele>2021.1999511719</ele>
        <time>2014-03-02T13:37:59.000Z</time>
      </trkpt>
      <trkpt lat="45.34612" lon="6.17604">
        <ele>2021.1999511719</ele>
        <time>2014-03-02T13:38:00.000Z</time>
      </trkpt>
      <trkpt lat="45.34612" lon="6.17604">
        <ele>2021.1999511719</ele>
        <time>2014-03-02T13:38:01.000Z</time>
      </trkpt>
      <trkpt lat="45.34612" lon="6.17604">
        <ele>2021.1999511719</ele>
        <time>2014-03-02T13:38:05.000Z</time>
      </trkpt>
      <trkpt lat="45.34612" lon="6.17604">
        <ele>2021.1999511719</ele>
        <time>2014-03-02T13:38:06.000Z</time>
      </trkpt>
      <trkpt lat="45.34612" lon="6.17604">
        <ele>2021.1999511719</ele>
        <time>2014-03-02T13:38:08.000Z</time>
      </trkpt>
      <trkpt lat="45.34612" lon="6.17604">
        <ele>2021.1999511719</ele>
        <time>2014-03-02T13:38:09.000Z</time>
      </trkpt>
      <trkpt lat="45.34612" lon="6.17604">
        <ele>2021.1999511719</ele>
        <time>2014-03-02T13:38:10.000Z</time>
      </trkpt>
      <trkpt lat="45.34612" lon="6.17604">
        <ele>2021.1999511719</ele>
        <time>2014-03-02T13:38:16.000Z</time>
      </trkpt>
      <trkpt lat="45.34612" lon="6.17604">
        <ele>2021.1999511719</ele>
        <time>2014-03-02T13:38:17.000Z</time>
      </trkpt>
      <trkpt lat="45.34612" lon="6.17604">
        <ele>2021.1999511719</ele>
        <time>2014-03-02T13:38:18.000Z</time>
      </trkpt>
      <trkpt lat="45.34612" lon="6.17604">
        <ele>2021.1999511719</ele>
        <time>2014-03-02T13:38:19.000Z</time>
      </trkpt>
      <trkpt lat="45.34612" lon="6.17604">
        <ele>2021.1999511719</ele>
        <time>2014-03-02T13:38:21.000Z</time>
      </trkpt>
      <trkpt lat="45.34612" lon="6.17604">
        <ele>2021.1999511719</ele>
        <time>2014-03-02T13:38:25.000Z</time>
      </trkpt>
      <trkpt lat="45.34612" lon="6.17604">
        <ele>2021.1999511719</ele>
        <time>2014-03-02T13:38:26.000Z</time>
      </trkpt>
      <trkpt lat="45.34612" lon="6.17604">
        <ele>2021.1999511719</ele>
        <time>2014-03-02T13:38:27.000Z</time>
      </trkpt>
      <trkpt lat="45.34612" lon="6.17604">
        <ele>2021.1999511719</ele>
        <time>2014-03-02T13:38:28.000Z</time>
      </trkpt>
      <trkpt lat="45.34612" lon="6.17604">
        <ele>2021.1999511719</ele>
        <time>2014-03-02T13:38:29.000Z</time>
      </trkpt>
      <trkpt lat="45.34612" lon="6.17604">
        <ele>2021.1999511719</ele>
        <time>2014-03-02T13:38:33.000Z</time>
      </trkpt>
      <trkpt lat="45.34612" lon="6.17604">
        <ele>2021.1999511719</ele>
        <time>2014-03-02T13:38:36.000Z</time>
      </trkpt>
      <trkpt lat="45.34612" lon="6.17604">
        <ele>2021.1999511719</ele>
        <time>2014-03-02T13:38:37.000Z</time>
      </trkpt>
      <trkpt lat="45.34612" lon="6.17604">
        <ele>2021.1999511719</ele>
        <time>2014-03-02T13:38:38.000Z</time>
      </trkpt>
      <trkpt lat="45.34612" lon="6.17604">
        <ele>2021.1999511719</ele>
        <time>2014-03-02T13:38:39.000Z</time>
      </trkpt>
      <trkpt lat="45.34612" lon="6.17604">
        <ele>2021.1999511719</ele>
        <time>2014-03-02T13:38:40.000Z</time>
      </trkpt>
      <trkpt lat="45.34614" lon="6.17604">
        <ele>2021.1999511719</ele>
        <time>2014-03-02T13:38:42.000Z</time>
      </trkpt>
      <trkpt lat="45.34614" lon="6.17604">
        <ele>2021.1999511719</ele>
        <time>2014-03-02T13:38:43.000Z</time>
      </trkpt>
      <trkpt lat="45.34614" lon="6.17604">
        <ele>2021.1999511719</ele>
        <time>2014-03-02T13:38:44.000Z</time>
      </trkpt>
      <trkpt lat="45.34614" lon="6.17604">
        <ele>2021.1999511719</ele>
        <time>2014-03-02T13:38:45.000Z</time>
      </trkpt>
      <trkpt lat="45.34614" lon="6.17604">
        <ele>2021.1999511719</ele>
        <time>2014-03-02T13:38:49.000Z</time>
      </trkpt>
      <trkpt lat="45.34614" lon="6.17604">
        <ele>2021.1999511719</ele>
        <time>2014-03-02T13:38:50.000Z</time>
      </trkpt>
      <trkpt lat="45.34614" lon="6.17604">
        <ele>2021.1999511719</ele>
        <time>2014-03-02T13:38:51.000Z</time>
      </trkpt>
      <trkpt lat="45.34614" lon="6.17604">
        <ele>2021.1999511719</ele>
        <time>2014-03-02T13:38:52.000Z</time>
      </trkpt>
      <trkpt lat="45.34614" lon="6.17604">
        <ele>2021.1999511719</ele>
        <time>2014-03-02T13:38:53.000Z</time>
      </trkpt>
      <trkpt lat="45.34614" lon="6.17604">
        <ele>2021.1999511719</ele>
        <time>2014-03-02T13:38:55.000Z</time>
      </trkpt>
      <trkpt lat="45.34614" lon="6.17604">
        <ele>2021.1999511719</ele>
        <time>2014-03-02T13:38:56.000Z</time>
      </trkpt>
      <trkpt lat="45.34614" lon="6.17604">
        <ele>2021.1999511719</ele>
        <time>2014-03-02T13:38:57.000Z</time>
      </trkpt>
      <trkpt lat="45.34614" lon="6.17604">
        <ele>2021.1999511719</ele>
        <time>2014-03-02T13:38:59.000Z</time>
      </trkpt>
      <trkpt lat="45.34614" lon="6.17604">
        <ele>2021.1999511719</ele>
        <time>2014-03-02T13:39:00.000Z</time>
      </trkpt>
      <trkpt lat="45.34614" lon="6.17604">
        <ele>2021.1999511719</ele>
        <time>2014-03-02T13:39:01.000Z</time>
      </trkpt>
      <trkpt lat="45.34614" lon="6.17604">
        <ele>2021.1999511719</ele>
        <time>2014-03-02T13:39:02.000Z</time>
      </trkpt>
      <trkpt lat="45.34614" lon="6.17604">
        <ele>2021.1999511719</ele>
        <time>2014-03-02T13:39:03.000Z</time>
      </trkpt>
      <trkpt lat="45.34614" lon="6.17604">
        <ele>2021.1999511719</ele>
        <time>2014-03-02T13:39:04.000Z</time>
      </trkpt>
      <trkpt lat="45.34614" lon="6.17604">
        <ele>2021.1999511719</ele>
        <time>2014-03-02T13:39:05.000Z</time>
      </trkpt>
      <trkpt lat="45.34614" lon="6.17604">
        <ele>2021.1999511719</ele>
        <time>2014-03-02T13:39:06.000Z</time>
      </trkpt>
      <trkpt lat="45.34614" lon="6.17604">
        <ele>2021.1999511719</ele>
        <time>2014-03-02T13:39:07.000Z</time>
      </trkpt>
      <trkpt lat="45.34614" lon="6.17604">
        <ele>2021.1999511719</ele>
        <time>2014-03-02T13:39:08.000Z</time>
      </trkpt>
      <trkpt lat="45.34614" lon="6.17604">
        <ele>2021.1999511719</ele>
        <time>2014-03-02T13:39:09.000Z</time>
      </trkpt>
      <trkpt lat="45.34614" lon="6.17604">
        <ele>2021.1999511719</ele>
        <time>2014-03-02T13:39:10.000Z</time>
      </trkpt>
      <trkpt lat="45.34614" lon="6.17604">
        <ele>2021.1999511719</ele>
        <time>2014-03-02T13:39:11.000Z</time>
      </trkpt>
      <trkpt lat="45.34614" lon="6.17604">
        <ele>2021.1999511719</ele>
        <time>2014-03-02T13:39:12.000Z</time>
      </trkpt>
      <trkpt lat="45.34614" lon="6.17604">
        <ele>2021.1999511719</ele>
        <time>2014-03-02T13:39:13.000Z</time>
      </trkpt>
      <trkpt lat="45.34614" lon="6.17604">
        <ele>2021.1999511719</ele>
        <time>2014-03-02T13:39:14.000Z</time>
      </trkpt>
      <trkpt lat="45.34614" lon="6.17604">
        <ele>2021.1999511719</ele>
        <time>2014-03-02T13:39:15.000Z</time>
      </trkpt>
      <trkpt lat="45.34614" lon="6.17604">
        <ele>2021.1999511719</ele>
        <time>2014-03-02T13:39:16.000Z</time>
      </trkpt>
      <trkpt lat="45.34614" lon="6.17604">
        <ele>2021.1999511719</ele>
        <time>2014-03-02T13:39:17.000Z</time>
      </trkpt>
      <trkpt lat="45.34614" lon="6.17604">
        <ele>2021.1999511719</ele>
        <time>2014-03-02T13:39:18.000Z</time>
      </trkpt>
      <trkpt lat="45.34614" lon="6.17604">
        <ele>2021.1999511719</ele>
        <time>2014-03-02T13:39:19.000Z</time>
      </trkpt>
      <trkpt lat="45.34613" lon="6.17604">
        <ele>2021.1999511719</ele>
        <time>2014-03-02T13:39:21.000Z</time>
      </trkpt>
      <trkpt lat="45.34613" lon="6.17604">
        <ele>2021.1999511719</ele>
        <time>2014-03-02T13:39:22.000Z</time>
      </trkpt>
      <trkpt lat="45.34613" lon="6.17604">
        <ele>2021.1999511719</ele>
        <time>2014-03-02T13:39:23.000Z</time>
      </trkpt>
      <trkpt lat="45.34613" lon="6.17604">
        <ele>2021.1999511719</ele>
        <time>2014-03-02T13:39:24.000Z</time>
      </trkpt>
      <trkpt lat="45.34613" lon="6.17604">
        <ele>2021.1999511719</ele>
        <time>2014-03-02T13:39:25.000Z</time>
      </trkpt>
      <trkpt lat="45.34613" lon="6.17604">
        <ele>2021.1999511719</ele>
        <time>2014-03-02T13:39:26.000Z</time>
      </trkpt>
      <trkpt lat="45.34613" lon="6.17604">
        <ele>2021.1999511719</ele>
        <time>2014-03-02T13:39:27.000Z</time>
      </trkpt>
      <trkpt lat="45.34613" lon="6.17604">
        <ele>2021.1999511719</ele>
        <time>2014-03-02T13:39:28.000Z</time>
      </trkpt>
      <trkpt lat="45.34613" lon="6.17604">
        <ele>2021.1999511719</ele>
        <time>2014-03-02T13:39:29.000Z</time>
      </trkpt>
      <trkpt lat="45.34613" lon="6.17604">
        <ele>2021.1999511719</ele>
        <time>2014-03-02T13:39:30.000Z</time>
      </trkpt>
      <trkpt lat="45.34613" lon="6.17604">
        <ele>2021.1999511719</ele>
        <time>2014-03-02T13:39:31.000Z</time>
      </trkpt>
      <trkpt lat="45.34613" lon="6.17604">
        <ele>2021.1999511719</ele>
        <time>2014-03-02T13:39:32.000Z</time>
      </trkpt>
      <trkpt lat="45.34613" lon="6.17604">
        <ele>2021.1999511719</ele>
        <time>2014-03-02T13:39:33.000Z</time>
      </trkpt>
      <trkpt lat="45.34613" lon="6.17604">
        <ele>2021.1999511719</ele>
        <time>2014-03-02T13:39:35.000Z</time>
      </trkpt>
      <trkpt lat="45.34613" lon="6.17604">
        <ele>2021.1999511719</ele>
        <time>2014-03-02T13:39:36.000Z</time>
      </trkpt>
      <trkpt lat="45.34613" lon="6.17604">
        <ele>2021.1999511719</ele>
        <time>2014-03-02T13:39:37.000Z</time>
      </trkpt>
      <trkpt lat="45.34613" lon="6.17604">
        <ele>2021.1999511719</ele>
        <time>2014-03-02T13:39:41.000Z</time>
      </trkpt>
      <trkpt lat="45.34613" lon="6.17604">
        <ele>2021.1999511719</ele>
        <time>2014-03-02T13:39:42.000Z</time>
      </trkpt>
      <trkpt lat="45.34613" lon="6.17604">
        <ele>2021.1999511719</ele>
        <time>2014-03-02T13:39:43.000Z</time>
      </trkpt>
      <trkpt lat="45.34613" lon="6.17604">
        <ele>2021.1999511719</ele>
        <time>2014-03-02T13:39:44.000Z</time>
      </trkpt>
      <trkpt lat="45.34613" lon="6.17604">
        <ele>2021.1999511719</ele>
        <time>2014-03-02T13:39:45.000Z</time>
      </trkpt>
      <trkpt lat="45.34613" lon="6.17604">
        <ele>2021.1999511719</ele>
        <time>2014-03-02T13:39:46.000Z</time>
      </trkpt>
      <trkpt lat="45.34613" lon="6.17604">
        <ele>2021.1999511719</ele>
        <time>2014-03-02T13:39:53.000Z</time>
      </trkpt>
      <trkpt lat="45.34613" lon="6.17604">
        <ele>2021.1999511719</ele>
        <time>2014-03-02T13:39:55.000Z</time>
      </trkpt>
      <trkpt lat="45.34613" lon="6.17604">
        <ele>2021.1999511719</ele>
        <time>2014-03-02T13:39:59.000Z</time>
      </trkpt>
      <trkpt lat="45.34613" lon="6.17604">
        <ele>2021.1999511719</ele>
        <time>2014-03-02T13:40:00.000Z</time>
      </trkpt>
      <trkpt lat="45.34613" lon="6.17604">
        <ele>2021.1999511719</ele>
        <time>2014-03-02T13:40:01.000Z</time>
      </trkpt>
      <trkpt lat="45.34615" lon="6.17604">
        <ele>2021.4000244141</ele>
        <time>2014-03-02T13:40:03.000Z</time>
      </trkpt>
      <trkpt lat="45.34615" lon="6.17604">
        <ele>2021.4000244141</ele>
        <time>2014-03-02T13:40:04.000Z</time>
      </trkpt>
      <trkpt lat="45.34615" lon="6.17604">
        <ele>2021.4000244141</ele>
        <time>2014-03-02T13:40:05.000Z</time>
      </trkpt>
      <trkpt lat="45.34615" lon="6.17604">
        <ele>2021.4000244141</ele>
        <time>2014-03-02T13:40:06.000Z</time>
      </trkpt>
      <trkpt lat="45.34615" lon="6.17604">
        <ele>2021.4000244141</ele>
        <time>2014-03-02T13:40:07.000Z</time>
      </trkpt>
      <trkpt lat="45.34615" lon="6.17604">
        <ele>2021.4000244141</ele>
        <time>2014-03-02T13:40:08.000Z</time>
      </trkpt>
      <trkpt lat="45.34615" lon="6.17604">
        <ele>2021.4000244141</ele>
        <time>2014-03-02T13:40:09.000Z</time>
      </trkpt>
      <trkpt lat="45.34615" lon="6.17604">
        <ele>2021.4000244141</ele>
        <time>2014-03-02T13:40:10.000Z</time>
      </trkpt>
      <trkpt lat="45.34615" lon="6.17604">
        <ele>2021.4000244141</ele>
        <time>2014-03-02T13:40:11.000Z</time>
      </trkpt>
      <trkpt lat="45.34615" lon="6.17604">
        <ele>2021.4000244141</ele>
        <time>2014-03-02T13:40:12.000Z</time>
      </trkpt>
      <trkpt lat="45.34615" lon="6.17604">
        <ele>2021.4000244141</ele>
        <time>2014-03-02T13:40:13.000Z</time>
      </trkpt>
      <trkpt lat="45.34615" lon="6.17604">
        <ele>2021.4000244141</ele>
        <time>2014-03-02T13:40:16.000Z</time>
      </trkpt>
      <trkpt lat="45.34615" lon="6.17604">
        <ele>2021.4000244141</ele>
        <time>2014-03-02T13:40:17.000Z</time>
      </trkpt>
      <trkpt lat="45.34615" lon="6.17604">
        <ele>2021.4000244141</ele>
        <time>2014-03-02T13:40:18.000Z</time>
      </trkpt>
      <trkpt lat="45.34615" lon="6.17604">
        <ele>2021.4000244141</ele>
        <time>2014-03-02T13:40:19.000Z</time>
      </trkpt>
      <trkpt lat="45.34615" lon="6.17604">
        <ele>2021.4000244141</ele>
        <time>2014-03-02T13:40:20.000Z</time>
      </trkpt>
      <trkpt lat="45.34615" lon="6.17604">
        <ele>2021.4000244141</ele>
        <time>2014-03-02T13:40:21.000Z</time>
      </trkpt>
      <trkpt lat="45.34615" lon="6.17604">
        <ele>2021.4000244141</ele>
        <time>2014-03-02T13:40:22.000Z</time>
      </trkpt>
      <trkpt lat="45.34615" lon="6.17604">
        <ele>2021.4000244141</ele>
        <time>2014-03-02T13:40:23.000Z</time>
      </trkpt>
      <trkpt lat="45.34615" lon="6.17604">
        <ele>2021.4000244141</ele>
        <time>2014-03-02T13:40:25.000Z</time>
      </trkpt>
      <trkpt lat="45.34615" lon="6.17604">
        <ele>2021.4000244141</ele>
        <time>2014-03-02T13:40:26.000Z</time>
      </trkpt>
      <trkpt lat="45.34615" lon="6.17604">
        <ele>2021.4000244141</ele>
        <time>2014-03-02T13:40:28.000Z</time>
      </trkpt>
      <trkpt lat="45.34615" lon="6.17604">
        <ele>2021.4000244141</ele>
        <time>2014-03-02T13:40:29.000Z</time>
      </trkpt>
      <trkpt lat="45.34615" lon="6.17604">
        <ele>2021.4000244141</ele>
        <time>2014-03-02T13:40:30.000Z</time>
      </trkpt>
      <trkpt lat="45.34615" lon="6.17604">
        <ele>2021.4000244141</ele>
        <time>2014-03-02T13:40:31.000Z</time>
      </trkpt>
      <trkpt lat="45.34615" lon="6.17604">
        <ele>2021.4000244141</ele>
        <time>2014-03-02T13:40:32.000Z</time>
      </trkpt>
      <trkpt lat="45.34615" lon="6.17604">
        <ele>2021.4000244141</ele>
        <time>2014-03-02T13:40:33.000Z</time>
      </trkpt>
      <trkpt lat="45.34615" lon="6.17604">
        <ele>2021.4000244141</ele>
        <time>2014-03-02T13:40:34.000Z</time>
      </trkpt>
      <trkpt lat="45.34615" lon="6.17604">
        <ele>2021.4000244141</ele>
        <time>2014-03-02T13:40:35.000Z</time>
      </trkpt>
      <trkpt lat="45.34615" lon="6.17604">
        <ele>2021.4000244141</ele>
        <time>2014-03-02T13:40:36.000Z</time>
      </trkpt>
      <trkpt lat="45.34615" lon="6.17604">
        <ele>2021.4000244141</ele>
        <time>2014-03-02T13:40:37.000Z</time>
      </trkpt>
      <trkpt lat="45.34615" lon="6.17604">
        <ele>2021.4000244141</ele>
        <time>2014-03-02T13:40:38.000Z</time>
      </trkpt>
      <trkpt lat="45.34615" lon="6.17604">
        <ele>2021.4000244141</ele>
        <time>2014-03-02T13:40:40.000Z</time>
      </trkpt>
      <trkpt lat="45.34615" lon="6.17604">
        <ele>2021.4000244141</ele>
        <time>2014-03-02T13:40:41.000Z</time>
      </trkpt>
      <trkpt lat="45.34615" lon="6.17603">
        <ele>2021</ele>
        <time>2014-03-02T13:40:42.000Z</time>
      </trkpt>
      <trkpt lat="45.34615" lon="6.17603">
        <ele>2021</ele>
        <time>2014-03-02T13:40:43.000Z</time>
      </trkpt>
      <trkpt lat="45.34615" lon="6.17603">
        <ele>2021</ele>
        <time>2014-03-02T13:40:46.000Z</time>
      </trkpt>
      <trkpt lat="45.34615" lon="6.17603">
        <ele>2021</ele>
        <time>2014-03-02T13:40:47.000Z</time>
      </trkpt>
      <trkpt lat="45.34615" lon="6.17603">
        <ele>2021</ele>
        <time>2014-03-02T13:40:48.000Z</time>
      </trkpt>
      <trkpt lat="45.34615" lon="6.17603">
        <ele>2021</ele>
        <time>2014-03-02T13:40:49.000Z</time>
      </trkpt>
      <trkpt lat="45.34615" lon="6.17603">
        <ele>2021</ele>
        <time>2014-03-02T13:40:50.000Z</time>
      </trkpt>
      <trkpt lat="45.34615" lon="6.17603">
        <ele>2021</ele>
        <time>2014-03-02T13:40:51.000Z</time>
      </trkpt>
      <trkpt lat="45.34615" lon="6.17603">
        <ele>2021</ele>
        <time>2014-03-02T13:40:59.000Z</time>
      </trkpt>
      <trkpt lat="45.34615" lon="6.17603">
        <ele>2021</ele>
        <time>2014-03-02T13:41:00.000Z</time>
      </trkpt>
      <trkpt lat="45.34615" lon="6.17603">
        <ele>2021</ele>
        <time>2014-03-02T13:41:01.000Z</time>
      </trkpt>
      <trkpt lat="45.34615" lon="6.17603">
        <ele>2021</ele>
        <time>2014-03-02T13:41:02.000Z</time>
      </trkpt>
      <trkpt lat="45.34615" lon="6.17603">
        <ele>2021</ele>
        <time>2014-03-02T13:41:03.000Z</time>
      </trkpt>
      <trkpt lat="45.34615" lon="6.17603">
        <ele>2021</ele>
        <time>2014-03-02T13:41:04.000Z</time>
      </trkpt>
      <trkpt lat="45.34615" lon="6.17603">
        <ele>2021</ele>
        <time>2014-03-02T13:41:06.000Z</time>
      </trkpt>
      <trkpt lat="45.34615" lon="6.17603">
        <ele>2021</ele>
        <time>2014-03-02T13:41:08.000Z</time>
      </trkpt>
      <trkpt lat="45.34615" lon="6.17603">
        <ele>2021</ele>
        <time>2014-03-02T13:41:09.000Z</time>
      </trkpt>
      <trkpt lat="45.34615" lon="6.17603">
        <ele>2021</ele>
        <time>2014-03-02T13:41:12.000Z</time>
      </trkpt>
      <trkpt lat="45.34615" lon="6.17603">
        <ele>2021</ele>
        <time>2014-03-02T13:41:20.000Z</time>
      </trkpt>
      <trkpt lat="45.34615" lon="6.17603">
        <ele>2021</ele>
        <time>2014-03-02T13:41:21.000Z</time>
      </trkpt>
      <trkpt lat="45.34616" lon="6.17602">
        <ele>2021</ele>
        <time>2014-03-02T13:41:22.000Z</time>
      </trkpt>
      <trkpt lat="45.34616" lon="6.17602">
        <ele>2021</ele>
        <time>2014-03-02T13:41:23.000Z</time>
      </trkpt>
      <trkpt lat="45.34616" lon="6.17602">
        <ele>2021</ele>
        <time>2014-03-02T13:41:24.000Z</time>
      </trkpt>
      <trkpt lat="45.34616" lon="6.17602">
        <ele>2021</ele>
        <time>2014-03-02T13:41:26.000Z</time>
      </trkpt>
      <trkpt lat="45.34616" lon="6.17602">
        <ele>2021</ele>
        <time>2014-03-02T13:41:27.000Z</time>
      </trkpt>
      <trkpt lat="45.34616" lon="6.17602">
        <ele>2021</ele>
        <time>2014-03-02T13:41:28.000Z</time>
      </trkpt>
      <trkpt lat="45.34616" lon="6.17602">
        <ele>2021</ele>
        <time>2014-03-02T13:41:29.000Z</time>
      </trkpt>
      <trkpt lat="45.34616" lon="6.17602">
        <ele>2021</ele>
        <time>2014-03-02T13:41:30.000Z</time>
      </trkpt>
      <trkpt lat="45.34616" lon="6.17602">
        <ele>2021</ele>
        <time>2014-03-02T13:41:31.000Z</time>
      </trkpt>
      <trkpt lat="45.34616" lon="6.17602">
        <ele>2021</ele>
        <time>2014-03-02T13:41:32.000Z</time>
      </trkpt>
      <trkpt lat="45.34616" lon="6.17602">
        <ele>2021</ele>
        <time>2014-03-02T13:41:33.000Z</time>
      </trkpt>
      <trkpt lat="45.34616" lon="6.17602">
        <ele>2021</ele>
        <time>2014-03-02T13:41:34.000Z</time>
      </trkpt>
      <trkpt lat="45.34616" lon="6.17602">
        <ele>2021</ele>
        <time>2014-03-02T13:41:35.000Z</time>
      </trkpt>
      <trkpt lat="45.34616" lon="6.17602">
        <ele>2021</ele>
        <time>2014-03-02T13:41:37.000Z</time>
      </trkpt>
      <trkpt lat="45.34616" lon="6.17602">
        <ele>2021</ele>
        <time>2014-03-02T13:41:39.000Z</time>
      </trkpt>
      <trkpt lat="45.34616" lon="6.17602">
        <ele>2021</ele>
        <time>2014-03-02T13:41:40.000Z</time>
      </trkpt>
      <trkpt lat="45.34616" lon="6.17602">
        <ele>2021</ele>
        <time>2014-03-02T13:41:44.000Z</time>
      </trkpt>
      <trkpt lat="45.34616" lon="6.17602">
        <ele>2021</ele>
        <time>2014-03-02T13:41:45.000Z</time>
      </trkpt>
      <trkpt lat="45.34616" lon="6.17602">
        <ele>2021</ele>
        <time>2014-03-02T13:41:46.000Z</time>
      </trkpt>
      <trkpt lat="45.34616" lon="6.17602">
        <ele>2021</ele>
        <time>2014-03-02T13:41:48.000Z</time>
      </trkpt>
      <trkpt lat="45.34616" lon="6.17602">
        <ele>2021</ele>
        <time>2014-03-02T13:41:49.000Z</time>
      </trkpt>
      <trkpt lat="45.34616" lon="6.17602">
        <ele>2021</ele>
        <time>2014-03-02T13:41:50.000Z</time>
      </trkpt>
      <trkpt lat="45.34616" lon="6.17602">
        <ele>2021</ele>
        <time>2014-03-02T13:41:51.000Z</time>
      </trkpt>
      <trkpt lat="45.34616" lon="6.17602">
        <ele>2021</ele>
        <time>2014-03-02T13:41:52.000Z</time>
      </trkpt>
      <trkpt lat="45.34616" lon="6.17602">
        <ele>2021</ele>
        <time>2014-03-02T13:41:53.000Z</time>
      </trkpt>
      <trkpt lat="45.34616" lon="6.17602">
        <ele>2021</ele>
        <time>2014-03-02T13:41:54.000Z</time>
      </trkpt>
      <trkpt lat="45.34616" lon="6.17602">
        <ele>2021</ele>
        <time>2014-03-02T13:41:55.000Z</time>
      </trkpt>
      <trkpt lat="45.34616" lon="6.17602">
        <ele>2021</ele>
        <time>2014-03-02T13:41:56.000Z</time>
      </trkpt>
      <trkpt lat="45.34616" lon="6.17602">
        <ele>2021</ele>
        <time>2014-03-02T13:41:59.000Z</time>
      </trkpt>
      <trkpt lat="45.34616" lon="6.17602">
        <ele>2021</ele>
        <time>2014-03-02T13:42:00.000Z</time>
      </trkpt>
      <trkpt lat="45.34616" lon="6.17602">
        <ele>2021</ele>
        <time>2014-03-02T13:42:01.000Z</time>
      </trkpt>
      <trkpt lat="45.34616" lon="6.17602">
        <ele>2021</ele>
        <time>2014-03-02T13:42:02.000Z</time>
      </trkpt>
      <trkpt lat="45.34616" lon="6.17602">
        <ele>2021</ele>
        <time>2014-03-02T13:42:03.000Z</time>
      </trkpt>
      <trkpt lat="45.34616" lon="6.17602">
        <ele>2021</ele>
        <time>2014-03-02T13:42:04.000Z</time>
      </trkpt>
      <trkpt lat="45.34616" lon="6.17602">
        <ele>2021</ele>
        <time>2014-03-02T13:42:05.000Z</time>
      </trkpt>
      <trkpt lat="45.34616" lon="6.17602">
        <ele>2021</ele>
        <time>2014-03-02T13:42:06.000Z</time>
      </trkpt>
      <trkpt lat="45.34616" lon="6.17602">
        <ele>2021</ele>
        <time>2014-03-02T13:42:12.000Z</time>
      </trkpt>
      <trkpt lat="45.34616" lon="6.17602">
        <ele>2021</ele>
        <time>2014-03-02T13:42:13.000Z</time>
      </trkpt>
      <trkpt lat="45.34616" lon="6.17602">
        <ele>2021</ele>
        <time>2014-03-02T13:42:14.000Z</time>
      </trkpt>
      <trkpt lat="45.34616" lon="6.17602">
        <ele>2021</ele>
        <time>2014-03-02T13:42:15.000Z</time>
      </trkpt>
      <trkpt lat="45.34616" lon="6.17602">
        <ele>2021</ele>
        <time>2014-03-02T13:42:16.000Z</time>
      </trkpt>
      <trkpt lat="45.34616" lon="6.17602">
        <ele>2021</ele>
        <time>2014-03-02T13:42:20.000Z</time>
      </trkpt>
      <trkpt lat="45.34616" lon="6.17602">
        <ele>2021</ele>
        <time>2014-03-02T13:42:22.000Z</time>
      </trkpt>
      <trkpt lat="45.34616" lon="6.17602">
        <ele>2021</ele>
        <time>2014-03-02T13:42:25.000Z</time>
      </trkpt>
      <trkpt lat="45.34616" lon="6.17602">
        <ele>2021</ele>
        <time>2014-03-02T13:42:31.000Z</time>
      </trkpt>
      <trkpt lat="45.34616" lon="6.17602">
        <ele>2021</ele>
        <time>2014-03-02T13:42:32.000Z</time>
      </trkpt>
      <trkpt lat="45.34616" lon="6.17602">
        <ele>2021</ele>
        <time>2014-03-02T13:42:33.000Z</time>
      </trkpt>
      <trkpt lat="45.34616" lon="6.17602">
        <ele>2021</ele>
        <time>2014-03-02T13:42:34.000Z</time>
      </trkpt>
      <trkpt lat="45.34616" lon="6.17602">
        <ele>2021</ele>
        <time>2014-03-02T13:42:35.000Z</time>
      </trkpt>
      <trkpt lat="45.34616" lon="6.17602">
        <ele>2021</ele>
        <time>2014-03-02T13:42:36.000Z</time>
      </trkpt>
      <trkpt lat="45.34616" lon="6.17602">
        <ele>2021</ele>
        <time>2014-03-02T13:42:37.000Z</time>
      </trkpt>
      <trkpt lat="45.34616" lon="6.17602">
        <ele>2021</ele>
        <time>2014-03-02T13:42:38.000Z</time>
      </trkpt>
      <trkpt lat="45.34616" lon="6.17602">
        <ele>2021</ele>
        <time>2014-03-02T13:42:39.000Z</time>
      </trkpt>
      <trkpt lat="45.34616" lon="6.17602">
        <ele>2021</ele>
        <time>2014-03-02T13:42:40.000Z</time>
      </trkpt>
      <trkpt lat="45.34616" lon="6.17602">
        <ele>2021</ele>
        <time>2014-03-02T13:42:41.000Z</time>
      </trkpt>
      <trkpt lat="45.34615" lon="6.17602">
        <ele>2020.8000488281</ele>
        <time>2014-03-02T13:42:42.000Z</time>
      </trkpt>
      <trkpt lat="45.34615" lon="6.17602">
        <ele>2020.8000488281</ele>
        <time>2014-03-02T13:42:43.000Z</time>
      </trkpt>
      <trkpt lat="45.34615" lon="6.17602">
        <ele>2020.8000488281</ele>
        <time>2014-03-02T13:42:44.000Z</time>
      </trkpt>
      <trkpt lat="45.34615" lon="6.17602">
        <ele>2020.8000488281</ele>
        <time>2014-03-02T13:42:46.000Z</time>
      </trkpt>
      <trkpt lat="45.34615" lon="6.17602">
        <ele>2020.8000488281</ele>
        <time>2014-03-02T13:42:47.000Z</time>
      </trkpt>
      <trkpt lat="45.34615" lon="6.17602">
        <ele>2020.8000488281</ele>
        <time>2014-03-02T13:42:48.000Z</time>
      </trkpt>
      <trkpt lat="45.34615" lon="6.17602">
        <ele>2020.8000488281</ele>
        <time>2014-03-02T13:42:49.000Z</time>
      </trkpt>
      <trkpt lat="45.34615" lon="6.17602">
        <ele>2020.8000488281</ele>
        <time>2014-03-02T13:42:50.000Z</time>
      </trkpt>
      <trkpt lat="45.34615" lon="6.17602">
        <ele>2020.8000488281</ele>
        <time>2014-03-02T13:42:51.000Z</time>
      </trkpt>
      <trkpt lat="45.34615" lon="6.17602">
        <ele>2020.8000488281</ele>
        <time>2014-03-02T13:42:52.000Z</time>
      </trkpt>
      <trkpt lat="45.34615" lon="6.17602">
        <ele>2020.8000488281</ele>
        <time>2014-03-02T13:42:53.000Z</time>
      </trkpt>
      <trkpt lat="45.34615" lon="6.17602">
        <ele>2020.8000488281</ele>
        <time>2014-03-02T13:42:54.000Z</time>
      </trkpt>
      <trkpt lat="45.34615" lon="6.17602">
        <ele>2020.8000488281</ele>
        <time>2014-03-02T13:42:55.000Z</time>
      </trkpt>
      <trkpt lat="45.34615" lon="6.17602">
        <ele>2020.8000488281</ele>
        <time>2014-03-02T13:42:56.000Z</time>
      </trkpt>
      <trkpt lat="45.34615" lon="6.17602">
        <ele>2020.8000488281</ele>
        <time>2014-03-02T13:43:01.000Z</time>
      </trkpt>
      <trkpt lat="45.34615" lon="6.17602">
        <ele>2020.8000488281</ele>
        <time>2014-03-02T13:43:02.000Z</time>
      </trkpt>
      <trkpt lat="45.34615" lon="6.17602">
        <ele>2020.8000488281</ele>
        <time>2014-03-02T13:43:03.000Z</time>
      </trkpt>
      <trkpt lat="45.34615" lon="6.17602">
        <ele>2020.8000488281</ele>
        <time>2014-03-02T13:43:04.000Z</time>
      </trkpt>
      <trkpt lat="45.34615" lon="6.17602">
        <ele>2020.8000488281</ele>
        <time>2014-03-02T13:43:05.000Z</time>
      </trkpt>
      <trkpt lat="45.34615" lon="6.17602">
        <ele>2020.8000488281</ele>
        <time>2014-03-02T13:43:06.000Z</time>
      </trkpt>
      <trkpt lat="45.34615" lon="6.17602">
        <ele>2020.8000488281</ele>
        <time>2014-03-02T13:43:07.000Z</time>
      </trkpt>
      <trkpt lat="45.34615" lon="6.17602">
        <ele>2020.8000488281</ele>
        <time>2014-03-02T13:43:08.000Z</time>
      </trkpt>
      <trkpt lat="45.34615" lon="6.17602">
        <ele>2020.8000488281</ele>
        <time>2014-03-02T13:43:15.000Z</time>
      </trkpt>
      <trkpt lat="45.34615" lon="6.17602">
        <ele>2020.8000488281</ele>
        <time>2014-03-02T13:43:16.000Z</time>
      </trkpt>
      <trkpt lat="45.34615" lon="6.17602">
        <ele>2020.8000488281</ele>
        <time>2014-03-02T13:43:17.000Z</time>
      </trkpt>
      <trkpt lat="45.34615" lon="6.17602">
        <ele>2020.8000488281</ele>
        <time>2014-03-02T13:43:18.000Z</time>
      </trkpt>
      <trkpt lat="45.34615" lon="6.17602">
        <ele>2020.8000488281</ele>
        <time>2014-03-02T13:43:19.000Z</time>
      </trkpt>
      <trkpt lat="45.34615" lon="6.17602">
        <ele>2020.8000488281</ele>
        <time>2014-03-02T13:43:20.000Z</time>
      </trkpt>
      <trkpt lat="45.34615" lon="6.17602">
        <ele>2020.8000488281</ele>
        <time>2014-03-02T13:43:21.000Z</time>
      </trkpt>
      <trkpt lat="45.34616" lon="6.17602">
        <ele>2021</ele>
        <time>2014-03-02T13:43:22.000Z</time>
      </trkpt>
      <trkpt lat="45.34616" lon="6.17602">
        <ele>2021</ele>
        <time>2014-03-02T13:43:23.000Z</time>
      </trkpt>
      <trkpt lat="45.34616" lon="6.17602">
        <ele>2021</ele>
        <time>2014-03-02T13:43:24.000Z</time>
      </trkpt>
      <trkpt lat="45.34616" lon="6.17602">
        <ele>2021</ele>
        <time>2014-03-02T13:43:26.000Z</time>
      </trkpt>
      <trkpt lat="45.34616" lon="6.17602">
        <ele>2021</ele>
        <time>2014-03-02T13:43:27.000Z</time>
      </trkpt>
      <trkpt lat="45.34616" lon="6.17602">
        <ele>2021</ele>
        <time>2014-03-02T13:43:28.000Z</time>
      </trkpt>
      <trkpt lat="45.34616" lon="6.17602">
        <ele>2021</ele>
        <time>2014-03-02T13:43:29.000Z</time>
      </trkpt>
      <trkpt lat="45.34616" lon="6.17602">
        <ele>2021</ele>
        <time>2014-03-02T13:43:30.000Z</time>
      </trkpt>
      <trkpt lat="45.34616" lon="6.17602">
        <ele>2021</ele>
        <time>2014-03-02T13:43:31.000Z</time>
      </trkpt>
      <trkpt lat="45.34616" lon="6.17602">
        <ele>2021</ele>
        <time>2014-03-02T13:43:32.000Z</time>
      </trkpt>
      <trkpt lat="45.34616" lon="6.17602">
        <ele>2021</ele>
        <time>2014-03-02T13:43:33.000Z</time>
      </trkpt>
      <trkpt lat="45.34616" lon="6.17602">
        <ele>2021</ele>
        <time>2014-03-02T13:43:34.000Z</time>
      </trkpt>
      <trkpt lat="45.34616" lon="6.17602">
        <ele>2021</ele>
        <time>2014-03-02T13:43:35.000Z</time>
      </trkpt>
      <trkpt lat="45.34616" lon="6.17602">
        <ele>2021</ele>
        <time>2014-03-02T13:43:36.000Z</time>
      </trkpt>
      <trkpt lat="45.34616" lon="6.17602">
        <ele>2021</ele>
        <time>2014-03-02T13:43:37.000Z</time>
      </trkpt>
      <trkpt lat="45.34616" lon="6.17602">
        <ele>2021</ele>
        <time>2014-03-02T13:43:39.000Z</time>
      </trkpt>
      <trkpt lat="45.34616" lon="6.17602">
        <ele>2021</ele>
        <time>2014-03-02T13:43:40.000Z</time>
      </trkpt>
      <trkpt lat="45.34616" lon="6.17602">
        <ele>2021</ele>
        <time>2014-03-02T13:43:41.000Z</time>
      </trkpt>
      <trkpt lat="45.34616" lon="6.17602">
        <ele>2021</ele>
        <time>2014-03-02T13:43:42.000Z</time>
      </trkpt>
      <trkpt lat="45.34616" lon="6.17602">
        <ele>2021</ele>
        <time>2014-03-02T13:43:43.000Z</time>
      </trkpt>
      <trkpt lat="45.34616" lon="6.17602">
        <ele>2021</ele>
        <time>2014-03-02T13:43:44.000Z</time>
      </trkpt>
      <trkpt lat="45.34616" lon="6.17602">
        <ele>2021</ele>
        <time>2014-03-02T13:43:47.000Z</time>
      </trkpt>
      <trkpt lat="45.34616" lon="6.17602">
        <ele>2021</ele>
        <time>2014-03-02T13:43:48.000Z</time>
      </trkpt>
      <trkpt lat="45.34616" lon="6.17602">
        <ele>2021</ele>
        <time>2014-03-02T13:43:49.000Z</time>
      </trkpt>
      <trkpt lat="45.34616" lon="6.17602">
        <ele>2021</ele>
        <time>2014-03-02T13:43:50.000Z</time>
      </trkpt>
      <trkpt lat="45.34616" lon="6.17602">
        <ele>2021</ele>
        <time>2014-03-02T13:43:51.000Z</time>
      </trkpt>
      <trkpt lat="45.34616" lon="6.17602">
        <ele>2021</ele>
        <time>2014-03-02T13:43:52.000Z</time>
      </trkpt>
      <trkpt lat="45.34616" lon="6.17602">
        <ele>2021</ele>
        <time>2014-03-02T13:43:56.000Z</time>
      </trkpt>
      <trkpt lat="45.34616" lon="6.17602">
        <ele>2021</ele>
        <time>2014-03-02T13:43:57.000Z</time>
      </trkpt>
      <trkpt lat="45.34616" lon="6.17602">
        <ele>2021</ele>
        <time>2014-03-02T13:44:01.000Z</time>
      </trkpt>
      <trkpt lat="45.34616" lon="6.17602">
        <ele>2021</ele>
        <time>2014-03-02T13:44:02.000Z</time>
      </trkpt>
      <trkpt lat="45.34616" lon="6.17602">
        <ele>2021</ele>
        <time>2014-03-02T13:44:03.000Z</time>
      </trkpt>
      <trkpt lat="45.34616" lon="6.17602">
        <ele>2021</ele>
        <time>2014-03-02T13:44:04.000Z</time>
      </trkpt>
      <trkpt lat="45.34616" lon="6.17602">
        <ele>2021</ele>
        <time>2014-03-02T13:44:07.000Z</time>
      </trkpt>
      <trkpt lat="45.34616" lon="6.17602">
        <ele>2021</ele>
        <time>2014-03-02T13:44:08.000Z</time>
      </trkpt>
      <trkpt lat="45.34616" lon="6.17602">
        <ele>2021</ele>
        <time>2014-03-02T13:44:09.000Z</time>
      </trkpt>
      <trkpt lat="45.34616" lon="6.17602">
        <ele>2021</ele>
        <time>2014-03-02T13:44:10.000Z</time>
      </trkpt>
      <trkpt lat="45.34616" lon="6.17602">
        <ele>2021</ele>
        <time>2014-03-02T13:44:11.000Z</time>
      </trkpt>
      <trkpt lat="45.34616" lon="6.17602">
        <ele>2021</ele>
        <time>2014-03-02T13:44:12.000Z</time>
      </trkpt>
      <trkpt lat="45.34616" lon="6.17602">
        <ele>2021</ele>
        <time>2014-03-02T13:44:19.000Z</time>
      </trkpt>
      <trkpt lat="45.34616" lon="6.17602">
        <ele>2021</ele>
        <time>2014-03-02T13:44:20.000Z</time>
      </trkpt>
      <trkpt lat="45.34616" lon="6.17602">
        <ele>2021</ele>
        <time>2014-03-02T13:44:21.000Z</time>
      </trkpt>
      <trkpt lat="45.34616" lon="6.17602">
        <ele>2021</ele>
        <time>2014-03-02T13:44:22.000Z</time>
      </trkpt>
      <trkpt lat="45.34616" lon="6.17602">
        <ele>2021</ele>
        <time>2014-03-02T13:44:23.000Z</time>
      </trkpt>
      <trkpt lat="45.34616" lon="6.17602">
        <ele>2021</ele>
        <time>2014-03-02T13:44:27.000Z</time>
      </trkpt>
      <trkpt lat="45.34616" lon="6.17602">
        <ele>2021</ele>
        <time>2014-03-02T13:44:31.000Z</time>
      </trkpt>
      <trkpt lat="45.34616" lon="6.17602">
        <ele>2021</ele>
        <time>2014-03-02T13:44:33.000Z</time>
      </trkpt>
      <trkpt lat="45.34616" lon="6.17602">
        <ele>2021</ele>
        <time>2014-03-02T13:44:34.000Z</time>
      </trkpt>
      <trkpt lat="45.34616" lon="6.17602">
        <ele>2021</ele>
        <time>2014-03-02T13:44:35.000Z</time>
      </trkpt>
      <trkpt lat="45.34616" lon="6.17602">
        <ele>2021</ele>
        <time>2014-03-02T13:44:41.000Z</time>
      </trkpt>
      <trkpt lat="45.34616" lon="6.17601">
        <ele>2020.8000488281</ele>
        <time>2014-03-02T13:44:42.000Z</time>
      </trkpt>
      <trkpt lat="45.34616" lon="6.17601">
        <ele>2020.8000488281</ele>
        <time>2014-03-02T13:44:43.000Z</time>
      </trkpt>
      <trkpt lat="45.34616" lon="6.17601">
        <ele>2020.8000488281</ele>
        <time>2014-03-02T13:44:44.000Z</time>
      </trkpt>
      <trkpt lat="45.34616" lon="6.17601">
        <ele>2020.8000488281</ele>
        <time>2014-03-02T13:44:45.000Z</time>
      </trkpt>
      <trkpt lat="45.34616" lon="6.17601">
        <ele>2020.8000488281</ele>
        <time>2014-03-02T13:44:46.000Z</time>
      </trkpt>
      <trkpt lat="45.34616" lon="6.17601">
        <ele>2020.8000488281</ele>
        <time>2014-03-02T13:44:47.000Z</time>
      </trkpt>
      <trkpt lat="45.34616" lon="6.17601">
        <ele>2020.8000488281</ele>
        <time>2014-03-02T13:44:48.000Z</time>
      </trkpt>
      <trkpt lat="45.34616" lon="6.17601">
        <ele>2020.8000488281</ele>
        <time>2014-03-02T13:44:49.000Z</time>
      </trkpt>
      <trkpt lat="45.34616" lon="6.17601">
        <ele>2020.8000488281</ele>
        <time>2014-03-02T13:44:54.000Z</time>
      </trkpt>
      <trkpt lat="45.34616" lon="6.17601">
        <ele>2020.8000488281</ele>
        <time>2014-03-02T13:44:55.000Z</time>
      </trkpt>
      <trkpt lat="45.34616" lon="6.17601">
        <ele>2020.8000488281</ele>
        <time>2014-03-02T13:44:56.000Z</time>
      </trkpt>
      <trkpt lat="45.34616" lon="6.17601">
        <ele>2020.8000488281</ele>
        <time>2014-03-02T13:44:57.000Z</time>
      </trkpt>
      <trkpt lat="45.34616" lon="6.17601">
        <ele>2020.8000488281</ele>
        <time>2014-03-02T13:45:00.000Z</time>
      </trkpt>
      <trkpt lat="45.34616" lon="6.17601">
        <ele>2020.8000488281</ele>
        <time>2014-03-02T13:45:01.000Z</time>
      </trkpt>
      <trkpt lat="45.34616" lon="6.17601">
        <ele>2020.8000488281</ele>
        <time>2014-03-02T13:45:02.000Z</time>
      </trkpt>
      <trkpt lat="45.34616" lon="6.17601">
        <ele>2020.8000488281</ele>
        <time>2014-03-02T13:45:03.000Z</time>
      </trkpt>
      <trkpt lat="45.34616" lon="6.17601">
        <ele>2020.8000488281</ele>
        <time>2014-03-02T13:45:04.000Z</time>
      </trkpt>
      <trkpt lat="45.34616" lon="6.17601">
        <ele>2020.8000488281</ele>
        <time>2014-03-02T13:45:08.000Z</time>
      </trkpt>
      <trkpt lat="45.34616" lon="6.17601">
        <ele>2020.8000488281</ele>
        <time>2014-03-02T13:45:09.000Z</time>
      </trkpt>
      <trkpt lat="45.34616" lon="6.17601">
        <ele>2020.8000488281</ele>
        <time>2014-03-02T13:45:13.000Z</time>
      </trkpt>
      <trkpt lat="45.34616" lon="6.17601">
        <ele>2020.8000488281</ele>
        <time>2014-03-02T13:45:14.000Z</time>
      </trkpt>
      <trkpt lat="45.34616" lon="6.17601">
        <ele>2020.8000488281</ele>
        <time>2014-03-02T13:45:15.000Z</time>
      </trkpt>
      <trkpt lat="45.34616" lon="6.17601">
        <ele>2020.8000488281</ele>
        <time>2014-03-02T13:45:16.000Z</time>
      </trkpt>
      <trkpt lat="45.34616" lon="6.17601">
        <ele>2020.8000488281</ele>
        <time>2014-03-02T13:45:17.000Z</time>
      </trkpt>
      <trkpt lat="45.34616" lon="6.17601">
        <ele>2020.8000488281</ele>
        <time>2014-03-02T13:45:19.000Z</time>
      </trkpt>
      <trkpt lat="45.34616" lon="6.17601">
        <ele>2020.8000488281</ele>
        <time>2014-03-02T13:45:20.000Z</time>
      </trkpt>
      <trkpt lat="45.34616" lon="6.17601">
        <ele>2020.8000488281</ele>
        <time>2014-03-02T13:45:21.000Z</time>
      </trkpt>
      <trkpt lat="45.34617" lon="6.17601">
        <ele>2020.8000488281</ele>
        <time>2014-03-02T13:45:22.000Z</time>
      </trkpt>
      <trkpt lat="45.34617" lon="6.17601">
        <ele>2020.8000488281</ele>
        <time>2014-03-02T13:45:23.000Z</time>
      </trkpt>
      <trkpt lat="45.34617" lon="6.17601">
        <ele>2020.8000488281</ele>
        <time>2014-03-02T13:45:24.000Z</time>
      </trkpt>
      <trkpt lat="45.34617" lon="6.17601">
        <ele>2020.8000488281</ele>
        <time>2014-03-02T13:45:25.000Z</time>
      </trkpt>
      <trkpt lat="45.34617" lon="6.17601">
        <ele>2020.8000488281</ele>
        <time>2014-03-02T13:45:26.000Z</time>
      </trkpt>
      <trkpt lat="45.34617" lon="6.17601">
        <ele>2020.8000488281</ele>
        <time>2014-03-02T13:45:27.000Z</time>
      </trkpt>
      <trkpt lat="45.34617" lon="6.17601">
        <ele>2020.8000488281</ele>
        <time>2014-03-02T13:45:28.000Z</time>
      </trkpt>
      <trkpt lat="45.34617" lon="6.17601">
        <ele>2020.8000488281</ele>
        <time>2014-03-02T13:45:29.000Z</time>
      </trkpt>
      <trkpt lat="45.34617" lon="6.17601">
        <ele>2020.8000488281</ele>
        <time>2014-03-02T13:45:31.000Z</time>
      </trkpt>
      <trkpt lat="45.34617" lon="6.17601">
        <ele>2020.8000488281</ele>
        <time>2014-03-02T13:45:32.000Z</time>
      </trkpt>
      <trkpt lat="45.34617" lon="6.17601">
        <ele>2020.8000488281</ele>
        <time>2014-03-02T13:45:33.000Z</time>
      </trkpt>
      <trkpt lat="45.34617" lon="6.17601">
        <ele>2020.8000488281</ele>
        <time>2014-03-02T13:45:35.000Z</time>
      </trkpt>
      <trkpt lat="45.34617" lon="6.17601">
        <ele>2020.8000488281</ele>
        <time>2014-03-02T13:45:36.000Z</time>
      </trkpt>
      <trkpt lat="45.34617" lon="6.17601">
        <ele>2020.8000488281</ele>
        <time>2014-03-02T13:45:40.000Z</time>
      </trkpt>
      <trkpt lat="45.34617" lon="6.17601">
        <ele>2020.8000488281</ele>
        <time>2014-03-02T13:45:46.000Z</time>
      </trkpt>
      <trkpt lat="45.34617" lon="6.17601">
        <ele>2020.8000488281</ele>
        <time>2014-03-02T13:45:50.000Z</time>
      </trkpt>
      <trkpt lat="45.34617" lon="6.17601">
        <ele>2020.8000488281</ele>
        <time>2014-03-02T13:45:53.000Z</time>
      </trkpt>
      <trkpt lat="45.34617" lon="6.17601">
        <ele>2020.8000488281</ele>
        <time>2014-03-02T13:45:54.000Z</time>
      </trkpt>
      <trkpt lat="45.34617" lon="6.17601">
        <ele>2020.8000488281</ele>
        <time>2014-03-02T13:45:55.000Z</time>
      </trkpt>
      <trkpt lat="45.34617" lon="6.17601">
        <ele>2020.8000488281</ele>
        <time>2014-03-02T13:45:56.000Z</time>
      </trkpt>
      <trkpt lat="45.34617" lon="6.17601">
        <ele>2020.8000488281</ele>
        <time>2014-03-02T13:45:57.000Z</time>
      </trkpt>
      <trkpt lat="45.34617" lon="6.17601">
        <ele>2020.8000488281</ele>
        <time>2014-03-02T13:45:58.000Z</time>
      </trkpt>
      <trkpt lat="45.34617" lon="6.17601">
        <ele>2020.8000488281</ele>
        <time>2014-03-02T13:45:59.000Z</time>
      </trkpt>
      <trkpt lat="45.34617" lon="6.17601">
        <ele>2020.8000488281</ele>
        <time>2014-03-02T13:46:00.000Z</time>
      </trkpt>
      <trkpt lat="45.34617" lon="6.17601">
        <ele>2020.8000488281</ele>
        <time>2014-03-02T13:46:01.000Z</time>
      </trkpt>
      <trkpt lat="45.34616" lon="6.176">
        <ele>2020.5999755859</ele>
        <time>2014-03-02T13:46:02.000Z</time>
      </trkpt>
      <trkpt lat="45.34616" lon="6.176">
        <ele>2020.5999755859</ele>
        <time>2014-03-02T13:46:03.000Z</time>
      </trkpt>
      <trkpt lat="45.34616" lon="6.176">
        <ele>2020.5999755859</ele>
        <time>2014-03-02T13:46:04.000Z</time>
      </trkpt>
      <trkpt lat="45.34616" lon="6.176">
        <ele>2020.5999755859</ele>
        <time>2014-03-02T13:46:08.000Z</time>
      </trkpt>
      <trkpt lat="45.34616" lon="6.176">
        <ele>2020.5999755859</ele>
        <time>2014-03-02T13:46:09.000Z</time>
      </trkpt>
      <trkpt lat="45.34616" lon="6.176">
        <ele>2020.5999755859</ele>
        <time>2014-03-02T13:46:10.000Z</time>
      </trkpt>
      <trkpt lat="45.34616" lon="6.176">
        <ele>2020.5999755859</ele>
        <time>2014-03-02T13:46:13.000Z</time>
      </trkpt>
      <trkpt lat="45.34616" lon="6.176">
        <ele>2020.5999755859</ele>
        <time>2014-03-02T13:46:14.000Z</time>
      </trkpt>
      <trkpt lat="45.34616" lon="6.176">
        <ele>2020.5999755859</ele>
        <time>2014-03-02T13:46:15.000Z</time>
      </trkpt>
      <trkpt lat="45.34616" lon="6.176">
        <ele>2020.5999755859</ele>
        <time>2014-03-02T13:46:20.000Z</time>
      </trkpt>
      <trkpt lat="45.34616" lon="6.176">
        <ele>2020.5999755859</ele>
        <time>2014-03-02T13:46:21.000Z</time>
      </trkpt>
      <trkpt lat="45.34616" lon="6.176">
        <ele>2020.5999755859</ele>
        <time>2014-03-02T13:46:22.000Z</time>
      </trkpt>
      <trkpt lat="45.34616" lon="6.176">
        <ele>2020.5999755859</ele>
        <time>2014-03-02T13:46:23.000Z</time>
      </trkpt>
      <trkpt lat="45.34616" lon="6.176">
        <ele>2020.5999755859</ele>
        <time>2014-03-02T13:46:28.000Z</time>
      </trkpt>
      <trkpt lat="45.34616" lon="6.176">
        <ele>2020.5999755859</ele>
        <time>2014-03-02T13:46:30.000Z</time>
      </trkpt>
      <trkpt lat="45.34616" lon="6.176">
        <ele>2020.5999755859</ele>
        <time>2014-03-02T13:46:33.000Z</time>
      </trkpt>
      <trkpt lat="45.34616" lon="6.176">
        <ele>2020.5999755859</ele>
        <time>2014-03-02T13:46:34.000Z</time>
      </trkpt>
      <trkpt lat="45.34616" lon="6.176">
        <ele>2020.5999755859</ele>
        <time>2014-03-02T13:46:35.000Z</time>
      </trkpt>
      <trkpt lat="45.34616" lon="6.176">
        <ele>2020.5999755859</ele>
        <time>2014-03-02T13:46:38.000Z</time>
      </trkpt>
      <trkpt lat="45.34616" lon="6.176">
        <ele>2020.5999755859</ele>
        <time>2014-03-02T13:46:39.000Z</time>
      </trkpt>
      <trkpt lat="45.34616" lon="6.176">
        <ele>2020.5999755859</ele>
        <time>2014-03-02T13:46:40.000Z</time>
      </trkpt>
      <trkpt lat="45.34616" lon="6.176">
        <ele>2020.5999755859</ele>
        <time>2014-03-02T13:46:41.000Z</time>
      </trkpt>
      <trkpt lat="45.34617" lon="6.176">
        <ele>2020.5999755859</ele>
        <time>2014-03-02T13:46:44.000Z</time>
      </trkpt>
      <trkpt lat="45.34617" lon="6.176">
        <ele>2020.5999755859</ele>
        <time>2014-03-02T13:46:45.000Z</time>
      </trkpt>
      <trkpt lat="45.34617" lon="6.176">
        <ele>2020.5999755859</ele>
        <time>2014-03-02T13:46:49.000Z</time>
      </trkpt>
      <trkpt lat="45.34619" lon="6.17602">
        <ele>2021.1999511719</ele>
        <time>2014-03-02T13:47:28.000Z</time>
      </trkpt>
      <trkpt lat="45.34619" lon="6.17602">
        <ele>2021.1999511719</ele>
        <time>2014-03-02T13:47:30.000Z</time>
      </trkpt>
      <trkpt lat="45.34619" lon="6.17602">
        <ele>2021.1999511719</ele>
        <time>2014-03-02T13:47:31.000Z</time>
      </trkpt>
      <trkpt lat="45.34619" lon="6.17602">
        <ele>2021.1999511719</ele>
        <time>2014-03-02T13:47:32.000Z</time>
      </trkpt>
      <trkpt lat="45.34619" lon="6.17602">
        <ele>2021.1999511719</ele>
        <time>2014-03-02T13:47:35.000Z</time>
      </trkpt>
      <trkpt lat="45.34619" lon="6.17602">
        <ele>2021.1999511719</ele>
        <time>2014-03-02T13:47:36.000Z</time>
      </trkpt>
      <trkpt lat="45.34619" lon="6.17602">
        <ele>2021.1999511719</ele>
        <time>2014-03-02T13:47:37.000Z</time>
      </trkpt>
      <trkpt lat="45.34619" lon="6.17602">
        <ele>2021.1999511719</ele>
        <time>2014-03-02T13:47:38.000Z</time>
      </trkpt>
      <trkpt lat="45.34619" lon="6.17602">
        <ele>2021.1999511719</ele>
        <time>2014-03-02T13:47:39.000Z</time>
      </trkpt>
      <trkpt lat="45.34619" lon="6.17602">
        <ele>2021.1999511719</ele>
        <time>2014-03-02T13:47:40.000Z</time>
      </trkpt>
      <trkpt lat="45.34619" lon="6.17602">
        <ele>2021.1999511719</ele>
        <time>2014-03-02T13:47:43.000Z</time>
      </trkpt>
      <trkpt lat="45.34619" lon="6.17602">
        <ele>2021.1999511719</ele>
        <time>2014-03-02T13:47:44.000Z</time>
      </trkpt>
      <trkpt lat="45.34619" lon="6.17602">
        <ele>2021.1999511719</ele>
        <time>2014-03-02T13:47:45.000Z</time>
      </trkpt>
      <trkpt lat="45.34619" lon="6.17602">
        <ele>2021.1999511719</ele>
        <time>2014-03-02T13:47:46.000Z</time>
      </trkpt>
      <trkpt lat="45.34619" lon="6.17602">
        <ele>2021.1999511719</ele>
        <time>2014-03-02T13:47:49.000Z</time>
      </trkpt>
      <trkpt lat="45.34619" lon="6.17602">
        <ele>2021.1999511719</ele>
        <time>2014-03-02T13:47:52.000Z</time>
      </trkpt>
      <trkpt lat="45.34619" lon="6.17602">
        <ele>2021.1999511719</ele>
        <time>2014-03-02T13:47:53.000Z</time>
      </trkpt>
      <trkpt lat="45.34619" lon="6.17602">
        <ele>2021.1999511719</ele>
        <time>2014-03-02T13:47:54.000Z</time>
      </trkpt>
      <trkpt lat="45.34619" lon="6.17602">
        <ele>2021.1999511719</ele>
        <time>2014-03-02T13:47:56.000Z</time>
      </trkpt>
      <trkpt lat="45.34619" lon="6.17602">
        <ele>2021.1999511719</ele>
        <time>2014-03-02T13:47:57.000Z</time>
      </trkpt>
      <trkpt lat="45.34619" lon="6.17602">
        <ele>2021.1999511719</ele>
        <time>2014-03-02T13:47:58.000Z</time>
      </trkpt>
      <trkpt lat="45.34619" lon="6.17602">
        <ele>2021.1999511719</ele>
        <time>2014-03-02T13:47:59.000Z</time>
      </trkpt>
      <trkpt lat="45.34619" lon="6.17602">
        <ele>2021.1999511719</ele>
        <time>2014-03-02T13:48:00.000Z</time>
      </trkpt>
      <trkpt lat="45.34619" lon="6.17602">
        <ele>2021.1999511719</ele>
        <time>2014-03-02T13:48:01.000Z</time>
      </trkpt>
      <trkpt lat="45.34619" lon="6.17601">
        <ele>2021.1999511719</ele>
        <time>2014-03-02T13:48:02.000Z</time>
      </trkpt>
      <trkpt lat="45.34619" lon="6.17601">
        <ele>2021.1999511719</ele>
        <time>2014-03-02T13:48:03.000Z</time>
      </trkpt>
      <trkpt lat="45.34619" lon="6.17601">
        <ele>2021.1999511719</ele>
        <time>2014-03-02T13:48:04.000Z</time>
      </trkpt>
      <trkpt lat="45.34619" lon="6.17601">
        <ele>2021.1999511719</ele>
        <time>2014-03-02T13:48:05.000Z</time>
      </trkpt>
      <trkpt lat="45.34619" lon="6.17601">
        <ele>2021.1999511719</ele>
        <time>2014-03-02T13:48:06.000Z</time>
      </trkpt>
      <trkpt lat="45.34619" lon="6.17601">
        <ele>2021.1999511719</ele>
        <time>2014-03-02T13:48:07.000Z</time>
      </trkpt>
      <trkpt lat="45.34619" lon="6.17601">
        <ele>2021.1999511719</ele>
        <time>2014-03-02T13:48:08.000Z</time>
      </trkpt>
      <trkpt lat="45.34619" lon="6.17601">
        <ele>2021.1999511719</ele>
        <time>2014-03-02T13:48:09.000Z</time>
      </trkpt>
      <trkpt lat="45.34619" lon="6.17601">
        <ele>2021.1999511719</ele>
        <time>2014-03-02T13:48:10.000Z</time>
      </trkpt>
      <trkpt lat="45.34619" lon="6.17601">
        <ele>2021.1999511719</ele>
        <time>2014-03-02T13:48:11.000Z</time>
      </trkpt>
      <trkpt lat="45.34619" lon="6.17601">
        <ele>2021.1999511719</ele>
        <time>2014-03-02T13:48:12.000Z</time>
      </trkpt>
      <trkpt lat="45.34619" lon="6.17601">
        <ele>2021.1999511719</ele>
        <time>2014-03-02T13:48:13.000Z</time>
      </trkpt>
      <trkpt lat="45.34619" lon="6.17601">
        <ele>2021.1999511719</ele>
        <time>2014-03-02T13:48:15.000Z</time>
      </trkpt>
      <trkpt lat="45.34619" lon="6.17601">
        <ele>2021.1999511719</ele>
        <time>2014-03-02T13:48:16.000Z</time>
      </trkpt>
      <trkpt lat="45.34619" lon="6.17601">
        <ele>2021.1999511719</ele>
        <time>2014-03-02T13:48:17.000Z</time>
      </trkpt>
      <trkpt lat="45.34619" lon="6.17601">
        <ele>2021.1999511719</ele>
        <time>2014-03-02T13:48:18.000Z</time>
      </trkpt>
      <trkpt lat="45.34619" lon="6.17601">
        <ele>2021.1999511719</ele>
        <time>2014-03-02T13:48:19.000Z</time>
      </trkpt>
      <trkpt lat="45.34619" lon="6.17601">
        <ele>2021.1999511719</ele>
        <time>2014-03-02T13:48:20.000Z</time>
      </trkpt>
      <trkpt lat="45.34619" lon="6.17601">
        <ele>2021.1999511719</ele>
        <time>2014-03-02T13:48:22.000Z</time>
      </trkpt>
      <trkpt lat="45.34619" lon="6.17601">
        <ele>2021.1999511719</ele>
        <time>2014-03-02T13:48:25.000Z</time>
      </trkpt>
      <trkpt lat="45.34619" lon="6.17601">
        <ele>2021.1999511719</ele>
        <time>2014-03-02T13:48:26.000Z</time>
      </trkpt>
      <trkpt lat="45.34619" lon="6.17601">
        <ele>2021.1999511719</ele>
        <time>2014-03-02T13:48:27.000Z</time>
      </trkpt>
      <trkpt lat="45.34619" lon="6.17601">
        <ele>2021.1999511719</ele>
        <time>2014-03-02T13:48:28.000Z</time>
      </trkpt>
      <trkpt lat="45.34619" lon="6.17601">
        <ele>2021.1999511719</ele>
        <time>2014-03-02T13:48:29.000Z</time>
      </trkpt>
      <trkpt lat="45.34619" lon="6.17601">
        <ele>2021.1999511719</ele>
        <time>2014-03-02T13:48:30.000Z</time>
      </trkpt>
      <trkpt lat="45.34619" lon="6.17601">
        <ele>2021.1999511719</ele>
        <time>2014-03-02T13:48:31.000Z</time>
      </trkpt>
      <trkpt lat="45.34619" lon="6.17601">
        <ele>2021.1999511719</ele>
        <time>2014-03-02T13:48:32.000Z</time>
      </trkpt>
      <trkpt lat="45.34619" lon="6.17601">
        <ele>2021.1999511719</ele>
        <time>2014-03-02T13:48:33.000Z</time>
      </trkpt>
      <trkpt lat="45.34619" lon="6.17601">
        <ele>2021.1999511719</ele>
        <time>2014-03-02T13:48:34.000Z</time>
      </trkpt>
      <trkpt lat="45.34619" lon="6.17601">
        <ele>2021.1999511719</ele>
        <time>2014-03-02T13:48:35.000Z</time>
      </trkpt>
      <trkpt lat="45.34619" lon="6.17601">
        <ele>2021.1999511719</ele>
        <time>2014-03-02T13:48:37.000Z</time>
      </trkpt>
      <trkpt lat="45.34619" lon="6.17601">
        <ele>2021.1999511719</ele>
        <time>2014-03-02T13:48:38.000Z</time>
      </trkpt>
      <trkpt lat="45.34619" lon="6.17601">
        <ele>2021.1999511719</ele>
        <time>2014-03-02T13:48:39.000Z</time>
      </trkpt>
      <trkpt lat="45.34619" lon="6.17601">
        <ele>2021.1999511719</ele>
        <time>2014-03-02T13:48:40.000Z</time>
      </trkpt>
      <trkpt lat="45.34619" lon="6.17601">
        <ele>2021.1999511719</ele>
        <time>2014-03-02T13:48:41.000Z</time>
      </trkpt>
      <trkpt lat="45.3462" lon="6.17601">
        <ele>2021.1999511719</ele>
        <time>2014-03-02T13:48:42.000Z</time>
      </trkpt>
      <trkpt lat="45.3462" lon="6.17601">
        <ele>2021.1999511719</ele>
        <time>2014-03-02T13:48:43.000Z</time>
      </trkpt>
      <trkpt lat="45.3462" lon="6.17601">
        <ele>2021.1999511719</ele>
        <time>2014-03-02T13:48:44.000Z</time>
      </trkpt>
      <trkpt lat="45.3462" lon="6.17601">
        <ele>2021.1999511719</ele>
        <time>2014-03-02T13:48:45.000Z</time>
      </trkpt>
      <trkpt lat="45.3462" lon="6.17601">
        <ele>2021.1999511719</ele>
        <time>2014-03-02T13:48:46.000Z</time>
      </trkpt>
      <trkpt lat="45.3462" lon="6.17601">
        <ele>2021.1999511719</ele>
        <time>2014-03-02T13:48:47.000Z</time>
      </trkpt>
      <trkpt lat="45.3462" lon="6.17601">
        <ele>2021.1999511719</ele>
        <time>2014-03-02T13:48:48.000Z</time>
      </trkpt>
      <trkpt lat="45.3462" lon="6.17601">
        <ele>2021.1999511719</ele>
        <time>2014-03-02T13:48:49.000Z</time>
      </trkpt>
      <trkpt lat="45.3462" lon="6.17601">
        <ele>2021.1999511719</ele>
        <time>2014-03-02T13:48:50.000Z</time>
      </trkpt>
      <trkpt lat="45.3462" lon="6.17601">
        <ele>2021.1999511719</ele>
        <time>2014-03-02T13:48:51.000Z</time>
      </trkpt>
      <trkpt lat="45.3462" lon="6.17601">
        <ele>2021.1999511719</ele>
        <time>2014-03-02T13:48:52.000Z</time>
      </trkpt>
      <trkpt lat="45.3462" lon="6.17601">
        <ele>2021.1999511719</ele>
        <time>2014-03-02T13:48:53.000Z</time>
      </trkpt>
      <trkpt lat="45.3462" lon="6.17601">
        <ele>2021.1999511719</ele>
        <time>2014-03-02T13:48:54.000Z</time>
      </trkpt>
      <trkpt lat="45.3462" lon="6.17601">
        <ele>2021.1999511719</ele>
        <time>2014-03-02T13:48:55.000Z</time>
      </trkpt>
      <trkpt lat="45.3462" lon="6.17601">
        <ele>2021.1999511719</ele>
        <time>2014-03-02T13:48:56.000Z</time>
      </trkpt>
      <trkpt lat="45.3462" lon="6.17601">
        <ele>2021.1999511719</ele>
        <time>2014-03-02T13:48:57.000Z</time>
      </trkpt>
      <trkpt lat="45.3462" lon="6.17601">
        <ele>2021.1999511719</ele>
        <time>2014-03-02T13:48:58.000Z</time>
      </trkpt>
      <trkpt lat="45.3462" lon="6.17601">
        <ele>2021.1999511719</ele>
        <time>2014-03-02T13:48:59.000Z</time>
      </trkpt>
      <trkpt lat="45.3462" lon="6.17601">
        <ele>2021.1999511719</ele>
        <time>2014-03-02T13:49:00.000Z</time>
      </trkpt>
      <trkpt lat="45.3462" lon="6.17601">
        <ele>2021.1999511719</ele>
        <time>2014-03-02T13:49:01.000Z</time>
      </trkpt>
      <trkpt lat="45.3462" lon="6.17601">
        <ele>2021.1999511719</ele>
        <time>2014-03-02T13:49:02.000Z</time>
      </trkpt>
      <trkpt lat="45.3462" lon="6.17601">
        <ele>2021.1999511719</ele>
        <time>2014-03-02T13:49:03.000Z</time>
      </trkpt>
      <trkpt lat="45.3462" lon="6.17601">
        <ele>2021.1999511719</ele>
        <time>2014-03-02T13:49:04.000Z</time>
      </trkpt>
      <trkpt lat="45.3462" lon="6.17601">
        <ele>2021.1999511719</ele>
        <time>2014-03-02T13:49:05.000Z</time>
      </trkpt>
      <trkpt lat="45.3462" lon="6.17601">
        <ele>2021.1999511719</ele>
        <time>2014-03-02T13:49:06.000Z</time>
      </trkpt>
      <trkpt lat="45.3462" lon="6.17601">
        <ele>2021.1999511719</ele>
        <time>2014-03-02T13:49:07.000Z</time>
      </trkpt>
      <trkpt lat="45.3462" lon="6.17601">
        <ele>2021.1999511719</ele>
        <time>2014-03-02T13:49:08.000Z</time>
      </trkpt>
      <trkpt lat="45.3462" lon="6.17601">
        <ele>2021.1999511719</ele>
        <time>2014-03-02T13:49:09.000Z</time>
      </trkpt>
      <trkpt lat="45.3462" lon="6.17601">
        <ele>2021.1999511719</ele>
        <time>2014-03-02T13:49:10.000Z</time>
      </trkpt>
      <trkpt lat="45.3462" lon="6.17601">
        <ele>2021.1999511719</ele>
        <time>2014-03-02T13:49:11.000Z</time>
      </trkpt>
      <trkpt lat="45.3462" lon="6.17601">
        <ele>2021.1999511719</ele>
        <time>2014-03-02T13:49:12.000Z</time>
      </trkpt>
      <trkpt lat="45.3462" lon="6.17601">
        <ele>2021.1999511719</ele>
        <time>2014-03-02T13:49:14.000Z</time>
      </trkpt>
      <trkpt lat="45.3462" lon="6.17601">
        <ele>2021.1999511719</ele>
        <time>2014-03-02T13:49:15.000Z</time>
      </trkpt>
      <trkpt lat="45.3462" lon="6.17601">
        <ele>2021.1999511719</ele>
        <time>2014-03-02T13:49:16.000Z</time>
      </trkpt>
      <trkpt lat="45.3462" lon="6.17601">
        <ele>2021.1999511719</ele>
        <time>2014-03-02T13:49:17.000Z</time>
      </trkpt>
      <trkpt lat="45.3462" lon="6.17601">
        <ele>2021.1999511719</ele>
        <time>2014-03-02T13:49:18.000Z</time>
      </trkpt>
      <trkpt lat="45.3462" lon="6.17601">
        <ele>2021.1999511719</ele>
        <time>2014-03-02T13:49:19.000Z</time>
      </trkpt>
      <trkpt lat="45.3462" lon="6.17601">
        <ele>2021.1999511719</ele>
        <time>2014-03-02T13:49:20.000Z</time>
      </trkpt>
      <trkpt lat="45.3462" lon="6.17601">
        <ele>2021.1999511719</ele>
        <time>2014-03-02T13:49:21.000Z</time>
      </trkpt>
      <trkpt lat="45.3462" lon="6.17601">
        <ele>2021.1999511719</ele>
        <time>2014-03-02T13:49:22.000Z</time>
      </trkpt>
      <trkpt lat="45.3462" lon="6.17601">
        <ele>2021.1999511719</ele>
        <time>2014-03-02T13:49:25.000Z</time>
      </trkpt>
      <trkpt lat="45.3462" lon="6.17601">
        <ele>2021.1999511719</ele>
        <time>2014-03-02T13:49:26.000Z</time>
      </trkpt>
      <trkpt lat="45.3462" lon="6.17601">
        <ele>2021.1999511719</ele>
        <time>2014-03-02T13:49:27.000Z</time>
      </trkpt>
      <trkpt lat="45.3462" lon="6.17601">
        <ele>2021.1999511719</ele>
        <time>2014-03-02T13:49:29.000Z</time>
      </trkpt>
      <trkpt lat="45.3462" lon="6.17601">
        <ele>2021.1999511719</ele>
        <time>2014-03-02T13:49:31.000Z</time>
      </trkpt>
      <trkpt lat="45.3462" lon="6.17601">
        <ele>2021.1999511719</ele>
        <time>2014-03-02T13:49:32.000Z</time>
      </trkpt>
      <trkpt lat="45.3462" lon="6.17601">
        <ele>2021.1999511719</ele>
        <time>2014-03-02T13:49:33.000Z</time>
      </trkpt>
      <trkpt lat="45.3462" lon="6.17601">
        <ele>2021</ele>
        <time>2014-03-02T13:49:34.000Z</time>
      </trkpt>
      <trkpt lat="45.34619" lon="6.176">
        <ele>2021</ele>
        <time>2014-03-02T13:49:35.000Z</time>
      </trkpt>
      <trkpt lat="45.34619" lon="6.176">
        <ele>2020.8000488281</ele>
        <time>2014-03-02T13:49:36.000Z</time>
      </trkpt>
      <trkpt lat="45.34619" lon="6.176">
        <ele>2020.8000488281</ele>
        <time>2014-03-02T13:49:37.000Z</time>
      </trkpt>
      <trkpt lat="45.34618" lon="6.176">
        <ele>2020.8000488281</ele>
        <time>2014-03-02T13:49:38.000Z</time>
      </trkpt>
      <trkpt lat="45.34618" lon="6.176">
        <ele>2020.8000488281</ele>
        <time>2014-03-02T13:49:39.000Z</time>
      </trkpt>
      <trkpt lat="45.34618" lon="6.17601">
        <ele>2021</ele>
        <time>2014-03-02T13:49:40.000Z</time>
      </trkpt>
      <trkpt lat="45.34617" lon="6.17601">
        <ele>2021</ele>
        <time>2014-03-02T13:49:41.000Z</time>
      </trkpt>
      <trkpt lat="45.34617" lon="6.17601">
        <ele>2021</ele>
        <time>2014-03-02T13:49:42.000Z</time>
      </trkpt>
      <trkpt lat="45.34617" lon="6.17602">
        <ele>2021.1999511719</ele>
        <time>2014-03-02T13:49:43.000Z</time>
      </trkpt>
      <trkpt lat="45.34616" lon="6.17602">
        <ele>2021.1999511719</ele>
        <time>2014-03-02T13:49:44.000Z</time>
      </trkpt>
      <trkpt lat="45.34616" lon="6.17603">
        <ele>2021.1999511719</ele>
        <time>2014-03-02T13:49:45.000Z</time>
      </trkpt>
      <trkpt lat="45.34615" lon="6.17603">
        <ele>2021</ele>
        <time>2014-03-02T13:49:46.000Z</time>
      </trkpt>
      <trkpt lat="45.34615" lon="6.17603">
        <ele>2021</ele>
        <time>2014-03-02T13:49:47.000Z</time>
      </trkpt>
      <trkpt lat="45.34614" lon="6.17603">
        <ele>2021</ele>
        <time>2014-03-02T13:49:48.000Z</time>
      </trkpt>
      <trkpt lat="45.34612" lon="6.17603">
        <ele>2021</ele>
        <time>2014-03-02T13:49:49.000Z</time>
      </trkpt>
      <trkpt lat="45.34612" lon="6.17603">
        <ele>2020.8000488281</ele>
        <time>2014-03-02T13:49:50.000Z</time>
      </trkpt>
      <trkpt lat="45.3461" lon="6.17603">
        <ele>2020.5999755859</ele>
        <time>2014-03-02T13:49:51.000Z</time>
      </trkpt>
      <trkpt lat="45.3461" lon="6.17603">
        <ele>2020.8000488281</ele>
        <time>2014-03-02T13:49:52.000Z</time>
      </trkpt>
      <trkpt lat="45.34608" lon="6.17603">
        <ele>2020.5999755859</ele>
        <time>2014-03-02T13:49:53.000Z</time>
      </trkpt>
      <trkpt lat="45.34608" lon="6.17603">
        <ele>2020.5999755859</ele>
        <time>2014-03-02T13:49:54.000Z</time>
      </trkpt>
      <trkpt lat="45.34607" lon="6.17604">
        <ele>2020.5999755859</ele>
        <time>2014-03-02T13:49:55.000Z</time>
      </trkpt>
      <trkpt lat="45.34606" lon="6.17605">
        <ele>2020.8000488281</ele>
        <time>2014-03-02T13:49:56.000Z</time>
      </trkpt>
      <trkpt lat="45.34606" lon="6.17605">
        <ele>2020.8000488281</ele>
        <time>2014-03-02T13:49:57.000Z</time>
      </trkpt>
      <trkpt lat="45.34604" lon="6.17606">
        <ele>2020.8000488281</ele>
        <time>2014-03-02T13:49:58.000Z</time>
      </trkpt>
      <trkpt lat="45.34603" lon="6.17606">
        <ele>2020.8000488281</ele>
        <time>2014-03-02T13:49:59.000Z</time>
      </trkpt>
      <trkpt lat="45.34602" lon="6.17606">
        <ele>2020.8000488281</ele>
        <time>2014-03-02T13:50:00.000Z</time>
      </trkpt>
      <trkpt lat="45.34601" lon="6.17606">
        <ele>2020.8000488281</ele>
        <time>2014-03-02T13:50:01.000Z</time>
      </trkpt>
      <trkpt lat="45.34601" lon="6.17607">
        <ele>2020.8000488281</ele>
        <time>2014-03-02T13:50:02.000Z</time>
      </trkpt>
      <trkpt lat="45.346" lon="6.17607">
        <ele>2020.8000488281</ele>
        <time>2014-03-02T13:50:03.000Z</time>
      </trkpt>
      <trkpt lat="45.346" lon="6.17607">
        <ele>2020.8000488281</ele>
        <time>2014-03-02T13:50:04.000Z</time>
      </trkpt>
      <trkpt lat="45.346" lon="6.17607">
        <ele>2020.8000488281</ele>
        <time>2014-03-02T13:50:05.000Z</time>
      </trkpt>
      <trkpt lat="45.34599" lon="6.17607">
        <ele>2020.8000488281</ele>
        <time>2014-03-02T13:50:06.000Z</time>
      </trkpt>
      <trkpt lat="45.34598" lon="6.17608">
        <ele>2020.8000488281</ele>
        <time>2014-03-02T13:50:07.000Z</time>
      </trkpt>
      <trkpt lat="45.34596" lon="6.17609">
        <ele>2020.8000488281</ele>
        <time>2014-03-02T13:50:08.000Z</time>
      </trkpt>
      <trkpt lat="45.34596" lon="6.17609">
        <ele>2020.8000488281</ele>
        <time>2014-03-02T13:50:09.000Z</time>
      </trkpt>
      <trkpt lat="45.34596" lon="6.17609">
        <ele>2021</ele>
        <time>2014-03-02T13:50:10.000Z</time>
      </trkpt>
      <trkpt lat="45.34595" lon="6.17609">
        <ele>2020.8000488281</ele>
        <time>2014-03-02T13:50:11.000Z</time>
      </trkpt>
      <trkpt lat="45.34594" lon="6.17609">
        <ele>2020.8000488281</ele>
        <time>2014-03-02T13:50:12.000Z</time>
      </trkpt>
      <trkpt lat="45.34592" lon="6.17609">
        <ele>2020.5999755859</ele>
        <time>2014-03-02T13:50:13.000Z</time>
      </trkpt>
      <trkpt lat="45.34592" lon="6.17609">
        <ele>2020.5999755859</ele>
        <time>2014-03-02T13:50:14.000Z</time>
      </trkpt>
      <trkpt lat="45.3459" lon="6.17608">
        <ele>2020.4000244141</ele>
        <time>2014-03-02T13:50:15.000Z</time>
      </trkpt>
      <trkpt lat="45.3459" lon="6.17608">
        <ele>2020.4000244141</ele>
        <time>2014-03-02T13:50:16.000Z</time>
      </trkpt>
      <trkpt lat="45.34589" lon="6.17608">
        <ele>2020.1999511719</ele>
        <time>2014-03-02T13:50:17.000Z</time>
      </trkpt>
      <trkpt lat="45.34588" lon="6.17608">
        <ele>2020.1999511719</ele>
        <time>2014-03-02T13:50:18.000Z</time>
      </trkpt>
      <trkpt lat="45.34588" lon="6.17607">
        <ele>2020.1999511719</ele>
        <time>2014-03-02T13:50:19.000Z</time>
      </trkpt>
      <trkpt lat="45.34586" lon="6.17607">
        <ele>2020</ele>
        <time>2014-03-02T13:50:20.000Z</time>
      </trkpt>
      <trkpt lat="45.34585" lon="6.17608">
        <ele>2020.1999511719</ele>
        <time>2014-03-02T13:50:21.000Z</time>
      </trkpt>
      <trkpt lat="45.34584" lon="6.17608">
        <ele>2020</ele>
        <time>2014-03-02T13:50:22.000Z</time>
      </trkpt>
      <trkpt lat="45.34584" lon="6.17608">
        <ele>2020.1999511719</ele>
        <time>2014-03-02T13:50:23.000Z</time>
      </trkpt>
      <trkpt lat="45.34584" lon="6.17608">
        <ele>2020</ele>
        <time>2014-03-02T13:50:24.000Z</time>
      </trkpt>
      <trkpt lat="45.34583" lon="6.17608">
        <ele>2020</ele>
        <time>2014-03-02T13:50:25.000Z</time>
      </trkpt>
      <trkpt lat="45.34582" lon="6.17607">
        <ele>2019.8000488281</ele>
        <time>2014-03-02T13:50:26.000Z</time>
      </trkpt>
      <trkpt lat="45.34581" lon="6.17607">
        <ele>2019.5999755859</ele>
        <time>2014-03-02T13:50:27.000Z</time>
      </trkpt>
      <trkpt lat="45.3458" lon="6.17607">
        <ele>2019.5999755859</ele>
        <time>2014-03-02T13:50:28.000Z</time>
      </trkpt>
      <trkpt lat="45.3458" lon="6.17607">
        <ele>2019.5999755859</ele>
        <time>2014-03-02T13:50:29.000Z</time>
      </trkpt>
      <trkpt lat="45.34579" lon="6.17606">
        <ele>2019.4000244141</ele>
        <time>2014-03-02T13:50:30.000Z</time>
      </trkpt>
      <trkpt lat="45.34578" lon="6.17606">
        <ele>2019.1999511719</ele>
        <time>2014-03-02T13:50:31.000Z</time>
      </trkpt>
      <trkpt lat="45.34577" lon="6.17605">
        <ele>2019</ele>
        <time>2014-03-02T13:50:32.000Z</time>
      </trkpt>
      <trkpt lat="45.34575" lon="6.17604">
        <ele>2018.5999755859</ele>
        <time>2014-03-02T13:50:33.000Z</time>
      </trkpt>
      <trkpt lat="45.34574" lon="6.17604">
        <ele>2018.4000244141</ele>
        <time>2014-03-02T13:50:34.000Z</time>
      </trkpt>
      <trkpt lat="45.34573" lon="6.17603">
        <ele>2018.1999511719</ele>
        <time>2014-03-02T13:50:35.000Z</time>
      </trkpt>
      <trkpt lat="45.34572" lon="6.17603">
        <ele>2018.1999511719</ele>
        <time>2014-03-02T13:50:36.000Z</time>
      </trkpt>
      <trkpt lat="45.34572" lon="6.17603">
        <ele>2018.1999511719</ele>
        <time>2014-03-02T13:50:37.000Z</time>
      </trkpt>
      <trkpt lat="45.34572" lon="6.17602">
        <ele>2018</ele>
        <time>2014-03-02T13:50:38.000Z</time>
      </trkpt>
      <trkpt lat="45.34571" lon="6.17601">
        <ele>2017.8000488281</ele>
        <time>2014-03-02T13:50:39.000Z</time>
      </trkpt>
      <trkpt lat="45.34571" lon="6.17601">
        <ele>2017.5999755859</ele>
        <time>2014-03-02T13:50:40.000Z</time>
      </trkpt>
      <trkpt lat="45.3457" lon="6.17601">
        <ele>2017.4000244141</ele>
        <time>2014-03-02T13:50:41.000Z</time>
      </trkpt>
      <trkpt lat="45.3457" lon="6.176">
        <ele>2017.4000244141</ele>
        <time>2014-03-02T13:50:42.000Z</time>
      </trkpt>
      <trkpt lat="45.34569" lon="6.176">
        <ele>2017.1999511719</ele>
        <time>2014-03-02T13:50:43.000Z</time>
      </trkpt>
      <trkpt lat="45.34568" lon="6.176">
        <ele>2017.1999511719</ele>
        <time>2014-03-02T13:50:44.000Z</time>
      </trkpt>
      <trkpt lat="45.34568" lon="6.17599">
        <ele>2017</ele>
        <time>2014-03-02T13:50:45.000Z</time>
      </trkpt>
      <trkpt lat="45.34567" lon="6.17599">
        <ele>2016.8000488281</ele>
        <time>2014-03-02T13:50:46.000Z</time>
      </trkpt>
      <trkpt lat="45.34567" lon="6.17599">
        <ele>2016.8000488281</ele>
        <time>2014-03-02T13:50:47.000Z</time>
      </trkpt>
      <trkpt lat="45.34566" lon="6.17598">
        <ele>2016.5999755859</ele>
        <time>2014-03-02T13:50:48.000Z</time>
      </trkpt>
      <trkpt lat="45.34566" lon="6.17597">
        <ele>2016.4000244141</ele>
        <time>2014-03-02T13:50:49.000Z</time>
      </trkpt>
      <trkpt lat="45.34565" lon="6.17597">
        <ele>2016.1999511719</ele>
        <time>2014-03-02T13:50:50.000Z</time>
      </trkpt>
      <trkpt lat="45.34565" lon="6.17596">
        <ele>2016.1999511719</ele>
        <time>2014-03-02T13:50:51.000Z</time>
      </trkpt>
      <trkpt lat="45.34565" lon="6.17596">
        <ele>2016</ele>
        <time>2014-03-02T13:50:52.000Z</time>
      </trkpt>
      <trkpt lat="45.34564" lon="6.17596">
        <ele>2016</ele>
        <time>2014-03-02T13:50:53.000Z</time>
      </trkpt>
      <trkpt lat="45.34564" lon="6.17596">
        <ele>2016</ele>
        <time>2014-03-02T13:50:54.000Z</time>
      </trkpt>
      <trkpt lat="45.34563" lon="6.17596">
        <ele>2015.8000488281</ele>
        <time>2014-03-02T13:50:55.000Z</time>
      </trkpt>
      <trkpt lat="45.34563" lon="6.17596">
        <ele>2015.8000488281</ele>
        <time>2014-03-02T13:50:56.000Z</time>
      </trkpt>
      <trkpt lat="45.34562" lon="6.17595">
        <ele>2015.5999755859</ele>
        <time>2014-03-02T13:50:57.000Z</time>
      </trkpt>
      <trkpt lat="45.34561" lon="6.17595">
        <ele>2015.5999755859</ele>
        <time>2014-03-02T13:50:58.000Z</time>
      </trkpt>
      <trkpt lat="45.34561" lon="6.17595">
        <ele>2015.4000244141</ele>
        <time>2014-03-02T13:50:59.000Z</time>
      </trkpt>
      <trkpt lat="45.3456" lon="6.17594">
        <ele>2015.4000244141</ele>
        <time>2014-03-02T13:51:00.000Z</time>
      </trkpt>
      <trkpt lat="45.3456" lon="6.17594">
        <ele>2015.1999511719</ele>
        <time>2014-03-02T13:51:01.000Z</time>
      </trkpt>
      <trkpt lat="45.34559" lon="6.17593">
        <ele>2015</ele>
        <time>2014-03-02T13:51:02.000Z</time>
      </trkpt>
      <trkpt lat="45.34558" lon="6.17593">
        <ele>2014.8000488281</ele>
        <time>2014-03-02T13:51:03.000Z</time>
      </trkpt>
      <trkpt lat="45.34557" lon="6.17592">
        <ele>2014.5999755859</ele>
        <time>2014-03-02T13:51:04.000Z</time>
      </trkpt>
      <trkpt lat="45.34557" lon="6.17592">
        <ele>2014.5999755859</ele>
        <time>2014-03-02T13:51:05.000Z</time>
      </trkpt>
      <trkpt lat="45.34556" lon="6.17592">
        <ele>2014.4000244141</ele>
        <time>2014-03-02T13:51:06.000Z</time>
      </trkpt>
      <trkpt lat="45.34556" lon="6.17591">
        <ele>2014.1999511719</ele>
        <time>2014-03-02T13:51:07.000Z</time>
      </trkpt>
      <trkpt lat="45.34555" lon="6.1759">
        <ele>2014</ele>
        <time>2014-03-02T13:51:08.000Z</time>
      </trkpt>
      <trkpt lat="45.34554" lon="6.17589">
        <ele>2013.8000488281</ele>
        <time>2014-03-02T13:51:09.000Z</time>
      </trkpt>
      <trkpt lat="45.34554" lon="6.17589">
        <ele>2013.5999755859</ele>
        <time>2014-03-02T13:51:10.000Z</time>
      </trkpt>
      <trkpt lat="45.34553" lon="6.17588">
        <ele>2013.4000244141</ele>
        <time>2014-03-02T13:51:11.000Z</time>
      </trkpt>
      <trkpt lat="45.34553" lon="6.17587">
        <ele>2013.1999511719</ele>
        <time>2014-03-02T13:51:12.000Z</time>
      </trkpt>
      <trkpt lat="45.34552" lon="6.17587">
        <ele>2012.8000488281</ele>
        <time>2014-03-02T13:51:13.000Z</time>
      </trkpt>
      <trkpt lat="45.34552" lon="6.17586">
        <ele>2012.8000488281</ele>
        <time>2014-03-02T13:51:14.000Z</time>
      </trkpt>
      <trkpt lat="45.34552" lon="6.17586">
        <ele>2012.5999755859</ele>
        <time>2014-03-02T13:51:15.000Z</time>
      </trkpt>
      <trkpt lat="45.34552" lon="6.17586">
        <ele>2012.5999755859</ele>
        <time>2014-03-02T13:51:16.000Z</time>
      </trkpt>
      <trkpt lat="45.34552" lon="6.17586">
        <ele>2012.5999755859</ele>
        <time>2014-03-02T13:51:17.000Z</time>
      </trkpt>
      <trkpt lat="45.34552" lon="6.17586">
        <ele>2012.5999755859</ele>
        <time>2014-03-02T13:51:18.000Z</time>
      </trkpt>
      <trkpt lat="45.34552" lon="6.17586">
        <ele>2012.5999755859</ele>
        <time>2014-03-02T13:51:19.000Z</time>
      </trkpt>
      <trkpt lat="45.34552" lon="6.17586">
        <ele>2012.5999755859</ele>
        <time>2014-03-02T13:51:20.000Z</time>
      </trkpt>
      <trkpt lat="45.34552" lon="6.17586">
        <ele>2012.5999755859</ele>
        <time>2014-03-02T13:51:21.000Z</time>
      </trkpt>
      <trkpt lat="45.34552" lon="6.17586">
        <ele>2012.5999755859</ele>
        <time>2014-03-02T13:51:22.000Z</time>
      </trkpt>
      <trkpt lat="45.34552" lon="6.17586">
        <ele>2012.5999755859</ele>
        <time>2014-03-02T13:51:23.000Z</time>
      </trkpt>
      <trkpt lat="45.34552" lon="6.17586">
        <ele>2012.5999755859</ele>
        <time>2014-03-02T13:51:24.000Z</time>
      </trkpt>
      <trkpt lat="45.34552" lon="6.17586">
        <ele>2012.5999755859</ele>
        <time>2014-03-02T13:51:25.000Z</time>
      </trkpt>
      <trkpt lat="45.34552" lon="6.17586">
        <ele>2012.5999755859</ele>
        <time>2014-03-02T13:51:26.000Z</time>
      </trkpt>
      <trkpt lat="45.34552" lon="6.17586">
        <ele>2012.5999755859</ele>
        <time>2014-03-02T13:51:27.000Z</time>
      </trkpt>
      <trkpt lat="45.34552" lon="6.17586">
        <ele>2012.5999755859</ele>
        <time>2014-03-02T13:51:28.000Z</time>
      </trkpt>
      <trkpt lat="45.34552" lon="6.17586">
        <ele>2012.5999755859</ele>
        <time>2014-03-02T13:51:29.000Z</time>
      </trkpt>
      <trkpt lat="45.34552" lon="6.17586">
        <ele>2012.5999755859</ele>
        <time>2014-03-02T13:51:30.000Z</time>
      </trkpt>
      <trkpt lat="45.34552" lon="6.17586">
        <ele>2012.5999755859</ele>
        <time>2014-03-02T13:51:31.000Z</time>
      </trkpt>
      <trkpt lat="45.34552" lon="6.17586">
        <ele>2012.5999755859</ele>
        <time>2014-03-02T13:51:32.000Z</time>
      </trkpt>
      <trkpt lat="45.34552" lon="6.17586">
        <ele>2012.5999755859</ele>
        <time>2014-03-02T13:51:33.000Z</time>
      </trkpt>
      <trkpt lat="45.34552" lon="6.17586">
        <ele>2012.5999755859</ele>
        <time>2014-03-02T13:51:34.000Z</time>
      </trkpt>
      <trkpt lat="45.34552" lon="6.17586">
        <ele>2012.5999755859</ele>
        <time>2014-03-02T13:51:35.000Z</time>
      </trkpt>
      <trkpt lat="45.34552" lon="6.17586">
        <ele>2012.5999755859</ele>
        <time>2014-03-02T13:51:36.000Z</time>
      </trkpt>
      <trkpt lat="45.34552" lon="6.17586">
        <ele>2012.5999755859</ele>
        <time>2014-03-02T13:51:37.000Z</time>
      </trkpt>
      <trkpt lat="45.34552" lon="6.17586">
        <ele>2012.5999755859</ele>
        <time>2014-03-02T13:51:38.000Z</time>
      </trkpt>
      <trkpt lat="45.34552" lon="6.17586">
        <ele>2012.5999755859</ele>
        <time>2014-03-02T13:51:39.000Z</time>
      </trkpt>
      <trkpt lat="45.34552" lon="6.17586">
        <ele>2012.5999755859</ele>
        <time>2014-03-02T13:51:40.000Z</time>
      </trkpt>
      <trkpt lat="45.34552" lon="6.17586">
        <ele>2012.5999755859</ele>
        <time>2014-03-02T13:51:41.000Z</time>
      </trkpt>
      <trkpt lat="45.34552" lon="6.17586">
        <ele>2012.5999755859</ele>
        <time>2014-03-02T13:51:42.000Z</time>
      </trkpt>
      <trkpt lat="45.34552" lon="6.17586">
        <ele>2012.5999755859</ele>
        <time>2014-03-02T13:51:43.000Z</time>
      </trkpt>
      <trkpt lat="45.34552" lon="6.17586">
        <ele>2012.5999755859</ele>
        <time>2014-03-02T13:51:44.000Z</time>
      </trkpt>
      <trkpt lat="45.34552" lon="6.17586">
        <ele>2012.5999755859</ele>
        <time>2014-03-02T13:51:45.000Z</time>
      </trkpt>
      <trkpt lat="45.34552" lon="6.17586">
        <ele>2012.5999755859</ele>
        <time>2014-03-02T13:51:49.000Z</time>
      </trkpt>
      <trkpt lat="45.34552" lon="6.17586">
        <ele>2012.5999755859</ele>
        <time>2014-03-02T13:51:50.000Z</time>
      </trkpt>
      <trkpt lat="45.34552" lon="6.17586">
        <ele>2012.5999755859</ele>
        <time>2014-03-02T13:51:51.000Z</time>
      </trkpt>
      <trkpt lat="45.34552" lon="6.17586">
        <ele>2012.5999755859</ele>
        <time>2014-03-02T13:51:52.000Z</time>
      </trkpt>
      <trkpt lat="45.34552" lon="6.17586">
        <ele>2012.5999755859</ele>
        <time>2014-03-02T13:51:53.000Z</time>
      </trkpt>
      <trkpt lat="45.34552" lon="6.17586">
        <ele>2012.5999755859</ele>
        <time>2014-03-02T13:51:54.000Z</time>
      </trkpt>
      <trkpt lat="45.34551" lon="6.17586">
        <ele>2012.5999755859</ele>
        <time>2014-03-02T13:51:57.000Z</time>
      </trkpt>
      <trkpt lat="45.34551" lon="6.17586">
        <ele>2012.5999755859</ele>
        <time>2014-03-02T13:51:58.000Z</time>
      </trkpt>
      <trkpt lat="45.34551" lon="6.17586">
        <ele>2012.5999755859</ele>
        <time>2014-03-02T13:51:59.000Z</time>
      </trkpt>
      <trkpt lat="45.34551" lon="6.17586">
        <ele>2012.5999755859</ele>
        <time>2014-03-02T13:52:00.000Z</time>
      </trkpt>
      <trkpt lat="45.34551" lon="6.17586">
        <ele>2012.5999755859</ele>
        <time>2014-03-02T13:52:01.000Z</time>
      </trkpt>
      <trkpt lat="45.34551" lon="6.17586">
        <ele>2012.5999755859</ele>
        <time>2014-03-02T13:52:02.000Z</time>
      </trkpt>
      <trkpt lat="45.34551" lon="6.17586">
        <ele>2012.5999755859</ele>
        <time>2014-03-02T13:52:03.000Z</time>
      </trkpt>
      <trkpt lat="45.34551" lon="6.17586">
        <ele>2012.5999755859</ele>
        <time>2014-03-02T13:52:04.000Z</time>
      </trkpt>
      <trkpt lat="45.34551" lon="6.17586">
        <ele>2012.5999755859</ele>
        <time>2014-03-02T13:52:05.000Z</time>
      </trkpt>
      <trkpt lat="45.34551" lon="6.17586">
        <ele>2012.5999755859</ele>
        <time>2014-03-02T13:52:06.000Z</time>
      </trkpt>
      <trkpt lat="45.34551" lon="6.17586">
        <ele>2012.5999755859</ele>
        <time>2014-03-02T13:52:07.000Z</time>
      </trkpt>
      <trkpt lat="45.34551" lon="6.17586">
        <ele>2012.5999755859</ele>
        <time>2014-03-02T13:52:08.000Z</time>
      </trkpt>
      <trkpt lat="45.34551" lon="6.17586">
        <ele>2012.5999755859</ele>
        <time>2014-03-02T13:52:09.000Z</time>
      </trkpt>
      <trkpt lat="45.34551" lon="6.17586">
        <ele>2012.5999755859</ele>
        <time>2014-03-02T13:52:10.000Z</time>
      </trkpt>
      <trkpt lat="45.34551" lon="6.17586">
        <ele>2012.5999755859</ele>
        <time>2014-03-02T13:52:11.000Z</time>
      </trkpt>
      <trkpt lat="45.34551" lon="6.17586">
        <ele>2012.5999755859</ele>
        <time>2014-03-02T13:52:12.000Z</time>
      </trkpt>
      <trkpt lat="45.34551" lon="6.17586">
        <ele>2012.5999755859</ele>
        <time>2014-03-02T13:52:13.000Z</time>
      </trkpt>
      <trkpt lat="45.34551" lon="6.17586">
        <ele>2012.5999755859</ele>
        <time>2014-03-02T13:52:14.000Z</time>
      </trkpt>
      <trkpt lat="45.34551" lon="6.17586">
        <ele>2012.5999755859</ele>
        <time>2014-03-02T13:52:16.000Z</time>
      </trkpt>
      <trkpt lat="45.34551" lon="6.17586">
        <ele>2012.5999755859</ele>
        <time>2014-03-02T13:52:17.000Z</time>
      </trkpt>
      <trkpt lat="45.34551" lon="6.17586">
        <ele>2012.5999755859</ele>
        <time>2014-03-02T13:52:18.000Z</time>
      </trkpt>
      <trkpt lat="45.34551" lon="6.17586">
        <ele>2012.5999755859</ele>
        <time>2014-03-02T13:52:19.000Z</time>
      </trkpt>
      <trkpt lat="45.34551" lon="6.17586">
        <ele>2012.5999755859</ele>
        <time>2014-03-02T13:52:20.000Z</time>
      </trkpt>
      <trkpt lat="45.34551" lon="6.17586">
        <ele>2012.5999755859</ele>
        <time>2014-03-02T13:52:21.000Z</time>
      </trkpt>
      <trkpt lat="45.34551" lon="6.17586">
        <ele>2012.5999755859</ele>
        <time>2014-03-02T13:52:22.000Z</time>
      </trkpt>
      <trkpt lat="45.34551" lon="6.17586">
        <ele>2012.5999755859</ele>
        <time>2014-03-02T13:52:23.000Z</time>
      </trkpt>
      <trkpt lat="45.34551" lon="6.17586">
        <ele>2012.5999755859</ele>
        <time>2014-03-02T13:52:24.000Z</time>
      </trkpt>
      <trkpt lat="45.34551" lon="6.17586">
        <ele>2012.5999755859</ele>
        <time>2014-03-02T13:52:25.000Z</time>
      </trkpt>
      <trkpt lat="45.34551" lon="6.17586">
        <ele>2012.5999755859</ele>
        <time>2014-03-02T13:52:26.000Z</time>
      </trkpt>
      <trkpt lat="45.34551" lon="6.17586">
        <ele>2012.5999755859</ele>
        <time>2014-03-02T13:52:27.000Z</time>
      </trkpt>
      <trkpt lat="45.34551" lon="6.17586">
        <ele>2012.5999755859</ele>
        <time>2014-03-02T13:52:28.000Z</time>
      </trkpt>
      <trkpt lat="45.34551" lon="6.17586">
        <ele>2012.5999755859</ele>
        <time>2014-03-02T13:52:29.000Z</time>
      </trkpt>
      <trkpt lat="45.34551" lon="6.17586">
        <ele>2012.5999755859</ele>
        <time>2014-03-02T13:52:30.000Z</time>
      </trkpt>
      <trkpt lat="45.34551" lon="6.17586">
        <ele>2012.5999755859</ele>
        <time>2014-03-02T13:52:31.000Z</time>
      </trkpt>
      <trkpt lat="45.34551" lon="6.17586">
        <ele>2012.5999755859</ele>
        <time>2014-03-02T13:52:32.000Z</time>
      </trkpt>
      <trkpt lat="45.34551" lon="6.17585">
        <ele>2012.5999755859</ele>
        <time>2014-03-02T13:52:33.000Z</time>
      </trkpt>
      <trkpt lat="45.3455" lon="6.17585">
        <ele>2012.1999511719</ele>
        <time>2014-03-02T13:52:34.000Z</time>
      </trkpt>
      <trkpt lat="45.34549" lon="6.17584">
        <ele>2012.1999511719</ele>
        <time>2014-03-02T13:52:35.000Z</time>
      </trkpt>
      <trkpt lat="45.34548" lon="6.17583">
        <ele>2011.8000488281</ele>
        <time>2014-03-02T13:52:36.000Z</time>
      </trkpt>
      <trkpt lat="45.34547" lon="6.17582">
        <ele>2011.5999755859</ele>
        <time>2014-03-02T13:52:37.000Z</time>
      </trkpt>
      <trkpt lat="45.34545" lon="6.1758">
        <ele>2011.8000488281</ele>
        <time>2014-03-02T13:52:38.000Z</time>
      </trkpt>
      <trkpt lat="45.34545" lon="6.17579">
        <ele>2011.5999755859</ele>
        <time>2014-03-02T13:52:39.000Z</time>
      </trkpt>
      <trkpt lat="45.34544" lon="6.17578">
        <ele>2011.5999755859</ele>
        <time>2014-03-02T13:52:40.000Z</time>
      </trkpt>
      <trkpt lat="45.34543" lon="6.17578">
        <ele>2011.5999755859</ele>
        <time>2014-03-02T13:52:41.000Z</time>
      </trkpt>
      <trkpt lat="45.34543" lon="6.17577">
        <ele>2011.5999755859</ele>
        <time>2014-03-02T13:52:42.000Z</time>
      </trkpt>
      <trkpt lat="45.34542" lon="6.17576">
        <ele>2011.5999755859</ele>
        <time>2014-03-02T13:52:43.000Z</time>
      </trkpt>
      <trkpt lat="45.34542" lon="6.17576">
        <ele>2011.5999755859</ele>
        <time>2014-03-02T13:52:44.000Z</time>
      </trkpt>
      <trkpt lat="45.34541" lon="6.17575">
        <ele>2011.8000488281</ele>
        <time>2014-03-02T13:52:45.000Z</time>
      </trkpt>
      <trkpt lat="45.3454" lon="6.17574">
        <ele>2011.8000488281</ele>
        <time>2014-03-02T13:52:46.000Z</time>
      </trkpt>
      <trkpt lat="45.34539" lon="6.17574">
        <ele>2011.8000488281</ele>
        <time>2014-03-02T13:52:47.000Z</time>
      </trkpt>
      <trkpt lat="45.34538" lon="6.17573">
        <ele>2011.8000488281</ele>
        <time>2014-03-02T13:52:48.000Z</time>
      </trkpt>
      <trkpt lat="45.34537" lon="6.17572">
        <ele>2012.1999511719</ele>
        <time>2014-03-02T13:52:49.000Z</time>
      </trkpt>
      <trkpt lat="45.34536" lon="6.17572">
        <ele>2012.1999511719</ele>
        <time>2014-03-02T13:52:50.000Z</time>
      </trkpt>
      <trkpt lat="45.34535" lon="6.17571">
        <ele>2012.4000244141</ele>
        <time>2014-03-02T13:52:51.000Z</time>
      </trkpt>
      <trkpt lat="45.34534" lon="6.17571">
        <ele>2012.5999755859</ele>
        <time>2014-03-02T13:52:52.000Z</time>
      </trkpt>
      <trkpt lat="45.34533" lon="6.1757">
        <ele>2012.8000488281</ele>
        <time>2014-03-02T13:52:53.000Z</time>
      </trkpt>
      <trkpt lat="45.34532" lon="6.17569">
        <ele>2013</ele>
        <time>2014-03-02T13:52:54.000Z</time>
      </trkpt>
      <trkpt lat="45.34531" lon="6.17568">
        <ele>2013</ele>
        <time>2014-03-02T13:52:55.000Z</time>
      </trkpt>
      <trkpt lat="45.3453" lon="6.17567">
        <ele>2013.1999511719</ele>
        <time>2014-03-02T13:52:56.000Z</time>
      </trkpt>
      <trkpt lat="45.34529" lon="6.17567">
        <ele>2013.4000244141</ele>
        <time>2014-03-02T13:52:57.000Z</time>
      </trkpt>
      <trkpt lat="45.34528" lon="6.17567">
        <ele>2013.4000244141</ele>
        <time>2014-03-02T13:52:58.000Z</time>
      </trkpt>
      <trkpt lat="45.34528" lon="6.17566">
        <ele>2013.4000244141</ele>
        <time>2014-03-02T13:52:59.000Z</time>
      </trkpt>
      <trkpt lat="45.34527" lon="6.17565">
        <ele>2013.4000244141</ele>
        <time>2014-03-02T13:53:00.000Z</time>
      </trkpt>
      <trkpt lat="45.34527" lon="6.17564">
        <ele>2013.4000244141</ele>
        <time>2014-03-02T13:53:01.000Z</time>
      </trkpt>
      <trkpt lat="45.34526" lon="6.17564">
        <ele>2013.4000244141</ele>
        <time>2014-03-02T13:53:02.000Z</time>
      </trkpt>
      <trkpt lat="45.34525" lon="6.17563">
        <ele>2013.1999511719</ele>
        <time>2014-03-02T13:53:03.000Z</time>
      </trkpt>
      <trkpt lat="45.34525" lon="6.17562">
        <ele>2013.1999511719</ele>
        <time>2014-03-02T13:53:04.000Z</time>
      </trkpt>
      <trkpt lat="45.34525" lon="6.17561">
        <ele>2013.1999511719</ele>
        <time>2014-03-02T13:53:05.000Z</time>
      </trkpt>
      <trkpt lat="45.34524" lon="6.17561">
        <ele>2013.4000244141</ele>
        <time>2014-03-02T13:53:06.000Z</time>
      </trkpt>
      <trkpt lat="45.34523" lon="6.1756">
        <ele>2013.5999755859</ele>
        <time>2014-03-02T13:53:07.000Z</time>
      </trkpt>
      <trkpt lat="45.34522" lon="6.17559">
        <ele>2013.8000488281</ele>
        <time>2014-03-02T13:53:08.000Z</time>
      </trkpt>
      <trkpt lat="45.34522" lon="6.17559">
        <ele>2014</ele>
        <time>2014-03-02T13:53:09.000Z</time>
      </trkpt>
      <trkpt lat="45.34521" lon="6.17558">
        <ele>2014.1999511719</ele>
        <time>2014-03-02T13:53:10.000Z</time>
      </trkpt>
      <trkpt lat="45.3452" lon="6.17557">
        <ele>2014.4000244141</ele>
        <time>2014-03-02T13:53:11.000Z</time>
      </trkpt>
      <trkpt lat="45.3452" lon="6.17557">
        <ele>2014.5999755859</ele>
        <time>2014-03-02T13:53:12.000Z</time>
      </trkpt>
      <trkpt lat="45.34519" lon="6.17556">
        <ele>2014.8000488281</ele>
        <time>2014-03-02T13:53:13.000Z</time>
      </trkpt>
      <trkpt lat="45.34519" lon="6.17555">
        <ele>2015</ele>
        <time>2014-03-02T13:53:14.000Z</time>
      </trkpt>
      <trkpt lat="45.34518" lon="6.17554">
        <ele>2015.1999511719</ele>
        <time>2014-03-02T13:53:15.000Z</time>
      </trkpt>
      <trkpt lat="45.34518" lon="6.17554">
        <ele>2015.1999511719</ele>
        <time>2014-03-02T13:53:16.000Z</time>
      </trkpt>
      <trkpt lat="45.34517" lon="6.17554">
        <ele>2015.4000244141</ele>
        <time>2014-03-02T13:53:17.000Z</time>
      </trkpt>
      <trkpt lat="45.34517" lon="6.17554">
        <ele>2015.5999755859</ele>
        <time>2014-03-02T13:53:18.000Z</time>
      </trkpt>
      <trkpt lat="45.34516" lon="6.17554">
        <ele>2015.8000488281</ele>
        <time>2014-03-02T13:53:19.000Z</time>
      </trkpt>
      <trkpt lat="45.34516" lon="6.17553">
        <ele>2016</ele>
        <time>2014-03-02T13:53:20.000Z</time>
      </trkpt>
      <trkpt lat="45.34515" lon="6.17553">
        <ele>2016.1999511719</ele>
        <time>2014-03-02T13:53:21.000Z</time>
      </trkpt>
      <trkpt lat="45.34514" lon="6.17552">
        <ele>2016.4000244141</ele>
        <time>2014-03-02T13:53:22.000Z</time>
      </trkpt>
      <trkpt lat="45.34514" lon="6.17552">
        <ele>2016.5999755859</ele>
        <time>2014-03-02T13:53:23.000Z</time>
      </trkpt>
      <trkpt lat="45.34514" lon="6.17552">
        <ele>2016.5999755859</ele>
        <time>2014-03-02T13:53:24.000Z</time>
      </trkpt>
      <trkpt lat="45.34514" lon="6.17552">
        <ele>2016.5999755859</ele>
        <time>2014-03-02T13:53:25.000Z</time>
      </trkpt>
      <trkpt lat="45.34514" lon="6.17552">
        <ele>2016.5999755859</ele>
        <time>2014-03-02T13:53:26.000Z</time>
      </trkpt>
      <trkpt lat="45.34514" lon="6.17552">
        <ele>2016.5999755859</ele>
        <time>2014-03-02T13:53:27.000Z</time>
      </trkpt>
      <trkpt lat="45.34513" lon="6.17552">
        <ele>2016.5999755859</ele>
        <time>2014-03-02T13:53:28.000Z</time>
      </trkpt>
      <trkpt lat="45.34513" lon="6.17552">
        <ele>2016.5999755859</ele>
        <time>2014-03-02T13:53:29.000Z</time>
      </trkpt>
      <trkpt lat="45.34513" lon="6.17551">
        <ele>2016.8000488281</ele>
        <time>2014-03-02T13:53:30.000Z</time>
      </trkpt>
      <trkpt lat="45.34512" lon="6.17551">
        <ele>2017</ele>
        <time>2014-03-02T13:53:31.000Z</time>
      </trkpt>
      <trkpt lat="45.34512" lon="6.1755">
        <ele>2017.1999511719</ele>
        <time>2014-03-02T13:53:32.000Z</time>
      </trkpt>
      <trkpt lat="45.34511" lon="6.1755">
        <ele>2017.4000244141</ele>
        <time>2014-03-02T13:53:33.000Z</time>
      </trkpt>
      <trkpt lat="45.34511" lon="6.1755">
        <ele>2017.5999755859</ele>
        <time>2014-03-02T13:53:34.000Z</time>
      </trkpt>
      <trkpt lat="45.3451" lon="6.17549">
        <ele>2017.8000488281</ele>
        <time>2014-03-02T13:53:35.000Z</time>
      </trkpt>
      <trkpt lat="45.34509" lon="6.17548">
        <ele>2018</ele>
        <time>2014-03-02T13:53:36.000Z</time>
      </trkpt>
      <trkpt lat="45.34508" lon="6.17547">
        <ele>2018.1999511719</ele>
        <time>2014-03-02T13:53:37.000Z</time>
      </trkpt>
      <trkpt lat="45.34508" lon="6.17546">
        <ele>2018.4000244141</ele>
        <time>2014-03-02T13:53:38.000Z</time>
      </trkpt>
      <trkpt lat="45.34508" lon="6.17546">
        <ele>2018.4000244141</ele>
        <time>2014-03-02T13:53:39.000Z</time>
      </trkpt>
      <trkpt lat="45.34508" lon="6.17546">
        <ele>2018.4000244141</ele>
        <time>2014-03-02T13:53:40.000Z</time>
      </trkpt>
      <trkpt lat="45.34507" lon="6.17545">
        <ele>2018.5999755859</ele>
        <time>2014-03-02T13:53:41.000Z</time>
      </trkpt>
      <trkpt lat="45.34506" lon="6.17544">
        <ele>2019</ele>
        <time>2014-03-02T13:53:42.000Z</time>
      </trkpt>
      <trkpt lat="45.34505" lon="6.17544">
        <ele>2019.1999511719</ele>
        <time>2014-03-02T13:53:43.000Z</time>
      </trkpt>
      <trkpt lat="45.34505" lon="6.17543">
        <ele>2019.4000244141</ele>
        <time>2014-03-02T13:53:44.000Z</time>
      </trkpt>
      <trkpt lat="45.34505" lon="6.17542">
        <ele>2019.4000244141</ele>
        <time>2014-03-02T13:53:45.000Z</time>
      </trkpt>
      <trkpt lat="45.34504" lon="6.17542">
        <ele>2019.5999755859</ele>
        <time>2014-03-02T13:53:46.000Z</time>
      </trkpt>
      <trkpt lat="45.34504" lon="6.17542">
        <ele>2019.5999755859</ele>
        <time>2014-03-02T13:53:47.000Z</time>
      </trkpt>
      <trkpt lat="45.34504" lon="6.17541">
        <ele>2019.5999755859</ele>
        <time>2014-03-02T13:53:48.000Z</time>
      </trkpt>
      <trkpt lat="45.34504" lon="6.17541">
        <ele>2019.5999755859</ele>
        <time>2014-03-02T13:53:49.000Z</time>
      </trkpt>
      <trkpt lat="45.34503" lon="6.1754">
        <ele>2019.8000488281</ele>
        <time>2014-03-02T13:53:50.000Z</time>
      </trkpt>
      <trkpt lat="45.34503" lon="6.1754">
        <ele>2019.8000488281</ele>
        <time>2014-03-02T13:53:51.000Z</time>
      </trkpt>
      <trkpt lat="45.34503" lon="6.1754">
        <ele>2020</ele>
        <time>2014-03-02T13:53:52.000Z</time>
      </trkpt>
      <trkpt lat="45.34503" lon="6.1754">
        <ele>2020</ele>
        <time>2014-03-02T13:53:53.000Z</time>
      </trkpt>
      <trkpt lat="45.34503" lon="6.17539">
        <ele>2020</ele>
        <time>2014-03-02T13:53:54.000Z</time>
      </trkpt>
      <trkpt lat="45.34502" lon="6.17539">
        <ele>2020</ele>
        <time>2014-03-02T13:53:55.000Z</time>
      </trkpt>
      <trkpt lat="45.34502" lon="6.17538">
        <ele>2020.1999511719</ele>
        <time>2014-03-02T13:53:56.000Z</time>
      </trkpt>
      <trkpt lat="45.34501" lon="6.17538">
        <ele>2020.4000244141</ele>
        <time>2014-03-02T13:53:57.000Z</time>
      </trkpt>
      <trkpt lat="45.34501" lon="6.17537">
        <ele>2020.4000244141</ele>
        <time>2014-03-02T13:53:58.000Z</time>
      </trkpt>
      <trkpt lat="45.34501" lon="6.17536">
        <ele>2020.5999755859</ele>
        <time>2014-03-02T13:53:59.000Z</time>
      </trkpt>
      <trkpt lat="45.345" lon="6.17535">
        <ele>2020.8000488281</ele>
        <time>2014-03-02T13:54:00.000Z</time>
      </trkpt>
      <trkpt lat="45.345" lon="6.17535">
        <ele>2020.8000488281</ele>
        <time>2014-03-02T13:54:01.000Z</time>
      </trkpt>
      <trkpt lat="45.345" lon="6.17535">
        <ele>2020.8000488281</ele>
        <time>2014-03-02T13:54:02.000Z</time>
      </trkpt>
      <trkpt lat="45.345" lon="6.17534">
        <ele>2021</ele>
        <time>2014-03-02T13:54:03.000Z</time>
      </trkpt>
      <trkpt lat="45.34499" lon="6.17533">
        <ele>2021</ele>
        <time>2014-03-02T13:54:04.000Z</time>
      </trkpt>
      <trkpt lat="45.34499" lon="6.17533">
        <ele>2021.1999511719</ele>
        <time>2014-03-02T13:54:05.000Z</time>
      </trkpt>
      <trkpt lat="45.34498" lon="6.17532">
        <ele>2021.4000244141</ele>
        <time>2014-03-02T13:54:06.000Z</time>
      </trkpt>
      <trkpt lat="45.34498" lon="6.17531">
        <ele>2021.5999755859</ele>
        <time>2014-03-02T13:54:07.000Z</time>
      </trkpt>
      <trkpt lat="45.34497" lon="6.1753">
        <ele>2021.5999755859</ele>
        <time>2014-03-02T13:54:08.000Z</time>
      </trkpt>
      <trkpt lat="45.34497" lon="6.17529">
        <ele>2021.8000488281</ele>
        <time>2014-03-02T13:54:09.000Z</time>
      </trkpt>
      <trkpt lat="45.34496" lon="6.17527">
        <ele>2022</ele>
        <time>2014-03-02T13:54:10.000Z</time>
      </trkpt>
      <trkpt lat="45.34496" lon="6.17526">
        <ele>2022</ele>
        <time>2014-03-02T13:54:11.000Z</time>
      </trkpt>
      <trkpt lat="45.34496" lon="6.17525">
        <ele>2022.1999511719</ele>
        <time>2014-03-02T13:54:12.000Z</time>
      </trkpt>
      <trkpt lat="45.34496" lon="6.17524">
        <ele>2022.1999511719</ele>
        <time>2014-03-02T13:54:13.000Z</time>
      </trkpt>
      <trkpt lat="45.34496" lon="6.17524">
        <ele>2022.1999511719</ele>
        <time>2014-03-02T13:54:14.000Z</time>
      </trkpt>
      <trkpt lat="45.34496" lon="6.17524">
        <ele>2022.1999511719</ele>
        <time>2014-03-02T13:54:15.000Z</time>
      </trkpt>
      <trkpt lat="45.34496" lon="6.17524">
        <ele>2022.1999511719</ele>
        <time>2014-03-02T13:54:16.000Z</time>
      </trkpt>
      <trkpt lat="45.34496" lon="6.17524">
        <ele>2022.1999511719</ele>
        <time>2014-03-02T13:54:17.000Z</time>
      </trkpt>
      <trkpt lat="45.34496" lon="6.17524">
        <ele>2022.1999511719</ele>
        <time>2014-03-02T13:54:18.000Z</time>
      </trkpt>
      <trkpt lat="45.34496" lon="6.17524">
        <ele>2022.1999511719</ele>
        <time>2014-03-02T13:54:19.000Z</time>
      </trkpt>
      <trkpt lat="45.34496" lon="6.17524">
        <ele>2022.1999511719</ele>
        <time>2014-03-02T13:54:20.000Z</time>
      </trkpt>
      <trkpt lat="45.34496" lon="6.17524">
        <ele>2022.1999511719</ele>
        <time>2014-03-02T13:54:21.000Z</time>
      </trkpt>
      <trkpt lat="45.34496" lon="6.17524">
        <ele>2022.1999511719</ele>
        <time>2014-03-02T13:54:22.000Z</time>
      </trkpt>
      <trkpt lat="45.34496" lon="6.17524">
        <ele>2022.1999511719</ele>
        <time>2014-03-02T13:54:23.000Z</time>
      </trkpt>
      <trkpt lat="45.34496" lon="6.17524">
        <ele>2022.1999511719</ele>
        <time>2014-03-02T13:54:24.000Z</time>
      </trkpt>
      <trkpt lat="45.34496" lon="6.17524">
        <ele>2022.1999511719</ele>
        <time>2014-03-02T13:54:25.000Z</time>
      </trkpt>
      <trkpt lat="45.34496" lon="6.17524">
        <ele>2022.1999511719</ele>
        <time>2014-03-02T13:54:26.000Z</time>
      </trkpt>
      <trkpt lat="45.34496" lon="6.17524">
        <ele>2022.1999511719</ele>
        <time>2014-03-02T13:54:27.000Z</time>
      </trkpt>
      <trkpt lat="45.34496" lon="6.17524">
        <ele>2022.1999511719</ele>
        <time>2014-03-02T13:54:28.000Z</time>
      </trkpt>
      <trkpt lat="45.34496" lon="6.17524">
        <ele>2022.1999511719</ele>
        <time>2014-03-02T13:54:29.000Z</time>
      </trkpt>
      <trkpt lat="45.34496" lon="6.17524">
        <ele>2022.1999511719</ele>
        <time>2014-03-02T13:54:30.000Z</time>
      </trkpt>
      <trkpt lat="45.34496" lon="6.17524">
        <ele>2022.1999511719</ele>
        <time>2014-03-02T13:54:31.000Z</time>
      </trkpt>
      <trkpt lat="45.34496" lon="6.17524">
        <ele>2022.1999511719</ele>
        <time>2014-03-02T13:54:32.000Z</time>
      </trkpt>
      <trkpt lat="45.34496" lon="6.17524">
        <ele>2022.1999511719</ele>
        <time>2014-03-02T13:54:33.000Z</time>
      </trkpt>
      <trkpt lat="45.34496" lon="6.17524">
        <ele>2022.1999511719</ele>
        <time>2014-03-02T13:54:34.000Z</time>
      </trkpt>
      <trkpt lat="45.34496" lon="6.17524">
        <ele>2022.1999511719</ele>
        <time>2014-03-02T13:54:35.000Z</time>
      </trkpt>
      <trkpt lat="45.34496" lon="6.17524">
        <ele>2022.1999511719</ele>
        <time>2014-03-02T13:54:36.000Z</time>
      </trkpt>
      <trkpt lat="45.34496" lon="6.17524">
        <ele>2022.1999511719</ele>
        <time>2014-03-02T13:54:37.000Z</time>
      </trkpt>
      <trkpt lat="45.34496" lon="6.17524">
        <ele>2022.1999511719</ele>
        <time>2014-03-02T13:54:38.000Z</time>
      </trkpt>
      <trkpt lat="45.34496" lon="6.17524">
        <ele>2022.1999511719</ele>
        <time>2014-03-02T13:54:39.000Z</time>
      </trkpt>
      <trkpt lat="45.34496" lon="6.17524">
        <ele>2022.1999511719</ele>
        <time>2014-03-02T13:54:40.000Z</time>
      </trkpt>
      <trkpt lat="45.34495" lon="6.17526">
        <ele>2022.4000244141</ele>
        <time>2014-03-02T13:54:41.000Z</time>
      </trkpt>
      <trkpt lat="45.34494" lon="6.17527">
        <ele>2022.5999755859</ele>
        <time>2014-03-02T13:54:42.000Z</time>
      </trkpt>
      <trkpt lat="45.34494" lon="6.17529">
        <ele>2022.8000488281</ele>
        <time>2014-03-02T13:54:43.000Z</time>
      </trkpt>
      <trkpt lat="45.34494" lon="6.17529">
        <ele>2022.5999755859</ele>
        <time>2014-03-02T13:54:44.000Z</time>
      </trkpt>
      <trkpt lat="45.34493" lon="6.17532">
        <ele>2022.8000488281</ele>
        <time>2014-03-02T13:54:45.000Z</time>
      </trkpt>
      <trkpt lat="45.34494" lon="6.17532">
        <ele>2022.5999755859</ele>
        <time>2014-03-02T13:54:46.000Z</time>
      </trkpt>
      <trkpt lat="45.34493" lon="6.17534">
        <ele>2022.8000488281</ele>
        <time>2014-03-02T13:54:47.000Z</time>
      </trkpt>
      <trkpt lat="45.34494" lon="6.17534">
        <ele>2022.8000488281</ele>
        <time>2014-03-02T13:54:48.000Z</time>
      </trkpt>
      <trkpt lat="45.34493" lon="6.17534">
        <ele>2022.8000488281</ele>
        <time>2014-03-02T13:54:49.000Z</time>
      </trkpt>
      <trkpt lat="45.34493" lon="6.17534">
        <ele>2022.8000488281</ele>
        <time>2014-03-02T13:54:50.000Z</time>
      </trkpt>
      <trkpt lat="45.34493" lon="6.17535">
        <ele>2022.8000488281</ele>
        <time>2014-03-02T13:54:51.000Z</time>
      </trkpt>
      <trkpt lat="45.34493" lon="6.17535">
        <ele>2022.8000488281</ele>
        <time>2014-03-02T13:54:52.000Z</time>
      </trkpt>
      <trkpt lat="45.34493" lon="6.17535">
        <ele>2022.8000488281</ele>
        <time>2014-03-02T13:54:53.000Z</time>
      </trkpt>
      <trkpt lat="45.34493" lon="6.17535">
        <ele>2022.8000488281</ele>
        <time>2014-03-02T13:54:54.000Z</time>
      </trkpt>
      <trkpt lat="45.34493" lon="6.17535">
        <ele>2022.8000488281</ele>
        <time>2014-03-02T13:54:55.000Z</time>
      </trkpt>
      <trkpt lat="45.34493" lon="6.17535">
        <ele>2022.8000488281</ele>
        <time>2014-03-02T13:54:56.000Z</time>
      </trkpt>
      <trkpt lat="45.34493" lon="6.17535">
        <ele>2022.8000488281</ele>
        <time>2014-03-02T13:54:57.000Z</time>
      </trkpt>
      <trkpt lat="45.34493" lon="6.17535">
        <ele>2022.8000488281</ele>
        <time>2014-03-02T13:54:58.000Z</time>
      </trkpt>
      <trkpt lat="45.34493" lon="6.17535">
        <ele>2023</ele>
        <time>2014-03-02T13:54:59.000Z</time>
      </trkpt>
      <trkpt lat="45.34493" lon="6.17536">
        <ele>2023</ele>
        <time>2014-03-02T13:55:00.000Z</time>
      </trkpt>
      <trkpt lat="45.34493" lon="6.17536">
        <ele>2023</ele>
        <time>2014-03-02T13:55:01.000Z</time>
      </trkpt>
      <trkpt lat="45.34493" lon="6.17536">
        <ele>2023</ele>
        <time>2014-03-02T13:55:02.000Z</time>
      </trkpt>
      <trkpt lat="45.34493" lon="6.17537">
        <ele>2023</ele>
        <time>2014-03-02T13:55:03.000Z</time>
      </trkpt>
      <trkpt lat="45.34493" lon="6.17537">
        <ele>2023</ele>
        <time>2014-03-02T13:55:04.000Z</time>
      </trkpt>
      <trkpt lat="45.34493" lon="6.17538">
        <ele>2023.1999511719</ele>
        <time>2014-03-02T13:55:05.000Z</time>
      </trkpt>
      <trkpt lat="45.34493" lon="6.17538">
        <ele>2023.1999511719</ele>
        <time>2014-03-02T13:55:06.000Z</time>
      </trkpt>
      <trkpt lat="45.34493" lon="6.17539">
        <ele>2023</ele>
        <time>2014-03-02T13:55:07.000Z</time>
      </trkpt>
      <trkpt lat="45.34493" lon="6.17539">
        <ele>2023</ele>
        <time>2014-03-02T13:55:08.000Z</time>
      </trkpt>
      <trkpt lat="45.34493" lon="6.17539">
        <ele>2023</ele>
        <time>2014-03-02T13:55:09.000Z</time>
      </trkpt>
      <trkpt lat="45.34492" lon="6.1754">
        <ele>2023.1999511719</ele>
        <time>2014-03-02T13:55:10.000Z</time>
      </trkpt>
      <trkpt lat="45.34492" lon="6.17541">
        <ele>2023.1999511719</ele>
        <time>2014-03-02T13:55:11.000Z</time>
      </trkpt>
      <trkpt lat="45.34492" lon="6.17541">
        <ele>2023.1999511719</ele>
        <time>2014-03-02T13:55:12.000Z</time>
      </trkpt>
      <trkpt lat="45.34492" lon="6.17542">
        <ele>2023.1999511719</ele>
        <time>2014-03-02T13:55:13.000Z</time>
      </trkpt>
      <trkpt lat="45.34492" lon="6.17543">
        <ele>2023.4000244141</ele>
        <time>2014-03-02T13:55:14.000Z</time>
      </trkpt>
      <trkpt lat="45.34492" lon="6.17543">
        <ele>2023.4000244141</ele>
        <time>2014-03-02T13:55:15.000Z</time>
      </trkpt>
      <trkpt lat="45.34492" lon="6.17543">
        <ele>2023.4000244141</ele>
        <time>2014-03-02T13:55:16.000Z</time>
      </trkpt>
      <trkpt lat="45.34492" lon="6.17543">
        <ele>2023.4000244141</ele>
        <time>2014-03-02T13:55:17.000Z</time>
      </trkpt>
      <trkpt lat="45.34492" lon="6.17543">
        <ele>2023.4000244141</ele>
        <time>2014-03-02T13:55:18.000Z</time>
      </trkpt>
      <trkpt lat="45.34492" lon="6.17543">
        <ele>2023.4000244141</ele>
        <time>2014-03-02T13:55:19.000Z</time>
      </trkpt>
      <trkpt lat="45.34492" lon="6.17543">
        <ele>2023.4000244141</ele>
        <time>2014-03-02T13:55:20.000Z</time>
      </trkpt>
      <trkpt lat="45.34492" lon="6.17543">
        <ele>2023.4000244141</ele>
        <time>2014-03-02T13:55:21.000Z</time>
      </trkpt>
      <trkpt lat="45.34492" lon="6.17543">
        <ele>2023.4000244141</ele>
        <time>2014-03-02T13:55:22.000Z</time>
      </trkpt>
      <trkpt lat="45.34492" lon="6.17543">
        <ele>2023.4000244141</ele>
        <time>2014-03-02T13:55:23.000Z</time>
      </trkpt>
      <trkpt lat="45.34492" lon="6.17543">
        <ele>2023.4000244141</ele>
        <time>2014-03-02T13:55:24.000Z</time>
      </trkpt>
      <trkpt lat="45.34492" lon="6.17543">
        <ele>2023.4000244141</ele>
        <time>2014-03-02T13:55:25.000Z</time>
      </trkpt>
      <trkpt lat="45.34491" lon="6.17544">
        <ele>2023.4000244141</ele>
        <time>2014-03-02T13:55:26.000Z</time>
      </trkpt>
      <trkpt lat="45.34492" lon="6.17544">
        <ele>2023.4000244141</ele>
        <time>2014-03-02T13:55:27.000Z</time>
      </trkpt>
      <trkpt lat="45.34491" lon="6.17545">
        <ele>2023.5999755859</ele>
        <time>2014-03-02T13:55:28.000Z</time>
      </trkpt>
      <trkpt lat="45.34491" lon="6.17546">
        <ele>2023.5999755859</ele>
        <time>2014-03-02T13:55:29.000Z</time>
      </trkpt>
      <trkpt lat="45.34491" lon="6.17546">
        <ele>2023.5999755859</ele>
        <time>2014-03-02T13:55:30.000Z</time>
      </trkpt>
      <trkpt lat="45.3449" lon="6.17548">
        <ele>2023.8000488281</ele>
        <time>2014-03-02T13:55:32.000Z</time>
      </trkpt>
      <trkpt lat="45.3449" lon="6.17548">
        <ele>2024</ele>
        <time>2014-03-02T13:55:33.000Z</time>
      </trkpt>
      <trkpt lat="45.34489" lon="6.17551">
        <ele>2024.4000244141</ele>
        <time>2014-03-02T13:55:34.000Z</time>
      </trkpt>
      <trkpt lat="45.34489" lon="6.17551">
        <ele>2024.4000244141</ele>
        <time>2014-03-02T13:55:35.000Z</time>
      </trkpt>
      <trkpt lat="45.34488" lon="6.17552">
        <ele>2024.5999755859</ele>
        <time>2014-03-02T13:55:36.000Z</time>
      </trkpt>
      <trkpt lat="45.34488" lon="6.17552">
        <ele>2024.5999755859</ele>
        <time>2014-03-02T13:55:37.000Z</time>
      </trkpt>
      <trkpt lat="45.34487" lon="6.17553">
        <ele>2025</ele>
        <time>2014-03-02T13:55:38.000Z</time>
      </trkpt>
      <trkpt lat="45.34487" lon="6.17553">
        <ele>2025</ele>
        <time>2014-03-02T13:55:39.000Z</time>
      </trkpt>
      <trkpt lat="45.34486" lon="6.17554">
        <ele>2025.1999511719</ele>
        <time>2014-03-02T13:55:40.000Z</time>
      </trkpt>
      <trkpt lat="45.34486" lon="6.17555">
        <ele>2025.4000244141</ele>
        <time>2014-03-02T13:55:41.000Z</time>
      </trkpt>
      <trkpt lat="45.34485" lon="6.17556">
        <ele>2025.5999755859</ele>
        <time>2014-03-02T13:55:42.000Z</time>
      </trkpt>
      <trkpt lat="45.34485" lon="6.17557">
        <ele>2025.5999755859</ele>
        <time>2014-03-02T13:55:43.000Z</time>
      </trkpt>
      <trkpt lat="45.34484" lon="6.17557">
        <ele>2025.8000488281</ele>
        <time>2014-03-02T13:55:44.000Z</time>
      </trkpt>
      <trkpt lat="45.34484" lon="6.17557">
        <ele>2025.8000488281</ele>
        <time>2014-03-02T13:55:45.000Z</time>
      </trkpt>
      <trkpt lat="45.34484" lon="6.17557">
        <ele>2025.8000488281</ele>
        <time>2014-03-02T13:55:46.000Z</time>
      </trkpt>
      <trkpt lat="45.34484" lon="6.17557">
        <ele>2025.8000488281</ele>
        <time>2014-03-02T13:55:47.000Z</time>
      </trkpt>
      <trkpt lat="45.34484" lon="6.17557">
        <ele>2025.8000488281</ele>
        <time>2014-03-02T13:55:48.000Z</time>
      </trkpt>
      <trkpt lat="45.34484" lon="6.17557">
        <ele>2025.8000488281</ele>
        <time>2014-03-02T13:55:49.000Z</time>
      </trkpt>
      <trkpt lat="45.34484" lon="6.17557">
        <ele>2025.8000488281</ele>
        <time>2014-03-02T13:55:50.000Z</time>
      </trkpt>
      <trkpt lat="45.34484" lon="6.17557">
        <ele>2025.8000488281</ele>
        <time>2014-03-02T13:55:51.000Z</time>
      </trkpt>
      <trkpt lat="45.34484" lon="6.17557">
        <ele>2025.8000488281</ele>
        <time>2014-03-02T13:55:52.000Z</time>
      </trkpt>
      <trkpt lat="45.34484" lon="6.17557">
        <ele>2025.8000488281</ele>
        <time>2014-03-02T13:55:53.000Z</time>
      </trkpt>
      <trkpt lat="45.34484" lon="6.17557">
        <ele>2025.8000488281</ele>
        <time>2014-03-02T13:55:54.000Z</time>
      </trkpt>
      <trkpt lat="45.34484" lon="6.17557">
        <ele>2025.8000488281</ele>
        <time>2014-03-02T13:55:59.000Z</time>
      </trkpt>
      <trkpt lat="45.34484" lon="6.17558">
        <ele>2025.8000488281</ele>
        <time>2014-03-02T13:56:00.000Z</time>
      </trkpt>
      <trkpt lat="45.34483" lon="6.17559">
        <ele>2026</ele>
        <time>2014-03-02T13:56:01.000Z</time>
      </trkpt>
      <trkpt lat="45.34484" lon="6.17559">
        <ele>2026</ele>
        <time>2014-03-02T13:56:02.000Z</time>
      </trkpt>
      <trkpt lat="45.34484" lon="6.17559">
        <ele>2026</ele>
        <time>2014-03-02T13:56:03.000Z</time>
      </trkpt>
      <trkpt lat="45.34483" lon="6.17559">
        <ele>2026.1999511719</ele>
        <time>2014-03-02T13:56:04.000Z</time>
      </trkpt>
      <trkpt lat="45.34483" lon="6.17559">
        <ele>2026.1999511719</ele>
        <time>2014-03-02T13:56:05.000Z</time>
      </trkpt>
      <trkpt lat="45.34482" lon="6.17559">
        <ele>2026.4000244141</ele>
        <time>2014-03-02T13:56:06.000Z</time>
      </trkpt>
      <trkpt lat="45.34482" lon="6.17559">
        <ele>2026.4000244141</ele>
        <time>2014-03-02T13:56:07.000Z</time>
      </trkpt>
      <trkpt lat="45.34482" lon="6.1756">
        <ele>2026.5999755859</ele>
        <time>2014-03-02T13:56:08.000Z</time>
      </trkpt>
      <trkpt lat="45.34482" lon="6.1756">
        <ele>2026.5999755859</ele>
        <time>2014-03-02T13:56:09.000Z</time>
      </trkpt>
      <trkpt lat="45.34481" lon="6.17561">
        <ele>2026.5999755859</ele>
        <time>2014-03-02T13:56:10.000Z</time>
      </trkpt>
      <trkpt lat="45.34481" lon="6.17561">
        <ele>2026.8000488281</ele>
        <time>2014-03-02T13:56:11.000Z</time>
      </trkpt>
      <trkpt lat="45.34481" lon="6.17561">
        <ele>2026.8000488281</ele>
        <time>2014-03-02T13:56:12.000Z</time>
      </trkpt>
      <trkpt lat="45.34481" lon="6.17561">
        <ele>2026.8000488281</ele>
        <time>2014-03-02T13:56:13.000Z</time>
      </trkpt>
      <trkpt lat="45.3448" lon="6.17561">
        <ele>2027</ele>
        <time>2014-03-02T13:56:14.000Z</time>
      </trkpt>
      <trkpt lat="45.3448" lon="6.17561">
        <ele>2027</ele>
        <time>2014-03-02T13:56:15.000Z</time>
      </trkpt>
      <trkpt lat="45.34479" lon="6.17561">
        <ele>2027.1999511719</ele>
        <time>2014-03-02T13:56:16.000Z</time>
      </trkpt>
      <trkpt lat="45.34479" lon="6.17562">
        <ele>2027.5999755859</ele>
        <time>2014-03-02T13:56:17.000Z</time>
      </trkpt>
      <trkpt lat="45.34479" lon="6.17562">
        <ele>2027.5999755859</ele>
        <time>2014-03-02T13:56:18.000Z</time>
      </trkpt>
      <trkpt lat="45.34477" lon="6.17562">
        <ele>2028</ele>
        <time>2014-03-02T13:56:19.000Z</time>
      </trkpt>
      <trkpt lat="45.34476" lon="6.17562">
        <ele>2028.1999511719</ele>
        <time>2014-03-02T13:56:20.000Z</time>
      </trkpt>
      <trkpt lat="45.34476" lon="6.17562">
        <ele>2028.1999511719</ele>
        <time>2014-03-02T13:56:21.000Z</time>
      </trkpt>
      <trkpt lat="45.34476" lon="6.17562">
        <ele>2028.5999755859</ele>
        <time>2014-03-02T13:56:22.000Z</time>
      </trkpt>
      <trkpt lat="45.34476" lon="6.17562">
        <ele>2028.5999755859</ele>
        <time>2014-03-02T13:56:23.000Z</time>
      </trkpt>
      <trkpt lat="45.34476" lon="6.17562">
        <ele>2028.5999755859</ele>
        <time>2014-03-02T13:56:24.000Z</time>
      </trkpt>
      <trkpt lat="45.34476" lon="6.17562">
        <ele>2028.5999755859</ele>
        <time>2014-03-02T13:56:25.000Z</time>
      </trkpt>
      <trkpt lat="45.34476" lon="6.17562">
        <ele>2028.5999755859</ele>
        <time>2014-03-02T13:56:26.000Z</time>
      </trkpt>
      <trkpt lat="45.34476" lon="6.17562">
        <ele>2028.5999755859</ele>
        <time>2014-03-02T13:56:27.000Z</time>
      </trkpt>
      <trkpt lat="45.34476" lon="6.17562">
        <ele>2028.5999755859</ele>
        <time>2014-03-02T13:56:28.000Z</time>
      </trkpt>
      <trkpt lat="45.34476" lon="6.17562">
        <ele>2028.5999755859</ele>
        <time>2014-03-02T13:56:29.000Z</time>
      </trkpt>
      <trkpt lat="45.34476" lon="6.17562">
        <ele>2028.5999755859</ele>
        <time>2014-03-02T13:56:30.000Z</time>
      </trkpt>
      <trkpt lat="45.34476" lon="6.17562">
        <ele>2028.5999755859</ele>
        <time>2014-03-02T13:56:33.000Z</time>
      </trkpt>
      <trkpt lat="45.34476" lon="6.17562">
        <ele>2028.5999755859</ele>
        <time>2014-03-02T13:56:34.000Z</time>
      </trkpt>
      <trkpt lat="45.34476" lon="6.17562">
        <ele>2028.5999755859</ele>
        <time>2014-03-02T13:56:35.000Z</time>
      </trkpt>
      <trkpt lat="45.34475" lon="6.17562">
        <ele>2028.8000488281</ele>
        <time>2014-03-02T13:56:36.000Z</time>
      </trkpt>
      <trkpt lat="45.34475" lon="6.17562">
        <ele>2028.8000488281</ele>
        <time>2014-03-02T13:56:37.000Z</time>
      </trkpt>
      <trkpt lat="45.34475" lon="6.17562">
        <ele>2028.8000488281</ele>
        <time>2014-03-02T13:56:38.000Z</time>
      </trkpt>
      <trkpt lat="45.34475" lon="6.17562">
        <ele>2028.8000488281</ele>
        <time>2014-03-02T13:56:39.000Z</time>
      </trkpt>
      <trkpt lat="45.34475" lon="6.17562">
        <ele>2029</ele>
        <time>2014-03-02T13:56:40.000Z</time>
      </trkpt>
      <trkpt lat="45.34474" lon="6.17562">
        <ele>2029</ele>
        <time>2014-03-02T13:56:41.000Z</time>
      </trkpt>
      <trkpt lat="45.34474" lon="6.17562">
        <ele>2029</ele>
        <time>2014-03-02T13:56:42.000Z</time>
      </trkpt>
      <trkpt lat="45.34474" lon="6.17562">
        <ele>2029.1999511719</ele>
        <time>2014-03-02T13:56:43.000Z</time>
      </trkpt>
      <trkpt lat="45.34473" lon="6.17562">
        <ele>2029.4000244141</ele>
        <time>2014-03-02T13:56:44.000Z</time>
      </trkpt>
      <trkpt lat="45.34473" lon="6.17562">
        <ele>2029.4000244141</ele>
        <time>2014-03-02T13:56:45.000Z</time>
      </trkpt>
      <trkpt lat="45.34473" lon="6.17562">
        <ele>2029.5999755859</ele>
        <time>2014-03-02T13:56:46.000Z</time>
      </trkpt>
      <trkpt lat="45.34472" lon="6.17562">
        <ele>2029.5999755859</ele>
        <time>2014-03-02T13:56:47.000Z</time>
      </trkpt>
      <trkpt lat="45.34471" lon="6.17562">
        <ele>2029.8000488281</ele>
        <time>2014-03-02T13:56:48.000Z</time>
      </trkpt>
      <trkpt lat="45.34471" lon="6.17561">
        <ele>2029.8000488281</ele>
        <time>2014-03-02T13:56:49.000Z</time>
      </trkpt>
      <trkpt lat="45.34471" lon="6.17561">
        <ele>2030</ele>
        <time>2014-03-02T13:56:50.000Z</time>
      </trkpt>
      <trkpt lat="45.3447" lon="6.17562">
        <ele>2030.1999511719</ele>
        <time>2014-03-02T13:56:51.000Z</time>
      </trkpt>
      <trkpt lat="45.3447" lon="6.17562">
        <ele>2030.1999511719</ele>
        <time>2014-03-02T13:56:52.000Z</time>
      </trkpt>
      <trkpt lat="45.3447" lon="6.17562">
        <ele>2030.1999511719</ele>
        <time>2014-03-02T13:56:53.000Z</time>
      </trkpt>
      <trkpt lat="45.3447" lon="6.17562">
        <ele>2030.1999511719</ele>
        <time>2014-03-02T13:56:54.000Z</time>
      </trkpt>
      <trkpt lat="45.3447" lon="6.17562">
        <ele>2030.1999511719</ele>
        <time>2014-03-02T13:56:55.000Z</time>
      </trkpt>
      <trkpt lat="45.3447" lon="6.17562">
        <ele>2030.1999511719</ele>
        <time>2014-03-02T13:56:56.000Z</time>
      </trkpt>
      <trkpt lat="45.34469" lon="6.17561">
        <ele>2030.4000244141</ele>
        <time>2014-03-02T13:56:57.000Z</time>
      </trkpt>
      <trkpt lat="45.34468" lon="6.1756">
        <ele>2030.8000488281</ele>
        <time>2014-03-02T13:56:58.000Z</time>
      </trkpt>
      <trkpt lat="45.34467" lon="6.1756">
        <ele>2031</ele>
        <time>2014-03-02T13:56:59.000Z</time>
      </trkpt>
      <trkpt lat="45.34466" lon="6.17559">
        <ele>2031.4000244141</ele>
        <time>2014-03-02T13:57:00.000Z</time>
      </trkpt>
      <trkpt lat="45.34465" lon="6.17559">
        <ele>2031.5999755859</ele>
        <time>2014-03-02T13:57:01.000Z</time>
      </trkpt>
      <trkpt lat="45.34465" lon="6.17558">
        <ele>2031.8000488281</ele>
        <time>2014-03-02T13:57:02.000Z</time>
      </trkpt>
      <trkpt lat="45.34464" lon="6.17558">
        <ele>2032</ele>
        <time>2014-03-02T13:57:03.000Z</time>
      </trkpt>
      <trkpt lat="45.34464" lon="6.17558">
        <ele>2032.4000244141</ele>
        <time>2014-03-02T13:57:04.000Z</time>
      </trkpt>
      <trkpt lat="45.34463" lon="6.17558">
        <ele>2032.4000244141</ele>
        <time>2014-03-02T13:57:05.000Z</time>
      </trkpt>
      <trkpt lat="45.34463" lon="6.17558">
        <ele>2032.4000244141</ele>
        <time>2014-03-02T13:57:06.000Z</time>
      </trkpt>
      <trkpt lat="45.34463" lon="6.17558">
        <ele>2032.4000244141</ele>
        <time>2014-03-02T13:57:07.000Z</time>
      </trkpt>
      <trkpt lat="45.34463" lon="6.17558">
        <ele>2032.4000244141</ele>
        <time>2014-03-02T13:57:08.000Z</time>
      </trkpt>
      <trkpt lat="45.34463" lon="6.17558">
        <ele>2032.8000488281</ele>
        <time>2014-03-02T13:57:09.000Z</time>
      </trkpt>
      <trkpt lat="45.34462" lon="6.17557">
        <ele>2033</ele>
        <time>2014-03-02T13:57:10.000Z</time>
      </trkpt>
      <trkpt lat="45.34462" lon="6.17557">
        <ele>2033</ele>
        <time>2014-03-02T13:57:11.000Z</time>
      </trkpt>
      <trkpt lat="45.34462" lon="6.17557">
        <ele>2033</ele>
        <time>2014-03-02T13:57:12.000Z</time>
      </trkpt>
      <trkpt lat="45.34462" lon="6.17557">
        <ele>2033</ele>
        <time>2014-03-02T13:57:13.000Z</time>
      </trkpt>
      <trkpt lat="45.34462" lon="6.17557">
        <ele>2033.4000244141</ele>
        <time>2014-03-02T13:57:14.000Z</time>
      </trkpt>
      <trkpt lat="45.34462" lon="6.17557">
        <ele>2033.4000244141</ele>
        <time>2014-03-02T13:57:15.000Z</time>
      </trkpt>
      <trkpt lat="45.34461" lon="6.17557">
        <ele>2033.8000488281</ele>
        <time>2014-03-02T13:57:16.000Z</time>
      </trkpt>
      <trkpt lat="45.3446" lon="6.17557">
        <ele>2034.1999511719</ele>
        <time>2014-03-02T13:57:17.000Z</time>
      </trkpt>
      <trkpt lat="45.3446" lon="6.17557">
        <ele>2034.1999511719</ele>
        <time>2014-03-02T13:57:18.000Z</time>
      </trkpt>
      <trkpt lat="45.3446" lon="6.17558">
        <ele>2034.4000244141</ele>
        <time>2014-03-02T13:57:19.000Z</time>
      </trkpt>
      <trkpt lat="45.3446" lon="6.17558">
        <ele>2034.4000244141</ele>
        <time>2014-03-02T13:57:20.000Z</time>
      </trkpt>
      <trkpt lat="45.3446" lon="6.17558">
        <ele>2034.4000244141</ele>
        <time>2014-03-02T13:57:21.000Z</time>
      </trkpt>
      <trkpt lat="45.34459" lon="6.17558">
        <ele>2034.5999755859</ele>
        <time>2014-03-02T13:57:22.000Z</time>
      </trkpt>
      <trkpt lat="45.34459" lon="6.17558">
        <ele>2034.5999755859</ele>
        <time>2014-03-02T13:57:23.000Z</time>
      </trkpt>
      <trkpt lat="45.34458" lon="6.17558">
        <ele>2035</ele>
        <time>2014-03-02T13:57:24.000Z</time>
      </trkpt>
      <trkpt lat="45.34458" lon="6.17557">
        <ele>2035.1999511719</ele>
        <time>2014-03-02T13:57:25.000Z</time>
      </trkpt>
      <trkpt lat="45.34458" lon="6.17557">
        <ele>2035.4000244141</ele>
        <time>2014-03-02T13:57:26.000Z</time>
      </trkpt>
      <trkpt lat="45.34457" lon="6.17556">
        <ele>2035.8000488281</ele>
        <time>2014-03-02T13:57:27.000Z</time>
      </trkpt>
      <trkpt lat="45.34456" lon="6.17556">
        <ele>2036</ele>
        <time>2014-03-02T13:57:28.000Z</time>
      </trkpt>
      <trkpt lat="45.34456" lon="6.17556">
        <ele>2036</ele>
        <time>2014-03-02T13:57:29.000Z</time>
      </trkpt>
      <trkpt lat="45.34456" lon="6.17555">
        <ele>2036.1999511719</ele>
        <time>2014-03-02T13:57:30.000Z</time>
      </trkpt>
      <trkpt lat="45.34456" lon="6.17555">
        <ele>2036.1999511719</ele>
        <time>2014-03-02T13:57:31.000Z</time>
      </trkpt>
      <trkpt lat="45.34456" lon="6.17555">
        <ele>2036.4000244141</ele>
        <time>2014-03-02T13:57:32.000Z</time>
      </trkpt>
      <trkpt lat="45.34455" lon="6.17555">
        <ele>2036.5999755859</ele>
        <time>2014-03-02T13:57:33.000Z</time>
      </trkpt>
      <trkpt lat="45.34455" lon="6.17555">
        <ele>2036.5999755859</ele>
        <time>2014-03-02T13:57:34.000Z</time>
      </trkpt>
      <trkpt lat="45.34455" lon="6.17555">
        <ele>2036.8000488281</ele>
        <time>2014-03-02T13:57:35.000Z</time>
      </trkpt>
      <trkpt lat="45.34455" lon="6.17555">
        <ele>2036.8000488281</ele>
        <time>2014-03-02T13:57:36.000Z</time>
      </trkpt>
      <trkpt lat="45.34455" lon="6.17555">
        <ele>2036.8000488281</ele>
        <time>2014-03-02T13:57:37.000Z</time>
      </trkpt>
      <trkpt lat="45.34455" lon="6.17555">
        <ele>2036.8000488281</ele>
        <time>2014-03-02T13:57:38.000Z</time>
      </trkpt>
      <trkpt lat="45.34455" lon="6.17555">
        <ele>2036.8000488281</ele>
        <time>2014-03-02T13:57:39.000Z</time>
      </trkpt>
      <trkpt lat="45.34455" lon="6.17555">
        <ele>2036.8000488281</ele>
        <time>2014-03-02T13:57:40.000Z</time>
      </trkpt>
      <trkpt lat="45.34455" lon="6.17555">
        <ele>2036.8000488281</ele>
        <time>2014-03-02T13:57:41.000Z</time>
      </trkpt>
      <trkpt lat="45.34455" lon="6.17555">
        <ele>2036.8000488281</ele>
        <time>2014-03-02T13:57:42.000Z</time>
      </trkpt>
      <trkpt lat="45.34455" lon="6.17555">
        <ele>2036.8000488281</ele>
        <time>2014-03-02T13:57:43.000Z</time>
      </trkpt>
      <trkpt lat="45.34455" lon="6.17555">
        <ele>2036.8000488281</ele>
        <time>2014-03-02T13:57:44.000Z</time>
      </trkpt>
      <trkpt lat="45.34454" lon="6.17555">
        <ele>2037</ele>
        <time>2014-03-02T13:57:45.000Z</time>
      </trkpt>
      <trkpt lat="45.34454" lon="6.17555">
        <ele>2037</ele>
        <time>2014-03-02T13:57:46.000Z</time>
      </trkpt>
      <trkpt lat="45.34454" lon="6.17555">
        <ele>2037</ele>
        <time>2014-03-02T13:57:47.000Z</time>
      </trkpt>
      <trkpt lat="45.34454" lon="6.17555">
        <ele>2037</ele>
        <time>2014-03-02T13:57:48.000Z</time>
      </trkpt>
      <trkpt lat="45.34454" lon="6.17555">
        <ele>2037</ele>
        <time>2014-03-02T13:57:49.000Z</time>
      </trkpt>
      <trkpt lat="45.34454" lon="6.17555">
        <ele>2037</ele>
        <time>2014-03-02T13:57:50.000Z</time>
      </trkpt>
      <trkpt lat="45.34454" lon="6.17555">
        <ele>2037</ele>
        <time>2014-03-02T13:57:51.000Z</time>
      </trkpt>
      <trkpt lat="45.34454" lon="6.17555">
        <ele>2037</ele>
        <time>2014-03-02T13:57:52.000Z</time>
      </trkpt>
      <trkpt lat="45.34454" lon="6.17556">
        <ele>2037.1999511719</ele>
        <time>2014-03-02T13:57:53.000Z</time>
      </trkpt>
      <trkpt lat="45.34454" lon="6.17556">
        <ele>2037.1999511719</ele>
        <time>2014-03-02T13:57:54.000Z</time>
      </trkpt>
      <trkpt lat="45.34453" lon="6.17557">
        <ele>2037.4000244141</ele>
        <time>2014-03-02T13:57:55.000Z</time>
      </trkpt>
      <trkpt lat="45.34453" lon="6.17558">
        <ele>2037.1999511719</ele>
        <time>2014-03-02T13:57:56.000Z</time>
      </trkpt>
      <trkpt lat="45.34453" lon="6.17558">
        <ele>2037.1999511719</ele>
        <time>2014-03-02T13:57:57.000Z</time>
      </trkpt>
      <trkpt lat="45.34453" lon="6.17558">
        <ele>2037.1999511719</ele>
        <time>2014-03-02T13:57:58.000Z</time>
      </trkpt>
      <trkpt lat="45.34453" lon="6.17558">
        <ele>2037.1999511719</ele>
        <time>2014-03-02T13:57:59.000Z</time>
      </trkpt>
      <trkpt lat="45.34453" lon="6.17558">
        <ele>2037.1999511719</ele>
        <time>2014-03-02T13:58:00.000Z</time>
      </trkpt>
      <trkpt lat="45.34453" lon="6.17558">
        <ele>2037.1999511719</ele>
        <time>2014-03-02T13:58:01.000Z</time>
      </trkpt>
      <trkpt lat="45.34452" lon="6.17559">
        <ele>2037.5999755859</ele>
        <time>2014-03-02T13:58:02.000Z</time>
      </trkpt>
      <trkpt lat="45.34452" lon="6.17559">
        <ele>2037.8000488281</ele>
        <time>2014-03-02T13:58:03.000Z</time>
      </trkpt>
      <trkpt lat="45.34452" lon="6.17559">
        <ele>2037.8000488281</ele>
        <time>2014-03-02T13:58:04.000Z</time>
      </trkpt>
      <trkpt lat="45.34451" lon="6.17559">
        <ele>2038</ele>
        <time>2014-03-02T13:58:05.000Z</time>
      </trkpt>
      <trkpt lat="45.34451" lon="6.1756">
        <ele>2038.1999511719</ele>
        <time>2014-03-02T13:58:06.000Z</time>
      </trkpt>
      <trkpt lat="45.3445" lon="6.1756">
        <ele>2038.4000244141</ele>
        <time>2014-03-02T13:58:07.000Z</time>
      </trkpt>
      <trkpt lat="45.3445" lon="6.17561">
        <ele>2038.5999755859</ele>
        <time>2014-03-02T13:58:08.000Z</time>
      </trkpt>
      <trkpt lat="45.34449" lon="6.17562">
        <ele>2039</ele>
        <time>2014-03-02T13:58:09.000Z</time>
      </trkpt>
      <trkpt lat="45.34448" lon="6.17562">
        <ele>2039.4000244141</ele>
        <time>2014-03-02T13:58:10.000Z</time>
      </trkpt>
      <trkpt lat="45.34448" lon="6.17562">
        <ele>2039.4000244141</ele>
        <time>2014-03-02T13:58:11.000Z</time>
      </trkpt>
      <trkpt lat="45.34448" lon="6.17562">
        <ele>2039.8000488281</ele>
        <time>2014-03-02T13:58:12.000Z</time>
      </trkpt>
      <trkpt lat="45.34448" lon="6.17562">
        <ele>2039.8000488281</ele>
        <time>2014-03-02T13:58:13.000Z</time>
      </trkpt>
      <trkpt lat="45.34448" lon="6.17562">
        <ele>2039.8000488281</ele>
        <time>2014-03-02T13:58:14.000Z</time>
      </trkpt>
      <trkpt lat="45.34448" lon="6.17562">
        <ele>2039.8000488281</ele>
        <time>2014-03-02T13:58:15.000Z</time>
      </trkpt>
      <trkpt lat="45.34448" lon="6.17562">
        <ele>2039.8000488281</ele>
        <time>2014-03-02T13:58:16.000Z</time>
      </trkpt>
      <trkpt lat="45.34448" lon="6.17562">
        <ele>2039.8000488281</ele>
        <time>2014-03-02T13:58:17.000Z</time>
      </trkpt>
      <trkpt lat="45.34448" lon="6.17562">
        <ele>2039.8000488281</ele>
        <time>2014-03-02T13:58:18.000Z</time>
      </trkpt>
      <trkpt lat="45.34447" lon="6.17563">
        <ele>2040.1999511719</ele>
        <time>2014-03-02T13:58:19.000Z</time>
      </trkpt>
      <trkpt lat="45.34447" lon="6.17563">
        <ele>2040.5999755859</ele>
        <time>2014-03-02T13:58:20.000Z</time>
      </trkpt>
      <trkpt lat="45.34447" lon="6.17563">
        <ele>2040.5999755859</ele>
        <time>2014-03-02T13:58:21.000Z</time>
      </trkpt>
      <trkpt lat="45.34446" lon="6.17564">
        <ele>2041</ele>
        <time>2014-03-02T13:58:22.000Z</time>
      </trkpt>
      <trkpt lat="45.34446" lon="6.17564">
        <ele>2041</ele>
        <time>2014-03-02T13:58:23.000Z</time>
      </trkpt>
      <trkpt lat="45.34446" lon="6.17565">
        <ele>2041.4000244141</ele>
        <time>2014-03-02T13:58:24.000Z</time>
      </trkpt>
      <trkpt lat="45.34446" lon="6.17565">
        <ele>2041.4000244141</ele>
        <time>2014-03-02T13:58:25.000Z</time>
      </trkpt>
      <trkpt lat="45.34445" lon="6.17566">
        <ele>2041.8000488281</ele>
        <time>2014-03-02T13:58:26.000Z</time>
      </trkpt>
      <trkpt lat="45.34445" lon="6.17566">
        <ele>2041.8000488281</ele>
        <time>2014-03-02T13:58:27.000Z</time>
      </trkpt>
      <trkpt lat="45.34445" lon="6.17567">
        <ele>2042.4000244141</ele>
        <time>2014-03-02T13:58:28.000Z</time>
      </trkpt>
      <trkpt lat="45.34445" lon="6.17567">
        <ele>2042.4000244141</ele>
        <time>2014-03-02T13:58:29.000Z</time>
      </trkpt>
      <trkpt lat="45.34445" lon="6.17567">
        <ele>2042.4000244141</ele>
        <time>2014-03-02T13:58:30.000Z</time>
      </trkpt>
      <trkpt lat="45.34445" lon="6.17569">
        <ele>2042.5999755859</ele>
        <time>2014-03-02T13:58:31.000Z</time>
      </trkpt>
      <trkpt lat="45.34445" lon="6.17569">
        <ele>2042.5999755859</ele>
        <time>2014-03-02T13:58:32.000Z</time>
      </trkpt>
      <trkpt lat="45.34445" lon="6.17569">
        <ele>2043</ele>
        <time>2014-03-02T13:58:33.000Z</time>
      </trkpt>
      <trkpt lat="45.34444" lon="6.1757">
        <ele>2043.4000244141</ele>
        <time>2014-03-02T13:58:34.000Z</time>
      </trkpt>
      <trkpt lat="45.34444" lon="6.1757">
        <ele>2043.4000244141</ele>
        <time>2014-03-02T13:58:35.000Z</time>
      </trkpt>
      <trkpt lat="45.34444" lon="6.17571">
        <ele>2043.8000488281</ele>
        <time>2014-03-02T13:58:36.000Z</time>
      </trkpt>
      <trkpt lat="45.34444" lon="6.17571">
        <ele>2043.8000488281</ele>
        <time>2014-03-02T13:58:37.000Z</time>
      </trkpt>
      <trkpt lat="45.34444" lon="6.17571">
        <ele>2043.8000488281</ele>
        <time>2014-03-02T13:58:38.000Z</time>
      </trkpt>
      <trkpt lat="45.34444" lon="6.17572">
        <ele>2044.1999511719</ele>
        <time>2014-03-02T13:58:39.000Z</time>
      </trkpt>
      <trkpt lat="45.34444" lon="6.17572">
        <ele>2044.1999511719</ele>
        <time>2014-03-02T13:58:40.000Z</time>
      </trkpt>
      <trkpt lat="45.34444" lon="6.17573">
        <ele>2044.5999755859</ele>
        <time>2014-03-02T13:58:41.000Z</time>
      </trkpt>
      <trkpt lat="45.34443" lon="6.17574">
        <ele>2044.8000488281</ele>
        <time>2014-03-02T13:58:42.000Z</time>
      </trkpt>
      <trkpt lat="45.34443" lon="6.17574">
        <ele>2044.8000488281</ele>
        <time>2014-03-02T13:58:43.000Z</time>
      </trkpt>
      <trkpt lat="45.34443" lon="6.17574">
        <ele>2045.1999511719</ele>
        <time>2014-03-02T13:58:44.000Z</time>
      </trkpt>
      <trkpt lat="45.34443" lon="6.17574">
        <ele>2045.1999511719</ele>
        <time>2014-03-02T13:58:45.000Z</time>
      </trkpt>
      <trkpt lat="45.34443" lon="6.17575">
        <ele>2045.5999755859</ele>
        <time>2014-03-02T13:58:46.000Z</time>
      </trkpt>
      <trkpt lat="45.34443" lon="6.17575">
        <ele>2045.5999755859</ele>
        <time>2014-03-02T13:58:47.000Z</time>
      </trkpt>
      <trkpt lat="45.34443" lon="6.17575">
        <ele>2045.5999755859</ele>
        <time>2014-03-02T13:58:48.000Z</time>
      </trkpt>
      <trkpt lat="45.34442" lon="6.17576">
        <ele>2046</ele>
        <time>2014-03-02T13:58:49.000Z</time>
      </trkpt>
      <trkpt lat="45.34442" lon="6.17576">
        <ele>2046</ele>
        <time>2014-03-02T13:58:50.000Z</time>
      </trkpt>
      <trkpt lat="45.34442" lon="6.17577">
        <ele>2046.5999755859</ele>
        <time>2014-03-02T13:58:51.000Z</time>
      </trkpt>
      <trkpt lat="45.34442" lon="6.17577">
        <ele>2046.5999755859</ele>
        <time>2014-03-02T13:58:52.000Z</time>
      </trkpt>
      <trkpt lat="45.34442" lon="6.17577">
        <ele>2046.5999755859</ele>
        <time>2014-03-02T13:58:53.000Z</time>
      </trkpt>
      <trkpt lat="45.34441" lon="6.17578">
        <ele>2047</ele>
        <time>2014-03-02T13:58:54.000Z</time>
      </trkpt>
      <trkpt lat="45.34441" lon="6.17578">
        <ele>2047</ele>
        <time>2014-03-02T13:58:55.000Z</time>
      </trkpt>
      <trkpt lat="45.34441" lon="6.17579">
        <ele>2047.4000244141</ele>
        <time>2014-03-02T13:58:56.000Z</time>
      </trkpt>
      <trkpt lat="45.34441" lon="6.1758">
        <ele>2047.8000488281</ele>
        <time>2014-03-02T13:58:57.000Z</time>
      </trkpt>
      <trkpt lat="45.34441" lon="6.1758">
        <ele>2047.8000488281</ele>
        <time>2014-03-02T13:58:58.000Z</time>
      </trkpt>
      <trkpt lat="45.3444" lon="6.17581">
        <ele>2048.1999511719</ele>
        <time>2014-03-02T13:58:59.000Z</time>
      </trkpt>
      <trkpt lat="45.3444" lon="6.17581">
        <ele>2048.1999511719</ele>
        <time>2014-03-02T13:59:00.000Z</time>
      </trkpt>
      <trkpt lat="45.3444" lon="6.17581">
        <ele>2048.1999511719</ele>
        <time>2014-03-02T13:59:01.000Z</time>
      </trkpt>
      <trkpt lat="45.3444" lon="6.17582">
        <ele>2048.6000976562</ele>
        <time>2014-03-02T13:59:02.000Z</time>
      </trkpt>
      <trkpt lat="45.3444" lon="6.17582">
        <ele>2048.6000976562</ele>
        <time>2014-03-02T13:59:03.000Z</time>
      </trkpt>
      <trkpt lat="45.3444" lon="6.17582">
        <ele>2048.6000976562</ele>
        <time>2014-03-02T13:59:04.000Z</time>
      </trkpt>
      <trkpt lat="45.3444" lon="6.17582">
        <ele>2049</ele>
        <time>2014-03-02T13:59:05.000Z</time>
      </trkpt>
      <trkpt lat="45.3444" lon="6.17582">
        <ele>2049</ele>
        <time>2014-03-02T13:59:06.000Z</time>
      </trkpt>
      <trkpt lat="45.3444" lon="6.17584">
        <ele>2049.3999023438</ele>
        <time>2014-03-02T13:59:07.000Z</time>
      </trkpt>
      <trkpt lat="45.34439" lon="6.17585">
        <ele>2049.6000976562</ele>
        <time>2014-03-02T13:59:08.000Z</time>
      </trkpt>
      <trkpt lat="45.34439" lon="6.17585">
        <ele>2049.6000976562</ele>
        <time>2014-03-02T13:59:09.000Z</time>
      </trkpt>
      <trkpt lat="45.34439" lon="6.17585">
        <ele>2050.1999511719</ele>
        <time>2014-03-02T13:59:10.000Z</time>
      </trkpt>
      <trkpt lat="45.34439" lon="6.17585">
        <ele>2050.1999511719</ele>
        <time>2014-03-02T13:59:11.000Z</time>
      </trkpt>
      <trkpt lat="45.34439" lon="6.17585">
        <ele>2050.1999511719</ele>
        <time>2014-03-02T13:59:12.000Z</time>
      </trkpt>
      <trkpt lat="45.34438" lon="6.17586">
        <ele>2050.6000976562</ele>
        <time>2014-03-02T13:59:13.000Z</time>
      </trkpt>
      <trkpt lat="45.34438" lon="6.17586">
        <ele>2050.6000976562</ele>
        <time>2014-03-02T13:59:14.000Z</time>
      </trkpt>
      <trkpt lat="45.34438" lon="6.17586">
        <ele>2050.6000976562</ele>
        <time>2014-03-02T13:59:15.000Z</time>
      </trkpt>
      <trkpt lat="45.34438" lon="6.17587">
        <ele>2051</ele>
        <time>2014-03-02T13:59:16.000Z</time>
      </trkpt>
      <trkpt lat="45.34438" lon="6.17588">
        <ele>2051.3999023438</ele>
        <time>2014-03-02T13:59:17.000Z</time>
      </trkpt>
      <trkpt lat="45.34438" lon="6.17588">
        <ele>2051.3999023438</ele>
        <time>2014-03-02T13:59:18.000Z</time>
      </trkpt>
      <trkpt lat="45.34438" lon="6.17589">
        <ele>2051.6000976562</ele>
        <time>2014-03-02T13:59:19.000Z</time>
      </trkpt>
      <trkpt lat="45.34438" lon="6.17589">
        <ele>2051.6000976562</ele>
        <time>2014-03-02T13:59:20.000Z</time>
      </trkpt>
      <trkpt lat="45.34437" lon="6.17589">
        <ele>2052</ele>
        <time>2014-03-02T13:59:21.000Z</time>
      </trkpt>
      <trkpt lat="45.34437" lon="6.17589">
        <ele>2052</ele>
        <time>2014-03-02T13:59:22.000Z</time>
      </trkpt>
      <trkpt lat="45.34437" lon="6.17589">
        <ele>2052</ele>
        <time>2014-03-02T13:59:23.000Z</time>
      </trkpt>
      <trkpt lat="45.34437" lon="6.1759">
        <ele>2052.3999023438</ele>
        <time>2014-03-02T13:59:24.000Z</time>
      </trkpt>
      <trkpt lat="45.34437" lon="6.1759">
        <ele>2052.3999023438</ele>
        <time>2014-03-02T13:59:25.000Z</time>
      </trkpt>
      <trkpt lat="45.34436" lon="6.17591">
        <ele>2052.8000488281</ele>
        <time>2014-03-02T13:59:26.000Z</time>
      </trkpt>
      <trkpt lat="45.34436" lon="6.17591">
        <ele>2052.8000488281</ele>
        <time>2014-03-02T13:59:27.000Z</time>
      </trkpt>
      <trkpt lat="45.34436" lon="6.17591">
        <ele>2052.8000488281</ele>
        <time>2014-03-02T13:59:28.000Z</time>
      </trkpt>
      <trkpt lat="45.34436" lon="6.17592">
        <ele>2053.1999511719</ele>
        <time>2014-03-02T13:59:29.000Z</time>
      </trkpt>
      <trkpt lat="45.34436" lon="6.17592">
        <ele>2053.1999511719</ele>
        <time>2014-03-02T13:59:30.000Z</time>
      </trkpt>
      <trkpt lat="45.34436" lon="6.17593">
        <ele>2053.3999023438</ele>
        <time>2014-03-02T13:59:31.000Z</time>
      </trkpt>
      <trkpt lat="45.34436" lon="6.17593">
        <ele>2053.8000488281</ele>
        <time>2014-03-02T13:59:32.000Z</time>
      </trkpt>
      <trkpt lat="45.34436" lon="6.17593">
        <ele>2053.8000488281</ele>
        <time>2014-03-02T13:59:33.000Z</time>
      </trkpt>
      <trkpt lat="45.34435" lon="6.17595">
        <ele>2054.1999511719</ele>
        <time>2014-03-02T13:59:34.000Z</time>
      </trkpt>
      <trkpt lat="45.34435" lon="6.17595">
        <ele>2054.6000976562</ele>
        <time>2014-03-02T13:59:35.000Z</time>
      </trkpt>
      <trkpt lat="45.34435" lon="6.17595">
        <ele>2054.6000976562</ele>
        <time>2014-03-02T13:59:36.000Z</time>
      </trkpt>
      <trkpt lat="45.34435" lon="6.17596">
        <ele>2055</ele>
        <time>2014-03-02T13:59:37.000Z</time>
      </trkpt>
      <trkpt lat="45.34435" lon="6.17596">
        <ele>2055</ele>
        <time>2014-03-02T13:59:38.000Z</time>
      </trkpt>
      <trkpt lat="45.34434" lon="6.17597">
        <ele>2055.1999511719</ele>
        <time>2014-03-02T13:59:39.000Z</time>
      </trkpt>
      <trkpt lat="45.34434" lon="6.17597">
        <ele>2055.6000976562</ele>
        <time>2014-03-02T13:59:40.000Z</time>
      </trkpt>
      <trkpt lat="45.34434" lon="6.17598">
        <ele>2056</ele>
        <time>2014-03-02T13:59:41.000Z</time>
      </trkpt>
      <trkpt lat="45.34434" lon="6.17599">
        <ele>2056</ele>
        <time>2014-03-02T13:59:42.000Z</time>
      </trkpt>
      <trkpt lat="45.34434" lon="6.17599">
        <ele>2056.3999023438</ele>
        <time>2014-03-02T13:59:44.000Z</time>
      </trkpt>
      <trkpt lat="45.34433" lon="6.176">
        <ele>2056.8000488281</ele>
        <time>2014-03-02T13:59:45.000Z</time>
      </trkpt>
      <trkpt lat="45.34433" lon="6.176">
        <ele>2056.8000488281</ele>
        <time>2014-03-02T13:59:46.000Z</time>
      </trkpt>
      <trkpt lat="45.34433" lon="6.17601">
        <ele>2057.1999511719</ele>
        <time>2014-03-02T13:59:47.000Z</time>
      </trkpt>
      <trkpt lat="45.34432" lon="6.17601">
        <ele>2057.8000488281</ele>
        <time>2014-03-02T13:59:48.000Z</time>
      </trkpt>
      <trkpt lat="45.34432" lon="6.17601">
        <ele>2057.8000488281</ele>
        <time>2014-03-02T13:59:49.000Z</time>
      </trkpt>
      <trkpt lat="45.34432" lon="6.17602">
        <ele>2058.1999511719</ele>
        <time>2014-03-02T13:59:50.000Z</time>
      </trkpt>
      <trkpt lat="45.34432" lon="6.17602">
        <ele>2058.1999511719</ele>
        <time>2014-03-02T13:59:51.000Z</time>
      </trkpt>
      <trkpt lat="45.34432" lon="6.17602">
        <ele>2058.1999511719</ele>
        <time>2014-03-02T13:59:52.000Z</time>
      </trkpt>
      <trkpt lat="45.34431" lon="6.17603">
        <ele>2058.3999023438</ele>
        <time>2014-03-02T13:59:53.000Z</time>
      </trkpt>
      <trkpt lat="45.34431" lon="6.17603">
        <ele>2058.3999023438</ele>
        <time>2014-03-02T13:59:54.000Z</time>
      </trkpt>
      <trkpt lat="45.34431" lon="6.17604">
        <ele>2058.6000976562</ele>
        <time>2014-03-02T13:59:55.000Z</time>
      </trkpt>
      <trkpt lat="45.34431" lon="6.17604">
        <ele>2058.6000976562</ele>
        <time>2014-03-02T13:59:56.000Z</time>
      </trkpt>
      <trkpt lat="45.34431" lon="6.17604">
        <ele>2058.6000976562</ele>
        <time>2014-03-02T13:59:57.000Z</time>
      </trkpt>
      <trkpt lat="45.34431" lon="6.17604">
        <ele>2058.8000488281</ele>
        <time>2014-03-02T13:59:58.000Z</time>
      </trkpt>
      <trkpt lat="45.34431" lon="6.17604">
        <ele>2058.8000488281</ele>
        <time>2014-03-02T13:59:59.000Z</time>
      </trkpt>
      <trkpt lat="45.34431" lon="6.17605">
        <ele>2059.1999511719</ele>
        <time>2014-03-02T14:00:00.000Z</time>
      </trkpt>
      <trkpt lat="45.3443" lon="6.17605">
        <ele>2059.6000976562</ele>
        <time>2014-03-02T14:00:01.000Z</time>
      </trkpt>
      <trkpt lat="45.3443" lon="6.17605">
        <ele>2059.6000976562</ele>
        <time>2014-03-02T14:00:02.000Z</time>
      </trkpt>
      <trkpt lat="45.3443" lon="6.17606">
        <ele>2060.1999511719</ele>
        <time>2014-03-02T14:00:03.000Z</time>
      </trkpt>
      <trkpt lat="45.3443" lon="6.17606">
        <ele>2060.1999511719</ele>
        <time>2014-03-02T14:00:04.000Z</time>
      </trkpt>
      <trkpt lat="45.3443" lon="6.17606">
        <ele>2060.1999511719</ele>
        <time>2014-03-02T14:00:05.000Z</time>
      </trkpt>
      <trkpt lat="45.34429" lon="6.17607">
        <ele>2060.3999023438</ele>
        <time>2014-03-02T14:00:06.000Z</time>
      </trkpt>
      <trkpt lat="45.34429" lon="6.17607">
        <ele>2060.3999023438</ele>
        <time>2014-03-02T14:00:07.000Z</time>
      </trkpt>
      <trkpt lat="45.34429" lon="6.17608">
        <ele>2060.8000488281</ele>
        <time>2014-03-02T14:00:08.000Z</time>
      </trkpt>
      <trkpt lat="45.34429" lon="6.17608">
        <ele>2061.1999511719</ele>
        <time>2014-03-02T14:00:09.000Z</time>
      </trkpt>
      <trkpt lat="45.34429" lon="6.17608">
        <ele>2061.1999511719</ele>
        <time>2014-03-02T14:00:10.000Z</time>
      </trkpt>
      <trkpt lat="45.34428" lon="6.17609">
        <ele>2061.6000976562</ele>
        <time>2014-03-02T14:00:11.000Z</time>
      </trkpt>
      <trkpt lat="45.34428" lon="6.17609">
        <ele>2061.6000976562</ele>
        <time>2014-03-02T14:00:12.000Z</time>
      </trkpt>
      <trkpt lat="45.34428" lon="6.17609">
        <ele>2061.6000976562</ele>
        <time>2014-03-02T14:00:13.000Z</time>
      </trkpt>
      <trkpt lat="45.34428" lon="6.1761">
        <ele>2061.8000488281</ele>
        <time>2014-03-02T14:00:14.000Z</time>
      </trkpt>
      <trkpt lat="45.34428" lon="6.1761">
        <ele>2061.8000488281</ele>
        <time>2014-03-02T14:00:15.000Z</time>
      </trkpt>
      <trkpt lat="45.34428" lon="6.1761">
        <ele>2061.8000488281</ele>
        <time>2014-03-02T14:00:16.000Z</time>
      </trkpt>
      <trkpt lat="45.34428" lon="6.1761">
        <ele>2061.8000488281</ele>
        <time>2014-03-02T14:00:17.000Z</time>
      </trkpt>
      <trkpt lat="45.34428" lon="6.1761">
        <ele>2061.8000488281</ele>
        <time>2014-03-02T14:00:18.000Z</time>
      </trkpt>
      <trkpt lat="45.34428" lon="6.17612">
        <ele>2062.1999511719</ele>
        <time>2014-03-02T14:00:19.000Z</time>
      </trkpt>
      <trkpt lat="45.34427" lon="6.17612">
        <ele>2062.6000976562</ele>
        <time>2014-03-02T14:00:20.000Z</time>
      </trkpt>
      <trkpt lat="45.34427" lon="6.17613">
        <ele>2062.8000488281</ele>
        <time>2014-03-02T14:00:21.000Z</time>
      </trkpt>
      <trkpt lat="45.34427" lon="6.17614">
        <ele>2062.8000488281</ele>
        <time>2014-03-02T14:00:22.000Z</time>
      </trkpt>
      <trkpt lat="45.34427" lon="6.17614">
        <ele>2062.8000488281</ele>
        <time>2014-03-02T14:00:23.000Z</time>
      </trkpt>
      <trkpt lat="45.34427" lon="6.17614">
        <ele>2062.8000488281</ele>
        <time>2014-03-02T14:00:24.000Z</time>
      </trkpt>
      <trkpt lat="45.34427" lon="6.17614">
        <ele>2063.1999511719</ele>
        <time>2014-03-02T14:00:25.000Z</time>
      </trkpt>
      <trkpt lat="45.34427" lon="6.17614">
        <ele>2063.1999511719</ele>
        <time>2014-03-02T14:00:26.000Z</time>
      </trkpt>
      <trkpt lat="45.34426" lon="6.17615">
        <ele>2063.3999023438</ele>
        <time>2014-03-02T14:00:27.000Z</time>
      </trkpt>
      <trkpt lat="45.34426" lon="6.17615">
        <ele>2063.3999023438</ele>
        <time>2014-03-02T14:00:28.000Z</time>
      </trkpt>
      <trkpt lat="45.34426" lon="6.17615">
        <ele>2063.3999023438</ele>
        <time>2014-03-02T14:00:29.000Z</time>
      </trkpt>
      <trkpt lat="45.34426" lon="6.17616">
        <ele>2063.8000488281</ele>
        <time>2014-03-02T14:00:30.000Z</time>
      </trkpt>
      <trkpt lat="45.34426" lon="6.17616">
        <ele>2063.8000488281</ele>
        <time>2014-03-02T14:00:31.000Z</time>
      </trkpt>
      <trkpt lat="45.34425" lon="6.17617">
        <ele>2064.1999511719</ele>
        <time>2014-03-02T14:00:32.000Z</time>
      </trkpt>
      <trkpt lat="45.34425" lon="6.17618">
        <ele>2064.3999023438</ele>
        <time>2014-03-02T14:00:33.000Z</time>
      </trkpt>
      <trkpt lat="45.34425" lon="6.17618">
        <ele>2064.3999023438</ele>
        <time>2014-03-02T14:00:34.000Z</time>
      </trkpt>
      <trkpt lat="45.34425" lon="6.17619">
        <ele>2064.8000488281</ele>
        <time>2014-03-02T14:00:35.000Z</time>
      </trkpt>
      <trkpt lat="45.34425" lon="6.17619">
        <ele>2064.8000488281</ele>
        <time>2014-03-02T14:00:36.000Z</time>
      </trkpt>
      <trkpt lat="45.34425" lon="6.17619">
        <ele>2064.8000488281</ele>
        <time>2014-03-02T14:00:37.000Z</time>
      </trkpt>
      <trkpt lat="45.34424" lon="6.1762">
        <ele>2065.1999511719</ele>
        <time>2014-03-02T14:00:38.000Z</time>
      </trkpt>
      <trkpt lat="45.34424" lon="6.1762">
        <ele>2065.1999511719</ele>
        <time>2014-03-02T14:00:39.000Z</time>
      </trkpt>
      <trkpt lat="45.34423" lon="6.17621">
        <ele>2065.6000976562</ele>
        <time>2014-03-02T14:00:40.000Z</time>
      </trkpt>
      <trkpt lat="45.34423" lon="6.17622">
        <ele>2066</ele>
        <time>2014-03-02T14:00:41.000Z</time>
      </trkpt>
      <trkpt lat="45.34423" lon="6.17622">
        <ele>2066</ele>
        <time>2014-03-02T14:00:42.000Z</time>
      </trkpt>
      <trkpt lat="45.34422" lon="6.17622">
        <ele>2066.1999511719</ele>
        <time>2014-03-02T14:00:43.000Z</time>
      </trkpt>
      <trkpt lat="45.34422" lon="6.17622">
        <ele>2066.1999511719</ele>
        <time>2014-03-02T14:00:44.000Z</time>
      </trkpt>
      <trkpt lat="45.34422" lon="6.17623">
        <ele>2066.6000976562</ele>
        <time>2014-03-02T14:00:45.000Z</time>
      </trkpt>
      <trkpt lat="45.34422" lon="6.17624">
        <ele>2066.8000488281</ele>
        <time>2014-03-02T14:00:46.000Z</time>
      </trkpt>
      <trkpt lat="45.34422" lon="6.17624">
        <ele>2066.8000488281</ele>
        <time>2014-03-02T14:00:47.000Z</time>
      </trkpt>
      <trkpt lat="45.34422" lon="6.17625">
        <ele>2067.1999511719</ele>
        <time>2014-03-02T14:00:48.000Z</time>
      </trkpt>
      <trkpt lat="45.34421" lon="6.17626">
        <ele>2067.3999023438</ele>
        <time>2014-03-02T14:00:49.000Z</time>
      </trkpt>
      <trkpt lat="45.34421" lon="6.17626">
        <ele>2067.3999023438</ele>
        <time>2014-03-02T14:00:50.000Z</time>
      </trkpt>
      <trkpt lat="45.34421" lon="6.17626">
        <ele>2067.3999023438</ele>
        <time>2014-03-02T14:00:51.000Z</time>
      </trkpt>
      <trkpt lat="45.34421" lon="6.17627">
        <ele>2067.6000976562</ele>
        <time>2014-03-02T14:00:52.000Z</time>
      </trkpt>
      <trkpt lat="45.34421" lon="6.17628">
        <ele>2067.8000488281</ele>
        <time>2014-03-02T14:00:53.000Z</time>
      </trkpt>
      <trkpt lat="45.34421" lon="6.17628">
        <ele>2067.8000488281</ele>
        <time>2014-03-02T14:00:54.000Z</time>
      </trkpt>
      <trkpt lat="45.34421" lon="6.17628">
        <ele>2067.8000488281</ele>
        <time>2014-03-02T14:00:55.000Z</time>
      </trkpt>
      <trkpt lat="45.34421" lon="6.17628">
        <ele>2067.8000488281</ele>
        <time>2014-03-02T14:00:56.000Z</time>
      </trkpt>
      <trkpt lat="45.3442" lon="6.17627">
        <ele>2068</ele>
        <time>2014-03-02T14:00:58.000Z</time>
      </trkpt>
      <trkpt lat="45.3442" lon="6.17627">
        <ele>2068</ele>
        <time>2014-03-02T14:00:59.000Z</time>
      </trkpt>
      <trkpt lat="45.3442" lon="6.17627">
        <ele>2068</ele>
        <time>2014-03-02T14:01:00.000Z</time>
      </trkpt>
      <trkpt lat="45.3442" lon="6.17627">
        <ele>2068</ele>
        <time>2014-03-02T14:01:01.000Z</time>
      </trkpt>
      <trkpt lat="45.3442" lon="6.17628">
        <ele>2068.1999511719</ele>
        <time>2014-03-02T14:01:02.000Z</time>
      </trkpt>
      <trkpt lat="45.3442" lon="6.17628">
        <ele>2068.1999511719</ele>
        <time>2014-03-02T14:01:03.000Z</time>
      </trkpt>
      <trkpt lat="45.3442" lon="6.17627">
        <ele>2068.1999511719</ele>
        <time>2014-03-02T14:01:04.000Z</time>
      </trkpt>
      <trkpt lat="45.3442" lon="6.17627">
        <ele>2068.1999511719</ele>
        <time>2014-03-02T14:01:05.000Z</time>
      </trkpt>
      <trkpt lat="45.34419" lon="6.17627">
        <ele>2068.3999023438</ele>
        <time>2014-03-02T14:01:06.000Z</time>
      </trkpt>
      <trkpt lat="45.34418" lon="6.17627">
        <ele>2068.6000976562</ele>
        <time>2014-03-02T14:01:07.000Z</time>
      </trkpt>
      <trkpt lat="45.34418" lon="6.17627">
        <ele>2068.8000488281</ele>
        <time>2014-03-02T14:01:08.000Z</time>
      </trkpt>
      <trkpt lat="45.34417" lon="6.17626">
        <ele>2069</ele>
        <time>2014-03-02T14:01:09.000Z</time>
      </trkpt>
      <trkpt lat="45.34416" lon="6.17625">
        <ele>2069.1999511719</ele>
        <time>2014-03-02T14:01:10.000Z</time>
      </trkpt>
      <trkpt lat="45.34415" lon="6.17624">
        <ele>2069.1999511719</ele>
        <time>2014-03-02T14:01:11.000Z</time>
      </trkpt>
      <trkpt lat="45.34415" lon="6.17624">
        <ele>2069.1999511719</ele>
        <time>2014-03-02T14:01:12.000Z</time>
      </trkpt>
      <trkpt lat="45.34415" lon="6.17624">
        <ele>2069.1999511719</ele>
        <time>2014-03-02T14:01:13.000Z</time>
      </trkpt>
      <trkpt lat="45.34415" lon="6.17624">
        <ele>2069.1999511719</ele>
        <time>2014-03-02T14:01:14.000Z</time>
      </trkpt>
      <trkpt lat="45.34414" lon="6.17623">
        <ele>2069.3999023438</ele>
        <time>2014-03-02T14:01:15.000Z</time>
      </trkpt>
      <trkpt lat="45.34414" lon="6.17624">
        <ele>2069.8000488281</ele>
        <time>2014-03-02T14:01:16.000Z</time>
      </trkpt>
      <trkpt lat="45.34414" lon="6.17624">
        <ele>2069.8000488281</ele>
        <time>2014-03-02T14:01:17.000Z</time>
      </trkpt>
      <trkpt lat="45.34413" lon="6.17624">
        <ele>2070</ele>
        <time>2014-03-02T14:01:18.000Z</time>
      </trkpt>
      <trkpt lat="45.34413" lon="6.17624">
        <ele>2070</ele>
        <time>2014-03-02T14:01:19.000Z</time>
      </trkpt>
      <trkpt lat="45.34413" lon="6.17624">
        <ele>2070</ele>
        <time>2014-03-02T14:01:20.000Z</time>
      </trkpt>
      <trkpt lat="45.34413" lon="6.17624">
        <ele>2070</ele>
        <time>2014-03-02T14:01:21.000Z</time>
      </trkpt>
      <trkpt lat="45.34413" lon="6.17624">
        <ele>2070</ele>
        <time>2014-03-02T14:01:22.000Z</time>
      </trkpt>
      <trkpt lat="45.34412" lon="6.17624">
        <ele>2070.1999511719</ele>
        <time>2014-03-02T14:01:23.000Z</time>
      </trkpt>
      <trkpt lat="45.34412" lon="6.17623">
        <ele>2070.3999023438</ele>
        <time>2014-03-02T14:01:24.000Z</time>
      </trkpt>
      <trkpt lat="45.34412" lon="6.17623">
        <ele>2070.3999023438</ele>
        <time>2014-03-02T14:01:25.000Z</time>
      </trkpt>
      <trkpt lat="45.34411" lon="6.17623">
        <ele>2070.6000976562</ele>
        <time>2014-03-02T14:01:26.000Z</time>
      </trkpt>
      <trkpt lat="45.34411" lon="6.17623">
        <ele>2070.6000976562</ele>
        <time>2014-03-02T14:01:27.000Z</time>
      </trkpt>
      <trkpt lat="45.34411" lon="6.17623">
        <ele>2070.6000976562</ele>
        <time>2014-03-02T14:01:28.000Z</time>
      </trkpt>
      <trkpt lat="45.3441" lon="6.17623">
        <ele>2070.8000488281</ele>
        <time>2014-03-02T14:01:29.000Z</time>
      </trkpt>
      <trkpt lat="45.3441" lon="6.17623">
        <ele>2070.8000488281</ele>
        <time>2014-03-02T14:01:30.000Z</time>
      </trkpt>
      <trkpt lat="45.3441" lon="6.17623">
        <ele>2070.8000488281</ele>
        <time>2014-03-02T14:01:31.000Z</time>
      </trkpt>
      <trkpt lat="45.3441" lon="6.17623">
        <ele>2070.8000488281</ele>
        <time>2014-03-02T14:01:32.000Z</time>
      </trkpt>
      <trkpt lat="45.3441" lon="6.17623">
        <ele>2070.8000488281</ele>
        <time>2014-03-02T14:01:33.000Z</time>
      </trkpt>
      <trkpt lat="45.3441" lon="6.17623">
        <ele>2070.8000488281</ele>
        <time>2014-03-02T14:01:34.000Z</time>
      </trkpt>
      <trkpt lat="45.3441" lon="6.17623">
        <ele>2070.8000488281</ele>
        <time>2014-03-02T14:01:35.000Z</time>
      </trkpt>
      <trkpt lat="45.3441" lon="6.17623">
        <ele>2070.8000488281</ele>
        <time>2014-03-02T14:01:36.000Z</time>
      </trkpt>
      <trkpt lat="45.3441" lon="6.17623">
        <ele>2070.8000488281</ele>
        <time>2014-03-02T14:01:39.000Z</time>
      </trkpt>
      <trkpt lat="45.3441" lon="6.17623">
        <ele>2070.8000488281</ele>
        <time>2014-03-02T14:01:40.000Z</time>
      </trkpt>
      <trkpt lat="45.3441" lon="6.17623">
        <ele>2070.8000488281</ele>
        <time>2014-03-02T14:01:41.000Z</time>
      </trkpt>
      <trkpt lat="45.3441" lon="6.17623">
        <ele>2070.8000488281</ele>
        <time>2014-03-02T14:01:42.000Z</time>
      </trkpt>
      <trkpt lat="45.3441" lon="6.17623">
        <ele>2070.8000488281</ele>
        <time>2014-03-02T14:01:43.000Z</time>
      </trkpt>
      <trkpt lat="45.3441" lon="6.17622">
        <ele>2071</ele>
        <time>2014-03-02T14:01:44.000Z</time>
      </trkpt>
      <trkpt lat="45.34409" lon="6.17622">
        <ele>2071</ele>
        <time>2014-03-02T14:01:45.000Z</time>
      </trkpt>
      <trkpt lat="45.34409" lon="6.17622">
        <ele>2071</ele>
        <time>2014-03-02T14:01:46.000Z</time>
      </trkpt>
      <trkpt lat="45.34409" lon="6.17622">
        <ele>2071</ele>
        <time>2014-03-02T14:01:47.000Z</time>
      </trkpt>
      <trkpt lat="45.34409" lon="6.17622">
        <ele>2071</ele>
        <time>2014-03-02T14:01:48.000Z</time>
      </trkpt>
      <trkpt lat="45.34409" lon="6.17622">
        <ele>2071</ele>
        <time>2014-03-02T14:01:49.000Z</time>
      </trkpt>
      <trkpt lat="45.34409" lon="6.17622">
        <ele>2071</ele>
        <time>2014-03-02T14:01:50.000Z</time>
      </trkpt>
      <trkpt lat="45.34409" lon="6.17622">
        <ele>2071</ele>
        <time>2014-03-02T14:01:51.000Z</time>
      </trkpt>
      <trkpt lat="45.34409" lon="6.17622">
        <ele>2071</ele>
        <time>2014-03-02T14:01:52.000Z</time>
      </trkpt>
      <trkpt lat="45.34409" lon="6.17622">
        <ele>2071</ele>
        <time>2014-03-02T14:01:53.000Z</time>
      </trkpt>
      <trkpt lat="45.34409" lon="6.17622">
        <ele>2071</ele>
        <time>2014-03-02T14:01:54.000Z</time>
      </trkpt>
      <trkpt lat="45.34409" lon="6.17622">
        <ele>2071</ele>
        <time>2014-03-02T14:01:55.000Z</time>
      </trkpt>
      <trkpt lat="45.34409" lon="6.17622">
        <ele>2071</ele>
        <time>2014-03-02T14:01:58.000Z</time>
      </trkpt>
      <trkpt lat="45.34409" lon="6.17622">
        <ele>2071</ele>
        <time>2014-03-02T14:01:59.000Z</time>
      </trkpt>
      <trkpt lat="45.34409" lon="6.17622">
        <ele>2071</ele>
        <time>2014-03-02T14:02:00.000Z</time>
      </trkpt>
      <trkpt lat="45.34409" lon="6.17622">
        <ele>2071</ele>
        <time>2014-03-02T14:02:03.000Z</time>
      </trkpt>
      <trkpt lat="45.34409" lon="6.17622">
        <ele>2071</ele>
        <time>2014-03-02T14:02:04.000Z</time>
      </trkpt>
      <trkpt lat="45.34409" lon="6.17622">
        <ele>2071</ele>
        <time>2014-03-02T14:02:05.000Z</time>
      </trkpt>
      <trkpt lat="45.34409" lon="6.17622">
        <ele>2071</ele>
        <time>2014-03-02T14:02:07.000Z</time>
      </trkpt>
      <trkpt lat="45.34409" lon="6.17622">
        <ele>2071</ele>
        <time>2014-03-02T14:02:08.000Z</time>
      </trkpt>
      <trkpt lat="45.34409" lon="6.17622">
        <ele>2071</ele>
        <time>2014-03-02T14:02:09.000Z</time>
      </trkpt>
      <trkpt lat="45.34409" lon="6.17622">
        <ele>2071</ele>
        <time>2014-03-02T14:02:10.000Z</time>
      </trkpt>
      <trkpt lat="45.34409" lon="6.17622">
        <ele>2071</ele>
        <time>2014-03-02T14:02:11.000Z</time>
      </trkpt>
      <trkpt lat="45.34409" lon="6.17622">
        <ele>2071</ele>
        <time>2014-03-02T14:02:12.000Z</time>
      </trkpt>
      <trkpt lat="45.34409" lon="6.17622">
        <ele>2071</ele>
        <time>2014-03-02T14:02:13.000Z</time>
      </trkpt>
      <trkpt lat="45.34409" lon="6.17622">
        <ele>2071</ele>
        <time>2014-03-02T14:02:15.000Z</time>
      </trkpt>
      <trkpt lat="45.34409" lon="6.17622">
        <ele>2071</ele>
        <time>2014-03-02T14:02:16.000Z</time>
      </trkpt>
      <trkpt lat="45.34409" lon="6.17622">
        <ele>2071</ele>
        <time>2014-03-02T14:02:17.000Z</time>
      </trkpt>
      <trkpt lat="45.34409" lon="6.17622">
        <ele>2071</ele>
        <time>2014-03-02T14:02:18.000Z</time>
      </trkpt>
      <trkpt lat="45.34409" lon="6.17622">
        <ele>2071</ele>
        <time>2014-03-02T14:02:19.000Z</time>
      </trkpt>
      <trkpt lat="45.34408" lon="6.17621">
        <ele>2071.3999023438</ele>
        <time>2014-03-02T14:02:21.000Z</time>
      </trkpt>
      <trkpt lat="45.34407" lon="6.17621">
        <ele>2071.8000488281</ele>
        <time>2014-03-02T14:02:22.000Z</time>
      </trkpt>
      <trkpt lat="45.34405" lon="6.1762">
        <ele>2072.1999511719</ele>
        <time>2014-03-02T14:02:23.000Z</time>
      </trkpt>
      <trkpt lat="45.34404" lon="6.17619">
        <ele>2072.1999511719</ele>
        <time>2014-03-02T14:02:24.000Z</time>
      </trkpt>
      <trkpt lat="45.34404" lon="6.17618">
        <ele>2072.6000976562</ele>
        <time>2014-03-02T14:02:25.000Z</time>
      </trkpt>
      <trkpt lat="45.34403" lon="6.17618">
        <ele>2072.8000488281</ele>
        <time>2014-03-02T14:02:26.000Z</time>
      </trkpt>
      <trkpt lat="45.34402" lon="6.17618">
        <ele>2073</ele>
        <time>2014-03-02T14:02:27.000Z</time>
      </trkpt>
      <trkpt lat="45.34401" lon="6.17617">
        <ele>2073.3999023438</ele>
        <time>2014-03-02T14:02:28.000Z</time>
      </trkpt>
      <trkpt lat="45.344" lon="6.17617">
        <ele>2073.6000976562</ele>
        <time>2014-03-02T14:02:29.000Z</time>
      </trkpt>
      <trkpt lat="45.34399" lon="6.17616">
        <ele>2073.8000488281</ele>
        <time>2014-03-02T14:02:30.000Z</time>
      </trkpt>
      <trkpt lat="45.34398" lon="6.17616">
        <ele>2074</ele>
        <time>2014-03-02T14:02:31.000Z</time>
      </trkpt>
      <trkpt lat="45.34397" lon="6.17615">
        <ele>2074.1999511719</ele>
        <time>2014-03-02T14:02:32.000Z</time>
      </trkpt>
      <trkpt lat="45.34396" lon="6.17614">
        <ele>2074.6000976562</ele>
        <time>2014-03-02T14:02:33.000Z</time>
      </trkpt>
      <trkpt lat="45.34395" lon="6.17614">
        <ele>2074.8000488281</ele>
        <time>2014-03-02T14:02:34.000Z</time>
      </trkpt>
      <trkpt lat="45.34395" lon="6.17614">
        <ele>2074.8000488281</ele>
        <time>2014-03-02T14:02:35.000Z</time>
      </trkpt>
      <trkpt lat="45.34394" lon="6.17613">
        <ele>2075</ele>
        <time>2014-03-02T14:02:36.000Z</time>
      </trkpt>
      <trkpt lat="45.34394" lon="6.17612">
        <ele>2075</ele>
        <time>2014-03-02T14:02:37.000Z</time>
      </trkpt>
      <trkpt lat="45.34393" lon="6.17612">
        <ele>2075.1999511719</ele>
        <time>2014-03-02T14:02:38.000Z</time>
      </trkpt>
      <trkpt lat="45.34392" lon="6.17611">
        <ele>2075.3999023438</ele>
        <time>2014-03-02T14:02:39.000Z</time>
      </trkpt>
      <trkpt lat="45.34391" lon="6.17611">
        <ele>2075.6000976562</ele>
        <time>2014-03-02T14:02:40.000Z</time>
      </trkpt>
      <trkpt lat="45.34391" lon="6.1761">
        <ele>2075.8000488281</ele>
        <time>2014-03-02T14:02:41.000Z</time>
      </trkpt>
      <trkpt lat="45.3439" lon="6.1761">
        <ele>2076</ele>
        <time>2014-03-02T14:02:42.000Z</time>
      </trkpt>
      <trkpt lat="45.34389" lon="6.17609">
        <ele>2076.1999511719</ele>
        <time>2014-03-02T14:02:43.000Z</time>
      </trkpt>
      <trkpt lat="45.34388" lon="6.17609">
        <ele>2076.3999023438</ele>
        <time>2014-03-02T14:02:44.000Z</time>
      </trkpt>
      <trkpt lat="45.34388" lon="6.17609">
        <ele>2076.6000976562</ele>
        <time>2014-03-02T14:02:45.000Z</time>
      </trkpt>
      <trkpt lat="45.34387" lon="6.17609">
        <ele>2077</ele>
        <time>2014-03-02T14:02:46.000Z</time>
      </trkpt>
      <trkpt lat="45.34386" lon="6.17608">
        <ele>2077</ele>
        <time>2014-03-02T14:02:47.000Z</time>
      </trkpt>
      <trkpt lat="45.34386" lon="6.17608">
        <ele>2077.1999511719</ele>
        <time>2014-03-02T14:02:48.000Z</time>
      </trkpt>
      <trkpt lat="45.34385" lon="6.17608">
        <ele>2077.6000976562</ele>
        <time>2014-03-02T14:02:49.000Z</time>
      </trkpt>
      <trkpt lat="45.34384" lon="6.17608">
        <ele>2077.6000976562</ele>
        <time>2014-03-02T14:02:50.000Z</time>
      </trkpt>
      <trkpt lat="45.34384" lon="6.17608">
        <ele>2077.8000488281</ele>
        <time>2014-03-02T14:02:51.000Z</time>
      </trkpt>
      <trkpt lat="45.34384" lon="6.17608">
        <ele>2077.8000488281</ele>
        <time>2014-03-02T14:02:52.000Z</time>
      </trkpt>
      <trkpt lat="45.34384" lon="6.17609">
        <ele>2078</ele>
        <time>2014-03-02T14:02:53.000Z</time>
      </trkpt>
      <trkpt lat="45.34384" lon="6.17609">
        <ele>2078</ele>
        <time>2014-03-02T14:02:54.000Z</time>
      </trkpt>
      <trkpt lat="45.34384" lon="6.17609">
        <ele>2078</ele>
        <time>2014-03-02T14:02:55.000Z</time>
      </trkpt>
      <trkpt lat="45.34384" lon="6.17609">
        <ele>2078</ele>
        <time>2014-03-02T14:02:56.000Z</time>
      </trkpt>
      <trkpt lat="45.34384" lon="6.17609">
        <ele>2078</ele>
        <time>2014-03-02T14:02:57.000Z</time>
      </trkpt>
      <trkpt lat="45.34384" lon="6.17609">
        <ele>2078</ele>
        <time>2014-03-02T14:02:58.000Z</time>
      </trkpt>
      <trkpt lat="45.34384" lon="6.17609">
        <ele>2078</ele>
        <time>2014-03-02T14:02:59.000Z</time>
      </trkpt>
      <trkpt lat="45.34383" lon="6.17608">
        <ele>2078</ele>
        <time>2014-03-02T14:03:01.000Z</time>
      </trkpt>
      <trkpt lat="45.34383" lon="6.17608">
        <ele>2078</ele>
        <time>2014-03-02T14:03:02.000Z</time>
      </trkpt>
      <trkpt lat="45.34382" lon="6.17608">
        <ele>2078.3999023438</ele>
        <time>2014-03-02T14:03:04.000Z</time>
      </trkpt>
      <trkpt lat="45.34382" lon="6.17609">
        <ele>2078.8000488281</ele>
        <time>2014-03-02T14:03:05.000Z</time>
      </trkpt>
      <trkpt lat="45.34382" lon="6.1761">
        <ele>2079</ele>
        <time>2014-03-02T14:03:06.000Z</time>
      </trkpt>
      <trkpt lat="45.34382" lon="6.1761">
        <ele>2079</ele>
        <time>2014-03-02T14:03:07.000Z</time>
      </trkpt>
      <trkpt lat="45.34382" lon="6.1761">
        <ele>2079</ele>
        <time>2014-03-02T14:03:08.000Z</time>
      </trkpt>
      <trkpt lat="45.34382" lon="6.1761">
        <ele>2079</ele>
        <time>2014-03-02T14:03:09.000Z</time>
      </trkpt>
      <trkpt lat="45.34382" lon="6.1761">
        <ele>2079</ele>
        <time>2014-03-02T14:03:10.000Z</time>
      </trkpt>
      <trkpt lat="45.34382" lon="6.1761">
        <ele>2079</ele>
        <time>2014-03-02T14:03:11.000Z</time>
      </trkpt>
      <trkpt lat="45.34382" lon="6.1761">
        <ele>2079</ele>
        <time>2014-03-02T14:03:12.000Z</time>
      </trkpt>
      <trkpt lat="45.34382" lon="6.1761">
        <ele>2079</ele>
        <time>2014-03-02T14:03:13.000Z</time>
      </trkpt>
      <trkpt lat="45.34382" lon="6.1761">
        <ele>2079</ele>
        <time>2014-03-02T14:03:14.000Z</time>
      </trkpt>
      <trkpt lat="45.34382" lon="6.1761">
        <ele>2079</ele>
        <time>2014-03-02T14:03:15.000Z</time>
      </trkpt>
      <trkpt lat="45.34382" lon="6.1761">
        <ele>2079</ele>
        <time>2014-03-02T14:03:16.000Z</time>
      </trkpt>
      <trkpt lat="45.34382" lon="6.17611">
        <ele>2079.1999511719</ele>
        <time>2014-03-02T14:03:18.000Z</time>
      </trkpt>
      <trkpt lat="45.34382" lon="6.17612">
        <ele>2079.1999511719</ele>
        <time>2014-03-02T14:03:20.000Z</time>
      </trkpt>
      <trkpt lat="45.34382" lon="6.17613">
        <ele>2079.6000976562</ele>
        <time>2014-03-02T14:03:21.000Z</time>
      </trkpt>
      <trkpt lat="45.34382" lon="6.17614">
        <ele>2079.6000976562</ele>
        <time>2014-03-02T14:03:22.000Z</time>
      </trkpt>
      <trkpt lat="45.34383" lon="6.17618">
        <ele>2080</ele>
        <time>2014-03-02T14:03:24.000Z</time>
      </trkpt>
      <trkpt lat="45.34383" lon="6.1762">
        <ele>2080.3999023438</ele>
        <time>2014-03-02T14:03:25.000Z</time>
      </trkpt>
      <trkpt lat="45.34383" lon="6.17621">
        <ele>2080.6000976562</ele>
        <time>2014-03-02T14:03:26.000Z</time>
      </trkpt>
      <trkpt lat="45.34383" lon="6.17622">
        <ele>2080.8000488281</ele>
        <time>2014-03-02T14:03:27.000Z</time>
      </trkpt>
      <trkpt lat="45.34382" lon="6.17623">
        <ele>2081.1999511719</ele>
        <time>2014-03-02T14:03:28.000Z</time>
      </trkpt>
      <trkpt lat="45.34382" lon="6.17624">
        <ele>2081.6000976562</ele>
        <time>2014-03-02T14:03:29.000Z</time>
      </trkpt>
      <trkpt lat="45.34382" lon="6.17625">
        <ele>2081.8000488281</ele>
        <time>2014-03-02T14:03:30.000Z</time>
      </trkpt>
      <trkpt lat="45.34381" lon="6.17626">
        <ele>2082.1999511719</ele>
        <time>2014-03-02T14:03:31.000Z</time>
      </trkpt>
      <trkpt lat="45.34381" lon="6.17626">
        <ele>2082.1999511719</ele>
        <time>2014-03-02T14:03:32.000Z</time>
      </trkpt>
      <trkpt lat="45.34381" lon="6.17627">
        <ele>2082.6000976562</ele>
        <time>2014-03-02T14:03:33.000Z</time>
      </trkpt>
      <trkpt lat="45.34381" lon="6.17627">
        <ele>2082.6000976562</ele>
        <time>2014-03-02T14:03:34.000Z</time>
      </trkpt>
      <trkpt lat="45.34381" lon="6.17629">
        <ele>2083</ele>
        <time>2014-03-02T14:03:35.000Z</time>
      </trkpt>
      <trkpt lat="45.34381" lon="6.1763">
        <ele>2083.1999511719</ele>
        <time>2014-03-02T14:03:36.000Z</time>
      </trkpt>
      <trkpt lat="45.34381" lon="6.17631">
        <ele>2083.3999023438</ele>
        <time>2014-03-02T14:03:37.000Z</time>
      </trkpt>
      <trkpt lat="45.3438" lon="6.17631">
        <ele>2083.6000976562</ele>
        <time>2014-03-02T14:03:38.000Z</time>
      </trkpt>
      <trkpt lat="45.3438" lon="6.17632">
        <ele>2083.8000488281</ele>
        <time>2014-03-02T14:03:39.000Z</time>
      </trkpt>
      <trkpt lat="45.3438" lon="6.17633">
        <ele>2084</ele>
        <time>2014-03-02T14:03:40.000Z</time>
      </trkpt>
      <trkpt lat="45.3438" lon="6.17634">
        <ele>2084.3999023438</ele>
        <time>2014-03-02T14:03:41.000Z</time>
      </trkpt>
      <trkpt lat="45.34379" lon="6.17635">
        <ele>2084.6000976562</ele>
        <time>2014-03-02T14:03:42.000Z</time>
      </trkpt>
      <trkpt lat="45.34379" lon="6.17635">
        <ele>2084.6000976562</ele>
        <time>2014-03-02T14:03:43.000Z</time>
      </trkpt>
      <trkpt lat="45.34379" lon="6.17636">
        <ele>2084.8000488281</ele>
        <time>2014-03-02T14:03:44.000Z</time>
      </trkpt>
      <trkpt lat="45.34379" lon="6.17636">
        <ele>2084.8000488281</ele>
        <time>2014-03-02T14:03:45.000Z</time>
      </trkpt>
      <trkpt lat="45.34379" lon="6.17638">
        <ele>2085.1999511719</ele>
        <time>2014-03-02T14:03:46.000Z</time>
      </trkpt>
      <trkpt lat="45.34379" lon="6.17638">
        <ele>2085.1999511719</ele>
        <time>2014-03-02T14:03:47.000Z</time>
      </trkpt>
      <trkpt lat="45.34379" lon="6.17638">
        <ele>2085.1999511719</ele>
        <time>2014-03-02T14:03:48.000Z</time>
      </trkpt>
      <trkpt lat="45.34379" lon="6.17639">
        <ele>2085.1999511719</ele>
        <time>2014-03-02T14:03:49.000Z</time>
      </trkpt>
      <trkpt lat="45.3438" lon="6.1764">
        <ele>2085.3999023438</ele>
        <time>2014-03-02T14:03:50.000Z</time>
      </trkpt>
      <trkpt lat="45.3438" lon="6.17641">
        <ele>2085.6000976562</ele>
        <time>2014-03-02T14:03:51.000Z</time>
      </trkpt>
      <trkpt lat="45.3438" lon="6.17641">
        <ele>2085.6000976562</ele>
        <time>2014-03-02T14:03:52.000Z</time>
      </trkpt>
      <trkpt lat="45.3438" lon="6.17642">
        <ele>2085.8000488281</ele>
        <time>2014-03-02T14:03:53.000Z</time>
      </trkpt>
      <trkpt lat="45.34379" lon="6.17643">
        <ele>2086</ele>
        <time>2014-03-02T14:03:54.000Z</time>
      </trkpt>
      <trkpt lat="45.34379" lon="6.17643">
        <ele>2086</ele>
        <time>2014-03-02T14:03:55.000Z</time>
      </trkpt>
      <trkpt lat="45.3438" lon="6.17644">
        <ele>2086</ele>
        <time>2014-03-02T14:03:56.000Z</time>
      </trkpt>
      <trkpt lat="45.3438" lon="6.17644">
        <ele>2086</ele>
        <time>2014-03-02T14:03:57.000Z</time>
      </trkpt>
      <trkpt lat="45.3438" lon="6.17645">
        <ele>2086.1999511719</ele>
        <time>2014-03-02T14:03:58.000Z</time>
      </trkpt>
      <trkpt lat="45.3438" lon="6.17645">
        <ele>2086.1999511719</ele>
        <time>2014-03-02T14:03:59.000Z</time>
      </trkpt>
      <trkpt lat="45.3438" lon="6.17646">
        <ele>2086.3999023438</ele>
        <time>2014-03-02T14:04:00.000Z</time>
      </trkpt>
      <trkpt lat="45.3438" lon="6.17647">
        <ele>2086.8000488281</ele>
        <time>2014-03-02T14:04:01.000Z</time>
      </trkpt>
      <trkpt lat="45.3438" lon="6.17649">
        <ele>2087.1999511719</ele>
        <time>2014-03-02T14:04:02.000Z</time>
      </trkpt>
      <trkpt lat="45.3438" lon="6.1765">
        <ele>2087.6000976562</ele>
        <time>2014-03-02T14:04:03.000Z</time>
      </trkpt>
      <trkpt lat="45.3438" lon="6.17651">
        <ele>2088</ele>
        <time>2014-03-02T14:04:04.000Z</time>
      </trkpt>
      <trkpt lat="45.3438" lon="6.17652">
        <ele>2088.1999511719</ele>
        <time>2014-03-02T14:04:05.000Z</time>
      </trkpt>
      <trkpt lat="45.3438" lon="6.17652">
        <ele>2088.1999511719</ele>
        <time>2014-03-02T14:04:06.000Z</time>
      </trkpt>
      <trkpt lat="45.3438" lon="6.17653">
        <ele>2088.6000976562</ele>
        <time>2014-03-02T14:04:07.000Z</time>
      </trkpt>
      <trkpt lat="45.3438" lon="6.17653">
        <ele>2088.6000976562</ele>
        <time>2014-03-02T14:04:08.000Z</time>
      </trkpt>
      <trkpt lat="45.3438" lon="6.17654">
        <ele>2088.8000488281</ele>
        <time>2014-03-02T14:04:09.000Z</time>
      </trkpt>
      <trkpt lat="45.3438" lon="6.17654">
        <ele>2089</ele>
        <time>2014-03-02T14:04:10.000Z</time>
      </trkpt>
      <trkpt lat="45.3438" lon="6.17654">
        <ele>2089</ele>
        <time>2014-03-02T14:04:11.000Z</time>
      </trkpt>
      <trkpt lat="45.3438" lon="6.17655">
        <ele>2089.1999511719</ele>
        <time>2014-03-02T14:04:12.000Z</time>
      </trkpt>
      <trkpt lat="45.3438" lon="6.17656">
        <ele>2089.6000976562</ele>
        <time>2014-03-02T14:04:13.000Z</time>
      </trkpt>
      <trkpt lat="45.34381" lon="6.17657">
        <ele>2089.8000488281</ele>
        <time>2014-03-02T14:04:14.000Z</time>
      </trkpt>
      <trkpt lat="45.34381" lon="6.17657">
        <ele>2089.8000488281</ele>
        <time>2014-03-02T14:04:15.000Z</time>
      </trkpt>
      <trkpt lat="45.34381" lon="6.17659">
        <ele>2090.1999511719</ele>
        <time>2014-03-02T14:04:16.000Z</time>
      </trkpt>
      <trkpt lat="45.34381" lon="6.1766">
        <ele>2090.6000976562</ele>
        <time>2014-03-02T14:04:17.000Z</time>
      </trkpt>
      <trkpt lat="45.34381" lon="6.17661">
        <ele>2090.8000488281</ele>
        <time>2014-03-02T14:04:18.000Z</time>
      </trkpt>
      <trkpt lat="45.34381" lon="6.17662">
        <ele>2091.1999511719</ele>
        <time>2014-03-02T14:04:19.000Z</time>
      </trkpt>
      <trkpt lat="45.34381" lon="6.17663">
        <ele>2091.3999023438</ele>
        <time>2014-03-02T14:04:20.000Z</time>
      </trkpt>
      <trkpt lat="45.34381" lon="6.17663">
        <ele>2091.6000976562</ele>
        <time>2014-03-02T14:04:21.000Z</time>
      </trkpt>
      <trkpt lat="45.34381" lon="6.17663">
        <ele>2091.6000976562</ele>
        <time>2014-03-02T14:04:22.000Z</time>
      </trkpt>
      <trkpt lat="45.34381" lon="6.17664">
        <ele>2091.8000488281</ele>
        <time>2014-03-02T14:04:23.000Z</time>
      </trkpt>
      <trkpt lat="45.34381" lon="6.17665">
        <ele>2092</ele>
        <time>2014-03-02T14:04:24.000Z</time>
      </trkpt>
      <trkpt lat="45.34381" lon="6.17665">
        <ele>2092</ele>
        <time>2014-03-02T14:04:25.000Z</time>
      </trkpt>
      <trkpt lat="45.34381" lon="6.17666">
        <ele>2092.1999511719</ele>
        <time>2014-03-02T14:04:26.000Z</time>
      </trkpt>
      <trkpt lat="45.34381" lon="6.17667">
        <ele>2092.6000976562</ele>
        <time>2014-03-02T14:04:27.000Z</time>
      </trkpt>
      <trkpt lat="45.34381" lon="6.17668">
        <ele>2093</ele>
        <time>2014-03-02T14:04:28.000Z</time>
      </trkpt>
      <trkpt lat="45.34381" lon="6.17668">
        <ele>2093</ele>
        <time>2014-03-02T14:04:29.000Z</time>
      </trkpt>
      <trkpt lat="45.34381" lon="6.17669">
        <ele>2093</ele>
        <time>2014-03-02T14:04:30.000Z</time>
      </trkpt>
      <trkpt lat="45.34381" lon="6.17669">
        <ele>2093</ele>
        <time>2014-03-02T14:04:31.000Z</time>
      </trkpt>
      <trkpt lat="45.34381" lon="6.17669">
        <ele>2093</ele>
        <time>2014-03-02T14:04:32.000Z</time>
      </trkpt>
      <trkpt lat="45.34381" lon="6.1767">
        <ele>2093.1999511719</ele>
        <time>2014-03-02T14:04:33.000Z</time>
      </trkpt>
      <trkpt lat="45.34381" lon="6.1767">
        <ele>2093.1999511719</ele>
        <time>2014-03-02T14:04:34.000Z</time>
      </trkpt>
      <trkpt lat="45.34381" lon="6.17671">
        <ele>2093.6000976562</ele>
        <time>2014-03-02T14:04:35.000Z</time>
      </trkpt>
      <trkpt lat="45.34381" lon="6.17672">
        <ele>2094</ele>
        <time>2014-03-02T14:04:36.000Z</time>
      </trkpt>
      <trkpt lat="45.34381" lon="6.17673">
        <ele>2094.1999511719</ele>
        <time>2014-03-02T14:04:37.000Z</time>
      </trkpt>
      <trkpt lat="45.34381" lon="6.17673">
        <ele>2094.1999511719</ele>
        <time>2014-03-02T14:04:38.000Z</time>
      </trkpt>
      <trkpt lat="45.34381" lon="6.17673">
        <ele>2094.1999511719</ele>
        <time>2014-03-02T14:04:39.000Z</time>
      </trkpt>
      <trkpt lat="45.34381" lon="6.17673">
        <ele>2094.1999511719</ele>
        <time>2014-03-02T14:04:40.000Z</time>
      </trkpt>
      <trkpt lat="45.34381" lon="6.17673">
        <ele>2094.1999511719</ele>
        <time>2014-03-02T14:04:41.000Z</time>
      </trkpt>
      <trkpt lat="45.34381" lon="6.17673">
        <ele>2094.1999511719</ele>
        <time>2014-03-02T14:04:42.000Z</time>
      </trkpt>
      <trkpt lat="45.34381" lon="6.17673">
        <ele>2094.1999511719</ele>
        <time>2014-03-02T14:04:43.000Z</time>
      </trkpt>
      <trkpt lat="45.34381" lon="6.17673">
        <ele>2094.1999511719</ele>
        <time>2014-03-02T14:04:44.000Z</time>
      </trkpt>
      <trkpt lat="45.34381" lon="6.17673">
        <ele>2094.3999023438</ele>
        <time>2014-03-02T14:04:45.000Z</time>
      </trkpt>
      <trkpt lat="45.34381" lon="6.17673">
        <ele>2094.3999023438</ele>
        <time>2014-03-02T14:04:46.000Z</time>
      </trkpt>
      <trkpt lat="45.3438" lon="6.17674">
        <ele>2094.8000488281</ele>
        <time>2014-03-02T14:04:48.000Z</time>
      </trkpt>
      <trkpt lat="45.3438" lon="6.17674">
        <ele>2095</ele>
        <time>2014-03-02T14:04:49.000Z</time>
      </trkpt>
      <trkpt lat="45.34379" lon="6.17674">
        <ele>2095</ele>
        <time>2014-03-02T14:04:50.000Z</time>
      </trkpt>
      <trkpt lat="45.34378" lon="6.17674">
        <ele>2095</ele>
        <time>2014-03-02T14:04:51.000Z</time>
      </trkpt>
      <trkpt lat="45.34378" lon="6.17674">
        <ele>2095.1999511719</ele>
        <time>2014-03-02T14:04:52.000Z</time>
      </trkpt>
      <trkpt lat="45.34376" lon="6.17674">
        <ele>2095.1999511719</ele>
        <time>2014-03-02T14:04:53.000Z</time>
      </trkpt>
      <trkpt lat="45.34376" lon="6.17674">
        <ele>2095.3999023438</ele>
        <time>2014-03-02T14:04:54.000Z</time>
      </trkpt>
      <trkpt lat="45.34376" lon="6.17674">
        <ele>2095.3999023438</ele>
        <time>2014-03-02T14:04:55.000Z</time>
      </trkpt>
      <trkpt lat="45.34376" lon="6.17673">
        <ele>2095.1999511719</ele>
        <time>2014-03-02T14:04:56.000Z</time>
      </trkpt>
      <trkpt lat="45.34376" lon="6.17673">
        <ele>2095.1999511719</ele>
        <time>2014-03-02T14:04:57.000Z</time>
      </trkpt>
      <trkpt lat="45.34375" lon="6.17673">
        <ele>2095.1999511719</ele>
        <time>2014-03-02T14:04:58.000Z</time>
      </trkpt>
      <trkpt lat="45.34375" lon="6.17672">
        <ele>2095.1999511719</ele>
        <time>2014-03-02T14:04:59.000Z</time>
      </trkpt>
      <trkpt lat="45.34373" lon="6.17673">
        <ele>2095.6000976562</ele>
        <time>2014-03-02T14:05:00.000Z</time>
      </trkpt>
      <trkpt lat="45.34373" lon="6.17673">
        <ele>2095.6000976562</ele>
        <time>2014-03-02T14:05:01.000Z</time>
      </trkpt>
      <trkpt lat="45.34373" lon="6.17673">
        <ele>2095.6000976562</ele>
        <time>2014-03-02T14:05:02.000Z</time>
      </trkpt>
      <trkpt lat="45.34373" lon="6.17674">
        <ele>2095.8000488281</ele>
        <time>2014-03-02T14:05:03.000Z</time>
      </trkpt>
      <trkpt lat="45.34372" lon="6.17675">
        <ele>2096.1999511719</ele>
        <time>2014-03-02T14:05:04.000Z</time>
      </trkpt>
      <trkpt lat="45.34372" lon="6.17675">
        <ele>2096.1999511719</ele>
        <time>2014-03-02T14:05:05.000Z</time>
      </trkpt>
      <trkpt lat="45.34372" lon="6.17674">
        <ele>2096</ele>
        <time>2014-03-02T14:05:06.000Z</time>
      </trkpt>
      <trkpt lat="45.34372" lon="6.17675">
        <ele>2096.1999511719</ele>
        <time>2014-03-02T14:05:07.000Z</time>
      </trkpt>
      <trkpt lat="45.34372" lon="6.17675">
        <ele>2096.1999511719</ele>
        <time>2014-03-02T14:05:08.000Z</time>
      </trkpt>
      <trkpt lat="45.34371" lon="6.17676">
        <ele>2096.6000976562</ele>
        <time>2014-03-02T14:05:09.000Z</time>
      </trkpt>
      <trkpt lat="45.34371" lon="6.17675">
        <ele>2096.3999023438</ele>
        <time>2014-03-02T14:05:10.000Z</time>
      </trkpt>
      <trkpt lat="45.3437" lon="6.17676">
        <ele>2096.8000488281</ele>
        <time>2014-03-02T14:05:11.000Z</time>
      </trkpt>
      <trkpt lat="45.34371" lon="6.17676">
        <ele>2096.6000976562</ele>
        <time>2014-03-02T14:05:12.000Z</time>
      </trkpt>
      <trkpt lat="45.34371" lon="6.17676">
        <ele>2096.6000976562</ele>
        <time>2014-03-02T14:05:13.000Z</time>
      </trkpt>
      <trkpt lat="45.34371" lon="6.17676">
        <ele>2096.8000488281</ele>
        <time>2014-03-02T14:05:14.000Z</time>
      </trkpt>
      <trkpt lat="45.34371" lon="6.17676">
        <ele>2096.8000488281</ele>
        <time>2014-03-02T14:05:15.000Z</time>
      </trkpt>
      <trkpt lat="45.3437" lon="6.17677">
        <ele>2097</ele>
        <time>2014-03-02T14:05:16.000Z</time>
      </trkpt>
      <trkpt lat="45.34371" lon="6.17677">
        <ele>2097</ele>
        <time>2014-03-02T14:05:17.000Z</time>
      </trkpt>
      <trkpt lat="45.3437" lon="6.17678">
        <ele>2097.3999023438</ele>
        <time>2014-03-02T14:05:18.000Z</time>
      </trkpt>
      <trkpt lat="45.34371" lon="6.17678">
        <ele>2097.3999023438</ele>
        <time>2014-03-02T14:05:19.000Z</time>
      </trkpt>
      <trkpt lat="45.34371" lon="6.17678">
        <ele>2097.3999023438</ele>
        <time>2014-03-02T14:05:20.000Z</time>
      </trkpt>
      <trkpt lat="45.34371" lon="6.17679">
        <ele>2097.8000488281</ele>
        <time>2014-03-02T14:05:21.000Z</time>
      </trkpt>
      <trkpt lat="45.34371" lon="6.1768">
        <ele>2097.8000488281</ele>
        <time>2014-03-02T14:05:22.000Z</time>
      </trkpt>
      <trkpt lat="45.34371" lon="6.17681">
        <ele>2098</ele>
        <time>2014-03-02T14:05:23.000Z</time>
      </trkpt>
      <trkpt lat="45.34372" lon="6.1768">
        <ele>2097.8000488281</ele>
        <time>2014-03-02T14:05:24.000Z</time>
      </trkpt>
      <trkpt lat="45.34372" lon="6.1768">
        <ele>2097.8000488281</ele>
        <time>2014-03-02T14:05:25.000Z</time>
      </trkpt>
      <trkpt lat="45.34373" lon="6.17681">
        <ele>2097.8000488281</ele>
        <time>2014-03-02T14:05:26.000Z</time>
      </trkpt>
      <trkpt lat="45.34373" lon="6.17681">
        <ele>2097.8000488281</ele>
        <time>2014-03-02T14:05:27.000Z</time>
      </trkpt>
      <trkpt lat="45.34373" lon="6.17682">
        <ele>2098.1999511719</ele>
        <time>2014-03-02T14:05:28.000Z</time>
      </trkpt>
      <trkpt lat="45.34373" lon="6.17683">
        <ele>2098.6000976562</ele>
        <time>2014-03-02T14:05:29.000Z</time>
      </trkpt>
      <trkpt lat="45.34373" lon="6.17683">
        <ele>2098.8000488281</ele>
        <time>2014-03-02T14:05:30.000Z</time>
      </trkpt>
      <trkpt lat="45.34372" lon="6.17684">
        <ele>2099</ele>
        <time>2014-03-02T14:05:31.000Z</time>
      </trkpt>
      <trkpt lat="45.34372" lon="6.17684">
        <ele>2099</ele>
        <time>2014-03-02T14:05:32.000Z</time>
      </trkpt>
      <trkpt lat="45.34372" lon="6.17684">
        <ele>2099</ele>
        <time>2014-03-02T14:05:33.000Z</time>
      </trkpt>
      <trkpt lat="45.34372" lon="6.17684">
        <ele>2099</ele>
        <time>2014-03-02T14:05:34.000Z</time>
      </trkpt>
      <trkpt lat="45.34372" lon="6.17685">
        <ele>2099.1999511719</ele>
        <time>2014-03-02T14:05:35.000Z</time>
      </trkpt>
      <trkpt lat="45.34372" lon="6.17685">
        <ele>2099.1999511719</ele>
        <time>2014-03-02T14:05:36.000Z</time>
      </trkpt>
      <trkpt lat="45.34372" lon="6.17686">
        <ele>2099.6000976562</ele>
        <time>2014-03-02T14:05:37.000Z</time>
      </trkpt>
      <trkpt lat="45.34371" lon="6.17688">
        <ele>2100.3999023438</ele>
        <time>2014-03-02T14:05:38.000Z</time>
      </trkpt>
      <trkpt lat="45.34371" lon="6.17689">
        <ele>2100.6000976562</ele>
        <time>2014-03-02T14:05:39.000Z</time>
      </trkpt>
      <trkpt lat="45.3437" lon="6.1769">
        <ele>2101</ele>
        <time>2014-03-02T14:05:40.000Z</time>
      </trkpt>
      <trkpt lat="45.34369" lon="6.17692">
        <ele>2101.8000488281</ele>
        <time>2014-03-02T14:05:41.000Z</time>
      </trkpt>
      <trkpt lat="45.34369" lon="6.17693">
        <ele>2102.1999511719</ele>
        <time>2014-03-02T14:05:42.000Z</time>
      </trkpt>
      <trkpt lat="45.34369" lon="6.17693">
        <ele>2102.1999511719</ele>
        <time>2014-03-02T14:05:43.000Z</time>
      </trkpt>
      <trkpt lat="45.34369" lon="6.17693">
        <ele>2102.1999511719</ele>
        <time>2014-03-02T14:05:44.000Z</time>
      </trkpt>
      <trkpt lat="45.34369" lon="6.17693">
        <ele>2102.1999511719</ele>
        <time>2014-03-02T14:05:45.000Z</time>
      </trkpt>
      <trkpt lat="45.34369" lon="6.17693">
        <ele>2102.1999511719</ele>
        <time>2014-03-02T14:05:46.000Z</time>
      </trkpt>
      <trkpt lat="45.34369" lon="6.17693">
        <ele>2102.1999511719</ele>
        <time>2014-03-02T14:05:47.000Z</time>
      </trkpt>
      <trkpt lat="45.34369" lon="6.17693">
        <ele>2102.1999511719</ele>
        <time>2014-03-02T14:05:48.000Z</time>
      </trkpt>
      <trkpt lat="45.34369" lon="6.17693">
        <ele>2102.1999511719</ele>
        <time>2014-03-02T14:05:49.000Z</time>
      </trkpt>
      <trkpt lat="45.34369" lon="6.17693">
        <ele>2102.1999511719</ele>
        <time>2014-03-02T14:05:50.000Z</time>
      </trkpt>
      <trkpt lat="45.34368" lon="6.17694">
        <ele>2102.6000976562</ele>
        <time>2014-03-02T14:05:51.000Z</time>
      </trkpt>
      <trkpt lat="45.34368" lon="6.17694">
        <ele>2102.6000976562</ele>
        <time>2014-03-02T14:05:52.000Z</time>
      </trkpt>
      <trkpt lat="45.34368" lon="6.17696">
        <ele>2103</ele>
        <time>2014-03-02T14:05:53.000Z</time>
      </trkpt>
      <trkpt lat="45.34367" lon="6.17698">
        <ele>2104</ele>
        <time>2014-03-02T14:05:55.000Z</time>
      </trkpt>
      <trkpt lat="45.34366" lon="6.177">
        <ele>2104.3999023438</ele>
        <time>2014-03-02T14:05:56.000Z</time>
      </trkpt>
      <trkpt lat="45.34366" lon="6.177">
        <ele>2104.3999023438</ele>
        <time>2014-03-02T14:05:57.000Z</time>
      </trkpt>
      <trkpt lat="45.34365" lon="6.17701">
        <ele>2105</ele>
        <time>2014-03-02T14:05:58.000Z</time>
      </trkpt>
      <trkpt lat="45.34365" lon="6.17701">
        <ele>2105</ele>
        <time>2014-03-02T14:05:59.000Z</time>
      </trkpt>
      <trkpt lat="45.34365" lon="6.17701">
        <ele>2105</ele>
        <time>2014-03-02T14:06:00.000Z</time>
      </trkpt>
      <trkpt lat="45.34365" lon="6.17702">
        <ele>2105.1999511719</ele>
        <time>2014-03-02T14:06:01.000Z</time>
      </trkpt>
      <trkpt lat="45.34364" lon="6.17702">
        <ele>2105.6000976562</ele>
        <time>2014-03-02T14:06:02.000Z</time>
      </trkpt>
      <trkpt lat="45.34363" lon="6.17703">
        <ele>2106</ele>
        <time>2014-03-02T14:06:03.000Z</time>
      </trkpt>
      <trkpt lat="45.34363" lon="6.17703">
        <ele>2106</ele>
        <time>2014-03-02T14:06:04.000Z</time>
      </trkpt>
      <trkpt lat="45.34362" lon="6.17704">
        <ele>2106.1999511719</ele>
        <time>2014-03-02T14:06:06.000Z</time>
      </trkpt>
      <trkpt lat="45.34362" lon="6.17704">
        <ele>2106.3999023438</ele>
        <time>2014-03-02T14:06:07.000Z</time>
      </trkpt>
      <trkpt lat="45.34361" lon="6.17705">
        <ele>2106.8000488281</ele>
        <time>2014-03-02T14:06:08.000Z</time>
      </trkpt>
      <trkpt lat="45.34361" lon="6.17705">
        <ele>2106.8000488281</ele>
        <time>2014-03-02T14:06:09.000Z</time>
      </trkpt>
      <trkpt lat="45.3436" lon="6.17706">
        <ele>2107.1999511719</ele>
        <time>2014-03-02T14:06:10.000Z</time>
      </trkpt>
      <trkpt lat="45.34359" lon="6.17708">
        <ele>2107.6000976562</ele>
        <time>2014-03-02T14:06:11.000Z</time>
      </trkpt>
      <trkpt lat="45.34359" lon="6.17708">
        <ele>2107.6000976562</ele>
        <time>2014-03-02T14:06:12.000Z</time>
      </trkpt>
      <trkpt lat="45.34358" lon="6.1771">
        <ele>2108</ele>
        <time>2014-03-02T14:06:13.000Z</time>
      </trkpt>
      <trkpt lat="45.34358" lon="6.1771">
        <ele>2108</ele>
        <time>2014-03-02T14:06:14.000Z</time>
      </trkpt>
      <trkpt lat="45.34358" lon="6.1771">
        <ele>2108</ele>
        <time>2014-03-02T14:06:15.000Z</time>
      </trkpt>
      <trkpt lat="45.34357" lon="6.1771">
        <ele>2108</ele>
        <time>2014-03-02T14:06:16.000Z</time>
      </trkpt>
      <trkpt lat="45.34356" lon="6.17711">
        <ele>2108.1999511719</ele>
        <time>2014-03-02T14:06:17.000Z</time>
      </trkpt>
      <trkpt lat="45.34355" lon="6.17712">
        <ele>2108.1999511719</ele>
        <time>2014-03-02T14:06:18.000Z</time>
      </trkpt>
      <trkpt lat="45.34355" lon="6.17712">
        <ele>2108.1999511719</ele>
        <time>2014-03-02T14:06:19.000Z</time>
      </trkpt>
      <trkpt lat="45.34355" lon="6.17712">
        <ele>2108.1999511719</ele>
        <time>2014-03-02T14:06:20.000Z</time>
      </trkpt>
      <trkpt lat="45.34354" lon="6.17712">
        <ele>2108.3999023438</ele>
        <time>2014-03-02T14:06:21.000Z</time>
      </trkpt>
      <trkpt lat="45.34353" lon="6.17714">
        <ele>2108.6000976562</ele>
        <time>2014-03-02T14:06:22.000Z</time>
      </trkpt>
      <trkpt lat="45.34353" lon="6.17714">
        <ele>2108.6000976562</ele>
        <time>2014-03-02T14:06:23.000Z</time>
      </trkpt>
      <trkpt lat="45.34353" lon="6.17714">
        <ele>2108.6000976562</ele>
        <time>2014-03-02T14:06:24.000Z</time>
      </trkpt>
      <trkpt lat="45.34353" lon="6.17714">
        <ele>2108.6000976562</ele>
        <time>2014-03-02T14:06:25.000Z</time>
      </trkpt>
      <trkpt lat="45.34353" lon="6.17714">
        <ele>2108.6000976562</ele>
        <time>2014-03-02T14:06:26.000Z</time>
      </trkpt>
      <trkpt lat="45.34353" lon="6.17714">
        <ele>2108.6000976562</ele>
        <time>2014-03-02T14:06:27.000Z</time>
      </trkpt>
      <trkpt lat="45.34353" lon="6.17714">
        <ele>2108.6000976562</ele>
        <time>2014-03-02T14:06:28.000Z</time>
      </trkpt>
      <trkpt lat="45.34353" lon="6.17714">
        <ele>2108.6000976562</ele>
        <time>2014-03-02T14:06:29.000Z</time>
      </trkpt>
      <trkpt lat="45.34353" lon="6.17714">
        <ele>2108.6000976562</ele>
        <time>2014-03-02T14:06:30.000Z</time>
      </trkpt>
      <trkpt lat="45.34353" lon="6.17714">
        <ele>2108.6000976562</ele>
        <time>2014-03-02T14:06:31.000Z</time>
      </trkpt>
      <trkpt lat="45.34353" lon="6.17714">
        <ele>2108.6000976562</ele>
        <time>2014-03-02T14:06:32.000Z</time>
      </trkpt>
      <trkpt lat="45.34353" lon="6.17714">
        <ele>2108.6000976562</ele>
        <time>2014-03-02T14:06:33.000Z</time>
      </trkpt>
      <trkpt lat="45.34353" lon="6.17714">
        <ele>2108.6000976562</ele>
        <time>2014-03-02T14:06:34.000Z</time>
      </trkpt>
      <trkpt lat="45.34353" lon="6.17714">
        <ele>2108.6000976562</ele>
        <time>2014-03-02T14:06:35.000Z</time>
      </trkpt>
      <trkpt lat="45.34353" lon="6.17714">
        <ele>2108.6000976562</ele>
        <time>2014-03-02T14:06:36.000Z</time>
      </trkpt>
      <trkpt lat="45.34353" lon="6.17715">
        <ele>2108.8000488281</ele>
        <time>2014-03-02T14:06:37.000Z</time>
      </trkpt>
      <trkpt lat="45.34353" lon="6.17717">
        <ele>2109</ele>
        <time>2014-03-02T14:06:38.000Z</time>
      </trkpt>
      <trkpt lat="45.34353" lon="6.17717">
        <ele>2109</ele>
        <time>2014-03-02T14:06:39.000Z</time>
      </trkpt>
      <trkpt lat="45.34353" lon="6.17718">
        <ele>2109.3999023438</ele>
        <time>2014-03-02T14:06:40.000Z</time>
      </trkpt>
      <trkpt lat="45.34352" lon="6.1772">
        <ele>2109.6000976562</ele>
        <time>2014-03-02T14:06:41.000Z</time>
      </trkpt>
      <trkpt lat="45.34352" lon="6.17721">
        <ele>2109.8000488281</ele>
        <time>2014-03-02T14:06:42.000Z</time>
      </trkpt>
      <trkpt lat="45.34352" lon="6.17722">
        <ele>2110</ele>
        <time>2014-03-02T14:06:43.000Z</time>
      </trkpt>
      <trkpt lat="45.34352" lon="6.17722">
        <ele>2110</ele>
        <time>2014-03-02T14:06:44.000Z</time>
      </trkpt>
      <trkpt lat="45.34352" lon="6.17722">
        <ele>2110</ele>
        <time>2014-03-02T14:06:45.000Z</time>
      </trkpt>
      <trkpt lat="45.34351" lon="6.17723">
        <ele>2110.1999511719</ele>
        <time>2014-03-02T14:06:46.000Z</time>
      </trkpt>
      <trkpt lat="45.3435" lon="6.17724">
        <ele>2110.1999511719</ele>
        <time>2014-03-02T14:06:47.000Z</time>
      </trkpt>
      <trkpt lat="45.3435" lon="6.17724">
        <ele>2110.1999511719</ele>
        <time>2014-03-02T14:06:48.000Z</time>
      </trkpt>
      <trkpt lat="45.34349" lon="6.17725">
        <ele>2110.3999023438</ele>
        <time>2014-03-02T14:06:49.000Z</time>
      </trkpt>
      <trkpt lat="45.34349" lon="6.17725">
        <ele>2110.3999023438</ele>
        <time>2014-03-02T14:06:50.000Z</time>
      </trkpt>
      <trkpt lat="45.34349" lon="6.17725">
        <ele>2110.6000976562</ele>
        <time>2014-03-02T14:06:51.000Z</time>
      </trkpt>
      <trkpt lat="45.34349" lon="6.17725">
        <ele>2110.6000976562</ele>
        <time>2014-03-02T14:06:52.000Z</time>
      </trkpt>
      <trkpt lat="45.34349" lon="6.17725">
        <ele>2110.6000976562</ele>
        <time>2014-03-02T14:06:53.000Z</time>
      </trkpt>
      <trkpt lat="45.34348" lon="6.17726">
        <ele>2110.6000976562</ele>
        <time>2014-03-02T14:06:54.000Z</time>
      </trkpt>
      <trkpt lat="45.34348" lon="6.17727">
        <ele>2110.8000488281</ele>
        <time>2014-03-02T14:06:55.000Z</time>
      </trkpt>
      <trkpt lat="45.34348" lon="6.17727">
        <ele>2110.8000488281</ele>
        <time>2014-03-02T14:06:56.000Z</time>
      </trkpt>
      <trkpt lat="45.34347" lon="6.17727">
        <ele>2110.8000488281</ele>
        <time>2014-03-02T14:06:57.000Z</time>
      </trkpt>
      <trkpt lat="45.34347" lon="6.17727">
        <ele>2110.8000488281</ele>
        <time>2014-03-02T14:06:58.000Z</time>
      </trkpt>
      <trkpt lat="45.34346" lon="6.17728">
        <ele>2111</ele>
        <time>2014-03-02T14:06:59.000Z</time>
      </trkpt>
      <trkpt lat="45.34345" lon="6.17729">
        <ele>2111.3999023438</ele>
        <time>2014-03-02T14:07:00.000Z</time>
      </trkpt>
      <trkpt lat="45.34345" lon="6.17729">
        <ele>2111.8000488281</ele>
        <time>2014-03-02T14:07:01.000Z</time>
      </trkpt>
      <trkpt lat="45.34345" lon="6.17729">
        <ele>2111.6000976562</ele>
        <time>2014-03-02T14:07:02.000Z</time>
      </trkpt>
      <trkpt lat="45.34344" lon="6.1773">
        <ele>2111.8000488281</ele>
        <time>2014-03-02T14:07:03.000Z</time>
      </trkpt>
      <trkpt lat="45.34344" lon="6.1773">
        <ele>2112.1999511719</ele>
        <time>2014-03-02T14:07:04.000Z</time>
      </trkpt>
      <trkpt lat="45.34344" lon="6.1773">
        <ele>2112.1999511719</ele>
        <time>2014-03-02T14:07:05.000Z</time>
      </trkpt>
      <trkpt lat="45.34343" lon="6.17731">
        <ele>2112.6000976562</ele>
        <time>2014-03-02T14:07:06.000Z</time>
      </trkpt>
      <trkpt lat="45.34343" lon="6.17731">
        <ele>2112.6000976562</ele>
        <time>2014-03-02T14:07:07.000Z</time>
      </trkpt>
      <trkpt lat="45.34343" lon="6.17732">
        <ele>2113</ele>
        <time>2014-03-02T14:07:08.000Z</time>
      </trkpt>
      <trkpt lat="45.34343" lon="6.17732">
        <ele>2113</ele>
        <time>2014-03-02T14:07:09.000Z</time>
      </trkpt>
      <trkpt lat="45.34342" lon="6.17733">
        <ele>2113.3999023438</ele>
        <time>2014-03-02T14:07:10.000Z</time>
      </trkpt>
      <trkpt lat="45.34341" lon="6.17733">
        <ele>2113.6000976562</ele>
        <time>2014-03-02T14:07:11.000Z</time>
      </trkpt>
      <trkpt lat="45.34341" lon="6.17733">
        <ele>2113.6000976562</ele>
        <time>2014-03-02T14:07:12.000Z</time>
      </trkpt>
      <trkpt lat="45.3434" lon="6.17734">
        <ele>2114</ele>
        <time>2014-03-02T14:07:13.000Z</time>
      </trkpt>
      <trkpt lat="45.3434" lon="6.17734">
        <ele>2114</ele>
        <time>2014-03-02T14:07:14.000Z</time>
      </trkpt>
      <trkpt lat="45.3434" lon="6.17734">
        <ele>2114.1999511719</ele>
        <time>2014-03-02T14:07:15.000Z</time>
      </trkpt>
      <trkpt lat="45.3434" lon="6.17734">
        <ele>2114.1999511719</ele>
        <time>2014-03-02T14:07:16.000Z</time>
      </trkpt>
      <trkpt lat="45.34339" lon="6.17735">
        <ele>2114.8000488281</ele>
        <time>2014-03-02T14:07:17.000Z</time>
      </trkpt>
      <trkpt lat="45.34339" lon="6.17735">
        <ele>2114.8000488281</ele>
        <time>2014-03-02T14:07:18.000Z</time>
      </trkpt>
      <trkpt lat="45.34339" lon="6.17735">
        <ele>2114.8000488281</ele>
        <time>2014-03-02T14:07:19.000Z</time>
      </trkpt>
      <trkpt lat="45.34337" lon="6.17737">
        <ele>2115.6000976562</ele>
        <time>2014-03-02T14:07:20.000Z</time>
      </trkpt>
      <trkpt lat="45.34337" lon="6.17737">
        <ele>2115.6000976562</ele>
        <time>2014-03-02T14:07:21.000Z</time>
      </trkpt>
      <trkpt lat="45.34337" lon="6.17737">
        <ele>2115.8000488281</ele>
        <time>2014-03-02T14:07:22.000Z</time>
      </trkpt>
      <trkpt lat="45.34337" lon="6.17737">
        <ele>2115.8000488281</ele>
        <time>2014-03-02T14:07:23.000Z</time>
      </trkpt>
      <trkpt lat="45.34336" lon="6.17738">
        <ele>2116.1999511719</ele>
        <time>2014-03-02T14:07:24.000Z</time>
      </trkpt>
      <trkpt lat="45.34336" lon="6.17738">
        <ele>2116.1999511719</ele>
        <time>2014-03-02T14:07:25.000Z</time>
      </trkpt>
      <trkpt lat="45.34336" lon="6.17738">
        <ele>2116.1999511719</ele>
        <time>2014-03-02T14:07:26.000Z</time>
      </trkpt>
      <trkpt lat="45.34336" lon="6.17739">
        <ele>2116.6000976562</ele>
        <time>2014-03-02T14:07:27.000Z</time>
      </trkpt>
      <trkpt lat="45.34336" lon="6.17739">
        <ele>2116.6000976562</ele>
        <time>2014-03-02T14:07:28.000Z</time>
      </trkpt>
      <trkpt lat="45.34336" lon="6.17739">
        <ele>2116.8000488281</ele>
        <time>2014-03-02T14:07:29.000Z</time>
      </trkpt>
      <trkpt lat="45.34336" lon="6.17739">
        <ele>2116.8000488281</ele>
        <time>2014-03-02T14:07:30.000Z</time>
      </trkpt>
      <trkpt lat="45.34335" lon="6.1774">
        <ele>2117.1999511719</ele>
        <time>2014-03-02T14:07:31.000Z</time>
      </trkpt>
      <trkpt lat="45.34335" lon="6.1774">
        <ele>2117.1999511719</ele>
        <time>2014-03-02T14:07:32.000Z</time>
      </trkpt>
      <trkpt lat="45.34335" lon="6.1774">
        <ele>2117.1999511719</ele>
        <time>2014-03-02T14:07:33.000Z</time>
      </trkpt>
      <trkpt lat="45.34335" lon="6.1774">
        <ele>2117.1999511719</ele>
        <time>2014-03-02T14:07:34.000Z</time>
      </trkpt>
      <trkpt lat="45.34335" lon="6.1774">
        <ele>2117.1999511719</ele>
        <time>2014-03-02T14:07:35.000Z</time>
      </trkpt>
      <trkpt lat="45.34335" lon="6.1774">
        <ele>2117.1999511719</ele>
        <time>2014-03-02T14:07:36.000Z</time>
      </trkpt>
      <trkpt lat="45.34335" lon="6.1774">
        <ele>2117.1999511719</ele>
        <time>2014-03-02T14:07:37.000Z</time>
      </trkpt>
      <trkpt lat="45.34335" lon="6.1774">
        <ele>2117.1999511719</ele>
        <time>2014-03-02T14:07:38.000Z</time>
      </trkpt>
      <trkpt lat="45.34335" lon="6.1774">
        <ele>2117.1999511719</ele>
        <time>2014-03-02T14:07:39.000Z</time>
      </trkpt>
      <trkpt lat="45.34335" lon="6.1774">
        <ele>2117.1999511719</ele>
        <time>2014-03-02T14:07:40.000Z</time>
      </trkpt>
      <trkpt lat="45.34335" lon="6.1774">
        <ele>2117.1999511719</ele>
        <time>2014-03-02T14:07:41.000Z</time>
      </trkpt>
      <trkpt lat="45.34335" lon="6.1774">
        <ele>2117.1999511719</ele>
        <time>2014-03-02T14:07:42.000Z</time>
      </trkpt>
      <trkpt lat="45.34335" lon="6.1774">
        <ele>2117.1999511719</ele>
        <time>2014-03-02T14:07:44.000Z</time>
      </trkpt>
      <trkpt lat="45.34335" lon="6.1774">
        <ele>2117.1999511719</ele>
        <time>2014-03-02T14:07:45.000Z</time>
      </trkpt>
      <trkpt lat="45.34335" lon="6.1774">
        <ele>2117.1999511719</ele>
        <time>2014-03-02T14:07:46.000Z</time>
      </trkpt>
      <trkpt lat="45.34335" lon="6.1774">
        <ele>2117.1999511719</ele>
        <time>2014-03-02T14:07:47.000Z</time>
      </trkpt>
      <trkpt lat="45.34335" lon="6.1774">
        <ele>2117.1999511719</ele>
        <time>2014-03-02T14:07:48.000Z</time>
      </trkpt>
      <trkpt lat="45.34335" lon="6.1774">
        <ele>2117.1999511719</ele>
        <time>2014-03-02T14:07:49.000Z</time>
      </trkpt>
      <trkpt lat="45.34335" lon="6.1774">
        <ele>2117.1999511719</ele>
        <time>2014-03-02T14:07:50.000Z</time>
      </trkpt>
      <trkpt lat="45.34335" lon="6.1774">
        <ele>2117.1999511719</ele>
        <time>2014-03-02T14:07:51.000Z</time>
      </trkpt>
      <trkpt lat="45.34335" lon="6.1774">
        <ele>2117.1999511719</ele>
        <time>2014-03-02T14:07:52.000Z</time>
      </trkpt>
      <trkpt lat="45.34335" lon="6.1774">
        <ele>2117.1999511719</ele>
        <time>2014-03-02T14:07:53.000Z</time>
      </trkpt>
      <trkpt lat="45.34335" lon="6.1774">
        <ele>2117.1999511719</ele>
        <time>2014-03-02T14:07:54.000Z</time>
      </trkpt>
      <trkpt lat="45.34335" lon="6.1774">
        <ele>2117.1999511719</ele>
        <time>2014-03-02T14:07:55.000Z</time>
      </trkpt>
      <trkpt lat="45.34335" lon="6.1774">
        <ele>2117.1999511719</ele>
        <time>2014-03-02T14:07:56.000Z</time>
      </trkpt>
      <trkpt lat="45.34335" lon="6.1774">
        <ele>2117.1999511719</ele>
        <time>2014-03-02T14:07:57.000Z</time>
      </trkpt>
      <trkpt lat="45.34335" lon="6.1774">
        <ele>2117.1999511719</ele>
        <time>2014-03-02T14:07:58.000Z</time>
      </trkpt>
      <trkpt lat="45.34335" lon="6.1774">
        <ele>2117.1999511719</ele>
        <time>2014-03-02T14:07:59.000Z</time>
      </trkpt>
      <trkpt lat="45.34335" lon="6.1774">
        <ele>2117.1999511719</ele>
        <time>2014-03-02T14:08:00.000Z</time>
      </trkpt>
      <trkpt lat="45.34335" lon="6.1774">
        <ele>2117.1999511719</ele>
        <time>2014-03-02T14:08:01.000Z</time>
      </trkpt>
      <trkpt lat="45.34334" lon="6.17741">
        <ele>2117.6000976562</ele>
        <time>2014-03-02T14:08:02.000Z</time>
      </trkpt>
      <trkpt lat="45.34334" lon="6.17741">
        <ele>2117.6000976562</ele>
        <time>2014-03-02T14:08:03.000Z</time>
      </trkpt>
      <trkpt lat="45.34334" lon="6.17741">
        <ele>2117.6000976562</ele>
        <time>2014-03-02T14:08:04.000Z</time>
      </trkpt>
      <trkpt lat="45.34334" lon="6.17741">
        <ele>2117.6000976562</ele>
        <time>2014-03-02T14:08:05.000Z</time>
      </trkpt>
      <trkpt lat="45.34334" lon="6.17741">
        <ele>2117.6000976562</ele>
        <time>2014-03-02T14:08:06.000Z</time>
      </trkpt>
      <trkpt lat="45.34334" lon="6.17741">
        <ele>2117.6000976562</ele>
        <time>2014-03-02T14:08:07.000Z</time>
      </trkpt>
      <trkpt lat="45.34334" lon="6.17741">
        <ele>2118</ele>
        <time>2014-03-02T14:08:09.000Z</time>
      </trkpt>
      <trkpt lat="45.34334" lon="6.17742">
        <ele>2118</ele>
        <time>2014-03-02T14:08:10.000Z</time>
      </trkpt>
      <trkpt lat="45.34333" lon="6.17742">
        <ele>2118.3999023438</ele>
        <time>2014-03-02T14:08:11.000Z</time>
      </trkpt>
      <trkpt lat="45.34333" lon="6.17744">
        <ele>2119</ele>
        <time>2014-03-02T14:08:12.000Z</time>
      </trkpt>
      <trkpt lat="45.34332" lon="6.17745">
        <ele>2119.6000976562</ele>
        <time>2014-03-02T14:08:13.000Z</time>
      </trkpt>
      <trkpt lat="45.34331" lon="6.17746">
        <ele>2120.3999023438</ele>
        <time>2014-03-02T14:08:14.000Z</time>
      </trkpt>
      <trkpt lat="45.34331" lon="6.17747">
        <ele>2121</ele>
        <time>2014-03-02T14:08:15.000Z</time>
      </trkpt>
      <trkpt lat="45.3433" lon="6.17749">
        <ele>2121.6000976562</ele>
        <time>2014-03-02T14:08:16.000Z</time>
      </trkpt>
      <trkpt lat="45.3433" lon="6.1775">
        <ele>2122.1999511719</ele>
        <time>2014-03-02T14:08:17.000Z</time>
      </trkpt>
      <trkpt lat="45.3433" lon="6.17751">
        <ele>2123</ele>
        <time>2014-03-02T14:08:18.000Z</time>
      </trkpt>
      <trkpt lat="45.34329" lon="6.17753">
        <ele>2123.8000488281</ele>
        <time>2014-03-02T14:08:19.000Z</time>
      </trkpt>
      <trkpt lat="45.34329" lon="6.17754">
        <ele>2124.3999023438</ele>
        <time>2014-03-02T14:08:20.000Z</time>
      </trkpt>
      <trkpt lat="45.34329" lon="6.17755">
        <ele>2125</ele>
        <time>2014-03-02T14:08:21.000Z</time>
      </trkpt>
      <trkpt lat="45.34329" lon="6.17755">
        <ele>2125</ele>
        <time>2014-03-02T14:08:22.000Z</time>
      </trkpt>
      <trkpt lat="45.34329" lon="6.17756">
        <ele>2125.3999023438</ele>
        <time>2014-03-02T14:08:23.000Z</time>
      </trkpt>
      <trkpt lat="45.34329" lon="6.17756">
        <ele>2125.3999023438</ele>
        <time>2014-03-02T14:08:24.000Z</time>
      </trkpt>
      <trkpt lat="45.34329" lon="6.17757">
        <ele>2126</ele>
        <time>2014-03-02T14:08:25.000Z</time>
      </trkpt>
      <trkpt lat="45.34329" lon="6.17757">
        <ele>2126</ele>
        <time>2014-03-02T14:08:26.000Z</time>
      </trkpt>
      <trkpt lat="45.34329" lon="6.17759">
        <ele>2126.8000488281</ele>
        <time>2014-03-02T14:08:27.000Z</time>
      </trkpt>
      <trkpt lat="45.34329" lon="6.17759">
        <ele>2126.8000488281</ele>
        <time>2014-03-02T14:08:28.000Z</time>
      </trkpt>
      <trkpt lat="45.34329" lon="6.1776">
        <ele>2127.6000976562</ele>
        <time>2014-03-02T14:08:29.000Z</time>
      </trkpt>
      <trkpt lat="45.34329" lon="6.1776">
        <ele>2127.6000976562</ele>
        <time>2014-03-02T14:08:30.000Z</time>
      </trkpt>
      <trkpt lat="45.34329" lon="6.17762">
        <ele>2128</ele>
        <time>2014-03-02T14:08:31.000Z</time>
      </trkpt>
      <trkpt lat="45.34329" lon="6.17762">
        <ele>2128</ele>
        <time>2014-03-02T14:08:32.000Z</time>
      </trkpt>
      <trkpt lat="45.34329" lon="6.17763">
        <ele>2128.6000976562</ele>
        <time>2014-03-02T14:08:33.000Z</time>
      </trkpt>
      <trkpt lat="45.34329" lon="6.17763">
        <ele>2128.6000976562</ele>
        <time>2014-03-02T14:08:34.000Z</time>
      </trkpt>
      <trkpt lat="45.34329" lon="6.17765">
        <ele>2129</ele>
        <time>2014-03-02T14:08:35.000Z</time>
      </trkpt>
      <trkpt lat="45.34329" lon="6.17765">
        <ele>2129</ele>
        <time>2014-03-02T14:08:36.000Z</time>
      </trkpt>
      <trkpt lat="45.3433" lon="6.17766">
        <ele>2129.6000976562</ele>
        <time>2014-03-02T14:08:37.000Z</time>
      </trkpt>
      <trkpt lat="45.34331" lon="6.17767">
        <ele>2130</ele>
        <time>2014-03-02T14:08:38.000Z</time>
      </trkpt>
      <trkpt lat="45.34331" lon="6.17767">
        <ele>2130</ele>
        <time>2014-03-02T14:08:39.000Z</time>
      </trkpt>
      <trkpt lat="45.34331" lon="6.17768">
        <ele>2130.3999023438</ele>
        <time>2014-03-02T14:08:40.000Z</time>
      </trkpt>
      <trkpt lat="45.34331" lon="6.17768">
        <ele>2130.3999023438</ele>
        <time>2014-03-02T14:08:41.000Z</time>
      </trkpt>
      <trkpt lat="45.34331" lon="6.17769">
        <ele>2130.8000488281</ele>
        <time>2014-03-02T14:08:42.000Z</time>
      </trkpt>
      <trkpt lat="45.34331" lon="6.17769">
        <ele>2130.8000488281</ele>
        <time>2014-03-02T14:08:43.000Z</time>
      </trkpt>
      <trkpt lat="45.3433" lon="6.1777">
        <ele>2131.1999511719</ele>
        <time>2014-03-02T14:08:44.000Z</time>
      </trkpt>
      <trkpt lat="45.3433" lon="6.1777">
        <ele>2131.1999511719</ele>
        <time>2014-03-02T14:08:45.000Z</time>
      </trkpt>
      <trkpt lat="45.3433" lon="6.17771">
        <ele>2131.3999023438</ele>
        <time>2014-03-02T14:08:46.000Z</time>
      </trkpt>
      <trkpt lat="45.3433" lon="6.17771">
        <ele>2131.3999023438</ele>
        <time>2014-03-02T14:08:47.000Z</time>
      </trkpt>
      <trkpt lat="45.34331" lon="6.17772">
        <ele>2131.8000488281</ele>
        <time>2014-03-02T14:08:48.000Z</time>
      </trkpt>
      <trkpt lat="45.34331" lon="6.17773">
        <ele>2132.3999023438</ele>
        <time>2014-03-02T14:08:49.000Z</time>
      </trkpt>
      <trkpt lat="45.34332" lon="6.17775">
        <ele>2132.8000488281</ele>
        <time>2014-03-02T14:08:50.000Z</time>
      </trkpt>
      <trkpt lat="45.34332" lon="6.17776">
        <ele>2133.3999023438</ele>
        <time>2014-03-02T14:08:51.000Z</time>
      </trkpt>
      <trkpt lat="45.34332" lon="6.17777">
        <ele>2133.8000488281</ele>
        <time>2014-03-02T14:08:52.000Z</time>
      </trkpt>
      <trkpt lat="45.34333" lon="6.17778">
        <ele>2134.1999511719</ele>
        <time>2014-03-02T14:08:53.000Z</time>
      </trkpt>
      <trkpt lat="45.34333" lon="6.1778">
        <ele>2135</ele>
        <time>2014-03-02T14:08:56.000Z</time>
      </trkpt>
      <trkpt lat="45.34333" lon="6.17781">
        <ele>2135.3999023438</ele>
        <time>2014-03-02T14:08:57.000Z</time>
      </trkpt>
      <trkpt lat="45.34334" lon="6.17782">
        <ele>2135.8000488281</ele>
        <time>2014-03-02T14:08:58.000Z</time>
      </trkpt>
      <trkpt lat="45.34334" lon="6.17783">
        <ele>2136</ele>
        <time>2014-03-02T14:08:59.000Z</time>
      </trkpt>
      <trkpt lat="45.34334" lon="6.17784">
        <ele>2136.1999511719</ele>
        <time>2014-03-02T14:09:00.000Z</time>
      </trkpt>
      <trkpt lat="45.34334" lon="6.17784">
        <ele>2136.6000976562</ele>
        <time>2014-03-02T14:09:01.000Z</time>
      </trkpt>
      <trkpt lat="45.34334" lon="6.17784">
        <ele>2136.6000976562</ele>
        <time>2014-03-02T14:09:02.000Z</time>
      </trkpt>
      <trkpt lat="45.34335" lon="6.17785">
        <ele>2136.8000488281</ele>
        <time>2014-03-02T14:09:03.000Z</time>
      </trkpt>
      <trkpt lat="45.34335" lon="6.17785">
        <ele>2136.8000488281</ele>
        <time>2014-03-02T14:09:04.000Z</time>
      </trkpt>
      <trkpt lat="45.34335" lon="6.17785">
        <ele>2136.8000488281</ele>
        <time>2014-03-02T14:09:05.000Z</time>
      </trkpt>
      <trkpt lat="45.34335" lon="6.17785">
        <ele>2137</ele>
        <time>2014-03-02T14:09:06.000Z</time>
      </trkpt>
      <trkpt lat="45.34335" lon="6.17785">
        <ele>2137</ele>
        <time>2014-03-02T14:09:07.000Z</time>
      </trkpt>
      <trkpt lat="45.34336" lon="6.17786">
        <ele>2137.1999511719</ele>
        <time>2014-03-02T14:09:08.000Z</time>
      </trkpt>
      <trkpt lat="45.34336" lon="6.17786">
        <ele>2137.1999511719</ele>
        <time>2014-03-02T14:09:09.000Z</time>
      </trkpt>
      <trkpt lat="45.34336" lon="6.17786">
        <ele>2137.1999511719</ele>
        <time>2014-03-02T14:09:10.000Z</time>
      </trkpt>
      <trkpt lat="45.34336" lon="6.17786">
        <ele>2137.1999511719</ele>
        <time>2014-03-02T14:09:11.000Z</time>
      </trkpt>
      <trkpt lat="45.34336" lon="6.17786">
        <ele>2137.1999511719</ele>
        <time>2014-03-02T14:09:12.000Z</time>
      </trkpt>
      <trkpt lat="45.34335" lon="6.17787">
        <ele>2137.3999023438</ele>
        <time>2014-03-02T14:09:13.000Z</time>
      </trkpt>
      <trkpt lat="45.34335" lon="6.17787">
        <ele>2137.3999023438</ele>
        <time>2014-03-02T14:09:14.000Z</time>
      </trkpt>
      <trkpt lat="45.34334" lon="6.17787">
        <ele>2137.6000976562</ele>
        <time>2014-03-02T14:09:15.000Z</time>
      </trkpt>
      <trkpt lat="45.34333" lon="6.17788">
        <ele>2137.8000488281</ele>
        <time>2014-03-02T14:09:16.000Z</time>
      </trkpt>
      <trkpt lat="45.34333" lon="6.17788">
        <ele>2137.8000488281</ele>
        <time>2014-03-02T14:09:17.000Z</time>
      </trkpt>
      <trkpt lat="45.34332" lon="6.17789">
        <ele>2137.8000488281</ele>
        <time>2014-03-02T14:09:18.000Z</time>
      </trkpt>
      <trkpt lat="45.34332" lon="6.17789">
        <ele>2137.8000488281</ele>
        <time>2014-03-02T14:09:19.000Z</time>
      </trkpt>
      <trkpt lat="45.34332" lon="6.17789">
        <ele>2137.8000488281</ele>
        <time>2014-03-02T14:09:20.000Z</time>
      </trkpt>
      <trkpt lat="45.34332" lon="6.17789">
        <ele>2137.8000488281</ele>
        <time>2014-03-02T14:09:21.000Z</time>
      </trkpt>
      <trkpt lat="45.34331" lon="6.1779">
        <ele>2137.8000488281</ele>
        <time>2014-03-02T14:09:22.000Z</time>
      </trkpt>
      <trkpt lat="45.34331" lon="6.1779">
        <ele>2137.8000488281</ele>
        <time>2014-03-02T14:09:23.000Z</time>
      </trkpt>
      <trkpt lat="45.3433" lon="6.1779">
        <ele>2137.8000488281</ele>
        <time>2014-03-02T14:09:24.000Z</time>
      </trkpt>
      <trkpt lat="45.34328" lon="6.17791">
        <ele>2137.6000976562</ele>
        <time>2014-03-02T14:09:25.000Z</time>
      </trkpt>
      <trkpt lat="45.34327" lon="6.17791">
        <ele>2137.6000976562</ele>
        <time>2014-03-02T14:09:26.000Z</time>
      </trkpt>
      <trkpt lat="45.34327" lon="6.17791">
        <ele>2137.6000976562</ele>
        <time>2014-03-02T14:09:27.000Z</time>
      </trkpt>
      <trkpt lat="45.34327" lon="6.17791">
        <ele>2137.3999023438</ele>
        <time>2014-03-02T14:09:28.000Z</time>
      </trkpt>
      <trkpt lat="45.34326" lon="6.17791">
        <ele>2137.1999511719</ele>
        <time>2014-03-02T14:09:29.000Z</time>
      </trkpt>
      <trkpt lat="45.34326" lon="6.17791">
        <ele>2137.1999511719</ele>
        <time>2014-03-02T14:09:30.000Z</time>
      </trkpt>
      <trkpt lat="45.34325" lon="6.17791">
        <ele>2137.1999511719</ele>
        <time>2014-03-02T14:09:31.000Z</time>
      </trkpt>
      <trkpt lat="45.34325" lon="6.17791">
        <ele>2137.1999511719</ele>
        <time>2014-03-02T14:09:32.000Z</time>
      </trkpt>
      <trkpt lat="45.34324" lon="6.17791">
        <ele>2137</ele>
        <time>2014-03-02T14:09:33.000Z</time>
      </trkpt>
      <trkpt lat="45.34324" lon="6.17792">
        <ele>2137.1999511719</ele>
        <time>2014-03-02T14:09:34.000Z</time>
      </trkpt>
      <trkpt lat="45.34323" lon="6.17793">
        <ele>2137.1999511719</ele>
        <time>2014-03-02T14:09:35.000Z</time>
      </trkpt>
      <trkpt lat="45.34323" lon="6.17794">
        <ele>2137.6000976562</ele>
        <time>2014-03-02T14:09:36.000Z</time>
      </trkpt>
      <trkpt lat="45.34323" lon="6.17795">
        <ele>2138</ele>
        <time>2014-03-02T14:09:37.000Z</time>
      </trkpt>
      <trkpt lat="45.34323" lon="6.17795">
        <ele>2138.1999511719</ele>
        <time>2014-03-02T14:09:38.000Z</time>
      </trkpt>
      <trkpt lat="45.34323" lon="6.17795">
        <ele>2138.1999511719</ele>
        <time>2014-03-02T14:09:39.000Z</time>
      </trkpt>
      <trkpt lat="45.34323" lon="6.17796">
        <ele>2138.3999023438</ele>
        <time>2014-03-02T14:09:40.000Z</time>
      </trkpt>
      <trkpt lat="45.34323" lon="6.17796">
        <ele>2138.3999023438</ele>
        <time>2014-03-02T14:09:41.000Z</time>
      </trkpt>
      <trkpt lat="45.34322" lon="6.17797">
        <ele>2138.6000976562</ele>
        <time>2014-03-02T14:09:42.000Z</time>
      </trkpt>
      <trkpt lat="45.34322" lon="6.17797">
        <ele>2138.6000976562</ele>
        <time>2014-03-02T14:09:43.000Z</time>
      </trkpt>
      <trkpt lat="45.34322" lon="6.17798">
        <ele>2138.8000488281</ele>
        <time>2014-03-02T14:09:44.000Z</time>
      </trkpt>
      <trkpt lat="45.34322" lon="6.17798">
        <ele>2138.8000488281</ele>
        <time>2014-03-02T14:09:45.000Z</time>
      </trkpt>
      <trkpt lat="45.34322" lon="6.17798">
        <ele>2138.8000488281</ele>
        <time>2014-03-02T14:09:46.000Z</time>
      </trkpt>
      <trkpt lat="45.34322" lon="6.17798">
        <ele>2138.8000488281</ele>
        <time>2014-03-02T14:09:47.000Z</time>
      </trkpt>
      <trkpt lat="45.34322" lon="6.17798">
        <ele>2138.8000488281</ele>
        <time>2014-03-02T14:09:48.000Z</time>
      </trkpt>
      <trkpt lat="45.34321" lon="6.17799">
        <ele>2139</ele>
        <time>2014-03-02T14:09:49.000Z</time>
      </trkpt>
      <trkpt lat="45.34321" lon="6.17799">
        <ele>2139</ele>
        <time>2014-03-02T14:09:50.000Z</time>
      </trkpt>
      <trkpt lat="45.3432" lon="6.178">
        <ele>2139.1999511719</ele>
        <time>2014-03-02T14:09:51.000Z</time>
      </trkpt>
      <trkpt lat="45.3432" lon="6.178">
        <ele>2139.1999511719</ele>
        <time>2014-03-02T14:09:52.000Z</time>
      </trkpt>
      <trkpt lat="45.3432" lon="6.17801">
        <ele>2139.3999023438</ele>
        <time>2014-03-02T14:09:53.000Z</time>
      </trkpt>
      <trkpt lat="45.3432" lon="6.17801">
        <ele>2139.6000976562</ele>
        <time>2014-03-02T14:09:54.000Z</time>
      </trkpt>
      <trkpt lat="45.3432" lon="6.17801">
        <ele>2139.6000976562</ele>
        <time>2014-03-02T14:09:55.000Z</time>
      </trkpt>
      <trkpt lat="45.34319" lon="6.17802">
        <ele>2139.6000976562</ele>
        <time>2014-03-02T14:09:56.000Z</time>
      </trkpt>
      <trkpt lat="45.34319" lon="6.17802">
        <ele>2139.6000976562</ele>
        <time>2014-03-02T14:09:57.000Z</time>
      </trkpt>
      <trkpt lat="45.34319" lon="6.17803">
        <ele>2139.8000488281</ele>
        <time>2014-03-02T14:09:58.000Z</time>
      </trkpt>
      <trkpt lat="45.34319" lon="6.17803">
        <ele>2140.1999511719</ele>
        <time>2014-03-02T14:09:59.000Z</time>
      </trkpt>
      <trkpt lat="45.34319" lon="6.17803">
        <ele>2140.1999511719</ele>
        <time>2014-03-02T14:10:00.000Z</time>
      </trkpt>
      <trkpt lat="45.34319" lon="6.17803">
        <ele>2140.1999511719</ele>
        <time>2014-03-02T14:10:01.000Z</time>
      </trkpt>
      <trkpt lat="45.34319" lon="6.17804">
        <ele>2140.3999023438</ele>
        <time>2014-03-02T14:10:02.000Z</time>
      </trkpt>
      <trkpt lat="45.34319" lon="6.17804">
        <ele>2140.3999023438</ele>
        <time>2014-03-02T14:10:03.000Z</time>
      </trkpt>
      <trkpt lat="45.34319" lon="6.17805">
        <ele>2140.6000976562</ele>
        <time>2014-03-02T14:10:04.000Z</time>
      </trkpt>
      <trkpt lat="45.34319" lon="6.17805">
        <ele>2140.6000976562</ele>
        <time>2014-03-02T14:10:05.000Z</time>
      </trkpt>
      <trkpt lat="45.3432" lon="6.17805">
        <ele>2141</ele>
        <time>2014-03-02T14:10:06.000Z</time>
      </trkpt>
      <trkpt lat="45.3432" lon="6.17806">
        <ele>2141.1999511719</ele>
        <time>2014-03-02T14:10:07.000Z</time>
      </trkpt>
      <trkpt lat="45.3432" lon="6.17806">
        <ele>2141.1999511719</ele>
        <time>2014-03-02T14:10:08.000Z</time>
      </trkpt>
      <trkpt lat="45.3432" lon="6.17806">
        <ele>2141.1999511719</ele>
        <time>2014-03-02T14:10:09.000Z</time>
      </trkpt>
      <trkpt lat="45.3432" lon="6.17806">
        <ele>2141.1999511719</ele>
        <time>2014-03-02T14:10:10.000Z</time>
      </trkpt>
      <trkpt lat="45.3432" lon="6.17806">
        <ele>2141.1999511719</ele>
        <time>2014-03-02T14:10:11.000Z</time>
      </trkpt>
      <trkpt lat="45.3432" lon="6.17806">
        <ele>2141.3999023438</ele>
        <time>2014-03-02T14:10:12.000Z</time>
      </trkpt>
      <trkpt lat="45.34321" lon="6.17807">
        <ele>2141.8000488281</ele>
        <time>2014-03-02T14:10:13.000Z</time>
      </trkpt>
      <trkpt lat="45.34321" lon="6.17809">
        <ele>2142.3999023438</ele>
        <time>2014-03-02T14:10:14.000Z</time>
      </trkpt>
      <trkpt lat="45.34322" lon="6.1781">
        <ele>2142.8000488281</ele>
        <time>2014-03-02T14:10:15.000Z</time>
      </trkpt>
      <trkpt lat="45.34323" lon="6.17811">
        <ele>2143.1999511719</ele>
        <time>2014-03-02T14:10:16.000Z</time>
      </trkpt>
      <trkpt lat="45.34324" lon="6.17812">
        <ele>2144</ele>
        <time>2014-03-02T14:10:18.000Z</time>
      </trkpt>
      <trkpt lat="45.34325" lon="6.17813">
        <ele>2144.6000976562</ele>
        <time>2014-03-02T14:10:19.000Z</time>
      </trkpt>
      <trkpt lat="45.34325" lon="6.17814">
        <ele>2145</ele>
        <time>2014-03-02T14:10:20.000Z</time>
      </trkpt>
      <trkpt lat="45.34325" lon="6.17814">
        <ele>2145.1999511719</ele>
        <time>2014-03-02T14:10:21.000Z</time>
      </trkpt>
      <trkpt lat="45.34326" lon="6.17815">
        <ele>2145.8000488281</ele>
        <time>2014-03-02T14:10:22.000Z</time>
      </trkpt>
      <trkpt lat="45.34326" lon="6.17815">
        <ele>2145.8000488281</ele>
        <time>2014-03-02T14:10:23.000Z</time>
      </trkpt>
      <trkpt lat="45.34326" lon="6.17816">
        <ele>2146</ele>
        <time>2014-03-02T14:10:24.000Z</time>
      </trkpt>
      <trkpt lat="45.34326" lon="6.17816">
        <ele>2146</ele>
        <time>2014-03-02T14:10:25.000Z</time>
      </trkpt>
      <trkpt lat="45.34326" lon="6.17817">
        <ele>2146.3999023438</ele>
        <time>2014-03-02T14:10:26.000Z</time>
      </trkpt>
      <trkpt lat="45.34326" lon="6.17818">
        <ele>2147</ele>
        <time>2014-03-02T14:10:27.000Z</time>
      </trkpt>
      <trkpt lat="45.34327" lon="6.17819">
        <ele>2147.3999023438</ele>
        <time>2014-03-02T14:10:28.000Z</time>
      </trkpt>
      <trkpt lat="45.34327" lon="6.17819">
        <ele>2147.8000488281</ele>
        <time>2014-03-02T14:10:29.000Z</time>
      </trkpt>
      <trkpt lat="45.34328" lon="6.1782">
        <ele>2148.1999511719</ele>
        <time>2014-03-02T14:10:30.000Z</time>
      </trkpt>
      <trkpt lat="45.34329" lon="6.17821">
        <ele>2148.6000976562</ele>
        <time>2014-03-02T14:10:31.000Z</time>
      </trkpt>
      <trkpt lat="45.34329" lon="6.17821">
        <ele>2148.6000976562</ele>
        <time>2014-03-02T14:10:32.000Z</time>
      </trkpt>
      <trkpt lat="45.34329" lon="6.17821">
        <ele>2148.8000488281</ele>
        <time>2014-03-02T14:10:33.000Z</time>
      </trkpt>
      <trkpt lat="45.3433" lon="6.17822">
        <ele>2149.1999511719</ele>
        <time>2014-03-02T14:10:34.000Z</time>
      </trkpt>
      <trkpt lat="45.34331" lon="6.17822">
        <ele>2149.3999023438</ele>
        <time>2014-03-02T14:10:35.000Z</time>
      </trkpt>
      <trkpt lat="45.34331" lon="6.17822">
        <ele>2149.3999023438</ele>
        <time>2014-03-02T14:10:36.000Z</time>
      </trkpt>
      <trkpt lat="45.34331" lon="6.17822">
        <ele>2149.8000488281</ele>
        <time>2014-03-02T14:10:37.000Z</time>
      </trkpt>
      <trkpt lat="45.34331" lon="6.17822">
        <ele>2149.8000488281</ele>
        <time>2014-03-02T14:10:38.000Z</time>
      </trkpt>
      <trkpt lat="45.34332" lon="6.17823">
        <ele>2150</ele>
        <time>2014-03-02T14:10:39.000Z</time>
      </trkpt>
      <trkpt lat="45.34332" lon="6.17823">
        <ele>2150.1999511719</ele>
        <time>2014-03-02T14:10:40.000Z</time>
      </trkpt>
      <trkpt lat="45.34332" lon="6.17823">
        <ele>2150.1999511719</ele>
        <time>2014-03-02T14:10:41.000Z</time>
      </trkpt>
      <trkpt lat="45.34333" lon="6.17824">
        <ele>2150.6000976562</ele>
        <time>2014-03-02T14:10:42.000Z</time>
      </trkpt>
      <trkpt lat="45.34333" lon="6.17824">
        <ele>2150.6000976562</ele>
        <time>2014-03-02T14:10:43.000Z</time>
      </trkpt>
      <trkpt lat="45.34334" lon="6.17824">
        <ele>2151</ele>
        <time>2014-03-02T14:10:44.000Z</time>
      </trkpt>
      <trkpt lat="45.34335" lon="6.17825">
        <ele>2151.6000976562</ele>
        <time>2014-03-02T14:10:45.000Z</time>
      </trkpt>
      <trkpt lat="45.34335" lon="6.17825">
        <ele>2151.6000976562</ele>
        <time>2014-03-02T14:10:46.000Z</time>
      </trkpt>
      <trkpt lat="45.34335" lon="6.17825">
        <ele>2151.8000488281</ele>
        <time>2014-03-02T14:10:47.000Z</time>
      </trkpt>
      <trkpt lat="45.34335" lon="6.17825">
        <ele>2151.8000488281</ele>
        <time>2014-03-02T14:10:48.000Z</time>
      </trkpt>
      <trkpt lat="45.34336" lon="6.17826">
        <ele>2152</ele>
        <time>2014-03-02T14:10:49.000Z</time>
      </trkpt>
      <trkpt lat="45.34337" lon="6.17826">
        <ele>2152.3999023438</ele>
        <time>2014-03-02T14:10:50.000Z</time>
      </trkpt>
      <trkpt lat="45.34337" lon="6.17826">
        <ele>2152.3999023438</ele>
        <time>2014-03-02T14:10:51.000Z</time>
      </trkpt>
      <trkpt lat="45.34337" lon="6.17826">
        <ele>2152.3999023438</ele>
        <time>2014-03-02T14:10:52.000Z</time>
      </trkpt>
      <trkpt lat="45.34337" lon="6.17826">
        <ele>2152.3999023438</ele>
        <time>2014-03-02T14:10:53.000Z</time>
      </trkpt>
      <trkpt lat="45.34337" lon="6.17826">
        <ele>2152.3999023438</ele>
        <time>2014-03-02T14:10:54.000Z</time>
      </trkpt>
      <trkpt lat="45.34337" lon="6.17826">
        <ele>2152.3999023438</ele>
        <time>2014-03-02T14:10:55.000Z</time>
      </trkpt>
      <trkpt lat="45.34339" lon="6.17826">
        <ele>2152.6000976562</ele>
        <time>2014-03-02T14:10:57.000Z</time>
      </trkpt>
      <trkpt lat="45.3434" lon="6.17827">
        <ele>2153</ele>
        <time>2014-03-02T14:10:58.000Z</time>
      </trkpt>
      <trkpt lat="45.3434" lon="6.17827">
        <ele>2153</ele>
        <time>2014-03-02T14:10:59.000Z</time>
      </trkpt>
      <trkpt lat="45.3434" lon="6.17827">
        <ele>2153</ele>
        <time>2014-03-02T14:11:00.000Z</time>
      </trkpt>
      <trkpt lat="45.3434" lon="6.17827">
        <ele>2153</ele>
        <time>2014-03-02T14:11:01.000Z</time>
      </trkpt>
      <trkpt lat="45.3434" lon="6.17827">
        <ele>2153</ele>
        <time>2014-03-02T14:11:02.000Z</time>
      </trkpt>
      <trkpt lat="45.3434" lon="6.17827">
        <ele>2153</ele>
        <time>2014-03-02T14:11:03.000Z</time>
      </trkpt>
      <trkpt lat="45.34339" lon="6.17827">
        <ele>2153.1999511719</ele>
        <time>2014-03-02T14:11:04.000Z</time>
      </trkpt>
      <trkpt lat="45.34339" lon="6.17827">
        <ele>2153.1999511719</ele>
        <time>2014-03-02T14:11:05.000Z</time>
      </trkpt>
      <trkpt lat="45.34339" lon="6.17828">
        <ele>2153.3999023438</ele>
        <time>2014-03-02T14:11:06.000Z</time>
      </trkpt>
      <trkpt lat="45.34339" lon="6.17828">
        <ele>2153.3999023438</ele>
        <time>2014-03-02T14:11:07.000Z</time>
      </trkpt>
      <trkpt lat="45.34339" lon="6.17829">
        <ele>2153.8000488281</ele>
        <time>2014-03-02T14:11:08.000Z</time>
      </trkpt>
      <trkpt lat="45.34339" lon="6.17829">
        <ele>2153.8000488281</ele>
        <time>2014-03-02T14:11:09.000Z</time>
      </trkpt>
      <trkpt lat="45.34338" lon="6.1783">
        <ele>2154</ele>
        <time>2014-03-02T14:11:10.000Z</time>
      </trkpt>
      <trkpt lat="45.34338" lon="6.17831">
        <ele>2154.3999023438</ele>
        <time>2014-03-02T14:11:11.000Z</time>
      </trkpt>
      <trkpt lat="45.34338" lon="6.17831">
        <ele>2154.6000976562</ele>
        <time>2014-03-02T14:11:12.000Z</time>
      </trkpt>
      <trkpt lat="45.34337" lon="6.17832">
        <ele>2155</ele>
        <time>2014-03-02T14:11:13.000Z</time>
      </trkpt>
      <trkpt lat="45.34337" lon="6.17832">
        <ele>2155</ele>
        <time>2014-03-02T14:11:14.000Z</time>
      </trkpt>
      <trkpt lat="45.34337" lon="6.17833">
        <ele>2155.1999511719</ele>
        <time>2014-03-02T14:11:15.000Z</time>
      </trkpt>
      <trkpt lat="45.34337" lon="6.17833">
        <ele>2155.1999511719</ele>
        <time>2014-03-02T14:11:16.000Z</time>
      </trkpt>
      <trkpt lat="45.34336" lon="6.17834">
        <ele>2155.6000976562</ele>
        <time>2014-03-02T14:11:17.000Z</time>
      </trkpt>
      <trkpt lat="45.34336" lon="6.17835">
        <ele>2156</ele>
        <time>2014-03-02T14:11:18.000Z</time>
      </trkpt>
      <trkpt lat="45.34336" lon="6.17835">
        <ele>2156</ele>
        <time>2014-03-02T14:11:19.000Z</time>
      </trkpt>
      <trkpt lat="45.34335" lon="6.17836">
        <ele>2156.1999511719</ele>
        <time>2014-03-02T14:11:20.000Z</time>
      </trkpt>
      <trkpt lat="45.34335" lon="6.17836">
        <ele>2156.1999511719</ele>
        <time>2014-03-02T14:11:21.000Z</time>
      </trkpt>
      <trkpt lat="45.34335" lon="6.17837">
        <ele>2156.6000976562</ele>
        <time>2014-03-02T14:11:22.000Z</time>
      </trkpt>
      <trkpt lat="45.34335" lon="6.17838">
        <ele>2156.8000488281</ele>
        <time>2014-03-02T14:11:23.000Z</time>
      </trkpt>
      <trkpt lat="45.34335" lon="6.17838">
        <ele>2156.8000488281</ele>
        <time>2014-03-02T14:11:24.000Z</time>
      </trkpt>
      <trkpt lat="45.34334" lon="6.17838">
        <ele>2156.8000488281</ele>
        <time>2014-03-02T14:11:25.000Z</time>
      </trkpt>
      <trkpt lat="45.34334" lon="6.17838">
        <ele>2156.8000488281</ele>
        <time>2014-03-02T14:11:26.000Z</time>
      </trkpt>
      <trkpt lat="45.34333" lon="6.17838">
        <ele>2156.8000488281</ele>
        <time>2014-03-02T14:11:27.000Z</time>
      </trkpt>
      <trkpt lat="45.34332" lon="6.17839">
        <ele>2156.8000488281</ele>
        <time>2014-03-02T14:11:28.000Z</time>
      </trkpt>
      <trkpt lat="45.34332" lon="6.17839">
        <ele>2156.8000488281</ele>
        <time>2014-03-02T14:11:29.000Z</time>
      </trkpt>
      <trkpt lat="45.34332" lon="6.17839">
        <ele>2156.8000488281</ele>
        <time>2014-03-02T14:11:30.000Z</time>
      </trkpt>
      <trkpt lat="45.34332" lon="6.17839">
        <ele>2156.8000488281</ele>
        <time>2014-03-02T14:11:31.000Z</time>
      </trkpt>
      <trkpt lat="45.34331" lon="6.17839">
        <ele>2156.6000976562</ele>
        <time>2014-03-02T14:11:32.000Z</time>
      </trkpt>
      <trkpt lat="45.34331" lon="6.17839">
        <ele>2156.8000488281</ele>
        <time>2014-03-02T14:11:33.000Z</time>
      </trkpt>
      <trkpt lat="45.3433" lon="6.1784">
        <ele>2156.6000976562</ele>
        <time>2014-03-02T14:11:34.000Z</time>
      </trkpt>
      <trkpt lat="45.34329" lon="6.1784">
        <ele>2156.8000488281</ele>
        <time>2014-03-02T14:11:35.000Z</time>
      </trkpt>
      <trkpt lat="45.34329" lon="6.17841">
        <ele>2156.8000488281</ele>
        <time>2014-03-02T14:11:36.000Z</time>
      </trkpt>
      <trkpt lat="45.34328" lon="6.17841">
        <ele>2156.8000488281</ele>
        <time>2014-03-02T14:11:37.000Z</time>
      </trkpt>
      <trkpt lat="45.34327" lon="6.17841">
        <ele>2156.8000488281</ele>
        <time>2014-03-02T14:11:38.000Z</time>
      </trkpt>
      <trkpt lat="45.34326" lon="6.17841">
        <ele>2156.6000976562</ele>
        <time>2014-03-02T14:11:39.000Z</time>
      </trkpt>
      <trkpt lat="45.34326" lon="6.17841">
        <ele>2156.6000976562</ele>
        <time>2014-03-02T14:11:40.000Z</time>
      </trkpt>
      <trkpt lat="45.34326" lon="6.17842">
        <ele>2156.6000976562</ele>
        <time>2014-03-02T14:11:41.000Z</time>
      </trkpt>
      <trkpt lat="45.34326" lon="6.17842">
        <ele>2156.6000976562</ele>
        <time>2014-03-02T14:11:42.000Z</time>
      </trkpt>
      <trkpt lat="45.34325" lon="6.17842">
        <ele>2156.6000976562</ele>
        <time>2014-03-02T14:11:43.000Z</time>
      </trkpt>
      <trkpt lat="45.34325" lon="6.17842">
        <ele>2156.6000976562</ele>
        <time>2014-03-02T14:11:44.000Z</time>
      </trkpt>
      <trkpt lat="45.34325" lon="6.17842">
        <ele>2156.6000976562</ele>
        <time>2014-03-02T14:11:45.000Z</time>
      </trkpt>
      <trkpt lat="45.34324" lon="6.17843">
        <ele>2156.6000976562</ele>
        <time>2014-03-02T14:11:46.000Z</time>
      </trkpt>
      <trkpt lat="45.34324" lon="6.17843">
        <ele>2156.6000976562</ele>
        <time>2014-03-02T14:11:47.000Z</time>
      </trkpt>
      <trkpt lat="45.34324" lon="6.17843">
        <ele>2156.8000488281</ele>
        <time>2014-03-02T14:11:48.000Z</time>
      </trkpt>
      <trkpt lat="45.34324" lon="6.17843">
        <ele>2156.8000488281</ele>
        <time>2014-03-02T14:11:49.000Z</time>
      </trkpt>
      <trkpt lat="45.34323" lon="6.17844">
        <ele>2156.8000488281</ele>
        <time>2014-03-02T14:11:50.000Z</time>
      </trkpt>
      <trkpt lat="45.34323" lon="6.17844">
        <ele>2156.8000488281</ele>
        <time>2014-03-02T14:11:51.000Z</time>
      </trkpt>
      <trkpt lat="45.34323" lon="6.17845">
        <ele>2156.8000488281</ele>
        <time>2014-03-02T14:11:52.000Z</time>
      </trkpt>
      <trkpt lat="45.34322" lon="6.17845">
        <ele>2156.8000488281</ele>
        <time>2014-03-02T14:11:53.000Z</time>
      </trkpt>
      <trkpt lat="45.34322" lon="6.17845">
        <ele>2156.8000488281</ele>
        <time>2014-03-02T14:11:54.000Z</time>
      </trkpt>
      <trkpt lat="45.34321" lon="6.17846">
        <ele>2157</ele>
        <time>2014-03-02T14:11:55.000Z</time>
      </trkpt>
      <trkpt lat="45.34321" lon="6.17846">
        <ele>2157</ele>
        <time>2014-03-02T14:11:56.000Z</time>
      </trkpt>
      <trkpt lat="45.3432" lon="6.17847">
        <ele>2156.8000488281</ele>
        <time>2014-03-02T14:11:57.000Z</time>
      </trkpt>
      <trkpt lat="45.34319" lon="6.17847">
        <ele>2156.6000976562</ele>
        <time>2014-03-02T14:11:58.000Z</time>
      </trkpt>
      <trkpt lat="45.34318" lon="6.17846">
        <ele>2156.3999023438</ele>
        <time>2014-03-02T14:12:00.000Z</time>
      </trkpt>
      <trkpt lat="45.34317" lon="6.17846">
        <ele>2156</ele>
        <time>2014-03-02T14:12:01.000Z</time>
      </trkpt>
      <trkpt lat="45.34317" lon="6.17846">
        <ele>2155.6000976562</ele>
        <time>2014-03-02T14:12:02.000Z</time>
      </trkpt>
      <trkpt lat="45.34317" lon="6.17846">
        <ele>2155.6000976562</ele>
        <time>2014-03-02T14:12:03.000Z</time>
      </trkpt>
      <trkpt lat="45.34317" lon="6.17846">
        <ele>2155.6000976562</ele>
        <time>2014-03-02T14:12:04.000Z</time>
      </trkpt>
      <trkpt lat="45.34316" lon="6.17847">
        <ele>2155.8000488281</ele>
        <time>2014-03-02T14:12:05.000Z</time>
      </trkpt>
      <trkpt lat="45.34316" lon="6.17847">
        <ele>2155.8000488281</ele>
        <time>2014-03-02T14:12:06.000Z</time>
      </trkpt>
      <trkpt lat="45.34316" lon="6.17847">
        <ele>2155.6000976562</ele>
        <time>2014-03-02T14:12:07.000Z</time>
      </trkpt>
      <trkpt lat="45.34316" lon="6.17847">
        <ele>2155.6000976562</ele>
        <time>2014-03-02T14:12:08.000Z</time>
      </trkpt>
      <trkpt lat="45.34316" lon="6.17847">
        <ele>2155.6000976562</ele>
        <time>2014-03-02T14:12:09.000Z</time>
      </trkpt>
      <trkpt lat="45.34316" lon="6.17847">
        <ele>2155.6000976562</ele>
        <time>2014-03-02T14:12:10.000Z</time>
      </trkpt>
      <trkpt lat="45.34316" lon="6.17847">
        <ele>2155.6000976562</ele>
        <time>2014-03-02T14:12:11.000Z</time>
      </trkpt>
      <trkpt lat="45.34316" lon="6.17847">
        <ele>2155.6000976562</ele>
        <time>2014-03-02T14:12:13.000Z</time>
      </trkpt>
      <trkpt lat="45.34316" lon="6.17847">
        <ele>2155.6000976562</ele>
        <time>2014-03-02T14:12:14.000Z</time>
      </trkpt>
      <trkpt lat="45.34316" lon="6.17847">
        <ele>2155.6000976562</ele>
        <time>2014-03-02T14:12:15.000Z</time>
      </trkpt>
      <trkpt lat="45.34316" lon="6.17847">
        <ele>2155.6000976562</ele>
        <time>2014-03-02T14:12:16.000Z</time>
      </trkpt>
      <trkpt lat="45.34316" lon="6.17847">
        <ele>2155.6000976562</ele>
        <time>2014-03-02T14:12:17.000Z</time>
      </trkpt>
      <trkpt lat="45.34316" lon="6.17847">
        <ele>2155.6000976562</ele>
        <time>2014-03-02T14:12:18.000Z</time>
      </trkpt>
      <trkpt lat="45.34316" lon="6.17847">
        <ele>2155.6000976562</ele>
        <time>2014-03-02T14:12:19.000Z</time>
      </trkpt>
      <trkpt lat="45.34316" lon="6.17847">
        <ele>2155.6000976562</ele>
        <time>2014-03-02T14:12:20.000Z</time>
      </trkpt>
      <trkpt lat="45.34316" lon="6.17847">
        <ele>2155.6000976562</ele>
        <time>2014-03-02T14:12:21.000Z</time>
      </trkpt>
      <trkpt lat="45.34316" lon="6.17847">
        <ele>2155.6000976562</ele>
        <time>2014-03-02T14:12:22.000Z</time>
      </trkpt>
      <trkpt lat="45.34316" lon="6.17847">
        <ele>2155.6000976562</ele>
        <time>2014-03-02T14:12:23.000Z</time>
      </trkpt>
      <trkpt lat="45.34316" lon="6.17847">
        <ele>2155.6000976562</ele>
        <time>2014-03-02T14:12:24.000Z</time>
      </trkpt>
      <trkpt lat="45.34316" lon="6.17847">
        <ele>2155.6000976562</ele>
        <time>2014-03-02T14:12:25.000Z</time>
      </trkpt>
      <trkpt lat="45.34316" lon="6.17847">
        <ele>2155.6000976562</ele>
        <time>2014-03-02T14:12:26.000Z</time>
      </trkpt>
      <trkpt lat="45.34316" lon="6.17847">
        <ele>2155.6000976562</ele>
        <time>2014-03-02T14:12:27.000Z</time>
      </trkpt>
      <trkpt lat="45.34316" lon="6.17847">
        <ele>2155.6000976562</ele>
        <time>2014-03-02T14:12:28.000Z</time>
      </trkpt>
      <trkpt lat="45.34316" lon="6.17847">
        <ele>2155.6000976562</ele>
        <time>2014-03-02T14:12:29.000Z</time>
      </trkpt>
      <trkpt lat="45.34316" lon="6.17847">
        <ele>2155.6000976562</ele>
        <time>2014-03-02T14:12:30.000Z</time>
      </trkpt>
      <trkpt lat="45.34316" lon="6.17847">
        <ele>2155.6000976562</ele>
        <time>2014-03-02T14:12:32.000Z</time>
      </trkpt>
      <trkpt lat="45.34316" lon="6.17847">
        <ele>2155.6000976562</ele>
        <time>2014-03-02T14:12:33.000Z</time>
      </trkpt>
      <trkpt lat="45.34316" lon="6.17847">
        <ele>2155.6000976562</ele>
        <time>2014-03-02T14:12:34.000Z</time>
      </trkpt>
      <trkpt lat="45.34316" lon="6.17847">
        <ele>2155.6000976562</ele>
        <time>2014-03-02T14:12:37.000Z</time>
      </trkpt>
      <trkpt lat="45.34316" lon="6.17847">
        <ele>2155.6000976562</ele>
        <time>2014-03-02T14:12:38.000Z</time>
      </trkpt>
      <trkpt lat="45.34316" lon="6.17847">
        <ele>2155.6000976562</ele>
        <time>2014-03-02T14:12:41.000Z</time>
      </trkpt>
      <trkpt lat="45.34316" lon="6.17847">
        <ele>2155.6000976562</ele>
        <time>2014-03-02T14:12:42.000Z</time>
      </trkpt>
      <trkpt lat="45.34316" lon="6.17847">
        <ele>2155.6000976562</ele>
        <time>2014-03-02T14:12:43.000Z</time>
      </trkpt>
      <trkpt lat="45.34316" lon="6.17847">
        <ele>2155.6000976562</ele>
        <time>2014-03-02T14:12:44.000Z</time>
      </trkpt>
      <trkpt lat="45.34315" lon="6.17847">
        <ele>2155.6000976562</ele>
        <time>2014-03-02T14:12:48.000Z</time>
      </trkpt>
      <trkpt lat="45.34315" lon="6.17847">
        <ele>2155.6000976562</ele>
        <time>2014-03-02T14:12:49.000Z</time>
      </trkpt>
      <trkpt lat="45.34315" lon="6.17847">
        <ele>2155.6000976562</ele>
        <time>2014-03-02T14:12:51.000Z</time>
      </trkpt>
      <trkpt lat="45.34316" lon="6.17848">
        <ele>2156.1999511719</ele>
        <time>2014-03-02T14:12:52.000Z</time>
      </trkpt>
      <trkpt lat="45.34316" lon="6.17848">
        <ele>2156.1999511719</ele>
        <time>2014-03-02T14:12:53.000Z</time>
      </trkpt>
      <trkpt lat="45.34316" lon="6.17849">
        <ele>2156.6000976562</ele>
        <time>2014-03-02T14:12:54.000Z</time>
      </trkpt>
      <trkpt lat="45.34316" lon="6.1785">
        <ele>2156.8000488281</ele>
        <time>2014-03-02T14:12:55.000Z</time>
      </trkpt>
      <trkpt lat="45.34316" lon="6.1785">
        <ele>2156.8000488281</ele>
        <time>2014-03-02T14:12:56.000Z</time>
      </trkpt>
      <trkpt lat="45.34317" lon="6.17852">
        <ele>2157.8000488281</ele>
        <time>2014-03-02T14:12:57.000Z</time>
      </trkpt>
      <trkpt lat="45.34317" lon="6.17852">
        <ele>2157.8000488281</ele>
        <time>2014-03-02T14:12:58.000Z</time>
      </trkpt>
      <trkpt lat="45.34317" lon="6.17854">
        <ele>2158.3999023438</ele>
        <time>2014-03-02T14:12:59.000Z</time>
      </trkpt>
      <trkpt lat="45.34317" lon="6.17854">
        <ele>2158.3999023438</ele>
        <time>2014-03-02T14:13:00.000Z</time>
      </trkpt>
      <trkpt lat="45.34318" lon="6.17855">
        <ele>2159</ele>
        <time>2014-03-02T14:13:01.000Z</time>
      </trkpt>
      <trkpt lat="45.34318" lon="6.17855">
        <ele>2159</ele>
        <time>2014-03-02T14:13:02.000Z</time>
      </trkpt>
      <trkpt lat="45.34319" lon="6.17856">
        <ele>2159.6000976562</ele>
        <time>2014-03-02T14:13:03.000Z</time>
      </trkpt>
      <trkpt lat="45.34319" lon="6.17856">
        <ele>2159.6000976562</ele>
        <time>2014-03-02T14:13:04.000Z</time>
      </trkpt>
      <trkpt lat="45.34319" lon="6.17857">
        <ele>2160.1999511719</ele>
        <time>2014-03-02T14:13:05.000Z</time>
      </trkpt>
      <trkpt lat="45.34319" lon="6.17857">
        <ele>2160.1999511719</ele>
        <time>2014-03-02T14:13:06.000Z</time>
      </trkpt>
      <trkpt lat="45.3432" lon="6.17858">
        <ele>2160.6000976562</ele>
        <time>2014-03-02T14:13:07.000Z</time>
      </trkpt>
      <trkpt lat="45.3432" lon="6.17858">
        <ele>2160.6000976562</ele>
        <time>2014-03-02T14:13:08.000Z</time>
      </trkpt>
      <trkpt lat="45.3432" lon="6.17859">
        <ele>2161</ele>
        <time>2014-03-02T14:13:09.000Z</time>
      </trkpt>
      <trkpt lat="45.34321" lon="6.1786">
        <ele>2161.3999023438</ele>
        <time>2014-03-02T14:13:10.000Z</time>
      </trkpt>
      <trkpt lat="45.34322" lon="6.17861">
        <ele>2162</ele>
        <time>2014-03-02T14:13:11.000Z</time>
      </trkpt>
      <trkpt lat="45.34322" lon="6.17862">
        <ele>2162.6000976562</ele>
        <time>2014-03-02T14:13:12.000Z</time>
      </trkpt>
      <trkpt lat="45.34322" lon="6.17862">
        <ele>2162.6000976562</ele>
        <time>2014-03-02T14:13:13.000Z</time>
      </trkpt>
      <trkpt lat="45.34323" lon="6.17863">
        <ele>2163</ele>
        <time>2014-03-02T14:13:14.000Z</time>
      </trkpt>
      <trkpt lat="45.34323" lon="6.17864">
        <ele>2163.3999023438</ele>
        <time>2014-03-02T14:13:15.000Z</time>
      </trkpt>
      <trkpt lat="45.34323" lon="6.17864">
        <ele>2163.6000976562</ele>
        <time>2014-03-02T14:13:16.000Z</time>
      </trkpt>
      <trkpt lat="45.34323" lon="6.17864">
        <ele>2163.6000976562</ele>
        <time>2014-03-02T14:13:17.000Z</time>
      </trkpt>
      <trkpt lat="45.34324" lon="6.17865">
        <ele>2163.8000488281</ele>
        <time>2014-03-02T14:13:18.000Z</time>
      </trkpt>
      <trkpt lat="45.34324" lon="6.17865">
        <ele>2163.8000488281</ele>
        <time>2014-03-02T14:13:19.000Z</time>
      </trkpt>
      <trkpt lat="45.34324" lon="6.17865">
        <ele>2163.8000488281</ele>
        <time>2014-03-02T14:13:20.000Z</time>
      </trkpt>
      <trkpt lat="45.34324" lon="6.17865">
        <ele>2163.8000488281</ele>
        <time>2014-03-02T14:13:21.000Z</time>
      </trkpt>
      <trkpt lat="45.34324" lon="6.17865">
        <ele>2163.8000488281</ele>
        <time>2014-03-02T14:13:22.000Z</time>
      </trkpt>
      <trkpt lat="45.34324" lon="6.17865">
        <ele>2163.8000488281</ele>
        <time>2014-03-02T14:13:23.000Z</time>
      </trkpt>
      <trkpt lat="45.34324" lon="6.17865">
        <ele>2163.8000488281</ele>
        <time>2014-03-02T14:13:24.000Z</time>
      </trkpt>
      <trkpt lat="45.34324" lon="6.17865">
        <ele>2163.8000488281</ele>
        <time>2014-03-02T14:13:25.000Z</time>
      </trkpt>
      <trkpt lat="45.34324" lon="6.17865">
        <ele>2163.8000488281</ele>
        <time>2014-03-02T14:13:26.000Z</time>
      </trkpt>
      <trkpt lat="45.34324" lon="6.17865">
        <ele>2163.8000488281</ele>
        <time>2014-03-02T14:13:27.000Z</time>
      </trkpt>
      <trkpt lat="45.34324" lon="6.17865">
        <ele>2163.8000488281</ele>
        <time>2014-03-02T14:13:29.000Z</time>
      </trkpt>
      <trkpt lat="45.34324" lon="6.17865">
        <ele>2163.8000488281</ele>
        <time>2014-03-02T14:13:30.000Z</time>
      </trkpt>
      <trkpt lat="45.34324" lon="6.17865">
        <ele>2163.8000488281</ele>
        <time>2014-03-02T14:13:33.000Z</time>
      </trkpt>
      <trkpt lat="45.34324" lon="6.17865">
        <ele>2163.8000488281</ele>
        <time>2014-03-02T14:13:34.000Z</time>
      </trkpt>
      <trkpt lat="45.34324" lon="6.17865">
        <ele>2163.8000488281</ele>
        <time>2014-03-02T14:13:35.000Z</time>
      </trkpt>
      <trkpt lat="45.34324" lon="6.17864">
        <ele>2163.8000488281</ele>
        <time>2014-03-02T14:13:36.000Z</time>
      </trkpt>
      <trkpt lat="45.34324" lon="6.17864">
        <ele>2163.8000488281</ele>
        <time>2014-03-02T14:13:37.000Z</time>
      </trkpt>
      <trkpt lat="45.34324" lon="6.17865">
        <ele>2164</ele>
        <time>2014-03-02T14:13:38.000Z</time>
      </trkpt>
      <trkpt lat="45.34324" lon="6.17866">
        <ele>2164.1999511719</ele>
        <time>2014-03-02T14:13:39.000Z</time>
      </trkpt>
      <trkpt lat="45.34324" lon="6.17867">
        <ele>2164.6000976562</ele>
        <time>2014-03-02T14:13:40.000Z</time>
      </trkpt>
      <trkpt lat="45.34323" lon="6.17868">
        <ele>2164.8000488281</ele>
        <time>2014-03-02T14:13:41.000Z</time>
      </trkpt>
      <trkpt lat="45.34323" lon="6.17868">
        <ele>2164.8000488281</ele>
        <time>2014-03-02T14:13:42.000Z</time>
      </trkpt>
      <trkpt lat="45.34322" lon="6.17869">
        <ele>2165</ele>
        <time>2014-03-02T14:13:43.000Z</time>
      </trkpt>
      <trkpt lat="45.34321" lon="6.1787">
        <ele>2165</ele>
        <time>2014-03-02T14:13:44.000Z</time>
      </trkpt>
      <trkpt lat="45.3432" lon="6.17871">
        <ele>2165</ele>
        <time>2014-03-02T14:13:45.000Z</time>
      </trkpt>
      <trkpt lat="45.3432" lon="6.17871">
        <ele>2165</ele>
        <time>2014-03-02T14:13:46.000Z</time>
      </trkpt>
      <trkpt lat="45.3432" lon="6.17871">
        <ele>2165</ele>
        <time>2014-03-02T14:13:47.000Z</time>
      </trkpt>
      <trkpt lat="45.3432" lon="6.17872">
        <ele>2165</ele>
        <time>2014-03-02T14:13:48.000Z</time>
      </trkpt>
      <trkpt lat="45.3432" lon="6.17872">
        <ele>2165</ele>
        <time>2014-03-02T14:13:49.000Z</time>
      </trkpt>
      <trkpt lat="45.34318" lon="6.17872">
        <ele>2164.8000488281</ele>
        <time>2014-03-02T14:13:50.000Z</time>
      </trkpt>
      <trkpt lat="45.34318" lon="6.17872">
        <ele>2164.8000488281</ele>
        <time>2014-03-02T14:13:51.000Z</time>
      </trkpt>
      <trkpt lat="45.34317" lon="6.17872">
        <ele>2164.3999023438</ele>
        <time>2014-03-02T14:13:52.000Z</time>
      </trkpt>
      <trkpt lat="45.34316" lon="6.17871">
        <ele>2164.1999511719</ele>
        <time>2014-03-02T14:13:53.000Z</time>
      </trkpt>
      <trkpt lat="45.34315" lon="6.17871">
        <ele>2163.6000976562</ele>
        <time>2014-03-02T14:13:54.000Z</time>
      </trkpt>
      <trkpt lat="45.34314" lon="6.17871">
        <ele>2163.3999023438</ele>
        <time>2014-03-02T14:13:55.000Z</time>
      </trkpt>
      <trkpt lat="45.34313" lon="6.17871">
        <ele>2163</ele>
        <time>2014-03-02T14:13:56.000Z</time>
      </trkpt>
      <trkpt lat="45.34312" lon="6.17871">
        <ele>2162.6000976562</ele>
        <time>2014-03-02T14:13:57.000Z</time>
      </trkpt>
      <trkpt lat="45.34311" lon="6.17871">
        <ele>2162.6000976562</ele>
        <time>2014-03-02T14:13:58.000Z</time>
      </trkpt>
      <trkpt lat="45.3431" lon="6.17871">
        <ele>2162.3999023438</ele>
        <time>2014-03-02T14:13:59.000Z</time>
      </trkpt>
      <trkpt lat="45.34309" lon="6.17871">
        <ele>2162.3999023438</ele>
        <time>2014-03-02T14:14:00.000Z</time>
      </trkpt>
      <trkpt lat="45.34309" lon="6.17871">
        <ele>2162</ele>
        <time>2014-03-02T14:14:01.000Z</time>
      </trkpt>
      <trkpt lat="45.34308" lon="6.17871">
        <ele>2161.8000488281</ele>
        <time>2014-03-02T14:14:02.000Z</time>
      </trkpt>
      <trkpt lat="45.34308" lon="6.17871">
        <ele>2161.8000488281</ele>
        <time>2014-03-02T14:14:03.000Z</time>
      </trkpt>
      <trkpt lat="45.34307" lon="6.17871">
        <ele>2161.8000488281</ele>
        <time>2014-03-02T14:14:04.000Z</time>
      </trkpt>
      <trkpt lat="45.34307" lon="6.17872">
        <ele>2161.8000488281</ele>
        <time>2014-03-02T14:14:05.000Z</time>
      </trkpt>
      <trkpt lat="45.34306" lon="6.17872">
        <ele>2161.8000488281</ele>
        <time>2014-03-02T14:14:06.000Z</time>
      </trkpt>
      <trkpt lat="45.34306" lon="6.17873">
        <ele>2161.8000488281</ele>
        <time>2014-03-02T14:14:07.000Z</time>
      </trkpt>
      <trkpt lat="45.34305" lon="6.17872">
        <ele>2161.3999023438</ele>
        <time>2014-03-02T14:14:08.000Z</time>
      </trkpt>
      <trkpt lat="45.34304" lon="6.17872">
        <ele>2161.1999511719</ele>
        <time>2014-03-02T14:14:09.000Z</time>
      </trkpt>
      <trkpt lat="45.34304" lon="6.17872">
        <ele>2161.1999511719</ele>
        <time>2014-03-02T14:14:10.000Z</time>
      </trkpt>
      <trkpt lat="45.34304" lon="6.17872">
        <ele>2161</ele>
        <time>2014-03-02T14:14:11.000Z</time>
      </trkpt>
      <trkpt lat="45.34303" lon="6.17872">
        <ele>2161</ele>
        <time>2014-03-02T14:14:12.000Z</time>
      </trkpt>
      <trkpt lat="45.34303" lon="6.17872">
        <ele>2161</ele>
        <time>2014-03-02T14:14:13.000Z</time>
      </trkpt>
      <trkpt lat="45.34303" lon="6.17872">
        <ele>2160.8000488281</ele>
        <time>2014-03-02T14:14:14.000Z</time>
      </trkpt>
      <trkpt lat="45.34303" lon="6.17872">
        <ele>2160.8000488281</ele>
        <time>2014-03-02T14:14:15.000Z</time>
      </trkpt>
      <trkpt lat="45.34302" lon="6.17872">
        <ele>2160.6000976562</ele>
        <time>2014-03-02T14:14:16.000Z</time>
      </trkpt>
      <trkpt lat="45.34302" lon="6.17872">
        <ele>2160.3999023438</ele>
        <time>2014-03-02T14:14:17.000Z</time>
      </trkpt>
      <trkpt lat="45.34301" lon="6.17872">
        <ele>2160.3999023438</ele>
        <time>2014-03-02T14:14:18.000Z</time>
      </trkpt>
      <trkpt lat="45.34301" lon="6.17872">
        <ele>2160.3999023438</ele>
        <time>2014-03-02T14:14:19.000Z</time>
      </trkpt>
      <trkpt lat="45.343" lon="6.17872">
        <ele>2160.1999511719</ele>
        <time>2014-03-02T14:14:20.000Z</time>
      </trkpt>
      <trkpt lat="45.34299" lon="6.17872">
        <ele>2160</ele>
        <time>2014-03-02T14:14:21.000Z</time>
      </trkpt>
      <trkpt lat="45.34298" lon="6.17872">
        <ele>2159.6000976562</ele>
        <time>2014-03-02T14:14:22.000Z</time>
      </trkpt>
      <trkpt lat="45.34298" lon="6.17873">
        <ele>2159.8000488281</ele>
        <time>2014-03-02T14:14:23.000Z</time>
      </trkpt>
      <trkpt lat="45.34298" lon="6.17873">
        <ele>2159.8000488281</ele>
        <time>2014-03-02T14:14:24.000Z</time>
      </trkpt>
      <trkpt lat="45.34298" lon="6.17874">
        <ele>2160</ele>
        <time>2014-03-02T14:14:25.000Z</time>
      </trkpt>
      <trkpt lat="45.34298" lon="6.17874">
        <ele>2160</ele>
        <time>2014-03-02T14:14:26.000Z</time>
      </trkpt>
      <trkpt lat="45.34298" lon="6.17875">
        <ele>2160.6000976562</ele>
        <time>2014-03-02T14:14:27.000Z</time>
      </trkpt>
      <trkpt lat="45.34298" lon="6.17875">
        <ele>2160.6000976562</ele>
        <time>2014-03-02T14:14:28.000Z</time>
      </trkpt>
      <trkpt lat="45.34298" lon="6.17876">
        <ele>2161.1999511719</ele>
        <time>2014-03-02T14:14:29.000Z</time>
      </trkpt>
      <trkpt lat="45.34299" lon="6.17877">
        <ele>2161.3999023438</ele>
        <time>2014-03-02T14:14:30.000Z</time>
      </trkpt>
      <trkpt lat="45.34299" lon="6.17877">
        <ele>2161.3999023438</ele>
        <time>2014-03-02T14:14:31.000Z</time>
      </trkpt>
      <trkpt lat="45.34298" lon="6.17878">
        <ele>2161.6000976562</ele>
        <time>2014-03-02T14:14:32.000Z</time>
      </trkpt>
      <trkpt lat="45.34298" lon="6.17878">
        <ele>2161.6000976562</ele>
        <time>2014-03-02T14:14:33.000Z</time>
      </trkpt>
      <trkpt lat="45.34298" lon="6.17879">
        <ele>2161.8000488281</ele>
        <time>2014-03-02T14:14:34.000Z</time>
      </trkpt>
      <trkpt lat="45.34298" lon="6.17879">
        <ele>2161.8000488281</ele>
        <time>2014-03-02T14:14:35.000Z</time>
      </trkpt>
      <trkpt lat="45.34297" lon="6.1788">
        <ele>2162</ele>
        <time>2014-03-02T14:14:36.000Z</time>
      </trkpt>
      <trkpt lat="45.34297" lon="6.1788">
        <ele>2162</ele>
        <time>2014-03-02T14:14:37.000Z</time>
      </trkpt>
      <trkpt lat="45.34297" lon="6.17881">
        <ele>2162.3999023438</ele>
        <time>2014-03-02T14:14:38.000Z</time>
      </trkpt>
      <trkpt lat="45.34297" lon="6.17881">
        <ele>2162.3999023438</ele>
        <time>2014-03-02T14:14:39.000Z</time>
      </trkpt>
      <trkpt lat="45.34297" lon="6.17881">
        <ele>2162.3999023438</ele>
        <time>2014-03-02T14:14:40.000Z</time>
      </trkpt>
      <trkpt lat="45.34297" lon="6.17881">
        <ele>2162.3999023438</ele>
        <time>2014-03-02T14:14:41.000Z</time>
      </trkpt>
      <trkpt lat="45.34297" lon="6.17881">
        <ele>2162.3999023438</ele>
        <time>2014-03-02T14:14:42.000Z</time>
      </trkpt>
      <trkpt lat="45.34297" lon="6.17881">
        <ele>2162.3999023438</ele>
        <time>2014-03-02T14:14:43.000Z</time>
      </trkpt>
      <trkpt lat="45.34297" lon="6.17881">
        <ele>2162.3999023438</ele>
        <time>2014-03-02T14:14:44.000Z</time>
      </trkpt>
      <trkpt lat="45.34296" lon="6.17881">
        <ele>2162.3999023438</ele>
        <time>2014-03-02T14:14:45.000Z</time>
      </trkpt>
      <trkpt lat="45.34296" lon="6.17881">
        <ele>2162.3999023438</ele>
        <time>2014-03-02T14:14:46.000Z</time>
      </trkpt>
      <trkpt lat="45.34296" lon="6.17881">
        <ele>2162.3999023438</ele>
        <time>2014-03-02T14:14:47.000Z</time>
      </trkpt>
      <trkpt lat="45.34296" lon="6.17881">
        <ele>2162.3999023438</ele>
        <time>2014-03-02T14:14:48.000Z</time>
      </trkpt>
      <trkpt lat="45.34296" lon="6.17881">
        <ele>2162.3999023438</ele>
        <time>2014-03-02T14:14:49.000Z</time>
      </trkpt>
      <trkpt lat="45.34296" lon="6.17881">
        <ele>2162.3999023438</ele>
        <time>2014-03-02T14:14:50.000Z</time>
      </trkpt>
      <trkpt lat="45.34296" lon="6.17882">
        <ele>2162.8000488281</ele>
        <time>2014-03-02T14:14:51.000Z</time>
      </trkpt>
      <trkpt lat="45.34296" lon="6.17883">
        <ele>2163</ele>
        <time>2014-03-02T14:14:52.000Z</time>
      </trkpt>
      <trkpt lat="45.34295" lon="6.17884">
        <ele>2163.6000976562</ele>
        <time>2014-03-02T14:14:53.000Z</time>
      </trkpt>
      <trkpt lat="45.34295" lon="6.17884">
        <ele>2163.6000976562</ele>
        <time>2014-03-02T14:14:54.000Z</time>
      </trkpt>
      <trkpt lat="45.34295" lon="6.17886">
        <ele>2164.1999511719</ele>
        <time>2014-03-02T14:14:55.000Z</time>
      </trkpt>
      <trkpt lat="45.34295" lon="6.17886">
        <ele>2164.1999511719</ele>
        <time>2014-03-02T14:14:56.000Z</time>
      </trkpt>
      <trkpt lat="45.34294" lon="6.17887">
        <ele>2164.8000488281</ele>
        <time>2014-03-02T14:14:57.000Z</time>
      </trkpt>
      <trkpt lat="45.34294" lon="6.17887">
        <ele>2164.8000488281</ele>
        <time>2014-03-02T14:14:58.000Z</time>
      </trkpt>
      <trkpt lat="45.34294" lon="6.17889">
        <ele>2165.3999023438</ele>
        <time>2014-03-02T14:14:59.000Z</time>
      </trkpt>
      <trkpt lat="45.34294" lon="6.17889">
        <ele>2165.3999023438</ele>
        <time>2014-03-02T14:15:00.000Z</time>
      </trkpt>
      <trkpt lat="45.34293" lon="6.1789">
        <ele>2165.6000976562</ele>
        <time>2014-03-02T14:15:01.000Z</time>
      </trkpt>
      <trkpt lat="45.34293" lon="6.1789">
        <ele>2165.6000976562</ele>
        <time>2014-03-02T14:15:02.000Z</time>
      </trkpt>
      <trkpt lat="45.34292" lon="6.17891">
        <ele>2166.1999511719</ele>
        <time>2014-03-02T14:15:03.000Z</time>
      </trkpt>
      <trkpt lat="45.34291" lon="6.17891">
        <ele>2166.1999511719</ele>
        <time>2014-03-02T14:15:04.000Z</time>
      </trkpt>
      <trkpt lat="45.34291" lon="6.17891">
        <ele>2166.1999511719</ele>
        <time>2014-03-02T14:15:05.000Z</time>
      </trkpt>
      <trkpt lat="45.3429" lon="6.17892">
        <ele>2166.3999023438</ele>
        <time>2014-03-02T14:15:06.000Z</time>
      </trkpt>
      <trkpt lat="45.3429" lon="6.17892">
        <ele>2166.3999023438</ele>
        <time>2014-03-02T14:15:07.000Z</time>
      </trkpt>
      <trkpt lat="45.3429" lon="6.17892">
        <ele>2166.6000976562</ele>
        <time>2014-03-02T14:15:08.000Z</time>
      </trkpt>
      <trkpt lat="45.34289" lon="6.17893">
        <ele>2166.8000488281</ele>
        <time>2014-03-02T14:15:09.000Z</time>
      </trkpt>
      <trkpt lat="45.34289" lon="6.17893">
        <ele>2166.8000488281</ele>
        <time>2014-03-02T14:15:10.000Z</time>
      </trkpt>
      <trkpt lat="45.34289" lon="6.17894">
        <ele>2167.1999511719</ele>
        <time>2014-03-02T14:15:11.000Z</time>
      </trkpt>
      <trkpt lat="45.34289" lon="6.17894">
        <ele>2167.1999511719</ele>
        <time>2014-03-02T14:15:12.000Z</time>
      </trkpt>
      <trkpt lat="45.34289" lon="6.17894">
        <ele>2167.3999023438</ele>
        <time>2014-03-02T14:15:13.000Z</time>
      </trkpt>
      <trkpt lat="45.34289" lon="6.17894">
        <ele>2167.3999023438</ele>
        <time>2014-03-02T14:15:14.000Z</time>
      </trkpt>
      <trkpt lat="45.34288" lon="6.17895">
        <ele>2167.6000976562</ele>
        <time>2014-03-02T14:15:15.000Z</time>
      </trkpt>
      <trkpt lat="45.34288" lon="6.17895">
        <ele>2167.6000976562</ele>
        <time>2014-03-02T14:15:16.000Z</time>
      </trkpt>
      <trkpt lat="45.34288" lon="6.17895">
        <ele>2167.6000976562</ele>
        <time>2014-03-02T14:15:17.000Z</time>
      </trkpt>
      <trkpt lat="45.34288" lon="6.17895">
        <ele>2167.6000976562</ele>
        <time>2014-03-02T14:15:18.000Z</time>
      </trkpt>
      <trkpt lat="45.34288" lon="6.17895">
        <ele>2167.6000976562</ele>
        <time>2014-03-02T14:15:19.000Z</time>
      </trkpt>
      <trkpt lat="45.34287" lon="6.17896">
        <ele>2168.1999511719</ele>
        <time>2014-03-02T14:15:20.000Z</time>
      </trkpt>
      <trkpt lat="45.34287" lon="6.17896">
        <ele>2168.1999511719</ele>
        <time>2014-03-02T14:15:21.000Z</time>
      </trkpt>
      <trkpt lat="45.34287" lon="6.17897">
        <ele>2168.3999023438</ele>
        <time>2014-03-02T14:15:22.000Z</time>
      </trkpt>
      <trkpt lat="45.34287" lon="6.17897">
        <ele>2168.3999023438</ele>
        <time>2014-03-02T14:15:23.000Z</time>
      </trkpt>
      <trkpt lat="45.34287" lon="6.17897">
        <ele>2168.3999023438</ele>
        <time>2014-03-02T14:15:24.000Z</time>
      </trkpt>
      <trkpt lat="45.34286" lon="6.17898">
        <ele>2168.8000488281</ele>
        <time>2014-03-02T14:15:25.000Z</time>
      </trkpt>
      <trkpt lat="45.34286" lon="6.17898">
        <ele>2168.8000488281</ele>
        <time>2014-03-02T14:15:26.000Z</time>
      </trkpt>
      <trkpt lat="45.34285" lon="6.17899">
        <ele>2169.1999511719</ele>
        <time>2014-03-02T14:15:27.000Z</time>
      </trkpt>
      <trkpt lat="45.34285" lon="6.17899">
        <ele>2169.1999511719</ele>
        <time>2014-03-02T14:15:28.000Z</time>
      </trkpt>
      <trkpt lat="45.34285" lon="6.179">
        <ele>2169.8000488281</ele>
        <time>2014-03-02T14:15:29.000Z</time>
      </trkpt>
      <trkpt lat="45.34285" lon="6.179">
        <ele>2169.8000488281</ele>
        <time>2014-03-02T14:15:30.000Z</time>
      </trkpt>
      <trkpt lat="45.34285" lon="6.179">
        <ele>2169.8000488281</ele>
        <time>2014-03-02T14:15:31.000Z</time>
      </trkpt>
      <trkpt lat="45.34284" lon="6.17901">
        <ele>2170.1999511719</ele>
        <time>2014-03-02T14:15:32.000Z</time>
      </trkpt>
      <trkpt lat="45.34284" lon="6.17901">
        <ele>2170.1999511719</ele>
        <time>2014-03-02T14:15:33.000Z</time>
      </trkpt>
      <trkpt lat="45.34284" lon="6.17901">
        <ele>2170.1999511719</ele>
        <time>2014-03-02T14:15:34.000Z</time>
      </trkpt>
      <trkpt lat="45.34284" lon="6.17901">
        <ele>2170.1999511719</ele>
        <time>2014-03-02T14:15:35.000Z</time>
      </trkpt>
      <trkpt lat="45.34284" lon="6.17901">
        <ele>2170.1999511719</ele>
        <time>2014-03-02T14:15:36.000Z</time>
      </trkpt>
      <trkpt lat="45.34284" lon="6.17902">
        <ele>2170.3999023438</ele>
        <time>2014-03-02T14:15:37.000Z</time>
      </trkpt>
      <trkpt lat="45.34284" lon="6.17902">
        <ele>2170.3999023438</ele>
        <time>2014-03-02T14:15:38.000Z</time>
      </trkpt>
      <trkpt lat="45.34284" lon="6.17902">
        <ele>2170.3999023438</ele>
        <time>2014-03-02T14:15:39.000Z</time>
      </trkpt>
      <trkpt lat="45.34283" lon="6.17902">
        <ele>2170.6000976562</ele>
        <time>2014-03-02T14:15:40.000Z</time>
      </trkpt>
      <trkpt lat="45.34283" lon="6.17902">
        <ele>2170.6000976562</ele>
        <time>2014-03-02T14:15:41.000Z</time>
      </trkpt>
      <trkpt lat="45.34282" lon="6.17902">
        <ele>2170.8000488281</ele>
        <time>2014-03-02T14:15:42.000Z</time>
      </trkpt>
      <trkpt lat="45.34282" lon="6.17902">
        <ele>2170.8000488281</ele>
        <time>2014-03-02T14:15:43.000Z</time>
      </trkpt>
      <trkpt lat="45.34281" lon="6.17903">
        <ele>2171.1999511719</ele>
        <time>2014-03-02T14:15:44.000Z</time>
      </trkpt>
      <trkpt lat="45.34281" lon="6.17904">
        <ele>2171.3999023438</ele>
        <time>2014-03-02T14:15:45.000Z</time>
      </trkpt>
      <trkpt lat="45.3428" lon="6.17904">
        <ele>2171.6000976562</ele>
        <time>2014-03-02T14:15:46.000Z</time>
      </trkpt>
      <trkpt lat="45.34279" lon="6.17904">
        <ele>2171.6000976562</ele>
        <time>2014-03-02T14:15:47.000Z</time>
      </trkpt>
      <trkpt lat="45.34279" lon="6.17904">
        <ele>2171.6000976562</ele>
        <time>2014-03-02T14:15:48.000Z</time>
      </trkpt>
      <trkpt lat="45.34279" lon="6.17904">
        <ele>2171.6000976562</ele>
        <time>2014-03-02T14:15:49.000Z</time>
      </trkpt>
      <trkpt lat="45.34279" lon="6.17904">
        <ele>2171.6000976562</ele>
        <time>2014-03-02T14:15:50.000Z</time>
      </trkpt>
      <trkpt lat="45.34278" lon="6.17905">
        <ele>2172</ele>
        <time>2014-03-02T14:15:51.000Z</time>
      </trkpt>
      <trkpt lat="45.34278" lon="6.17905">
        <ele>2172</ele>
        <time>2014-03-02T14:15:52.000Z</time>
      </trkpt>
      <trkpt lat="45.34278" lon="6.17905">
        <ele>2172</ele>
        <time>2014-03-02T14:15:53.000Z</time>
      </trkpt>
      <trkpt lat="45.34277" lon="6.17906">
        <ele>2172.1999511719</ele>
        <time>2014-03-02T14:15:54.000Z</time>
      </trkpt>
      <trkpt lat="45.34277" lon="6.17906">
        <ele>2172.1999511719</ele>
        <time>2014-03-02T14:15:55.000Z</time>
      </trkpt>
      <trkpt lat="45.34277" lon="6.17906">
        <ele>2172.3999023438</ele>
        <time>2014-03-02T14:15:56.000Z</time>
      </trkpt>
      <trkpt lat="45.34277" lon="6.17906">
        <ele>2172.3999023438</ele>
        <time>2014-03-02T14:15:57.000Z</time>
      </trkpt>
      <trkpt lat="45.34277" lon="6.17906">
        <ele>2172.3999023438</ele>
        <time>2014-03-02T14:15:58.000Z</time>
      </trkpt>
      <trkpt lat="45.34277" lon="6.17906">
        <ele>2172.3999023438</ele>
        <time>2014-03-02T14:15:59.000Z</time>
      </trkpt>
      <trkpt lat="45.34277" lon="6.17906">
        <ele>2172.3999023438</ele>
        <time>2014-03-02T14:16:00.000Z</time>
      </trkpt>
      <trkpt lat="45.34277" lon="6.17906">
        <ele>2172.3999023438</ele>
        <time>2014-03-02T14:16:01.000Z</time>
      </trkpt>
      <trkpt lat="45.34277" lon="6.17906">
        <ele>2172.3999023438</ele>
        <time>2014-03-02T14:16:02.000Z</time>
      </trkpt>
      <trkpt lat="45.34277" lon="6.17906">
        <ele>2172.3999023438</ele>
        <time>2014-03-02T14:16:03.000Z</time>
      </trkpt>
      <trkpt lat="45.34277" lon="6.17906">
        <ele>2172.3999023438</ele>
        <time>2014-03-02T14:16:04.000Z</time>
      </trkpt>
      <trkpt lat="45.34277" lon="6.17906">
        <ele>2172.3999023438</ele>
        <time>2014-03-02T14:16:05.000Z</time>
      </trkpt>
      <trkpt lat="45.34276" lon="6.17907">
        <ele>2172.8000488281</ele>
        <time>2014-03-02T14:16:07.000Z</time>
      </trkpt>
      <trkpt lat="45.34275" lon="6.17908">
        <ele>2173.1999511719</ele>
        <time>2014-03-02T14:16:08.000Z</time>
      </trkpt>
      <trkpt lat="45.34274" lon="6.17909">
        <ele>2173.6000976562</ele>
        <time>2014-03-02T14:16:09.000Z</time>
      </trkpt>
      <trkpt lat="45.34274" lon="6.1791">
        <ele>2174.3999023438</ele>
        <time>2014-03-02T14:16:10.000Z</time>
      </trkpt>
      <trkpt lat="45.34274" lon="6.1791">
        <ele>2174.3999023438</ele>
        <time>2014-03-02T14:16:11.000Z</time>
      </trkpt>
      <trkpt lat="45.34273" lon="6.17911">
        <ele>2174.8000488281</ele>
        <time>2014-03-02T14:16:12.000Z</time>
      </trkpt>
      <trkpt lat="45.34273" lon="6.17911">
        <ele>2174.8000488281</ele>
        <time>2014-03-02T14:16:13.000Z</time>
      </trkpt>
      <trkpt lat="45.34273" lon="6.17911">
        <ele>2174.8000488281</ele>
        <time>2014-03-02T14:16:14.000Z</time>
      </trkpt>
      <trkpt lat="45.34272" lon="6.17911">
        <ele>2174.8000488281</ele>
        <time>2014-03-02T14:16:15.000Z</time>
      </trkpt>
      <trkpt lat="45.34272" lon="6.17911">
        <ele>2174.8000488281</ele>
        <time>2014-03-02T14:16:16.000Z</time>
      </trkpt>
      <trkpt lat="45.34272" lon="6.17911">
        <ele>2174.8000488281</ele>
        <time>2014-03-02T14:16:17.000Z</time>
      </trkpt>
      <trkpt lat="45.34271" lon="6.17912">
        <ele>2175</ele>
        <time>2014-03-02T14:16:18.000Z</time>
      </trkpt>
      <trkpt lat="45.34271" lon="6.17912">
        <ele>2175</ele>
        <time>2014-03-02T14:16:19.000Z</time>
      </trkpt>
      <trkpt lat="45.34271" lon="6.17912">
        <ele>2175</ele>
        <time>2014-03-02T14:16:20.000Z</time>
      </trkpt>
      <trkpt lat="45.34271" lon="6.17912">
        <ele>2175</ele>
        <time>2014-03-02T14:16:21.000Z</time>
      </trkpt>
      <trkpt lat="45.34271" lon="6.17912">
        <ele>2175</ele>
        <time>2014-03-02T14:16:22.000Z</time>
      </trkpt>
      <trkpt lat="45.34271" lon="6.17912">
        <ele>2175.1999511719</ele>
        <time>2014-03-02T14:16:23.000Z</time>
      </trkpt>
      <trkpt lat="45.34271" lon="6.17912">
        <ele>2175.1999511719</ele>
        <time>2014-03-02T14:16:24.000Z</time>
      </trkpt>
      <trkpt lat="45.34271" lon="6.17912">
        <ele>2175.1999511719</ele>
        <time>2014-03-02T14:16:25.000Z</time>
      </trkpt>
      <trkpt lat="45.3427" lon="6.17913">
        <ele>2175.3999023438</ele>
        <time>2014-03-02T14:16:26.000Z</time>
      </trkpt>
      <trkpt lat="45.3427" lon="6.17913">
        <ele>2175.3999023438</ele>
        <time>2014-03-02T14:16:27.000Z</time>
      </trkpt>
      <trkpt lat="45.3427" lon="6.17913">
        <ele>2175.3999023438</ele>
        <time>2014-03-02T14:16:28.000Z</time>
      </trkpt>
      <trkpt lat="45.34269" lon="6.17913">
        <ele>2175.6000976562</ele>
        <time>2014-03-02T14:16:29.000Z</time>
      </trkpt>
      <trkpt lat="45.34269" lon="6.17913">
        <ele>2175.6000976562</ele>
        <time>2014-03-02T14:16:30.000Z</time>
      </trkpt>
      <trkpt lat="45.34269" lon="6.17913">
        <ele>2175.6000976562</ele>
        <time>2014-03-02T14:16:31.000Z</time>
      </trkpt>
      <trkpt lat="45.34268" lon="6.17914">
        <ele>2176</ele>
        <time>2014-03-02T14:16:32.000Z</time>
      </trkpt>
      <trkpt lat="45.34268" lon="6.17914">
        <ele>2176</ele>
        <time>2014-03-02T14:16:33.000Z</time>
      </trkpt>
      <trkpt lat="45.34268" lon="6.17914">
        <ele>2176</ele>
        <time>2014-03-02T14:16:34.000Z</time>
      </trkpt>
      <trkpt lat="45.34267" lon="6.17914">
        <ele>2176.1999511719</ele>
        <time>2014-03-02T14:16:35.000Z</time>
      </trkpt>
      <trkpt lat="45.34267" lon="6.17914">
        <ele>2176.1999511719</ele>
        <time>2014-03-02T14:16:36.000Z</time>
      </trkpt>
      <trkpt lat="45.34267" lon="6.17914">
        <ele>2176.1999511719</ele>
        <time>2014-03-02T14:16:37.000Z</time>
      </trkpt>
      <trkpt lat="45.34265" lon="6.17914">
        <ele>2176.3999023438</ele>
        <time>2014-03-02T14:16:38.000Z</time>
      </trkpt>
      <trkpt lat="45.34265" lon="6.17914">
        <ele>2176.3999023438</ele>
        <time>2014-03-02T14:16:39.000Z</time>
      </trkpt>
      <trkpt lat="45.34265" lon="6.17914">
        <ele>2176.3999023438</ele>
        <time>2014-03-02T14:16:40.000Z</time>
      </trkpt>
      <trkpt lat="45.34265" lon="6.17914">
        <ele>2176.3999023438</ele>
        <time>2014-03-02T14:16:41.000Z</time>
      </trkpt>
      <trkpt lat="45.34265" lon="6.17914">
        <ele>2176.3999023438</ele>
        <time>2014-03-02T14:16:42.000Z</time>
      </trkpt>
      <trkpt lat="45.34265" lon="6.17914">
        <ele>2176.3999023438</ele>
        <time>2014-03-02T14:16:43.000Z</time>
      </trkpt>
      <trkpt lat="45.34265" lon="6.17914">
        <ele>2176.3999023438</ele>
        <time>2014-03-02T14:16:44.000Z</time>
      </trkpt>
      <trkpt lat="45.34265" lon="6.17914">
        <ele>2176.3999023438</ele>
        <time>2014-03-02T14:16:45.000Z</time>
      </trkpt>
      <trkpt lat="45.34265" lon="6.17914">
        <ele>2176.3999023438</ele>
        <time>2014-03-02T14:16:46.000Z</time>
      </trkpt>
      <trkpt lat="45.34265" lon="6.17914">
        <ele>2176.3999023438</ele>
        <time>2014-03-02T14:16:47.000Z</time>
      </trkpt>
      <trkpt lat="45.34265" lon="6.17914">
        <ele>2176.3999023438</ele>
        <time>2014-03-02T14:16:48.000Z</time>
      </trkpt>
      <trkpt lat="45.34265" lon="6.17914">
        <ele>2176.3999023438</ele>
        <time>2014-03-02T14:16:49.000Z</time>
      </trkpt>
      <trkpt lat="45.34265" lon="6.17914">
        <ele>2176.3999023438</ele>
        <time>2014-03-02T14:16:50.000Z</time>
      </trkpt>
      <trkpt lat="45.34265" lon="6.17914">
        <ele>2176.3999023438</ele>
        <time>2014-03-02T14:16:51.000Z</time>
      </trkpt>
      <trkpt lat="45.34265" lon="6.17914">
        <ele>2176.3999023438</ele>
        <time>2014-03-02T14:16:52.000Z</time>
      </trkpt>
      <trkpt lat="45.34264" lon="6.17915">
        <ele>2176.6000976562</ele>
        <time>2014-03-02T14:16:53.000Z</time>
      </trkpt>
      <trkpt lat="45.34264" lon="6.17915">
        <ele>2176.6000976562</ele>
        <time>2014-03-02T14:16:54.000Z</time>
      </trkpt>
      <trkpt lat="45.34263" lon="6.17915">
        <ele>2176.8000488281</ele>
        <time>2014-03-02T14:16:55.000Z</time>
      </trkpt>
      <trkpt lat="45.34263" lon="6.17915">
        <ele>2176.8000488281</ele>
        <time>2014-03-02T14:16:56.000Z</time>
      </trkpt>
      <trkpt lat="45.34262" lon="6.17915">
        <ele>2176.8000488281</ele>
        <time>2014-03-02T14:16:57.000Z</time>
      </trkpt>
      <trkpt lat="45.34261" lon="6.17915">
        <ele>2176.8000488281</ele>
        <time>2014-03-02T14:16:58.000Z</time>
      </trkpt>
      <trkpt lat="45.34261" lon="6.17915">
        <ele>2176.8000488281</ele>
        <time>2014-03-02T14:16:59.000Z</time>
      </trkpt>
      <trkpt lat="45.34261" lon="6.17915">
        <ele>2176.8000488281</ele>
        <time>2014-03-02T14:17:00.000Z</time>
      </trkpt>
      <trkpt lat="45.3426" lon="6.17915">
        <ele>2177</ele>
        <time>2014-03-02T14:17:01.000Z</time>
      </trkpt>
      <trkpt lat="45.3426" lon="6.17915">
        <ele>2177</ele>
        <time>2014-03-02T14:17:02.000Z</time>
      </trkpt>
      <trkpt lat="45.3426" lon="6.17915">
        <ele>2177</ele>
        <time>2014-03-02T14:17:03.000Z</time>
      </trkpt>
      <trkpt lat="45.3426" lon="6.17915">
        <ele>2177</ele>
        <time>2014-03-02T14:17:04.000Z</time>
      </trkpt>
      <trkpt lat="45.3426" lon="6.17915">
        <ele>2177</ele>
        <time>2014-03-02T14:17:05.000Z</time>
      </trkpt>
      <trkpt lat="45.34259" lon="6.17916">
        <ele>2177.1999511719</ele>
        <time>2014-03-02T14:17:06.000Z</time>
      </trkpt>
      <trkpt lat="45.34259" lon="6.17916">
        <ele>2177.1999511719</ele>
        <time>2014-03-02T14:17:07.000Z</time>
      </trkpt>
      <trkpt lat="45.34259" lon="6.17916">
        <ele>2177.1999511719</ele>
        <time>2014-03-02T14:17:08.000Z</time>
      </trkpt>
      <trkpt lat="45.34259" lon="6.17916">
        <ele>2177.1999511719</ele>
        <time>2014-03-02T14:17:09.000Z</time>
      </trkpt>
      <trkpt lat="45.34259" lon="6.17916">
        <ele>2177.1999511719</ele>
        <time>2014-03-02T14:17:10.000Z</time>
      </trkpt>
      <trkpt lat="45.34259" lon="6.17916">
        <ele>2177.1999511719</ele>
        <time>2014-03-02T14:17:11.000Z</time>
      </trkpt>
      <trkpt lat="45.34259" lon="6.17916">
        <ele>2177.1999511719</ele>
        <time>2014-03-02T14:17:12.000Z</time>
      </trkpt>
      <trkpt lat="45.34259" lon="6.17916">
        <ele>2177.1999511719</ele>
        <time>2014-03-02T14:17:13.000Z</time>
      </trkpt>
      <trkpt lat="45.34259" lon="6.17916">
        <ele>2177.1999511719</ele>
        <time>2014-03-02T14:17:14.000Z</time>
      </trkpt>
      <trkpt lat="45.34259" lon="6.17916">
        <ele>2177.1999511719</ele>
        <time>2014-03-02T14:17:15.000Z</time>
      </trkpt>
      <trkpt lat="45.34259" lon="6.17916">
        <ele>2177.1999511719</ele>
        <time>2014-03-02T14:17:16.000Z</time>
      </trkpt>
      <trkpt lat="45.34259" lon="6.17916">
        <ele>2177.1999511719</ele>
        <time>2014-03-02T14:17:18.000Z</time>
      </trkpt>
      <trkpt lat="45.34258" lon="6.17916">
        <ele>2177.1999511719</ele>
        <time>2014-03-02T14:17:19.000Z</time>
      </trkpt>
      <trkpt lat="45.34257" lon="6.17916">
        <ele>2177.3999023438</ele>
        <time>2014-03-02T14:17:21.000Z</time>
      </trkpt>
      <trkpt lat="45.34256" lon="6.17916">
        <ele>2177.3999023438</ele>
        <time>2014-03-02T14:17:22.000Z</time>
      </trkpt>
      <trkpt lat="45.34255" lon="6.17916">
        <ele>2177.6000976562</ele>
        <time>2014-03-02T14:17:23.000Z</time>
      </trkpt>
      <trkpt lat="45.34253" lon="6.17916">
        <ele>2177.8000488281</ele>
        <time>2014-03-02T14:17:24.000Z</time>
      </trkpt>
      <trkpt lat="45.34253" lon="6.17916">
        <ele>2177.8000488281</ele>
        <time>2014-03-02T14:17:25.000Z</time>
      </trkpt>
      <trkpt lat="45.34253" lon="6.17916">
        <ele>2177.8000488281</ele>
        <time>2014-03-02T14:17:26.000Z</time>
      </trkpt>
      <trkpt lat="45.34253" lon="6.17916">
        <ele>2177.8000488281</ele>
        <time>2014-03-02T14:17:27.000Z</time>
      </trkpt>
      <trkpt lat="45.34253" lon="6.17916">
        <ele>2177.8000488281</ele>
        <time>2014-03-02T14:17:28.000Z</time>
      </trkpt>
      <trkpt lat="45.34253" lon="6.17918">
        <ele>2178.1999511719</ele>
        <time>2014-03-02T14:17:29.000Z</time>
      </trkpt>
      <trkpt lat="45.34255" lon="6.1792">
        <ele>2179</ele>
        <time>2014-03-02T14:17:30.000Z</time>
      </trkpt>
      <trkpt lat="45.34255" lon="6.17921">
        <ele>2179.6000976562</ele>
        <time>2014-03-02T14:17:31.000Z</time>
      </trkpt>
      <trkpt lat="45.34256" lon="6.17922">
        <ele>2180</ele>
        <time>2014-03-02T14:17:32.000Z</time>
      </trkpt>
      <trkpt lat="45.34256" lon="6.17923">
        <ele>2180.1999511719</ele>
        <time>2014-03-02T14:17:33.000Z</time>
      </trkpt>
      <trkpt lat="45.34256" lon="6.17924">
        <ele>2180.8000488281</ele>
        <time>2014-03-02T14:17:34.000Z</time>
      </trkpt>
      <trkpt lat="45.34256" lon="6.17926">
        <ele>2181.1999511719</ele>
        <time>2014-03-02T14:17:35.000Z</time>
      </trkpt>
      <trkpt lat="45.34256" lon="6.17926">
        <ele>2181.1999511719</ele>
        <time>2014-03-02T14:17:36.000Z</time>
      </trkpt>
      <trkpt lat="45.34256" lon="6.17926">
        <ele>2181.6000976562</ele>
        <time>2014-03-02T14:17:37.000Z</time>
      </trkpt>
      <trkpt lat="45.34256" lon="6.17926">
        <ele>2181.6000976562</ele>
        <time>2014-03-02T14:17:38.000Z</time>
      </trkpt>
      <trkpt lat="45.34257" lon="6.17927">
        <ele>2181.8000488281</ele>
        <time>2014-03-02T14:17:39.000Z</time>
      </trkpt>
      <trkpt lat="45.34257" lon="6.17928">
        <ele>2182</ele>
        <time>2014-03-02T14:17:40.000Z</time>
      </trkpt>
      <trkpt lat="45.34257" lon="6.17928">
        <ele>2182</ele>
        <time>2014-03-02T14:17:41.000Z</time>
      </trkpt>
      <trkpt lat="45.34257" lon="6.17929">
        <ele>2182.3999023438</ele>
        <time>2014-03-02T14:17:42.000Z</time>
      </trkpt>
      <trkpt lat="45.34257" lon="6.17929">
        <ele>2182.3999023438</ele>
        <time>2014-03-02T14:17:43.000Z</time>
      </trkpt>
      <trkpt lat="45.34257" lon="6.17929">
        <ele>2182.3999023438</ele>
        <time>2014-03-02T14:17:44.000Z</time>
      </trkpt>
      <trkpt lat="45.34257" lon="6.17929">
        <ele>2182.3999023438</ele>
        <time>2014-03-02T14:17:45.000Z</time>
      </trkpt>
      <trkpt lat="45.34257" lon="6.17929">
        <ele>2182.3999023438</ele>
        <time>2014-03-02T14:17:46.000Z</time>
      </trkpt>
      <trkpt lat="45.34257" lon="6.17929">
        <ele>2182.3999023438</ele>
        <time>2014-03-02T14:17:47.000Z</time>
      </trkpt>
      <trkpt lat="45.34257" lon="6.17929">
        <ele>2182.3999023438</ele>
        <time>2014-03-02T14:17:48.000Z</time>
      </trkpt>
      <trkpt lat="45.34257" lon="6.17929">
        <ele>2182.3999023438</ele>
        <time>2014-03-02T14:17:49.000Z</time>
      </trkpt>
      <trkpt lat="45.34257" lon="6.1793">
        <ele>2182.8000488281</ele>
        <time>2014-03-02T14:17:50.000Z</time>
      </trkpt>
      <trkpt lat="45.34257" lon="6.17931">
        <ele>2183.1999511719</ele>
        <time>2014-03-02T14:17:51.000Z</time>
      </trkpt>
      <trkpt lat="45.34257" lon="6.17931">
        <ele>2183.1999511719</ele>
        <time>2014-03-02T14:17:52.000Z</time>
      </trkpt>
      <trkpt lat="45.34257" lon="6.17932">
        <ele>2183.6000976562</ele>
        <time>2014-03-02T14:17:53.000Z</time>
      </trkpt>
      <trkpt lat="45.34257" lon="6.17933">
        <ele>2184</ele>
        <time>2014-03-02T14:17:54.000Z</time>
      </trkpt>
      <trkpt lat="45.34257" lon="6.17933">
        <ele>2184</ele>
        <time>2014-03-02T14:17:55.000Z</time>
      </trkpt>
      <trkpt lat="45.34257" lon="6.17933">
        <ele>2184</ele>
        <time>2014-03-02T14:17:56.000Z</time>
      </trkpt>
      <trkpt lat="45.34257" lon="6.17934">
        <ele>2184.3999023438</ele>
        <time>2014-03-02T14:17:57.000Z</time>
      </trkpt>
      <trkpt lat="45.34257" lon="6.17934">
        <ele>2184.3999023438</ele>
        <time>2014-03-02T14:17:58.000Z</time>
      </trkpt>
      <trkpt lat="45.34257" lon="6.17934">
        <ele>2184.3999023438</ele>
        <time>2014-03-02T14:17:59.000Z</time>
      </trkpt>
      <trkpt lat="45.34257" lon="6.17934">
        <ele>2184.3999023438</ele>
        <time>2014-03-02T14:18:00.000Z</time>
      </trkpt>
      <trkpt lat="45.34257" lon="6.17934">
        <ele>2184.3999023438</ele>
        <time>2014-03-02T14:18:01.000Z</time>
      </trkpt>
      <trkpt lat="45.34257" lon="6.17934">
        <ele>2184.3999023438</ele>
        <time>2014-03-02T14:18:02.000Z</time>
      </trkpt>
      <trkpt lat="45.34257" lon="6.17934">
        <ele>2184.3999023438</ele>
        <time>2014-03-02T14:18:03.000Z</time>
      </trkpt>
      <trkpt lat="45.34257" lon="6.17934">
        <ele>2184.3999023438</ele>
        <time>2014-03-02T14:18:04.000Z</time>
      </trkpt>
      <trkpt lat="45.34257" lon="6.17934">
        <ele>2184.3999023438</ele>
        <time>2014-03-02T14:18:06.000Z</time>
      </trkpt>
      <trkpt lat="45.34257" lon="6.17934">
        <ele>2184.3999023438</ele>
        <time>2014-03-02T14:18:07.000Z</time>
      </trkpt>
      <trkpt lat="45.34257" lon="6.17934">
        <ele>2184.3999023438</ele>
        <time>2014-03-02T14:18:08.000Z</time>
      </trkpt>
      <trkpt lat="45.34257" lon="6.17934">
        <ele>2184.3999023438</ele>
        <time>2014-03-02T14:18:09.000Z</time>
      </trkpt>
      <trkpt lat="45.34257" lon="6.17934">
        <ele>2184.3999023438</ele>
        <time>2014-03-02T14:18:10.000Z</time>
      </trkpt>
      <trkpt lat="45.34257" lon="6.17934">
        <ele>2184.3999023438</ele>
        <time>2014-03-02T14:18:12.000Z</time>
      </trkpt>
      <trkpt lat="45.34257" lon="6.17934">
        <ele>2184.3999023438</ele>
        <time>2014-03-02T14:18:13.000Z</time>
      </trkpt>
      <trkpt lat="45.34257" lon="6.17934">
        <ele>2184.3999023438</ele>
        <time>2014-03-02T14:18:14.000Z</time>
      </trkpt>
      <trkpt lat="45.34257" lon="6.17934">
        <ele>2184.3999023438</ele>
        <time>2014-03-02T14:18:15.000Z</time>
      </trkpt>
      <trkpt lat="45.34257" lon="6.17934">
        <ele>2184.3999023438</ele>
        <time>2014-03-02T14:18:16.000Z</time>
      </trkpt>
      <trkpt lat="45.34257" lon="6.17934">
        <ele>2184.3999023438</ele>
        <time>2014-03-02T14:18:17.000Z</time>
      </trkpt>
      <trkpt lat="45.34257" lon="6.17934">
        <ele>2184.3999023438</ele>
        <time>2014-03-02T14:18:18.000Z</time>
      </trkpt>
      <trkpt lat="45.34257" lon="6.17935">
        <ele>2184.8000488281</ele>
        <time>2014-03-02T14:18:19.000Z</time>
      </trkpt>
      <trkpt lat="45.34257" lon="6.17935">
        <ele>2184.8000488281</ele>
        <time>2014-03-02T14:18:20.000Z</time>
      </trkpt>
      <trkpt lat="45.34257" lon="6.17936">
        <ele>2185.3999023438</ele>
        <time>2014-03-02T14:18:21.000Z</time>
      </trkpt>
      <trkpt lat="45.34257" lon="6.17938">
        <ele>2186</ele>
        <time>2014-03-02T14:18:22.000Z</time>
      </trkpt>
      <trkpt lat="45.34257" lon="6.17939">
        <ele>2186.6000976562</ele>
        <time>2014-03-02T14:18:23.000Z</time>
      </trkpt>
      <trkpt lat="45.34258" lon="6.1794">
        <ele>2187.1999511719</ele>
        <time>2014-03-02T14:18:24.000Z</time>
      </trkpt>
      <trkpt lat="45.34258" lon="6.1794">
        <ele>2187.1999511719</ele>
        <time>2014-03-02T14:18:25.000Z</time>
      </trkpt>
      <trkpt lat="45.34257" lon="6.17941">
        <ele>2187.6000976562</ele>
        <time>2014-03-02T14:18:26.000Z</time>
      </trkpt>
      <trkpt lat="45.34257" lon="6.17941">
        <ele>2187.6000976562</ele>
        <time>2014-03-02T14:18:27.000Z</time>
      </trkpt>
      <trkpt lat="45.34257" lon="6.17942">
        <ele>2188.1999511719</ele>
        <time>2014-03-02T14:18:28.000Z</time>
      </trkpt>
      <trkpt lat="45.34257" lon="6.17942">
        <ele>2188.1999511719</ele>
        <time>2014-03-02T14:18:29.000Z</time>
      </trkpt>
      <trkpt lat="45.34257" lon="6.17944">
        <ele>2188.8000488281</ele>
        <time>2014-03-02T14:18:30.000Z</time>
      </trkpt>
      <trkpt lat="45.34257" lon="6.17944">
        <ele>2188.8000488281</ele>
        <time>2014-03-02T14:18:31.000Z</time>
      </trkpt>
      <trkpt lat="45.34257" lon="6.17944">
        <ele>2188.8000488281</ele>
        <time>2014-03-02T14:18:32.000Z</time>
      </trkpt>
      <trkpt lat="45.34257" lon="6.17944">
        <ele>2188.8000488281</ele>
        <time>2014-03-02T14:18:33.000Z</time>
      </trkpt>
      <trkpt lat="45.34257" lon="6.17944">
        <ele>2188.8000488281</ele>
        <time>2014-03-02T14:18:34.000Z</time>
      </trkpt>
      <trkpt lat="45.34257" lon="6.17945">
        <ele>2189.3999023438</ele>
        <time>2014-03-02T14:18:35.000Z</time>
      </trkpt>
      <trkpt lat="45.34257" lon="6.17946">
        <ele>2189.6000976562</ele>
        <time>2014-03-02T14:18:36.000Z</time>
      </trkpt>
      <trkpt lat="45.34257" lon="6.17946">
        <ele>2189.6000976562</ele>
        <time>2014-03-02T14:18:37.000Z</time>
      </trkpt>
      <trkpt lat="45.34257" lon="6.17946">
        <ele>2189.6000976562</ele>
        <time>2014-03-02T14:18:38.000Z</time>
      </trkpt>
      <trkpt lat="45.34257" lon="6.17946">
        <ele>2189.6000976562</ele>
        <time>2014-03-02T14:18:39.000Z</time>
      </trkpt>
      <trkpt lat="45.34257" lon="6.17947">
        <ele>2190.1999511719</ele>
        <time>2014-03-02T14:18:40.000Z</time>
      </trkpt>
      <trkpt lat="45.34257" lon="6.17947">
        <ele>2190.1999511719</ele>
        <time>2014-03-02T14:18:41.000Z</time>
      </trkpt>
      <trkpt lat="45.34257" lon="6.17947">
        <ele>2190.1999511719</ele>
        <time>2014-03-02T14:18:42.000Z</time>
      </trkpt>
      <trkpt lat="45.34257" lon="6.17947">
        <ele>2190.1999511719</ele>
        <time>2014-03-02T14:18:43.000Z</time>
      </trkpt>
      <trkpt lat="45.34257" lon="6.17947">
        <ele>2190.1999511719</ele>
        <time>2014-03-02T14:18:44.000Z</time>
      </trkpt>
      <trkpt lat="45.34258" lon="6.17948">
        <ele>2190.8000488281</ele>
        <time>2014-03-02T14:18:45.000Z</time>
      </trkpt>
      <trkpt lat="45.34258" lon="6.17948">
        <ele>2190.8000488281</ele>
        <time>2014-03-02T14:18:46.000Z</time>
      </trkpt>
      <trkpt lat="45.34258" lon="6.17948">
        <ele>2190.8000488281</ele>
        <time>2014-03-02T14:18:47.000Z</time>
      </trkpt>
      <trkpt lat="45.34258" lon="6.17948">
        <ele>2190.8000488281</ele>
        <time>2014-03-02T14:18:48.000Z</time>
      </trkpt>
      <trkpt lat="45.34258" lon="6.17948">
        <ele>2190.8000488281</ele>
        <time>2014-03-02T14:18:49.000Z</time>
      </trkpt>
      <trkpt lat="45.34258" lon="6.17948">
        <ele>2190.8000488281</ele>
        <time>2014-03-02T14:18:50.000Z</time>
      </trkpt>
      <trkpt lat="45.34258" lon="6.17948">
        <ele>2190.8000488281</ele>
        <time>2014-03-02T14:18:51.000Z</time>
      </trkpt>
      <trkpt lat="45.34258" lon="6.17948">
        <ele>2190.8000488281</ele>
        <time>2014-03-02T14:18:52.000Z</time>
      </trkpt>
      <trkpt lat="45.34258" lon="6.17949">
        <ele>2191</ele>
        <time>2014-03-02T14:18:53.000Z</time>
      </trkpt>
      <trkpt lat="45.34258" lon="6.1795">
        <ele>2191.3999023438</ele>
        <time>2014-03-02T14:18:54.000Z</time>
      </trkpt>
      <trkpt lat="45.34258" lon="6.1795">
        <ele>2191.3999023438</ele>
        <time>2014-03-02T14:18:55.000Z</time>
      </trkpt>
      <trkpt lat="45.34258" lon="6.1795">
        <ele>2191.3999023438</ele>
        <time>2014-03-02T14:18:56.000Z</time>
      </trkpt>
      <trkpt lat="45.34258" lon="6.1795">
        <ele>2191.3999023438</ele>
        <time>2014-03-02T14:18:57.000Z</time>
      </trkpt>
      <trkpt lat="45.34258" lon="6.1795">
        <ele>2191.3999023438</ele>
        <time>2014-03-02T14:18:58.000Z</time>
      </trkpt>
      <trkpt lat="45.34258" lon="6.1795">
        <ele>2191.3999023438</ele>
        <time>2014-03-02T14:18:59.000Z</time>
      </trkpt>
      <trkpt lat="45.34258" lon="6.1795">
        <ele>2191.3999023438</ele>
        <time>2014-03-02T14:19:00.000Z</time>
      </trkpt>
      <trkpt lat="45.34258" lon="6.1795">
        <ele>2191.3999023438</ele>
        <time>2014-03-02T14:19:01.000Z</time>
      </trkpt>
      <trkpt lat="45.34258" lon="6.1795">
        <ele>2191.3999023438</ele>
        <time>2014-03-02T14:19:02.000Z</time>
      </trkpt>
      <trkpt lat="45.34258" lon="6.1795">
        <ele>2191.3999023438</ele>
        <time>2014-03-02T14:19:03.000Z</time>
      </trkpt>
      <trkpt lat="45.34258" lon="6.1795">
        <ele>2191.3999023438</ele>
        <time>2014-03-02T14:19:04.000Z</time>
      </trkpt>
      <trkpt lat="45.34258" lon="6.1795">
        <ele>2191.3999023438</ele>
        <time>2014-03-02T14:19:05.000Z</time>
      </trkpt>
      <trkpt lat="45.34258" lon="6.1795">
        <ele>2191.3999023438</ele>
        <time>2014-03-02T14:19:06.000Z</time>
      </trkpt>
      <trkpt lat="45.34258" lon="6.1795">
        <ele>2191.3999023438</ele>
        <time>2014-03-02T14:19:07.000Z</time>
      </trkpt>
      <trkpt lat="45.34258" lon="6.1795">
        <ele>2191.3999023438</ele>
        <time>2014-03-02T14:19:08.000Z</time>
      </trkpt>
      <trkpt lat="45.34258" lon="6.1795">
        <ele>2191.3999023438</ele>
        <time>2014-03-02T14:19:09.000Z</time>
      </trkpt>
      <trkpt lat="45.34258" lon="6.1795">
        <ele>2191.3999023438</ele>
        <time>2014-03-02T14:19:10.000Z</time>
      </trkpt>
      <trkpt lat="45.34258" lon="6.1795">
        <ele>2191.3999023438</ele>
        <time>2014-03-02T14:19:11.000Z</time>
      </trkpt>
      <trkpt lat="45.34258" lon="6.1795">
        <ele>2191.3999023438</ele>
        <time>2014-03-02T14:19:12.000Z</time>
      </trkpt>
      <trkpt lat="45.34258" lon="6.1795">
        <ele>2191.3999023438</ele>
        <time>2014-03-02T14:19:13.000Z</time>
      </trkpt>
      <trkpt lat="45.34258" lon="6.17952">
        <ele>2192.1999511719</ele>
        <time>2014-03-02T14:19:14.000Z</time>
      </trkpt>
      <trkpt lat="45.34259" lon="6.17953">
        <ele>2193</ele>
        <time>2014-03-02T14:19:15.000Z</time>
      </trkpt>
      <trkpt lat="45.34259" lon="6.17955">
        <ele>2193.8000488281</ele>
        <time>2014-03-02T14:19:16.000Z</time>
      </trkpt>
      <trkpt lat="45.34259" lon="6.17957">
        <ele>2194.6000976562</ele>
        <time>2014-03-02T14:19:17.000Z</time>
      </trkpt>
      <trkpt lat="45.34259" lon="6.17957">
        <ele>2194.6000976562</ele>
        <time>2014-03-02T14:19:18.000Z</time>
      </trkpt>
      <trkpt lat="45.34259" lon="6.17957">
        <ele>2194.6000976562</ele>
        <time>2014-03-02T14:19:19.000Z</time>
      </trkpt>
      <trkpt lat="45.34259" lon="6.17957">
        <ele>2194.6000976562</ele>
        <time>2014-03-02T14:19:20.000Z</time>
      </trkpt>
      <trkpt lat="45.34259" lon="6.17957">
        <ele>2194.6000976562</ele>
        <time>2014-03-02T14:19:21.000Z</time>
      </trkpt>
      <trkpt lat="45.34259" lon="6.17957">
        <ele>2194.6000976562</ele>
        <time>2014-03-02T14:19:22.000Z</time>
      </trkpt>
      <trkpt lat="45.34259" lon="6.17957">
        <ele>2194.6000976562</ele>
        <time>2014-03-02T14:19:23.000Z</time>
      </trkpt>
      <trkpt lat="45.34259" lon="6.17957">
        <ele>2194.6000976562</ele>
        <time>2014-03-02T14:19:25.000Z</time>
      </trkpt>
      <trkpt lat="45.34259" lon="6.17957">
        <ele>2194.6000976562</ele>
        <time>2014-03-02T14:19:26.000Z</time>
      </trkpt>
      <trkpt lat="45.34259" lon="6.17957">
        <ele>2194.6000976562</ele>
        <time>2014-03-02T14:19:29.000Z</time>
      </trkpt>
      <trkpt lat="45.34259" lon="6.17957">
        <ele>2194.6000976562</ele>
        <time>2014-03-02T14:19:30.000Z</time>
      </trkpt>
      <trkpt lat="45.34259" lon="6.17957">
        <ele>2194.6000976562</ele>
        <time>2014-03-02T14:19:32.000Z</time>
      </trkpt>
      <trkpt lat="45.34259" lon="6.17957">
        <ele>2194.6000976562</ele>
        <time>2014-03-02T14:19:33.000Z</time>
      </trkpt>
      <trkpt lat="45.34259" lon="6.17957">
        <ele>2194.6000976562</ele>
        <time>2014-03-02T14:19:35.000Z</time>
      </trkpt>
      <trkpt lat="45.34259" lon="6.17957">
        <ele>2194.6000976562</ele>
        <time>2014-03-02T14:19:36.000Z</time>
      </trkpt>
      <trkpt lat="45.34259" lon="6.17958">
        <ele>2194.8000488281</ele>
        <time>2014-03-02T14:19:37.000Z</time>
      </trkpt>
      <trkpt lat="45.34259" lon="6.17958">
        <ele>2195.1999511719</ele>
        <time>2014-03-02T14:19:38.000Z</time>
      </trkpt>
      <trkpt lat="45.34259" lon="6.17958">
        <ele>2195.1999511719</ele>
        <time>2014-03-02T14:19:39.000Z</time>
      </trkpt>
      <trkpt lat="45.34259" lon="6.17958">
        <ele>2195.1999511719</ele>
        <time>2014-03-02T14:19:40.000Z</time>
      </trkpt>
      <trkpt lat="45.34259" lon="6.17958">
        <ele>2195.1999511719</ele>
        <time>2014-03-02T14:19:41.000Z</time>
      </trkpt>
      <trkpt lat="45.34258" lon="6.17959">
        <ele>2195.8000488281</ele>
        <time>2014-03-02T14:19:42.000Z</time>
      </trkpt>
      <trkpt lat="45.34258" lon="6.17959">
        <ele>2195.8000488281</ele>
        <time>2014-03-02T14:19:43.000Z</time>
      </trkpt>
      <trkpt lat="45.34258" lon="6.1796">
        <ele>2196</ele>
        <time>2014-03-02T14:19:44.000Z</time>
      </trkpt>
      <trkpt lat="45.34257" lon="6.1796">
        <ele>2196.1999511719</ele>
        <time>2014-03-02T14:19:45.000Z</time>
      </trkpt>
      <trkpt lat="45.34257" lon="6.1796">
        <ele>2196.3999023438</ele>
        <time>2014-03-02T14:19:46.000Z</time>
      </trkpt>
      <trkpt lat="45.34256" lon="6.17961">
        <ele>2196.6000976562</ele>
        <time>2014-03-02T14:19:47.000Z</time>
      </trkpt>
      <trkpt lat="45.34255" lon="6.1796">
        <ele>2196.6000976562</ele>
        <time>2014-03-02T14:19:48.000Z</time>
      </trkpt>
      <trkpt lat="45.34254" lon="6.1796">
        <ele>2196.6000976562</ele>
        <time>2014-03-02T14:19:49.000Z</time>
      </trkpt>
      <trkpt lat="45.34253" lon="6.1796">
        <ele>2196.3999023438</ele>
        <time>2014-03-02T14:19:50.000Z</time>
      </trkpt>
      <trkpt lat="45.34252" lon="6.17959">
        <ele>2196.3999023438</ele>
        <time>2014-03-02T14:19:51.000Z</time>
      </trkpt>
      <trkpt lat="45.34251" lon="6.17959">
        <ele>2196.3999023438</ele>
        <time>2014-03-02T14:19:52.000Z</time>
      </trkpt>
      <trkpt lat="45.34251" lon="6.17959">
        <ele>2196.3999023438</ele>
        <time>2014-03-02T14:19:53.000Z</time>
      </trkpt>
      <trkpt lat="45.34251" lon="6.17959">
        <ele>2196.6000976562</ele>
        <time>2014-03-02T14:19:54.000Z</time>
      </trkpt>
      <trkpt lat="45.3425" lon="6.1796">
        <ele>2196.8000488281</ele>
        <time>2014-03-02T14:19:55.000Z</time>
      </trkpt>
      <trkpt lat="45.3425" lon="6.1796">
        <ele>2196.8000488281</ele>
        <time>2014-03-02T14:19:56.000Z</time>
      </trkpt>
      <trkpt lat="45.3425" lon="6.1796">
        <ele>2196.8000488281</ele>
        <time>2014-03-02T14:19:57.000Z</time>
      </trkpt>
      <trkpt lat="45.3425" lon="6.1796">
        <ele>2196.8000488281</ele>
        <time>2014-03-02T14:19:58.000Z</time>
      </trkpt>
      <trkpt lat="45.3425" lon="6.1796">
        <ele>2196.8000488281</ele>
        <time>2014-03-02T14:19:59.000Z</time>
      </trkpt>
      <trkpt lat="45.34249" lon="6.1796">
        <ele>2197</ele>
        <time>2014-03-02T14:20:00.000Z</time>
      </trkpt>
      <trkpt lat="45.34248" lon="6.1796">
        <ele>2197.1999511719</ele>
        <time>2014-03-02T14:20:01.000Z</time>
      </trkpt>
      <trkpt lat="45.34247" lon="6.1796">
        <ele>2197.3999023438</ele>
        <time>2014-03-02T14:20:02.000Z</time>
      </trkpt>
      <trkpt lat="45.34247" lon="6.17961">
        <ele>2197.3999023438</ele>
        <time>2014-03-02T14:20:03.000Z</time>
      </trkpt>
      <trkpt lat="45.34247" lon="6.17961">
        <ele>2197.3999023438</ele>
        <time>2014-03-02T14:20:04.000Z</time>
      </trkpt>
      <trkpt lat="45.34247" lon="6.17961">
        <ele>2197.3999023438</ele>
        <time>2014-03-02T14:20:05.000Z</time>
      </trkpt>
      <trkpt lat="45.34247" lon="6.17961">
        <ele>2197.3999023438</ele>
        <time>2014-03-02T14:20:06.000Z</time>
      </trkpt>
      <trkpt lat="45.34247" lon="6.17961">
        <ele>2197.3999023438</ele>
        <time>2014-03-02T14:20:07.000Z</time>
      </trkpt>
      <trkpt lat="45.34247" lon="6.17961">
        <ele>2197.3999023438</ele>
        <time>2014-03-02T14:20:08.000Z</time>
      </trkpt>
      <trkpt lat="45.34247" lon="6.17961">
        <ele>2197.3999023438</ele>
        <time>2014-03-02T14:20:10.000Z</time>
      </trkpt>
      <trkpt lat="45.34247" lon="6.17961">
        <ele>2197.3999023438</ele>
        <time>2014-03-02T14:20:11.000Z</time>
      </trkpt>
      <trkpt lat="45.34247" lon="6.17961">
        <ele>2197.3999023438</ele>
        <time>2014-03-02T14:20:12.000Z</time>
      </trkpt>
      <trkpt lat="45.34247" lon="6.17961">
        <ele>2197.3999023438</ele>
        <time>2014-03-02T14:20:13.000Z</time>
      </trkpt>
      <trkpt lat="45.34247" lon="6.17961">
        <ele>2197.3999023438</ele>
        <time>2014-03-02T14:20:14.000Z</time>
      </trkpt>
      <trkpt lat="45.34247" lon="6.17961">
        <ele>2197.3999023438</ele>
        <time>2014-03-02T14:20:15.000Z</time>
      </trkpt>
      <trkpt lat="45.34247" lon="6.17961">
        <ele>2197.3999023438</ele>
        <time>2014-03-02T14:20:16.000Z</time>
      </trkpt>
      <trkpt lat="45.34247" lon="6.17961">
        <ele>2197.3999023438</ele>
        <time>2014-03-02T14:20:17.000Z</time>
      </trkpt>
      <trkpt lat="45.34247" lon="6.17961">
        <ele>2197.3999023438</ele>
        <time>2014-03-02T14:20:18.000Z</time>
      </trkpt>
      <trkpt lat="45.34247" lon="6.17961">
        <ele>2197.3999023438</ele>
        <time>2014-03-02T14:20:19.000Z</time>
      </trkpt>
      <trkpt lat="45.34247" lon="6.17961">
        <ele>2197.3999023438</ele>
        <time>2014-03-02T14:20:20.000Z</time>
      </trkpt>
      <trkpt lat="45.34247" lon="6.17961">
        <ele>2197.3999023438</ele>
        <time>2014-03-02T14:20:21.000Z</time>
      </trkpt>
      <trkpt lat="45.34247" lon="6.17961">
        <ele>2197.3999023438</ele>
        <time>2014-03-02T14:20:22.000Z</time>
      </trkpt>
      <trkpt lat="45.34247" lon="6.17961">
        <ele>2197.3999023438</ele>
        <time>2014-03-02T14:20:23.000Z</time>
      </trkpt>
      <trkpt lat="45.34246" lon="6.1796">
        <ele>2197.3999023438</ele>
        <time>2014-03-02T14:20:24.000Z</time>
      </trkpt>
      <trkpt lat="45.34245" lon="6.1796">
        <ele>2197.6000976562</ele>
        <time>2014-03-02T14:20:25.000Z</time>
      </trkpt>
      <trkpt lat="45.34245" lon="6.17961">
        <ele>2197.8000488281</ele>
        <time>2014-03-02T14:20:26.000Z</time>
      </trkpt>
      <trkpt lat="45.34245" lon="6.17961">
        <ele>2197.8000488281</ele>
        <time>2014-03-02T14:20:27.000Z</time>
      </trkpt>
      <trkpt lat="45.34244" lon="6.17961">
        <ele>2198</ele>
        <time>2014-03-02T14:20:28.000Z</time>
      </trkpt>
      <trkpt lat="45.34244" lon="6.17961">
        <ele>2198</ele>
        <time>2014-03-02T14:20:29.000Z</time>
      </trkpt>
      <trkpt lat="45.34243" lon="6.17961">
        <ele>2198.1999511719</ele>
        <time>2014-03-02T14:20:30.000Z</time>
      </trkpt>
      <trkpt lat="45.34242" lon="6.17961">
        <ele>2198.1999511719</ele>
        <time>2014-03-02T14:20:31.000Z</time>
      </trkpt>
      <trkpt lat="45.34241" lon="6.17961">
        <ele>2198.1999511719</ele>
        <time>2014-03-02T14:20:32.000Z</time>
      </trkpt>
      <trkpt lat="45.3424" lon="6.17961">
        <ele>2198.1999511719</ele>
        <time>2014-03-02T14:20:33.000Z</time>
      </trkpt>
      <trkpt lat="45.3424" lon="6.17961">
        <ele>2198.3999023438</ele>
        <time>2014-03-02T14:20:34.000Z</time>
      </trkpt>
      <trkpt lat="45.34239" lon="6.1796">
        <ele>2198.1999511719</ele>
        <time>2014-03-02T14:20:35.000Z</time>
      </trkpt>
      <trkpt lat="45.34239" lon="6.1796">
        <ele>2198.1999511719</ele>
        <time>2014-03-02T14:20:36.000Z</time>
      </trkpt>
      <trkpt lat="45.34238" lon="6.17961">
        <ele>2198.8000488281</ele>
        <time>2014-03-02T14:20:37.000Z</time>
      </trkpt>
      <trkpt lat="45.34237" lon="6.17962">
        <ele>2199</ele>
        <time>2014-03-02T14:20:38.000Z</time>
      </trkpt>
      <trkpt lat="45.34236" lon="6.17961">
        <ele>2199</ele>
        <time>2014-03-02T14:20:39.000Z</time>
      </trkpt>
      <trkpt lat="45.34236" lon="6.17961">
        <ele>2199</ele>
        <time>2014-03-02T14:20:40.000Z</time>
      </trkpt>
      <trkpt lat="45.34236" lon="6.17961">
        <ele>2199</ele>
        <time>2014-03-02T14:20:41.000Z</time>
      </trkpt>
      <trkpt lat="45.34236" lon="6.17961">
        <ele>2199</ele>
        <time>2014-03-02T14:20:42.000Z</time>
      </trkpt>
      <trkpt lat="45.34235" lon="6.17961">
        <ele>2199</ele>
        <time>2014-03-02T14:20:43.000Z</time>
      </trkpt>
      <trkpt lat="45.34234" lon="6.17961">
        <ele>2199</ele>
        <time>2014-03-02T14:20:44.000Z</time>
      </trkpt>
      <trkpt lat="45.34234" lon="6.17961">
        <ele>2199</ele>
        <time>2014-03-02T14:20:45.000Z</time>
      </trkpt>
      <trkpt lat="45.34233" lon="6.17961">
        <ele>2199</ele>
        <time>2014-03-02T14:20:46.000Z</time>
      </trkpt>
      <trkpt lat="45.34233" lon="6.17961">
        <ele>2199.1999511719</ele>
        <time>2014-03-02T14:20:47.000Z</time>
      </trkpt>
      <trkpt lat="45.34232" lon="6.17961">
        <ele>2199.3999023438</ele>
        <time>2014-03-02T14:20:48.000Z</time>
      </trkpt>
      <trkpt lat="45.34232" lon="6.17961">
        <ele>2199.3999023438</ele>
        <time>2014-03-02T14:20:49.000Z</time>
      </trkpt>
      <trkpt lat="45.34232" lon="6.17961">
        <ele>2199.3999023438</ele>
        <time>2014-03-02T14:20:50.000Z</time>
      </trkpt>
      <trkpt lat="45.34231" lon="6.17961">
        <ele>2199.3999023438</ele>
        <time>2014-03-02T14:20:51.000Z</time>
      </trkpt>
      <trkpt lat="45.34231" lon="6.17961">
        <ele>2199.3999023438</ele>
        <time>2014-03-02T14:20:52.000Z</time>
      </trkpt>
      <trkpt lat="45.34231" lon="6.17961">
        <ele>2199.1999511719</ele>
        <time>2014-03-02T14:20:53.000Z</time>
      </trkpt>
      <trkpt lat="45.34231" lon="6.17961">
        <ele>2199.1999511719</ele>
        <time>2014-03-02T14:20:54.000Z</time>
      </trkpt>
      <trkpt lat="45.3423" lon="6.1796">
        <ele>2199.1999511719</ele>
        <time>2014-03-02T14:20:55.000Z</time>
      </trkpt>
      <trkpt lat="45.3423" lon="6.1796">
        <ele>2199.1999511719</ele>
        <time>2014-03-02T14:20:56.000Z</time>
      </trkpt>
      <trkpt lat="45.34229" lon="6.1796">
        <ele>2199.3999023438</ele>
        <time>2014-03-02T14:20:57.000Z</time>
      </trkpt>
      <trkpt lat="45.34229" lon="6.17961">
        <ele>2199.6000976562</ele>
        <time>2014-03-02T14:20:58.000Z</time>
      </trkpt>
      <trkpt lat="45.34229" lon="6.17961">
        <ele>2199.6000976562</ele>
        <time>2014-03-02T14:20:59.000Z</time>
      </trkpt>
      <trkpt lat="45.34228" lon="6.17961">
        <ele>2199.6000976562</ele>
        <time>2014-03-02T14:21:00.000Z</time>
      </trkpt>
      <trkpt lat="45.34228" lon="6.17961">
        <ele>2199.6000976562</ele>
        <time>2014-03-02T14:21:01.000Z</time>
      </trkpt>
      <trkpt lat="45.34228" lon="6.17961">
        <ele>2199.6000976562</ele>
        <time>2014-03-02T14:21:02.000Z</time>
      </trkpt>
      <trkpt lat="45.34228" lon="6.17961">
        <ele>2199.6000976562</ele>
        <time>2014-03-02T14:21:03.000Z</time>
      </trkpt>
      <trkpt lat="45.34228" lon="6.17961">
        <ele>2199.6000976562</ele>
        <time>2014-03-02T14:21:04.000Z</time>
      </trkpt>
      <trkpt lat="45.34228" lon="6.17961">
        <ele>2199.6000976562</ele>
        <time>2014-03-02T14:21:05.000Z</time>
      </trkpt>
      <trkpt lat="45.34228" lon="6.17961">
        <ele>2199.6000976562</ele>
        <time>2014-03-02T14:21:06.000Z</time>
      </trkpt>
      <trkpt lat="45.34228" lon="6.17961">
        <ele>2199.6000976562</ele>
        <time>2014-03-02T14:21:07.000Z</time>
      </trkpt>
      <trkpt lat="45.34228" lon="6.17961">
        <ele>2199.6000976562</ele>
        <time>2014-03-02T14:21:08.000Z</time>
      </trkpt>
      <trkpt lat="45.34228" lon="6.17961">
        <ele>2199.6000976562</ele>
        <time>2014-03-02T14:21:09.000Z</time>
      </trkpt>
      <trkpt lat="45.34228" lon="6.17961">
        <ele>2199.6000976562</ele>
        <time>2014-03-02T14:21:10.000Z</time>
      </trkpt>
      <trkpt lat="45.34228" lon="6.17961">
        <ele>2199.6000976562</ele>
        <time>2014-03-02T14:21:11.000Z</time>
      </trkpt>
      <trkpt lat="45.34228" lon="6.17961">
        <ele>2199.6000976562</ele>
        <time>2014-03-02T14:21:12.000Z</time>
      </trkpt>
      <trkpt lat="45.34228" lon="6.17961">
        <ele>2199.6000976562</ele>
        <time>2014-03-02T14:21:13.000Z</time>
      </trkpt>
      <trkpt lat="45.34228" lon="6.17961">
        <ele>2199.6000976562</ele>
        <time>2014-03-02T14:21:14.000Z</time>
      </trkpt>
      <trkpt lat="45.34228" lon="6.17961">
        <ele>2199.6000976562</ele>
        <time>2014-03-02T14:21:15.000Z</time>
      </trkpt>
      <trkpt lat="45.34228" lon="6.17961">
        <ele>2199.6000976562</ele>
        <time>2014-03-02T14:21:16.000Z</time>
      </trkpt>
      <trkpt lat="45.34228" lon="6.17961">
        <ele>2199.6000976562</ele>
        <time>2014-03-02T14:21:17.000Z</time>
      </trkpt>
      <trkpt lat="45.34228" lon="6.17961">
        <ele>2199.6000976562</ele>
        <time>2014-03-02T14:21:18.000Z</time>
      </trkpt>
      <trkpt lat="45.34228" lon="6.17961">
        <ele>2199.6000976562</ele>
        <time>2014-03-02T14:21:19.000Z</time>
      </trkpt>
      <trkpt lat="45.34228" lon="6.17961">
        <ele>2199.6000976562</ele>
        <time>2014-03-02T14:21:20.000Z</time>
      </trkpt>
      <trkpt lat="45.34228" lon="6.17962">
        <ele>2200</ele>
        <time>2014-03-02T14:21:21.000Z</time>
      </trkpt>
      <trkpt lat="45.34228" lon="6.17963">
        <ele>2200.3999023438</ele>
        <time>2014-03-02T14:21:22.000Z</time>
      </trkpt>
      <trkpt lat="45.34228" lon="6.17963">
        <ele>2200.3999023438</ele>
        <time>2014-03-02T14:21:23.000Z</time>
      </trkpt>
      <trkpt lat="45.34228" lon="6.17964">
        <ele>2201</ele>
        <time>2014-03-02T14:21:24.000Z</time>
      </trkpt>
      <trkpt lat="45.34228" lon="6.17964">
        <ele>2201</ele>
        <time>2014-03-02T14:21:25.000Z</time>
      </trkpt>
      <trkpt lat="45.34228" lon="6.17964">
        <ele>2201</ele>
        <time>2014-03-02T14:21:26.000Z</time>
      </trkpt>
      <trkpt lat="45.34228" lon="6.17964">
        <ele>2201</ele>
        <time>2014-03-02T14:21:27.000Z</time>
      </trkpt>
      <trkpt lat="45.34229" lon="6.17965">
        <ele>2201.6000976562</ele>
        <time>2014-03-02T14:21:28.000Z</time>
      </trkpt>
      <trkpt lat="45.34229" lon="6.17965">
        <ele>2201.6000976562</ele>
        <time>2014-03-02T14:21:29.000Z</time>
      </trkpt>
      <trkpt lat="45.34229" lon="6.17966">
        <ele>2202.1999511719</ele>
        <time>2014-03-02T14:21:30.000Z</time>
      </trkpt>
      <trkpt lat="45.34228" lon="6.17968">
        <ele>2202.6000976562</ele>
        <time>2014-03-02T14:21:31.000Z</time>
      </trkpt>
      <trkpt lat="45.34228" lon="6.17968">
        <ele>2202.6000976562</ele>
        <time>2014-03-02T14:21:32.000Z</time>
      </trkpt>
      <trkpt lat="45.34228" lon="6.17969">
        <ele>2203.1999511719</ele>
        <time>2014-03-02T14:21:33.000Z</time>
      </trkpt>
      <trkpt lat="45.34228" lon="6.17969">
        <ele>2203.1999511719</ele>
        <time>2014-03-02T14:21:34.000Z</time>
      </trkpt>
      <trkpt lat="45.34229" lon="6.1797">
        <ele>2203.8000488281</ele>
        <time>2014-03-02T14:21:35.000Z</time>
      </trkpt>
      <trkpt lat="45.34229" lon="6.1797">
        <ele>2203.8000488281</ele>
        <time>2014-03-02T14:21:36.000Z</time>
      </trkpt>
      <trkpt lat="45.34229" lon="6.17971">
        <ele>2204.1999511719</ele>
        <time>2014-03-02T14:21:37.000Z</time>
      </trkpt>
      <trkpt lat="45.34229" lon="6.17971">
        <ele>2204.1999511719</ele>
        <time>2014-03-02T14:21:38.000Z</time>
      </trkpt>
      <trkpt lat="45.34229" lon="6.17972">
        <ele>2204.8000488281</ele>
        <time>2014-03-02T14:21:39.000Z</time>
      </trkpt>
      <trkpt lat="45.3423" lon="6.17973">
        <ele>2205.1999511719</ele>
        <time>2014-03-02T14:21:40.000Z</time>
      </trkpt>
      <trkpt lat="45.3423" lon="6.17974">
        <ele>2205.1999511719</ele>
        <time>2014-03-02T14:21:41.000Z</time>
      </trkpt>
      <trkpt lat="45.34231" lon="6.17974">
        <ele>2205.3999023438</ele>
        <time>2014-03-02T14:21:42.000Z</time>
      </trkpt>
      <trkpt lat="45.34231" lon="6.17974">
        <ele>2205.3999023438</ele>
        <time>2014-03-02T14:21:43.000Z</time>
      </trkpt>
      <trkpt lat="45.3423" lon="6.17975">
        <ele>2206</ele>
        <time>2014-03-02T14:21:44.000Z</time>
      </trkpt>
      <trkpt lat="45.3423" lon="6.17976">
        <ele>2206.6000976562</ele>
        <time>2014-03-02T14:21:45.000Z</time>
      </trkpt>
      <trkpt lat="45.3423" lon="6.17978">
        <ele>2207</ele>
        <time>2014-03-02T14:21:46.000Z</time>
      </trkpt>
      <trkpt lat="45.34229" lon="6.17979">
        <ele>2207.8000488281</ele>
        <time>2014-03-02T14:21:47.000Z</time>
      </trkpt>
      <trkpt lat="45.34229" lon="6.17979">
        <ele>2207.8000488281</ele>
        <time>2014-03-02T14:21:48.000Z</time>
      </trkpt>
      <trkpt lat="45.3423" lon="6.1798">
        <ele>2208.1999511719</ele>
        <time>2014-03-02T14:21:49.000Z</time>
      </trkpt>
      <trkpt lat="45.3423" lon="6.1798">
        <ele>2208.1999511719</ele>
        <time>2014-03-02T14:21:50.000Z</time>
      </trkpt>
      <trkpt lat="45.3423" lon="6.17982">
        <ele>2208.8000488281</ele>
        <time>2014-03-02T14:21:51.000Z</time>
      </trkpt>
      <trkpt lat="45.3423" lon="6.17984">
        <ele>2209.3999023438</ele>
        <time>2014-03-02T14:21:52.000Z</time>
      </trkpt>
      <trkpt lat="45.3423" lon="6.17984">
        <ele>2209.3999023438</ele>
        <time>2014-03-02T14:21:53.000Z</time>
      </trkpt>
      <trkpt lat="45.3423" lon="6.17984">
        <ele>2209.3999023438</ele>
        <time>2014-03-02T14:21:54.000Z</time>
      </trkpt>
      <trkpt lat="45.3423" lon="6.17983">
        <ele>2209.1999511719</ele>
        <time>2014-03-02T14:21:55.000Z</time>
      </trkpt>
      <trkpt lat="45.3423" lon="6.17983">
        <ele>2209.1999511719</ele>
        <time>2014-03-02T14:21:56.000Z</time>
      </trkpt>
      <trkpt lat="45.3423" lon="6.17983">
        <ele>2209.1999511719</ele>
        <time>2014-03-02T14:21:57.000Z</time>
      </trkpt>
      <trkpt lat="45.3423" lon="6.17983">
        <ele>2209.1999511719</ele>
        <time>2014-03-02T14:21:58.000Z</time>
      </trkpt>
      <trkpt lat="45.3423" lon="6.17983">
        <ele>2209.1999511719</ele>
        <time>2014-03-02T14:21:59.000Z</time>
      </trkpt>
      <trkpt lat="45.3423" lon="6.17983">
        <ele>2209.1999511719</ele>
        <time>2014-03-02T14:22:00.000Z</time>
      </trkpt>
      <trkpt lat="45.3423" lon="6.17983">
        <ele>2209.1999511719</ele>
        <time>2014-03-02T14:22:01.000Z</time>
      </trkpt>
      <trkpt lat="45.3423" lon="6.17983">
        <ele>2209.1999511719</ele>
        <time>2014-03-02T14:22:02.000Z</time>
      </trkpt>
      <trkpt lat="45.34229" lon="6.17983">
        <ele>2209</ele>
        <time>2014-03-02T14:22:03.000Z</time>
      </trkpt>
      <trkpt lat="45.34229" lon="6.17983">
        <ele>2209</ele>
        <time>2014-03-02T14:22:04.000Z</time>
      </trkpt>
      <trkpt lat="45.34229" lon="6.17982">
        <ele>2209</ele>
        <time>2014-03-02T14:22:05.000Z</time>
      </trkpt>
      <trkpt lat="45.34229" lon="6.17982">
        <ele>2209</ele>
        <time>2014-03-02T14:22:06.000Z</time>
      </trkpt>
      <trkpt lat="45.34228" lon="6.17981">
        <ele>2208.8000488281</ele>
        <time>2014-03-02T14:22:07.000Z</time>
      </trkpt>
      <trkpt lat="45.34228" lon="6.17981">
        <ele>2208.8000488281</ele>
        <time>2014-03-02T14:22:08.000Z</time>
      </trkpt>
      <trkpt lat="45.34228" lon="6.17981">
        <ele>2208.8000488281</ele>
        <time>2014-03-02T14:22:09.000Z</time>
      </trkpt>
      <trkpt lat="45.34228" lon="6.17981">
        <ele>2208.8000488281</ele>
        <time>2014-03-02T14:22:10.000Z</time>
      </trkpt>
      <trkpt lat="45.34228" lon="6.17981">
        <ele>2208.8000488281</ele>
        <time>2014-03-02T14:22:11.000Z</time>
      </trkpt>
      <trkpt lat="45.34227" lon="6.17981">
        <ele>2208.8000488281</ele>
        <time>2014-03-02T14:22:12.000Z</time>
      </trkpt>
      <trkpt lat="45.34227" lon="6.17981">
        <ele>2208.8000488281</ele>
        <time>2014-03-02T14:22:13.000Z</time>
      </trkpt>
      <trkpt lat="45.34226" lon="6.17981">
        <ele>2208.8000488281</ele>
        <time>2014-03-02T14:22:14.000Z</time>
      </trkpt>
      <trkpt lat="45.34225" lon="6.17981">
        <ele>2208.8000488281</ele>
        <time>2014-03-02T14:22:15.000Z</time>
      </trkpt>
      <trkpt lat="45.34224" lon="6.1798">
        <ele>2208.6000976562</ele>
        <time>2014-03-02T14:22:16.000Z</time>
      </trkpt>
      <trkpt lat="45.34224" lon="6.1798">
        <ele>2208.6000976562</ele>
        <time>2014-03-02T14:22:17.000Z</time>
      </trkpt>
      <trkpt lat="45.34223" lon="6.17979">
        <ele>2208.3999023438</ele>
        <time>2014-03-02T14:22:18.000Z</time>
      </trkpt>
      <trkpt lat="45.34221" lon="6.17978">
        <ele>2208.1999511719</ele>
        <time>2014-03-02T14:22:19.000Z</time>
      </trkpt>
      <trkpt lat="45.3422" lon="6.17978">
        <ele>2208.1999511719</ele>
        <time>2014-03-02T14:22:20.000Z</time>
      </trkpt>
      <trkpt lat="45.34219" lon="6.17977">
        <ele>2208.1999511719</ele>
        <time>2014-03-02T14:22:21.000Z</time>
      </trkpt>
      <trkpt lat="45.34219" lon="6.17977">
        <ele>2208</ele>
        <time>2014-03-02T14:22:22.000Z</time>
      </trkpt>
      <trkpt lat="45.34219" lon="6.17977">
        <ele>2208</ele>
        <time>2014-03-02T14:22:23.000Z</time>
      </trkpt>
      <trkpt lat="45.34218" lon="6.17976">
        <ele>2207.8000488281</ele>
        <time>2014-03-02T14:22:24.000Z</time>
      </trkpt>
      <trkpt lat="45.34218" lon="6.17976">
        <ele>2207.8000488281</ele>
        <time>2014-03-02T14:22:25.000Z</time>
      </trkpt>
      <trkpt lat="45.34218" lon="6.17976">
        <ele>2207.8000488281</ele>
        <time>2014-03-02T14:22:26.000Z</time>
      </trkpt>
      <trkpt lat="45.34217" lon="6.17976">
        <ele>2207.6000976562</ele>
        <time>2014-03-02T14:22:27.000Z</time>
      </trkpt>
      <trkpt lat="45.34217" lon="6.17976">
        <ele>2207.6000976562</ele>
        <time>2014-03-02T14:22:28.000Z</time>
      </trkpt>
      <trkpt lat="45.34216" lon="6.17975">
        <ele>2207.1999511719</ele>
        <time>2014-03-02T14:22:29.000Z</time>
      </trkpt>
      <trkpt lat="45.34216" lon="6.17975">
        <ele>2207.1999511719</ele>
        <time>2014-03-02T14:22:30.000Z</time>
      </trkpt>
      <trkpt lat="45.34216" lon="6.17975">
        <ele>2207.1999511719</ele>
        <time>2014-03-02T14:22:31.000Z</time>
      </trkpt>
      <trkpt lat="45.34216" lon="6.17975">
        <ele>2207.1999511719</ele>
        <time>2014-03-02T14:22:32.000Z</time>
      </trkpt>
      <trkpt lat="45.34216" lon="6.17975">
        <ele>2207.1999511719</ele>
        <time>2014-03-02T14:22:33.000Z</time>
      </trkpt>
      <trkpt lat="45.34216" lon="6.17973">
        <ele>2206.8000488281</ele>
        <time>2014-03-02T14:22:34.000Z</time>
      </trkpt>
      <trkpt lat="45.34215" lon="6.17972">
        <ele>2206.1999511719</ele>
        <time>2014-03-02T14:22:35.000Z</time>
      </trkpt>
      <trkpt lat="45.34215" lon="6.17972">
        <ele>2206.1999511719</ele>
        <time>2014-03-02T14:22:36.000Z</time>
      </trkpt>
      <trkpt lat="45.34215" lon="6.17972">
        <ele>2206.1999511719</ele>
        <time>2014-03-02T14:22:37.000Z</time>
      </trkpt>
      <trkpt lat="45.34215" lon="6.17972">
        <ele>2206.1999511719</ele>
        <time>2014-03-02T14:22:38.000Z</time>
      </trkpt>
      <trkpt lat="45.34215" lon="6.17972">
        <ele>2206.1999511719</ele>
        <time>2014-03-02T14:22:39.000Z</time>
      </trkpt>
      <trkpt lat="45.34215" lon="6.17972">
        <ele>2206.1999511719</ele>
        <time>2014-03-02T14:22:40.000Z</time>
      </trkpt>
      <trkpt lat="45.34215" lon="6.17972">
        <ele>2206.1999511719</ele>
        <time>2014-03-02T14:22:41.000Z</time>
      </trkpt>
      <trkpt lat="45.34214" lon="6.17973">
        <ele>2206.6000976562</ele>
        <time>2014-03-02T14:22:42.000Z</time>
      </trkpt>
      <trkpt lat="45.34214" lon="6.17973">
        <ele>2206.6000976562</ele>
        <time>2014-03-02T14:22:43.000Z</time>
      </trkpt>
      <trkpt lat="45.34214" lon="6.17973">
        <ele>2206.6000976562</ele>
        <time>2014-03-02T14:22:44.000Z</time>
      </trkpt>
      <trkpt lat="45.34214" lon="6.17974">
        <ele>2207.3999023438</ele>
        <time>2014-03-02T14:22:45.000Z</time>
      </trkpt>
      <trkpt lat="45.34214" lon="6.17974">
        <ele>2207.3999023438</ele>
        <time>2014-03-02T14:22:46.000Z</time>
      </trkpt>
      <trkpt lat="45.34214" lon="6.17976">
        <ele>2208</ele>
        <time>2014-03-02T14:22:47.000Z</time>
      </trkpt>
      <trkpt lat="45.34214" lon="6.17976">
        <ele>2208</ele>
        <time>2014-03-02T14:22:48.000Z</time>
      </trkpt>
      <trkpt lat="45.34214" lon="6.17978">
        <ele>2208.8000488281</ele>
        <time>2014-03-02T14:22:49.000Z</time>
      </trkpt>
      <trkpt lat="45.34214" lon="6.17978">
        <ele>2208.8000488281</ele>
        <time>2014-03-02T14:22:50.000Z</time>
      </trkpt>
      <trkpt lat="45.34214" lon="6.17979">
        <ele>2209.6000976562</ele>
        <time>2014-03-02T14:22:51.000Z</time>
      </trkpt>
      <trkpt lat="45.34214" lon="6.1798">
        <ele>2210.1999511719</ele>
        <time>2014-03-02T14:22:52.000Z</time>
      </trkpt>
      <trkpt lat="45.34214" lon="6.1798">
        <ele>2210.1999511719</ele>
        <time>2014-03-02T14:22:53.000Z</time>
      </trkpt>
      <trkpt lat="45.34214" lon="6.17982">
        <ele>2210.6000976562</ele>
        <time>2014-03-02T14:22:54.000Z</time>
      </trkpt>
      <trkpt lat="45.34214" lon="6.17982">
        <ele>2210.6000976562</ele>
        <time>2014-03-02T14:22:55.000Z</time>
      </trkpt>
      <trkpt lat="45.34214" lon="6.17983">
        <ele>2211.3999023438</ele>
        <time>2014-03-02T14:22:56.000Z</time>
      </trkpt>
      <trkpt lat="45.34214" lon="6.17983">
        <ele>2211.3999023438</ele>
        <time>2014-03-02T14:22:57.000Z</time>
      </trkpt>
      <trkpt lat="45.34214" lon="6.17985">
        <ele>2212.1999511719</ele>
        <time>2014-03-02T14:22:58.000Z</time>
      </trkpt>
      <trkpt lat="45.34214" lon="6.17986">
        <ele>2212.6000976562</ele>
        <time>2014-03-02T14:22:59.000Z</time>
      </trkpt>
      <trkpt lat="45.34214" lon="6.17986">
        <ele>2212.6000976562</ele>
        <time>2014-03-02T14:23:00.000Z</time>
      </trkpt>
      <trkpt lat="45.34215" lon="6.17988">
        <ele>2213.6000976562</ele>
        <time>2014-03-02T14:23:01.000Z</time>
      </trkpt>
      <trkpt lat="45.34215" lon="6.17988">
        <ele>2213.6000976562</ele>
        <time>2014-03-02T14:23:02.000Z</time>
      </trkpt>
      <trkpt lat="45.34215" lon="6.1799">
        <ele>2214.3999023438</ele>
        <time>2014-03-02T14:23:03.000Z</time>
      </trkpt>
      <trkpt lat="45.34215" lon="6.1799">
        <ele>2214.3999023438</ele>
        <time>2014-03-02T14:23:04.000Z</time>
      </trkpt>
      <trkpt lat="45.34215" lon="6.17991">
        <ele>2215</ele>
        <time>2014-03-02T14:23:05.000Z</time>
      </trkpt>
      <trkpt lat="45.34215" lon="6.17992">
        <ele>2215.3999023438</ele>
        <time>2014-03-02T14:23:06.000Z</time>
      </trkpt>
      <trkpt lat="45.34215" lon="6.17992">
        <ele>2215.3999023438</ele>
        <time>2014-03-02T14:23:07.000Z</time>
      </trkpt>
      <trkpt lat="45.34215" lon="6.17994">
        <ele>2216.1999511719</ele>
        <time>2014-03-02T14:23:08.000Z</time>
      </trkpt>
      <trkpt lat="45.34215" lon="6.17994">
        <ele>2216.1999511719</ele>
        <time>2014-03-02T14:23:09.000Z</time>
      </trkpt>
      <trkpt lat="45.34215" lon="6.17995">
        <ele>2216.6000976562</ele>
        <time>2014-03-02T14:23:10.000Z</time>
      </trkpt>
      <trkpt lat="45.34215" lon="6.17995">
        <ele>2216.6000976562</ele>
        <time>2014-03-02T14:23:11.000Z</time>
      </trkpt>
      <trkpt lat="45.34215" lon="6.17995">
        <ele>2216.6000976562</ele>
        <time>2014-03-02T14:23:12.000Z</time>
      </trkpt>
      <trkpt lat="45.34215" lon="6.17995">
        <ele>2216.6000976562</ele>
        <time>2014-03-02T14:23:13.000Z</time>
      </trkpt>
      <trkpt lat="45.34215" lon="6.17995">
        <ele>2216.6000976562</ele>
        <time>2014-03-02T14:23:14.000Z</time>
      </trkpt>
      <trkpt lat="45.34215" lon="6.17995">
        <ele>2216.6000976562</ele>
        <time>2014-03-02T14:23:15.000Z</time>
      </trkpt>
      <trkpt lat="45.34215" lon="6.17995">
        <ele>2216.6000976562</ele>
        <time>2014-03-02T14:23:16.000Z</time>
      </trkpt>
      <trkpt lat="45.34215" lon="6.17995">
        <ele>2216.6000976562</ele>
        <time>2014-03-02T14:23:17.000Z</time>
      </trkpt>
      <trkpt lat="45.34215" lon="6.17995">
        <ele>2216.6000976562</ele>
        <time>2014-03-02T14:23:18.000Z</time>
      </trkpt>
      <trkpt lat="45.34215" lon="6.17995">
        <ele>2216.6000976562</ele>
        <time>2014-03-02T14:23:19.000Z</time>
      </trkpt>
      <trkpt lat="45.34215" lon="6.17994">
        <ele>2216.3999023438</ele>
        <time>2014-03-02T14:23:20.000Z</time>
      </trkpt>
      <trkpt lat="45.34215" lon="6.17994">
        <ele>2216.3999023438</ele>
        <time>2014-03-02T14:23:21.000Z</time>
      </trkpt>
      <trkpt lat="45.34214" lon="6.17994">
        <ele>2216.3999023438</ele>
        <time>2014-03-02T14:23:22.000Z</time>
      </trkpt>
      <trkpt lat="45.34214" lon="6.17993">
        <ele>2216.3999023438</ele>
        <time>2014-03-02T14:23:23.000Z</time>
      </trkpt>
      <trkpt lat="45.34213" lon="6.17993">
        <ele>2216.1999511719</ele>
        <time>2014-03-02T14:23:24.000Z</time>
      </trkpt>
      <trkpt lat="45.34213" lon="6.17993">
        <ele>2216.3999023438</ele>
        <time>2014-03-02T14:23:25.000Z</time>
      </trkpt>
      <trkpt lat="45.34212" lon="6.17992">
        <ele>2216.6000976562</ele>
        <time>2014-03-02T14:23:26.000Z</time>
      </trkpt>
      <trkpt lat="45.34211" lon="6.17992">
        <ele>2216.6000976562</ele>
        <time>2014-03-02T14:23:27.000Z</time>
      </trkpt>
      <trkpt lat="45.34211" lon="6.17992">
        <ele>2216.6000976562</ele>
        <time>2014-03-02T14:23:28.000Z</time>
      </trkpt>
      <trkpt lat="45.3421" lon="6.17991">
        <ele>2216.8000488281</ele>
        <time>2014-03-02T14:23:29.000Z</time>
      </trkpt>
      <trkpt lat="45.34209" lon="6.17991">
        <ele>2216.8000488281</ele>
        <time>2014-03-02T14:23:30.000Z</time>
      </trkpt>
      <trkpt lat="45.34209" lon="6.17991">
        <ele>2216.8000488281</ele>
        <time>2014-03-02T14:23:31.000Z</time>
      </trkpt>
      <trkpt lat="45.34209" lon="6.1799">
        <ele>2216.8000488281</ele>
        <time>2014-03-02T14:23:32.000Z</time>
      </trkpt>
      <trkpt lat="45.34209" lon="6.1799">
        <ele>2216.8000488281</ele>
        <time>2014-03-02T14:23:33.000Z</time>
      </trkpt>
      <trkpt lat="45.34208" lon="6.1799">
        <ele>2216.8000488281</ele>
        <time>2014-03-02T14:23:34.000Z</time>
      </trkpt>
      <trkpt lat="45.34207" lon="6.17989">
        <ele>2216.6000976562</ele>
        <time>2014-03-02T14:23:35.000Z</time>
      </trkpt>
      <trkpt lat="45.34207" lon="6.17989">
        <ele>2216.6000976562</ele>
        <time>2014-03-02T14:23:36.000Z</time>
      </trkpt>
      <trkpt lat="45.34206" lon="6.17989">
        <ele>2216.8000488281</ele>
        <time>2014-03-02T14:23:37.000Z</time>
      </trkpt>
      <trkpt lat="45.34206" lon="6.17989">
        <ele>2216.8000488281</ele>
        <time>2014-03-02T14:23:38.000Z</time>
      </trkpt>
      <trkpt lat="45.34205" lon="6.17988">
        <ele>2216.6000976562</ele>
        <time>2014-03-02T14:23:39.000Z</time>
      </trkpt>
      <trkpt lat="45.34205" lon="6.17988">
        <ele>2216.6000976562</ele>
        <time>2014-03-02T14:23:40.000Z</time>
      </trkpt>
      <trkpt lat="45.34204" lon="6.17986">
        <ele>2216.6000976562</ele>
        <time>2014-03-02T14:23:41.000Z</time>
      </trkpt>
      <trkpt lat="45.34203" lon="6.17985">
        <ele>2216.3999023438</ele>
        <time>2014-03-02T14:23:42.000Z</time>
      </trkpt>
      <trkpt lat="45.34203" lon="6.17985">
        <ele>2216.3999023438</ele>
        <time>2014-03-02T14:23:43.000Z</time>
      </trkpt>
      <trkpt lat="45.34202" lon="6.17985">
        <ele>2216.6000976562</ele>
        <time>2014-03-02T14:23:44.000Z</time>
      </trkpt>
      <trkpt lat="45.34202" lon="6.17985">
        <ele>2216.6000976562</ele>
        <time>2014-03-02T14:23:45.000Z</time>
      </trkpt>
      <trkpt lat="45.34202" lon="6.17985">
        <ele>2216.6000976562</ele>
        <time>2014-03-02T14:23:46.000Z</time>
      </trkpt>
      <trkpt lat="45.34201" lon="6.17984">
        <ele>2216.6000976562</ele>
        <time>2014-03-02T14:23:47.000Z</time>
      </trkpt>
      <trkpt lat="45.34201" lon="6.17984">
        <ele>2216.6000976562</ele>
        <time>2014-03-02T14:23:48.000Z</time>
      </trkpt>
      <trkpt lat="45.34201" lon="6.17984">
        <ele>2216.6000976562</ele>
        <time>2014-03-02T14:23:49.000Z</time>
      </trkpt>
      <trkpt lat="45.342" lon="6.17984">
        <ele>2216.8000488281</ele>
        <time>2014-03-02T14:23:50.000Z</time>
      </trkpt>
      <trkpt lat="45.342" lon="6.17984">
        <ele>2216.8000488281</ele>
        <time>2014-03-02T14:23:51.000Z</time>
      </trkpt>
      <trkpt lat="45.342" lon="6.17984">
        <ele>2216.8000488281</ele>
        <time>2014-03-02T14:23:52.000Z</time>
      </trkpt>
      <trkpt lat="45.342" lon="6.17984">
        <ele>2216.8000488281</ele>
        <time>2014-03-02T14:23:53.000Z</time>
      </trkpt>
      <trkpt lat="45.342" lon="6.17984">
        <ele>2216.8000488281</ele>
        <time>2014-03-02T14:23:54.000Z</time>
      </trkpt>
      <trkpt lat="45.342" lon="6.17984">
        <ele>2216.8000488281</ele>
        <time>2014-03-02T14:23:55.000Z</time>
      </trkpt>
      <trkpt lat="45.342" lon="6.17984">
        <ele>2216.8000488281</ele>
        <time>2014-03-02T14:23:56.000Z</time>
      </trkpt>
      <trkpt lat="45.342" lon="6.17984">
        <ele>2216.8000488281</ele>
        <time>2014-03-02T14:23:57.000Z</time>
      </trkpt>
      <trkpt lat="45.342" lon="6.17984">
        <ele>2216.8000488281</ele>
        <time>2014-03-02T14:23:58.000Z</time>
      </trkpt>
      <trkpt lat="45.342" lon="6.17984">
        <ele>2216.8000488281</ele>
        <time>2014-03-02T14:23:59.000Z</time>
      </trkpt>
      <trkpt lat="45.342" lon="6.17984">
        <ele>2216.8000488281</ele>
        <time>2014-03-02T14:24:00.000Z</time>
      </trkpt>
      <trkpt lat="45.342" lon="6.17984">
        <ele>2216.8000488281</ele>
        <time>2014-03-02T14:24:01.000Z</time>
      </trkpt>
      <trkpt lat="45.34201" lon="6.17987">
        <ele>2217.6000976562</ele>
        <time>2014-03-02T14:24:02.000Z</time>
      </trkpt>
      <trkpt lat="45.34201" lon="6.17987">
        <ele>2217.8000488281</ele>
        <time>2014-03-02T14:24:03.000Z</time>
      </trkpt>
      <trkpt lat="45.34201" lon="6.17989">
        <ele>2218.8000488281</ele>
        <time>2014-03-02T14:24:04.000Z</time>
      </trkpt>
      <trkpt lat="45.34201" lon="6.17989">
        <ele>2218.8000488281</ele>
        <time>2014-03-02T14:24:05.000Z</time>
      </trkpt>
      <trkpt lat="45.34201" lon="6.17991">
        <ele>2219.6000976562</ele>
        <time>2014-03-02T14:24:06.000Z</time>
      </trkpt>
      <trkpt lat="45.34201" lon="6.17991">
        <ele>2219.6000976562</ele>
        <time>2014-03-02T14:24:07.000Z</time>
      </trkpt>
      <trkpt lat="45.34201" lon="6.17991">
        <ele>2219.6000976562</ele>
        <time>2014-03-02T14:24:08.000Z</time>
      </trkpt>
      <trkpt lat="45.34201" lon="6.17993">
        <ele>2220.3999023438</ele>
        <time>2014-03-02T14:24:09.000Z</time>
      </trkpt>
      <trkpt lat="45.34201" lon="6.17994">
        <ele>2221.3999023438</ele>
        <time>2014-03-02T14:24:10.000Z</time>
      </trkpt>
      <trkpt lat="45.34201" lon="6.17996">
        <ele>2222.1999511719</ele>
        <time>2014-03-02T14:24:11.000Z</time>
      </trkpt>
      <trkpt lat="45.34201" lon="6.17996">
        <ele>2222.1999511719</ele>
        <time>2014-03-02T14:24:12.000Z</time>
      </trkpt>
      <trkpt lat="45.34201" lon="6.17998">
        <ele>2222.8000488281</ele>
        <time>2014-03-02T14:24:13.000Z</time>
      </trkpt>
      <trkpt lat="45.34201" lon="6.17999">
        <ele>2223.3999023438</ele>
        <time>2014-03-02T14:24:14.000Z</time>
      </trkpt>
      <trkpt lat="45.34201" lon="6.18">
        <ele>2224</ele>
        <time>2014-03-02T14:24:15.000Z</time>
      </trkpt>
      <trkpt lat="45.34201" lon="6.18001">
        <ele>2224.1999511719</ele>
        <time>2014-03-02T14:24:16.000Z</time>
      </trkpt>
      <trkpt lat="45.34201" lon="6.18001">
        <ele>2224.1999511719</ele>
        <time>2014-03-02T14:24:17.000Z</time>
      </trkpt>
      <trkpt lat="45.34201" lon="6.18002">
        <ele>2224.8000488281</ele>
        <time>2014-03-02T14:24:18.000Z</time>
      </trkpt>
      <trkpt lat="45.34201" lon="6.18002">
        <ele>2224.8000488281</ele>
        <time>2014-03-02T14:24:19.000Z</time>
      </trkpt>
      <trkpt lat="45.34201" lon="6.18002">
        <ele>2225</ele>
        <time>2014-03-02T14:24:20.000Z</time>
      </trkpt>
      <trkpt lat="45.34201" lon="6.18002">
        <ele>2225</ele>
        <time>2014-03-02T14:24:21.000Z</time>
      </trkpt>
      <trkpt lat="45.34201" lon="6.18002">
        <ele>2225</ele>
        <time>2014-03-02T14:24:22.000Z</time>
      </trkpt>
      <trkpt lat="45.34202" lon="6.18004">
        <ele>2225.6000976562</ele>
        <time>2014-03-02T14:24:23.000Z</time>
      </trkpt>
      <trkpt lat="45.34202" lon="6.18004">
        <ele>2225.6000976562</ele>
        <time>2014-03-02T14:24:24.000Z</time>
      </trkpt>
      <trkpt lat="45.34202" lon="6.18005">
        <ele>2226</ele>
        <time>2014-03-02T14:24:25.000Z</time>
      </trkpt>
      <trkpt lat="45.34202" lon="6.18006">
        <ele>2226.6000976562</ele>
        <time>2014-03-02T14:24:26.000Z</time>
      </trkpt>
      <trkpt lat="45.34202" lon="6.18006">
        <ele>2226.6000976562</ele>
        <time>2014-03-02T14:24:27.000Z</time>
      </trkpt>
      <trkpt lat="45.34202" lon="6.18007">
        <ele>2226.8000488281</ele>
        <time>2014-03-02T14:24:28.000Z</time>
      </trkpt>
      <trkpt lat="45.34202" lon="6.18007">
        <ele>2226.8000488281</ele>
        <time>2014-03-02T14:24:29.000Z</time>
      </trkpt>
      <trkpt lat="45.34202" lon="6.18007">
        <ele>2226.8000488281</ele>
        <time>2014-03-02T14:24:30.000Z</time>
      </trkpt>
      <trkpt lat="45.34202" lon="6.18007">
        <ele>2226.8000488281</ele>
        <time>2014-03-02T14:24:31.000Z</time>
      </trkpt>
      <trkpt lat="45.34202" lon="6.18007">
        <ele>2226.8000488281</ele>
        <time>2014-03-02T14:24:32.000Z</time>
      </trkpt>
      <trkpt lat="45.34202" lon="6.18007">
        <ele>2226.8000488281</ele>
        <time>2014-03-02T14:24:33.000Z</time>
      </trkpt>
      <trkpt lat="45.34202" lon="6.18007">
        <ele>2226.8000488281</ele>
        <time>2014-03-02T14:24:34.000Z</time>
      </trkpt>
      <trkpt lat="45.34202" lon="6.18007">
        <ele>2226.8000488281</ele>
        <time>2014-03-02T14:24:35.000Z</time>
      </trkpt>
      <trkpt lat="45.34202" lon="6.18007">
        <ele>2226.8000488281</ele>
        <time>2014-03-02T14:24:36.000Z</time>
      </trkpt>
      <trkpt lat="45.34202" lon="6.18007">
        <ele>2226.8000488281</ele>
        <time>2014-03-02T14:24:37.000Z</time>
      </trkpt>
      <trkpt lat="45.34201" lon="6.18006">
        <ele>2226.8000488281</ele>
        <time>2014-03-02T14:24:38.000Z</time>
      </trkpt>
      <trkpt lat="45.342" lon="6.18006">
        <ele>2226.8000488281</ele>
        <time>2014-03-02T14:24:39.000Z</time>
      </trkpt>
      <trkpt lat="45.342" lon="6.18006">
        <ele>2226.8000488281</ele>
        <time>2014-03-02T14:24:40.000Z</time>
      </trkpt>
      <trkpt lat="45.34199" lon="6.18005">
        <ele>2227</ele>
        <time>2014-03-02T14:24:41.000Z</time>
      </trkpt>
      <trkpt lat="45.34199" lon="6.18005">
        <ele>2227</ele>
        <time>2014-03-02T14:24:42.000Z</time>
      </trkpt>
      <trkpt lat="45.34198" lon="6.18004">
        <ele>2226.8000488281</ele>
        <time>2014-03-02T14:24:43.000Z</time>
      </trkpt>
      <trkpt lat="45.34198" lon="6.18004">
        <ele>2226.8000488281</ele>
        <time>2014-03-02T14:24:44.000Z</time>
      </trkpt>
      <trkpt lat="45.34198" lon="6.18004">
        <ele>2227</ele>
        <time>2014-03-02T14:24:45.000Z</time>
      </trkpt>
      <trkpt lat="45.34197" lon="6.18003">
        <ele>2226.8000488281</ele>
        <time>2014-03-02T14:24:46.000Z</time>
      </trkpt>
      <trkpt lat="45.34197" lon="6.18003">
        <ele>2226.8000488281</ele>
        <time>2014-03-02T14:24:47.000Z</time>
      </trkpt>
      <trkpt lat="45.34196" lon="6.18001">
        <ele>2226.3999023438</ele>
        <time>2014-03-02T14:24:48.000Z</time>
      </trkpt>
      <trkpt lat="45.34196" lon="6.18001">
        <ele>2226.3999023438</ele>
        <time>2014-03-02T14:24:49.000Z</time>
      </trkpt>
      <trkpt lat="45.34196" lon="6.18001">
        <ele>2226.3999023438</ele>
        <time>2014-03-02T14:24:50.000Z</time>
      </trkpt>
      <trkpt lat="45.34196" lon="6.18001">
        <ele>2226.3999023438</ele>
        <time>2014-03-02T14:24:51.000Z</time>
      </trkpt>
      <trkpt lat="45.34196" lon="6.18001">
        <ele>2226.3999023438</ele>
        <time>2014-03-02T14:24:52.000Z</time>
      </trkpt>
      <trkpt lat="45.34195" lon="6.18001">
        <ele>2226.6000976562</ele>
        <time>2014-03-02T14:24:53.000Z</time>
      </trkpt>
      <trkpt lat="45.34195" lon="6.18001">
        <ele>2226.6000976562</ele>
        <time>2014-03-02T14:24:54.000Z</time>
      </trkpt>
      <trkpt lat="45.34194" lon="6.18">
        <ele>2226.6000976562</ele>
        <time>2014-03-02T14:24:55.000Z</time>
      </trkpt>
      <trkpt lat="45.34194" lon="6.18">
        <ele>2226.6000976562</ele>
        <time>2014-03-02T14:24:56.000Z</time>
      </trkpt>
      <trkpt lat="45.34192" lon="6.17999">
        <ele>2226.6000976562</ele>
        <time>2014-03-02T14:24:57.000Z</time>
      </trkpt>
      <trkpt lat="45.34191" lon="6.17999">
        <ele>2226.8000488281</ele>
        <time>2014-03-02T14:24:58.000Z</time>
      </trkpt>
      <trkpt lat="45.3419" lon="6.17998">
        <ele>2226.8000488281</ele>
        <time>2014-03-02T14:24:59.000Z</time>
      </trkpt>
      <trkpt lat="45.3419" lon="6.17997">
        <ele>2226.8000488281</ele>
        <time>2014-03-02T14:25:00.000Z</time>
      </trkpt>
      <trkpt lat="45.3419" lon="6.17997">
        <ele>2226.8000488281</ele>
        <time>2014-03-02T14:25:01.000Z</time>
      </trkpt>
      <trkpt lat="45.3419" lon="6.17997">
        <ele>2226.8000488281</ele>
        <time>2014-03-02T14:25:02.000Z</time>
      </trkpt>
      <trkpt lat="45.3419" lon="6.17997">
        <ele>2226.8000488281</ele>
        <time>2014-03-02T14:25:03.000Z</time>
      </trkpt>
      <trkpt lat="45.3419" lon="6.17997">
        <ele>2226.8000488281</ele>
        <time>2014-03-02T14:25:04.000Z</time>
      </trkpt>
      <trkpt lat="45.3419" lon="6.17997">
        <ele>2226.8000488281</ele>
        <time>2014-03-02T14:25:05.000Z</time>
      </trkpt>
      <trkpt lat="45.3419" lon="6.17997">
        <ele>2226.8000488281</ele>
        <time>2014-03-02T14:25:06.000Z</time>
      </trkpt>
      <trkpt lat="45.3419" lon="6.17997">
        <ele>2226.8000488281</ele>
        <time>2014-03-02T14:25:07.000Z</time>
      </trkpt>
      <trkpt lat="45.3419" lon="6.17997">
        <ele>2226.8000488281</ele>
        <time>2014-03-02T14:25:08.000Z</time>
      </trkpt>
      <trkpt lat="45.3419" lon="6.17997">
        <ele>2226.8000488281</ele>
        <time>2014-03-02T14:25:09.000Z</time>
      </trkpt>
      <trkpt lat="45.3419" lon="6.17997">
        <ele>2226.8000488281</ele>
        <time>2014-03-02T14:25:10.000Z</time>
      </trkpt>
      <trkpt lat="45.34189" lon="6.17999">
        <ele>2227.8000488281</ele>
        <time>2014-03-02T14:25:11.000Z</time>
      </trkpt>
      <trkpt lat="45.34189" lon="6.18">
        <ele>2228.3999023438</ele>
        <time>2014-03-02T14:25:12.000Z</time>
      </trkpt>
      <trkpt lat="45.34189" lon="6.18">
        <ele>2228.3999023438</ele>
        <time>2014-03-02T14:25:13.000Z</time>
      </trkpt>
      <trkpt lat="45.34188" lon="6.18001">
        <ele>2229.1999511719</ele>
        <time>2014-03-02T14:25:14.000Z</time>
      </trkpt>
      <trkpt lat="45.34188" lon="6.18001">
        <ele>2229.1999511719</ele>
        <time>2014-03-02T14:25:15.000Z</time>
      </trkpt>
      <trkpt lat="45.34188" lon="6.18003">
        <ele>2230.1999511719</ele>
        <time>2014-03-02T14:25:16.000Z</time>
      </trkpt>
      <trkpt lat="45.34188" lon="6.18003">
        <ele>2230.1999511719</ele>
        <time>2014-03-02T14:25:17.000Z</time>
      </trkpt>
      <trkpt lat="45.34188" lon="6.18005">
        <ele>2230.8000488281</ele>
        <time>2014-03-02T14:25:18.000Z</time>
      </trkpt>
      <trkpt lat="45.34188" lon="6.18005">
        <ele>2230.8000488281</ele>
        <time>2014-03-02T14:25:19.000Z</time>
      </trkpt>
      <trkpt lat="45.34188" lon="6.18005">
        <ele>2230.8000488281</ele>
        <time>2014-03-02T14:25:20.000Z</time>
      </trkpt>
      <trkpt lat="45.34189" lon="6.18007">
        <ele>2231.3999023438</ele>
        <time>2014-03-02T14:25:21.000Z</time>
      </trkpt>
      <trkpt lat="45.34189" lon="6.18007">
        <ele>2231.3999023438</ele>
        <time>2014-03-02T14:25:22.000Z</time>
      </trkpt>
      <trkpt lat="45.34189" lon="6.18008">
        <ele>2232.1999511719</ele>
        <time>2014-03-02T14:25:23.000Z</time>
      </trkpt>
      <trkpt lat="45.34189" lon="6.18008">
        <ele>2232.1999511719</ele>
        <time>2014-03-02T14:25:24.000Z</time>
      </trkpt>
      <trkpt lat="45.34189" lon="6.18008">
        <ele>2232.1999511719</ele>
        <time>2014-03-02T14:25:25.000Z</time>
      </trkpt>
      <trkpt lat="45.34189" lon="6.18008">
        <ele>2232.1999511719</ele>
        <time>2014-03-02T14:25:26.000Z</time>
      </trkpt>
      <trkpt lat="45.34189" lon="6.18008">
        <ele>2232.1999511719</ele>
        <time>2014-03-02T14:25:27.000Z</time>
      </trkpt>
      <trkpt lat="45.34189" lon="6.1801">
        <ele>2232.8000488281</ele>
        <time>2014-03-02T14:25:28.000Z</time>
      </trkpt>
      <trkpt lat="45.34189" lon="6.1801">
        <ele>2232.8000488281</ele>
        <time>2014-03-02T14:25:29.000Z</time>
      </trkpt>
      <trkpt lat="45.3419" lon="6.18011">
        <ele>2233.3999023438</ele>
        <time>2014-03-02T14:25:30.000Z</time>
      </trkpt>
      <trkpt lat="45.3419" lon="6.18011">
        <ele>2233.1999511719</ele>
        <time>2014-03-02T14:25:31.000Z</time>
      </trkpt>
      <trkpt lat="45.3419" lon="6.18011">
        <ele>2233.1999511719</ele>
        <time>2014-03-02T14:25:32.000Z</time>
      </trkpt>
      <trkpt lat="45.3419" lon="6.18011">
        <ele>2233.1999511719</ele>
        <time>2014-03-02T14:25:33.000Z</time>
      </trkpt>
      <trkpt lat="45.3419" lon="6.18011">
        <ele>2233.1999511719</ele>
        <time>2014-03-02T14:25:34.000Z</time>
      </trkpt>
      <trkpt lat="45.3419" lon="6.18011">
        <ele>2233.1999511719</ele>
        <time>2014-03-02T14:25:35.000Z</time>
      </trkpt>
      <trkpt lat="45.34189" lon="6.18011">
        <ele>2233.3999023438</ele>
        <time>2014-03-02T14:25:36.000Z</time>
      </trkpt>
      <trkpt lat="45.34189" lon="6.18011">
        <ele>2233.3999023438</ele>
        <time>2014-03-02T14:25:37.000Z</time>
      </trkpt>
      <trkpt lat="45.34189" lon="6.18011">
        <ele>2233.3999023438</ele>
        <time>2014-03-02T14:25:38.000Z</time>
      </trkpt>
      <trkpt lat="45.34189" lon="6.18011">
        <ele>2233.8000488281</ele>
        <time>2014-03-02T14:25:39.000Z</time>
      </trkpt>
      <trkpt lat="45.34189" lon="6.18011">
        <ele>2233.8000488281</ele>
        <time>2014-03-02T14:25:40.000Z</time>
      </trkpt>
      <trkpt lat="45.34188" lon="6.1801">
        <ele>2233.6000976562</ele>
        <time>2014-03-02T14:25:41.000Z</time>
      </trkpt>
      <trkpt lat="45.34187" lon="6.1801">
        <ele>2233.6000976562</ele>
        <time>2014-03-02T14:25:42.000Z</time>
      </trkpt>
      <trkpt lat="45.34186" lon="6.18009">
        <ele>2233.6000976562</ele>
        <time>2014-03-02T14:25:43.000Z</time>
      </trkpt>
      <trkpt lat="45.34186" lon="6.1801">
        <ele>2234</ele>
        <time>2014-03-02T14:25:44.000Z</time>
      </trkpt>
      <trkpt lat="45.34186" lon="6.1801">
        <ele>2234</ele>
        <time>2014-03-02T14:25:45.000Z</time>
      </trkpt>
      <trkpt lat="45.34185" lon="6.1801">
        <ele>2234.1999511719</ele>
        <time>2014-03-02T14:25:46.000Z</time>
      </trkpt>
      <trkpt lat="45.34185" lon="6.1801">
        <ele>2234.1999511719</ele>
        <time>2014-03-02T14:25:47.000Z</time>
      </trkpt>
      <trkpt lat="45.34184" lon="6.1801">
        <ele>2234.6000976562</ele>
        <time>2014-03-02T14:25:48.000Z</time>
      </trkpt>
      <trkpt lat="45.34184" lon="6.1801">
        <ele>2234.8000488281</ele>
        <time>2014-03-02T14:25:49.000Z</time>
      </trkpt>
      <trkpt lat="45.34183" lon="6.18009">
        <ele>2234.8000488281</ele>
        <time>2014-03-02T14:25:50.000Z</time>
      </trkpt>
      <trkpt lat="45.34183" lon="6.18009">
        <ele>2234.8000488281</ele>
        <time>2014-03-02T14:25:51.000Z</time>
      </trkpt>
      <trkpt lat="45.34183" lon="6.18009">
        <ele>2234.8000488281</ele>
        <time>2014-03-02T14:25:52.000Z</time>
      </trkpt>
      <trkpt lat="45.34182" lon="6.18009">
        <ele>2234.8000488281</ele>
        <time>2014-03-02T14:25:53.000Z</time>
      </trkpt>
      <trkpt lat="45.34182" lon="6.18009">
        <ele>2234.8000488281</ele>
        <time>2014-03-02T14:25:54.000Z</time>
      </trkpt>
      <trkpt lat="45.34182" lon="6.18009">
        <ele>2234.8000488281</ele>
        <time>2014-03-02T14:25:55.000Z</time>
      </trkpt>
      <trkpt lat="45.34182" lon="6.18009">
        <ele>2234.8000488281</ele>
        <time>2014-03-02T14:25:56.000Z</time>
      </trkpt>
      <trkpt lat="45.34182" lon="6.18009">
        <ele>2234.8000488281</ele>
        <time>2014-03-02T14:25:57.000Z</time>
      </trkpt>
      <trkpt lat="45.34181" lon="6.18008">
        <ele>2235</ele>
        <time>2014-03-02T14:25:58.000Z</time>
      </trkpt>
      <trkpt lat="45.3418" lon="6.18008">
        <ele>2235</ele>
        <time>2014-03-02T14:25:59.000Z</time>
      </trkpt>
      <trkpt lat="45.3418" lon="6.18008">
        <ele>2235</ele>
        <time>2014-03-02T14:26:00.000Z</time>
      </trkpt>
      <trkpt lat="45.3418" lon="6.18008">
        <ele>2235</ele>
        <time>2014-03-02T14:26:01.000Z</time>
      </trkpt>
      <trkpt lat="45.3418" lon="6.18008">
        <ele>2235</ele>
        <time>2014-03-02T14:26:02.000Z</time>
      </trkpt>
      <trkpt lat="45.3418" lon="6.18008">
        <ele>2235</ele>
        <time>2014-03-02T14:26:03.000Z</time>
      </trkpt>
      <trkpt lat="45.3418" lon="6.18008">
        <ele>2235</ele>
        <time>2014-03-02T14:26:04.000Z</time>
      </trkpt>
      <trkpt lat="45.3418" lon="6.18008">
        <ele>2235</ele>
        <time>2014-03-02T14:26:05.000Z</time>
      </trkpt>
      <trkpt lat="45.3418" lon="6.18008">
        <ele>2235</ele>
        <time>2014-03-02T14:26:07.000Z</time>
      </trkpt>
      <trkpt lat="45.3418" lon="6.18008">
        <ele>2235</ele>
        <time>2014-03-02T14:26:08.000Z</time>
      </trkpt>
      <trkpt lat="45.3418" lon="6.18008">
        <ele>2235</ele>
        <time>2014-03-02T14:26:09.000Z</time>
      </trkpt>
      <trkpt lat="45.3418" lon="6.18008">
        <ele>2235</ele>
        <time>2014-03-02T14:26:10.000Z</time>
      </trkpt>
      <trkpt lat="45.3418" lon="6.18008">
        <ele>2235</ele>
        <time>2014-03-02T14:26:12.000Z</time>
      </trkpt>
      <trkpt lat="45.3418" lon="6.18008">
        <ele>2235</ele>
        <time>2014-03-02T14:26:13.000Z</time>
      </trkpt>
      <trkpt lat="45.3418" lon="6.18008">
        <ele>2235</ele>
        <time>2014-03-02T14:26:14.000Z</time>
      </trkpt>
      <trkpt lat="45.3418" lon="6.18008">
        <ele>2235</ele>
        <time>2014-03-02T14:26:15.000Z</time>
      </trkpt>
      <trkpt lat="45.3418" lon="6.18008">
        <ele>2235</ele>
        <time>2014-03-02T14:26:21.000Z</time>
      </trkpt>
      <trkpt lat="45.3418" lon="6.18008">
        <ele>2235</ele>
        <time>2014-03-02T14:26:28.000Z</time>
      </trkpt>
      <trkpt lat="45.3418" lon="6.18008">
        <ele>2235</ele>
        <time>2014-03-02T14:26:29.000Z</time>
      </trkpt>
      <trkpt lat="45.3418" lon="6.18008">
        <ele>2235</ele>
        <time>2014-03-02T14:26:30.000Z</time>
      </trkpt>
      <trkpt lat="45.3418" lon="6.18008">
        <ele>2235</ele>
        <time>2014-03-02T14:26:31.000Z</time>
      </trkpt>
      <trkpt lat="45.3418" lon="6.18008">
        <ele>2235</ele>
        <time>2014-03-02T14:26:32.000Z</time>
      </trkpt>
      <trkpt lat="45.3418" lon="6.18008">
        <ele>2235</ele>
        <time>2014-03-02T14:26:33.000Z</time>
      </trkpt>
      <trkpt lat="45.3418" lon="6.18007">
        <ele>2235</ele>
        <time>2014-03-02T14:26:36.000Z</time>
      </trkpt>
      <trkpt lat="45.3418" lon="6.18007">
        <ele>2235</ele>
        <time>2014-03-02T14:26:37.000Z</time>
      </trkpt>
      <trkpt lat="45.3418" lon="6.18007">
        <ele>2235</ele>
        <time>2014-03-02T14:26:38.000Z</time>
      </trkpt>
      <trkpt lat="45.3418" lon="6.18007">
        <ele>2235</ele>
        <time>2014-03-02T14:26:39.000Z</time>
      </trkpt>
      <trkpt lat="45.3418" lon="6.18007">
        <ele>2235</ele>
        <time>2014-03-02T14:26:40.000Z</time>
      </trkpt>
      <trkpt lat="45.3418" lon="6.18007">
        <ele>2235</ele>
        <time>2014-03-02T14:26:41.000Z</time>
      </trkpt>
      <trkpt lat="45.3418" lon="6.18007">
        <ele>2235</ele>
        <time>2014-03-02T14:26:42.000Z</time>
      </trkpt>
      <trkpt lat="45.3418" lon="6.18007">
        <ele>2235</ele>
        <time>2014-03-02T14:26:43.000Z</time>
      </trkpt>
      <trkpt lat="45.3418" lon="6.18007">
        <ele>2235</ele>
        <time>2014-03-02T14:26:44.000Z</time>
      </trkpt>
      <trkpt lat="45.3418" lon="6.18007">
        <ele>2235</ele>
        <time>2014-03-02T14:26:46.000Z</time>
      </trkpt>
      <trkpt lat="45.3418" lon="6.18007">
        <ele>2235</ele>
        <time>2014-03-02T14:26:47.000Z</time>
      </trkpt>
      <trkpt lat="45.3418" lon="6.18007">
        <ele>2235</ele>
        <time>2014-03-02T14:26:48.000Z</time>
      </trkpt>
      <trkpt lat="45.3418" lon="6.18007">
        <ele>2235</ele>
        <time>2014-03-02T14:26:49.000Z</time>
      </trkpt>
      <trkpt lat="45.3418" lon="6.18007">
        <ele>2235</ele>
        <time>2014-03-02T14:26:50.000Z</time>
      </trkpt>
      <trkpt lat="45.3418" lon="6.18007">
        <ele>2235</ele>
        <time>2014-03-02T14:26:51.000Z</time>
      </trkpt>
      <trkpt lat="45.3418" lon="6.18007">
        <ele>2235</ele>
        <time>2014-03-02T14:26:52.000Z</time>
      </trkpt>
      <trkpt lat="45.3418" lon="6.18007">
        <ele>2235</ele>
        <time>2014-03-02T14:26:53.000Z</time>
      </trkpt>
      <trkpt lat="45.3418" lon="6.18007">
        <ele>2235</ele>
        <time>2014-03-02T14:26:54.000Z</time>
      </trkpt>
      <trkpt lat="45.3418" lon="6.18007">
        <ele>2235</ele>
        <time>2014-03-02T14:26:55.000Z</time>
      </trkpt>
      <trkpt lat="45.3418" lon="6.18007">
        <ele>2235</ele>
        <time>2014-03-02T14:26:56.000Z</time>
      </trkpt>
      <trkpt lat="45.3418" lon="6.18007">
        <ele>2235</ele>
        <time>2014-03-02T14:26:57.000Z</time>
      </trkpt>
      <trkpt lat="45.3418" lon="6.18007">
        <ele>2235</ele>
        <time>2014-03-02T14:26:58.000Z</time>
      </trkpt>
      <trkpt lat="45.3418" lon="6.18007">
        <ele>2235</ele>
        <time>2014-03-02T14:27:00.000Z</time>
      </trkpt>
      <trkpt lat="45.3418" lon="6.18007">
        <ele>2235</ele>
        <time>2014-03-02T14:27:01.000Z</time>
      </trkpt>
      <trkpt lat="45.3418" lon="6.18007">
        <ele>2235</ele>
        <time>2014-03-02T14:27:02.000Z</time>
      </trkpt>
      <trkpt lat="45.3418" lon="6.18007">
        <ele>2235</ele>
        <time>2014-03-02T14:27:03.000Z</time>
      </trkpt>
      <trkpt lat="45.3418" lon="6.18007">
        <ele>2235</ele>
        <time>2014-03-02T14:27:04.000Z</time>
      </trkpt>
      <trkpt lat="45.3418" lon="6.18007">
        <ele>2235</ele>
        <time>2014-03-02T14:27:05.000Z</time>
      </trkpt>
      <trkpt lat="45.3418" lon="6.18007">
        <ele>2235</ele>
        <time>2014-03-02T14:27:06.000Z</time>
      </trkpt>
      <trkpt lat="45.3418" lon="6.18007">
        <ele>2235</ele>
        <time>2014-03-02T14:27:07.000Z</time>
      </trkpt>
      <trkpt lat="45.3418" lon="6.18007">
        <ele>2235</ele>
        <time>2014-03-02T14:27:08.000Z</time>
      </trkpt>
      <trkpt lat="45.3418" lon="6.18007">
        <ele>2235</ele>
        <time>2014-03-02T14:27:09.000Z</time>
      </trkpt>
      <trkpt lat="45.34181" lon="6.18008">
        <ele>2235.1999511719</ele>
        <time>2014-03-02T14:27:10.000Z</time>
      </trkpt>
      <trkpt lat="45.34181" lon="6.18008">
        <ele>2235.1999511719</ele>
        <time>2014-03-02T14:27:11.000Z</time>
      </trkpt>
      <trkpt lat="45.3418" lon="6.18009">
        <ele>2235.8000488281</ele>
        <time>2014-03-02T14:27:12.000Z</time>
      </trkpt>
      <trkpt lat="45.3418" lon="6.18009">
        <ele>2235.8000488281</ele>
        <time>2014-03-02T14:27:13.000Z</time>
      </trkpt>
      <trkpt lat="45.3418" lon="6.18011">
        <ele>2236.6000976562</ele>
        <time>2014-03-02T14:27:14.000Z</time>
      </trkpt>
      <trkpt lat="45.3418" lon="6.18011">
        <ele>2237</ele>
        <time>2014-03-02T14:27:15.000Z</time>
      </trkpt>
      <trkpt lat="45.3418" lon="6.18012">
        <ele>2237.3999023438</ele>
        <time>2014-03-02T14:27:16.000Z</time>
      </trkpt>
      <trkpt lat="45.3418" lon="6.18013">
        <ele>2237.8000488281</ele>
        <time>2014-03-02T14:27:17.000Z</time>
      </trkpt>
      <trkpt lat="45.3418" lon="6.18014">
        <ele>2238</ele>
        <time>2014-03-02T14:27:18.000Z</time>
      </trkpt>
      <trkpt lat="45.3418" lon="6.18014">
        <ele>2238</ele>
        <time>2014-03-02T14:27:19.000Z</time>
      </trkpt>
      <trkpt lat="45.3418" lon="6.18015">
        <ele>2238.8000488281</ele>
        <time>2014-03-02T14:27:20.000Z</time>
      </trkpt>
      <trkpt lat="45.3418" lon="6.18016">
        <ele>2239.1999511719</ele>
        <time>2014-03-02T14:27:21.000Z</time>
      </trkpt>
      <trkpt lat="45.3418" lon="6.18018">
        <ele>2239.6000976562</ele>
        <time>2014-03-02T14:27:22.000Z</time>
      </trkpt>
      <trkpt lat="45.3418" lon="6.18019">
        <ele>2240.3999023438</ele>
        <time>2014-03-02T14:27:23.000Z</time>
      </trkpt>
      <trkpt lat="45.3418" lon="6.18021">
        <ele>2241.1999511719</ele>
        <time>2014-03-02T14:27:24.000Z</time>
      </trkpt>
      <trkpt lat="45.3418" lon="6.18022">
        <ele>2242</ele>
        <time>2014-03-02T14:27:25.000Z</time>
      </trkpt>
      <trkpt lat="45.3418" lon="6.18023">
        <ele>2242.3999023438</ele>
        <time>2014-03-02T14:27:26.000Z</time>
      </trkpt>
      <trkpt lat="45.3418" lon="6.18025">
        <ele>2243.1999511719</ele>
        <time>2014-03-02T14:27:27.000Z</time>
      </trkpt>
      <trkpt lat="45.34181" lon="6.18026">
        <ele>2243.6000976562</ele>
        <time>2014-03-02T14:27:28.000Z</time>
      </trkpt>
      <trkpt lat="45.34181" lon="6.18028">
        <ele>2244</ele>
        <time>2014-03-02T14:27:29.000Z</time>
      </trkpt>
      <trkpt lat="45.34181" lon="6.18028">
        <ele>2244</ele>
        <time>2014-03-02T14:27:30.000Z</time>
      </trkpt>
      <trkpt lat="45.34181" lon="6.18029">
        <ele>2244.3999023438</ele>
        <time>2014-03-02T14:27:31.000Z</time>
      </trkpt>
      <trkpt lat="45.34181" lon="6.1803">
        <ele>2244.8000488281</ele>
        <time>2014-03-02T14:27:32.000Z</time>
      </trkpt>
      <trkpt lat="45.34181" lon="6.1803">
        <ele>2244.8000488281</ele>
        <time>2014-03-02T14:27:33.000Z</time>
      </trkpt>
      <trkpt lat="45.34181" lon="6.1803">
        <ele>2244.8000488281</ele>
        <time>2014-03-02T14:27:34.000Z</time>
      </trkpt>
      <trkpt lat="45.34181" lon="6.1803">
        <ele>2244.8000488281</ele>
        <time>2014-03-02T14:27:35.000Z</time>
      </trkpt>
      <trkpt lat="45.34181" lon="6.1803">
        <ele>2244.8000488281</ele>
        <time>2014-03-02T14:27:36.000Z</time>
      </trkpt>
      <trkpt lat="45.34181" lon="6.1803">
        <ele>2244.8000488281</ele>
        <time>2014-03-02T14:27:37.000Z</time>
      </trkpt>
      <trkpt lat="45.34181" lon="6.1803">
        <ele>2244.8000488281</ele>
        <time>2014-03-02T14:27:38.000Z</time>
      </trkpt>
      <trkpt lat="45.34181" lon="6.1803">
        <ele>2244.8000488281</ele>
        <time>2014-03-02T14:27:39.000Z</time>
      </trkpt>
      <trkpt lat="45.34181" lon="6.18031">
        <ele>2245.1999511719</ele>
        <time>2014-03-02T14:27:40.000Z</time>
      </trkpt>
      <trkpt lat="45.34181" lon="6.18031">
        <ele>2245.1999511719</ele>
        <time>2014-03-02T14:27:41.000Z</time>
      </trkpt>
      <trkpt lat="45.34181" lon="6.18031">
        <ele>2245.1999511719</ele>
        <time>2014-03-02T14:27:42.000Z</time>
      </trkpt>
      <trkpt lat="45.34181" lon="6.18031">
        <ele>2245.1999511719</ele>
        <time>2014-03-02T14:27:43.000Z</time>
      </trkpt>
      <trkpt lat="45.34181" lon="6.18031">
        <ele>2245.1999511719</ele>
        <time>2014-03-02T14:27:44.000Z</time>
      </trkpt>
      <trkpt lat="45.34181" lon="6.18031">
        <ele>2245</ele>
        <time>2014-03-02T14:27:45.000Z</time>
      </trkpt>
      <trkpt lat="45.34181" lon="6.18031">
        <ele>2245</ele>
        <time>2014-03-02T14:27:46.000Z</time>
      </trkpt>
      <trkpt lat="45.34179" lon="6.1803">
        <ele>2245.1999511719</ele>
        <time>2014-03-02T14:27:48.000Z</time>
      </trkpt>
      <trkpt lat="45.34179" lon="6.1803">
        <ele>2245.1999511719</ele>
        <time>2014-03-02T14:27:49.000Z</time>
      </trkpt>
      <trkpt lat="45.34177" lon="6.18029">
        <ele>2245.1999511719</ele>
        <time>2014-03-02T14:27:50.000Z</time>
      </trkpt>
      <trkpt lat="45.34177" lon="6.18029">
        <ele>2245.1999511719</ele>
        <time>2014-03-02T14:27:51.000Z</time>
      </trkpt>
      <trkpt lat="45.34176" lon="6.18029">
        <ele>2245.3999023438</ele>
        <time>2014-03-02T14:27:52.000Z</time>
      </trkpt>
      <trkpt lat="45.34175" lon="6.18028">
        <ele>2245.3999023438</ele>
        <time>2014-03-02T14:27:53.000Z</time>
      </trkpt>
      <trkpt lat="45.34174" lon="6.18028">
        <ele>2245.3999023438</ele>
        <time>2014-03-02T14:27:54.000Z</time>
      </trkpt>
      <trkpt lat="45.34173" lon="6.18028">
        <ele>2245.3999023438</ele>
        <time>2014-03-02T14:27:55.000Z</time>
      </trkpt>
      <trkpt lat="45.34172" lon="6.18028">
        <ele>2245.3999023438</ele>
        <time>2014-03-02T14:27:56.000Z</time>
      </trkpt>
      <trkpt lat="45.34171" lon="6.18027">
        <ele>2245.3999023438</ele>
        <time>2014-03-02T14:27:57.000Z</time>
      </trkpt>
      <trkpt lat="45.34171" lon="6.18027">
        <ele>2245.6000976562</ele>
        <time>2014-03-02T14:27:58.000Z</time>
      </trkpt>
      <trkpt lat="45.34171" lon="6.18027">
        <ele>2245.6000976562</ele>
        <time>2014-03-02T14:27:59.000Z</time>
      </trkpt>
      <trkpt lat="45.3417" lon="6.18026">
        <ele>2245.3999023438</ele>
        <time>2014-03-02T14:28:00.000Z</time>
      </trkpt>
      <trkpt lat="45.3417" lon="6.18026">
        <ele>2245.3999023438</ele>
        <time>2014-03-02T14:28:01.000Z</time>
      </trkpt>
      <trkpt lat="45.34169" lon="6.18026">
        <ele>2245.3999023438</ele>
        <time>2014-03-02T14:28:02.000Z</time>
      </trkpt>
      <trkpt lat="45.34169" lon="6.18025">
        <ele>2245.3999023438</ele>
        <time>2014-03-02T14:28:03.000Z</time>
      </trkpt>
      <trkpt lat="45.34168" lon="6.18025">
        <ele>2245.3999023438</ele>
        <time>2014-03-02T14:28:04.000Z</time>
      </trkpt>
      <trkpt lat="45.34168" lon="6.18025">
        <ele>2245.3999023438</ele>
        <time>2014-03-02T14:28:05.000Z</time>
      </trkpt>
      <trkpt lat="45.34168" lon="6.18024">
        <ele>2245.3999023438</ele>
        <time>2014-03-02T14:28:06.000Z</time>
      </trkpt>
      <trkpt lat="45.34168" lon="6.18024">
        <ele>2245.3999023438</ele>
        <time>2014-03-02T14:28:07.000Z</time>
      </trkpt>
      <trkpt lat="45.34167" lon="6.18024">
        <ele>2245.3999023438</ele>
        <time>2014-03-02T14:28:08.000Z</time>
      </trkpt>
      <trkpt lat="45.34167" lon="6.18024">
        <ele>2245.3999023438</ele>
        <time>2014-03-02T14:28:09.000Z</time>
      </trkpt>
      <trkpt lat="45.34166" lon="6.18024">
        <ele>2245.3999023438</ele>
        <time>2014-03-02T14:28:10.000Z</time>
      </trkpt>
      <trkpt lat="45.34166" lon="6.18024">
        <ele>2245.3999023438</ele>
        <time>2014-03-02T14:28:11.000Z</time>
      </trkpt>
      <trkpt lat="45.34166" lon="6.18023">
        <ele>2245.1999511719</ele>
        <time>2014-03-02T14:28:12.000Z</time>
      </trkpt>
      <trkpt lat="45.34165" lon="6.18022">
        <ele>2245.1999511719</ele>
        <time>2014-03-02T14:28:13.000Z</time>
      </trkpt>
      <trkpt lat="45.34165" lon="6.18022">
        <ele>2245.1999511719</ele>
        <time>2014-03-02T14:28:14.000Z</time>
      </trkpt>
      <trkpt lat="45.34165" lon="6.18022">
        <ele>2245.1999511719</ele>
        <time>2014-03-02T14:28:15.000Z</time>
      </trkpt>
      <trkpt lat="45.34165" lon="6.18022">
        <ele>2245.1999511719</ele>
        <time>2014-03-02T14:28:16.000Z</time>
      </trkpt>
      <trkpt lat="45.34165" lon="6.18022">
        <ele>2245.1999511719</ele>
        <time>2014-03-02T14:28:17.000Z</time>
      </trkpt>
      <trkpt lat="45.34165" lon="6.18022">
        <ele>2245.1999511719</ele>
        <time>2014-03-02T14:28:18.000Z</time>
      </trkpt>
      <trkpt lat="45.34165" lon="6.18022">
        <ele>2245.1999511719</ele>
        <time>2014-03-02T14:28:19.000Z</time>
      </trkpt>
      <trkpt lat="45.34165" lon="6.18022">
        <ele>2245.1999511719</ele>
        <time>2014-03-02T14:28:21.000Z</time>
      </trkpt>
      <trkpt lat="45.34164" lon="6.18021">
        <ele>2245</ele>
        <time>2014-03-02T14:28:22.000Z</time>
      </trkpt>
      <trkpt lat="45.34163" lon="6.1802">
        <ele>2245</ele>
        <time>2014-03-02T14:28:23.000Z</time>
      </trkpt>
      <trkpt lat="45.34163" lon="6.1802">
        <ele>2245</ele>
        <time>2014-03-02T14:28:24.000Z</time>
      </trkpt>
      <trkpt lat="45.34163" lon="6.1802">
        <ele>2245</ele>
        <time>2014-03-02T14:28:25.000Z</time>
      </trkpt>
      <trkpt lat="45.34163" lon="6.1802">
        <ele>2245</ele>
        <time>2014-03-02T14:28:26.000Z</time>
      </trkpt>
      <trkpt lat="45.34163" lon="6.1802">
        <ele>2245</ele>
        <time>2014-03-02T14:28:27.000Z</time>
      </trkpt>
      <trkpt lat="45.34163" lon="6.18022">
        <ele>2245.1999511719</ele>
        <time>2014-03-02T14:28:28.000Z</time>
      </trkpt>
      <trkpt lat="45.34164" lon="6.18023">
        <ele>2245.6000976562</ele>
        <time>2014-03-02T14:28:29.000Z</time>
      </trkpt>
      <trkpt lat="45.34164" lon="6.18025">
        <ele>2246</ele>
        <time>2014-03-02T14:28:30.000Z</time>
      </trkpt>
      <trkpt lat="45.34164" lon="6.18026">
        <ele>2246.1999511719</ele>
        <time>2014-03-02T14:28:31.000Z</time>
      </trkpt>
      <trkpt lat="45.34164" lon="6.18027">
        <ele>2246.6000976562</ele>
        <time>2014-03-02T14:28:32.000Z</time>
      </trkpt>
      <trkpt lat="45.34164" lon="6.18028">
        <ele>2247</ele>
        <time>2014-03-02T14:28:33.000Z</time>
      </trkpt>
      <trkpt lat="45.34164" lon="6.1803">
        <ele>2247.1999511719</ele>
        <time>2014-03-02T14:28:34.000Z</time>
      </trkpt>
      <trkpt lat="45.34164" lon="6.1803">
        <ele>2247.1999511719</ele>
        <time>2014-03-02T14:28:35.000Z</time>
      </trkpt>
      <trkpt lat="45.34164" lon="6.18031">
        <ele>2247.6000976562</ele>
        <time>2014-03-02T14:28:36.000Z</time>
      </trkpt>
      <trkpt lat="45.34164" lon="6.18032">
        <ele>2248</ele>
        <time>2014-03-02T14:28:37.000Z</time>
      </trkpt>
      <trkpt lat="45.34163" lon="6.18034">
        <ele>2248.1999511719</ele>
        <time>2014-03-02T14:28:38.000Z</time>
      </trkpt>
      <trkpt lat="45.34163" lon="6.18035">
        <ele>2248.6000976562</ele>
        <time>2014-03-02T14:28:39.000Z</time>
      </trkpt>
      <trkpt lat="45.34163" lon="6.18036">
        <ele>2249</ele>
        <time>2014-03-02T14:28:40.000Z</time>
      </trkpt>
      <trkpt lat="45.34163" lon="6.18036">
        <ele>2249</ele>
        <time>2014-03-02T14:28:41.000Z</time>
      </trkpt>
      <trkpt lat="45.34163" lon="6.18037">
        <ele>2249.1999511719</ele>
        <time>2014-03-02T14:28:42.000Z</time>
      </trkpt>
      <trkpt lat="45.34163" lon="6.18037">
        <ele>2249.1999511719</ele>
        <time>2014-03-02T14:28:43.000Z</time>
      </trkpt>
      <trkpt lat="45.34163" lon="6.18039">
        <ele>2249.6000976562</ele>
        <time>2014-03-02T14:28:44.000Z</time>
      </trkpt>
      <trkpt lat="45.34163" lon="6.18039">
        <ele>2249.6000976562</ele>
        <time>2014-03-02T14:28:45.000Z</time>
      </trkpt>
      <trkpt lat="45.34164" lon="6.1804">
        <ele>2249.8000488281</ele>
        <time>2014-03-02T14:28:46.000Z</time>
      </trkpt>
      <trkpt lat="45.34164" lon="6.1804">
        <ele>2249.8000488281</ele>
        <time>2014-03-02T14:28:47.000Z</time>
      </trkpt>
      <trkpt lat="45.34164" lon="6.1804">
        <ele>2249.8000488281</ele>
        <time>2014-03-02T14:28:48.000Z</time>
      </trkpt>
      <trkpt lat="45.34164" lon="6.1804">
        <ele>2249.8000488281</ele>
        <time>2014-03-02T14:28:49.000Z</time>
      </trkpt>
      <trkpt lat="45.34163" lon="6.18041">
        <ele>2250.1999511719</ele>
        <time>2014-03-02T14:28:50.000Z</time>
      </trkpt>
      <trkpt lat="45.34163" lon="6.18041">
        <ele>2250.1999511719</ele>
        <time>2014-03-02T14:28:51.000Z</time>
      </trkpt>
      <trkpt lat="45.34163" lon="6.18041">
        <ele>2250.1999511719</ele>
        <time>2014-03-02T14:28:52.000Z</time>
      </trkpt>
      <trkpt lat="45.34163" lon="6.18041">
        <ele>2250.1999511719</ele>
        <time>2014-03-02T14:28:53.000Z</time>
      </trkpt>
      <trkpt lat="45.34163" lon="6.18041">
        <ele>2250.1999511719</ele>
        <time>2014-03-02T14:28:54.000Z</time>
      </trkpt>
      <trkpt lat="45.34163" lon="6.18041">
        <ele>2250.1999511719</ele>
        <time>2014-03-02T14:28:55.000Z</time>
      </trkpt>
      <trkpt lat="45.34163" lon="6.18041">
        <ele>2250.1999511719</ele>
        <time>2014-03-02T14:28:56.000Z</time>
      </trkpt>
      <trkpt lat="45.34163" lon="6.18041">
        <ele>2250.1999511719</ele>
        <time>2014-03-02T14:28:57.000Z</time>
      </trkpt>
      <trkpt lat="45.34163" lon="6.18041">
        <ele>2250.1999511719</ele>
        <time>2014-03-02T14:28:58.000Z</time>
      </trkpt>
      <trkpt lat="45.34163" lon="6.18041">
        <ele>2250.1999511719</ele>
        <time>2014-03-02T14:28:59.000Z</time>
      </trkpt>
      <trkpt lat="45.34163" lon="6.18041">
        <ele>2250.1999511719</ele>
        <time>2014-03-02T14:29:00.000Z</time>
      </trkpt>
      <trkpt lat="45.34163" lon="6.18041">
        <ele>2250.1999511719</ele>
        <time>2014-03-02T14:29:01.000Z</time>
      </trkpt>
      <trkpt lat="45.34163" lon="6.18041">
        <ele>2250.1999511719</ele>
        <time>2014-03-02T14:29:02.000Z</time>
      </trkpt>
      <trkpt lat="45.34163" lon="6.18041">
        <ele>2250.1999511719</ele>
        <time>2014-03-02T14:29:03.000Z</time>
      </trkpt>
      <trkpt lat="45.34163" lon="6.18041">
        <ele>2250.1999511719</ele>
        <time>2014-03-02T14:29:08.000Z</time>
      </trkpt>
      <trkpt lat="45.34163" lon="6.18041">
        <ele>2250.1999511719</ele>
        <time>2014-03-02T14:29:09.000Z</time>
      </trkpt>
      <trkpt lat="45.34163" lon="6.18041">
        <ele>2250.1999511719</ele>
        <time>2014-03-02T14:29:10.000Z</time>
      </trkpt>
      <trkpt lat="45.34163" lon="6.18043">
        <ele>2250.8000488281</ele>
        <time>2014-03-02T14:29:11.000Z</time>
      </trkpt>
      <trkpt lat="45.34162" lon="6.18044">
        <ele>2251.1999511719</ele>
        <time>2014-03-02T14:29:12.000Z</time>
      </trkpt>
      <trkpt lat="45.34161" lon="6.18045">
        <ele>2251.6000976562</ele>
        <time>2014-03-02T14:29:13.000Z</time>
      </trkpt>
      <trkpt lat="45.34161" lon="6.18047">
        <ele>2251.8000488281</ele>
        <time>2014-03-02T14:29:14.000Z</time>
      </trkpt>
      <trkpt lat="45.34161" lon="6.18047">
        <ele>2251.8000488281</ele>
        <time>2014-03-02T14:29:15.000Z</time>
      </trkpt>
      <trkpt lat="45.34161" lon="6.18048">
        <ele>2252.1999511719</ele>
        <time>2014-03-02T14:29:16.000Z</time>
      </trkpt>
      <trkpt lat="45.34161" lon="6.18049">
        <ele>2252.3999023438</ele>
        <time>2014-03-02T14:29:17.000Z</time>
      </trkpt>
      <trkpt lat="45.34161" lon="6.18049">
        <ele>2252.6000976562</ele>
        <time>2014-03-02T14:29:18.000Z</time>
      </trkpt>
      <trkpt lat="45.34161" lon="6.18049">
        <ele>2252.6000976562</ele>
        <time>2014-03-02T14:29:19.000Z</time>
      </trkpt>
      <trkpt lat="45.3416" lon="6.1805">
        <ele>2252.8000488281</ele>
        <time>2014-03-02T14:29:20.000Z</time>
      </trkpt>
      <trkpt lat="45.3416" lon="6.1805">
        <ele>2252.8000488281</ele>
        <time>2014-03-02T14:29:21.000Z</time>
      </trkpt>
      <trkpt lat="45.3416" lon="6.1805">
        <ele>2252.8000488281</ele>
        <time>2014-03-02T14:29:23.000Z</time>
      </trkpt>
      <trkpt lat="45.3416" lon="6.18051">
        <ele>2253</ele>
        <time>2014-03-02T14:29:24.000Z</time>
      </trkpt>
      <trkpt lat="45.3416" lon="6.18051">
        <ele>2253</ele>
        <time>2014-03-02T14:29:25.000Z</time>
      </trkpt>
      <trkpt lat="45.3416" lon="6.18052">
        <ele>2253.3999023438</ele>
        <time>2014-03-02T14:29:26.000Z</time>
      </trkpt>
      <trkpt lat="45.3416" lon="6.18052">
        <ele>2253.3999023438</ele>
        <time>2014-03-02T14:29:27.000Z</time>
      </trkpt>
      <trkpt lat="45.34161" lon="6.18054">
        <ele>2253.8000488281</ele>
        <time>2014-03-02T14:29:28.000Z</time>
      </trkpt>
      <trkpt lat="45.34161" lon="6.18055">
        <ele>2254</ele>
        <time>2014-03-02T14:29:29.000Z</time>
      </trkpt>
      <trkpt lat="45.34161" lon="6.18055">
        <ele>2254</ele>
        <time>2014-03-02T14:29:30.000Z</time>
      </trkpt>
      <trkpt lat="45.34161" lon="6.18055">
        <ele>2254</ele>
        <time>2014-03-02T14:29:31.000Z</time>
      </trkpt>
      <trkpt lat="45.34161" lon="6.18055">
        <ele>2254</ele>
        <time>2014-03-02T14:29:32.000Z</time>
      </trkpt>
      <trkpt lat="45.34161" lon="6.18056">
        <ele>2254.3999023438</ele>
        <time>2014-03-02T14:29:33.000Z</time>
      </trkpt>
      <trkpt lat="45.34161" lon="6.18056">
        <ele>2254.3999023438</ele>
        <time>2014-03-02T14:29:34.000Z</time>
      </trkpt>
      <trkpt lat="45.3416" lon="6.18058">
        <ele>2254.8000488281</ele>
        <time>2014-03-02T14:29:35.000Z</time>
      </trkpt>
      <trkpt lat="45.3416" lon="6.18058">
        <ele>2254.8000488281</ele>
        <time>2014-03-02T14:29:36.000Z</time>
      </trkpt>
      <trkpt lat="45.3416" lon="6.1806">
        <ele>2255.3999023438</ele>
        <time>2014-03-02T14:29:37.000Z</time>
      </trkpt>
      <trkpt lat="45.3416" lon="6.1806">
        <ele>2255.3999023438</ele>
        <time>2014-03-02T14:29:38.000Z</time>
      </trkpt>
      <trkpt lat="45.3416" lon="6.1806">
        <ele>2255.3999023438</ele>
        <time>2014-03-02T14:29:39.000Z</time>
      </trkpt>
      <trkpt lat="45.3416" lon="6.1806">
        <ele>2255.3999023438</ele>
        <time>2014-03-02T14:29:40.000Z</time>
      </trkpt>
      <trkpt lat="45.3416" lon="6.1806">
        <ele>2255.3999023438</ele>
        <time>2014-03-02T14:29:41.000Z</time>
      </trkpt>
      <trkpt lat="45.3416" lon="6.1806">
        <ele>2255.3999023438</ele>
        <time>2014-03-02T14:29:42.000Z</time>
      </trkpt>
      <trkpt lat="45.3416" lon="6.1806">
        <ele>2255.3999023438</ele>
        <time>2014-03-02T14:29:43.000Z</time>
      </trkpt>
      <trkpt lat="45.3416" lon="6.1806">
        <ele>2255.3999023438</ele>
        <time>2014-03-02T14:29:44.000Z</time>
      </trkpt>
      <trkpt lat="45.3416" lon="6.1806">
        <ele>2255.3999023438</ele>
        <time>2014-03-02T14:29:45.000Z</time>
      </trkpt>
      <trkpt lat="45.3416" lon="6.1806">
        <ele>2255.3999023438</ele>
        <time>2014-03-02T14:29:46.000Z</time>
      </trkpt>
      <trkpt lat="45.3416" lon="6.1806">
        <ele>2255.3999023438</ele>
        <time>2014-03-02T14:29:47.000Z</time>
      </trkpt>
      <trkpt lat="45.3416" lon="6.1806">
        <ele>2255.3999023438</ele>
        <time>2014-03-02T14:29:48.000Z</time>
      </trkpt>
      <trkpt lat="45.3416" lon="6.1806">
        <ele>2255.3999023438</ele>
        <time>2014-03-02T14:29:49.000Z</time>
      </trkpt>
      <trkpt lat="45.3416" lon="6.1806">
        <ele>2255.3999023438</ele>
        <time>2014-03-02T14:29:50.000Z</time>
      </trkpt>
      <trkpt lat="45.3416" lon="6.1806">
        <ele>2255.3999023438</ele>
        <time>2014-03-02T14:29:51.000Z</time>
      </trkpt>
      <trkpt lat="45.3416" lon="6.1806">
        <ele>2255.3999023438</ele>
        <time>2014-03-02T14:29:52.000Z</time>
      </trkpt>
      <trkpt lat="45.3416" lon="6.18061">
        <ele>2255.6000976562</ele>
        <time>2014-03-02T14:29:53.000Z</time>
      </trkpt>
      <trkpt lat="45.3416" lon="6.18061">
        <ele>2255.6000976562</ele>
        <time>2014-03-02T14:29:54.000Z</time>
      </trkpt>
      <trkpt lat="45.3416" lon="6.18062">
        <ele>2256.1999511719</ele>
        <time>2014-03-02T14:29:55.000Z</time>
      </trkpt>
      <trkpt lat="45.3416" lon="6.18062">
        <ele>2256.1999511719</ele>
        <time>2014-03-02T14:29:56.000Z</time>
      </trkpt>
      <trkpt lat="45.3416" lon="6.18063">
        <ele>2256.6000976562</ele>
        <time>2014-03-02T14:29:57.000Z</time>
      </trkpt>
      <trkpt lat="45.3416" lon="6.18063">
        <ele>2256.6000976562</ele>
        <time>2014-03-02T14:29:58.000Z</time>
      </trkpt>
      <trkpt lat="45.3416" lon="6.18065">
        <ele>2257.3999023438</ele>
        <time>2014-03-02T14:29:59.000Z</time>
      </trkpt>
      <trkpt lat="45.3416" lon="6.18065">
        <ele>2257.8000488281</ele>
        <time>2014-03-02T14:30:00.000Z</time>
      </trkpt>
      <trkpt lat="45.3416" lon="6.18066">
        <ele>2258.1999511719</ele>
        <time>2014-03-02T14:30:01.000Z</time>
      </trkpt>
      <trkpt lat="45.34159" lon="6.18067">
        <ele>2258.8000488281</ele>
        <time>2014-03-02T14:30:02.000Z</time>
      </trkpt>
      <trkpt lat="45.34159" lon="6.18067">
        <ele>2258.8000488281</ele>
        <time>2014-03-02T14:30:03.000Z</time>
      </trkpt>
      <trkpt lat="45.34159" lon="6.18069">
        <ele>2259.8000488281</ele>
        <time>2014-03-02T14:30:04.000Z</time>
      </trkpt>
      <trkpt lat="45.34159" lon="6.18069">
        <ele>2259.8000488281</ele>
        <time>2014-03-02T14:30:05.000Z</time>
      </trkpt>
      <trkpt lat="45.34159" lon="6.1807">
        <ele>2260.6000976562</ele>
        <time>2014-03-02T14:30:06.000Z</time>
      </trkpt>
      <trkpt lat="45.34158" lon="6.18071">
        <ele>2261</ele>
        <time>2014-03-02T14:30:07.000Z</time>
      </trkpt>
      <trkpt lat="45.34158" lon="6.18071">
        <ele>2261</ele>
        <time>2014-03-02T14:30:08.000Z</time>
      </trkpt>
      <trkpt lat="45.34158" lon="6.18071">
        <ele>2261</ele>
        <time>2014-03-02T14:30:09.000Z</time>
      </trkpt>
      <trkpt lat="45.34159" lon="6.18072">
        <ele>2261.3999023438</ele>
        <time>2014-03-02T14:30:10.000Z</time>
      </trkpt>
      <trkpt lat="45.34159" lon="6.18072">
        <ele>2261.3999023438</ele>
        <time>2014-03-02T14:30:11.000Z</time>
      </trkpt>
      <trkpt lat="45.34158" lon="6.18074">
        <ele>2262.1999511719</ele>
        <time>2014-03-02T14:30:12.000Z</time>
      </trkpt>
      <trkpt lat="45.34158" lon="6.18075">
        <ele>2262.8000488281</ele>
        <time>2014-03-02T14:30:13.000Z</time>
      </trkpt>
      <trkpt lat="45.34158" lon="6.18075">
        <ele>2262.8000488281</ele>
        <time>2014-03-02T14:30:14.000Z</time>
      </trkpt>
      <trkpt lat="45.34159" lon="6.18077">
        <ele>2263.8000488281</ele>
        <time>2014-03-02T14:30:15.000Z</time>
      </trkpt>
      <trkpt lat="45.34159" lon="6.18077">
        <ele>2263.8000488281</ele>
        <time>2014-03-02T14:30:16.000Z</time>
      </trkpt>
      <trkpt lat="45.34159" lon="6.18078">
        <ele>2264.1999511719</ele>
        <time>2014-03-02T14:30:17.000Z</time>
      </trkpt>
      <trkpt lat="45.3416" lon="6.18079">
        <ele>2264.6000976562</ele>
        <time>2014-03-02T14:30:18.000Z</time>
      </trkpt>
      <trkpt lat="45.3416" lon="6.18079">
        <ele>2264.6000976562</ele>
        <time>2014-03-02T14:30:19.000Z</time>
      </trkpt>
      <trkpt lat="45.3416" lon="6.18079">
        <ele>2264.8000488281</ele>
        <time>2014-03-02T14:30:20.000Z</time>
      </trkpt>
      <trkpt lat="45.3416" lon="6.18079">
        <ele>2264.8000488281</ele>
        <time>2014-03-02T14:30:21.000Z</time>
      </trkpt>
      <trkpt lat="45.3416" lon="6.18079">
        <ele>2264.8000488281</ele>
        <time>2014-03-02T14:30:22.000Z</time>
      </trkpt>
      <trkpt lat="45.34159" lon="6.18081">
        <ele>2265.6000976562</ele>
        <time>2014-03-02T14:30:23.000Z</time>
      </trkpt>
      <trkpt lat="45.34159" lon="6.18081">
        <ele>2265.6000976562</ele>
        <time>2014-03-02T14:30:24.000Z</time>
      </trkpt>
      <trkpt lat="45.34159" lon="6.18082">
        <ele>2266.1999511719</ele>
        <time>2014-03-02T14:30:25.000Z</time>
      </trkpt>
      <trkpt lat="45.34159" lon="6.18082">
        <ele>2266.1999511719</ele>
        <time>2014-03-02T14:30:26.000Z</time>
      </trkpt>
      <trkpt lat="45.34159" lon="6.18082">
        <ele>2266.1999511719</ele>
        <time>2014-03-02T14:30:27.000Z</time>
      </trkpt>
      <trkpt lat="45.3416" lon="6.18082">
        <ele>2266.3999023438</ele>
        <time>2014-03-02T14:30:28.000Z</time>
      </trkpt>
      <trkpt lat="45.3416" lon="6.18082">
        <ele>2266.3999023438</ele>
        <time>2014-03-02T14:30:29.000Z</time>
      </trkpt>
      <trkpt lat="45.3416" lon="6.18082">
        <ele>2266.3999023438</ele>
        <time>2014-03-02T14:30:30.000Z</time>
      </trkpt>
      <trkpt lat="45.3416" lon="6.18082">
        <ele>2266.3999023438</ele>
        <time>2014-03-02T14:30:31.000Z</time>
      </trkpt>
      <trkpt lat="45.3416" lon="6.18082">
        <ele>2266.3999023438</ele>
        <time>2014-03-02T14:30:32.000Z</time>
      </trkpt>
      <trkpt lat="45.3416" lon="6.18082">
        <ele>2266.3999023438</ele>
        <time>2014-03-02T14:30:33.000Z</time>
      </trkpt>
      <trkpt lat="45.3416" lon="6.18082">
        <ele>2266.3999023438</ele>
        <time>2014-03-02T14:30:34.000Z</time>
      </trkpt>
      <trkpt lat="45.3416" lon="6.18082">
        <ele>2266.3999023438</ele>
        <time>2014-03-02T14:30:35.000Z</time>
      </trkpt>
      <trkpt lat="45.3416" lon="6.18082">
        <ele>2266.3999023438</ele>
        <time>2014-03-02T14:30:36.000Z</time>
      </trkpt>
      <trkpt lat="45.3416" lon="6.18082">
        <ele>2266.3999023438</ele>
        <time>2014-03-02T14:30:37.000Z</time>
      </trkpt>
      <trkpt lat="45.3416" lon="6.18082">
        <ele>2266.3999023438</ele>
        <time>2014-03-02T14:30:38.000Z</time>
      </trkpt>
      <trkpt lat="45.3416" lon="6.18082">
        <ele>2266.3999023438</ele>
        <time>2014-03-02T14:30:39.000Z</time>
      </trkpt>
      <trkpt lat="45.3416" lon="6.18082">
        <ele>2266.3999023438</ele>
        <time>2014-03-02T14:30:40.000Z</time>
      </trkpt>
      <trkpt lat="45.3416" lon="6.18082">
        <ele>2266.3999023438</ele>
        <time>2014-03-02T14:30:45.000Z</time>
      </trkpt>
      <trkpt lat="45.3416" lon="6.18083">
        <ele>2266.8000488281</ele>
        <time>2014-03-02T14:30:46.000Z</time>
      </trkpt>
      <trkpt lat="45.3416" lon="6.18083">
        <ele>2266.8000488281</ele>
        <time>2014-03-02T14:30:47.000Z</time>
      </trkpt>
      <trkpt lat="45.3416" lon="6.18083">
        <ele>2266.8000488281</ele>
        <time>2014-03-02T14:30:48.000Z</time>
      </trkpt>
      <trkpt lat="45.3416" lon="6.18083">
        <ele>2266.8000488281</ele>
        <time>2014-03-02T14:30:49.000Z</time>
      </trkpt>
      <trkpt lat="45.3416" lon="6.18083">
        <ele>2266.8000488281</ele>
        <time>2014-03-02T14:30:50.000Z</time>
      </trkpt>
      <trkpt lat="45.3416" lon="6.18083">
        <ele>2266.8000488281</ele>
        <time>2014-03-02T14:30:51.000Z</time>
      </trkpt>
      <trkpt lat="45.3416" lon="6.18083">
        <ele>2266.8000488281</ele>
        <time>2014-03-02T14:30:52.000Z</time>
      </trkpt>
      <trkpt lat="45.3416" lon="6.18083">
        <ele>2266.8000488281</ele>
        <time>2014-03-02T14:30:53.000Z</time>
      </trkpt>
      <trkpt lat="45.3416" lon="6.18083">
        <ele>2266.8000488281</ele>
        <time>2014-03-02T14:30:54.000Z</time>
      </trkpt>
      <trkpt lat="45.3416" lon="6.18083">
        <ele>2266.8000488281</ele>
        <time>2014-03-02T14:30:55.000Z</time>
      </trkpt>
      <trkpt lat="45.3416" lon="6.18083">
        <ele>2266.8000488281</ele>
        <time>2014-03-02T14:30:56.000Z</time>
      </trkpt>
      <trkpt lat="45.3416" lon="6.18083">
        <ele>2266.8000488281</ele>
        <time>2014-03-02T14:30:57.000Z</time>
      </trkpt>
      <trkpt lat="45.3416" lon="6.18083">
        <ele>2266.8000488281</ele>
        <time>2014-03-02T14:30:58.000Z</time>
      </trkpt>
      <trkpt lat="45.3416" lon="6.18083">
        <ele>2266.8000488281</ele>
        <time>2014-03-02T14:30:59.000Z</time>
      </trkpt>
      <trkpt lat="45.3416" lon="6.18083">
        <ele>2266.8000488281</ele>
        <time>2014-03-02T14:31:00.000Z</time>
      </trkpt>
      <trkpt lat="45.3416" lon="6.18083">
        <ele>2266.8000488281</ele>
        <time>2014-03-02T14:31:01.000Z</time>
      </trkpt>
      <trkpt lat="45.3416" lon="6.18083">
        <ele>2266.8000488281</ele>
        <time>2014-03-02T14:31:02.000Z</time>
      </trkpt>
      <trkpt lat="45.3416" lon="6.18083">
        <ele>2266.8000488281</ele>
        <time>2014-03-02T14:31:03.000Z</time>
      </trkpt>
      <trkpt lat="45.3416" lon="6.18083">
        <ele>2266.8000488281</ele>
        <time>2014-03-02T14:31:04.000Z</time>
      </trkpt>
      <trkpt lat="45.3416" lon="6.18083">
        <ele>2266.8000488281</ele>
        <time>2014-03-02T14:31:05.000Z</time>
      </trkpt>
      <trkpt lat="45.34159" lon="6.18084">
        <ele>2267.1999511719</ele>
        <time>2014-03-02T14:31:06.000Z</time>
      </trkpt>
      <trkpt lat="45.34159" lon="6.18086">
        <ele>2268</ele>
        <time>2014-03-02T14:31:07.000Z</time>
      </trkpt>
      <trkpt lat="45.34159" lon="6.18086">
        <ele>2268</ele>
        <time>2014-03-02T14:31:08.000Z</time>
      </trkpt>
      <trkpt lat="45.34159" lon="6.18088">
        <ele>2269.1999511719</ele>
        <time>2014-03-02T14:31:09.000Z</time>
      </trkpt>
      <trkpt lat="45.34159" lon="6.18088">
        <ele>2269.1999511719</ele>
        <time>2014-03-02T14:31:10.000Z</time>
      </trkpt>
      <trkpt lat="45.3416" lon="6.18091">
        <ele>2270.6000976562</ele>
        <time>2014-03-02T14:31:11.000Z</time>
      </trkpt>
      <trkpt lat="45.3416" lon="6.18091">
        <ele>2270.6000976562</ele>
        <time>2014-03-02T14:31:12.000Z</time>
      </trkpt>
      <trkpt lat="45.34161" lon="6.18092">
        <ele>2271.1999511719</ele>
        <time>2014-03-02T14:31:13.000Z</time>
      </trkpt>
      <trkpt lat="45.34161" lon="6.18092">
        <ele>2271.1999511719</ele>
        <time>2014-03-02T14:31:14.000Z</time>
      </trkpt>
      <trkpt lat="45.34161" lon="6.18094">
        <ele>2271.6000976562</ele>
        <time>2014-03-02T14:31:15.000Z</time>
      </trkpt>
      <trkpt lat="45.34161" lon="6.18094">
        <ele>2271.6000976562</ele>
        <time>2014-03-02T14:31:16.000Z</time>
      </trkpt>
      <trkpt lat="45.34161" lon="6.18095">
        <ele>2272.1999511719</ele>
        <time>2014-03-02T14:31:17.000Z</time>
      </trkpt>
      <trkpt lat="45.34161" lon="6.18095">
        <ele>2272.1999511719</ele>
        <time>2014-03-02T14:31:18.000Z</time>
      </trkpt>
      <trkpt lat="45.34161" lon="6.18096">
        <ele>2272.8000488281</ele>
        <time>2014-03-02T14:31:19.000Z</time>
      </trkpt>
      <trkpt lat="45.34161" lon="6.18096">
        <ele>2272.8000488281</ele>
        <time>2014-03-02T14:31:20.000Z</time>
      </trkpt>
      <trkpt lat="45.3416" lon="6.18098">
        <ele>2273.6000976562</ele>
        <time>2014-03-02T14:31:21.000Z</time>
      </trkpt>
      <trkpt lat="45.3416" lon="6.181">
        <ele>2274.3999023438</ele>
        <time>2014-03-02T14:31:22.000Z</time>
      </trkpt>
      <trkpt lat="45.3416" lon="6.18101">
        <ele>2275.1999511719</ele>
        <time>2014-03-02T14:31:23.000Z</time>
      </trkpt>
      <trkpt lat="45.3416" lon="6.18104">
        <ele>2276</ele>
        <time>2014-03-02T14:31:24.000Z</time>
      </trkpt>
      <trkpt lat="45.3416" lon="6.18104">
        <ele>2276</ele>
        <time>2014-03-02T14:31:25.000Z</time>
      </trkpt>
      <trkpt lat="45.34161" lon="6.18105">
        <ele>2276.3999023438</ele>
        <time>2014-03-02T14:31:26.000Z</time>
      </trkpt>
      <trkpt lat="45.34161" lon="6.18105">
        <ele>2276.3999023438</ele>
        <time>2014-03-02T14:31:27.000Z</time>
      </trkpt>
      <trkpt lat="45.34161" lon="6.18105">
        <ele>2276.3999023438</ele>
        <time>2014-03-02T14:31:28.000Z</time>
      </trkpt>
      <trkpt lat="45.34161" lon="6.18105">
        <ele>2276.3999023438</ele>
        <time>2014-03-02T14:31:29.000Z</time>
      </trkpt>
      <trkpt lat="45.34161" lon="6.18105">
        <ele>2276.3999023438</ele>
        <time>2014-03-02T14:31:30.000Z</time>
      </trkpt>
      <trkpt lat="45.34161" lon="6.18105">
        <ele>2276.3999023438</ele>
        <time>2014-03-02T14:31:31.000Z</time>
      </trkpt>
      <trkpt lat="45.34161" lon="6.18105">
        <ele>2276.3999023438</ele>
        <time>2014-03-02T14:31:32.000Z</time>
      </trkpt>
      <trkpt lat="45.34161" lon="6.18105">
        <ele>2276.3999023438</ele>
        <time>2014-03-02T14:31:34.000Z</time>
      </trkpt>
      <trkpt lat="45.34161" lon="6.18105">
        <ele>2276.3999023438</ele>
        <time>2014-03-02T14:31:35.000Z</time>
      </trkpt>
      <trkpt lat="45.34161" lon="6.18105">
        <ele>2276.3999023438</ele>
        <time>2014-03-02T14:31:36.000Z</time>
      </trkpt>
      <trkpt lat="45.34161" lon="6.18105">
        <ele>2276.3999023438</ele>
        <time>2014-03-02T14:31:37.000Z</time>
      </trkpt>
      <trkpt lat="45.34161" lon="6.18105">
        <ele>2276.3999023438</ele>
        <time>2014-03-02T14:31:38.000Z</time>
      </trkpt>
      <trkpt lat="45.34161" lon="6.18105">
        <ele>2276.3999023438</ele>
        <time>2014-03-02T14:31:39.000Z</time>
      </trkpt>
      <trkpt lat="45.34161" lon="6.18105">
        <ele>2276.3999023438</ele>
        <time>2014-03-02T14:31:40.000Z</time>
      </trkpt>
      <trkpt lat="45.34161" lon="6.18105">
        <ele>2276.3999023438</ele>
        <time>2014-03-02T14:31:42.000Z</time>
      </trkpt>
      <trkpt lat="45.34161" lon="6.18105">
        <ele>2276.3999023438</ele>
        <time>2014-03-02T14:31:43.000Z</time>
      </trkpt>
      <trkpt lat="45.34161" lon="6.18105">
        <ele>2276.3999023438</ele>
        <time>2014-03-02T14:31:44.000Z</time>
      </trkpt>
      <trkpt lat="45.34161" lon="6.18105">
        <ele>2276.3999023438</ele>
        <time>2014-03-02T14:31:45.000Z</time>
      </trkpt>
      <trkpt lat="45.34161" lon="6.18105">
        <ele>2276.8000488281</ele>
        <time>2014-03-02T14:31:48.000Z</time>
      </trkpt>
      <trkpt lat="45.34161" lon="6.18105">
        <ele>2276.8000488281</ele>
        <time>2014-03-02T14:31:49.000Z</time>
      </trkpt>
      <trkpt lat="45.34161" lon="6.18106">
        <ele>2277.1999511719</ele>
        <time>2014-03-02T14:31:50.000Z</time>
      </trkpt>
      <trkpt lat="45.34161" lon="6.18107">
        <ele>2277.6000976562</ele>
        <time>2014-03-02T14:31:51.000Z</time>
      </trkpt>
      <trkpt lat="45.3416" lon="6.18108">
        <ele>2277.8000488281</ele>
        <time>2014-03-02T14:31:52.000Z</time>
      </trkpt>
      <trkpt lat="45.34161" lon="6.18109">
        <ele>2278.1999511719</ele>
        <time>2014-03-02T14:31:54.000Z</time>
      </trkpt>
      <trkpt lat="45.34161" lon="6.18109">
        <ele>2278.3999023438</ele>
        <time>2014-03-02T14:31:55.000Z</time>
      </trkpt>
      <trkpt lat="45.34161" lon="6.18109">
        <ele>2278.3999023438</ele>
        <time>2014-03-02T14:31:56.000Z</time>
      </trkpt>
      <trkpt lat="45.34161" lon="6.18109">
        <ele>2278.3999023438</ele>
        <time>2014-03-02T14:31:57.000Z</time>
      </trkpt>
      <trkpt lat="45.34161" lon="6.18109">
        <ele>2278.3999023438</ele>
        <time>2014-03-02T14:31:58.000Z</time>
      </trkpt>
      <trkpt lat="45.34162" lon="6.1811">
        <ele>2278.8000488281</ele>
        <time>2014-03-02T14:31:59.000Z</time>
      </trkpt>
      <trkpt lat="45.34162" lon="6.1811">
        <ele>2278.8000488281</ele>
        <time>2014-03-02T14:32:00.000Z</time>
      </trkpt>
      <trkpt lat="45.34162" lon="6.18111">
        <ele>2279.3999023438</ele>
        <time>2014-03-02T14:32:01.000Z</time>
      </trkpt>
      <trkpt lat="45.34162" lon="6.18111">
        <ele>2279.3999023438</ele>
        <time>2014-03-02T14:32:02.000Z</time>
      </trkpt>
      <trkpt lat="45.34162" lon="6.18112">
        <ele>2279.8000488281</ele>
        <time>2014-03-02T14:32:03.000Z</time>
      </trkpt>
      <trkpt lat="45.34162" lon="6.18112">
        <ele>2279.8000488281</ele>
        <time>2014-03-02T14:32:04.000Z</time>
      </trkpt>
      <trkpt lat="45.34162" lon="6.18112">
        <ele>2279.8000488281</ele>
        <time>2014-03-02T14:32:05.000Z</time>
      </trkpt>
      <trkpt lat="45.34162" lon="6.18113">
        <ele>2280.1999511719</ele>
        <time>2014-03-02T14:32:06.000Z</time>
      </trkpt>
      <trkpt lat="45.34162" lon="6.18113">
        <ele>2280.1999511719</ele>
        <time>2014-03-02T14:32:07.000Z</time>
      </trkpt>
      <trkpt lat="45.34161" lon="6.18114">
        <ele>2280.3999023438</ele>
        <time>2014-03-02T14:32:08.000Z</time>
      </trkpt>
      <trkpt lat="45.34161" lon="6.18114">
        <ele>2280.3999023438</ele>
        <time>2014-03-02T14:32:09.000Z</time>
      </trkpt>
      <trkpt lat="45.34161" lon="6.18114">
        <ele>2280.3999023438</ele>
        <time>2014-03-02T14:32:10.000Z</time>
      </trkpt>
      <trkpt lat="45.34161" lon="6.18114">
        <ele>2280.3999023438</ele>
        <time>2014-03-02T14:32:11.000Z</time>
      </trkpt>
      <trkpt lat="45.34161" lon="6.18115">
        <ele>2280.8000488281</ele>
        <time>2014-03-02T14:32:12.000Z</time>
      </trkpt>
      <trkpt lat="45.34161" lon="6.18115">
        <ele>2280.8000488281</ele>
        <time>2014-03-02T14:32:13.000Z</time>
      </trkpt>
      <trkpt lat="45.34161" lon="6.18115">
        <ele>2280.8000488281</ele>
        <time>2014-03-02T14:32:14.000Z</time>
      </trkpt>
      <trkpt lat="45.34161" lon="6.18116">
        <ele>2281.1999511719</ele>
        <time>2014-03-02T14:32:15.000Z</time>
      </trkpt>
      <trkpt lat="45.34161" lon="6.18116">
        <ele>2281.1999511719</ele>
        <time>2014-03-02T14:32:16.000Z</time>
      </trkpt>
      <trkpt lat="45.34161" lon="6.18116">
        <ele>2281.6000976562</ele>
        <time>2014-03-02T14:32:17.000Z</time>
      </trkpt>
      <trkpt lat="45.34161" lon="6.18116">
        <ele>2281.6000976562</ele>
        <time>2014-03-02T14:32:18.000Z</time>
      </trkpt>
      <trkpt lat="45.34161" lon="6.18118">
        <ele>2282</ele>
        <time>2014-03-02T14:32:19.000Z</time>
      </trkpt>
      <trkpt lat="45.34161" lon="6.18118">
        <ele>2282</ele>
        <time>2014-03-02T14:32:20.000Z</time>
      </trkpt>
      <trkpt lat="45.34161" lon="6.18119">
        <ele>2282.6000976562</ele>
        <time>2014-03-02T14:32:21.000Z</time>
      </trkpt>
      <trkpt lat="45.34161" lon="6.18119">
        <ele>2282.6000976562</ele>
        <time>2014-03-02T14:32:22.000Z</time>
      </trkpt>
      <trkpt lat="45.34161" lon="6.18119">
        <ele>2282.6000976562</ele>
        <time>2014-03-02T14:32:23.000Z</time>
      </trkpt>
      <trkpt lat="45.34161" lon="6.18119">
        <ele>2282.6000976562</ele>
        <time>2014-03-02T14:32:24.000Z</time>
      </trkpt>
      <trkpt lat="45.34161" lon="6.18119">
        <ele>2282.6000976562</ele>
        <time>2014-03-02T14:32:25.000Z</time>
      </trkpt>
      <trkpt lat="45.34161" lon="6.1812">
        <ele>2283.1999511719</ele>
        <time>2014-03-02T14:32:26.000Z</time>
      </trkpt>
      <trkpt lat="45.34161" lon="6.1812">
        <ele>2283.1999511719</ele>
        <time>2014-03-02T14:32:27.000Z</time>
      </trkpt>
      <trkpt lat="45.34161" lon="6.1812">
        <ele>2283.1999511719</ele>
        <time>2014-03-02T14:32:28.000Z</time>
      </trkpt>
      <trkpt lat="45.34161" lon="6.1812">
        <ele>2283.1999511719</ele>
        <time>2014-03-02T14:32:29.000Z</time>
      </trkpt>
      <trkpt lat="45.34161" lon="6.1812">
        <ele>2283.1999511719</ele>
        <time>2014-03-02T14:32:30.000Z</time>
      </trkpt>
      <trkpt lat="45.34161" lon="6.1812">
        <ele>2283.1999511719</ele>
        <time>2014-03-02T14:32:31.000Z</time>
      </trkpt>
      <trkpt lat="45.34161" lon="6.1812">
        <ele>2283.1999511719</ele>
        <time>2014-03-02T14:32:32.000Z</time>
      </trkpt>
      <trkpt lat="45.34161" lon="6.1812">
        <ele>2283.1999511719</ele>
        <time>2014-03-02T14:32:33.000Z</time>
      </trkpt>
      <trkpt lat="45.34161" lon="6.1812">
        <ele>2283.1999511719</ele>
        <time>2014-03-02T14:32:34.000Z</time>
      </trkpt>
      <trkpt lat="45.34161" lon="6.1812">
        <ele>2283.1999511719</ele>
        <time>2014-03-02T14:32:35.000Z</time>
      </trkpt>
      <trkpt lat="45.34161" lon="6.1812">
        <ele>2283.1999511719</ele>
        <time>2014-03-02T14:32:36.000Z</time>
      </trkpt>
      <trkpt lat="45.34161" lon="6.1812">
        <ele>2283.1999511719</ele>
        <time>2014-03-02T14:32:37.000Z</time>
      </trkpt>
      <trkpt lat="45.34161" lon="6.1812">
        <ele>2283.1999511719</ele>
        <time>2014-03-02T14:32:38.000Z</time>
      </trkpt>
      <trkpt lat="45.34161" lon="6.1812">
        <ele>2283.1999511719</ele>
        <time>2014-03-02T14:32:39.000Z</time>
      </trkpt>
      <trkpt lat="45.34161" lon="6.1812">
        <ele>2283.1999511719</ele>
        <time>2014-03-02T14:32:40.000Z</time>
      </trkpt>
      <trkpt lat="45.34161" lon="6.1812">
        <ele>2283.1999511719</ele>
        <time>2014-03-02T14:32:42.000Z</time>
      </trkpt>
      <trkpt lat="45.34161" lon="6.1812">
        <ele>2283.1999511719</ele>
        <time>2014-03-02T14:32:43.000Z</time>
      </trkpt>
      <trkpt lat="45.3416" lon="6.18121">
        <ele>2283.8000488281</ele>
        <time>2014-03-02T14:32:44.000Z</time>
      </trkpt>
      <trkpt lat="45.3416" lon="6.18121">
        <ele>2283.8000488281</ele>
        <time>2014-03-02T14:32:45.000Z</time>
      </trkpt>
      <trkpt lat="45.3416" lon="6.18121">
        <ele>2283.8000488281</ele>
        <time>2014-03-02T14:32:46.000Z</time>
      </trkpt>
      <trkpt lat="45.3416" lon="6.18121">
        <ele>2283.8000488281</ele>
        <time>2014-03-02T14:32:47.000Z</time>
      </trkpt>
      <trkpt lat="45.3416" lon="6.18121">
        <ele>2283.8000488281</ele>
        <time>2014-03-02T14:32:48.000Z</time>
      </trkpt>
      <trkpt lat="45.3416" lon="6.18121">
        <ele>2283.8000488281</ele>
        <time>2014-03-02T14:32:49.000Z</time>
      </trkpt>
      <trkpt lat="45.3416" lon="6.18123">
        <ele>2284.3999023438</ele>
        <time>2014-03-02T14:32:50.000Z</time>
      </trkpt>
      <trkpt lat="45.3416" lon="6.18123">
        <ele>2284.3999023438</ele>
        <time>2014-03-02T14:32:51.000Z</time>
      </trkpt>
      <trkpt lat="45.3416" lon="6.18123">
        <ele>2284.3999023438</ele>
        <time>2014-03-02T14:32:52.000Z</time>
      </trkpt>
      <trkpt lat="45.3416" lon="6.18123">
        <ele>2284.3999023438</ele>
        <time>2014-03-02T14:32:53.000Z</time>
      </trkpt>
      <trkpt lat="45.3416" lon="6.18125">
        <ele>2285.1999511719</ele>
        <time>2014-03-02T14:32:54.000Z</time>
      </trkpt>
      <trkpt lat="45.34161" lon="6.18126">
        <ele>2285.6000976562</ele>
        <time>2014-03-02T14:32:55.000Z</time>
      </trkpt>
      <trkpt lat="45.34161" lon="6.18126">
        <ele>2286</ele>
        <time>2014-03-02T14:32:56.000Z</time>
      </trkpt>
      <trkpt lat="45.34161" lon="6.18126">
        <ele>2286</ele>
        <time>2014-03-02T14:32:57.000Z</time>
      </trkpt>
      <trkpt lat="45.34161" lon="6.18126">
        <ele>2286</ele>
        <time>2014-03-02T14:32:58.000Z</time>
      </trkpt>
      <trkpt lat="45.34161" lon="6.18126">
        <ele>2286</ele>
        <time>2014-03-02T14:32:59.000Z</time>
      </trkpt>
      <trkpt lat="45.34161" lon="6.18126">
        <ele>2286</ele>
        <time>2014-03-02T14:33:00.000Z</time>
      </trkpt>
      <trkpt lat="45.34161" lon="6.18126">
        <ele>2286</ele>
        <time>2014-03-02T14:33:01.000Z</time>
      </trkpt>
      <trkpt lat="45.34161" lon="6.18127">
        <ele>2286.1999511719</ele>
        <time>2014-03-02T14:33:02.000Z</time>
      </trkpt>
      <trkpt lat="45.34161" lon="6.18127">
        <ele>2286.1999511719</ele>
        <time>2014-03-02T14:33:03.000Z</time>
      </trkpt>
      <trkpt lat="45.34161" lon="6.18127">
        <ele>2286.1999511719</ele>
        <time>2014-03-02T14:33:04.000Z</time>
      </trkpt>
      <trkpt lat="45.34161" lon="6.18129">
        <ele>2287</ele>
        <time>2014-03-02T14:33:05.000Z</time>
      </trkpt>
      <trkpt lat="45.34161" lon="6.18129">
        <ele>2287</ele>
        <time>2014-03-02T14:33:06.000Z</time>
      </trkpt>
      <trkpt lat="45.3416" lon="6.18131">
        <ele>2287.8000488281</ele>
        <time>2014-03-02T14:33:07.000Z</time>
      </trkpt>
      <trkpt lat="45.3416" lon="6.18131">
        <ele>2287.8000488281</ele>
        <time>2014-03-02T14:33:08.000Z</time>
      </trkpt>
      <trkpt lat="45.3416" lon="6.18132">
        <ele>2288.3999023438</ele>
        <time>2014-03-02T14:33:09.000Z</time>
      </trkpt>
      <trkpt lat="45.3416" lon="6.18132">
        <ele>2288.3999023438</ele>
        <time>2014-03-02T14:33:10.000Z</time>
      </trkpt>
      <trkpt lat="45.3416" lon="6.18133">
        <ele>2288.8000488281</ele>
        <time>2014-03-02T14:33:11.000Z</time>
      </trkpt>
      <trkpt lat="45.34161" lon="6.18134">
        <ele>2289.1999511719</ele>
        <time>2014-03-02T14:33:12.000Z</time>
      </trkpt>
      <trkpt lat="45.3416" lon="6.18135">
        <ele>2289.6000976562</ele>
        <time>2014-03-02T14:33:13.000Z</time>
      </trkpt>
      <trkpt lat="45.3416" lon="6.18136">
        <ele>2290</ele>
        <time>2014-03-02T14:33:14.000Z</time>
      </trkpt>
      <trkpt lat="45.3416" lon="6.18136">
        <ele>2290</ele>
        <time>2014-03-02T14:33:15.000Z</time>
      </trkpt>
      <trkpt lat="45.3416" lon="6.18136">
        <ele>2290.3999023438</ele>
        <time>2014-03-02T14:33:16.000Z</time>
      </trkpt>
      <trkpt lat="45.3416" lon="6.18136">
        <ele>2290.3999023438</ele>
        <time>2014-03-02T14:33:17.000Z</time>
      </trkpt>
      <trkpt lat="45.34159" lon="6.18138">
        <ele>2290.8000488281</ele>
        <time>2014-03-02T14:33:18.000Z</time>
      </trkpt>
      <trkpt lat="45.34159" lon="6.18138">
        <ele>2290.8000488281</ele>
        <time>2014-03-02T14:33:19.000Z</time>
      </trkpt>
      <trkpt lat="45.34159" lon="6.18139">
        <ele>2291.3999023438</ele>
        <time>2014-03-02T14:33:20.000Z</time>
      </trkpt>
      <trkpt lat="45.34159" lon="6.1814">
        <ele>2292</ele>
        <time>2014-03-02T14:33:21.000Z</time>
      </trkpt>
      <trkpt lat="45.34159" lon="6.1814">
        <ele>2292</ele>
        <time>2014-03-02T14:33:22.000Z</time>
      </trkpt>
      <trkpt lat="45.34159" lon="6.1814">
        <ele>2292</ele>
        <time>2014-03-02T14:33:23.000Z</time>
      </trkpt>
      <trkpt lat="45.34159" lon="6.1814">
        <ele>2292</ele>
        <time>2014-03-02T14:33:24.000Z</time>
      </trkpt>
      <trkpt lat="45.34159" lon="6.18141">
        <ele>2292.6000976562</ele>
        <time>2014-03-02T14:33:25.000Z</time>
      </trkpt>
      <trkpt lat="45.34159" lon="6.18141">
        <ele>2292.6000976562</ele>
        <time>2014-03-02T14:33:26.000Z</time>
      </trkpt>
      <trkpt lat="45.34158" lon="6.18143">
        <ele>2293.1999511719</ele>
        <time>2014-03-02T14:33:27.000Z</time>
      </trkpt>
      <trkpt lat="45.34158" lon="6.18143">
        <ele>2293.1999511719</ele>
        <time>2014-03-02T14:33:28.000Z</time>
      </trkpt>
      <trkpt lat="45.34158" lon="6.18145">
        <ele>2294</ele>
        <time>2014-03-02T14:33:29.000Z</time>
      </trkpt>
      <trkpt lat="45.34158" lon="6.18145">
        <ele>2294</ele>
        <time>2014-03-02T14:33:30.000Z</time>
      </trkpt>
      <trkpt lat="45.34159" lon="6.18146">
        <ele>2294.3999023438</ele>
        <time>2014-03-02T14:33:31.000Z</time>
      </trkpt>
      <trkpt lat="45.34159" lon="6.18146">
        <ele>2294.3999023438</ele>
        <time>2014-03-02T14:33:32.000Z</time>
      </trkpt>
      <trkpt lat="45.34159" lon="6.18146">
        <ele>2294.3999023438</ele>
        <time>2014-03-02T14:33:33.000Z</time>
      </trkpt>
      <trkpt lat="45.34159" lon="6.18148">
        <ele>2295</ele>
        <time>2014-03-02T14:33:34.000Z</time>
      </trkpt>
      <trkpt lat="45.34159" lon="6.18148">
        <ele>2295</ele>
        <time>2014-03-02T14:33:35.000Z</time>
      </trkpt>
      <trkpt lat="45.34159" lon="6.1815">
        <ele>2295.3999023438</ele>
        <time>2014-03-02T14:33:36.000Z</time>
      </trkpt>
      <trkpt lat="45.34159" lon="6.1815">
        <ele>2295.3999023438</ele>
        <time>2014-03-02T14:33:37.000Z</time>
      </trkpt>
      <trkpt lat="45.34159" lon="6.18151">
        <ele>2295.8000488281</ele>
        <time>2014-03-02T14:33:38.000Z</time>
      </trkpt>
      <trkpt lat="45.34159" lon="6.18151">
        <ele>2295.8000488281</ele>
        <time>2014-03-02T14:33:39.000Z</time>
      </trkpt>
      <trkpt lat="45.34159" lon="6.18151">
        <ele>2296</ele>
        <time>2014-03-02T14:33:40.000Z</time>
      </trkpt>
      <trkpt lat="45.34159" lon="6.18151">
        <ele>2296</ele>
        <time>2014-03-02T14:33:41.000Z</time>
      </trkpt>
      <trkpt lat="45.34159" lon="6.18151">
        <ele>2296</ele>
        <time>2014-03-02T14:33:42.000Z</time>
      </trkpt>
      <trkpt lat="45.34159" lon="6.18151">
        <ele>2296</ele>
        <time>2014-03-02T14:33:43.000Z</time>
      </trkpt>
      <trkpt lat="45.34159" lon="6.18151">
        <ele>2296</ele>
        <time>2014-03-02T14:33:44.000Z</time>
      </trkpt>
      <trkpt lat="45.34159" lon="6.18151">
        <ele>2296</ele>
        <time>2014-03-02T14:33:45.000Z</time>
      </trkpt>
      <trkpt lat="45.34159" lon="6.18151">
        <ele>2296</ele>
        <time>2014-03-02T14:33:46.000Z</time>
      </trkpt>
      <trkpt lat="45.34159" lon="6.18151">
        <ele>2296</ele>
        <time>2014-03-02T14:33:47.000Z</time>
      </trkpt>
      <trkpt lat="45.34159" lon="6.18151">
        <ele>2296</ele>
        <time>2014-03-02T14:33:48.000Z</time>
      </trkpt>
      <trkpt lat="45.34159" lon="6.18151">
        <ele>2296</ele>
        <time>2014-03-02T14:33:49.000Z</time>
      </trkpt>
      <trkpt lat="45.34159" lon="6.18151">
        <ele>2296</ele>
        <time>2014-03-02T14:33:50.000Z</time>
      </trkpt>
      <trkpt lat="45.34159" lon="6.18151">
        <ele>2296</ele>
        <time>2014-03-02T14:33:51.000Z</time>
      </trkpt>
      <trkpt lat="45.34159" lon="6.18151">
        <ele>2296</ele>
        <time>2014-03-02T14:33:52.000Z</time>
      </trkpt>
      <trkpt lat="45.34159" lon="6.18151">
        <ele>2296</ele>
        <time>2014-03-02T14:33:53.000Z</time>
      </trkpt>
      <trkpt lat="45.34159" lon="6.18151">
        <ele>2296</ele>
        <time>2014-03-02T14:33:54.000Z</time>
      </trkpt>
      <trkpt lat="45.34159" lon="6.18151">
        <ele>2296</ele>
        <time>2014-03-02T14:33:55.000Z</time>
      </trkpt>
      <trkpt lat="45.34159" lon="6.18151">
        <ele>2296</ele>
        <time>2014-03-02T14:33:56.000Z</time>
      </trkpt>
      <trkpt lat="45.34159" lon="6.18151">
        <ele>2296</ele>
        <time>2014-03-02T14:33:57.000Z</time>
      </trkpt>
      <trkpt lat="45.34159" lon="6.18151">
        <ele>2296</ele>
        <time>2014-03-02T14:33:58.000Z</time>
      </trkpt>
      <trkpt lat="45.34159" lon="6.18151">
        <ele>2296</ele>
        <time>2014-03-02T14:33:59.000Z</time>
      </trkpt>
      <trkpt lat="45.34159" lon="6.18151">
        <ele>2296</ele>
        <time>2014-03-02T14:34:00.000Z</time>
      </trkpt>
      <trkpt lat="45.34159" lon="6.18151">
        <ele>2296</ele>
        <time>2014-03-02T14:34:01.000Z</time>
      </trkpt>
      <trkpt lat="45.34159" lon="6.18151">
        <ele>2296</ele>
        <time>2014-03-02T14:34:02.000Z</time>
      </trkpt>
      <trkpt lat="45.34159" lon="6.18151">
        <ele>2296</ele>
        <time>2014-03-02T14:34:03.000Z</time>
      </trkpt>
      <trkpt lat="45.34159" lon="6.18151">
        <ele>2296</ele>
        <time>2014-03-02T14:34:04.000Z</time>
      </trkpt>
      <trkpt lat="45.34159" lon="6.18151">
        <ele>2296</ele>
        <time>2014-03-02T14:34:05.000Z</time>
      </trkpt>
      <trkpt lat="45.34159" lon="6.18151">
        <ele>2296</ele>
        <time>2014-03-02T14:34:06.000Z</time>
      </trkpt>
      <trkpt lat="45.34159" lon="6.18151">
        <ele>2296</ele>
        <time>2014-03-02T14:34:07.000Z</time>
      </trkpt>
      <trkpt lat="45.34159" lon="6.18151">
        <ele>2296</ele>
        <time>2014-03-02T14:34:08.000Z</time>
      </trkpt>
      <trkpt lat="45.34159" lon="6.18151">
        <ele>2296</ele>
        <time>2014-03-02T14:34:09.000Z</time>
      </trkpt>
      <trkpt lat="45.34159" lon="6.18151">
        <ele>2296</ele>
        <time>2014-03-02T14:34:10.000Z</time>
      </trkpt>
      <trkpt lat="45.34159" lon="6.18151">
        <ele>2296</ele>
        <time>2014-03-02T14:34:11.000Z</time>
      </trkpt>
      <trkpt lat="45.34159" lon="6.18151">
        <ele>2296</ele>
        <time>2014-03-02T14:34:12.000Z</time>
      </trkpt>
      <trkpt lat="45.34159" lon="6.18151">
        <ele>2296</ele>
        <time>2014-03-02T14:34:13.000Z</time>
      </trkpt>
      <trkpt lat="45.34159" lon="6.18151">
        <ele>2296</ele>
        <time>2014-03-02T14:34:14.000Z</time>
      </trkpt>
      <trkpt lat="45.34159" lon="6.18151">
        <ele>2296</ele>
        <time>2014-03-02T14:34:15.000Z</time>
      </trkpt>
      <trkpt lat="45.34159" lon="6.18151">
        <ele>2296</ele>
        <time>2014-03-02T14:34:16.000Z</time>
      </trkpt>
      <trkpt lat="45.34159" lon="6.18151">
        <ele>2296</ele>
        <time>2014-03-02T14:34:17.000Z</time>
      </trkpt>
      <trkpt lat="45.34159" lon="6.18151">
        <ele>2296</ele>
        <time>2014-03-02T14:34:18.000Z</time>
      </trkpt>
      <trkpt lat="45.34159" lon="6.18151">
        <ele>2296</ele>
        <time>2014-03-02T14:34:19.000Z</time>
      </trkpt>
      <trkpt lat="45.34159" lon="6.18152">
        <ele>2296.1999511719</ele>
        <time>2014-03-02T14:34:20.000Z</time>
      </trkpt>
      <trkpt lat="45.34159" lon="6.18152">
        <ele>2296.1999511719</ele>
        <time>2014-03-02T14:34:21.000Z</time>
      </trkpt>
      <trkpt lat="45.34159" lon="6.18152">
        <ele>2296.1999511719</ele>
        <time>2014-03-02T14:34:22.000Z</time>
      </trkpt>
      <trkpt lat="45.34159" lon="6.18152">
        <ele>2296.1999511719</ele>
        <time>2014-03-02T14:34:23.000Z</time>
      </trkpt>
      <trkpt lat="45.34159" lon="6.18152">
        <ele>2296.1999511719</ele>
        <time>2014-03-02T14:34:24.000Z</time>
      </trkpt>
      <trkpt lat="45.34159" lon="6.18152">
        <ele>2296.1999511719</ele>
        <time>2014-03-02T14:34:25.000Z</time>
      </trkpt>
      <trkpt lat="45.34159" lon="6.18152">
        <ele>2296.1999511719</ele>
        <time>2014-03-02T14:34:26.000Z</time>
      </trkpt>
      <trkpt lat="45.34159" lon="6.18152">
        <ele>2296.1999511719</ele>
        <time>2014-03-02T14:34:27.000Z</time>
      </trkpt>
      <trkpt lat="45.34159" lon="6.18152">
        <ele>2296.1999511719</ele>
        <time>2014-03-02T14:34:28.000Z</time>
      </trkpt>
      <trkpt lat="45.34159" lon="6.18152">
        <ele>2296.1999511719</ele>
        <time>2014-03-02T14:34:29.000Z</time>
      </trkpt>
      <trkpt lat="45.34159" lon="6.18152">
        <ele>2296.1999511719</ele>
        <time>2014-03-02T14:34:30.000Z</time>
      </trkpt>
      <trkpt lat="45.34159" lon="6.18152">
        <ele>2296.1999511719</ele>
        <time>2014-03-02T14:34:31.000Z</time>
      </trkpt>
      <trkpt lat="45.34159" lon="6.18152">
        <ele>2296.1999511719</ele>
        <time>2014-03-02T14:34:32.000Z</time>
      </trkpt>
      <trkpt lat="45.34159" lon="6.18152">
        <ele>2296.1999511719</ele>
        <time>2014-03-02T14:34:33.000Z</time>
      </trkpt>
      <trkpt lat="45.34159" lon="6.18152">
        <ele>2296.1999511719</ele>
        <time>2014-03-02T14:34:34.000Z</time>
      </trkpt>
      <trkpt lat="45.34159" lon="6.18152">
        <ele>2296.1999511719</ele>
        <time>2014-03-02T14:34:35.000Z</time>
      </trkpt>
      <trkpt lat="45.34159" lon="6.18152">
        <ele>2296.1999511719</ele>
        <time>2014-03-02T14:34:36.000Z</time>
      </trkpt>
      <trkpt lat="45.34159" lon="6.18152">
        <ele>2296.1999511719</ele>
        <time>2014-03-02T14:34:37.000Z</time>
      </trkpt>
      <trkpt lat="45.34159" lon="6.18152">
        <ele>2296.1999511719</ele>
        <time>2014-03-02T14:34:38.000Z</time>
      </trkpt>
      <trkpt lat="45.34159" lon="6.18152">
        <ele>2296.1999511719</ele>
        <time>2014-03-02T14:34:39.000Z</time>
      </trkpt>
      <trkpt lat="45.34159" lon="6.18152">
        <ele>2296.1999511719</ele>
        <time>2014-03-02T14:34:40.000Z</time>
      </trkpt>
      <trkpt lat="45.34159" lon="6.18152">
        <ele>2296.1999511719</ele>
        <time>2014-03-02T14:34:41.000Z</time>
      </trkpt>
      <trkpt lat="45.34159" lon="6.18152">
        <ele>2296.1999511719</ele>
        <time>2014-03-02T14:34:42.000Z</time>
      </trkpt>
      <trkpt lat="45.34159" lon="6.18152">
        <ele>2296.1999511719</ele>
        <time>2014-03-02T14:34:43.000Z</time>
      </trkpt>
      <trkpt lat="45.34159" lon="6.18152">
        <ele>2296.1999511719</ele>
        <time>2014-03-02T14:34:44.000Z</time>
      </trkpt>
      <trkpt lat="45.34159" lon="6.18152">
        <ele>2296.1999511719</ele>
        <time>2014-03-02T14:34:45.000Z</time>
      </trkpt>
      <trkpt lat="45.34159" lon="6.18152">
        <ele>2296.1999511719</ele>
        <time>2014-03-02T14:34:46.000Z</time>
      </trkpt>
      <trkpt lat="45.34159" lon="6.18152">
        <ele>2296.1999511719</ele>
        <time>2014-03-02T14:34:47.000Z</time>
      </trkpt>
      <trkpt lat="45.34159" lon="6.18152">
        <ele>2296.1999511719</ele>
        <time>2014-03-02T14:34:48.000Z</time>
      </trkpt>
      <trkpt lat="45.34159" lon="6.18152">
        <ele>2296.1999511719</ele>
        <time>2014-03-02T14:34:49.000Z</time>
      </trkpt>
      <trkpt lat="45.34159" lon="6.18152">
        <ele>2296.1999511719</ele>
        <time>2014-03-02T14:34:50.000Z</time>
      </trkpt>
      <trkpt lat="45.34159" lon="6.18152">
        <ele>2296.1999511719</ele>
        <time>2014-03-02T14:34:51.000Z</time>
      </trkpt>
      <trkpt lat="45.34159" lon="6.18152">
        <ele>2296.1999511719</ele>
        <time>2014-03-02T14:34:52.000Z</time>
      </trkpt>
      <trkpt lat="45.34159" lon="6.18152">
        <ele>2296.1999511719</ele>
        <time>2014-03-02T14:34:53.000Z</time>
      </trkpt>
      <trkpt lat="45.34159" lon="6.18152">
        <ele>2296.1999511719</ele>
        <time>2014-03-02T14:34:54.000Z</time>
      </trkpt>
      <trkpt lat="45.34159" lon="6.18152">
        <ele>2296.1999511719</ele>
        <time>2014-03-02T14:34:55.000Z</time>
      </trkpt>
      <trkpt lat="45.34159" lon="6.18152">
        <ele>2296.1999511719</ele>
        <time>2014-03-02T14:34:56.000Z</time>
      </trkpt>
      <trkpt lat="45.34159" lon="6.18152">
        <ele>2296.1999511719</ele>
        <time>2014-03-02T14:34:57.000Z</time>
      </trkpt>
      <trkpt lat="45.34159" lon="6.18152">
        <ele>2296.1999511719</ele>
        <time>2014-03-02T14:34:58.000Z</time>
      </trkpt>
      <trkpt lat="45.34159" lon="6.18152">
        <ele>2296.1999511719</ele>
        <time>2014-03-02T14:34:59.000Z</time>
      </trkpt>
      <trkpt lat="45.34158" lon="6.18154">
        <ele>2296.8000488281</ele>
        <time>2014-03-02T14:35:00.000Z</time>
      </trkpt>
      <trkpt lat="45.34158" lon="6.18154">
        <ele>2296.8000488281</ele>
        <time>2014-03-02T14:35:01.000Z</time>
      </trkpt>
      <trkpt lat="45.34158" lon="6.18154">
        <ele>2296.8000488281</ele>
        <time>2014-03-02T14:35:02.000Z</time>
      </trkpt>
      <trkpt lat="45.34158" lon="6.18154">
        <ele>2296.8000488281</ele>
        <time>2014-03-02T14:35:03.000Z</time>
      </trkpt>
      <trkpt lat="45.34158" lon="6.18154">
        <ele>2296.8000488281</ele>
        <time>2014-03-02T14:35:04.000Z</time>
      </trkpt>
      <trkpt lat="45.34158" lon="6.18154">
        <ele>2296.8000488281</ele>
        <time>2014-03-02T14:35:05.000Z</time>
      </trkpt>
      <trkpt lat="45.34158" lon="6.18154">
        <ele>2296.8000488281</ele>
        <time>2014-03-02T14:35:06.000Z</time>
      </trkpt>
      <trkpt lat="45.34158" lon="6.18154">
        <ele>2296.8000488281</ele>
        <time>2014-03-02T14:35:07.000Z</time>
      </trkpt>
      <trkpt lat="45.34158" lon="6.18154">
        <ele>2296.8000488281</ele>
        <time>2014-03-02T14:35:08.000Z</time>
      </trkpt>
      <trkpt lat="45.34158" lon="6.18154">
        <ele>2296.8000488281</ele>
        <time>2014-03-02T14:35:09.000Z</time>
      </trkpt>
      <trkpt lat="45.34158" lon="6.18154">
        <ele>2296.8000488281</ele>
        <time>2014-03-02T14:35:10.000Z</time>
      </trkpt>
      <trkpt lat="45.34158" lon="6.18154">
        <ele>2296.8000488281</ele>
        <time>2014-03-02T14:35:11.000Z</time>
      </trkpt>
      <trkpt lat="45.34158" lon="6.18154">
        <ele>2296.8000488281</ele>
        <time>2014-03-02T14:35:12.000Z</time>
      </trkpt>
      <trkpt lat="45.34158" lon="6.18154">
        <ele>2296.8000488281</ele>
        <time>2014-03-02T14:35:13.000Z</time>
      </trkpt>
      <trkpt lat="45.34158" lon="6.18154">
        <ele>2296.8000488281</ele>
        <time>2014-03-02T14:35:14.000Z</time>
      </trkpt>
      <trkpt lat="45.34158" lon="6.18154">
        <ele>2296.8000488281</ele>
        <time>2014-03-02T14:35:15.000Z</time>
      </trkpt>
      <trkpt lat="45.34158" lon="6.18154">
        <ele>2296.8000488281</ele>
        <time>2014-03-02T14:35:16.000Z</time>
      </trkpt>
      <trkpt lat="45.34158" lon="6.18154">
        <ele>2296.8000488281</ele>
        <time>2014-03-02T14:35:17.000Z</time>
      </trkpt>
      <trkpt lat="45.34158" lon="6.18154">
        <ele>2296.8000488281</ele>
        <time>2014-03-02T14:35:18.000Z</time>
      </trkpt>
      <trkpt lat="45.34158" lon="6.18154">
        <ele>2296.8000488281</ele>
        <time>2014-03-02T14:35:19.000Z</time>
      </trkpt>
      <trkpt lat="45.34156" lon="6.18156">
        <ele>2297.6000976562</ele>
        <time>2014-03-02T14:35:20.000Z</time>
      </trkpt>
      <trkpt lat="45.34153" lon="6.18162">
        <ele>2299.6000976562</ele>
        <time>2014-03-02T14:35:21.000Z</time>
      </trkpt>
      <trkpt lat="45.34153" lon="6.18162">
        <ele>2299.6000976562</ele>
        <time>2014-03-02T14:35:22.000Z</time>
      </trkpt>
      <trkpt lat="45.34149" lon="6.18166">
        <ele>2301</ele>
        <time>2014-03-02T14:35:23.000Z</time>
      </trkpt>
      <trkpt lat="45.34146" lon="6.18169">
        <ele>2302.8000488281</ele>
        <time>2014-03-02T14:35:24.000Z</time>
      </trkpt>
      <trkpt lat="45.34143" lon="6.18173">
        <ele>2304.6000976562</ele>
        <time>2014-03-02T14:35:25.000Z</time>
      </trkpt>
      <trkpt lat="45.3414" lon="6.18177">
        <ele>2306.1999511719</ele>
        <time>2014-03-02T14:35:26.000Z</time>
      </trkpt>
      <trkpt lat="45.3414" lon="6.18177">
        <ele>2306.1999511719</ele>
        <time>2014-03-02T14:35:27.000Z</time>
      </trkpt>
      <trkpt lat="45.34137" lon="6.1818">
        <ele>2307.6000976562</ele>
        <time>2014-03-02T14:35:28.000Z</time>
      </trkpt>
      <trkpt lat="45.34137" lon="6.1818">
        <ele>2307.6000976562</ele>
        <time>2014-03-02T14:35:29.000Z</time>
      </trkpt>
      <trkpt lat="45.34135" lon="6.18182">
        <ele>2309</ele>
        <time>2014-03-02T14:35:30.000Z</time>
      </trkpt>
      <trkpt lat="45.34135" lon="6.18182">
        <ele>2309</ele>
        <time>2014-03-02T14:35:31.000Z</time>
      </trkpt>
      <trkpt lat="45.34132" lon="6.18184">
        <ele>2310</ele>
        <time>2014-03-02T14:35:32.000Z</time>
      </trkpt>
      <trkpt lat="45.34129" lon="6.18186">
        <ele>2310.8000488281</ele>
        <time>2014-03-02T14:35:33.000Z</time>
      </trkpt>
      <trkpt lat="45.34127" lon="6.18187">
        <ele>2311.6000976562</ele>
        <time>2014-03-02T14:35:34.000Z</time>
      </trkpt>
      <trkpt lat="45.34125" lon="6.18189">
        <ele>2312</ele>
        <time>2014-03-02T14:35:35.000Z</time>
      </trkpt>
      <trkpt lat="45.34123" lon="6.18189">
        <ele>2312.3999023438</ele>
        <time>2014-03-02T14:35:36.000Z</time>
      </trkpt>
      <trkpt lat="45.34123" lon="6.18189">
        <ele>2312.3999023438</ele>
        <time>2014-03-02T14:35:37.000Z</time>
      </trkpt>
      <trkpt lat="45.34122" lon="6.1819">
        <ele>2312.8000488281</ele>
        <time>2014-03-02T14:35:38.000Z</time>
      </trkpt>
      <trkpt lat="45.3412" lon="6.18191">
        <ele>2313</ele>
        <time>2014-03-02T14:35:39.000Z</time>
      </trkpt>
      <trkpt lat="45.34118" lon="6.18191">
        <ele>2313.1999511719</ele>
        <time>2014-03-02T14:35:40.000Z</time>
      </trkpt>
      <trkpt lat="45.34118" lon="6.18191">
        <ele>2313.1999511719</ele>
        <time>2014-03-02T14:35:41.000Z</time>
      </trkpt>
      <trkpt lat="45.34117" lon="6.18192">
        <ele>2313.6000976562</ele>
        <time>2014-03-02T14:35:42.000Z</time>
      </trkpt>
      <trkpt lat="45.34117" lon="6.18192">
        <ele>2313.6000976562</ele>
        <time>2014-03-02T14:35:43.000Z</time>
      </trkpt>
      <trkpt lat="45.34115" lon="6.18192">
        <ele>2313.8000488281</ele>
        <time>2014-03-02T14:35:44.000Z</time>
      </trkpt>
      <trkpt lat="45.34113" lon="6.18193">
        <ele>2314</ele>
        <time>2014-03-02T14:35:45.000Z</time>
      </trkpt>
      <trkpt lat="45.34112" lon="6.18193">
        <ele>2314.1999511719</ele>
        <time>2014-03-02T14:35:46.000Z</time>
      </trkpt>
      <trkpt lat="45.34112" lon="6.18193">
        <ele>2314.1999511719</ele>
        <time>2014-03-02T14:35:47.000Z</time>
      </trkpt>
      <trkpt lat="45.34111" lon="6.18194">
        <ele>2314.6000976562</ele>
        <time>2014-03-02T14:35:48.000Z</time>
      </trkpt>
      <trkpt lat="45.34111" lon="6.18194">
        <ele>2314.6000976562</ele>
        <time>2014-03-02T14:35:49.000Z</time>
      </trkpt>
      <trkpt lat="45.3411" lon="6.18195">
        <ele>2315</ele>
        <time>2014-03-02T14:35:50.000Z</time>
      </trkpt>
      <trkpt lat="45.34108" lon="6.18195">
        <ele>2315.1999511719</ele>
        <time>2014-03-02T14:35:51.000Z</time>
      </trkpt>
      <trkpt lat="45.34108" lon="6.18196">
        <ele>2315.3999023438</ele>
        <time>2014-03-02T14:35:52.000Z</time>
      </trkpt>
      <trkpt lat="45.34108" lon="6.18196">
        <ele>2315.3999023438</ele>
        <time>2014-03-02T14:35:53.000Z</time>
      </trkpt>
      <trkpt lat="45.34107" lon="6.18196">
        <ele>2315.6000976562</ele>
        <time>2014-03-02T14:35:54.000Z</time>
      </trkpt>
      <trkpt lat="45.34107" lon="6.18196">
        <ele>2315.6000976562</ele>
        <time>2014-03-02T14:35:55.000Z</time>
      </trkpt>
      <trkpt lat="45.34107" lon="6.18196">
        <ele>2315.6000976562</ele>
        <time>2014-03-02T14:35:56.000Z</time>
      </trkpt>
      <trkpt lat="45.34107" lon="6.18196">
        <ele>2315.6000976562</ele>
        <time>2014-03-02T14:35:57.000Z</time>
      </trkpt>
      <trkpt lat="45.34107" lon="6.18196">
        <ele>2315.6000976562</ele>
        <time>2014-03-02T14:35:58.000Z</time>
      </trkpt>
      <trkpt lat="45.34107" lon="6.18196">
        <ele>2315.6000976562</ele>
        <time>2014-03-02T14:35:59.000Z</time>
      </trkpt>
      <trkpt lat="45.34107" lon="6.18196">
        <ele>2315.6000976562</ele>
        <time>2014-03-02T14:36:00.000Z</time>
      </trkpt>
      <trkpt lat="45.34107" lon="6.18196">
        <ele>2315.6000976562</ele>
        <time>2014-03-02T14:36:01.000Z</time>
      </trkpt>
      <trkpt lat="45.34107" lon="6.18196">
        <ele>2315.6000976562</ele>
        <time>2014-03-02T14:36:02.000Z</time>
      </trkpt>
      <trkpt lat="45.34107" lon="6.18196">
        <ele>2315.6000976562</ele>
        <time>2014-03-02T14:36:03.000Z</time>
      </trkpt>
      <trkpt lat="45.34107" lon="6.18196">
        <ele>2315.6000976562</ele>
        <time>2014-03-02T14:36:06.000Z</time>
      </trkpt>
      <trkpt lat="45.34107" lon="6.18196">
        <ele>2315.6000976562</ele>
        <time>2014-03-02T14:36:07.000Z</time>
      </trkpt>
      <trkpt lat="45.34107" lon="6.18196">
        <ele>2315.6000976562</ele>
        <time>2014-03-02T14:36:08.000Z</time>
      </trkpt>
      <trkpt lat="45.34107" lon="6.18196">
        <ele>2315.6000976562</ele>
        <time>2014-03-02T14:36:09.000Z</time>
      </trkpt>
      <trkpt lat="45.34107" lon="6.18196">
        <ele>2315.6000976562</ele>
        <time>2014-03-02T14:36:10.000Z</time>
      </trkpt>
      <trkpt lat="45.34107" lon="6.18196">
        <ele>2315.6000976562</ele>
        <time>2014-03-02T14:36:11.000Z</time>
      </trkpt>
      <trkpt lat="45.34107" lon="6.18196">
        <ele>2315.6000976562</ele>
        <time>2014-03-02T14:36:12.000Z</time>
      </trkpt>
      <trkpt lat="45.34107" lon="6.18196">
        <ele>2315.6000976562</ele>
        <time>2014-03-02T14:36:13.000Z</time>
      </trkpt>
      <trkpt lat="45.34107" lon="6.18196">
        <ele>2315.6000976562</ele>
        <time>2014-03-02T14:36:14.000Z</time>
      </trkpt>
      <trkpt lat="45.34105" lon="6.18196">
        <ele>2315.8000488281</ele>
        <time>2014-03-02T14:36:16.000Z</time>
      </trkpt>
      <trkpt lat="45.34104" lon="6.18196">
        <ele>2315.8000488281</ele>
        <time>2014-03-02T14:36:17.000Z</time>
      </trkpt>
      <trkpt lat="45.34102" lon="6.18196">
        <ele>2316</ele>
        <time>2014-03-02T14:36:18.000Z</time>
      </trkpt>
      <trkpt lat="45.34101" lon="6.18196">
        <ele>2315.8000488281</ele>
        <time>2014-03-02T14:36:19.000Z</time>
      </trkpt>
      <trkpt lat="45.34099" lon="6.18196">
        <ele>2315.8000488281</ele>
        <time>2014-03-02T14:36:20.000Z</time>
      </trkpt>
      <trkpt lat="45.34098" lon="6.18195">
        <ele>2315.8000488281</ele>
        <time>2014-03-02T14:36:21.000Z</time>
      </trkpt>
      <trkpt lat="45.34096" lon="6.18195">
        <ele>2315.8000488281</ele>
        <time>2014-03-02T14:36:22.000Z</time>
      </trkpt>
      <trkpt lat="45.34096" lon="6.18196">
        <ele>2316</ele>
        <time>2014-03-02T14:36:23.000Z</time>
      </trkpt>
      <trkpt lat="45.34095" lon="6.18196">
        <ele>2316.1999511719</ele>
        <time>2014-03-02T14:36:24.000Z</time>
      </trkpt>
      <trkpt lat="45.34095" lon="6.18196">
        <ele>2316.1999511719</ele>
        <time>2014-03-02T14:36:25.000Z</time>
      </trkpt>
      <trkpt lat="45.34094" lon="6.18196">
        <ele>2316.1999511719</ele>
        <time>2014-03-02T14:36:26.000Z</time>
      </trkpt>
      <trkpt lat="45.34094" lon="6.18196">
        <ele>2316.1999511719</ele>
        <time>2014-03-02T14:36:27.000Z</time>
      </trkpt>
      <trkpt lat="45.34094" lon="6.18196">
        <ele>2316.3999023438</ele>
        <time>2014-03-02T14:36:28.000Z</time>
      </trkpt>
      <trkpt lat="45.34094" lon="6.18196">
        <ele>2316.3999023438</ele>
        <time>2014-03-02T14:36:29.000Z</time>
      </trkpt>
      <trkpt lat="45.34094" lon="6.18196">
        <ele>2316.3999023438</ele>
        <time>2014-03-02T14:36:30.000Z</time>
      </trkpt>
      <trkpt lat="45.34094" lon="6.18196">
        <ele>2316.3999023438</ele>
        <time>2014-03-02T14:36:31.000Z</time>
      </trkpt>
      <trkpt lat="45.34094" lon="6.18196">
        <ele>2316.3999023438</ele>
        <time>2014-03-02T14:36:32.000Z</time>
      </trkpt>
      <trkpt lat="45.34094" lon="6.18196">
        <ele>2316.3999023438</ele>
        <time>2014-03-02T14:36:33.000Z</time>
      </trkpt>
      <trkpt lat="45.34094" lon="6.18196">
        <ele>2316.3999023438</ele>
        <time>2014-03-02T14:36:34.000Z</time>
      </trkpt>
      <trkpt lat="45.34095" lon="6.18198">
        <ele>2317</ele>
        <time>2014-03-02T14:36:35.000Z</time>
      </trkpt>
      <trkpt lat="45.34095" lon="6.18198">
        <ele>2317</ele>
        <time>2014-03-02T14:36:36.000Z</time>
      </trkpt>
      <trkpt lat="45.34095" lon="6.182">
        <ele>2317.6000976562</ele>
        <time>2014-03-02T14:36:37.000Z</time>
      </trkpt>
      <trkpt lat="45.34095" lon="6.182">
        <ele>2317.6000976562</ele>
        <time>2014-03-02T14:36:38.000Z</time>
      </trkpt>
      <trkpt lat="45.34096" lon="6.18201">
        <ele>2318.1999511719</ele>
        <time>2014-03-02T14:36:39.000Z</time>
      </trkpt>
      <trkpt lat="45.34096" lon="6.18201">
        <ele>2318.1999511719</ele>
        <time>2014-03-02T14:36:40.000Z</time>
      </trkpt>
      <trkpt lat="45.34096" lon="6.18201">
        <ele>2318.1999511719</ele>
        <time>2014-03-02T14:36:41.000Z</time>
      </trkpt>
      <trkpt lat="45.34096" lon="6.18203">
        <ele>2318.8000488281</ele>
        <time>2014-03-02T14:36:42.000Z</time>
      </trkpt>
      <trkpt lat="45.34096" lon="6.18204">
        <ele>2319.1999511719</ele>
        <time>2014-03-02T14:36:43.000Z</time>
      </trkpt>
      <trkpt lat="45.34096" lon="6.18204">
        <ele>2319.1999511719</ele>
        <time>2014-03-02T14:36:44.000Z</time>
      </trkpt>
      <trkpt lat="45.34096" lon="6.18205">
        <ele>2319.3999023438</ele>
        <time>2014-03-02T14:36:45.000Z</time>
      </trkpt>
      <trkpt lat="45.34096" lon="6.18205">
        <ele>2319.3999023438</ele>
        <time>2014-03-02T14:36:46.000Z</time>
      </trkpt>
      <trkpt lat="45.34096" lon="6.18206">
        <ele>2319.8000488281</ele>
        <time>2014-03-02T14:36:47.000Z</time>
      </trkpt>
      <trkpt lat="45.34096" lon="6.18206">
        <ele>2319.8000488281</ele>
        <time>2014-03-02T14:36:48.000Z</time>
      </trkpt>
      <trkpt lat="45.34097" lon="6.18208">
        <ele>2320.6000976562</ele>
        <time>2014-03-02T14:36:49.000Z</time>
      </trkpt>
      <trkpt lat="45.34097" lon="6.18209">
        <ele>2321</ele>
        <time>2014-03-02T14:36:50.000Z</time>
      </trkpt>
      <trkpt lat="45.34097" lon="6.1821">
        <ele>2321.3999023438</ele>
        <time>2014-03-02T14:36:51.000Z</time>
      </trkpt>
      <trkpt lat="45.34097" lon="6.18211">
        <ele>2321.6000976562</ele>
        <time>2014-03-02T14:36:52.000Z</time>
      </trkpt>
      <trkpt lat="45.34097" lon="6.18211">
        <ele>2321.8000488281</ele>
        <time>2014-03-02T14:36:53.000Z</time>
      </trkpt>
      <trkpt lat="45.34098" lon="6.18212">
        <ele>2322.1999511719</ele>
        <time>2014-03-02T14:36:54.000Z</time>
      </trkpt>
      <trkpt lat="45.34098" lon="6.18213">
        <ele>2322.3999023438</ele>
        <time>2014-03-02T14:36:55.000Z</time>
      </trkpt>
      <trkpt lat="45.34098" lon="6.18213">
        <ele>2322.3999023438</ele>
        <time>2014-03-02T14:36:56.000Z</time>
      </trkpt>
      <trkpt lat="45.34098" lon="6.18214">
        <ele>2322.8000488281</ele>
        <time>2014-03-02T14:36:57.000Z</time>
      </trkpt>
      <trkpt lat="45.34098" lon="6.18215">
        <ele>2323.1999511719</ele>
        <time>2014-03-02T14:36:58.000Z</time>
      </trkpt>
      <trkpt lat="45.34099" lon="6.18217">
        <ele>2323.6000976562</ele>
        <time>2014-03-02T14:36:59.000Z</time>
      </trkpt>
      <trkpt lat="45.34099" lon="6.18217">
        <ele>2324</ele>
        <time>2014-03-02T14:37:00.000Z</time>
      </trkpt>
      <trkpt lat="45.341" lon="6.18218">
        <ele>2324.1999511719</ele>
        <time>2014-03-02T14:37:01.000Z</time>
      </trkpt>
      <trkpt lat="45.341" lon="6.1822">
        <ele>2324.6000976562</ele>
        <time>2014-03-02T14:37:02.000Z</time>
      </trkpt>
      <trkpt lat="45.341" lon="6.1822">
        <ele>2324.6000976562</ele>
        <time>2014-03-02T14:37:03.000Z</time>
      </trkpt>
      <trkpt lat="45.341" lon="6.18221">
        <ele>2325.1999511719</ele>
        <time>2014-03-02T14:37:04.000Z</time>
      </trkpt>
      <trkpt lat="45.34101" lon="6.18223">
        <ele>2325.8000488281</ele>
        <time>2014-03-02T14:37:05.000Z</time>
      </trkpt>
      <trkpt lat="45.34101" lon="6.18223">
        <ele>2326</ele>
        <time>2014-03-02T14:37:06.000Z</time>
      </trkpt>
      <trkpt lat="45.34101" lon="6.18223">
        <ele>2326</ele>
        <time>2014-03-02T14:37:07.000Z</time>
      </trkpt>
      <trkpt lat="45.34101" lon="6.18224">
        <ele>2326.1999511719</ele>
        <time>2014-03-02T14:37:08.000Z</time>
      </trkpt>
      <trkpt lat="45.34101" lon="6.18224">
        <ele>2326.1999511719</ele>
        <time>2014-03-02T14:37:09.000Z</time>
      </trkpt>
      <trkpt lat="45.34102" lon="6.18225">
        <ele>2326.6000976562</ele>
        <time>2014-03-02T14:37:10.000Z</time>
      </trkpt>
      <trkpt lat="45.34103" lon="6.18226">
        <ele>2326.8000488281</ele>
        <time>2014-03-02T14:37:11.000Z</time>
      </trkpt>
      <trkpt lat="45.34103" lon="6.18227">
        <ele>2327.1999511719</ele>
        <time>2014-03-02T14:37:12.000Z</time>
      </trkpt>
      <trkpt lat="45.34103" lon="6.18227">
        <ele>2327.1999511719</ele>
        <time>2014-03-02T14:37:13.000Z</time>
      </trkpt>
      <trkpt lat="45.34104" lon="6.18227">
        <ele>2327.1999511719</ele>
        <time>2014-03-02T14:37:14.000Z</time>
      </trkpt>
      <trkpt lat="45.34104" lon="6.18227">
        <ele>2327.1999511719</ele>
        <time>2014-03-02T14:37:15.000Z</time>
      </trkpt>
      <trkpt lat="45.34104" lon="6.18228">
        <ele>2327.6000976562</ele>
        <time>2014-03-02T14:37:16.000Z</time>
      </trkpt>
      <trkpt lat="45.34104" lon="6.18228">
        <ele>2327.6000976562</ele>
        <time>2014-03-02T14:37:17.000Z</time>
      </trkpt>
      <trkpt lat="45.34105" lon="6.18229">
        <ele>2328</ele>
        <time>2014-03-02T14:37:18.000Z</time>
      </trkpt>
      <trkpt lat="45.34105" lon="6.18229">
        <ele>2328</ele>
        <time>2014-03-02T14:37:19.000Z</time>
      </trkpt>
      <trkpt lat="45.34106" lon="6.1823">
        <ele>2328.1999511719</ele>
        <time>2014-03-02T14:37:20.000Z</time>
      </trkpt>
      <trkpt lat="45.34106" lon="6.1823">
        <ele>2328.1999511719</ele>
        <time>2014-03-02T14:37:21.000Z</time>
      </trkpt>
      <trkpt lat="45.34106" lon="6.18231">
        <ele>2328.6000976562</ele>
        <time>2014-03-02T14:37:22.000Z</time>
      </trkpt>
      <trkpt lat="45.34106" lon="6.18231">
        <ele>2328.6000976562</ele>
        <time>2014-03-02T14:37:23.000Z</time>
      </trkpt>
      <trkpt lat="45.34107" lon="6.18232">
        <ele>2329</ele>
        <time>2014-03-02T14:37:24.000Z</time>
      </trkpt>
      <trkpt lat="45.34107" lon="6.18232">
        <ele>2329</ele>
        <time>2014-03-02T14:37:25.000Z</time>
      </trkpt>
      <trkpt lat="45.34107" lon="6.18233">
        <ele>2329</ele>
        <time>2014-03-02T14:37:26.000Z</time>
      </trkpt>
      <trkpt lat="45.34107" lon="6.18233">
        <ele>2329</ele>
        <time>2014-03-02T14:37:27.000Z</time>
      </trkpt>
      <trkpt lat="45.34107" lon="6.18233">
        <ele>2329</ele>
        <time>2014-03-02T14:37:28.000Z</time>
      </trkpt>
      <trkpt lat="45.34107" lon="6.18233">
        <ele>2329</ele>
        <time>2014-03-02T14:37:29.000Z</time>
      </trkpt>
      <trkpt lat="45.34107" lon="6.18233">
        <ele>2329</ele>
        <time>2014-03-02T14:37:30.000Z</time>
      </trkpt>
      <trkpt lat="45.34107" lon="6.18233">
        <ele>2329</ele>
        <time>2014-03-02T14:37:31.000Z</time>
      </trkpt>
      <trkpt lat="45.34107" lon="6.18233">
        <ele>2329</ele>
        <time>2014-03-02T14:37:32.000Z</time>
      </trkpt>
      <trkpt lat="45.34107" lon="6.18233">
        <ele>2329</ele>
        <time>2014-03-02T14:37:33.000Z</time>
      </trkpt>
      <trkpt lat="45.34107" lon="6.18233">
        <ele>2329</ele>
        <time>2014-03-02T14:37:34.000Z</time>
      </trkpt>
      <trkpt lat="45.34107" lon="6.18233">
        <ele>2329</ele>
        <time>2014-03-02T14:37:35.000Z</time>
      </trkpt>
      <trkpt lat="45.34107" lon="6.18233">
        <ele>2329</ele>
        <time>2014-03-02T14:37:36.000Z</time>
      </trkpt>
      <trkpt lat="45.34107" lon="6.18233">
        <ele>2329</ele>
        <time>2014-03-02T14:37:37.000Z</time>
      </trkpt>
      <trkpt lat="45.34107" lon="6.18233">
        <ele>2329</ele>
        <time>2014-03-02T14:37:38.000Z</time>
      </trkpt>
      <trkpt lat="45.34107" lon="6.18233">
        <ele>2329</ele>
        <time>2014-03-02T14:37:39.000Z</time>
      </trkpt>
      <trkpt lat="45.34107" lon="6.18233">
        <ele>2329</ele>
        <time>2014-03-02T14:37:40.000Z</time>
      </trkpt>
      <trkpt lat="45.34107" lon="6.18233">
        <ele>2329</ele>
        <time>2014-03-02T14:37:41.000Z</time>
      </trkpt>
      <trkpt lat="45.34107" lon="6.18233">
        <ele>2329</ele>
        <time>2014-03-02T14:37:42.000Z</time>
      </trkpt>
      <trkpt lat="45.34107" lon="6.18233">
        <ele>2329</ele>
        <time>2014-03-02T14:37:43.000Z</time>
      </trkpt>
      <trkpt lat="45.34107" lon="6.18233">
        <ele>2329</ele>
        <time>2014-03-02T14:37:44.000Z</time>
      </trkpt>
      <trkpt lat="45.34107" lon="6.18233">
        <ele>2329</ele>
        <time>2014-03-02T14:37:45.000Z</time>
      </trkpt>
      <trkpt lat="45.34107" lon="6.18233">
        <ele>2329</ele>
        <time>2014-03-02T14:37:46.000Z</time>
      </trkpt>
      <trkpt lat="45.34107" lon="6.18233">
        <ele>2329</ele>
        <time>2014-03-02T14:37:47.000Z</time>
      </trkpt>
      <trkpt lat="45.34107" lon="6.18233">
        <ele>2329</ele>
        <time>2014-03-02T14:37:48.000Z</time>
      </trkpt>
      <trkpt lat="45.34107" lon="6.18233">
        <ele>2329</ele>
        <time>2014-03-02T14:37:49.000Z</time>
      </trkpt>
      <trkpt lat="45.34107" lon="6.18233">
        <ele>2329</ele>
        <time>2014-03-02T14:37:50.000Z</time>
      </trkpt>
      <trkpt lat="45.34106" lon="6.18232">
        <ele>2329</ele>
        <time>2014-03-02T14:37:51.000Z</time>
      </trkpt>
      <trkpt lat="45.34105" lon="6.18233">
        <ele>2329.1999511719</ele>
        <time>2014-03-02T14:37:52.000Z</time>
      </trkpt>
      <trkpt lat="45.34103" lon="6.18233">
        <ele>2329.3999023438</ele>
        <time>2014-03-02T14:37:53.000Z</time>
      </trkpt>
      <trkpt lat="45.34101" lon="6.18233">
        <ele>2329.6000976562</ele>
        <time>2014-03-02T14:37:54.000Z</time>
      </trkpt>
      <trkpt lat="45.341" lon="6.18234">
        <ele>2330</ele>
        <time>2014-03-02T14:37:55.000Z</time>
      </trkpt>
      <trkpt lat="45.34099" lon="6.18234">
        <ele>2330.1999511719</ele>
        <time>2014-03-02T14:37:56.000Z</time>
      </trkpt>
      <trkpt lat="45.34098" lon="6.18234">
        <ele>2330.1999511719</ele>
        <time>2014-03-02T14:37:57.000Z</time>
      </trkpt>
      <trkpt lat="45.34096" lon="6.18234">
        <ele>2330.3999023438</ele>
        <time>2014-03-02T14:37:58.000Z</time>
      </trkpt>
      <trkpt lat="45.34096" lon="6.18234">
        <ele>2330.3999023438</ele>
        <time>2014-03-02T14:37:59.000Z</time>
      </trkpt>
      <trkpt lat="45.34095" lon="6.18234">
        <ele>2330.3999023438</ele>
        <time>2014-03-02T14:38:00.000Z</time>
      </trkpt>
      <trkpt lat="45.34094" lon="6.18234">
        <ele>2330.3999023438</ele>
        <time>2014-03-02T14:38:01.000Z</time>
      </trkpt>
      <trkpt lat="45.34093" lon="6.18234">
        <ele>2330.3999023438</ele>
        <time>2014-03-02T14:38:02.000Z</time>
      </trkpt>
      <trkpt lat="45.34093" lon="6.18234">
        <ele>2330.3999023438</ele>
        <time>2014-03-02T14:38:03.000Z</time>
      </trkpt>
      <trkpt lat="45.34092" lon="6.18234">
        <ele>2330.3999023438</ele>
        <time>2014-03-02T14:38:04.000Z</time>
      </trkpt>
      <trkpt lat="45.3409" lon="6.18234">
        <ele>2330.3999023438</ele>
        <time>2014-03-02T14:38:05.000Z</time>
      </trkpt>
      <trkpt lat="45.34089" lon="6.18233">
        <ele>2330.3999023438</ele>
        <time>2014-03-02T14:38:06.000Z</time>
      </trkpt>
      <trkpt lat="45.34089" lon="6.18233">
        <ele>2330.1999511719</ele>
        <time>2014-03-02T14:38:07.000Z</time>
      </trkpt>
      <trkpt lat="45.34088" lon="6.18232">
        <ele>2330.1999511719</ele>
        <time>2014-03-02T14:38:08.000Z</time>
      </trkpt>
      <trkpt lat="45.34087" lon="6.18232">
        <ele>2330.1999511719</ele>
        <time>2014-03-02T14:38:09.000Z</time>
      </trkpt>
      <trkpt lat="45.34087" lon="6.18232">
        <ele>2330</ele>
        <time>2014-03-02T14:38:10.000Z</time>
      </trkpt>
      <trkpt lat="45.34087" lon="6.18232">
        <ele>2330</ele>
        <time>2014-03-02T14:38:11.000Z</time>
      </trkpt>
      <trkpt lat="45.34086" lon="6.18232">
        <ele>2330</ele>
        <time>2014-03-02T14:38:12.000Z</time>
      </trkpt>
      <trkpt lat="45.34086" lon="6.18232">
        <ele>2330</ele>
        <time>2014-03-02T14:38:13.000Z</time>
      </trkpt>
      <trkpt lat="45.34085" lon="6.18231">
        <ele>2330</ele>
        <time>2014-03-02T14:38:14.000Z</time>
      </trkpt>
      <trkpt lat="45.34085" lon="6.18231">
        <ele>2330</ele>
        <time>2014-03-02T14:38:15.000Z</time>
      </trkpt>
      <trkpt lat="45.34085" lon="6.18231">
        <ele>2329.8000488281</ele>
        <time>2014-03-02T14:38:16.000Z</time>
      </trkpt>
      <trkpt lat="45.34085" lon="6.18231">
        <ele>2329.8000488281</ele>
        <time>2014-03-02T14:38:17.000Z</time>
      </trkpt>
      <trkpt lat="45.34085" lon="6.18231">
        <ele>2329.8000488281</ele>
        <time>2014-03-02T14:38:18.000Z</time>
      </trkpt>
      <trkpt lat="45.34085" lon="6.18231">
        <ele>2329.8000488281</ele>
        <time>2014-03-02T14:38:19.000Z</time>
      </trkpt>
      <trkpt lat="45.34085" lon="6.18231">
        <ele>2329.8000488281</ele>
        <time>2014-03-02T14:38:20.000Z</time>
      </trkpt>
      <trkpt lat="45.34084" lon="6.18231">
        <ele>2329.8000488281</ele>
        <time>2014-03-02T14:38:22.000Z</time>
      </trkpt>
      <trkpt lat="45.34084" lon="6.18231">
        <ele>2329.8000488281</ele>
        <time>2014-03-02T14:38:25.000Z</time>
      </trkpt>
      <trkpt lat="45.34084" lon="6.18231">
        <ele>2329.8000488281</ele>
        <time>2014-03-02T14:38:27.000Z</time>
      </trkpt>
      <trkpt lat="45.34084" lon="6.18231">
        <ele>2329.8000488281</ele>
        <time>2014-03-02T14:38:28.000Z</time>
      </trkpt>
      <trkpt lat="45.34084" lon="6.18231">
        <ele>2329.8000488281</ele>
        <time>2014-03-02T14:38:29.000Z</time>
      </trkpt>
      <trkpt lat="45.34084" lon="6.18231">
        <ele>2329.8000488281</ele>
        <time>2014-03-02T14:38:30.000Z</time>
      </trkpt>
      <trkpt lat="45.34084" lon="6.18232">
        <ele>2330.3999023438</ele>
        <time>2014-03-02T14:38:31.000Z</time>
      </trkpt>
      <trkpt lat="45.34085" lon="6.18234">
        <ele>2330.8000488281</ele>
        <time>2014-03-02T14:38:32.000Z</time>
      </trkpt>
      <trkpt lat="45.34085" lon="6.18234">
        <ele>2330.8000488281</ele>
        <time>2014-03-02T14:38:33.000Z</time>
      </trkpt>
      <trkpt lat="45.34086" lon="6.18235">
        <ele>2331.1999511719</ele>
        <time>2014-03-02T14:38:34.000Z</time>
      </trkpt>
      <trkpt lat="45.34086" lon="6.18235">
        <ele>2331.1999511719</ele>
        <time>2014-03-02T14:38:35.000Z</time>
      </trkpt>
      <trkpt lat="45.34086" lon="6.18236">
        <ele>2331.6000976562</ele>
        <time>2014-03-02T14:38:36.000Z</time>
      </trkpt>
      <trkpt lat="45.34086" lon="6.18236">
        <ele>2331.6000976562</ele>
        <time>2014-03-02T14:38:37.000Z</time>
      </trkpt>
      <trkpt lat="45.34086" lon="6.18237">
        <ele>2331.8000488281</ele>
        <time>2014-03-02T14:38:38.000Z</time>
      </trkpt>
      <trkpt lat="45.34087" lon="6.18237">
        <ele>2332</ele>
        <time>2014-03-02T14:38:39.000Z</time>
      </trkpt>
      <trkpt lat="45.34087" lon="6.18238">
        <ele>2332.1999511719</ele>
        <time>2014-03-02T14:38:40.000Z</time>
      </trkpt>
      <trkpt lat="45.34087" lon="6.18239">
        <ele>2332.8000488281</ele>
        <time>2014-03-02T14:38:41.000Z</time>
      </trkpt>
      <trkpt lat="45.34087" lon="6.1824">
        <ele>2333</ele>
        <time>2014-03-02T14:38:42.000Z</time>
      </trkpt>
      <trkpt lat="45.34087" lon="6.18241">
        <ele>2333.3999023438</ele>
        <time>2014-03-02T14:38:43.000Z</time>
      </trkpt>
      <trkpt lat="45.34087" lon="6.18242">
        <ele>2333.6000976562</ele>
        <time>2014-03-02T14:38:44.000Z</time>
      </trkpt>
      <trkpt lat="45.34087" lon="6.18243">
        <ele>2334.1999511719</ele>
        <time>2014-03-02T14:38:45.000Z</time>
      </trkpt>
      <trkpt lat="45.34087" lon="6.18243">
        <ele>2334.1999511719</ele>
        <time>2014-03-02T14:38:46.000Z</time>
      </trkpt>
      <trkpt lat="45.34087" lon="6.18244">
        <ele>2334.6000976562</ele>
        <time>2014-03-02T14:38:47.000Z</time>
      </trkpt>
      <trkpt lat="45.34087" lon="6.18245">
        <ele>2334.8000488281</ele>
        <time>2014-03-02T14:38:48.000Z</time>
      </trkpt>
      <trkpt lat="45.34087" lon="6.18245">
        <ele>2335</ele>
        <time>2014-03-02T14:38:49.000Z</time>
      </trkpt>
      <trkpt lat="45.34087" lon="6.18245">
        <ele>2335</ele>
        <time>2014-03-02T14:38:50.000Z</time>
      </trkpt>
      <trkpt lat="45.34087" lon="6.18246">
        <ele>2335.1999511719</ele>
        <time>2014-03-02T14:38:51.000Z</time>
      </trkpt>
      <trkpt lat="45.34087" lon="6.18246">
        <ele>2335.1999511719</ele>
        <time>2014-03-02T14:38:52.000Z</time>
      </trkpt>
      <trkpt lat="45.34088" lon="6.18247">
        <ele>2335.6000976562</ele>
        <time>2014-03-02T14:38:53.000Z</time>
      </trkpt>
      <trkpt lat="45.34088" lon="6.18247">
        <ele>2335.6000976562</ele>
        <time>2014-03-02T14:38:54.000Z</time>
      </trkpt>
      <trkpt lat="45.34088" lon="6.18249">
        <ele>2336.6000976562</ele>
        <time>2014-03-02T14:38:55.000Z</time>
      </trkpt>
      <trkpt lat="45.34087" lon="6.18251">
        <ele>2337</ele>
        <time>2014-03-02T14:38:56.000Z</time>
      </trkpt>
      <trkpt lat="45.34087" lon="6.18251">
        <ele>2337</ele>
        <time>2014-03-02T14:38:57.000Z</time>
      </trkpt>
      <trkpt lat="45.34088" lon="6.18252">
        <ele>2337.6000976562</ele>
        <time>2014-03-02T14:38:58.000Z</time>
      </trkpt>
      <trkpt lat="45.34088" lon="6.18253">
        <ele>2337.8000488281</ele>
        <time>2014-03-02T14:38:59.000Z</time>
      </trkpt>
      <trkpt lat="45.34088" lon="6.18254">
        <ele>2338.1999511719</ele>
        <time>2014-03-02T14:39:00.000Z</time>
      </trkpt>
      <trkpt lat="45.34089" lon="6.18255">
        <ele>2338.3999023438</ele>
        <time>2014-03-02T14:39:01.000Z</time>
      </trkpt>
      <trkpt lat="45.34089" lon="6.18255">
        <ele>2338.6000976562</ele>
        <time>2014-03-02T14:39:02.000Z</time>
      </trkpt>
      <trkpt lat="45.34089" lon="6.18256">
        <ele>2338.8000488281</ele>
        <time>2014-03-02T14:39:03.000Z</time>
      </trkpt>
      <trkpt lat="45.34089" lon="6.18256">
        <ele>2338.8000488281</ele>
        <time>2014-03-02T14:39:04.000Z</time>
      </trkpt>
      <trkpt lat="45.34089" lon="6.18256">
        <ele>2338.8000488281</ele>
        <time>2014-03-02T14:39:05.000Z</time>
      </trkpt>
      <trkpt lat="45.3409" lon="6.18257">
        <ele>2339.1999511719</ele>
        <time>2014-03-02T14:39:06.000Z</time>
      </trkpt>
      <trkpt lat="45.3409" lon="6.18259">
        <ele>2339.8000488281</ele>
        <time>2014-03-02T14:39:07.000Z</time>
      </trkpt>
      <trkpt lat="45.3409" lon="6.18259">
        <ele>2339.8000488281</ele>
        <time>2014-03-02T14:39:08.000Z</time>
      </trkpt>
      <trkpt lat="45.3409" lon="6.18259">
        <ele>2340</ele>
        <time>2014-03-02T14:39:09.000Z</time>
      </trkpt>
      <trkpt lat="45.3409" lon="6.18259">
        <ele>2340</ele>
        <time>2014-03-02T14:39:10.000Z</time>
      </trkpt>
      <trkpt lat="45.3409" lon="6.18259">
        <ele>2339.8000488281</ele>
        <time>2014-03-02T14:39:11.000Z</time>
      </trkpt>
      <trkpt lat="45.3409" lon="6.18259">
        <ele>2339.8000488281</ele>
        <time>2014-03-02T14:39:12.000Z</time>
      </trkpt>
      <trkpt lat="45.3409" lon="6.18259">
        <ele>2339.8000488281</ele>
        <time>2014-03-02T14:39:13.000Z</time>
      </trkpt>
      <trkpt lat="45.3409" lon="6.18259">
        <ele>2339.8000488281</ele>
        <time>2014-03-02T14:39:14.000Z</time>
      </trkpt>
      <trkpt lat="45.3409" lon="6.18259">
        <ele>2339.8000488281</ele>
        <time>2014-03-02T14:39:15.000Z</time>
      </trkpt>
      <trkpt lat="45.3409" lon="6.18259">
        <ele>2339.8000488281</ele>
        <time>2014-03-02T14:39:16.000Z</time>
      </trkpt>
      <trkpt lat="45.3409" lon="6.18259">
        <ele>2339.8000488281</ele>
        <time>2014-03-02T14:39:17.000Z</time>
      </trkpt>
      <trkpt lat="45.3409" lon="6.18259">
        <ele>2339.8000488281</ele>
        <time>2014-03-02T14:39:18.000Z</time>
      </trkpt>
      <trkpt lat="45.3409" lon="6.18259">
        <ele>2339.8000488281</ele>
        <time>2014-03-02T14:39:19.000Z</time>
      </trkpt>
      <trkpt lat="45.34089" lon="6.18258">
        <ele>2339.6000976562</ele>
        <time>2014-03-02T14:39:20.000Z</time>
      </trkpt>
      <trkpt lat="45.34089" lon="6.18258">
        <ele>2339.6000976562</ele>
        <time>2014-03-02T14:39:21.000Z</time>
      </trkpt>
      <trkpt lat="45.34089" lon="6.18258">
        <ele>2339.3999023438</ele>
        <time>2014-03-02T14:39:22.000Z</time>
      </trkpt>
      <trkpt lat="45.34089" lon="6.18258">
        <ele>2339.3999023438</ele>
        <time>2014-03-02T14:39:23.000Z</time>
      </trkpt>
      <trkpt lat="45.34088" lon="6.18257">
        <ele>2339.3999023438</ele>
        <time>2014-03-02T14:39:24.000Z</time>
      </trkpt>
      <trkpt lat="45.34087" lon="6.18257">
        <ele>2339.1999511719</ele>
        <time>2014-03-02T14:39:25.000Z</time>
      </trkpt>
      <trkpt lat="45.34087" lon="6.18256">
        <ele>2339</ele>
        <time>2014-03-02T14:39:26.000Z</time>
      </trkpt>
      <trkpt lat="45.34086" lon="6.18256">
        <ele>2339</ele>
        <time>2014-03-02T14:39:27.000Z</time>
      </trkpt>
      <trkpt lat="45.34086" lon="6.18256">
        <ele>2339</ele>
        <time>2014-03-02T14:39:28.000Z</time>
      </trkpt>
      <trkpt lat="45.34086" lon="6.18256">
        <ele>2339</ele>
        <time>2014-03-02T14:39:29.000Z</time>
      </trkpt>
      <trkpt lat="45.34086" lon="6.18256">
        <ele>2339</ele>
        <time>2014-03-02T14:39:30.000Z</time>
      </trkpt>
      <trkpt lat="45.34085" lon="6.18255">
        <ele>2339</ele>
        <time>2014-03-02T14:39:31.000Z</time>
      </trkpt>
      <trkpt lat="45.34085" lon="6.18255">
        <ele>2339</ele>
        <time>2014-03-02T14:39:32.000Z</time>
      </trkpt>
      <trkpt lat="45.34084" lon="6.18255">
        <ele>2338.8000488281</ele>
        <time>2014-03-02T14:39:33.000Z</time>
      </trkpt>
      <trkpt lat="45.34084" lon="6.18255">
        <ele>2338.8000488281</ele>
        <time>2014-03-02T14:39:34.000Z</time>
      </trkpt>
      <trkpt lat="45.34084" lon="6.18255">
        <ele>2338.8000488281</ele>
        <time>2014-03-02T14:39:35.000Z</time>
      </trkpt>
      <trkpt lat="45.34084" lon="6.18254">
        <ele>2338.6000976562</ele>
        <time>2014-03-02T14:39:36.000Z</time>
      </trkpt>
      <trkpt lat="45.34083" lon="6.18253">
        <ele>2338.1999511719</ele>
        <time>2014-03-02T14:39:37.000Z</time>
      </trkpt>
      <trkpt lat="45.34083" lon="6.18253">
        <ele>2338</ele>
        <time>2014-03-02T14:39:38.000Z</time>
      </trkpt>
      <trkpt lat="45.34082" lon="6.18251">
        <ele>2337.6000976562</ele>
        <time>2014-03-02T14:39:39.000Z</time>
      </trkpt>
      <trkpt lat="45.34081" lon="6.18251">
        <ele>2337.6000976562</ele>
        <time>2014-03-02T14:39:40.000Z</time>
      </trkpt>
      <trkpt lat="45.3408" lon="6.18251">
        <ele>2337.6000976562</ele>
        <time>2014-03-02T14:39:41.000Z</time>
      </trkpt>
      <trkpt lat="45.3408" lon="6.18251">
        <ele>2337.6000976562</ele>
        <time>2014-03-02T14:39:42.000Z</time>
      </trkpt>
      <trkpt lat="45.34079" lon="6.18251">
        <ele>2337.3999023438</ele>
        <time>2014-03-02T14:39:43.000Z</time>
      </trkpt>
      <trkpt lat="45.34079" lon="6.18251">
        <ele>2337.3999023438</ele>
        <time>2014-03-02T14:39:44.000Z</time>
      </trkpt>
      <trkpt lat="45.34079" lon="6.18251">
        <ele>2337.3999023438</ele>
        <time>2014-03-02T14:39:45.000Z</time>
      </trkpt>
      <trkpt lat="45.34079" lon="6.18251">
        <ele>2337.3999023438</ele>
        <time>2014-03-02T14:39:46.000Z</time>
      </trkpt>
      <trkpt lat="45.34078" lon="6.1825">
        <ele>2337.3999023438</ele>
        <time>2014-03-02T14:39:48.000Z</time>
      </trkpt>
      <trkpt lat="45.34078" lon="6.1825">
        <ele>2337.1999511719</ele>
        <time>2014-03-02T14:39:49.000Z</time>
      </trkpt>
      <trkpt lat="45.34077" lon="6.18249">
        <ele>2337.1999511719</ele>
        <time>2014-03-02T14:39:50.000Z</time>
      </trkpt>
      <trkpt lat="45.34076" lon="6.18249">
        <ele>2337.1999511719</ele>
        <time>2014-03-02T14:39:51.000Z</time>
      </trkpt>
      <trkpt lat="45.34076" lon="6.1825">
        <ele>2337.1999511719</ele>
        <time>2014-03-02T14:39:52.000Z</time>
      </trkpt>
      <trkpt lat="45.34075" lon="6.1825">
        <ele>2337.3999023438</ele>
        <time>2014-03-02T14:39:53.000Z</time>
      </trkpt>
      <trkpt lat="45.34075" lon="6.1825">
        <ele>2337.6000976562</ele>
        <time>2014-03-02T14:39:54.000Z</time>
      </trkpt>
      <trkpt lat="45.34074" lon="6.1825">
        <ele>2337.3999023438</ele>
        <time>2014-03-02T14:39:55.000Z</time>
      </trkpt>
      <trkpt lat="45.34074" lon="6.1825">
        <ele>2337.3999023438</ele>
        <time>2014-03-02T14:39:56.000Z</time>
      </trkpt>
      <trkpt lat="45.34073" lon="6.1825">
        <ele>2337.3999023438</ele>
        <time>2014-03-02T14:39:57.000Z</time>
      </trkpt>
      <trkpt lat="45.34073" lon="6.1825">
        <ele>2337.3999023438</ele>
        <time>2014-03-02T14:39:58.000Z</time>
      </trkpt>
      <trkpt lat="45.34073" lon="6.1825">
        <ele>2337.3999023438</ele>
        <time>2014-03-02T14:39:59.000Z</time>
      </trkpt>
      <trkpt lat="45.34073" lon="6.1825">
        <ele>2337.3999023438</ele>
        <time>2014-03-02T14:40:00.000Z</time>
      </trkpt>
      <trkpt lat="45.34073" lon="6.1825">
        <ele>2337.3999023438</ele>
        <time>2014-03-02T14:40:01.000Z</time>
      </trkpt>
      <trkpt lat="45.34073" lon="6.1825">
        <ele>2337.3999023438</ele>
        <time>2014-03-02T14:40:02.000Z</time>
      </trkpt>
      <trkpt lat="45.34073" lon="6.1825">
        <ele>2337.3999023438</ele>
        <time>2014-03-02T14:40:03.000Z</time>
      </trkpt>
      <trkpt lat="45.34073" lon="6.1825">
        <ele>2337.3999023438</ele>
        <time>2014-03-02T14:40:04.000Z</time>
      </trkpt>
      <trkpt lat="45.34073" lon="6.1825">
        <ele>2337.3999023438</ele>
        <time>2014-03-02T14:40:05.000Z</time>
      </trkpt>
      <trkpt lat="45.34073" lon="6.1825">
        <ele>2337.3999023438</ele>
        <time>2014-03-02T14:40:07.000Z</time>
      </trkpt>
      <trkpt lat="45.34073" lon="6.1825">
        <ele>2337.3999023438</ele>
        <time>2014-03-02T14:40:08.000Z</time>
      </trkpt>
      <trkpt lat="45.34073" lon="6.1825">
        <ele>2337.3999023438</ele>
        <time>2014-03-02T14:40:09.000Z</time>
      </trkpt>
      <trkpt lat="45.34073" lon="6.1825">
        <ele>2337.3999023438</ele>
        <time>2014-03-02T14:40:10.000Z</time>
      </trkpt>
      <trkpt lat="45.34073" lon="6.1825">
        <ele>2337.3999023438</ele>
        <time>2014-03-02T14:40:11.000Z</time>
      </trkpt>
      <trkpt lat="45.34074" lon="6.18252">
        <ele>2338.3999023438</ele>
        <time>2014-03-02T14:40:12.000Z</time>
      </trkpt>
      <trkpt lat="45.34074" lon="6.18252">
        <ele>2338.3999023438</ele>
        <time>2014-03-02T14:40:13.000Z</time>
      </trkpt>
      <trkpt lat="45.34074" lon="6.18254">
        <ele>2339</ele>
        <time>2014-03-02T14:40:14.000Z</time>
      </trkpt>
      <trkpt lat="45.34075" lon="6.18255">
        <ele>2339.1999511719</ele>
        <time>2014-03-02T14:40:15.000Z</time>
      </trkpt>
      <trkpt lat="45.34075" lon="6.18256">
        <ele>2339.6000976562</ele>
        <time>2014-03-02T14:40:16.000Z</time>
      </trkpt>
      <trkpt lat="45.34075" lon="6.18256">
        <ele>2339.6000976562</ele>
        <time>2014-03-02T14:40:17.000Z</time>
      </trkpt>
      <trkpt lat="45.34075" lon="6.18257">
        <ele>2340.1999511719</ele>
        <time>2014-03-02T14:40:18.000Z</time>
      </trkpt>
      <trkpt lat="45.34075" lon="6.18257">
        <ele>2340.1999511719</ele>
        <time>2014-03-02T14:40:19.000Z</time>
      </trkpt>
      <trkpt lat="45.34075" lon="6.18258">
        <ele>2340.6000976562</ele>
        <time>2014-03-02T14:40:20.000Z</time>
      </trkpt>
      <trkpt lat="45.34076" lon="6.18259">
        <ele>2341</ele>
        <time>2014-03-02T14:40:21.000Z</time>
      </trkpt>
      <trkpt lat="45.34076" lon="6.18259">
        <ele>2341</ele>
        <time>2014-03-02T14:40:22.000Z</time>
      </trkpt>
      <trkpt lat="45.34076" lon="6.1826">
        <ele>2341.3999023438</ele>
        <time>2014-03-02T14:40:23.000Z</time>
      </trkpt>
      <trkpt lat="45.34076" lon="6.1826">
        <ele>2341.3999023438</ele>
        <time>2014-03-02T14:40:24.000Z</time>
      </trkpt>
      <trkpt lat="45.34076" lon="6.18262">
        <ele>2342</ele>
        <time>2014-03-02T14:40:25.000Z</time>
      </trkpt>
      <trkpt lat="45.34076" lon="6.18262">
        <ele>2342</ele>
        <time>2014-03-02T14:40:26.000Z</time>
      </trkpt>
      <trkpt lat="45.34077" lon="6.18263">
        <ele>2342.3999023438</ele>
        <time>2014-03-02T14:40:27.000Z</time>
      </trkpt>
      <trkpt lat="45.34077" lon="6.18263">
        <ele>2342.3999023438</ele>
        <time>2014-03-02T14:40:28.000Z</time>
      </trkpt>
      <trkpt lat="45.34077" lon="6.18264">
        <ele>2342.6000976562</ele>
        <time>2014-03-02T14:40:29.000Z</time>
      </trkpt>
      <trkpt lat="45.34077" lon="6.18264">
        <ele>2342.6000976562</ele>
        <time>2014-03-02T14:40:30.000Z</time>
      </trkpt>
      <trkpt lat="45.34077" lon="6.18265">
        <ele>2343</ele>
        <time>2014-03-02T14:40:31.000Z</time>
      </trkpt>
      <trkpt lat="45.34077" lon="6.18266">
        <ele>2343.3999023438</ele>
        <time>2014-03-02T14:40:32.000Z</time>
      </trkpt>
      <trkpt lat="45.34077" lon="6.18266">
        <ele>2343.3999023438</ele>
        <time>2014-03-02T14:40:33.000Z</time>
      </trkpt>
      <trkpt lat="45.34078" lon="6.18267">
        <ele>2343.8000488281</ele>
        <time>2014-03-02T14:40:34.000Z</time>
      </trkpt>
      <trkpt lat="45.34078" lon="6.18267">
        <ele>2343.8000488281</ele>
        <time>2014-03-02T14:40:35.000Z</time>
      </trkpt>
      <trkpt lat="45.34078" lon="6.18269">
        <ele>2344.3999023438</ele>
        <time>2014-03-02T14:40:36.000Z</time>
      </trkpt>
      <trkpt lat="45.34079" lon="6.1827">
        <ele>2344.8000488281</ele>
        <time>2014-03-02T14:40:37.000Z</time>
      </trkpt>
      <trkpt lat="45.34079" lon="6.1827">
        <ele>2345</ele>
        <time>2014-03-02T14:40:38.000Z</time>
      </trkpt>
      <trkpt lat="45.34079" lon="6.1827">
        <ele>2345</ele>
        <time>2014-03-02T14:40:39.000Z</time>
      </trkpt>
      <trkpt lat="45.34079" lon="6.18271">
        <ele>2345.1999511719</ele>
        <time>2014-03-02T14:40:40.000Z</time>
      </trkpt>
      <trkpt lat="45.34079" lon="6.18272">
        <ele>2345.6000976562</ele>
        <time>2014-03-02T14:40:41.000Z</time>
      </trkpt>
      <trkpt lat="45.34079" lon="6.18272">
        <ele>2345.6000976562</ele>
        <time>2014-03-02T14:40:42.000Z</time>
      </trkpt>
      <trkpt lat="45.3408" lon="6.18273">
        <ele>2345.8000488281</ele>
        <time>2014-03-02T14:40:43.000Z</time>
      </trkpt>
      <trkpt lat="45.3408" lon="6.18273">
        <ele>2345.8000488281</ele>
        <time>2014-03-02T14:40:44.000Z</time>
      </trkpt>
      <trkpt lat="45.34081" lon="6.18274">
        <ele>2346.1999511719</ele>
        <time>2014-03-02T14:40:45.000Z</time>
      </trkpt>
      <trkpt lat="45.34081" lon="6.18274">
        <ele>2346.1999511719</ele>
        <time>2014-03-02T14:40:46.000Z</time>
      </trkpt>
      <trkpt lat="45.34081" lon="6.18274">
        <ele>2346.1999511719</ele>
        <time>2014-03-02T14:40:47.000Z</time>
      </trkpt>
      <trkpt lat="45.34081" lon="6.18274">
        <ele>2346.1999511719</ele>
        <time>2014-03-02T14:40:48.000Z</time>
      </trkpt>
      <trkpt lat="45.34081" lon="6.18274">
        <ele>2346.1999511719</ele>
        <time>2014-03-02T14:40:49.000Z</time>
      </trkpt>
      <trkpt lat="45.34081" lon="6.18274">
        <ele>2346.1999511719</ele>
        <time>2014-03-02T14:40:50.000Z</time>
      </trkpt>
      <trkpt lat="45.34081" lon="6.18274">
        <ele>2346.1999511719</ele>
        <time>2014-03-02T14:40:51.000Z</time>
      </trkpt>
      <trkpt lat="45.34081" lon="6.18274">
        <ele>2346.1999511719</ele>
        <time>2014-03-02T14:40:52.000Z</time>
      </trkpt>
      <trkpt lat="45.34081" lon="6.18274">
        <ele>2346.1999511719</ele>
        <time>2014-03-02T14:40:53.000Z</time>
      </trkpt>
      <trkpt lat="45.34081" lon="6.18274">
        <ele>2346.1999511719</ele>
        <time>2014-03-02T14:40:54.000Z</time>
      </trkpt>
      <trkpt lat="45.3408" lon="6.18274">
        <ele>2346</ele>
        <time>2014-03-02T14:40:55.000Z</time>
      </trkpt>
      <trkpt lat="45.3408" lon="6.18274">
        <ele>2346.1999511719</ele>
        <time>2014-03-02T14:40:56.000Z</time>
      </trkpt>
      <trkpt lat="45.3408" lon="6.18274">
        <ele>2346.1999511719</ele>
        <time>2014-03-02T14:40:57.000Z</time>
      </trkpt>
      <trkpt lat="45.3408" lon="6.18274">
        <ele>2346.1999511719</ele>
        <time>2014-03-02T14:40:58.000Z</time>
      </trkpt>
      <trkpt lat="45.3408" lon="6.18274">
        <ele>2346.1999511719</ele>
        <time>2014-03-02T14:40:59.000Z</time>
      </trkpt>
      <trkpt lat="45.3408" lon="6.18274">
        <ele>2346.1999511719</ele>
        <time>2014-03-02T14:41:00.000Z</time>
      </trkpt>
      <trkpt lat="45.3408" lon="6.18274">
        <ele>2346.1999511719</ele>
        <time>2014-03-02T14:41:01.000Z</time>
      </trkpt>
      <trkpt lat="45.34079" lon="6.18274">
        <ele>2346.3999023438</ele>
        <time>2014-03-02T14:41:02.000Z</time>
      </trkpt>
      <trkpt lat="45.34079" lon="6.18274">
        <ele>2346.3999023438</ele>
        <time>2014-03-02T14:41:03.000Z</time>
      </trkpt>
      <trkpt lat="45.34078" lon="6.18274">
        <ele>2346.3999023438</ele>
        <time>2014-03-02T14:41:04.000Z</time>
      </trkpt>
      <trkpt lat="45.34077" lon="6.18274">
        <ele>2346.3999023438</ele>
        <time>2014-03-02T14:41:05.000Z</time>
      </trkpt>
      <trkpt lat="45.34076" lon="6.18273">
        <ele>2346.3999023438</ele>
        <time>2014-03-02T14:41:06.000Z</time>
      </trkpt>
      <trkpt lat="45.34076" lon="6.18273">
        <ele>2346.3999023438</ele>
        <time>2014-03-02T14:41:07.000Z</time>
      </trkpt>
      <trkpt lat="45.34075" lon="6.18273">
        <ele>2346.3999023438</ele>
        <time>2014-03-02T14:41:08.000Z</time>
      </trkpt>
      <trkpt lat="45.34074" lon="6.18273">
        <ele>2346.3999023438</ele>
        <time>2014-03-02T14:41:09.000Z</time>
      </trkpt>
      <trkpt lat="45.34073" lon="6.18273">
        <ele>2346.3999023438</ele>
        <time>2014-03-02T14:41:10.000Z</time>
      </trkpt>
      <trkpt lat="45.34072" lon="6.18273">
        <ele>2346.3999023438</ele>
        <time>2014-03-02T14:41:11.000Z</time>
      </trkpt>
      <trkpt lat="45.34072" lon="6.18273">
        <ele>2346.3999023438</ele>
        <time>2014-03-02T14:41:12.000Z</time>
      </trkpt>
      <trkpt lat="45.34071" lon="6.18273">
        <ele>2346.3999023438</ele>
        <time>2014-03-02T14:41:13.000Z</time>
      </trkpt>
      <trkpt lat="45.34071" lon="6.18272">
        <ele>2346.1999511719</ele>
        <time>2014-03-02T14:41:14.000Z</time>
      </trkpt>
      <trkpt lat="45.3407" lon="6.18272">
        <ele>2346.3999023438</ele>
        <time>2014-03-02T14:41:15.000Z</time>
      </trkpt>
      <trkpt lat="45.34069" lon="6.18272">
        <ele>2346.1999511719</ele>
        <time>2014-03-02T14:41:16.000Z</time>
      </trkpt>
      <trkpt lat="45.34069" lon="6.18272">
        <ele>2346.1999511719</ele>
        <time>2014-03-02T14:41:17.000Z</time>
      </trkpt>
      <trkpt lat="45.34068" lon="6.18271">
        <ele>2346</ele>
        <time>2014-03-02T14:41:18.000Z</time>
      </trkpt>
      <trkpt lat="45.34067" lon="6.18271">
        <ele>2346</ele>
        <time>2014-03-02T14:41:19.000Z</time>
      </trkpt>
      <trkpt lat="45.34067" lon="6.18271">
        <ele>2346</ele>
        <time>2014-03-02T14:41:20.000Z</time>
      </trkpt>
      <trkpt lat="45.34066" lon="6.18271">
        <ele>2346</ele>
        <time>2014-03-02T14:41:21.000Z</time>
      </trkpt>
      <trkpt lat="45.34066" lon="6.1827">
        <ele>2345.8000488281</ele>
        <time>2014-03-02T14:41:22.000Z</time>
      </trkpt>
      <trkpt lat="45.34066" lon="6.1827">
        <ele>2346</ele>
        <time>2014-03-02T14:41:23.000Z</time>
      </trkpt>
      <trkpt lat="45.34066" lon="6.1827">
        <ele>2346</ele>
        <time>2014-03-02T14:41:24.000Z</time>
      </trkpt>
      <trkpt lat="45.34066" lon="6.1827">
        <ele>2346</ele>
        <time>2014-03-02T14:41:25.000Z</time>
      </trkpt>
      <trkpt lat="45.34066" lon="6.1827">
        <ele>2346</ele>
        <time>2014-03-02T14:41:26.000Z</time>
      </trkpt>
      <trkpt lat="45.34066" lon="6.1827">
        <ele>2346</ele>
        <time>2014-03-02T14:41:27.000Z</time>
      </trkpt>
      <trkpt lat="45.34066" lon="6.1827">
        <ele>2346</ele>
        <time>2014-03-02T14:41:28.000Z</time>
      </trkpt>
      <trkpt lat="45.34066" lon="6.1827">
        <ele>2346</ele>
        <time>2014-03-02T14:41:29.000Z</time>
      </trkpt>
      <trkpt lat="45.34066" lon="6.1827">
        <ele>2346</ele>
        <time>2014-03-02T14:41:30.000Z</time>
      </trkpt>
      <trkpt lat="45.34066" lon="6.1827">
        <ele>2346</ele>
        <time>2014-03-02T14:41:31.000Z</time>
      </trkpt>
      <trkpt lat="45.34066" lon="6.1827">
        <ele>2346</ele>
        <time>2014-03-02T14:41:32.000Z</time>
      </trkpt>
      <trkpt lat="45.34066" lon="6.1827">
        <ele>2346</ele>
        <time>2014-03-02T14:41:33.000Z</time>
      </trkpt>
      <trkpt lat="45.34066" lon="6.1827">
        <ele>2346</ele>
        <time>2014-03-02T14:41:34.000Z</time>
      </trkpt>
      <trkpt lat="45.34066" lon="6.1827">
        <ele>2346</ele>
        <time>2014-03-02T14:41:35.000Z</time>
      </trkpt>
      <trkpt lat="45.34066" lon="6.1827">
        <ele>2346</ele>
        <time>2014-03-02T14:41:36.000Z</time>
      </trkpt>
      <trkpt lat="45.34065" lon="6.1827">
        <ele>2345.8000488281</ele>
        <time>2014-03-02T14:41:37.000Z</time>
      </trkpt>
      <trkpt lat="45.34065" lon="6.1827">
        <ele>2345.8000488281</ele>
        <time>2014-03-02T14:41:38.000Z</time>
      </trkpt>
      <trkpt lat="45.34065" lon="6.1827">
        <ele>2345.8000488281</ele>
        <time>2014-03-02T14:41:39.000Z</time>
      </trkpt>
      <trkpt lat="45.34064" lon="6.1827">
        <ele>2345.8000488281</ele>
        <time>2014-03-02T14:41:40.000Z</time>
      </trkpt>
      <trkpt lat="45.34064" lon="6.1827">
        <ele>2345.8000488281</ele>
        <time>2014-03-02T14:41:41.000Z</time>
      </trkpt>
      <trkpt lat="45.34064" lon="6.1827">
        <ele>2345.8000488281</ele>
        <time>2014-03-02T14:41:42.000Z</time>
      </trkpt>
      <trkpt lat="45.34064" lon="6.1827">
        <ele>2345.8000488281</ele>
        <time>2014-03-02T14:41:43.000Z</time>
      </trkpt>
      <trkpt lat="45.34064" lon="6.1827">
        <ele>2345.8000488281</ele>
        <time>2014-03-02T14:41:44.000Z</time>
      </trkpt>
      <trkpt lat="45.34064" lon="6.1827">
        <ele>2345.8000488281</ele>
        <time>2014-03-02T14:41:45.000Z</time>
      </trkpt>
      <trkpt lat="45.34064" lon="6.1827">
        <ele>2345.8000488281</ele>
        <time>2014-03-02T14:41:46.000Z</time>
      </trkpt>
      <trkpt lat="45.34064" lon="6.1827">
        <ele>2345.8000488281</ele>
        <time>2014-03-02T14:41:48.000Z</time>
      </trkpt>
      <trkpt lat="45.34065" lon="6.1827">
        <ele>2345.8000488281</ele>
        <time>2014-03-02T14:41:49.000Z</time>
      </trkpt>
      <trkpt lat="45.34065" lon="6.1827">
        <ele>2345.8000488281</ele>
        <time>2014-03-02T14:41:50.000Z</time>
      </trkpt>
      <trkpt lat="45.34065" lon="6.1827">
        <ele>2345.8000488281</ele>
        <time>2014-03-02T14:41:51.000Z</time>
      </trkpt>
      <trkpt lat="45.34065" lon="6.1827">
        <ele>2345.8000488281</ele>
        <time>2014-03-02T14:41:52.000Z</time>
      </trkpt>
      <trkpt lat="45.34065" lon="6.1827">
        <ele>2345.8000488281</ele>
        <time>2014-03-02T14:41:53.000Z</time>
      </trkpt>
      <trkpt lat="45.34065" lon="6.1827">
        <ele>2345.8000488281</ele>
        <time>2014-03-02T14:41:54.000Z</time>
      </trkpt>
      <trkpt lat="45.34065" lon="6.18271">
        <ele>2346.1999511719</ele>
        <time>2014-03-02T14:41:55.000Z</time>
      </trkpt>
      <trkpt lat="45.34065" lon="6.18271">
        <ele>2346.1999511719</ele>
        <time>2014-03-02T14:41:56.000Z</time>
      </trkpt>
      <trkpt lat="45.34065" lon="6.18272">
        <ele>2346.6000976562</ele>
        <time>2014-03-02T14:41:57.000Z</time>
      </trkpt>
      <trkpt lat="45.34065" lon="6.18272">
        <ele>2346.6000976562</ele>
        <time>2014-03-02T14:41:58.000Z</time>
      </trkpt>
      <trkpt lat="45.34065" lon="6.18273">
        <ele>2346.8000488281</ele>
        <time>2014-03-02T14:41:59.000Z</time>
      </trkpt>
      <trkpt lat="45.34065" lon="6.18273">
        <ele>2346.8000488281</ele>
        <time>2014-03-02T14:42:00.000Z</time>
      </trkpt>
      <trkpt lat="45.34066" lon="6.18274">
        <ele>2347.3999023438</ele>
        <time>2014-03-02T14:42:01.000Z</time>
      </trkpt>
      <trkpt lat="45.34066" lon="6.18276">
        <ele>2348</ele>
        <time>2014-03-02T14:42:02.000Z</time>
      </trkpt>
      <trkpt lat="45.34066" lon="6.18276">
        <ele>2348</ele>
        <time>2014-03-02T14:42:03.000Z</time>
      </trkpt>
      <trkpt lat="45.34066" lon="6.18277">
        <ele>2348.3999023438</ele>
        <time>2014-03-02T14:42:04.000Z</time>
      </trkpt>
      <trkpt lat="45.34066" lon="6.18277">
        <ele>2348.3999023438</ele>
        <time>2014-03-02T14:42:05.000Z</time>
      </trkpt>
      <trkpt lat="45.34066" lon="6.18278">
        <ele>2348.8000488281</ele>
        <time>2014-03-02T14:42:06.000Z</time>
      </trkpt>
      <trkpt lat="45.34066" lon="6.18278">
        <ele>2348.8000488281</ele>
        <time>2014-03-02T14:42:07.000Z</time>
      </trkpt>
      <trkpt lat="45.34066" lon="6.18278">
        <ele>2348.8000488281</ele>
        <time>2014-03-02T14:42:08.000Z</time>
      </trkpt>
      <trkpt lat="45.34066" lon="6.18279">
        <ele>2349.1999511719</ele>
        <time>2014-03-02T14:42:09.000Z</time>
      </trkpt>
      <trkpt lat="45.34066" lon="6.18279">
        <ele>2349.1999511719</ele>
        <time>2014-03-02T14:42:10.000Z</time>
      </trkpt>
      <trkpt lat="45.34067" lon="6.18279">
        <ele>2349.1999511719</ele>
        <time>2014-03-02T14:42:11.000Z</time>
      </trkpt>
      <trkpt lat="45.34067" lon="6.18279">
        <ele>2349.1999511719</ele>
        <time>2014-03-02T14:42:12.000Z</time>
      </trkpt>
      <trkpt lat="45.34067" lon="6.18279">
        <ele>2349.1999511719</ele>
        <time>2014-03-02T14:42:13.000Z</time>
      </trkpt>
      <trkpt lat="45.34067" lon="6.18279">
        <ele>2349.1999511719</ele>
        <time>2014-03-02T14:42:14.000Z</time>
      </trkpt>
      <trkpt lat="45.34067" lon="6.1828">
        <ele>2349.3999023438</ele>
        <time>2014-03-02T14:42:15.000Z</time>
      </trkpt>
      <trkpt lat="45.34067" lon="6.1828">
        <ele>2349.3999023438</ele>
        <time>2014-03-02T14:42:16.000Z</time>
      </trkpt>
      <trkpt lat="45.34067" lon="6.1828">
        <ele>2349.3999023438</ele>
        <time>2014-03-02T14:42:17.000Z</time>
      </trkpt>
      <trkpt lat="45.34067" lon="6.1828">
        <ele>2349.3999023438</ele>
        <time>2014-03-02T14:42:18.000Z</time>
      </trkpt>
      <trkpt lat="45.34067" lon="6.1828">
        <ele>2349.3999023438</ele>
        <time>2014-03-02T14:42:19.000Z</time>
      </trkpt>
      <trkpt lat="45.34067" lon="6.1828">
        <ele>2349.3999023438</ele>
        <time>2014-03-02T14:42:20.000Z</time>
      </trkpt>
      <trkpt lat="45.34067" lon="6.18281">
        <ele>2349.8000488281</ele>
        <time>2014-03-02T14:42:21.000Z</time>
      </trkpt>
      <trkpt lat="45.34067" lon="6.18281">
        <ele>2349.8000488281</ele>
        <time>2014-03-02T14:42:22.000Z</time>
      </trkpt>
      <trkpt lat="45.34067" lon="6.18281">
        <ele>2349.8000488281</ele>
        <time>2014-03-02T14:42:23.000Z</time>
      </trkpt>
      <trkpt lat="45.34067" lon="6.18281">
        <ele>2349.8000488281</ele>
        <time>2014-03-02T14:42:24.000Z</time>
      </trkpt>
      <trkpt lat="45.34067" lon="6.18281">
        <ele>2349.8000488281</ele>
        <time>2014-03-02T14:42:25.000Z</time>
      </trkpt>
      <trkpt lat="45.34067" lon="6.18281">
        <ele>2349.8000488281</ele>
        <time>2014-03-02T14:42:26.000Z</time>
      </trkpt>
      <trkpt lat="45.34067" lon="6.18281">
        <ele>2349.8000488281</ele>
        <time>2014-03-02T14:42:27.000Z</time>
      </trkpt>
      <trkpt lat="45.34067" lon="6.18281">
        <ele>2349.8000488281</ele>
        <time>2014-03-02T14:42:28.000Z</time>
      </trkpt>
      <trkpt lat="45.34067" lon="6.18281">
        <ele>2349.8000488281</ele>
        <time>2014-03-02T14:42:29.000Z</time>
      </trkpt>
      <trkpt lat="45.34067" lon="6.18282">
        <ele>2350</ele>
        <time>2014-03-02T14:42:30.000Z</time>
      </trkpt>
      <trkpt lat="45.34067" lon="6.18282">
        <ele>2350.1999511719</ele>
        <time>2014-03-02T14:42:31.000Z</time>
      </trkpt>
      <trkpt lat="45.34067" lon="6.18282">
        <ele>2350.3999023438</ele>
        <time>2014-03-02T14:42:32.000Z</time>
      </trkpt>
      <trkpt lat="45.34067" lon="6.18282">
        <ele>2350.3999023438</ele>
        <time>2014-03-02T14:42:33.000Z</time>
      </trkpt>
      <trkpt lat="45.34067" lon="6.18282">
        <ele>2350.3999023438</ele>
        <time>2014-03-02T14:42:34.000Z</time>
      </trkpt>
      <trkpt lat="45.34067" lon="6.18282">
        <ele>2350.3999023438</ele>
        <time>2014-03-02T14:42:35.000Z</time>
      </trkpt>
      <trkpt lat="45.34067" lon="6.18282">
        <ele>2350.3999023438</ele>
        <time>2014-03-02T14:42:36.000Z</time>
      </trkpt>
      <trkpt lat="45.34067" lon="6.18282">
        <ele>2350.3999023438</ele>
        <time>2014-03-02T14:42:37.000Z</time>
      </trkpt>
      <trkpt lat="45.34067" lon="6.18282">
        <ele>2350.3999023438</ele>
        <time>2014-03-02T14:42:38.000Z</time>
      </trkpt>
      <trkpt lat="45.34067" lon="6.18282">
        <ele>2350.3999023438</ele>
        <time>2014-03-02T14:42:39.000Z</time>
      </trkpt>
      <trkpt lat="45.34067" lon="6.18282">
        <ele>2350.3999023438</ele>
        <time>2014-03-02T14:42:40.000Z</time>
      </trkpt>
      <trkpt lat="45.34067" lon="6.18282">
        <ele>2350.3999023438</ele>
        <time>2014-03-02T14:42:41.000Z</time>
      </trkpt>
      <trkpt lat="45.34067" lon="6.18282">
        <ele>2350.3999023438</ele>
        <time>2014-03-02T14:42:42.000Z</time>
      </trkpt>
      <trkpt lat="45.34067" lon="6.18282">
        <ele>2350.3999023438</ele>
        <time>2014-03-02T14:42:43.000Z</time>
      </trkpt>
      <trkpt lat="45.34067" lon="6.18282">
        <ele>2350.3999023438</ele>
        <time>2014-03-02T14:42:44.000Z</time>
      </trkpt>
      <trkpt lat="45.34067" lon="6.18283">
        <ele>2350.6000976562</ele>
        <time>2014-03-02T14:42:45.000Z</time>
      </trkpt>
      <trkpt lat="45.34066" lon="6.18283">
        <ele>2350.8000488281</ele>
        <time>2014-03-02T14:42:46.000Z</time>
      </trkpt>
      <trkpt lat="45.34066" lon="6.18283">
        <ele>2350.8000488281</ele>
        <time>2014-03-02T14:42:47.000Z</time>
      </trkpt>
      <trkpt lat="45.34065" lon="6.18284">
        <ele>2351</ele>
        <time>2014-03-02T14:42:48.000Z</time>
      </trkpt>
      <trkpt lat="45.34065" lon="6.18284">
        <ele>2351.1999511719</ele>
        <time>2014-03-02T14:42:49.000Z</time>
      </trkpt>
      <trkpt lat="45.34065" lon="6.18284">
        <ele>2351.1999511719</ele>
        <time>2014-03-02T14:42:50.000Z</time>
      </trkpt>
      <trkpt lat="45.34064" lon="6.18284">
        <ele>2351.1999511719</ele>
        <time>2014-03-02T14:42:51.000Z</time>
      </trkpt>
      <trkpt lat="45.34064" lon="6.18284">
        <ele>2351.3999023438</ele>
        <time>2014-03-02T14:42:52.000Z</time>
      </trkpt>
      <trkpt lat="45.34063" lon="6.18285">
        <ele>2351.6000976562</ele>
        <time>2014-03-02T14:42:53.000Z</time>
      </trkpt>
      <trkpt lat="45.34063" lon="6.18285">
        <ele>2351.6000976562</ele>
        <time>2014-03-02T14:42:54.000Z</time>
      </trkpt>
      <trkpt lat="45.34063" lon="6.18285">
        <ele>2351.6000976562</ele>
        <time>2014-03-02T14:42:55.000Z</time>
      </trkpt>
      <trkpt lat="45.34063" lon="6.18285">
        <ele>2351.6000976562</ele>
        <time>2014-03-02T14:42:56.000Z</time>
      </trkpt>
      <trkpt lat="45.34063" lon="6.18285">
        <ele>2351.6000976562</ele>
        <time>2014-03-02T14:42:57.000Z</time>
      </trkpt>
      <trkpt lat="45.34063" lon="6.18285">
        <ele>2351.6000976562</ele>
        <time>2014-03-02T14:42:58.000Z</time>
      </trkpt>
      <trkpt lat="45.34063" lon="6.18285">
        <ele>2351.6000976562</ele>
        <time>2014-03-02T14:42:59.000Z</time>
      </trkpt>
      <trkpt lat="45.34063" lon="6.18285">
        <ele>2351.6000976562</ele>
        <time>2014-03-02T14:43:00.000Z</time>
      </trkpt>
      <trkpt lat="45.34063" lon="6.18285">
        <ele>2351.6000976562</ele>
        <time>2014-03-02T14:43:02.000Z</time>
      </trkpt>
      <trkpt lat="45.34063" lon="6.18285">
        <ele>2351.6000976562</ele>
        <time>2014-03-02T14:43:03.000Z</time>
      </trkpt>
      <trkpt lat="45.34063" lon="6.18285">
        <ele>2351.6000976562</ele>
        <time>2014-03-02T14:43:04.000Z</time>
      </trkpt>
      <trkpt lat="45.34063" lon="6.18285">
        <ele>2351.6000976562</ele>
        <time>2014-03-02T14:43:05.000Z</time>
      </trkpt>
      <trkpt lat="45.34063" lon="6.18285">
        <ele>2351.6000976562</ele>
        <time>2014-03-02T14:43:06.000Z</time>
      </trkpt>
      <trkpt lat="45.34063" lon="6.18285">
        <ele>2351.6000976562</ele>
        <time>2014-03-02T14:43:07.000Z</time>
      </trkpt>
      <trkpt lat="45.34063" lon="6.18285">
        <ele>2351.6000976562</ele>
        <time>2014-03-02T14:43:08.000Z</time>
      </trkpt>
      <trkpt lat="45.34063" lon="6.18285">
        <ele>2351.6000976562</ele>
        <time>2014-03-02T14:43:09.000Z</time>
      </trkpt>
      <trkpt lat="45.34063" lon="6.18285">
        <ele>2351.6000976562</ele>
        <time>2014-03-02T14:43:10.000Z</time>
      </trkpt>
      <trkpt lat="45.34063" lon="6.18285">
        <ele>2351.6000976562</ele>
        <time>2014-03-02T14:43:11.000Z</time>
      </trkpt>
      <trkpt lat="45.34063" lon="6.18285">
        <ele>2351.6000976562</ele>
        <time>2014-03-02T14:43:12.000Z</time>
      </trkpt>
      <trkpt lat="45.34063" lon="6.18285">
        <ele>2351.6000976562</ele>
        <time>2014-03-02T14:43:13.000Z</time>
      </trkpt>
      <trkpt lat="45.34063" lon="6.18285">
        <ele>2351.6000976562</ele>
        <time>2014-03-02T14:43:14.000Z</time>
      </trkpt>
      <trkpt lat="45.34063" lon="6.18285">
        <ele>2351.6000976562</ele>
        <time>2014-03-02T14:43:15.000Z</time>
      </trkpt>
      <trkpt lat="45.34063" lon="6.18285">
        <ele>2351.6000976562</ele>
        <time>2014-03-02T14:43:16.000Z</time>
      </trkpt>
      <trkpt lat="45.34063" lon="6.18285">
        <ele>2351.6000976562</ele>
        <time>2014-03-02T14:43:17.000Z</time>
      </trkpt>
      <trkpt lat="45.34063" lon="6.18285">
        <ele>2351.6000976562</ele>
        <time>2014-03-02T14:43:18.000Z</time>
      </trkpt>
      <trkpt lat="45.34063" lon="6.18285">
        <ele>2351.6000976562</ele>
        <time>2014-03-02T14:43:19.000Z</time>
      </trkpt>
      <trkpt lat="45.34063" lon="6.18285">
        <ele>2351.6000976562</ele>
        <time>2014-03-02T14:43:20.000Z</time>
      </trkpt>
      <trkpt lat="45.34063" lon="6.18285">
        <ele>2351.6000976562</ele>
        <time>2014-03-02T14:43:21.000Z</time>
      </trkpt>
      <trkpt lat="45.34063" lon="6.18285">
        <ele>2351.6000976562</ele>
        <time>2014-03-02T14:43:22.000Z</time>
      </trkpt>
      <trkpt lat="45.34063" lon="6.18285">
        <ele>2351.6000976562</ele>
        <time>2014-03-02T14:43:23.000Z</time>
      </trkpt>
      <trkpt lat="45.34063" lon="6.18285">
        <ele>2351.6000976562</ele>
        <time>2014-03-02T14:43:24.000Z</time>
      </trkpt>
      <trkpt lat="45.34063" lon="6.18285">
        <ele>2351.6000976562</ele>
        <time>2014-03-02T14:43:25.000Z</time>
      </trkpt>
      <trkpt lat="45.34063" lon="6.18285">
        <ele>2351.6000976562</ele>
        <time>2014-03-02T14:43:26.000Z</time>
      </trkpt>
      <trkpt lat="45.34063" lon="6.18285">
        <ele>2351.6000976562</ele>
        <time>2014-03-02T14:43:27.000Z</time>
      </trkpt>
      <trkpt lat="45.34063" lon="6.18285">
        <ele>2351.6000976562</ele>
        <time>2014-03-02T14:43:28.000Z</time>
      </trkpt>
      <trkpt lat="45.34063" lon="6.18285">
        <ele>2351.6000976562</ele>
        <time>2014-03-02T14:43:29.000Z</time>
      </trkpt>
      <trkpt lat="45.34063" lon="6.18285">
        <ele>2351.6000976562</ele>
        <time>2014-03-02T14:43:30.000Z</time>
      </trkpt>
      <trkpt lat="45.34063" lon="6.18285">
        <ele>2351.6000976562</ele>
        <time>2014-03-02T14:43:31.000Z</time>
      </trkpt>
      <trkpt lat="45.34063" lon="6.18285">
        <ele>2351.6000976562</ele>
        <time>2014-03-02T14:43:32.000Z</time>
      </trkpt>
      <trkpt lat="45.34063" lon="6.18285">
        <ele>2351.6000976562</ele>
        <time>2014-03-02T14:43:33.000Z</time>
      </trkpt>
      <trkpt lat="45.34063" lon="6.18285">
        <ele>2351.6000976562</ele>
        <time>2014-03-02T14:43:34.000Z</time>
      </trkpt>
      <trkpt lat="45.34063" lon="6.18285">
        <ele>2351.6000976562</ele>
        <time>2014-03-02T14:43:35.000Z</time>
      </trkpt>
      <trkpt lat="45.34063" lon="6.18285">
        <ele>2351.6000976562</ele>
        <time>2014-03-02T14:43:36.000Z</time>
      </trkpt>
      <trkpt lat="45.34063" lon="6.18285">
        <ele>2351.6000976562</ele>
        <time>2014-03-02T14:43:37.000Z</time>
      </trkpt>
      <trkpt lat="45.34063" lon="6.18285">
        <ele>2351.6000976562</ele>
        <time>2014-03-02T14:43:38.000Z</time>
      </trkpt>
      <trkpt lat="45.34063" lon="6.18285">
        <ele>2351.6000976562</ele>
        <time>2014-03-02T14:43:39.000Z</time>
      </trkpt>
      <trkpt lat="45.34063" lon="6.18285">
        <ele>2351.6000976562</ele>
        <time>2014-03-02T14:43:40.000Z</time>
      </trkpt>
      <trkpt lat="45.34061" lon="6.18285">
        <ele>2352</ele>
        <time>2014-03-02T14:43:41.000Z</time>
      </trkpt>
      <trkpt lat="45.34062" lon="6.18286">
        <ele>2352.1999511719</ele>
        <time>2014-03-02T14:43:42.000Z</time>
      </trkpt>
      <trkpt lat="45.34061" lon="6.18287">
        <ele>2352.8000488281</ele>
        <time>2014-03-02T14:43:43.000Z</time>
      </trkpt>
      <trkpt lat="45.34061" lon="6.18287">
        <ele>2352.8000488281</ele>
        <time>2014-03-02T14:43:44.000Z</time>
      </trkpt>
      <trkpt lat="45.3406" lon="6.18289">
        <ele>2353.3999023438</ele>
        <time>2014-03-02T14:43:45.000Z</time>
      </trkpt>
      <trkpt lat="45.3406" lon="6.18289">
        <ele>2353.3999023438</ele>
        <time>2014-03-02T14:43:46.000Z</time>
      </trkpt>
      <trkpt lat="45.3406" lon="6.18289">
        <ele>2353.3999023438</ele>
        <time>2014-03-02T14:43:47.000Z</time>
      </trkpt>
      <trkpt lat="45.34061" lon="6.18289">
        <ele>2353.6000976562</ele>
        <time>2014-03-02T14:43:48.000Z</time>
      </trkpt>
      <trkpt lat="45.34061" lon="6.18289">
        <ele>2353.6000976562</ele>
        <time>2014-03-02T14:43:49.000Z</time>
      </trkpt>
      <trkpt lat="45.34061" lon="6.1829">
        <ele>2353.8000488281</ele>
        <time>2014-03-02T14:43:50.000Z</time>
      </trkpt>
      <trkpt lat="45.34061" lon="6.1829">
        <ele>2353.8000488281</ele>
        <time>2014-03-02T14:43:51.000Z</time>
      </trkpt>
      <trkpt lat="45.34061" lon="6.1829">
        <ele>2353.8000488281</ele>
        <time>2014-03-02T14:43:52.000Z</time>
      </trkpt>
      <trkpt lat="45.34061" lon="6.1829">
        <ele>2353.8000488281</ele>
        <time>2014-03-02T14:43:53.000Z</time>
      </trkpt>
      <trkpt lat="45.34061" lon="6.1829">
        <ele>2353.8000488281</ele>
        <time>2014-03-02T14:43:54.000Z</time>
      </trkpt>
      <trkpt lat="45.34061" lon="6.1829">
        <ele>2353.8000488281</ele>
        <time>2014-03-02T14:43:55.000Z</time>
      </trkpt>
      <trkpt lat="45.34061" lon="6.1829">
        <ele>2353.8000488281</ele>
        <time>2014-03-02T14:43:56.000Z</time>
      </trkpt>
      <trkpt lat="45.34061" lon="6.18291">
        <ele>2354.1999511719</ele>
        <time>2014-03-02T14:43:57.000Z</time>
      </trkpt>
      <trkpt lat="45.34061" lon="6.18291">
        <ele>2354.1999511719</ele>
        <time>2014-03-02T14:43:58.000Z</time>
      </trkpt>
      <trkpt lat="45.34061" lon="6.18291">
        <ele>2354.1999511719</ele>
        <time>2014-03-02T14:43:59.000Z</time>
      </trkpt>
      <trkpt lat="45.34061" lon="6.18291">
        <ele>2354.1999511719</ele>
        <time>2014-03-02T14:44:00.000Z</time>
      </trkpt>
      <trkpt lat="45.34061" lon="6.18291">
        <ele>2354.1999511719</ele>
        <time>2014-03-02T14:44:01.000Z</time>
      </trkpt>
      <trkpt lat="45.34061" lon="6.18291">
        <ele>2354.1999511719</ele>
        <time>2014-03-02T14:44:02.000Z</time>
      </trkpt>
      <trkpt lat="45.34061" lon="6.18291">
        <ele>2354.1999511719</ele>
        <time>2014-03-02T14:44:03.000Z</time>
      </trkpt>
      <trkpt lat="45.34061" lon="6.18291">
        <ele>2354.1999511719</ele>
        <time>2014-03-02T14:44:04.000Z</time>
      </trkpt>
      <trkpt lat="45.34061" lon="6.18291">
        <ele>2354.1999511719</ele>
        <time>2014-03-02T14:44:05.000Z</time>
      </trkpt>
      <trkpt lat="45.34061" lon="6.18291">
        <ele>2354.1999511719</ele>
        <time>2014-03-02T14:44:06.000Z</time>
      </trkpt>
      <trkpt lat="45.34061" lon="6.18291">
        <ele>2354.1999511719</ele>
        <time>2014-03-02T14:44:07.000Z</time>
      </trkpt>
      <trkpt lat="45.34061" lon="6.18291">
        <ele>2354.1999511719</ele>
        <time>2014-03-02T14:44:08.000Z</time>
      </trkpt>
      <trkpt lat="45.34061" lon="6.18291">
        <ele>2354.1999511719</ele>
        <time>2014-03-02T14:44:09.000Z</time>
      </trkpt>
      <trkpt lat="45.34061" lon="6.18291">
        <ele>2354.1999511719</ele>
        <time>2014-03-02T14:44:10.000Z</time>
      </trkpt>
      <trkpt lat="45.34061" lon="6.18291">
        <ele>2354.1999511719</ele>
        <time>2014-03-02T14:44:11.000Z</time>
      </trkpt>
      <trkpt lat="45.34061" lon="6.18291">
        <ele>2354.1999511719</ele>
        <time>2014-03-02T14:44:12.000Z</time>
      </trkpt>
      <trkpt lat="45.34061" lon="6.18291">
        <ele>2354.1999511719</ele>
        <time>2014-03-02T14:44:14.000Z</time>
      </trkpt>
      <trkpt lat="45.34061" lon="6.18291">
        <ele>2354.1999511719</ele>
        <time>2014-03-02T14:44:15.000Z</time>
      </trkpt>
      <trkpt lat="45.34061" lon="6.18291">
        <ele>2354.1999511719</ele>
        <time>2014-03-02T14:44:16.000Z</time>
      </trkpt>
      <trkpt lat="45.34061" lon="6.18291">
        <ele>2354.1999511719</ele>
        <time>2014-03-02T14:44:17.000Z</time>
      </trkpt>
      <trkpt lat="45.34061" lon="6.18291">
        <ele>2354.1999511719</ele>
        <time>2014-03-02T14:44:18.000Z</time>
      </trkpt>
      <trkpt lat="45.34061" lon="6.18291">
        <ele>2354.1999511719</ele>
        <time>2014-03-02T14:44:19.000Z</time>
      </trkpt>
      <trkpt lat="45.34061" lon="6.18291">
        <ele>2354.1999511719</ele>
        <time>2014-03-02T14:44:20.000Z</time>
      </trkpt>
      <trkpt lat="45.34061" lon="6.18291">
        <ele>2354.1999511719</ele>
        <time>2014-03-02T14:44:21.000Z</time>
      </trkpt>
      <trkpt lat="45.34061" lon="6.18291">
        <ele>2354.1999511719</ele>
        <time>2014-03-02T14:44:22.000Z</time>
      </trkpt>
      <trkpt lat="45.34061" lon="6.18291">
        <ele>2354.1999511719</ele>
        <time>2014-03-02T14:44:23.000Z</time>
      </trkpt>
      <trkpt lat="45.34061" lon="6.18291">
        <ele>2354.1999511719</ele>
        <time>2014-03-02T14:44:24.000Z</time>
      </trkpt>
      <trkpt lat="45.34061" lon="6.18291">
        <ele>2354.1999511719</ele>
        <time>2014-03-02T14:44:25.000Z</time>
      </trkpt>
      <trkpt lat="45.34061" lon="6.18291">
        <ele>2354.1999511719</ele>
        <time>2014-03-02T14:44:26.000Z</time>
      </trkpt>
      <trkpt lat="45.34061" lon="6.18291">
        <ele>2354.1999511719</ele>
        <time>2014-03-02T14:44:27.000Z</time>
      </trkpt>
      <trkpt lat="45.34061" lon="6.18291">
        <ele>2354.1999511719</ele>
        <time>2014-03-02T14:44:28.000Z</time>
      </trkpt>
      <trkpt lat="45.34061" lon="6.18291">
        <ele>2354.1999511719</ele>
        <time>2014-03-02T14:44:29.000Z</time>
      </trkpt>
      <trkpt lat="45.34061" lon="6.18291">
        <ele>2354.1999511719</ele>
        <time>2014-03-02T14:44:30.000Z</time>
      </trkpt>
      <trkpt lat="45.34061" lon="6.18291">
        <ele>2354.1999511719</ele>
        <time>2014-03-02T14:44:31.000Z</time>
      </trkpt>
      <trkpt lat="45.34061" lon="6.18291">
        <ele>2354.1999511719</ele>
        <time>2014-03-02T14:44:33.000Z</time>
      </trkpt>
      <trkpt lat="45.34061" lon="6.18291">
        <ele>2354.1999511719</ele>
        <time>2014-03-02T14:44:34.000Z</time>
      </trkpt>
      <trkpt lat="45.34061" lon="6.18291">
        <ele>2354.1999511719</ele>
        <time>2014-03-02T14:44:35.000Z</time>
      </trkpt>
      <trkpt lat="45.34061" lon="6.18291">
        <ele>2354.1999511719</ele>
        <time>2014-03-02T14:44:36.000Z</time>
      </trkpt>
      <trkpt lat="45.3406" lon="6.18293">
        <ele>2355</ele>
        <time>2014-03-02T14:44:37.000Z</time>
      </trkpt>
      <trkpt lat="45.3406" lon="6.18293">
        <ele>2355</ele>
        <time>2014-03-02T14:44:38.000Z</time>
      </trkpt>
      <trkpt lat="45.3406" lon="6.18293">
        <ele>2355</ele>
        <time>2014-03-02T14:44:39.000Z</time>
      </trkpt>
      <trkpt lat="45.3406" lon="6.18293">
        <ele>2355</ele>
        <time>2014-03-02T14:44:40.000Z</time>
      </trkpt>
      <trkpt lat="45.3406" lon="6.18293">
        <ele>2355</ele>
        <time>2014-03-02T14:44:42.000Z</time>
      </trkpt>
      <trkpt lat="45.3406" lon="6.18293">
        <ele>2355</ele>
        <time>2014-03-02T14:44:43.000Z</time>
      </trkpt>
      <trkpt lat="45.3406" lon="6.18293">
        <ele>2355</ele>
        <time>2014-03-02T14:44:44.000Z</time>
      </trkpt>
      <trkpt lat="45.3406" lon="6.18293">
        <ele>2355</ele>
        <time>2014-03-02T14:44:45.000Z</time>
      </trkpt>
      <trkpt lat="45.3406" lon="6.18293">
        <ele>2355</ele>
        <time>2014-03-02T14:44:46.000Z</time>
      </trkpt>
      <trkpt lat="45.3406" lon="6.18293">
        <ele>2355</ele>
        <time>2014-03-02T14:44:47.000Z</time>
      </trkpt>
      <trkpt lat="45.3406" lon="6.18293">
        <ele>2355</ele>
        <time>2014-03-02T14:44:48.000Z</time>
      </trkpt>
      <trkpt lat="45.3406" lon="6.18293">
        <ele>2355</ele>
        <time>2014-03-02T14:44:49.000Z</time>
      </trkpt>
      <trkpt lat="45.3406" lon="6.18293">
        <ele>2355</ele>
        <time>2014-03-02T14:44:52.000Z</time>
      </trkpt>
      <trkpt lat="45.3406" lon="6.18293">
        <ele>2355</ele>
        <time>2014-03-02T14:44:53.000Z</time>
      </trkpt>
      <trkpt lat="45.3406" lon="6.18293">
        <ele>2355</ele>
        <time>2014-03-02T14:44:54.000Z</time>
      </trkpt>
      <trkpt lat="45.3406" lon="6.18293">
        <ele>2355</ele>
        <time>2014-03-02T14:44:57.000Z</time>
      </trkpt>
      <trkpt lat="45.3406" lon="6.18293">
        <ele>2355</ele>
        <time>2014-03-02T14:44:58.000Z</time>
      </trkpt>
      <trkpt lat="45.3406" lon="6.18293">
        <ele>2355</ele>
        <time>2014-03-02T14:44:59.000Z</time>
      </trkpt>
      <trkpt lat="45.3406" lon="6.18293">
        <ele>2355</ele>
        <time>2014-03-02T14:45:00.000Z</time>
      </trkpt>
      <trkpt lat="45.3406" lon="6.18293">
        <ele>2355</ele>
        <time>2014-03-02T14:45:01.000Z</time>
      </trkpt>
      <trkpt lat="45.3406" lon="6.18293">
        <ele>2355</ele>
        <time>2014-03-02T14:45:02.000Z</time>
      </trkpt>
      <trkpt lat="45.3406" lon="6.18293">
        <ele>2355</ele>
        <time>2014-03-02T14:45:03.000Z</time>
      </trkpt>
      <trkpt lat="45.3406" lon="6.18293">
        <ele>2355</ele>
        <time>2014-03-02T14:45:04.000Z</time>
      </trkpt>
      <trkpt lat="45.3406" lon="6.18293">
        <ele>2355</ele>
        <time>2014-03-02T14:45:05.000Z</time>
      </trkpt>
      <trkpt lat="45.3406" lon="6.18293">
        <ele>2355</ele>
        <time>2014-03-02T14:45:06.000Z</time>
      </trkpt>
      <trkpt lat="45.3406" lon="6.18293">
        <ele>2355</ele>
        <time>2014-03-02T14:45:07.000Z</time>
      </trkpt>
      <trkpt lat="45.3406" lon="6.18293">
        <ele>2355</ele>
        <time>2014-03-02T14:45:08.000Z</time>
      </trkpt>
      <trkpt lat="45.3406" lon="6.18293">
        <ele>2355</ele>
        <time>2014-03-02T14:45:09.000Z</time>
      </trkpt>
      <trkpt lat="45.34058" lon="6.18293">
        <ele>2355.1999511719</ele>
        <time>2014-03-02T14:45:10.000Z</time>
      </trkpt>
      <trkpt lat="45.34058" lon="6.18293">
        <ele>2355.3999023438</ele>
        <time>2014-03-02T14:45:11.000Z</time>
      </trkpt>
      <trkpt lat="45.34057" lon="6.18294">
        <ele>2355.3999023438</ele>
        <time>2014-03-02T14:45:12.000Z</time>
      </trkpt>
      <trkpt lat="45.34056" lon="6.18294">
        <ele>2355.6000976562</ele>
        <time>2014-03-02T14:45:13.000Z</time>
      </trkpt>
      <trkpt lat="45.34056" lon="6.18294">
        <ele>2355.6000976562</ele>
        <time>2014-03-02T14:45:14.000Z</time>
      </trkpt>
      <trkpt lat="45.34055" lon="6.18294">
        <ele>2355.8000488281</ele>
        <time>2014-03-02T14:45:15.000Z</time>
      </trkpt>
      <trkpt lat="45.34055" lon="6.18294">
        <ele>2355.8000488281</ele>
        <time>2014-03-02T14:45:16.000Z</time>
      </trkpt>
      <trkpt lat="45.34055" lon="6.18294">
        <ele>2355.8000488281</ele>
        <time>2014-03-02T14:45:17.000Z</time>
      </trkpt>
      <trkpt lat="45.34055" lon="6.18294">
        <ele>2355.8000488281</ele>
        <time>2014-03-02T14:45:18.000Z</time>
      </trkpt>
      <trkpt lat="45.34055" lon="6.18294">
        <ele>2355.8000488281</ele>
        <time>2014-03-02T14:45:19.000Z</time>
      </trkpt>
      <trkpt lat="45.34055" lon="6.18294">
        <ele>2355.8000488281</ele>
        <time>2014-03-02T14:45:20.000Z</time>
      </trkpt>
      <trkpt lat="45.34055" lon="6.18294">
        <ele>2355.8000488281</ele>
        <time>2014-03-02T14:45:21.000Z</time>
      </trkpt>
      <trkpt lat="45.34055" lon="6.18294">
        <ele>2355.8000488281</ele>
        <time>2014-03-02T14:45:22.000Z</time>
      </trkpt>
      <trkpt lat="45.34055" lon="6.18294">
        <ele>2355.8000488281</ele>
        <time>2014-03-02T14:45:23.000Z</time>
      </trkpt>
      <trkpt lat="45.34055" lon="6.18294">
        <ele>2355.8000488281</ele>
        <time>2014-03-02T14:45:24.000Z</time>
      </trkpt>
      <trkpt lat="45.34055" lon="6.18294">
        <ele>2355.8000488281</ele>
        <time>2014-03-02T14:45:25.000Z</time>
      </trkpt>
      <trkpt lat="45.34055" lon="6.18294">
        <ele>2355.8000488281</ele>
        <time>2014-03-02T14:45:26.000Z</time>
      </trkpt>
      <trkpt lat="45.34055" lon="6.18294">
        <ele>2355.8000488281</ele>
        <time>2014-03-02T14:45:27.000Z</time>
      </trkpt>
      <trkpt lat="45.34055" lon="6.18294">
        <ele>2355.8000488281</ele>
        <time>2014-03-02T14:45:28.000Z</time>
      </trkpt>
      <trkpt lat="45.34055" lon="6.18294">
        <ele>2355.8000488281</ele>
        <time>2014-03-02T14:45:29.000Z</time>
      </trkpt>
      <trkpt lat="45.34055" lon="6.18294">
        <ele>2355.8000488281</ele>
        <time>2014-03-02T14:45:30.000Z</time>
      </trkpt>
      <trkpt lat="45.34055" lon="6.18294">
        <ele>2355.8000488281</ele>
        <time>2014-03-02T14:45:31.000Z</time>
      </trkpt>
      <trkpt lat="45.34054" lon="6.18294">
        <ele>2356</ele>
        <time>2014-03-02T14:45:32.000Z</time>
      </trkpt>
      <trkpt lat="45.34051" lon="6.18295">
        <ele>2356.3999023438</ele>
        <time>2014-03-02T14:45:33.000Z</time>
      </trkpt>
      <trkpt lat="45.34049" lon="6.18295">
        <ele>2356.6000976562</ele>
        <time>2014-03-02T14:45:34.000Z</time>
      </trkpt>
      <trkpt lat="45.34048" lon="6.18295">
        <ele>2356.6000976562</ele>
        <time>2014-03-02T14:45:35.000Z</time>
      </trkpt>
      <trkpt lat="45.34047" lon="6.18295">
        <ele>2357</ele>
        <time>2014-03-02T14:45:36.000Z</time>
      </trkpt>
      <trkpt lat="45.34046" lon="6.18296">
        <ele>2357.3999023438</ele>
        <time>2014-03-02T14:45:37.000Z</time>
      </trkpt>
      <trkpt lat="45.34046" lon="6.18296">
        <ele>2357.3999023438</ele>
        <time>2014-03-02T14:45:38.000Z</time>
      </trkpt>
      <trkpt lat="45.34046" lon="6.18296">
        <ele>2357.3999023438</ele>
        <time>2014-03-02T14:45:39.000Z</time>
      </trkpt>
      <trkpt lat="45.34046" lon="6.18296">
        <ele>2357.3999023438</ele>
        <time>2014-03-02T14:45:40.000Z</time>
      </trkpt>
      <trkpt lat="45.34046" lon="6.18296">
        <ele>2357.3999023438</ele>
        <time>2014-03-02T14:45:41.000Z</time>
      </trkpt>
      <trkpt lat="45.34046" lon="6.18296">
        <ele>2357.3999023438</ele>
        <time>2014-03-02T14:45:42.000Z</time>
      </trkpt>
      <trkpt lat="45.34045" lon="6.18297">
        <ele>2358</ele>
        <time>2014-03-02T14:45:43.000Z</time>
      </trkpt>
      <trkpt lat="45.34045" lon="6.18297">
        <ele>2358</ele>
        <time>2014-03-02T14:45:44.000Z</time>
      </trkpt>
      <trkpt lat="45.34045" lon="6.18298">
        <ele>2358.3999023438</ele>
        <time>2014-03-02T14:45:45.000Z</time>
      </trkpt>
      <trkpt lat="45.34045" lon="6.18298">
        <ele>2358.3999023438</ele>
        <time>2014-03-02T14:45:46.000Z</time>
      </trkpt>
      <trkpt lat="45.34045" lon="6.18298">
        <ele>2358.8000488281</ele>
        <time>2014-03-02T14:45:47.000Z</time>
      </trkpt>
      <trkpt lat="45.34045" lon="6.18298">
        <ele>2358.8000488281</ele>
        <time>2014-03-02T14:45:48.000Z</time>
      </trkpt>
      <trkpt lat="45.34044" lon="6.18299">
        <ele>2359</ele>
        <time>2014-03-02T14:45:49.000Z</time>
      </trkpt>
      <trkpt lat="45.34044" lon="6.183">
        <ele>2359.6000976562</ele>
        <time>2014-03-02T14:45:50.000Z</time>
      </trkpt>
      <trkpt lat="45.34044" lon="6.18301">
        <ele>2360</ele>
        <time>2014-03-02T14:45:51.000Z</time>
      </trkpt>
      <trkpt lat="45.34044" lon="6.18301">
        <ele>2360</ele>
        <time>2014-03-02T14:45:52.000Z</time>
      </trkpt>
      <trkpt lat="45.34043" lon="6.18302">
        <ele>2360.6000976562</ele>
        <time>2014-03-02T14:45:53.000Z</time>
      </trkpt>
      <trkpt lat="45.34043" lon="6.18303">
        <ele>2361.1999511719</ele>
        <time>2014-03-02T14:45:54.000Z</time>
      </trkpt>
      <trkpt lat="45.34043" lon="6.18304">
        <ele>2361.6000976562</ele>
        <time>2014-03-02T14:45:55.000Z</time>
      </trkpt>
      <trkpt lat="45.34043" lon="6.18304">
        <ele>2361.6000976562</ele>
        <time>2014-03-02T14:45:56.000Z</time>
      </trkpt>
      <trkpt lat="45.34043" lon="6.18305">
        <ele>2362</ele>
        <time>2014-03-02T14:45:57.000Z</time>
      </trkpt>
      <trkpt lat="45.34043" lon="6.18305">
        <ele>2362</ele>
        <time>2014-03-02T14:45:58.000Z</time>
      </trkpt>
      <trkpt lat="45.34043" lon="6.18306">
        <ele>2362.1999511719</ele>
        <time>2014-03-02T14:45:59.000Z</time>
      </trkpt>
      <trkpt lat="45.34043" lon="6.18306">
        <ele>2362.1999511719</ele>
        <time>2014-03-02T14:46:00.000Z</time>
      </trkpt>
      <trkpt lat="45.34043" lon="6.18307">
        <ele>2362.6000976562</ele>
        <time>2014-03-02T14:46:01.000Z</time>
      </trkpt>
      <trkpt lat="45.34043" lon="6.18307">
        <ele>2362.6000976562</ele>
        <time>2014-03-02T14:46:02.000Z</time>
      </trkpt>
      <trkpt lat="45.34043" lon="6.18309">
        <ele>2362.6000976562</ele>
        <time>2014-03-02T14:46:03.000Z</time>
      </trkpt>
      <trkpt lat="45.34043" lon="6.18309">
        <ele>2362.6000976562</ele>
        <time>2014-03-02T14:46:04.000Z</time>
      </trkpt>
      <trkpt lat="45.34043" lon="6.18309">
        <ele>2362.6000976562</ele>
        <time>2014-03-02T14:46:05.000Z</time>
      </trkpt>
      <trkpt lat="45.34043" lon="6.18309">
        <ele>2362.6000976562</ele>
        <time>2014-03-02T14:46:06.000Z</time>
      </trkpt>
      <trkpt lat="45.34043" lon="6.18309">
        <ele>2362.6000976562</ele>
        <time>2014-03-02T14:46:07.000Z</time>
      </trkpt>
      <trkpt lat="45.34043" lon="6.18309">
        <ele>2362.6000976562</ele>
        <time>2014-03-02T14:46:08.000Z</time>
      </trkpt>
      <trkpt lat="45.34043" lon="6.18309">
        <ele>2362.6000976562</ele>
        <time>2014-03-02T14:46:09.000Z</time>
      </trkpt>
      <trkpt lat="45.34043" lon="6.18309">
        <ele>2362.6000976562</ele>
        <time>2014-03-02T14:46:10.000Z</time>
      </trkpt>
      <trkpt lat="45.34043" lon="6.18309">
        <ele>2362.6000976562</ele>
        <time>2014-03-02T14:46:11.000Z</time>
      </trkpt>
      <trkpt lat="45.34043" lon="6.1831">
        <ele>2362.3999023438</ele>
        <time>2014-03-02T14:46:12.000Z</time>
      </trkpt>
      <trkpt lat="45.34043" lon="6.1831">
        <ele>2362.3999023438</ele>
        <time>2014-03-02T14:46:13.000Z</time>
      </trkpt>
      <trkpt lat="45.34042" lon="6.1831">
        <ele>2362.1999511719</ele>
        <time>2014-03-02T14:46:14.000Z</time>
      </trkpt>
      <trkpt lat="45.34041" lon="6.18311">
        <ele>2362</ele>
        <time>2014-03-02T14:46:15.000Z</time>
      </trkpt>
      <trkpt lat="45.3404" lon="6.18312">
        <ele>2362</ele>
        <time>2014-03-02T14:46:16.000Z</time>
      </trkpt>
      <trkpt lat="45.34039" lon="6.18312">
        <ele>2362</ele>
        <time>2014-03-02T14:46:17.000Z</time>
      </trkpt>
      <trkpt lat="45.34039" lon="6.18312">
        <ele>2362</ele>
        <time>2014-03-02T14:46:18.000Z</time>
      </trkpt>
      <trkpt lat="45.34039" lon="6.18312">
        <ele>2362</ele>
        <time>2014-03-02T14:46:19.000Z</time>
      </trkpt>
      <trkpt lat="45.34038" lon="6.18312">
        <ele>2361.6000976562</ele>
        <time>2014-03-02T14:46:20.000Z</time>
      </trkpt>
      <trkpt lat="45.34038" lon="6.18312">
        <ele>2361.6000976562</ele>
        <time>2014-03-02T14:46:21.000Z</time>
      </trkpt>
      <trkpt lat="45.34037" lon="6.18312">
        <ele>2361.6000976562</ele>
        <time>2014-03-02T14:46:22.000Z</time>
      </trkpt>
      <trkpt lat="45.34037" lon="6.18312">
        <ele>2361.6000976562</ele>
        <time>2014-03-02T14:46:23.000Z</time>
      </trkpt>
      <trkpt lat="45.34037" lon="6.18312">
        <ele>2361.6000976562</ele>
        <time>2014-03-02T14:46:24.000Z</time>
      </trkpt>
      <trkpt lat="45.34037" lon="6.18312">
        <ele>2361.6000976562</ele>
        <time>2014-03-02T14:46:25.000Z</time>
      </trkpt>
      <trkpt lat="45.34037" lon="6.18312">
        <ele>2361.6000976562</ele>
        <time>2014-03-02T14:46:26.000Z</time>
      </trkpt>
      <trkpt lat="45.34037" lon="6.18312">
        <ele>2361.6000976562</ele>
        <time>2014-03-02T14:46:27.000Z</time>
      </trkpt>
      <trkpt lat="45.34037" lon="6.18312">
        <ele>2361.6000976562</ele>
        <time>2014-03-02T14:46:28.000Z</time>
      </trkpt>
      <trkpt lat="45.34037" lon="6.18312">
        <ele>2361.6000976562</ele>
        <time>2014-03-02T14:46:29.000Z</time>
      </trkpt>
      <trkpt lat="45.34037" lon="6.18312">
        <ele>2361.6000976562</ele>
        <time>2014-03-02T14:46:30.000Z</time>
      </trkpt>
      <trkpt lat="45.34037" lon="6.18312">
        <ele>2361.6000976562</ele>
        <time>2014-03-02T14:46:31.000Z</time>
      </trkpt>
      <trkpt lat="45.34037" lon="6.18312">
        <ele>2361.6000976562</ele>
        <time>2014-03-02T14:46:33.000Z</time>
      </trkpt>
      <trkpt lat="45.34037" lon="6.18312">
        <ele>2361.6000976562</ele>
        <time>2014-03-02T14:46:34.000Z</time>
      </trkpt>
      <trkpt lat="45.34037" lon="6.18312">
        <ele>2361.6000976562</ele>
        <time>2014-03-02T14:46:35.000Z</time>
      </trkpt>
      <trkpt lat="45.34037" lon="6.18312">
        <ele>2361.6000976562</ele>
        <time>2014-03-02T14:46:36.000Z</time>
      </trkpt>
      <trkpt lat="45.34037" lon="6.18312">
        <ele>2361.6000976562</ele>
        <time>2014-03-02T14:46:37.000Z</time>
      </trkpt>
      <trkpt lat="45.34037" lon="6.18312">
        <ele>2361.6000976562</ele>
        <time>2014-03-02T14:46:38.000Z</time>
      </trkpt>
      <trkpt lat="45.34037" lon="6.18312">
        <ele>2361.6000976562</ele>
        <time>2014-03-02T14:46:39.000Z</time>
      </trkpt>
      <trkpt lat="45.34037" lon="6.18312">
        <ele>2361.6000976562</ele>
        <time>2014-03-02T14:46:40.000Z</time>
      </trkpt>
      <trkpt lat="45.34037" lon="6.18312">
        <ele>2361.6000976562</ele>
        <time>2014-03-02T14:46:41.000Z</time>
      </trkpt>
      <trkpt lat="45.34037" lon="6.18312">
        <ele>2361.6000976562</ele>
        <time>2014-03-02T14:46:42.000Z</time>
      </trkpt>
      <trkpt lat="45.34037" lon="6.18312">
        <ele>2361.6000976562</ele>
        <time>2014-03-02T14:46:43.000Z</time>
      </trkpt>
      <trkpt lat="45.34037" lon="6.18312">
        <ele>2361.6000976562</ele>
        <time>2014-03-02T14:46:44.000Z</time>
      </trkpt>
      <trkpt lat="45.34037" lon="6.18312">
        <ele>2361.6000976562</ele>
        <time>2014-03-02T14:46:45.000Z</time>
      </trkpt>
      <trkpt lat="45.34037" lon="6.18312">
        <ele>2361.6000976562</ele>
        <time>2014-03-02T14:46:46.000Z</time>
      </trkpt>
      <trkpt lat="45.34037" lon="6.18312">
        <ele>2361.6000976562</ele>
        <time>2014-03-02T14:46:47.000Z</time>
      </trkpt>
      <trkpt lat="45.34037" lon="6.18312">
        <ele>2361.6000976562</ele>
        <time>2014-03-02T14:46:48.000Z</time>
      </trkpt>
      <trkpt lat="45.34037" lon="6.18312">
        <ele>2361.6000976562</ele>
        <time>2014-03-02T14:46:49.000Z</time>
      </trkpt>
      <trkpt lat="45.34037" lon="6.18312">
        <ele>2361.6000976562</ele>
        <time>2014-03-02T14:46:50.000Z</time>
      </trkpt>
      <trkpt lat="45.34037" lon="6.18312">
        <ele>2361.6000976562</ele>
        <time>2014-03-02T14:46:51.000Z</time>
      </trkpt>
      <trkpt lat="45.34037" lon="6.18312">
        <ele>2361.6000976562</ele>
        <time>2014-03-02T14:46:52.000Z</time>
      </trkpt>
      <trkpt lat="45.34037" lon="6.18312">
        <ele>2361.6000976562</ele>
        <time>2014-03-02T14:46:53.000Z</time>
      </trkpt>
      <trkpt lat="45.34037" lon="6.18312">
        <ele>2361.6000976562</ele>
        <time>2014-03-02T14:46:54.000Z</time>
      </trkpt>
      <trkpt lat="45.34037" lon="6.18312">
        <ele>2361.6000976562</ele>
        <time>2014-03-02T14:46:55.000Z</time>
      </trkpt>
      <trkpt lat="45.34037" lon="6.18312">
        <ele>2361.6000976562</ele>
        <time>2014-03-02T14:46:56.000Z</time>
      </trkpt>
      <trkpt lat="45.34037" lon="6.18312">
        <ele>2361.6000976562</ele>
        <time>2014-03-02T14:46:57.000Z</time>
      </trkpt>
      <trkpt lat="45.34037" lon="6.18312">
        <ele>2361.6000976562</ele>
        <time>2014-03-02T14:46:58.000Z</time>
      </trkpt>
      <trkpt lat="45.34037" lon="6.18312">
        <ele>2361.6000976562</ele>
        <time>2014-03-02T14:46:59.000Z</time>
      </trkpt>
      <trkpt lat="45.34037" lon="6.18312">
        <ele>2361.6000976562</ele>
        <time>2014-03-02T14:47:00.000Z</time>
      </trkpt>
      <trkpt lat="45.34037" lon="6.18312">
        <ele>2361.6000976562</ele>
        <time>2014-03-02T14:47:01.000Z</time>
      </trkpt>
      <trkpt lat="45.34037" lon="6.18312">
        <ele>2361.6000976562</ele>
        <time>2014-03-02T14:47:02.000Z</time>
      </trkpt>
      <trkpt lat="45.34039" lon="6.1831">
        <ele>2361.8000488281</ele>
        <time>2014-03-02T14:47:03.000Z</time>
      </trkpt>
      <trkpt lat="45.34039" lon="6.1831">
        <ele>2361.8000488281</ele>
        <time>2014-03-02T14:47:04.000Z</time>
      </trkpt>
      <trkpt lat="45.34039" lon="6.1831">
        <ele>2361.8000488281</ele>
        <time>2014-03-02T14:47:05.000Z</time>
      </trkpt>
      <trkpt lat="45.34039" lon="6.1831">
        <ele>2361.8000488281</ele>
        <time>2014-03-02T14:47:06.000Z</time>
      </trkpt>
      <trkpt lat="45.34039" lon="6.1831">
        <ele>2361.8000488281</ele>
        <time>2014-03-02T14:47:07.000Z</time>
      </trkpt>
      <trkpt lat="45.34039" lon="6.1831">
        <ele>2361.8000488281</ele>
        <time>2014-03-02T14:47:08.000Z</time>
      </trkpt>
      <trkpt lat="45.34039" lon="6.1831">
        <ele>2361.8000488281</ele>
        <time>2014-03-02T14:47:09.000Z</time>
      </trkpt>
      <trkpt lat="45.34039" lon="6.1831">
        <ele>2361.8000488281</ele>
        <time>2014-03-02T14:47:10.000Z</time>
      </trkpt>
      <trkpt lat="45.34039" lon="6.1831">
        <ele>2361.8000488281</ele>
        <time>2014-03-02T14:47:11.000Z</time>
      </trkpt>
      <trkpt lat="45.34039" lon="6.1831">
        <ele>2361.8000488281</ele>
        <time>2014-03-02T14:47:12.000Z</time>
      </trkpt>
      <trkpt lat="45.34039" lon="6.1831">
        <ele>2361.8000488281</ele>
        <time>2014-03-02T14:47:13.000Z</time>
      </trkpt>
      <trkpt lat="45.34039" lon="6.1831">
        <ele>2361.8000488281</ele>
        <time>2014-03-02T14:47:15.000Z</time>
      </trkpt>
      <trkpt lat="45.34039" lon="6.1831">
        <ele>2361.8000488281</ele>
        <time>2014-03-02T14:47:16.000Z</time>
      </trkpt>
      <trkpt lat="45.34039" lon="6.1831">
        <ele>2361.8000488281</ele>
        <time>2014-03-02T14:47:17.000Z</time>
      </trkpt>
      <trkpt lat="45.34039" lon="6.1831">
        <ele>2361.8000488281</ele>
        <time>2014-03-02T14:47:18.000Z</time>
      </trkpt>
      <trkpt lat="45.34039" lon="6.1831">
        <ele>2361.8000488281</ele>
        <time>2014-03-02T14:47:19.000Z</time>
      </trkpt>
      <trkpt lat="45.34039" lon="6.1831">
        <ele>2361.8000488281</ele>
        <time>2014-03-02T14:47:20.000Z</time>
      </trkpt>
      <trkpt lat="45.34039" lon="6.1831">
        <ele>2361.8000488281</ele>
        <time>2014-03-02T14:47:21.000Z</time>
      </trkpt>
      <trkpt lat="45.34039" lon="6.1831">
        <ele>2361.8000488281</ele>
        <time>2014-03-02T14:47:22.000Z</time>
      </trkpt>
      <trkpt lat="45.34039" lon="6.1831">
        <ele>2361.8000488281</ele>
        <time>2014-03-02T14:47:23.000Z</time>
      </trkpt>
      <trkpt lat="45.34039" lon="6.1831">
        <ele>2361.8000488281</ele>
        <time>2014-03-02T14:47:25.000Z</time>
      </trkpt>
      <trkpt lat="45.34039" lon="6.1831">
        <ele>2361.8000488281</ele>
        <time>2014-03-02T14:47:26.000Z</time>
      </trkpt>
      <trkpt lat="45.34039" lon="6.1831">
        <ele>2361.8000488281</ele>
        <time>2014-03-02T14:47:28.000Z</time>
      </trkpt>
      <trkpt lat="45.34039" lon="6.1831">
        <ele>2361.8000488281</ele>
        <time>2014-03-02T14:47:29.000Z</time>
      </trkpt>
      <trkpt lat="45.34039" lon="6.1831">
        <ele>2361.8000488281</ele>
        <time>2014-03-02T14:47:30.000Z</time>
      </trkpt>
      <trkpt lat="45.34039" lon="6.1831">
        <ele>2361.8000488281</ele>
        <time>2014-03-02T14:47:31.000Z</time>
      </trkpt>
      <trkpt lat="45.34039" lon="6.1831">
        <ele>2361.8000488281</ele>
        <time>2014-03-02T14:47:32.000Z</time>
      </trkpt>
      <trkpt lat="45.34039" lon="6.1831">
        <ele>2361.8000488281</ele>
        <time>2014-03-02T14:47:33.000Z</time>
      </trkpt>
      <trkpt lat="45.34039" lon="6.1831">
        <ele>2361.8000488281</ele>
        <time>2014-03-02T14:47:34.000Z</time>
      </trkpt>
      <trkpt lat="45.34039" lon="6.1831">
        <ele>2361.8000488281</ele>
        <time>2014-03-02T14:47:35.000Z</time>
      </trkpt>
      <trkpt lat="45.34039" lon="6.1831">
        <ele>2361.8000488281</ele>
        <time>2014-03-02T14:47:36.000Z</time>
      </trkpt>
      <trkpt lat="45.34039" lon="6.1831">
        <ele>2361.8000488281</ele>
        <time>2014-03-02T14:47:37.000Z</time>
      </trkpt>
      <trkpt lat="45.34039" lon="6.1831">
        <ele>2361.8000488281</ele>
        <time>2014-03-02T14:47:39.000Z</time>
      </trkpt>
      <trkpt lat="45.34039" lon="6.1831">
        <ele>2361.8000488281</ele>
        <time>2014-03-02T14:47:40.000Z</time>
      </trkpt>
      <trkpt lat="45.34039" lon="6.1831">
        <ele>2361.8000488281</ele>
        <time>2014-03-02T14:47:41.000Z</time>
      </trkpt>
      <trkpt lat="45.34039" lon="6.1831">
        <ele>2361.8000488281</ele>
        <time>2014-03-02T14:47:42.000Z</time>
      </trkpt>
      <trkpt lat="45.34039" lon="6.1831">
        <ele>2362</ele>
        <time>2014-03-02T14:47:43.000Z</time>
      </trkpt>
      <trkpt lat="45.34039" lon="6.1831">
        <ele>2362</ele>
        <time>2014-03-02T14:47:44.000Z</time>
      </trkpt>
      <trkpt lat="45.34039" lon="6.1831">
        <ele>2362</ele>
        <time>2014-03-02T14:47:45.000Z</time>
      </trkpt>
      <trkpt lat="45.34039" lon="6.1831">
        <ele>2362</ele>
        <time>2014-03-02T14:47:46.000Z</time>
      </trkpt>
      <trkpt lat="45.34039" lon="6.1831">
        <ele>2362</ele>
        <time>2014-03-02T14:47:47.000Z</time>
      </trkpt>
      <trkpt lat="45.34039" lon="6.1831">
        <ele>2362</ele>
        <time>2014-03-02T14:47:48.000Z</time>
      </trkpt>
      <trkpt lat="45.34039" lon="6.1831">
        <ele>2362</ele>
        <time>2014-03-02T14:47:49.000Z</time>
      </trkpt>
      <trkpt lat="45.34039" lon="6.1831">
        <ele>2362</ele>
        <time>2014-03-02T14:47:50.000Z</time>
      </trkpt>
      <trkpt lat="45.34039" lon="6.1831">
        <ele>2362</ele>
        <time>2014-03-02T14:47:51.000Z</time>
      </trkpt>
      <trkpt lat="45.34039" lon="6.1831">
        <ele>2362</ele>
        <time>2014-03-02T14:47:52.000Z</time>
      </trkpt>
      <trkpt lat="45.34039" lon="6.1831">
        <ele>2362</ele>
        <time>2014-03-02T14:47:53.000Z</time>
      </trkpt>
      <trkpt lat="45.34039" lon="6.1831">
        <ele>2362</ele>
        <time>2014-03-02T14:47:56.000Z</time>
      </trkpt>
      <trkpt lat="45.34039" lon="6.1831">
        <ele>2362</ele>
        <time>2014-03-02T14:47:57.000Z</time>
      </trkpt>
      <trkpt lat="45.34039" lon="6.1831">
        <ele>2362</ele>
        <time>2014-03-02T14:47:58.000Z</time>
      </trkpt>
      <trkpt lat="45.34039" lon="6.1831">
        <ele>2362</ele>
        <time>2014-03-02T14:47:59.000Z</time>
      </trkpt>
      <trkpt lat="45.34039" lon="6.1831">
        <ele>2362</ele>
        <time>2014-03-02T14:48:00.000Z</time>
      </trkpt>
      <trkpt lat="45.34039" lon="6.1831">
        <ele>2362</ele>
        <time>2014-03-02T14:48:01.000Z</time>
      </trkpt>
      <trkpt lat="45.34039" lon="6.1831">
        <ele>2362</ele>
        <time>2014-03-02T14:48:02.000Z</time>
      </trkpt>
      <trkpt lat="45.34039" lon="6.1831">
        <ele>2362</ele>
        <time>2014-03-02T14:48:03.000Z</time>
      </trkpt>
      <trkpt lat="45.34039" lon="6.1831">
        <ele>2362</ele>
        <time>2014-03-02T14:48:04.000Z</time>
      </trkpt>
      <trkpt lat="45.34039" lon="6.1831">
        <ele>2362</ele>
        <time>2014-03-02T14:48:05.000Z</time>
      </trkpt>
      <trkpt lat="45.34039" lon="6.1831">
        <ele>2362</ele>
        <time>2014-03-02T14:48:06.000Z</time>
      </trkpt>
      <trkpt lat="45.34039" lon="6.1831">
        <ele>2362</ele>
        <time>2014-03-02T14:48:08.000Z</time>
      </trkpt>
      <trkpt lat="45.34039" lon="6.1831">
        <ele>2362</ele>
        <time>2014-03-02T14:48:09.000Z</time>
      </trkpt>
      <trkpt lat="45.34039" lon="6.1831">
        <ele>2362</ele>
        <time>2014-03-02T14:48:10.000Z</time>
      </trkpt>
      <trkpt lat="45.34039" lon="6.1831">
        <ele>2362</ele>
        <time>2014-03-02T14:48:11.000Z</time>
      </trkpt>
      <trkpt lat="45.34039" lon="6.1831">
        <ele>2362</ele>
        <time>2014-03-02T14:48:12.000Z</time>
      </trkpt>
      <trkpt lat="45.34039" lon="6.1831">
        <ele>2362</ele>
        <time>2014-03-02T14:48:13.000Z</time>
      </trkpt>
      <trkpt lat="45.34039" lon="6.1831">
        <ele>2362</ele>
        <time>2014-03-02T14:48:14.000Z</time>
      </trkpt>
      <trkpt lat="45.34039" lon="6.1831">
        <ele>2362</ele>
        <time>2014-03-02T14:48:15.000Z</time>
      </trkpt>
      <trkpt lat="45.34039" lon="6.1831">
        <ele>2362</ele>
        <time>2014-03-02T14:48:16.000Z</time>
      </trkpt>
      <trkpt lat="45.34039" lon="6.1831">
        <ele>2362</ele>
        <time>2014-03-02T14:48:17.000Z</time>
      </trkpt>
      <trkpt lat="45.34039" lon="6.1831">
        <ele>2362</ele>
        <time>2014-03-02T14:48:18.000Z</time>
      </trkpt>
      <trkpt lat="45.34039" lon="6.1831">
        <ele>2362</ele>
        <time>2014-03-02T14:48:19.000Z</time>
      </trkpt>
      <trkpt lat="45.34039" lon="6.1831">
        <ele>2362</ele>
        <time>2014-03-02T14:48:20.000Z</time>
      </trkpt>
      <trkpt lat="45.34039" lon="6.1831">
        <ele>2362</ele>
        <time>2014-03-02T14:48:21.000Z</time>
      </trkpt>
      <trkpt lat="45.34039" lon="6.1831">
        <ele>2362</ele>
        <time>2014-03-02T14:48:22.000Z</time>
      </trkpt>
      <trkpt lat="45.3404" lon="6.1831">
        <ele>2362</ele>
        <time>2014-03-02T14:48:23.000Z</time>
      </trkpt>
      <trkpt lat="45.3404" lon="6.1831">
        <ele>2362</ele>
        <time>2014-03-02T14:48:24.000Z</time>
      </trkpt>
      <trkpt lat="45.3404" lon="6.1831">
        <ele>2362</ele>
        <time>2014-03-02T14:48:25.000Z</time>
      </trkpt>
      <trkpt lat="45.3404" lon="6.1831">
        <ele>2362</ele>
        <time>2014-03-02T14:48:26.000Z</time>
      </trkpt>
      <trkpt lat="45.3404" lon="6.1831">
        <ele>2362</ele>
        <time>2014-03-02T14:48:27.000Z</time>
      </trkpt>
      <trkpt lat="45.3404" lon="6.18313">
        <ele>2362.1999511719</ele>
        <time>2014-03-02T14:48:28.000Z</time>
      </trkpt>
      <trkpt lat="45.34041" lon="6.18316">
        <ele>2363</ele>
        <time>2014-03-02T14:48:29.000Z</time>
      </trkpt>
      <trkpt lat="45.34041" lon="6.18319">
        <ele>2363.6000976562</ele>
        <time>2014-03-02T14:48:30.000Z</time>
      </trkpt>
      <trkpt lat="45.3404" lon="6.18322">
        <ele>2364.1999511719</ele>
        <time>2014-03-02T14:48:31.000Z</time>
      </trkpt>
      <trkpt lat="45.3404" lon="6.18324">
        <ele>2364.8000488281</ele>
        <time>2014-03-02T14:48:32.000Z</time>
      </trkpt>
      <trkpt lat="45.3404" lon="6.18327">
        <ele>2365.1999511719</ele>
        <time>2014-03-02T14:48:33.000Z</time>
      </trkpt>
      <trkpt lat="45.34039" lon="6.18328">
        <ele>2365.3999023438</ele>
        <time>2014-03-02T14:48:34.000Z</time>
      </trkpt>
      <trkpt lat="45.34039" lon="6.18331">
        <ele>2366</ele>
        <time>2014-03-02T14:48:35.000Z</time>
      </trkpt>
      <trkpt lat="45.34039" lon="6.18334">
        <ele>2366.6000976562</ele>
        <time>2014-03-02T14:48:36.000Z</time>
      </trkpt>
      <trkpt lat="45.34039" lon="6.18336">
        <ele>2367</ele>
        <time>2014-03-02T14:48:37.000Z</time>
      </trkpt>
      <trkpt lat="45.34039" lon="6.18337">
        <ele>2367.1999511719</ele>
        <time>2014-03-02T14:48:38.000Z</time>
      </trkpt>
      <trkpt lat="45.34039" lon="6.1834">
        <ele>2367.8000488281</ele>
        <time>2014-03-02T14:48:39.000Z</time>
      </trkpt>
      <trkpt lat="45.34039" lon="6.18342">
        <ele>2368.3999023438</ele>
        <time>2014-03-02T14:48:40.000Z</time>
      </trkpt>
      <trkpt lat="45.34039" lon="6.18344">
        <ele>2368.8000488281</ele>
        <time>2014-03-02T14:48:41.000Z</time>
      </trkpt>
      <trkpt lat="45.34039" lon="6.18346">
        <ele>2369.1999511719</ele>
        <time>2014-03-02T14:48:42.000Z</time>
      </trkpt>
      <trkpt lat="45.34038" lon="6.18348">
        <ele>2369.6000976562</ele>
        <time>2014-03-02T14:48:43.000Z</time>
      </trkpt>
      <trkpt lat="45.34039" lon="6.1835">
        <ele>2370</ele>
        <time>2014-03-02T14:48:44.000Z</time>
      </trkpt>
      <trkpt lat="45.34039" lon="6.18352">
        <ele>2370.3999023438</ele>
        <time>2014-03-02T14:48:45.000Z</time>
      </trkpt>
      <trkpt lat="45.34039" lon="6.18354">
        <ele>2370.8000488281</ele>
        <time>2014-03-02T14:48:46.000Z</time>
      </trkpt>
      <trkpt lat="45.34039" lon="6.18356">
        <ele>2371.1999511719</ele>
        <time>2014-03-02T14:48:47.000Z</time>
      </trkpt>
      <trkpt lat="45.34039" lon="6.18357">
        <ele>2371.6000976562</ele>
        <time>2014-03-02T14:48:48.000Z</time>
      </trkpt>
      <trkpt lat="45.34039" lon="6.18359">
        <ele>2372</ele>
        <time>2014-03-02T14:48:49.000Z</time>
      </trkpt>
      <trkpt lat="45.34039" lon="6.18361">
        <ele>2372.3999023438</ele>
        <time>2014-03-02T14:48:50.000Z</time>
      </trkpt>
      <trkpt lat="45.34039" lon="6.18362">
        <ele>2372.8000488281</ele>
        <time>2014-03-02T14:48:51.000Z</time>
      </trkpt>
      <trkpt lat="45.3404" lon="6.18364">
        <ele>2373.1999511719</ele>
        <time>2014-03-02T14:48:52.000Z</time>
      </trkpt>
      <trkpt lat="45.3404" lon="6.18365">
        <ele>2373.6000976562</ele>
        <time>2014-03-02T14:48:53.000Z</time>
      </trkpt>
      <trkpt lat="45.3404" lon="6.18366">
        <ele>2373.8000488281</ele>
        <time>2014-03-02T14:48:54.000Z</time>
      </trkpt>
      <trkpt lat="45.3404" lon="6.18368">
        <ele>2374.1999511719</ele>
        <time>2014-03-02T14:48:55.000Z</time>
      </trkpt>
      <trkpt lat="45.34041" lon="6.18371">
        <ele>2375</ele>
        <time>2014-03-02T14:48:56.000Z</time>
      </trkpt>
      <trkpt lat="45.34041" lon="6.18374">
        <ele>2375.6000976562</ele>
        <time>2014-03-02T14:48:57.000Z</time>
      </trkpt>
      <trkpt lat="45.34041" lon="6.18377">
        <ele>2376.1999511719</ele>
        <time>2014-03-02T14:48:58.000Z</time>
      </trkpt>
      <trkpt lat="45.3404" lon="6.18381">
        <ele>2377</ele>
        <time>2014-03-02T14:48:59.000Z</time>
      </trkpt>
      <trkpt lat="45.3404" lon="6.18384">
        <ele>2377.6000976562</ele>
        <time>2014-03-02T14:49:00.000Z</time>
      </trkpt>
      <trkpt lat="45.34039" lon="6.18388">
        <ele>2378</ele>
        <time>2014-03-02T14:49:01.000Z</time>
      </trkpt>
      <trkpt lat="45.34038" lon="6.18391">
        <ele>2377</ele>
        <time>2014-03-02T14:49:02.000Z</time>
      </trkpt>
      <trkpt lat="45.34035" lon="6.18395">
        <ele>2375.3999023438</ele>
        <time>2014-03-02T14:49:03.000Z</time>
      </trkpt>
      <trkpt lat="45.34032" lon="6.18403">
        <ele>2374</ele>
        <time>2014-03-02T14:49:04.000Z</time>
      </trkpt>
      <trkpt lat="45.34028" lon="6.18411">
        <ele>2372.3999023438</ele>
        <time>2014-03-02T14:49:05.000Z</time>
      </trkpt>
      <trkpt lat="45.34026" lon="6.18419">
        <ele>2371.1999511719</ele>
        <time>2014-03-02T14:49:06.000Z</time>
      </trkpt>
      <trkpt lat="45.34024" lon="6.18426">
        <ele>2370.1999511719</ele>
        <time>2014-03-02T14:49:07.000Z</time>
      </trkpt>
      <trkpt lat="45.34023" lon="6.1843">
        <ele>2369.8000488281</ele>
        <time>2014-03-02T14:49:08.000Z</time>
      </trkpt>
      <trkpt lat="45.34023" lon="6.18433">
        <ele>2369.6000976562</ele>
        <time>2014-03-02T14:49:09.000Z</time>
      </trkpt>
      <trkpt lat="45.34023" lon="6.18435">
        <ele>2369.6000976562</ele>
        <time>2014-03-02T14:49:10.000Z</time>
      </trkpt>
      <trkpt lat="45.34022" lon="6.18438">
        <ele>2369.1999511719</ele>
        <time>2014-03-02T14:49:11.000Z</time>
      </trkpt>
      <trkpt lat="45.34022" lon="6.18439">
        <ele>2369.1999511719</ele>
        <time>2014-03-02T14:49:12.000Z</time>
      </trkpt>
      <trkpt lat="45.34021" lon="6.18443">
        <ele>2368.6000976562</ele>
        <time>2014-03-02T14:49:13.000Z</time>
      </trkpt>
      <trkpt lat="45.34021" lon="6.18444">
        <ele>2368.6000976562</ele>
        <time>2014-03-02T14:49:14.000Z</time>
      </trkpt>
      <trkpt lat="45.3402" lon="6.18446">
        <ele>2368.1999511719</ele>
        <time>2014-03-02T14:49:15.000Z</time>
      </trkpt>
      <trkpt lat="45.34019" lon="6.18449">
        <ele>2367.6000976562</ele>
        <time>2014-03-02T14:49:16.000Z</time>
      </trkpt>
      <trkpt lat="45.34018" lon="6.1845">
        <ele>2367.3999023438</ele>
        <time>2014-03-02T14:49:17.000Z</time>
      </trkpt>
      <trkpt lat="45.34018" lon="6.18452">
        <ele>2367</ele>
        <time>2014-03-02T14:49:18.000Z</time>
      </trkpt>
      <trkpt lat="45.34018" lon="6.18454">
        <ele>2366.8000488281</ele>
        <time>2014-03-02T14:49:19.000Z</time>
      </trkpt>
      <trkpt lat="45.34017" lon="6.18455">
        <ele>2366.3999023438</ele>
        <time>2014-03-02T14:49:20.000Z</time>
      </trkpt>
      <trkpt lat="45.34017" lon="6.18457">
        <ele>2366</ele>
        <time>2014-03-02T14:49:21.000Z</time>
      </trkpt>
      <trkpt lat="45.34016" lon="6.18459">
        <ele>2365.8000488281</ele>
        <time>2014-03-02T14:49:22.000Z</time>
      </trkpt>
      <trkpt lat="45.34015" lon="6.18461">
        <ele>2365.3999023438</ele>
        <time>2014-03-02T14:49:23.000Z</time>
      </trkpt>
      <trkpt lat="45.34015" lon="6.18462">
        <ele>2364.8000488281</ele>
        <time>2014-03-02T14:49:24.000Z</time>
      </trkpt>
      <trkpt lat="45.34015" lon="6.18463">
        <ele>2364.8000488281</ele>
        <time>2014-03-02T14:49:25.000Z</time>
      </trkpt>
      <trkpt lat="45.34013" lon="6.18466">
        <ele>2364</ele>
        <time>2014-03-02T14:49:26.000Z</time>
      </trkpt>
      <trkpt lat="45.34013" lon="6.18467">
        <ele>2363.6000976562</ele>
        <time>2014-03-02T14:49:27.000Z</time>
      </trkpt>
      <trkpt lat="45.34013" lon="6.18468">
        <ele>2363.3999023438</ele>
        <time>2014-03-02T14:49:28.000Z</time>
      </trkpt>
      <trkpt lat="45.34011" lon="6.1847">
        <ele>2362.8000488281</ele>
        <time>2014-03-02T14:49:29.000Z</time>
      </trkpt>
      <trkpt lat="45.34011" lon="6.1847">
        <ele>2362.6000976562</ele>
        <time>2014-03-02T14:49:30.000Z</time>
      </trkpt>
      <trkpt lat="45.34011" lon="6.18472">
        <ele>2362.3999023438</ele>
        <time>2014-03-02T14:49:31.000Z</time>
      </trkpt>
      <trkpt lat="45.3401" lon="6.18474">
        <ele>2361.8000488281</ele>
        <time>2014-03-02T14:49:32.000Z</time>
      </trkpt>
      <trkpt lat="45.3401" lon="6.18474">
        <ele>2361.8000488281</ele>
        <time>2014-03-02T14:49:33.000Z</time>
      </trkpt>
      <trkpt lat="45.34009" lon="6.18477">
        <ele>2361.1999511719</ele>
        <time>2014-03-02T14:49:34.000Z</time>
      </trkpt>
      <trkpt lat="45.34009" lon="6.18479">
        <ele>2361</ele>
        <time>2014-03-02T14:49:35.000Z</time>
      </trkpt>
      <trkpt lat="45.34009" lon="6.18479">
        <ele>2360.8000488281</ele>
        <time>2014-03-02T14:49:36.000Z</time>
      </trkpt>
      <trkpt lat="45.34008" lon="6.1848">
        <ele>2360.8000488281</ele>
        <time>2014-03-02T14:49:37.000Z</time>
      </trkpt>
      <trkpt lat="45.34008" lon="6.1848">
        <ele>2360.8000488281</ele>
        <time>2014-03-02T14:49:38.000Z</time>
      </trkpt>
      <trkpt lat="45.34008" lon="6.1848">
        <ele>2360.8000488281</ele>
        <time>2014-03-02T14:49:39.000Z</time>
      </trkpt>
      <trkpt lat="45.34008" lon="6.18482">
        <ele>2360.6000976562</ele>
        <time>2014-03-02T14:49:40.000Z</time>
      </trkpt>
      <trkpt lat="45.34008" lon="6.18482">
        <ele>2360.6000976562</ele>
        <time>2014-03-02T14:49:41.000Z</time>
      </trkpt>
      <trkpt lat="45.34008" lon="6.18482">
        <ele>2360.6000976562</ele>
        <time>2014-03-02T14:49:42.000Z</time>
      </trkpt>
      <trkpt lat="45.34007" lon="6.18484">
        <ele>2360.3999023438</ele>
        <time>2014-03-02T14:49:43.000Z</time>
      </trkpt>
      <trkpt lat="45.34006" lon="6.18485">
        <ele>2360</ele>
        <time>2014-03-02T14:49:44.000Z</time>
      </trkpt>
      <trkpt lat="45.34005" lon="6.18487">
        <ele>2359.6000976562</ele>
        <time>2014-03-02T14:49:45.000Z</time>
      </trkpt>
      <trkpt lat="45.34005" lon="6.18488">
        <ele>2359.3999023438</ele>
        <time>2014-03-02T14:49:46.000Z</time>
      </trkpt>
      <trkpt lat="45.34005" lon="6.18488">
        <ele>2359.3999023438</ele>
        <time>2014-03-02T14:49:47.000Z</time>
      </trkpt>
      <trkpt lat="45.34005" lon="6.18488">
        <ele>2359.3999023438</ele>
        <time>2014-03-02T14:49:48.000Z</time>
      </trkpt>
      <trkpt lat="45.34005" lon="6.18488">
        <ele>2359.3999023438</ele>
        <time>2014-03-02T14:49:49.000Z</time>
      </trkpt>
      <trkpt lat="45.34005" lon="6.18488">
        <ele>2359.3999023438</ele>
        <time>2014-03-02T14:49:50.000Z</time>
      </trkpt>
      <trkpt lat="45.34005" lon="6.18488">
        <ele>2359.3999023438</ele>
        <time>2014-03-02T14:49:51.000Z</time>
      </trkpt>
      <trkpt lat="45.34005" lon="6.18488">
        <ele>2359.3999023438</ele>
        <time>2014-03-02T14:49:52.000Z</time>
      </trkpt>
      <trkpt lat="45.34005" lon="6.18488">
        <ele>2359.3999023438</ele>
        <time>2014-03-02T14:49:53.000Z</time>
      </trkpt>
      <trkpt lat="45.34005" lon="6.18488">
        <ele>2359.3999023438</ele>
        <time>2014-03-02T14:49:54.000Z</time>
      </trkpt>
      <trkpt lat="45.34005" lon="6.18488">
        <ele>2359.3999023438</ele>
        <time>2014-03-02T14:49:55.000Z</time>
      </trkpt>
      <trkpt lat="45.34005" lon="6.18488">
        <ele>2359.3999023438</ele>
        <time>2014-03-02T14:49:56.000Z</time>
      </trkpt>
      <trkpt lat="45.34005" lon="6.18488">
        <ele>2359.3999023438</ele>
        <time>2014-03-02T14:49:57.000Z</time>
      </trkpt>
      <trkpt lat="45.34005" lon="6.18488">
        <ele>2359.3999023438</ele>
        <time>2014-03-02T14:49:58.000Z</time>
      </trkpt>
      <trkpt lat="45.34005" lon="6.18488">
        <ele>2359.3999023438</ele>
        <time>2014-03-02T14:50:02.000Z</time>
      </trkpt>
      <trkpt lat="45.34005" lon="6.18488">
        <ele>2359.3999023438</ele>
        <time>2014-03-02T14:50:03.000Z</time>
      </trkpt>
      <trkpt lat="45.34005" lon="6.18488">
        <ele>2359.3999023438</ele>
        <time>2014-03-02T14:50:04.000Z</time>
      </trkpt>
      <trkpt lat="45.34005" lon="6.18488">
        <ele>2359.3999023438</ele>
        <time>2014-03-02T14:50:05.000Z</time>
      </trkpt>
      <trkpt lat="45.34005" lon="6.18488">
        <ele>2359.3999023438</ele>
        <time>2014-03-02T14:50:06.000Z</time>
      </trkpt>
      <trkpt lat="45.34005" lon="6.18488">
        <ele>2359.3999023438</ele>
        <time>2014-03-02T14:50:07.000Z</time>
      </trkpt>
      <trkpt lat="45.34005" lon="6.18488">
        <ele>2359.3999023438</ele>
        <time>2014-03-02T14:50:08.000Z</time>
      </trkpt>
      <trkpt lat="45.34005" lon="6.18488">
        <ele>2359.3999023438</ele>
        <time>2014-03-02T14:50:09.000Z</time>
      </trkpt>
      <trkpt lat="45.34004" lon="6.18488">
        <ele>2359.1999511719</ele>
        <time>2014-03-02T14:50:10.000Z</time>
      </trkpt>
      <trkpt lat="45.34003" lon="6.1849">
        <ele>2358.8000488281</ele>
        <time>2014-03-02T14:50:11.000Z</time>
      </trkpt>
      <trkpt lat="45.34002" lon="6.18491">
        <ele>2358.3999023438</ele>
        <time>2014-03-02T14:50:12.000Z</time>
      </trkpt>
      <trkpt lat="45.34002" lon="6.18493">
        <ele>2358.1999511719</ele>
        <time>2014-03-02T14:50:13.000Z</time>
      </trkpt>
      <trkpt lat="45.34002" lon="6.18493">
        <ele>2358.1999511719</ele>
        <time>2014-03-02T14:50:14.000Z</time>
      </trkpt>
      <trkpt lat="45.34001" lon="6.18494">
        <ele>2358</ele>
        <time>2014-03-02T14:50:15.000Z</time>
      </trkpt>
      <trkpt lat="45.34" lon="6.18495">
        <ele>2357.6000976562</ele>
        <time>2014-03-02T14:50:16.000Z</time>
      </trkpt>
      <trkpt lat="45.34" lon="6.18495">
        <ele>2357.6000976562</ele>
        <time>2014-03-02T14:50:17.000Z</time>
      </trkpt>
      <trkpt lat="45.34" lon="6.18496">
        <ele>2357.3999023438</ele>
        <time>2014-03-02T14:50:18.000Z</time>
      </trkpt>
      <trkpt lat="45.34" lon="6.18496">
        <ele>2357.3999023438</ele>
        <time>2014-03-02T14:50:19.000Z</time>
      </trkpt>
      <trkpt lat="45.34" lon="6.18496">
        <ele>2357.3999023438</ele>
        <time>2014-03-02T14:50:20.000Z</time>
      </trkpt>
      <trkpt lat="45.33999" lon="6.18497">
        <ele>2357.1999511719</ele>
        <time>2014-03-02T14:50:21.000Z</time>
      </trkpt>
      <trkpt lat="45.33999" lon="6.18498">
        <ele>2357</ele>
        <time>2014-03-02T14:50:22.000Z</time>
      </trkpt>
      <trkpt lat="45.33998" lon="6.18498">
        <ele>2356.8000488281</ele>
        <time>2014-03-02T14:50:23.000Z</time>
      </trkpt>
      <trkpt lat="45.33997" lon="6.185">
        <ele>2356.1999511719</ele>
        <time>2014-03-02T14:50:24.000Z</time>
      </trkpt>
      <trkpt lat="45.33996" lon="6.18502">
        <ele>2356</ele>
        <time>2014-03-02T14:50:25.000Z</time>
      </trkpt>
      <trkpt lat="45.33996" lon="6.18502">
        <ele>2356</ele>
        <time>2014-03-02T14:50:26.000Z</time>
      </trkpt>
      <trkpt lat="45.33996" lon="6.18503">
        <ele>2355.8000488281</ele>
        <time>2014-03-02T14:50:27.000Z</time>
      </trkpt>
      <trkpt lat="45.33995" lon="6.18504">
        <ele>2355.3999023438</ele>
        <time>2014-03-02T14:50:28.000Z</time>
      </trkpt>
      <trkpt lat="45.33995" lon="6.18505">
        <ele>2355.3999023438</ele>
        <time>2014-03-02T14:50:29.000Z</time>
      </trkpt>
      <trkpt lat="45.33994" lon="6.18505">
        <ele>2355.1999511719</ele>
        <time>2014-03-02T14:50:30.000Z</time>
      </trkpt>
      <trkpt lat="45.33994" lon="6.18505">
        <ele>2355.1999511719</ele>
        <time>2014-03-02T14:50:31.000Z</time>
      </trkpt>
      <trkpt lat="45.33994" lon="6.18505">
        <ele>2355.1999511719</ele>
        <time>2014-03-02T14:50:32.000Z</time>
      </trkpt>
      <trkpt lat="45.33994" lon="6.18505">
        <ele>2355.1999511719</ele>
        <time>2014-03-02T14:50:33.000Z</time>
      </trkpt>
      <trkpt lat="45.33994" lon="6.18505">
        <ele>2355.1999511719</ele>
        <time>2014-03-02T14:50:34.000Z</time>
      </trkpt>
      <trkpt lat="45.33994" lon="6.18505">
        <ele>2355.1999511719</ele>
        <time>2014-03-02T14:50:35.000Z</time>
      </trkpt>
      <trkpt lat="45.33994" lon="6.18505">
        <ele>2355.1999511719</ele>
        <time>2014-03-02T14:50:36.000Z</time>
      </trkpt>
      <trkpt lat="45.33994" lon="6.18505">
        <ele>2355.1999511719</ele>
        <time>2014-03-02T14:50:37.000Z</time>
      </trkpt>
      <trkpt lat="45.33994" lon="6.18505">
        <ele>2355.1999511719</ele>
        <time>2014-03-02T14:50:38.000Z</time>
      </trkpt>
      <trkpt lat="45.33994" lon="6.18505">
        <ele>2355.1999511719</ele>
        <time>2014-03-02T14:50:39.000Z</time>
      </trkpt>
      <trkpt lat="45.33994" lon="6.18505">
        <ele>2355.1999511719</ele>
        <time>2014-03-02T14:50:40.000Z</time>
      </trkpt>
      <trkpt lat="45.33994" lon="6.18505">
        <ele>2355.1999511719</ele>
        <time>2014-03-02T14:50:41.000Z</time>
      </trkpt>
      <trkpt lat="45.33994" lon="6.18505">
        <ele>2355.1999511719</ele>
        <time>2014-03-02T14:50:42.000Z</time>
      </trkpt>
      <trkpt lat="45.33994" lon="6.18505">
        <ele>2355.1999511719</ele>
        <time>2014-03-02T14:50:43.000Z</time>
      </trkpt>
      <trkpt lat="45.33994" lon="6.18505">
        <ele>2355.1999511719</ele>
        <time>2014-03-02T14:50:44.000Z</time>
      </trkpt>
      <trkpt lat="45.33994" lon="6.18505">
        <ele>2355.1999511719</ele>
        <time>2014-03-02T14:50:45.000Z</time>
      </trkpt>
      <trkpt lat="45.33994" lon="6.18505">
        <ele>2355.1999511719</ele>
        <time>2014-03-02T14:50:46.000Z</time>
      </trkpt>
      <trkpt lat="45.33994" lon="6.18505">
        <ele>2355.1999511719</ele>
        <time>2014-03-02T14:50:47.000Z</time>
      </trkpt>
      <trkpt lat="45.33994" lon="6.18505">
        <ele>2355.1999511719</ele>
        <time>2014-03-02T14:50:48.000Z</time>
      </trkpt>
      <trkpt lat="45.33994" lon="6.18505">
        <ele>2355.1999511719</ele>
        <time>2014-03-02T14:50:49.000Z</time>
      </trkpt>
      <trkpt lat="45.33994" lon="6.18506">
        <ele>2354.8000488281</ele>
        <time>2014-03-02T14:50:50.000Z</time>
      </trkpt>
      <trkpt lat="45.33993" lon="6.18507">
        <ele>2354.6000976562</ele>
        <time>2014-03-02T14:50:51.000Z</time>
      </trkpt>
      <trkpt lat="45.33991" lon="6.1851">
        <ele>2354</ele>
        <time>2014-03-02T14:50:52.000Z</time>
      </trkpt>
      <trkpt lat="45.3399" lon="6.18511">
        <ele>2353.8000488281</ele>
        <time>2014-03-02T14:50:53.000Z</time>
      </trkpt>
      <trkpt lat="45.33989" lon="6.18513">
        <ele>2353.6000976562</ele>
        <time>2014-03-02T14:50:54.000Z</time>
      </trkpt>
      <trkpt lat="45.33989" lon="6.18514">
        <ele>2353.3999023438</ele>
        <time>2014-03-02T14:50:55.000Z</time>
      </trkpt>
      <trkpt lat="45.33989" lon="6.18515">
        <ele>2353.6000976562</ele>
        <time>2014-03-02T14:50:56.000Z</time>
      </trkpt>
      <trkpt lat="45.33988" lon="6.18517">
        <ele>2353.3999023438</ele>
        <time>2014-03-02T14:50:57.000Z</time>
      </trkpt>
      <trkpt lat="45.33987" lon="6.1852">
        <ele>2353.3999023438</ele>
        <time>2014-03-02T14:50:58.000Z</time>
      </trkpt>
      <trkpt lat="45.33986" lon="6.18521">
        <ele>2353.1999511719</ele>
        <time>2014-03-02T14:50:59.000Z</time>
      </trkpt>
      <trkpt lat="45.33985" lon="6.18523">
        <ele>2353</ele>
        <time>2014-03-02T14:51:00.000Z</time>
      </trkpt>
      <trkpt lat="45.33985" lon="6.18526">
        <ele>2353</ele>
        <time>2014-03-02T14:51:01.000Z</time>
      </trkpt>
      <trkpt lat="45.33984" lon="6.18527">
        <ele>2352.8000488281</ele>
        <time>2014-03-02T14:51:02.000Z</time>
      </trkpt>
      <trkpt lat="45.33983" lon="6.18529">
        <ele>2352.6000976562</ele>
        <time>2014-03-02T14:51:03.000Z</time>
      </trkpt>
      <trkpt lat="45.33982" lon="6.18531">
        <ele>2352.6000976562</ele>
        <time>2014-03-02T14:51:04.000Z</time>
      </trkpt>
      <trkpt lat="45.33981" lon="6.18533">
        <ele>2352.3999023438</ele>
        <time>2014-03-02T14:51:05.000Z</time>
      </trkpt>
      <trkpt lat="45.33981" lon="6.18534">
        <ele>2352.3999023438</ele>
        <time>2014-03-02T14:51:06.000Z</time>
      </trkpt>
      <trkpt lat="45.3398" lon="6.18536">
        <ele>2352.1999511719</ele>
        <time>2014-03-02T14:51:07.000Z</time>
      </trkpt>
      <trkpt lat="45.3398" lon="6.18536">
        <ele>2352.1999511719</ele>
        <time>2014-03-02T14:51:08.000Z</time>
      </trkpt>
      <trkpt lat="45.33979" lon="6.18539">
        <ele>2352</ele>
        <time>2014-03-02T14:51:09.000Z</time>
      </trkpt>
      <trkpt lat="45.33979" lon="6.1854">
        <ele>2352</ele>
        <time>2014-03-02T14:51:10.000Z</time>
      </trkpt>
      <trkpt lat="45.33978" lon="6.18541">
        <ele>2351.8000488281</ele>
        <time>2014-03-02T14:51:11.000Z</time>
      </trkpt>
      <trkpt lat="45.33977" lon="6.18542">
        <ele>2351.6000976562</ele>
        <time>2014-03-02T14:51:12.000Z</time>
      </trkpt>
      <trkpt lat="45.33976" lon="6.18543">
        <ele>2351.3999023438</ele>
        <time>2014-03-02T14:51:13.000Z</time>
      </trkpt>
      <trkpt lat="45.33976" lon="6.18544">
        <ele>2351</ele>
        <time>2014-03-02T14:51:14.000Z</time>
      </trkpt>
      <trkpt lat="45.33975" lon="6.18547">
        <ele>2350.8000488281</ele>
        <time>2014-03-02T14:51:15.000Z</time>
      </trkpt>
      <trkpt lat="45.33974" lon="6.18547">
        <ele>2351</ele>
        <time>2014-03-02T14:51:16.000Z</time>
      </trkpt>
      <trkpt lat="45.33974" lon="6.18549">
        <ele>2350.8000488281</ele>
        <time>2014-03-02T14:51:17.000Z</time>
      </trkpt>
      <trkpt lat="45.33974" lon="6.18549">
        <ele>2350.8000488281</ele>
        <time>2014-03-02T14:51:18.000Z</time>
      </trkpt>
      <trkpt lat="45.33973" lon="6.1855">
        <ele>2350.6000976562</ele>
        <time>2014-03-02T14:51:19.000Z</time>
      </trkpt>
      <trkpt lat="45.33971" lon="6.18552">
        <ele>2350</ele>
        <time>2014-03-02T14:51:23.000Z</time>
      </trkpt>
      <trkpt lat="45.33971" lon="6.18552">
        <ele>2350</ele>
        <time>2014-03-02T14:51:24.000Z</time>
      </trkpt>
      <trkpt lat="45.33971" lon="6.18552">
        <ele>2350</ele>
        <time>2014-03-02T14:51:25.000Z</time>
      </trkpt>
      <trkpt lat="45.33971" lon="6.18552">
        <ele>2350</ele>
        <time>2014-03-02T14:51:26.000Z</time>
      </trkpt>
      <trkpt lat="45.33971" lon="6.18552">
        <ele>2350</ele>
        <time>2014-03-02T14:51:27.000Z</time>
      </trkpt>
      <trkpt lat="45.33971" lon="6.18552">
        <ele>2350</ele>
        <time>2014-03-02T14:51:28.000Z</time>
      </trkpt>
      <trkpt lat="45.33971" lon="6.18552">
        <ele>2350</ele>
        <time>2014-03-02T14:51:29.000Z</time>
      </trkpt>
      <trkpt lat="45.33971" lon="6.18552">
        <ele>2350</ele>
        <time>2014-03-02T14:51:32.000Z</time>
      </trkpt>
      <trkpt lat="45.33971" lon="6.18552">
        <ele>2350</ele>
        <time>2014-03-02T14:51:33.000Z</time>
      </trkpt>
      <trkpt lat="45.33971" lon="6.18552">
        <ele>2350</ele>
        <time>2014-03-02T14:51:34.000Z</time>
      </trkpt>
      <trkpt lat="45.33971" lon="6.18552">
        <ele>2350</ele>
        <time>2014-03-02T14:51:35.000Z</time>
      </trkpt>
      <trkpt lat="45.33971" lon="6.18552">
        <ele>2350</ele>
        <time>2014-03-02T14:51:36.000Z</time>
      </trkpt>
      <trkpt lat="45.33971" lon="6.18552">
        <ele>2350</ele>
        <time>2014-03-02T14:51:37.000Z</time>
      </trkpt>
      <trkpt lat="45.33971" lon="6.18552">
        <ele>2350</ele>
        <time>2014-03-02T14:51:38.000Z</time>
      </trkpt>
      <trkpt lat="45.33971" lon="6.18552">
        <ele>2350</ele>
        <time>2014-03-02T14:51:39.000Z</time>
      </trkpt>
      <trkpt lat="45.3397" lon="6.18552">
        <ele>2349.8000488281</ele>
        <time>2014-03-02T14:51:40.000Z</time>
      </trkpt>
      <trkpt lat="45.3397" lon="6.18553">
        <ele>2349.8000488281</ele>
        <time>2014-03-02T14:51:41.000Z</time>
      </trkpt>
      <trkpt lat="45.33969" lon="6.18555">
        <ele>2349.1999511719</ele>
        <time>2014-03-02T14:51:42.000Z</time>
      </trkpt>
      <trkpt lat="45.33968" lon="6.18556">
        <ele>2349.1999511719</ele>
        <time>2014-03-02T14:51:43.000Z</time>
      </trkpt>
      <trkpt lat="45.33967" lon="6.18558">
        <ele>2348.8000488281</ele>
        <time>2014-03-02T14:51:44.000Z</time>
      </trkpt>
      <trkpt lat="45.33965" lon="6.1856">
        <ele>2348.3999023438</ele>
        <time>2014-03-02T14:51:46.000Z</time>
      </trkpt>
      <trkpt lat="45.33964" lon="6.18562">
        <ele>2348.1999511719</ele>
        <time>2014-03-02T14:51:47.000Z</time>
      </trkpt>
      <trkpt lat="45.33964" lon="6.18563">
        <ele>2348</ele>
        <time>2014-03-02T14:51:48.000Z</time>
      </trkpt>
      <trkpt lat="45.33963" lon="6.18563">
        <ele>2347.8000488281</ele>
        <time>2014-03-02T14:51:49.000Z</time>
      </trkpt>
      <trkpt lat="45.33961" lon="6.18565">
        <ele>2347.6000976562</ele>
        <time>2014-03-02T14:51:50.000Z</time>
      </trkpt>
      <trkpt lat="45.33961" lon="6.18566">
        <ele>2347.6000976562</ele>
        <time>2014-03-02T14:51:51.000Z</time>
      </trkpt>
      <trkpt lat="45.3396" lon="6.18568">
        <ele>2347.3999023438</ele>
        <time>2014-03-02T14:51:52.000Z</time>
      </trkpt>
      <trkpt lat="45.3396" lon="6.18568">
        <ele>2347.3999023438</ele>
        <time>2014-03-02T14:51:53.000Z</time>
      </trkpt>
      <trkpt lat="45.33958" lon="6.1857">
        <ele>2347.1999511719</ele>
        <time>2014-03-02T14:51:54.000Z</time>
      </trkpt>
      <trkpt lat="45.33957" lon="6.18572">
        <ele>2347</ele>
        <time>2014-03-02T14:51:55.000Z</time>
      </trkpt>
      <trkpt lat="45.33957" lon="6.18573">
        <ele>2347</ele>
        <time>2014-03-02T14:51:56.000Z</time>
      </trkpt>
      <trkpt lat="45.33956" lon="6.18575">
        <ele>2346.8000488281</ele>
        <time>2014-03-02T14:51:57.000Z</time>
      </trkpt>
      <trkpt lat="45.33955" lon="6.18575">
        <ele>2346.8000488281</ele>
        <time>2014-03-02T14:51:58.000Z</time>
      </trkpt>
      <trkpt lat="45.33953" lon="6.18578">
        <ele>2346.1999511719</ele>
        <time>2014-03-02T14:52:01.000Z</time>
      </trkpt>
      <trkpt lat="45.33951" lon="6.18579">
        <ele>2345.8000488281</ele>
        <time>2014-03-02T14:52:02.000Z</time>
      </trkpt>
      <trkpt lat="45.3395" lon="6.18581">
        <ele>2345.6000976562</ele>
        <time>2014-03-02T14:52:03.000Z</time>
      </trkpt>
      <trkpt lat="45.3395" lon="6.18581">
        <ele>2345.6000976562</ele>
        <time>2014-03-02T14:52:04.000Z</time>
      </trkpt>
      <trkpt lat="45.33948" lon="6.18582">
        <ele>2345.1999511719</ele>
        <time>2014-03-02T14:52:05.000Z</time>
      </trkpt>
      <trkpt lat="45.33948" lon="6.18582">
        <ele>2345</ele>
        <time>2014-03-02T14:52:06.000Z</time>
      </trkpt>
      <trkpt lat="45.33946" lon="6.18583">
        <ele>2344.6000976562</ele>
        <time>2014-03-02T14:52:07.000Z</time>
      </trkpt>
      <trkpt lat="45.33944" lon="6.18585">
        <ele>2344.1999511719</ele>
        <time>2014-03-02T14:52:08.000Z</time>
      </trkpt>
      <trkpt lat="45.33944" lon="6.18585">
        <ele>2344.1999511719</ele>
        <time>2014-03-02T14:52:09.000Z</time>
      </trkpt>
      <trkpt lat="45.33942" lon="6.18587">
        <ele>2344</ele>
        <time>2014-03-02T14:52:10.000Z</time>
      </trkpt>
      <trkpt lat="45.33942" lon="6.18588">
        <ele>2343.8000488281</ele>
        <time>2014-03-02T14:52:11.000Z</time>
      </trkpt>
      <trkpt lat="45.33941" lon="6.18589">
        <ele>2343.6000976562</ele>
        <time>2014-03-02T14:52:12.000Z</time>
      </trkpt>
      <trkpt lat="45.3394" lon="6.18591">
        <ele>2343.3999023438</ele>
        <time>2014-03-02T14:52:13.000Z</time>
      </trkpt>
      <trkpt lat="45.33939" lon="6.18591">
        <ele>2343.3999023438</ele>
        <time>2014-03-02T14:52:14.000Z</time>
      </trkpt>
      <trkpt lat="45.33938" lon="6.18592">
        <ele>2343.3999023438</ele>
        <time>2014-03-02T14:52:15.000Z</time>
      </trkpt>
      <trkpt lat="45.33938" lon="6.18593">
        <ele>2343.1999511719</ele>
        <time>2014-03-02T14:52:16.000Z</time>
      </trkpt>
      <trkpt lat="45.33937" lon="6.18594">
        <ele>2343</ele>
        <time>2014-03-02T14:52:17.000Z</time>
      </trkpt>
      <trkpt lat="45.33935" lon="6.18595">
        <ele>2342.6000976562</ele>
        <time>2014-03-02T14:52:18.000Z</time>
      </trkpt>
      <trkpt lat="45.33934" lon="6.18596">
        <ele>2342.3999023438</ele>
        <time>2014-03-02T14:52:19.000Z</time>
      </trkpt>
      <trkpt lat="45.33934" lon="6.18597">
        <ele>2342.3999023438</ele>
        <time>2014-03-02T14:52:20.000Z</time>
      </trkpt>
      <trkpt lat="45.33932" lon="6.18599">
        <ele>2342.1999511719</ele>
        <time>2014-03-02T14:52:21.000Z</time>
      </trkpt>
      <trkpt lat="45.33933" lon="6.18599">
        <ele>2342.1999511719</ele>
        <time>2014-03-02T14:52:22.000Z</time>
      </trkpt>
      <trkpt lat="45.33931" lon="6.18601">
        <ele>2342.1999511719</ele>
        <time>2014-03-02T14:52:23.000Z</time>
      </trkpt>
      <trkpt lat="45.33931" lon="6.18602">
        <ele>2342</ele>
        <time>2014-03-02T14:52:24.000Z</time>
      </trkpt>
      <trkpt lat="45.3393" lon="6.18603">
        <ele>2342</ele>
        <time>2014-03-02T14:52:25.000Z</time>
      </trkpt>
      <trkpt lat="45.33929" lon="6.18606">
        <ele>2341.8000488281</ele>
        <time>2014-03-02T14:52:26.000Z</time>
      </trkpt>
      <trkpt lat="45.33928" lon="6.18607">
        <ele>2341.8000488281</ele>
        <time>2014-03-02T14:52:27.000Z</time>
      </trkpt>
      <trkpt lat="45.33927" lon="6.18609">
        <ele>2341.6000976562</ele>
        <time>2014-03-02T14:52:28.000Z</time>
      </trkpt>
      <trkpt lat="45.33926" lon="6.18609">
        <ele>2341.1999511719</ele>
        <time>2014-03-02T14:52:29.000Z</time>
      </trkpt>
      <trkpt lat="45.33926" lon="6.18609">
        <ele>2341.1999511719</ele>
        <time>2014-03-02T14:52:30.000Z</time>
      </trkpt>
      <trkpt lat="45.33925" lon="6.1861">
        <ele>2340.6000976562</ele>
        <time>2014-03-02T14:52:31.000Z</time>
      </trkpt>
      <trkpt lat="45.33925" lon="6.1861">
        <ele>2340.8000488281</ele>
        <time>2014-03-02T14:52:32.000Z</time>
      </trkpt>
      <trkpt lat="45.33924" lon="6.18612">
        <ele>2340.1999511719</ele>
        <time>2014-03-02T14:52:33.000Z</time>
      </trkpt>
      <trkpt lat="45.33923" lon="6.18612">
        <ele>2340</ele>
        <time>2014-03-02T14:52:34.000Z</time>
      </trkpt>
      <trkpt lat="45.33923" lon="6.18613">
        <ele>2339.8000488281</ele>
        <time>2014-03-02T14:52:35.000Z</time>
      </trkpt>
      <trkpt lat="45.33922" lon="6.18614">
        <ele>2339.3999023438</ele>
        <time>2014-03-02T14:52:36.000Z</time>
      </trkpt>
      <trkpt lat="45.33922" lon="6.18614">
        <ele>2339.3999023438</ele>
        <time>2014-03-02T14:52:37.000Z</time>
      </trkpt>
      <trkpt lat="45.33921" lon="6.18615">
        <ele>2339.1999511719</ele>
        <time>2014-03-02T14:52:38.000Z</time>
      </trkpt>
      <trkpt lat="45.3392" lon="6.18617">
        <ele>2338.6000976562</ele>
        <time>2014-03-02T14:52:39.000Z</time>
      </trkpt>
      <trkpt lat="45.3392" lon="6.18617">
        <ele>2338.6000976562</ele>
        <time>2014-03-02T14:52:40.000Z</time>
      </trkpt>
      <trkpt lat="45.33919" lon="6.18619">
        <ele>2338.1999511719</ele>
        <time>2014-03-02T14:52:41.000Z</time>
      </trkpt>
      <trkpt lat="45.33918" lon="6.18619">
        <ele>2338</ele>
        <time>2014-03-02T14:52:42.000Z</time>
      </trkpt>
      <trkpt lat="45.33918" lon="6.1862">
        <ele>2337.8000488281</ele>
        <time>2014-03-02T14:52:43.000Z</time>
      </trkpt>
      <trkpt lat="45.33916" lon="6.18621">
        <ele>2337.1999511719</ele>
        <time>2014-03-02T14:52:44.000Z</time>
      </trkpt>
      <trkpt lat="45.33916" lon="6.18621">
        <ele>2337</ele>
        <time>2014-03-02T14:52:45.000Z</time>
      </trkpt>
      <trkpt lat="45.33914" lon="6.18622">
        <ele>2336.3999023438</ele>
        <time>2014-03-02T14:52:46.000Z</time>
      </trkpt>
      <trkpt lat="45.33913" lon="6.18623">
        <ele>2336</ele>
        <time>2014-03-02T14:52:47.000Z</time>
      </trkpt>
      <trkpt lat="45.33913" lon="6.18623">
        <ele>2336</ele>
        <time>2014-03-02T14:52:48.000Z</time>
      </trkpt>
      <trkpt lat="45.33912" lon="6.18625">
        <ele>2335.3999023438</ele>
        <time>2014-03-02T14:52:49.000Z</time>
      </trkpt>
      <trkpt lat="45.33911" lon="6.18625">
        <ele>2335.1999511719</ele>
        <time>2014-03-02T14:52:50.000Z</time>
      </trkpt>
      <trkpt lat="45.3391" lon="6.18626">
        <ele>2334.8000488281</ele>
        <time>2014-03-02T14:52:51.000Z</time>
      </trkpt>
      <trkpt lat="45.3391" lon="6.18628">
        <ele>2334.6000976562</ele>
        <time>2014-03-02T14:52:52.000Z</time>
      </trkpt>
      <trkpt lat="45.3391" lon="6.18628">
        <ele>2334.6000976562</ele>
        <time>2014-03-02T14:52:53.000Z</time>
      </trkpt>
      <trkpt lat="45.33909" lon="6.1863">
        <ele>2334.1999511719</ele>
        <time>2014-03-02T14:52:54.000Z</time>
      </trkpt>
      <trkpt lat="45.33908" lon="6.1863">
        <ele>2334</ele>
        <time>2014-03-02T14:52:55.000Z</time>
      </trkpt>
      <trkpt lat="45.33907" lon="6.18631">
        <ele>2333.6000976562</ele>
        <time>2014-03-02T14:52:56.000Z</time>
      </trkpt>
      <trkpt lat="45.33907" lon="6.18632">
        <ele>2333.3999023438</ele>
        <time>2014-03-02T14:52:57.000Z</time>
      </trkpt>
      <trkpt lat="45.33907" lon="6.18632">
        <ele>2333.6000976562</ele>
        <time>2014-03-02T14:52:58.000Z</time>
      </trkpt>
      <trkpt lat="45.33906" lon="6.18634">
        <ele>2333.1999511719</ele>
        <time>2014-03-02T14:52:59.000Z</time>
      </trkpt>
      <trkpt lat="45.33906" lon="6.18635">
        <ele>2333</ele>
        <time>2014-03-02T14:53:00.000Z</time>
      </trkpt>
      <trkpt lat="45.33905" lon="6.18636">
        <ele>2332.8000488281</ele>
        <time>2014-03-02T14:53:01.000Z</time>
      </trkpt>
      <trkpt lat="45.33905" lon="6.18637">
        <ele>2332.6000976562</ele>
        <time>2014-03-02T14:53:02.000Z</time>
      </trkpt>
      <trkpt lat="45.33905" lon="6.18637">
        <ele>2332.8000488281</ele>
        <time>2014-03-02T14:53:03.000Z</time>
      </trkpt>
      <trkpt lat="45.33904" lon="6.18639">
        <ele>2332.1999511719</ele>
        <time>2014-03-02T14:53:04.000Z</time>
      </trkpt>
      <trkpt lat="45.33903" lon="6.1864">
        <ele>2331.8000488281</ele>
        <time>2014-03-02T14:53:05.000Z</time>
      </trkpt>
      <trkpt lat="45.33903" lon="6.1864">
        <ele>2332</ele>
        <time>2014-03-02T14:53:06.000Z</time>
      </trkpt>
      <trkpt lat="45.33901" lon="6.18642">
        <ele>2331.3999023438</ele>
        <time>2014-03-02T14:53:07.000Z</time>
      </trkpt>
      <trkpt lat="45.33901" lon="6.18642">
        <ele>2331.3999023438</ele>
        <time>2014-03-02T14:53:08.000Z</time>
      </trkpt>
      <trkpt lat="45.339" lon="6.18644">
        <ele>2331</ele>
        <time>2014-03-02T14:53:09.000Z</time>
      </trkpt>
      <trkpt lat="45.33899" lon="6.18645">
        <ele>2330.6000976562</ele>
        <time>2014-03-02T14:53:10.000Z</time>
      </trkpt>
      <trkpt lat="45.33899" lon="6.18646">
        <ele>2330.3999023438</ele>
        <time>2014-03-02T14:53:11.000Z</time>
      </trkpt>
      <trkpt lat="45.33898" lon="6.18647">
        <ele>2330.3999023438</ele>
        <time>2014-03-02T14:53:12.000Z</time>
      </trkpt>
      <trkpt lat="45.33898" lon="6.18647">
        <ele>2330.1999511719</ele>
        <time>2014-03-02T14:53:13.000Z</time>
      </trkpt>
      <trkpt lat="45.33897" lon="6.18649">
        <ele>2330</ele>
        <time>2014-03-02T14:53:14.000Z</time>
      </trkpt>
      <trkpt lat="45.33897" lon="6.1865">
        <ele>2329.8000488281</ele>
        <time>2014-03-02T14:53:15.000Z</time>
      </trkpt>
      <trkpt lat="45.33896" lon="6.18651">
        <ele>2329.8000488281</ele>
        <time>2014-03-02T14:53:16.000Z</time>
      </trkpt>
      <trkpt lat="45.33895" lon="6.18653">
        <ele>2329.3999023438</ele>
        <time>2014-03-02T14:53:17.000Z</time>
      </trkpt>
      <trkpt lat="45.33895" lon="6.18652">
        <ele>2329.3999023438</ele>
        <time>2014-03-02T14:53:18.000Z</time>
      </trkpt>
      <trkpt lat="45.33894" lon="6.18654">
        <ele>2328.8000488281</ele>
        <time>2014-03-02T14:53:19.000Z</time>
      </trkpt>
      <trkpt lat="45.33893" lon="6.18655">
        <ele>2328.6000976562</ele>
        <time>2014-03-02T14:53:20.000Z</time>
      </trkpt>
      <trkpt lat="45.33893" lon="6.18655">
        <ele>2328.6000976562</ele>
        <time>2014-03-02T14:53:21.000Z</time>
      </trkpt>
      <trkpt lat="45.33892" lon="6.18656">
        <ele>2328.1999511719</ele>
        <time>2014-03-02T14:53:22.000Z</time>
      </trkpt>
      <trkpt lat="45.33892" lon="6.18656">
        <ele>2328.1999511719</ele>
        <time>2014-03-02T14:53:23.000Z</time>
      </trkpt>
      <trkpt lat="45.3389" lon="6.18658">
        <ele>2327.3999023438</ele>
        <time>2014-03-02T14:53:24.000Z</time>
      </trkpt>
      <trkpt lat="45.3389" lon="6.18659">
        <ele>2327</ele>
        <time>2014-03-02T14:53:25.000Z</time>
      </trkpt>
      <trkpt lat="45.33889" lon="6.18659">
        <ele>2326.6000976562</ele>
        <time>2014-03-02T14:53:26.000Z</time>
      </trkpt>
      <trkpt lat="45.33887" lon="6.1866">
        <ele>2326</ele>
        <time>2014-03-02T14:53:27.000Z</time>
      </trkpt>
      <trkpt lat="45.33887" lon="6.18661">
        <ele>2325.6000976562</ele>
        <time>2014-03-02T14:53:28.000Z</time>
      </trkpt>
      <trkpt lat="45.33886" lon="6.18661">
        <ele>2325.1999511719</ele>
        <time>2014-03-02T14:53:29.000Z</time>
      </trkpt>
      <trkpt lat="45.33884" lon="6.18662">
        <ele>2324.6000976562</ele>
        <time>2014-03-02T14:53:30.000Z</time>
      </trkpt>
      <trkpt lat="45.33884" lon="6.18663">
        <ele>2324.1999511719</ele>
        <time>2014-03-02T14:53:31.000Z</time>
      </trkpt>
      <trkpt lat="45.33882" lon="6.18664">
        <ele>2323.3999023438</ele>
        <time>2014-03-02T14:53:32.000Z</time>
      </trkpt>
      <trkpt lat="45.33881" lon="6.18665">
        <ele>2323</ele>
        <time>2014-03-02T14:53:33.000Z</time>
      </trkpt>
      <trkpt lat="45.3388" lon="6.18665">
        <ele>2322.6000976562</ele>
        <time>2014-03-02T14:53:34.000Z</time>
      </trkpt>
      <trkpt lat="45.33879" lon="6.18666">
        <ele>2322.1999511719</ele>
        <time>2014-03-02T14:53:35.000Z</time>
      </trkpt>
      <trkpt lat="45.33878" lon="6.18667">
        <ele>2321.8000488281</ele>
        <time>2014-03-02T14:53:36.000Z</time>
      </trkpt>
      <trkpt lat="45.33876" lon="6.18668">
        <ele>2321.3999023438</ele>
        <time>2014-03-02T14:53:37.000Z</time>
      </trkpt>
      <trkpt lat="45.33874" lon="6.18669">
        <ele>2320.3999023438</ele>
        <time>2014-03-02T14:53:38.000Z</time>
      </trkpt>
      <trkpt lat="45.33872" lon="6.18671">
        <ele>2319.8000488281</ele>
        <time>2014-03-02T14:53:39.000Z</time>
      </trkpt>
      <trkpt lat="45.33869" lon="6.18673">
        <ele>2318.8000488281</ele>
        <time>2014-03-02T14:53:40.000Z</time>
      </trkpt>
      <trkpt lat="45.33865" lon="6.18675">
        <ele>2317.6000976562</ele>
        <time>2014-03-02T14:53:41.000Z</time>
      </trkpt>
      <trkpt lat="45.33862" lon="6.18678">
        <ele>2316.6000976562</ele>
        <time>2014-03-02T14:53:42.000Z</time>
      </trkpt>
      <trkpt lat="45.3386" lon="6.18679">
        <ele>2316</ele>
        <time>2014-03-02T14:53:43.000Z</time>
      </trkpt>
      <trkpt lat="45.33858" lon="6.18681">
        <ele>2315.3999023438</ele>
        <time>2014-03-02T14:53:44.000Z</time>
      </trkpt>
      <trkpt lat="45.33857" lon="6.18682">
        <ele>2314.8000488281</ele>
        <time>2014-03-02T14:53:45.000Z</time>
      </trkpt>
      <trkpt lat="45.33855" lon="6.18683">
        <ele>2314.3999023438</ele>
        <time>2014-03-02T14:53:46.000Z</time>
      </trkpt>
      <trkpt lat="45.33854" lon="6.18683">
        <ele>2313.8000488281</ele>
        <time>2014-03-02T14:53:47.000Z</time>
      </trkpt>
      <trkpt lat="45.33852" lon="6.18684">
        <ele>2313.3999023438</ele>
        <time>2014-03-02T14:53:48.000Z</time>
      </trkpt>
      <trkpt lat="45.33851" lon="6.18685">
        <ele>2313</ele>
        <time>2014-03-02T14:53:49.000Z</time>
      </trkpt>
      <trkpt lat="45.3385" lon="6.18686">
        <ele>2312.6000976562</ele>
        <time>2014-03-02T14:53:50.000Z</time>
      </trkpt>
      <trkpt lat="45.33848" lon="6.18687">
        <ele>2312</ele>
        <time>2014-03-02T14:53:51.000Z</time>
      </trkpt>
      <trkpt lat="45.33848" lon="6.18687">
        <ele>2311.8000488281</ele>
        <time>2014-03-02T14:53:52.000Z</time>
      </trkpt>
      <trkpt lat="45.33846" lon="6.18688">
        <ele>2311.3999023438</ele>
        <time>2014-03-02T14:53:53.000Z</time>
      </trkpt>
      <trkpt lat="45.33845" lon="6.18689">
        <ele>2311</ele>
        <time>2014-03-02T14:53:54.000Z</time>
      </trkpt>
      <trkpt lat="45.33844" lon="6.1869">
        <ele>2310.6000976562</ele>
        <time>2014-03-02T14:53:55.000Z</time>
      </trkpt>
      <trkpt lat="45.33842" lon="6.18691">
        <ele>2310.1999511719</ele>
        <time>2014-03-02T14:53:56.000Z</time>
      </trkpt>
      <trkpt lat="45.33841" lon="6.18692">
        <ele>2309.8000488281</ele>
        <time>2014-03-02T14:53:57.000Z</time>
      </trkpt>
      <trkpt lat="45.3384" lon="6.18693">
        <ele>2309.6000976562</ele>
        <time>2014-03-02T14:53:58.000Z</time>
      </trkpt>
      <trkpt lat="45.33839" lon="6.18694">
        <ele>2309.3999023438</ele>
        <time>2014-03-02T14:53:59.000Z</time>
      </trkpt>
      <trkpt lat="45.33838" lon="6.18695">
        <ele>2309.3999023438</ele>
        <time>2014-03-02T14:54:00.000Z</time>
      </trkpt>
      <trkpt lat="45.33837" lon="6.18696">
        <ele>2309.1999511719</ele>
        <time>2014-03-02T14:54:01.000Z</time>
      </trkpt>
      <trkpt lat="45.33836" lon="6.18696">
        <ele>2309</ele>
        <time>2014-03-02T14:54:02.000Z</time>
      </trkpt>
      <trkpt lat="45.33836" lon="6.18697">
        <ele>2308.8000488281</ele>
        <time>2014-03-02T14:54:03.000Z</time>
      </trkpt>
      <trkpt lat="45.33835" lon="6.18698">
        <ele>2308.8000488281</ele>
        <time>2014-03-02T14:54:04.000Z</time>
      </trkpt>
      <trkpt lat="45.33833" lon="6.18698">
        <ele>2308.3999023438</ele>
        <time>2014-03-02T14:54:05.000Z</time>
      </trkpt>
      <trkpt lat="45.33833" lon="6.18699">
        <ele>2308.3999023438</ele>
        <time>2014-03-02T14:54:06.000Z</time>
      </trkpt>
      <trkpt lat="45.33833" lon="6.18699">
        <ele>2308.3999023438</ele>
        <time>2014-03-02T14:54:07.000Z</time>
      </trkpt>
      <trkpt lat="45.33831" lon="6.187">
        <ele>2308.1999511719</ele>
        <time>2014-03-02T14:54:08.000Z</time>
      </trkpt>
      <trkpt lat="45.33831" lon="6.187">
        <ele>2308.1999511719</ele>
        <time>2014-03-02T14:54:09.000Z</time>
      </trkpt>
      <trkpt lat="45.3383" lon="6.18702">
        <ele>2307.8000488281</ele>
        <time>2014-03-02T14:54:10.000Z</time>
      </trkpt>
      <trkpt lat="45.3383" lon="6.18701">
        <ele>2307.8000488281</ele>
        <time>2014-03-02T14:54:11.000Z</time>
      </trkpt>
      <trkpt lat="45.33829" lon="6.18702">
        <ele>2307.8000488281</ele>
        <time>2014-03-02T14:54:12.000Z</time>
      </trkpt>
      <trkpt lat="45.33828" lon="6.18703">
        <ele>2307.6000976562</ele>
        <time>2014-03-02T14:54:13.000Z</time>
      </trkpt>
      <trkpt lat="45.33828" lon="6.18704">
        <ele>2307.6000976562</ele>
        <time>2014-03-02T14:54:14.000Z</time>
      </trkpt>
      <trkpt lat="45.33827" lon="6.18705">
        <ele>2307.3999023438</ele>
        <time>2014-03-02T14:54:15.000Z</time>
      </trkpt>
      <trkpt lat="45.33827" lon="6.18705">
        <ele>2307.3999023438</ele>
        <time>2014-03-02T14:54:16.000Z</time>
      </trkpt>
      <trkpt lat="45.33825" lon="6.18707">
        <ele>2307</ele>
        <time>2014-03-02T14:54:17.000Z</time>
      </trkpt>
      <trkpt lat="45.33824" lon="6.18707">
        <ele>2306.8000488281</ele>
        <time>2014-03-02T14:54:18.000Z</time>
      </trkpt>
      <trkpt lat="45.33823" lon="6.18708">
        <ele>2306.6000976562</ele>
        <time>2014-03-02T14:54:19.000Z</time>
      </trkpt>
      <trkpt lat="45.33823" lon="6.18708">
        <ele>2306.6000976562</ele>
        <time>2014-03-02T14:54:20.000Z</time>
      </trkpt>
      <trkpt lat="45.33821" lon="6.18709">
        <ele>2306.1999511719</ele>
        <time>2014-03-02T14:54:21.000Z</time>
      </trkpt>
      <trkpt lat="45.33821" lon="6.1871">
        <ele>2306.1999511719</ele>
        <time>2014-03-02T14:54:22.000Z</time>
      </trkpt>
      <trkpt lat="45.3382" lon="6.1871">
        <ele>2306.1999511719</ele>
        <time>2014-03-02T14:54:23.000Z</time>
      </trkpt>
      <trkpt lat="45.33818" lon="6.18712">
        <ele>2305.8000488281</ele>
        <time>2014-03-02T14:54:24.000Z</time>
      </trkpt>
      <trkpt lat="45.33818" lon="6.18711">
        <ele>2305.8000488281</ele>
        <time>2014-03-02T14:54:25.000Z</time>
      </trkpt>
      <trkpt lat="45.33818" lon="6.18712">
        <ele>2305.8000488281</ele>
        <time>2014-03-02T14:54:26.000Z</time>
      </trkpt>
      <trkpt lat="45.33816" lon="6.18712">
        <ele>2305.3999023438</ele>
        <time>2014-03-02T14:54:27.000Z</time>
      </trkpt>
      <trkpt lat="45.33816" lon="6.18712">
        <ele>2305.3999023438</ele>
        <time>2014-03-02T14:54:28.000Z</time>
      </trkpt>
      <trkpt lat="45.33815" lon="6.18713">
        <ele>2305.1999511719</ele>
        <time>2014-03-02T14:54:29.000Z</time>
      </trkpt>
      <trkpt lat="45.33814" lon="6.18713">
        <ele>2304.8000488281</ele>
        <time>2014-03-02T14:54:30.000Z</time>
      </trkpt>
      <trkpt lat="45.33814" lon="6.18713">
        <ele>2304.8000488281</ele>
        <time>2014-03-02T14:54:31.000Z</time>
      </trkpt>
      <trkpt lat="45.33812" lon="6.18714">
        <ele>2304.3999023438</ele>
        <time>2014-03-02T14:54:32.000Z</time>
      </trkpt>
      <trkpt lat="45.33812" lon="6.18714">
        <ele>2304.3999023438</ele>
        <time>2014-03-02T14:54:33.000Z</time>
      </trkpt>
      <trkpt lat="45.33811" lon="6.18714">
        <ele>2304.1999511719</ele>
        <time>2014-03-02T14:54:34.000Z</time>
      </trkpt>
      <trkpt lat="45.3381" lon="6.18715">
        <ele>2304</ele>
        <time>2014-03-02T14:54:35.000Z</time>
      </trkpt>
      <trkpt lat="45.3381" lon="6.18715">
        <ele>2304</ele>
        <time>2014-03-02T14:54:36.000Z</time>
      </trkpt>
      <trkpt lat="45.33808" lon="6.18717">
        <ele>2303.8000488281</ele>
        <time>2014-03-02T14:54:37.000Z</time>
      </trkpt>
      <trkpt lat="45.33808" lon="6.18717">
        <ele>2303.8000488281</ele>
        <time>2014-03-02T14:54:38.000Z</time>
      </trkpt>
      <trkpt lat="45.33807" lon="6.18717">
        <ele>2303.6000976562</ele>
        <time>2014-03-02T14:54:39.000Z</time>
      </trkpt>
      <trkpt lat="45.33806" lon="6.18719">
        <ele>2303.3999023438</ele>
        <time>2014-03-02T14:54:40.000Z</time>
      </trkpt>
      <trkpt lat="45.33805" lon="6.1872">
        <ele>2303.3999023438</ele>
        <time>2014-03-02T14:54:41.000Z</time>
      </trkpt>
      <trkpt lat="45.33805" lon="6.18721">
        <ele>2303.1999511719</ele>
        <time>2014-03-02T14:54:42.000Z</time>
      </trkpt>
      <trkpt lat="45.33804" lon="6.18722">
        <ele>2303.1999511719</ele>
        <time>2014-03-02T14:54:43.000Z</time>
      </trkpt>
      <trkpt lat="45.33803" lon="6.18723">
        <ele>2303</ele>
        <time>2014-03-02T14:54:45.000Z</time>
      </trkpt>
      <trkpt lat="45.33803" lon="6.18723">
        <ele>2303</ele>
        <time>2014-03-02T14:54:46.000Z</time>
      </trkpt>
      <trkpt lat="45.33803" lon="6.18724">
        <ele>2303</ele>
        <time>2014-03-02T14:54:47.000Z</time>
      </trkpt>
      <trkpt lat="45.33802" lon="6.18724">
        <ele>2303</ele>
        <time>2014-03-02T14:54:48.000Z</time>
      </trkpt>
      <trkpt lat="45.33802" lon="6.18725">
        <ele>2302.8000488281</ele>
        <time>2014-03-02T14:54:49.000Z</time>
      </trkpt>
      <trkpt lat="45.33801" lon="6.18726">
        <ele>2302.8000488281</ele>
        <time>2014-03-02T14:54:50.000Z</time>
      </trkpt>
      <trkpt lat="45.33801" lon="6.18726">
        <ele>2302.8000488281</ele>
        <time>2014-03-02T14:54:51.000Z</time>
      </trkpt>
      <trkpt lat="45.338" lon="6.18728">
        <ele>2302.6000976562</ele>
        <time>2014-03-02T14:54:52.000Z</time>
      </trkpt>
      <trkpt lat="45.33799" lon="6.18729">
        <ele>2302.3999023438</ele>
        <time>2014-03-02T14:54:53.000Z</time>
      </trkpt>
      <trkpt lat="45.33798" lon="6.1873">
        <ele>2302.3999023438</ele>
        <time>2014-03-02T14:54:54.000Z</time>
      </trkpt>
      <trkpt lat="45.33797" lon="6.18731">
        <ele>2302.3999023438</ele>
        <time>2014-03-02T14:54:55.000Z</time>
      </trkpt>
      <trkpt lat="45.33796" lon="6.18733">
        <ele>2302.3999023438</ele>
        <time>2014-03-02T14:54:56.000Z</time>
      </trkpt>
      <trkpt lat="45.33795" lon="6.18733">
        <ele>2302.1999511719</ele>
        <time>2014-03-02T14:54:57.000Z</time>
      </trkpt>
      <trkpt lat="45.33794" lon="6.18734">
        <ele>2302.1999511719</ele>
        <time>2014-03-02T14:54:58.000Z</time>
      </trkpt>
      <trkpt lat="45.33793" lon="6.18735">
        <ele>2302</ele>
        <time>2014-03-02T14:54:59.000Z</time>
      </trkpt>
      <trkpt lat="45.33792" lon="6.18736">
        <ele>2302</ele>
        <time>2014-03-02T14:55:00.000Z</time>
      </trkpt>
      <trkpt lat="45.33791" lon="6.18738">
        <ele>2302</ele>
        <time>2014-03-02T14:55:01.000Z</time>
      </trkpt>
      <trkpt lat="45.33791" lon="6.18738">
        <ele>2302</ele>
        <time>2014-03-02T14:55:02.000Z</time>
      </trkpt>
      <trkpt lat="45.33791" lon="6.18739">
        <ele>2302</ele>
        <time>2014-03-02T14:55:03.000Z</time>
      </trkpt>
      <trkpt lat="45.33789" lon="6.18741">
        <ele>2302</ele>
        <time>2014-03-02T14:55:04.000Z</time>
      </trkpt>
      <trkpt lat="45.33789" lon="6.18742">
        <ele>2302</ele>
        <time>2014-03-02T14:55:05.000Z</time>
      </trkpt>
      <trkpt lat="45.33788" lon="6.18743">
        <ele>2302</ele>
        <time>2014-03-02T14:55:06.000Z</time>
      </trkpt>
      <trkpt lat="45.33787" lon="6.18744">
        <ele>2302</ele>
        <time>2014-03-02T14:55:07.000Z</time>
      </trkpt>
      <trkpt lat="45.33786" lon="6.18745">
        <ele>2302</ele>
        <time>2014-03-02T14:55:08.000Z</time>
      </trkpt>
      <trkpt lat="45.33786" lon="6.18746">
        <ele>2302</ele>
        <time>2014-03-02T14:55:09.000Z</time>
      </trkpt>
      <trkpt lat="45.33785" lon="6.18747">
        <ele>2301.8000488281</ele>
        <time>2014-03-02T14:55:10.000Z</time>
      </trkpt>
      <trkpt lat="45.33785" lon="6.18747">
        <ele>2302</ele>
        <time>2014-03-02T14:55:11.000Z</time>
      </trkpt>
      <trkpt lat="45.33784" lon="6.18748">
        <ele>2301.8000488281</ele>
        <time>2014-03-02T14:55:12.000Z</time>
      </trkpt>
      <trkpt lat="45.33784" lon="6.18749">
        <ele>2301.8000488281</ele>
        <time>2014-03-02T14:55:13.000Z</time>
      </trkpt>
      <trkpt lat="45.33783" lon="6.1875">
        <ele>2302</ele>
        <time>2014-03-02T14:55:14.000Z</time>
      </trkpt>
      <trkpt lat="45.33783" lon="6.1875">
        <ele>2302</ele>
        <time>2014-03-02T14:55:15.000Z</time>
      </trkpt>
      <trkpt lat="45.33782" lon="6.18751">
        <ele>2301.8000488281</ele>
        <time>2014-03-02T14:55:16.000Z</time>
      </trkpt>
      <trkpt lat="45.33781" lon="6.18752">
        <ele>2301.8000488281</ele>
        <time>2014-03-02T14:55:17.000Z</time>
      </trkpt>
      <trkpt lat="45.33781" lon="6.18752">
        <ele>2301.8000488281</ele>
        <time>2014-03-02T14:55:18.000Z</time>
      </trkpt>
      <trkpt lat="45.3378" lon="6.18753">
        <ele>2301.8000488281</ele>
        <time>2014-03-02T14:55:19.000Z</time>
      </trkpt>
      <trkpt lat="45.3378" lon="6.18754">
        <ele>2301.8000488281</ele>
        <time>2014-03-02T14:55:20.000Z</time>
      </trkpt>
      <trkpt lat="45.3378" lon="6.18754">
        <ele>2301.8000488281</ele>
        <time>2014-03-02T14:55:21.000Z</time>
      </trkpt>
      <trkpt lat="45.33779" lon="6.18754">
        <ele>2301.6000976562</ele>
        <time>2014-03-02T14:55:22.000Z</time>
      </trkpt>
      <trkpt lat="45.33778" lon="6.18755">
        <ele>2301.6000976562</ele>
        <time>2014-03-02T14:55:23.000Z</time>
      </trkpt>
      <trkpt lat="45.33778" lon="6.18755">
        <ele>2301.3999023438</ele>
        <time>2014-03-02T14:55:24.000Z</time>
      </trkpt>
      <trkpt lat="45.33776" lon="6.18756">
        <ele>2301.1999511719</ele>
        <time>2014-03-02T14:55:25.000Z</time>
      </trkpt>
      <trkpt lat="45.33775" lon="6.18757">
        <ele>2301.1999511719</ele>
        <time>2014-03-02T14:55:28.000Z</time>
      </trkpt>
      <trkpt lat="45.33774" lon="6.18759">
        <ele>2301</ele>
        <time>2014-03-02T14:55:29.000Z</time>
      </trkpt>
      <trkpt lat="45.33773" lon="6.1876">
        <ele>2301.1999511719</ele>
        <time>2014-03-02T14:55:30.000Z</time>
      </trkpt>
      <trkpt lat="45.33773" lon="6.1876">
        <ele>2301</ele>
        <time>2014-03-02T14:55:31.000Z</time>
      </trkpt>
      <trkpt lat="45.33771" lon="6.1876">
        <ele>2300.8000488281</ele>
        <time>2014-03-02T14:55:34.000Z</time>
      </trkpt>
      <trkpt lat="45.33771" lon="6.1876">
        <ele>2300.8000488281</ele>
        <time>2014-03-02T14:55:35.000Z</time>
      </trkpt>
      <trkpt lat="45.33771" lon="6.1876">
        <ele>2300.8000488281</ele>
        <time>2014-03-02T14:55:36.000Z</time>
      </trkpt>
      <trkpt lat="45.33771" lon="6.1876">
        <ele>2300.8000488281</ele>
        <time>2014-03-02T14:55:37.000Z</time>
      </trkpt>
      <trkpt lat="45.33771" lon="6.1876">
        <ele>2300.8000488281</ele>
        <time>2014-03-02T14:55:38.000Z</time>
      </trkpt>
      <trkpt lat="45.33771" lon="6.18761">
        <ele>2300.8000488281</ele>
        <time>2014-03-02T14:55:39.000Z</time>
      </trkpt>
      <trkpt lat="45.3377" lon="6.18762">
        <ele>2300.6000976562</ele>
        <time>2014-03-02T14:55:40.000Z</time>
      </trkpt>
      <trkpt lat="45.33769" lon="6.18763">
        <ele>2300.6000976562</ele>
        <time>2014-03-02T14:55:41.000Z</time>
      </trkpt>
      <trkpt lat="45.33769" lon="6.18764">
        <ele>2300.8000488281</ele>
        <time>2014-03-02T14:55:42.000Z</time>
      </trkpt>
      <trkpt lat="45.33768" lon="6.18765">
        <ele>2300.6000976562</ele>
        <time>2014-03-02T14:55:43.000Z</time>
      </trkpt>
      <trkpt lat="45.33767" lon="6.18766">
        <ele>2300.6000976562</ele>
        <time>2014-03-02T14:55:44.000Z</time>
      </trkpt>
      <trkpt lat="45.33766" lon="6.18768">
        <ele>2300.6000976562</ele>
        <time>2014-03-02T14:55:45.000Z</time>
      </trkpt>
      <trkpt lat="45.33765" lon="6.18769">
        <ele>2300.6000976562</ele>
        <time>2014-03-02T14:55:46.000Z</time>
      </trkpt>
      <trkpt lat="45.33764" lon="6.1877">
        <ele>2300.6000976562</ele>
        <time>2014-03-02T14:55:47.000Z</time>
      </trkpt>
      <trkpt lat="45.33764" lon="6.18771">
        <ele>2300.6000976562</ele>
        <time>2014-03-02T14:55:48.000Z</time>
      </trkpt>
      <trkpt lat="45.33763" lon="6.18772">
        <ele>2300.6000976562</ele>
        <time>2014-03-02T14:55:49.000Z</time>
      </trkpt>
      <trkpt lat="45.33763" lon="6.18773">
        <ele>2300.6000976562</ele>
        <time>2014-03-02T14:55:50.000Z</time>
      </trkpt>
      <trkpt lat="45.33763" lon="6.18773">
        <ele>2300.8000488281</ele>
        <time>2014-03-02T14:55:51.000Z</time>
      </trkpt>
      <trkpt lat="45.33763" lon="6.18773">
        <ele>2300.8000488281</ele>
        <time>2014-03-02T14:55:52.000Z</time>
      </trkpt>
      <trkpt lat="45.33763" lon="6.18773">
        <ele>2300.8000488281</ele>
        <time>2014-03-02T14:55:53.000Z</time>
      </trkpt>
      <trkpt lat="45.33763" lon="6.18773">
        <ele>2300.8000488281</ele>
        <time>2014-03-02T14:55:54.000Z</time>
      </trkpt>
      <trkpt lat="45.33763" lon="6.18773">
        <ele>2300.8000488281</ele>
        <time>2014-03-02T14:55:55.000Z</time>
      </trkpt>
      <trkpt lat="45.33763" lon="6.18773">
        <ele>2300.8000488281</ele>
        <time>2014-03-02T14:55:56.000Z</time>
      </trkpt>
      <trkpt lat="45.33763" lon="6.18773">
        <ele>2300.8000488281</ele>
        <time>2014-03-02T14:55:57.000Z</time>
      </trkpt>
      <trkpt lat="45.3376" lon="6.18773">
        <ele>2300.1999511719</ele>
        <time>2014-03-02T14:55:58.000Z</time>
      </trkpt>
      <trkpt lat="45.33758" lon="6.18773">
        <ele>2299.3999023438</ele>
        <time>2014-03-02T14:55:59.000Z</time>
      </trkpt>
      <trkpt lat="45.33754" lon="6.18771">
        <ele>2298.3999023438</ele>
        <time>2014-03-02T14:56:00.000Z</time>
      </trkpt>
      <trkpt lat="45.3375" lon="6.18769">
        <ele>2297.3999023438</ele>
        <time>2014-03-02T14:56:01.000Z</time>
      </trkpt>
      <trkpt lat="45.33745" lon="6.18767">
        <ele>2296</ele>
        <time>2014-03-02T14:56:02.000Z</time>
      </trkpt>
      <trkpt lat="45.33739" lon="6.18766">
        <ele>2294.8000488281</ele>
        <time>2014-03-02T14:56:03.000Z</time>
      </trkpt>
      <trkpt lat="45.33734" lon="6.18765">
        <ele>2293.8000488281</ele>
        <time>2014-03-02T14:56:04.000Z</time>
      </trkpt>
      <trkpt lat="45.3373" lon="6.18764">
        <ele>2292.8000488281</ele>
        <time>2014-03-02T14:56:05.000Z</time>
      </trkpt>
      <trkpt lat="45.33726" lon="6.18763">
        <ele>2291.8000488281</ele>
        <time>2014-03-02T14:56:06.000Z</time>
      </trkpt>
      <trkpt lat="45.33723" lon="6.18763">
        <ele>2291.3999023438</ele>
        <time>2014-03-02T14:56:07.000Z</time>
      </trkpt>
      <trkpt lat="45.33722" lon="6.18763">
        <ele>2291.1999511719</ele>
        <time>2014-03-02T14:56:08.000Z</time>
      </trkpt>
      <trkpt lat="45.33722" lon="6.18763">
        <ele>2291.1999511719</ele>
        <time>2014-03-02T14:56:09.000Z</time>
      </trkpt>
      <trkpt lat="45.33722" lon="6.18763">
        <ele>2291.1999511719</ele>
        <time>2014-03-02T14:56:10.000Z</time>
      </trkpt>
      <trkpt lat="45.33722" lon="6.18763">
        <ele>2291.1999511719</ele>
        <time>2014-03-02T14:56:11.000Z</time>
      </trkpt>
      <trkpt lat="45.33722" lon="6.18763">
        <ele>2291.1999511719</ele>
        <time>2014-03-02T14:56:12.000Z</time>
      </trkpt>
      <trkpt lat="45.33722" lon="6.18763">
        <ele>2291.1999511719</ele>
        <time>2014-03-02T14:56:13.000Z</time>
      </trkpt>
      <trkpt lat="45.33722" lon="6.18763">
        <ele>2291.1999511719</ele>
        <time>2014-03-02T14:56:14.000Z</time>
      </trkpt>
      <trkpt lat="45.33722" lon="6.18763">
        <ele>2291.1999511719</ele>
        <time>2014-03-02T14:56:15.000Z</time>
      </trkpt>
      <trkpt lat="45.33722" lon="6.18763">
        <ele>2291.1999511719</ele>
        <time>2014-03-02T14:56:16.000Z</time>
      </trkpt>
      <trkpt lat="45.33722" lon="6.18763">
        <ele>2291.1999511719</ele>
        <time>2014-03-02T14:56:17.000Z</time>
      </trkpt>
      <trkpt lat="45.33722" lon="6.18763">
        <ele>2291.1999511719</ele>
        <time>2014-03-02T14:56:18.000Z</time>
      </trkpt>
      <trkpt lat="45.33722" lon="6.18763">
        <ele>2291.1999511719</ele>
        <time>2014-03-02T14:56:19.000Z</time>
      </trkpt>
      <trkpt lat="45.33722" lon="6.18763">
        <ele>2291.1999511719</ele>
        <time>2014-03-02T14:56:20.000Z</time>
      </trkpt>
      <trkpt lat="45.33722" lon="6.18763">
        <ele>2291.1999511719</ele>
        <time>2014-03-02T14:56:21.000Z</time>
      </trkpt>
      <trkpt lat="45.33722" lon="6.18763">
        <ele>2291.1999511719</ele>
        <time>2014-03-02T14:56:23.000Z</time>
      </trkpt>
      <trkpt lat="45.33722" lon="6.18763">
        <ele>2291.1999511719</ele>
        <time>2014-03-02T14:56:24.000Z</time>
      </trkpt>
      <trkpt lat="45.33722" lon="6.18763">
        <ele>2291.1999511719</ele>
        <time>2014-03-02T14:56:25.000Z</time>
      </trkpt>
      <trkpt lat="45.33722" lon="6.18763">
        <ele>2291.1999511719</ele>
        <time>2014-03-02T14:56:26.000Z</time>
      </trkpt>
      <trkpt lat="45.33722" lon="6.18763">
        <ele>2291.1999511719</ele>
        <time>2014-03-02T14:56:27.000Z</time>
      </trkpt>
      <trkpt lat="45.33722" lon="6.18763">
        <ele>2291.1999511719</ele>
        <time>2014-03-02T14:56:28.000Z</time>
      </trkpt>
      <trkpt lat="45.33722" lon="6.18763">
        <ele>2291.1999511719</ele>
        <time>2014-03-02T14:56:29.000Z</time>
      </trkpt>
      <trkpt lat="45.33722" lon="6.18763">
        <ele>2291.1999511719</ele>
        <time>2014-03-02T14:56:30.000Z</time>
      </trkpt>
      <trkpt lat="45.33722" lon="6.18763">
        <ele>2291.1999511719</ele>
        <time>2014-03-02T14:56:31.000Z</time>
      </trkpt>
      <trkpt lat="45.33722" lon="6.18763">
        <ele>2291.1999511719</ele>
        <time>2014-03-02T14:56:32.000Z</time>
      </trkpt>
      <trkpt lat="45.33722" lon="6.18763">
        <ele>2291.1999511719</ele>
        <time>2014-03-02T14:56:33.000Z</time>
      </trkpt>
      <trkpt lat="45.33722" lon="6.18763">
        <ele>2291.1999511719</ele>
        <time>2014-03-02T14:56:34.000Z</time>
      </trkpt>
      <trkpt lat="45.33722" lon="6.18763">
        <ele>2291.1999511719</ele>
        <time>2014-03-02T14:56:35.000Z</time>
      </trkpt>
      <trkpt lat="45.33722" lon="6.18763">
        <ele>2291.1999511719</ele>
        <time>2014-03-02T14:56:36.000Z</time>
      </trkpt>
      <trkpt lat="45.33722" lon="6.18763">
        <ele>2291.1999511719</ele>
        <time>2014-03-02T14:56:37.000Z</time>
      </trkpt>
      <trkpt lat="45.33722" lon="6.18763">
        <ele>2291.1999511719</ele>
        <time>2014-03-02T14:56:38.000Z</time>
      </trkpt>
      <trkpt lat="45.33722" lon="6.18763">
        <ele>2291.1999511719</ele>
        <time>2014-03-02T14:56:39.000Z</time>
      </trkpt>
      <trkpt lat="45.33722" lon="6.18763">
        <ele>2291.1999511719</ele>
        <time>2014-03-02T14:56:40.000Z</time>
      </trkpt>
      <trkpt lat="45.33722" lon="6.18763">
        <ele>2291.1999511719</ele>
        <time>2014-03-02T14:56:41.000Z</time>
      </trkpt>
      <trkpt lat="45.33722" lon="6.18763">
        <ele>2291.1999511719</ele>
        <time>2014-03-02T14:56:42.000Z</time>
      </trkpt>
      <trkpt lat="45.33722" lon="6.18763">
        <ele>2291.1999511719</ele>
        <time>2014-03-02T14:56:43.000Z</time>
      </trkpt>
      <trkpt lat="45.33722" lon="6.18763">
        <ele>2291.1999511719</ele>
        <time>2014-03-02T14:56:47.000Z</time>
      </trkpt>
      <trkpt lat="45.3372" lon="6.18764">
        <ele>2291.1999511719</ele>
        <time>2014-03-02T14:56:48.000Z</time>
      </trkpt>
      <trkpt lat="45.3372" lon="6.18764">
        <ele>2291.1999511719</ele>
        <time>2014-03-02T14:56:49.000Z</time>
      </trkpt>
      <trkpt lat="45.3372" lon="6.18764">
        <ele>2291.1999511719</ele>
        <time>2014-03-02T14:56:50.000Z</time>
      </trkpt>
      <trkpt lat="45.3372" lon="6.18764">
        <ele>2291.1999511719</ele>
        <time>2014-03-02T14:56:51.000Z</time>
      </trkpt>
      <trkpt lat="45.3372" lon="6.18764">
        <ele>2291.1999511719</ele>
        <time>2014-03-02T14:56:52.000Z</time>
      </trkpt>
      <trkpt lat="45.3372" lon="6.18764">
        <ele>2291.1999511719</ele>
        <time>2014-03-02T14:56:53.000Z</time>
      </trkpt>
      <trkpt lat="45.3372" lon="6.18764">
        <ele>2291.1999511719</ele>
        <time>2014-03-02T14:56:54.000Z</time>
      </trkpt>
      <trkpt lat="45.3372" lon="6.18764">
        <ele>2291.1999511719</ele>
        <time>2014-03-02T14:56:55.000Z</time>
      </trkpt>
      <trkpt lat="45.3372" lon="6.18764">
        <ele>2291.1999511719</ele>
        <time>2014-03-02T14:56:56.000Z</time>
      </trkpt>
      <trkpt lat="45.3372" lon="6.18764">
        <ele>2291.1999511719</ele>
        <time>2014-03-02T14:56:57.000Z</time>
      </trkpt>
      <trkpt lat="45.3372" lon="6.18764">
        <ele>2291.1999511719</ele>
        <time>2014-03-02T14:56:58.000Z</time>
      </trkpt>
      <trkpt lat="45.3372" lon="6.18764">
        <ele>2291.1999511719</ele>
        <time>2014-03-02T14:56:59.000Z</time>
      </trkpt>
      <trkpt lat="45.3372" lon="6.18764">
        <ele>2291.1999511719</ele>
        <time>2014-03-02T14:57:00.000Z</time>
      </trkpt>
      <trkpt lat="45.3372" lon="6.18764">
        <ele>2291.1999511719</ele>
        <time>2014-03-02T14:57:01.000Z</time>
      </trkpt>
      <trkpt lat="45.3372" lon="6.18764">
        <ele>2291.1999511719</ele>
        <time>2014-03-02T14:57:02.000Z</time>
      </trkpt>
      <trkpt lat="45.3372" lon="6.18764">
        <ele>2291.1999511719</ele>
        <time>2014-03-02T14:57:03.000Z</time>
      </trkpt>
      <trkpt lat="45.3372" lon="6.18764">
        <ele>2291.1999511719</ele>
        <time>2014-03-02T14:57:04.000Z</time>
      </trkpt>
      <trkpt lat="45.3372" lon="6.18764">
        <ele>2291.1999511719</ele>
        <time>2014-03-02T14:57:05.000Z</time>
      </trkpt>
      <trkpt lat="45.3372" lon="6.18764">
        <ele>2291.1999511719</ele>
        <time>2014-03-02T14:57:06.000Z</time>
      </trkpt>
      <trkpt lat="45.3372" lon="6.18764">
        <ele>2291.1999511719</ele>
        <time>2014-03-02T14:57:07.000Z</time>
      </trkpt>
      <trkpt lat="45.3372" lon="6.18764">
        <ele>2291.1999511719</ele>
        <time>2014-03-02T14:57:09.000Z</time>
      </trkpt>
      <trkpt lat="45.33719" lon="6.1876">
        <ele>2290.1999511719</ele>
        <time>2014-03-02T14:57:10.000Z</time>
      </trkpt>
      <trkpt lat="45.33718" lon="6.18758">
        <ele>2289.6000976562</ele>
        <time>2014-03-02T14:57:11.000Z</time>
      </trkpt>
      <trkpt lat="45.33716" lon="6.18758">
        <ele>2289</ele>
        <time>2014-03-02T14:57:12.000Z</time>
      </trkpt>
      <trkpt lat="45.33714" lon="6.18757">
        <ele>2288.6000976562</ele>
        <time>2014-03-02T14:57:13.000Z</time>
      </trkpt>
      <trkpt lat="45.33712" lon="6.18756">
        <ele>2288</ele>
        <time>2014-03-02T14:57:14.000Z</time>
      </trkpt>
      <trkpt lat="45.33711" lon="6.18755">
        <ele>2287.3999023438</ele>
        <time>2014-03-02T14:57:15.000Z</time>
      </trkpt>
      <trkpt lat="45.3371" lon="6.18754">
        <ele>2287</ele>
        <time>2014-03-02T14:57:16.000Z</time>
      </trkpt>
      <trkpt lat="45.33708" lon="6.18753">
        <ele>2286.1999511719</ele>
        <time>2014-03-02T14:57:17.000Z</time>
      </trkpt>
      <trkpt lat="45.33706" lon="6.18752">
        <ele>2285.6000976562</ele>
        <time>2014-03-02T14:57:18.000Z</time>
      </trkpt>
      <trkpt lat="45.33705" lon="6.18751">
        <ele>2285</ele>
        <time>2014-03-02T14:57:19.000Z</time>
      </trkpt>
      <trkpt lat="45.33703" lon="6.1875">
        <ele>2284.3999023438</ele>
        <time>2014-03-02T14:57:20.000Z</time>
      </trkpt>
      <trkpt lat="45.33702" lon="6.18749">
        <ele>2283.8000488281</ele>
        <time>2014-03-02T14:57:21.000Z</time>
      </trkpt>
      <trkpt lat="45.33701" lon="6.18748">
        <ele>2283.3999023438</ele>
        <time>2014-03-02T14:57:22.000Z</time>
      </trkpt>
      <trkpt lat="45.337" lon="6.18747">
        <ele>2282.8000488281</ele>
        <time>2014-03-02T14:57:23.000Z</time>
      </trkpt>
      <trkpt lat="45.33699" lon="6.18746">
        <ele>2282.1999511719</ele>
        <time>2014-03-02T14:57:24.000Z</time>
      </trkpt>
      <trkpt lat="45.33697" lon="6.18744">
        <ele>2281.6000976562</ele>
        <time>2014-03-02T14:57:25.000Z</time>
      </trkpt>
      <trkpt lat="45.33696" lon="6.18743">
        <ele>2281</ele>
        <time>2014-03-02T14:57:26.000Z</time>
      </trkpt>
      <trkpt lat="45.33694" lon="6.18742">
        <ele>2280.3999023438</ele>
        <time>2014-03-02T14:57:27.000Z</time>
      </trkpt>
      <trkpt lat="45.33693" lon="6.18741">
        <ele>2279.6000976562</ele>
        <time>2014-03-02T14:57:28.000Z</time>
      </trkpt>
      <trkpt lat="45.33691" lon="6.18739">
        <ele>2279</ele>
        <time>2014-03-02T14:57:29.000Z</time>
      </trkpt>
      <trkpt lat="45.33689" lon="6.18738">
        <ele>2278.1999511719</ele>
        <time>2014-03-02T14:57:30.000Z</time>
      </trkpt>
      <trkpt lat="45.33688" lon="6.18736">
        <ele>2277.3999023438</ele>
        <time>2014-03-02T14:57:31.000Z</time>
      </trkpt>
      <trkpt lat="45.33686" lon="6.18734">
        <ele>2276.6000976562</ele>
        <time>2014-03-02T14:57:32.000Z</time>
      </trkpt>
      <trkpt lat="45.33684" lon="6.18733">
        <ele>2276</ele>
        <time>2014-03-02T14:57:33.000Z</time>
      </trkpt>
      <trkpt lat="45.33682" lon="6.18732">
        <ele>2275.1999511719</ele>
        <time>2014-03-02T14:57:34.000Z</time>
      </trkpt>
      <trkpt lat="45.33681" lon="6.18731">
        <ele>2274.8000488281</ele>
        <time>2014-03-02T14:57:35.000Z</time>
      </trkpt>
      <trkpt lat="45.3368" lon="6.18731">
        <ele>2274.6000976562</ele>
        <time>2014-03-02T14:57:36.000Z</time>
      </trkpt>
      <trkpt lat="45.33679" lon="6.18732">
        <ele>2274.1999511719</ele>
        <time>2014-03-02T14:57:37.000Z</time>
      </trkpt>
      <trkpt lat="45.33677" lon="6.18732">
        <ele>2274.1999511719</ele>
        <time>2014-03-02T14:57:38.000Z</time>
      </trkpt>
      <trkpt lat="45.33676" lon="6.18733">
        <ele>2274</ele>
        <time>2014-03-02T14:57:39.000Z</time>
      </trkpt>
      <trkpt lat="45.33676" lon="6.18733">
        <ele>2274</ele>
        <time>2014-03-02T14:57:40.000Z</time>
      </trkpt>
      <trkpt lat="45.33675" lon="6.18734">
        <ele>2274</ele>
        <time>2014-03-02T14:57:41.000Z</time>
      </trkpt>
      <trkpt lat="45.33674" lon="6.18735">
        <ele>2274</ele>
        <time>2014-03-02T14:57:42.000Z</time>
      </trkpt>
      <trkpt lat="45.33673" lon="6.18736">
        <ele>2273.8000488281</ele>
        <time>2014-03-02T14:57:43.000Z</time>
      </trkpt>
      <trkpt lat="45.33672" lon="6.18737">
        <ele>2273.8000488281</ele>
        <time>2014-03-02T14:57:44.000Z</time>
      </trkpt>
      <trkpt lat="45.33671" lon="6.18737">
        <ele>2273.8000488281</ele>
        <time>2014-03-02T14:57:45.000Z</time>
      </trkpt>
      <trkpt lat="45.33671" lon="6.18737">
        <ele>2273.6000976562</ele>
        <time>2014-03-02T14:57:46.000Z</time>
      </trkpt>
      <trkpt lat="45.3367" lon="6.18737">
        <ele>2273.3999023438</ele>
        <time>2014-03-02T14:57:47.000Z</time>
      </trkpt>
      <trkpt lat="45.33669" lon="6.18737">
        <ele>2273.1999511719</ele>
        <time>2014-03-02T14:57:48.000Z</time>
      </trkpt>
      <trkpt lat="45.33668" lon="6.18737">
        <ele>2273</ele>
        <time>2014-03-02T14:57:49.000Z</time>
      </trkpt>
      <trkpt lat="45.33667" lon="6.18738">
        <ele>2272.8000488281</ele>
        <time>2014-03-02T14:57:50.000Z</time>
      </trkpt>
      <trkpt lat="45.33666" lon="6.18738">
        <ele>2272.8000488281</ele>
        <time>2014-03-02T14:57:51.000Z</time>
      </trkpt>
      <trkpt lat="45.33665" lon="6.18738">
        <ele>2272.6000976562</ele>
        <time>2014-03-02T14:57:52.000Z</time>
      </trkpt>
      <trkpt lat="45.33664" lon="6.18739">
        <ele>2272.3999023438</ele>
        <time>2014-03-02T14:57:53.000Z</time>
      </trkpt>
      <trkpt lat="45.33663" lon="6.1874">
        <ele>2272.1999511719</ele>
        <time>2014-03-02T14:57:54.000Z</time>
      </trkpt>
      <trkpt lat="45.33662" lon="6.1874">
        <ele>2272.1999511719</ele>
        <time>2014-03-02T14:57:55.000Z</time>
      </trkpt>
      <trkpt lat="45.33661" lon="6.1874">
        <ele>2272</ele>
        <time>2014-03-02T14:57:56.000Z</time>
      </trkpt>
      <trkpt lat="45.3366" lon="6.1874">
        <ele>2271.8000488281</ele>
        <time>2014-03-02T14:57:57.000Z</time>
      </trkpt>
      <trkpt lat="45.33659" lon="6.18741">
        <ele>2271.6000976562</ele>
        <time>2014-03-02T14:57:58.000Z</time>
      </trkpt>
      <trkpt lat="45.33658" lon="6.18741">
        <ele>2271.3999023438</ele>
        <time>2014-03-02T14:57:59.000Z</time>
      </trkpt>
      <trkpt lat="45.33657" lon="6.18741">
        <ele>2271.1999511719</ele>
        <time>2014-03-02T14:58:00.000Z</time>
      </trkpt>
      <trkpt lat="45.33656" lon="6.18741">
        <ele>2271</ele>
        <time>2014-03-02T14:58:01.000Z</time>
      </trkpt>
      <trkpt lat="45.33655" lon="6.18741">
        <ele>2270.8000488281</ele>
        <time>2014-03-02T14:58:02.000Z</time>
      </trkpt>
      <trkpt lat="45.33654" lon="6.18741">
        <ele>2270.6000976562</ele>
        <time>2014-03-02T14:58:03.000Z</time>
      </trkpt>
      <trkpt lat="45.33654" lon="6.18741">
        <ele>2270.6000976562</ele>
        <time>2014-03-02T14:58:04.000Z</time>
      </trkpt>
      <trkpt lat="45.33653" lon="6.18742">
        <ele>2270.3999023438</ele>
        <time>2014-03-02T14:58:05.000Z</time>
      </trkpt>
      <trkpt lat="45.3365" lon="6.18742">
        <ele>2270</ele>
        <time>2014-03-02T14:58:06.000Z</time>
      </trkpt>
      <trkpt lat="45.33648" lon="6.18742">
        <ele>2269.3999023438</ele>
        <time>2014-03-02T14:58:07.000Z</time>
      </trkpt>
      <trkpt lat="45.33647" lon="6.18743">
        <ele>2269.1999511719</ele>
        <time>2014-03-02T14:58:08.000Z</time>
      </trkpt>
      <trkpt lat="45.33645" lon="6.18743">
        <ele>2269</ele>
        <time>2014-03-02T14:58:09.000Z</time>
      </trkpt>
      <trkpt lat="45.33645" lon="6.18743">
        <ele>2268.8000488281</ele>
        <time>2014-03-02T14:58:10.000Z</time>
      </trkpt>
      <trkpt lat="45.33643" lon="6.18742">
        <ele>2268.3999023438</ele>
        <time>2014-03-02T14:58:11.000Z</time>
      </trkpt>
      <trkpt lat="45.33642" lon="6.18742">
        <ele>2268.1999511719</ele>
        <time>2014-03-02T14:58:12.000Z</time>
      </trkpt>
      <trkpt lat="45.33642" lon="6.18742">
        <ele>2268.1999511719</ele>
        <time>2014-03-02T14:58:13.000Z</time>
      </trkpt>
      <trkpt lat="45.33642" lon="6.18742">
        <ele>2268.1999511719</ele>
        <time>2014-03-02T14:58:14.000Z</time>
      </trkpt>
      <trkpt lat="45.33642" lon="6.18742">
        <ele>2268.1999511719</ele>
        <time>2014-03-02T14:58:15.000Z</time>
      </trkpt>
      <trkpt lat="45.33642" lon="6.18742">
        <ele>2268.1999511719</ele>
        <time>2014-03-02T14:58:16.000Z</time>
      </trkpt>
      <trkpt lat="45.33642" lon="6.18742">
        <ele>2268.1999511719</ele>
        <time>2014-03-02T14:58:17.000Z</time>
      </trkpt>
      <trkpt lat="45.33642" lon="6.18742">
        <ele>2268.1999511719</ele>
        <time>2014-03-02T14:58:18.000Z</time>
      </trkpt>
      <trkpt lat="45.33642" lon="6.18742">
        <ele>2268.1999511719</ele>
        <time>2014-03-02T14:58:19.000Z</time>
      </trkpt>
      <trkpt lat="45.33642" lon="6.18742">
        <ele>2268.1999511719</ele>
        <time>2014-03-02T14:58:21.000Z</time>
      </trkpt>
      <trkpt lat="45.33642" lon="6.18742">
        <ele>2268.1999511719</ele>
        <time>2014-03-02T14:58:22.000Z</time>
      </trkpt>
      <trkpt lat="45.33642" lon="6.18742">
        <ele>2268.1999511719</ele>
        <time>2014-03-02T14:58:23.000Z</time>
      </trkpt>
      <trkpt lat="45.33642" lon="6.18742">
        <ele>2268.1999511719</ele>
        <time>2014-03-02T14:58:24.000Z</time>
      </trkpt>
      <trkpt lat="45.33641" lon="6.18743">
        <ele>2268.1999511719</ele>
        <time>2014-03-02T14:58:25.000Z</time>
      </trkpt>
      <trkpt lat="45.3364" lon="6.18743">
        <ele>2268</ele>
        <time>2014-03-02T14:58:26.000Z</time>
      </trkpt>
      <trkpt lat="45.33639" lon="6.18743">
        <ele>2268</ele>
        <time>2014-03-02T14:58:27.000Z</time>
      </trkpt>
      <trkpt lat="45.33638" lon="6.18743">
        <ele>2267.8000488281</ele>
        <time>2014-03-02T14:58:28.000Z</time>
      </trkpt>
      <trkpt lat="45.33637" lon="6.18743">
        <ele>2267.8000488281</ele>
        <time>2014-03-02T14:58:29.000Z</time>
      </trkpt>
      <trkpt lat="45.33636" lon="6.18743">
        <ele>2267.6000976562</ele>
        <time>2014-03-02T14:58:30.000Z</time>
      </trkpt>
      <trkpt lat="45.33635" lon="6.18743">
        <ele>2267.6000976562</ele>
        <time>2014-03-02T14:58:31.000Z</time>
      </trkpt>
      <trkpt lat="45.33633" lon="6.18743">
        <ele>2267.3999023438</ele>
        <time>2014-03-02T14:58:32.000Z</time>
      </trkpt>
      <trkpt lat="45.33632" lon="6.18743">
        <ele>2267.3999023438</ele>
        <time>2014-03-02T14:58:33.000Z</time>
      </trkpt>
      <trkpt lat="45.33628" lon="6.18744">
        <ele>2267</ele>
        <time>2014-03-02T14:58:37.000Z</time>
      </trkpt>
      <trkpt lat="45.33626" lon="6.18744">
        <ele>2267.1999511719</ele>
        <time>2014-03-02T14:58:38.000Z</time>
      </trkpt>
      <trkpt lat="45.33625" lon="6.18744">
        <ele>2267.1999511719</ele>
        <time>2014-03-02T14:58:39.000Z</time>
      </trkpt>
      <trkpt lat="45.33623" lon="6.18744">
        <ele>2267</ele>
        <time>2014-03-02T14:58:40.000Z</time>
      </trkpt>
      <trkpt lat="45.33621" lon="6.18744">
        <ele>2267</ele>
        <time>2014-03-02T14:58:41.000Z</time>
      </trkpt>
      <trkpt lat="45.33621" lon="6.18744">
        <ele>2266.8000488281</ele>
        <time>2014-03-02T14:58:42.000Z</time>
      </trkpt>
      <trkpt lat="45.3362" lon="6.18744">
        <ele>2266.8000488281</ele>
        <time>2014-03-02T14:58:43.000Z</time>
      </trkpt>
      <trkpt lat="45.33619" lon="6.18744">
        <ele>2266.8000488281</ele>
        <time>2014-03-02T14:58:44.000Z</time>
      </trkpt>
      <trkpt lat="45.33619" lon="6.18744">
        <ele>2266.8000488281</ele>
        <time>2014-03-02T14:58:45.000Z</time>
      </trkpt>
      <trkpt lat="45.33618" lon="6.18743">
        <ele>2266.6000976562</ele>
        <time>2014-03-02T14:58:46.000Z</time>
      </trkpt>
      <trkpt lat="45.33617" lon="6.18742">
        <ele>2266.1999511719</ele>
        <time>2014-03-02T14:58:47.000Z</time>
      </trkpt>
      <trkpt lat="45.33617" lon="6.18741">
        <ele>2266</ele>
        <time>2014-03-02T14:58:48.000Z</time>
      </trkpt>
      <trkpt lat="45.33616" lon="6.18741">
        <ele>2265.8000488281</ele>
        <time>2014-03-02T14:58:50.000Z</time>
      </trkpt>
      <trkpt lat="45.33615" lon="6.18741">
        <ele>2265.8000488281</ele>
        <time>2014-03-02T14:58:51.000Z</time>
      </trkpt>
      <trkpt lat="45.33614" lon="6.18741">
        <ele>2265.6000976562</ele>
        <time>2014-03-02T14:58:52.000Z</time>
      </trkpt>
      <trkpt lat="45.33613" lon="6.1874">
        <ele>2265.3999023438</ele>
        <time>2014-03-02T14:58:53.000Z</time>
      </trkpt>
      <trkpt lat="45.33612" lon="6.1874">
        <ele>2265.1999511719</ele>
        <time>2014-03-02T14:58:54.000Z</time>
      </trkpt>
      <trkpt lat="45.33612" lon="6.18739">
        <ele>2265</ele>
        <time>2014-03-02T14:58:55.000Z</time>
      </trkpt>
      <trkpt lat="45.33611" lon="6.18739">
        <ele>2265</ele>
        <time>2014-03-02T14:58:56.000Z</time>
      </trkpt>
      <trkpt lat="45.33611" lon="6.18739">
        <ele>2264.8000488281</ele>
        <time>2014-03-02T14:58:57.000Z</time>
      </trkpt>
      <trkpt lat="45.3361" lon="6.18738">
        <ele>2264.6000976562</ele>
        <time>2014-03-02T14:58:58.000Z</time>
      </trkpt>
      <trkpt lat="45.33609" lon="6.18738">
        <ele>2264.3999023438</ele>
        <time>2014-03-02T14:59:00.000Z</time>
      </trkpt>
      <trkpt lat="45.33608" lon="6.18737">
        <ele>2264.1999511719</ele>
        <time>2014-03-02T14:59:01.000Z</time>
      </trkpt>
      <trkpt lat="45.33607" lon="6.18737">
        <ele>2264.1999511719</ele>
        <time>2014-03-02T14:59:02.000Z</time>
      </trkpt>
      <trkpt lat="45.33606" lon="6.18737">
        <ele>2264</ele>
        <time>2014-03-02T14:59:03.000Z</time>
      </trkpt>
      <trkpt lat="45.33606" lon="6.18736">
        <ele>2263.8000488281</ele>
        <time>2014-03-02T14:59:04.000Z</time>
      </trkpt>
      <trkpt lat="45.33605" lon="6.18736">
        <ele>2263.6000976562</ele>
        <time>2014-03-02T14:59:05.000Z</time>
      </trkpt>
      <trkpt lat="45.33604" lon="6.18735">
        <ele>2263.1999511719</ele>
        <time>2014-03-02T14:59:06.000Z</time>
      </trkpt>
      <trkpt lat="45.33603" lon="6.18734">
        <ele>2263</ele>
        <time>2014-03-02T14:59:07.000Z</time>
      </trkpt>
      <trkpt lat="45.33602" lon="6.18734">
        <ele>2262.8000488281</ele>
        <time>2014-03-02T14:59:08.000Z</time>
      </trkpt>
      <trkpt lat="45.33601" lon="6.18733">
        <ele>2262.6000976562</ele>
        <time>2014-03-02T14:59:09.000Z</time>
      </trkpt>
      <trkpt lat="45.33601" lon="6.18733">
        <ele>2262.3999023438</ele>
        <time>2014-03-02T14:59:10.000Z</time>
      </trkpt>
      <trkpt lat="45.336" lon="6.18732">
        <ele>2262.1999511719</ele>
        <time>2014-03-02T14:59:11.000Z</time>
      </trkpt>
      <trkpt lat="45.336" lon="6.18731">
        <ele>2262</ele>
        <time>2014-03-02T14:59:12.000Z</time>
      </trkpt>
      <trkpt lat="45.336" lon="6.18731">
        <ele>2261.8000488281</ele>
        <time>2014-03-02T14:59:13.000Z</time>
      </trkpt>
      <trkpt lat="45.33599" lon="6.1873">
        <ele>2261.6000976562</ele>
        <time>2014-03-02T14:59:14.000Z</time>
      </trkpt>
      <trkpt lat="45.33599" lon="6.1873">
        <ele>2261.3999023438</ele>
        <time>2014-03-02T14:59:15.000Z</time>
      </trkpt>
      <trkpt lat="45.33598" lon="6.18729">
        <ele>2261.1999511719</ele>
        <time>2014-03-02T14:59:16.000Z</time>
      </trkpt>
      <trkpt lat="45.33597" lon="6.18728">
        <ele>2260.8000488281</ele>
        <time>2014-03-02T14:59:17.000Z</time>
      </trkpt>
      <trkpt lat="45.33597" lon="6.18728">
        <ele>2260.8000488281</ele>
        <time>2014-03-02T14:59:18.000Z</time>
      </trkpt>
      <trkpt lat="45.33596" lon="6.18728">
        <ele>2260.6000976562</ele>
        <time>2014-03-02T14:59:19.000Z</time>
      </trkpt>
      <trkpt lat="45.33596" lon="6.18728">
        <ele>2260.6000976562</ele>
        <time>2014-03-02T14:59:20.000Z</time>
      </trkpt>
      <trkpt lat="45.33595" lon="6.18727">
        <ele>2260.3999023438</ele>
        <time>2014-03-02T14:59:21.000Z</time>
      </trkpt>
      <trkpt lat="45.33595" lon="6.18727">
        <ele>2260.3999023438</ele>
        <time>2014-03-02T14:59:22.000Z</time>
      </trkpt>
      <trkpt lat="45.33594" lon="6.18727">
        <ele>2260.1999511719</ele>
        <time>2014-03-02T14:59:23.000Z</time>
      </trkpt>
      <trkpt lat="45.33593" lon="6.18727">
        <ele>2260.1999511719</ele>
        <time>2014-03-02T14:59:24.000Z</time>
      </trkpt>
      <trkpt lat="45.33592" lon="6.18727">
        <ele>2260.1999511719</ele>
        <time>2014-03-02T14:59:25.000Z</time>
      </trkpt>
      <trkpt lat="45.33591" lon="6.18727">
        <ele>2260.1999511719</ele>
        <time>2014-03-02T14:59:26.000Z</time>
      </trkpt>
      <trkpt lat="45.3359" lon="6.18727">
        <ele>2260.1999511719</ele>
        <time>2014-03-02T14:59:27.000Z</time>
      </trkpt>
      <trkpt lat="45.33589" lon="6.18727">
        <ele>2260.1999511719</ele>
        <time>2014-03-02T14:59:28.000Z</time>
      </trkpt>
      <trkpt lat="45.33588" lon="6.18727">
        <ele>2260.1999511719</ele>
        <time>2014-03-02T14:59:29.000Z</time>
      </trkpt>
      <trkpt lat="45.33587" lon="6.18727">
        <ele>2260</ele>
        <time>2014-03-02T14:59:30.000Z</time>
      </trkpt>
      <trkpt lat="45.33586" lon="6.18727">
        <ele>2260</ele>
        <time>2014-03-02T14:59:31.000Z</time>
      </trkpt>
      <trkpt lat="45.33586" lon="6.18726">
        <ele>2259.8000488281</ele>
        <time>2014-03-02T14:59:32.000Z</time>
      </trkpt>
      <trkpt lat="45.33585" lon="6.18726">
        <ele>2259.6000976562</ele>
        <time>2014-03-02T14:59:33.000Z</time>
      </trkpt>
      <trkpt lat="45.33584" lon="6.18725">
        <ele>2259.3999023438</ele>
        <time>2014-03-02T14:59:34.000Z</time>
      </trkpt>
      <trkpt lat="45.33584" lon="6.18725">
        <ele>2259.1999511719</ele>
        <time>2014-03-02T14:59:35.000Z</time>
      </trkpt>
      <trkpt lat="45.33584" lon="6.18724">
        <ele>2259</ele>
        <time>2014-03-02T14:59:36.000Z</time>
      </trkpt>
      <trkpt lat="45.33584" lon="6.18724">
        <ele>2259</ele>
        <time>2014-03-02T14:59:37.000Z</time>
      </trkpt>
      <trkpt lat="45.33583" lon="6.18724">
        <ele>2259</ele>
        <time>2014-03-02T14:59:38.000Z</time>
      </trkpt>
      <trkpt lat="45.33582" lon="6.18724">
        <ele>2259</ele>
        <time>2014-03-02T14:59:39.000Z</time>
      </trkpt>
      <trkpt lat="45.33582" lon="6.18724">
        <ele>2259</ele>
        <time>2014-03-02T14:59:40.000Z</time>
      </trkpt>
      <trkpt lat="45.33582" lon="6.18724">
        <ele>2258.8000488281</ele>
        <time>2014-03-02T14:59:42.000Z</time>
      </trkpt>
      <trkpt lat="45.33581" lon="6.18723">
        <ele>2258.6000976562</ele>
        <time>2014-03-02T14:59:43.000Z</time>
      </trkpt>
      <trkpt lat="45.3358" lon="6.18722">
        <ele>2258.3999023438</ele>
        <time>2014-03-02T14:59:44.000Z</time>
      </trkpt>
      <trkpt lat="45.33579" lon="6.18722">
        <ele>2258.3999023438</ele>
        <time>2014-03-02T14:59:45.000Z</time>
      </trkpt>
      <trkpt lat="45.33579" lon="6.18722">
        <ele>2258.3999023438</ele>
        <time>2014-03-02T14:59:46.000Z</time>
      </trkpt>
      <trkpt lat="45.33579" lon="6.18722">
        <ele>2258.1999511719</ele>
        <time>2014-03-02T14:59:47.000Z</time>
      </trkpt>
      <trkpt lat="45.33579" lon="6.18722">
        <ele>2258.1999511719</ele>
        <time>2014-03-02T14:59:48.000Z</time>
      </trkpt>
      <trkpt lat="45.33577" lon="6.18721">
        <ele>2257.8000488281</ele>
        <time>2014-03-02T14:59:49.000Z</time>
      </trkpt>
      <trkpt lat="45.33576" lon="6.1872">
        <ele>2257.3999023438</ele>
        <time>2014-03-02T14:59:50.000Z</time>
      </trkpt>
      <trkpt lat="45.33576" lon="6.18718">
        <ele>2257.1999511719</ele>
        <time>2014-03-02T14:59:51.000Z</time>
      </trkpt>
      <trkpt lat="45.33575" lon="6.18718">
        <ele>2257</ele>
        <time>2014-03-02T14:59:52.000Z</time>
      </trkpt>
      <trkpt lat="45.33574" lon="6.18718">
        <ele>2256.8000488281</ele>
        <time>2014-03-02T14:59:53.000Z</time>
      </trkpt>
      <trkpt lat="45.33573" lon="6.18717">
        <ele>2256.6000976562</ele>
        <time>2014-03-02T14:59:54.000Z</time>
      </trkpt>
      <trkpt lat="45.33572" lon="6.18717">
        <ele>2256.3999023438</ele>
        <time>2014-03-02T14:59:55.000Z</time>
      </trkpt>
      <trkpt lat="45.33572" lon="6.18717">
        <ele>2256.3999023438</ele>
        <time>2014-03-02T14:59:56.000Z</time>
      </trkpt>
      <trkpt lat="45.33571" lon="6.18716">
        <ele>2256.3999023438</ele>
        <time>2014-03-02T14:59:57.000Z</time>
      </trkpt>
      <trkpt lat="45.33571" lon="6.18716">
        <ele>2256.3999023438</ele>
        <time>2014-03-02T14:59:58.000Z</time>
      </trkpt>
      <trkpt lat="45.3357" lon="6.18716">
        <ele>2256.1999511719</ele>
        <time>2014-03-02T14:59:59.000Z</time>
      </trkpt>
      <trkpt lat="45.33569" lon="6.18716">
        <ele>2256.1999511719</ele>
        <time>2014-03-02T15:00:00.000Z</time>
      </trkpt>
      <trkpt lat="45.33568" lon="6.18715">
        <ele>2256</ele>
        <time>2014-03-02T15:00:01.000Z</time>
      </trkpt>
      <trkpt lat="45.33567" lon="6.18715">
        <ele>2255.8000488281</ele>
        <time>2014-03-02T15:00:02.000Z</time>
      </trkpt>
      <trkpt lat="45.33565" lon="6.18714">
        <ele>2255.3999023438</ele>
        <time>2014-03-02T15:00:04.000Z</time>
      </trkpt>
      <trkpt lat="45.33564" lon="6.18714">
        <ele>2255.3999023438</ele>
        <time>2014-03-02T15:00:05.000Z</time>
      </trkpt>
      <trkpt lat="45.33563" lon="6.18713">
        <ele>2255.1999511719</ele>
        <time>2014-03-02T15:00:06.000Z</time>
      </trkpt>
      <trkpt lat="45.33563" lon="6.18712">
        <ele>2254.8000488281</ele>
        <time>2014-03-02T15:00:07.000Z</time>
      </trkpt>
      <trkpt lat="45.33562" lon="6.18712">
        <ele>2254.6000976562</ele>
        <time>2014-03-02T15:00:08.000Z</time>
      </trkpt>
      <trkpt lat="45.33561" lon="6.18711">
        <ele>2254.3999023438</ele>
        <time>2014-03-02T15:00:09.000Z</time>
      </trkpt>
      <trkpt lat="45.3356" lon="6.18711">
        <ele>2254.1999511719</ele>
        <time>2014-03-02T15:00:10.000Z</time>
      </trkpt>
      <trkpt lat="45.33559" lon="6.1871">
        <ele>2254</ele>
        <time>2014-03-02T15:00:11.000Z</time>
      </trkpt>
      <trkpt lat="45.33559" lon="6.18709">
        <ele>2253.8000488281</ele>
        <time>2014-03-02T15:00:12.000Z</time>
      </trkpt>
      <trkpt lat="45.33559" lon="6.18709">
        <ele>2253.8000488281</ele>
        <time>2014-03-02T15:00:13.000Z</time>
      </trkpt>
      <trkpt lat="45.33559" lon="6.18709">
        <ele>2253.8000488281</ele>
        <time>2014-03-02T15:00:14.000Z</time>
      </trkpt>
      <trkpt lat="45.33559" lon="6.18709">
        <ele>2253.8000488281</ele>
        <time>2014-03-02T15:00:15.000Z</time>
      </trkpt>
      <trkpt lat="45.33558" lon="6.18709">
        <ele>2253.8000488281</ele>
        <time>2014-03-02T15:00:16.000Z</time>
      </trkpt>
      <trkpt lat="45.33558" lon="6.1871">
        <ele>2253.8000488281</ele>
        <time>2014-03-02T15:00:17.000Z</time>
      </trkpt>
      <trkpt lat="45.33557" lon="6.1871">
        <ele>2253.8000488281</ele>
        <time>2014-03-02T15:00:18.000Z</time>
      </trkpt>
      <trkpt lat="45.33557" lon="6.18709">
        <ele>2253.6000976562</ele>
        <time>2014-03-02T15:00:19.000Z</time>
      </trkpt>
      <trkpt lat="45.33556" lon="6.18709">
        <ele>2253.6000976562</ele>
        <time>2014-03-02T15:00:20.000Z</time>
      </trkpt>
      <trkpt lat="45.33555" lon="6.18709">
        <ele>2253.3999023438</ele>
        <time>2014-03-02T15:00:21.000Z</time>
      </trkpt>
      <trkpt lat="45.33554" lon="6.18708">
        <ele>2253.1999511719</ele>
        <time>2014-03-02T15:00:22.000Z</time>
      </trkpt>
      <trkpt lat="45.33552" lon="6.18707">
        <ele>2253</ele>
        <time>2014-03-02T15:00:23.000Z</time>
      </trkpt>
      <trkpt lat="45.33551" lon="6.18707">
        <ele>2252.6000976562</ele>
        <time>2014-03-02T15:00:24.000Z</time>
      </trkpt>
      <trkpt lat="45.3355" lon="6.18706">
        <ele>2252.3999023438</ele>
        <time>2014-03-02T15:00:25.000Z</time>
      </trkpt>
      <trkpt lat="45.3355" lon="6.18706">
        <ele>2252.6000976562</ele>
        <time>2014-03-02T15:00:26.000Z</time>
      </trkpt>
      <trkpt lat="45.33549" lon="6.18707">
        <ele>2252.6000976562</ele>
        <time>2014-03-02T15:00:27.000Z</time>
      </trkpt>
      <trkpt lat="45.33549" lon="6.18707">
        <ele>2252.6000976562</ele>
        <time>2014-03-02T15:00:28.000Z</time>
      </trkpt>
      <trkpt lat="45.33548" lon="6.18706">
        <ele>2252.3999023438</ele>
        <time>2014-03-02T15:00:29.000Z</time>
      </trkpt>
      <trkpt lat="45.33548" lon="6.18706">
        <ele>2252.3999023438</ele>
        <time>2014-03-02T15:00:30.000Z</time>
      </trkpt>
      <trkpt lat="45.33547" lon="6.18706">
        <ele>2252.3999023438</ele>
        <time>2014-03-02T15:00:31.000Z</time>
      </trkpt>
      <trkpt lat="45.33547" lon="6.18706">
        <ele>2252.3999023438</ele>
        <time>2014-03-02T15:00:32.000Z</time>
      </trkpt>
      <trkpt lat="45.33547" lon="6.18706">
        <ele>2252.3999023438</ele>
        <time>2014-03-02T15:00:33.000Z</time>
      </trkpt>
      <trkpt lat="45.33547" lon="6.18706">
        <ele>2252.3999023438</ele>
        <time>2014-03-02T15:00:34.000Z</time>
      </trkpt>
      <trkpt lat="45.33545" lon="6.18706">
        <ele>2252.6000976562</ele>
        <time>2014-03-02T15:00:35.000Z</time>
      </trkpt>
      <trkpt lat="45.33545" lon="6.18706">
        <ele>2252.3999023438</ele>
        <time>2014-03-02T15:00:36.000Z</time>
      </trkpt>
      <trkpt lat="45.33544" lon="6.18705">
        <ele>2252.1999511719</ele>
        <time>2014-03-02T15:00:37.000Z</time>
      </trkpt>
      <trkpt lat="45.33543" lon="6.18705">
        <ele>2252.1999511719</ele>
        <time>2014-03-02T15:00:38.000Z</time>
      </trkpt>
      <trkpt lat="45.33542" lon="6.18704">
        <ele>2252</ele>
        <time>2014-03-02T15:00:39.000Z</time>
      </trkpt>
      <trkpt lat="45.33542" lon="6.18704">
        <ele>2252</ele>
        <time>2014-03-02T15:00:40.000Z</time>
      </trkpt>
      <trkpt lat="45.33541" lon="6.18704">
        <ele>2252</ele>
        <time>2014-03-02T15:00:41.000Z</time>
      </trkpt>
      <trkpt lat="45.3354" lon="6.18704">
        <ele>2252</ele>
        <time>2014-03-02T15:00:42.000Z</time>
      </trkpt>
      <trkpt lat="45.33539" lon="6.18703">
        <ele>2252</ele>
        <time>2014-03-02T15:00:43.000Z</time>
      </trkpt>
      <trkpt lat="45.33539" lon="6.18703">
        <ele>2252.1999511719</ele>
        <time>2014-03-02T15:00:44.000Z</time>
      </trkpt>
      <trkpt lat="45.33538" lon="6.18703">
        <ele>2252.1999511719</ele>
        <time>2014-03-02T15:00:45.000Z</time>
      </trkpt>
      <trkpt lat="45.33538" lon="6.18703">
        <ele>2252.1999511719</ele>
        <time>2014-03-02T15:00:46.000Z</time>
      </trkpt>
      <trkpt lat="45.33538" lon="6.18703">
        <ele>2252.1999511719</ele>
        <time>2014-03-02T15:00:47.000Z</time>
      </trkpt>
      <trkpt lat="45.33537" lon="6.18703">
        <ele>2252.1999511719</ele>
        <time>2014-03-02T15:00:48.000Z</time>
      </trkpt>
      <trkpt lat="45.33536" lon="6.18703">
        <ele>2252.1999511719</ele>
        <time>2014-03-02T15:00:49.000Z</time>
      </trkpt>
      <trkpt lat="45.33535" lon="6.18703">
        <ele>2252.1999511719</ele>
        <time>2014-03-02T15:00:50.000Z</time>
      </trkpt>
      <trkpt lat="45.33535" lon="6.18703">
        <ele>2252.1999511719</ele>
        <time>2014-03-02T15:00:51.000Z</time>
      </trkpt>
      <trkpt lat="45.33535" lon="6.18703">
        <ele>2252.3999023438</ele>
        <time>2014-03-02T15:00:52.000Z</time>
      </trkpt>
      <trkpt lat="45.33533" lon="6.18704">
        <ele>2252.6000976562</ele>
        <time>2014-03-02T15:00:53.000Z</time>
      </trkpt>
      <trkpt lat="45.33532" lon="6.18704">
        <ele>2252.6000976562</ele>
        <time>2014-03-02T15:00:54.000Z</time>
      </trkpt>
      <trkpt lat="45.33531" lon="6.18704">
        <ele>2252.6000976562</ele>
        <time>2014-03-02T15:00:55.000Z</time>
      </trkpt>
      <trkpt lat="45.33531" lon="6.18703">
        <ele>2252.6000976562</ele>
        <time>2014-03-02T15:00:56.000Z</time>
      </trkpt>
      <trkpt lat="45.3353" lon="6.18703">
        <ele>2252.6000976562</ele>
        <time>2014-03-02T15:00:57.000Z</time>
      </trkpt>
      <trkpt lat="45.3353" lon="6.18703">
        <ele>2252.3999023438</ele>
        <time>2014-03-02T15:00:58.000Z</time>
      </trkpt>
      <trkpt lat="45.33529" lon="6.18702">
        <ele>2252.3999023438</ele>
        <time>2014-03-02T15:00:59.000Z</time>
      </trkpt>
      <trkpt lat="45.33529" lon="6.18702">
        <ele>2252.1999511719</ele>
        <time>2014-03-02T15:01:00.000Z</time>
      </trkpt>
      <trkpt lat="45.33528" lon="6.18701">
        <ele>2252</ele>
        <time>2014-03-02T15:01:01.000Z</time>
      </trkpt>
      <trkpt lat="45.33527" lon="6.18701">
        <ele>2252</ele>
        <time>2014-03-02T15:01:02.000Z</time>
      </trkpt>
      <trkpt lat="45.33526" lon="6.18701">
        <ele>2252</ele>
        <time>2014-03-02T15:01:03.000Z</time>
      </trkpt>
      <trkpt lat="45.33526" lon="6.18701">
        <ele>2252</ele>
        <time>2014-03-02T15:01:04.000Z</time>
      </trkpt>
      <trkpt lat="45.33525" lon="6.18701">
        <ele>2252.1999511719</ele>
        <time>2014-03-02T15:01:05.000Z</time>
      </trkpt>
      <trkpt lat="45.33524" lon="6.18701">
        <ele>2252.1999511719</ele>
        <time>2014-03-02T15:01:06.000Z</time>
      </trkpt>
      <trkpt lat="45.33524" lon="6.18701">
        <ele>2252.1999511719</ele>
        <time>2014-03-02T15:01:07.000Z</time>
      </trkpt>
      <trkpt lat="45.33523" lon="6.18701">
        <ele>2252.1999511719</ele>
        <time>2014-03-02T15:01:08.000Z</time>
      </trkpt>
      <trkpt lat="45.33523" lon="6.18701">
        <ele>2252.1999511719</ele>
        <time>2014-03-02T15:01:09.000Z</time>
      </trkpt>
      <trkpt lat="45.33523" lon="6.187">
        <ele>2252.1999511719</ele>
        <time>2014-03-02T15:01:10.000Z</time>
      </trkpt>
      <trkpt lat="45.33522" lon="6.187">
        <ele>2252</ele>
        <time>2014-03-02T15:01:11.000Z</time>
      </trkpt>
      <trkpt lat="45.33521" lon="6.187">
        <ele>2252</ele>
        <time>2014-03-02T15:01:12.000Z</time>
      </trkpt>
      <trkpt lat="45.33521" lon="6.187">
        <ele>2252</ele>
        <time>2014-03-02T15:01:13.000Z</time>
      </trkpt>
      <trkpt lat="45.33521" lon="6.187">
        <ele>2252</ele>
        <time>2014-03-02T15:01:14.000Z</time>
      </trkpt>
      <trkpt lat="45.33521" lon="6.187">
        <ele>2252</ele>
        <time>2014-03-02T15:01:15.000Z</time>
      </trkpt>
      <trkpt lat="45.33521" lon="6.187">
        <ele>2252</ele>
        <time>2014-03-02T15:01:16.000Z</time>
      </trkpt>
      <trkpt lat="45.33521" lon="6.187">
        <ele>2252</ele>
        <time>2014-03-02T15:01:17.000Z</time>
      </trkpt>
      <trkpt lat="45.3352" lon="6.187">
        <ele>2252</ele>
        <time>2014-03-02T15:01:20.000Z</time>
      </trkpt>
      <trkpt lat="45.3352" lon="6.187">
        <ele>2252.1999511719</ele>
        <time>2014-03-02T15:01:21.000Z</time>
      </trkpt>
      <trkpt lat="45.33519" lon="6.187">
        <ele>2252.3999023438</ele>
        <time>2014-03-02T15:01:22.000Z</time>
      </trkpt>
      <trkpt lat="45.33518" lon="6.187">
        <ele>2252.6000976562</ele>
        <time>2014-03-02T15:01:23.000Z</time>
      </trkpt>
      <trkpt lat="45.33518" lon="6.187">
        <ele>2252.8000488281</ele>
        <time>2014-03-02T15:01:24.000Z</time>
      </trkpt>
      <trkpt lat="45.33517" lon="6.187">
        <ele>2253</ele>
        <time>2014-03-02T15:01:25.000Z</time>
      </trkpt>
      <trkpt lat="45.33516" lon="6.187">
        <ele>2253.1999511719</ele>
        <time>2014-03-02T15:01:26.000Z</time>
      </trkpt>
      <trkpt lat="45.33516" lon="6.187">
        <ele>2253.3999023438</ele>
        <time>2014-03-02T15:01:27.000Z</time>
      </trkpt>
      <trkpt lat="45.33515" lon="6.187">
        <ele>2253.6000976562</ele>
        <time>2014-03-02T15:01:28.000Z</time>
      </trkpt>
      <trkpt lat="45.33514" lon="6.187">
        <ele>2253.6000976562</ele>
        <time>2014-03-02T15:01:29.000Z</time>
      </trkpt>
      <trkpt lat="45.33514" lon="6.18699">
        <ele>2253.6000976562</ele>
        <time>2014-03-02T15:01:30.000Z</time>
      </trkpt>
      <trkpt lat="45.33513" lon="6.18699">
        <ele>2253.6000976562</ele>
        <time>2014-03-02T15:01:31.000Z</time>
      </trkpt>
      <trkpt lat="45.33512" lon="6.18699">
        <ele>2253.6000976562</ele>
        <time>2014-03-02T15:01:32.000Z</time>
      </trkpt>
      <trkpt lat="45.33512" lon="6.18698">
        <ele>2253.6000976562</ele>
        <time>2014-03-02T15:01:33.000Z</time>
      </trkpt>
      <trkpt lat="45.33511" lon="6.18698">
        <ele>2253.6000976562</ele>
        <time>2014-03-02T15:01:34.000Z</time>
      </trkpt>
      <trkpt lat="45.33511" lon="6.18697">
        <ele>2253.1999511719</ele>
        <time>2014-03-02T15:01:35.000Z</time>
      </trkpt>
      <trkpt lat="45.3351" lon="6.18697">
        <ele>2253.3999023438</ele>
        <time>2014-03-02T15:01:36.000Z</time>
      </trkpt>
      <trkpt lat="45.3351" lon="6.18696">
        <ele>2253</ele>
        <time>2014-03-02T15:01:37.000Z</time>
      </trkpt>
      <trkpt lat="45.33509" lon="6.18696">
        <ele>2253.1999511719</ele>
        <time>2014-03-02T15:01:38.000Z</time>
      </trkpt>
      <trkpt lat="45.33509" lon="6.18695">
        <ele>2252.8000488281</ele>
        <time>2014-03-02T15:01:39.000Z</time>
      </trkpt>
      <trkpt lat="45.33508" lon="6.18695">
        <ele>2253</ele>
        <time>2014-03-02T15:01:40.000Z</time>
      </trkpt>
      <trkpt lat="45.33508" lon="6.18694">
        <ele>2252.6000976562</ele>
        <time>2014-03-02T15:01:41.000Z</time>
      </trkpt>
      <trkpt lat="45.33507" lon="6.18694">
        <ele>2252.6000976562</ele>
        <time>2014-03-02T15:01:42.000Z</time>
      </trkpt>
      <trkpt lat="45.33507" lon="6.18693">
        <ele>2252.3999023438</ele>
        <time>2014-03-02T15:01:43.000Z</time>
      </trkpt>
      <trkpt lat="45.33506" lon="6.18693">
        <ele>2252.3999023438</ele>
        <time>2014-03-02T15:01:44.000Z</time>
      </trkpt>
      <trkpt lat="45.33506" lon="6.18693">
        <ele>2252.3999023438</ele>
        <time>2014-03-02T15:01:45.000Z</time>
      </trkpt>
      <trkpt lat="45.33505" lon="6.18693">
        <ele>2252.8000488281</ele>
        <time>2014-03-02T15:01:46.000Z</time>
      </trkpt>
      <trkpt lat="45.33504" lon="6.18693">
        <ele>2253.1999511719</ele>
        <time>2014-03-02T15:01:47.000Z</time>
      </trkpt>
      <trkpt lat="45.33502" lon="6.18693">
        <ele>2253.6000976562</ele>
        <time>2014-03-02T15:01:48.000Z</time>
      </trkpt>
      <trkpt lat="45.33501" lon="6.18692">
        <ele>2253.8000488281</ele>
        <time>2014-03-02T15:01:49.000Z</time>
      </trkpt>
      <trkpt lat="45.33501" lon="6.18692">
        <ele>2254.1999511719</ele>
        <time>2014-03-02T15:01:50.000Z</time>
      </trkpt>
      <trkpt lat="45.335" lon="6.18692">
        <ele>2254.1999511719</ele>
        <time>2014-03-02T15:01:51.000Z</time>
      </trkpt>
      <trkpt lat="45.33499" lon="6.18692">
        <ele>2254.3999023438</ele>
        <time>2014-03-02T15:01:52.000Z</time>
      </trkpt>
      <trkpt lat="45.33498" lon="6.18692">
        <ele>2254.8000488281</ele>
        <time>2014-03-02T15:01:53.000Z</time>
      </trkpt>
      <trkpt lat="45.33497" lon="6.18692">
        <ele>2255</ele>
        <time>2014-03-02T15:01:54.000Z</time>
      </trkpt>
      <trkpt lat="45.33496" lon="6.18692">
        <ele>2255.3999023438</ele>
        <time>2014-03-02T15:01:55.000Z</time>
      </trkpt>
      <trkpt lat="45.33495" lon="6.18693">
        <ele>2256.3999023438</ele>
        <time>2014-03-02T15:01:56.000Z</time>
      </trkpt>
      <trkpt lat="45.33494" lon="6.18694">
        <ele>2257.1999511719</ele>
        <time>2014-03-02T15:01:57.000Z</time>
      </trkpt>
      <trkpt lat="45.33492" lon="6.18694">
        <ele>2257.8000488281</ele>
        <time>2014-03-02T15:01:58.000Z</time>
      </trkpt>
      <trkpt lat="45.33491" lon="6.18694">
        <ele>2258.3999023438</ele>
        <time>2014-03-02T15:01:59.000Z</time>
      </trkpt>
      <trkpt lat="45.3349" lon="6.18694">
        <ele>2258.6000976562</ele>
        <time>2014-03-02T15:02:00.000Z</time>
      </trkpt>
      <trkpt lat="45.33488" lon="6.18694">
        <ele>2259</ele>
        <time>2014-03-02T15:02:01.000Z</time>
      </trkpt>
      <trkpt lat="45.33487" lon="6.18693">
        <ele>2259</ele>
        <time>2014-03-02T15:02:02.000Z</time>
      </trkpt>
      <trkpt lat="45.33487" lon="6.18693">
        <ele>2259</ele>
        <time>2014-03-02T15:02:03.000Z</time>
      </trkpt>
      <trkpt lat="45.33487" lon="6.18693">
        <ele>2259</ele>
        <time>2014-03-02T15:02:04.000Z</time>
      </trkpt>
      <trkpt lat="45.33487" lon="6.18693">
        <ele>2259</ele>
        <time>2014-03-02T15:02:05.000Z</time>
      </trkpt>
      <trkpt lat="45.33487" lon="6.18693">
        <ele>2259</ele>
        <time>2014-03-02T15:02:06.000Z</time>
      </trkpt>
      <trkpt lat="45.33487" lon="6.18693">
        <ele>2259</ele>
        <time>2014-03-02T15:02:07.000Z</time>
      </trkpt>
      <trkpt lat="45.33487" lon="6.18693">
        <ele>2259</ele>
        <time>2014-03-02T15:02:08.000Z</time>
      </trkpt>
      <trkpt lat="45.33487" lon="6.18692">
        <ele>2258.3999023438</ele>
        <time>2014-03-02T15:02:09.000Z</time>
      </trkpt>
      <trkpt lat="45.33487" lon="6.18692">
        <ele>2258.1999511719</ele>
        <time>2014-03-02T15:02:10.000Z</time>
      </trkpt>
      <trkpt lat="45.33487" lon="6.18692">
        <ele>2258.1999511719</ele>
        <time>2014-03-02T15:02:11.000Z</time>
      </trkpt>
      <trkpt lat="45.33487" lon="6.18691">
        <ele>2258</ele>
        <time>2014-03-02T15:02:12.000Z</time>
      </trkpt>
      <trkpt lat="45.33487" lon="6.1869">
        <ele>2257.6000976562</ele>
        <time>2014-03-02T15:02:13.000Z</time>
      </trkpt>
      <trkpt lat="45.33487" lon="6.1869">
        <ele>2257.3999023438</ele>
        <time>2014-03-02T15:02:14.000Z</time>
      </trkpt>
      <trkpt lat="45.33486" lon="6.1869">
        <ele>2257.3999023438</ele>
        <time>2014-03-02T15:02:15.000Z</time>
      </trkpt>
      <trkpt lat="45.33485" lon="6.18689">
        <ele>2257.3999023438</ele>
        <time>2014-03-02T15:02:16.000Z</time>
      </trkpt>
      <trkpt lat="45.33485" lon="6.18689">
        <ele>2257.6000976562</ele>
        <time>2014-03-02T15:02:17.000Z</time>
      </trkpt>
      <trkpt lat="45.33484" lon="6.18689">
        <ele>2257.6000976562</ele>
        <time>2014-03-02T15:02:18.000Z</time>
      </trkpt>
      <trkpt lat="45.33483" lon="6.18688">
        <ele>2257.3999023438</ele>
        <time>2014-03-02T15:02:19.000Z</time>
      </trkpt>
      <trkpt lat="45.33482" lon="6.18688">
        <ele>2257.3999023438</ele>
        <time>2014-03-02T15:02:20.000Z</time>
      </trkpt>
      <trkpt lat="45.33482" lon="6.18687">
        <ele>2257.1999511719</ele>
        <time>2014-03-02T15:02:21.000Z</time>
      </trkpt>
      <trkpt lat="45.33481" lon="6.18686">
        <ele>2257</ele>
        <time>2014-03-02T15:02:22.000Z</time>
      </trkpt>
      <trkpt lat="45.3348" lon="6.18686">
        <ele>2257</ele>
        <time>2014-03-02T15:02:23.000Z</time>
      </trkpt>
      <trkpt lat="45.3348" lon="6.18685">
        <ele>2257</ele>
        <time>2014-03-02T15:02:24.000Z</time>
      </trkpt>
      <trkpt lat="45.33479" lon="6.18685">
        <ele>2257.1999511719</ele>
        <time>2014-03-02T15:02:25.000Z</time>
      </trkpt>
      <trkpt lat="45.33478" lon="6.18685">
        <ele>2257.3999023438</ele>
        <time>2014-03-02T15:02:26.000Z</time>
      </trkpt>
      <trkpt lat="45.33477" lon="6.18685">
        <ele>2257.6000976562</ele>
        <time>2014-03-02T15:02:27.000Z</time>
      </trkpt>
      <trkpt lat="45.33476" lon="6.18684">
        <ele>2257.8000488281</ele>
        <time>2014-03-02T15:02:28.000Z</time>
      </trkpt>
      <trkpt lat="45.33474" lon="6.18683">
        <ele>2257.3999023438</ele>
        <time>2014-03-02T15:02:30.000Z</time>
      </trkpt>
      <trkpt lat="45.33474" lon="6.18682">
        <ele>2257.1999511719</ele>
        <time>2014-03-02T15:02:31.000Z</time>
      </trkpt>
      <trkpt lat="45.33473" lon="6.18682">
        <ele>2257.3999023438</ele>
        <time>2014-03-02T15:02:32.000Z</time>
      </trkpt>
      <trkpt lat="45.33473" lon="6.18682">
        <ele>2257.1999511719</ele>
        <time>2014-03-02T15:02:33.000Z</time>
      </trkpt>
      <trkpt lat="45.33472" lon="6.18681">
        <ele>2257.1999511719</ele>
        <time>2014-03-02T15:02:34.000Z</time>
      </trkpt>
      <trkpt lat="45.33472" lon="6.18681">
        <ele>2257.1999511719</ele>
        <time>2014-03-02T15:02:35.000Z</time>
      </trkpt>
      <trkpt lat="45.33472" lon="6.18681">
        <ele>2257</ele>
        <time>2014-03-02T15:02:36.000Z</time>
      </trkpt>
      <trkpt lat="45.33471" lon="6.1868">
        <ele>2257</ele>
        <time>2014-03-02T15:02:37.000Z</time>
      </trkpt>
      <trkpt lat="45.33471" lon="6.1868">
        <ele>2257.1999511719</ele>
        <time>2014-03-02T15:02:38.000Z</time>
      </trkpt>
      <trkpt lat="45.33471" lon="6.18681">
        <ele>2257.3999023438</ele>
        <time>2014-03-02T15:02:39.000Z</time>
      </trkpt>
      <trkpt lat="45.3347" lon="6.18681">
        <ele>2257.8000488281</ele>
        <time>2014-03-02T15:02:40.000Z</time>
      </trkpt>
      <trkpt lat="45.3347" lon="6.18681">
        <ele>2257.8000488281</ele>
        <time>2014-03-02T15:02:41.000Z</time>
      </trkpt>
      <trkpt lat="45.33469" lon="6.18681">
        <ele>2257.8000488281</ele>
        <time>2014-03-02T15:02:42.000Z</time>
      </trkpt>
      <trkpt lat="45.33469" lon="6.18681">
        <ele>2258</ele>
        <time>2014-03-02T15:02:43.000Z</time>
      </trkpt>
      <trkpt lat="45.33469" lon="6.18681">
        <ele>2258.3999023438</ele>
        <time>2014-03-02T15:02:44.000Z</time>
      </trkpt>
      <trkpt lat="45.33468" lon="6.18682">
        <ele>2258.8000488281</ele>
        <time>2014-03-02T15:02:45.000Z</time>
      </trkpt>
      <trkpt lat="45.33467" lon="6.18682">
        <ele>2259.6000976562</ele>
        <time>2014-03-02T15:02:46.000Z</time>
      </trkpt>
      <trkpt lat="45.33466" lon="6.18682">
        <ele>2260</ele>
        <time>2014-03-02T15:02:47.000Z</time>
      </trkpt>
      <trkpt lat="45.33465" lon="6.18682">
        <ele>2260.1999511719</ele>
        <time>2014-03-02T15:02:48.000Z</time>
      </trkpt>
      <trkpt lat="45.33465" lon="6.18682">
        <ele>2260.1999511719</ele>
        <time>2014-03-02T15:02:49.000Z</time>
      </trkpt>
      <trkpt lat="45.33464" lon="6.18681">
        <ele>2260</ele>
        <time>2014-03-02T15:02:50.000Z</time>
      </trkpt>
      <trkpt lat="45.33464" lon="6.18681">
        <ele>2259.6000976562</ele>
        <time>2014-03-02T15:02:51.000Z</time>
      </trkpt>
      <trkpt lat="45.33464" lon="6.1868">
        <ele>2259.3999023438</ele>
        <time>2014-03-02T15:02:52.000Z</time>
      </trkpt>
      <trkpt lat="45.33464" lon="6.1868">
        <ele>2259.3999023438</ele>
        <time>2014-03-02T15:02:53.000Z</time>
      </trkpt>
      <trkpt lat="45.33464" lon="6.1868">
        <ele>2259.3999023438</ele>
        <time>2014-03-02T15:02:54.000Z</time>
      </trkpt>
      <trkpt lat="45.33464" lon="6.1868">
        <ele>2259.3999023438</ele>
        <time>2014-03-02T15:02:55.000Z</time>
      </trkpt>
      <trkpt lat="45.33464" lon="6.1868">
        <ele>2259.3999023438</ele>
        <time>2014-03-02T15:02:56.000Z</time>
      </trkpt>
      <trkpt lat="45.33459" lon="6.18676">
        <ele>2257.8000488281</ele>
        <time>2014-03-02T15:03:01.000Z</time>
      </trkpt>
      <trkpt lat="45.33459" lon="6.18676">
        <ele>2257.8000488281</ele>
        <time>2014-03-02T15:03:02.000Z</time>
      </trkpt>
      <trkpt lat="45.33459" lon="6.18676">
        <ele>2257.8000488281</ele>
        <time>2014-03-02T15:03:03.000Z</time>
      </trkpt>
      <trkpt lat="45.33458" lon="6.18676">
        <ele>2257.8000488281</ele>
        <time>2014-03-02T15:03:04.000Z</time>
      </trkpt>
      <trkpt lat="45.33457" lon="6.18676">
        <ele>2258</ele>
        <time>2014-03-02T15:03:05.000Z</time>
      </trkpt>
      <trkpt lat="45.33457" lon="6.18676">
        <ele>2258</ele>
        <time>2014-03-02T15:03:06.000Z</time>
      </trkpt>
      <trkpt lat="45.33456" lon="6.18676">
        <ele>2258</ele>
        <time>2014-03-02T15:03:07.000Z</time>
      </trkpt>
      <trkpt lat="45.33456" lon="6.18676">
        <ele>2258</ele>
        <time>2014-03-02T15:03:08.000Z</time>
      </trkpt>
      <trkpt lat="45.33455" lon="6.18676">
        <ele>2258.1999511719</ele>
        <time>2014-03-02T15:03:09.000Z</time>
      </trkpt>
      <trkpt lat="45.33454" lon="6.18676">
        <ele>2258.1999511719</ele>
        <time>2014-03-02T15:03:10.000Z</time>
      </trkpt>
      <trkpt lat="45.33454" lon="6.18676">
        <ele>2258.1999511719</ele>
        <time>2014-03-02T15:03:11.000Z</time>
      </trkpt>
      <trkpt lat="45.33454" lon="6.18675">
        <ele>2258</ele>
        <time>2014-03-02T15:03:12.000Z</time>
      </trkpt>
      <trkpt lat="45.33453" lon="6.18675">
        <ele>2257.8000488281</ele>
        <time>2014-03-02T15:03:13.000Z</time>
      </trkpt>
      <trkpt lat="45.33453" lon="6.18674">
        <ele>2257.6000976562</ele>
        <time>2014-03-02T15:03:14.000Z</time>
      </trkpt>
      <trkpt lat="45.33452" lon="6.18674">
        <ele>2257.8000488281</ele>
        <time>2014-03-02T15:03:15.000Z</time>
      </trkpt>
      <trkpt lat="45.33451" lon="6.18674">
        <ele>2257.8000488281</ele>
        <time>2014-03-02T15:03:16.000Z</time>
      </trkpt>
      <trkpt lat="45.3345" lon="6.18673">
        <ele>2257.6000976562</ele>
        <time>2014-03-02T15:03:17.000Z</time>
      </trkpt>
      <trkpt lat="45.33449" lon="6.18673">
        <ele>2257.3999023438</ele>
        <time>2014-03-02T15:03:18.000Z</time>
      </trkpt>
      <trkpt lat="45.33448" lon="6.18673">
        <ele>2257.3999023438</ele>
        <time>2014-03-02T15:03:19.000Z</time>
      </trkpt>
      <trkpt lat="45.33447" lon="6.18672">
        <ele>2257</ele>
        <time>2014-03-02T15:03:20.000Z</time>
      </trkpt>
      <trkpt lat="45.33447" lon="6.18671">
        <ele>2256.6000976562</ele>
        <time>2014-03-02T15:03:21.000Z</time>
      </trkpt>
      <trkpt lat="45.33447" lon="6.18671">
        <ele>2256.1999511719</ele>
        <time>2014-03-02T15:03:22.000Z</time>
      </trkpt>
      <trkpt lat="45.33446" lon="6.1867">
        <ele>2256.1999511719</ele>
        <time>2014-03-02T15:03:23.000Z</time>
      </trkpt>
      <trkpt lat="45.33446" lon="6.18671">
        <ele>2256.3999023438</ele>
        <time>2014-03-02T15:03:24.000Z</time>
      </trkpt>
      <trkpt lat="45.33446" lon="6.1867">
        <ele>2256.3999023438</ele>
        <time>2014-03-02T15:03:25.000Z</time>
      </trkpt>
      <trkpt lat="45.33445" lon="6.1867">
        <ele>2256.3999023438</ele>
        <time>2014-03-02T15:03:26.000Z</time>
      </trkpt>
      <trkpt lat="45.33445" lon="6.1867">
        <ele>2256.3999023438</ele>
        <time>2014-03-02T15:03:27.000Z</time>
      </trkpt>
      <trkpt lat="45.33445" lon="6.1867">
        <ele>2256.3999023438</ele>
        <time>2014-03-02T15:03:28.000Z</time>
      </trkpt>
      <trkpt lat="45.33445" lon="6.1867">
        <ele>2256.3999023438</ele>
        <time>2014-03-02T15:03:29.000Z</time>
      </trkpt>
      <trkpt lat="45.33445" lon="6.1867">
        <ele>2256.3999023438</ele>
        <time>2014-03-02T15:03:30.000Z</time>
      </trkpt>
      <trkpt lat="45.33444" lon="6.1867">
        <ele>2256.6000976562</ele>
        <time>2014-03-02T15:03:31.000Z</time>
      </trkpt>
      <trkpt lat="45.33444" lon="6.1867">
        <ele>2256.6000976562</ele>
        <time>2014-03-02T15:03:32.000Z</time>
      </trkpt>
      <trkpt lat="45.33444" lon="6.1867">
        <ele>2256.3999023438</ele>
        <time>2014-03-02T15:03:33.000Z</time>
      </trkpt>
      <trkpt lat="45.33443" lon="6.1867">
        <ele>2256.6000976562</ele>
        <time>2014-03-02T15:03:35.000Z</time>
      </trkpt>
      <trkpt lat="45.33443" lon="6.1867">
        <ele>2256.6000976562</ele>
        <time>2014-03-02T15:03:37.000Z</time>
      </trkpt>
      <trkpt lat="45.33443" lon="6.1867">
        <ele>2256.6000976562</ele>
        <time>2014-03-02T15:03:38.000Z</time>
      </trkpt>
      <trkpt lat="45.33443" lon="6.1867">
        <ele>2256.6000976562</ele>
        <time>2014-03-02T15:03:39.000Z</time>
      </trkpt>
      <trkpt lat="45.33443" lon="6.1867">
        <ele>2256.6000976562</ele>
        <time>2014-03-02T15:03:40.000Z</time>
      </trkpt>
      <trkpt lat="45.33443" lon="6.1867">
        <ele>2256.6000976562</ele>
        <time>2014-03-02T15:03:41.000Z</time>
      </trkpt>
      <trkpt lat="45.33443" lon="6.1867">
        <ele>2256.6000976562</ele>
        <time>2014-03-02T15:03:42.000Z</time>
      </trkpt>
      <trkpt lat="45.33443" lon="6.1867">
        <ele>2256.6000976562</ele>
        <time>2014-03-02T15:03:43.000Z</time>
      </trkpt>
      <trkpt lat="45.33443" lon="6.1867">
        <ele>2256.6000976562</ele>
        <time>2014-03-02T15:03:45.000Z</time>
      </trkpt>
      <trkpt lat="45.33443" lon="6.1867">
        <ele>2256.6000976562</ele>
        <time>2014-03-02T15:03:47.000Z</time>
      </trkpt>
      <trkpt lat="45.33443" lon="6.1867">
        <ele>2256.6000976562</ele>
        <time>2014-03-02T15:03:51.000Z</time>
      </trkpt>
      <trkpt lat="45.33443" lon="6.1867">
        <ele>2256.6000976562</ele>
        <time>2014-03-02T15:03:52.000Z</time>
      </trkpt>
      <trkpt lat="45.33443" lon="6.1867">
        <ele>2256.6000976562</ele>
        <time>2014-03-02T15:03:53.000Z</time>
      </trkpt>
      <trkpt lat="45.33443" lon="6.1867">
        <ele>2256.6000976562</ele>
        <time>2014-03-02T15:03:54.000Z</time>
      </trkpt>
      <trkpt lat="45.33442" lon="6.1867">
        <ele>2256.8000488281</ele>
        <time>2014-03-02T15:03:55.000Z</time>
      </trkpt>
      <trkpt lat="45.33441" lon="6.1867">
        <ele>2257</ele>
        <time>2014-03-02T15:03:56.000Z</time>
      </trkpt>
      <trkpt lat="45.3344" lon="6.1867">
        <ele>2257.1999511719</ele>
        <time>2014-03-02T15:03:57.000Z</time>
      </trkpt>
      <trkpt lat="45.33439" lon="6.18671">
        <ele>2257.3999023438</ele>
        <time>2014-03-02T15:03:58.000Z</time>
      </trkpt>
      <trkpt lat="45.33438" lon="6.18671">
        <ele>2257.6000976562</ele>
        <time>2014-03-02T15:03:59.000Z</time>
      </trkpt>
      <trkpt lat="45.33437" lon="6.18671">
        <ele>2257.6000976562</ele>
        <time>2014-03-02T15:04:00.000Z</time>
      </trkpt>
      <trkpt lat="45.33437" lon="6.1867">
        <ele>2257.6000976562</ele>
        <time>2014-03-02T15:04:01.000Z</time>
      </trkpt>
      <trkpt lat="45.33436" lon="6.1867">
        <ele>2257.6000976562</ele>
        <time>2014-03-02T15:04:02.000Z</time>
      </trkpt>
      <trkpt lat="45.33435" lon="6.1867">
        <ele>2257.6000976562</ele>
        <time>2014-03-02T15:04:03.000Z</time>
      </trkpt>
      <trkpt lat="45.33434" lon="6.1867">
        <ele>2258</ele>
        <time>2014-03-02T15:04:04.000Z</time>
      </trkpt>
      <trkpt lat="45.33433" lon="6.1867">
        <ele>2257.8000488281</ele>
        <time>2014-03-02T15:04:05.000Z</time>
      </trkpt>
      <trkpt lat="45.33433" lon="6.1867">
        <ele>2257.8000488281</ele>
        <time>2014-03-02T15:04:06.000Z</time>
      </trkpt>
      <trkpt lat="45.33432" lon="6.18669">
        <ele>2257.8000488281</ele>
        <time>2014-03-02T15:04:07.000Z</time>
      </trkpt>
      <trkpt lat="45.33431" lon="6.18669">
        <ele>2257.3999023438</ele>
        <time>2014-03-02T15:04:08.000Z</time>
      </trkpt>
      <trkpt lat="45.3343" lon="6.18669">
        <ele>2257.6000976562</ele>
        <time>2014-03-02T15:04:09.000Z</time>
      </trkpt>
      <trkpt lat="45.3343" lon="6.18669">
        <ele>2258</ele>
        <time>2014-03-02T15:04:10.000Z</time>
      </trkpt>
      <trkpt lat="45.33429" lon="6.1867">
        <ele>2258.3999023438</ele>
        <time>2014-03-02T15:04:11.000Z</time>
      </trkpt>
      <trkpt lat="45.33428" lon="6.1867">
        <ele>2258.6000976562</ele>
        <time>2014-03-02T15:04:12.000Z</time>
      </trkpt>
      <trkpt lat="45.33428" lon="6.1867">
        <ele>2258.6000976562</ele>
        <time>2014-03-02T15:04:13.000Z</time>
      </trkpt>
      <trkpt lat="45.33427" lon="6.1867">
        <ele>2258.8000488281</ele>
        <time>2014-03-02T15:04:14.000Z</time>
      </trkpt>
      <trkpt lat="45.33427" lon="6.1867">
        <ele>2259.1999511719</ele>
        <time>2014-03-02T15:04:15.000Z</time>
      </trkpt>
      <trkpt lat="45.33426" lon="6.18671">
        <ele>2259.3999023438</ele>
        <time>2014-03-02T15:04:16.000Z</time>
      </trkpt>
      <trkpt lat="45.33425" lon="6.18671">
        <ele>2259.6000976562</ele>
        <time>2014-03-02T15:04:17.000Z</time>
      </trkpt>
      <trkpt lat="45.33425" lon="6.18672">
        <ele>2260</ele>
        <time>2014-03-02T15:04:18.000Z</time>
      </trkpt>
      <trkpt lat="45.33424" lon="6.18672">
        <ele>2260.1999511719</ele>
        <time>2014-03-02T15:04:19.000Z</time>
      </trkpt>
      <trkpt lat="45.33423" lon="6.18674">
        <ele>2261.6000976562</ele>
        <time>2014-03-02T15:04:22.000Z</time>
      </trkpt>
      <trkpt lat="45.33422" lon="6.18674">
        <ele>2261.8000488281</ele>
        <time>2014-03-02T15:04:23.000Z</time>
      </trkpt>
      <trkpt lat="45.33421" lon="6.18675">
        <ele>2262.3999023438</ele>
        <time>2014-03-02T15:04:24.000Z</time>
      </trkpt>
      <trkpt lat="45.33421" lon="6.18675">
        <ele>2262.6000976562</ele>
        <time>2014-03-02T15:04:25.000Z</time>
      </trkpt>
      <trkpt lat="45.3342" lon="6.18675">
        <ele>2262.8000488281</ele>
        <time>2014-03-02T15:04:26.000Z</time>
      </trkpt>
      <trkpt lat="45.3342" lon="6.18675">
        <ele>2262.8000488281</ele>
        <time>2014-03-02T15:04:27.000Z</time>
      </trkpt>
      <trkpt lat="45.33418" lon="6.18676">
        <ele>2263.3999023438</ele>
        <time>2014-03-02T15:04:29.000Z</time>
      </trkpt>
      <trkpt lat="45.33418" lon="6.18676">
        <ele>2263.6000976562</ele>
        <time>2014-03-02T15:04:30.000Z</time>
      </trkpt>
      <trkpt lat="45.33417" lon="6.18676">
        <ele>2263.8000488281</ele>
        <time>2014-03-02T15:04:31.000Z</time>
      </trkpt>
      <trkpt lat="45.33416" lon="6.18676">
        <ele>2264</ele>
        <time>2014-03-02T15:04:32.000Z</time>
      </trkpt>
      <trkpt lat="45.33416" lon="6.18677">
        <ele>2264.1999511719</ele>
        <time>2014-03-02T15:04:33.000Z</time>
      </trkpt>
      <trkpt lat="45.33415" lon="6.18677">
        <ele>2264.3999023438</ele>
        <time>2014-03-02T15:04:34.000Z</time>
      </trkpt>
      <trkpt lat="45.33414" lon="6.18677">
        <ele>2264.6000976562</ele>
        <time>2014-03-02T15:04:35.000Z</time>
      </trkpt>
      <trkpt lat="45.33413" lon="6.18677">
        <ele>2264.8000488281</ele>
        <time>2014-03-02T15:04:36.000Z</time>
      </trkpt>
      <trkpt lat="45.33413" lon="6.18677">
        <ele>2265</ele>
        <time>2014-03-02T15:04:37.000Z</time>
      </trkpt>
      <trkpt lat="45.33412" lon="6.18677">
        <ele>2265.1999511719</ele>
        <time>2014-03-02T15:04:38.000Z</time>
      </trkpt>
      <trkpt lat="45.33411" lon="6.18678">
        <ele>2265.3999023438</ele>
        <time>2014-03-02T15:04:39.000Z</time>
      </trkpt>
      <trkpt lat="45.33411" lon="6.18678">
        <ele>2265.3999023438</ele>
        <time>2014-03-02T15:04:40.000Z</time>
      </trkpt>
      <trkpt lat="45.3341" lon="6.18677">
        <ele>2265.3999023438</ele>
        <time>2014-03-02T15:04:41.000Z</time>
      </trkpt>
      <trkpt lat="45.3341" lon="6.18677">
        <ele>2265.3999023438</ele>
        <time>2014-03-02T15:04:42.000Z</time>
      </trkpt>
      <trkpt lat="45.33409" lon="6.18677">
        <ele>2265.6000976562</ele>
        <time>2014-03-02T15:04:43.000Z</time>
      </trkpt>
      <trkpt lat="45.33408" lon="6.18677">
        <ele>2265.8000488281</ele>
        <time>2014-03-02T15:04:44.000Z</time>
      </trkpt>
      <trkpt lat="45.33407" lon="6.18677">
        <ele>2265.8000488281</ele>
        <time>2014-03-02T15:04:45.000Z</time>
      </trkpt>
      <trkpt lat="45.33407" lon="6.18677">
        <ele>2265.8000488281</ele>
        <time>2014-03-02T15:04:46.000Z</time>
      </trkpt>
      <trkpt lat="45.33406" lon="6.18677">
        <ele>2266</ele>
        <time>2014-03-02T15:04:47.000Z</time>
      </trkpt>
      <trkpt lat="45.33406" lon="6.18678">
        <ele>2266.3999023438</ele>
        <time>2014-03-02T15:04:48.000Z</time>
      </trkpt>
      <trkpt lat="45.33405" lon="6.18678">
        <ele>2266.6000976562</ele>
        <time>2014-03-02T15:04:49.000Z</time>
      </trkpt>
      <trkpt lat="45.33405" lon="6.18678">
        <ele>2266.6000976562</ele>
        <time>2014-03-02T15:04:50.000Z</time>
      </trkpt>
      <trkpt lat="45.33404" lon="6.18678">
        <ele>2266.8000488281</ele>
        <time>2014-03-02T15:04:51.000Z</time>
      </trkpt>
      <trkpt lat="45.33403" lon="6.18678">
        <ele>2267</ele>
        <time>2014-03-02T15:04:52.000Z</time>
      </trkpt>
      <trkpt lat="45.33403" lon="6.18679">
        <ele>2267.3999023438</ele>
        <time>2014-03-02T15:04:53.000Z</time>
      </trkpt>
      <trkpt lat="45.33402" lon="6.18679">
        <ele>2267.8000488281</ele>
        <time>2014-03-02T15:04:54.000Z</time>
      </trkpt>
      <trkpt lat="45.33401" lon="6.1868">
        <ele>2268.1999511719</ele>
        <time>2014-03-02T15:04:55.000Z</time>
      </trkpt>
      <trkpt lat="45.33401" lon="6.18681">
        <ele>2268.8000488281</ele>
        <time>2014-03-02T15:04:56.000Z</time>
      </trkpt>
      <trkpt lat="45.33401" lon="6.18681">
        <ele>2269.1999511719</ele>
        <time>2014-03-02T15:04:57.000Z</time>
      </trkpt>
      <trkpt lat="45.334" lon="6.18682">
        <ele>2269.3999023438</ele>
        <time>2014-03-02T15:04:58.000Z</time>
      </trkpt>
      <trkpt lat="45.334" lon="6.18682">
        <ele>2269.8000488281</ele>
        <time>2014-03-02T15:04:59.000Z</time>
      </trkpt>
      <trkpt lat="45.334" lon="6.18682">
        <ele>2269.8000488281</ele>
        <time>2014-03-02T15:05:00.000Z</time>
      </trkpt>
      <trkpt lat="45.33399" lon="6.18683">
        <ele>2270.1999511719</ele>
        <time>2014-03-02T15:05:01.000Z</time>
      </trkpt>
      <trkpt lat="45.33398" lon="6.18683">
        <ele>2270.1999511719</ele>
        <time>2014-03-02T15:05:02.000Z</time>
      </trkpt>
      <trkpt lat="45.33398" lon="6.18683">
        <ele>2270.3999023438</ele>
        <time>2014-03-02T15:05:03.000Z</time>
      </trkpt>
      <trkpt lat="45.33397" lon="6.18683">
        <ele>2270.6000976562</ele>
        <time>2014-03-02T15:05:04.000Z</time>
      </trkpt>
      <trkpt lat="45.33397" lon="6.18684">
        <ele>2271</ele>
        <time>2014-03-02T15:05:05.000Z</time>
      </trkpt>
      <trkpt lat="45.33396" lon="6.18685">
        <ele>2271.6000976562</ele>
        <time>2014-03-02T15:05:06.000Z</time>
      </trkpt>
      <trkpt lat="45.33396" lon="6.18685">
        <ele>2272</ele>
        <time>2014-03-02T15:05:07.000Z</time>
      </trkpt>
      <trkpt lat="45.33395" lon="6.18685">
        <ele>2272.1999511719</ele>
        <time>2014-03-02T15:05:08.000Z</time>
      </trkpt>
      <trkpt lat="45.33394" lon="6.18685">
        <ele>2272.1999511719</ele>
        <time>2014-03-02T15:05:09.000Z</time>
      </trkpt>
      <trkpt lat="45.33394" lon="6.18685">
        <ele>2272.3999023438</ele>
        <time>2014-03-02T15:05:10.000Z</time>
      </trkpt>
      <trkpt lat="45.33393" lon="6.18685">
        <ele>2272.6000976562</ele>
        <time>2014-03-02T15:05:11.000Z</time>
      </trkpt>
      <trkpt lat="45.33392" lon="6.18685">
        <ele>2272.6000976562</ele>
        <time>2014-03-02T15:05:12.000Z</time>
      </trkpt>
      <trkpt lat="45.33392" lon="6.18685">
        <ele>2272.6000976562</ele>
        <time>2014-03-02T15:05:13.000Z</time>
      </trkpt>
      <trkpt lat="45.33391" lon="6.18685">
        <ele>2272.8000488281</ele>
        <time>2014-03-02T15:05:14.000Z</time>
      </trkpt>
      <trkpt lat="45.3339" lon="6.18686">
        <ele>2273.1999511719</ele>
        <time>2014-03-02T15:05:15.000Z</time>
      </trkpt>
      <trkpt lat="45.3339" lon="6.18686">
        <ele>2273.6000976562</ele>
        <time>2014-03-02T15:05:16.000Z</time>
      </trkpt>
      <trkpt lat="45.33389" lon="6.18686">
        <ele>2273.6000976562</ele>
        <time>2014-03-02T15:05:17.000Z</time>
      </trkpt>
      <trkpt lat="45.33388" lon="6.18686">
        <ele>2273.8000488281</ele>
        <time>2014-03-02T15:05:18.000Z</time>
      </trkpt>
      <trkpt lat="45.33388" lon="6.18686">
        <ele>2273.8000488281</ele>
        <time>2014-03-02T15:05:19.000Z</time>
      </trkpt>
      <trkpt lat="45.33388" lon="6.18686">
        <ele>2274</ele>
        <time>2014-03-02T15:05:20.000Z</time>
      </trkpt>
      <trkpt lat="45.33387" lon="6.18687">
        <ele>2274.1999511719</ele>
        <time>2014-03-02T15:05:21.000Z</time>
      </trkpt>
      <trkpt lat="45.33387" lon="6.18687">
        <ele>2274.1999511719</ele>
        <time>2014-03-02T15:05:22.000Z</time>
      </trkpt>
      <trkpt lat="45.33386" lon="6.18687">
        <ele>2274.3999023438</ele>
        <time>2014-03-02T15:05:23.000Z</time>
      </trkpt>
      <trkpt lat="45.33386" lon="6.18687">
        <ele>2274.8000488281</ele>
        <time>2014-03-02T15:05:24.000Z</time>
      </trkpt>
      <trkpt lat="45.33385" lon="6.18687">
        <ele>2274.8000488281</ele>
        <time>2014-03-02T15:05:25.000Z</time>
      </trkpt>
      <trkpt lat="45.33385" lon="6.18687">
        <ele>2275</ele>
        <time>2014-03-02T15:05:26.000Z</time>
      </trkpt>
      <trkpt lat="45.33385" lon="6.18688">
        <ele>2275.1999511719</ele>
        <time>2014-03-02T15:05:27.000Z</time>
      </trkpt>
      <trkpt lat="45.33384" lon="6.18688">
        <ele>2275.1999511719</ele>
        <time>2014-03-02T15:05:28.000Z</time>
      </trkpt>
      <trkpt lat="45.33384" lon="6.18688">
        <ele>2275.3999023438</ele>
        <time>2014-03-02T15:05:29.000Z</time>
      </trkpt>
      <trkpt lat="45.33383" lon="6.18688">
        <ele>2275.8000488281</ele>
        <time>2014-03-02T15:05:30.000Z</time>
      </trkpt>
      <trkpt lat="45.33382" lon="6.18688">
        <ele>2276</ele>
        <time>2014-03-02T15:05:31.000Z</time>
      </trkpt>
      <trkpt lat="45.33381" lon="6.18688">
        <ele>2276</ele>
        <time>2014-03-02T15:05:32.000Z</time>
      </trkpt>
      <trkpt lat="45.33381" lon="6.18688">
        <ele>2276</ele>
        <time>2014-03-02T15:05:33.000Z</time>
      </trkpt>
      <trkpt lat="45.3338" lon="6.18688">
        <ele>2276</ele>
        <time>2014-03-02T15:05:34.000Z</time>
      </trkpt>
      <trkpt lat="45.33379" lon="6.18689">
        <ele>2276.1999511719</ele>
        <time>2014-03-02T15:05:36.000Z</time>
      </trkpt>
      <trkpt lat="45.33378" lon="6.18689">
        <ele>2276.1999511719</ele>
        <time>2014-03-02T15:05:37.000Z</time>
      </trkpt>
      <trkpt lat="45.33378" lon="6.18689">
        <ele>2276.1999511719</ele>
        <time>2014-03-02T15:05:38.000Z</time>
      </trkpt>
      <trkpt lat="45.33378" lon="6.18689">
        <ele>2276.1999511719</ele>
        <time>2014-03-02T15:05:39.000Z</time>
      </trkpt>
      <trkpt lat="45.33378" lon="6.18689">
        <ele>2276</ele>
        <time>2014-03-02T15:05:40.000Z</time>
      </trkpt>
      <trkpt lat="45.33378" lon="6.18689">
        <ele>2276</ele>
        <time>2014-03-02T15:05:41.000Z</time>
      </trkpt>
      <trkpt lat="45.33378" lon="6.18689">
        <ele>2276</ele>
        <time>2014-03-02T15:05:42.000Z</time>
      </trkpt>
      <trkpt lat="45.33378" lon="6.18689">
        <ele>2276</ele>
        <time>2014-03-02T15:05:43.000Z</time>
      </trkpt>
      <trkpt lat="45.33378" lon="6.18689">
        <ele>2276</ele>
        <time>2014-03-02T15:05:44.000Z</time>
      </trkpt>
      <trkpt lat="45.33378" lon="6.18689">
        <ele>2276</ele>
        <time>2014-03-02T15:05:45.000Z</time>
      </trkpt>
      <trkpt lat="45.33378" lon="6.18689">
        <ele>2276</ele>
        <time>2014-03-02T15:05:46.000Z</time>
      </trkpt>
      <trkpt lat="45.33378" lon="6.18689">
        <ele>2276</ele>
        <time>2014-03-02T15:05:47.000Z</time>
      </trkpt>
      <trkpt lat="45.33378" lon="6.18689">
        <ele>2276</ele>
        <time>2014-03-02T15:05:48.000Z</time>
      </trkpt>
      <trkpt lat="45.33378" lon="6.18689">
        <ele>2276</ele>
        <time>2014-03-02T15:05:49.000Z</time>
      </trkpt>
      <trkpt lat="45.33378" lon="6.18689">
        <ele>2276</ele>
        <time>2014-03-02T15:05:50.000Z</time>
      </trkpt>
      <trkpt lat="45.33377" lon="6.18688">
        <ele>2276</ele>
        <time>2014-03-02T15:05:51.000Z</time>
      </trkpt>
      <trkpt lat="45.33377" lon="6.18688">
        <ele>2276</ele>
        <time>2014-03-02T15:05:52.000Z</time>
      </trkpt>
      <trkpt lat="45.33377" lon="6.18688">
        <ele>2276</ele>
        <time>2014-03-02T15:05:53.000Z</time>
      </trkpt>
      <trkpt lat="45.33376" lon="6.18688">
        <ele>2276</ele>
        <time>2014-03-02T15:05:54.000Z</time>
      </trkpt>
      <trkpt lat="45.33375" lon="6.18689">
        <ele>2276</ele>
        <time>2014-03-02T15:05:56.000Z</time>
      </trkpt>
      <trkpt lat="45.33374" lon="6.18689">
        <ele>2276.1999511719</ele>
        <time>2014-03-02T15:05:57.000Z</time>
      </trkpt>
      <trkpt lat="45.33373" lon="6.18689">
        <ele>2276.3999023438</ele>
        <time>2014-03-02T15:05:58.000Z</time>
      </trkpt>
      <trkpt lat="45.33373" lon="6.1869">
        <ele>2276.8000488281</ele>
        <time>2014-03-02T15:05:59.000Z</time>
      </trkpt>
      <trkpt lat="45.33372" lon="6.18691">
        <ele>2277.1999511719</ele>
        <time>2014-03-02T15:06:00.000Z</time>
      </trkpt>
      <trkpt lat="45.33371" lon="6.18691">
        <ele>2277.3999023438</ele>
        <time>2014-03-02T15:06:01.000Z</time>
      </trkpt>
      <trkpt lat="45.33371" lon="6.18691">
        <ele>2277.1999511719</ele>
        <time>2014-03-02T15:06:02.000Z</time>
      </trkpt>
      <trkpt lat="45.3337" lon="6.18691">
        <ele>2277.3999023438</ele>
        <time>2014-03-02T15:06:03.000Z</time>
      </trkpt>
      <trkpt lat="45.3337" lon="6.18691">
        <ele>2277.3999023438</ele>
        <time>2014-03-02T15:06:04.000Z</time>
      </trkpt>
      <trkpt lat="45.33369" lon="6.18691">
        <ele>2277.6000976562</ele>
        <time>2014-03-02T15:06:05.000Z</time>
      </trkpt>
      <trkpt lat="45.33369" lon="6.18692">
        <ele>2278</ele>
        <time>2014-03-02T15:06:06.000Z</time>
      </trkpt>
      <trkpt lat="45.33368" lon="6.18693">
        <ele>2278.3999023438</ele>
        <time>2014-03-02T15:06:07.000Z</time>
      </trkpt>
      <trkpt lat="45.33368" lon="6.18693">
        <ele>2278.3999023438</ele>
        <time>2014-03-02T15:06:08.000Z</time>
      </trkpt>
      <trkpt lat="45.33368" lon="6.18693">
        <ele>2278.3999023438</ele>
        <time>2014-03-02T15:06:09.000Z</time>
      </trkpt>
      <trkpt lat="45.33368" lon="6.18693">
        <ele>2278.3999023438</ele>
        <time>2014-03-02T15:06:10.000Z</time>
      </trkpt>
      <trkpt lat="45.33367" lon="6.18694">
        <ele>2278.8000488281</ele>
        <time>2014-03-02T15:06:11.000Z</time>
      </trkpt>
      <trkpt lat="45.33366" lon="6.18695">
        <ele>2279.1999511719</ele>
        <time>2014-03-02T15:06:12.000Z</time>
      </trkpt>
      <trkpt lat="45.33365" lon="6.18695">
        <ele>2279.8000488281</ele>
        <time>2014-03-02T15:06:13.000Z</time>
      </trkpt>
      <trkpt lat="45.33364" lon="6.18697">
        <ele>2280.3999023438</ele>
        <time>2014-03-02T15:06:14.000Z</time>
      </trkpt>
      <trkpt lat="45.33364" lon="6.18697">
        <ele>2280.8000488281</ele>
        <time>2014-03-02T15:06:15.000Z</time>
      </trkpt>
      <trkpt lat="45.33364" lon="6.18698">
        <ele>2281.1999511719</ele>
        <time>2014-03-02T15:06:16.000Z</time>
      </trkpt>
      <trkpt lat="45.33364" lon="6.18698">
        <ele>2281.1999511719</ele>
        <time>2014-03-02T15:06:17.000Z</time>
      </trkpt>
      <trkpt lat="45.33364" lon="6.18699">
        <ele>2281.6000976562</ele>
        <time>2014-03-02T15:06:18.000Z</time>
      </trkpt>
      <trkpt lat="45.33364" lon="6.18699">
        <ele>2281.6000976562</ele>
        <time>2014-03-02T15:06:19.000Z</time>
      </trkpt>
      <trkpt lat="45.33364" lon="6.18699">
        <ele>2281.8000488281</ele>
        <time>2014-03-02T15:06:20.000Z</time>
      </trkpt>
      <trkpt lat="45.33364" lon="6.18699">
        <ele>2281.8000488281</ele>
        <time>2014-03-02T15:06:21.000Z</time>
      </trkpt>
      <trkpt lat="45.33363" lon="6.18699">
        <ele>2282</ele>
        <time>2014-03-02T15:06:22.000Z</time>
      </trkpt>
      <trkpt lat="45.33363" lon="6.187">
        <ele>2282.1999511719</ele>
        <time>2014-03-02T15:06:23.000Z</time>
      </trkpt>
      <trkpt lat="45.33362" lon="6.18701">
        <ele>2282.8000488281</ele>
        <time>2014-03-02T15:06:24.000Z</time>
      </trkpt>
      <trkpt lat="45.33361" lon="6.18702">
        <ele>2283.1999511719</ele>
        <time>2014-03-02T15:06:25.000Z</time>
      </trkpt>
      <trkpt lat="45.3336" lon="6.18703">
        <ele>2284</ele>
        <time>2014-03-02T15:06:26.000Z</time>
      </trkpt>
      <trkpt lat="45.33359" lon="6.18704">
        <ele>2284.6000976562</ele>
        <time>2014-03-02T15:06:27.000Z</time>
      </trkpt>
      <trkpt lat="45.33358" lon="6.18705">
        <ele>2285</ele>
        <time>2014-03-02T15:06:28.000Z</time>
      </trkpt>
      <trkpt lat="45.33358" lon="6.18705">
        <ele>2285</ele>
        <time>2014-03-02T15:06:29.000Z</time>
      </trkpt>
      <trkpt lat="45.33358" lon="6.18705">
        <ele>2285.3999023438</ele>
        <time>2014-03-02T15:06:30.000Z</time>
      </trkpt>
      <trkpt lat="45.33357" lon="6.18707">
        <ele>2285.3999023438</ele>
        <time>2014-03-02T15:06:31.000Z</time>
      </trkpt>
      <trkpt lat="45.33357" lon="6.18707">
        <ele>2285.3999023438</ele>
        <time>2014-03-02T15:06:32.000Z</time>
      </trkpt>
      <trkpt lat="45.33357" lon="6.18707">
        <ele>2285.3999023438</ele>
        <time>2014-03-02T15:06:33.000Z</time>
      </trkpt>
      <trkpt lat="45.33356" lon="6.18707">
        <ele>2285.3999023438</ele>
        <time>2014-03-02T15:06:34.000Z</time>
      </trkpt>
      <trkpt lat="45.33356" lon="6.18708">
        <ele>2285.1999511719</ele>
        <time>2014-03-02T15:06:35.000Z</time>
      </trkpt>
      <trkpt lat="45.33355" lon="6.18709">
        <ele>2285.3999023438</ele>
        <time>2014-03-02T15:06:36.000Z</time>
      </trkpt>
      <trkpt lat="45.33355" lon="6.18709">
        <ele>2285.3999023438</ele>
        <time>2014-03-02T15:06:37.000Z</time>
      </trkpt>
      <trkpt lat="45.33355" lon="6.18709">
        <ele>2285.3999023438</ele>
        <time>2014-03-02T15:06:38.000Z</time>
      </trkpt>
      <trkpt lat="45.33355" lon="6.18709">
        <ele>2285.3999023438</ele>
        <time>2014-03-02T15:06:39.000Z</time>
      </trkpt>
      <trkpt lat="45.33355" lon="6.18709">
        <ele>2285.3999023438</ele>
        <time>2014-03-02T15:06:40.000Z</time>
      </trkpt>
      <trkpt lat="45.33355" lon="6.18709">
        <ele>2285.3999023438</ele>
        <time>2014-03-02T15:06:41.000Z</time>
      </trkpt>
      <trkpt lat="45.33355" lon="6.18709">
        <ele>2285.3999023438</ele>
        <time>2014-03-02T15:06:42.000Z</time>
      </trkpt>
      <trkpt lat="45.33355" lon="6.18709">
        <ele>2285.3999023438</ele>
        <time>2014-03-02T15:06:43.000Z</time>
      </trkpt>
      <trkpt lat="45.33355" lon="6.18709">
        <ele>2285.3999023438</ele>
        <time>2014-03-02T15:06:44.000Z</time>
      </trkpt>
      <trkpt lat="45.33355" lon="6.18709">
        <ele>2285.3999023438</ele>
        <time>2014-03-02T15:06:45.000Z</time>
      </trkpt>
      <trkpt lat="45.33355" lon="6.18709">
        <ele>2285.3999023438</ele>
        <time>2014-03-02T15:06:46.000Z</time>
      </trkpt>
      <trkpt lat="45.33355" lon="6.18709">
        <ele>2285.3999023438</ele>
        <time>2014-03-02T15:06:47.000Z</time>
      </trkpt>
      <trkpt lat="45.33355" lon="6.18709">
        <ele>2285.3999023438</ele>
        <time>2014-03-02T15:06:48.000Z</time>
      </trkpt>
      <trkpt lat="45.33355" lon="6.18709">
        <ele>2285.3999023438</ele>
        <time>2014-03-02T15:06:49.000Z</time>
      </trkpt>
      <trkpt lat="45.33355" lon="6.18709">
        <ele>2285.3999023438</ele>
        <time>2014-03-02T15:06:50.000Z</time>
      </trkpt>
      <trkpt lat="45.33355" lon="6.18709">
        <ele>2285.3999023438</ele>
        <time>2014-03-02T15:06:51.000Z</time>
      </trkpt>
      <trkpt lat="45.33355" lon="6.18709">
        <ele>2285.3999023438</ele>
        <time>2014-03-02T15:06:52.000Z</time>
      </trkpt>
      <trkpt lat="45.33355" lon="6.18709">
        <ele>2285.3999023438</ele>
        <time>2014-03-02T15:06:53.000Z</time>
      </trkpt>
      <trkpt lat="45.33355" lon="6.18709">
        <ele>2285.3999023438</ele>
        <time>2014-03-02T15:06:54.000Z</time>
      </trkpt>
      <trkpt lat="45.33355" lon="6.18709">
        <ele>2285.3999023438</ele>
        <time>2014-03-02T15:06:55.000Z</time>
      </trkpt>
      <trkpt lat="45.33354" lon="6.1871">
        <ele>2285.3999023438</ele>
        <time>2014-03-02T15:06:56.000Z</time>
      </trkpt>
      <trkpt lat="45.33354" lon="6.18711">
        <ele>2285.6000976562</ele>
        <time>2014-03-02T15:06:57.000Z</time>
      </trkpt>
      <trkpt lat="45.33353" lon="6.18712">
        <ele>2285.6000976562</ele>
        <time>2014-03-02T15:06:58.000Z</time>
      </trkpt>
      <trkpt lat="45.33353" lon="6.18712">
        <ele>2285.6000976562</ele>
        <time>2014-03-02T15:06:59.000Z</time>
      </trkpt>
      <trkpt lat="45.33353" lon="6.18712">
        <ele>2285.6000976562</ele>
        <time>2014-03-02T15:07:00.000Z</time>
      </trkpt>
      <trkpt lat="45.33353" lon="6.18712">
        <ele>2285.6000976562</ele>
        <time>2014-03-02T15:07:01.000Z</time>
      </trkpt>
      <trkpt lat="45.33353" lon="6.18712">
        <ele>2285.8000488281</ele>
        <time>2014-03-02T15:07:02.000Z</time>
      </trkpt>
      <trkpt lat="45.33353" lon="6.18712">
        <ele>2285.8000488281</ele>
        <time>2014-03-02T15:07:03.000Z</time>
      </trkpt>
      <trkpt lat="45.33353" lon="6.18713">
        <ele>2285.8000488281</ele>
        <time>2014-03-02T15:07:04.000Z</time>
      </trkpt>
      <trkpt lat="45.33352" lon="6.18714">
        <ele>2286</ele>
        <time>2014-03-02T15:07:05.000Z</time>
      </trkpt>
      <trkpt lat="45.33352" lon="6.18715">
        <ele>2286</ele>
        <time>2014-03-02T15:07:06.000Z</time>
      </trkpt>
      <trkpt lat="45.33352" lon="6.18715">
        <ele>2286</ele>
        <time>2014-03-02T15:07:07.000Z</time>
      </trkpt>
      <trkpt lat="45.3335" lon="6.18717">
        <ele>2286</ele>
        <time>2014-03-02T15:07:08.000Z</time>
      </trkpt>
      <trkpt lat="45.33349" lon="6.18718">
        <ele>2286</ele>
        <time>2014-03-02T15:07:09.000Z</time>
      </trkpt>
      <trkpt lat="45.33348" lon="6.1872">
        <ele>2286.1999511719</ele>
        <time>2014-03-02T15:07:10.000Z</time>
      </trkpt>
      <trkpt lat="45.33348" lon="6.18721">
        <ele>2286.3999023438</ele>
        <time>2014-03-02T15:07:11.000Z</time>
      </trkpt>
      <trkpt lat="45.33347" lon="6.18723">
        <ele>2286.6000976562</ele>
        <time>2014-03-02T15:07:12.000Z</time>
      </trkpt>
      <trkpt lat="45.33346" lon="6.18724">
        <ele>2286.6000976562</ele>
        <time>2014-03-02T15:07:13.000Z</time>
      </trkpt>
      <trkpt lat="45.33345" lon="6.18726">
        <ele>2286.8000488281</ele>
        <time>2014-03-02T15:07:14.000Z</time>
      </trkpt>
      <trkpt lat="45.33344" lon="6.18727">
        <ele>2286.8000488281</ele>
        <time>2014-03-02T15:07:15.000Z</time>
      </trkpt>
      <trkpt lat="45.33343" lon="6.18728">
        <ele>2286.6000976562</ele>
        <time>2014-03-02T15:07:16.000Z</time>
      </trkpt>
      <trkpt lat="45.33342" lon="6.18728">
        <ele>2286.6000976562</ele>
        <time>2014-03-02T15:07:17.000Z</time>
      </trkpt>
      <trkpt lat="45.33342" lon="6.18729">
        <ele>2286.6000976562</ele>
        <time>2014-03-02T15:07:18.000Z</time>
      </trkpt>
      <trkpt lat="45.33341" lon="6.1873">
        <ele>2286.3999023438</ele>
        <time>2014-03-02T15:07:19.000Z</time>
      </trkpt>
      <trkpt lat="45.3334" lon="6.18731">
        <ele>2286.1999511719</ele>
        <time>2014-03-02T15:07:20.000Z</time>
      </trkpt>
      <trkpt lat="45.33339" lon="6.18731">
        <ele>2286.1999511719</ele>
        <time>2014-03-02T15:07:21.000Z</time>
      </trkpt>
      <trkpt lat="45.33339" lon="6.18732">
        <ele>2286</ele>
        <time>2014-03-02T15:07:22.000Z</time>
      </trkpt>
      <trkpt lat="45.33338" lon="6.18732">
        <ele>2286</ele>
        <time>2014-03-02T15:07:23.000Z</time>
      </trkpt>
      <trkpt lat="45.33337" lon="6.18733">
        <ele>2285.8000488281</ele>
        <time>2014-03-02T15:07:24.000Z</time>
      </trkpt>
      <trkpt lat="45.33337" lon="6.18733">
        <ele>2286</ele>
        <time>2014-03-02T15:07:25.000Z</time>
      </trkpt>
      <trkpt lat="45.33337" lon="6.18733">
        <ele>2286</ele>
        <time>2014-03-02T15:07:26.000Z</time>
      </trkpt>
      <trkpt lat="45.33337" lon="6.18734">
        <ele>2286</ele>
        <time>2014-03-02T15:07:27.000Z</time>
      </trkpt>
      <trkpt lat="45.33337" lon="6.18734">
        <ele>2286</ele>
        <time>2014-03-02T15:07:28.000Z</time>
      </trkpt>
      <trkpt lat="45.33336" lon="6.18735">
        <ele>2286</ele>
        <time>2014-03-02T15:07:29.000Z</time>
      </trkpt>
      <trkpt lat="45.33335" lon="6.18735">
        <ele>2285.8000488281</ele>
        <time>2014-03-02T15:07:30.000Z</time>
      </trkpt>
      <trkpt lat="45.33335" lon="6.18736">
        <ele>2285.8000488281</ele>
        <time>2014-03-02T15:07:31.000Z</time>
      </trkpt>
      <trkpt lat="45.33334" lon="6.18737">
        <ele>2285.6000976562</ele>
        <time>2014-03-02T15:07:32.000Z</time>
      </trkpt>
      <trkpt lat="45.33333" lon="6.18738">
        <ele>2285.6000976562</ele>
        <time>2014-03-02T15:07:33.000Z</time>
      </trkpt>
      <trkpt lat="45.33332" lon="6.18738">
        <ele>2285.3999023438</ele>
        <time>2014-03-02T15:07:34.000Z</time>
      </trkpt>
      <trkpt lat="45.33332" lon="6.18739">
        <ele>2285.1999511719</ele>
        <time>2014-03-02T15:07:35.000Z</time>
      </trkpt>
      <trkpt lat="45.33331" lon="6.18739">
        <ele>2285.1999511719</ele>
        <time>2014-03-02T15:07:36.000Z</time>
      </trkpt>
      <trkpt lat="45.33331" lon="6.18739">
        <ele>2285.1999511719</ele>
        <time>2014-03-02T15:07:37.000Z</time>
      </trkpt>
      <trkpt lat="45.33331" lon="6.1874">
        <ele>2285.1999511719</ele>
        <time>2014-03-02T15:07:38.000Z</time>
      </trkpt>
      <trkpt lat="45.3333" lon="6.1874">
        <ele>2285</ele>
        <time>2014-03-02T15:07:39.000Z</time>
      </trkpt>
      <trkpt lat="45.3333" lon="6.1874">
        <ele>2285</ele>
        <time>2014-03-02T15:07:40.000Z</time>
      </trkpt>
      <trkpt lat="45.3333" lon="6.1874">
        <ele>2285</ele>
        <time>2014-03-02T15:07:41.000Z</time>
      </trkpt>
      <trkpt lat="45.33329" lon="6.18741">
        <ele>2284.8000488281</ele>
        <time>2014-03-02T15:07:42.000Z</time>
      </trkpt>
      <trkpt lat="45.33329" lon="6.18741">
        <ele>2284.8000488281</ele>
        <time>2014-03-02T15:07:43.000Z</time>
      </trkpt>
      <trkpt lat="45.33328" lon="6.18741">
        <ele>2284.6000976562</ele>
        <time>2014-03-02T15:07:44.000Z</time>
      </trkpt>
      <trkpt lat="45.33328" lon="6.18741">
        <ele>2284.6000976562</ele>
        <time>2014-03-02T15:07:45.000Z</time>
      </trkpt>
      <trkpt lat="45.33328" lon="6.18742">
        <ele>2284.6000976562</ele>
        <time>2014-03-02T15:07:46.000Z</time>
      </trkpt>
      <trkpt lat="45.33328" lon="6.18742">
        <ele>2284.6000976562</ele>
        <time>2014-03-02T15:07:47.000Z</time>
      </trkpt>
      <trkpt lat="45.33327" lon="6.18742">
        <ele>2284.6000976562</ele>
        <time>2014-03-02T15:07:48.000Z</time>
      </trkpt>
      <trkpt lat="45.33327" lon="6.18742">
        <ele>2284.6000976562</ele>
        <time>2014-03-02T15:07:49.000Z</time>
      </trkpt>
      <trkpt lat="45.33327" lon="6.18743">
        <ele>2284.3999023438</ele>
        <time>2014-03-02T15:07:50.000Z</time>
      </trkpt>
      <trkpt lat="45.33326" lon="6.18743">
        <ele>2284.3999023438</ele>
        <time>2014-03-02T15:07:51.000Z</time>
      </trkpt>
      <trkpt lat="45.33326" lon="6.18743">
        <ele>2284.3999023438</ele>
        <time>2014-03-02T15:07:52.000Z</time>
      </trkpt>
      <trkpt lat="45.33326" lon="6.18743">
        <ele>2284.3999023438</ele>
        <time>2014-03-02T15:07:53.000Z</time>
      </trkpt>
      <trkpt lat="45.33326" lon="6.18743">
        <ele>2284.3999023438</ele>
        <time>2014-03-02T15:07:54.000Z</time>
      </trkpt>
      <trkpt lat="45.33326" lon="6.18743">
        <ele>2284.3999023438</ele>
        <time>2014-03-02T15:07:55.000Z</time>
      </trkpt>
      <trkpt lat="45.33326" lon="6.18743">
        <ele>2284.3999023438</ele>
        <time>2014-03-02T15:07:56.000Z</time>
      </trkpt>
      <trkpt lat="45.33326" lon="6.18743">
        <ele>2284.3999023438</ele>
        <time>2014-03-02T15:07:57.000Z</time>
      </trkpt>
      <trkpt lat="45.33326" lon="6.18743">
        <ele>2284.3999023438</ele>
        <time>2014-03-02T15:07:58.000Z</time>
      </trkpt>
      <trkpt lat="45.33326" lon="6.18743">
        <ele>2284.3999023438</ele>
        <time>2014-03-02T15:07:59.000Z</time>
      </trkpt>
      <trkpt lat="45.33326" lon="6.18743">
        <ele>2284.3999023438</ele>
        <time>2014-03-02T15:08:00.000Z</time>
      </trkpt>
      <trkpt lat="45.33326" lon="6.18743">
        <ele>2284.1999511719</ele>
        <time>2014-03-02T15:08:01.000Z</time>
      </trkpt>
      <trkpt lat="45.33325" lon="6.18743">
        <ele>2284.1999511719</ele>
        <time>2014-03-02T15:08:02.000Z</time>
      </trkpt>
      <trkpt lat="45.33325" lon="6.18743">
        <ele>2284</ele>
        <time>2014-03-02T15:08:03.000Z</time>
      </trkpt>
      <trkpt lat="45.33325" lon="6.18743">
        <ele>2283.8000488281</ele>
        <time>2014-03-02T15:08:04.000Z</time>
      </trkpt>
      <trkpt lat="45.33324" lon="6.18743">
        <ele>2283.8000488281</ele>
        <time>2014-03-02T15:08:05.000Z</time>
      </trkpt>
      <trkpt lat="45.33324" lon="6.18744">
        <ele>2283.8000488281</ele>
        <time>2014-03-02T15:08:06.000Z</time>
      </trkpt>
      <trkpt lat="45.33323" lon="6.18744">
        <ele>2283.6000976562</ele>
        <time>2014-03-02T15:08:07.000Z</time>
      </trkpt>
      <trkpt lat="45.33323" lon="6.18744">
        <ele>2283.3999023438</ele>
        <time>2014-03-02T15:08:08.000Z</time>
      </trkpt>
      <trkpt lat="45.33322" lon="6.18744">
        <ele>2283.1999511719</ele>
        <time>2014-03-02T15:08:09.000Z</time>
      </trkpt>
      <trkpt lat="45.33322" lon="6.18744">
        <ele>2283.1999511719</ele>
        <time>2014-03-02T15:08:10.000Z</time>
      </trkpt>
      <trkpt lat="45.33322" lon="6.18744">
        <ele>2283.1999511719</ele>
        <time>2014-03-02T15:08:11.000Z</time>
      </trkpt>
      <trkpt lat="45.33322" lon="6.18744">
        <ele>2283.1999511719</ele>
        <time>2014-03-02T15:08:12.000Z</time>
      </trkpt>
      <trkpt lat="45.33322" lon="6.18744">
        <ele>2283.1999511719</ele>
        <time>2014-03-02T15:08:13.000Z</time>
      </trkpt>
      <trkpt lat="45.33322" lon="6.18744">
        <ele>2283.1999511719</ele>
        <time>2014-03-02T15:08:14.000Z</time>
      </trkpt>
      <trkpt lat="45.33322" lon="6.18744">
        <ele>2283.1999511719</ele>
        <time>2014-03-02T15:08:15.000Z</time>
      </trkpt>
      <trkpt lat="45.33322" lon="6.18744">
        <ele>2283.1999511719</ele>
        <time>2014-03-02T15:08:16.000Z</time>
      </trkpt>
      <trkpt lat="45.33322" lon="6.18744">
        <ele>2283.1999511719</ele>
        <time>2014-03-02T15:08:17.000Z</time>
      </trkpt>
      <trkpt lat="45.33322" lon="6.18744">
        <ele>2283.1999511719</ele>
        <time>2014-03-02T15:08:18.000Z</time>
      </trkpt>
      <trkpt lat="45.33322" lon="6.18744">
        <ele>2283.1999511719</ele>
        <time>2014-03-02T15:08:19.000Z</time>
      </trkpt>
      <trkpt lat="45.33322" lon="6.18744">
        <ele>2283.1999511719</ele>
        <time>2014-03-02T15:08:20.000Z</time>
      </trkpt>
      <trkpt lat="45.33322" lon="6.18744">
        <ele>2283.1999511719</ele>
        <time>2014-03-02T15:08:21.000Z</time>
      </trkpt>
      <trkpt lat="45.33322" lon="6.18744">
        <ele>2283.1999511719</ele>
        <time>2014-03-02T15:08:22.000Z</time>
      </trkpt>
      <trkpt lat="45.33322" lon="6.18744">
        <ele>2283.1999511719</ele>
        <time>2014-03-02T15:08:23.000Z</time>
      </trkpt>
      <trkpt lat="45.33321" lon="6.18745">
        <ele>2283</ele>
        <time>2014-03-02T15:08:25.000Z</time>
      </trkpt>
      <trkpt lat="45.33321" lon="6.18745">
        <ele>2283</ele>
        <time>2014-03-02T15:08:26.000Z</time>
      </trkpt>
      <trkpt lat="45.33321" lon="6.18745">
        <ele>2283</ele>
        <time>2014-03-02T15:08:27.000Z</time>
      </trkpt>
      <trkpt lat="45.33321" lon="6.18745">
        <ele>2283</ele>
        <time>2014-03-02T15:08:28.000Z</time>
      </trkpt>
      <trkpt lat="45.33321" lon="6.18745">
        <ele>2283</ele>
        <time>2014-03-02T15:08:29.000Z</time>
      </trkpt>
      <trkpt lat="45.33321" lon="6.18745">
        <ele>2283</ele>
        <time>2014-03-02T15:08:30.000Z</time>
      </trkpt>
      <trkpt lat="45.33321" lon="6.18746">
        <ele>2283.3999023438</ele>
        <time>2014-03-02T15:08:31.000Z</time>
      </trkpt>
      <trkpt lat="45.33321" lon="6.18746">
        <ele>2283.3999023438</ele>
        <time>2014-03-02T15:08:32.000Z</time>
      </trkpt>
      <trkpt lat="45.33322" lon="6.18747">
        <ele>2283.8000488281</ele>
        <time>2014-03-02T15:08:33.000Z</time>
      </trkpt>
      <trkpt lat="45.33322" lon="6.18747">
        <ele>2284</ele>
        <time>2014-03-02T15:08:34.000Z</time>
      </trkpt>
      <trkpt lat="45.33323" lon="6.18748">
        <ele>2284.1999511719</ele>
        <time>2014-03-02T15:08:35.000Z</time>
      </trkpt>
      <trkpt lat="45.33323" lon="6.18748">
        <ele>2284.3999023438</ele>
        <time>2014-03-02T15:08:36.000Z</time>
      </trkpt>
      <trkpt lat="45.33323" lon="6.18749">
        <ele>2284.8000488281</ele>
        <time>2014-03-02T15:08:37.000Z</time>
      </trkpt>
      <trkpt lat="45.33324" lon="6.1875">
        <ele>2285</ele>
        <time>2014-03-02T15:08:38.000Z</time>
      </trkpt>
      <trkpt lat="45.33324" lon="6.18751">
        <ele>2285.1999511719</ele>
        <time>2014-03-02T15:08:39.000Z</time>
      </trkpt>
      <trkpt lat="45.33324" lon="6.18751">
        <ele>2285.1999511719</ele>
        <time>2014-03-02T15:08:40.000Z</time>
      </trkpt>
      <trkpt lat="45.33324" lon="6.18751">
        <ele>2285.3999023438</ele>
        <time>2014-03-02T15:08:41.000Z</time>
      </trkpt>
      <trkpt lat="45.33324" lon="6.18752">
        <ele>2285.6000976562</ele>
        <time>2014-03-02T15:08:42.000Z</time>
      </trkpt>
      <trkpt lat="45.33324" lon="6.18753">
        <ele>2285.8000488281</ele>
        <time>2014-03-02T15:08:43.000Z</time>
      </trkpt>
      <trkpt lat="45.33324" lon="6.18753">
        <ele>2285.8000488281</ele>
        <time>2014-03-02T15:08:44.000Z</time>
      </trkpt>
      <trkpt lat="45.33325" lon="6.18753">
        <ele>2286</ele>
        <time>2014-03-02T15:08:45.000Z</time>
      </trkpt>
      <trkpt lat="45.33325" lon="6.18753">
        <ele>2286</ele>
        <time>2014-03-02T15:08:46.000Z</time>
      </trkpt>
      <trkpt lat="45.33325" lon="6.18754">
        <ele>2286.1999511719</ele>
        <time>2014-03-02T15:08:47.000Z</time>
      </trkpt>
      <trkpt lat="45.33325" lon="6.18754">
        <ele>2286.1999511719</ele>
        <time>2014-03-02T15:08:48.000Z</time>
      </trkpt>
      <trkpt lat="45.33325" lon="6.18754">
        <ele>2286.1999511719</ele>
        <time>2014-03-02T15:08:49.000Z</time>
      </trkpt>
      <trkpt lat="45.33325" lon="6.18754">
        <ele>2286.1999511719</ele>
        <time>2014-03-02T15:08:50.000Z</time>
      </trkpt>
      <trkpt lat="45.33325" lon="6.18754">
        <ele>2286.1999511719</ele>
        <time>2014-03-02T15:08:51.000Z</time>
      </trkpt>
      <trkpt lat="45.33325" lon="6.18754">
        <ele>2286.1999511719</ele>
        <time>2014-03-02T15:08:52.000Z</time>
      </trkpt>
      <trkpt lat="45.33325" lon="6.18754">
        <ele>2286.1999511719</ele>
        <time>2014-03-02T15:08:53.000Z</time>
      </trkpt>
      <trkpt lat="45.33325" lon="6.18754">
        <ele>2286.1999511719</ele>
        <time>2014-03-02T15:08:54.000Z</time>
      </trkpt>
      <trkpt lat="45.33324" lon="6.18755">
        <ele>2286.1999511719</ele>
        <time>2014-03-02T15:08:55.000Z</time>
      </trkpt>
      <trkpt lat="45.33324" lon="6.18756">
        <ele>2286</ele>
        <time>2014-03-02T15:08:56.000Z</time>
      </trkpt>
      <trkpt lat="45.33324" lon="6.18756">
        <ele>2286</ele>
        <time>2014-03-02T15:08:57.000Z</time>
      </trkpt>
      <trkpt lat="45.33324" lon="6.18756">
        <ele>2285.8000488281</ele>
        <time>2014-03-02T15:08:58.000Z</time>
      </trkpt>
      <trkpt lat="45.33324" lon="6.18756">
        <ele>2285.8000488281</ele>
        <time>2014-03-02T15:08:59.000Z</time>
      </trkpt>
      <trkpt lat="45.33323" lon="6.18757">
        <ele>2285.6000976562</ele>
        <time>2014-03-02T15:09:00.000Z</time>
      </trkpt>
      <trkpt lat="45.33323" lon="6.18758">
        <ele>2285.3999023438</ele>
        <time>2014-03-02T15:09:01.000Z</time>
      </trkpt>
      <trkpt lat="45.33323" lon="6.18758">
        <ele>2285.3999023438</ele>
        <time>2014-03-02T15:09:02.000Z</time>
      </trkpt>
      <trkpt lat="45.33323" lon="6.18759">
        <ele>2285.6000976562</ele>
        <time>2014-03-02T15:09:03.000Z</time>
      </trkpt>
      <trkpt lat="45.33323" lon="6.18759">
        <ele>2285.6000976562</ele>
        <time>2014-03-02T15:09:04.000Z</time>
      </trkpt>
      <trkpt lat="45.33323" lon="6.1876">
        <ele>2285.8000488281</ele>
        <time>2014-03-02T15:09:05.000Z</time>
      </trkpt>
      <trkpt lat="45.33324" lon="6.1876">
        <ele>2286</ele>
        <time>2014-03-02T15:09:06.000Z</time>
      </trkpt>
      <trkpt lat="45.33324" lon="6.18761">
        <ele>2286.1999511719</ele>
        <time>2014-03-02T15:09:07.000Z</time>
      </trkpt>
      <trkpt lat="45.33324" lon="6.18761">
        <ele>2286.1999511719</ele>
        <time>2014-03-02T15:09:08.000Z</time>
      </trkpt>
      <trkpt lat="45.33324" lon="6.18762">
        <ele>2286.1999511719</ele>
        <time>2014-03-02T15:09:09.000Z</time>
      </trkpt>
      <trkpt lat="45.33324" lon="6.18762">
        <ele>2286.1999511719</ele>
        <time>2014-03-02T15:09:10.000Z</time>
      </trkpt>
      <trkpt lat="45.33325" lon="6.18763">
        <ele>2286.6000976562</ele>
        <time>2014-03-02T15:09:11.000Z</time>
      </trkpt>
      <trkpt lat="45.33325" lon="6.18763">
        <ele>2286.8000488281</ele>
        <time>2014-03-02T15:09:12.000Z</time>
      </trkpt>
      <trkpt lat="45.33326" lon="6.18764">
        <ele>2287</ele>
        <time>2014-03-02T15:09:13.000Z</time>
      </trkpt>
      <trkpt lat="45.33327" lon="6.18764">
        <ele>2287.3999023438</ele>
        <time>2014-03-02T15:09:14.000Z</time>
      </trkpt>
      <trkpt lat="45.33327" lon="6.18764">
        <ele>2287.8000488281</ele>
        <time>2014-03-02T15:09:15.000Z</time>
      </trkpt>
      <trkpt lat="45.33328" lon="6.18765">
        <ele>2288.3999023438</ele>
        <time>2014-03-02T15:09:16.000Z</time>
      </trkpt>
      <trkpt lat="45.33329" lon="6.18765">
        <ele>2288.3999023438</ele>
        <time>2014-03-02T15:09:17.000Z</time>
      </trkpt>
      <trkpt lat="45.3333" lon="6.18766">
        <ele>2289</ele>
        <time>2014-03-02T15:09:18.000Z</time>
      </trkpt>
      <trkpt lat="45.3333" lon="6.18766">
        <ele>2289.1999511719</ele>
        <time>2014-03-02T15:09:19.000Z</time>
      </trkpt>
      <trkpt lat="45.33331" lon="6.18767">
        <ele>2289.6000976562</ele>
        <time>2014-03-02T15:09:20.000Z</time>
      </trkpt>
      <trkpt lat="45.33331" lon="6.18768">
        <ele>2290</ele>
        <time>2014-03-02T15:09:21.000Z</time>
      </trkpt>
      <trkpt lat="45.33332" lon="6.18768">
        <ele>2290.1999511719</ele>
        <time>2014-03-02T15:09:22.000Z</time>
      </trkpt>
      <trkpt lat="45.33332" lon="6.18769">
        <ele>2290.1999511719</ele>
        <time>2014-03-02T15:09:23.000Z</time>
      </trkpt>
      <trkpt lat="45.33332" lon="6.18769">
        <ele>2290.1999511719</ele>
        <time>2014-03-02T15:09:24.000Z</time>
      </trkpt>
      <trkpt lat="45.33331" lon="6.1877">
        <ele>2289.8000488281</ele>
        <time>2014-03-02T15:09:25.000Z</time>
      </trkpt>
      <trkpt lat="45.33331" lon="6.18771">
        <ele>2289.6000976562</ele>
        <time>2014-03-02T15:09:26.000Z</time>
      </trkpt>
      <trkpt lat="45.3333" lon="6.18772">
        <ele>2289.3999023438</ele>
        <time>2014-03-02T15:09:27.000Z</time>
      </trkpt>
      <trkpt lat="45.3333" lon="6.18773">
        <ele>2289.1999511719</ele>
        <time>2014-03-02T15:09:28.000Z</time>
      </trkpt>
      <trkpt lat="45.3333" lon="6.18774">
        <ele>2289</ele>
        <time>2014-03-02T15:09:29.000Z</time>
      </trkpt>
      <trkpt lat="45.33329" lon="6.18775">
        <ele>2289</ele>
        <time>2014-03-02T15:09:30.000Z</time>
      </trkpt>
      <trkpt lat="45.33329" lon="6.18776">
        <ele>2288.8000488281</ele>
        <time>2014-03-02T15:09:31.000Z</time>
      </trkpt>
      <trkpt lat="45.33329" lon="6.18776">
        <ele>2288.8000488281</ele>
        <time>2014-03-02T15:09:32.000Z</time>
      </trkpt>
      <trkpt lat="45.33329" lon="6.18777">
        <ele>2288.8000488281</ele>
        <time>2014-03-02T15:09:33.000Z</time>
      </trkpt>
      <trkpt lat="45.33329" lon="6.18778">
        <ele>2288.8000488281</ele>
        <time>2014-03-02T15:09:34.000Z</time>
      </trkpt>
      <trkpt lat="45.33329" lon="6.18779">
        <ele>2288.6000976562</ele>
        <time>2014-03-02T15:09:35.000Z</time>
      </trkpt>
      <trkpt lat="45.33329" lon="6.18779">
        <ele>2288.6000976562</ele>
        <time>2014-03-02T15:09:36.000Z</time>
      </trkpt>
      <trkpt lat="45.33329" lon="6.18779">
        <ele>2288.6000976562</ele>
        <time>2014-03-02T15:09:37.000Z</time>
      </trkpt>
      <trkpt lat="45.33329" lon="6.18779">
        <ele>2288.6000976562</ele>
        <time>2014-03-02T15:09:38.000Z</time>
      </trkpt>
      <trkpt lat="45.33329" lon="6.18779">
        <ele>2288.6000976562</ele>
        <time>2014-03-02T15:09:39.000Z</time>
      </trkpt>
      <trkpt lat="45.33329" lon="6.18779">
        <ele>2288.6000976562</ele>
        <time>2014-03-02T15:09:40.000Z</time>
      </trkpt>
      <trkpt lat="45.33329" lon="6.18779">
        <ele>2288.6000976562</ele>
        <time>2014-03-02T15:09:41.000Z</time>
      </trkpt>
      <trkpt lat="45.33329" lon="6.18779">
        <ele>2288.6000976562</ele>
        <time>2014-03-02T15:09:42.000Z</time>
      </trkpt>
      <trkpt lat="45.33329" lon="6.18779">
        <ele>2288.8000488281</ele>
        <time>2014-03-02T15:09:43.000Z</time>
      </trkpt>
      <trkpt lat="45.3333" lon="6.18779">
        <ele>2289.1999511719</ele>
        <time>2014-03-02T15:09:44.000Z</time>
      </trkpt>
      <trkpt lat="45.33331" lon="6.18778">
        <ele>2289.8000488281</ele>
        <time>2014-03-02T15:09:45.000Z</time>
      </trkpt>
      <trkpt lat="45.33332" lon="6.18778">
        <ele>2290</ele>
        <time>2014-03-02T15:09:46.000Z</time>
      </trkpt>
      <trkpt lat="45.33332" lon="6.18778">
        <ele>2290.3999023438</ele>
        <time>2014-03-02T15:09:47.000Z</time>
      </trkpt>
      <trkpt lat="45.33333" lon="6.18779">
        <ele>2290.8000488281</ele>
        <time>2014-03-02T15:09:48.000Z</time>
      </trkpt>
      <trkpt lat="45.33334" lon="6.1878">
        <ele>2291.1999511719</ele>
        <time>2014-03-02T15:09:49.000Z</time>
      </trkpt>
      <trkpt lat="45.33334" lon="6.18781">
        <ele>2291.6000976562</ele>
        <time>2014-03-02T15:09:50.000Z</time>
      </trkpt>
      <trkpt lat="45.33335" lon="6.18782">
        <ele>2292</ele>
        <time>2014-03-02T15:09:51.000Z</time>
      </trkpt>
      <trkpt lat="45.33336" lon="6.18782">
        <ele>2292.1999511719</ele>
        <time>2014-03-02T15:09:52.000Z</time>
      </trkpt>
      <trkpt lat="45.33336" lon="6.18783">
        <ele>2292.1999511719</ele>
        <time>2014-03-02T15:09:53.000Z</time>
      </trkpt>
      <trkpt lat="45.33336" lon="6.18784">
        <ele>2292.3999023438</ele>
        <time>2014-03-02T15:09:54.000Z</time>
      </trkpt>
      <trkpt lat="45.33336" lon="6.18785">
        <ele>2292.6000976562</ele>
        <time>2014-03-02T15:09:55.000Z</time>
      </trkpt>
      <trkpt lat="45.33336" lon="6.18786">
        <ele>2292.3999023438</ele>
        <time>2014-03-02T15:09:56.000Z</time>
      </trkpt>
      <trkpt lat="45.33336" lon="6.18787">
        <ele>2292.3999023438</ele>
        <time>2014-03-02T15:09:57.000Z</time>
      </trkpt>
      <trkpt lat="45.33335" lon="6.18788">
        <ele>2292</ele>
        <time>2014-03-02T15:09:58.000Z</time>
      </trkpt>
      <trkpt lat="45.33334" lon="6.18789">
        <ele>2291.6000976562</ele>
        <time>2014-03-02T15:09:59.000Z</time>
      </trkpt>
      <trkpt lat="45.33334" lon="6.1879">
        <ele>2291.1999511719</ele>
        <time>2014-03-02T15:10:00.000Z</time>
      </trkpt>
      <trkpt lat="45.33334" lon="6.1879">
        <ele>2291.1999511719</ele>
        <time>2014-03-02T15:10:01.000Z</time>
      </trkpt>
      <trkpt lat="45.33334" lon="6.1879">
        <ele>2291.1999511719</ele>
        <time>2014-03-02T15:10:02.000Z</time>
      </trkpt>
      <trkpt lat="45.33334" lon="6.1879">
        <ele>2291.1999511719</ele>
        <time>2014-03-02T15:10:03.000Z</time>
      </trkpt>
      <trkpt lat="45.33334" lon="6.1879">
        <ele>2291.1999511719</ele>
        <time>2014-03-02T15:10:04.000Z</time>
      </trkpt>
      <trkpt lat="45.33334" lon="6.1879">
        <ele>2291.1999511719</ele>
        <time>2014-03-02T15:10:05.000Z</time>
      </trkpt>
      <trkpt lat="45.33334" lon="6.1879">
        <ele>2291.1999511719</ele>
        <time>2014-03-02T15:10:06.000Z</time>
      </trkpt>
      <trkpt lat="45.33334" lon="6.1879">
        <ele>2291.1999511719</ele>
        <time>2014-03-02T15:10:07.000Z</time>
      </trkpt>
      <trkpt lat="45.33334" lon="6.1879">
        <ele>2291.1999511719</ele>
        <time>2014-03-02T15:10:08.000Z</time>
      </trkpt>
      <trkpt lat="45.33334" lon="6.1879">
        <ele>2291.1999511719</ele>
        <time>2014-03-02T15:10:09.000Z</time>
      </trkpt>
      <trkpt lat="45.33334" lon="6.1879">
        <ele>2291.1999511719</ele>
        <time>2014-03-02T15:10:10.000Z</time>
      </trkpt>
      <trkpt lat="45.33334" lon="6.1879">
        <ele>2291.1999511719</ele>
        <time>2014-03-02T15:10:11.000Z</time>
      </trkpt>
      <trkpt lat="45.33334" lon="6.1879">
        <ele>2291.1999511719</ele>
        <time>2014-03-02T15:10:12.000Z</time>
      </trkpt>
      <trkpt lat="45.33334" lon="6.1879">
        <ele>2291.1999511719</ele>
        <time>2014-03-02T15:10:13.000Z</time>
      </trkpt>
      <trkpt lat="45.33334" lon="6.1879">
        <ele>2291.1999511719</ele>
        <time>2014-03-02T15:10:16.000Z</time>
      </trkpt>
      <trkpt lat="45.33334" lon="6.1879">
        <ele>2291.1999511719</ele>
        <time>2014-03-02T15:10:17.000Z</time>
      </trkpt>
      <trkpt lat="45.33334" lon="6.1879">
        <ele>2291.1999511719</ele>
        <time>2014-03-02T15:10:18.000Z</time>
      </trkpt>
      <trkpt lat="45.33334" lon="6.1879">
        <ele>2291.1999511719</ele>
        <time>2014-03-02T15:10:19.000Z</time>
      </trkpt>
      <trkpt lat="45.33334" lon="6.1879">
        <ele>2291.1999511719</ele>
        <time>2014-03-02T15:10:20.000Z</time>
      </trkpt>
      <trkpt lat="45.33334" lon="6.1879">
        <ele>2291.1999511719</ele>
        <time>2014-03-02T15:10:21.000Z</time>
      </trkpt>
      <trkpt lat="45.33334" lon="6.1879">
        <ele>2291.1999511719</ele>
        <time>2014-03-02T15:10:22.000Z</time>
      </trkpt>
      <trkpt lat="45.33334" lon="6.1879">
        <ele>2291.1999511719</ele>
        <time>2014-03-02T15:10:23.000Z</time>
      </trkpt>
      <trkpt lat="45.33334" lon="6.1879">
        <ele>2291.1999511719</ele>
        <time>2014-03-02T15:10:24.000Z</time>
      </trkpt>
      <trkpt lat="45.33334" lon="6.1879">
        <ele>2291.1999511719</ele>
        <time>2014-03-02T15:10:25.000Z</time>
      </trkpt>
      <trkpt lat="45.33334" lon="6.1879">
        <ele>2291.1999511719</ele>
        <time>2014-03-02T15:10:26.000Z</time>
      </trkpt>
      <trkpt lat="45.33334" lon="6.1879">
        <ele>2291.1999511719</ele>
        <time>2014-03-02T15:10:27.000Z</time>
      </trkpt>
      <trkpt lat="45.33334" lon="6.1879">
        <ele>2291.1999511719</ele>
        <time>2014-03-02T15:10:28.000Z</time>
      </trkpt>
      <trkpt lat="45.33334" lon="6.1879">
        <ele>2291.1999511719</ele>
        <time>2014-03-02T15:10:29.000Z</time>
      </trkpt>
      <trkpt lat="45.33334" lon="6.1879">
        <ele>2291.1999511719</ele>
        <time>2014-03-02T15:10:30.000Z</time>
      </trkpt>
      <trkpt lat="45.33334" lon="6.1879">
        <ele>2291.1999511719</ele>
        <time>2014-03-02T15:10:31.000Z</time>
      </trkpt>
      <trkpt lat="45.33334" lon="6.1879">
        <ele>2291.1999511719</ele>
        <time>2014-03-02T15:10:32.000Z</time>
      </trkpt>
      <trkpt lat="45.33334" lon="6.1879">
        <ele>2291.1999511719</ele>
        <time>2014-03-02T15:10:33.000Z</time>
      </trkpt>
      <trkpt lat="45.33334" lon="6.1879">
        <ele>2291.1999511719</ele>
        <time>2014-03-02T15:10:34.000Z</time>
      </trkpt>
      <trkpt lat="45.33334" lon="6.1879">
        <ele>2291.1999511719</ele>
        <time>2014-03-02T15:10:35.000Z</time>
      </trkpt>
      <trkpt lat="45.33334" lon="6.1879">
        <ele>2291.1999511719</ele>
        <time>2014-03-02T15:10:36.000Z</time>
      </trkpt>
      <trkpt lat="45.33334" lon="6.1879">
        <ele>2291.1999511719</ele>
        <time>2014-03-02T15:10:37.000Z</time>
      </trkpt>
      <trkpt lat="45.33334" lon="6.1879">
        <ele>2291.1999511719</ele>
        <time>2014-03-02T15:10:38.000Z</time>
      </trkpt>
      <trkpt lat="45.33334" lon="6.1879">
        <ele>2291.1999511719</ele>
        <time>2014-03-02T15:10:39.000Z</time>
      </trkpt>
      <trkpt lat="45.33334" lon="6.18791">
        <ele>2291.1999511719</ele>
        <time>2014-03-02T15:10:41.000Z</time>
      </trkpt>
      <trkpt lat="45.33334" lon="6.18791">
        <ele>2291.1999511719</ele>
        <time>2014-03-02T15:10:42.000Z</time>
      </trkpt>
      <trkpt lat="45.33334" lon="6.18791">
        <ele>2291.1999511719</ele>
        <time>2014-03-02T15:10:43.000Z</time>
      </trkpt>
      <trkpt lat="45.33334" lon="6.18791">
        <ele>2291.1999511719</ele>
        <time>2014-03-02T15:10:44.000Z</time>
      </trkpt>
      <trkpt lat="45.33334" lon="6.18791">
        <ele>2291.1999511719</ele>
        <time>2014-03-02T15:10:45.000Z</time>
      </trkpt>
      <trkpt lat="45.33334" lon="6.18791">
        <ele>2291.1999511719</ele>
        <time>2014-03-02T15:10:46.000Z</time>
      </trkpt>
      <trkpt lat="45.33334" lon="6.18791">
        <ele>2291.1999511719</ele>
        <time>2014-03-02T15:10:47.000Z</time>
      </trkpt>
      <trkpt lat="45.33334" lon="6.18791">
        <ele>2291.1999511719</ele>
        <time>2014-03-02T15:10:48.000Z</time>
      </trkpt>
      <trkpt lat="45.33334" lon="6.18791">
        <ele>2291.1999511719</ele>
        <time>2014-03-02T15:10:49.000Z</time>
      </trkpt>
      <trkpt lat="45.33334" lon="6.18791">
        <ele>2291.1999511719</ele>
        <time>2014-03-02T15:10:50.000Z</time>
      </trkpt>
      <trkpt lat="45.33334" lon="6.18791">
        <ele>2291.1999511719</ele>
        <time>2014-03-02T15:10:51.000Z</time>
      </trkpt>
      <trkpt lat="45.33334" lon="6.18791">
        <ele>2291.1999511719</ele>
        <time>2014-03-02T15:10:52.000Z</time>
      </trkpt>
      <trkpt lat="45.33334" lon="6.18791">
        <ele>2291.1999511719</ele>
        <time>2014-03-02T15:10:53.000Z</time>
      </trkpt>
      <trkpt lat="45.33334" lon="6.18791">
        <ele>2291.1999511719</ele>
        <time>2014-03-02T15:10:55.000Z</time>
      </trkpt>
      <trkpt lat="45.33334" lon="6.18791">
        <ele>2291.1999511719</ele>
        <time>2014-03-02T15:10:56.000Z</time>
      </trkpt>
      <trkpt lat="45.33334" lon="6.18791">
        <ele>2291.1999511719</ele>
        <time>2014-03-02T15:10:57.000Z</time>
      </trkpt>
      <trkpt lat="45.33334" lon="6.18791">
        <ele>2291.1999511719</ele>
        <time>2014-03-02T15:11:00.000Z</time>
      </trkpt>
      <trkpt lat="45.33334" lon="6.18791">
        <ele>2291.1999511719</ele>
        <time>2014-03-02T15:11:01.000Z</time>
      </trkpt>
      <trkpt lat="45.33334" lon="6.18791">
        <ele>2291.1999511719</ele>
        <time>2014-03-02T15:11:02.000Z</time>
      </trkpt>
      <trkpt lat="45.33334" lon="6.18791">
        <ele>2291.1999511719</ele>
        <time>2014-03-02T15:11:03.000Z</time>
      </trkpt>
      <trkpt lat="45.33334" lon="6.18791">
        <ele>2291.1999511719</ele>
        <time>2014-03-02T15:11:04.000Z</time>
      </trkpt>
      <trkpt lat="45.33334" lon="6.18791">
        <ele>2291.1999511719</ele>
        <time>2014-03-02T15:11:05.000Z</time>
      </trkpt>
      <trkpt lat="45.33334" lon="6.18791">
        <ele>2291.1999511719</ele>
        <time>2014-03-02T15:11:11.000Z</time>
      </trkpt>
      <trkpt lat="45.33334" lon="6.18791">
        <ele>2291.1999511719</ele>
        <time>2014-03-02T15:11:14.000Z</time>
      </trkpt>
      <trkpt lat="45.33334" lon="6.18791">
        <ele>2291.1999511719</ele>
        <time>2014-03-02T15:11:15.000Z</time>
      </trkpt>
      <trkpt lat="45.33334" lon="6.18791">
        <ele>2291.1999511719</ele>
        <time>2014-03-02T15:11:16.000Z</time>
      </trkpt>
      <trkpt lat="45.33334" lon="6.18791">
        <ele>2291.1999511719</ele>
        <time>2014-03-02T15:11:17.000Z</time>
      </trkpt>
      <trkpt lat="45.33334" lon="6.18791">
        <ele>2291.1999511719</ele>
        <time>2014-03-02T15:11:18.000Z</time>
      </trkpt>
      <trkpt lat="45.33334" lon="6.18791">
        <ele>2291.1999511719</ele>
        <time>2014-03-02T15:11:19.000Z</time>
      </trkpt>
      <trkpt lat="45.33334" lon="6.18791">
        <ele>2291.1999511719</ele>
        <time>2014-03-02T15:11:20.000Z</time>
      </trkpt>
      <trkpt lat="45.33334" lon="6.18791">
        <ele>2291.1999511719</ele>
        <time>2014-03-02T15:11:21.000Z</time>
      </trkpt>
      <trkpt lat="45.33334" lon="6.18791">
        <ele>2291.1999511719</ele>
        <time>2014-03-02T15:11:22.000Z</time>
      </trkpt>
      <trkpt lat="45.33334" lon="6.18791">
        <ele>2291.1999511719</ele>
        <time>2014-03-02T15:11:23.000Z</time>
      </trkpt>
      <trkpt lat="45.33334" lon="6.18791">
        <ele>2291.1999511719</ele>
        <time>2014-03-02T15:11:24.000Z</time>
      </trkpt>
      <trkpt lat="45.33334" lon="6.18791">
        <ele>2291.1999511719</ele>
        <time>2014-03-02T15:11:25.000Z</time>
      </trkpt>
      <trkpt lat="45.33334" lon="6.18791">
        <ele>2291.1999511719</ele>
        <time>2014-03-02T15:11:26.000Z</time>
      </trkpt>
      <trkpt lat="45.33334" lon="6.18791">
        <ele>2291.1999511719</ele>
        <time>2014-03-02T15:11:27.000Z</time>
      </trkpt>
      <trkpt lat="45.33334" lon="6.18791">
        <ele>2291.1999511719</ele>
        <time>2014-03-02T15:11:28.000Z</time>
      </trkpt>
      <trkpt lat="45.33334" lon="6.18791">
        <ele>2291.1999511719</ele>
        <time>2014-03-02T15:11:29.000Z</time>
      </trkpt>
      <trkpt lat="45.33334" lon="6.18791">
        <ele>2291.1999511719</ele>
        <time>2014-03-02T15:11:30.000Z</time>
      </trkpt>
      <trkpt lat="45.33334" lon="6.18791">
        <ele>2291.1999511719</ele>
        <time>2014-03-02T15:11:31.000Z</time>
      </trkpt>
      <trkpt lat="45.33334" lon="6.18791">
        <ele>2291.1999511719</ele>
        <time>2014-03-02T15:11:32.000Z</time>
      </trkpt>
      <trkpt lat="45.33334" lon="6.18791">
        <ele>2291.1999511719</ele>
        <time>2014-03-02T15:11:33.000Z</time>
      </trkpt>
      <trkpt lat="45.33334" lon="6.18791">
        <ele>2291.1999511719</ele>
        <time>2014-03-02T15:11:34.000Z</time>
      </trkpt>
      <trkpt lat="45.33334" lon="6.18791">
        <ele>2291.1999511719</ele>
        <time>2014-03-02T15:11:35.000Z</time>
      </trkpt>
      <trkpt lat="45.33334" lon="6.18791">
        <ele>2291.1999511719</ele>
        <time>2014-03-02T15:11:36.000Z</time>
      </trkpt>
      <trkpt lat="45.33334" lon="6.18791">
        <ele>2291.1999511719</ele>
        <time>2014-03-02T15:11:37.000Z</time>
      </trkpt>
      <trkpt lat="45.33334" lon="6.18791">
        <ele>2291.1999511719</ele>
        <time>2014-03-02T15:11:38.000Z</time>
      </trkpt>
      <trkpt lat="45.33334" lon="6.18791">
        <ele>2291.1999511719</ele>
        <time>2014-03-02T15:11:39.000Z</time>
      </trkpt>
      <trkpt lat="45.33334" lon="6.18791">
        <ele>2291.1999511719</ele>
        <time>2014-03-02T15:11:40.000Z</time>
      </trkpt>
      <trkpt lat="45.33334" lon="6.18791">
        <ele>2291.1999511719</ele>
        <time>2014-03-02T15:11:41.000Z</time>
      </trkpt>
      <trkpt lat="45.33334" lon="6.18791">
        <ele>2291.1999511719</ele>
        <time>2014-03-02T15:11:42.000Z</time>
      </trkpt>
      <trkpt lat="45.33334" lon="6.18791">
        <ele>2291.1999511719</ele>
        <time>2014-03-02T15:11:43.000Z</time>
      </trkpt>
      <trkpt lat="45.33334" lon="6.18791">
        <ele>2291.1999511719</ele>
        <time>2014-03-02T15:11:44.000Z</time>
      </trkpt>
      <trkpt lat="45.33334" lon="6.18791">
        <ele>2291.1999511719</ele>
        <time>2014-03-02T15:11:45.000Z</time>
      </trkpt>
      <trkpt lat="45.33334" lon="6.18791">
        <ele>2291.1999511719</ele>
        <time>2014-03-02T15:11:46.000Z</time>
      </trkpt>
      <trkpt lat="45.33334" lon="6.18791">
        <ele>2291.1999511719</ele>
        <time>2014-03-02T15:11:47.000Z</time>
      </trkpt>
      <trkpt lat="45.33334" lon="6.18791">
        <ele>2291.1999511719</ele>
        <time>2014-03-02T15:11:48.000Z</time>
      </trkpt>
      <trkpt lat="45.33334" lon="6.18791">
        <ele>2291.1999511719</ele>
        <time>2014-03-02T15:11:49.000Z</time>
      </trkpt>
      <trkpt lat="45.33334" lon="6.18791">
        <ele>2291.1999511719</ele>
        <time>2014-03-02T15:11:50.000Z</time>
      </trkpt>
      <trkpt lat="45.33334" lon="6.18791">
        <ele>2291.1999511719</ele>
        <time>2014-03-02T15:11:51.000Z</time>
      </trkpt>
      <trkpt lat="45.33334" lon="6.18791">
        <ele>2291.1999511719</ele>
        <time>2014-03-02T15:11:52.000Z</time>
      </trkpt>
      <trkpt lat="45.33334" lon="6.18791">
        <ele>2291.1999511719</ele>
        <time>2014-03-02T15:11:53.000Z</time>
      </trkpt>
      <trkpt lat="45.33334" lon="6.18791">
        <ele>2291.1999511719</ele>
        <time>2014-03-02T15:11:54.000Z</time>
      </trkpt>
      <trkpt lat="45.33334" lon="6.18791">
        <ele>2291.1999511719</ele>
        <time>2014-03-02T15:11:55.000Z</time>
      </trkpt>
      <trkpt lat="45.33334" lon="6.18791">
        <ele>2291.1999511719</ele>
        <time>2014-03-02T15:11:56.000Z</time>
      </trkpt>
      <trkpt lat="45.33334" lon="6.18791">
        <ele>2291.1999511719</ele>
        <time>2014-03-02T15:11:57.000Z</time>
      </trkpt>
      <trkpt lat="45.33334" lon="6.18791">
        <ele>2291.1999511719</ele>
        <time>2014-03-02T15:11:58.000Z</time>
      </trkpt>
      <trkpt lat="45.33334" lon="6.18791">
        <ele>2291.1999511719</ele>
        <time>2014-03-02T15:12:01.000Z</time>
      </trkpt>
      <trkpt lat="45.33334" lon="6.18791">
        <ele>2291.1999511719</ele>
        <time>2014-03-02T15:12:02.000Z</time>
      </trkpt>
      <trkpt lat="45.33334" lon="6.18791">
        <ele>2291.1999511719</ele>
        <time>2014-03-02T15:12:03.000Z</time>
      </trkpt>
      <trkpt lat="45.33334" lon="6.18791">
        <ele>2291.1999511719</ele>
        <time>2014-03-02T15:12:04.000Z</time>
      </trkpt>
      <trkpt lat="45.33334" lon="6.18791">
        <ele>2291.1999511719</ele>
        <time>2014-03-02T15:12:05.000Z</time>
      </trkpt>
      <trkpt lat="45.33334" lon="6.18791">
        <ele>2291.1999511719</ele>
        <time>2014-03-02T15:12:06.000Z</time>
      </trkpt>
      <trkpt lat="45.33334" lon="6.18791">
        <ele>2291.1999511719</ele>
        <time>2014-03-02T15:12:07.000Z</time>
      </trkpt>
      <trkpt lat="45.33334" lon="6.18791">
        <ele>2291.1999511719</ele>
        <time>2014-03-02T15:12:08.000Z</time>
      </trkpt>
      <trkpt lat="45.33334" lon="6.18791">
        <ele>2291.1999511719</ele>
        <time>2014-03-02T15:12:09.000Z</time>
      </trkpt>
      <trkpt lat="45.33334" lon="6.18791">
        <ele>2291.1999511719</ele>
        <time>2014-03-02T15:12:10.000Z</time>
      </trkpt>
      <trkpt lat="45.33334" lon="6.18791">
        <ele>2291.1999511719</ele>
        <time>2014-03-02T15:12:11.000Z</time>
      </trkpt>
      <trkpt lat="45.33334" lon="6.18791">
        <ele>2291.1999511719</ele>
        <time>2014-03-02T15:12:12.000Z</time>
      </trkpt>
      <trkpt lat="45.33334" lon="6.18791">
        <ele>2291.1999511719</ele>
        <time>2014-03-02T15:12:16.000Z</time>
      </trkpt>
      <trkpt lat="45.33334" lon="6.18791">
        <ele>2291.1999511719</ele>
        <time>2014-03-02T15:12:17.000Z</time>
      </trkpt>
      <trkpt lat="45.33334" lon="6.18791">
        <ele>2291.1999511719</ele>
        <time>2014-03-02T15:12:18.000Z</time>
      </trkpt>
      <trkpt lat="45.33334" lon="6.18791">
        <ele>2291.1999511719</ele>
        <time>2014-03-02T15:12:19.000Z</time>
      </trkpt>
      <trkpt lat="45.33334" lon="6.18791">
        <ele>2291.1999511719</ele>
        <time>2014-03-02T15:12:20.000Z</time>
      </trkpt>
      <trkpt lat="45.33334" lon="6.18791">
        <ele>2291.1999511719</ele>
        <time>2014-03-02T15:12:21.000Z</time>
      </trkpt>
      <trkpt lat="45.33334" lon="6.18791">
        <ele>2291.1999511719</ele>
        <time>2014-03-02T15:12:22.000Z</time>
      </trkpt>
      <trkpt lat="45.33334" lon="6.18791">
        <ele>2291.1999511719</ele>
        <time>2014-03-02T15:12:23.000Z</time>
      </trkpt>
      <trkpt lat="45.33334" lon="6.18791">
        <ele>2291.1999511719</ele>
        <time>2014-03-02T15:12:24.000Z</time>
      </trkpt>
      <trkpt lat="45.33334" lon="6.18791">
        <ele>2291.1999511719</ele>
        <time>2014-03-02T15:12:25.000Z</time>
      </trkpt>
      <trkpt lat="45.33334" lon="6.18791">
        <ele>2291.1999511719</ele>
        <time>2014-03-02T15:12:27.000Z</time>
      </trkpt>
      <trkpt lat="45.33334" lon="6.18791">
        <ele>2291.1999511719</ele>
        <time>2014-03-02T15:12:28.000Z</time>
      </trkpt>
      <trkpt lat="45.33334" lon="6.18791">
        <ele>2291.1999511719</ele>
        <time>2014-03-02T15:12:29.000Z</time>
      </trkpt>
      <trkpt lat="45.33334" lon="6.18791">
        <ele>2291.1999511719</ele>
        <time>2014-03-02T15:12:30.000Z</time>
      </trkpt>
      <trkpt lat="45.33334" lon="6.18791">
        <ele>2291.1999511719</ele>
        <time>2014-03-02T15:12:31.000Z</time>
      </trkpt>
      <trkpt lat="45.33334" lon="6.18791">
        <ele>2291.1999511719</ele>
        <time>2014-03-02T15:12:36.000Z</time>
      </trkpt>
      <trkpt lat="45.33334" lon="6.18791">
        <ele>2291.1999511719</ele>
        <time>2014-03-02T15:12:37.000Z</time>
      </trkpt>
      <trkpt lat="45.33334" lon="6.18791">
        <ele>2291.1999511719</ele>
        <time>2014-03-02T15:12:38.000Z</time>
      </trkpt>
      <trkpt lat="45.33334" lon="6.18791">
        <ele>2291.1999511719</ele>
        <time>2014-03-02T15:12:39.000Z</time>
      </trkpt>
      <trkpt lat="45.33334" lon="6.18791">
        <ele>2291.1999511719</ele>
        <time>2014-03-02T15:12:40.000Z</time>
      </trkpt>
      <trkpt lat="45.33334" lon="6.18791">
        <ele>2291.1999511719</ele>
        <time>2014-03-02T15:12:42.000Z</time>
      </trkpt>
      <trkpt lat="45.33334" lon="6.18791">
        <ele>2291.1999511719</ele>
        <time>2014-03-02T15:12:43.000Z</time>
      </trkpt>
      <trkpt lat="45.33334" lon="6.18791">
        <ele>2291.1999511719</ele>
        <time>2014-03-02T15:12:44.000Z</time>
      </trkpt>
      <trkpt lat="45.33334" lon="6.18791">
        <ele>2291.1999511719</ele>
        <time>2014-03-02T15:12:45.000Z</time>
      </trkpt>
      <trkpt lat="45.33334" lon="6.18791">
        <ele>2291.1999511719</ele>
        <time>2014-03-02T15:12:49.000Z</time>
      </trkpt>
      <trkpt lat="45.33334" lon="6.18791">
        <ele>2291.1999511719</ele>
        <time>2014-03-02T15:12:51.000Z</time>
      </trkpt>
      <trkpt lat="45.33334" lon="6.18791">
        <ele>2291.1999511719</ele>
        <time>2014-03-02T15:12:52.000Z</time>
      </trkpt>
      <trkpt lat="45.33334" lon="6.18791">
        <ele>2291.1999511719</ele>
        <time>2014-03-02T15:12:53.000Z</time>
      </trkpt>
      <trkpt lat="45.33334" lon="6.18791">
        <ele>2291.1999511719</ele>
        <time>2014-03-02T15:12:54.000Z</time>
      </trkpt>
      <trkpt lat="45.33334" lon="6.18791">
        <ele>2291.1999511719</ele>
        <time>2014-03-02T15:12:57.000Z</time>
      </trkpt>
      <trkpt lat="45.33334" lon="6.18791">
        <ele>2291.1999511719</ele>
        <time>2014-03-02T15:12:58.000Z</time>
      </trkpt>
      <trkpt lat="45.33334" lon="6.18791">
        <ele>2291.1999511719</ele>
        <time>2014-03-02T15:12:59.000Z</time>
      </trkpt>
      <trkpt lat="45.33334" lon="6.18791">
        <ele>2291.1999511719</ele>
        <time>2014-03-02T15:13:00.000Z</time>
      </trkpt>
      <trkpt lat="45.33334" lon="6.18791">
        <ele>2291.1999511719</ele>
        <time>2014-03-02T15:13:07.000Z</time>
      </trkpt>
      <trkpt lat="45.33334" lon="6.18791">
        <ele>2291.1999511719</ele>
        <time>2014-03-02T15:13:08.000Z</time>
      </trkpt>
      <trkpt lat="45.33334" lon="6.18791">
        <ele>2291.1999511719</ele>
        <time>2014-03-02T15:13:09.000Z</time>
      </trkpt>
      <trkpt lat="45.33334" lon="6.18791">
        <ele>2291.1999511719</ele>
        <time>2014-03-02T15:13:11.000Z</time>
      </trkpt>
      <trkpt lat="45.33334" lon="6.18791">
        <ele>2291.1999511719</ele>
        <time>2014-03-02T15:13:12.000Z</time>
      </trkpt>
      <trkpt lat="45.33334" lon="6.18791">
        <ele>2291.1999511719</ele>
        <time>2014-03-02T15:13:13.000Z</time>
      </trkpt>
      <trkpt lat="45.33334" lon="6.18791">
        <ele>2291.1999511719</ele>
        <time>2014-03-02T15:13:15.000Z</time>
      </trkpt>
      <trkpt lat="45.33334" lon="6.18791">
        <ele>2291.1999511719</ele>
        <time>2014-03-02T15:13:16.000Z</time>
      </trkpt>
      <trkpt lat="45.33334" lon="6.18791">
        <ele>2291.1999511719</ele>
        <time>2014-03-02T15:13:17.000Z</time>
      </trkpt>
      <trkpt lat="45.33334" lon="6.18791">
        <ele>2291.1999511719</ele>
        <time>2014-03-02T15:13:18.000Z</time>
      </trkpt>
      <trkpt lat="45.33334" lon="6.18791">
        <ele>2291.1999511719</ele>
        <time>2014-03-02T15:13:19.000Z</time>
      </trkpt>
      <trkpt lat="45.33333" lon="6.18791">
        <ele>2291</ele>
        <time>2014-03-02T15:13:20.000Z</time>
      </trkpt>
      <trkpt lat="45.33333" lon="6.18791">
        <ele>2291</ele>
        <time>2014-03-02T15:13:21.000Z</time>
      </trkpt>
      <trkpt lat="45.33333" lon="6.18791">
        <ele>2291</ele>
        <time>2014-03-02T15:13:22.000Z</time>
      </trkpt>
      <trkpt lat="45.33333" lon="6.18791">
        <ele>2291</ele>
        <time>2014-03-02T15:13:23.000Z</time>
      </trkpt>
      <trkpt lat="45.33333" lon="6.18791">
        <ele>2291</ele>
        <time>2014-03-02T15:13:24.000Z</time>
      </trkpt>
      <trkpt lat="45.33333" lon="6.18791">
        <ele>2291</ele>
        <time>2014-03-02T15:13:25.000Z</time>
      </trkpt>
      <trkpt lat="45.33333" lon="6.18791">
        <ele>2291</ele>
        <time>2014-03-02T15:13:26.000Z</time>
      </trkpt>
      <trkpt lat="45.33333" lon="6.18791">
        <ele>2291</ele>
        <time>2014-03-02T15:13:27.000Z</time>
      </trkpt>
      <trkpt lat="45.33333" lon="6.18791">
        <ele>2291</ele>
        <time>2014-03-02T15:13:28.000Z</time>
      </trkpt>
      <trkpt lat="45.33333" lon="6.18791">
        <ele>2291</ele>
        <time>2014-03-02T15:13:29.000Z</time>
      </trkpt>
      <trkpt lat="45.33333" lon="6.18791">
        <ele>2291</ele>
        <time>2014-03-02T15:13:30.000Z</time>
      </trkpt>
      <trkpt lat="45.33333" lon="6.18791">
        <ele>2291</ele>
        <time>2014-03-02T15:13:31.000Z</time>
      </trkpt>
      <trkpt lat="45.33333" lon="6.18791">
        <ele>2291</ele>
        <time>2014-03-02T15:13:32.000Z</time>
      </trkpt>
      <trkpt lat="45.33333" lon="6.18791">
        <ele>2291</ele>
        <time>2014-03-02T15:13:33.000Z</time>
      </trkpt>
      <trkpt lat="45.33333" lon="6.18791">
        <ele>2291</ele>
        <time>2014-03-02T15:13:34.000Z</time>
      </trkpt>
      <trkpt lat="45.33333" lon="6.18791">
        <ele>2291</ele>
        <time>2014-03-02T15:13:35.000Z</time>
      </trkpt>
      <trkpt lat="45.33333" lon="6.18791">
        <ele>2291</ele>
        <time>2014-03-02T15:13:36.000Z</time>
      </trkpt>
      <trkpt lat="45.33333" lon="6.18791">
        <ele>2291</ele>
        <time>2014-03-02T15:13:37.000Z</time>
      </trkpt>
      <trkpt lat="45.33333" lon="6.18791">
        <ele>2291</ele>
        <time>2014-03-02T15:13:38.000Z</time>
      </trkpt>
      <trkpt lat="45.33333" lon="6.18791">
        <ele>2291</ele>
        <time>2014-03-02T15:13:39.000Z</time>
      </trkpt>
      <trkpt lat="45.33333" lon="6.18791">
        <ele>2291</ele>
        <time>2014-03-02T15:13:40.000Z</time>
      </trkpt>
      <trkpt lat="45.33333" lon="6.18791">
        <ele>2291</ele>
        <time>2014-03-02T15:13:41.000Z</time>
      </trkpt>
      <trkpt lat="45.33333" lon="6.18791">
        <ele>2291</ele>
        <time>2014-03-02T15:13:42.000Z</time>
      </trkpt>
      <trkpt lat="45.33333" lon="6.18791">
        <ele>2291</ele>
        <time>2014-03-02T15:13:44.000Z</time>
      </trkpt>
      <trkpt lat="45.33333" lon="6.18791">
        <ele>2291</ele>
        <time>2014-03-02T15:13:48.000Z</time>
      </trkpt>
      <trkpt lat="45.33333" lon="6.18791">
        <ele>2291</ele>
        <time>2014-03-02T15:13:49.000Z</time>
      </trkpt>
      <trkpt lat="45.33333" lon="6.18791">
        <ele>2291</ele>
        <time>2014-03-02T15:13:50.000Z</time>
      </trkpt>
      <trkpt lat="45.33333" lon="6.18791">
        <ele>2291</ele>
        <time>2014-03-02T15:13:51.000Z</time>
      </trkpt>
      <trkpt lat="45.33333" lon="6.18791">
        <ele>2291</ele>
        <time>2014-03-02T15:13:53.000Z</time>
      </trkpt>
      <trkpt lat="45.33333" lon="6.18791">
        <ele>2291</ele>
        <time>2014-03-02T15:13:54.000Z</time>
      </trkpt>
      <trkpt lat="45.33333" lon="6.18791">
        <ele>2291</ele>
        <time>2014-03-02T15:13:55.000Z</time>
      </trkpt>
      <trkpt lat="45.33333" lon="6.18791">
        <ele>2291</ele>
        <time>2014-03-02T15:13:56.000Z</time>
      </trkpt>
      <trkpt lat="45.33333" lon="6.18791">
        <ele>2291</ele>
        <time>2014-03-02T15:13:58.000Z</time>
      </trkpt>
      <trkpt lat="45.33333" lon="6.18791">
        <ele>2291</ele>
        <time>2014-03-02T15:13:59.000Z</time>
      </trkpt>
      <trkpt lat="45.33333" lon="6.18791">
        <ele>2291</ele>
        <time>2014-03-02T15:14:00.000Z</time>
      </trkpt>
      <trkpt lat="45.33333" lon="6.18791">
        <ele>2291</ele>
        <time>2014-03-02T15:14:01.000Z</time>
      </trkpt>
      <trkpt lat="45.33333" lon="6.18791">
        <ele>2291</ele>
        <time>2014-03-02T15:14:02.000Z</time>
      </trkpt>
      <trkpt lat="45.33333" lon="6.18791">
        <ele>2291</ele>
        <time>2014-03-02T15:14:03.000Z</time>
      </trkpt>
      <trkpt lat="45.33333" lon="6.18791">
        <ele>2291</ele>
        <time>2014-03-02T15:14:04.000Z</time>
      </trkpt>
      <trkpt lat="45.33333" lon="6.18791">
        <ele>2291</ele>
        <time>2014-03-02T15:14:05.000Z</time>
      </trkpt>
      <trkpt lat="45.33333" lon="6.18791">
        <ele>2291</ele>
        <time>2014-03-02T15:14:06.000Z</time>
      </trkpt>
      <trkpt lat="45.33333" lon="6.18791">
        <ele>2291</ele>
        <time>2014-03-02T15:14:07.000Z</time>
      </trkpt>
      <trkpt lat="45.33333" lon="6.18791">
        <ele>2291</ele>
        <time>2014-03-02T15:14:08.000Z</time>
      </trkpt>
      <trkpt lat="45.33333" lon="6.18791">
        <ele>2291</ele>
        <time>2014-03-02T15:14:09.000Z</time>
      </trkpt>
      <trkpt lat="45.33333" lon="6.18791">
        <ele>2291</ele>
        <time>2014-03-02T15:14:10.000Z</time>
      </trkpt>
      <trkpt lat="45.33333" lon="6.18791">
        <ele>2291</ele>
        <time>2014-03-02T15:14:11.000Z</time>
      </trkpt>
      <trkpt lat="45.33333" lon="6.18791">
        <ele>2291</ele>
        <time>2014-03-02T15:14:12.000Z</time>
      </trkpt>
      <trkpt lat="45.33333" lon="6.18791">
        <ele>2291</ele>
        <time>2014-03-02T15:14:13.000Z</time>
      </trkpt>
      <trkpt lat="45.33333" lon="6.18791">
        <ele>2291</ele>
        <time>2014-03-02T15:14:14.000Z</time>
      </trkpt>
      <trkpt lat="45.33333" lon="6.18791">
        <ele>2291</ele>
        <time>2014-03-02T15:14:16.000Z</time>
      </trkpt>
      <trkpt lat="45.33333" lon="6.18791">
        <ele>2291</ele>
        <time>2014-03-02T15:14:17.000Z</time>
      </trkpt>
      <trkpt lat="45.33333" lon="6.18791">
        <ele>2291</ele>
        <time>2014-03-02T15:14:18.000Z</time>
      </trkpt>
      <trkpt lat="45.33333" lon="6.18791">
        <ele>2291</ele>
        <time>2014-03-02T15:14:19.000Z</time>
      </trkpt>
      <trkpt lat="45.33333" lon="6.18791">
        <ele>2291</ele>
        <time>2014-03-02T15:14:20.000Z</time>
      </trkpt>
      <trkpt lat="45.33333" lon="6.18791">
        <ele>2291</ele>
        <time>2014-03-02T15:14:22.000Z</time>
      </trkpt>
      <trkpt lat="45.33333" lon="6.18791">
        <ele>2291</ele>
        <time>2014-03-02T15:14:23.000Z</time>
      </trkpt>
      <trkpt lat="45.33333" lon="6.18791">
        <ele>2291</ele>
        <time>2014-03-02T15:14:24.000Z</time>
      </trkpt>
      <trkpt lat="45.33333" lon="6.18791">
        <ele>2291</ele>
        <time>2014-03-02T15:14:26.000Z</time>
      </trkpt>
      <trkpt lat="45.33333" lon="6.18791">
        <ele>2291</ele>
        <time>2014-03-02T15:14:27.000Z</time>
      </trkpt>
      <trkpt lat="45.33333" lon="6.18791">
        <ele>2291</ele>
        <time>2014-03-02T15:14:28.000Z</time>
      </trkpt>
      <trkpt lat="45.33333" lon="6.18791">
        <ele>2291</ele>
        <time>2014-03-02T15:14:29.000Z</time>
      </trkpt>
      <trkpt lat="45.33333" lon="6.18791">
        <ele>2291</ele>
        <time>2014-03-02T15:14:30.000Z</time>
      </trkpt>
      <trkpt lat="45.33333" lon="6.18791">
        <ele>2291.1999511719</ele>
        <time>2014-03-02T15:14:40.000Z</time>
      </trkpt>
      <trkpt lat="45.33333" lon="6.18791">
        <ele>2291.1999511719</ele>
        <time>2014-03-02T15:14:41.000Z</time>
      </trkpt>
      <trkpt lat="45.33333" lon="6.18791">
        <ele>2291.1999511719</ele>
        <time>2014-03-02T15:14:42.000Z</time>
      </trkpt>
      <trkpt lat="45.33333" lon="6.18791">
        <ele>2291.1999511719</ele>
        <time>2014-03-02T15:14:43.000Z</time>
      </trkpt>
      <trkpt lat="45.33333" lon="6.18791">
        <ele>2291.1999511719</ele>
        <time>2014-03-02T15:14:44.000Z</time>
      </trkpt>
      <trkpt lat="45.33333" lon="6.18791">
        <ele>2291.1999511719</ele>
        <time>2014-03-02T15:14:46.000Z</time>
      </trkpt>
      <trkpt lat="45.33333" lon="6.18791">
        <ele>2291.1999511719</ele>
        <time>2014-03-02T15:14:47.000Z</time>
      </trkpt>
      <trkpt lat="45.33333" lon="6.18791">
        <ele>2291.1999511719</ele>
        <time>2014-03-02T15:14:48.000Z</time>
      </trkpt>
      <trkpt lat="45.33333" lon="6.18791">
        <ele>2291.1999511719</ele>
        <time>2014-03-02T15:14:49.000Z</time>
      </trkpt>
      <trkpt lat="45.33333" lon="6.18791">
        <ele>2291.1999511719</ele>
        <time>2014-03-02T15:14:50.000Z</time>
      </trkpt>
      <trkpt lat="45.33333" lon="6.18791">
        <ele>2291.1999511719</ele>
        <time>2014-03-02T15:14:52.000Z</time>
      </trkpt>
      <trkpt lat="45.33333" lon="6.18791">
        <ele>2291.1999511719</ele>
        <time>2014-03-02T15:14:53.000Z</time>
      </trkpt>
      <trkpt lat="45.33333" lon="6.18791">
        <ele>2291.1999511719</ele>
        <time>2014-03-02T15:14:54.000Z</time>
      </trkpt>
      <trkpt lat="45.33333" lon="6.18791">
        <ele>2291.1999511719</ele>
        <time>2014-03-02T15:14:55.000Z</time>
      </trkpt>
      <trkpt lat="45.33333" lon="6.18791">
        <ele>2291.1999511719</ele>
        <time>2014-03-02T15:14:56.000Z</time>
      </trkpt>
      <trkpt lat="45.33333" lon="6.18791">
        <ele>2291.1999511719</ele>
        <time>2014-03-02T15:14:57.000Z</time>
      </trkpt>
      <trkpt lat="45.33333" lon="6.18791">
        <ele>2291.1999511719</ele>
        <time>2014-03-02T15:14:58.000Z</time>
      </trkpt>
      <trkpt lat="45.33333" lon="6.18791">
        <ele>2291.1999511719</ele>
        <time>2014-03-02T15:14:59.000Z</time>
      </trkpt>
      <trkpt lat="45.33333" lon="6.18791">
        <ele>2291.1999511719</ele>
        <time>2014-03-02T15:15:00.000Z</time>
      </trkpt>
      <trkpt lat="45.33333" lon="6.18791">
        <ele>2291.1999511719</ele>
        <time>2014-03-02T15:15:01.000Z</time>
      </trkpt>
      <trkpt lat="45.33333" lon="6.18791">
        <ele>2291.1999511719</ele>
        <time>2014-03-02T15:15:03.000Z</time>
      </trkpt>
      <trkpt lat="45.33333" lon="6.18791">
        <ele>2291.1999511719</ele>
        <time>2014-03-02T15:15:04.000Z</time>
      </trkpt>
      <trkpt lat="45.33333" lon="6.18791">
        <ele>2291.1999511719</ele>
        <time>2014-03-02T15:15:05.000Z</time>
      </trkpt>
      <trkpt lat="45.33333" lon="6.18791">
        <ele>2291.1999511719</ele>
        <time>2014-03-02T15:15:06.000Z</time>
      </trkpt>
      <trkpt lat="45.33333" lon="6.18791">
        <ele>2291.1999511719</ele>
        <time>2014-03-02T15:15:07.000Z</time>
      </trkpt>
      <trkpt lat="45.33333" lon="6.18791">
        <ele>2291.1999511719</ele>
        <time>2014-03-02T15:15:11.000Z</time>
      </trkpt>
      <trkpt lat="45.33333" lon="6.18791">
        <ele>2291.1999511719</ele>
        <time>2014-03-02T15:15:16.000Z</time>
      </trkpt>
      <trkpt lat="45.33333" lon="6.18791">
        <ele>2291.1999511719</ele>
        <time>2014-03-02T15:15:17.000Z</time>
      </trkpt>
      <trkpt lat="45.33333" lon="6.18791">
        <ele>2291.1999511719</ele>
        <time>2014-03-02T15:15:18.000Z</time>
      </trkpt>
      <trkpt lat="45.33333" lon="6.18791">
        <ele>2291.1999511719</ele>
        <time>2014-03-02T15:15:19.000Z</time>
      </trkpt>
      <trkpt lat="45.33334" lon="6.18792">
        <ele>2291.1999511719</ele>
        <time>2014-03-02T15:15:22.000Z</time>
      </trkpt>
      <trkpt lat="45.33334" lon="6.18792">
        <ele>2291.1999511719</ele>
        <time>2014-03-02T15:15:26.000Z</time>
      </trkpt>
      <trkpt lat="45.33334" lon="6.18792">
        <ele>2291.1999511719</ele>
        <time>2014-03-02T15:15:27.000Z</time>
      </trkpt>
      <trkpt lat="45.33334" lon="6.18792">
        <ele>2291.1999511719</ele>
        <time>2014-03-02T15:15:28.000Z</time>
      </trkpt>
      <trkpt lat="45.33334" lon="6.18792">
        <ele>2291.1999511719</ele>
        <time>2014-03-02T15:15:29.000Z</time>
      </trkpt>
      <trkpt lat="45.33334" lon="6.18792">
        <ele>2291.1999511719</ele>
        <time>2014-03-02T15:15:30.000Z</time>
      </trkpt>
      <trkpt lat="45.33334" lon="6.18792">
        <ele>2291.1999511719</ele>
        <time>2014-03-02T15:15:32.000Z</time>
      </trkpt>
      <trkpt lat="45.33334" lon="6.18792">
        <ele>2291.1999511719</ele>
        <time>2014-03-02T15:15:33.000Z</time>
      </trkpt>
      <trkpt lat="45.33334" lon="6.18792">
        <ele>2291.1999511719</ele>
        <time>2014-03-02T15:15:40.000Z</time>
      </trkpt>
      <trkpt lat="45.33334" lon="6.18792">
        <ele>2291.1999511719</ele>
        <time>2014-03-02T15:15:41.000Z</time>
      </trkpt>
      <trkpt lat="45.33334" lon="6.18792">
        <ele>2291.1999511719</ele>
        <time>2014-03-02T15:15:42.000Z</time>
      </trkpt>
      <trkpt lat="45.33334" lon="6.18792">
        <ele>2291.1999511719</ele>
        <time>2014-03-02T15:15:43.000Z</time>
      </trkpt>
      <trkpt lat="45.33334" lon="6.18792">
        <ele>2291.1999511719</ele>
        <time>2014-03-02T15:15:44.000Z</time>
      </trkpt>
      <trkpt lat="45.33334" lon="6.18792">
        <ele>2291.1999511719</ele>
        <time>2014-03-02T15:15:45.000Z</time>
      </trkpt>
      <trkpt lat="45.33334" lon="6.18792">
        <ele>2291.1999511719</ele>
        <time>2014-03-02T15:15:46.000Z</time>
      </trkpt>
      <trkpt lat="45.33334" lon="6.18792">
        <ele>2291.1999511719</ele>
        <time>2014-03-02T15:15:47.000Z</time>
      </trkpt>
      <trkpt lat="45.33334" lon="6.18792">
        <ele>2291.1999511719</ele>
        <time>2014-03-02T15:15:48.000Z</time>
      </trkpt>
      <trkpt lat="45.33334" lon="6.18792">
        <ele>2291.1999511719</ele>
        <time>2014-03-02T15:15:49.000Z</time>
      </trkpt>
      <trkpt lat="45.33334" lon="6.18792">
        <ele>2291.1999511719</ele>
        <time>2014-03-02T15:15:51.000Z</time>
      </trkpt>
      <trkpt lat="45.33334" lon="6.18792">
        <ele>2291.1999511719</ele>
        <time>2014-03-02T15:15:52.000Z</time>
      </trkpt>
      <trkpt lat="45.33334" lon="6.18792">
        <ele>2291.1999511719</ele>
        <time>2014-03-02T15:15:55.000Z</time>
      </trkpt>
      <trkpt lat="45.33334" lon="6.18792">
        <ele>2291.1999511719</ele>
        <time>2014-03-02T15:16:00.000Z</time>
      </trkpt>
      <trkpt lat="45.33334" lon="6.18792">
        <ele>2291.1999511719</ele>
        <time>2014-03-02T15:16:04.000Z</time>
      </trkpt>
      <trkpt lat="45.33334" lon="6.18792">
        <ele>2291.1999511719</ele>
        <time>2014-03-02T15:16:05.000Z</time>
      </trkpt>
      <trkpt lat="45.33334" lon="6.18792">
        <ele>2291.1999511719</ele>
        <time>2014-03-02T15:16:06.000Z</time>
      </trkpt>
      <trkpt lat="45.33334" lon="6.18792">
        <ele>2291.1999511719</ele>
        <time>2014-03-02T15:16:07.000Z</time>
      </trkpt>
      <trkpt lat="45.33334" lon="6.18792">
        <ele>2291.1999511719</ele>
        <time>2014-03-02T15:16:08.000Z</time>
      </trkpt>
      <trkpt lat="45.33334" lon="6.18792">
        <ele>2291.1999511719</ele>
        <time>2014-03-02T15:16:11.000Z</time>
      </trkpt>
      <trkpt lat="45.33334" lon="6.18792">
        <ele>2291.1999511719</ele>
        <time>2014-03-02T15:16:12.000Z</time>
      </trkpt>
      <trkpt lat="45.33334" lon="6.18792">
        <ele>2291.1999511719</ele>
        <time>2014-03-02T15:16:15.000Z</time>
      </trkpt>
      <trkpt lat="45.33334" lon="6.18792">
        <ele>2291.1999511719</ele>
        <time>2014-03-02T15:16:16.000Z</time>
      </trkpt>
      <trkpt lat="45.33334" lon="6.18792">
        <ele>2291.1999511719</ele>
        <time>2014-03-02T15:16:17.000Z</time>
      </trkpt>
      <trkpt lat="45.33334" lon="6.18792">
        <ele>2291.1999511719</ele>
        <time>2014-03-02T15:16:18.000Z</time>
      </trkpt>
      <trkpt lat="45.33334" lon="6.18792">
        <ele>2291.1999511719</ele>
        <time>2014-03-02T15:16:19.000Z</time>
      </trkpt>
      <trkpt lat="45.33334" lon="6.18792">
        <ele>2291.1999511719</ele>
        <time>2014-03-02T15:16:20.000Z</time>
      </trkpt>
      <trkpt lat="45.33334" lon="6.18792">
        <ele>2291.1999511719</ele>
        <time>2014-03-02T15:16:26.000Z</time>
      </trkpt>
      <trkpt lat="45.33334" lon="6.18792">
        <ele>2291.1999511719</ele>
        <time>2014-03-02T15:16:27.000Z</time>
      </trkpt>
      <trkpt lat="45.33334" lon="6.18792">
        <ele>2291.1999511719</ele>
        <time>2014-03-02T15:16:28.000Z</time>
      </trkpt>
      <trkpt lat="45.33334" lon="6.18792">
        <ele>2291.1999511719</ele>
        <time>2014-03-02T15:16:29.000Z</time>
      </trkpt>
      <trkpt lat="45.33334" lon="6.18792">
        <ele>2291.1999511719</ele>
        <time>2014-03-02T15:16:30.000Z</time>
      </trkpt>
      <trkpt lat="45.33334" lon="6.18792">
        <ele>2291.1999511719</ele>
        <time>2014-03-02T15:16:31.000Z</time>
      </trkpt>
      <trkpt lat="45.33334" lon="6.18792">
        <ele>2291.1999511719</ele>
        <time>2014-03-02T15:16:32.000Z</time>
      </trkpt>
      <trkpt lat="45.33334" lon="6.18792">
        <ele>2291.1999511719</ele>
        <time>2014-03-02T15:16:34.000Z</time>
      </trkpt>
      <trkpt lat="45.33334" lon="6.18792">
        <ele>2291.1999511719</ele>
        <time>2014-03-02T15:16:35.000Z</time>
      </trkpt>
      <trkpt lat="45.33334" lon="6.18792">
        <ele>2291.1999511719</ele>
        <time>2014-03-02T15:16:36.000Z</time>
      </trkpt>
      <trkpt lat="45.33334" lon="6.18792">
        <ele>2291.1999511719</ele>
        <time>2014-03-02T15:16:37.000Z</time>
      </trkpt>
      <trkpt lat="45.33334" lon="6.18792">
        <ele>2291.1999511719</ele>
        <time>2014-03-02T15:16:38.000Z</time>
      </trkpt>
      <trkpt lat="45.33334" lon="6.18792">
        <ele>2291.1999511719</ele>
        <time>2014-03-02T15:16:39.000Z</time>
      </trkpt>
      <trkpt lat="45.33334" lon="6.18792">
        <ele>2291.1999511719</ele>
        <time>2014-03-02T15:16:40.000Z</time>
      </trkpt>
      <trkpt lat="45.33334" lon="6.18792">
        <ele>2291.1999511719</ele>
        <time>2014-03-02T15:16:41.000Z</time>
      </trkpt>
      <trkpt lat="45.33334" lon="6.18792">
        <ele>2291.1999511719</ele>
        <time>2014-03-02T15:16:42.000Z</time>
      </trkpt>
      <trkpt lat="45.33334" lon="6.18792">
        <ele>2291.1999511719</ele>
        <time>2014-03-02T15:16:43.000Z</time>
      </trkpt>
      <trkpt lat="45.33334" lon="6.18792">
        <ele>2291.1999511719</ele>
        <time>2014-03-02T15:16:44.000Z</time>
      </trkpt>
      <trkpt lat="45.33334" lon="6.18792">
        <ele>2291.1999511719</ele>
        <time>2014-03-02T15:16:48.000Z</time>
      </trkpt>
      <trkpt lat="45.33334" lon="6.18792">
        <ele>2291.1999511719</ele>
        <time>2014-03-02T15:16:49.000Z</time>
      </trkpt>
      <trkpt lat="45.33334" lon="6.18792">
        <ele>2291.1999511719</ele>
        <time>2014-03-02T15:16:51.000Z</time>
      </trkpt>
      <trkpt lat="45.33334" lon="6.18792">
        <ele>2291.1999511719</ele>
        <time>2014-03-02T15:16:52.000Z</time>
      </trkpt>
      <trkpt lat="45.33334" lon="6.18792">
        <ele>2291.1999511719</ele>
        <time>2014-03-02T15:16:53.000Z</time>
      </trkpt>
      <trkpt lat="45.33334" lon="6.18792">
        <ele>2291.1999511719</ele>
        <time>2014-03-02T15:16:56.000Z</time>
      </trkpt>
      <trkpt lat="45.33334" lon="6.18792">
        <ele>2291.1999511719</ele>
        <time>2014-03-02T15:16:57.000Z</time>
      </trkpt>
      <trkpt lat="45.33334" lon="6.18792">
        <ele>2291.1999511719</ele>
        <time>2014-03-02T15:16:58.000Z</time>
      </trkpt>
      <trkpt lat="45.33334" lon="6.18792">
        <ele>2291.1999511719</ele>
        <time>2014-03-02T15:16:59.000Z</time>
      </trkpt>
      <trkpt lat="45.33334" lon="6.18792">
        <ele>2291.1999511719</ele>
        <time>2014-03-02T15:17:00.000Z</time>
      </trkpt>
      <trkpt lat="45.33334" lon="6.18792">
        <ele>2291.1999511719</ele>
        <time>2014-03-02T15:17:01.000Z</time>
      </trkpt>
      <trkpt lat="45.33334" lon="6.18792">
        <ele>2291.1999511719</ele>
        <time>2014-03-02T15:17:02.000Z</time>
      </trkpt>
      <trkpt lat="45.33334" lon="6.18792">
        <ele>2291.1999511719</ele>
        <time>2014-03-02T15:17:03.000Z</time>
      </trkpt>
      <trkpt lat="45.33334" lon="6.18792">
        <ele>2291.1999511719</ele>
        <time>2014-03-02T15:17:04.000Z</time>
      </trkpt>
      <trkpt lat="45.33334" lon="6.18792">
        <ele>2291.1999511719</ele>
        <time>2014-03-02T15:17:05.000Z</time>
      </trkpt>
      <trkpt lat="45.33334" lon="6.18792">
        <ele>2291.1999511719</ele>
        <time>2014-03-02T15:17:10.000Z</time>
      </trkpt>
      <trkpt lat="45.33334" lon="6.18792">
        <ele>2291.1999511719</ele>
        <time>2014-03-02T15:17:14.000Z</time>
      </trkpt>
      <trkpt lat="45.33334" lon="6.18792">
        <ele>2291.1999511719</ele>
        <time>2014-03-02T15:17:17.000Z</time>
      </trkpt>
      <trkpt lat="45.33334" lon="6.18792">
        <ele>2291.1999511719</ele>
        <time>2014-03-02T15:17:18.000Z</time>
      </trkpt>
      <trkpt lat="45.33334" lon="6.18792">
        <ele>2291.1999511719</ele>
        <time>2014-03-02T15:17:19.000Z</time>
      </trkpt>
      <trkpt lat="45.33333" lon="6.18793">
        <ele>2291</ele>
        <time>2014-03-02T15:17:20.000Z</time>
      </trkpt>
      <trkpt lat="45.33333" lon="6.18793">
        <ele>2291</ele>
        <time>2014-03-02T15:17:21.000Z</time>
      </trkpt>
      <trkpt lat="45.33333" lon="6.18793">
        <ele>2291</ele>
        <time>2014-03-02T15:17:22.000Z</time>
      </trkpt>
      <trkpt lat="45.33333" lon="6.18793">
        <ele>2291</ele>
        <time>2014-03-02T15:17:26.000Z</time>
      </trkpt>
      <trkpt lat="45.33333" lon="6.18793">
        <ele>2291</ele>
        <time>2014-03-02T15:17:27.000Z</time>
      </trkpt>
      <trkpt lat="45.33333" lon="6.18793">
        <ele>2291</ele>
        <time>2014-03-02T15:17:28.000Z</time>
      </trkpt>
      <trkpt lat="45.33333" lon="6.18793">
        <ele>2291</ele>
        <time>2014-03-02T15:17:29.000Z</time>
      </trkpt>
      <trkpt lat="45.33333" lon="6.18793">
        <ele>2291</ele>
        <time>2014-03-02T15:17:30.000Z</time>
      </trkpt>
      <trkpt lat="45.33333" lon="6.18793">
        <ele>2291</ele>
        <time>2014-03-02T15:17:33.000Z</time>
      </trkpt>
      <trkpt lat="45.33333" lon="6.18793">
        <ele>2291</ele>
        <time>2014-03-02T15:17:34.000Z</time>
      </trkpt>
      <trkpt lat="45.33333" lon="6.18793">
        <ele>2291</ele>
        <time>2014-03-02T15:17:35.000Z</time>
      </trkpt>
      <trkpt lat="45.33333" lon="6.18793">
        <ele>2291</ele>
        <time>2014-03-02T15:17:36.000Z</time>
      </trkpt>
      <trkpt lat="45.33333" lon="6.18793">
        <ele>2291</ele>
        <time>2014-03-02T15:17:37.000Z</time>
      </trkpt>
      <trkpt lat="45.33333" lon="6.18793">
        <ele>2291</ele>
        <time>2014-03-02T15:17:38.000Z</time>
      </trkpt>
      <trkpt lat="45.33333" lon="6.18793">
        <ele>2291</ele>
        <time>2014-03-02T15:17:39.000Z</time>
      </trkpt>
      <trkpt lat="45.33333" lon="6.18793">
        <ele>2291</ele>
        <time>2014-03-02T15:17:40.000Z</time>
      </trkpt>
      <trkpt lat="45.33333" lon="6.18793">
        <ele>2291</ele>
        <time>2014-03-02T15:17:43.000Z</time>
      </trkpt>
      <trkpt lat="45.33333" lon="6.18793">
        <ele>2291</ele>
        <time>2014-03-02T15:17:44.000Z</time>
      </trkpt>
      <trkpt lat="45.33333" lon="6.18793">
        <ele>2291</ele>
        <time>2014-03-02T15:17:45.000Z</time>
      </trkpt>
      <trkpt lat="45.33333" lon="6.18793">
        <ele>2291</ele>
        <time>2014-03-02T15:17:46.000Z</time>
      </trkpt>
      <trkpt lat="45.33333" lon="6.18793">
        <ele>2291</ele>
        <time>2014-03-02T15:17:47.000Z</time>
      </trkpt>
      <trkpt lat="45.33333" lon="6.18793">
        <ele>2291</ele>
        <time>2014-03-02T15:17:48.000Z</time>
      </trkpt>
      <trkpt lat="45.33333" lon="6.18793">
        <ele>2291</ele>
        <time>2014-03-02T15:17:51.000Z</time>
      </trkpt>
      <trkpt lat="45.33333" lon="6.18793">
        <ele>2291</ele>
        <time>2014-03-02T15:17:52.000Z</time>
      </trkpt>
      <trkpt lat="45.33333" lon="6.18793">
        <ele>2291</ele>
        <time>2014-03-02T15:17:53.000Z</time>
      </trkpt>
      <trkpt lat="45.33333" lon="6.18793">
        <ele>2291</ele>
        <time>2014-03-02T15:17:54.000Z</time>
      </trkpt>
      <trkpt lat="45.33333" lon="6.18793">
        <ele>2291</ele>
        <time>2014-03-02T15:17:55.000Z</time>
      </trkpt>
      <trkpt lat="45.33333" lon="6.18793">
        <ele>2291</ele>
        <time>2014-03-02T15:17:57.000Z</time>
      </trkpt>
      <trkpt lat="45.33333" lon="6.18793">
        <ele>2291</ele>
        <time>2014-03-02T15:17:58.000Z</time>
      </trkpt>
      <trkpt lat="45.33333" lon="6.18793">
        <ele>2291</ele>
        <time>2014-03-02T15:17:59.000Z</time>
      </trkpt>
      <trkpt lat="45.33333" lon="6.18793">
        <ele>2290.8000488281</ele>
        <time>2014-03-02T15:18:00.000Z</time>
      </trkpt>
      <trkpt lat="45.33333" lon="6.18793">
        <ele>2290.8000488281</ele>
        <time>2014-03-02T15:18:01.000Z</time>
      </trkpt>
      <trkpt lat="45.33333" lon="6.18793">
        <ele>2290.8000488281</ele>
        <time>2014-03-02T15:18:02.000Z</time>
      </trkpt>
      <trkpt lat="45.33333" lon="6.18793">
        <ele>2290.8000488281</ele>
        <time>2014-03-02T15:18:03.000Z</time>
      </trkpt>
      <trkpt lat="45.33333" lon="6.18793">
        <ele>2290.8000488281</ele>
        <time>2014-03-02T15:18:04.000Z</time>
      </trkpt>
      <trkpt lat="45.33333" lon="6.18793">
        <ele>2290.8000488281</ele>
        <time>2014-03-02T15:18:06.000Z</time>
      </trkpt>
      <trkpt lat="45.33333" lon="6.18793">
        <ele>2290.8000488281</ele>
        <time>2014-03-02T15:18:07.000Z</time>
      </trkpt>
      <trkpt lat="45.33333" lon="6.18793">
        <ele>2290.8000488281</ele>
        <time>2014-03-02T15:18:08.000Z</time>
      </trkpt>
      <trkpt lat="45.33333" lon="6.18793">
        <ele>2290.8000488281</ele>
        <time>2014-03-02T15:18:09.000Z</time>
      </trkpt>
      <trkpt lat="45.33333" lon="6.18793">
        <ele>2290.8000488281</ele>
        <time>2014-03-02T15:18:10.000Z</time>
      </trkpt>
      <trkpt lat="45.33333" lon="6.18793">
        <ele>2290.8000488281</ele>
        <time>2014-03-02T15:18:11.000Z</time>
      </trkpt>
      <trkpt lat="45.33333" lon="6.18793">
        <ele>2290.8000488281</ele>
        <time>2014-03-02T15:18:12.000Z</time>
      </trkpt>
      <trkpt lat="45.33333" lon="6.18793">
        <ele>2290.8000488281</ele>
        <time>2014-03-02T15:18:13.000Z</time>
      </trkpt>
      <trkpt lat="45.33333" lon="6.18793">
        <ele>2290.8000488281</ele>
        <time>2014-03-02T15:18:14.000Z</time>
      </trkpt>
      <trkpt lat="45.33333" lon="6.18793">
        <ele>2290.8000488281</ele>
        <time>2014-03-02T15:18:16.000Z</time>
      </trkpt>
      <trkpt lat="45.33333" lon="6.18793">
        <ele>2290.8000488281</ele>
        <time>2014-03-02T15:18:17.000Z</time>
      </trkpt>
      <trkpt lat="45.33333" lon="6.18793">
        <ele>2290.8000488281</ele>
        <time>2014-03-02T15:18:18.000Z</time>
      </trkpt>
      <trkpt lat="45.33333" lon="6.18793">
        <ele>2290.8000488281</ele>
        <time>2014-03-02T15:18:19.000Z</time>
      </trkpt>
      <trkpt lat="45.33333" lon="6.18793">
        <ele>2290.8000488281</ele>
        <time>2014-03-02T15:18:21.000Z</time>
      </trkpt>
      <trkpt lat="45.33333" lon="6.18793">
        <ele>2290.8000488281</ele>
        <time>2014-03-02T15:18:22.000Z</time>
      </trkpt>
      <trkpt lat="45.33333" lon="6.18793">
        <ele>2290.8000488281</ele>
        <time>2014-03-02T15:18:23.000Z</time>
      </trkpt>
      <trkpt lat="45.33333" lon="6.18793">
        <ele>2290.8000488281</ele>
        <time>2014-03-02T15:18:24.000Z</time>
      </trkpt>
      <trkpt lat="45.33333" lon="6.18793">
        <ele>2290.8000488281</ele>
        <time>2014-03-02T15:18:28.000Z</time>
      </trkpt>
      <trkpt lat="45.33333" lon="6.18793">
        <ele>2290.8000488281</ele>
        <time>2014-03-02T15:18:29.000Z</time>
      </trkpt>
      <trkpt lat="45.33333" lon="6.18793">
        <ele>2290.8000488281</ele>
        <time>2014-03-02T15:18:30.000Z</time>
      </trkpt>
      <trkpt lat="45.33333" lon="6.18793">
        <ele>2290.8000488281</ele>
        <time>2014-03-02T15:18:31.000Z</time>
      </trkpt>
      <trkpt lat="45.33333" lon="6.18793">
        <ele>2290.8000488281</ele>
        <time>2014-03-02T15:18:32.000Z</time>
      </trkpt>
      <trkpt lat="45.33333" lon="6.18793">
        <ele>2290.8000488281</ele>
        <time>2014-03-02T15:18:33.000Z</time>
      </trkpt>
      <trkpt lat="45.33333" lon="6.18793">
        <ele>2290.8000488281</ele>
        <time>2014-03-02T15:18:34.000Z</time>
      </trkpt>
      <trkpt lat="45.33333" lon="6.18793">
        <ele>2290.8000488281</ele>
        <time>2014-03-02T15:18:35.000Z</time>
      </trkpt>
      <trkpt lat="45.33333" lon="6.18793">
        <ele>2290.8000488281</ele>
        <time>2014-03-02T15:18:36.000Z</time>
      </trkpt>
      <trkpt lat="45.33333" lon="6.18793">
        <ele>2290.8000488281</ele>
        <time>2014-03-02T15:18:37.000Z</time>
      </trkpt>
      <trkpt lat="45.33333" lon="6.18793">
        <ele>2290.8000488281</ele>
        <time>2014-03-02T15:18:45.000Z</time>
      </trkpt>
      <trkpt lat="45.33333" lon="6.18793">
        <ele>2290.8000488281</ele>
        <time>2014-03-02T15:18:46.000Z</time>
      </trkpt>
      <trkpt lat="45.33333" lon="6.18793">
        <ele>2290.8000488281</ele>
        <time>2014-03-02T15:18:47.000Z</time>
      </trkpt>
      <trkpt lat="45.33333" lon="6.18793">
        <ele>2290.8000488281</ele>
        <time>2014-03-02T15:18:48.000Z</time>
      </trkpt>
      <trkpt lat="45.33333" lon="6.18793">
        <ele>2290.8000488281</ele>
        <time>2014-03-02T15:18:49.000Z</time>
      </trkpt>
      <trkpt lat="45.33333" lon="6.18793">
        <ele>2290.8000488281</ele>
        <time>2014-03-02T15:18:50.000Z</time>
      </trkpt>
      <trkpt lat="45.33333" lon="6.18793">
        <ele>2290.8000488281</ele>
        <time>2014-03-02T15:18:51.000Z</time>
      </trkpt>
      <trkpt lat="45.33333" lon="6.18793">
        <ele>2290.8000488281</ele>
        <time>2014-03-02T15:18:52.000Z</time>
      </trkpt>
      <trkpt lat="45.33333" lon="6.18793">
        <ele>2290.8000488281</ele>
        <time>2014-03-02T15:18:53.000Z</time>
      </trkpt>
      <trkpt lat="45.33333" lon="6.18793">
        <ele>2290.8000488281</ele>
        <time>2014-03-02T15:18:54.000Z</time>
      </trkpt>
      <trkpt lat="45.33333" lon="6.18793">
        <ele>2290.8000488281</ele>
        <time>2014-03-02T15:18:55.000Z</time>
      </trkpt>
      <trkpt lat="45.33333" lon="6.18793">
        <ele>2290.8000488281</ele>
        <time>2014-03-02T15:18:56.000Z</time>
      </trkpt>
      <trkpt lat="45.33333" lon="6.18793">
        <ele>2290.8000488281</ele>
        <time>2014-03-02T15:18:57.000Z</time>
      </trkpt>
      <trkpt lat="45.33333" lon="6.18793">
        <ele>2290.8000488281</ele>
        <time>2014-03-02T15:18:58.000Z</time>
      </trkpt>
      <trkpt lat="45.33333" lon="6.18793">
        <ele>2290.8000488281</ele>
        <time>2014-03-02T15:18:59.000Z</time>
      </trkpt>
      <trkpt lat="45.33333" lon="6.18793">
        <ele>2290.8000488281</ele>
        <time>2014-03-02T15:19:00.000Z</time>
      </trkpt>
      <trkpt lat="45.33333" lon="6.18793">
        <ele>2290.8000488281</ele>
        <time>2014-03-02T15:19:02.000Z</time>
      </trkpt>
      <trkpt lat="45.33333" lon="6.18793">
        <ele>2290.8000488281</ele>
        <time>2014-03-02T15:19:04.000Z</time>
      </trkpt>
      <trkpt lat="45.33333" lon="6.18793">
        <ele>2290.8000488281</ele>
        <time>2014-03-02T15:19:05.000Z</time>
      </trkpt>
      <trkpt lat="45.33333" lon="6.18793">
        <ele>2290.8000488281</ele>
        <time>2014-03-02T15:19:06.000Z</time>
      </trkpt>
      <trkpt lat="45.33333" lon="6.18793">
        <ele>2290.8000488281</ele>
        <time>2014-03-02T15:19:07.000Z</time>
      </trkpt>
      <trkpt lat="45.33333" lon="6.18793">
        <ele>2290.8000488281</ele>
        <time>2014-03-02T15:19:08.000Z</time>
      </trkpt>
      <trkpt lat="45.33333" lon="6.18793">
        <ele>2290.8000488281</ele>
        <time>2014-03-02T15:19:09.000Z</time>
      </trkpt>
      <trkpt lat="45.33333" lon="6.18793">
        <ele>2290.8000488281</ele>
        <time>2014-03-02T15:19:10.000Z</time>
      </trkpt>
      <trkpt lat="45.33333" lon="6.18793">
        <ele>2290.8000488281</ele>
        <time>2014-03-02T15:19:11.000Z</time>
      </trkpt>
      <trkpt lat="45.33333" lon="6.18793">
        <ele>2290.8000488281</ele>
        <time>2014-03-02T15:19:12.000Z</time>
      </trkpt>
      <trkpt lat="45.33333" lon="6.18793">
        <ele>2290.8000488281</ele>
        <time>2014-03-02T15:19:13.000Z</time>
      </trkpt>
      <trkpt lat="45.33333" lon="6.18793">
        <ele>2290.8000488281</ele>
        <time>2014-03-02T15:19:14.000Z</time>
      </trkpt>
      <trkpt lat="45.33333" lon="6.18793">
        <ele>2290.8000488281</ele>
        <time>2014-03-02T15:19:15.000Z</time>
      </trkpt>
      <trkpt lat="45.33333" lon="6.18793">
        <ele>2290.8000488281</ele>
        <time>2014-03-02T15:19:16.000Z</time>
      </trkpt>
      <trkpt lat="45.33333" lon="6.18793">
        <ele>2290.8000488281</ele>
        <time>2014-03-02T15:19:17.000Z</time>
      </trkpt>
      <trkpt lat="45.33333" lon="6.1879">
        <ele>2291</ele>
        <time>2014-03-02T15:19:21.000Z</time>
      </trkpt>
      <trkpt lat="45.33333" lon="6.1879">
        <ele>2291</ele>
        <time>2014-03-02T15:19:23.000Z</time>
      </trkpt>
      <trkpt lat="45.33333" lon="6.1879">
        <ele>2291</ele>
        <time>2014-03-02T15:19:24.000Z</time>
      </trkpt>
      <trkpt lat="45.33333" lon="6.1879">
        <ele>2291</ele>
        <time>2014-03-02T15:19:25.000Z</time>
      </trkpt>
      <trkpt lat="45.33333" lon="6.1879">
        <ele>2291</ele>
        <time>2014-03-02T15:19:26.000Z</time>
      </trkpt>
      <trkpt lat="45.33333" lon="6.1879">
        <ele>2291</ele>
        <time>2014-03-02T15:19:27.000Z</time>
      </trkpt>
      <trkpt lat="45.33333" lon="6.1879">
        <ele>2291</ele>
        <time>2014-03-02T15:19:28.000Z</time>
      </trkpt>
      <trkpt lat="45.33333" lon="6.1879">
        <ele>2291</ele>
        <time>2014-03-02T15:19:30.000Z</time>
      </trkpt>
      <trkpt lat="45.33333" lon="6.1879">
        <ele>2291</ele>
        <time>2014-03-02T15:19:31.000Z</time>
      </trkpt>
      <trkpt lat="45.33333" lon="6.1879">
        <ele>2291</ele>
        <time>2014-03-02T15:19:32.000Z</time>
      </trkpt>
      <trkpt lat="45.33333" lon="6.1879">
        <ele>2291</ele>
        <time>2014-03-02T15:19:33.000Z</time>
      </trkpt>
      <trkpt lat="45.33333" lon="6.1879">
        <ele>2291</ele>
        <time>2014-03-02T15:19:39.000Z</time>
      </trkpt>
      <trkpt lat="45.33333" lon="6.1879">
        <ele>2291</ele>
        <time>2014-03-02T15:19:40.000Z</time>
      </trkpt>
      <trkpt lat="45.33333" lon="6.1879">
        <ele>2291</ele>
        <time>2014-03-02T15:19:41.000Z</time>
      </trkpt>
      <trkpt lat="45.33333" lon="6.1879">
        <ele>2291</ele>
        <time>2014-03-02T15:19:42.000Z</time>
      </trkpt>
      <trkpt lat="45.33333" lon="6.1879">
        <ele>2291</ele>
        <time>2014-03-02T15:19:43.000Z</time>
      </trkpt>
      <trkpt lat="45.33333" lon="6.1879">
        <ele>2291</ele>
        <time>2014-03-02T15:19:44.000Z</time>
      </trkpt>
      <trkpt lat="45.33333" lon="6.1879">
        <ele>2291</ele>
        <time>2014-03-02T15:19:45.000Z</time>
      </trkpt>
      <trkpt lat="45.33333" lon="6.1879">
        <ele>2291</ele>
        <time>2014-03-02T15:19:46.000Z</time>
      </trkpt>
      <trkpt lat="45.33333" lon="6.1879">
        <ele>2291</ele>
        <time>2014-03-02T15:19:47.000Z</time>
      </trkpt>
      <trkpt lat="45.33333" lon="6.1879">
        <ele>2291</ele>
        <time>2014-03-02T15:19:48.000Z</time>
      </trkpt>
      <trkpt lat="45.33333" lon="6.1879">
        <ele>2291</ele>
        <time>2014-03-02T15:19:49.000Z</time>
      </trkpt>
      <trkpt lat="45.33333" lon="6.1879">
        <ele>2291</ele>
        <time>2014-03-02T15:19:50.000Z</time>
      </trkpt>
      <trkpt lat="45.33333" lon="6.1879">
        <ele>2291</ele>
        <time>2014-03-02T15:19:51.000Z</time>
      </trkpt>
      <trkpt lat="45.33333" lon="6.1879">
        <ele>2291</ele>
        <time>2014-03-02T15:19:52.000Z</time>
      </trkpt>
      <trkpt lat="45.33333" lon="6.1879">
        <ele>2291</ele>
        <time>2014-03-02T15:19:57.000Z</time>
      </trkpt>
      <trkpt lat="45.33333" lon="6.1879">
        <ele>2291</ele>
        <time>2014-03-02T15:19:58.000Z</time>
      </trkpt>
      <trkpt lat="45.33333" lon="6.1879">
        <ele>2291</ele>
        <time>2014-03-02T15:19:59.000Z</time>
      </trkpt>
      <trkpt lat="45.33333" lon="6.1879">
        <ele>2291</ele>
        <time>2014-03-02T15:20:00.000Z</time>
      </trkpt>
      <trkpt lat="45.33333" lon="6.18791">
        <ele>2290.8000488281</ele>
        <time>2014-03-02T15:20:01.000Z</time>
      </trkpt>
      <trkpt lat="45.33333" lon="6.18791">
        <ele>2290.8000488281</ele>
        <time>2014-03-02T15:20:03.000Z</time>
      </trkpt>
      <trkpt lat="45.33333" lon="6.18791">
        <ele>2290.8000488281</ele>
        <time>2014-03-02T15:20:04.000Z</time>
      </trkpt>
      <trkpt lat="45.33333" lon="6.18791">
        <ele>2290.8000488281</ele>
        <time>2014-03-02T15:20:06.000Z</time>
      </trkpt>
      <trkpt lat="45.33333" lon="6.18791">
        <ele>2290.8000488281</ele>
        <time>2014-03-02T15:20:08.000Z</time>
      </trkpt>
      <trkpt lat="45.33333" lon="6.18791">
        <ele>2290.8000488281</ele>
        <time>2014-03-02T15:20:09.000Z</time>
      </trkpt>
      <trkpt lat="45.33333" lon="6.18791">
        <ele>2290.8000488281</ele>
        <time>2014-03-02T15:20:10.000Z</time>
      </trkpt>
      <trkpt lat="45.33333" lon="6.18791">
        <ele>2290.8000488281</ele>
        <time>2014-03-02T15:20:12.000Z</time>
      </trkpt>
      <trkpt lat="45.33333" lon="6.18791">
        <ele>2290.8000488281</ele>
        <time>2014-03-02T15:20:13.000Z</time>
      </trkpt>
      <trkpt lat="45.33333" lon="6.18791">
        <ele>2290.8000488281</ele>
        <time>2014-03-02T15:20:14.000Z</time>
      </trkpt>
      <trkpt lat="45.33333" lon="6.18791">
        <ele>2290.8000488281</ele>
        <time>2014-03-02T15:20:15.000Z</time>
      </trkpt>
      <trkpt lat="45.33333" lon="6.18791">
        <ele>2290.8000488281</ele>
        <time>2014-03-02T15:20:16.000Z</time>
      </trkpt>
      <trkpt lat="45.33333" lon="6.18791">
        <ele>2290.8000488281</ele>
        <time>2014-03-02T15:20:17.000Z</time>
      </trkpt>
      <trkpt lat="45.33333" lon="6.18791">
        <ele>2290.8000488281</ele>
        <time>2014-03-02T15:20:19.000Z</time>
      </trkpt>
      <trkpt lat="45.33333" lon="6.18791">
        <ele>2290.8000488281</ele>
        <time>2014-03-02T15:20:20.000Z</time>
      </trkpt>
      <trkpt lat="45.33333" lon="6.18791">
        <ele>2290.8000488281</ele>
        <time>2014-03-02T15:20:21.000Z</time>
      </trkpt>
      <trkpt lat="45.33333" lon="6.18791">
        <ele>2290.8000488281</ele>
        <time>2014-03-02T15:20:23.000Z</time>
      </trkpt>
      <trkpt lat="45.33333" lon="6.18791">
        <ele>2290.8000488281</ele>
        <time>2014-03-02T15:20:24.000Z</time>
      </trkpt>
      <trkpt lat="45.33333" lon="6.18791">
        <ele>2290.8000488281</ele>
        <time>2014-03-02T15:20:26.000Z</time>
      </trkpt>
      <trkpt lat="45.33333" lon="6.18791">
        <ele>2290.8000488281</ele>
        <time>2014-03-02T15:20:27.000Z</time>
      </trkpt>
      <trkpt lat="45.33333" lon="6.18791">
        <ele>2290.8000488281</ele>
        <time>2014-03-02T15:20:29.000Z</time>
      </trkpt>
      <trkpt lat="45.33333" lon="6.18791">
        <ele>2290.8000488281</ele>
        <time>2014-03-02T15:20:30.000Z</time>
      </trkpt>
      <trkpt lat="45.33333" lon="6.18791">
        <ele>2290.8000488281</ele>
        <time>2014-03-02T15:20:33.000Z</time>
      </trkpt>
      <trkpt lat="45.33333" lon="6.18791">
        <ele>2290.8000488281</ele>
        <time>2014-03-02T15:20:34.000Z</time>
      </trkpt>
      <trkpt lat="45.33333" lon="6.18791">
        <ele>2290.8000488281</ele>
        <time>2014-03-02T15:20:35.000Z</time>
      </trkpt>
      <trkpt lat="45.33333" lon="6.18791">
        <ele>2290.8000488281</ele>
        <time>2014-03-02T15:20:36.000Z</time>
      </trkpt>
      <trkpt lat="45.33333" lon="6.18791">
        <ele>2290.8000488281</ele>
        <time>2014-03-02T15:20:37.000Z</time>
      </trkpt>
      <trkpt lat="45.33333" lon="6.18791">
        <ele>2290.8000488281</ele>
        <time>2014-03-02T15:20:38.000Z</time>
      </trkpt>
      <trkpt lat="45.33333" lon="6.18791">
        <ele>2290.8000488281</ele>
        <time>2014-03-02T15:20:40.000Z</time>
      </trkpt>
      <trkpt lat="45.33333" lon="6.18791">
        <ele>2290.8000488281</ele>
        <time>2014-03-02T15:20:42.000Z</time>
      </trkpt>
      <trkpt lat="45.33333" lon="6.18791">
        <ele>2290.8000488281</ele>
        <time>2014-03-02T15:20:43.000Z</time>
      </trkpt>
      <trkpt lat="45.33333" lon="6.18791">
        <ele>2290.8000488281</ele>
        <time>2014-03-02T15:20:44.000Z</time>
      </trkpt>
      <trkpt lat="45.33333" lon="6.18791">
        <ele>2290.8000488281</ele>
        <time>2014-03-02T15:20:46.000Z</time>
      </trkpt>
      <trkpt lat="45.33333" lon="6.18791">
        <ele>2290.8000488281</ele>
        <time>2014-03-02T15:20:47.000Z</time>
      </trkpt>
      <trkpt lat="45.33333" lon="6.18791">
        <ele>2290.8000488281</ele>
        <time>2014-03-02T15:20:48.000Z</time>
      </trkpt>
      <trkpt lat="45.33333" lon="6.18791">
        <ele>2290.8000488281</ele>
        <time>2014-03-02T15:20:49.000Z</time>
      </trkpt>
      <trkpt lat="45.33333" lon="6.18791">
        <ele>2290.8000488281</ele>
        <time>2014-03-02T15:20:50.000Z</time>
      </trkpt>
      <trkpt lat="45.33333" lon="6.18791">
        <ele>2290.8000488281</ele>
        <time>2014-03-02T15:20:52.000Z</time>
      </trkpt>
      <trkpt lat="45.33333" lon="6.18791">
        <ele>2290.8000488281</ele>
        <time>2014-03-02T15:20:53.000Z</time>
      </trkpt>
      <trkpt lat="45.33333" lon="6.18791">
        <ele>2290.8000488281</ele>
        <time>2014-03-02T15:20:54.000Z</time>
      </trkpt>
      <trkpt lat="45.33333" lon="6.18791">
        <ele>2290.8000488281</ele>
        <time>2014-03-02T15:20:58.000Z</time>
      </trkpt>
      <trkpt lat="45.33333" lon="6.18791">
        <ele>2290.8000488281</ele>
        <time>2014-03-02T15:20:59.000Z</time>
      </trkpt>
      <trkpt lat="45.33333" lon="6.18791">
        <ele>2290.8000488281</ele>
        <time>2014-03-02T15:21:00.000Z</time>
      </trkpt>
      <trkpt lat="45.33333" lon="6.18791">
        <ele>2290.8000488281</ele>
        <time>2014-03-02T15:21:01.000Z</time>
      </trkpt>
      <trkpt lat="45.33333" lon="6.18791">
        <ele>2290.8000488281</ele>
        <time>2014-03-02T15:21:02.000Z</time>
      </trkpt>
      <trkpt lat="45.33333" lon="6.18791">
        <ele>2290.8000488281</ele>
        <time>2014-03-02T15:21:04.000Z</time>
      </trkpt>
      <trkpt lat="45.33333" lon="6.18791">
        <ele>2290.8000488281</ele>
        <time>2014-03-02T15:21:05.000Z</time>
      </trkpt>
      <trkpt lat="45.33333" lon="6.18791">
        <ele>2290.8000488281</ele>
        <time>2014-03-02T15:21:06.000Z</time>
      </trkpt>
      <trkpt lat="45.33333" lon="6.18791">
        <ele>2290.8000488281</ele>
        <time>2014-03-02T15:21:07.000Z</time>
      </trkpt>
      <trkpt lat="45.33333" lon="6.18791">
        <ele>2290.8000488281</ele>
        <time>2014-03-02T15:21:08.000Z</time>
      </trkpt>
      <trkpt lat="45.33333" lon="6.18791">
        <ele>2290.8000488281</ele>
        <time>2014-03-02T15:21:09.000Z</time>
      </trkpt>
      <trkpt lat="45.33333" lon="6.18791">
        <ele>2290.8000488281</ele>
        <time>2014-03-02T15:21:10.000Z</time>
      </trkpt>
      <trkpt lat="45.33333" lon="6.18791">
        <ele>2290.8000488281</ele>
        <time>2014-03-02T15:21:11.000Z</time>
      </trkpt>
      <trkpt lat="45.33333" lon="6.18791">
        <ele>2290.8000488281</ele>
        <time>2014-03-02T15:21:12.000Z</time>
      </trkpt>
      <trkpt lat="45.33333" lon="6.18791">
        <ele>2290.8000488281</ele>
        <time>2014-03-02T15:21:13.000Z</time>
      </trkpt>
      <trkpt lat="45.33333" lon="6.18791">
        <ele>2290.8000488281</ele>
        <time>2014-03-02T15:21:14.000Z</time>
      </trkpt>
      <trkpt lat="45.33333" lon="6.18791">
        <ele>2290.8000488281</ele>
        <time>2014-03-02T15:21:18.000Z</time>
      </trkpt>
      <trkpt lat="45.33333" lon="6.18791">
        <ele>2290.8000488281</ele>
        <time>2014-03-02T15:21:19.000Z</time>
      </trkpt>
      <trkpt lat="45.33333" lon="6.18791">
        <ele>2290.8000488281</ele>
        <time>2014-03-02T15:21:20.000Z</time>
      </trkpt>
      <trkpt lat="45.33333" lon="6.18791">
        <ele>2290.8000488281</ele>
        <time>2014-03-02T15:21:21.000Z</time>
      </trkpt>
      <trkpt lat="45.33333" lon="6.18791">
        <ele>2290.8000488281</ele>
        <time>2014-03-02T15:21:22.000Z</time>
      </trkpt>
      <trkpt lat="45.33333" lon="6.18791">
        <ele>2290.8000488281</ele>
        <time>2014-03-02T15:21:23.000Z</time>
      </trkpt>
      <trkpt lat="45.33333" lon="6.18791">
        <ele>2290.8000488281</ele>
        <time>2014-03-02T15:21:24.000Z</time>
      </trkpt>
      <trkpt lat="45.33333" lon="6.18791">
        <ele>2290.8000488281</ele>
        <time>2014-03-02T15:21:25.000Z</time>
      </trkpt>
      <trkpt lat="45.33333" lon="6.18791">
        <ele>2290.8000488281</ele>
        <time>2014-03-02T15:21:26.000Z</time>
      </trkpt>
      <trkpt lat="45.33333" lon="6.18791">
        <ele>2290.8000488281</ele>
        <time>2014-03-02T15:21:27.000Z</time>
      </trkpt>
      <trkpt lat="45.33333" lon="6.18791">
        <ele>2290.8000488281</ele>
        <time>2014-03-02T15:21:30.000Z</time>
      </trkpt>
      <trkpt lat="45.33333" lon="6.18791">
        <ele>2290.8000488281</ele>
        <time>2014-03-02T15:21:31.000Z</time>
      </trkpt>
      <trkpt lat="45.33333" lon="6.18791">
        <ele>2290.8000488281</ele>
        <time>2014-03-02T15:21:32.000Z</time>
      </trkpt>
      <trkpt lat="45.33333" lon="6.18791">
        <ele>2290.8000488281</ele>
        <time>2014-03-02T15:21:33.000Z</time>
      </trkpt>
      <trkpt lat="45.33333" lon="6.18791">
        <ele>2290.8000488281</ele>
        <time>2014-03-02T15:21:34.000Z</time>
      </trkpt>
      <trkpt lat="45.33333" lon="6.18791">
        <ele>2290.8000488281</ele>
        <time>2014-03-02T15:21:35.000Z</time>
      </trkpt>
      <trkpt lat="45.33333" lon="6.18791">
        <ele>2290.8000488281</ele>
        <time>2014-03-02T15:21:36.000Z</time>
      </trkpt>
      <trkpt lat="45.33333" lon="6.18791">
        <ele>2290.8000488281</ele>
        <time>2014-03-02T15:21:37.000Z</time>
      </trkpt>
      <trkpt lat="45.33333" lon="6.18791">
        <ele>2290.8000488281</ele>
        <time>2014-03-02T15:21:38.000Z</time>
      </trkpt>
      <trkpt lat="45.33333" lon="6.18791">
        <ele>2290.8000488281</ele>
        <time>2014-03-02T15:21:39.000Z</time>
      </trkpt>
      <trkpt lat="45.33333" lon="6.18791">
        <ele>2290.8000488281</ele>
        <time>2014-03-02T15:21:40.000Z</time>
      </trkpt>
      <trkpt lat="45.33333" lon="6.18791">
        <ele>2290.8000488281</ele>
        <time>2014-03-02T15:21:41.000Z</time>
      </trkpt>
      <trkpt lat="45.33333" lon="6.18791">
        <ele>2290.8000488281</ele>
        <time>2014-03-02T15:21:42.000Z</time>
      </trkpt>
      <trkpt lat="45.33333" lon="6.18791">
        <ele>2290.8000488281</ele>
        <time>2014-03-02T15:21:43.000Z</time>
      </trkpt>
      <trkpt lat="45.33333" lon="6.18791">
        <ele>2290.8000488281</ele>
        <time>2014-03-02T15:21:44.000Z</time>
      </trkpt>
      <trkpt lat="45.33333" lon="6.18791">
        <ele>2290.8000488281</ele>
        <time>2014-03-02T15:21:45.000Z</time>
      </trkpt>
      <trkpt lat="45.33333" lon="6.18791">
        <ele>2290.8000488281</ele>
        <time>2014-03-02T15:21:46.000Z</time>
      </trkpt>
      <trkpt lat="45.33333" lon="6.18791">
        <ele>2290.8000488281</ele>
        <time>2014-03-02T15:21:47.000Z</time>
      </trkpt>
      <trkpt lat="45.33333" lon="6.18791">
        <ele>2290.8000488281</ele>
        <time>2014-03-02T15:21:50.000Z</time>
      </trkpt>
      <trkpt lat="45.33333" lon="6.18791">
        <ele>2290.8000488281</ele>
        <time>2014-03-02T15:21:51.000Z</time>
      </trkpt>
      <trkpt lat="45.33333" lon="6.18791">
        <ele>2290.8000488281</ele>
        <time>2014-03-02T15:21:53.000Z</time>
      </trkpt>
      <trkpt lat="45.33333" lon="6.18791">
        <ele>2290.8000488281</ele>
        <time>2014-03-02T15:21:55.000Z</time>
      </trkpt>
      <trkpt lat="45.33333" lon="6.18791">
        <ele>2290.8000488281</ele>
        <time>2014-03-02T15:21:56.000Z</time>
      </trkpt>
      <trkpt lat="45.33333" lon="6.18791">
        <ele>2290.8000488281</ele>
        <time>2014-03-02T15:21:57.000Z</time>
      </trkpt>
      <trkpt lat="45.33333" lon="6.18791">
        <ele>2290.8000488281</ele>
        <time>2014-03-02T15:21:58.000Z</time>
      </trkpt>
      <trkpt lat="45.33333" lon="6.18791">
        <ele>2290.8000488281</ele>
        <time>2014-03-02T15:21:59.000Z</time>
      </trkpt>
      <trkpt lat="45.33333" lon="6.18791">
        <ele>2290.8000488281</ele>
        <time>2014-03-02T15:22:00.000Z</time>
      </trkpt>
      <trkpt lat="45.33333" lon="6.18791">
        <ele>2290.8000488281</ele>
        <time>2014-03-02T15:22:01.000Z</time>
      </trkpt>
      <trkpt lat="45.33333" lon="6.18791">
        <ele>2290.8000488281</ele>
        <time>2014-03-02T15:22:02.000Z</time>
      </trkpt>
      <trkpt lat="45.33333" lon="6.18791">
        <ele>2290.8000488281</ele>
        <time>2014-03-02T15:22:03.000Z</time>
      </trkpt>
      <trkpt lat="45.33333" lon="6.18791">
        <ele>2290.8000488281</ele>
        <time>2014-03-02T15:22:04.000Z</time>
      </trkpt>
      <trkpt lat="45.33333" lon="6.18791">
        <ele>2290.8000488281</ele>
        <time>2014-03-02T15:22:05.000Z</time>
      </trkpt>
      <trkpt lat="45.33333" lon="6.18791">
        <ele>2290.8000488281</ele>
        <time>2014-03-02T15:22:06.000Z</time>
      </trkpt>
      <trkpt lat="45.33333" lon="6.18791">
        <ele>2290.8000488281</ele>
        <time>2014-03-02T15:22:07.000Z</time>
      </trkpt>
      <trkpt lat="45.33333" lon="6.18791">
        <ele>2290.8000488281</ele>
        <time>2014-03-02T15:22:08.000Z</time>
      </trkpt>
      <trkpt lat="45.33333" lon="6.18791">
        <ele>2290.8000488281</ele>
        <time>2014-03-02T15:22:09.000Z</time>
      </trkpt>
      <trkpt lat="45.33333" lon="6.18791">
        <ele>2290.8000488281</ele>
        <time>2014-03-02T15:22:10.000Z</time>
      </trkpt>
      <trkpt lat="45.33333" lon="6.18791">
        <ele>2290.8000488281</ele>
        <time>2014-03-02T15:22:11.000Z</time>
      </trkpt>
      <trkpt lat="45.33333" lon="6.18791">
        <ele>2290.8000488281</ele>
        <time>2014-03-02T15:22:12.000Z</time>
      </trkpt>
      <trkpt lat="45.33333" lon="6.18791">
        <ele>2290.8000488281</ele>
        <time>2014-03-02T15:22:13.000Z</time>
      </trkpt>
      <trkpt lat="45.33333" lon="6.18791">
        <ele>2290.8000488281</ele>
        <time>2014-03-02T15:22:14.000Z</time>
      </trkpt>
      <trkpt lat="45.33333" lon="6.18791">
        <ele>2290.8000488281</ele>
        <time>2014-03-02T15:22:15.000Z</time>
      </trkpt>
      <trkpt lat="45.33333" lon="6.18791">
        <ele>2290.8000488281</ele>
        <time>2014-03-02T15:22:16.000Z</time>
      </trkpt>
      <trkpt lat="45.33333" lon="6.18791">
        <ele>2290.8000488281</ele>
        <time>2014-03-02T15:22:17.000Z</time>
      </trkpt>
      <trkpt lat="45.33333" lon="6.18791">
        <ele>2290.8000488281</ele>
        <time>2014-03-02T15:22:18.000Z</time>
      </trkpt>
      <trkpt lat="45.33333" lon="6.18791">
        <ele>2290.8000488281</ele>
        <time>2014-03-02T15:22:19.000Z</time>
      </trkpt>
      <trkpt lat="45.33333" lon="6.18791">
        <ele>2290.8000488281</ele>
        <time>2014-03-02T15:22:20.000Z</time>
      </trkpt>
      <trkpt lat="45.33333" lon="6.18791">
        <ele>2290.8000488281</ele>
        <time>2014-03-02T15:22:21.000Z</time>
      </trkpt>
      <trkpt lat="45.33333" lon="6.18791">
        <ele>2290.8000488281</ele>
        <time>2014-03-02T15:22:22.000Z</time>
      </trkpt>
      <trkpt lat="45.33333" lon="6.18791">
        <ele>2290.8000488281</ele>
        <time>2014-03-02T15:22:23.000Z</time>
      </trkpt>
      <trkpt lat="45.33333" lon="6.18791">
        <ele>2290.8000488281</ele>
        <time>2014-03-02T15:22:24.000Z</time>
      </trkpt>
      <trkpt lat="45.33333" lon="6.18791">
        <ele>2290.8000488281</ele>
        <time>2014-03-02T15:22:25.000Z</time>
      </trkpt>
      <trkpt lat="45.33333" lon="6.18791">
        <ele>2290.8000488281</ele>
        <time>2014-03-02T15:22:26.000Z</time>
      </trkpt>
      <trkpt lat="45.33333" lon="6.18791">
        <ele>2290.8000488281</ele>
        <time>2014-03-02T15:22:27.000Z</time>
      </trkpt>
      <trkpt lat="45.33333" lon="6.18791">
        <ele>2290.8000488281</ele>
        <time>2014-03-02T15:22:28.000Z</time>
      </trkpt>
      <trkpt lat="45.33333" lon="6.18791">
        <ele>2290.8000488281</ele>
        <time>2014-03-02T15:22:29.000Z</time>
      </trkpt>
      <trkpt lat="45.33333" lon="6.18791">
        <ele>2290.8000488281</ele>
        <time>2014-03-02T15:22:30.000Z</time>
      </trkpt>
      <trkpt lat="45.33333" lon="6.18791">
        <ele>2290.8000488281</ele>
        <time>2014-03-02T15:22:31.000Z</time>
      </trkpt>
      <trkpt lat="45.33333" lon="6.18791">
        <ele>2290.8000488281</ele>
        <time>2014-03-02T15:22:32.000Z</time>
      </trkpt>
      <trkpt lat="45.33333" lon="6.18791">
        <ele>2290.8000488281</ele>
        <time>2014-03-02T15:22:33.000Z</time>
      </trkpt>
      <trkpt lat="45.33333" lon="6.18791">
        <ele>2290.8000488281</ele>
        <time>2014-03-02T15:22:34.000Z</time>
      </trkpt>
      <trkpt lat="45.33333" lon="6.18791">
        <ele>2290.8000488281</ele>
        <time>2014-03-02T15:22:35.000Z</time>
      </trkpt>
      <trkpt lat="45.33333" lon="6.18791">
        <ele>2290.8000488281</ele>
        <time>2014-03-02T15:22:36.000Z</time>
      </trkpt>
      <trkpt lat="45.33333" lon="6.18791">
        <ele>2290.8000488281</ele>
        <time>2014-03-02T15:22:37.000Z</time>
      </trkpt>
      <trkpt lat="45.33333" lon="6.18791">
        <ele>2290.8000488281</ele>
        <time>2014-03-02T15:22:38.000Z</time>
      </trkpt>
      <trkpt lat="45.33333" lon="6.18791">
        <ele>2290.8000488281</ele>
        <time>2014-03-02T15:22:39.000Z</time>
      </trkpt>
      <trkpt lat="45.33333" lon="6.18791">
        <ele>2290.8000488281</ele>
        <time>2014-03-02T15:22:40.000Z</time>
      </trkpt>
      <trkpt lat="45.33333" lon="6.18791">
        <ele>2290.6000976562</ele>
        <time>2014-03-02T15:22:41.000Z</time>
      </trkpt>
      <trkpt lat="45.33333" lon="6.18791">
        <ele>2290.6000976562</ele>
        <time>2014-03-02T15:22:42.000Z</time>
      </trkpt>
      <trkpt lat="45.33333" lon="6.18791">
        <ele>2290.6000976562</ele>
        <time>2014-03-02T15:22:43.000Z</time>
      </trkpt>
      <trkpt lat="45.33333" lon="6.18791">
        <ele>2290.6000976562</ele>
        <time>2014-03-02T15:22:44.000Z</time>
      </trkpt>
      <trkpt lat="45.33333" lon="6.18791">
        <ele>2290.6000976562</ele>
        <time>2014-03-02T15:22:45.000Z</time>
      </trkpt>
      <trkpt lat="45.33333" lon="6.18791">
        <ele>2290.6000976562</ele>
        <time>2014-03-02T15:22:46.000Z</time>
      </trkpt>
      <trkpt lat="45.33333" lon="6.18791">
        <ele>2290.6000976562</ele>
        <time>2014-03-02T15:22:47.000Z</time>
      </trkpt>
      <trkpt lat="45.33333" lon="6.18791">
        <ele>2290.6000976562</ele>
        <time>2014-03-02T15:22:48.000Z</time>
      </trkpt>
      <trkpt lat="45.33333" lon="6.18791">
        <ele>2290.6000976562</ele>
        <time>2014-03-02T15:22:50.000Z</time>
      </trkpt>
      <trkpt lat="45.33333" lon="6.18791">
        <ele>2290.6000976562</ele>
        <time>2014-03-02T15:22:51.000Z</time>
      </trkpt>
      <trkpt lat="45.33333" lon="6.18791">
        <ele>2290.6000976562</ele>
        <time>2014-03-02T15:22:52.000Z</time>
      </trkpt>
      <trkpt lat="45.33333" lon="6.18791">
        <ele>2290.6000976562</ele>
        <time>2014-03-02T15:22:53.000Z</time>
      </trkpt>
      <trkpt lat="45.33333" lon="6.18791">
        <ele>2290.6000976562</ele>
        <time>2014-03-02T15:22:54.000Z</time>
      </trkpt>
      <trkpt lat="45.33333" lon="6.18791">
        <ele>2290.6000976562</ele>
        <time>2014-03-02T15:22:56.000Z</time>
      </trkpt>
      <trkpt lat="45.33333" lon="6.18791">
        <ele>2290.6000976562</ele>
        <time>2014-03-02T15:22:57.000Z</time>
      </trkpt>
      <trkpt lat="45.33333" lon="6.18791">
        <ele>2290.6000976562</ele>
        <time>2014-03-02T15:22:58.000Z</time>
      </trkpt>
      <trkpt lat="45.33333" lon="6.18791">
        <ele>2290.6000976562</ele>
        <time>2014-03-02T15:22:59.000Z</time>
      </trkpt>
      <trkpt lat="45.33333" lon="6.18791">
        <ele>2290.6000976562</ele>
        <time>2014-03-02T15:23:00.000Z</time>
      </trkpt>
      <trkpt lat="45.33333" lon="6.18791">
        <ele>2290.6000976562</ele>
        <time>2014-03-02T15:23:01.000Z</time>
      </trkpt>
      <trkpt lat="45.33333" lon="6.18791">
        <ele>2290.6000976562</ele>
        <time>2014-03-02T15:23:02.000Z</time>
      </trkpt>
      <trkpt lat="45.33333" lon="6.18791">
        <ele>2290.6000976562</ele>
        <time>2014-03-02T15:23:03.000Z</time>
      </trkpt>
      <trkpt lat="45.33333" lon="6.18791">
        <ele>2290.6000976562</ele>
        <time>2014-03-02T15:23:04.000Z</time>
      </trkpt>
      <trkpt lat="45.33333" lon="6.18791">
        <ele>2290.6000976562</ele>
        <time>2014-03-02T15:23:05.000Z</time>
      </trkpt>
      <trkpt lat="45.33333" lon="6.18791">
        <ele>2290.6000976562</ele>
        <time>2014-03-02T15:23:06.000Z</time>
      </trkpt>
      <trkpt lat="45.33333" lon="6.18791">
        <ele>2290.6000976562</ele>
        <time>2014-03-02T15:23:07.000Z</time>
      </trkpt>
      <trkpt lat="45.33333" lon="6.18791">
        <ele>2290.6000976562</ele>
        <time>2014-03-02T15:23:08.000Z</time>
      </trkpt>
      <trkpt lat="45.33333" lon="6.18791">
        <ele>2290.6000976562</ele>
        <time>2014-03-02T15:23:09.000Z</time>
      </trkpt>
      <trkpt lat="45.33333" lon="6.18791">
        <ele>2290.6000976562</ele>
        <time>2014-03-02T15:23:10.000Z</time>
      </trkpt>
      <trkpt lat="45.33333" lon="6.18791">
        <ele>2290.6000976562</ele>
        <time>2014-03-02T15:23:11.000Z</time>
      </trkpt>
      <trkpt lat="45.33333" lon="6.18791">
        <ele>2290.6000976562</ele>
        <time>2014-03-02T15:23:12.000Z</time>
      </trkpt>
      <trkpt lat="45.33333" lon="6.18791">
        <ele>2290.6000976562</ele>
        <time>2014-03-02T15:23:14.000Z</time>
      </trkpt>
      <trkpt lat="45.33333" lon="6.18791">
        <ele>2290.6000976562</ele>
        <time>2014-03-02T15:23:15.000Z</time>
      </trkpt>
      <trkpt lat="45.33333" lon="6.18791">
        <ele>2290.6000976562</ele>
        <time>2014-03-02T15:23:18.000Z</time>
      </trkpt>
      <trkpt lat="45.33333" lon="6.18791">
        <ele>2290.6000976562</ele>
        <time>2014-03-02T15:23:19.000Z</time>
      </trkpt>
      <trkpt lat="45.33333" lon="6.18791">
        <ele>2290.6000976562</ele>
        <time>2014-03-02T15:23:20.000Z</time>
      </trkpt>
      <trkpt lat="45.33333" lon="6.18791">
        <ele>2290.8000488281</ele>
        <time>2014-03-02T15:23:21.000Z</time>
      </trkpt>
      <trkpt lat="45.33333" lon="6.18791">
        <ele>2290.8000488281</ele>
        <time>2014-03-02T15:23:22.000Z</time>
      </trkpt>
      <trkpt lat="45.33333" lon="6.18791">
        <ele>2290.8000488281</ele>
        <time>2014-03-02T15:23:23.000Z</time>
      </trkpt>
      <trkpt lat="45.33333" lon="6.18791">
        <ele>2290.8000488281</ele>
        <time>2014-03-02T15:23:24.000Z</time>
      </trkpt>
      <trkpt lat="45.33333" lon="6.18791">
        <ele>2290.8000488281</ele>
        <time>2014-03-02T15:23:25.000Z</time>
      </trkpt>
      <trkpt lat="45.33333" lon="6.18791">
        <ele>2290.8000488281</ele>
        <time>2014-03-02T15:23:26.000Z</time>
      </trkpt>
      <trkpt lat="45.33333" lon="6.18791">
        <ele>2290.8000488281</ele>
        <time>2014-03-02T15:23:27.000Z</time>
      </trkpt>
      <trkpt lat="45.33333" lon="6.18791">
        <ele>2290.8000488281</ele>
        <time>2014-03-02T15:23:28.000Z</time>
      </trkpt>
      <trkpt lat="45.33333" lon="6.18791">
        <ele>2290.8000488281</ele>
        <time>2014-03-02T15:23:29.000Z</time>
      </trkpt>
      <trkpt lat="45.33333" lon="6.18791">
        <ele>2290.8000488281</ele>
        <time>2014-03-02T15:23:33.000Z</time>
      </trkpt>
      <trkpt lat="45.33333" lon="6.18791">
        <ele>2290.8000488281</ele>
        <time>2014-03-02T15:23:36.000Z</time>
      </trkpt>
      <trkpt lat="45.33333" lon="6.18791">
        <ele>2290.8000488281</ele>
        <time>2014-03-02T15:23:37.000Z</time>
      </trkpt>
      <trkpt lat="45.33333" lon="6.18791">
        <ele>2290.8000488281</ele>
        <time>2014-03-02T15:23:38.000Z</time>
      </trkpt>
      <trkpt lat="45.33333" lon="6.18791">
        <ele>2290.8000488281</ele>
        <time>2014-03-02T15:23:39.000Z</time>
      </trkpt>
      <trkpt lat="45.33333" lon="6.18791">
        <ele>2290.8000488281</ele>
        <time>2014-03-02T15:23:40.000Z</time>
      </trkpt>
      <trkpt lat="45.33333" lon="6.18791">
        <ele>2290.8000488281</ele>
        <time>2014-03-02T15:23:41.000Z</time>
      </trkpt>
      <trkpt lat="45.33333" lon="6.18791">
        <ele>2290.8000488281</ele>
        <time>2014-03-02T15:23:42.000Z</time>
      </trkpt>
      <trkpt lat="45.33333" lon="6.18791">
        <ele>2290.8000488281</ele>
        <time>2014-03-02T15:23:43.000Z</time>
      </trkpt>
      <trkpt lat="45.33333" lon="6.18791">
        <ele>2290.8000488281</ele>
        <time>2014-03-02T15:23:44.000Z</time>
      </trkpt>
      <trkpt lat="45.33333" lon="6.18791">
        <ele>2290.8000488281</ele>
        <time>2014-03-02T15:23:45.000Z</time>
      </trkpt>
      <trkpt lat="45.33333" lon="6.18791">
        <ele>2290.8000488281</ele>
        <time>2014-03-02T15:23:46.000Z</time>
      </trkpt>
      <trkpt lat="45.33333" lon="6.18791">
        <ele>2290.8000488281</ele>
        <time>2014-03-02T15:23:47.000Z</time>
      </trkpt>
      <trkpt lat="45.33333" lon="6.18791">
        <ele>2290.8000488281</ele>
        <time>2014-03-02T15:23:48.000Z</time>
      </trkpt>
      <trkpt lat="45.33333" lon="6.18791">
        <ele>2290.8000488281</ele>
        <time>2014-03-02T15:23:49.000Z</time>
      </trkpt>
      <trkpt lat="45.33333" lon="6.18791">
        <ele>2290.8000488281</ele>
        <time>2014-03-02T15:23:50.000Z</time>
      </trkpt>
      <trkpt lat="45.33333" lon="6.18791">
        <ele>2290.8000488281</ele>
        <time>2014-03-02T15:23:51.000Z</time>
      </trkpt>
      <trkpt lat="45.33333" lon="6.18791">
        <ele>2290.8000488281</ele>
        <time>2014-03-02T15:23:52.000Z</time>
      </trkpt>
      <trkpt lat="45.33333" lon="6.18791">
        <ele>2290.8000488281</ele>
        <time>2014-03-02T15:23:53.000Z</time>
      </trkpt>
      <trkpt lat="45.33333" lon="6.18791">
        <ele>2290.8000488281</ele>
        <time>2014-03-02T15:23:54.000Z</time>
      </trkpt>
      <trkpt lat="45.33333" lon="6.18791">
        <ele>2290.8000488281</ele>
        <time>2014-03-02T15:23:55.000Z</time>
      </trkpt>
      <trkpt lat="45.33333" lon="6.18791">
        <ele>2290.8000488281</ele>
        <time>2014-03-02T15:23:59.000Z</time>
      </trkpt>
      <trkpt lat="45.33333" lon="6.18791">
        <ele>2290.8000488281</ele>
        <time>2014-03-02T15:24:00.000Z</time>
      </trkpt>
      <trkpt lat="45.33333" lon="6.18792">
        <ele>2290.8000488281</ele>
        <time>2014-03-02T15:24:02.000Z</time>
      </trkpt>
      <trkpt lat="45.33333" lon="6.18792">
        <ele>2290.8000488281</ele>
        <time>2014-03-02T15:24:04.000Z</time>
      </trkpt>
      <trkpt lat="45.33333" lon="6.18792">
        <ele>2290.8000488281</ele>
        <time>2014-03-02T15:24:05.000Z</time>
      </trkpt>
      <trkpt lat="45.33333" lon="6.18792">
        <ele>2290.8000488281</ele>
        <time>2014-03-02T15:24:06.000Z</time>
      </trkpt>
      <trkpt lat="45.33333" lon="6.18792">
        <ele>2290.8000488281</ele>
        <time>2014-03-02T15:24:07.000Z</time>
      </trkpt>
      <trkpt lat="45.33333" lon="6.18792">
        <ele>2290.8000488281</ele>
        <time>2014-03-02T15:24:08.000Z</time>
      </trkpt>
      <trkpt lat="45.33333" lon="6.18792">
        <ele>2290.8000488281</ele>
        <time>2014-03-02T15:24:09.000Z</time>
      </trkpt>
      <trkpt lat="45.33333" lon="6.18792">
        <ele>2290.8000488281</ele>
        <time>2014-03-02T15:24:10.000Z</time>
      </trkpt>
      <trkpt lat="45.33333" lon="6.18792">
        <ele>2290.8000488281</ele>
        <time>2014-03-02T15:24:11.000Z</time>
      </trkpt>
      <trkpt lat="45.33333" lon="6.18792">
        <ele>2290.8000488281</ele>
        <time>2014-03-02T15:24:12.000Z</time>
      </trkpt>
      <trkpt lat="45.33333" lon="6.18792">
        <ele>2290.8000488281</ele>
        <time>2014-03-02T15:24:13.000Z</time>
      </trkpt>
      <trkpt lat="45.33333" lon="6.18792">
        <ele>2290.8000488281</ele>
        <time>2014-03-02T15:24:14.000Z</time>
      </trkpt>
      <trkpt lat="45.33333" lon="6.18792">
        <ele>2290.8000488281</ele>
        <time>2014-03-02T15:24:15.000Z</time>
      </trkpt>
      <trkpt lat="45.33333" lon="6.18792">
        <ele>2290.8000488281</ele>
        <time>2014-03-02T15:24:16.000Z</time>
      </trkpt>
      <trkpt lat="45.33333" lon="6.18792">
        <ele>2290.8000488281</ele>
        <time>2014-03-02T15:24:17.000Z</time>
      </trkpt>
      <trkpt lat="45.33333" lon="6.18792">
        <ele>2290.8000488281</ele>
        <time>2014-03-02T15:24:18.000Z</time>
      </trkpt>
      <trkpt lat="45.33333" lon="6.18792">
        <ele>2290.8000488281</ele>
        <time>2014-03-02T15:24:19.000Z</time>
      </trkpt>
      <trkpt lat="45.33333" lon="6.18792">
        <ele>2290.8000488281</ele>
        <time>2014-03-02T15:24:20.000Z</time>
      </trkpt>
      <trkpt lat="45.33333" lon="6.18792">
        <ele>2290.8000488281</ele>
        <time>2014-03-02T15:24:21.000Z</time>
      </trkpt>
      <trkpt lat="45.33333" lon="6.18792">
        <ele>2290.8000488281</ele>
        <time>2014-03-02T15:24:22.000Z</time>
      </trkpt>
      <trkpt lat="45.33333" lon="6.18792">
        <ele>2290.8000488281</ele>
        <time>2014-03-02T15:24:23.000Z</time>
      </trkpt>
      <trkpt lat="45.33333" lon="6.18792">
        <ele>2290.8000488281</ele>
        <time>2014-03-02T15:24:24.000Z</time>
      </trkpt>
      <trkpt lat="45.33333" lon="6.18792">
        <ele>2290.8000488281</ele>
        <time>2014-03-02T15:24:25.000Z</time>
      </trkpt>
      <trkpt lat="45.33332" lon="6.18792">
        <ele>2290.3999023438</ele>
        <time>2014-03-02T15:24:26.000Z</time>
      </trkpt>
      <trkpt lat="45.33328" lon="6.18791">
        <ele>2288.3999023438</ele>
        <time>2014-03-02T15:24:27.000Z</time>
      </trkpt>
      <trkpt lat="45.33324" lon="6.1879">
        <ele>2286</ele>
        <time>2014-03-02T15:24:28.000Z</time>
      </trkpt>
      <trkpt lat="45.33321" lon="6.18789">
        <ele>2284.1999511719</ele>
        <time>2014-03-02T15:24:29.000Z</time>
      </trkpt>
      <trkpt lat="45.33318" lon="6.18789">
        <ele>2283</ele>
        <time>2014-03-02T15:24:30.000Z</time>
      </trkpt>
      <trkpt lat="45.33317" lon="6.1879">
        <ele>2282.1999511719</ele>
        <time>2014-03-02T15:24:31.000Z</time>
      </trkpt>
      <trkpt lat="45.33315" lon="6.1879">
        <ele>2281.3999023438</ele>
        <time>2014-03-02T15:24:32.000Z</time>
      </trkpt>
      <trkpt lat="45.33314" lon="6.1879">
        <ele>2280.6000976562</ele>
        <time>2014-03-02T15:24:33.000Z</time>
      </trkpt>
      <trkpt lat="45.33312" lon="6.1879">
        <ele>2280</ele>
        <time>2014-03-02T15:24:34.000Z</time>
      </trkpt>
      <trkpt lat="45.33311" lon="6.1879">
        <ele>2279.1999511719</ele>
        <time>2014-03-02T15:24:35.000Z</time>
      </trkpt>
      <trkpt lat="45.33309" lon="6.1879">
        <ele>2278</ele>
        <time>2014-03-02T15:24:36.000Z</time>
      </trkpt>
      <trkpt lat="45.33306" lon="6.18791">
        <ele>2276.3999023438</ele>
        <time>2014-03-02T15:24:37.000Z</time>
      </trkpt>
      <trkpt lat="45.33302" lon="6.18792">
        <ele>2274.8000488281</ele>
        <time>2014-03-02T15:24:38.000Z</time>
      </trkpt>
      <trkpt lat="45.33298" lon="6.18793">
        <ele>2272.6000976562</ele>
        <time>2014-03-02T15:24:39.000Z</time>
      </trkpt>
      <trkpt lat="45.33295" lon="6.18794">
        <ele>2272.1999511719</ele>
        <time>2014-03-02T15:24:40.000Z</time>
      </trkpt>
      <trkpt lat="45.33291" lon="6.18795">
        <ele>2272.3999023438</ele>
        <time>2014-03-02T15:24:41.000Z</time>
      </trkpt>
      <trkpt lat="45.33287" lon="6.18795">
        <ele>2272.6000976562</ele>
        <time>2014-03-02T15:24:42.000Z</time>
      </trkpt>
      <trkpt lat="45.33285" lon="6.18796">
        <ele>2272.8000488281</ele>
        <time>2014-03-02T15:24:43.000Z</time>
      </trkpt>
      <trkpt lat="45.33283" lon="6.18796">
        <ele>2272.8000488281</ele>
        <time>2014-03-02T15:24:44.000Z</time>
      </trkpt>
      <trkpt lat="45.33281" lon="6.18798">
        <ele>2271.8000488281</ele>
        <time>2014-03-02T15:24:45.000Z</time>
      </trkpt>
      <trkpt lat="45.3328" lon="6.188">
        <ele>2270.6000976562</ele>
        <time>2014-03-02T15:24:46.000Z</time>
      </trkpt>
      <trkpt lat="45.33279" lon="6.18802">
        <ele>2269.6000976562</ele>
        <time>2014-03-02T15:24:47.000Z</time>
      </trkpt>
      <trkpt lat="45.33279" lon="6.18807">
        <ele>2267.1999511719</ele>
        <time>2014-03-02T15:24:48.000Z</time>
      </trkpt>
      <trkpt lat="45.33277" lon="6.18813">
        <ele>2264.6000976562</ele>
        <time>2014-03-02T15:24:49.000Z</time>
      </trkpt>
      <trkpt lat="45.33274" lon="6.18818">
        <ele>2262.3999023438</ele>
        <time>2014-03-02T15:24:50.000Z</time>
      </trkpt>
      <trkpt lat="45.3327" lon="6.18822">
        <ele>2260.1999511719</ele>
        <time>2014-03-02T15:24:51.000Z</time>
      </trkpt>
      <trkpt lat="45.33267" lon="6.18829">
        <ele>2258</ele>
        <time>2014-03-02T15:24:52.000Z</time>
      </trkpt>
      <trkpt lat="45.33264" lon="6.18835">
        <ele>2255.6000976562</ele>
        <time>2014-03-02T15:24:53.000Z</time>
      </trkpt>
      <trkpt lat="45.3326" lon="6.1884">
        <ele>2253.3999023438</ele>
        <time>2014-03-02T15:24:54.000Z</time>
      </trkpt>
      <trkpt lat="45.33259" lon="6.18845">
        <ele>2251.6000976562</ele>
        <time>2014-03-02T15:24:55.000Z</time>
      </trkpt>
      <trkpt lat="45.33259" lon="6.18851">
        <ele>2250.6000976562</ele>
        <time>2014-03-02T15:24:56.000Z</time>
      </trkpt>
      <trkpt lat="45.33259" lon="6.18857">
        <ele>2249.1999511719</ele>
        <time>2014-03-02T15:24:57.000Z</time>
      </trkpt>
      <trkpt lat="45.33257" lon="6.18861">
        <ele>2246.1999511719</ele>
        <time>2014-03-02T15:24:58.000Z</time>
      </trkpt>
      <trkpt lat="45.33256" lon="6.18866">
        <ele>2243.6000976562</ele>
        <time>2014-03-02T15:24:59.000Z</time>
      </trkpt>
      <trkpt lat="45.33255" lon="6.18872">
        <ele>2240.6000976562</ele>
        <time>2014-03-02T15:25:00.000Z</time>
      </trkpt>
      <trkpt lat="45.33256" lon="6.18878">
        <ele>2238</ele>
        <time>2014-03-02T15:25:01.000Z</time>
      </trkpt>
      <trkpt lat="45.33256" lon="6.18884">
        <ele>2235.6000976562</ele>
        <time>2014-03-02T15:25:02.000Z</time>
      </trkpt>
      <trkpt lat="45.33256" lon="6.18888">
        <ele>2233.6000976562</ele>
        <time>2014-03-02T15:25:03.000Z</time>
      </trkpt>
      <trkpt lat="45.33255" lon="6.18891">
        <ele>2231.6000976562</ele>
        <time>2014-03-02T15:25:04.000Z</time>
      </trkpt>
      <trkpt lat="45.33255" lon="6.18889">
        <ele>2232.3999023438</ele>
        <time>2014-03-02T15:25:05.000Z</time>
      </trkpt>
      <trkpt lat="45.33253" lon="6.18886">
        <ele>2233.1999511719</ele>
        <time>2014-03-02T15:25:06.000Z</time>
      </trkpt>
      <trkpt lat="45.3325" lon="6.18884">
        <ele>2231.8000488281</ele>
        <time>2014-03-02T15:25:07.000Z</time>
      </trkpt>
      <trkpt lat="45.33243" lon="6.18881">
        <ele>2229</ele>
        <time>2014-03-02T15:25:08.000Z</time>
      </trkpt>
      <trkpt lat="45.33236" lon="6.18879">
        <ele>2226.1999511719</ele>
        <time>2014-03-02T15:25:09.000Z</time>
      </trkpt>
      <trkpt lat="45.33231" lon="6.18878">
        <ele>2223.8000488281</ele>
        <time>2014-03-02T15:25:10.000Z</time>
      </trkpt>
      <trkpt lat="45.33227" lon="6.18877">
        <ele>2221.6000976562</ele>
        <time>2014-03-02T15:25:11.000Z</time>
      </trkpt>
      <trkpt lat="45.33224" lon="6.18877">
        <ele>2220</ele>
        <time>2014-03-02T15:25:12.000Z</time>
      </trkpt>
      <trkpt lat="45.33221" lon="6.18876">
        <ele>2218.3999023438</ele>
        <time>2014-03-02T15:25:13.000Z</time>
      </trkpt>
      <trkpt lat="45.33218" lon="6.18876">
        <ele>2217</ele>
        <time>2014-03-02T15:25:14.000Z</time>
      </trkpt>
      <trkpt lat="45.33214" lon="6.18875">
        <ele>2215</ele>
        <time>2014-03-02T15:25:15.000Z</time>
      </trkpt>
      <trkpt lat="45.3321" lon="6.18874">
        <ele>2214.6000976562</ele>
        <time>2014-03-02T15:25:16.000Z</time>
      </trkpt>
      <trkpt lat="45.33207" lon="6.18873">
        <ele>2214.3999023438</ele>
        <time>2014-03-02T15:25:17.000Z</time>
      </trkpt>
      <trkpt lat="45.33204" lon="6.18873">
        <ele>2214</ele>
        <time>2014-03-02T15:25:18.000Z</time>
      </trkpt>
      <trkpt lat="45.33202" lon="6.18873">
        <ele>2213.3999023438</ele>
        <time>2014-03-02T15:25:19.000Z</time>
      </trkpt>
      <trkpt lat="45.332" lon="6.18873">
        <ele>2213</ele>
        <time>2014-03-02T15:25:20.000Z</time>
      </trkpt>
      <trkpt lat="45.33198" lon="6.18874">
        <ele>2212.6000976562</ele>
        <time>2014-03-02T15:25:21.000Z</time>
      </trkpt>
      <trkpt lat="45.33196" lon="6.18874">
        <ele>2212</ele>
        <time>2014-03-02T15:25:22.000Z</time>
      </trkpt>
      <trkpt lat="45.33193" lon="6.18875">
        <ele>2211</ele>
        <time>2014-03-02T15:25:23.000Z</time>
      </trkpt>
      <trkpt lat="45.33191" lon="6.18876">
        <ele>2210.1999511719</ele>
        <time>2014-03-02T15:25:24.000Z</time>
      </trkpt>
      <trkpt lat="45.33189" lon="6.18876">
        <ele>2209.3999023438</ele>
        <time>2014-03-02T15:25:25.000Z</time>
      </trkpt>
      <trkpt lat="45.33186" lon="6.18878">
        <ele>2208.1999511719</ele>
        <time>2014-03-02T15:25:26.000Z</time>
      </trkpt>
      <trkpt lat="45.33185" lon="6.18881">
        <ele>2206.8000488281</ele>
        <time>2014-03-02T15:25:27.000Z</time>
      </trkpt>
      <trkpt lat="45.33184" lon="6.18884">
        <ele>2205.1999511719</ele>
        <time>2014-03-02T15:25:28.000Z</time>
      </trkpt>
      <trkpt lat="45.33181" lon="6.18887">
        <ele>2203</ele>
        <time>2014-03-02T15:25:29.000Z</time>
      </trkpt>
      <trkpt lat="45.3318" lon="6.18892">
        <ele>2200.3999023438</ele>
        <time>2014-03-02T15:25:30.000Z</time>
      </trkpt>
      <trkpt lat="45.33178" lon="6.18899">
        <ele>2197.8000488281</ele>
        <time>2014-03-02T15:25:31.000Z</time>
      </trkpt>
      <trkpt lat="45.33174" lon="6.18904">
        <ele>2195.3999023438</ele>
        <time>2014-03-02T15:25:32.000Z</time>
      </trkpt>
      <trkpt lat="45.33171" lon="6.18911">
        <ele>2193</ele>
        <time>2014-03-02T15:25:33.000Z</time>
      </trkpt>
      <trkpt lat="45.33169" lon="6.18918">
        <ele>2190.6000976562</ele>
        <time>2014-03-02T15:25:34.000Z</time>
      </trkpt>
      <trkpt lat="45.33166" lon="6.18926">
        <ele>2188</ele>
        <time>2014-03-02T15:25:35.000Z</time>
      </trkpt>
      <trkpt lat="45.33165" lon="6.18934">
        <ele>2185.1999511719</ele>
        <time>2014-03-02T15:25:36.000Z</time>
      </trkpt>
      <trkpt lat="45.33163" lon="6.18942">
        <ele>2181.8000488281</ele>
        <time>2014-03-02T15:25:37.000Z</time>
      </trkpt>
      <trkpt lat="45.33161" lon="6.18953">
        <ele>2177.3999023438</ele>
        <time>2014-03-02T15:25:38.000Z</time>
      </trkpt>
      <trkpt lat="45.33158" lon="6.18964">
        <ele>2172.8000488281</ele>
        <time>2014-03-02T15:25:39.000Z</time>
      </trkpt>
      <trkpt lat="45.33156" lon="6.18978">
        <ele>2167.1999511719</ele>
        <time>2014-03-02T15:25:40.000Z</time>
      </trkpt>
      <trkpt lat="45.33152" lon="6.18991">
        <ele>2164</ele>
        <time>2014-03-02T15:25:41.000Z</time>
      </trkpt>
      <trkpt lat="45.3315" lon="6.19004">
        <ele>2160</ele>
        <time>2014-03-02T15:25:42.000Z</time>
      </trkpt>
      <trkpt lat="45.33147" lon="6.19017">
        <ele>2155</ele>
        <time>2014-03-02T15:25:43.000Z</time>
      </trkpt>
      <trkpt lat="45.33143" lon="6.19028">
        <ele>2150</ele>
        <time>2014-03-02T15:25:44.000Z</time>
      </trkpt>
      <trkpt lat="45.3314" lon="6.19041">
        <ele>2144.8000488281</ele>
        <time>2014-03-02T15:25:45.000Z</time>
      </trkpt>
      <trkpt lat="45.33137" lon="6.19054">
        <ele>2139.6000976562</ele>
        <time>2014-03-02T15:25:46.000Z</time>
      </trkpt>
      <trkpt lat="45.33134" lon="6.19068">
        <ele>2135.6000976562</ele>
        <time>2014-03-02T15:25:47.000Z</time>
      </trkpt>
      <trkpt lat="45.33133" lon="6.19084">
        <ele>2133</ele>
        <time>2014-03-02T15:25:48.000Z</time>
      </trkpt>
      <trkpt lat="45.33136" lon="6.19103">
        <ele>2131.1999511719</ele>
        <time>2014-03-02T15:25:49.000Z</time>
      </trkpt>
      <trkpt lat="45.33138" lon="6.1912">
        <ele>2129.6000976562</ele>
        <time>2014-03-02T15:25:50.000Z</time>
      </trkpt>
      <trkpt lat="45.33139" lon="6.19135">
        <ele>2127.8000488281</ele>
        <time>2014-03-02T15:25:51.000Z</time>
      </trkpt>
      <trkpt lat="45.3314" lon="6.19145">
        <ele>2126.8000488281</ele>
        <time>2014-03-02T15:25:52.000Z</time>
      </trkpt>
      <trkpt lat="45.33141" lon="6.19149">
        <ele>2126.6000976562</ele>
        <time>2014-03-02T15:25:53.000Z</time>
      </trkpt>
      <trkpt lat="45.33141" lon="6.19155">
        <ele>2125.6000976562</ele>
        <time>2014-03-02T15:25:54.000Z</time>
      </trkpt>
      <trkpt lat="45.33138" lon="6.19158">
        <ele>2124.1999511719</ele>
        <time>2014-03-02T15:25:55.000Z</time>
      </trkpt>
      <trkpt lat="45.33136" lon="6.19161">
        <ele>2122.8000488281</ele>
        <time>2014-03-02T15:25:56.000Z</time>
      </trkpt>
      <trkpt lat="45.33133" lon="6.19165">
        <ele>2121.3999023438</ele>
        <time>2014-03-02T15:25:57.000Z</time>
      </trkpt>
      <trkpt lat="45.33132" lon="6.19165">
        <ele>2120.8000488281</ele>
        <time>2014-03-02T15:25:58.000Z</time>
      </trkpt>
      <trkpt lat="45.3313" lon="6.19166">
        <ele>2120.1999511719</ele>
        <time>2014-03-02T15:25:59.000Z</time>
      </trkpt>
      <trkpt lat="45.33129" lon="6.19165">
        <ele>2120.1999511719</ele>
        <time>2014-03-02T15:26:00.000Z</time>
      </trkpt>
      <trkpt lat="45.33129" lon="6.19164">
        <ele>2120.1999511719</ele>
        <time>2014-03-02T15:26:01.000Z</time>
      </trkpt>
      <trkpt lat="45.33131" lon="6.19159">
        <ele>2121.3999023438</ele>
        <time>2014-03-02T15:26:02.000Z</time>
      </trkpt>
      <trkpt lat="45.33134" lon="6.19154">
        <ele>2122.8000488281</ele>
        <time>2014-03-02T15:26:03.000Z</time>
      </trkpt>
      <trkpt lat="45.33135" lon="6.1915">
        <ele>2124.1999511719</ele>
        <time>2014-03-02T15:26:04.000Z</time>
      </trkpt>
      <trkpt lat="45.33135" lon="6.1915">
        <ele>2124.1999511719</ele>
        <time>2014-03-02T15:26:05.000Z</time>
      </trkpt>
      <trkpt lat="45.33135" lon="6.1915">
        <ele>2124.1999511719</ele>
        <time>2014-03-02T15:26:06.000Z</time>
      </trkpt>
      <trkpt lat="45.33135" lon="6.1915">
        <ele>2124.1999511719</ele>
        <time>2014-03-02T15:26:07.000Z</time>
      </trkpt>
      <trkpt lat="45.33135" lon="6.1915">
        <ele>2124.1999511719</ele>
        <time>2014-03-02T15:26:08.000Z</time>
      </trkpt>
      <trkpt lat="45.33135" lon="6.1915">
        <ele>2124.1999511719</ele>
        <time>2014-03-02T15:26:09.000Z</time>
      </trkpt>
      <trkpt lat="45.33135" lon="6.1915">
        <ele>2124.1999511719</ele>
        <time>2014-03-02T15:26:12.000Z</time>
      </trkpt>
      <trkpt lat="45.33135" lon="6.1915">
        <ele>2124.1999511719</ele>
        <time>2014-03-02T15:26:13.000Z</time>
      </trkpt>
      <trkpt lat="45.33135" lon="6.1915">
        <ele>2124.1999511719</ele>
        <time>2014-03-02T15:26:14.000Z</time>
      </trkpt>
      <trkpt lat="45.33135" lon="6.1915">
        <ele>2124.1999511719</ele>
        <time>2014-03-02T15:26:15.000Z</time>
      </trkpt>
      <trkpt lat="45.33135" lon="6.1915">
        <ele>2124.1999511719</ele>
        <time>2014-03-02T15:26:17.000Z</time>
      </trkpt>
      <trkpt lat="45.33135" lon="6.1915">
        <ele>2124.1999511719</ele>
        <time>2014-03-02T15:26:18.000Z</time>
      </trkpt>
      <trkpt lat="45.33135" lon="6.1915">
        <ele>2124.1999511719</ele>
        <time>2014-03-02T15:26:23.000Z</time>
      </trkpt>
      <trkpt lat="45.33135" lon="6.1915">
        <ele>2124.1999511719</ele>
        <time>2014-03-02T15:26:24.000Z</time>
      </trkpt>
      <trkpt lat="45.33135" lon="6.1915">
        <ele>2124.1999511719</ele>
        <time>2014-03-02T15:26:25.000Z</time>
      </trkpt>
      <trkpt lat="45.33135" lon="6.1915">
        <ele>2124.1999511719</ele>
        <time>2014-03-02T15:26:26.000Z</time>
      </trkpt>
      <trkpt lat="45.33135" lon="6.1915">
        <ele>2124.1999511719</ele>
        <time>2014-03-02T15:26:27.000Z</time>
      </trkpt>
      <trkpt lat="45.33135" lon="6.1915">
        <ele>2124.1999511719</ele>
        <time>2014-03-02T15:26:30.000Z</time>
      </trkpt>
      <trkpt lat="45.33135" lon="6.1915">
        <ele>2124.1999511719</ele>
        <time>2014-03-02T15:26:31.000Z</time>
      </trkpt>
      <trkpt lat="45.33135" lon="6.1915">
        <ele>2124.1999511719</ele>
        <time>2014-03-02T15:26:32.000Z</time>
      </trkpt>
      <trkpt lat="45.33135" lon="6.1915">
        <ele>2124.1999511719</ele>
        <time>2014-03-02T15:26:33.000Z</time>
      </trkpt>
      <trkpt lat="45.33135" lon="6.1915">
        <ele>2124.1999511719</ele>
        <time>2014-03-02T15:26:34.000Z</time>
      </trkpt>
      <trkpt lat="45.33135" lon="6.1915">
        <ele>2124.1999511719</ele>
        <time>2014-03-02T15:26:35.000Z</time>
      </trkpt>
      <trkpt lat="45.33135" lon="6.1915">
        <ele>2124.1999511719</ele>
        <time>2014-03-02T15:26:36.000Z</time>
      </trkpt>
      <trkpt lat="45.33135" lon="6.1915">
        <ele>2124.1999511719</ele>
        <time>2014-03-02T15:26:37.000Z</time>
      </trkpt>
      <trkpt lat="45.33135" lon="6.1915">
        <ele>2124.1999511719</ele>
        <time>2014-03-02T15:26:38.000Z</time>
      </trkpt>
      <trkpt lat="45.33135" lon="6.1915">
        <ele>2124.1999511719</ele>
        <time>2014-03-02T15:26:39.000Z</time>
      </trkpt>
      <trkpt lat="45.33135" lon="6.1915">
        <ele>2124.1999511719</ele>
        <time>2014-03-02T15:26:40.000Z</time>
      </trkpt>
      <trkpt lat="45.33135" lon="6.1915">
        <ele>2124.1999511719</ele>
        <time>2014-03-02T15:26:42.000Z</time>
      </trkpt>
      <trkpt lat="45.33135" lon="6.1915">
        <ele>2124.1999511719</ele>
        <time>2014-03-02T15:26:43.000Z</time>
      </trkpt>
      <trkpt lat="45.33137" lon="6.19147">
        <ele>2125.1999511719</ele>
        <time>2014-03-02T15:26:44.000Z</time>
      </trkpt>
      <trkpt lat="45.33137" lon="6.19147">
        <ele>2125.1999511719</ele>
        <time>2014-03-02T15:26:45.000Z</time>
      </trkpt>
      <trkpt lat="45.33137" lon="6.19147">
        <ele>2125.1999511719</ele>
        <time>2014-03-02T15:26:46.000Z</time>
      </trkpt>
      <trkpt lat="45.33137" lon="6.19147">
        <ele>2125.1999511719</ele>
        <time>2014-03-02T15:26:47.000Z</time>
      </trkpt>
      <trkpt lat="45.33137" lon="6.19147">
        <ele>2125.1999511719</ele>
        <time>2014-03-02T15:26:48.000Z</time>
      </trkpt>
      <trkpt lat="45.33137" lon="6.19147">
        <ele>2125.1999511719</ele>
        <time>2014-03-02T15:26:49.000Z</time>
      </trkpt>
      <trkpt lat="45.33137" lon="6.19147">
        <ele>2125.1999511719</ele>
        <time>2014-03-02T15:26:52.000Z</time>
      </trkpt>
      <trkpt lat="45.33137" lon="6.19147">
        <ele>2125.1999511719</ele>
        <time>2014-03-02T15:27:00.000Z</time>
      </trkpt>
      <trkpt lat="45.33137" lon="6.19147">
        <ele>2125.1999511719</ele>
        <time>2014-03-02T15:27:01.000Z</time>
      </trkpt>
      <trkpt lat="45.33137" lon="6.19147">
        <ele>2125.1999511719</ele>
        <time>2014-03-02T15:27:02.000Z</time>
      </trkpt>
      <trkpt lat="45.33137" lon="6.19147">
        <ele>2125.1999511719</ele>
        <time>2014-03-02T15:27:03.000Z</time>
      </trkpt>
      <trkpt lat="45.33137" lon="6.19147">
        <ele>2125.1999511719</ele>
        <time>2014-03-02T15:27:04.000Z</time>
      </trkpt>
      <trkpt lat="45.33137" lon="6.19147">
        <ele>2125.1999511719</ele>
        <time>2014-03-02T15:27:05.000Z</time>
      </trkpt>
      <trkpt lat="45.33137" lon="6.19147">
        <ele>2125.1999511719</ele>
        <time>2014-03-02T15:27:06.000Z</time>
      </trkpt>
      <trkpt lat="45.33137" lon="6.19147">
        <ele>2125.1999511719</ele>
        <time>2014-03-02T15:27:10.000Z</time>
      </trkpt>
      <trkpt lat="45.33137" lon="6.19147">
        <ele>2125.1999511719</ele>
        <time>2014-03-02T15:27:11.000Z</time>
      </trkpt>
      <trkpt lat="45.33137" lon="6.19147">
        <ele>2125.1999511719</ele>
        <time>2014-03-02T15:27:12.000Z</time>
      </trkpt>
      <trkpt lat="45.33137" lon="6.19147">
        <ele>2125.1999511719</ele>
        <time>2014-03-02T15:27:15.000Z</time>
      </trkpt>
      <trkpt lat="45.33137" lon="6.19147">
        <ele>2125.1999511719</ele>
        <time>2014-03-02T15:27:16.000Z</time>
      </trkpt>
      <trkpt lat="45.33137" lon="6.19147">
        <ele>2125.1999511719</ele>
        <time>2014-03-02T15:27:17.000Z</time>
      </trkpt>
      <trkpt lat="45.33137" lon="6.19147">
        <ele>2125.1999511719</ele>
        <time>2014-03-02T15:27:18.000Z</time>
      </trkpt>
      <trkpt lat="45.33137" lon="6.19147">
        <ele>2125.1999511719</ele>
        <time>2014-03-02T15:27:19.000Z</time>
      </trkpt>
      <trkpt lat="45.33137" lon="6.19147">
        <ele>2125.1999511719</ele>
        <time>2014-03-02T15:27:20.000Z</time>
      </trkpt>
      <trkpt lat="45.33137" lon="6.19147">
        <ele>2125.1999511719</ele>
        <time>2014-03-02T15:27:21.000Z</time>
      </trkpt>
      <trkpt lat="45.33139" lon="6.19143">
        <ele>2126.8000488281</ele>
        <time>2014-03-02T15:27:24.000Z</time>
      </trkpt>
      <trkpt lat="45.33139" lon="6.19143">
        <ele>2126.8000488281</ele>
        <time>2014-03-02T15:27:25.000Z</time>
      </trkpt>
      <trkpt lat="45.33139" lon="6.19143">
        <ele>2126.8000488281</ele>
        <time>2014-03-02T15:27:29.000Z</time>
      </trkpt>
      <trkpt lat="45.33139" lon="6.19143">
        <ele>2126.8000488281</ele>
        <time>2014-03-02T15:27:34.000Z</time>
      </trkpt>
      <trkpt lat="45.33139" lon="6.19143">
        <ele>2126.8000488281</ele>
        <time>2014-03-02T15:27:35.000Z</time>
      </trkpt>
      <trkpt lat="45.33139" lon="6.19143">
        <ele>2126.8000488281</ele>
        <time>2014-03-02T15:27:36.000Z</time>
      </trkpt>
      <trkpt lat="45.33139" lon="6.19143">
        <ele>2126.8000488281</ele>
        <time>2014-03-02T15:27:38.000Z</time>
      </trkpt>
      <trkpt lat="45.33139" lon="6.19143">
        <ele>2126.8000488281</ele>
        <time>2014-03-02T15:27:39.000Z</time>
      </trkpt>
      <trkpt lat="45.33139" lon="6.19143">
        <ele>2126.8000488281</ele>
        <time>2014-03-02T15:27:40.000Z</time>
      </trkpt>
      <trkpt lat="45.33139" lon="6.19143">
        <ele>2126.8000488281</ele>
        <time>2014-03-02T15:27:41.000Z</time>
      </trkpt>
      <trkpt lat="45.33139" lon="6.19143">
        <ele>2126.8000488281</ele>
        <time>2014-03-02T15:27:42.000Z</time>
      </trkpt>
      <trkpt lat="45.33139" lon="6.19143">
        <ele>2126.8000488281</ele>
        <time>2014-03-02T15:27:43.000Z</time>
      </trkpt>
      <trkpt lat="45.3314" lon="6.1914">
        <ele>2127.8000488281</ele>
        <time>2014-03-02T15:27:44.000Z</time>
      </trkpt>
      <trkpt lat="45.3314" lon="6.19139">
        <ele>2128</ele>
        <time>2014-03-02T15:27:45.000Z</time>
      </trkpt>
      <trkpt lat="45.33138" lon="6.1914">
        <ele>2126.8000488281</ele>
        <time>2014-03-02T15:27:47.000Z</time>
      </trkpt>
      <trkpt lat="45.33135" lon="6.19142">
        <ele>2125</ele>
        <time>2014-03-02T15:27:48.000Z</time>
      </trkpt>
      <trkpt lat="45.3313" lon="6.19147">
        <ele>2122.6000976562</ele>
        <time>2014-03-02T15:27:49.000Z</time>
      </trkpt>
      <trkpt lat="45.33124" lon="6.19153">
        <ele>2121.1999511719</ele>
        <time>2014-03-02T15:27:50.000Z</time>
      </trkpt>
      <trkpt lat="45.33116" lon="6.19162">
        <ele>2119.1999511719</ele>
        <time>2014-03-02T15:27:51.000Z</time>
      </trkpt>
      <trkpt lat="45.33109" lon="6.19172">
        <ele>2117</ele>
        <time>2014-03-02T15:27:52.000Z</time>
      </trkpt>
      <trkpt lat="45.33103" lon="6.19183">
        <ele>2115</ele>
        <time>2014-03-02T15:27:53.000Z</time>
      </trkpt>
      <trkpt lat="45.33097" lon="6.19193">
        <ele>2113</ele>
        <time>2014-03-02T15:27:54.000Z</time>
      </trkpt>
      <trkpt lat="45.33092" lon="6.19201">
        <ele>2111.6000976562</ele>
        <time>2014-03-02T15:27:55.000Z</time>
      </trkpt>
      <trkpt lat="45.33087" lon="6.1921">
        <ele>2110.3999023438</ele>
        <time>2014-03-02T15:27:56.000Z</time>
      </trkpt>
      <trkpt lat="45.33084" lon="6.19219">
        <ele>2109.1999511719</ele>
        <time>2014-03-02T15:27:57.000Z</time>
      </trkpt>
      <trkpt lat="45.33082" lon="6.19227">
        <ele>2108</ele>
        <time>2014-03-02T15:27:58.000Z</time>
      </trkpt>
      <trkpt lat="45.33081" lon="6.19236">
        <ele>2106.3999023438</ele>
        <time>2014-03-02T15:27:59.000Z</time>
      </trkpt>
      <trkpt lat="45.33079" lon="6.19245">
        <ele>2104.6000976562</ele>
        <time>2014-03-02T15:28:00.000Z</time>
      </trkpt>
      <trkpt lat="45.33075" lon="6.19255">
        <ele>2102.3999023438</ele>
        <time>2014-03-02T15:28:01.000Z</time>
      </trkpt>
      <trkpt lat="45.33071" lon="6.19266">
        <ele>2101</ele>
        <time>2014-03-02T15:28:02.000Z</time>
      </trkpt>
      <trkpt lat="45.33068" lon="6.19274">
        <ele>2100</ele>
        <time>2014-03-02T15:28:03.000Z</time>
      </trkpt>
      <trkpt lat="45.33064" lon="6.19281">
        <ele>2099</ele>
        <time>2014-03-02T15:28:04.000Z</time>
      </trkpt>
      <trkpt lat="45.3306" lon="6.19286">
        <ele>2098.3999023438</ele>
        <time>2014-03-02T15:28:05.000Z</time>
      </trkpt>
      <trkpt lat="45.33059" lon="6.19288">
        <ele>2098</ele>
        <time>2014-03-02T15:28:06.000Z</time>
      </trkpt>
      <trkpt lat="45.33057" lon="6.19292">
        <ele>2097.6000976562</ele>
        <time>2014-03-02T15:28:07.000Z</time>
      </trkpt>
      <trkpt lat="45.33058" lon="6.19291">
        <ele>2097.8000488281</ele>
        <time>2014-03-02T15:28:08.000Z</time>
      </trkpt>
      <trkpt lat="45.33059" lon="6.1929">
        <ele>2098</ele>
        <time>2014-03-02T15:28:09.000Z</time>
      </trkpt>
      <trkpt lat="45.33059" lon="6.1929">
        <ele>2098</ele>
        <time>2014-03-02T15:28:10.000Z</time>
      </trkpt>
      <trkpt lat="45.33059" lon="6.1929">
        <ele>2098</ele>
        <time>2014-03-02T15:28:11.000Z</time>
      </trkpt>
      <trkpt lat="45.33059" lon="6.19291">
        <ele>2097.8000488281</ele>
        <time>2014-03-02T15:28:12.000Z</time>
      </trkpt>
      <trkpt lat="45.33059" lon="6.19292">
        <ele>2097.6000976562</ele>
        <time>2014-03-02T15:28:13.000Z</time>
      </trkpt>
      <trkpt lat="45.33059" lon="6.19292">
        <ele>2097.6000976562</ele>
        <time>2014-03-02T15:28:14.000Z</time>
      </trkpt>
      <trkpt lat="45.33058" lon="6.19294">
        <ele>2097.3999023438</ele>
        <time>2014-03-02T15:28:15.000Z</time>
      </trkpt>
      <trkpt lat="45.33058" lon="6.19296">
        <ele>2097.1999511719</ele>
        <time>2014-03-02T15:28:16.000Z</time>
      </trkpt>
      <trkpt lat="45.33057" lon="6.19299">
        <ele>2096.8000488281</ele>
        <time>2014-03-02T15:28:17.000Z</time>
      </trkpt>
      <trkpt lat="45.33057" lon="6.19305">
        <ele>2096</ele>
        <time>2014-03-02T15:28:18.000Z</time>
      </trkpt>
      <trkpt lat="45.33056" lon="6.19311">
        <ele>2095.1999511719</ele>
        <time>2014-03-02T15:28:19.000Z</time>
      </trkpt>
      <trkpt lat="45.33054" lon="6.19318">
        <ele>2095.1999511719</ele>
        <time>2014-03-02T15:28:20.000Z</time>
      </trkpt>
      <trkpt lat="45.33053" lon="6.19324">
        <ele>2094</ele>
        <time>2014-03-02T15:28:21.000Z</time>
      </trkpt>
      <trkpt lat="45.3305" lon="6.1933">
        <ele>2092.3999023438</ele>
        <time>2014-03-02T15:28:22.000Z</time>
      </trkpt>
      <trkpt lat="45.33046" lon="6.19334">
        <ele>2091.1999511719</ele>
        <time>2014-03-02T15:28:23.000Z</time>
      </trkpt>
      <trkpt lat="45.33041" lon="6.19337">
        <ele>2090.3999023438</ele>
        <time>2014-03-02T15:28:24.000Z</time>
      </trkpt>
      <trkpt lat="45.33036" lon="6.19341">
        <ele>2089.8000488281</ele>
        <time>2014-03-02T15:28:25.000Z</time>
      </trkpt>
      <trkpt lat="45.33032" lon="6.19344">
        <ele>2089</ele>
        <time>2014-03-02T15:28:26.000Z</time>
      </trkpt>
      <trkpt lat="45.33028" lon="6.19346">
        <ele>2088.6000976562</ele>
        <time>2014-03-02T15:28:27.000Z</time>
      </trkpt>
      <trkpt lat="45.33025" lon="6.19348">
        <ele>2088</ele>
        <time>2014-03-02T15:28:28.000Z</time>
      </trkpt>
      <trkpt lat="45.33022" lon="6.1935">
        <ele>2087.6000976562</ele>
        <time>2014-03-02T15:28:29.000Z</time>
      </trkpt>
      <trkpt lat="45.3302" lon="6.19351">
        <ele>2087.3999023438</ele>
        <time>2014-03-02T15:28:30.000Z</time>
      </trkpt>
      <trkpt lat="45.33018" lon="6.19352">
        <ele>2087</ele>
        <time>2014-03-02T15:28:31.000Z</time>
      </trkpt>
      <trkpt lat="45.33016" lon="6.19354">
        <ele>2086.8000488281</ele>
        <time>2014-03-02T15:28:32.000Z</time>
      </trkpt>
      <trkpt lat="45.33014" lon="6.19357">
        <ele>2086.1999511719</ele>
        <time>2014-03-02T15:28:33.000Z</time>
      </trkpt>
      <trkpt lat="45.33013" lon="6.19359">
        <ele>2085.8000488281</ele>
        <time>2014-03-02T15:28:34.000Z</time>
      </trkpt>
      <trkpt lat="45.33013" lon="6.19362">
        <ele>2085.1999511719</ele>
        <time>2014-03-02T15:28:35.000Z</time>
      </trkpt>
      <trkpt lat="45.33013" lon="6.19367">
        <ele>2083.8000488281</ele>
        <time>2014-03-02T15:28:37.000Z</time>
      </trkpt>
      <trkpt lat="45.33013" lon="6.19369">
        <ele>2083.1999511719</ele>
        <time>2014-03-02T15:28:38.000Z</time>
      </trkpt>
      <trkpt lat="45.33013" lon="6.19371">
        <ele>2082.6000976562</ele>
        <time>2014-03-02T15:28:39.000Z</time>
      </trkpt>
      <trkpt lat="45.33014" lon="6.19373">
        <ele>2082.1999511719</ele>
        <time>2014-03-02T15:28:40.000Z</time>
      </trkpt>
      <trkpt lat="45.33014" lon="6.19375">
        <ele>2081.6000976562</ele>
        <time>2014-03-02T15:28:41.000Z</time>
      </trkpt>
      <trkpt lat="45.33014" lon="6.19377">
        <ele>2081.1999511719</ele>
        <time>2014-03-02T15:28:42.000Z</time>
      </trkpt>
      <trkpt lat="45.33014" lon="6.19379">
        <ele>2080.3999023438</ele>
        <time>2014-03-02T15:28:43.000Z</time>
      </trkpt>
      <trkpt lat="45.33014" lon="6.19382">
        <ele>2079.6000976562</ele>
        <time>2014-03-02T15:28:44.000Z</time>
      </trkpt>
      <trkpt lat="45.33014" lon="6.19385">
        <ele>2078.6000976562</ele>
        <time>2014-03-02T15:28:45.000Z</time>
      </trkpt>
      <trkpt lat="45.33013" lon="6.19389">
        <ele>2077.6000976562</ele>
        <time>2014-03-02T15:28:46.000Z</time>
      </trkpt>
      <trkpt lat="45.33013" lon="6.19392">
        <ele>2076.3999023438</ele>
        <time>2014-03-02T15:28:47.000Z</time>
      </trkpt>
      <trkpt lat="45.33012" lon="6.19395">
        <ele>2075.3999023438</ele>
        <time>2014-03-02T15:28:48.000Z</time>
      </trkpt>
      <trkpt lat="45.33011" lon="6.19397">
        <ele>2075</ele>
        <time>2014-03-02T15:28:49.000Z</time>
      </trkpt>
      <trkpt lat="45.33009" lon="6.19399">
        <ele>2074.3999023438</ele>
        <time>2014-03-02T15:28:50.000Z</time>
      </trkpt>
      <trkpt lat="45.33008" lon="6.194">
        <ele>2074</ele>
        <time>2014-03-02T15:28:51.000Z</time>
      </trkpt>
      <trkpt lat="45.33007" lon="6.19402">
        <ele>2073.6000976562</ele>
        <time>2014-03-02T15:28:52.000Z</time>
      </trkpt>
      <trkpt lat="45.33006" lon="6.19403">
        <ele>2073.1999511719</ele>
        <time>2014-03-02T15:28:53.000Z</time>
      </trkpt>
      <trkpt lat="45.33007" lon="6.19402">
        <ele>2073.6000976562</ele>
        <time>2014-03-02T15:28:54.000Z</time>
      </trkpt>
      <trkpt lat="45.33007" lon="6.19402">
        <ele>2073.6000976562</ele>
        <time>2014-03-02T15:28:55.000Z</time>
      </trkpt>
      <trkpt lat="45.33007" lon="6.19402">
        <ele>2073.6000976562</ele>
        <time>2014-03-02T15:28:56.000Z</time>
      </trkpt>
      <trkpt lat="45.33007" lon="6.19402">
        <ele>2073.6000976562</ele>
        <time>2014-03-02T15:28:57.000Z</time>
      </trkpt>
      <trkpt lat="45.33007" lon="6.19402">
        <ele>2073.6000976562</ele>
        <time>2014-03-02T15:28:58.000Z</time>
      </trkpt>
      <trkpt lat="45.33007" lon="6.19402">
        <ele>2073.6000976562</ele>
        <time>2014-03-02T15:28:59.000Z</time>
      </trkpt>
      <trkpt lat="45.33007" lon="6.19402">
        <ele>2073.6000976562</ele>
        <time>2014-03-02T15:29:02.000Z</time>
      </trkpt>
      <trkpt lat="45.33007" lon="6.19402">
        <ele>2073.6000976562</ele>
        <time>2014-03-02T15:29:06.000Z</time>
      </trkpt>
      <trkpt lat="45.33007" lon="6.19402">
        <ele>2073.6000976562</ele>
        <time>2014-03-02T15:29:07.000Z</time>
      </trkpt>
      <trkpt lat="45.33007" lon="6.19402">
        <ele>2073.6000976562</ele>
        <time>2014-03-02T15:29:08.000Z</time>
      </trkpt>
      <trkpt lat="45.33007" lon="6.19402">
        <ele>2073.6000976562</ele>
        <time>2014-03-02T15:29:09.000Z</time>
      </trkpt>
      <trkpt lat="45.33007" lon="6.19402">
        <ele>2073.6000976562</ele>
        <time>2014-03-02T15:29:10.000Z</time>
      </trkpt>
      <trkpt lat="45.33007" lon="6.19402">
        <ele>2073.6000976562</ele>
        <time>2014-03-02T15:29:11.000Z</time>
      </trkpt>
      <trkpt lat="45.33007" lon="6.19402">
        <ele>2073.6000976562</ele>
        <time>2014-03-02T15:29:12.000Z</time>
      </trkpt>
      <trkpt lat="45.33007" lon="6.19402">
        <ele>2073.6000976562</ele>
        <time>2014-03-02T15:29:15.000Z</time>
      </trkpt>
      <trkpt lat="45.33007" lon="6.19402">
        <ele>2073.6000976562</ele>
        <time>2014-03-02T15:29:17.000Z</time>
      </trkpt>
      <trkpt lat="45.33007" lon="6.19402">
        <ele>2073.6000976562</ele>
        <time>2014-03-02T15:29:18.000Z</time>
      </trkpt>
      <trkpt lat="45.33007" lon="6.19402">
        <ele>2073.6000976562</ele>
        <time>2014-03-02T15:29:19.000Z</time>
      </trkpt>
      <trkpt lat="45.33007" lon="6.19402">
        <ele>2073.6000976562</ele>
        <time>2014-03-02T15:29:20.000Z</time>
      </trkpt>
      <trkpt lat="45.33007" lon="6.19402">
        <ele>2073.6000976562</ele>
        <time>2014-03-02T15:29:23.000Z</time>
      </trkpt>
      <trkpt lat="45.33008" lon="6.19401">
        <ele>2074</ele>
        <time>2014-03-02T15:29:24.000Z</time>
      </trkpt>
      <trkpt lat="45.33008" lon="6.194">
        <ele>2074</ele>
        <time>2014-03-02T15:29:25.000Z</time>
      </trkpt>
      <trkpt lat="45.33008" lon="6.19402">
        <ele>2073.8000488281</ele>
        <time>2014-03-02T15:29:26.000Z</time>
      </trkpt>
      <trkpt lat="45.33007" lon="6.19405">
        <ele>2073.1999511719</ele>
        <time>2014-03-02T15:29:27.000Z</time>
      </trkpt>
      <trkpt lat="45.33006" lon="6.19409">
        <ele>2072</ele>
        <time>2014-03-02T15:29:28.000Z</time>
      </trkpt>
      <trkpt lat="45.33006" lon="6.19416">
        <ele>2071</ele>
        <time>2014-03-02T15:29:29.000Z</time>
      </trkpt>
      <trkpt lat="45.33008" lon="6.19423">
        <ele>2070.1999511719</ele>
        <time>2014-03-02T15:29:30.000Z</time>
      </trkpt>
      <trkpt lat="45.33011" lon="6.19428">
        <ele>2069.8000488281</ele>
        <time>2014-03-02T15:29:31.000Z</time>
      </trkpt>
      <trkpt lat="45.33015" lon="6.19433">
        <ele>2069.6000976562</ele>
        <time>2014-03-02T15:29:32.000Z</time>
      </trkpt>
      <trkpt lat="45.33018" lon="6.19439">
        <ele>2069</ele>
        <time>2014-03-02T15:29:33.000Z</time>
      </trkpt>
      <trkpt lat="45.33019" lon="6.19447">
        <ele>2068</ele>
        <time>2014-03-02T15:29:34.000Z</time>
      </trkpt>
      <trkpt lat="45.33019" lon="6.19454">
        <ele>2066.1999511719</ele>
        <time>2014-03-02T15:29:35.000Z</time>
      </trkpt>
      <trkpt lat="45.33018" lon="6.19463">
        <ele>2064</ele>
        <time>2014-03-02T15:29:36.000Z</time>
      </trkpt>
      <trkpt lat="45.33018" lon="6.19473">
        <ele>2061.1999511719</ele>
        <time>2014-03-02T15:29:37.000Z</time>
      </trkpt>
      <trkpt lat="45.33015" lon="6.19483">
        <ele>2059</ele>
        <time>2014-03-02T15:29:38.000Z</time>
      </trkpt>
      <trkpt lat="45.3301" lon="6.19492">
        <ele>2057.3999023438</ele>
        <time>2014-03-02T15:29:39.000Z</time>
      </trkpt>
      <trkpt lat="45.33003" lon="6.195">
        <ele>2055.3999023438</ele>
        <time>2014-03-02T15:29:40.000Z</time>
      </trkpt>
      <trkpt lat="45.32998" lon="6.1951">
        <ele>2053.6000976562</ele>
        <time>2014-03-02T15:29:41.000Z</time>
      </trkpt>
      <trkpt lat="45.32991" lon="6.19517">
        <ele>2050</ele>
        <time>2014-03-02T15:29:42.000Z</time>
      </trkpt>
      <trkpt lat="45.32985" lon="6.19523">
        <ele>2046.4000244141</ele>
        <time>2014-03-02T15:29:43.000Z</time>
      </trkpt>
      <trkpt lat="45.32979" lon="6.19526">
        <ele>2043.4000244141</ele>
        <time>2014-03-02T15:29:44.000Z</time>
      </trkpt>
      <trkpt lat="45.32974" lon="6.1953">
        <ele>2041</ele>
        <time>2014-03-02T15:29:45.000Z</time>
      </trkpt>
      <trkpt lat="45.32971" lon="6.19533">
        <ele>2039.1999511719</ele>
        <time>2014-03-02T15:29:46.000Z</time>
      </trkpt>
      <trkpt lat="45.32968" lon="6.19536">
        <ele>2037.5999755859</ele>
        <time>2014-03-02T15:29:47.000Z</time>
      </trkpt>
      <trkpt lat="45.32967" lon="6.19536">
        <ele>2037</ele>
        <time>2014-03-02T15:29:48.000Z</time>
      </trkpt>
      <trkpt lat="45.32967" lon="6.19535">
        <ele>2037.1999511719</ele>
        <time>2014-03-02T15:29:49.000Z</time>
      </trkpt>
      <trkpt lat="45.32967" lon="6.19535">
        <ele>2037.1999511719</ele>
        <time>2014-03-02T15:29:50.000Z</time>
      </trkpt>
      <trkpt lat="45.32967" lon="6.19535">
        <ele>2037.1999511719</ele>
        <time>2014-03-02T15:29:51.000Z</time>
      </trkpt>
      <trkpt lat="45.32967" lon="6.19533">
        <ele>2038</ele>
        <time>2014-03-02T15:29:52.000Z</time>
      </trkpt>
      <trkpt lat="45.32968" lon="6.19531">
        <ele>2038.8000488281</ele>
        <time>2014-03-02T15:29:53.000Z</time>
      </trkpt>
      <trkpt lat="45.32969" lon="6.19528">
        <ele>2039.4000244141</ele>
        <time>2014-03-02T15:29:54.000Z</time>
      </trkpt>
      <trkpt lat="45.3297" lon="6.19527">
        <ele>2040</ele>
        <time>2014-03-02T15:29:55.000Z</time>
      </trkpt>
      <trkpt lat="45.3297" lon="6.19527">
        <ele>2040</ele>
        <time>2014-03-02T15:29:56.000Z</time>
      </trkpt>
      <trkpt lat="45.32971" lon="6.19525">
        <ele>2040.5999755859</ele>
        <time>2014-03-02T15:29:57.000Z</time>
      </trkpt>
      <trkpt lat="45.32971" lon="6.19524">
        <ele>2041</ele>
        <time>2014-03-02T15:29:58.000Z</time>
      </trkpt>
      <trkpt lat="45.32972" lon="6.19523">
        <ele>2041.4000244141</ele>
        <time>2014-03-02T15:29:59.000Z</time>
      </trkpt>
      <trkpt lat="45.32972" lon="6.19522">
        <ele>2041.8000488281</ele>
        <time>2014-03-02T15:30:00.000Z</time>
      </trkpt>
      <trkpt lat="45.32973" lon="6.1952">
        <ele>2042.1999511719</ele>
        <time>2014-03-02T15:30:01.000Z</time>
      </trkpt>
      <trkpt lat="45.32973" lon="6.1952">
        <ele>2042.1999511719</ele>
        <time>2014-03-02T15:30:02.000Z</time>
      </trkpt>
      <trkpt lat="45.32973" lon="6.1952">
        <ele>2042.1999511719</ele>
        <time>2014-03-02T15:30:03.000Z</time>
      </trkpt>
      <trkpt lat="45.32973" lon="6.1952">
        <ele>2042.1999511719</ele>
        <time>2014-03-02T15:30:04.000Z</time>
      </trkpt>
      <trkpt lat="45.32973" lon="6.1952">
        <ele>2042.4000244141</ele>
        <time>2014-03-02T15:30:09.000Z</time>
      </trkpt>
      <trkpt lat="45.32974" lon="6.1952">
        <ele>2042.8000488281</ele>
        <time>2014-03-02T15:30:10.000Z</time>
      </trkpt>
      <trkpt lat="45.32975" lon="6.19518">
        <ele>2043.4000244141</ele>
        <time>2014-03-02T15:30:12.000Z</time>
      </trkpt>
      <trkpt lat="45.32974" lon="6.19511">
        <ele>2044.8000488281</ele>
        <time>2014-03-02T15:30:13.000Z</time>
      </trkpt>
      <trkpt lat="45.32974" lon="6.19504">
        <ele>2046</ele>
        <time>2014-03-02T15:30:14.000Z</time>
      </trkpt>
      <trkpt lat="45.32976" lon="6.19498">
        <ele>2047.8000488281</ele>
        <time>2014-03-02T15:30:15.000Z</time>
      </trkpt>
      <trkpt lat="45.32977" lon="6.19493">
        <ele>2049.3999023438</ele>
        <time>2014-03-02T15:30:16.000Z</time>
      </trkpt>
      <trkpt lat="45.32979" lon="6.19489">
        <ele>2050.1999511719</ele>
        <time>2014-03-02T15:30:17.000Z</time>
      </trkpt>
      <trkpt lat="45.32981" lon="6.19483">
        <ele>2050.8000488281</ele>
        <time>2014-03-02T15:30:18.000Z</time>
      </trkpt>
      <trkpt lat="45.32982" lon="6.19477">
        <ele>2051.6000976562</ele>
        <time>2014-03-02T15:30:19.000Z</time>
      </trkpt>
      <trkpt lat="45.32984" lon="6.19471">
        <ele>2053.6000976562</ele>
        <time>2014-03-02T15:30:20.000Z</time>
      </trkpt>
      <trkpt lat="45.32985" lon="6.19466">
        <ele>2055.1999511719</ele>
        <time>2014-03-02T15:30:21.000Z</time>
      </trkpt>
      <trkpt lat="45.32985" lon="6.19461">
        <ele>2056.3999023438</ele>
        <time>2014-03-02T15:30:22.000Z</time>
      </trkpt>
      <trkpt lat="45.32986" lon="6.19455">
        <ele>2058.1999511719</ele>
        <time>2014-03-02T15:30:24.000Z</time>
      </trkpt>
      <trkpt lat="45.32987" lon="6.19453">
        <ele>2059</ele>
        <time>2014-03-02T15:30:25.000Z</time>
      </trkpt>
      <trkpt lat="45.32988" lon="6.19453">
        <ele>2059.1999511719</ele>
        <time>2014-03-02T15:30:26.000Z</time>
      </trkpt>
      <trkpt lat="45.3299" lon="6.19454">
        <ele>2059.3999023438</ele>
        <time>2014-03-02T15:30:27.000Z</time>
      </trkpt>
      <trkpt lat="45.32992" lon="6.19455">
        <ele>2059.6000976562</ele>
        <time>2014-03-02T15:30:28.000Z</time>
      </trkpt>
      <trkpt lat="45.32996" lon="6.19462">
        <ele>2058.6000976562</ele>
        <time>2014-03-02T15:30:30.000Z</time>
      </trkpt>
      <trkpt lat="45.32998" lon="6.19469">
        <ele>2057.3999023438</ele>
        <time>2014-03-02T15:30:31.000Z</time>
      </trkpt>
      <trkpt lat="45.33001" lon="6.19477">
        <ele>2056.1999511719</ele>
        <time>2014-03-02T15:30:32.000Z</time>
      </trkpt>
      <trkpt lat="45.33004" lon="6.19487">
        <ele>2056.1999511719</ele>
        <time>2014-03-02T15:30:33.000Z</time>
      </trkpt>
      <trkpt lat="45.33006" lon="6.19497">
        <ele>2056.1999511719</ele>
        <time>2014-03-02T15:30:34.000Z</time>
      </trkpt>
      <trkpt lat="45.33007" lon="6.19507">
        <ele>2056</ele>
        <time>2014-03-02T15:30:35.000Z</time>
      </trkpt>
      <trkpt lat="45.33008" lon="6.19516">
        <ele>2055.6000976562</ele>
        <time>2014-03-02T15:30:36.000Z</time>
      </trkpt>
      <trkpt lat="45.33005" lon="6.19525">
        <ele>2053.8000488281</ele>
        <time>2014-03-02T15:30:37.000Z</time>
      </trkpt>
      <trkpt lat="45.33001" lon="6.19534">
        <ele>2050.3999023438</ele>
        <time>2014-03-02T15:30:38.000Z</time>
      </trkpt>
      <trkpt lat="45.32998" lon="6.19544">
        <ele>2047.5999755859</ele>
        <time>2014-03-02T15:30:39.000Z</time>
      </trkpt>
      <trkpt lat="45.32992" lon="6.1956">
        <ele>2042.4000244141</ele>
        <time>2014-03-02T15:30:40.000Z</time>
      </trkpt>
      <trkpt lat="45.32987" lon="6.19576">
        <ele>2042</ele>
        <time>2014-03-02T15:30:41.000Z</time>
      </trkpt>
      <trkpt lat="45.32983" lon="6.19592">
        <ele>2040.1999511719</ele>
        <time>2014-03-02T15:30:42.000Z</time>
      </trkpt>
      <trkpt lat="45.3298" lon="6.19609">
        <ele>2037.8000488281</ele>
        <time>2014-03-02T15:30:43.000Z</time>
      </trkpt>
      <trkpt lat="45.32975" lon="6.19626">
        <ele>2034</ele>
        <time>2014-03-02T15:30:44.000Z</time>
      </trkpt>
      <trkpt lat="45.3297" lon="6.19643">
        <ele>2030.4000244141</ele>
        <time>2014-03-02T15:30:45.000Z</time>
      </trkpt>
      <trkpt lat="45.32963" lon="6.1966">
        <ele>2026.4000244141</ele>
        <time>2014-03-02T15:30:46.000Z</time>
      </trkpt>
      <trkpt lat="45.32957" lon="6.19675">
        <ele>2023.8000488281</ele>
        <time>2014-03-02T15:30:47.000Z</time>
      </trkpt>
      <trkpt lat="45.32952" lon="6.19689">
        <ele>2021.4000244141</ele>
        <time>2014-03-02T15:30:48.000Z</time>
      </trkpt>
      <trkpt lat="45.32947" lon="6.19701">
        <ele>2019.5999755859</ele>
        <time>2014-03-02T15:30:49.000Z</time>
      </trkpt>
      <trkpt lat="45.32942" lon="6.19712">
        <ele>2017</ele>
        <time>2014-03-02T15:30:50.000Z</time>
      </trkpt>
      <trkpt lat="45.32938" lon="6.19723">
        <ele>2013.1999511719</ele>
        <time>2014-03-02T15:30:51.000Z</time>
      </trkpt>
      <trkpt lat="45.32933" lon="6.19734">
        <ele>2011</ele>
        <time>2014-03-02T15:30:52.000Z</time>
      </trkpt>
      <trkpt lat="45.32929" lon="6.19745">
        <ele>2010.5999755859</ele>
        <time>2014-03-02T15:30:53.000Z</time>
      </trkpt>
      <trkpt lat="45.32926" lon="6.19754">
        <ele>2010.4000244141</ele>
        <time>2014-03-02T15:30:54.000Z</time>
      </trkpt>
      <trkpt lat="45.32923" lon="6.19762">
        <ele>2010</ele>
        <time>2014-03-02T15:30:55.000Z</time>
      </trkpt>
      <trkpt lat="45.3292" lon="6.19771">
        <ele>2009.4000244141</ele>
        <time>2014-03-02T15:30:56.000Z</time>
      </trkpt>
      <trkpt lat="45.32918" lon="6.19779">
        <ele>2007.5999755859</ele>
        <time>2014-03-02T15:30:57.000Z</time>
      </trkpt>
      <trkpt lat="45.32916" lon="6.19787">
        <ele>2006</ele>
        <time>2014-03-02T15:30:58.000Z</time>
      </trkpt>
      <trkpt lat="45.32915" lon="6.19795">
        <ele>2004.8000488281</ele>
        <time>2014-03-02T15:30:59.000Z</time>
      </trkpt>
      <trkpt lat="45.32913" lon="6.19804">
        <ele>2003.4000244141</ele>
        <time>2014-03-02T15:31:00.000Z</time>
      </trkpt>
      <trkpt lat="45.32912" lon="6.19812">
        <ele>2002.5999755859</ele>
        <time>2014-03-02T15:31:01.000Z</time>
      </trkpt>
      <trkpt lat="45.32911" lon="6.19822">
        <ele>2003.5999755859</ele>
        <time>2014-03-02T15:31:02.000Z</time>
      </trkpt>
      <trkpt lat="45.3291" lon="6.19832">
        <ele>2004.5999755859</ele>
        <time>2014-03-02T15:31:03.000Z</time>
      </trkpt>
      <trkpt lat="45.32909" lon="6.19842">
        <ele>2006</ele>
        <time>2014-03-02T15:31:04.000Z</time>
      </trkpt>
      <trkpt lat="45.32908" lon="6.19853">
        <ele>2006.5999755859</ele>
        <time>2014-03-02T15:31:05.000Z</time>
      </trkpt>
      <trkpt lat="45.32907" lon="6.19865">
        <ele>2006.8000488281</ele>
        <time>2014-03-02T15:31:06.000Z</time>
      </trkpt>
      <trkpt lat="45.32904" lon="6.19877">
        <ele>2006.4000244141</ele>
        <time>2014-03-02T15:31:07.000Z</time>
      </trkpt>
      <trkpt lat="45.32901" lon="6.19889">
        <ele>2005.1999511719</ele>
        <time>2014-03-02T15:31:08.000Z</time>
      </trkpt>
      <trkpt lat="45.32897" lon="6.19902">
        <ele>2004</ele>
        <time>2014-03-02T15:31:09.000Z</time>
      </trkpt>
      <trkpt lat="45.32893" lon="6.19912">
        <ele>2002.4000244141</ele>
        <time>2014-03-02T15:31:10.000Z</time>
      </trkpt>
      <trkpt lat="45.32889" lon="6.19922">
        <ele>2001.1999511719</ele>
        <time>2014-03-02T15:31:11.000Z</time>
      </trkpt>
      <trkpt lat="45.32884" lon="6.19931">
        <ele>1999.4000244141</ele>
        <time>2014-03-02T15:31:12.000Z</time>
      </trkpt>
      <trkpt lat="45.32879" lon="6.1994">
        <ele>1997.8000488281</ele>
        <time>2014-03-02T15:31:13.000Z</time>
      </trkpt>
      <trkpt lat="45.32873" lon="6.19948">
        <ele>1996.5999755859</ele>
        <time>2014-03-02T15:31:14.000Z</time>
      </trkpt>
      <trkpt lat="45.32869" lon="6.19956">
        <ele>1996</ele>
        <time>2014-03-02T15:31:15.000Z</time>
      </trkpt>
      <trkpt lat="45.32864" lon="6.19965">
        <ele>1994.8000488281</ele>
        <time>2014-03-02T15:31:16.000Z</time>
      </trkpt>
      <trkpt lat="45.32861" lon="6.19972">
        <ele>1992</ele>
        <time>2014-03-02T15:31:17.000Z</time>
      </trkpt>
      <trkpt lat="45.32858" lon="6.19979">
        <ele>1989.5999755859</ele>
        <time>2014-03-02T15:31:18.000Z</time>
      </trkpt>
      <trkpt lat="45.32855" lon="6.19986">
        <ele>1988.5999755859</ele>
        <time>2014-03-02T15:31:19.000Z</time>
      </trkpt>
      <trkpt lat="45.32853" lon="6.19994">
        <ele>1987.8000488281</ele>
        <time>2014-03-02T15:31:20.000Z</time>
      </trkpt>
      <trkpt lat="45.32851" lon="6.20002">
        <ele>1987.1999511719</ele>
        <time>2014-03-02T15:31:21.000Z</time>
      </trkpt>
      <trkpt lat="45.32849" lon="6.2001">
        <ele>1986.5999755859</ele>
        <time>2014-03-02T15:31:22.000Z</time>
      </trkpt>
      <trkpt lat="45.32847" lon="6.20019">
        <ele>1985.8000488281</ele>
        <time>2014-03-02T15:31:23.000Z</time>
      </trkpt>
      <trkpt lat="45.32845" lon="6.20027">
        <ele>1985</ele>
        <time>2014-03-02T15:31:24.000Z</time>
      </trkpt>
      <trkpt lat="45.32842" lon="6.20036">
        <ele>1983.5999755859</ele>
        <time>2014-03-02T15:31:25.000Z</time>
      </trkpt>
      <trkpt lat="45.3284" lon="6.20045">
        <ele>1982.4000244141</ele>
        <time>2014-03-02T15:31:26.000Z</time>
      </trkpt>
      <trkpt lat="45.32838" lon="6.20054">
        <ele>1980.8000488281</ele>
        <time>2014-03-02T15:31:27.000Z</time>
      </trkpt>
      <trkpt lat="45.32835" lon="6.20063">
        <ele>1979.1999511719</ele>
        <time>2014-03-02T15:31:28.000Z</time>
      </trkpt>
      <trkpt lat="45.32833" lon="6.20071">
        <ele>1978</ele>
        <time>2014-03-02T15:31:29.000Z</time>
      </trkpt>
      <trkpt lat="45.32831" lon="6.2008">
        <ele>1976.8000488281</ele>
        <time>2014-03-02T15:31:30.000Z</time>
      </trkpt>
      <trkpt lat="45.32828" lon="6.20087">
        <ele>1975.8000488281</ele>
        <time>2014-03-02T15:31:31.000Z</time>
      </trkpt>
      <trkpt lat="45.32826" lon="6.20095">
        <ele>1974.4000244141</ele>
        <time>2014-03-02T15:31:32.000Z</time>
      </trkpt>
      <trkpt lat="45.32824" lon="6.20103">
        <ele>1972.5999755859</ele>
        <time>2014-03-02T15:31:33.000Z</time>
      </trkpt>
      <trkpt lat="45.32822" lon="6.20111">
        <ele>1971</ele>
        <time>2014-03-02T15:31:34.000Z</time>
      </trkpt>
      <trkpt lat="45.3282" lon="6.20118">
        <ele>1969.4000244141</ele>
        <time>2014-03-02T15:31:35.000Z</time>
      </trkpt>
      <trkpt lat="45.32818" lon="6.20125">
        <ele>1967.5999755859</ele>
        <time>2014-03-02T15:31:36.000Z</time>
      </trkpt>
      <trkpt lat="45.32815" lon="6.20133">
        <ele>1965.8000488281</ele>
        <time>2014-03-02T15:31:37.000Z</time>
      </trkpt>
      <trkpt lat="45.32812" lon="6.20141">
        <ele>1963.5999755859</ele>
        <time>2014-03-02T15:31:38.000Z</time>
      </trkpt>
      <trkpt lat="45.3281" lon="6.20149">
        <ele>1962.1999511719</ele>
        <time>2014-03-02T15:31:39.000Z</time>
      </trkpt>
      <trkpt lat="45.32809" lon="6.20156">
        <ele>1961</ele>
        <time>2014-03-02T15:31:40.000Z</time>
      </trkpt>
      <trkpt lat="45.32807" lon="6.20163">
        <ele>1960</ele>
        <time>2014-03-02T15:31:41.000Z</time>
      </trkpt>
      <trkpt lat="45.32806" lon="6.20169">
        <ele>1959.4000244141</ele>
        <time>2014-03-02T15:31:42.000Z</time>
      </trkpt>
      <trkpt lat="45.32804" lon="6.20176">
        <ele>1958.4000244141</ele>
        <time>2014-03-02T15:31:43.000Z</time>
      </trkpt>
      <trkpt lat="45.32802" lon="6.20183">
        <ele>1957.1999511719</ele>
        <time>2014-03-02T15:31:44.000Z</time>
      </trkpt>
      <trkpt lat="45.328" lon="6.2019">
        <ele>1956</ele>
        <time>2014-03-02T15:31:45.000Z</time>
      </trkpt>
      <trkpt lat="45.32798" lon="6.20197">
        <ele>1954.8000488281</ele>
        <time>2014-03-02T15:31:46.000Z</time>
      </trkpt>
      <trkpt lat="45.32797" lon="6.20205">
        <ele>1954</ele>
        <time>2014-03-02T15:31:47.000Z</time>
      </trkpt>
      <trkpt lat="45.32795" lon="6.20212">
        <ele>1953.8000488281</ele>
        <time>2014-03-02T15:31:48.000Z</time>
      </trkpt>
      <trkpt lat="45.32794" lon="6.2022">
        <ele>1953.5999755859</ele>
        <time>2014-03-02T15:31:49.000Z</time>
      </trkpt>
      <trkpt lat="45.32793" lon="6.20227">
        <ele>1953.1999511719</ele>
        <time>2014-03-02T15:31:50.000Z</time>
      </trkpt>
      <trkpt lat="45.32791" lon="6.20235">
        <ele>1952.1999511719</ele>
        <time>2014-03-02T15:31:51.000Z</time>
      </trkpt>
      <trkpt lat="45.3279" lon="6.20242">
        <ele>1951.1999511719</ele>
        <time>2014-03-02T15:31:52.000Z</time>
      </trkpt>
      <trkpt lat="45.32789" lon="6.2025">
        <ele>1950.4000244141</ele>
        <time>2014-03-02T15:31:53.000Z</time>
      </trkpt>
      <trkpt lat="45.32788" lon="6.20256">
        <ele>1949.5999755859</ele>
        <time>2014-03-02T15:31:54.000Z</time>
      </trkpt>
      <trkpt lat="45.32787" lon="6.20262">
        <ele>1949.1999511719</ele>
        <time>2014-03-02T15:31:55.000Z</time>
      </trkpt>
      <trkpt lat="45.32787" lon="6.20267">
        <ele>1948.5999755859</ele>
        <time>2014-03-02T15:31:56.000Z</time>
      </trkpt>
      <trkpt lat="45.32786" lon="6.20272">
        <ele>1948</ele>
        <time>2014-03-02T15:31:57.000Z</time>
      </trkpt>
      <trkpt lat="45.32786" lon="6.20277">
        <ele>1948</ele>
        <time>2014-03-02T15:31:58.000Z</time>
      </trkpt>
      <trkpt lat="45.32786" lon="6.2028">
        <ele>1947.5999755859</ele>
        <time>2014-03-02T15:31:59.000Z</time>
      </trkpt>
      <trkpt lat="45.32785" lon="6.20284">
        <ele>1947.1999511719</ele>
        <time>2014-03-02T15:32:00.000Z</time>
      </trkpt>
      <trkpt lat="45.32785" lon="6.20287">
        <ele>1947</ele>
        <time>2014-03-02T15:32:01.000Z</time>
      </trkpt>
      <trkpt lat="45.32784" lon="6.2029">
        <ele>1946.1999511719</ele>
        <time>2014-03-02T15:32:02.000Z</time>
      </trkpt>
      <trkpt lat="45.3278" lon="6.20292">
        <ele>1944.4000244141</ele>
        <time>2014-03-02T15:32:03.000Z</time>
      </trkpt>
      <trkpt lat="45.32776" lon="6.20294">
        <ele>1943</ele>
        <time>2014-03-02T15:32:04.000Z</time>
      </trkpt>
      <trkpt lat="45.32774" lon="6.20299">
        <ele>1941.8000488281</ele>
        <time>2014-03-02T15:32:05.000Z</time>
      </trkpt>
      <trkpt lat="45.32774" lon="6.20304">
        <ele>1941.4000244141</ele>
        <time>2014-03-02T15:32:06.000Z</time>
      </trkpt>
      <trkpt lat="45.32773" lon="6.20309">
        <ele>1940.8000488281</ele>
        <time>2014-03-02T15:32:07.000Z</time>
      </trkpt>
      <trkpt lat="45.32772" lon="6.20313">
        <ele>1940.1999511719</ele>
        <time>2014-03-02T15:32:08.000Z</time>
      </trkpt>
      <trkpt lat="45.32768" lon="6.20317">
        <ele>1938.4000244141</ele>
        <time>2014-03-02T15:32:09.000Z</time>
      </trkpt>
      <trkpt lat="45.32763" lon="6.20321">
        <ele>1935.4000244141</ele>
        <time>2014-03-02T15:32:10.000Z</time>
      </trkpt>
      <trkpt lat="45.32757" lon="6.20325">
        <ele>1932.8000488281</ele>
        <time>2014-03-02T15:32:11.000Z</time>
      </trkpt>
      <trkpt lat="45.32752" lon="6.20329">
        <ele>1930</ele>
        <time>2014-03-02T15:32:12.000Z</time>
      </trkpt>
      <trkpt lat="45.32744" lon="6.20337">
        <ele>1925.8000488281</ele>
        <time>2014-03-02T15:32:13.000Z</time>
      </trkpt>
      <trkpt lat="45.32739" lon="6.20345">
        <ele>1923</ele>
        <time>2014-03-02T15:32:14.000Z</time>
      </trkpt>
      <trkpt lat="45.32735" lon="6.20352">
        <ele>1920.8000488281</ele>
        <time>2014-03-02T15:32:15.000Z</time>
      </trkpt>
      <trkpt lat="45.32734" lon="6.2036">
        <ele>1919.4000244141</ele>
        <time>2014-03-02T15:32:16.000Z</time>
      </trkpt>
      <trkpt lat="45.32734" lon="6.20368">
        <ele>1918.5999755859</ele>
        <time>2014-03-02T15:32:17.000Z</time>
      </trkpt>
      <trkpt lat="45.32734" lon="6.20376">
        <ele>1918</ele>
        <time>2014-03-02T15:32:18.000Z</time>
      </trkpt>
      <trkpt lat="45.32734" lon="6.20384">
        <ele>1917.4000244141</ele>
        <time>2014-03-02T15:32:19.000Z</time>
      </trkpt>
      <trkpt lat="45.32736" lon="6.20392">
        <ele>1917.1999511719</ele>
        <time>2014-03-02T15:32:20.000Z</time>
      </trkpt>
      <trkpt lat="45.32737" lon="6.20401">
        <ele>1917</ele>
        <time>2014-03-02T15:32:21.000Z</time>
      </trkpt>
      <trkpt lat="45.32738" lon="6.2041">
        <ele>1917</ele>
        <time>2014-03-02T15:32:22.000Z</time>
      </trkpt>
      <trkpt lat="45.32739" lon="6.20419">
        <ele>1917</ele>
        <time>2014-03-02T15:32:23.000Z</time>
      </trkpt>
      <trkpt lat="45.3274" lon="6.20428">
        <ele>1916.1999511719</ele>
        <time>2014-03-02T15:32:24.000Z</time>
      </trkpt>
      <trkpt lat="45.3274" lon="6.20435">
        <ele>1915.4000244141</ele>
        <time>2014-03-02T15:32:25.000Z</time>
      </trkpt>
      <trkpt lat="45.32739" lon="6.20441">
        <ele>1914.5999755859</ele>
        <time>2014-03-02T15:32:26.000Z</time>
      </trkpt>
      <trkpt lat="45.32738" lon="6.20445">
        <ele>1913.5999755859</ele>
        <time>2014-03-02T15:32:27.000Z</time>
      </trkpt>
      <trkpt lat="45.32737" lon="6.20448">
        <ele>1913</ele>
        <time>2014-03-02T15:32:28.000Z</time>
      </trkpt>
      <trkpt lat="45.32737" lon="6.2045">
        <ele>1912.5999755859</ele>
        <time>2014-03-02T15:32:29.000Z</time>
      </trkpt>
      <trkpt lat="45.32737" lon="6.20451">
        <ele>1912.4000244141</ele>
        <time>2014-03-02T15:32:30.000Z</time>
      </trkpt>
      <trkpt lat="45.32737" lon="6.20452">
        <ele>1912.4000244141</ele>
        <time>2014-03-02T15:32:31.000Z</time>
      </trkpt>
      <trkpt lat="45.32737" lon="6.20452">
        <ele>1912.4000244141</ele>
        <time>2014-03-02T15:32:32.000Z</time>
      </trkpt>
      <trkpt lat="45.32737" lon="6.20452">
        <ele>1912.4000244141</ele>
        <time>2014-03-02T15:32:33.000Z</time>
      </trkpt>
      <trkpt lat="45.32737" lon="6.20452">
        <ele>1912.5999755859</ele>
        <time>2014-03-02T15:32:34.000Z</time>
      </trkpt>
      <trkpt lat="45.32737" lon="6.20452">
        <ele>1912.4000244141</ele>
        <time>2014-03-02T15:32:35.000Z</time>
      </trkpt>
      <trkpt lat="45.32737" lon="6.20452">
        <ele>1912.4000244141</ele>
        <time>2014-03-02T15:32:36.000Z</time>
      </trkpt>
      <trkpt lat="45.32737" lon="6.20452">
        <ele>1912.4000244141</ele>
        <time>2014-03-02T15:32:37.000Z</time>
      </trkpt>
      <trkpt lat="45.32737" lon="6.20452">
        <ele>1912.4000244141</ele>
        <time>2014-03-02T15:32:38.000Z</time>
      </trkpt>
      <trkpt lat="45.32737" lon="6.20452">
        <ele>1912.4000244141</ele>
        <time>2014-03-02T15:32:39.000Z</time>
      </trkpt>
      <trkpt lat="45.32737" lon="6.20452">
        <ele>1912.4000244141</ele>
        <time>2014-03-02T15:32:40.000Z</time>
      </trkpt>
      <trkpt lat="45.32737" lon="6.20452">
        <ele>1912.4000244141</ele>
        <time>2014-03-02T15:32:41.000Z</time>
      </trkpt>
      <trkpt lat="45.32737" lon="6.20452">
        <ele>1912.4000244141</ele>
        <time>2014-03-02T15:32:42.000Z</time>
      </trkpt>
      <trkpt lat="45.32737" lon="6.20452">
        <ele>1912.4000244141</ele>
        <time>2014-03-02T15:32:43.000Z</time>
      </trkpt>
      <trkpt lat="45.32737" lon="6.20452">
        <ele>1912.4000244141</ele>
        <time>2014-03-02T15:32:44.000Z</time>
      </trkpt>
      <trkpt lat="45.32737" lon="6.20452">
        <ele>1912.4000244141</ele>
        <time>2014-03-02T15:32:45.000Z</time>
      </trkpt>
      <trkpt lat="45.32737" lon="6.20452">
        <ele>1912.4000244141</ele>
        <time>2014-03-02T15:32:46.000Z</time>
      </trkpt>
      <trkpt lat="45.32737" lon="6.20452">
        <ele>1912.4000244141</ele>
        <time>2014-03-02T15:32:48.000Z</time>
      </trkpt>
      <trkpt lat="45.32737" lon="6.20452">
        <ele>1912.4000244141</ele>
        <time>2014-03-02T15:32:49.000Z</time>
      </trkpt>
      <trkpt lat="45.32737" lon="6.20453">
        <ele>1912.5999755859</ele>
        <time>2014-03-02T15:32:52.000Z</time>
      </trkpt>
      <trkpt lat="45.32739" lon="6.20456">
        <ele>1913</ele>
        <time>2014-03-02T15:32:53.000Z</time>
      </trkpt>
      <trkpt lat="45.32743" lon="6.20461">
        <ele>1914.4000244141</ele>
        <time>2014-03-02T15:32:54.000Z</time>
      </trkpt>
      <trkpt lat="45.32748" lon="6.20468">
        <ele>1915.5999755859</ele>
        <time>2014-03-02T15:32:55.000Z</time>
      </trkpt>
      <trkpt lat="45.32752" lon="6.20474">
        <ele>1916.8000488281</ele>
        <time>2014-03-02T15:32:56.000Z</time>
      </trkpt>
      <trkpt lat="45.32755" lon="6.20479">
        <ele>1917.8000488281</ele>
        <time>2014-03-02T15:32:57.000Z</time>
      </trkpt>
      <trkpt lat="45.32757" lon="6.20485">
        <ele>1918.5999755859</ele>
        <time>2014-03-02T15:32:58.000Z</time>
      </trkpt>
      <trkpt lat="45.32759" lon="6.20493">
        <ele>1919.1999511719</ele>
        <time>2014-03-02T15:32:59.000Z</time>
      </trkpt>
      <trkpt lat="45.32761" lon="6.205">
        <ele>1919.5999755859</ele>
        <time>2014-03-02T15:33:00.000Z</time>
      </trkpt>
      <trkpt lat="45.32762" lon="6.20509">
        <ele>1920</ele>
        <time>2014-03-02T15:33:01.000Z</time>
      </trkpt>
      <trkpt lat="45.32763" lon="6.20517">
        <ele>1920.1999511719</ele>
        <time>2014-03-02T15:33:02.000Z</time>
      </trkpt>
      <trkpt lat="45.32764" lon="6.20526">
        <ele>1920.1999511719</ele>
        <time>2014-03-02T15:33:03.000Z</time>
      </trkpt>
      <trkpt lat="45.32765" lon="6.20533">
        <ele>1920.4000244141</ele>
        <time>2014-03-02T15:33:04.000Z</time>
      </trkpt>
      <trkpt lat="45.32765" lon="6.20539">
        <ele>1920.4000244141</ele>
        <time>2014-03-02T15:33:05.000Z</time>
      </trkpt>
      <trkpt lat="45.32766" lon="6.20545">
        <ele>1920.1999511719</ele>
        <time>2014-03-02T15:33:06.000Z</time>
      </trkpt>
      <trkpt lat="45.32766" lon="6.2055">
        <ele>1920.1999511719</ele>
        <time>2014-03-02T15:33:07.000Z</time>
      </trkpt>
      <trkpt lat="45.32767" lon="6.20555">
        <ele>1920.1999511719</ele>
        <time>2014-03-02T15:33:08.000Z</time>
      </trkpt>
      <trkpt lat="45.32767" lon="6.20559">
        <ele>1920.1999511719</ele>
        <time>2014-03-02T15:33:09.000Z</time>
      </trkpt>
      <trkpt lat="45.32767" lon="6.20565">
        <ele>1920.1999511719</ele>
        <time>2014-03-02T15:33:10.000Z</time>
      </trkpt>
      <trkpt lat="45.32768" lon="6.2057">
        <ele>1920.1999511719</ele>
        <time>2014-03-02T15:33:11.000Z</time>
      </trkpt>
      <trkpt lat="45.32768" lon="6.20577">
        <ele>1920</ele>
        <time>2014-03-02T15:33:12.000Z</time>
      </trkpt>
      <trkpt lat="45.32767" lon="6.20582">
        <ele>1919.5999755859</ele>
        <time>2014-03-02T15:33:13.000Z</time>
      </trkpt>
      <trkpt lat="45.32767" lon="6.20588">
        <ele>1919.1999511719</ele>
        <time>2014-03-02T15:33:14.000Z</time>
      </trkpt>
      <trkpt lat="45.32766" lon="6.20594">
        <ele>1918.5999755859</ele>
        <time>2014-03-02T15:33:15.000Z</time>
      </trkpt>
      <trkpt lat="45.32764" lon="6.20601">
        <ele>1917.5999755859</ele>
        <time>2014-03-02T15:33:16.000Z</time>
      </trkpt>
      <trkpt lat="45.32763" lon="6.20608">
        <ele>1916.8000488281</ele>
        <time>2014-03-02T15:33:17.000Z</time>
      </trkpt>
      <trkpt lat="45.32761" lon="6.20616">
        <ele>1915.1999511719</ele>
        <time>2014-03-02T15:33:18.000Z</time>
      </trkpt>
      <trkpt lat="45.32759" lon="6.20624">
        <ele>1913</ele>
        <time>2014-03-02T15:33:19.000Z</time>
      </trkpt>
      <trkpt lat="45.32758" lon="6.20634">
        <ele>1911</ele>
        <time>2014-03-02T15:33:20.000Z</time>
      </trkpt>
      <trkpt lat="45.32757" lon="6.20644">
        <ele>1909.5999755859</ele>
        <time>2014-03-02T15:33:21.000Z</time>
      </trkpt>
      <trkpt lat="45.32757" lon="6.20654">
        <ele>1908.8000488281</ele>
        <time>2014-03-02T15:33:22.000Z</time>
      </trkpt>
      <trkpt lat="45.32756" lon="6.20663">
        <ele>1908</ele>
        <time>2014-03-02T15:33:23.000Z</time>
      </trkpt>
      <trkpt lat="45.32755" lon="6.20673">
        <ele>1907.1999511719</ele>
        <time>2014-03-02T15:33:24.000Z</time>
      </trkpt>
      <trkpt lat="45.32752" lon="6.20684">
        <ele>1905.4000244141</ele>
        <time>2014-03-02T15:33:25.000Z</time>
      </trkpt>
      <trkpt lat="45.32749" lon="6.20694">
        <ele>1903.5999755859</ele>
        <time>2014-03-02T15:33:26.000Z</time>
      </trkpt>
      <trkpt lat="45.32744" lon="6.20704">
        <ele>1901.1999511719</ele>
        <time>2014-03-02T15:33:27.000Z</time>
      </trkpt>
      <trkpt lat="45.3274" lon="6.20712">
        <ele>1899</ele>
        <time>2014-03-02T15:33:28.000Z</time>
      </trkpt>
      <trkpt lat="45.32736" lon="6.20719">
        <ele>1897</ele>
        <time>2014-03-02T15:33:29.000Z</time>
      </trkpt>
      <trkpt lat="45.32732" lon="6.20726">
        <ele>1895.1999511719</ele>
        <time>2014-03-02T15:33:30.000Z</time>
      </trkpt>
      <trkpt lat="45.32729" lon="6.20734">
        <ele>1893.8000488281</ele>
        <time>2014-03-02T15:33:31.000Z</time>
      </trkpt>
      <trkpt lat="45.32726" lon="6.20741">
        <ele>1892.1999511719</ele>
        <time>2014-03-02T15:33:32.000Z</time>
      </trkpt>
      <trkpt lat="45.32723" lon="6.2075">
        <ele>1889.5999755859</ele>
        <time>2014-03-02T15:33:33.000Z</time>
      </trkpt>
      <trkpt lat="45.3272" lon="6.20759">
        <ele>1886.5999755859</ele>
        <time>2014-03-02T15:33:34.000Z</time>
      </trkpt>
      <trkpt lat="45.32718" lon="6.20769">
        <ele>1884.4000244141</ele>
        <time>2014-03-02T15:33:35.000Z</time>
      </trkpt>
      <trkpt lat="45.32717" lon="6.20779">
        <ele>1882.4000244141</ele>
        <time>2014-03-02T15:33:36.000Z</time>
      </trkpt>
      <trkpt lat="45.32716" lon="6.20789">
        <ele>1880.5999755859</ele>
        <time>2014-03-02T15:33:37.000Z</time>
      </trkpt>
      <trkpt lat="45.32715" lon="6.20797">
        <ele>1879.1999511719</ele>
        <time>2014-03-02T15:33:38.000Z</time>
      </trkpt>
      <trkpt lat="45.32714" lon="6.20807">
        <ele>1877.8000488281</ele>
        <time>2014-03-02T15:33:39.000Z</time>
      </trkpt>
      <trkpt lat="45.32714" lon="6.20816">
        <ele>1876.8000488281</ele>
        <time>2014-03-02T15:33:40.000Z</time>
      </trkpt>
      <trkpt lat="45.32713" lon="6.20827">
        <ele>1876.5999755859</ele>
        <time>2014-03-02T15:33:41.000Z</time>
      </trkpt>
      <trkpt lat="45.32714" lon="6.20838">
        <ele>1876.5999755859</ele>
        <time>2014-03-02T15:33:42.000Z</time>
      </trkpt>
      <trkpt lat="45.32715" lon="6.2085">
        <ele>1877.1999511719</ele>
        <time>2014-03-02T15:33:43.000Z</time>
      </trkpt>
      <trkpt lat="45.32716" lon="6.20862">
        <ele>1877.8000488281</ele>
        <time>2014-03-02T15:33:44.000Z</time>
      </trkpt>
      <trkpt lat="45.32717" lon="6.20874">
        <ele>1878.5999755859</ele>
        <time>2014-03-02T15:33:45.000Z</time>
      </trkpt>
      <trkpt lat="45.32719" lon="6.20887">
        <ele>1879.4000244141</ele>
        <time>2014-03-02T15:33:46.000Z</time>
      </trkpt>
      <trkpt lat="45.32719" lon="6.209">
        <ele>1879.1999511719</ele>
        <time>2014-03-02T15:33:47.000Z</time>
      </trkpt>
      <trkpt lat="45.32718" lon="6.20911">
        <ele>1879.4000244141</ele>
        <time>2014-03-02T15:33:48.000Z</time>
      </trkpt>
      <trkpt lat="45.32715" lon="6.20922">
        <ele>1878</ele>
        <time>2014-03-02T15:33:49.000Z</time>
      </trkpt>
      <trkpt lat="45.32712" lon="6.20931">
        <ele>1877.1999511719</ele>
        <time>2014-03-02T15:33:50.000Z</time>
      </trkpt>
      <trkpt lat="45.32709" lon="6.2094">
        <ele>1876.8000488281</ele>
        <time>2014-03-02T15:33:51.000Z</time>
      </trkpt>
      <trkpt lat="45.32706" lon="6.20947">
        <ele>1876.1999511719</ele>
        <time>2014-03-02T15:33:52.000Z</time>
      </trkpt>
      <trkpt lat="45.32702" lon="6.20954">
        <ele>1875.5999755859</ele>
        <time>2014-03-02T15:33:53.000Z</time>
      </trkpt>
      <trkpt lat="45.32699" lon="6.2096">
        <ele>1875</ele>
        <time>2014-03-02T15:33:54.000Z</time>
      </trkpt>
      <trkpt lat="45.32696" lon="6.20968">
        <ele>1874.1999511719</ele>
        <time>2014-03-02T15:33:55.000Z</time>
      </trkpt>
      <trkpt lat="45.32692" lon="6.20975">
        <ele>1873.1999511719</ele>
        <time>2014-03-02T15:33:56.000Z</time>
      </trkpt>
      <trkpt lat="45.32688" lon="6.20983">
        <ele>1872.4000244141</ele>
        <time>2014-03-02T15:33:57.000Z</time>
      </trkpt>
      <trkpt lat="45.32684" lon="6.20991">
        <ele>1872</ele>
        <time>2014-03-02T15:33:58.000Z</time>
      </trkpt>
      <trkpt lat="45.3268" lon="6.20999">
        <ele>1871.1999511719</ele>
        <time>2014-03-02T15:33:59.000Z</time>
      </trkpt>
      <trkpt lat="45.32677" lon="6.21007">
        <ele>1871.1999511719</ele>
        <time>2014-03-02T15:34:00.000Z</time>
      </trkpt>
      <trkpt lat="45.32674" lon="6.21014">
        <ele>1871</ele>
        <time>2014-03-02T15:34:01.000Z</time>
      </trkpt>
      <trkpt lat="45.32671" lon="6.21022">
        <ele>1870.8000488281</ele>
        <time>2014-03-02T15:34:02.000Z</time>
      </trkpt>
      <trkpt lat="45.32669" lon="6.21029">
        <ele>1870</ele>
        <time>2014-03-02T15:34:03.000Z</time>
      </trkpt>
      <trkpt lat="45.32666" lon="6.21036">
        <ele>1869.4000244141</ele>
        <time>2014-03-02T15:34:04.000Z</time>
      </trkpt>
      <trkpt lat="45.32664" lon="6.21043">
        <ele>1868.5999755859</ele>
        <time>2014-03-02T15:34:05.000Z</time>
      </trkpt>
      <trkpt lat="45.32661" lon="6.2105">
        <ele>1867.8000488281</ele>
        <time>2014-03-02T15:34:06.000Z</time>
      </trkpt>
      <trkpt lat="45.32659" lon="6.21058">
        <ele>1867.1999511719</ele>
        <time>2014-03-02T15:34:07.000Z</time>
      </trkpt>
      <trkpt lat="45.32657" lon="6.21064">
        <ele>1867</ele>
        <time>2014-03-02T15:34:08.000Z</time>
      </trkpt>
      <trkpt lat="45.32656" lon="6.2107">
        <ele>1866.1999511719</ele>
        <time>2014-03-02T15:34:09.000Z</time>
      </trkpt>
      <trkpt lat="45.32653" lon="6.21076">
        <ele>1865.1999511719</ele>
        <time>2014-03-02T15:34:10.000Z</time>
      </trkpt>
      <trkpt lat="45.3265" lon="6.21082">
        <ele>1864</ele>
        <time>2014-03-02T15:34:11.000Z</time>
      </trkpt>
      <trkpt lat="45.32647" lon="6.21089">
        <ele>1861.5999755859</ele>
        <time>2014-03-02T15:34:12.000Z</time>
      </trkpt>
      <trkpt lat="45.32644" lon="6.21094">
        <ele>1859.4000244141</ele>
        <time>2014-03-02T15:34:13.000Z</time>
      </trkpt>
      <trkpt lat="45.3264" lon="6.21101">
        <ele>1857</ele>
        <time>2014-03-02T15:34:14.000Z</time>
      </trkpt>
      <trkpt lat="45.32637" lon="6.21106">
        <ele>1855</ele>
        <time>2014-03-02T15:34:15.000Z</time>
      </trkpt>
      <trkpt lat="45.32634" lon="6.2111">
        <ele>1852.8000488281</ele>
        <time>2014-03-02T15:34:16.000Z</time>
      </trkpt>
      <trkpt lat="45.3263" lon="6.21114">
        <ele>1850.8000488281</ele>
        <time>2014-03-02T15:34:17.000Z</time>
      </trkpt>
      <trkpt lat="45.32627" lon="6.21117">
        <ele>1850.5999755859</ele>
        <time>2014-03-02T15:34:18.000Z</time>
      </trkpt>
      <trkpt lat="45.32625" lon="6.2112">
        <ele>1850.4000244141</ele>
        <time>2014-03-02T15:34:19.000Z</time>
      </trkpt>
      <trkpt lat="45.32622" lon="6.21124">
        <ele>1850.4000244141</ele>
        <time>2014-03-02T15:34:20.000Z</time>
      </trkpt>
      <trkpt lat="45.32619" lon="6.21127">
        <ele>1850.1999511719</ele>
        <time>2014-03-02T15:34:21.000Z</time>
      </trkpt>
      <trkpt lat="45.32617" lon="6.2113">
        <ele>1850</ele>
        <time>2014-03-02T15:34:22.000Z</time>
      </trkpt>
      <trkpt lat="45.32614" lon="6.21132">
        <ele>1849.8000488281</ele>
        <time>2014-03-02T15:34:23.000Z</time>
      </trkpt>
      <trkpt lat="45.32612" lon="6.21135">
        <ele>1849.4000244141</ele>
        <time>2014-03-02T15:34:24.000Z</time>
      </trkpt>
      <trkpt lat="45.32611" lon="6.21137">
        <ele>1849</ele>
        <time>2014-03-02T15:34:25.000Z</time>
      </trkpt>
      <trkpt lat="45.3261" lon="6.21139">
        <ele>1848.8000488281</ele>
        <time>2014-03-02T15:34:26.000Z</time>
      </trkpt>
      <trkpt lat="45.32609" lon="6.21141">
        <ele>1848.5999755859</ele>
        <time>2014-03-02T15:34:27.000Z</time>
      </trkpt>
      <trkpt lat="45.32609" lon="6.21142">
        <ele>1848.4000244141</ele>
        <time>2014-03-02T15:34:28.000Z</time>
      </trkpt>
      <trkpt lat="45.32608" lon="6.21143">
        <ele>1848.1999511719</ele>
        <time>2014-03-02T15:34:29.000Z</time>
      </trkpt>
      <trkpt lat="45.3261" lon="6.2114">
        <ele>1848.5999755859</ele>
        <time>2014-03-02T15:34:30.000Z</time>
      </trkpt>
      <trkpt lat="45.32615" lon="6.21134">
        <ele>1849.4000244141</ele>
        <time>2014-03-02T15:34:31.000Z</time>
      </trkpt>
      <trkpt lat="45.32615" lon="6.21134">
        <ele>1849.4000244141</ele>
        <time>2014-03-02T15:34:32.000Z</time>
      </trkpt>
      <trkpt lat="45.32615" lon="6.21134">
        <ele>1849.4000244141</ele>
        <time>2014-03-02T15:34:33.000Z</time>
      </trkpt>
      <trkpt lat="45.32615" lon="6.21134">
        <ele>1849.4000244141</ele>
        <time>2014-03-02T15:34:36.000Z</time>
      </trkpt>
      <trkpt lat="45.32615" lon="6.21134">
        <ele>1849.4000244141</ele>
        <time>2014-03-02T15:34:37.000Z</time>
      </trkpt>
      <trkpt lat="45.32615" lon="6.21134">
        <ele>1849.4000244141</ele>
        <time>2014-03-02T15:34:38.000Z</time>
      </trkpt>
      <trkpt lat="45.32615" lon="6.21134">
        <ele>1849.4000244141</ele>
        <time>2014-03-02T15:34:39.000Z</time>
      </trkpt>
      <trkpt lat="45.32615" lon="6.21134">
        <ele>1849.4000244141</ele>
        <time>2014-03-02T15:34:40.000Z</time>
      </trkpt>
      <trkpt lat="45.32615" lon="6.21134">
        <ele>1849.4000244141</ele>
        <time>2014-03-02T15:34:42.000Z</time>
      </trkpt>
      <trkpt lat="45.32615" lon="6.21134">
        <ele>1849.4000244141</ele>
        <time>2014-03-02T15:34:43.000Z</time>
      </trkpt>
      <trkpt lat="45.32615" lon="6.21134">
        <ele>1849.4000244141</ele>
        <time>2014-03-02T15:34:46.000Z</time>
      </trkpt>
      <trkpt lat="45.32615" lon="6.21134">
        <ele>1849.4000244141</ele>
        <time>2014-03-02T15:34:47.000Z</time>
      </trkpt>
      <trkpt lat="45.32615" lon="6.21134">
        <ele>1849.4000244141</ele>
        <time>2014-03-02T15:34:48.000Z</time>
      </trkpt>
      <trkpt lat="45.32615" lon="6.21134">
        <ele>1849.4000244141</ele>
        <time>2014-03-02T15:34:49.000Z</time>
      </trkpt>
      <trkpt lat="45.32615" lon="6.21134">
        <ele>1849.4000244141</ele>
        <time>2014-03-02T15:34:53.000Z</time>
      </trkpt>
      <trkpt lat="45.32615" lon="6.21134">
        <ele>1849.4000244141</ele>
        <time>2014-03-02T15:34:54.000Z</time>
      </trkpt>
      <trkpt lat="45.32617" lon="6.21132">
        <ele>1849.5999755859</ele>
        <time>2014-03-02T15:34:55.000Z</time>
      </trkpt>
      <trkpt lat="45.3262" lon="6.21132">
        <ele>1849.4000244141</ele>
        <time>2014-03-02T15:34:56.000Z</time>
      </trkpt>
      <trkpt lat="45.32625" lon="6.21129">
        <ele>1849.4000244141</ele>
        <time>2014-03-02T15:34:57.000Z</time>
      </trkpt>
      <trkpt lat="45.32629" lon="6.21127">
        <ele>1849.4000244141</ele>
        <time>2014-03-02T15:34:58.000Z</time>
      </trkpt>
      <trkpt lat="45.32632" lon="6.21126">
        <ele>1849.8000488281</ele>
        <time>2014-03-02T15:34:59.000Z</time>
      </trkpt>
      <trkpt lat="45.32634" lon="6.21125">
        <ele>1851.1999511719</ele>
        <time>2014-03-02T15:35:00.000Z</time>
      </trkpt>
      <trkpt lat="45.32637" lon="6.21125">
        <ele>1852.4000244141</ele>
        <time>2014-03-02T15:35:01.000Z</time>
      </trkpt>
      <trkpt lat="45.32639" lon="6.21126">
        <ele>1853.1999511719</ele>
        <time>2014-03-02T15:35:02.000Z</time>
      </trkpt>
      <trkpt lat="45.3264" lon="6.21127">
        <ele>1854</ele>
        <time>2014-03-02T15:35:03.000Z</time>
      </trkpt>
      <trkpt lat="45.3264" lon="6.21129">
        <ele>1853.5999755859</ele>
        <time>2014-03-02T15:35:04.000Z</time>
      </trkpt>
      <trkpt lat="45.32641" lon="6.21132">
        <ele>1853.4000244141</ele>
        <time>2014-03-02T15:35:05.000Z</time>
      </trkpt>
      <trkpt lat="45.32641" lon="6.21135">
        <ele>1853.1999511719</ele>
        <time>2014-03-02T15:35:06.000Z</time>
      </trkpt>
      <trkpt lat="45.32641" lon="6.21138">
        <ele>1853</ele>
        <time>2014-03-02T15:35:07.000Z</time>
      </trkpt>
      <trkpt lat="45.32641" lon="6.21141">
        <ele>1852.5999755859</ele>
        <time>2014-03-02T15:35:08.000Z</time>
      </trkpt>
      <trkpt lat="45.32641" lon="6.21144">
        <ele>1852</ele>
        <time>2014-03-02T15:35:09.000Z</time>
      </trkpt>
      <trkpt lat="45.3264" lon="6.21147">
        <ele>1851.1999511719</ele>
        <time>2014-03-02T15:35:10.000Z</time>
      </trkpt>
      <trkpt lat="45.32639" lon="6.21151">
        <ele>1850.1999511719</ele>
        <time>2014-03-02T15:35:11.000Z</time>
      </trkpt>
      <trkpt lat="45.32638" lon="6.21155">
        <ele>1849</ele>
        <time>2014-03-02T15:35:12.000Z</time>
      </trkpt>
      <trkpt lat="45.32636" lon="6.21159">
        <ele>1847.5999755859</ele>
        <time>2014-03-02T15:35:13.000Z</time>
      </trkpt>
      <trkpt lat="45.32634" lon="6.21164">
        <ele>1845.8000488281</ele>
        <time>2014-03-02T15:35:14.000Z</time>
      </trkpt>
      <trkpt lat="45.32632" lon="6.21169">
        <ele>1843.8000488281</ele>
        <time>2014-03-02T15:35:15.000Z</time>
      </trkpt>
      <trkpt lat="45.3263" lon="6.21174">
        <ele>1841.8000488281</ele>
        <time>2014-03-02T15:35:16.000Z</time>
      </trkpt>
      <trkpt lat="45.32627" lon="6.2118">
        <ele>1840.8000488281</ele>
        <time>2014-03-02T15:35:17.000Z</time>
      </trkpt>
      <trkpt lat="45.32624" lon="6.21186">
        <ele>1840</ele>
        <time>2014-03-02T15:35:18.000Z</time>
      </trkpt>
      <trkpt lat="45.32622" lon="6.21191">
        <ele>1839</ele>
        <time>2014-03-02T15:35:19.000Z</time>
      </trkpt>
      <trkpt lat="45.32619" lon="6.21196">
        <ele>1838.1999511719</ele>
        <time>2014-03-02T15:35:20.000Z</time>
      </trkpt>
      <trkpt lat="45.32617" lon="6.212">
        <ele>1837.5999755859</ele>
        <time>2014-03-02T15:35:21.000Z</time>
      </trkpt>
      <trkpt lat="45.32615" lon="6.21204">
        <ele>1837</ele>
        <time>2014-03-02T15:35:22.000Z</time>
      </trkpt>
      <trkpt lat="45.32613" lon="6.21207">
        <ele>1836.5999755859</ele>
        <time>2014-03-02T15:35:23.000Z</time>
      </trkpt>
      <trkpt lat="45.32611" lon="6.2121">
        <ele>1835.8000488281</ele>
        <time>2014-03-02T15:35:24.000Z</time>
      </trkpt>
      <trkpt lat="45.32609" lon="6.21214">
        <ele>1834.5999755859</ele>
        <time>2014-03-02T15:35:25.000Z</time>
      </trkpt>
      <trkpt lat="45.32606" lon="6.21218">
        <ele>1833.1999511719</ele>
        <time>2014-03-02T15:35:26.000Z</time>
      </trkpt>
      <trkpt lat="45.32603" lon="6.21222">
        <ele>1831.5999755859</ele>
        <time>2014-03-02T15:35:27.000Z</time>
      </trkpt>
      <trkpt lat="45.326" lon="6.21227">
        <ele>1830</ele>
        <time>2014-03-02T15:35:28.000Z</time>
      </trkpt>
      <trkpt lat="45.32598" lon="6.21232">
        <ele>1829</ele>
        <time>2014-03-02T15:35:29.000Z</time>
      </trkpt>
      <trkpt lat="45.32597" lon="6.21238">
        <ele>1828.4000244141</ele>
        <time>2014-03-02T15:35:30.000Z</time>
      </trkpt>
      <trkpt lat="45.32595" lon="6.21247">
        <ele>1827.5999755859</ele>
        <time>2014-03-02T15:35:31.000Z</time>
      </trkpt>
      <trkpt lat="45.32595" lon="6.21258">
        <ele>1826.4000244141</ele>
        <time>2014-03-02T15:35:32.000Z</time>
      </trkpt>
      <trkpt lat="45.32594" lon="6.2127">
        <ele>1825.4000244141</ele>
        <time>2014-03-02T15:35:33.000Z</time>
      </trkpt>
      <trkpt lat="45.32594" lon="6.21281">
        <ele>1823.4000244141</ele>
        <time>2014-03-02T15:35:34.000Z</time>
      </trkpt>
      <trkpt lat="45.32594" lon="6.21291">
        <ele>1820.4000244141</ele>
        <time>2014-03-02T15:35:35.000Z</time>
      </trkpt>
      <trkpt lat="45.32594" lon="6.21301">
        <ele>1817.4000244141</ele>
        <time>2014-03-02T15:35:36.000Z</time>
      </trkpt>
      <trkpt lat="45.32592" lon="6.21311">
        <ele>1814.1999511719</ele>
        <time>2014-03-02T15:35:37.000Z</time>
      </trkpt>
      <trkpt lat="45.32589" lon="6.2132">
        <ele>1813.5999755859</ele>
        <time>2014-03-02T15:35:38.000Z</time>
      </trkpt>
      <trkpt lat="45.32588" lon="6.21333">
        <ele>1814.4000244141</ele>
        <time>2014-03-02T15:35:39.000Z</time>
      </trkpt>
      <trkpt lat="45.32588" lon="6.21348">
        <ele>1815.8000488281</ele>
        <time>2014-03-02T15:35:40.000Z</time>
      </trkpt>
      <trkpt lat="45.32588" lon="6.21362">
        <ele>1815.4000244141</ele>
        <time>2014-03-02T15:35:41.000Z</time>
      </trkpt>
      <trkpt lat="45.32588" lon="6.21372">
        <ele>1814.1999511719</ele>
        <time>2014-03-02T15:35:42.000Z</time>
      </trkpt>
      <trkpt lat="45.32585" lon="6.21383">
        <ele>1812</ele>
        <time>2014-03-02T15:35:43.000Z</time>
      </trkpt>
      <trkpt lat="45.32584" lon="6.21395">
        <ele>1810</ele>
        <time>2014-03-02T15:35:44.000Z</time>
      </trkpt>
      <trkpt lat="45.3258" lon="6.21412">
        <ele>1808</ele>
        <time>2014-03-02T15:35:45.000Z</time>
      </trkpt>
      <trkpt lat="45.32578" lon="6.21429">
        <ele>1805.8000488281</ele>
        <time>2014-03-02T15:35:46.000Z</time>
      </trkpt>
      <trkpt lat="45.32575" lon="6.21446">
        <ele>1802.8000488281</ele>
        <time>2014-03-02T15:35:47.000Z</time>
      </trkpt>
      <trkpt lat="45.32572" lon="6.21462">
        <ele>1799.8000488281</ele>
        <time>2014-03-02T15:35:48.000Z</time>
      </trkpt>
      <trkpt lat="45.32569" lon="6.21476">
        <ele>1796.8000488281</ele>
        <time>2014-03-02T15:35:49.000Z</time>
      </trkpt>
      <trkpt lat="45.32567" lon="6.2149">
        <ele>1795.5999755859</ele>
        <time>2014-03-02T15:35:50.000Z</time>
      </trkpt>
      <trkpt lat="45.32564" lon="6.21502">
        <ele>1794.4000244141</ele>
        <time>2014-03-02T15:35:51.000Z</time>
      </trkpt>
      <trkpt lat="45.32561" lon="6.21512">
        <ele>1792.4000244141</ele>
        <time>2014-03-02T15:35:52.000Z</time>
      </trkpt>
      <trkpt lat="45.32558" lon="6.21522">
        <ele>1790.4000244141</ele>
        <time>2014-03-02T15:35:53.000Z</time>
      </trkpt>
      <trkpt lat="45.32556" lon="6.21532">
        <ele>1788.5999755859</ele>
        <time>2014-03-02T15:35:54.000Z</time>
      </trkpt>
      <trkpt lat="45.32553" lon="6.21543">
        <ele>1787</ele>
        <time>2014-03-02T15:35:55.000Z</time>
      </trkpt>
      <trkpt lat="45.32551" lon="6.21553">
        <ele>1785.5999755859</ele>
        <time>2014-03-02T15:35:56.000Z</time>
      </trkpt>
      <trkpt lat="45.32549" lon="6.21562">
        <ele>1784</ele>
        <time>2014-03-02T15:35:57.000Z</time>
      </trkpt>
      <trkpt lat="45.32547" lon="6.21572">
        <ele>1783.1999511719</ele>
        <time>2014-03-02T15:35:58.000Z</time>
      </trkpt>
      <trkpt lat="45.32546" lon="6.21582">
        <ele>1783.4000244141</ele>
        <time>2014-03-02T15:35:59.000Z</time>
      </trkpt>
      <trkpt lat="45.32546" lon="6.21592">
        <ele>1783.5999755859</ele>
        <time>2014-03-02T15:36:00.000Z</time>
      </trkpt>
      <trkpt lat="45.32545" lon="6.21602">
        <ele>1783.8000488281</ele>
        <time>2014-03-02T15:36:01.000Z</time>
      </trkpt>
      <trkpt lat="45.32545" lon="6.21611">
        <ele>1784</ele>
        <time>2014-03-02T15:36:02.000Z</time>
      </trkpt>
      <trkpt lat="45.32546" lon="6.21621">
        <ele>1784.4000244141</ele>
        <time>2014-03-02T15:36:03.000Z</time>
      </trkpt>
      <trkpt lat="45.32547" lon="6.21629">
        <ele>1784.5999755859</ele>
        <time>2014-03-02T15:36:04.000Z</time>
      </trkpt>
      <trkpt lat="45.32547" lon="6.21637">
        <ele>1784.8000488281</ele>
        <time>2014-03-02T15:36:05.000Z</time>
      </trkpt>
      <trkpt lat="45.32548" lon="6.21644">
        <ele>1785.5999755859</ele>
        <time>2014-03-02T15:36:06.000Z</time>
      </trkpt>
      <trkpt lat="45.32549" lon="6.21649">
        <ele>1786.1999511719</ele>
        <time>2014-03-02T15:36:07.000Z</time>
      </trkpt>
      <trkpt lat="45.3255" lon="6.21654">
        <ele>1786.5999755859</ele>
        <time>2014-03-02T15:36:08.000Z</time>
      </trkpt>
      <trkpt lat="45.32551" lon="6.21658">
        <ele>1787.1999511719</ele>
        <time>2014-03-02T15:36:09.000Z</time>
      </trkpt>
      <trkpt lat="45.32552" lon="6.21662">
        <ele>1787.5999755859</ele>
        <time>2014-03-02T15:36:10.000Z</time>
      </trkpt>
      <trkpt lat="45.32552" lon="6.21666">
        <ele>1788</ele>
        <time>2014-03-02T15:36:11.000Z</time>
      </trkpt>
      <trkpt lat="45.32553" lon="6.21669">
        <ele>1788.1999511719</ele>
        <time>2014-03-02T15:36:12.000Z</time>
      </trkpt>
      <trkpt lat="45.32554" lon="6.21673">
        <ele>1788.5999755859</ele>
        <time>2014-03-02T15:36:13.000Z</time>
      </trkpt>
      <trkpt lat="45.32554" lon="6.21675">
        <ele>1788.8000488281</ele>
        <time>2014-03-02T15:36:14.000Z</time>
      </trkpt>
      <trkpt lat="45.32554" lon="6.21678">
        <ele>1788.8000488281</ele>
        <time>2014-03-02T15:36:15.000Z</time>
      </trkpt>
      <trkpt lat="45.32555" lon="6.21681">
        <ele>1788.8000488281</ele>
        <time>2014-03-02T15:36:16.000Z</time>
      </trkpt>
      <trkpt lat="45.32555" lon="6.21683">
        <ele>1788.5999755859</ele>
        <time>2014-03-02T15:36:17.000Z</time>
      </trkpt>
      <trkpt lat="45.32555" lon="6.21685">
        <ele>1788.5999755859</ele>
        <time>2014-03-02T15:36:18.000Z</time>
      </trkpt>
      <trkpt lat="45.32555" lon="6.21689">
        <ele>1788.4000244141</ele>
        <time>2014-03-02T15:36:19.000Z</time>
      </trkpt>
      <trkpt lat="45.32555" lon="6.21692">
        <ele>1788.1999511719</ele>
        <time>2014-03-02T15:36:20.000Z</time>
      </trkpt>
      <trkpt lat="45.32554" lon="6.21694">
        <ele>1788</ele>
        <time>2014-03-02T15:36:21.000Z</time>
      </trkpt>
      <trkpt lat="45.32554" lon="6.21696">
        <ele>1787.8000488281</ele>
        <time>2014-03-02T15:36:22.000Z</time>
      </trkpt>
      <trkpt lat="45.32554" lon="6.21697">
        <ele>1787.5999755859</ele>
        <time>2014-03-02T15:36:23.000Z</time>
      </trkpt>
      <trkpt lat="45.32554" lon="6.21699">
        <ele>1787.4000244141</ele>
        <time>2014-03-02T15:36:24.000Z</time>
      </trkpt>
      <trkpt lat="45.32554" lon="6.217">
        <ele>1787.1999511719</ele>
        <time>2014-03-02T15:36:25.000Z</time>
      </trkpt>
      <trkpt lat="45.32554" lon="6.217">
        <ele>1787.1999511719</ele>
        <time>2014-03-02T15:36:26.000Z</time>
      </trkpt>
      <trkpt lat="45.32554" lon="6.21701">
        <ele>1787.4000244141</ele>
        <time>2014-03-02T15:36:27.000Z</time>
      </trkpt>
      <trkpt lat="45.32554" lon="6.21702">
        <ele>1787.4000244141</ele>
        <time>2014-03-02T15:36:28.000Z</time>
      </trkpt>
      <trkpt lat="45.32554" lon="6.21704">
        <ele>1787.4000244141</ele>
        <time>2014-03-02T15:36:29.000Z</time>
      </trkpt>
      <trkpt lat="45.32554" lon="6.21703">
        <ele>1787.4000244141</ele>
        <time>2014-03-02T15:36:30.000Z</time>
      </trkpt>
      <trkpt lat="45.32554" lon="6.21703">
        <ele>1787.4000244141</ele>
        <time>2014-03-02T15:36:31.000Z</time>
      </trkpt>
      <trkpt lat="45.32554" lon="6.21703">
        <ele>1787.4000244141</ele>
        <time>2014-03-02T15:36:32.000Z</time>
      </trkpt>
      <trkpt lat="45.32554" lon="6.21703">
        <ele>1787.4000244141</ele>
        <time>2014-03-02T15:36:33.000Z</time>
      </trkpt>
      <trkpt lat="45.32554" lon="6.21703">
        <ele>1787.4000244141</ele>
        <time>2014-03-02T15:36:34.000Z</time>
      </trkpt>
      <trkpt lat="45.32554" lon="6.21703">
        <ele>1787.4000244141</ele>
        <time>2014-03-02T15:36:35.000Z</time>
      </trkpt>
      <trkpt lat="45.32554" lon="6.21703">
        <ele>1787.4000244141</ele>
        <time>2014-03-02T15:36:36.000Z</time>
      </trkpt>
      <trkpt lat="45.32554" lon="6.21703">
        <ele>1787.4000244141</ele>
        <time>2014-03-02T15:36:37.000Z</time>
      </trkpt>
      <trkpt lat="45.32554" lon="6.21703">
        <ele>1787.4000244141</ele>
        <time>2014-03-02T15:36:41.000Z</time>
      </trkpt>
      <trkpt lat="45.32554" lon="6.21703">
        <ele>1787.4000244141</ele>
        <time>2014-03-02T15:36:43.000Z</time>
      </trkpt>
      <trkpt lat="45.32554" lon="6.21703">
        <ele>1787.4000244141</ele>
        <time>2014-03-02T15:36:44.000Z</time>
      </trkpt>
      <trkpt lat="45.32554" lon="6.21703">
        <ele>1787.4000244141</ele>
        <time>2014-03-02T15:36:45.000Z</time>
      </trkpt>
      <trkpt lat="45.32554" lon="6.21703">
        <ele>1787.4000244141</ele>
        <time>2014-03-02T15:36:46.000Z</time>
      </trkpt>
      <trkpt lat="45.32554" lon="6.21703">
        <ele>1787.4000244141</ele>
        <time>2014-03-02T15:36:47.000Z</time>
      </trkpt>
      <trkpt lat="45.32554" lon="6.21703">
        <ele>1787.4000244141</ele>
        <time>2014-03-02T15:36:48.000Z</time>
      </trkpt>
      <trkpt lat="45.32554" lon="6.21703">
        <ele>1787.4000244141</ele>
        <time>2014-03-02T15:36:49.000Z</time>
      </trkpt>
      <trkpt lat="45.32554" lon="6.21703">
        <ele>1787.4000244141</ele>
        <time>2014-03-02T15:36:50.000Z</time>
      </trkpt>
      <trkpt lat="45.32554" lon="6.21703">
        <ele>1787.4000244141</ele>
        <time>2014-03-02T15:36:52.000Z</time>
      </trkpt>
      <trkpt lat="45.32554" lon="6.21703">
        <ele>1787.4000244141</ele>
        <time>2014-03-02T15:36:53.000Z</time>
      </trkpt>
      <trkpt lat="45.32554" lon="6.21703">
        <ele>1787.4000244141</ele>
        <time>2014-03-02T15:36:54.000Z</time>
      </trkpt>
      <trkpt lat="45.32554" lon="6.21703">
        <ele>1787.4000244141</ele>
        <time>2014-03-02T15:36:55.000Z</time>
      </trkpt>
      <trkpt lat="45.32554" lon="6.21703">
        <ele>1787.4000244141</ele>
        <time>2014-03-02T15:36:56.000Z</time>
      </trkpt>
      <trkpt lat="45.32554" lon="6.21703">
        <ele>1787.4000244141</ele>
        <time>2014-03-02T15:36:58.000Z</time>
      </trkpt>
      <trkpt lat="45.32554" lon="6.21703">
        <ele>1787.4000244141</ele>
        <time>2014-03-02T15:36:59.000Z</time>
      </trkpt>
      <trkpt lat="45.32554" lon="6.21703">
        <ele>1787.4000244141</ele>
        <time>2014-03-02T15:37:00.000Z</time>
      </trkpt>
      <trkpt lat="45.32554" lon="6.21703">
        <ele>1787.4000244141</ele>
        <time>2014-03-02T15:37:01.000Z</time>
      </trkpt>
      <trkpt lat="45.32554" lon="6.21703">
        <ele>1787.4000244141</ele>
        <time>2014-03-02T15:37:02.000Z</time>
      </trkpt>
      <trkpt lat="45.32554" lon="6.21703">
        <ele>1787.4000244141</ele>
        <time>2014-03-02T15:37:03.000Z</time>
      </trkpt>
      <trkpt lat="45.32554" lon="6.21703">
        <ele>1787.4000244141</ele>
        <time>2014-03-02T15:37:04.000Z</time>
      </trkpt>
      <trkpt lat="45.32554" lon="6.21704">
        <ele>1787</ele>
        <time>2014-03-02T15:37:05.000Z</time>
      </trkpt>
      <trkpt lat="45.32554" lon="6.21706">
        <ele>1786.4000244141</ele>
        <time>2014-03-02T15:37:06.000Z</time>
      </trkpt>
      <trkpt lat="45.32553" lon="6.21708">
        <ele>1786</ele>
        <time>2014-03-02T15:37:07.000Z</time>
      </trkpt>
      <trkpt lat="45.32553" lon="6.21711">
        <ele>1785.4000244141</ele>
        <time>2014-03-02T15:37:08.000Z</time>
      </trkpt>
      <trkpt lat="45.32552" lon="6.21716">
        <ele>1784.8000488281</ele>
        <time>2014-03-02T15:37:09.000Z</time>
      </trkpt>
      <trkpt lat="45.32551" lon="6.2172">
        <ele>1784</ele>
        <time>2014-03-02T15:37:10.000Z</time>
      </trkpt>
      <trkpt lat="45.3255" lon="6.21726">
        <ele>1782.4000244141</ele>
        <time>2014-03-02T15:37:11.000Z</time>
      </trkpt>
      <trkpt lat="45.32548" lon="6.21731">
        <ele>1781</ele>
        <time>2014-03-02T15:37:12.000Z</time>
      </trkpt>
      <trkpt lat="45.32547" lon="6.21737">
        <ele>1780</ele>
        <time>2014-03-02T15:37:13.000Z</time>
      </trkpt>
      <trkpt lat="45.32546" lon="6.21744">
        <ele>1779.8000488281</ele>
        <time>2014-03-02T15:37:14.000Z</time>
      </trkpt>
      <trkpt lat="45.32545" lon="6.21753">
        <ele>1779.5999755859</ele>
        <time>2014-03-02T15:37:15.000Z</time>
      </trkpt>
      <trkpt lat="45.32544" lon="6.21763">
        <ele>1779.1999511719</ele>
        <time>2014-03-02T15:37:16.000Z</time>
      </trkpt>
      <trkpt lat="45.32541" lon="6.21773">
        <ele>1778.8000488281</ele>
        <time>2014-03-02T15:37:17.000Z</time>
      </trkpt>
      <trkpt lat="45.32538" lon="6.21785">
        <ele>1778.1999511719</ele>
        <time>2014-03-02T15:37:18.000Z</time>
      </trkpt>
      <trkpt lat="45.32535" lon="6.21795">
        <ele>1777.4000244141</ele>
        <time>2014-03-02T15:37:19.000Z</time>
      </trkpt>
      <trkpt lat="45.32531" lon="6.21806">
        <ele>1775</ele>
        <time>2014-03-02T15:37:20.000Z</time>
      </trkpt>
      <trkpt lat="45.32528" lon="6.21817">
        <ele>1772.1999511719</ele>
        <time>2014-03-02T15:37:21.000Z</time>
      </trkpt>
      <trkpt lat="45.32525" lon="6.21827">
        <ele>1770.4000244141</ele>
        <time>2014-03-02T15:37:22.000Z</time>
      </trkpt>
      <trkpt lat="45.32523" lon="6.21838">
        <ele>1768.5999755859</ele>
        <time>2014-03-02T15:37:23.000Z</time>
      </trkpt>
      <trkpt lat="45.32521" lon="6.21849">
        <ele>1767.1999511719</ele>
        <time>2014-03-02T15:37:24.000Z</time>
      </trkpt>
      <trkpt lat="45.32519" lon="6.21858">
        <ele>1765.8000488281</ele>
        <time>2014-03-02T15:37:25.000Z</time>
      </trkpt>
      <trkpt lat="45.32518" lon="6.21869">
        <ele>1764.8000488281</ele>
        <time>2014-03-02T15:37:26.000Z</time>
      </trkpt>
      <trkpt lat="45.32517" lon="6.21881">
        <ele>1764.5999755859</ele>
        <time>2014-03-02T15:37:27.000Z</time>
      </trkpt>
      <trkpt lat="45.32517" lon="6.21893">
        <ele>1764.4000244141</ele>
        <time>2014-03-02T15:37:28.000Z</time>
      </trkpt>
      <trkpt lat="45.32517" lon="6.21905">
        <ele>1765</ele>
        <time>2014-03-02T15:37:29.000Z</time>
      </trkpt>
      <trkpt lat="45.32517" lon="6.21917">
        <ele>1765.5999755859</ele>
        <time>2014-03-02T15:37:30.000Z</time>
      </trkpt>
      <trkpt lat="45.32517" lon="6.21929">
        <ele>1766.1999511719</ele>
        <time>2014-03-02T15:37:31.000Z</time>
      </trkpt>
      <trkpt lat="45.32515" lon="6.21939">
        <ele>1766.1999511719</ele>
        <time>2014-03-02T15:37:32.000Z</time>
      </trkpt>
      <trkpt lat="45.32514" lon="6.2195">
        <ele>1766.1999511719</ele>
        <time>2014-03-02T15:37:33.000Z</time>
      </trkpt>
      <trkpt lat="45.32513" lon="6.2196">
        <ele>1765.5999755859</ele>
        <time>2014-03-02T15:37:34.000Z</time>
      </trkpt>
      <trkpt lat="45.32512" lon="6.21968">
        <ele>1765.1999511719</ele>
        <time>2014-03-02T15:37:35.000Z</time>
      </trkpt>
      <trkpt lat="45.32511" lon="6.21973">
        <ele>1764.8000488281</ele>
        <time>2014-03-02T15:37:36.000Z</time>
      </trkpt>
      <trkpt lat="45.32511" lon="6.21978">
        <ele>1764.5999755859</ele>
        <time>2014-03-02T15:37:37.000Z</time>
      </trkpt>
      <trkpt lat="45.3251" lon="6.21982">
        <ele>1764.5999755859</ele>
        <time>2014-03-02T15:37:38.000Z</time>
      </trkpt>
      <trkpt lat="45.3251" lon="6.21987">
        <ele>1764.8000488281</ele>
        <time>2014-03-02T15:37:39.000Z</time>
      </trkpt>
      <trkpt lat="45.3251" lon="6.21993">
        <ele>1765.1999511719</ele>
        <time>2014-03-02T15:37:40.000Z</time>
      </trkpt>
      <trkpt lat="45.3251" lon="6.21997">
        <ele>1765.4000244141</ele>
        <time>2014-03-02T15:37:41.000Z</time>
      </trkpt>
      <trkpt lat="45.3251" lon="6.22003">
        <ele>1765.8000488281</ele>
        <time>2014-03-02T15:37:42.000Z</time>
      </trkpt>
      <trkpt lat="45.32511" lon="6.22008">
        <ele>1766.4000244141</ele>
        <time>2014-03-02T15:37:43.000Z</time>
      </trkpt>
      <trkpt lat="45.32511" lon="6.22013">
        <ele>1766.8000488281</ele>
        <time>2014-03-02T15:37:44.000Z</time>
      </trkpt>
      <trkpt lat="45.32511" lon="6.22018">
        <ele>1767</ele>
        <time>2014-03-02T15:37:45.000Z</time>
      </trkpt>
      <trkpt lat="45.3251" lon="6.22023">
        <ele>1767</ele>
        <time>2014-03-02T15:37:46.000Z</time>
      </trkpt>
      <trkpt lat="45.3251" lon="6.22027">
        <ele>1766.8000488281</ele>
        <time>2014-03-02T15:37:47.000Z</time>
      </trkpt>
      <trkpt lat="45.32509" lon="6.22032">
        <ele>1766.5999755859</ele>
        <time>2014-03-02T15:37:48.000Z</time>
      </trkpt>
      <trkpt lat="45.32508" lon="6.22036">
        <ele>1766.4000244141</ele>
        <time>2014-03-02T15:37:49.000Z</time>
      </trkpt>
      <trkpt lat="45.32507" lon="6.22041">
        <ele>1766.1999511719</ele>
        <time>2014-03-02T15:37:50.000Z</time>
      </trkpt>
      <trkpt lat="45.32507" lon="6.22045">
        <ele>1766.1999511719</ele>
        <time>2014-03-02T15:37:51.000Z</time>
      </trkpt>
      <trkpt lat="45.32506" lon="6.22049">
        <ele>1766</ele>
        <time>2014-03-02T15:37:52.000Z</time>
      </trkpt>
      <trkpt lat="45.32506" lon="6.22052">
        <ele>1766</ele>
        <time>2014-03-02T15:37:53.000Z</time>
      </trkpt>
      <trkpt lat="45.32506" lon="6.22056">
        <ele>1766</ele>
        <time>2014-03-02T15:37:54.000Z</time>
      </trkpt>
      <trkpt lat="45.32505" lon="6.22059">
        <ele>1765.8000488281</ele>
        <time>2014-03-02T15:37:55.000Z</time>
      </trkpt>
      <trkpt lat="45.32505" lon="6.22061">
        <ele>1765.8000488281</ele>
        <time>2014-03-02T15:37:56.000Z</time>
      </trkpt>
      <trkpt lat="45.32504" lon="6.22064">
        <ele>1765.5999755859</ele>
        <time>2014-03-02T15:37:57.000Z</time>
      </trkpt>
      <trkpt lat="45.32504" lon="6.22066">
        <ele>1765.1999511719</ele>
        <time>2014-03-02T15:37:58.000Z</time>
      </trkpt>
      <trkpt lat="45.32503" lon="6.22068">
        <ele>1765</ele>
        <time>2014-03-02T15:37:59.000Z</time>
      </trkpt>
      <trkpt lat="45.32502" lon="6.2207">
        <ele>1764.8000488281</ele>
        <time>2014-03-02T15:38:00.000Z</time>
      </trkpt>
      <trkpt lat="45.32502" lon="6.2207">
        <ele>1764.8000488281</ele>
        <time>2014-03-02T15:38:01.000Z</time>
      </trkpt>
      <trkpt lat="45.32502" lon="6.22071">
        <ele>1764.8000488281</ele>
        <time>2014-03-02T15:38:02.000Z</time>
      </trkpt>
      <trkpt lat="45.32502" lon="6.22072">
        <ele>1764.8000488281</ele>
        <time>2014-03-02T15:38:03.000Z</time>
      </trkpt>
      <trkpt lat="45.32502" lon="6.22072">
        <ele>1764.8000488281</ele>
        <time>2014-03-02T15:38:04.000Z</time>
      </trkpt>
      <trkpt lat="45.32502" lon="6.22072">
        <ele>1764.8000488281</ele>
        <time>2014-03-02T15:38:05.000Z</time>
      </trkpt>
      <trkpt lat="45.32502" lon="6.22072">
        <ele>1764.8000488281</ele>
        <time>2014-03-02T15:38:06.000Z</time>
      </trkpt>
      <trkpt lat="45.32502" lon="6.22072">
        <ele>1764.8000488281</ele>
        <time>2014-03-02T15:38:07.000Z</time>
      </trkpt>
      <trkpt lat="45.32502" lon="6.22072">
        <ele>1764.8000488281</ele>
        <time>2014-03-02T15:38:08.000Z</time>
      </trkpt>
      <trkpt lat="45.32501" lon="6.22073">
        <ele>1764.5999755859</ele>
        <time>2014-03-02T15:38:09.000Z</time>
      </trkpt>
      <trkpt lat="45.325" lon="6.22076">
        <ele>1764.1999511719</ele>
        <time>2014-03-02T15:38:10.000Z</time>
      </trkpt>
      <trkpt lat="45.32499" lon="6.22079">
        <ele>1763.8000488281</ele>
        <time>2014-03-02T15:38:11.000Z</time>
      </trkpt>
      <trkpt lat="45.32497" lon="6.22083">
        <ele>1763.4000244141</ele>
        <time>2014-03-02T15:38:12.000Z</time>
      </trkpt>
      <trkpt lat="45.32497" lon="6.22089">
        <ele>1763.1999511719</ele>
        <time>2014-03-02T15:38:13.000Z</time>
      </trkpt>
      <trkpt lat="45.32496" lon="6.22095">
        <ele>1763.1999511719</ele>
        <time>2014-03-02T15:38:14.000Z</time>
      </trkpt>
      <trkpt lat="45.32496" lon="6.221">
        <ele>1762.4000244141</ele>
        <time>2014-03-02T15:38:15.000Z</time>
      </trkpt>
      <trkpt lat="45.32495" lon="6.22105">
        <ele>1761.1999511719</ele>
        <time>2014-03-02T15:38:16.000Z</time>
      </trkpt>
      <trkpt lat="45.32492" lon="6.22111">
        <ele>1758.8000488281</ele>
        <time>2014-03-02T15:38:17.000Z</time>
      </trkpt>
      <trkpt lat="45.32487" lon="6.22117">
        <ele>1755.4000244141</ele>
        <time>2014-03-02T15:38:18.000Z</time>
      </trkpt>
      <trkpt lat="45.32484" lon="6.22127">
        <ele>1752.4000244141</ele>
        <time>2014-03-02T15:38:19.000Z</time>
      </trkpt>
      <trkpt lat="45.32482" lon="6.22137">
        <ele>1750.4000244141</ele>
        <time>2014-03-02T15:38:20.000Z</time>
      </trkpt>
      <trkpt lat="45.3248" lon="6.22146">
        <ele>1748</ele>
        <time>2014-03-02T15:38:21.000Z</time>
      </trkpt>
      <trkpt lat="45.32479" lon="6.22157">
        <ele>1746.8000488281</ele>
        <time>2014-03-02T15:38:22.000Z</time>
      </trkpt>
      <trkpt lat="45.32477" lon="6.22168">
        <ele>1745.4000244141</ele>
        <time>2014-03-02T15:38:23.000Z</time>
      </trkpt>
      <trkpt lat="45.32476" lon="6.22178">
        <ele>1743.5999755859</ele>
        <time>2014-03-02T15:38:24.000Z</time>
      </trkpt>
      <trkpt lat="45.32473" lon="6.22189">
        <ele>1741.4000244141</ele>
        <time>2014-03-02T15:38:25.000Z</time>
      </trkpt>
      <trkpt lat="45.32471" lon="6.222">
        <ele>1739.4000244141</ele>
        <time>2014-03-02T15:38:26.000Z</time>
      </trkpt>
      <trkpt lat="45.32468" lon="6.2221">
        <ele>1736.8000488281</ele>
        <time>2014-03-02T15:38:27.000Z</time>
      </trkpt>
      <trkpt lat="45.32467" lon="6.22221">
        <ele>1735.4000244141</ele>
        <time>2014-03-02T15:38:28.000Z</time>
      </trkpt>
      <trkpt lat="45.32466" lon="6.22231">
        <ele>1733.8000488281</ele>
        <time>2014-03-02T15:38:29.000Z</time>
      </trkpt>
      <trkpt lat="45.32465" lon="6.2224">
        <ele>1731.5999755859</ele>
        <time>2014-03-02T15:38:30.000Z</time>
      </trkpt>
      <trkpt lat="45.32464" lon="6.22249">
        <ele>1728.8000488281</ele>
        <time>2014-03-02T15:38:31.000Z</time>
      </trkpt>
      <trkpt lat="45.32463" lon="6.22257">
        <ele>1726.8000488281</ele>
        <time>2014-03-02T15:38:32.000Z</time>
      </trkpt>
      <trkpt lat="45.32462" lon="6.22262">
        <ele>1725.8000488281</ele>
        <time>2014-03-02T15:38:33.000Z</time>
      </trkpt>
      <trkpt lat="45.32462" lon="6.22267">
        <ele>1724.8000488281</ele>
        <time>2014-03-02T15:38:34.000Z</time>
      </trkpt>
      <trkpt lat="45.32461" lon="6.22271">
        <ele>1723.5999755859</ele>
        <time>2014-03-02T15:38:35.000Z</time>
      </trkpt>
      <trkpt lat="45.32461" lon="6.22277">
        <ele>1722.4000244141</ele>
        <time>2014-03-02T15:38:36.000Z</time>
      </trkpt>
      <trkpt lat="45.32461" lon="6.22285">
        <ele>1720.8000488281</ele>
        <time>2014-03-02T15:38:37.000Z</time>
      </trkpt>
      <trkpt lat="45.32461" lon="6.22293">
        <ele>1719</ele>
        <time>2014-03-02T15:38:38.000Z</time>
      </trkpt>
      <trkpt lat="45.32459" lon="6.22299">
        <ele>1717.5999755859</ele>
        <time>2014-03-02T15:38:39.000Z</time>
      </trkpt>
      <trkpt lat="45.32456" lon="6.22305">
        <ele>1716.1999511719</ele>
        <time>2014-03-02T15:38:40.000Z</time>
      </trkpt>
      <trkpt lat="45.32455" lon="6.22314">
        <ele>1715</ele>
        <time>2014-03-02T15:38:41.000Z</time>
      </trkpt>
      <trkpt lat="45.32456" lon="6.22323">
        <ele>1712</ele>
        <time>2014-03-02T15:38:42.000Z</time>
      </trkpt>
      <trkpt lat="45.32456" lon="6.22331">
        <ele>1709.4000244141</ele>
        <time>2014-03-02T15:38:43.000Z</time>
      </trkpt>
      <trkpt lat="45.32457" lon="6.22339">
        <ele>1707</ele>
        <time>2014-03-02T15:38:44.000Z</time>
      </trkpt>
      <trkpt lat="45.32458" lon="6.22346">
        <ele>1704.5999755859</ele>
        <time>2014-03-02T15:38:45.000Z</time>
      </trkpt>
      <trkpt lat="45.32459" lon="6.22351">
        <ele>1703.1999511719</ele>
        <time>2014-03-02T15:38:46.000Z</time>
      </trkpt>
      <trkpt lat="45.3246" lon="6.2235">
        <ele>1703.1999511719</ele>
        <time>2014-03-02T15:38:47.000Z</time>
      </trkpt>
      <trkpt lat="45.32462" lon="6.22348">
        <ele>1704</ele>
        <time>2014-03-02T15:38:48.000Z</time>
      </trkpt>
      <trkpt lat="45.32464" lon="6.22347">
        <ele>1704</ele>
        <time>2014-03-02T15:38:49.000Z</time>
      </trkpt>
      <trkpt lat="45.32464" lon="6.22347">
        <ele>1704</ele>
        <time>2014-03-02T15:38:50.000Z</time>
      </trkpt>
      <trkpt lat="45.32464" lon="6.22347">
        <ele>1704</ele>
        <time>2014-03-02T15:38:51.000Z</time>
      </trkpt>
      <trkpt lat="45.32464" lon="6.22347">
        <ele>1704</ele>
        <time>2014-03-02T15:38:52.000Z</time>
      </trkpt>
      <trkpt lat="45.32464" lon="6.22347">
        <ele>1704</ele>
        <time>2014-03-02T15:38:53.000Z</time>
      </trkpt>
      <trkpt lat="45.32464" lon="6.22347">
        <ele>1704</ele>
        <time>2014-03-02T15:38:54.000Z</time>
      </trkpt>
      <trkpt lat="45.32464" lon="6.22347">
        <ele>1704</ele>
        <time>2014-03-02T15:38:55.000Z</time>
      </trkpt>
      <trkpt lat="45.32464" lon="6.22347">
        <ele>1704</ele>
        <time>2014-03-02T15:38:56.000Z</time>
      </trkpt>
      <trkpt lat="45.32464" lon="6.22347">
        <ele>1704</ele>
        <time>2014-03-02T15:38:57.000Z</time>
      </trkpt>
      <trkpt lat="45.32464" lon="6.22347">
        <ele>1704</ele>
        <time>2014-03-02T15:38:58.000Z</time>
      </trkpt>
      <trkpt lat="45.32464" lon="6.22347">
        <ele>1704</ele>
        <time>2014-03-02T15:38:59.000Z</time>
      </trkpt>
      <trkpt lat="45.32464" lon="6.22347">
        <ele>1704</ele>
        <time>2014-03-02T15:39:00.000Z</time>
      </trkpt>
      <trkpt lat="45.32464" lon="6.22347">
        <ele>1704</ele>
        <time>2014-03-02T15:39:01.000Z</time>
      </trkpt>
      <trkpt lat="45.32464" lon="6.22347">
        <ele>1704</ele>
        <time>2014-03-02T15:39:02.000Z</time>
      </trkpt>
      <trkpt lat="45.32464" lon="6.22347">
        <ele>1704</ele>
        <time>2014-03-02T15:39:03.000Z</time>
      </trkpt>
      <trkpt lat="45.32464" lon="6.22347">
        <ele>1704</ele>
        <time>2014-03-02T15:39:04.000Z</time>
      </trkpt>
      <trkpt lat="45.32464" lon="6.22349">
        <ele>1703.8000488281</ele>
        <time>2014-03-02T15:39:06.000Z</time>
      </trkpt>
      <trkpt lat="45.32463" lon="6.22352">
        <ele>1702.5999755859</ele>
        <time>2014-03-02T15:39:07.000Z</time>
      </trkpt>
      <trkpt lat="45.32461" lon="6.22356">
        <ele>1701.5999755859</ele>
        <time>2014-03-02T15:39:08.000Z</time>
      </trkpt>
      <trkpt lat="45.32458" lon="6.22358">
        <ele>1701.1999511719</ele>
        <time>2014-03-02T15:39:09.000Z</time>
      </trkpt>
      <trkpt lat="45.32456" lon="6.22358">
        <ele>1701.1999511719</ele>
        <time>2014-03-02T15:39:10.000Z</time>
      </trkpt>
      <trkpt lat="45.32453" lon="6.22359">
        <ele>1701</ele>
        <time>2014-03-02T15:39:11.000Z</time>
      </trkpt>
      <trkpt lat="45.32449" lon="6.2236">
        <ele>1700.8000488281</ele>
        <time>2014-03-02T15:39:12.000Z</time>
      </trkpt>
      <trkpt lat="45.32446" lon="6.22361">
        <ele>1700.5999755859</ele>
        <time>2014-03-02T15:39:13.000Z</time>
      </trkpt>
      <trkpt lat="45.32442" lon="6.22362">
        <ele>1700.4000244141</ele>
        <time>2014-03-02T15:39:14.000Z</time>
      </trkpt>
      <trkpt lat="45.32439" lon="6.22364">
        <ele>1700</ele>
        <time>2014-03-02T15:39:15.000Z</time>
      </trkpt>
      <trkpt lat="45.32435" lon="6.22367">
        <ele>1699.4000244141</ele>
        <time>2014-03-02T15:39:16.000Z</time>
      </trkpt>
      <trkpt lat="45.32432" lon="6.22371">
        <ele>1697.8000488281</ele>
        <time>2014-03-02T15:39:17.000Z</time>
      </trkpt>
      <trkpt lat="45.3243" lon="6.22377">
        <ele>1695.8000488281</ele>
        <time>2014-03-02T15:39:18.000Z</time>
      </trkpt>
      <trkpt lat="45.32427" lon="6.22382">
        <ele>1694</ele>
        <time>2014-03-02T15:39:19.000Z</time>
      </trkpt>
      <trkpt lat="45.32424" lon="6.22388">
        <ele>1691.5999755859</ele>
        <time>2014-03-02T15:39:20.000Z</time>
      </trkpt>
      <trkpt lat="45.32421" lon="6.22392">
        <ele>1690.1999511719</ele>
        <time>2014-03-02T15:39:21.000Z</time>
      </trkpt>
      <trkpt lat="45.32418" lon="6.22395">
        <ele>1689</ele>
        <time>2014-03-02T15:39:22.000Z</time>
      </trkpt>
      <trkpt lat="45.32417" lon="6.224">
        <ele>1687.1999511719</ele>
        <time>2014-03-02T15:39:23.000Z</time>
      </trkpt>
      <trkpt lat="45.32416" lon="6.22406">
        <ele>1685</ele>
        <time>2014-03-02T15:39:24.000Z</time>
      </trkpt>
      <trkpt lat="45.32416" lon="6.22409">
        <ele>1683.5999755859</ele>
        <time>2014-03-02T15:39:25.000Z</time>
      </trkpt>
      <trkpt lat="45.32414" lon="6.22412">
        <ele>1682.5999755859</ele>
        <time>2014-03-02T15:39:26.000Z</time>
      </trkpt>
      <trkpt lat="45.32414" lon="6.22413">
        <ele>1682.1999511719</ele>
        <time>2014-03-02T15:39:27.000Z</time>
      </trkpt>
      <trkpt lat="45.32414" lon="6.22413">
        <ele>1682</ele>
        <time>2014-03-02T15:39:28.000Z</time>
      </trkpt>
      <trkpt lat="45.32415" lon="6.22413">
        <ele>1682</ele>
        <time>2014-03-02T15:39:29.000Z</time>
      </trkpt>
      <trkpt lat="45.32415" lon="6.22413">
        <ele>1682</ele>
        <time>2014-03-02T15:39:30.000Z</time>
      </trkpt>
      <trkpt lat="45.32415" lon="6.22413">
        <ele>1682</ele>
        <time>2014-03-02T15:39:31.000Z</time>
      </trkpt>
      <trkpt lat="45.32415" lon="6.22413">
        <ele>1682</ele>
        <time>2014-03-02T15:39:32.000Z</time>
      </trkpt>
      <trkpt lat="45.32415" lon="6.22413">
        <ele>1682</ele>
        <time>2014-03-02T15:39:33.000Z</time>
      </trkpt>
      <trkpt lat="45.32415" lon="6.22413">
        <ele>1682</ele>
        <time>2014-03-02T15:39:34.000Z</time>
      </trkpt>
      <trkpt lat="45.32415" lon="6.22413">
        <ele>1682</ele>
        <time>2014-03-02T15:39:35.000Z</time>
      </trkpt>
      <trkpt lat="45.32415" lon="6.22413">
        <ele>1682</ele>
        <time>2014-03-02T15:39:36.000Z</time>
      </trkpt>
      <trkpt lat="45.32415" lon="6.22413">
        <ele>1682</ele>
        <time>2014-03-02T15:39:37.000Z</time>
      </trkpt>
      <trkpt lat="45.32415" lon="6.22413">
        <ele>1682</ele>
        <time>2014-03-02T15:39:38.000Z</time>
      </trkpt>
      <trkpt lat="45.32415" lon="6.22413">
        <ele>1682</ele>
        <time>2014-03-02T15:39:39.000Z</time>
      </trkpt>
      <trkpt lat="45.32415" lon="6.22413">
        <ele>1682</ele>
        <time>2014-03-02T15:39:40.000Z</time>
      </trkpt>
      <trkpt lat="45.32415" lon="6.22413">
        <ele>1682</ele>
        <time>2014-03-02T15:39:41.000Z</time>
      </trkpt>
      <trkpt lat="45.32415" lon="6.22413">
        <ele>1682</ele>
        <time>2014-03-02T15:39:42.000Z</time>
      </trkpt>
      <trkpt lat="45.32415" lon="6.22413">
        <ele>1682</ele>
        <time>2014-03-02T15:39:43.000Z</time>
      </trkpt>
      <trkpt lat="45.32415" lon="6.22414">
        <ele>1681.5999755859</ele>
        <time>2014-03-02T15:39:44.000Z</time>
      </trkpt>
      <trkpt lat="45.32417" lon="6.22412">
        <ele>1682.4000244141</ele>
        <time>2014-03-02T15:39:45.000Z</time>
      </trkpt>
      <trkpt lat="45.32417" lon="6.22412">
        <ele>1682.4000244141</ele>
        <time>2014-03-02T15:39:46.000Z</time>
      </trkpt>
      <trkpt lat="45.32417" lon="6.22412">
        <ele>1682.4000244141</ele>
        <time>2014-03-02T15:39:47.000Z</time>
      </trkpt>
      <trkpt lat="45.32417" lon="6.22412">
        <ele>1682.4000244141</ele>
        <time>2014-03-02T15:39:48.000Z</time>
      </trkpt>
      <trkpt lat="45.32417" lon="6.22412">
        <ele>1682.4000244141</ele>
        <time>2014-03-02T15:39:49.000Z</time>
      </trkpt>
      <trkpt lat="45.32416" lon="6.22414">
        <ele>1681.5999755859</ele>
        <time>2014-03-02T15:39:52.000Z</time>
      </trkpt>
      <trkpt lat="45.32417" lon="6.22418">
        <ele>1680</ele>
        <time>2014-03-02T15:39:53.000Z</time>
      </trkpt>
      <trkpt lat="45.32417" lon="6.2242">
        <ele>1679.4000244141</ele>
        <time>2014-03-02T15:39:54.000Z</time>
      </trkpt>
      <trkpt lat="45.32418" lon="6.22419">
        <ele>1679.5999755859</ele>
        <time>2014-03-02T15:39:55.000Z</time>
      </trkpt>
      <trkpt lat="45.32418" lon="6.22419">
        <ele>1679.5999755859</ele>
        <time>2014-03-02T15:39:56.000Z</time>
      </trkpt>
      <trkpt lat="45.32418" lon="6.22419">
        <ele>1679.5999755859</ele>
        <time>2014-03-02T15:39:57.000Z</time>
      </trkpt>
      <trkpt lat="45.32418" lon="6.22419">
        <ele>1679.5999755859</ele>
        <time>2014-03-02T15:39:58.000Z</time>
      </trkpt>
      <trkpt lat="45.32418" lon="6.22419">
        <ele>1679.5999755859</ele>
        <time>2014-03-02T15:39:59.000Z</time>
      </trkpt>
      <trkpt lat="45.32418" lon="6.22419">
        <ele>1679.5999755859</ele>
        <time>2014-03-02T15:40:00.000Z</time>
      </trkpt>
      <trkpt lat="45.32418" lon="6.22419">
        <ele>1679.5999755859</ele>
        <time>2014-03-02T15:40:01.000Z</time>
      </trkpt>
      <trkpt lat="45.32418" lon="6.22419">
        <ele>1679.5999755859</ele>
        <time>2014-03-02T15:40:02.000Z</time>
      </trkpt>
      <trkpt lat="45.32418" lon="6.22419">
        <ele>1679.5999755859</ele>
        <time>2014-03-02T15:40:03.000Z</time>
      </trkpt>
      <trkpt lat="45.32418" lon="6.22419">
        <ele>1679.5999755859</ele>
        <time>2014-03-02T15:40:04.000Z</time>
      </trkpt>
      <trkpt lat="45.32418" lon="6.22419">
        <ele>1679.5999755859</ele>
        <time>2014-03-02T15:40:05.000Z</time>
      </trkpt>
      <trkpt lat="45.32418" lon="6.22419">
        <ele>1679.5999755859</ele>
        <time>2014-03-02T15:40:06.000Z</time>
      </trkpt>
      <trkpt lat="45.32417" lon="6.2242">
        <ele>1679.4000244141</ele>
        <time>2014-03-02T15:40:07.000Z</time>
      </trkpt>
      <trkpt lat="45.32416" lon="6.2242">
        <ele>1679.4000244141</ele>
        <time>2014-03-02T15:40:08.000Z</time>
      </trkpt>
      <trkpt lat="45.32415" lon="6.2242">
        <ele>1679.1999511719</ele>
        <time>2014-03-02T15:40:09.000Z</time>
      </trkpt>
      <trkpt lat="45.32415" lon="6.2242">
        <ele>1679.1999511719</ele>
        <time>2014-03-02T15:40:10.000Z</time>
      </trkpt>
      <trkpt lat="45.32414" lon="6.22421">
        <ele>1679</ele>
        <time>2014-03-02T15:40:11.000Z</time>
      </trkpt>
      <trkpt lat="45.32414" lon="6.22422">
        <ele>1678.5999755859</ele>
        <time>2014-03-02T15:40:12.000Z</time>
      </trkpt>
      <trkpt lat="45.32413" lon="6.22423">
        <ele>1678.1999511719</ele>
        <time>2014-03-02T15:40:13.000Z</time>
      </trkpt>
      <trkpt lat="45.32412" lon="6.22425">
        <ele>1677.4000244141</ele>
        <time>2014-03-02T15:40:14.000Z</time>
      </trkpt>
      <trkpt lat="45.32412" lon="6.22429">
        <ele>1675.8000488281</ele>
        <time>2014-03-02T15:40:15.000Z</time>
      </trkpt>
      <trkpt lat="45.32414" lon="6.22433">
        <ele>1674.4000244141</ele>
        <time>2014-03-02T15:40:16.000Z</time>
      </trkpt>
      <trkpt lat="45.32415" lon="6.22437">
        <ele>1673.1999511719</ele>
        <time>2014-03-02T15:40:17.000Z</time>
      </trkpt>
      <trkpt lat="45.32417" lon="6.22438">
        <ele>1672.5999755859</ele>
        <time>2014-03-02T15:40:18.000Z</time>
      </trkpt>
      <trkpt lat="45.32418" lon="6.22438">
        <ele>1672.5999755859</ele>
        <time>2014-03-02T15:40:19.000Z</time>
      </trkpt>
      <trkpt lat="45.3242" lon="6.22438">
        <ele>1672.4000244141</ele>
        <time>2014-03-02T15:40:20.000Z</time>
      </trkpt>
      <trkpt lat="45.32421" lon="6.22438">
        <ele>1672.4000244141</ele>
        <time>2014-03-02T15:40:21.000Z</time>
      </trkpt>
      <trkpt lat="45.32422" lon="6.22438">
        <ele>1672.1999511719</ele>
        <time>2014-03-02T15:40:22.000Z</time>
      </trkpt>
      <trkpt lat="45.32424" lon="6.22438">
        <ele>1672.4000244141</ele>
        <time>2014-03-02T15:40:23.000Z</time>
      </trkpt>
      <trkpt lat="45.32426" lon="6.22438">
        <ele>1672.1999511719</ele>
        <time>2014-03-02T15:40:24.000Z</time>
      </trkpt>
      <trkpt lat="45.32428" lon="6.22438">
        <ele>1672</ele>
        <time>2014-03-02T15:40:25.000Z</time>
      </trkpt>
      <trkpt lat="45.32428" lon="6.22438">
        <ele>1672</ele>
        <time>2014-03-02T15:40:26.000Z</time>
      </trkpt>
      <trkpt lat="45.32426" lon="6.22439">
        <ele>1671.8000488281</ele>
        <time>2014-03-02T15:40:27.000Z</time>
      </trkpt>
      <trkpt lat="45.32423" lon="6.22442">
        <ele>1671</ele>
        <time>2014-03-02T15:40:28.000Z</time>
      </trkpt>
      <trkpt lat="45.32423" lon="6.22446">
        <ele>1669.8000488281</ele>
        <time>2014-03-02T15:40:29.000Z</time>
      </trkpt>
      <trkpt lat="45.32424" lon="6.22448">
        <ele>1669</ele>
        <time>2014-03-02T15:40:30.000Z</time>
      </trkpt>
      <trkpt lat="45.32425" lon="6.2245">
        <ele>1668.1999511719</ele>
        <time>2014-03-02T15:40:31.000Z</time>
      </trkpt>
      <trkpt lat="45.32426" lon="6.22452">
        <ele>1667.4000244141</ele>
        <time>2014-03-02T15:40:32.000Z</time>
      </trkpt>
      <trkpt lat="45.32428" lon="6.22453">
        <ele>1667.1999511719</ele>
        <time>2014-03-02T15:40:33.000Z</time>
      </trkpt>
      <trkpt lat="45.32429" lon="6.22453">
        <ele>1667</ele>
        <time>2014-03-02T15:40:34.000Z</time>
      </trkpt>
      <trkpt lat="45.32431" lon="6.22453">
        <ele>1666.8000488281</ele>
        <time>2014-03-02T15:40:35.000Z</time>
      </trkpt>
      <trkpt lat="45.32432" lon="6.22453">
        <ele>1666.8000488281</ele>
        <time>2014-03-02T15:40:36.000Z</time>
      </trkpt>
      <trkpt lat="45.32433" lon="6.22452">
        <ele>1666.8000488281</ele>
        <time>2014-03-02T15:40:37.000Z</time>
      </trkpt>
      <trkpt lat="45.32435" lon="6.22452">
        <ele>1666.8000488281</ele>
        <time>2014-03-02T15:40:38.000Z</time>
      </trkpt>
      <trkpt lat="45.32435" lon="6.22452">
        <ele>1666.8000488281</ele>
        <time>2014-03-02T15:40:39.000Z</time>
      </trkpt>
      <trkpt lat="45.32437" lon="6.22452">
        <ele>1666.8000488281</ele>
        <time>2014-03-02T15:40:40.000Z</time>
      </trkpt>
      <trkpt lat="45.32438" lon="6.22452">
        <ele>1666.5999755859</ele>
        <time>2014-03-02T15:40:41.000Z</time>
      </trkpt>
      <trkpt lat="45.32439" lon="6.22452">
        <ele>1666.5999755859</ele>
        <time>2014-03-02T15:40:42.000Z</time>
      </trkpt>
      <trkpt lat="45.32439" lon="6.22452">
        <ele>1666.5999755859</ele>
        <time>2014-03-02T15:40:43.000Z</time>
      </trkpt>
      <trkpt lat="45.32441" lon="6.22453">
        <ele>1666.4000244141</ele>
        <time>2014-03-02T15:40:44.000Z</time>
      </trkpt>
      <trkpt lat="45.32442" lon="6.22453">
        <ele>1666.1999511719</ele>
        <time>2014-03-02T15:40:45.000Z</time>
      </trkpt>
      <trkpt lat="45.32443" lon="6.22454">
        <ele>1666</ele>
        <time>2014-03-02T15:40:46.000Z</time>
      </trkpt>
      <trkpt lat="45.32445" lon="6.22456">
        <ele>1665.1999511719</ele>
        <time>2014-03-02T15:40:47.000Z</time>
      </trkpt>
      <trkpt lat="45.32446" lon="6.22458">
        <ele>1664.1999511719</ele>
        <time>2014-03-02T15:40:48.000Z</time>
      </trkpt>
      <trkpt lat="45.32447" lon="6.22461">
        <ele>1663</ele>
        <time>2014-03-02T15:40:49.000Z</time>
      </trkpt>
      <trkpt lat="45.32448" lon="6.22464">
        <ele>1662</ele>
        <time>2014-03-02T15:40:50.000Z</time>
      </trkpt>
      <trkpt lat="45.32448" lon="6.22469">
        <ele>1660.4000244141</ele>
        <time>2014-03-02T15:40:51.000Z</time>
      </trkpt>
      <trkpt lat="45.32448" lon="6.22476">
        <ele>1658.1999511719</ele>
        <time>2014-03-02T15:40:52.000Z</time>
      </trkpt>
      <trkpt lat="45.32448" lon="6.22483">
        <ele>1655.1999511719</ele>
        <time>2014-03-02T15:40:53.000Z</time>
      </trkpt>
      <trkpt lat="45.32447" lon="6.22492">
        <ele>1651.4000244141</ele>
        <time>2014-03-02T15:40:54.000Z</time>
      </trkpt>
      <trkpt lat="45.32448" lon="6.22501">
        <ele>1647</ele>
        <time>2014-03-02T15:40:55.000Z</time>
      </trkpt>
      <trkpt lat="45.32449" lon="6.22511">
        <ele>1642.1999511719</ele>
        <time>2014-03-02T15:40:56.000Z</time>
      </trkpt>
      <trkpt lat="45.3245" lon="6.22519">
        <ele>1638.1999511719</ele>
        <time>2014-03-02T15:40:57.000Z</time>
      </trkpt>
      <trkpt lat="45.32449" lon="6.22526">
        <ele>1635.4000244141</ele>
        <time>2014-03-02T15:40:58.000Z</time>
      </trkpt>
      <trkpt lat="45.32447" lon="6.22527">
        <ele>1635</ele>
        <time>2014-03-02T15:40:59.000Z</time>
      </trkpt>
      <trkpt lat="45.32447" lon="6.2253">
        <ele>1633.5999755859</ele>
        <time>2014-03-02T15:41:00.000Z</time>
      </trkpt>
      <trkpt lat="45.32445" lon="6.22533">
        <ele>1632</ele>
        <time>2014-03-02T15:41:01.000Z</time>
      </trkpt>
      <trkpt lat="45.32444" lon="6.22537">
        <ele>1630.4000244141</ele>
        <time>2014-03-02T15:41:02.000Z</time>
      </trkpt>
      <trkpt lat="45.32443" lon="6.2254">
        <ele>1629</ele>
        <time>2014-03-02T15:41:03.000Z</time>
      </trkpt>
      <trkpt lat="45.32442" lon="6.22543">
        <ele>1628.1999511719</ele>
        <time>2014-03-02T15:41:04.000Z</time>
      </trkpt>
      <trkpt lat="45.32441" lon="6.22546">
        <ele>1627.5999755859</ele>
        <time>2014-03-02T15:41:05.000Z</time>
      </trkpt>
      <trkpt lat="45.3244" lon="6.22547">
        <ele>1627.1999511719</ele>
        <time>2014-03-02T15:41:06.000Z</time>
      </trkpt>
      <trkpt lat="45.32439" lon="6.22549">
        <ele>1626.8000488281</ele>
        <time>2014-03-02T15:41:07.000Z</time>
      </trkpt>
      <trkpt lat="45.32439" lon="6.22551">
        <ele>1626.1999511719</ele>
        <time>2014-03-02T15:41:08.000Z</time>
      </trkpt>
      <trkpt lat="45.32438" lon="6.22552">
        <ele>1626</ele>
        <time>2014-03-02T15:41:09.000Z</time>
      </trkpt>
      <trkpt lat="45.32442" lon="6.22545">
        <ele>1627.5999755859</ele>
        <time>2014-03-02T15:41:10.000Z</time>
      </trkpt>
      <trkpt lat="45.32444" lon="6.22541">
        <ele>1628.5999755859</ele>
        <time>2014-03-02T15:41:11.000Z</time>
      </trkpt>
      <trkpt lat="45.32444" lon="6.22541">
        <ele>1628.5999755859</ele>
        <time>2014-03-02T15:41:12.000Z</time>
      </trkpt>
      <trkpt lat="45.32444" lon="6.22541">
        <ele>1628.5999755859</ele>
        <time>2014-03-02T15:41:13.000Z</time>
      </trkpt>
      <trkpt lat="45.32444" lon="6.22541">
        <ele>1628.5999755859</ele>
        <time>2014-03-02T15:41:14.000Z</time>
      </trkpt>
      <trkpt lat="45.32444" lon="6.22541">
        <ele>1628.5999755859</ele>
        <time>2014-03-02T15:41:15.000Z</time>
      </trkpt>
      <trkpt lat="45.32446" lon="6.22537">
        <ele>1630.4000244141</ele>
        <time>2014-03-02T15:41:16.000Z</time>
      </trkpt>
      <trkpt lat="45.32447" lon="6.22537">
        <ele>1630</ele>
        <time>2014-03-02T15:41:17.000Z</time>
      </trkpt>
      <trkpt lat="45.3245" lon="6.22537">
        <ele>1629.8000488281</ele>
        <time>2014-03-02T15:41:18.000Z</time>
      </trkpt>
      <trkpt lat="45.32452" lon="6.22537">
        <ele>1629.8000488281</ele>
        <time>2014-03-02T15:41:19.000Z</time>
      </trkpt>
      <trkpt lat="45.32453" lon="6.22536">
        <ele>1630</ele>
        <time>2014-03-02T15:41:20.000Z</time>
      </trkpt>
      <trkpt lat="45.32453" lon="6.22536">
        <ele>1630</ele>
        <time>2014-03-02T15:41:21.000Z</time>
      </trkpt>
      <trkpt lat="45.32453" lon="6.22536">
        <ele>1630</ele>
        <time>2014-03-02T15:41:22.000Z</time>
      </trkpt>
      <trkpt lat="45.32453" lon="6.22536">
        <ele>1630</ele>
        <time>2014-03-02T15:41:23.000Z</time>
      </trkpt>
      <trkpt lat="45.32453" lon="6.22536">
        <ele>1630</ele>
        <time>2014-03-02T15:41:24.000Z</time>
      </trkpt>
      <trkpt lat="45.32453" lon="6.22536">
        <ele>1630</ele>
        <time>2014-03-02T15:41:25.000Z</time>
      </trkpt>
      <trkpt lat="45.32453" lon="6.22536">
        <ele>1630</ele>
        <time>2014-03-02T15:41:26.000Z</time>
      </trkpt>
      <trkpt lat="45.32453" lon="6.22536">
        <ele>1630</ele>
        <time>2014-03-02T15:41:29.000Z</time>
      </trkpt>
      <trkpt lat="45.32453" lon="6.22536">
        <ele>1630</ele>
        <time>2014-03-02T15:41:30.000Z</time>
      </trkpt>
      <trkpt lat="45.32453" lon="6.22536">
        <ele>1630</ele>
        <time>2014-03-02T15:41:31.000Z</time>
      </trkpt>
      <trkpt lat="45.32453" lon="6.22536">
        <ele>1630</ele>
        <time>2014-03-02T15:41:32.000Z</time>
      </trkpt>
      <trkpt lat="45.32453" lon="6.22537">
        <ele>1629.5999755859</ele>
        <time>2014-03-02T15:41:34.000Z</time>
      </trkpt>
      <trkpt lat="45.32454" lon="6.22539">
        <ele>1628.8000488281</ele>
        <time>2014-03-02T15:41:35.000Z</time>
      </trkpt>
      <trkpt lat="45.32454" lon="6.22541">
        <ele>1627.5999755859</ele>
        <time>2014-03-02T15:41:36.000Z</time>
      </trkpt>
      <trkpt lat="45.32453" lon="6.22546">
        <ele>1625.5999755859</ele>
        <time>2014-03-02T15:41:37.000Z</time>
      </trkpt>
      <trkpt lat="45.32449" lon="6.2255">
        <ele>1624.1999511719</ele>
        <time>2014-03-02T15:41:38.000Z</time>
      </trkpt>
      <trkpt lat="45.32445" lon="6.22554">
        <ele>1623.8000488281</ele>
        <time>2014-03-02T15:41:39.000Z</time>
      </trkpt>
      <trkpt lat="45.32442" lon="6.22559">
        <ele>1623</ele>
        <time>2014-03-02T15:41:40.000Z</time>
      </trkpt>
      <trkpt lat="45.32439" lon="6.22561">
        <ele>1623</ele>
        <time>2014-03-02T15:41:41.000Z</time>
      </trkpt>
      <trkpt lat="45.32437" lon="6.22563">
        <ele>1622.8000488281</ele>
        <time>2014-03-02T15:41:42.000Z</time>
      </trkpt>
      <trkpt lat="45.32435" lon="6.22565">
        <ele>1622.4000244141</ele>
        <time>2014-03-02T15:41:43.000Z</time>
      </trkpt>
      <trkpt lat="45.32435" lon="6.22565">
        <ele>1622.4000244141</ele>
        <time>2014-03-02T15:41:44.000Z</time>
      </trkpt>
      <trkpt lat="45.32435" lon="6.22566">
        <ele>1622.1999511719</ele>
        <time>2014-03-02T15:41:45.000Z</time>
      </trkpt>
      <trkpt lat="45.32435" lon="6.22566">
        <ele>1622</ele>
        <time>2014-03-02T15:41:46.000Z</time>
      </trkpt>
      <trkpt lat="45.32435" lon="6.22566">
        <ele>1622</ele>
        <time>2014-03-02T15:41:47.000Z</time>
      </trkpt>
      <trkpt lat="45.32436" lon="6.22565">
        <ele>1622.1999511719</ele>
        <time>2014-03-02T15:41:48.000Z</time>
      </trkpt>
      <trkpt lat="45.32436" lon="6.22565">
        <ele>1622.1999511719</ele>
        <time>2014-03-02T15:41:49.000Z</time>
      </trkpt>
      <trkpt lat="45.32436" lon="6.22565">
        <ele>1622.1999511719</ele>
        <time>2014-03-02T15:41:50.000Z</time>
      </trkpt>
      <trkpt lat="45.32436" lon="6.22565">
        <ele>1622.1999511719</ele>
        <time>2014-03-02T15:41:51.000Z</time>
      </trkpt>
      <trkpt lat="45.32436" lon="6.22565">
        <ele>1622.1999511719</ele>
        <time>2014-03-02T15:41:52.000Z</time>
      </trkpt>
      <trkpt lat="45.32436" lon="6.22565">
        <ele>1622.1999511719</ele>
        <time>2014-03-02T15:41:53.000Z</time>
      </trkpt>
      <trkpt lat="45.32436" lon="6.22565">
        <ele>1622.1999511719</ele>
        <time>2014-03-02T15:41:54.000Z</time>
      </trkpt>
      <trkpt lat="45.32436" lon="6.22565">
        <ele>1622.1999511719</ele>
        <time>2014-03-02T15:41:55.000Z</time>
      </trkpt>
      <trkpt lat="45.32436" lon="6.22565">
        <ele>1622.1999511719</ele>
        <time>2014-03-02T15:41:56.000Z</time>
      </trkpt>
      <trkpt lat="45.32436" lon="6.22565">
        <ele>1622.1999511719</ele>
        <time>2014-03-02T15:41:57.000Z</time>
      </trkpt>
      <trkpt lat="45.32436" lon="6.22565">
        <ele>1622.1999511719</ele>
        <time>2014-03-02T15:41:58.000Z</time>
      </trkpt>
      <trkpt lat="45.32436" lon="6.22565">
        <ele>1622.1999511719</ele>
        <time>2014-03-02T15:41:59.000Z</time>
      </trkpt>
      <trkpt lat="45.32436" lon="6.22565">
        <ele>1622.1999511719</ele>
        <time>2014-03-02T15:42:00.000Z</time>
      </trkpt>
      <trkpt lat="45.32435" lon="6.22566">
        <ele>1622</ele>
        <time>2014-03-02T15:42:01.000Z</time>
      </trkpt>
      <trkpt lat="45.32433" lon="6.22567">
        <ele>1622.1999511719</ele>
        <time>2014-03-02T15:42:02.000Z</time>
      </trkpt>
      <trkpt lat="45.32432" lon="6.22568">
        <ele>1622</ele>
        <time>2014-03-02T15:42:03.000Z</time>
      </trkpt>
      <trkpt lat="45.3243" lon="6.2257">
        <ele>1621.5999755859</ele>
        <time>2014-03-02T15:42:04.000Z</time>
      </trkpt>
      <trkpt lat="45.32428" lon="6.22573">
        <ele>1621.1999511719</ele>
        <time>2014-03-02T15:42:05.000Z</time>
      </trkpt>
      <trkpt lat="45.32426" lon="6.22577">
        <ele>1620.1999511719</ele>
        <time>2014-03-02T15:42:06.000Z</time>
      </trkpt>
      <trkpt lat="45.32424" lon="6.22581">
        <ele>1619.1999511719</ele>
        <time>2014-03-02T15:42:07.000Z</time>
      </trkpt>
      <trkpt lat="45.32421" lon="6.22586">
        <ele>1618</ele>
        <time>2014-03-02T15:42:08.000Z</time>
      </trkpt>
      <trkpt lat="45.32418" lon="6.22591">
        <ele>1616.8000488281</ele>
        <time>2014-03-02T15:42:09.000Z</time>
      </trkpt>
      <trkpt lat="45.32414" lon="6.22595">
        <ele>1616.1999511719</ele>
        <time>2014-03-02T15:42:10.000Z</time>
      </trkpt>
      <trkpt lat="45.3241" lon="6.226">
        <ele>1615</ele>
        <time>2014-03-02T15:42:11.000Z</time>
      </trkpt>
      <trkpt lat="45.32407" lon="6.22606">
        <ele>1613.4000244141</ele>
        <time>2014-03-02T15:42:12.000Z</time>
      </trkpt>
      <trkpt lat="45.32404" lon="6.22612">
        <ele>1611.8000488281</ele>
        <time>2014-03-02T15:42:13.000Z</time>
      </trkpt>
      <trkpt lat="45.324" lon="6.22618">
        <ele>1610.1999511719</ele>
        <time>2014-03-02T15:42:14.000Z</time>
      </trkpt>
      <trkpt lat="45.32396" lon="6.22625">
        <ele>1608.4000244141</ele>
        <time>2014-03-02T15:42:15.000Z</time>
      </trkpt>
      <trkpt lat="45.32393" lon="6.22631">
        <ele>1607</ele>
        <time>2014-03-02T15:42:16.000Z</time>
      </trkpt>
      <trkpt lat="45.32389" lon="6.22637">
        <ele>1605.5999755859</ele>
        <time>2014-03-02T15:42:17.000Z</time>
      </trkpt>
      <trkpt lat="45.32385" lon="6.22641">
        <ele>1604.8000488281</ele>
        <time>2014-03-02T15:42:18.000Z</time>
      </trkpt>
      <trkpt lat="45.32382" lon="6.22648">
        <ele>1603.1999511719</ele>
        <time>2014-03-02T15:42:19.000Z</time>
      </trkpt>
      <trkpt lat="45.32379" lon="6.22652">
        <ele>1603</ele>
        <time>2014-03-02T15:42:20.000Z</time>
      </trkpt>
      <trkpt lat="45.32378" lon="6.22653">
        <ele>1603.4000244141</ele>
        <time>2014-03-02T15:42:21.000Z</time>
      </trkpt>
      <trkpt lat="45.32376" lon="6.22655">
        <ele>1603.5999755859</ele>
        <time>2014-03-02T15:42:22.000Z</time>
      </trkpt>
      <trkpt lat="45.32375" lon="6.22656">
        <ele>1603.8000488281</ele>
        <time>2014-03-02T15:42:23.000Z</time>
      </trkpt>
      <trkpt lat="45.32375" lon="6.22657">
        <ele>1603.5999755859</ele>
        <time>2014-03-02T15:42:24.000Z</time>
      </trkpt>
      <trkpt lat="45.32376" lon="6.22657">
        <ele>1603.4000244141</ele>
        <time>2014-03-02T15:42:25.000Z</time>
      </trkpt>
      <trkpt lat="45.32376" lon="6.22657">
        <ele>1603.4000244141</ele>
        <time>2014-03-02T15:42:26.000Z</time>
      </trkpt>
      <trkpt lat="45.32376" lon="6.22657">
        <ele>1603.4000244141</ele>
        <time>2014-03-02T15:42:27.000Z</time>
      </trkpt>
      <trkpt lat="45.32376" lon="6.22657">
        <ele>1603.4000244141</ele>
        <time>2014-03-02T15:42:28.000Z</time>
      </trkpt>
      <trkpt lat="45.32376" lon="6.22657">
        <ele>1603.4000244141</ele>
        <time>2014-03-02T15:42:29.000Z</time>
      </trkpt>
      <trkpt lat="45.32375" lon="6.22658">
        <ele>1603.4000244141</ele>
        <time>2014-03-02T15:42:30.000Z</time>
      </trkpt>
      <trkpt lat="45.32374" lon="6.22659">
        <ele>1603.4000244141</ele>
        <time>2014-03-02T15:42:31.000Z</time>
      </trkpt>
      <trkpt lat="45.32374" lon="6.22661">
        <ele>1603.1999511719</ele>
        <time>2014-03-02T15:42:32.000Z</time>
      </trkpt>
      <trkpt lat="45.32373" lon="6.22663">
        <ele>1603</ele>
        <time>2014-03-02T15:42:33.000Z</time>
      </trkpt>
      <trkpt lat="45.32373" lon="6.22665">
        <ele>1602.4000244141</ele>
        <time>2014-03-02T15:42:34.000Z</time>
      </trkpt>
      <trkpt lat="45.32372" lon="6.22669">
        <ele>1601.8000488281</ele>
        <time>2014-03-02T15:42:35.000Z</time>
      </trkpt>
      <trkpt lat="45.32372" lon="6.22672">
        <ele>1601.1999511719</ele>
        <time>2014-03-02T15:42:36.000Z</time>
      </trkpt>
      <trkpt lat="45.3237" lon="6.22676">
        <ele>1600.8000488281</ele>
        <time>2014-03-02T15:42:37.000Z</time>
      </trkpt>
      <trkpt lat="45.32369" lon="6.22679">
        <ele>1600.8000488281</ele>
        <time>2014-03-02T15:42:38.000Z</time>
      </trkpt>
      <trkpt lat="45.32368" lon="6.22683">
        <ele>1600</ele>
        <time>2014-03-02T15:42:39.000Z</time>
      </trkpt>
      <trkpt lat="45.32367" lon="6.22688">
        <ele>1599</ele>
        <time>2014-03-02T15:42:40.000Z</time>
      </trkpt>
      <trkpt lat="45.32366" lon="6.22693">
        <ele>1598.1999511719</ele>
        <time>2014-03-02T15:42:41.000Z</time>
      </trkpt>
      <trkpt lat="45.32366" lon="6.22697">
        <ele>1597.5999755859</ele>
        <time>2014-03-02T15:42:42.000Z</time>
      </trkpt>
      <trkpt lat="45.3237" lon="6.22696">
        <ele>1595.5999755859</ele>
        <time>2014-03-02T15:42:43.000Z</time>
      </trkpt>
      <trkpt lat="45.32371" lon="6.227">
        <ele>1594</ele>
        <time>2014-03-02T15:42:44.000Z</time>
      </trkpt>
      <trkpt lat="45.32374" lon="6.227">
        <ele>1593</ele>
        <time>2014-03-02T15:42:45.000Z</time>
      </trkpt>
      <trkpt lat="45.32376" lon="6.22704">
        <ele>1590.4000244141</ele>
        <time>2014-03-02T15:42:46.000Z</time>
      </trkpt>
      <trkpt lat="45.32378" lon="6.22708">
        <ele>1588.5999755859</ele>
        <time>2014-03-02T15:42:47.000Z</time>
      </trkpt>
      <trkpt lat="45.32382" lon="6.22709">
        <ele>1587</ele>
        <time>2014-03-02T15:42:48.000Z</time>
      </trkpt>
      <trkpt lat="45.32386" lon="6.22713">
        <ele>1585.4000244141</ele>
        <time>2014-03-02T15:42:49.000Z</time>
      </trkpt>
      <trkpt lat="45.3239" lon="6.22717">
        <ele>1583.8000488281</ele>
        <time>2014-03-02T15:42:50.000Z</time>
      </trkpt>
      <trkpt lat="45.32394" lon="6.22718">
        <ele>1583</ele>
        <time>2014-03-02T15:42:51.000Z</time>
      </trkpt>
      <trkpt lat="45.32399" lon="6.22716">
        <ele>1582.8000488281</ele>
        <time>2014-03-02T15:42:52.000Z</time>
      </trkpt>
      <trkpt lat="45.32403" lon="6.22714">
        <ele>1582.5999755859</ele>
        <time>2014-03-02T15:42:53.000Z</time>
      </trkpt>
      <trkpt lat="45.32407" lon="6.22713">
        <ele>1582.4000244141</ele>
        <time>2014-03-02T15:42:54.000Z</time>
      </trkpt>
      <trkpt lat="45.32411" lon="6.22711">
        <ele>1582.1999511719</ele>
        <time>2014-03-02T15:42:55.000Z</time>
      </trkpt>
      <trkpt lat="45.32415" lon="6.2271">
        <ele>1582.1999511719</ele>
        <time>2014-03-02T15:42:56.000Z</time>
      </trkpt>
      <trkpt lat="45.32418" lon="6.22709">
        <ele>1582</ele>
        <time>2014-03-02T15:42:57.000Z</time>
      </trkpt>
      <trkpt lat="45.32421" lon="6.22707">
        <ele>1582</ele>
        <time>2014-03-02T15:42:58.000Z</time>
      </trkpt>
      <trkpt lat="45.32423" lon="6.22707">
        <ele>1581.5999755859</ele>
        <time>2014-03-02T15:42:59.000Z</time>
      </trkpt>
      <trkpt lat="45.32426" lon="6.22708">
        <ele>1580.8000488281</ele>
        <time>2014-03-02T15:43:00.000Z</time>
      </trkpt>
      <trkpt lat="45.32429" lon="6.22711">
        <ele>1579.8000488281</ele>
        <time>2014-03-02T15:43:01.000Z</time>
      </trkpt>
      <trkpt lat="45.3243" lon="6.22714">
        <ele>1579</ele>
        <time>2014-03-02T15:43:02.000Z</time>
      </trkpt>
      <trkpt lat="45.32431" lon="6.22717">
        <ele>1577.8000488281</ele>
        <time>2014-03-02T15:43:03.000Z</time>
      </trkpt>
      <trkpt lat="45.32433" lon="6.22722">
        <ele>1576.4000244141</ele>
        <time>2014-03-02T15:43:04.000Z</time>
      </trkpt>
      <trkpt lat="45.32434" lon="6.22725">
        <ele>1575.4000244141</ele>
        <time>2014-03-02T15:43:05.000Z</time>
      </trkpt>
      <trkpt lat="45.32435" lon="6.22729">
        <ele>1574.1999511719</ele>
        <time>2014-03-02T15:43:06.000Z</time>
      </trkpt>
      <trkpt lat="45.32437" lon="6.22734">
        <ele>1573</ele>
        <time>2014-03-02T15:43:07.000Z</time>
      </trkpt>
      <trkpt lat="45.32435" lon="6.22736">
        <ele>1573</ele>
        <time>2014-03-02T15:43:08.000Z</time>
      </trkpt>
      <trkpt lat="45.32434" lon="6.22735">
        <ele>1573.4000244141</ele>
        <time>2014-03-02T15:43:09.000Z</time>
      </trkpt>
      <trkpt lat="45.32432" lon="6.22736">
        <ele>1573.5999755859</ele>
        <time>2014-03-02T15:43:10.000Z</time>
      </trkpt>
      <trkpt lat="45.3243" lon="6.22736">
        <ele>1573.5999755859</ele>
        <time>2014-03-02T15:43:11.000Z</time>
      </trkpt>
      <trkpt lat="45.32429" lon="6.22737">
        <ele>1573.8000488281</ele>
        <time>2014-03-02T15:43:12.000Z</time>
      </trkpt>
      <trkpt lat="45.32427" lon="6.22737">
        <ele>1574</ele>
        <time>2014-03-02T15:43:13.000Z</time>
      </trkpt>
      <trkpt lat="45.32426" lon="6.22738">
        <ele>1574</ele>
        <time>2014-03-02T15:43:14.000Z</time>
      </trkpt>
      <trkpt lat="45.32426" lon="6.22738">
        <ele>1574</ele>
        <time>2014-03-02T15:43:15.000Z</time>
      </trkpt>
      <trkpt lat="45.32425" lon="6.2274">
        <ele>1573.8000488281</ele>
        <time>2014-03-02T15:43:16.000Z</time>
      </trkpt>
      <trkpt lat="45.32426" lon="6.22745">
        <ele>1572.8000488281</ele>
        <time>2014-03-02T15:43:17.000Z</time>
      </trkpt>
      <trkpt lat="45.32427" lon="6.2275">
        <ele>1572</ele>
        <time>2014-03-02T15:43:18.000Z</time>
      </trkpt>
      <trkpt lat="45.32428" lon="6.22756">
        <ele>1571</ele>
        <time>2014-03-02T15:43:19.000Z</time>
      </trkpt>
      <trkpt lat="45.32427" lon="6.22761">
        <ele>1570.4000244141</ele>
        <time>2014-03-02T15:43:20.000Z</time>
      </trkpt>
      <trkpt lat="45.32428" lon="6.22765">
        <ele>1569.5999755859</ele>
        <time>2014-03-02T15:43:21.000Z</time>
      </trkpt>
      <trkpt lat="45.32428" lon="6.22768">
        <ele>1569.1999511719</ele>
        <time>2014-03-02T15:43:22.000Z</time>
      </trkpt>
      <trkpt lat="45.32428" lon="6.22769">
        <ele>1568.8000488281</ele>
        <time>2014-03-02T15:43:23.000Z</time>
      </trkpt>
      <trkpt lat="45.3243" lon="6.22774">
        <ele>1567.8000488281</ele>
        <time>2014-03-02T15:43:24.000Z</time>
      </trkpt>
      <trkpt lat="45.32431" lon="6.22779">
        <ele>1566.8000488281</ele>
        <time>2014-03-02T15:43:25.000Z</time>
      </trkpt>
      <trkpt lat="45.32433" lon="6.22785">
        <ele>1566</ele>
        <time>2014-03-02T15:43:26.000Z</time>
      </trkpt>
      <trkpt lat="45.32435" lon="6.2279">
        <ele>1565</ele>
        <time>2014-03-02T15:43:27.000Z</time>
      </trkpt>
      <trkpt lat="45.32437" lon="6.22792">
        <ele>1564.4000244141</ele>
        <time>2014-03-02T15:43:28.000Z</time>
      </trkpt>
      <trkpt lat="45.3244" lon="6.2279">
        <ele>1564</ele>
        <time>2014-03-02T15:43:29.000Z</time>
      </trkpt>
      <trkpt lat="45.32443" lon="6.22783">
        <ele>1564.5999755859</ele>
        <time>2014-03-02T15:43:30.000Z</time>
      </trkpt>
      <trkpt lat="45.32446" lon="6.22779">
        <ele>1564.8000488281</ele>
        <time>2014-03-02T15:43:31.000Z</time>
      </trkpt>
      <trkpt lat="45.32447" lon="6.22775">
        <ele>1565.1999511719</ele>
        <time>2014-03-02T15:43:32.000Z</time>
      </trkpt>
      <trkpt lat="45.3245" lon="6.22771">
        <ele>1565.5999755859</ele>
        <time>2014-03-02T15:43:33.000Z</time>
      </trkpt>
      <trkpt lat="45.32452" lon="6.22769">
        <ele>1565.4000244141</ele>
        <time>2014-03-02T15:43:34.000Z</time>
      </trkpt>
      <trkpt lat="45.32458" lon="6.22769">
        <ele>1564.5999755859</ele>
        <time>2014-03-02T15:43:35.000Z</time>
      </trkpt>
      <trkpt lat="45.32465" lon="6.22771">
        <ele>1563.8000488281</ele>
        <time>2014-03-02T15:43:36.000Z</time>
      </trkpt>
      <trkpt lat="45.3247" lon="6.22772">
        <ele>1565.5999755859</ele>
        <time>2014-03-02T15:43:37.000Z</time>
      </trkpt>
      <trkpt lat="45.32474" lon="6.22773">
        <ele>1566.8000488281</ele>
        <time>2014-03-02T15:43:38.000Z</time>
      </trkpt>
      <trkpt lat="45.32478" lon="6.22775">
        <ele>1568</ele>
        <time>2014-03-02T15:43:39.000Z</time>
      </trkpt>
      <trkpt lat="45.32481" lon="6.22783">
        <ele>1568</ele>
        <time>2014-03-02T15:43:40.000Z</time>
      </trkpt>
      <trkpt lat="45.32485" lon="6.22787">
        <ele>1568.8000488281</ele>
        <time>2014-03-02T15:43:41.000Z</time>
      </trkpt>
      <trkpt lat="45.32488" lon="6.22793">
        <ele>1568.8000488281</ele>
        <time>2014-03-02T15:43:42.000Z</time>
      </trkpt>
      <trkpt lat="45.32489" lon="6.22799">
        <ele>1568.1999511719</ele>
        <time>2014-03-02T15:43:43.000Z</time>
      </trkpt>
      <trkpt lat="45.32489" lon="6.22804">
        <ele>1567.5999755859</ele>
        <time>2014-03-02T15:43:44.000Z</time>
      </trkpt>
      <trkpt lat="45.32488" lon="6.22806">
        <ele>1567</ele>
        <time>2014-03-02T15:43:45.000Z</time>
      </trkpt>
      <trkpt lat="45.32487" lon="6.22807">
        <ele>1566.4000244141</ele>
        <time>2014-03-02T15:43:46.000Z</time>
      </trkpt>
      <trkpt lat="45.32486" lon="6.22807">
        <ele>1566</ele>
        <time>2014-03-02T15:43:47.000Z</time>
      </trkpt>
      <trkpt lat="45.32485" lon="6.22808">
        <ele>1565.4000244141</ele>
        <time>2014-03-02T15:43:48.000Z</time>
      </trkpt>
      <trkpt lat="45.32484" lon="6.22809">
        <ele>1564.8000488281</ele>
        <time>2014-03-02T15:43:49.000Z</time>
      </trkpt>
      <trkpt lat="45.32484" lon="6.22809">
        <ele>1564.8000488281</ele>
        <time>2014-03-02T15:43:50.000Z</time>
      </trkpt>
      <trkpt lat="45.32483" lon="6.2281">
        <ele>1564.5999755859</ele>
        <time>2014-03-02T15:43:51.000Z</time>
      </trkpt>
      <trkpt lat="45.32482" lon="6.2281">
        <ele>1564.1999511719</ele>
        <time>2014-03-02T15:43:52.000Z</time>
      </trkpt>
      <trkpt lat="45.32482" lon="6.22812">
        <ele>1564</ele>
        <time>2014-03-02T15:43:53.000Z</time>
      </trkpt>
      <trkpt lat="45.32482" lon="6.22813">
        <ele>1563.5999755859</ele>
        <time>2014-03-02T15:43:54.000Z</time>
      </trkpt>
      <trkpt lat="45.32482" lon="6.22815">
        <ele>1563.1999511719</ele>
        <time>2014-03-02T15:43:55.000Z</time>
      </trkpt>
      <trkpt lat="45.32482" lon="6.22818">
        <ele>1562.5999755859</ele>
        <time>2014-03-02T15:43:56.000Z</time>
      </trkpt>
      <trkpt lat="45.32482" lon="6.22821">
        <ele>1562.1999511719</ele>
        <time>2014-03-02T15:43:57.000Z</time>
      </trkpt>
      <trkpt lat="45.32482" lon="6.22825">
        <ele>1561.5999755859</ele>
        <time>2014-03-02T15:43:58.000Z</time>
      </trkpt>
      <trkpt lat="45.32482" lon="6.2283">
        <ele>1560.5999755859</ele>
        <time>2014-03-02T15:43:59.000Z</time>
      </trkpt>
      <trkpt lat="45.32483" lon="6.22835">
        <ele>1560.1999511719</ele>
        <time>2014-03-02T15:44:00.000Z</time>
      </trkpt>
      <trkpt lat="45.32483" lon="6.22841">
        <ele>1559.8000488281</ele>
        <time>2014-03-02T15:44:01.000Z</time>
      </trkpt>
      <trkpt lat="45.32484" lon="6.22847">
        <ele>1559.5999755859</ele>
        <time>2014-03-02T15:44:02.000Z</time>
      </trkpt>
      <trkpt lat="45.32485" lon="6.22854">
        <ele>1559</ele>
        <time>2014-03-02T15:44:03.000Z</time>
      </trkpt>
      <trkpt lat="45.32486" lon="6.22862">
        <ele>1558.8000488281</ele>
        <time>2014-03-02T15:44:04.000Z</time>
      </trkpt>
      <trkpt lat="45.32487" lon="6.22867">
        <ele>1558.5999755859</ele>
        <time>2014-03-02T15:44:05.000Z</time>
      </trkpt>
      <trkpt lat="45.32487" lon="6.22872">
        <ele>1558</ele>
        <time>2014-03-02T15:44:06.000Z</time>
      </trkpt>
      <trkpt lat="45.32487" lon="6.22878">
        <ele>1557.4000244141</ele>
        <time>2014-03-02T15:44:07.000Z</time>
      </trkpt>
      <trkpt lat="45.32487" lon="6.22884">
        <ele>1556.8000488281</ele>
        <time>2014-03-02T15:44:08.000Z</time>
      </trkpt>
      <trkpt lat="45.32487" lon="6.22891">
        <ele>1556</ele>
        <time>2014-03-02T15:44:09.000Z</time>
      </trkpt>
      <trkpt lat="45.32486" lon="6.22899">
        <ele>1554.8000488281</ele>
        <time>2014-03-02T15:44:10.000Z</time>
      </trkpt>
      <trkpt lat="45.32486" lon="6.22907">
        <ele>1552.8000488281</ele>
        <time>2014-03-02T15:44:11.000Z</time>
      </trkpt>
      <trkpt lat="45.32486" lon="6.22917">
        <ele>1550.5999755859</ele>
        <time>2014-03-02T15:44:12.000Z</time>
      </trkpt>
      <trkpt lat="45.32486" lon="6.22928">
        <ele>1549.4000244141</ele>
        <time>2014-03-02T15:44:13.000Z</time>
      </trkpt>
      <trkpt lat="45.32486" lon="6.22939">
        <ele>1548</ele>
        <time>2014-03-02T15:44:14.000Z</time>
      </trkpt>
      <trkpt lat="45.32486" lon="6.22951">
        <ele>1546.5999755859</ele>
        <time>2014-03-02T15:44:15.000Z</time>
      </trkpt>
      <trkpt lat="45.32488" lon="6.22963">
        <ele>1545.5999755859</ele>
        <time>2014-03-02T15:44:16.000Z</time>
      </trkpt>
      <trkpt lat="45.32489" lon="6.22974">
        <ele>1544.4000244141</ele>
        <time>2014-03-02T15:44:17.000Z</time>
      </trkpt>
      <trkpt lat="45.32489" lon="6.22985">
        <ele>1543.1999511719</ele>
        <time>2014-03-02T15:44:18.000Z</time>
      </trkpt>
      <trkpt lat="45.3249" lon="6.22997">
        <ele>1542.1999511719</ele>
        <time>2014-03-02T15:44:19.000Z</time>
      </trkpt>
      <trkpt lat="45.3249" lon="6.23008">
        <ele>1541.1999511719</ele>
        <time>2014-03-02T15:44:20.000Z</time>
      </trkpt>
      <trkpt lat="45.32491" lon="6.23018">
        <ele>1540.1999511719</ele>
        <time>2014-03-02T15:44:21.000Z</time>
      </trkpt>
      <trkpt lat="45.32491" lon="6.23026">
        <ele>1539.1999511719</ele>
        <time>2014-03-02T15:44:22.000Z</time>
      </trkpt>
      <trkpt lat="45.32491" lon="6.2303">
        <ele>1538.8000488281</ele>
        <time>2014-03-02T15:44:23.000Z</time>
      </trkpt>
      <trkpt lat="45.32493" lon="6.23029">
        <ele>1539.1999511719</ele>
        <time>2014-03-02T15:44:24.000Z</time>
      </trkpt>
      <trkpt lat="45.32492" lon="6.23031">
        <ele>1539</ele>
        <time>2014-03-02T15:44:25.000Z</time>
      </trkpt>
      <trkpt lat="45.32493" lon="6.23029">
        <ele>1539.1999511719</ele>
        <time>2014-03-02T15:44:26.000Z</time>
      </trkpt>
      <trkpt lat="45.32494" lon="6.23029">
        <ele>1539.4000244141</ele>
        <time>2014-03-02T15:44:27.000Z</time>
      </trkpt>
      <trkpt lat="45.32496" lon="6.23029">
        <ele>1540</ele>
        <time>2014-03-02T15:44:28.000Z</time>
      </trkpt>
      <trkpt lat="45.32498" lon="6.23031">
        <ele>1540</ele>
        <time>2014-03-02T15:44:29.000Z</time>
      </trkpt>
      <trkpt lat="45.32502" lon="6.23036">
        <ele>1540.4000244141</ele>
        <time>2014-03-02T15:44:30.000Z</time>
      </trkpt>
      <trkpt lat="45.32506" lon="6.23044">
        <ele>1540.4000244141</ele>
        <time>2014-03-02T15:44:31.000Z</time>
      </trkpt>
      <trkpt lat="45.32512" lon="6.23049">
        <ele>1541</ele>
        <time>2014-03-02T15:44:32.000Z</time>
      </trkpt>
      <trkpt lat="45.32515" lon="6.23054">
        <ele>1541</ele>
        <time>2014-03-02T15:44:33.000Z</time>
      </trkpt>
      <trkpt lat="45.32516" lon="6.23057">
        <ele>1540.8000488281</ele>
        <time>2014-03-02T15:44:34.000Z</time>
      </trkpt>
      <trkpt lat="45.32515" lon="6.23054">
        <ele>1541.1999511719</ele>
        <time>2014-03-02T15:44:35.000Z</time>
      </trkpt>
      <trkpt lat="45.32515" lon="6.2305">
        <ele>1541.5999755859</ele>
        <time>2014-03-02T15:44:36.000Z</time>
      </trkpt>
      <trkpt lat="45.32515" lon="6.23047">
        <ele>1542</ele>
        <time>2014-03-02T15:44:37.000Z</time>
      </trkpt>
      <trkpt lat="45.32514" lon="6.23045">
        <ele>1541.8000488281</ele>
        <time>2014-03-02T15:44:38.000Z</time>
      </trkpt>
      <trkpt lat="45.32513" lon="6.23042">
        <ele>1542</ele>
        <time>2014-03-02T15:44:39.000Z</time>
      </trkpt>
      <trkpt lat="45.32512" lon="6.2304">
        <ele>1542</ele>
        <time>2014-03-02T15:44:40.000Z</time>
      </trkpt>
      <trkpt lat="45.32511" lon="6.23038">
        <ele>1542.1999511719</ele>
        <time>2014-03-02T15:44:41.000Z</time>
      </trkpt>
      <trkpt lat="45.3251" lon="6.23036">
        <ele>1542</ele>
        <time>2014-03-02T15:44:42.000Z</time>
      </trkpt>
      <trkpt lat="45.32508" lon="6.23035">
        <ele>1541.8000488281</ele>
        <time>2014-03-02T15:44:43.000Z</time>
      </trkpt>
      <trkpt lat="45.32507" lon="6.23034">
        <ele>1541.5999755859</ele>
        <time>2014-03-02T15:44:44.000Z</time>
      </trkpt>
      <trkpt lat="45.32505" lon="6.23031">
        <ele>1541.5999755859</ele>
        <time>2014-03-02T15:44:45.000Z</time>
      </trkpt>
      <trkpt lat="45.32503" lon="6.23031">
        <ele>1541.1999511719</ele>
        <time>2014-03-02T15:44:46.000Z</time>
      </trkpt>
      <trkpt lat="45.32504" lon="6.2303">
        <ele>1541.4000244141</ele>
        <time>2014-03-02T15:44:47.000Z</time>
      </trkpt>
      <trkpt lat="45.32502" lon="6.23029">
        <ele>1541.1999511719</ele>
        <time>2014-03-02T15:44:48.000Z</time>
      </trkpt>
      <trkpt lat="45.32501" lon="6.23027">
        <ele>1541.1999511719</ele>
        <time>2014-03-02T15:44:49.000Z</time>
      </trkpt>
      <trkpt lat="45.32489" lon="6.23021">
        <ele>1539.4000244141</ele>
        <time>2014-03-02T15:44:52.000Z</time>
      </trkpt>
      <trkpt lat="45.32489" lon="6.23021">
        <ele>1539.4000244141</ele>
        <time>2014-03-02T15:44:53.000Z</time>
      </trkpt>
      <trkpt lat="45.32487" lon="6.23019">
        <ele>1539.4000244141</ele>
        <time>2014-03-02T15:44:55.000Z</time>
      </trkpt>
      <trkpt lat="45.32486" lon="6.23017">
        <ele>1539.1999511719</ele>
        <time>2014-03-02T15:44:56.000Z</time>
      </trkpt>
      <trkpt lat="45.32485" lon="6.23016">
        <ele>1539.1999511719</ele>
        <time>2014-03-02T15:44:57.000Z</time>
      </trkpt>
      <trkpt lat="45.32484" lon="6.23014">
        <ele>1539.1999511719</ele>
        <time>2014-03-02T15:44:58.000Z</time>
      </trkpt>
      <trkpt lat="45.32484" lon="6.23011">
        <ele>1539.4000244141</ele>
        <time>2014-03-02T15:44:59.000Z</time>
      </trkpt>
      <trkpt lat="45.32483" lon="6.23009">
        <ele>1539.4000244141</ele>
        <time>2014-03-02T15:45:00.000Z</time>
      </trkpt>
      <trkpt lat="45.32482" lon="6.23007">
        <ele>1539.5999755859</ele>
        <time>2014-03-02T15:45:01.000Z</time>
      </trkpt>
      <trkpt lat="45.32482" lon="6.23006">
        <ele>1539.8000488281</ele>
        <time>2014-03-02T15:45:02.000Z</time>
      </trkpt>
      <trkpt lat="45.32483" lon="6.23006">
        <ele>1540</ele>
        <time>2014-03-02T15:45:03.000Z</time>
      </trkpt>
      <trkpt lat="45.32484" lon="6.23006">
        <ele>1540.1999511719</ele>
        <time>2014-03-02T15:45:04.000Z</time>
      </trkpt>
      <trkpt lat="45.32486" lon="6.23006">
        <ele>1540.5999755859</ele>
        <time>2014-03-02T15:45:05.000Z</time>
      </trkpt>
      <trkpt lat="45.32488" lon="6.23007">
        <ele>1541</ele>
        <time>2014-03-02T15:45:06.000Z</time>
      </trkpt>
      <trkpt lat="45.32489" lon="6.23007">
        <ele>1541.1999511719</ele>
        <time>2014-03-02T15:45:07.000Z</time>
      </trkpt>
      <trkpt lat="45.32492" lon="6.23007">
        <ele>1541.8000488281</ele>
        <time>2014-03-02T15:45:08.000Z</time>
      </trkpt>
      <trkpt lat="45.32492" lon="6.23007">
        <ele>1541.8000488281</ele>
        <time>2014-03-02T15:45:09.000Z</time>
      </trkpt>
      <trkpt lat="45.32493" lon="6.23008">
        <ele>1541.8000488281</ele>
        <time>2014-03-02T15:45:10.000Z</time>
      </trkpt>
      <trkpt lat="45.32495" lon="6.23008">
        <ele>1542.1999511719</ele>
        <time>2014-03-02T15:45:11.000Z</time>
      </trkpt>
      <trkpt lat="45.32497" lon="6.23011">
        <ele>1542.4000244141</ele>
        <time>2014-03-02T15:45:12.000Z</time>
      </trkpt>
      <trkpt lat="45.32499" lon="6.23014">
        <ele>1542.4000244141</ele>
        <time>2014-03-02T15:45:13.000Z</time>
      </trkpt>
      <trkpt lat="45.32502" lon="6.23017">
        <ele>1542.5999755859</ele>
        <time>2014-03-02T15:45:14.000Z</time>
      </trkpt>
      <trkpt lat="45.32504" lon="6.23021">
        <ele>1542.8000488281</ele>
        <time>2014-03-02T15:45:15.000Z</time>
      </trkpt>
      <trkpt lat="45.32508" lon="6.23025">
        <ele>1543</ele>
        <time>2014-03-02T15:45:16.000Z</time>
      </trkpt>
      <trkpt lat="45.32511" lon="6.23029">
        <ele>1543.1999511719</ele>
        <time>2014-03-02T15:45:17.000Z</time>
      </trkpt>
      <trkpt lat="45.32514" lon="6.23034">
        <ele>1543.1999511719</ele>
        <time>2014-03-02T15:45:18.000Z</time>
      </trkpt>
      <trkpt lat="45.32518" lon="6.23039">
        <ele>1543.4000244141</ele>
        <time>2014-03-02T15:45:19.000Z</time>
      </trkpt>
      <trkpt lat="45.32521" lon="6.23045">
        <ele>1543.4000244141</ele>
        <time>2014-03-02T15:45:20.000Z</time>
      </trkpt>
      <trkpt lat="45.3252" lon="6.23054">
        <ele>1542.1999511719</ele>
        <time>2014-03-02T15:45:21.000Z</time>
      </trkpt>
      <trkpt lat="45.32521" lon="6.23061">
        <ele>1541.5999755859</ele>
        <time>2014-03-02T15:45:22.000Z</time>
      </trkpt>
      <trkpt lat="45.32523" lon="6.23067">
        <ele>1541.4000244141</ele>
        <time>2014-03-02T15:45:23.000Z</time>
      </trkpt>
      <trkpt lat="45.32523" lon="6.23073">
        <ele>1541</ele>
        <time>2014-03-02T15:45:24.000Z</time>
      </trkpt>
      <trkpt lat="45.32525" lon="6.23079">
        <ele>1541</ele>
        <time>2014-03-02T15:45:25.000Z</time>
      </trkpt>
      <trkpt lat="45.32527" lon="6.23084">
        <ele>1541</ele>
        <time>2014-03-02T15:45:26.000Z</time>
      </trkpt>
      <trkpt lat="45.32527" lon="6.23092">
        <ele>1540.4000244141</ele>
        <time>2014-03-02T15:45:27.000Z</time>
      </trkpt>
      <trkpt lat="45.32528" lon="6.231">
        <ele>1540</ele>
        <time>2014-03-02T15:45:28.000Z</time>
      </trkpt>
      <trkpt lat="45.32529" lon="6.23109">
        <ele>1539.8000488281</ele>
        <time>2014-03-02T15:45:29.000Z</time>
      </trkpt>
      <trkpt lat="45.32531" lon="6.23117">
        <ele>1539.5999755859</ele>
        <time>2014-03-02T15:45:30.000Z</time>
      </trkpt>
      <trkpt lat="45.32533" lon="6.23125">
        <ele>1539.4000244141</ele>
        <time>2014-03-02T15:45:31.000Z</time>
      </trkpt>
      <trkpt lat="45.32536" lon="6.23134">
        <ele>1539.4000244141</ele>
        <time>2014-03-02T15:45:32.000Z</time>
      </trkpt>
      <trkpt lat="45.32539" lon="6.23142">
        <ele>1539.1999511719</ele>
        <time>2014-03-02T15:45:33.000Z</time>
      </trkpt>
      <trkpt lat="45.32541" lon="6.23149">
        <ele>1538.5999755859</ele>
        <time>2014-03-02T15:45:34.000Z</time>
      </trkpt>
      <trkpt lat="45.32541" lon="6.23155">
        <ele>1537</ele>
        <time>2014-03-02T15:45:35.000Z</time>
      </trkpt>
      <trkpt lat="45.32541" lon="6.2316">
        <ele>1535.5999755859</ele>
        <time>2014-03-02T15:45:36.000Z</time>
      </trkpt>
      <trkpt lat="45.32542" lon="6.23165">
        <ele>1534.4000244141</ele>
        <time>2014-03-02T15:45:37.000Z</time>
      </trkpt>
      <trkpt lat="45.32542" lon="6.23169">
        <ele>1533.4000244141</ele>
        <time>2014-03-02T15:45:38.000Z</time>
      </trkpt>
      <trkpt lat="45.32542" lon="6.23173">
        <ele>1532.4000244141</ele>
        <time>2014-03-02T15:45:39.000Z</time>
      </trkpt>
      <trkpt lat="45.32542" lon="6.23177">
        <ele>1531.1999511719</ele>
        <time>2014-03-02T15:45:40.000Z</time>
      </trkpt>
      <trkpt lat="45.3254" lon="6.23182">
        <ele>1529.5999755859</ele>
        <time>2014-03-02T15:45:41.000Z</time>
      </trkpt>
      <trkpt lat="45.3254" lon="6.23187">
        <ele>1528.4000244141</ele>
        <time>2014-03-02T15:45:42.000Z</time>
      </trkpt>
      <trkpt lat="45.32538" lon="6.23193">
        <ele>1526.4000244141</ele>
        <time>2014-03-02T15:45:43.000Z</time>
      </trkpt>
      <trkpt lat="45.32538" lon="6.23197">
        <ele>1525.1999511719</ele>
        <time>2014-03-02T15:45:44.000Z</time>
      </trkpt>
      <trkpt lat="45.32538" lon="6.23199">
        <ele>1524.4000244141</ele>
        <time>2014-03-02T15:45:45.000Z</time>
      </trkpt>
      <trkpt lat="45.32537" lon="6.232">
        <ele>1524</ele>
        <time>2014-03-02T15:45:46.000Z</time>
      </trkpt>
      <trkpt lat="45.32537" lon="6.232">
        <ele>1524</ele>
        <time>2014-03-02T15:45:47.000Z</time>
      </trkpt>
      <trkpt lat="45.32536" lon="6.23204">
        <ele>1522.8000488281</ele>
        <time>2014-03-02T15:45:48.000Z</time>
      </trkpt>
      <trkpt lat="45.32535" lon="6.23204">
        <ele>1522.5999755859</ele>
        <time>2014-03-02T15:45:49.000Z</time>
      </trkpt>
      <trkpt lat="45.32534" lon="6.23202">
        <ele>1522.5999755859</ele>
        <time>2014-03-02T15:45:50.000Z</time>
      </trkpt>
      <trkpt lat="45.32532" lon="6.23201">
        <ele>1522.4000244141</ele>
        <time>2014-03-02T15:45:51.000Z</time>
      </trkpt>
      <trkpt lat="45.3253" lon="6.23202">
        <ele>1521.5999755859</ele>
        <time>2014-03-02T15:45:52.000Z</time>
      </trkpt>
      <trkpt lat="45.32529" lon="6.23204">
        <ele>1521</ele>
        <time>2014-03-02T15:45:53.000Z</time>
      </trkpt>
      <trkpt lat="45.32529" lon="6.23207">
        <ele>1520.1999511719</ele>
        <time>2014-03-02T15:45:54.000Z</time>
      </trkpt>
      <trkpt lat="45.32529" lon="6.2321">
        <ele>1519.5999755859</ele>
        <time>2014-03-02T15:45:55.000Z</time>
      </trkpt>
      <trkpt lat="45.3253" lon="6.23214">
        <ele>1519</ele>
        <time>2014-03-02T15:45:56.000Z</time>
      </trkpt>
      <trkpt lat="45.32532" lon="6.23218">
        <ele>1518.4000244141</ele>
        <time>2014-03-02T15:45:57.000Z</time>
      </trkpt>
      <trkpt lat="45.32534" lon="6.23224">
        <ele>1517.5999755859</ele>
        <time>2014-03-02T15:45:58.000Z</time>
      </trkpt>
      <trkpt lat="45.32536" lon="6.2323">
        <ele>1517</ele>
        <time>2014-03-02T15:45:59.000Z</time>
      </trkpt>
      <trkpt lat="45.32539" lon="6.23237">
        <ele>1516.1999511719</ele>
        <time>2014-03-02T15:46:00.000Z</time>
      </trkpt>
      <trkpt lat="45.32543" lon="6.23245">
        <ele>1515.4000244141</ele>
        <time>2014-03-02T15:46:01.000Z</time>
      </trkpt>
      <trkpt lat="45.32546" lon="6.23254">
        <ele>1514.1999511719</ele>
        <time>2014-03-02T15:46:02.000Z</time>
      </trkpt>
      <trkpt lat="45.32549" lon="6.23263">
        <ele>1513.8000488281</ele>
        <time>2014-03-02T15:46:03.000Z</time>
      </trkpt>
      <trkpt lat="45.32553" lon="6.23272">
        <ele>1514</ele>
        <time>2014-03-02T15:46:04.000Z</time>
      </trkpt>
      <trkpt lat="45.32556" lon="6.23282">
        <ele>1514.4000244141</ele>
        <time>2014-03-02T15:46:05.000Z</time>
      </trkpt>
      <trkpt lat="45.3256" lon="6.23292">
        <ele>1514.1999511719</ele>
        <time>2014-03-02T15:46:06.000Z</time>
      </trkpt>
      <trkpt lat="45.32562" lon="6.23302">
        <ele>1513.8000488281</ele>
        <time>2014-03-02T15:46:07.000Z</time>
      </trkpt>
      <trkpt lat="45.32565" lon="6.23311">
        <ele>1513.4000244141</ele>
        <time>2014-03-02T15:46:08.000Z</time>
      </trkpt>
      <trkpt lat="45.32566" lon="6.23318">
        <ele>1512.8000488281</ele>
        <time>2014-03-02T15:46:09.000Z</time>
      </trkpt>
      <trkpt lat="45.32566" lon="6.23325">
        <ele>1512</ele>
        <time>2014-03-02T15:46:10.000Z</time>
      </trkpt>
      <trkpt lat="45.32564" lon="6.23327">
        <ele>1510.4000244141</ele>
        <time>2014-03-02T15:46:11.000Z</time>
      </trkpt>
      <trkpt lat="45.32562" lon="6.23331">
        <ele>1508.5999755859</ele>
        <time>2014-03-02T15:46:12.000Z</time>
      </trkpt>
      <trkpt lat="45.32559" lon="6.23335">
        <ele>1506.4000244141</ele>
        <time>2014-03-02T15:46:13.000Z</time>
      </trkpt>
      <trkpt lat="45.32555" lon="6.23341">
        <ele>1503.1999511719</ele>
        <time>2014-03-02T15:46:14.000Z</time>
      </trkpt>
      <trkpt lat="45.32553" lon="6.23346">
        <ele>1500.8000488281</ele>
        <time>2014-03-02T15:46:15.000Z</time>
      </trkpt>
      <trkpt lat="45.32551" lon="6.23346">
        <ele>1500</ele>
        <time>2014-03-02T15:46:16.000Z</time>
      </trkpt>
      <trkpt lat="45.32549" lon="6.23347">
        <ele>1498.1999511719</ele>
        <time>2014-03-02T15:46:17.000Z</time>
      </trkpt>
      <trkpt lat="45.32546" lon="6.23347">
        <ele>1497.1999511719</ele>
        <time>2014-03-02T15:46:18.000Z</time>
      </trkpt>
      <trkpt lat="45.32544" lon="6.23346">
        <ele>1496.8000488281</ele>
        <time>2014-03-02T15:46:19.000Z</time>
      </trkpt>
      <trkpt lat="45.32544" lon="6.23341">
        <ele>1497.5999755859</ele>
        <time>2014-03-02T15:46:20.000Z</time>
      </trkpt>
      <trkpt lat="45.32542" lon="6.23342">
        <ele>1497</ele>
        <time>2014-03-02T15:46:21.000Z</time>
      </trkpt>
      <trkpt lat="45.3254" lon="6.23342">
        <ele>1496.5999755859</ele>
        <time>2014-03-02T15:46:22.000Z</time>
      </trkpt>
      <trkpt lat="45.32539" lon="6.23342">
        <ele>1496.1999511719</ele>
        <time>2014-03-02T15:46:23.000Z</time>
      </trkpt>
      <trkpt lat="45.32537" lon="6.23343">
        <ele>1495.8000488281</ele>
        <time>2014-03-02T15:46:24.000Z</time>
      </trkpt>
      <trkpt lat="45.32536" lon="6.23344">
        <ele>1495.1999511719</ele>
        <time>2014-03-02T15:46:25.000Z</time>
      </trkpt>
      <trkpt lat="45.32535" lon="6.23345">
        <ele>1494.5999755859</ele>
        <time>2014-03-02T15:46:26.000Z</time>
      </trkpt>
      <trkpt lat="45.32534" lon="6.23347">
        <ele>1494.1999511719</ele>
        <time>2014-03-02T15:46:27.000Z</time>
      </trkpt>
      <trkpt lat="45.32534" lon="6.23345">
        <ele>1494.5999755859</ele>
        <time>2014-03-02T15:46:28.000Z</time>
      </trkpt>
      <trkpt lat="45.32535" lon="6.23344">
        <ele>1495</ele>
        <time>2014-03-02T15:46:29.000Z</time>
      </trkpt>
      <trkpt lat="45.32535" lon="6.23343">
        <ele>1495.4000244141</ele>
        <time>2014-03-02T15:46:30.000Z</time>
      </trkpt>
      <trkpt lat="45.32535" lon="6.23343">
        <ele>1495.4000244141</ele>
        <time>2014-03-02T15:46:31.000Z</time>
      </trkpt>
      <trkpt lat="45.32535" lon="6.23343">
        <ele>1495.4000244141</ele>
        <time>2014-03-02T15:46:32.000Z</time>
      </trkpt>
      <trkpt lat="45.32535" lon="6.23343">
        <ele>1495.4000244141</ele>
        <time>2014-03-02T15:46:33.000Z</time>
      </trkpt>
      <trkpt lat="45.32535" lon="6.23343">
        <ele>1495.4000244141</ele>
        <time>2014-03-02T15:46:34.000Z</time>
      </trkpt>
      <trkpt lat="45.32535" lon="6.23343">
        <ele>1495.4000244141</ele>
        <time>2014-03-02T15:46:35.000Z</time>
      </trkpt>
      <trkpt lat="45.32535" lon="6.23343">
        <ele>1495.4000244141</ele>
        <time>2014-03-02T15:46:36.000Z</time>
      </trkpt>
      <trkpt lat="45.32535" lon="6.23343">
        <ele>1495.4000244141</ele>
        <time>2014-03-02T15:46:37.000Z</time>
      </trkpt>
      <trkpt lat="45.32535" lon="6.23343">
        <ele>1495.4000244141</ele>
        <time>2014-03-02T15:46:38.000Z</time>
      </trkpt>
      <trkpt lat="45.32535" lon="6.23343">
        <ele>1495.4000244141</ele>
        <time>2014-03-02T15:46:39.000Z</time>
      </trkpt>
      <trkpt lat="45.32535" lon="6.23343">
        <ele>1495.4000244141</ele>
        <time>2014-03-02T15:46:40.000Z</time>
      </trkpt>
      <trkpt lat="45.32535" lon="6.23343">
        <ele>1495.4000244141</ele>
        <time>2014-03-02T15:46:41.000Z</time>
      </trkpt>
      <trkpt lat="45.32535" lon="6.23343">
        <ele>1495.4000244141</ele>
        <time>2014-03-02T15:46:42.000Z</time>
      </trkpt>
      <trkpt lat="45.32535" lon="6.23343">
        <ele>1495.4000244141</ele>
        <time>2014-03-02T15:46:43.000Z</time>
      </trkpt>
      <trkpt lat="45.32535" lon="6.23343">
        <ele>1495.4000244141</ele>
        <time>2014-03-02T15:46:44.000Z</time>
      </trkpt>
      <trkpt lat="45.32535" lon="6.23343">
        <ele>1495.4000244141</ele>
        <time>2014-03-02T15:46:45.000Z</time>
      </trkpt>
      <trkpt lat="45.32535" lon="6.23343">
        <ele>1495.4000244141</ele>
        <time>2014-03-02T15:46:46.000Z</time>
      </trkpt>
      <trkpt lat="45.32535" lon="6.23343">
        <ele>1495.4000244141</ele>
        <time>2014-03-02T15:46:47.000Z</time>
      </trkpt>
      <trkpt lat="45.32535" lon="6.23343">
        <ele>1495.4000244141</ele>
        <time>2014-03-02T15:46:48.000Z</time>
      </trkpt>
      <trkpt lat="45.32535" lon="6.23343">
        <ele>1495.4000244141</ele>
        <time>2014-03-02T15:46:51.000Z</time>
      </trkpt>
      <trkpt lat="45.32535" lon="6.23343">
        <ele>1495.4000244141</ele>
        <time>2014-03-02T15:46:52.000Z</time>
      </trkpt>
      <trkpt lat="45.32535" lon="6.23343">
        <ele>1495.4000244141</ele>
        <time>2014-03-02T15:46:53.000Z</time>
      </trkpt>
      <trkpt lat="45.32535" lon="6.23343">
        <ele>1495.4000244141</ele>
        <time>2014-03-02T15:46:54.000Z</time>
      </trkpt>
      <trkpt lat="45.32535" lon="6.23343">
        <ele>1495.4000244141</ele>
        <time>2014-03-02T15:46:55.000Z</time>
      </trkpt>
      <trkpt lat="45.32535" lon="6.23343">
        <ele>1495.4000244141</ele>
        <time>2014-03-02T15:46:56.000Z</time>
      </trkpt>
      <trkpt lat="45.32535" lon="6.23343">
        <ele>1495.4000244141</ele>
        <time>2014-03-02T15:46:57.000Z</time>
      </trkpt>
      <trkpt lat="45.32535" lon="6.23343">
        <ele>1495.4000244141</ele>
        <time>2014-03-02T15:46:58.000Z</time>
      </trkpt>
      <trkpt lat="45.32535" lon="6.23343">
        <ele>1495.4000244141</ele>
        <time>2014-03-02T15:46:59.000Z</time>
      </trkpt>
      <trkpt lat="45.32535" lon="6.23343">
        <ele>1495.4000244141</ele>
        <time>2014-03-02T15:47:00.000Z</time>
      </trkpt>
      <trkpt lat="45.32535" lon="6.23343">
        <ele>1495.4000244141</ele>
        <time>2014-03-02T15:47:01.000Z</time>
      </trkpt>
      <trkpt lat="45.32535" lon="6.23343">
        <ele>1495.4000244141</ele>
        <time>2014-03-02T15:47:02.000Z</time>
      </trkpt>
      <trkpt lat="45.32535" lon="6.23343">
        <ele>1495.4000244141</ele>
        <time>2014-03-02T15:47:03.000Z</time>
      </trkpt>
      <trkpt lat="45.32535" lon="6.23343">
        <ele>1495.4000244141</ele>
        <time>2014-03-02T15:47:05.000Z</time>
      </trkpt>
      <trkpt lat="45.32535" lon="6.23343">
        <ele>1495.4000244141</ele>
        <time>2014-03-02T15:47:06.000Z</time>
      </trkpt>
      <trkpt lat="45.32536" lon="6.23341">
        <ele>1495.5999755859</ele>
        <time>2014-03-02T15:47:07.000Z</time>
      </trkpt>
      <trkpt lat="45.32536" lon="6.2334">
        <ele>1496</ele>
        <time>2014-03-02T15:47:08.000Z</time>
      </trkpt>
      <trkpt lat="45.32536" lon="6.23339">
        <ele>1496.1999511719</ele>
        <time>2014-03-02T15:47:09.000Z</time>
      </trkpt>
      <trkpt lat="45.32536" lon="6.23339">
        <ele>1496.1999511719</ele>
        <time>2014-03-02T15:47:10.000Z</time>
      </trkpt>
      <trkpt lat="45.32536" lon="6.23339">
        <ele>1496.1999511719</ele>
        <time>2014-03-02T15:47:11.000Z</time>
      </trkpt>
      <trkpt lat="45.32536" lon="6.23339">
        <ele>1496.1999511719</ele>
        <time>2014-03-02T15:47:12.000Z</time>
      </trkpt>
      <trkpt lat="45.32536" lon="6.23339">
        <ele>1496.1999511719</ele>
        <time>2014-03-02T15:47:13.000Z</time>
      </trkpt>
      <trkpt lat="45.32536" lon="6.23339">
        <ele>1496.1999511719</ele>
        <time>2014-03-02T15:47:14.000Z</time>
      </trkpt>
      <trkpt lat="45.32536" lon="6.23339">
        <ele>1496.1999511719</ele>
        <time>2014-03-02T15:47:15.000Z</time>
      </trkpt>
      <trkpt lat="45.32536" lon="6.23339">
        <ele>1496.1999511719</ele>
        <time>2014-03-02T15:47:16.000Z</time>
      </trkpt>
      <trkpt lat="45.32536" lon="6.23339">
        <ele>1496.1999511719</ele>
        <time>2014-03-02T15:47:17.000Z</time>
      </trkpt>
      <trkpt lat="45.32536" lon="6.23339">
        <ele>1496.1999511719</ele>
        <time>2014-03-02T15:47:18.000Z</time>
      </trkpt>
      <trkpt lat="45.32536" lon="6.23339">
        <ele>1496.1999511719</ele>
        <time>2014-03-02T15:47:19.000Z</time>
      </trkpt>
      <trkpt lat="45.32536" lon="6.23339">
        <ele>1496.1999511719</ele>
        <time>2014-03-02T15:47:20.000Z</time>
      </trkpt>
      <trkpt lat="45.32537" lon="6.23338">
        <ele>1496.8000488281</ele>
        <time>2014-03-02T15:47:22.000Z</time>
      </trkpt>
      <trkpt lat="45.32539" lon="6.23338">
        <ele>1497.1999511719</ele>
        <time>2014-03-02T15:47:23.000Z</time>
      </trkpt>
      <trkpt lat="45.32542" lon="6.23332">
        <ele>1498.8000488281</ele>
        <time>2014-03-02T15:47:24.000Z</time>
      </trkpt>
      <trkpt lat="45.32544" lon="6.23331">
        <ele>1499.5999755859</ele>
        <time>2014-03-02T15:47:25.000Z</time>
      </trkpt>
      <trkpt lat="45.32545" lon="6.2333">
        <ele>1500.1999511719</ele>
        <time>2014-03-02T15:47:26.000Z</time>
      </trkpt>
      <trkpt lat="45.32546" lon="6.23329">
        <ele>1500.4000244141</ele>
        <time>2014-03-02T15:47:27.000Z</time>
      </trkpt>
      <trkpt lat="45.32547" lon="6.23329">
        <ele>1500.8000488281</ele>
        <time>2014-03-02T15:47:28.000Z</time>
      </trkpt>
      <trkpt lat="45.32547" lon="6.23328">
        <ele>1501.1999511719</ele>
        <time>2014-03-02T15:47:29.000Z</time>
      </trkpt>
      <trkpt lat="45.32548" lon="6.23327">
        <ele>1501.5999755859</ele>
        <time>2014-03-02T15:47:31.000Z</time>
      </trkpt>
      <trkpt lat="45.32548" lon="6.23326">
        <ele>1502</ele>
        <time>2014-03-02T15:47:32.000Z</time>
      </trkpt>
      <trkpt lat="45.32549" lon="6.23326">
        <ele>1502.1999511719</ele>
        <time>2014-03-02T15:47:33.000Z</time>
      </trkpt>
      <trkpt lat="45.32549" lon="6.23326">
        <ele>1502.5999755859</ele>
        <time>2014-03-02T15:47:35.000Z</time>
      </trkpt>
      <trkpt lat="45.3255" lon="6.23326">
        <ele>1502.8000488281</ele>
        <time>2014-03-02T15:47:36.000Z</time>
      </trkpt>
      <trkpt lat="45.32549" lon="6.23326">
        <ele>1502.5999755859</ele>
        <time>2014-03-02T15:47:37.000Z</time>
      </trkpt>
      <trkpt lat="45.32549" lon="6.23326">
        <ele>1502.5999755859</ele>
        <time>2014-03-02T15:47:41.000Z</time>
      </trkpt>
      <trkpt lat="45.32549" lon="6.23326">
        <ele>1502.5999755859</ele>
        <time>2014-03-02T15:47:42.000Z</time>
      </trkpt>
      <trkpt lat="45.32549" lon="6.23326">
        <ele>1502.5999755859</ele>
        <time>2014-03-02T15:47:43.000Z</time>
      </trkpt>
      <trkpt lat="45.32549" lon="6.23326">
        <ele>1502.5999755859</ele>
        <time>2014-03-02T15:47:44.000Z</time>
      </trkpt>
      <trkpt lat="45.32549" lon="6.23326">
        <ele>1502.5999755859</ele>
        <time>2014-03-02T15:47:45.000Z</time>
      </trkpt>
      <trkpt lat="45.32549" lon="6.23326">
        <ele>1502.5999755859</ele>
        <time>2014-03-02T15:47:46.000Z</time>
      </trkpt>
      <trkpt lat="45.32549" lon="6.23326">
        <ele>1502.5999755859</ele>
        <time>2014-03-02T15:47:47.000Z</time>
      </trkpt>
      <trkpt lat="45.32549" lon="6.23326">
        <ele>1502.5999755859</ele>
        <time>2014-03-02T15:47:48.000Z</time>
      </trkpt>
      <trkpt lat="45.32549" lon="6.23326">
        <ele>1502.5999755859</ele>
        <time>2014-03-02T15:47:49.000Z</time>
      </trkpt>
      <trkpt lat="45.32549" lon="6.23326">
        <ele>1502.5999755859</ele>
        <time>2014-03-02T15:47:50.000Z</time>
      </trkpt>
      <trkpt lat="45.32549" lon="6.23326">
        <ele>1502.5999755859</ele>
        <time>2014-03-02T15:47:51.000Z</time>
      </trkpt>
      <trkpt lat="45.32549" lon="6.23326">
        <ele>1502.5999755859</ele>
        <time>2014-03-02T15:47:55.000Z</time>
      </trkpt>
      <trkpt lat="45.32549" lon="6.23326">
        <ele>1502.5999755859</ele>
        <time>2014-03-02T15:47:56.000Z</time>
      </trkpt>
      <trkpt lat="45.32549" lon="6.23326">
        <ele>1502.5999755859</ele>
        <time>2014-03-02T15:47:57.000Z</time>
      </trkpt>
      <trkpt lat="45.32549" lon="6.23326">
        <ele>1502.5999755859</ele>
        <time>2014-03-02T15:47:58.000Z</time>
      </trkpt>
      <trkpt lat="45.32549" lon="6.23326">
        <ele>1502.5999755859</ele>
        <time>2014-03-02T15:47:59.000Z</time>
      </trkpt>
      <trkpt lat="45.32549" lon="6.23326">
        <ele>1502.5999755859</ele>
        <time>2014-03-02T15:48:00.000Z</time>
      </trkpt>
      <trkpt lat="45.32549" lon="6.23326">
        <ele>1502.5999755859</ele>
        <time>2014-03-02T15:48:01.000Z</time>
      </trkpt>
      <trkpt lat="45.32549" lon="6.23326">
        <ele>1502.5999755859</ele>
        <time>2014-03-02T15:48:03.000Z</time>
      </trkpt>
      <trkpt lat="45.32549" lon="6.23326">
        <ele>1502.5999755859</ele>
        <time>2014-03-02T15:48:04.000Z</time>
      </trkpt>
      <trkpt lat="45.32549" lon="6.23326">
        <ele>1502.5999755859</ele>
        <time>2014-03-02T15:48:05.000Z</time>
      </trkpt>
      <trkpt lat="45.32549" lon="6.23326">
        <ele>1502.5999755859</ele>
        <time>2014-03-02T15:48:06.000Z</time>
      </trkpt>
      <trkpt lat="45.32549" lon="6.23326">
        <ele>1502.5999755859</ele>
        <time>2014-03-02T15:48:08.000Z</time>
      </trkpt>
      <trkpt lat="45.32549" lon="6.23326">
        <ele>1502.5999755859</ele>
        <time>2014-03-02T15:48:09.000Z</time>
      </trkpt>
      <trkpt lat="45.32549" lon="6.23326">
        <ele>1502.5999755859</ele>
        <time>2014-03-02T15:48:10.000Z</time>
      </trkpt>
      <trkpt lat="45.32549" lon="6.23326">
        <ele>1502.5999755859</ele>
        <time>2014-03-02T15:48:11.000Z</time>
      </trkpt>
      <trkpt lat="45.32549" lon="6.23326">
        <ele>1502.5999755859</ele>
        <time>2014-03-02T15:48:12.000Z</time>
      </trkpt>
      <trkpt lat="45.32549" lon="6.23326">
        <ele>1502.5999755859</ele>
        <time>2014-03-02T15:48:13.000Z</time>
      </trkpt>
      <trkpt lat="45.32549" lon="6.23326">
        <ele>1502.5999755859</ele>
        <time>2014-03-02T15:48:14.000Z</time>
      </trkpt>
      <trkpt lat="45.32549" lon="6.23326">
        <ele>1502.5999755859</ele>
        <time>2014-03-02T15:48:15.000Z</time>
      </trkpt>
      <trkpt lat="45.32549" lon="6.23326">
        <ele>1502.5999755859</ele>
        <time>2014-03-02T15:48:16.000Z</time>
      </trkpt>
      <trkpt lat="45.32549" lon="6.23326">
        <ele>1502</ele>
        <time>2014-03-02T15:48:17.000Z</time>
      </trkpt>
      <trkpt lat="45.32549" lon="6.23326">
        <ele>1502</ele>
        <time>2014-03-02T15:48:18.000Z</time>
      </trkpt>
      <trkpt lat="45.32549" lon="6.23326">
        <ele>1502</ele>
        <time>2014-03-02T15:48:19.000Z</time>
      </trkpt>
      <trkpt lat="45.32549" lon="6.23326">
        <ele>1502</ele>
        <time>2014-03-02T15:48:20.000Z</time>
      </trkpt>
      <trkpt lat="45.32549" lon="6.23326">
        <ele>1502</ele>
        <time>2014-03-02T15:48:21.000Z</time>
      </trkpt>
      <trkpt lat="45.32549" lon="6.23326">
        <ele>1502</ele>
        <time>2014-03-02T15:48:22.000Z</time>
      </trkpt>
      <trkpt lat="45.32549" lon="6.23326">
        <ele>1502</ele>
        <time>2014-03-02T15:48:23.000Z</time>
      </trkpt>
      <trkpt lat="45.32549" lon="6.23329">
        <ele>1501.5999755859</ele>
        <time>2014-03-02T15:48:24.000Z</time>
      </trkpt>
      <trkpt lat="45.32549" lon="6.23333">
        <ele>1501</ele>
        <time>2014-03-02T15:48:25.000Z</time>
      </trkpt>
      <trkpt lat="45.32548" lon="6.23338">
        <ele>1499.8000488281</ele>
        <time>2014-03-02T15:48:26.000Z</time>
      </trkpt>
      <trkpt lat="45.32546" lon="6.23342">
        <ele>1498</ele>
        <time>2014-03-02T15:48:27.000Z</time>
      </trkpt>
      <trkpt lat="45.32545" lon="6.23347">
        <ele>1496.8000488281</ele>
        <time>2014-03-02T15:48:28.000Z</time>
      </trkpt>
      <trkpt lat="45.32543" lon="6.2335">
        <ele>1495.8000488281</ele>
        <time>2014-03-02T15:48:29.000Z</time>
      </trkpt>
      <trkpt lat="45.32541" lon="6.23353">
        <ele>1494.8000488281</ele>
        <time>2014-03-02T15:48:30.000Z</time>
      </trkpt>
      <trkpt lat="45.32541" lon="6.23354">
        <ele>1494.4000244141</ele>
        <time>2014-03-02T15:48:31.000Z</time>
      </trkpt>
      <trkpt lat="45.3254" lon="6.23355">
        <ele>1494</ele>
        <time>2014-03-02T15:48:32.000Z</time>
      </trkpt>
      <trkpt lat="45.3254" lon="6.23355">
        <ele>1494</ele>
        <time>2014-03-02T15:48:33.000Z</time>
      </trkpt>
      <trkpt lat="45.32539" lon="6.23358">
        <ele>1493.4000244141</ele>
        <time>2014-03-02T15:48:34.000Z</time>
      </trkpt>
      <trkpt lat="45.32539" lon="6.2336">
        <ele>1492.8000488281</ele>
        <time>2014-03-02T15:48:35.000Z</time>
      </trkpt>
      <trkpt lat="45.32538" lon="6.23362">
        <ele>1492.1999511719</ele>
        <time>2014-03-02T15:48:36.000Z</time>
      </trkpt>
      <trkpt lat="45.32538" lon="6.23364">
        <ele>1491.8000488281</ele>
        <time>2014-03-02T15:48:37.000Z</time>
      </trkpt>
      <trkpt lat="45.32537" lon="6.23365">
        <ele>1491.5999755859</ele>
        <time>2014-03-02T15:48:38.000Z</time>
      </trkpt>
      <trkpt lat="45.32537" lon="6.23366">
        <ele>1491.4000244141</ele>
        <time>2014-03-02T15:48:39.000Z</time>
      </trkpt>
      <trkpt lat="45.32537" lon="6.23366">
        <ele>1491.1999511719</ele>
        <time>2014-03-02T15:48:40.000Z</time>
      </trkpt>
      <trkpt lat="45.32537" lon="6.23366">
        <ele>1491.1999511719</ele>
        <time>2014-03-02T15:48:41.000Z</time>
      </trkpt>
      <trkpt lat="45.32537" lon="6.23366">
        <ele>1491.1999511719</ele>
        <time>2014-03-02T15:48:42.000Z</time>
      </trkpt>
      <trkpt lat="45.32537" lon="6.23367">
        <ele>1491</ele>
        <time>2014-03-02T15:48:43.000Z</time>
      </trkpt>
      <trkpt lat="45.32536" lon="6.23367">
        <ele>1490.8000488281</ele>
        <time>2014-03-02T15:48:44.000Z</time>
      </trkpt>
      <trkpt lat="45.32536" lon="6.23367">
        <ele>1490.8000488281</ele>
        <time>2014-03-02T15:48:45.000Z</time>
      </trkpt>
      <trkpt lat="45.32536" lon="6.23367">
        <ele>1490.8000488281</ele>
        <time>2014-03-02T15:48:46.000Z</time>
      </trkpt>
      <trkpt lat="45.32536" lon="6.23368">
        <ele>1490.5999755859</ele>
        <time>2014-03-02T15:48:47.000Z</time>
      </trkpt>
      <trkpt lat="45.32536" lon="6.23368">
        <ele>1490.5999755859</ele>
        <time>2014-03-02T15:48:48.000Z</time>
      </trkpt>
      <trkpt lat="45.32536" lon="6.23368">
        <ele>1490.5999755859</ele>
        <time>2014-03-02T15:48:49.000Z</time>
      </trkpt>
      <trkpt lat="45.32536" lon="6.23368">
        <ele>1490.5999755859</ele>
        <time>2014-03-02T15:48:50.000Z</time>
      </trkpt>
      <trkpt lat="45.32536" lon="6.23368">
        <ele>1490.5999755859</ele>
        <time>2014-03-02T15:48:51.000Z</time>
      </trkpt>
      <trkpt lat="45.32536" lon="6.23368">
        <ele>1490.5999755859</ele>
        <time>2014-03-02T15:48:52.000Z</time>
      </trkpt>
      <trkpt lat="45.32536" lon="6.23368">
        <ele>1490.5999755859</ele>
        <time>2014-03-02T15:48:53.000Z</time>
      </trkpt>
      <trkpt lat="45.32536" lon="6.23368">
        <ele>1490.5999755859</ele>
        <time>2014-03-02T15:48:54.000Z</time>
      </trkpt>
      <trkpt lat="45.32536" lon="6.23368">
        <ele>1490.5999755859</ele>
        <time>2014-03-02T15:48:55.000Z</time>
      </trkpt>
      <trkpt lat="45.32536" lon="6.23368">
        <ele>1490.5999755859</ele>
        <time>2014-03-02T15:48:56.000Z</time>
      </trkpt>
      <trkpt lat="45.32536" lon="6.23368">
        <ele>1490.5999755859</ele>
        <time>2014-03-02T15:48:57.000Z</time>
      </trkpt>
      <trkpt lat="45.32536" lon="6.23368">
        <ele>1490.5999755859</ele>
        <time>2014-03-02T15:48:58.000Z</time>
      </trkpt>
      <trkpt lat="45.32535" lon="6.23368">
        <ele>1490.5999755859</ele>
        <time>2014-03-02T15:48:59.000Z</time>
      </trkpt>
      <trkpt lat="45.32535" lon="6.23368">
        <ele>1490.4000244141</ele>
        <time>2014-03-02T15:49:00.000Z</time>
      </trkpt>
      <trkpt lat="45.32535" lon="6.23368">
        <ele>1490.1999511719</ele>
        <time>2014-03-02T15:49:01.000Z</time>
      </trkpt>
      <trkpt lat="45.32535" lon="6.23368">
        <ele>1490.1999511719</ele>
        <time>2014-03-02T15:49:02.000Z</time>
      </trkpt>
      <trkpt lat="45.32535" lon="6.23368">
        <ele>1490.1999511719</ele>
        <time>2014-03-02T15:49:03.000Z</time>
      </trkpt>
      <trkpt lat="45.32535" lon="6.23369">
        <ele>1490.1999511719</ele>
        <time>2014-03-02T15:49:04.000Z</time>
      </trkpt>
      <trkpt lat="45.32534" lon="6.23369">
        <ele>1490</ele>
        <time>2014-03-02T15:49:05.000Z</time>
      </trkpt>
      <trkpt lat="45.32534" lon="6.2337">
        <ele>1489.8000488281</ele>
        <time>2014-03-02T15:49:06.000Z</time>
      </trkpt>
      <trkpt lat="45.32534" lon="6.23371">
        <ele>1489.5999755859</ele>
        <time>2014-03-02T15:49:07.000Z</time>
      </trkpt>
      <trkpt lat="45.32533" lon="6.23371">
        <ele>1489.4000244141</ele>
        <time>2014-03-02T15:49:08.000Z</time>
      </trkpt>
      <trkpt lat="45.32533" lon="6.23372">
        <ele>1489.1999511719</ele>
        <time>2014-03-02T15:49:09.000Z</time>
      </trkpt>
      <trkpt lat="45.32533" lon="6.23372">
        <ele>1489.1999511719</ele>
        <time>2014-03-02T15:49:10.000Z</time>
      </trkpt>
      <trkpt lat="45.32533" lon="6.23372">
        <ele>1489.1999511719</ele>
        <time>2014-03-02T15:49:11.000Z</time>
      </trkpt>
      <trkpt lat="45.32533" lon="6.23372">
        <ele>1489.1999511719</ele>
        <time>2014-03-02T15:49:12.000Z</time>
      </trkpt>
      <trkpt lat="45.32533" lon="6.23372">
        <ele>1489.1999511719</ele>
        <time>2014-03-02T15:49:13.000Z</time>
      </trkpt>
      <trkpt lat="45.32533" lon="6.23372">
        <ele>1489.1999511719</ele>
        <time>2014-03-02T15:49:14.000Z</time>
      </trkpt>
      <trkpt lat="45.32533" lon="6.23372">
        <ele>1489.1999511719</ele>
        <time>2014-03-02T15:49:15.000Z</time>
      </trkpt>
      <trkpt lat="45.32533" lon="6.23372">
        <ele>1489.1999511719</ele>
        <time>2014-03-02T15:49:16.000Z</time>
      </trkpt>
      <trkpt lat="45.32533" lon="6.23372">
        <ele>1489.1999511719</ele>
        <time>2014-03-02T15:49:17.000Z</time>
      </trkpt>
      <trkpt lat="45.32533" lon="6.23372">
        <ele>1489.1999511719</ele>
        <time>2014-03-02T15:49:18.000Z</time>
      </trkpt>
      <trkpt lat="45.32533" lon="6.23372">
        <ele>1489.1999511719</ele>
        <time>2014-03-02T15:49:19.000Z</time>
      </trkpt>
      <trkpt lat="45.32533" lon="6.23372">
        <ele>1489.1999511719</ele>
        <time>2014-03-02T15:49:20.000Z</time>
      </trkpt>
      <trkpt lat="45.32533" lon="6.23372">
        <ele>1489.1999511719</ele>
        <time>2014-03-02T15:49:22.000Z</time>
      </trkpt>
      <trkpt lat="45.32533" lon="6.23372">
        <ele>1489.1999511719</ele>
        <time>2014-03-02T15:49:23.000Z</time>
      </trkpt>
      <trkpt lat="45.32533" lon="6.23372">
        <ele>1489.1999511719</ele>
        <time>2014-03-02T15:49:24.000Z</time>
      </trkpt>
      <trkpt lat="45.32533" lon="6.23372">
        <ele>1489.1999511719</ele>
        <time>2014-03-02T15:49:25.000Z</time>
      </trkpt>
      <trkpt lat="45.32533" lon="6.23372">
        <ele>1489.1999511719</ele>
        <time>2014-03-02T15:49:26.000Z</time>
      </trkpt>
      <trkpt lat="45.32533" lon="6.23372">
        <ele>1489.1999511719</ele>
        <time>2014-03-02T15:49:27.000Z</time>
      </trkpt>
      <trkpt lat="45.32533" lon="6.23372">
        <ele>1489.1999511719</ele>
        <time>2014-03-02T15:49:28.000Z</time>
      </trkpt>
      <trkpt lat="45.32533" lon="6.23372">
        <ele>1489.1999511719</ele>
        <time>2014-03-02T15:49:32.000Z</time>
      </trkpt>
      <trkpt lat="45.32533" lon="6.23372">
        <ele>1489.1999511719</ele>
        <time>2014-03-02T15:49:33.000Z</time>
      </trkpt>
      <trkpt lat="45.32533" lon="6.23372">
        <ele>1489.1999511719</ele>
        <time>2014-03-02T15:49:34.000Z</time>
      </trkpt>
      <trkpt lat="45.32533" lon="6.23372">
        <ele>1489.1999511719</ele>
        <time>2014-03-02T15:49:35.000Z</time>
      </trkpt>
      <trkpt lat="45.32533" lon="6.23372">
        <ele>1489.1999511719</ele>
        <time>2014-03-02T15:49:36.000Z</time>
      </trkpt>
      <trkpt lat="45.32533" lon="6.23372">
        <ele>1489.1999511719</ele>
        <time>2014-03-02T15:49:37.000Z</time>
      </trkpt>
      <trkpt lat="45.32533" lon="6.23372">
        <ele>1489.1999511719</ele>
        <time>2014-03-02T15:49:39.000Z</time>
      </trkpt>
      <trkpt lat="45.32533" lon="6.23372">
        <ele>1489.1999511719</ele>
        <time>2014-03-02T15:49:40.000Z</time>
      </trkpt>
      <trkpt lat="45.32533" lon="6.23372">
        <ele>1489.1999511719</ele>
        <time>2014-03-02T15:49:41.000Z</time>
      </trkpt>
      <trkpt lat="45.32533" lon="6.23372">
        <ele>1489.1999511719</ele>
        <time>2014-03-02T15:49:42.000Z</time>
      </trkpt>
      <trkpt lat="45.32533" lon="6.23372">
        <ele>1489.1999511719</ele>
        <time>2014-03-02T15:49:43.000Z</time>
      </trkpt>
      <trkpt lat="45.32533" lon="6.23372">
        <ele>1489.1999511719</ele>
        <time>2014-03-02T15:49:44.000Z</time>
      </trkpt>
      <trkpt lat="45.32533" lon="6.23372">
        <ele>1489.1999511719</ele>
        <time>2014-03-02T15:49:48.000Z</time>
      </trkpt>
      <trkpt lat="45.32533" lon="6.23371">
        <ele>1489.1999511719</ele>
        <time>2014-03-02T15:49:49.000Z</time>
      </trkpt>
      <trkpt lat="45.32533" lon="6.23371">
        <ele>1489.1999511719</ele>
        <time>2014-03-02T15:49:50.000Z</time>
      </trkpt>
      <trkpt lat="45.32533" lon="6.23371">
        <ele>1489.1999511719</ele>
        <time>2014-03-02T15:49:51.000Z</time>
      </trkpt>
      <trkpt lat="45.32533" lon="6.23371">
        <ele>1489.1999511719</ele>
        <time>2014-03-02T15:49:53.000Z</time>
      </trkpt>
      <trkpt lat="45.32533" lon="6.23371">
        <ele>1489.1999511719</ele>
        <time>2014-03-02T15:49:54.000Z</time>
      </trkpt>
      <trkpt lat="45.32533" lon="6.23371">
        <ele>1489.1999511719</ele>
        <time>2014-03-02T15:49:55.000Z</time>
      </trkpt>
      <trkpt lat="45.32533" lon="6.23371">
        <ele>1489.1999511719</ele>
        <time>2014-03-02T15:49:56.000Z</time>
      </trkpt>
      <trkpt lat="45.32533" lon="6.23371">
        <ele>1489.1999511719</ele>
        <time>2014-03-02T15:49:57.000Z</time>
      </trkpt>
      <trkpt lat="45.32533" lon="6.23371">
        <ele>1489.1999511719</ele>
        <time>2014-03-02T15:49:58.000Z</time>
      </trkpt>
      <trkpt lat="45.32533" lon="6.23371">
        <ele>1489.1999511719</ele>
        <time>2014-03-02T15:50:00.000Z</time>
      </trkpt>
      <trkpt lat="45.32533" lon="6.23371">
        <ele>1489.1999511719</ele>
        <time>2014-03-02T15:50:01.000Z</time>
      </trkpt>
      <trkpt lat="45.32533" lon="6.23371">
        <ele>1489.1999511719</ele>
        <time>2014-03-02T15:50:02.000Z</time>
      </trkpt>
      <trkpt lat="45.32533" lon="6.23371">
        <ele>1489.1999511719</ele>
        <time>2014-03-02T15:50:03.000Z</time>
      </trkpt>
      <trkpt lat="45.32533" lon="6.23371">
        <ele>1489.1999511719</ele>
        <time>2014-03-02T15:50:04.000Z</time>
      </trkpt>
      <trkpt lat="45.32533" lon="6.23371">
        <ele>1489.1999511719</ele>
        <time>2014-03-02T15:50:05.000Z</time>
      </trkpt>
      <trkpt lat="45.32533" lon="6.23371">
        <ele>1489.1999511719</ele>
        <time>2014-03-02T15:50:06.000Z</time>
      </trkpt>
      <trkpt lat="45.32533" lon="6.23372">
        <ele>1489.1999511719</ele>
        <time>2014-03-02T15:50:07.000Z</time>
      </trkpt>
      <trkpt lat="45.32534" lon="6.23373">
        <ele>1489</ele>
        <time>2014-03-02T15:50:08.000Z</time>
      </trkpt>
      <trkpt lat="45.32535" lon="6.23376">
        <ele>1488.8000488281</ele>
        <time>2014-03-02T15:50:09.000Z</time>
      </trkpt>
      <trkpt lat="45.32537" lon="6.23379">
        <ele>1488.8000488281</ele>
        <time>2014-03-02T15:50:10.000Z</time>
      </trkpt>
      <trkpt lat="45.32539" lon="6.23383">
        <ele>1488.4000244141</ele>
        <time>2014-03-02T15:50:11.000Z</time>
      </trkpt>
      <trkpt lat="45.32541" lon="6.23388">
        <ele>1487.8000488281</ele>
        <time>2014-03-02T15:50:12.000Z</time>
      </trkpt>
      <trkpt lat="45.32543" lon="6.23394">
        <ele>1487</ele>
        <time>2014-03-02T15:50:13.000Z</time>
      </trkpt>
      <trkpt lat="45.32545" lon="6.234">
        <ele>1486.5999755859</ele>
        <time>2014-03-02T15:50:14.000Z</time>
      </trkpt>
      <trkpt lat="45.32545" lon="6.23407">
        <ele>1486.1999511719</ele>
        <time>2014-03-02T15:50:15.000Z</time>
      </trkpt>
      <trkpt lat="45.32544" lon="6.23412">
        <ele>1485.4000244141</ele>
        <time>2014-03-02T15:50:16.000Z</time>
      </trkpt>
      <trkpt lat="45.32543" lon="6.23416">
        <ele>1484.5999755859</ele>
        <time>2014-03-02T15:50:17.000Z</time>
      </trkpt>
      <trkpt lat="45.32542" lon="6.23422">
        <ele>1483.5999755859</ele>
        <time>2014-03-02T15:50:18.000Z</time>
      </trkpt>
      <trkpt lat="45.32542" lon="6.23428">
        <ele>1483</ele>
        <time>2014-03-02T15:50:19.000Z</time>
      </trkpt>
      <trkpt lat="45.32542" lon="6.23435">
        <ele>1482.5999755859</ele>
        <time>2014-03-02T15:50:20.000Z</time>
      </trkpt>
      <trkpt lat="45.32543" lon="6.23441">
        <ele>1482.1999511719</ele>
        <time>2014-03-02T15:50:21.000Z</time>
      </trkpt>
      <trkpt lat="45.32544" lon="6.23446">
        <ele>1481.8000488281</ele>
        <time>2014-03-02T15:50:22.000Z</time>
      </trkpt>
      <trkpt lat="45.32544" lon="6.2345">
        <ele>1481.8000488281</ele>
        <time>2014-03-02T15:50:23.000Z</time>
      </trkpt>
      <trkpt lat="45.32545" lon="6.23452">
        <ele>1482</ele>
        <time>2014-03-02T15:50:24.000Z</time>
      </trkpt>
      <trkpt lat="45.32546" lon="6.23453">
        <ele>1482</ele>
        <time>2014-03-02T15:50:25.000Z</time>
      </trkpt>
      <trkpt lat="45.32546" lon="6.23454">
        <ele>1482.1999511719</ele>
        <time>2014-03-02T15:50:26.000Z</time>
      </trkpt>
      <trkpt lat="45.32547" lon="6.23454">
        <ele>1482.1999511719</ele>
        <time>2014-03-02T15:50:27.000Z</time>
      </trkpt>
      <trkpt lat="45.32547" lon="6.23454">
        <ele>1482.1999511719</ele>
        <time>2014-03-02T15:50:28.000Z</time>
      </trkpt>
      <trkpt lat="45.32547" lon="6.23454">
        <ele>1482.4000244141</ele>
        <time>2014-03-02T15:50:29.000Z</time>
      </trkpt>
      <trkpt lat="45.32547" lon="6.23455">
        <ele>1482.4000244141</ele>
        <time>2014-03-02T15:50:30.000Z</time>
      </trkpt>
      <trkpt lat="45.32547" lon="6.23455">
        <ele>1482.1999511719</ele>
        <time>2014-03-02T15:50:31.000Z</time>
      </trkpt>
      <trkpt lat="45.32547" lon="6.23454">
        <ele>1482.5999755859</ele>
        <time>2014-03-02T15:50:32.000Z</time>
      </trkpt>
      <trkpt lat="45.32548" lon="6.23453">
        <ele>1483</ele>
        <time>2014-03-02T15:50:33.000Z</time>
      </trkpt>
      <trkpt lat="45.32548" lon="6.23453">
        <ele>1483.1999511719</ele>
        <time>2014-03-02T15:50:34.000Z</time>
      </trkpt>
      <trkpt lat="45.32549" lon="6.23453">
        <ele>1483.5999755859</ele>
        <time>2014-03-02T15:50:35.000Z</time>
      </trkpt>
      <trkpt lat="45.32549" lon="6.23452">
        <ele>1483.8000488281</ele>
        <time>2014-03-02T15:50:36.000Z</time>
      </trkpt>
      <trkpt lat="45.32549" lon="6.23452">
        <ele>1484.1999511719</ele>
        <time>2014-03-02T15:50:37.000Z</time>
      </trkpt>
      <trkpt lat="45.3255" lon="6.23452">
        <ele>1484.4000244141</ele>
        <time>2014-03-02T15:50:38.000Z</time>
      </trkpt>
      <trkpt lat="45.3255" lon="6.23452">
        <ele>1484.4000244141</ele>
        <time>2014-03-02T15:50:39.000Z</time>
      </trkpt>
      <trkpt lat="45.3255" lon="6.23452">
        <ele>1484.4000244141</ele>
        <time>2014-03-02T15:50:40.000Z</time>
      </trkpt>
      <trkpt lat="45.3255" lon="6.23452">
        <ele>1484.4000244141</ele>
        <time>2014-03-02T15:50:41.000Z</time>
      </trkpt>
      <trkpt lat="45.3255" lon="6.23452">
        <ele>1484.4000244141</ele>
        <time>2014-03-02T15:50:42.000Z</time>
      </trkpt>
      <trkpt lat="45.3255" lon="6.23452">
        <ele>1484.4000244141</ele>
        <time>2014-03-02T15:50:43.000Z</time>
      </trkpt>
      <trkpt lat="45.3255" lon="6.23452">
        <ele>1484.4000244141</ele>
        <time>2014-03-02T15:50:44.000Z</time>
      </trkpt>
      <trkpt lat="45.3255" lon="6.23452">
        <ele>1484.4000244141</ele>
        <time>2014-03-02T15:50:45.000Z</time>
      </trkpt>
      <trkpt lat="45.3255" lon="6.23452">
        <ele>1484.4000244141</ele>
        <time>2014-03-02T15:50:46.000Z</time>
      </trkpt>
      <trkpt lat="45.3255" lon="6.23451">
        <ele>1485</ele>
        <time>2014-03-02T15:50:48.000Z</time>
      </trkpt>
      <trkpt lat="45.32551" lon="6.2345">
        <ele>1485.4000244141</ele>
        <time>2014-03-02T15:50:49.000Z</time>
      </trkpt>
      <trkpt lat="45.32551" lon="6.23449">
        <ele>1485.5999755859</ele>
        <time>2014-03-02T15:50:50.000Z</time>
      </trkpt>
      <trkpt lat="45.32551" lon="6.23449">
        <ele>1485.5999755859</ele>
        <time>2014-03-02T15:50:51.000Z</time>
      </trkpt>
      <trkpt lat="45.32552" lon="6.23453">
        <ele>1486</ele>
        <time>2014-03-02T15:50:55.000Z</time>
      </trkpt>
      <trkpt lat="45.32552" lon="6.23456">
        <ele>1485.8000488281</ele>
        <time>2014-03-02T15:50:56.000Z</time>
      </trkpt>
      <trkpt lat="45.32552" lon="6.23456">
        <ele>1485.8000488281</ele>
        <time>2014-03-02T15:50:57.000Z</time>
      </trkpt>
      <trkpt lat="45.32552" lon="6.23456">
        <ele>1485.8000488281</ele>
        <time>2014-03-02T15:50:58.000Z</time>
      </trkpt>
      <trkpt lat="45.32552" lon="6.23456">
        <ele>1485.8000488281</ele>
        <time>2014-03-02T15:50:59.000Z</time>
      </trkpt>
      <trkpt lat="45.32552" lon="6.23456">
        <ele>1485.8000488281</ele>
        <time>2014-03-02T15:51:00.000Z</time>
      </trkpt>
      <trkpt lat="45.32552" lon="6.23456">
        <ele>1485.8000488281</ele>
        <time>2014-03-02T15:51:01.000Z</time>
      </trkpt>
      <trkpt lat="45.32552" lon="6.23456">
        <ele>1485.8000488281</ele>
        <time>2014-03-02T15:51:02.000Z</time>
      </trkpt>
      <trkpt lat="45.32552" lon="6.23456">
        <ele>1485.8000488281</ele>
        <time>2014-03-02T15:51:03.000Z</time>
      </trkpt>
      <trkpt lat="45.32552" lon="6.23456">
        <ele>1485.8000488281</ele>
        <time>2014-03-02T15:51:04.000Z</time>
      </trkpt>
      <trkpt lat="45.32552" lon="6.23456">
        <ele>1485.8000488281</ele>
        <time>2014-03-02T15:51:05.000Z</time>
      </trkpt>
      <trkpt lat="45.32552" lon="6.23456">
        <ele>1485.8000488281</ele>
        <time>2014-03-02T15:51:06.000Z</time>
      </trkpt>
      <trkpt lat="45.32552" lon="6.23456">
        <ele>1485.8000488281</ele>
        <time>2014-03-02T15:51:07.000Z</time>
      </trkpt>
      <trkpt lat="45.32552" lon="6.23456">
        <ele>1485.8000488281</ele>
        <time>2014-03-02T15:51:08.000Z</time>
      </trkpt>
      <trkpt lat="45.32552" lon="6.23456">
        <ele>1485.8000488281</ele>
        <time>2014-03-02T15:51:09.000Z</time>
      </trkpt>
      <trkpt lat="45.32552" lon="6.23456">
        <ele>1485.8000488281</ele>
        <time>2014-03-02T15:51:11.000Z</time>
      </trkpt>
      <trkpt lat="45.32552" lon="6.23456">
        <ele>1485.8000488281</ele>
        <time>2014-03-02T15:51:12.000Z</time>
      </trkpt>
      <trkpt lat="45.32552" lon="6.23456">
        <ele>1485.8000488281</ele>
        <time>2014-03-02T15:51:13.000Z</time>
      </trkpt>
      <trkpt lat="45.32552" lon="6.23456">
        <ele>1485.8000488281</ele>
        <time>2014-03-02T15:51:14.000Z</time>
      </trkpt>
      <trkpt lat="45.32552" lon="6.23456">
        <ele>1485.8000488281</ele>
        <time>2014-03-02T15:51:15.000Z</time>
      </trkpt>
      <trkpt lat="45.32553" lon="6.23457">
        <ele>1486</ele>
        <time>2014-03-02T15:51:21.000Z</time>
      </trkpt>
      <trkpt lat="45.32553" lon="6.23457">
        <ele>1486</ele>
        <time>2014-03-02T15:51:22.000Z</time>
      </trkpt>
      <trkpt lat="45.32553" lon="6.23457">
        <ele>1486</ele>
        <time>2014-03-02T15:51:23.000Z</time>
      </trkpt>
      <trkpt lat="45.32553" lon="6.23457">
        <ele>1486</ele>
        <time>2014-03-02T15:51:24.000Z</time>
      </trkpt>
      <trkpt lat="45.32553" lon="6.23457">
        <ele>1486</ele>
        <time>2014-03-02T15:51:25.000Z</time>
      </trkpt>
      <trkpt lat="45.32553" lon="6.23457">
        <ele>1486</ele>
        <time>2014-03-02T15:51:30.000Z</time>
      </trkpt>
      <trkpt lat="45.32553" lon="6.23457">
        <ele>1486</ele>
        <time>2014-03-02T15:51:31.000Z</time>
      </trkpt>
      <trkpt lat="45.32553" lon="6.23457">
        <ele>1486</ele>
        <time>2014-03-02T15:51:35.000Z</time>
      </trkpt>
      <trkpt lat="45.32553" lon="6.23457">
        <ele>1486</ele>
        <time>2014-03-02T15:51:36.000Z</time>
      </trkpt>
      <trkpt lat="45.32553" lon="6.23457">
        <ele>1486</ele>
        <time>2014-03-02T15:51:37.000Z</time>
      </trkpt>
      <trkpt lat="45.32553" lon="6.23457">
        <ele>1486</ele>
        <time>2014-03-02T15:51:38.000Z</time>
      </trkpt>
      <trkpt lat="45.32553" lon="6.23457">
        <ele>1486</ele>
        <time>2014-03-02T15:51:41.000Z</time>
      </trkpt>
      <trkpt lat="45.32553" lon="6.23457">
        <ele>1486</ele>
        <time>2014-03-02T15:51:42.000Z</time>
      </trkpt>
      <trkpt lat="45.32553" lon="6.23457">
        <ele>1486</ele>
        <time>2014-03-02T15:51:43.000Z</time>
      </trkpt>
      <trkpt lat="45.32553" lon="6.23457">
        <ele>1486</ele>
        <time>2014-03-02T15:51:44.000Z</time>
      </trkpt>
      <trkpt lat="45.32553" lon="6.23457">
        <ele>1486</ele>
        <time>2014-03-02T15:51:45.000Z</time>
      </trkpt>
      <trkpt lat="45.32553" lon="6.23457">
        <ele>1486</ele>
        <time>2014-03-02T15:51:46.000Z</time>
      </trkpt>
      <trkpt lat="45.32553" lon="6.23457">
        <ele>1486</ele>
        <time>2014-03-02T15:51:48.000Z</time>
      </trkpt>
      <trkpt lat="45.32553" lon="6.23457">
        <ele>1486</ele>
        <time>2014-03-02T15:51:49.000Z</time>
      </trkpt>
      <trkpt lat="45.32553" lon="6.23457">
        <ele>1486</ele>
        <time>2014-03-02T15:51:51.000Z</time>
      </trkpt>
      <trkpt lat="45.32553" lon="6.23457">
        <ele>1486</ele>
        <time>2014-03-02T15:51:56.000Z</time>
      </trkpt>
      <trkpt lat="45.32553" lon="6.23457">
        <ele>1486</ele>
        <time>2014-03-02T15:51:57.000Z</time>
      </trkpt>
      <trkpt lat="45.32553" lon="6.23457">
        <ele>1486</ele>
        <time>2014-03-02T15:51:58.000Z</time>
      </trkpt>
      <trkpt lat="45.32553" lon="6.23457">
        <ele>1486</ele>
        <time>2014-03-02T15:51:59.000Z</time>
      </trkpt>
      <trkpt lat="45.32553" lon="6.23457">
        <ele>1486</ele>
        <time>2014-03-02T15:52:00.000Z</time>
      </trkpt>
      <trkpt lat="45.32553" lon="6.23458">
        <ele>1486.4000244141</ele>
        <time>2014-03-02T15:52:01.000Z</time>
      </trkpt>
      <trkpt lat="45.32553" lon="6.23458">
        <ele>1486.4000244141</ele>
        <time>2014-03-02T15:52:02.000Z</time>
      </trkpt>
      <trkpt lat="45.32553" lon="6.23458">
        <ele>1486.4000244141</ele>
        <time>2014-03-02T15:52:03.000Z</time>
      </trkpt>
      <trkpt lat="45.32553" lon="6.23458">
        <ele>1486.4000244141</ele>
        <time>2014-03-02T15:52:04.000Z</time>
      </trkpt>
      <trkpt lat="45.32553" lon="6.23458">
        <ele>1486.4000244141</ele>
        <time>2014-03-02T15:52:05.000Z</time>
      </trkpt>
      <trkpt lat="45.32553" lon="6.23458">
        <ele>1486.4000244141</ele>
        <time>2014-03-02T15:52:06.000Z</time>
      </trkpt>
      <trkpt lat="45.32553" lon="6.23458">
        <ele>1486.4000244141</ele>
        <time>2014-03-02T15:52:07.000Z</time>
      </trkpt>
      <trkpt lat="45.32553" lon="6.23458">
        <ele>1486.4000244141</ele>
        <time>2014-03-02T15:52:08.000Z</time>
      </trkpt>
      <trkpt lat="45.32553" lon="6.23458">
        <ele>1486.4000244141</ele>
        <time>2014-03-02T15:52:09.000Z</time>
      </trkpt>
      <trkpt lat="45.32553" lon="6.23458">
        <ele>1486.4000244141</ele>
        <time>2014-03-02T15:52:10.000Z</time>
      </trkpt>
      <trkpt lat="45.32553" lon="6.23458">
        <ele>1486.4000244141</ele>
        <time>2014-03-02T15:52:11.000Z</time>
      </trkpt>
      <trkpt lat="45.32553" lon="6.23458">
        <ele>1486.4000244141</ele>
        <time>2014-03-02T15:52:12.000Z</time>
      </trkpt>
      <trkpt lat="45.32553" lon="6.23458">
        <ele>1486.4000244141</ele>
        <time>2014-03-02T15:52:13.000Z</time>
      </trkpt>
      <trkpt lat="45.32553" lon="6.23458">
        <ele>1486.4000244141</ele>
        <time>2014-03-02T15:52:14.000Z</time>
      </trkpt>
      <trkpt lat="45.32553" lon="6.23458">
        <ele>1486.4000244141</ele>
        <time>2014-03-02T15:52:15.000Z</time>
      </trkpt>
      <trkpt lat="45.32553" lon="6.23458">
        <ele>1486.4000244141</ele>
        <time>2014-03-02T15:52:16.000Z</time>
      </trkpt>
      <trkpt lat="45.32553" lon="6.23458">
        <ele>1486.4000244141</ele>
        <time>2014-03-02T15:52:18.000Z</time>
      </trkpt>
      <trkpt lat="45.32553" lon="6.23458">
        <ele>1486.4000244141</ele>
        <time>2014-03-02T15:52:19.000Z</time>
      </trkpt>
      <trkpt lat="45.32553" lon="6.23458">
        <ele>1486.4000244141</ele>
        <time>2014-03-02T15:52:22.000Z</time>
      </trkpt>
      <trkpt lat="45.32553" lon="6.23458">
        <ele>1486.4000244141</ele>
        <time>2014-03-02T15:52:23.000Z</time>
      </trkpt>
      <trkpt lat="45.32553" lon="6.23458">
        <ele>1486.4000244141</ele>
        <time>2014-03-02T15:52:24.000Z</time>
      </trkpt>
      <trkpt lat="45.32553" lon="6.23458">
        <ele>1486.4000244141</ele>
        <time>2014-03-02T15:52:25.000Z</time>
      </trkpt>
      <trkpt lat="45.32553" lon="6.23458">
        <ele>1486.4000244141</ele>
        <time>2014-03-02T15:52:26.000Z</time>
      </trkpt>
      <trkpt lat="45.32553" lon="6.23458">
        <ele>1486.4000244141</ele>
        <time>2014-03-02T15:52:27.000Z</time>
      </trkpt>
      <trkpt lat="45.32553" lon="6.23458">
        <ele>1486.4000244141</ele>
        <time>2014-03-02T15:52:28.000Z</time>
      </trkpt>
      <trkpt lat="45.32553" lon="6.23458">
        <ele>1486.4000244141</ele>
        <time>2014-03-02T15:52:29.000Z</time>
      </trkpt>
      <trkpt lat="45.32553" lon="6.23458">
        <ele>1486.4000244141</ele>
        <time>2014-03-02T15:52:30.000Z</time>
      </trkpt>
      <trkpt lat="45.32553" lon="6.23458">
        <ele>1486.4000244141</ele>
        <time>2014-03-02T15:52:31.000Z</time>
      </trkpt>
      <trkpt lat="45.32553" lon="6.23458">
        <ele>1486.4000244141</ele>
        <time>2014-03-02T15:52:32.000Z</time>
      </trkpt>
      <trkpt lat="45.32553" lon="6.23458">
        <ele>1486.4000244141</ele>
        <time>2014-03-02T15:52:33.000Z</time>
      </trkpt>
      <trkpt lat="45.32553" lon="6.23458">
        <ele>1486.4000244141</ele>
        <time>2014-03-02T15:52:34.000Z</time>
      </trkpt>
      <trkpt lat="45.32553" lon="6.23458">
        <ele>1486.4000244141</ele>
        <time>2014-03-02T15:52:35.000Z</time>
      </trkpt>
      <trkpt lat="45.32553" lon="6.23458">
        <ele>1486.4000244141</ele>
        <time>2014-03-02T15:52:38.000Z</time>
      </trkpt>
      <trkpt lat="45.32553" lon="6.23458">
        <ele>1486.4000244141</ele>
        <time>2014-03-02T15:52:39.000Z</time>
      </trkpt>
      <trkpt lat="45.32553" lon="6.23458">
        <ele>1486.4000244141</ele>
        <time>2014-03-02T15:52:40.000Z</time>
      </trkpt>
      <trkpt lat="45.32554" lon="6.23459">
        <ele>1486.8000488281</ele>
        <time>2014-03-02T15:52:41.000Z</time>
      </trkpt>
      <trkpt lat="45.32554" lon="6.23459">
        <ele>1486.8000488281</ele>
        <time>2014-03-02T15:52:42.000Z</time>
      </trkpt>
      <trkpt lat="45.32554" lon="6.23459">
        <ele>1486.8000488281</ele>
        <time>2014-03-02T15:52:43.000Z</time>
      </trkpt>
      <trkpt lat="45.32554" lon="6.23459">
        <ele>1486.8000488281</ele>
        <time>2014-03-02T15:52:44.000Z</time>
      </trkpt>
      <trkpt lat="45.32554" lon="6.23459">
        <ele>1486.8000488281</ele>
        <time>2014-03-02T15:52:45.000Z</time>
      </trkpt>
      <trkpt lat="45.32554" lon="6.23459">
        <ele>1486.8000488281</ele>
        <time>2014-03-02T15:52:46.000Z</time>
      </trkpt>
      <trkpt lat="45.32554" lon="6.23459">
        <ele>1486.8000488281</ele>
        <time>2014-03-02T15:52:47.000Z</time>
      </trkpt>
      <trkpt lat="45.32554" lon="6.23459">
        <ele>1486.8000488281</ele>
        <time>2014-03-02T15:52:48.000Z</time>
      </trkpt>
      <trkpt lat="45.32554" lon="6.23459">
        <ele>1486.8000488281</ele>
        <time>2014-03-02T15:52:49.000Z</time>
      </trkpt>
      <trkpt lat="45.32554" lon="6.23459">
        <ele>1486.8000488281</ele>
        <time>2014-03-02T15:52:50.000Z</time>
      </trkpt>
      <trkpt lat="45.32554" lon="6.23459">
        <ele>1486.8000488281</ele>
        <time>2014-03-02T15:52:55.000Z</time>
      </trkpt>
      <trkpt lat="45.32554" lon="6.23459">
        <ele>1486.8000488281</ele>
        <time>2014-03-02T15:52:56.000Z</time>
      </trkpt>
      <trkpt lat="45.32554" lon="6.23459">
        <ele>1486.8000488281</ele>
        <time>2014-03-02T15:52:57.000Z</time>
      </trkpt>
      <trkpt lat="45.32554" lon="6.23459">
        <ele>1486.8000488281</ele>
        <time>2014-03-02T15:52:58.000Z</time>
      </trkpt>
      <trkpt lat="45.32554" lon="6.23459">
        <ele>1486.8000488281</ele>
        <time>2014-03-02T15:52:59.000Z</time>
      </trkpt>
      <trkpt lat="45.32554" lon="6.23459">
        <ele>1486.8000488281</ele>
        <time>2014-03-02T15:53:00.000Z</time>
      </trkpt>
      <trkpt lat="45.32554" lon="6.23459">
        <ele>1486.8000488281</ele>
        <time>2014-03-02T15:53:01.000Z</time>
      </trkpt>
      <trkpt lat="45.32554" lon="6.23459">
        <ele>1486.8000488281</ele>
        <time>2014-03-02T15:53:02.000Z</time>
      </trkpt>
      <trkpt lat="45.32554" lon="6.23459">
        <ele>1486.8000488281</ele>
        <time>2014-03-02T15:53:03.000Z</time>
      </trkpt>
      <trkpt lat="45.32554" lon="6.23459">
        <ele>1486.8000488281</ele>
        <time>2014-03-02T15:53:04.000Z</time>
      </trkpt>
      <trkpt lat="45.32554" lon="6.23459">
        <ele>1486.8000488281</ele>
        <time>2014-03-02T15:53:08.000Z</time>
      </trkpt>
      <trkpt lat="45.32554" lon="6.23459">
        <ele>1486.8000488281</ele>
        <time>2014-03-02T15:53:09.000Z</time>
      </trkpt>
      <trkpt lat="45.32554" lon="6.23459">
        <ele>1486.8000488281</ele>
        <time>2014-03-02T15:53:10.000Z</time>
      </trkpt>
      <trkpt lat="45.32554" lon="6.23459">
        <ele>1486.8000488281</ele>
        <time>2014-03-02T15:53:11.000Z</time>
      </trkpt>
      <trkpt lat="45.32554" lon="6.23459">
        <ele>1486.8000488281</ele>
        <time>2014-03-02T15:53:12.000Z</time>
      </trkpt>
      <trkpt lat="45.32554" lon="6.23459">
        <ele>1486.8000488281</ele>
        <time>2014-03-02T15:53:13.000Z</time>
      </trkpt>
      <trkpt lat="45.32554" lon="6.23459">
        <ele>1486.8000488281</ele>
        <time>2014-03-02T15:53:14.000Z</time>
      </trkpt>
      <trkpt lat="45.32554" lon="6.23459">
        <ele>1486.8000488281</ele>
        <time>2014-03-02T15:53:15.000Z</time>
      </trkpt>
      <trkpt lat="45.32554" lon="6.23459">
        <ele>1486.8000488281</ele>
        <time>2014-03-02T15:53:16.000Z</time>
      </trkpt>
      <trkpt lat="45.32555" lon="6.23459">
        <ele>1487.4000244141</ele>
        <time>2014-03-02T15:53:22.000Z</time>
      </trkpt>
      <trkpt lat="45.32555" lon="6.23459">
        <ele>1487.4000244141</ele>
        <time>2014-03-02T15:53:23.000Z</time>
      </trkpt>
      <trkpt lat="45.32555" lon="6.23459">
        <ele>1487.4000244141</ele>
        <time>2014-03-02T15:53:24.000Z</time>
      </trkpt>
      <trkpt lat="45.32555" lon="6.23459">
        <ele>1487.4000244141</ele>
        <time>2014-03-02T15:53:25.000Z</time>
      </trkpt>
      <trkpt lat="45.32555" lon="6.23459">
        <ele>1487.4000244141</ele>
        <time>2014-03-02T15:53:26.000Z</time>
      </trkpt>
      <trkpt lat="45.32555" lon="6.23459">
        <ele>1487.4000244141</ele>
        <time>2014-03-02T15:53:27.000Z</time>
      </trkpt>
      <trkpt lat="45.32555" lon="6.23459">
        <ele>1487.4000244141</ele>
        <time>2014-03-02T15:53:28.000Z</time>
      </trkpt>
      <trkpt lat="45.32555" lon="6.23459">
        <ele>1487.4000244141</ele>
        <time>2014-03-02T15:53:29.000Z</time>
      </trkpt>
      <trkpt lat="45.32555" lon="6.23459">
        <ele>1487.4000244141</ele>
        <time>2014-03-02T15:53:31.000Z</time>
      </trkpt>
      <trkpt lat="45.32555" lon="6.23459">
        <ele>1487.4000244141</ele>
        <time>2014-03-02T15:53:32.000Z</time>
      </trkpt>
      <trkpt lat="45.32555" lon="6.23459">
        <ele>1487.4000244141</ele>
        <time>2014-03-02T15:53:33.000Z</time>
      </trkpt>
      <trkpt lat="45.32555" lon="6.23459">
        <ele>1487.4000244141</ele>
        <time>2014-03-02T15:53:36.000Z</time>
      </trkpt>
      <trkpt lat="45.32555" lon="6.23459">
        <ele>1487.4000244141</ele>
        <time>2014-03-02T15:53:37.000Z</time>
      </trkpt>
      <trkpt lat="45.32555" lon="6.23459">
        <ele>1487.4000244141</ele>
        <time>2014-03-02T15:53:38.000Z</time>
      </trkpt>
      <trkpt lat="45.32555" lon="6.23459">
        <ele>1487.4000244141</ele>
        <time>2014-03-02T15:53:39.000Z</time>
      </trkpt>
      <trkpt lat="45.32555" lon="6.23459">
        <ele>1487.4000244141</ele>
        <time>2014-03-02T15:53:40.000Z</time>
      </trkpt>
      <trkpt lat="45.32555" lon="6.23459">
        <ele>1487.4000244141</ele>
        <time>2014-03-02T15:53:41.000Z</time>
      </trkpt>
      <trkpt lat="45.32555" lon="6.23459">
        <ele>1487.4000244141</ele>
        <time>2014-03-02T15:53:50.000Z</time>
      </trkpt>
      <trkpt lat="45.32555" lon="6.23459">
        <ele>1487.4000244141</ele>
        <time>2014-03-02T15:53:51.000Z</time>
      </trkpt>
      <trkpt lat="45.32555" lon="6.23459">
        <ele>1487.4000244141</ele>
        <time>2014-03-02T15:53:52.000Z</time>
      </trkpt>
      <trkpt lat="45.32555" lon="6.23459">
        <ele>1487.4000244141</ele>
        <time>2014-03-02T15:53:53.000Z</time>
      </trkpt>
      <trkpt lat="45.32555" lon="6.23459">
        <ele>1487.4000244141</ele>
        <time>2014-03-02T15:53:54.000Z</time>
      </trkpt>
      <trkpt lat="45.32555" lon="6.23459">
        <ele>1487.4000244141</ele>
        <time>2014-03-02T15:53:55.000Z</time>
      </trkpt>
      <trkpt lat="45.32555" lon="6.23459">
        <ele>1487.4000244141</ele>
        <time>2014-03-02T15:53:56.000Z</time>
      </trkpt>
      <trkpt lat="45.32555" lon="6.23459">
        <ele>1487.4000244141</ele>
        <time>2014-03-02T15:53:57.000Z</time>
      </trkpt>
      <trkpt lat="45.32556" lon="6.23458">
        <ele>1488.4000244141</ele>
        <time>2014-03-02T15:53:58.000Z</time>
      </trkpt>
      <trkpt lat="45.32556" lon="6.23462">
        <ele>1488.1999511719</ele>
        <time>2014-03-02T15:53:59.000Z</time>
      </trkpt>
      <trkpt lat="45.32555" lon="6.2347">
        <ele>1486.5999755859</ele>
        <time>2014-03-02T15:54:00.000Z</time>
      </trkpt>
      <trkpt lat="45.32552" lon="6.23476">
        <ele>1483.8000488281</ele>
        <time>2014-03-02T15:54:01.000Z</time>
      </trkpt>
      <trkpt lat="45.32549" lon="6.23482">
        <ele>1481.1999511719</ele>
        <time>2014-03-02T15:54:02.000Z</time>
      </trkpt>
      <trkpt lat="45.32546" lon="6.23484">
        <ele>1479.1999511719</ele>
        <time>2014-03-02T15:54:03.000Z</time>
      </trkpt>
      <trkpt lat="45.32544" lon="6.23484">
        <ele>1478.4000244141</ele>
        <time>2014-03-02T15:54:04.000Z</time>
      </trkpt>
      <trkpt lat="45.32542" lon="6.23484">
        <ele>1477.1999511719</ele>
        <time>2014-03-02T15:54:05.000Z</time>
      </trkpt>
      <trkpt lat="45.32538" lon="6.2348">
        <ele>1475.4000244141</ele>
        <time>2014-03-02T15:54:06.000Z</time>
      </trkpt>
      <trkpt lat="45.32534" lon="6.23477">
        <ele>1473.5999755859</ele>
        <time>2014-03-02T15:54:07.000Z</time>
      </trkpt>
      <trkpt lat="45.32529" lon="6.23476">
        <ele>1471.4000244141</ele>
        <time>2014-03-02T15:54:08.000Z</time>
      </trkpt>
      <trkpt lat="45.32525" lon="6.23477">
        <ele>1469.4000244141</ele>
        <time>2014-03-02T15:54:09.000Z</time>
      </trkpt>
      <trkpt lat="45.32522" lon="6.23479">
        <ele>1467.4000244141</ele>
        <time>2014-03-02T15:54:10.000Z</time>
      </trkpt>
      <trkpt lat="45.32519" lon="6.23482">
        <ele>1465.8000488281</ele>
        <time>2014-03-02T15:54:11.000Z</time>
      </trkpt>
      <trkpt lat="45.32517" lon="6.23485">
        <ele>1464.5999755859</ele>
        <time>2014-03-02T15:54:12.000Z</time>
      </trkpt>
      <trkpt lat="45.32516" lon="6.2349">
        <ele>1463.8000488281</ele>
        <time>2014-03-02T15:54:13.000Z</time>
      </trkpt>
      <trkpt lat="45.32516" lon="6.23496">
        <ele>1463.4000244141</ele>
        <time>2014-03-02T15:54:14.000Z</time>
      </trkpt>
      <trkpt lat="45.32516" lon="6.23501">
        <ele>1463</ele>
        <time>2014-03-02T15:54:15.000Z</time>
      </trkpt>
      <trkpt lat="45.32515" lon="6.23507">
        <ele>1462.5999755859</ele>
        <time>2014-03-02T15:54:16.000Z</time>
      </trkpt>
      <trkpt lat="45.32516" lon="6.23512">
        <ele>1462.4000244141</ele>
        <time>2014-03-02T15:54:17.000Z</time>
      </trkpt>
      <trkpt lat="45.32515" lon="6.23516">
        <ele>1462</ele>
        <time>2014-03-02T15:54:18.000Z</time>
      </trkpt>
      <trkpt lat="45.32515" lon="6.23521">
        <ele>1461.5999755859</ele>
        <time>2014-03-02T15:54:19.000Z</time>
      </trkpt>
      <trkpt lat="45.32514" lon="6.23526">
        <ele>1460.8000488281</ele>
        <time>2014-03-02T15:54:20.000Z</time>
      </trkpt>
      <trkpt lat="45.32514" lon="6.23531">
        <ele>1460.5999755859</ele>
        <time>2014-03-02T15:54:21.000Z</time>
      </trkpt>
      <trkpt lat="45.32513" lon="6.23533">
        <ele>1459.5999755859</ele>
        <time>2014-03-02T15:54:22.000Z</time>
      </trkpt>
      <trkpt lat="45.32511" lon="6.23536">
        <ele>1458.4000244141</ele>
        <time>2014-03-02T15:54:23.000Z</time>
      </trkpt>
      <trkpt lat="45.3251" lon="6.23539">
        <ele>1457.4000244141</ele>
        <time>2014-03-02T15:54:24.000Z</time>
      </trkpt>
      <trkpt lat="45.3251" lon="6.23542">
        <ele>1456.8000488281</ele>
        <time>2014-03-02T15:54:25.000Z</time>
      </trkpt>
      <trkpt lat="45.3251" lon="6.23546">
        <ele>1456.5999755859</ele>
        <time>2014-03-02T15:54:26.000Z</time>
      </trkpt>
      <trkpt lat="45.3251" lon="6.23548">
        <ele>1456.1999511719</ele>
        <time>2014-03-02T15:54:27.000Z</time>
      </trkpt>
      <trkpt lat="45.3251" lon="6.23552">
        <ele>1455.5999755859</ele>
        <time>2014-03-02T15:54:28.000Z</time>
      </trkpt>
      <trkpt lat="45.3251" lon="6.23556">
        <ele>1455.1999511719</ele>
        <time>2014-03-02T15:54:29.000Z</time>
      </trkpt>
      <trkpt lat="45.32509" lon="6.23559">
        <ele>1454.1999511719</ele>
        <time>2014-03-02T15:54:30.000Z</time>
      </trkpt>
      <trkpt lat="45.32507" lon="6.23562">
        <ele>1453</ele>
        <time>2014-03-02T15:54:31.000Z</time>
      </trkpt>
      <trkpt lat="45.32506" lon="6.23565">
        <ele>1452.5999755859</ele>
        <time>2014-03-02T15:54:32.000Z</time>
      </trkpt>
      <trkpt lat="45.32505" lon="6.23568">
        <ele>1452.1999511719</ele>
        <time>2014-03-02T15:54:33.000Z</time>
      </trkpt>
      <trkpt lat="45.32504" lon="6.23572">
        <ele>1451.5999755859</ele>
        <time>2014-03-02T15:54:34.000Z</time>
      </trkpt>
      <trkpt lat="45.32502" lon="6.23578">
        <ele>1451</ele>
        <time>2014-03-02T15:54:35.000Z</time>
      </trkpt>
      <trkpt lat="45.325" lon="6.23583">
        <ele>1450.1999511719</ele>
        <time>2014-03-02T15:54:36.000Z</time>
      </trkpt>
      <trkpt lat="45.32497" lon="6.23589">
        <ele>1449.1999511719</ele>
        <time>2014-03-02T15:54:37.000Z</time>
      </trkpt>
      <trkpt lat="45.32494" lon="6.23595">
        <ele>1447.5999755859</ele>
        <time>2014-03-02T15:54:38.000Z</time>
      </trkpt>
      <trkpt lat="45.3249" lon="6.23602">
        <ele>1444.8000488281</ele>
        <time>2014-03-02T15:54:39.000Z</time>
      </trkpt>
      <trkpt lat="45.32486" lon="6.2361">
        <ele>1441.5999755859</ele>
        <time>2014-03-02T15:54:40.000Z</time>
      </trkpt>
      <trkpt lat="45.32483" lon="6.23619">
        <ele>1439</ele>
        <time>2014-03-02T15:54:41.000Z</time>
      </trkpt>
      <trkpt lat="45.3248" lon="6.23628">
        <ele>1436.8000488281</ele>
        <time>2014-03-02T15:54:42.000Z</time>
      </trkpt>
      <trkpt lat="45.32478" lon="6.23636">
        <ele>1434.8000488281</ele>
        <time>2014-03-02T15:54:43.000Z</time>
      </trkpt>
      <trkpt lat="45.32475" lon="6.23643">
        <ele>1433</ele>
        <time>2014-03-02T15:54:44.000Z</time>
      </trkpt>
      <trkpt lat="45.32473" lon="6.2365">
        <ele>1432.8000488281</ele>
        <time>2014-03-02T15:54:45.000Z</time>
      </trkpt>
      <trkpt lat="45.32472" lon="6.23659">
        <ele>1433.4000244141</ele>
        <time>2014-03-02T15:54:46.000Z</time>
      </trkpt>
      <trkpt lat="45.32471" lon="6.23666">
        <ele>1433.8000488281</ele>
        <time>2014-03-02T15:54:47.000Z</time>
      </trkpt>
      <trkpt lat="45.3247" lon="6.23672">
        <ele>1433.5999755859</ele>
        <time>2014-03-02T15:54:48.000Z</time>
      </trkpt>
      <trkpt lat="45.3247" lon="6.23675">
        <ele>1433.8000488281</ele>
        <time>2014-03-02T15:54:49.000Z</time>
      </trkpt>
      <trkpt lat="45.3247" lon="6.23676">
        <ele>1434.1999511719</ele>
        <time>2014-03-02T15:54:50.000Z</time>
      </trkpt>
      <trkpt lat="45.32471" lon="6.23677">
        <ele>1434.5999755859</ele>
        <time>2014-03-02T15:54:51.000Z</time>
      </trkpt>
      <trkpt lat="45.32471" lon="6.23678">
        <ele>1435</ele>
        <time>2014-03-02T15:54:52.000Z</time>
      </trkpt>
      <trkpt lat="45.32471" lon="6.23678">
        <ele>1435</ele>
        <time>2014-03-02T15:54:53.000Z</time>
      </trkpt>
      <trkpt lat="45.32471" lon="6.23678">
        <ele>1435</ele>
        <time>2014-03-02T15:54:54.000Z</time>
      </trkpt>
      <trkpt lat="45.32471" lon="6.23678">
        <ele>1435</ele>
        <time>2014-03-02T15:54:55.000Z</time>
      </trkpt>
      <trkpt lat="45.32471" lon="6.23678">
        <ele>1435</ele>
        <time>2014-03-02T15:54:56.000Z</time>
      </trkpt>
      <trkpt lat="45.32471" lon="6.23678">
        <ele>1435</ele>
        <time>2014-03-02T15:54:57.000Z</time>
      </trkpt>
      <trkpt lat="45.32471" lon="6.23678">
        <ele>1435</ele>
        <time>2014-03-02T15:54:58.000Z</time>
      </trkpt>
      <trkpt lat="45.32471" lon="6.23678">
        <ele>1435</ele>
        <time>2014-03-02T15:55:00.000Z</time>
      </trkpt>
      <trkpt lat="45.32471" lon="6.23678">
        <ele>1435</ele>
        <time>2014-03-02T15:55:01.000Z</time>
      </trkpt>
      <trkpt lat="45.32471" lon="6.23678">
        <ele>1435</ele>
        <time>2014-03-02T15:55:02.000Z</time>
      </trkpt>
      <trkpt lat="45.32471" lon="6.23678">
        <ele>1435</ele>
        <time>2014-03-02T15:55:03.000Z</time>
      </trkpt>
      <trkpt lat="45.32471" lon="6.23678">
        <ele>1435</ele>
        <time>2014-03-02T15:55:05.000Z</time>
      </trkpt>
      <trkpt lat="45.32471" lon="6.23678">
        <ele>1435</ele>
        <time>2014-03-02T15:55:06.000Z</time>
      </trkpt>
      <trkpt lat="45.32471" lon="6.23678">
        <ele>1435</ele>
        <time>2014-03-02T15:55:07.000Z</time>
      </trkpt>
      <trkpt lat="45.32471" lon="6.23678">
        <ele>1435</ele>
        <time>2014-03-02T15:55:11.000Z</time>
      </trkpt>
      <trkpt lat="45.32471" lon="6.23678">
        <ele>1435</ele>
        <time>2014-03-02T15:55:12.000Z</time>
      </trkpt>
      <trkpt lat="45.32471" lon="6.23677">
        <ele>1434.8000488281</ele>
        <time>2014-03-02T15:55:13.000Z</time>
      </trkpt>
      <trkpt lat="45.32472" lon="6.23674">
        <ele>1435</ele>
        <time>2014-03-02T15:55:14.000Z</time>
      </trkpt>
      <trkpt lat="45.32472" lon="6.2367">
        <ele>1435</ele>
        <time>2014-03-02T15:55:15.000Z</time>
      </trkpt>
      <trkpt lat="45.32473" lon="6.23667">
        <ele>1435</ele>
        <time>2014-03-02T15:55:16.000Z</time>
      </trkpt>
      <trkpt lat="45.32473" lon="6.23665">
        <ele>1434.5999755859</ele>
        <time>2014-03-02T15:55:17.000Z</time>
      </trkpt>
      <trkpt lat="45.32471" lon="6.23665">
        <ele>1433.5999755859</ele>
        <time>2014-03-02T15:55:18.000Z</time>
      </trkpt>
      <trkpt lat="45.3247" lon="6.23667">
        <ele>1432.8000488281</ele>
        <time>2014-03-02T15:55:19.000Z</time>
      </trkpt>
      <trkpt lat="45.32468" lon="6.23669">
        <ele>1431.4000244141</ele>
        <time>2014-03-02T15:55:20.000Z</time>
      </trkpt>
      <trkpt lat="45.32466" lon="6.23668">
        <ele>1430</ele>
        <time>2014-03-02T15:55:21.000Z</time>
      </trkpt>
      <trkpt lat="45.32465" lon="6.23666">
        <ele>1429</ele>
        <time>2014-03-02T15:55:22.000Z</time>
      </trkpt>
      <trkpt lat="45.32465" lon="6.23665">
        <ele>1428.4000244141</ele>
        <time>2014-03-02T15:55:23.000Z</time>
      </trkpt>
      <trkpt lat="45.32465" lon="6.23664">
        <ele>1428.4000244141</ele>
        <time>2014-03-02T15:55:24.000Z</time>
      </trkpt>
      <trkpt lat="45.32465" lon="6.23664">
        <ele>1428.4000244141</ele>
        <time>2014-03-02T15:55:25.000Z</time>
      </trkpt>
      <trkpt lat="45.32464" lon="6.23665">
        <ele>1427.4000244141</ele>
        <time>2014-03-02T15:55:26.000Z</time>
      </trkpt>
      <trkpt lat="45.32462" lon="6.23668">
        <ele>1426.8000488281</ele>
        <time>2014-03-02T15:55:27.000Z</time>
      </trkpt>
      <trkpt lat="45.32459" lon="6.2367">
        <ele>1426</ele>
        <time>2014-03-02T15:55:28.000Z</time>
      </trkpt>
      <trkpt lat="45.32456" lon="6.2367">
        <ele>1424.5999755859</ele>
        <time>2014-03-02T15:55:29.000Z</time>
      </trkpt>
      <trkpt lat="45.32454" lon="6.23668">
        <ele>1423.4000244141</ele>
        <time>2014-03-02T15:55:30.000Z</time>
      </trkpt>
      <trkpt lat="45.32454" lon="6.23666">
        <ele>1422.8000488281</ele>
        <time>2014-03-02T15:55:31.000Z</time>
      </trkpt>
      <trkpt lat="45.32454" lon="6.23665">
        <ele>1422.5999755859</ele>
        <time>2014-03-02T15:55:32.000Z</time>
      </trkpt>
      <trkpt lat="45.32454" lon="6.23665">
        <ele>1422.5999755859</ele>
        <time>2014-03-02T15:55:33.000Z</time>
      </trkpt>
      <trkpt lat="45.32454" lon="6.23665">
        <ele>1422.5999755859</ele>
        <time>2014-03-02T15:55:34.000Z</time>
      </trkpt>
      <trkpt lat="45.32454" lon="6.23665">
        <ele>1422.5999755859</ele>
        <time>2014-03-02T15:55:35.000Z</time>
      </trkpt>
      <trkpt lat="45.32454" lon="6.23665">
        <ele>1422.5999755859</ele>
        <time>2014-03-02T15:55:36.000Z</time>
      </trkpt>
      <trkpt lat="45.32454" lon="6.23665">
        <ele>1422.5999755859</ele>
        <time>2014-03-02T15:55:37.000Z</time>
      </trkpt>
      <trkpt lat="45.32454" lon="6.23665">
        <ele>1422.5999755859</ele>
        <time>2014-03-02T15:55:38.000Z</time>
      </trkpt>
      <trkpt lat="45.32452" lon="6.23665">
        <ele>1422</ele>
        <time>2014-03-02T15:55:39.000Z</time>
      </trkpt>
      <trkpt lat="45.3245" lon="6.23664">
        <ele>1420.8000488281</ele>
        <time>2014-03-02T15:55:40.000Z</time>
      </trkpt>
      <trkpt lat="45.32448" lon="6.23661">
        <ele>1419.5999755859</ele>
        <time>2014-03-02T15:55:41.000Z</time>
      </trkpt>
      <trkpt lat="45.32445" lon="6.23658">
        <ele>1417.5999755859</ele>
        <time>2014-03-02T15:55:42.000Z</time>
      </trkpt>
      <trkpt lat="45.32442" lon="6.23655">
        <ele>1415.5999755859</ele>
        <time>2014-03-02T15:55:43.000Z</time>
      </trkpt>
      <trkpt lat="45.32439" lon="6.23654">
        <ele>1414.4000244141</ele>
        <time>2014-03-02T15:55:44.000Z</time>
      </trkpt>
      <trkpt lat="45.32437" lon="6.23656">
        <ele>1413.1999511719</ele>
        <time>2014-03-02T15:55:45.000Z</time>
      </trkpt>
      <trkpt lat="45.32435" lon="6.23659">
        <ele>1412.8000488281</ele>
        <time>2014-03-02T15:55:46.000Z</time>
      </trkpt>
      <trkpt lat="45.32433" lon="6.23662">
        <ele>1412.4000244141</ele>
        <time>2014-03-02T15:55:47.000Z</time>
      </trkpt>
      <trkpt lat="45.3243" lon="6.23666">
        <ele>1411.5999755859</ele>
        <time>2014-03-02T15:55:48.000Z</time>
      </trkpt>
      <trkpt lat="45.32427" lon="6.2367">
        <ele>1410.5999755859</ele>
        <time>2014-03-02T15:55:49.000Z</time>
      </trkpt>
      <trkpt lat="45.32423" lon="6.23673">
        <ele>1409.1999511719</ele>
        <time>2014-03-02T15:55:50.000Z</time>
      </trkpt>
      <trkpt lat="45.3242" lon="6.23679">
        <ele>1408.1999511719</ele>
        <time>2014-03-02T15:55:51.000Z</time>
      </trkpt>
      <trkpt lat="45.32417" lon="6.23684">
        <ele>1407</ele>
        <time>2014-03-02T15:55:52.000Z</time>
      </trkpt>
      <trkpt lat="45.32415" lon="6.23686">
        <ele>1406</ele>
        <time>2014-03-02T15:55:53.000Z</time>
      </trkpt>
      <trkpt lat="45.32414" lon="6.23688">
        <ele>1405.4000244141</ele>
        <time>2014-03-02T15:55:54.000Z</time>
      </trkpt>
      <trkpt lat="45.32413" lon="6.23691">
        <ele>1404.5999755859</ele>
        <time>2014-03-02T15:55:55.000Z</time>
      </trkpt>
      <trkpt lat="45.32411" lon="6.23693">
        <ele>1403.8000488281</ele>
        <time>2014-03-02T15:55:56.000Z</time>
      </trkpt>
      <trkpt lat="45.32409" lon="6.23696">
        <ele>1402.8000488281</ele>
        <time>2014-03-02T15:55:57.000Z</time>
      </trkpt>
      <trkpt lat="45.32407" lon="6.237">
        <ele>1401.4000244141</ele>
        <time>2014-03-02T15:55:58.000Z</time>
      </trkpt>
      <trkpt lat="45.32405" lon="6.23705">
        <ele>1399.8000488281</ele>
        <time>2014-03-02T15:55:59.000Z</time>
      </trkpt>
      <trkpt lat="45.32402" lon="6.23709">
        <ele>1398.4000244141</ele>
        <time>2014-03-02T15:56:00.000Z</time>
      </trkpt>
      <trkpt lat="45.324" lon="6.23714">
        <ele>1396.8000488281</ele>
        <time>2014-03-02T15:56:01.000Z</time>
      </trkpt>
      <trkpt lat="45.32396" lon="6.23718">
        <ele>1394.8000488281</ele>
        <time>2014-03-02T15:56:02.000Z</time>
      </trkpt>
      <trkpt lat="45.32392" lon="6.23721">
        <ele>1392.4000244141</ele>
        <time>2014-03-02T15:56:03.000Z</time>
      </trkpt>
      <trkpt lat="45.32388" lon="6.23725">
        <ele>1389.8000488281</ele>
        <time>2014-03-02T15:56:04.000Z</time>
      </trkpt>
      <trkpt lat="45.32384" lon="6.23731">
        <ele>1388</ele>
        <time>2014-03-02T15:56:05.000Z</time>
      </trkpt>
      <trkpt lat="45.32381" lon="6.23737">
        <ele>1387.8000488281</ele>
        <time>2014-03-02T15:56:06.000Z</time>
      </trkpt>
      <trkpt lat="45.32378" lon="6.23745">
        <ele>1389</ele>
        <time>2014-03-02T15:56:07.000Z</time>
      </trkpt>
      <trkpt lat="45.32374" lon="6.23752">
        <ele>1390.4000244141</ele>
        <time>2014-03-02T15:56:08.000Z</time>
      </trkpt>
      <trkpt lat="45.3237" lon="6.23759">
        <ele>1391.4000244141</ele>
        <time>2014-03-02T15:56:09.000Z</time>
      </trkpt>
      <trkpt lat="45.32365" lon="6.23764">
        <ele>1391.4000244141</ele>
        <time>2014-03-02T15:56:10.000Z</time>
      </trkpt>
      <trkpt lat="45.3236" lon="6.23767">
        <ele>1391</ele>
        <time>2014-03-02T15:56:11.000Z</time>
      </trkpt>
      <trkpt lat="45.32356" lon="6.23769">
        <ele>1390.4000244141</ele>
        <time>2014-03-02T15:56:12.000Z</time>
      </trkpt>
      <trkpt lat="45.32353" lon="6.2377">
        <ele>1390</ele>
        <time>2014-03-02T15:56:13.000Z</time>
      </trkpt>
      <trkpt lat="45.32351" lon="6.23772">
        <ele>1389.8000488281</ele>
        <time>2014-03-02T15:56:14.000Z</time>
      </trkpt>
      <trkpt lat="45.3235" lon="6.23773">
        <ele>1390</ele>
        <time>2014-03-02T15:56:15.000Z</time>
      </trkpt>
      <trkpt lat="45.3235" lon="6.23773">
        <ele>1390</ele>
        <time>2014-03-02T15:56:16.000Z</time>
      </trkpt>
      <trkpt lat="45.32349" lon="6.23773">
        <ele>1389.4000244141</ele>
        <time>2014-03-02T15:56:17.000Z</time>
      </trkpt>
      <trkpt lat="45.32349" lon="6.23773">
        <ele>1389.4000244141</ele>
        <time>2014-03-02T15:56:18.000Z</time>
      </trkpt>
      <trkpt lat="45.32349" lon="6.23773">
        <ele>1389.4000244141</ele>
        <time>2014-03-02T15:56:19.000Z</time>
      </trkpt>
      <trkpt lat="45.32349" lon="6.23773">
        <ele>1389.4000244141</ele>
        <time>2014-03-02T15:56:20.000Z</time>
      </trkpt>
      <trkpt lat="45.32349" lon="6.23773">
        <ele>1389.4000244141</ele>
        <time>2014-03-02T15:56:21.000Z</time>
      </trkpt>
      <trkpt lat="45.32349" lon="6.23773">
        <ele>1389.4000244141</ele>
        <time>2014-03-02T15:56:27.000Z</time>
      </trkpt>
      <trkpt lat="45.32349" lon="6.23773">
        <ele>1389.4000244141</ele>
        <time>2014-03-02T15:56:28.000Z</time>
      </trkpt>
      <trkpt lat="45.32349" lon="6.23773">
        <ele>1389.4000244141</ele>
        <time>2014-03-02T15:56:29.000Z</time>
      </trkpt>
      <trkpt lat="45.32349" lon="6.23773">
        <ele>1389.4000244141</ele>
        <time>2014-03-02T15:56:32.000Z</time>
      </trkpt>
      <trkpt lat="45.32349" lon="6.23773">
        <ele>1389.4000244141</ele>
        <time>2014-03-02T15:56:33.000Z</time>
      </trkpt>
      <trkpt lat="45.32349" lon="6.23773">
        <ele>1389.4000244141</ele>
        <time>2014-03-02T15:56:34.000Z</time>
      </trkpt>
      <trkpt lat="45.32349" lon="6.23773">
        <ele>1389.4000244141</ele>
        <time>2014-03-02T15:56:35.000Z</time>
      </trkpt>
      <trkpt lat="45.32349" lon="6.23773">
        <ele>1389.4000244141</ele>
        <time>2014-03-02T15:56:36.000Z</time>
      </trkpt>
      <trkpt lat="45.32348" lon="6.23772">
        <ele>1389</ele>
        <time>2014-03-02T15:56:40.000Z</time>
      </trkpt>
      <trkpt lat="45.32347" lon="6.23775">
        <ele>1389.5999755859</ele>
        <time>2014-03-02T15:56:41.000Z</time>
      </trkpt>
      <trkpt lat="45.32346" lon="6.23778">
        <ele>1390.1999511719</ele>
        <time>2014-03-02T15:56:42.000Z</time>
      </trkpt>
      <trkpt lat="45.32346" lon="6.2378">
        <ele>1390.1999511719</ele>
        <time>2014-03-02T15:56:43.000Z</time>
      </trkpt>
      <trkpt lat="45.32345" lon="6.23782">
        <ele>1390</ele>
        <time>2014-03-02T15:56:44.000Z</time>
      </trkpt>
      <trkpt lat="45.32346" lon="6.23783">
        <ele>1390</ele>
        <time>2014-03-02T15:56:45.000Z</time>
      </trkpt>
      <trkpt lat="45.32345" lon="6.23785">
        <ele>1389.5999755859</ele>
        <time>2014-03-02T15:56:46.000Z</time>
      </trkpt>
      <trkpt lat="45.32343" lon="6.23789">
        <ele>1388.5999755859</ele>
        <time>2014-03-02T15:56:47.000Z</time>
      </trkpt>
      <trkpt lat="45.32341" lon="6.23794">
        <ele>1387.1999511719</ele>
        <time>2014-03-02T15:56:48.000Z</time>
      </trkpt>
      <trkpt lat="45.32337" lon="6.23799">
        <ele>1384.8000488281</ele>
        <time>2014-03-02T15:56:49.000Z</time>
      </trkpt>
      <trkpt lat="45.32333" lon="6.23805">
        <ele>1382</ele>
        <time>2014-03-02T15:56:50.000Z</time>
      </trkpt>
      <trkpt lat="45.32328" lon="6.23812">
        <ele>1379</ele>
        <time>2014-03-02T15:56:51.000Z</time>
      </trkpt>
      <trkpt lat="45.32323" lon="6.23819">
        <ele>1377.8000488281</ele>
        <time>2014-03-02T15:56:52.000Z</time>
      </trkpt>
      <trkpt lat="45.32317" lon="6.23825">
        <ele>1377</ele>
        <time>2014-03-02T15:56:53.000Z</time>
      </trkpt>
      <trkpt lat="45.32311" lon="6.23832">
        <ele>1375.4000244141</ele>
        <time>2014-03-02T15:56:54.000Z</time>
      </trkpt>
      <trkpt lat="45.32305" lon="6.2384">
        <ele>1373.4000244141</ele>
        <time>2014-03-02T15:56:55.000Z</time>
      </trkpt>
      <trkpt lat="45.32299" lon="6.23847">
        <ele>1371.4000244141</ele>
        <time>2014-03-02T15:56:56.000Z</time>
      </trkpt>
      <trkpt lat="45.32293" lon="6.23854">
        <ele>1370.5999755859</ele>
        <time>2014-03-02T15:56:57.000Z</time>
      </trkpt>
      <trkpt lat="45.32288" lon="6.23861">
        <ele>1370.4000244141</ele>
        <time>2014-03-02T15:56:58.000Z</time>
      </trkpt>
      <trkpt lat="45.32283" lon="6.23868">
        <ele>1370.4000244141</ele>
        <time>2014-03-02T15:56:59.000Z</time>
      </trkpt>
      <trkpt lat="45.32278" lon="6.23874">
        <ele>1370.1999511719</ele>
        <time>2014-03-02T15:57:00.000Z</time>
      </trkpt>
      <trkpt lat="45.32275" lon="6.23879">
        <ele>1368.5999755859</ele>
        <time>2014-03-02T15:57:01.000Z</time>
      </trkpt>
      <trkpt lat="45.32272" lon="6.23882">
        <ele>1366.8000488281</ele>
        <time>2014-03-02T15:57:02.000Z</time>
      </trkpt>
      <trkpt lat="45.3227" lon="6.23884">
        <ele>1365.4000244141</ele>
        <time>2014-03-02T15:57:03.000Z</time>
      </trkpt>
      <trkpt lat="45.32269" lon="6.23886">
        <ele>1364.4000244141</ele>
        <time>2014-03-02T15:57:04.000Z</time>
      </trkpt>
      <trkpt lat="45.32268" lon="6.23888">
        <ele>1363.4000244141</ele>
        <time>2014-03-02T15:57:05.000Z</time>
      </trkpt>
      <trkpt lat="45.32267" lon="6.23887">
        <ele>1362.8000488281</ele>
        <time>2014-03-02T15:57:06.000Z</time>
      </trkpt>
      <trkpt lat="45.32266" lon="6.23887">
        <ele>1362.4000244141</ele>
        <time>2014-03-02T15:57:07.000Z</time>
      </trkpt>
      <trkpt lat="45.32265" lon="6.23887">
        <ele>1361.4000244141</ele>
        <time>2014-03-02T15:57:08.000Z</time>
      </trkpt>
      <trkpt lat="45.32264" lon="6.23886">
        <ele>1360.8000488281</ele>
        <time>2014-03-02T15:57:09.000Z</time>
      </trkpt>
      <trkpt lat="45.32263" lon="6.23886">
        <ele>1360</ele>
        <time>2014-03-02T15:57:10.000Z</time>
      </trkpt>
      <trkpt lat="45.32264" lon="6.23886">
        <ele>1360.4000244141</ele>
        <time>2014-03-02T15:57:11.000Z</time>
      </trkpt>
      <trkpt lat="45.32264" lon="6.23886">
        <ele>1360.4000244141</ele>
        <time>2014-03-02T15:57:12.000Z</time>
      </trkpt>
      <trkpt lat="45.32262" lon="6.23885">
        <ele>1359.5999755859</ele>
        <time>2014-03-02T15:57:13.000Z</time>
      </trkpt>
      <trkpt lat="45.32261" lon="6.23885">
        <ele>1359</ele>
        <time>2014-03-02T15:57:14.000Z</time>
      </trkpt>
      <trkpt lat="45.32261" lon="6.23885">
        <ele>1358.5999755859</ele>
        <time>2014-03-02T15:57:15.000Z</time>
      </trkpt>
      <trkpt lat="45.32261" lon="6.23884">
        <ele>1358.4000244141</ele>
        <time>2014-03-02T15:57:16.000Z</time>
      </trkpt>
      <trkpt lat="45.32261" lon="6.23884">
        <ele>1358.4000244141</ele>
        <time>2014-03-02T15:57:17.000Z</time>
      </trkpt>
      <trkpt lat="45.32261" lon="6.23884">
        <ele>1358.4000244141</ele>
        <time>2014-03-02T15:57:18.000Z</time>
      </trkpt>
      <trkpt lat="45.32261" lon="6.23884">
        <ele>1358.4000244141</ele>
        <time>2014-03-02T15:57:19.000Z</time>
      </trkpt>
      <trkpt lat="45.3226" lon="6.23883">
        <ele>1357.8000488281</ele>
        <time>2014-03-02T15:57:20.000Z</time>
      </trkpt>
      <trkpt lat="45.32258" lon="6.23882">
        <ele>1356.1999511719</ele>
        <time>2014-03-02T15:57:21.000Z</time>
      </trkpt>
      <trkpt lat="45.32255" lon="6.23881">
        <ele>1354.1999511719</ele>
        <time>2014-03-02T15:57:22.000Z</time>
      </trkpt>
      <trkpt lat="45.32251" lon="6.23882">
        <ele>1351.8000488281</ele>
        <time>2014-03-02T15:57:23.000Z</time>
      </trkpt>
      <trkpt lat="45.32248" lon="6.23884">
        <ele>1349.1999511719</ele>
        <time>2014-03-02T15:57:24.000Z</time>
      </trkpt>
      <trkpt lat="45.32244" lon="6.23885">
        <ele>1346.1999511719</ele>
        <time>2014-03-02T15:57:25.000Z</time>
      </trkpt>
      <trkpt lat="45.32239" lon="6.23886">
        <ele>1342.8000488281</ele>
        <time>2014-03-02T15:57:26.000Z</time>
      </trkpt>
      <trkpt lat="45.32234" lon="6.23888">
        <ele>1339.8000488281</ele>
        <time>2014-03-02T15:57:27.000Z</time>
      </trkpt>
      <trkpt lat="45.32231" lon="6.2389">
        <ele>1337</ele>
        <time>2014-03-02T15:57:28.000Z</time>
      </trkpt>
      <trkpt lat="45.32227" lon="6.23891">
        <ele>1334.4000244141</ele>
        <time>2014-03-02T15:57:29.000Z</time>
      </trkpt>
      <trkpt lat="45.32224" lon="6.23893">
        <ele>1332.1999511719</ele>
        <time>2014-03-02T15:57:30.000Z</time>
      </trkpt>
      <trkpt lat="45.32221" lon="6.23896">
        <ele>1330.4000244141</ele>
        <time>2014-03-02T15:57:31.000Z</time>
      </trkpt>
      <trkpt lat="45.32219" lon="6.23899">
        <ele>1329.4000244141</ele>
        <time>2014-03-02T15:57:32.000Z</time>
      </trkpt>
      <trkpt lat="45.32217" lon="6.23901">
        <ele>1328.4000244141</ele>
        <time>2014-03-02T15:57:33.000Z</time>
      </trkpt>
      <trkpt lat="45.32215" lon="6.23902">
        <ele>1327.5999755859</ele>
        <time>2014-03-02T15:57:34.000Z</time>
      </trkpt>
      <trkpt lat="45.32213" lon="6.23903">
        <ele>1326.5999755859</ele>
        <time>2014-03-02T15:57:35.000Z</time>
      </trkpt>
      <trkpt lat="45.32212" lon="6.23905">
        <ele>1326.4000244141</ele>
        <time>2014-03-02T15:57:36.000Z</time>
      </trkpt>
      <trkpt lat="45.3221" lon="6.23906">
        <ele>1326.4000244141</ele>
        <time>2014-03-02T15:57:37.000Z</time>
      </trkpt>
      <trkpt lat="45.32209" lon="6.23908">
        <ele>1326.4000244141</ele>
        <time>2014-03-02T15:57:38.000Z</time>
      </trkpt>
      <trkpt lat="45.32208" lon="6.23909">
        <ele>1326</ele>
        <time>2014-03-02T15:57:39.000Z</time>
      </trkpt>
      <trkpt lat="45.32207" lon="6.23909">
        <ele>1326</ele>
        <time>2014-03-02T15:57:40.000Z</time>
      </trkpt>
      <trkpt lat="45.32206" lon="6.2391">
        <ele>1325.8000488281</ele>
        <time>2014-03-02T15:57:41.000Z</time>
      </trkpt>
      <trkpt lat="45.32205" lon="6.23911">
        <ele>1325.5999755859</ele>
        <time>2014-03-02T15:57:42.000Z</time>
      </trkpt>
      <trkpt lat="45.32203" lon="6.23913">
        <ele>1325.5999755859</ele>
        <time>2014-03-02T15:57:43.000Z</time>
      </trkpt>
      <trkpt lat="45.32201" lon="6.23914">
        <ele>1325.4000244141</ele>
        <time>2014-03-02T15:57:44.000Z</time>
      </trkpt>
      <trkpt lat="45.32199" lon="6.23917">
        <ele>1325.1999511719</ele>
        <time>2014-03-02T15:57:45.000Z</time>
      </trkpt>
      <trkpt lat="45.32197" lon="6.23918">
        <ele>1325.1999511719</ele>
        <time>2014-03-02T15:57:46.000Z</time>
      </trkpt>
      <trkpt lat="45.32196" lon="6.2392">
        <ele>1325.1999511719</ele>
        <time>2014-03-02T15:57:47.000Z</time>
      </trkpt>
      <trkpt lat="45.32195" lon="6.23923">
        <ele>1325.5999755859</ele>
        <time>2014-03-02T15:57:48.000Z</time>
      </trkpt>
      <trkpt lat="45.32194" lon="6.23924">
        <ele>1325.1999511719</ele>
        <time>2014-03-02T15:57:49.000Z</time>
      </trkpt>
      <trkpt lat="45.32191" lon="6.23927">
        <ele>1325.1999511719</ele>
        <time>2014-03-02T15:57:50.000Z</time>
      </trkpt>
      <trkpt lat="45.32189" lon="6.23928">
        <ele>1324.8000488281</ele>
        <time>2014-03-02T15:57:51.000Z</time>
      </trkpt>
      <trkpt lat="45.32187" lon="6.23929">
        <ele>1324.4000244141</ele>
        <time>2014-03-02T15:57:52.000Z</time>
      </trkpt>
      <trkpt lat="45.32186" lon="6.23931">
        <ele>1324.4000244141</ele>
        <time>2014-03-02T15:57:53.000Z</time>
      </trkpt>
      <trkpt lat="45.32185" lon="6.23932">
        <ele>1324.1999511719</ele>
        <time>2014-03-02T15:57:54.000Z</time>
      </trkpt>
      <trkpt lat="45.32183" lon="6.23932">
        <ele>1323.8000488281</ele>
        <time>2014-03-02T15:57:55.000Z</time>
      </trkpt>
      <trkpt lat="45.32183" lon="6.23933">
        <ele>1324</ele>
        <time>2014-03-02T15:57:56.000Z</time>
      </trkpt>
      <trkpt lat="45.32182" lon="6.23934">
        <ele>1323.8000488281</ele>
        <time>2014-03-02T15:57:57.000Z</time>
      </trkpt>
      <trkpt lat="45.3218" lon="6.23937">
        <ele>1324</ele>
        <time>2014-03-02T15:57:58.000Z</time>
      </trkpt>
      <trkpt lat="45.32179" lon="6.23938">
        <ele>1324</ele>
        <time>2014-03-02T15:57:59.000Z</time>
      </trkpt>
      <trkpt lat="45.32179" lon="6.23939">
        <ele>1324</ele>
        <time>2014-03-02T15:58:00.000Z</time>
      </trkpt>
      <trkpt lat="45.32178" lon="6.2394">
        <ele>1324</ele>
        <time>2014-03-02T15:58:01.000Z</time>
      </trkpt>
      <trkpt lat="45.32178" lon="6.23942">
        <ele>1324.4000244141</ele>
        <time>2014-03-02T15:58:02.000Z</time>
      </trkpt>
      <trkpt lat="45.32178" lon="6.23943">
        <ele>1324.5999755859</ele>
        <time>2014-03-02T15:58:03.000Z</time>
      </trkpt>
      <trkpt lat="45.32177" lon="6.23945">
        <ele>1323.8000488281</ele>
        <time>2014-03-02T15:58:04.000Z</time>
      </trkpt>
      <trkpt lat="45.32176" lon="6.23947">
        <ele>1323</ele>
        <time>2014-03-02T15:58:05.000Z</time>
      </trkpt>
      <trkpt lat="45.32174" lon="6.23949">
        <ele>1322</ele>
        <time>2014-03-02T15:58:06.000Z</time>
      </trkpt>
      <trkpt lat="45.32173" lon="6.23951">
        <ele>1321</ele>
        <time>2014-03-02T15:58:07.000Z</time>
      </trkpt>
      <trkpt lat="45.32171" lon="6.23953">
        <ele>1319.4000244141</ele>
        <time>2014-03-02T15:58:08.000Z</time>
      </trkpt>
      <trkpt lat="45.32169" lon="6.23955">
        <ele>1318.1999511719</ele>
        <time>2014-03-02T15:58:09.000Z</time>
      </trkpt>
      <trkpt lat="45.32168" lon="6.23956">
        <ele>1317.4000244141</ele>
        <time>2014-03-02T15:58:10.000Z</time>
      </trkpt>
      <trkpt lat="45.32167" lon="6.23957">
        <ele>1316.1999511719</ele>
        <time>2014-03-02T15:58:11.000Z</time>
      </trkpt>
      <trkpt lat="45.32164" lon="6.23959">
        <ele>1314.5999755859</ele>
        <time>2014-03-02T15:58:12.000Z</time>
      </trkpt>
      <trkpt lat="45.32162" lon="6.23961">
        <ele>1313.1999511719</ele>
        <time>2014-03-02T15:58:13.000Z</time>
      </trkpt>
      <trkpt lat="45.32161" lon="6.23963">
        <ele>1312</ele>
        <time>2014-03-02T15:58:14.000Z</time>
      </trkpt>
      <trkpt lat="45.3216" lon="6.23964">
        <ele>1311.1999511719</ele>
        <time>2014-03-02T15:58:15.000Z</time>
      </trkpt>
      <trkpt lat="45.32158" lon="6.23965">
        <ele>1310.1999511719</ele>
        <time>2014-03-02T15:58:16.000Z</time>
      </trkpt>
      <trkpt lat="45.32156" lon="6.23967">
        <ele>1308.5999755859</ele>
        <time>2014-03-02T15:58:17.000Z</time>
      </trkpt>
      <trkpt lat="45.32155" lon="6.23969">
        <ele>1307.5999755859</ele>
        <time>2014-03-02T15:58:18.000Z</time>
      </trkpt>
      <trkpt lat="45.32154" lon="6.2397">
        <ele>1307</ele>
        <time>2014-03-02T15:58:19.000Z</time>
      </trkpt>
      <trkpt lat="45.32153" lon="6.2397">
        <ele>1306.1999511719</ele>
        <time>2014-03-02T15:58:20.000Z</time>
      </trkpt>
      <trkpt lat="45.32151" lon="6.23971">
        <ele>1305</ele>
        <time>2014-03-02T15:58:21.000Z</time>
      </trkpt>
      <trkpt lat="45.32149" lon="6.23973">
        <ele>1303.1999511719</ele>
        <time>2014-03-02T15:58:22.000Z</time>
      </trkpt>
      <trkpt lat="45.32147" lon="6.23974">
        <ele>1302</ele>
        <time>2014-03-02T15:58:23.000Z</time>
      </trkpt>
      <trkpt lat="45.32145" lon="6.23975">
        <ele>1300.5999755859</ele>
        <time>2014-03-02T15:58:24.000Z</time>
      </trkpt>
      <trkpt lat="45.32143" lon="6.23977">
        <ele>1299.4000244141</ele>
        <time>2014-03-02T15:58:25.000Z</time>
      </trkpt>
      <trkpt lat="45.32142" lon="6.23978">
        <ele>1298.4000244141</ele>
        <time>2014-03-02T15:58:26.000Z</time>
      </trkpt>
      <trkpt lat="45.3214" lon="6.23979">
        <ele>1297.4000244141</ele>
        <time>2014-03-02T15:58:27.000Z</time>
      </trkpt>
      <trkpt lat="45.32139" lon="6.23981">
        <ele>1296.5999755859</ele>
        <time>2014-03-02T15:58:28.000Z</time>
      </trkpt>
      <trkpt lat="45.32136" lon="6.23985">
        <ele>1295.8000488281</ele>
        <time>2014-03-02T15:58:29.000Z</time>
      </trkpt>
      <trkpt lat="45.32133" lon="6.23989">
        <ele>1294</ele>
        <time>2014-03-02T15:58:30.000Z</time>
      </trkpt>
      <trkpt lat="45.32129" lon="6.23994">
        <ele>1293</ele>
        <time>2014-03-02T15:58:31.000Z</time>
      </trkpt>
      <trkpt lat="45.32125" lon="6.23997">
        <ele>1293</ele>
        <time>2014-03-02T15:58:32.000Z</time>
      </trkpt>
      <trkpt lat="45.32121" lon="6.24002">
        <ele>1293.4000244141</ele>
        <time>2014-03-02T15:58:33.000Z</time>
      </trkpt>
      <trkpt lat="45.32117" lon="6.24006">
        <ele>1293.5999755859</ele>
        <time>2014-03-02T15:58:34.000Z</time>
      </trkpt>
      <trkpt lat="45.32113" lon="6.24011">
        <ele>1294</ele>
        <time>2014-03-02T15:58:35.000Z</time>
      </trkpt>
      <trkpt lat="45.3211" lon="6.24016">
        <ele>1294.4000244141</ele>
        <time>2014-03-02T15:58:36.000Z</time>
      </trkpt>
      <trkpt lat="45.32108" lon="6.24021">
        <ele>1294.8000488281</ele>
        <time>2014-03-02T15:58:37.000Z</time>
      </trkpt>
      <trkpt lat="45.32105" lon="6.24025">
        <ele>1295.1999511719</ele>
        <time>2014-03-02T15:58:38.000Z</time>
      </trkpt>
      <trkpt lat="45.32102" lon="6.24029">
        <ele>1295.4000244141</ele>
        <time>2014-03-02T15:58:39.000Z</time>
      </trkpt>
      <trkpt lat="45.321" lon="6.24032">
        <ele>1295.8000488281</ele>
        <time>2014-03-02T15:58:40.000Z</time>
      </trkpt>
      <trkpt lat="45.32099" lon="6.24036">
        <ele>1293.8000488281</ele>
        <time>2014-03-02T15:58:41.000Z</time>
      </trkpt>
      <trkpt lat="45.32097" lon="6.24039">
        <ele>1292</ele>
        <time>2014-03-02T15:58:42.000Z</time>
      </trkpt>
      <trkpt lat="45.32095" lon="6.24042">
        <ele>1290.4000244141</ele>
        <time>2014-03-02T15:58:43.000Z</time>
      </trkpt>
      <trkpt lat="45.32093" lon="6.24045">
        <ele>1288.8000488281</ele>
        <time>2014-03-02T15:58:44.000Z</time>
      </trkpt>
      <trkpt lat="45.32092" lon="6.24048">
        <ele>1287.1999511719</ele>
        <time>2014-03-02T15:58:45.000Z</time>
      </trkpt>
      <trkpt lat="45.32091" lon="6.24051">
        <ele>1285.5999755859</ele>
        <time>2014-03-02T15:58:46.000Z</time>
      </trkpt>
      <trkpt lat="45.32089" lon="6.24054">
        <ele>1284</ele>
        <time>2014-03-02T15:58:47.000Z</time>
      </trkpt>
      <trkpt lat="45.32087" lon="6.24057">
        <ele>1282.4000244141</ele>
        <time>2014-03-02T15:58:48.000Z</time>
      </trkpt>
      <trkpt lat="45.32086" lon="6.2406">
        <ele>1280.8000488281</ele>
        <time>2014-03-02T15:58:49.000Z</time>
      </trkpt>
      <trkpt lat="45.32085" lon="6.24062">
        <ele>1279.4000244141</ele>
        <time>2014-03-02T15:58:50.000Z</time>
      </trkpt>
      <trkpt lat="45.32083" lon="6.24064">
        <ele>1279</ele>
        <time>2014-03-02T15:58:51.000Z</time>
      </trkpt>
      <trkpt lat="45.32082" lon="6.24067">
        <ele>1278.5999755859</ele>
        <time>2014-03-02T15:58:52.000Z</time>
      </trkpt>
      <trkpt lat="45.32081" lon="6.24069">
        <ele>1278.4000244141</ele>
        <time>2014-03-02T15:58:53.000Z</time>
      </trkpt>
      <trkpt lat="45.32083" lon="6.24064">
        <ele>1278.4000244141</ele>
        <time>2014-03-02T15:58:54.000Z</time>
      </trkpt>
      <trkpt lat="45.32085" lon="6.24058">
        <ele>1280.8000488281</ele>
        <time>2014-03-02T15:58:55.000Z</time>
      </trkpt>
      <trkpt lat="45.32085" lon="6.24058">
        <ele>1280.8000488281</ele>
        <time>2014-03-02T15:58:56.000Z</time>
      </trkpt>
      <trkpt lat="45.32085" lon="6.24058">
        <ele>1280.8000488281</ele>
        <time>2014-03-02T15:58:57.000Z</time>
      </trkpt>
      <trkpt lat="45.32085" lon="6.24058">
        <ele>1280.8000488281</ele>
        <time>2014-03-02T15:58:58.000Z</time>
      </trkpt>
      <trkpt lat="45.32085" lon="6.24058">
        <ele>1280.8000488281</ele>
        <time>2014-03-02T15:58:59.000Z</time>
      </trkpt>
      <trkpt lat="45.32085" lon="6.24058">
        <ele>1280.8000488281</ele>
        <time>2014-03-02T15:59:00.000Z</time>
      </trkpt>
      <trkpt lat="45.32085" lon="6.24058">
        <ele>1280.8000488281</ele>
        <time>2014-03-02T15:59:03.000Z</time>
      </trkpt>
      <trkpt lat="45.32085" lon="6.24058">
        <ele>1280.8000488281</ele>
        <time>2014-03-02T15:59:04.000Z</time>
      </trkpt>
      <trkpt lat="45.32085" lon="6.24058">
        <ele>1280.8000488281</ele>
        <time>2014-03-02T15:59:05.000Z</time>
      </trkpt>
      <trkpt lat="45.32085" lon="6.24058">
        <ele>1280.8000488281</ele>
        <time>2014-03-02T15:59:06.000Z</time>
      </trkpt>
      <trkpt lat="45.32085" lon="6.24058">
        <ele>1280.8000488281</ele>
        <time>2014-03-02T15:59:07.000Z</time>
      </trkpt>
      <trkpt lat="45.32085" lon="6.24058">
        <ele>1280.8000488281</ele>
        <time>2014-03-02T15:59:08.000Z</time>
      </trkpt>
      <trkpt lat="45.32085" lon="6.24058">
        <ele>1280.8000488281</ele>
        <time>2014-03-02T15:59:09.000Z</time>
      </trkpt>
      <trkpt lat="45.32085" lon="6.24058">
        <ele>1280.8000488281</ele>
        <time>2014-03-02T15:59:10.000Z</time>
      </trkpt>
      <trkpt lat="45.32087" lon="6.24052">
        <ele>1283.4000244141</ele>
        <time>2014-03-02T15:59:11.000Z</time>
      </trkpt>
      <trkpt lat="45.3209" lon="6.24048">
        <ele>1286.1999511719</ele>
        <time>2014-03-02T15:59:12.000Z</time>
      </trkpt>
      <trkpt lat="45.32092" lon="6.24048">
        <ele>1287</ele>
        <time>2014-03-02T15:59:13.000Z</time>
      </trkpt>
      <trkpt lat="45.32092" lon="6.24048">
        <ele>1287.1999511719</ele>
        <time>2014-03-02T15:59:14.000Z</time>
      </trkpt>
      <trkpt lat="45.32093" lon="6.24048">
        <ele>1287.5999755859</ele>
        <time>2014-03-02T15:59:15.000Z</time>
      </trkpt>
      <trkpt lat="45.32093" lon="6.24048">
        <ele>1287.5999755859</ele>
        <time>2014-03-02T15:59:16.000Z</time>
      </trkpt>
      <trkpt lat="45.32093" lon="6.24048">
        <ele>1287.5999755859</ele>
        <time>2014-03-02T15:59:17.000Z</time>
      </trkpt>
      <trkpt lat="45.32093" lon="6.24049">
        <ele>1287.1999511719</ele>
        <time>2014-03-02T15:59:18.000Z</time>
      </trkpt>
      <trkpt lat="45.32092" lon="6.24052">
        <ele>1285.5999755859</ele>
        <time>2014-03-02T15:59:19.000Z</time>
      </trkpt>
      <trkpt lat="45.32089" lon="6.24056">
        <ele>1283.5999755859</ele>
        <time>2014-03-02T15:59:20.000Z</time>
      </trkpt>
      <trkpt lat="45.32087" lon="6.24061">
        <ele>1280.8000488281</ele>
        <time>2014-03-02T15:59:21.000Z</time>
      </trkpt>
      <trkpt lat="45.32084" lon="6.24065">
        <ele>1279.4000244141</ele>
        <time>2014-03-02T15:59:22.000Z</time>
      </trkpt>
      <trkpt lat="45.32084" lon="6.24067">
        <ele>1279.4000244141</ele>
        <time>2014-03-02T15:59:23.000Z</time>
      </trkpt>
      <trkpt lat="45.32084" lon="6.24067">
        <ele>1279.5999755859</ele>
        <time>2014-03-02T15:59:24.000Z</time>
      </trkpt>
      <trkpt lat="45.32084" lon="6.24068">
        <ele>1279.8000488281</ele>
        <time>2014-03-02T15:59:25.000Z</time>
      </trkpt>
      <trkpt lat="45.32084" lon="6.24069">
        <ele>1279.8000488281</ele>
        <time>2014-03-02T15:59:26.000Z</time>
      </trkpt>
      <trkpt lat="45.32083" lon="6.2407">
        <ele>1279.5999755859</ele>
        <time>2014-03-02T15:59:27.000Z</time>
      </trkpt>
      <trkpt lat="45.32082" lon="6.2407">
        <ele>1278.8000488281</ele>
        <time>2014-03-02T15:59:28.000Z</time>
      </trkpt>
      <trkpt lat="45.3208" lon="6.2407">
        <ele>1278.1999511719</ele>
        <time>2014-03-02T15:59:29.000Z</time>
      </trkpt>
      <trkpt lat="45.32078" lon="6.2407">
        <ele>1277</ele>
        <time>2014-03-02T15:59:30.000Z</time>
      </trkpt>
      <trkpt lat="45.32076" lon="6.24071">
        <ele>1276.1999511719</ele>
        <time>2014-03-02T15:59:31.000Z</time>
      </trkpt>
      <trkpt lat="45.32074" lon="6.24072">
        <ele>1275.4000244141</ele>
        <time>2014-03-02T15:59:32.000Z</time>
      </trkpt>
      <trkpt lat="45.32073" lon="6.24074">
        <ele>1274.8000488281</ele>
        <time>2014-03-02T15:59:33.000Z</time>
      </trkpt>
      <trkpt lat="45.32072" lon="6.24076">
        <ele>1274.4000244141</ele>
        <time>2014-03-02T15:59:34.000Z</time>
      </trkpt>
      <trkpt lat="45.3207" lon="6.24077">
        <ele>1273.8000488281</ele>
        <time>2014-03-02T15:59:35.000Z</time>
      </trkpt>
      <trkpt lat="45.32068" lon="6.2408">
        <ele>1273.1999511719</ele>
        <time>2014-03-02T15:59:36.000Z</time>
      </trkpt>
      <trkpt lat="45.32065" lon="6.24085">
        <ele>1271.8000488281</ele>
        <time>2014-03-02T15:59:37.000Z</time>
      </trkpt>
      <trkpt lat="45.32061" lon="6.24092">
        <ele>1269</ele>
        <time>2014-03-02T15:59:38.000Z</time>
      </trkpt>
      <trkpt lat="45.32057" lon="6.241">
        <ele>1266.5999755859</ele>
        <time>2014-03-02T15:59:39.000Z</time>
      </trkpt>
      <trkpt lat="45.32055" lon="6.24106">
        <ele>1265.1999511719</ele>
        <time>2014-03-02T15:59:40.000Z</time>
      </trkpt>
      <trkpt lat="45.32053" lon="6.2411">
        <ele>1263.5999755859</ele>
        <time>2014-03-02T15:59:41.000Z</time>
      </trkpt>
      <trkpt lat="45.3205" lon="6.24116">
        <ele>1261.8000488281</ele>
        <time>2014-03-02T15:59:42.000Z</time>
      </trkpt>
      <trkpt lat="45.32047" lon="6.24121">
        <ele>1260.1999511719</ele>
        <time>2014-03-02T15:59:43.000Z</time>
      </trkpt>
      <trkpt lat="45.32045" lon="6.24125">
        <ele>1259.8000488281</ele>
        <time>2014-03-02T15:59:44.000Z</time>
      </trkpt>
      <trkpt lat="45.32041" lon="6.24129">
        <ele>1259.1999511719</ele>
        <time>2014-03-02T15:59:45.000Z</time>
      </trkpt>
      <trkpt lat="45.32037" lon="6.24134">
        <ele>1258.8000488281</ele>
        <time>2014-03-02T15:59:46.000Z</time>
      </trkpt>
      <trkpt lat="45.32037" lon="6.24137">
        <ele>1258.4000244141</ele>
        <time>2014-03-02T15:59:47.000Z</time>
      </trkpt>
      <trkpt lat="45.32037" lon="6.24138">
        <ele>1258.1999511719</ele>
        <time>2014-03-02T15:59:48.000Z</time>
      </trkpt>
      <trkpt lat="45.32037" lon="6.2414">
        <ele>1258</ele>
        <time>2014-03-02T15:59:49.000Z</time>
      </trkpt>
      <trkpt lat="45.32037" lon="6.24141">
        <ele>1257.8000488281</ele>
        <time>2014-03-02T15:59:50.000Z</time>
      </trkpt>
      <trkpt lat="45.32037" lon="6.24143">
        <ele>1257.1999511719</ele>
        <time>2014-03-02T15:59:51.000Z</time>
      </trkpt>
      <trkpt lat="45.32037" lon="6.24145">
        <ele>1256.8000488281</ele>
        <time>2014-03-02T15:59:52.000Z</time>
      </trkpt>
      <trkpt lat="45.32037" lon="6.24147">
        <ele>1256.8000488281</ele>
        <time>2014-03-02T15:59:53.000Z</time>
      </trkpt>
      <trkpt lat="45.32035" lon="6.2415">
        <ele>1257</ele>
        <time>2014-03-02T15:59:54.000Z</time>
      </trkpt>
      <trkpt lat="45.32034" lon="6.24152">
        <ele>1256.8000488281</ele>
        <time>2014-03-02T15:59:55.000Z</time>
      </trkpt>
      <trkpt lat="45.32031" lon="6.24156">
        <ele>1256.8000488281</ele>
        <time>2014-03-02T15:59:56.000Z</time>
      </trkpt>
      <trkpt lat="45.3203" lon="6.24159">
        <ele>1256.8000488281</ele>
        <time>2014-03-02T15:59:57.000Z</time>
      </trkpt>
      <trkpt lat="45.32029" lon="6.24161">
        <ele>1256.8000488281</ele>
        <time>2014-03-02T15:59:58.000Z</time>
      </trkpt>
      <trkpt lat="45.32029" lon="6.24163">
        <ele>1257</ele>
        <time>2014-03-02T15:59:59.000Z</time>
      </trkpt>
      <trkpt lat="45.32028" lon="6.24164">
        <ele>1257</ele>
        <time>2014-03-02T16:00:00.000Z</time>
      </trkpt>
      <trkpt lat="45.32028" lon="6.24164">
        <ele>1257</ele>
        <time>2014-03-02T16:00:01.000Z</time>
      </trkpt>
      <trkpt lat="45.32027" lon="6.24165">
        <ele>1257</ele>
        <time>2014-03-02T16:00:02.000Z</time>
      </trkpt>
      <trkpt lat="45.32027" lon="6.24166">
        <ele>1257</ele>
        <time>2014-03-02T16:00:03.000Z</time>
      </trkpt>
      <trkpt lat="45.32027" lon="6.24167">
        <ele>1257</ele>
        <time>2014-03-02T16:00:04.000Z</time>
      </trkpt>
      <trkpt lat="45.32027" lon="6.24169">
        <ele>1257.1999511719</ele>
        <time>2014-03-02T16:00:05.000Z</time>
      </trkpt>
      <trkpt lat="45.32027" lon="6.2417">
        <ele>1257.4000244141</ele>
        <time>2014-03-02T16:00:06.000Z</time>
      </trkpt>
      <trkpt lat="45.32027" lon="6.24172">
        <ele>1257.8000488281</ele>
        <time>2014-03-02T16:00:07.000Z</time>
      </trkpt>
      <trkpt lat="45.32027" lon="6.24173">
        <ele>1258</ele>
        <time>2014-03-02T16:00:08.000Z</time>
      </trkpt>
      <trkpt lat="45.32026" lon="6.24175">
        <ele>1258</ele>
        <time>2014-03-02T16:00:09.000Z</time>
      </trkpt>
      <trkpt lat="45.32026" lon="6.24176">
        <ele>1258.1999511719</ele>
        <time>2014-03-02T16:00:10.000Z</time>
      </trkpt>
      <trkpt lat="45.32025" lon="6.24179">
        <ele>1258.1999511719</ele>
        <time>2014-03-02T16:00:11.000Z</time>
      </trkpt>
      <trkpt lat="45.32021" lon="6.24179">
        <ele>1257.1999511719</ele>
        <time>2014-03-02T16:00:12.000Z</time>
      </trkpt>
      <trkpt lat="45.3202" lon="6.24182">
        <ele>1257.1999511719</ele>
        <time>2014-03-02T16:00:13.000Z</time>
      </trkpt>
      <trkpt lat="45.32015" lon="6.24184">
        <ele>1256</ele>
        <time>2014-03-02T16:00:14.000Z</time>
      </trkpt>
      <trkpt lat="45.32007" lon="6.24197">
        <ele>1253.8000488281</ele>
        <time>2014-03-02T16:00:15.000Z</time>
      </trkpt>
      <trkpt lat="45.32002" lon="6.24204">
        <ele>1250.5999755859</ele>
        <time>2014-03-02T16:00:16.000Z</time>
      </trkpt>
      <trkpt lat="45.31996" lon="6.24212">
        <ele>1247.1999511719</ele>
        <time>2014-03-02T16:00:17.000Z</time>
      </trkpt>
      <trkpt lat="45.31989" lon="6.24221">
        <ele>1243.1999511719</ele>
        <time>2014-03-02T16:00:18.000Z</time>
      </trkpt>
      <trkpt lat="45.31983" lon="6.2423">
        <ele>1239.4000244141</ele>
        <time>2014-03-02T16:00:19.000Z</time>
      </trkpt>
      <trkpt lat="45.31978" lon="6.24234">
        <ele>1237.5999755859</ele>
        <time>2014-03-02T16:00:20.000Z</time>
      </trkpt>
      <trkpt lat="45.31973" lon="6.24238">
        <ele>1235.4000244141</ele>
        <time>2014-03-02T16:00:21.000Z</time>
      </trkpt>
      <trkpt lat="45.31966" lon="6.24246">
        <ele>1231.8000488281</ele>
        <time>2014-03-02T16:00:22.000Z</time>
      </trkpt>
      <trkpt lat="45.31959" lon="6.24253">
        <ele>1230.5999755859</ele>
        <time>2014-03-02T16:00:23.000Z</time>
      </trkpt>
      <trkpt lat="45.31953" lon="6.24259">
        <ele>1230.4000244141</ele>
        <time>2014-03-02T16:00:24.000Z</time>
      </trkpt>
      <trkpt lat="45.31948" lon="6.24265">
        <ele>1230.4000244141</ele>
        <time>2014-03-02T16:00:25.000Z</time>
      </trkpt>
      <trkpt lat="45.31945" lon="6.24268">
        <ele>1230.1999511719</ele>
        <time>2014-03-02T16:00:26.000Z</time>
      </trkpt>
      <trkpt lat="45.31942" lon="6.24269">
        <ele>1230</ele>
        <time>2014-03-02T16:00:27.000Z</time>
      </trkpt>
      <trkpt lat="45.31942" lon="6.24269">
        <ele>1230</ele>
        <time>2014-03-02T16:00:28.000Z</time>
      </trkpt>
      <trkpt lat="45.31942" lon="6.24269">
        <ele>1230</ele>
        <time>2014-03-02T16:00:29.000Z</time>
      </trkpt>
      <trkpt lat="45.31942" lon="6.24269">
        <ele>1230</ele>
        <time>2014-03-02T16:00:30.000Z</time>
      </trkpt>
      <trkpt lat="45.31942" lon="6.24269">
        <ele>1230</ele>
        <time>2014-03-02T16:00:31.000Z</time>
      </trkpt>
      <trkpt lat="45.31942" lon="6.24269">
        <ele>1230</ele>
        <time>2014-03-02T16:00:32.000Z</time>
      </trkpt>
      <trkpt lat="45.31942" lon="6.24269">
        <ele>1230</ele>
        <time>2014-03-02T16:00:33.000Z</time>
      </trkpt>
      <trkpt lat="45.31942" lon="6.24269">
        <ele>1230</ele>
        <time>2014-03-02T16:00:34.000Z</time>
      </trkpt>
      <trkpt lat="45.31942" lon="6.24269">
        <ele>1230</ele>
        <time>2014-03-02T16:00:35.000Z</time>
      </trkpt>
      <trkpt lat="45.31942" lon="6.24269">
        <ele>1230</ele>
        <time>2014-03-02T16:00:36.000Z</time>
      </trkpt>
      <trkpt lat="45.31942" lon="6.24269">
        <ele>1230</ele>
        <time>2014-03-02T16:00:37.000Z</time>
      </trkpt>
      <trkpt lat="45.31942" lon="6.24269">
        <ele>1230</ele>
        <time>2014-03-02T16:00:38.000Z</time>
      </trkpt>
      <trkpt lat="45.31942" lon="6.24269">
        <ele>1230</ele>
        <time>2014-03-02T16:00:39.000Z</time>
      </trkpt>
      <trkpt lat="45.31942" lon="6.24269">
        <ele>1230</ele>
        <time>2014-03-02T16:00:40.000Z</time>
      </trkpt>
      <trkpt lat="45.31942" lon="6.24269">
        <ele>1230</ele>
        <time>2014-03-02T16:00:41.000Z</time>
      </trkpt>
      <trkpt lat="45.31942" lon="6.24269">
        <ele>1230</ele>
        <time>2014-03-02T16:00:42.000Z</time>
      </trkpt>
      <trkpt lat="45.31942" lon="6.24269">
        <ele>1230</ele>
        <time>2014-03-02T16:00:43.000Z</time>
      </trkpt>
      <trkpt lat="45.31942" lon="6.24269">
        <ele>1230</ele>
        <time>2014-03-02T16:00:44.000Z</time>
      </trkpt>
      <trkpt lat="45.31942" lon="6.24269">
        <ele>1230</ele>
        <time>2014-03-02T16:00:45.000Z</time>
      </trkpt>
      <trkpt lat="45.31942" lon="6.24269">
        <ele>1230</ele>
        <time>2014-03-02T16:00:46.000Z</time>
      </trkpt>
      <trkpt lat="45.31942" lon="6.24269">
        <ele>1230</ele>
        <time>2014-03-02T16:00:47.000Z</time>
      </trkpt>
      <trkpt lat="45.31942" lon="6.24269">
        <ele>1230</ele>
        <time>2014-03-02T16:00:48.000Z</time>
      </trkpt>
      <trkpt lat="45.31942" lon="6.24269">
        <ele>1230</ele>
        <time>2014-03-02T16:00:49.000Z</time>
      </trkpt>
      <trkpt lat="45.31942" lon="6.24269">
        <ele>1230</ele>
        <time>2014-03-02T16:00:50.000Z</time>
      </trkpt>
      <trkpt lat="45.31942" lon="6.24269">
        <ele>1230</ele>
        <time>2014-03-02T16:00:51.000Z</time>
      </trkpt>
      <trkpt lat="45.31942" lon="6.24269">
        <ele>1230</ele>
        <time>2014-03-02T16:00:52.000Z</time>
      </trkpt>
      <trkpt lat="45.31942" lon="6.24269">
        <ele>1230</ele>
        <time>2014-03-02T16:00:53.000Z</time>
      </trkpt>
      <trkpt lat="45.31942" lon="6.24269">
        <ele>1230</ele>
        <time>2014-03-02T16:00:54.000Z</time>
      </trkpt>
      <trkpt lat="45.31942" lon="6.24269">
        <ele>1230</ele>
        <time>2014-03-02T16:00:55.000Z</time>
      </trkpt>
      <trkpt lat="45.31942" lon="6.24269">
        <ele>1230</ele>
        <time>2014-03-02T16:00:56.000Z</time>
      </trkpt>
      <trkpt lat="45.31942" lon="6.24269">
        <ele>1230</ele>
        <time>2014-03-02T16:00:57.000Z</time>
      </trkpt>
      <trkpt lat="45.31942" lon="6.24269">
        <ele>1230</ele>
        <time>2014-03-02T16:00:58.000Z</time>
      </trkpt>
      <trkpt lat="45.31942" lon="6.24269">
        <ele>1230</ele>
        <time>2014-03-02T16:00:59.000Z</time>
      </trkpt>
      <trkpt lat="45.31941" lon="6.24272">
        <ele>1230.1999511719</ele>
        <time>2014-03-02T16:01:00.000Z</time>
      </trkpt>
      <trkpt lat="45.3194" lon="6.24276">
        <ele>1230.4000244141</ele>
        <time>2014-03-02T16:01:01.000Z</time>
      </trkpt>
      <trkpt lat="45.3194" lon="6.24281">
        <ele>1230.8000488281</ele>
        <time>2014-03-02T16:01:02.000Z</time>
      </trkpt>
      <trkpt lat="45.31936" lon="6.24289">
        <ele>1230</ele>
        <time>2014-03-02T16:01:03.000Z</time>
      </trkpt>
      <trkpt lat="45.31932" lon="6.24295">
        <ele>1227.5999755859</ele>
        <time>2014-03-02T16:01:04.000Z</time>
      </trkpt>
      <trkpt lat="45.3193" lon="6.24299">
        <ele>1226.1999511719</ele>
        <time>2014-03-02T16:01:05.000Z</time>
      </trkpt>
      <trkpt lat="45.31928" lon="6.24303">
        <ele>1224.8000488281</ele>
        <time>2014-03-02T16:01:06.000Z</time>
      </trkpt>
      <trkpt lat="45.31927" lon="6.24306">
        <ele>1224.1999511719</ele>
        <time>2014-03-02T16:01:07.000Z</time>
      </trkpt>
      <trkpt lat="45.31927" lon="6.24309">
        <ele>1223.5999755859</ele>
        <time>2014-03-02T16:01:08.000Z</time>
      </trkpt>
      <trkpt lat="45.31926" lon="6.24313">
        <ele>1223</ele>
        <time>2014-03-02T16:01:09.000Z</time>
      </trkpt>
      <trkpt lat="45.31925" lon="6.24316">
        <ele>1223.1999511719</ele>
        <time>2014-03-02T16:01:10.000Z</time>
      </trkpt>
      <trkpt lat="45.31923" lon="6.2432">
        <ele>1223.1999511719</ele>
        <time>2014-03-02T16:01:11.000Z</time>
      </trkpt>
      <trkpt lat="45.31922" lon="6.24325">
        <ele>1223.1999511719</ele>
        <time>2014-03-02T16:01:12.000Z</time>
      </trkpt>
      <trkpt lat="45.3192" lon="6.24329">
        <ele>1223.4000244141</ele>
        <time>2014-03-02T16:01:13.000Z</time>
      </trkpt>
      <trkpt lat="45.31919" lon="6.24333">
        <ele>1223.5999755859</ele>
        <time>2014-03-02T16:01:14.000Z</time>
      </trkpt>
      <trkpt lat="45.31918" lon="6.24337">
        <ele>1224</ele>
        <time>2014-03-02T16:01:15.000Z</time>
      </trkpt>
      <trkpt lat="45.31917" lon="6.24342">
        <ele>1224.4000244141</ele>
        <time>2014-03-02T16:01:16.000Z</time>
      </trkpt>
      <trkpt lat="45.31916" lon="6.24346">
        <ele>1224.5999755859</ele>
        <time>2014-03-02T16:01:17.000Z</time>
      </trkpt>
      <trkpt lat="45.31915" lon="6.24349">
        <ele>1224.5999755859</ele>
        <time>2014-03-02T16:01:18.000Z</time>
      </trkpt>
      <trkpt lat="45.31914" lon="6.24353">
        <ele>1223.8000488281</ele>
        <time>2014-03-02T16:01:19.000Z</time>
      </trkpt>
      <trkpt lat="45.31913" lon="6.24356">
        <ele>1223</ele>
        <time>2014-03-02T16:01:20.000Z</time>
      </trkpt>
      <trkpt lat="45.31912" lon="6.2436">
        <ele>1221.8000488281</ele>
        <time>2014-03-02T16:01:21.000Z</time>
      </trkpt>
      <trkpt lat="45.3191" lon="6.24364">
        <ele>1220.8000488281</ele>
        <time>2014-03-02T16:01:22.000Z</time>
      </trkpt>
      <trkpt lat="45.31909" lon="6.24369">
        <ele>1219.5999755859</ele>
        <time>2014-03-02T16:01:23.000Z</time>
      </trkpt>
      <trkpt lat="45.31907" lon="6.24374">
        <ele>1218.1999511719</ele>
        <time>2014-03-02T16:01:24.000Z</time>
      </trkpt>
      <trkpt lat="45.31905" lon="6.24378">
        <ele>1217</ele>
        <time>2014-03-02T16:01:25.000Z</time>
      </trkpt>
      <trkpt lat="45.31904" lon="6.24383">
        <ele>1216</ele>
        <time>2014-03-02T16:01:26.000Z</time>
      </trkpt>
      <trkpt lat="45.31903" lon="6.24387">
        <ele>1215</ele>
        <time>2014-03-02T16:01:27.000Z</time>
      </trkpt>
      <trkpt lat="45.31901" lon="6.24391">
        <ele>1213.8000488281</ele>
        <time>2014-03-02T16:01:28.000Z</time>
      </trkpt>
      <trkpt lat="45.31899" lon="6.24395">
        <ele>1212.5999755859</ele>
        <time>2014-03-02T16:01:29.000Z</time>
      </trkpt>
      <trkpt lat="45.31897" lon="6.24399">
        <ele>1211.8000488281</ele>
        <time>2014-03-02T16:01:30.000Z</time>
      </trkpt>
      <trkpt lat="45.31894" lon="6.24402">
        <ele>1210.8000488281</ele>
        <time>2014-03-02T16:01:31.000Z</time>
      </trkpt>
      <trkpt lat="45.31892" lon="6.24405">
        <ele>1210.1999511719</ele>
        <time>2014-03-02T16:01:32.000Z</time>
      </trkpt>
      <trkpt lat="45.3189" lon="6.24407">
        <ele>1209.1999511719</ele>
        <time>2014-03-02T16:01:33.000Z</time>
      </trkpt>
      <trkpt lat="45.31888" lon="6.24409">
        <ele>1208.4000244141</ele>
        <time>2014-03-02T16:01:34.000Z</time>
      </trkpt>
      <trkpt lat="45.31887" lon="6.2441">
        <ele>1207.5999755859</ele>
        <time>2014-03-02T16:01:35.000Z</time>
      </trkpt>
      <trkpt lat="45.31885" lon="6.24412">
        <ele>1206.5999755859</ele>
        <time>2014-03-02T16:01:36.000Z</time>
      </trkpt>
      <trkpt lat="45.31883" lon="6.24414">
        <ele>1205.8000488281</ele>
        <time>2014-03-02T16:01:37.000Z</time>
      </trkpt>
      <trkpt lat="45.31881" lon="6.24416">
        <ele>1204.8000488281</ele>
        <time>2014-03-02T16:01:38.000Z</time>
      </trkpt>
      <trkpt lat="45.31879" lon="6.24418">
        <ele>1204.1999511719</ele>
        <time>2014-03-02T16:01:39.000Z</time>
      </trkpt>
      <trkpt lat="45.31878" lon="6.24421">
        <ele>1204</ele>
        <time>2014-03-02T16:01:40.000Z</time>
      </trkpt>
      <trkpt lat="45.31876" lon="6.24424">
        <ele>1203.8000488281</ele>
        <time>2014-03-02T16:01:41.000Z</time>
      </trkpt>
      <trkpt lat="45.31874" lon="6.24427">
        <ele>1203.5999755859</ele>
        <time>2014-03-02T16:01:42.000Z</time>
      </trkpt>
      <trkpt lat="45.31872" lon="6.24431">
        <ele>1203.4000244141</ele>
        <time>2014-03-02T16:01:43.000Z</time>
      </trkpt>
      <trkpt lat="45.3187" lon="6.24435">
        <ele>1203.4000244141</ele>
        <time>2014-03-02T16:01:44.000Z</time>
      </trkpt>
      <trkpt lat="45.31868" lon="6.24438">
        <ele>1203.1999511719</ele>
        <time>2014-03-02T16:01:45.000Z</time>
      </trkpt>
      <trkpt lat="45.31867" lon="6.24441">
        <ele>1203</ele>
        <time>2014-03-02T16:01:46.000Z</time>
      </trkpt>
      <trkpt lat="45.31866" lon="6.24443">
        <ele>1202.8000488281</ele>
        <time>2014-03-02T16:01:47.000Z</time>
      </trkpt>
      <trkpt lat="45.31864" lon="6.24445">
        <ele>1202.8000488281</ele>
        <time>2014-03-02T16:01:48.000Z</time>
      </trkpt>
      <trkpt lat="45.31863" lon="6.24447">
        <ele>1202.5999755859</ele>
        <time>2014-03-02T16:01:49.000Z</time>
      </trkpt>
      <trkpt lat="45.31862" lon="6.2445">
        <ele>1202.4000244141</ele>
        <time>2014-03-02T16:01:50.000Z</time>
      </trkpt>
      <trkpt lat="45.31859" lon="6.24451">
        <ele>1202</ele>
        <time>2014-03-02T16:01:51.000Z</time>
      </trkpt>
      <trkpt lat="45.31857" lon="6.24453">
        <ele>1201.4000244141</ele>
        <time>2014-03-02T16:01:52.000Z</time>
      </trkpt>
      <trkpt lat="45.31855" lon="6.24455">
        <ele>1200.8000488281</ele>
        <time>2014-03-02T16:01:53.000Z</time>
      </trkpt>
      <trkpt lat="45.31853" lon="6.24457">
        <ele>1199.5999755859</ele>
        <time>2014-03-02T16:01:54.000Z</time>
      </trkpt>
      <trkpt lat="45.31851" lon="6.24459">
        <ele>1198.4000244141</ele>
        <time>2014-03-02T16:01:55.000Z</time>
      </trkpt>
      <trkpt lat="45.31848" lon="6.24465">
        <ele>1196</ele>
        <time>2014-03-02T16:01:56.000Z</time>
      </trkpt>
      <trkpt lat="45.31846" lon="6.24469">
        <ele>1194.5999755859</ele>
        <time>2014-03-02T16:01:57.000Z</time>
      </trkpt>
      <trkpt lat="45.31843" lon="6.24476">
        <ele>1192</ele>
        <time>2014-03-02T16:01:58.000Z</time>
      </trkpt>
      <trkpt lat="45.31841" lon="6.24481">
        <ele>1190.5999755859</ele>
        <time>2014-03-02T16:01:59.000Z</time>
      </trkpt>
      <trkpt lat="45.31839" lon="6.24485">
        <ele>1190.1999511719</ele>
        <time>2014-03-02T16:02:00.000Z</time>
      </trkpt>
      <trkpt lat="45.31836" lon="6.24489">
        <ele>1189.5999755859</ele>
        <time>2014-03-02T16:02:01.000Z</time>
      </trkpt>
      <trkpt lat="45.31834" lon="6.24494">
        <ele>1189</ele>
        <time>2014-03-02T16:02:02.000Z</time>
      </trkpt>
      <trkpt lat="45.31832" lon="6.24499">
        <ele>1188.5999755859</ele>
        <time>2014-03-02T16:02:03.000Z</time>
      </trkpt>
      <trkpt lat="45.31832" lon="6.245">
        <ele>1188.5999755859</ele>
        <time>2014-03-02T16:02:04.000Z</time>
      </trkpt>
      <trkpt lat="45.31831" lon="6.24501">
        <ele>1188.5999755859</ele>
        <time>2014-03-02T16:02:05.000Z</time>
      </trkpt>
      <trkpt lat="45.31831" lon="6.24503">
        <ele>1188.5999755859</ele>
        <time>2014-03-02T16:02:06.000Z</time>
      </trkpt>
      <trkpt lat="45.31831" lon="6.24504">
        <ele>1188.8000488281</ele>
        <time>2014-03-02T16:02:07.000Z</time>
      </trkpt>
      <trkpt lat="45.31831" lon="6.24505">
        <ele>1188.8000488281</ele>
        <time>2014-03-02T16:02:08.000Z</time>
      </trkpt>
      <trkpt lat="45.31829" lon="6.24511">
        <ele>1188.5999755859</ele>
        <time>2014-03-02T16:02:09.000Z</time>
      </trkpt>
      <trkpt lat="45.31828" lon="6.24513">
        <ele>1188.1999511719</ele>
        <time>2014-03-02T16:02:10.000Z</time>
      </trkpt>
      <trkpt lat="45.31828" lon="6.24516">
        <ele>1187.8000488281</ele>
        <time>2014-03-02T16:02:11.000Z</time>
      </trkpt>
      <trkpt lat="45.31824" lon="6.24525">
        <ele>1185</ele>
        <time>2014-03-02T16:02:12.000Z</time>
      </trkpt>
      <trkpt lat="45.31822" lon="6.24526">
        <ele>1184</ele>
        <time>2014-03-02T16:02:13.000Z</time>
      </trkpt>
      <trkpt lat="45.31821" lon="6.24528">
        <ele>1183.5999755859</ele>
        <time>2014-03-02T16:02:14.000Z</time>
      </trkpt>
      <trkpt lat="45.3182" lon="6.24531">
        <ele>1182.5999755859</ele>
        <time>2014-03-02T16:02:15.000Z</time>
      </trkpt>
      <trkpt lat="45.31819" lon="6.24535">
        <ele>1181.8000488281</ele>
        <time>2014-03-02T16:02:16.000Z</time>
      </trkpt>
      <trkpt lat="45.31816" lon="6.24542">
        <ele>1179.8000488281</ele>
        <time>2014-03-02T16:02:17.000Z</time>
      </trkpt>
      <trkpt lat="45.31813" lon="6.24549">
        <ele>1177.4000244141</ele>
        <time>2014-03-02T16:02:18.000Z</time>
      </trkpt>
      <trkpt lat="45.31811" lon="6.24553">
        <ele>1176.4000244141</ele>
        <time>2014-03-02T16:02:19.000Z</time>
      </trkpt>
      <trkpt lat="45.31809" lon="6.24558">
        <ele>1174.8000488281</ele>
        <time>2014-03-02T16:02:20.000Z</time>
      </trkpt>
      <trkpt lat="45.31806" lon="6.24564">
        <ele>1172.8000488281</ele>
        <time>2014-03-02T16:02:21.000Z</time>
      </trkpt>
      <trkpt lat="45.31803" lon="6.24571">
        <ele>1171.4000244141</ele>
        <time>2014-03-02T16:02:22.000Z</time>
      </trkpt>
      <trkpt lat="45.31801" lon="6.24577">
        <ele>1170.1999511719</ele>
        <time>2014-03-02T16:02:23.000Z</time>
      </trkpt>
      <trkpt lat="45.31801" lon="6.24582">
        <ele>1169.8000488281</ele>
        <time>2014-03-02T16:02:24.000Z</time>
      </trkpt>
      <trkpt lat="45.318" lon="6.24588">
        <ele>1169.4000244141</ele>
        <time>2014-03-02T16:02:25.000Z</time>
      </trkpt>
      <trkpt lat="45.318" lon="6.24592">
        <ele>1169.5999755859</ele>
        <time>2014-03-02T16:02:26.000Z</time>
      </trkpt>
      <trkpt lat="45.318" lon="6.24596">
        <ele>1169.8000488281</ele>
        <time>2014-03-02T16:02:27.000Z</time>
      </trkpt>
      <trkpt lat="45.31799" lon="6.24599">
        <ele>1169.4000244141</ele>
        <time>2014-03-02T16:02:28.000Z</time>
      </trkpt>
      <trkpt lat="45.31799" lon="6.24602">
        <ele>1169</ele>
        <time>2014-03-02T16:02:29.000Z</time>
      </trkpt>
      <trkpt lat="45.31797" lon="6.24606">
        <ele>1168.4000244141</ele>
        <time>2014-03-02T16:02:30.000Z</time>
      </trkpt>
      <trkpt lat="45.31796" lon="6.24609">
        <ele>1168</ele>
        <time>2014-03-02T16:02:31.000Z</time>
      </trkpt>
      <trkpt lat="45.31796" lon="6.24611">
        <ele>1167.8000488281</ele>
        <time>2014-03-02T16:02:32.000Z</time>
      </trkpt>
      <trkpt lat="45.31795" lon="6.24614">
        <ele>1167.8000488281</ele>
        <time>2014-03-02T16:02:33.000Z</time>
      </trkpt>
      <trkpt lat="45.31794" lon="6.24616">
        <ele>1167.5999755859</ele>
        <time>2014-03-02T16:02:34.000Z</time>
      </trkpt>
      <trkpt lat="45.31792" lon="6.24618">
        <ele>1167.1999511719</ele>
        <time>2014-03-02T16:02:35.000Z</time>
      </trkpt>
      <trkpt lat="45.31791" lon="6.24619">
        <ele>1166.8000488281</ele>
        <time>2014-03-02T16:02:36.000Z</time>
      </trkpt>
      <trkpt lat="45.31789" lon="6.24621">
        <ele>1166.4000244141</ele>
        <time>2014-03-02T16:02:37.000Z</time>
      </trkpt>
      <trkpt lat="45.31788" lon="6.24622">
        <ele>1166.1999511719</ele>
        <time>2014-03-02T16:02:38.000Z</time>
      </trkpt>
      <trkpt lat="45.31786" lon="6.24623">
        <ele>1165.8000488281</ele>
        <time>2014-03-02T16:02:39.000Z</time>
      </trkpt>
      <trkpt lat="45.31784" lon="6.24625">
        <ele>1165.1999511719</ele>
        <time>2014-03-02T16:02:40.000Z</time>
      </trkpt>
      <trkpt lat="45.31782" lon="6.24628">
        <ele>1164.8000488281</ele>
        <time>2014-03-02T16:02:41.000Z</time>
      </trkpt>
      <trkpt lat="45.3178" lon="6.24629">
        <ele>1164.1999511719</ele>
        <time>2014-03-02T16:02:42.000Z</time>
      </trkpt>
      <trkpt lat="45.31777" lon="6.24632">
        <ele>1162.5999755859</ele>
        <time>2014-03-02T16:02:43.000Z</time>
      </trkpt>
      <trkpt lat="45.31771" lon="6.2464">
        <ele>1159.1999511719</ele>
        <time>2014-03-02T16:02:44.000Z</time>
      </trkpt>
      <trkpt lat="45.31765" lon="6.24645">
        <ele>1156</ele>
        <time>2014-03-02T16:02:45.000Z</time>
      </trkpt>
      <trkpt lat="45.31759" lon="6.24651">
        <ele>1153.5999755859</ele>
        <time>2014-03-02T16:02:46.000Z</time>
      </trkpt>
      <trkpt lat="45.31755" lon="6.24655">
        <ele>1151.8000488281</ele>
        <time>2014-03-02T16:02:47.000Z</time>
      </trkpt>
      <trkpt lat="45.31751" lon="6.24659">
        <ele>1150</ele>
        <time>2014-03-02T16:02:48.000Z</time>
      </trkpt>
      <trkpt lat="45.31748" lon="6.2466">
        <ele>1149.1999511719</ele>
        <time>2014-03-02T16:02:49.000Z</time>
      </trkpt>
      <trkpt lat="45.31748" lon="6.24661">
        <ele>1149</ele>
        <time>2014-03-02T16:02:50.000Z</time>
      </trkpt>
      <trkpt lat="45.31747" lon="6.24662">
        <ele>1148.5999755859</ele>
        <time>2014-03-02T16:02:51.000Z</time>
      </trkpt>
      <trkpt lat="45.3175" lon="6.24664">
        <ele>1150</ele>
        <time>2014-03-02T16:02:52.000Z</time>
      </trkpt>
      <trkpt lat="45.31751" lon="6.24667">
        <ele>1150.1999511719</ele>
        <time>2014-03-02T16:02:53.000Z</time>
      </trkpt>
      <trkpt lat="45.31751" lon="6.24668">
        <ele>1150.1999511719</ele>
        <time>2014-03-02T16:02:54.000Z</time>
      </trkpt>
      <trkpt lat="45.3175" lon="6.24672">
        <ele>1149.8000488281</ele>
        <time>2014-03-02T16:02:55.000Z</time>
      </trkpt>
      <trkpt lat="45.3175" lon="6.24672">
        <ele>1149.8000488281</ele>
        <time>2014-03-02T16:02:56.000Z</time>
      </trkpt>
      <trkpt lat="45.3175" lon="6.24672">
        <ele>1149.8000488281</ele>
        <time>2014-03-02T16:02:57.000Z</time>
      </trkpt>
      <trkpt lat="45.31749" lon="6.2468">
        <ele>1149.4000244141</ele>
        <time>2014-03-02T16:02:58.000Z</time>
      </trkpt>
      <trkpt lat="45.31747" lon="6.24685">
        <ele>1148.1999511719</ele>
        <time>2014-03-02T16:02:59.000Z</time>
      </trkpt>
      <trkpt lat="45.31746" lon="6.24689">
        <ele>1147.4000244141</ele>
        <time>2014-03-02T16:03:00.000Z</time>
      </trkpt>
      <trkpt lat="45.31746" lon="6.2469">
        <ele>1147.1999511719</ele>
        <time>2014-03-02T16:03:01.000Z</time>
      </trkpt>
      <trkpt lat="45.31746" lon="6.24692">
        <ele>1147</ele>
        <time>2014-03-02T16:03:02.000Z</time>
      </trkpt>
      <trkpt lat="45.31746" lon="6.24693">
        <ele>1146.5999755859</ele>
        <time>2014-03-02T16:03:03.000Z</time>
      </trkpt>
      <trkpt lat="45.31745" lon="6.24694">
        <ele>1146.1999511719</ele>
        <time>2014-03-02T16:03:04.000Z</time>
      </trkpt>
      <trkpt lat="45.31744" lon="6.24694">
        <ele>1145.8000488281</ele>
        <time>2014-03-02T16:03:05.000Z</time>
      </trkpt>
      <trkpt lat="45.31744" lon="6.24696">
        <ele>1145.4000244141</ele>
        <time>2014-03-02T16:03:06.000Z</time>
      </trkpt>
      <trkpt lat="45.31744" lon="6.24696">
        <ele>1145.1999511719</ele>
        <time>2014-03-02T16:03:07.000Z</time>
      </trkpt>
      <trkpt lat="45.31744" lon="6.24697">
        <ele>1145.4000244141</ele>
        <time>2014-03-02T16:03:08.000Z</time>
      </trkpt>
      <trkpt lat="45.31744" lon="6.24697">
        <ele>1145.4000244141</ele>
        <time>2014-03-02T16:03:09.000Z</time>
      </trkpt>
      <trkpt lat="45.31744" lon="6.24697">
        <ele>1145.5999755859</ele>
        <time>2014-03-02T16:03:10.000Z</time>
      </trkpt>
      <trkpt lat="45.31745" lon="6.24697">
        <ele>1145.8000488281</ele>
        <time>2014-03-02T16:03:11.000Z</time>
      </trkpt>
      <trkpt lat="45.31745" lon="6.24697">
        <ele>1145.8000488281</ele>
        <time>2014-03-02T16:03:12.000Z</time>
      </trkpt>
      <trkpt lat="45.31745" lon="6.24697">
        <ele>1145.8000488281</ele>
        <time>2014-03-02T16:03:13.000Z</time>
      </trkpt>
      <trkpt lat="45.31745" lon="6.24697">
        <ele>1145.8000488281</ele>
        <time>2014-03-02T16:03:14.000Z</time>
      </trkpt>
      <trkpt lat="45.31745" lon="6.24697">
        <ele>1145.8000488281</ele>
        <time>2014-03-02T16:03:15.000Z</time>
      </trkpt>
      <trkpt lat="45.31745" lon="6.24697">
        <ele>1145.8000488281</ele>
        <time>2014-03-02T16:03:16.000Z</time>
      </trkpt>
      <trkpt lat="45.31745" lon="6.24697">
        <ele>1145.8000488281</ele>
        <time>2014-03-02T16:03:17.000Z</time>
      </trkpt>
      <trkpt lat="45.31745" lon="6.24697">
        <ele>1145.8000488281</ele>
        <time>2014-03-02T16:03:18.000Z</time>
      </trkpt>
      <trkpt lat="45.31745" lon="6.24697">
        <ele>1145.8000488281</ele>
        <time>2014-03-02T16:03:20.000Z</time>
      </trkpt>
      <trkpt lat="45.31745" lon="6.24697">
        <ele>1145.8000488281</ele>
        <time>2014-03-02T16:03:21.000Z</time>
      </trkpt>
      <trkpt lat="45.31745" lon="6.24697">
        <ele>1145.8000488281</ele>
        <time>2014-03-02T16:03:28.000Z</time>
      </trkpt>
      <trkpt lat="45.31745" lon="6.24697">
        <ele>1145.8000488281</ele>
        <time>2014-03-02T16:03:29.000Z</time>
      </trkpt>
      <trkpt lat="45.31745" lon="6.24697">
        <ele>1145.8000488281</ele>
        <time>2014-03-02T16:03:30.000Z</time>
      </trkpt>
      <trkpt lat="45.31745" lon="6.24697">
        <ele>1145.8000488281</ele>
        <time>2014-03-02T16:03:31.000Z</time>
      </trkpt>
      <trkpt lat="45.31745" lon="6.24697">
        <ele>1145.8000488281</ele>
        <time>2014-03-02T16:03:32.000Z</time>
      </trkpt>
      <trkpt lat="45.31745" lon="6.24697">
        <ele>1145.8000488281</ele>
        <time>2014-03-02T16:03:33.000Z</time>
      </trkpt>
      <trkpt lat="45.31743" lon="6.24697">
        <ele>1145</ele>
        <time>2014-03-02T16:03:34.000Z</time>
      </trkpt>
      <trkpt lat="45.31739" lon="6.24698">
        <ele>1143</ele>
        <time>2014-03-02T16:03:35.000Z</time>
      </trkpt>
      <trkpt lat="45.31738" lon="6.24699">
        <ele>1142</ele>
        <time>2014-03-02T16:03:36.000Z</time>
      </trkpt>
      <trkpt lat="45.31738" lon="6.24699">
        <ele>1142</ele>
        <time>2014-03-02T16:03:37.000Z</time>
      </trkpt>
      <trkpt lat="45.31738" lon="6.24699">
        <ele>1142</ele>
        <time>2014-03-02T16:03:38.000Z</time>
      </trkpt>
      <trkpt lat="45.31737" lon="6.24701">
        <ele>1141.1999511719</ele>
        <time>2014-03-02T16:03:39.000Z</time>
      </trkpt>
      <trkpt lat="45.31736" lon="6.24704">
        <ele>1140.5999755859</ele>
        <time>2014-03-02T16:03:40.000Z</time>
      </trkpt>
      <trkpt lat="45.31735" lon="6.24706">
        <ele>1140</ele>
        <time>2014-03-02T16:03:41.000Z</time>
      </trkpt>
      <trkpt lat="45.31734" lon="6.24709">
        <ele>1139.1999511719</ele>
        <time>2014-03-02T16:03:42.000Z</time>
      </trkpt>
      <trkpt lat="45.31733" lon="6.24712">
        <ele>1138.4000244141</ele>
        <time>2014-03-02T16:03:43.000Z</time>
      </trkpt>
      <trkpt lat="45.31732" lon="6.24714">
        <ele>1137.5999755859</ele>
        <time>2014-03-02T16:03:44.000Z</time>
      </trkpt>
      <trkpt lat="45.31731" lon="6.24717">
        <ele>1136.8000488281</ele>
        <time>2014-03-02T16:03:45.000Z</time>
      </trkpt>
      <trkpt lat="45.3173" lon="6.24718">
        <ele>1136.4000244141</ele>
        <time>2014-03-02T16:03:46.000Z</time>
      </trkpt>
      <trkpt lat="45.3173" lon="6.24719">
        <ele>1136</ele>
        <time>2014-03-02T16:03:47.000Z</time>
      </trkpt>
      <trkpt lat="45.31729" lon="6.2472">
        <ele>1135.8000488281</ele>
        <time>2014-03-02T16:03:48.000Z</time>
      </trkpt>
      <trkpt lat="45.31729" lon="6.24721">
        <ele>1135.4000244141</ele>
        <time>2014-03-02T16:03:49.000Z</time>
      </trkpt>
      <trkpt lat="45.31729" lon="6.24721">
        <ele>1135.4000244141</ele>
        <time>2014-03-02T16:03:50.000Z</time>
      </trkpt>
      <trkpt lat="45.31729" lon="6.24721">
        <ele>1135.4000244141</ele>
        <time>2014-03-02T16:03:51.000Z</time>
      </trkpt>
      <trkpt lat="45.31728" lon="6.24723">
        <ele>1135</ele>
        <time>2014-03-02T16:03:52.000Z</time>
      </trkpt>
      <trkpt lat="45.31728" lon="6.24724">
        <ele>1134.5999755859</ele>
        <time>2014-03-02T16:03:53.000Z</time>
      </trkpt>
      <trkpt lat="45.31728" lon="6.24724">
        <ele>1134.5999755859</ele>
        <time>2014-03-02T16:03:54.000Z</time>
      </trkpt>
      <trkpt lat="45.31728" lon="6.24724">
        <ele>1134.5999755859</ele>
        <time>2014-03-02T16:03:55.000Z</time>
      </trkpt>
      <trkpt lat="45.31728" lon="6.24725">
        <ele>1134.5999755859</ele>
        <time>2014-03-02T16:03:56.000Z</time>
      </trkpt>
      <trkpt lat="45.31728" lon="6.24725">
        <ele>1134.5999755859</ele>
        <time>2014-03-02T16:03:57.000Z</time>
      </trkpt>
      <trkpt lat="45.31728" lon="6.24725">
        <ele>1134.5999755859</ele>
        <time>2014-03-02T16:03:58.000Z</time>
      </trkpt>
      <trkpt lat="45.31728" lon="6.24725">
        <ele>1134.5999755859</ele>
        <time>2014-03-02T16:03:59.000Z</time>
      </trkpt>
      <trkpt lat="45.31728" lon="6.24725">
        <ele>1134.5999755859</ele>
        <time>2014-03-02T16:04:00.000Z</time>
      </trkpt>
      <trkpt lat="45.31728" lon="6.24726">
        <ele>1134.4000244141</ele>
        <time>2014-03-02T16:04:01.000Z</time>
      </trkpt>
      <trkpt lat="45.31727" lon="6.24727">
        <ele>1134</ele>
        <time>2014-03-02T16:04:02.000Z</time>
      </trkpt>
      <trkpt lat="45.31727" lon="6.24727">
        <ele>1134</ele>
        <time>2014-03-02T16:04:03.000Z</time>
      </trkpt>
      <trkpt lat="45.31727" lon="6.24727">
        <ele>1134</ele>
        <time>2014-03-02T16:04:04.000Z</time>
      </trkpt>
      <trkpt lat="45.31727" lon="6.24727">
        <ele>1134</ele>
        <time>2014-03-02T16:04:05.000Z</time>
      </trkpt>
      <trkpt lat="45.31727" lon="6.24727">
        <ele>1134</ele>
        <time>2014-03-02T16:04:06.000Z</time>
      </trkpt>
      <trkpt lat="45.31727" lon="6.24727">
        <ele>1134</ele>
        <time>2014-03-02T16:04:07.000Z</time>
      </trkpt>
      <trkpt lat="45.31727" lon="6.24727">
        <ele>1134</ele>
        <time>2014-03-02T16:04:08.000Z</time>
      </trkpt>
      <trkpt lat="45.31727" lon="6.24727">
        <ele>1134</ele>
        <time>2014-03-02T16:04:09.000Z</time>
      </trkpt>
      <trkpt lat="45.31727" lon="6.24727">
        <ele>1134</ele>
        <time>2014-03-02T16:04:12.000Z</time>
      </trkpt>
      <trkpt lat="45.31727" lon="6.24728">
        <ele>1133.5999755859</ele>
        <time>2014-03-02T16:04:14.000Z</time>
      </trkpt>
      <trkpt lat="45.31726" lon="6.24732">
        <ele>1133</ele>
        <time>2014-03-02T16:04:15.000Z</time>
      </trkpt>
      <trkpt lat="45.31725" lon="6.24735">
        <ele>1132.4000244141</ele>
        <time>2014-03-02T16:04:16.000Z</time>
      </trkpt>
      <trkpt lat="45.31724" lon="6.24737">
        <ele>1132</ele>
        <time>2014-03-02T16:04:17.000Z</time>
      </trkpt>
      <trkpt lat="45.31724" lon="6.24739">
        <ele>1131.4000244141</ele>
        <time>2014-03-02T16:04:18.000Z</time>
      </trkpt>
      <trkpt lat="45.31723" lon="6.24741">
        <ele>1130.8000488281</ele>
        <time>2014-03-02T16:04:19.000Z</time>
      </trkpt>
      <trkpt lat="45.31722" lon="6.24743">
        <ele>1130.4000244141</ele>
        <time>2014-03-02T16:04:20.000Z</time>
      </trkpt>
      <trkpt lat="45.31722" lon="6.24745">
        <ele>1129.8000488281</ele>
        <time>2014-03-02T16:04:21.000Z</time>
      </trkpt>
      <trkpt lat="45.31721" lon="6.24747">
        <ele>1129.4000244141</ele>
        <time>2014-03-02T16:04:22.000Z</time>
      </trkpt>
      <trkpt lat="45.31721" lon="6.24748">
        <ele>1128.8000488281</ele>
        <time>2014-03-02T16:04:23.000Z</time>
      </trkpt>
      <trkpt lat="45.31721" lon="6.24749">
        <ele>1128.5999755859</ele>
        <time>2014-03-02T16:04:24.000Z</time>
      </trkpt>
      <trkpt lat="45.31721" lon="6.24751">
        <ele>1128.5999755859</ele>
        <time>2014-03-02T16:04:25.000Z</time>
      </trkpt>
      <trkpt lat="45.31721" lon="6.24752">
        <ele>1128.4000244141</ele>
        <time>2014-03-02T16:04:26.000Z</time>
      </trkpt>
      <trkpt lat="45.3172" lon="6.24754">
        <ele>1127.8000488281</ele>
        <time>2014-03-02T16:04:27.000Z</time>
      </trkpt>
      <trkpt lat="45.31719" lon="6.24755">
        <ele>1127.1999511719</ele>
        <time>2014-03-02T16:04:28.000Z</time>
      </trkpt>
      <trkpt lat="45.31719" lon="6.24756">
        <ele>1127</ele>
        <time>2014-03-02T16:04:29.000Z</time>
      </trkpt>
      <trkpt lat="45.31719" lon="6.24758">
        <ele>1126.5999755859</ele>
        <time>2014-03-02T16:04:30.000Z</time>
      </trkpt>
      <trkpt lat="45.31718" lon="6.24759">
        <ele>1126.1999511719</ele>
        <time>2014-03-02T16:04:31.000Z</time>
      </trkpt>
      <trkpt lat="45.31718" lon="6.2476">
        <ele>1125.8000488281</ele>
        <time>2014-03-02T16:04:32.000Z</time>
      </trkpt>
      <trkpt lat="45.31718" lon="6.24761">
        <ele>1125.4000244141</ele>
        <time>2014-03-02T16:04:33.000Z</time>
      </trkpt>
      <trkpt lat="45.31717" lon="6.24762">
        <ele>1124.8000488281</ele>
        <time>2014-03-02T16:04:34.000Z</time>
      </trkpt>
      <trkpt lat="45.31716" lon="6.24763">
        <ele>1124.4000244141</ele>
        <time>2014-03-02T16:04:35.000Z</time>
      </trkpt>
      <trkpt lat="45.31716" lon="6.24763">
        <ele>1124.4000244141</ele>
        <time>2014-03-02T16:04:36.000Z</time>
      </trkpt>
      <trkpt lat="45.31716" lon="6.24763">
        <ele>1124.4000244141</ele>
        <time>2014-03-02T16:04:37.000Z</time>
      </trkpt>
      <trkpt lat="45.31716" lon="6.24763">
        <ele>1124.4000244141</ele>
        <time>2014-03-02T16:04:38.000Z</time>
      </trkpt>
      <trkpt lat="45.31716" lon="6.24763">
        <ele>1124.4000244141</ele>
        <time>2014-03-02T16:04:39.000Z</time>
      </trkpt>
      <trkpt lat="45.31716" lon="6.24763">
        <ele>1124.4000244141</ele>
        <time>2014-03-02T16:04:40.000Z</time>
      </trkpt>
      <trkpt lat="45.31716" lon="6.24763">
        <ele>1124.4000244141</ele>
        <time>2014-03-02T16:04:41.000Z</time>
      </trkpt>
      <trkpt lat="45.31716" lon="6.24763">
        <ele>1124.4000244141</ele>
        <time>2014-03-02T16:04:42.000Z</time>
      </trkpt>
      <trkpt lat="45.31716" lon="6.24763">
        <ele>1124.4000244141</ele>
        <time>2014-03-02T16:04:43.000Z</time>
      </trkpt>
      <trkpt lat="45.31716" lon="6.24763">
        <ele>1124.4000244141</ele>
        <time>2014-03-02T16:04:44.000Z</time>
      </trkpt>
      <trkpt lat="45.31716" lon="6.24763">
        <ele>1124.4000244141</ele>
        <time>2014-03-02T16:04:46.000Z</time>
      </trkpt>
      <trkpt lat="45.31716" lon="6.24763">
        <ele>1124.4000244141</ele>
        <time>2014-03-02T16:04:47.000Z</time>
      </trkpt>
      <trkpt lat="45.31716" lon="6.24763">
        <ele>1124.4000244141</ele>
        <time>2014-03-02T16:04:48.000Z</time>
      </trkpt>
      <trkpt lat="45.31716" lon="6.24763">
        <ele>1124.4000244141</ele>
        <time>2014-03-02T16:04:49.000Z</time>
      </trkpt>
      <trkpt lat="45.31716" lon="6.24763">
        <ele>1124.4000244141</ele>
        <time>2014-03-02T16:04:50.000Z</time>
      </trkpt>
      <trkpt lat="45.31716" lon="6.24763">
        <ele>1124.4000244141</ele>
        <time>2014-03-02T16:04:52.000Z</time>
      </trkpt>
      <trkpt lat="45.31716" lon="6.24763">
        <ele>1124.4000244141</ele>
        <time>2014-03-02T16:04:53.000Z</time>
      </trkpt>
      <trkpt lat="45.31716" lon="6.24763">
        <ele>1124.4000244141</ele>
        <time>2014-03-02T16:04:54.000Z</time>
      </trkpt>
      <trkpt lat="45.31716" lon="6.24763">
        <ele>1124.4000244141</ele>
        <time>2014-03-02T16:04:56.000Z</time>
      </trkpt>
      <trkpt lat="45.31716" lon="6.24763">
        <ele>1124.4000244141</ele>
        <time>2014-03-02T16:04:57.000Z</time>
      </trkpt>
      <trkpt lat="45.31717" lon="6.24764">
        <ele>1124.4000244141</ele>
        <time>2014-03-02T16:04:58.000Z</time>
      </trkpt>
      <trkpt lat="45.31717" lon="6.24765">
        <ele>1124.5999755859</ele>
        <time>2014-03-02T16:04:59.000Z</time>
      </trkpt>
      <trkpt lat="45.31717" lon="6.24765">
        <ele>1124.5999755859</ele>
        <time>2014-03-02T16:05:00.000Z</time>
      </trkpt>
      <trkpt lat="45.31717" lon="6.24765">
        <ele>1124.5999755859</ele>
        <time>2014-03-02T16:05:01.000Z</time>
      </trkpt>
      <trkpt lat="45.31717" lon="6.24765">
        <ele>1124.5999755859</ele>
        <time>2014-03-02T16:05:02.000Z</time>
      </trkpt>
      <trkpt lat="45.31717" lon="6.24765">
        <ele>1124.5999755859</ele>
        <time>2014-03-02T16:05:03.000Z</time>
      </trkpt>
      <trkpt lat="45.31717" lon="6.24765">
        <ele>1124.5999755859</ele>
        <time>2014-03-02T16:05:04.000Z</time>
      </trkpt>
      <trkpt lat="45.31717" lon="6.24765">
        <ele>1124.5999755859</ele>
        <time>2014-03-02T16:05:05.000Z</time>
      </trkpt>
      <trkpt lat="45.31717" lon="6.24765">
        <ele>1124.5999755859</ele>
        <time>2014-03-02T16:05:06.000Z</time>
      </trkpt>
      <trkpt lat="45.31717" lon="6.24765">
        <ele>1124.5999755859</ele>
        <time>2014-03-02T16:05:07.000Z</time>
      </trkpt>
      <trkpt lat="45.31717" lon="6.24765">
        <ele>1124.5999755859</ele>
        <time>2014-03-02T16:05:08.000Z</time>
      </trkpt>
      <trkpt lat="45.31717" lon="6.24765">
        <ele>1124.5999755859</ele>
        <time>2014-03-02T16:05:09.000Z</time>
      </trkpt>
      <trkpt lat="45.31717" lon="6.24765">
        <ele>1124.5999755859</ele>
        <time>2014-03-02T16:05:10.000Z</time>
      </trkpt>
      <trkpt lat="45.31717" lon="6.24765">
        <ele>1124.5999755859</ele>
        <time>2014-03-02T16:05:11.000Z</time>
      </trkpt>
      <trkpt lat="45.31717" lon="6.24765">
        <ele>1124.5999755859</ele>
        <time>2014-03-02T16:05:12.000Z</time>
      </trkpt>
      <trkpt lat="45.31717" lon="6.24765">
        <ele>1124.5999755859</ele>
        <time>2014-03-02T16:05:13.000Z</time>
      </trkpt>
      <trkpt lat="45.31717" lon="6.24765">
        <ele>1124.5999755859</ele>
        <time>2014-03-02T16:05:14.000Z</time>
      </trkpt>
      <trkpt lat="45.31717" lon="6.24765">
        <ele>1124.5999755859</ele>
        <time>2014-03-02T16:05:15.000Z</time>
      </trkpt>
      <trkpt lat="45.31717" lon="6.24765">
        <ele>1124.5999755859</ele>
        <time>2014-03-02T16:05:16.000Z</time>
      </trkpt>
      <trkpt lat="45.31717" lon="6.24765">
        <ele>1124.5999755859</ele>
        <time>2014-03-02T16:05:19.000Z</time>
      </trkpt>
      <trkpt lat="45.31717" lon="6.24765">
        <ele>1124.5999755859</ele>
        <time>2014-03-02T16:05:24.000Z</time>
      </trkpt>
      <trkpt lat="45.31717" lon="6.24765">
        <ele>1124.5999755859</ele>
        <time>2014-03-02T16:05:26.000Z</time>
      </trkpt>
      <trkpt lat="45.31716" lon="6.24764">
        <ele>1124.4000244141</ele>
        <time>2014-03-02T16:05:27.000Z</time>
      </trkpt>
      <trkpt lat="45.31716" lon="6.24763">
        <ele>1124.1999511719</ele>
        <time>2014-03-02T16:05:28.000Z</time>
      </trkpt>
      <trkpt lat="45.31716" lon="6.24762">
        <ele>1124.1999511719</ele>
        <time>2014-03-02T16:05:29.000Z</time>
      </trkpt>
      <trkpt lat="45.31716" lon="6.24761">
        <ele>1124.4000244141</ele>
        <time>2014-03-02T16:05:30.000Z</time>
      </trkpt>
      <trkpt lat="45.31716" lon="6.2476">
        <ele>1124.4000244141</ele>
        <time>2014-03-02T16:05:31.000Z</time>
      </trkpt>
      <trkpt lat="45.31715" lon="6.24759">
        <ele>1124.4000244141</ele>
        <time>2014-03-02T16:05:32.000Z</time>
      </trkpt>
      <trkpt lat="45.31715" lon="6.24758">
        <ele>1124.5999755859</ele>
        <time>2014-03-02T16:05:33.000Z</time>
      </trkpt>
      <trkpt lat="45.31716" lon="6.24757">
        <ele>1125</ele>
        <time>2014-03-02T16:05:34.000Z</time>
      </trkpt>
      <trkpt lat="45.31718" lon="6.24755">
        <ele>1126.1999511719</ele>
        <time>2014-03-02T16:05:35.000Z</time>
      </trkpt>
      <trkpt lat="45.31719" lon="6.24754">
        <ele>1126.8000488281</ele>
        <time>2014-03-02T16:05:36.000Z</time>
      </trkpt>
      <trkpt lat="45.31719" lon="6.24754">
        <ele>1126.8000488281</ele>
        <time>2014-03-02T16:05:37.000Z</time>
      </trkpt>
      <trkpt lat="45.31719" lon="6.24754">
        <ele>1126.8000488281</ele>
        <time>2014-03-02T16:05:38.000Z</time>
      </trkpt>
      <trkpt lat="45.3172" lon="6.24755">
        <ele>1127.5999755859</ele>
        <time>2014-03-02T16:05:39.000Z</time>
      </trkpt>
      <trkpt lat="45.31721" lon="6.24756">
        <ele>1127.8000488281</ele>
        <time>2014-03-02T16:05:40.000Z</time>
      </trkpt>
      <trkpt lat="45.31721" lon="6.24756">
        <ele>1127.8000488281</ele>
        <time>2014-03-02T16:05:41.000Z</time>
      </trkpt>
      <trkpt lat="45.31721" lon="6.24756">
        <ele>1127.8000488281</ele>
        <time>2014-03-02T16:05:43.000Z</time>
      </trkpt>
      <trkpt lat="45.31721" lon="6.24756">
        <ele>1127.8000488281</ele>
        <time>2014-03-02T16:05:44.000Z</time>
      </trkpt>
      <trkpt lat="45.31721" lon="6.24756">
        <ele>1127.8000488281</ele>
        <time>2014-03-02T16:05:45.000Z</time>
      </trkpt>
      <trkpt lat="45.31721" lon="6.24756">
        <ele>1127.8000488281</ele>
        <time>2014-03-02T16:05:46.000Z</time>
      </trkpt>
      <trkpt lat="45.31721" lon="6.24756">
        <ele>1127.8000488281</ele>
        <time>2014-03-02T16:05:47.000Z</time>
      </trkpt>
      <trkpt lat="45.31721" lon="6.24756">
        <ele>1127.8000488281</ele>
        <time>2014-03-02T16:05:48.000Z</time>
      </trkpt>
      <trkpt lat="45.31721" lon="6.24756">
        <ele>1127.8000488281</ele>
        <time>2014-03-02T16:05:49.000Z</time>
      </trkpt>
      <trkpt lat="45.31721" lon="6.24756">
        <ele>1127.8000488281</ele>
        <time>2014-03-02T16:05:50.000Z</time>
      </trkpt>
      <trkpt lat="45.31721" lon="6.24756">
        <ele>1127.8000488281</ele>
        <time>2014-03-02T16:05:51.000Z</time>
      </trkpt>
      <trkpt lat="45.31721" lon="6.24756">
        <ele>1127.8000488281</ele>
        <time>2014-03-02T16:05:52.000Z</time>
      </trkpt>
      <trkpt lat="45.31721" lon="6.24756">
        <ele>1127.8000488281</ele>
        <time>2014-03-02T16:05:53.000Z</time>
      </trkpt>
      <trkpt lat="45.31721" lon="6.24756">
        <ele>1127.8000488281</ele>
        <time>2014-03-02T16:05:54.000Z</time>
      </trkpt>
      <trkpt lat="45.31721" lon="6.24756">
        <ele>1127.8000488281</ele>
        <time>2014-03-02T16:05:56.000Z</time>
      </trkpt>
      <trkpt lat="45.31721" lon="6.24756">
        <ele>1127.8000488281</ele>
        <time>2014-03-02T16:05:57.000Z</time>
      </trkpt>
      <trkpt lat="45.31721" lon="6.24756">
        <ele>1127.8000488281</ele>
        <time>2014-03-02T16:05:58.000Z</time>
      </trkpt>
      <trkpt lat="45.31721" lon="6.24756">
        <ele>1127.8000488281</ele>
        <time>2014-03-02T16:05:59.000Z</time>
      </trkpt>
      <trkpt lat="45.31721" lon="6.24756">
        <ele>1127.8000488281</ele>
        <time>2014-03-02T16:06:00.000Z</time>
      </trkpt>
      <trkpt lat="45.31721" lon="6.24756">
        <ele>1127.8000488281</ele>
        <time>2014-03-02T16:06:01.000Z</time>
      </trkpt>
      <trkpt lat="45.31721" lon="6.24756">
        <ele>1127.8000488281</ele>
        <time>2014-03-02T16:06:02.000Z</time>
      </trkpt>
      <trkpt lat="45.31721" lon="6.24756">
        <ele>1127.8000488281</ele>
        <time>2014-03-02T16:06:03.000Z</time>
      </trkpt>
      <trkpt lat="45.31721" lon="6.24756">
        <ele>1127.8000488281</ele>
        <time>2014-03-02T16:06:04.000Z</time>
      </trkpt>
      <trkpt lat="45.31721" lon="6.24756">
        <ele>1127.8000488281</ele>
        <time>2014-03-02T16:06:05.000Z</time>
      </trkpt>
      <trkpt lat="45.31721" lon="6.24756">
        <ele>1127.8000488281</ele>
        <time>2014-03-02T16:06:06.000Z</time>
      </trkpt>
      <trkpt lat="45.31721" lon="6.24756">
        <ele>1127.8000488281</ele>
        <time>2014-03-02T16:06:07.000Z</time>
      </trkpt>
      <trkpt lat="45.31721" lon="6.24756">
        <ele>1127.8000488281</ele>
        <time>2014-03-02T16:06:08.000Z</time>
      </trkpt>
      <trkpt lat="45.31721" lon="6.24756">
        <ele>1127.8000488281</ele>
        <time>2014-03-02T16:06:10.000Z</time>
      </trkpt>
      <trkpt lat="45.31721" lon="6.24756">
        <ele>1127.8000488281</ele>
        <time>2014-03-02T16:06:12.000Z</time>
      </trkpt>
      <trkpt lat="45.31721" lon="6.24756">
        <ele>1127.8000488281</ele>
        <time>2014-03-02T16:06:13.000Z</time>
      </trkpt>
      <trkpt lat="45.31721" lon="6.24756">
        <ele>1127.8000488281</ele>
        <time>2014-03-02T16:06:14.000Z</time>
      </trkpt>
      <trkpt lat="45.31721" lon="6.24756">
        <ele>1127.8000488281</ele>
        <time>2014-03-02T16:06:15.000Z</time>
      </trkpt>
      <trkpt lat="45.31721" lon="6.24756">
        <ele>1127.8000488281</ele>
        <time>2014-03-02T16:06:16.000Z</time>
      </trkpt>
      <trkpt lat="45.31723" lon="6.2476">
        <ele>1128.5999755859</ele>
        <time>2014-03-02T16:06:19.000Z</time>
      </trkpt>
      <trkpt lat="45.31723" lon="6.24764">
        <ele>1128.1999511719</ele>
        <time>2014-03-02T16:06:20.000Z</time>
      </trkpt>
      <trkpt lat="45.31721" lon="6.24769">
        <ele>1126.8000488281</ele>
        <time>2014-03-02T16:06:21.000Z</time>
      </trkpt>
      <trkpt lat="45.3172" lon="6.24774">
        <ele>1125.1999511719</ele>
        <time>2014-03-02T16:06:22.000Z</time>
      </trkpt>
      <trkpt lat="45.31718" lon="6.24779">
        <ele>1123.8000488281</ele>
        <time>2014-03-02T16:06:23.000Z</time>
      </trkpt>
      <trkpt lat="45.31717" lon="6.24784">
        <ele>1122.4000244141</ele>
        <time>2014-03-02T16:06:24.000Z</time>
      </trkpt>
      <trkpt lat="45.31715" lon="6.24789">
        <ele>1120.5999755859</ele>
        <time>2014-03-02T16:06:25.000Z</time>
      </trkpt>
      <trkpt lat="45.31713" lon="6.24795">
        <ele>1119</ele>
        <time>2014-03-02T16:06:26.000Z</time>
      </trkpt>
      <trkpt lat="45.31711" lon="6.248">
        <ele>1118</ele>
        <time>2014-03-02T16:06:27.000Z</time>
      </trkpt>
      <trkpt lat="45.3171" lon="6.24807">
        <ele>1117</ele>
        <time>2014-03-02T16:06:28.000Z</time>
      </trkpt>
      <trkpt lat="45.31708" lon="6.24814">
        <ele>1115.4000244141</ele>
        <time>2014-03-02T16:06:29.000Z</time>
      </trkpt>
      <trkpt lat="45.31706" lon="6.24821">
        <ele>1115</ele>
        <time>2014-03-02T16:06:30.000Z</time>
      </trkpt>
      <trkpt lat="45.31705" lon="6.24829">
        <ele>1114.5999755859</ele>
        <time>2014-03-02T16:06:31.000Z</time>
      </trkpt>
      <trkpt lat="45.31703" lon="6.24837">
        <ele>1114</ele>
        <time>2014-03-02T16:06:32.000Z</time>
      </trkpt>
      <trkpt lat="45.31701" lon="6.24845">
        <ele>1113.4000244141</ele>
        <time>2014-03-02T16:06:33.000Z</time>
      </trkpt>
      <trkpt lat="45.31699" lon="6.24854">
        <ele>1112.8000488281</ele>
        <time>2014-03-02T16:06:34.000Z</time>
      </trkpt>
      <trkpt lat="45.31697" lon="6.24862">
        <ele>1112.1999511719</ele>
        <time>2014-03-02T16:06:35.000Z</time>
      </trkpt>
      <trkpt lat="45.31695" lon="6.2487">
        <ele>1111.5999755859</ele>
        <time>2014-03-02T16:06:36.000Z</time>
      </trkpt>
      <trkpt lat="45.31692" lon="6.2488">
        <ele>1110.1999511719</ele>
        <time>2014-03-02T16:06:37.000Z</time>
      </trkpt>
      <trkpt lat="45.31689" lon="6.24892">
        <ele>1107.5999755859</ele>
        <time>2014-03-02T16:06:38.000Z</time>
      </trkpt>
      <trkpt lat="45.31686" lon="6.24905">
        <ele>1106.8000488281</ele>
        <time>2014-03-02T16:06:39.000Z</time>
      </trkpt>
      <trkpt lat="45.31682" lon="6.24918">
        <ele>1106.5999755859</ele>
        <time>2014-03-02T16:06:40.000Z</time>
      </trkpt>
      <trkpt lat="45.31678" lon="6.2493">
        <ele>1106.5999755859</ele>
        <time>2014-03-02T16:06:41.000Z</time>
      </trkpt>
      <trkpt lat="45.31675" lon="6.24942">
        <ele>1106</ele>
        <time>2014-03-02T16:06:42.000Z</time>
      </trkpt>
      <trkpt lat="45.31672" lon="6.24954">
        <ele>1103</ele>
        <time>2014-03-02T16:06:43.000Z</time>
      </trkpt>
      <trkpt lat="45.31669" lon="6.24965">
        <ele>1100.4000244141</ele>
        <time>2014-03-02T16:06:44.000Z</time>
      </trkpt>
      <trkpt lat="45.31667" lon="6.24976">
        <ele>1098</ele>
        <time>2014-03-02T16:06:45.000Z</time>
      </trkpt>
      <trkpt lat="45.31664" lon="6.24986">
        <ele>1097.4000244141</ele>
        <time>2014-03-02T16:06:46.000Z</time>
      </trkpt>
      <trkpt lat="45.31661" lon="6.24995">
        <ele>1097.4000244141</ele>
        <time>2014-03-02T16:06:47.000Z</time>
      </trkpt>
      <trkpt lat="45.31658" lon="6.25005">
        <ele>1097.4000244141</ele>
        <time>2014-03-02T16:06:48.000Z</time>
      </trkpt>
      <trkpt lat="45.31656" lon="6.25014">
        <ele>1096.4000244141</ele>
        <time>2014-03-02T16:06:49.000Z</time>
      </trkpt>
      <trkpt lat="45.31653" lon="6.25024">
        <ele>1094.8000488281</ele>
        <time>2014-03-02T16:06:50.000Z</time>
      </trkpt>
      <trkpt lat="45.3165" lon="6.25033">
        <ele>1093</ele>
        <time>2014-03-02T16:06:51.000Z</time>
      </trkpt>
      <trkpt lat="45.31647" lon="6.25042">
        <ele>1091.8000488281</ele>
        <time>2014-03-02T16:06:52.000Z</time>
      </trkpt>
      <trkpt lat="45.31645" lon="6.25049">
        <ele>1090.8000488281</ele>
        <time>2014-03-02T16:06:53.000Z</time>
      </trkpt>
      <trkpt lat="45.31645" lon="6.25052">
        <ele>1090.4000244141</ele>
        <time>2014-03-02T16:06:54.000Z</time>
      </trkpt>
      <trkpt lat="45.31644" lon="6.25054">
        <ele>1090.1999511719</ele>
        <time>2014-03-02T16:06:55.000Z</time>
      </trkpt>
      <trkpt lat="45.31644" lon="6.25056">
        <ele>1090</ele>
        <time>2014-03-02T16:06:56.000Z</time>
      </trkpt>
      <trkpt lat="45.31643" lon="6.25059">
        <ele>1089.4000244141</ele>
        <time>2014-03-02T16:06:57.000Z</time>
      </trkpt>
      <trkpt lat="45.31642" lon="6.25062">
        <ele>1089</ele>
        <time>2014-03-02T16:06:58.000Z</time>
      </trkpt>
      <trkpt lat="45.31641" lon="6.25066">
        <ele>1088.5999755859</ele>
        <time>2014-03-02T16:06:59.000Z</time>
      </trkpt>
      <trkpt lat="45.3164" lon="6.2507">
        <ele>1088.5999755859</ele>
        <time>2014-03-02T16:07:00.000Z</time>
      </trkpt>
      <trkpt lat="45.31639" lon="6.25073">
        <ele>1088.4000244141</ele>
        <time>2014-03-02T16:07:01.000Z</time>
      </trkpt>
      <trkpt lat="45.31638" lon="6.25075">
        <ele>1087.8000488281</ele>
        <time>2014-03-02T16:07:02.000Z</time>
      </trkpt>
      <trkpt lat="45.31638" lon="6.25078">
        <ele>1087.5999755859</ele>
        <time>2014-03-02T16:07:03.000Z</time>
      </trkpt>
      <trkpt lat="45.31638" lon="6.25079">
        <ele>1087.4000244141</ele>
        <time>2014-03-02T16:07:04.000Z</time>
      </trkpt>
      <trkpt lat="45.31638" lon="6.25079">
        <ele>1087.4000244141</ele>
        <time>2014-03-02T16:07:05.000Z</time>
      </trkpt>
      <trkpt lat="45.31638" lon="6.2508">
        <ele>1087.5999755859</ele>
        <time>2014-03-02T16:07:06.000Z</time>
      </trkpt>
      <trkpt lat="45.31638" lon="6.2508">
        <ele>1087.5999755859</ele>
        <time>2014-03-02T16:07:07.000Z</time>
      </trkpt>
      <trkpt lat="45.31638" lon="6.2508">
        <ele>1087.5999755859</ele>
        <time>2014-03-02T16:07:08.000Z</time>
      </trkpt>
      <trkpt lat="45.31637" lon="6.25081">
        <ele>1087.1999511719</ele>
        <time>2014-03-02T16:07:09.000Z</time>
      </trkpt>
      <trkpt lat="45.31637" lon="6.25081">
        <ele>1087.1999511719</ele>
        <time>2014-03-02T16:07:10.000Z</time>
      </trkpt>
      <trkpt lat="45.31637" lon="6.25081">
        <ele>1087.1999511719</ele>
        <time>2014-03-02T16:07:11.000Z</time>
      </trkpt>
      <trkpt lat="45.31637" lon="6.25081">
        <ele>1087.1999511719</ele>
        <time>2014-03-02T16:07:12.000Z</time>
      </trkpt>
      <trkpt lat="45.31637" lon="6.25081">
        <ele>1087.1999511719</ele>
        <time>2014-03-02T16:07:13.000Z</time>
      </trkpt>
      <trkpt lat="45.31637" lon="6.25081">
        <ele>1087.1999511719</ele>
        <time>2014-03-02T16:07:14.000Z</time>
      </trkpt>
      <trkpt lat="45.31637" lon="6.25081">
        <ele>1087.1999511719</ele>
        <time>2014-03-02T16:07:15.000Z</time>
      </trkpt>
      <trkpt lat="45.31637" lon="6.25081">
        <ele>1087.1999511719</ele>
        <time>2014-03-02T16:07:16.000Z</time>
      </trkpt>
      <trkpt lat="45.31637" lon="6.25081">
        <ele>1087.1999511719</ele>
        <time>2014-03-02T16:07:17.000Z</time>
      </trkpt>
      <trkpt lat="45.31637" lon="6.25081">
        <ele>1087.1999511719</ele>
        <time>2014-03-02T16:07:18.000Z</time>
      </trkpt>
      <trkpt lat="45.31637" lon="6.25081">
        <ele>1087.1999511719</ele>
        <time>2014-03-02T16:07:19.000Z</time>
      </trkpt>
      <trkpt lat="45.31637" lon="6.25081">
        <ele>1087</ele>
        <time>2014-03-02T16:07:20.000Z</time>
      </trkpt>
      <trkpt lat="45.31637" lon="6.25082">
        <ele>1087</ele>
        <time>2014-03-02T16:07:21.000Z</time>
      </trkpt>
      <trkpt lat="45.31636" lon="6.25083">
        <ele>1086.8000488281</ele>
        <time>2014-03-02T16:07:22.000Z</time>
      </trkpt>
      <trkpt lat="45.31636" lon="6.25084">
        <ele>1086.8000488281</ele>
        <time>2014-03-02T16:07:23.000Z</time>
      </trkpt>
      <trkpt lat="45.31636" lon="6.25084">
        <ele>1086.8000488281</ele>
        <time>2014-03-02T16:07:24.000Z</time>
      </trkpt>
      <trkpt lat="45.31636" lon="6.25084">
        <ele>1086.8000488281</ele>
        <time>2014-03-02T16:07:25.000Z</time>
      </trkpt>
      <trkpt lat="45.31636" lon="6.25084">
        <ele>1086.8000488281</ele>
        <time>2014-03-02T16:07:26.000Z</time>
      </trkpt>
      <trkpt lat="45.31636" lon="6.25084">
        <ele>1086.8000488281</ele>
        <time>2014-03-02T16:07:27.000Z</time>
      </trkpt>
      <trkpt lat="45.31636" lon="6.25084">
        <ele>1086.8000488281</ele>
        <time>2014-03-02T16:07:28.000Z</time>
      </trkpt>
      <trkpt lat="45.31636" lon="6.25086">
        <ele>1086.4000244141</ele>
        <time>2014-03-02T16:07:29.000Z</time>
      </trkpt>
      <trkpt lat="45.31635" lon="6.25088">
        <ele>1085.8000488281</ele>
        <time>2014-03-02T16:07:30.000Z</time>
      </trkpt>
      <trkpt lat="45.31634" lon="6.2509">
        <ele>1085.4000244141</ele>
        <time>2014-03-02T16:07:31.000Z</time>
      </trkpt>
      <trkpt lat="45.31634" lon="6.25091">
        <ele>1085.1999511719</ele>
        <time>2014-03-02T16:07:32.000Z</time>
      </trkpt>
      <trkpt lat="45.31633" lon="6.25093">
        <ele>1084.4000244141</ele>
        <time>2014-03-02T16:07:34.000Z</time>
      </trkpt>
      <trkpt lat="45.31632" lon="6.25095">
        <ele>1084.1999511719</ele>
        <time>2014-03-02T16:07:35.000Z</time>
      </trkpt>
      <trkpt lat="45.31631" lon="6.25097">
        <ele>1083.8000488281</ele>
        <time>2014-03-02T16:07:36.000Z</time>
      </trkpt>
      <trkpt lat="45.31631" lon="6.25098">
        <ele>1083.8000488281</ele>
        <time>2014-03-02T16:07:37.000Z</time>
      </trkpt>
      <trkpt lat="45.31631" lon="6.25099">
        <ele>1083.5999755859</ele>
        <time>2014-03-02T16:07:38.000Z</time>
      </trkpt>
      <trkpt lat="45.31631" lon="6.251">
        <ele>1083.4000244141</ele>
        <time>2014-03-02T16:07:39.000Z</time>
      </trkpt>
      <trkpt lat="45.31631" lon="6.251">
        <ele>1083.5999755859</ele>
        <time>2014-03-02T16:07:40.000Z</time>
      </trkpt>
      <trkpt lat="45.31631" lon="6.25102">
        <ele>1084.1999511719</ele>
        <time>2014-03-02T16:07:41.000Z</time>
      </trkpt>
      <trkpt lat="45.31632" lon="6.25104">
        <ele>1084.5999755859</ele>
        <time>2014-03-02T16:07:42.000Z</time>
      </trkpt>
      <trkpt lat="45.31631" lon="6.25106">
        <ele>1084.4000244141</ele>
        <time>2014-03-02T16:07:43.000Z</time>
      </trkpt>
      <trkpt lat="45.31631" lon="6.25107">
        <ele>1084</ele>
        <time>2014-03-02T16:07:44.000Z</time>
      </trkpt>
      <trkpt lat="45.31631" lon="6.25108">
        <ele>1083.8000488281</ele>
        <time>2014-03-02T16:07:45.000Z</time>
      </trkpt>
      <trkpt lat="45.31631" lon="6.25109">
        <ele>1084</ele>
        <time>2014-03-02T16:07:46.000Z</time>
      </trkpt>
      <trkpt lat="45.3163" lon="6.2511">
        <ele>1083.8000488281</ele>
        <time>2014-03-02T16:07:47.000Z</time>
      </trkpt>
      <trkpt lat="45.31629" lon="6.25112">
        <ele>1083.5999755859</ele>
        <time>2014-03-02T16:07:48.000Z</time>
      </trkpt>
      <trkpt lat="45.31628" lon="6.25111">
        <ele>1083.4000244141</ele>
        <time>2014-03-02T16:07:49.000Z</time>
      </trkpt>
      <trkpt lat="45.31627" lon="6.25109">
        <ele>1083</ele>
        <time>2014-03-02T16:07:50.000Z</time>
      </trkpt>
      <trkpt lat="45.31627" lon="6.25107">
        <ele>1082.8000488281</ele>
        <time>2014-03-02T16:07:51.000Z</time>
      </trkpt>
      <trkpt lat="45.31626" lon="6.25105">
        <ele>1082.5999755859</ele>
        <time>2014-03-02T16:07:52.000Z</time>
      </trkpt>
      <trkpt lat="45.31626" lon="6.25103">
        <ele>1082.4000244141</ele>
        <time>2014-03-02T16:07:53.000Z</time>
      </trkpt>
      <trkpt lat="45.31626" lon="6.25102">
        <ele>1082.1999511719</ele>
        <time>2014-03-02T16:07:54.000Z</time>
      </trkpt>
      <trkpt lat="45.31626" lon="6.251">
        <ele>1082.1999511719</ele>
        <time>2014-03-02T16:07:55.000Z</time>
      </trkpt>
      <trkpt lat="45.31626" lon="6.25098">
        <ele>1082</ele>
        <time>2014-03-02T16:07:56.000Z</time>
      </trkpt>
      <trkpt lat="45.31626" lon="6.25095">
        <ele>1081.8000488281</ele>
        <time>2014-03-02T16:07:57.000Z</time>
      </trkpt>
      <trkpt lat="45.31625" lon="6.25093">
        <ele>1081.5999755859</ele>
        <time>2014-03-02T16:07:58.000Z</time>
      </trkpt>
      <trkpt lat="45.31625" lon="6.25091">
        <ele>1081.5999755859</ele>
        <time>2014-03-02T16:07:59.000Z</time>
      </trkpt>
      <trkpt lat="45.31625" lon="6.2509">
        <ele>1081.4000244141</ele>
        <time>2014-03-02T16:08:00.000Z</time>
      </trkpt>
      <trkpt lat="45.31625" lon="6.25088">
        <ele>1081.1999511719</ele>
        <time>2014-03-02T16:08:01.000Z</time>
      </trkpt>
      <trkpt lat="45.31625" lon="6.25085">
        <ele>1081</ele>
        <time>2014-03-02T16:08:02.000Z</time>
      </trkpt>
      <trkpt lat="45.31625" lon="6.25083">
        <ele>1080.8000488281</ele>
        <time>2014-03-02T16:08:03.000Z</time>
      </trkpt>
      <trkpt lat="45.31624" lon="6.25082">
        <ele>1080.8000488281</ele>
        <time>2014-03-02T16:08:04.000Z</time>
      </trkpt>
      <trkpt lat="45.31624" lon="6.2508">
        <ele>1080.4000244141</ele>
        <time>2014-03-02T16:08:05.000Z</time>
      </trkpt>
      <trkpt lat="45.31623" lon="6.25078">
        <ele>1080.1999511719</ele>
        <time>2014-03-02T16:08:06.000Z</time>
      </trkpt>
      <trkpt lat="45.31622" lon="6.25076">
        <ele>1079.8000488281</ele>
        <time>2014-03-02T16:08:07.000Z</time>
      </trkpt>
      <trkpt lat="45.31622" lon="6.25074">
        <ele>1079.5999755859</ele>
        <time>2014-03-02T16:08:08.000Z</time>
      </trkpt>
      <trkpt lat="45.31622" lon="6.25073">
        <ele>1079.4000244141</ele>
        <time>2014-03-02T16:08:09.000Z</time>
      </trkpt>
      <trkpt lat="45.31621" lon="6.25071">
        <ele>1079.1999511719</ele>
        <time>2014-03-02T16:08:10.000Z</time>
      </trkpt>
      <trkpt lat="45.31621" lon="6.25069">
        <ele>1079</ele>
        <time>2014-03-02T16:08:11.000Z</time>
      </trkpt>
      <trkpt lat="45.3162" lon="6.25067">
        <ele>1078.8000488281</ele>
        <time>2014-03-02T16:08:12.000Z</time>
      </trkpt>
      <trkpt lat="45.3162" lon="6.25066">
        <ele>1078.8000488281</ele>
        <time>2014-03-02T16:08:13.000Z</time>
      </trkpt>
      <trkpt lat="45.3162" lon="6.25064">
        <ele>1078.5999755859</ele>
        <time>2014-03-02T16:08:14.000Z</time>
      </trkpt>
      <trkpt lat="45.3162" lon="6.25062">
        <ele>1078.5999755859</ele>
        <time>2014-03-02T16:08:15.000Z</time>
      </trkpt>
      <trkpt lat="45.31621" lon="6.25061">
        <ele>1079</ele>
        <time>2014-03-02T16:08:16.000Z</time>
      </trkpt>
      <trkpt lat="45.31622" lon="6.2506">
        <ele>1079.4000244141</ele>
        <time>2014-03-02T16:08:17.000Z</time>
      </trkpt>
      <trkpt lat="45.31623" lon="6.2506">
        <ele>1079.8000488281</ele>
        <time>2014-03-02T16:08:18.000Z</time>
      </trkpt>
      <trkpt lat="45.31623" lon="6.2506">
        <ele>1079.8000488281</ele>
        <time>2014-03-02T16:08:19.000Z</time>
      </trkpt>
      <trkpt lat="45.31623" lon="6.2506">
        <ele>1079.8000488281</ele>
        <time>2014-03-02T16:08:20.000Z</time>
      </trkpt>
      <trkpt lat="45.31623" lon="6.2506">
        <ele>1079.8000488281</ele>
        <time>2014-03-02T16:08:21.000Z</time>
      </trkpt>
      <trkpt lat="45.31623" lon="6.2506">
        <ele>1079.8000488281</ele>
        <time>2014-03-02T16:08:23.000Z</time>
      </trkpt>
      <trkpt lat="45.31623" lon="6.2506">
        <ele>1079.8000488281</ele>
        <time>2014-03-02T16:08:24.000Z</time>
      </trkpt>
      <trkpt lat="45.31623" lon="6.2506">
        <ele>1079.8000488281</ele>
        <time>2014-03-02T16:08:25.000Z</time>
      </trkpt>
      <trkpt lat="45.31623" lon="6.2506">
        <ele>1079.8000488281</ele>
        <time>2014-03-02T16:08:26.000Z</time>
      </trkpt>
      <trkpt lat="45.31623" lon="6.2506">
        <ele>1079.8000488281</ele>
        <time>2014-03-02T16:08:27.000Z</time>
      </trkpt>
      <trkpt lat="45.31623" lon="6.2506">
        <ele>1079.8000488281</ele>
        <time>2014-03-02T16:08:28.000Z</time>
      </trkpt>
      <trkpt lat="45.31623" lon="6.2506">
        <ele>1079.8000488281</ele>
        <time>2014-03-02T16:08:29.000Z</time>
      </trkpt>
      <trkpt lat="45.31623" lon="6.2506">
        <ele>1079.8000488281</ele>
        <time>2014-03-02T16:08:30.000Z</time>
      </trkpt>
      <trkpt lat="45.31623" lon="6.2506">
        <ele>1079.8000488281</ele>
        <time>2014-03-02T16:08:31.000Z</time>
      </trkpt>
      <trkpt lat="45.31623" lon="6.2506">
        <ele>1079.8000488281</ele>
        <time>2014-03-02T16:08:32.000Z</time>
      </trkpt>
      <trkpt lat="45.31623" lon="6.2506">
        <ele>1079.8000488281</ele>
        <time>2014-03-02T16:08:33.000Z</time>
      </trkpt>
      <trkpt lat="45.31623" lon="6.2506">
        <ele>1079.8000488281</ele>
        <time>2014-03-02T16:08:34.000Z</time>
      </trkpt>
      <trkpt lat="45.31623" lon="6.2506">
        <ele>1079.8000488281</ele>
        <time>2014-03-02T16:08:35.000Z</time>
      </trkpt>
      <trkpt lat="45.31623" lon="6.2506">
        <ele>1079.8000488281</ele>
        <time>2014-03-02T16:08:36.000Z</time>
      </trkpt>
      <trkpt lat="45.31623" lon="6.2506">
        <ele>1079.8000488281</ele>
        <time>2014-03-02T16:08:37.000Z</time>
      </trkpt>
      <trkpt lat="45.31623" lon="6.2506">
        <ele>1079.8000488281</ele>
        <time>2014-03-02T16:08:38.000Z</time>
      </trkpt>
      <trkpt lat="45.31623" lon="6.2506">
        <ele>1079.8000488281</ele>
        <time>2014-03-02T16:08:39.000Z</time>
      </trkpt>
      <trkpt lat="45.31623" lon="6.2506">
        <ele>1079.8000488281</ele>
        <time>2014-03-02T16:08:40.000Z</time>
      </trkpt>
      <trkpt lat="45.31623" lon="6.2506">
        <ele>1079.8000488281</ele>
        <time>2014-03-02T16:08:41.000Z</time>
      </trkpt>
      <trkpt lat="45.31623" lon="6.2506">
        <ele>1079.8000488281</ele>
        <time>2014-03-02T16:08:42.000Z</time>
      </trkpt>
      <trkpt lat="45.31623" lon="6.2506">
        <ele>1079.8000488281</ele>
        <time>2014-03-02T16:08:43.000Z</time>
      </trkpt>
      <trkpt lat="45.31623" lon="6.2506">
        <ele>1079.8000488281</ele>
        <time>2014-03-02T16:08:44.000Z</time>
      </trkpt>
      <trkpt lat="45.31623" lon="6.2506">
        <ele>1079.8000488281</ele>
        <time>2014-03-02T16:08:45.000Z</time>
      </trkpt>
      <trkpt lat="45.31623" lon="6.2506">
        <ele>1079.8000488281</ele>
        <time>2014-03-02T16:08:46.000Z</time>
      </trkpt>
      <trkpt lat="45.31623" lon="6.2506">
        <ele>1079.8000488281</ele>
        <time>2014-03-02T16:08:47.000Z</time>
      </trkpt>
      <trkpt lat="45.31623" lon="6.2506">
        <ele>1079.8000488281</ele>
        <time>2014-03-02T16:08:48.000Z</time>
      </trkpt>
      <trkpt lat="45.31623" lon="6.2506">
        <ele>1079.8000488281</ele>
        <time>2014-03-02T16:08:49.000Z</time>
      </trkpt>
    </trkseg>
  </trk>
</gpx>